<?xml version="1.0" encoding="UTF-8" standalone="no" ?>
<gpx xmlns="http://www.topografix.com/GPX/1/1" xmlns:xsi="http://www.w3.org/2001/XMLSchema-instance" xsi:schemaLocation="http://www.topografix.com/GPX/1/1 http://www.topografix.com/GPX/1/1/gpx.xsd" version="1.1" creator="VisuGPX - https://www.visugpx.com">
  <metadata>
    <name>Le Saint </name>
    <desc><![CDATA[Beaux chemins creux autour de Le Saint, chapelles et fontaines]]></desc>
  </metadata>
  <trk>
    <name><![CDATA[Tracé 20250225-085337]]></name>
    <extensions>
      <line xmlns="http://www.topografix.com/GPX/gpx_style/0/2">
        <color>0000FF</color>
        <width>4</width>
      </line>
    </extensions>
    <trkseg>
      <trkpt lat="48.08951" lon="-3.56072">
        <ele>169.1</ele>
        <time>2025-02-25T07:53:37Z</time>
      </trkpt>
      <trkpt lat="48.08951" lon="-3.56072">
        <ele>169.1</ele>
        <time>2025-02-25T07:53:38Z</time>
      </trkpt>
      <trkpt lat="48.08951" lon="-3.56072">
        <ele>169.1</ele>
        <time>2025-02-25T07:53:39Z</time>
      </trkpt>
      <trkpt lat="48.08951" lon="-3.56073">
        <ele>169.1</ele>
        <time>2025-02-25T07:53:40Z</time>
      </trkpt>
      <trkpt lat="48.08951" lon="-3.56073">
        <ele>169.1</ele>
        <time>2025-02-25T07:53:41Z</time>
      </trkpt>
      <trkpt lat="48.0895" lon="-3.56074">
        <ele>169.1</ele>
        <time>2025-02-25T07:53:42Z</time>
      </trkpt>
      <trkpt lat="48.0895" lon="-3.56074">
        <ele>169.1</ele>
        <time>2025-02-25T07:53:43Z</time>
      </trkpt>
      <trkpt lat="48.0895" lon="-3.56074">
        <ele>169.1</ele>
        <time>2025-02-25T07:53:44Z</time>
      </trkpt>
      <trkpt lat="48.0895" lon="-3.56074">
        <ele>169.1</ele>
        <time>2025-02-25T07:53:45Z</time>
      </trkpt>
      <trkpt lat="48.0895" lon="-3.56074">
        <ele>169.1</ele>
        <time>2025-02-25T07:53:46Z</time>
      </trkpt>
      <trkpt lat="48.0895" lon="-3.56074">
        <ele>169.1</ele>
        <time>2025-02-25T07:53:47Z</time>
      </trkpt>
      <trkpt lat="48.0895" lon="-3.56074">
        <ele>169.1</ele>
        <time>2025-02-25T07:53:48Z</time>
      </trkpt>
      <trkpt lat="48.0895" lon="-3.56074">
        <ele>169.1</ele>
        <time>2025-02-25T07:53:49Z</time>
      </trkpt>
      <trkpt lat="48.0895" lon="-3.56074">
        <ele>169.1</ele>
        <time>2025-02-25T07:53:50Z</time>
      </trkpt>
      <trkpt lat="48.0895" lon="-3.56074">
        <ele>169.1</ele>
        <time>2025-02-25T07:53:51Z</time>
      </trkpt>
      <trkpt lat="48.0895" lon="-3.56074">
        <ele>169.1</ele>
        <time>2025-02-25T07:53:52Z</time>
      </trkpt>
      <trkpt lat="48.0895" lon="-3.56074">
        <ele>169.1</ele>
        <time>2025-02-25T07:53:53Z</time>
      </trkpt>
      <trkpt lat="48.0895" lon="-3.56074">
        <ele>169.1</ele>
        <time>2025-02-25T07:53:54Z</time>
      </trkpt>
      <trkpt lat="48.0895" lon="-3.56074">
        <ele>169.1</ele>
        <time>2025-02-25T07:53:55Z</time>
      </trkpt>
      <trkpt lat="48.0895" lon="-3.56074">
        <ele>169.1</ele>
        <time>2025-02-25T07:53:56Z</time>
      </trkpt>
      <trkpt lat="48.0895" lon="-3.56074">
        <ele>169.1</ele>
        <time>2025-02-25T07:53:57Z</time>
      </trkpt>
      <trkpt lat="48.0895" lon="-3.56074">
        <ele>169.1</ele>
        <time>2025-02-25T07:53:58Z</time>
      </trkpt>
      <trkpt lat="48.0895" lon="-3.56074">
        <ele>169.1</ele>
        <time>2025-02-25T07:53:59Z</time>
      </trkpt>
      <trkpt lat="48.0895" lon="-3.56075">
        <ele>169.1</ele>
        <time>2025-02-25T07:54:00Z</time>
      </trkpt>
      <trkpt lat="48.08952" lon="-3.56074">
        <ele>169.2</ele>
        <time>2025-02-25T07:54:01Z</time>
      </trkpt>
      <trkpt lat="48.08953" lon="-3.56073">
        <ele>169.2</ele>
        <time>2025-02-25T07:54:02Z</time>
      </trkpt>
      <trkpt lat="48.08954" lon="-3.56072">
        <ele>169.2</ele>
        <time>2025-02-25T07:54:03Z</time>
      </trkpt>
      <trkpt lat="48.08955" lon="-3.56072">
        <ele>169.2</ele>
        <time>2025-02-25T07:54:04Z</time>
      </trkpt>
      <trkpt lat="48.08955" lon="-3.56072">
        <ele>169.2</ele>
        <time>2025-02-25T07:54:05Z</time>
      </trkpt>
      <trkpt lat="48.08955" lon="-3.56071">
        <ele>169.2</ele>
        <time>2025-02-25T07:54:06Z</time>
      </trkpt>
      <trkpt lat="48.08955" lon="-3.56071">
        <ele>169.2</ele>
        <time>2025-02-25T07:54:07Z</time>
      </trkpt>
      <trkpt lat="48.08954" lon="-3.56071">
        <ele>169.2</ele>
        <time>2025-02-25T07:54:08Z</time>
      </trkpt>
      <trkpt lat="48.08954" lon="-3.56071">
        <ele>169.2</ele>
        <time>2025-02-25T07:54:09Z</time>
      </trkpt>
      <trkpt lat="48.08954" lon="-3.56071">
        <ele>169.2</ele>
        <time>2025-02-25T07:54:10Z</time>
      </trkpt>
      <trkpt lat="48.08954" lon="-3.56071">
        <ele>169.2</ele>
        <time>2025-02-25T07:54:11Z</time>
      </trkpt>
      <trkpt lat="48.08954" lon="-3.56071">
        <ele>169.2</ele>
        <time>2025-02-25T07:54:12Z</time>
      </trkpt>
      <trkpt lat="48.08954" lon="-3.56071">
        <ele>169.2</ele>
        <time>2025-02-25T07:54:13Z</time>
      </trkpt>
      <trkpt lat="48.08955" lon="-3.56071">
        <ele>169.2</ele>
        <time>2025-02-25T07:54:14Z</time>
      </trkpt>
      <trkpt lat="48.08955" lon="-3.56071">
        <ele>169.2</ele>
        <time>2025-02-25T07:54:15Z</time>
      </trkpt>
      <trkpt lat="48.08955" lon="-3.56072">
        <ele>169.2</ele>
        <time>2025-02-25T07:54:16Z</time>
      </trkpt>
      <trkpt lat="48.08957" lon="-3.56072">
        <ele>169.3</ele>
        <time>2025-02-25T07:54:17Z</time>
      </trkpt>
      <trkpt lat="48.08958" lon="-3.56071">
        <ele>169.3</ele>
        <time>2025-02-25T07:54:18Z</time>
      </trkpt>
      <trkpt lat="48.08959" lon="-3.56071">
        <ele>169.3</ele>
        <time>2025-02-25T07:54:19Z</time>
      </trkpt>
      <trkpt lat="48.0896" lon="-3.5607">
        <ele>169.3</ele>
        <time>2025-02-25T07:54:20Z</time>
      </trkpt>
      <trkpt lat="48.0896" lon="-3.5607">
        <ele>169.3</ele>
        <time>2025-02-25T07:54:21Z</time>
      </trkpt>
      <trkpt lat="48.08961" lon="-3.5607">
        <ele>169.3</ele>
        <time>2025-02-25T07:54:22Z</time>
      </trkpt>
      <trkpt lat="48.08961" lon="-3.5607">
        <ele>169.3</ele>
        <time>2025-02-25T07:54:23Z</time>
      </trkpt>
      <trkpt lat="48.08962" lon="-3.56071">
        <ele>169.4</ele>
        <time>2025-02-25T07:54:24Z</time>
      </trkpt>
      <trkpt lat="48.08962" lon="-3.5607">
        <ele>169.3</ele>
        <time>2025-02-25T07:54:25Z</time>
      </trkpt>
      <trkpt lat="48.08963" lon="-3.56071">
        <ele>169.4</ele>
        <time>2025-02-25T07:54:26Z</time>
      </trkpt>
      <trkpt lat="48.08964" lon="-3.56071">
        <ele>169.4</ele>
        <time>2025-02-25T07:54:27Z</time>
      </trkpt>
      <trkpt lat="48.08965" lon="-3.56071">
        <ele>169.4</ele>
        <time>2025-02-25T07:54:28Z</time>
      </trkpt>
      <trkpt lat="48.08967" lon="-3.56071">
        <ele>169.5</ele>
        <time>2025-02-25T07:54:29Z</time>
      </trkpt>
      <trkpt lat="48.08968" lon="-3.56071">
        <ele>169.5</ele>
        <time>2025-02-25T07:54:30Z</time>
      </trkpt>
      <trkpt lat="48.0897" lon="-3.56071">
        <ele>169.5</ele>
        <time>2025-02-25T07:54:31Z</time>
      </trkpt>
      <trkpt lat="48.0897" lon="-3.56072">
        <ele>169.5</ele>
        <time>2025-02-25T07:54:32Z</time>
      </trkpt>
      <trkpt lat="48.08971" lon="-3.56073">
        <ele>169.6</ele>
        <time>2025-02-25T07:54:33Z</time>
      </trkpt>
      <trkpt lat="48.08972" lon="-3.56074">
        <ele>169.7</ele>
        <time>2025-02-25T07:54:34Z</time>
      </trkpt>
      <trkpt lat="48.08973" lon="-3.56075">
        <ele>169.7</ele>
        <time>2025-02-25T07:54:35Z</time>
      </trkpt>
      <trkpt lat="48.08973" lon="-3.56077">
        <ele>169.8</ele>
        <time>2025-02-25T07:54:36Z</time>
      </trkpt>
      <trkpt lat="48.08973" lon="-3.56078">
        <ele>169.8</ele>
        <time>2025-02-25T07:54:37Z</time>
      </trkpt>
      <trkpt lat="48.08972" lon="-3.56079">
        <ele>169.8</ele>
        <time>2025-02-25T07:54:38Z</time>
      </trkpt>
      <trkpt lat="48.08971" lon="-3.5608">
        <ele>169.8</ele>
        <time>2025-02-25T07:54:39Z</time>
      </trkpt>
      <trkpt lat="48.0897" lon="-3.56081">
        <ele>169.8</ele>
        <time>2025-02-25T07:54:40Z</time>
      </trkpt>
      <trkpt lat="48.08969" lon="-3.56081">
        <ele>169.8</ele>
        <time>2025-02-25T07:54:41Z</time>
      </trkpt>
      <trkpt lat="48.08968" lon="-3.56082">
        <ele>169.8</ele>
        <time>2025-02-25T07:54:42Z</time>
      </trkpt>
      <trkpt lat="48.08968" lon="-3.56083">
        <ele>169.8</ele>
        <time>2025-02-25T07:54:43Z</time>
      </trkpt>
      <trkpt lat="48.08968" lon="-3.56085">
        <ele>169.9</ele>
        <time>2025-02-25T07:54:44Z</time>
      </trkpt>
      <trkpt lat="48.08968" lon="-3.56086">
        <ele>169.9</ele>
        <time>2025-02-25T07:54:45Z</time>
      </trkpt>
      <trkpt lat="48.08968" lon="-3.56087">
        <ele>170</ele>
        <time>2025-02-25T07:54:46Z</time>
      </trkpt>
      <trkpt lat="48.08968" lon="-3.56087">
        <ele>170</ele>
        <time>2025-02-25T07:54:47Z</time>
      </trkpt>
      <trkpt lat="48.08968" lon="-3.56087">
        <ele>170</ele>
        <time>2025-02-25T07:54:48Z</time>
      </trkpt>
      <trkpt lat="48.08968" lon="-3.56087">
        <ele>170</ele>
        <time>2025-02-25T07:54:49Z</time>
      </trkpt>
      <trkpt lat="48.08968" lon="-3.56087">
        <ele>170</ele>
        <time>2025-02-25T07:54:50Z</time>
      </trkpt>
      <trkpt lat="48.08968" lon="-3.56087">
        <ele>170</ele>
        <time>2025-02-25T07:54:51Z</time>
      </trkpt>
      <trkpt lat="48.08968" lon="-3.56087">
        <ele>170</ele>
        <time>2025-02-25T07:54:52Z</time>
      </trkpt>
      <trkpt lat="48.08968" lon="-3.56087">
        <ele>170</ele>
        <time>2025-02-25T07:54:53Z</time>
      </trkpt>
      <trkpt lat="48.08968" lon="-3.56087">
        <ele>170</ele>
        <time>2025-02-25T07:54:54Z</time>
      </trkpt>
      <trkpt lat="48.08968" lon="-3.56086">
        <ele>169.9</ele>
        <time>2025-02-25T07:54:55Z</time>
      </trkpt>
      <trkpt lat="48.08969" lon="-3.56086">
        <ele>170</ele>
        <time>2025-02-25T07:54:56Z</time>
      </trkpt>
      <trkpt lat="48.08969" lon="-3.56086">
        <ele>170</ele>
        <time>2025-02-25T07:54:57Z</time>
      </trkpt>
      <trkpt lat="48.08969" lon="-3.56086">
        <ele>170</ele>
        <time>2025-02-25T07:54:58Z</time>
      </trkpt>
      <trkpt lat="48.08969" lon="-3.56086">
        <ele>170</ele>
        <time>2025-02-25T07:54:59Z</time>
      </trkpt>
      <trkpt lat="48.08969" lon="-3.56087">
        <ele>170</ele>
        <time>2025-02-25T07:55:00Z</time>
      </trkpt>
      <trkpt lat="48.08969" lon="-3.56087">
        <ele>170</ele>
        <time>2025-02-25T07:55:01Z</time>
      </trkpt>
      <trkpt lat="48.08969" lon="-3.56087">
        <ele>170</ele>
        <time>2025-02-25T07:55:02Z</time>
      </trkpt>
      <trkpt lat="48.08969" lon="-3.56087">
        <ele>170</ele>
        <time>2025-02-25T07:55:03Z</time>
      </trkpt>
      <trkpt lat="48.0897" lon="-3.56087">
        <ele>170</ele>
        <time>2025-02-25T07:55:04Z</time>
      </trkpt>
      <trkpt lat="48.0897" lon="-3.56087">
        <ele>170</ele>
        <time>2025-02-25T07:55:05Z</time>
      </trkpt>
      <trkpt lat="48.0897" lon="-3.56087">
        <ele>170</ele>
        <time>2025-02-25T07:55:06Z</time>
      </trkpt>
      <trkpt lat="48.08969" lon="-3.56087">
        <ele>170</ele>
        <time>2025-02-25T07:55:07Z</time>
      </trkpt>
      <trkpt lat="48.08969" lon="-3.56087">
        <ele>170</ele>
        <time>2025-02-25T07:55:08Z</time>
      </trkpt>
      <trkpt lat="48.08969" lon="-3.56087">
        <ele>170</ele>
        <time>2025-02-25T07:55:09Z</time>
      </trkpt>
      <trkpt lat="48.08969" lon="-3.56088">
        <ele>170</ele>
        <time>2025-02-25T07:55:10Z</time>
      </trkpt>
      <trkpt lat="48.0897" lon="-3.56089">
        <ele>170.1</ele>
        <time>2025-02-25T07:55:11Z</time>
      </trkpt>
      <trkpt lat="48.0897" lon="-3.5609">
        <ele>170.1</ele>
        <time>2025-02-25T07:55:12Z</time>
      </trkpt>
      <trkpt lat="48.08972" lon="-3.56091">
        <ele>170.3</ele>
        <time>2025-02-25T07:55:13Z</time>
      </trkpt>
      <trkpt lat="48.08973" lon="-3.56092">
        <ele>170.3</ele>
        <time>2025-02-25T07:55:14Z</time>
      </trkpt>
      <trkpt lat="48.08975" lon="-3.56093">
        <ele>170.3</ele>
        <time>2025-02-25T07:55:15Z</time>
      </trkpt>
      <trkpt lat="48.08976" lon="-3.56094">
        <ele>170.3</ele>
        <time>2025-02-25T07:55:16Z</time>
      </trkpt>
      <trkpt lat="48.08978" lon="-3.56094">
        <ele>170.3</ele>
        <time>2025-02-25T07:55:17Z</time>
      </trkpt>
      <trkpt lat="48.08979" lon="-3.56095">
        <ele>170.3</ele>
        <time>2025-02-25T07:55:18Z</time>
      </trkpt>
      <trkpt lat="48.0898" lon="-3.56096">
        <ele>170.3</ele>
        <time>2025-02-25T07:55:19Z</time>
      </trkpt>
      <trkpt lat="48.08981" lon="-3.56098">
        <ele>170.4</ele>
        <time>2025-02-25T07:55:20Z</time>
      </trkpt>
      <trkpt lat="48.08981" lon="-3.56099">
        <ele>170.4</ele>
        <time>2025-02-25T07:55:21Z</time>
      </trkpt>
      <trkpt lat="48.08983" lon="-3.56099">
        <ele>170.3</ele>
        <time>2025-02-25T07:55:22Z</time>
      </trkpt>
      <trkpt lat="48.08984" lon="-3.561">
        <ele>170.3</ele>
        <time>2025-02-25T07:55:23Z</time>
      </trkpt>
      <trkpt lat="48.08985" lon="-3.561">
        <ele>170.3</ele>
        <time>2025-02-25T07:55:24Z</time>
      </trkpt>
      <trkpt lat="48.08986" lon="-3.561">
        <ele>170.3</ele>
        <time>2025-02-25T07:55:25Z</time>
      </trkpt>
      <trkpt lat="48.08987" lon="-3.56102">
        <ele>170.3</ele>
        <time>2025-02-25T07:55:26Z</time>
      </trkpt>
      <trkpt lat="48.08988" lon="-3.56103">
        <ele>170.3</ele>
        <time>2025-02-25T07:55:27Z</time>
      </trkpt>
      <trkpt lat="48.08988" lon="-3.56104">
        <ele>170.3</ele>
        <time>2025-02-25T07:55:28Z</time>
      </trkpt>
      <trkpt lat="48.08989" lon="-3.56104">
        <ele>170.3</ele>
        <time>2025-02-25T07:55:29Z</time>
      </trkpt>
      <trkpt lat="48.0899" lon="-3.56104">
        <ele>170.3</ele>
        <time>2025-02-25T07:55:30Z</time>
      </trkpt>
      <trkpt lat="48.08991" lon="-3.56104">
        <ele>170.2</ele>
        <time>2025-02-25T07:55:31Z</time>
      </trkpt>
      <trkpt lat="48.08992" lon="-3.56103">
        <ele>170.2</ele>
        <time>2025-02-25T07:55:32Z</time>
      </trkpt>
      <trkpt lat="48.08993" lon="-3.56103">
        <ele>170.2</ele>
        <time>2025-02-25T07:55:33Z</time>
      </trkpt>
      <trkpt lat="48.08994" lon="-3.56103">
        <ele>170.2</ele>
        <time>2025-02-25T07:55:34Z</time>
      </trkpt>
      <trkpt lat="48.08995" lon="-3.56103">
        <ele>170.1</ele>
        <time>2025-02-25T07:55:35Z</time>
      </trkpt>
      <trkpt lat="48.08996" lon="-3.56105">
        <ele>170.1</ele>
        <time>2025-02-25T07:55:36Z</time>
      </trkpt>
      <trkpt lat="48.08997" lon="-3.56106">
        <ele>170.1</ele>
        <time>2025-02-25T07:55:37Z</time>
      </trkpt>
      <trkpt lat="48.08999" lon="-3.56105">
        <ele>170</ele>
        <time>2025-02-25T07:55:38Z</time>
      </trkpt>
      <trkpt lat="48.09" lon="-3.56105">
        <ele>170</ele>
        <time>2025-02-25T07:55:39Z</time>
      </trkpt>
      <trkpt lat="48.09001" lon="-3.56106">
        <ele>170</ele>
        <time>2025-02-25T07:55:40Z</time>
      </trkpt>
      <trkpt lat="48.09002" lon="-3.56105">
        <ele>170</ele>
        <time>2025-02-25T07:55:41Z</time>
      </trkpt>
      <trkpt lat="48.09003" lon="-3.56105">
        <ele>170</ele>
        <time>2025-02-25T07:55:42Z</time>
      </trkpt>
      <trkpt lat="48.09004" lon="-3.56105">
        <ele>170</ele>
        <time>2025-02-25T07:55:43Z</time>
      </trkpt>
      <trkpt lat="48.09006" lon="-3.56105">
        <ele>170</ele>
        <time>2025-02-25T07:55:44Z</time>
      </trkpt>
      <trkpt lat="48.09007" lon="-3.56105">
        <ele>170.1</ele>
        <time>2025-02-25T07:55:45Z</time>
      </trkpt>
      <trkpt lat="48.09008" lon="-3.56105">
        <ele>170.1</ele>
        <time>2025-02-25T07:55:46Z</time>
      </trkpt>
      <trkpt lat="48.09009" lon="-3.56104">
        <ele>170.1</ele>
        <time>2025-02-25T07:55:47Z</time>
      </trkpt>
      <trkpt lat="48.09011" lon="-3.56104">
        <ele>170.1</ele>
        <time>2025-02-25T07:55:48Z</time>
      </trkpt>
      <trkpt lat="48.09011" lon="-3.56103">
        <ele>170.1</ele>
        <time>2025-02-25T07:55:49Z</time>
      </trkpt>
      <trkpt lat="48.09012" lon="-3.56102">
        <ele>170.1</ele>
        <time>2025-02-25T07:55:50Z</time>
      </trkpt>
      <trkpt lat="48.09013" lon="-3.56101">
        <ele>170.2</ele>
        <time>2025-02-25T07:55:51Z</time>
      </trkpt>
      <trkpt lat="48.09014" lon="-3.56101">
        <ele>170.2</ele>
        <time>2025-02-25T07:55:52Z</time>
      </trkpt>
      <trkpt lat="48.09015" lon="-3.561">
        <ele>170.2</ele>
        <time>2025-02-25T07:55:53Z</time>
      </trkpt>
      <trkpt lat="48.09016" lon="-3.56099">
        <ele>170.3</ele>
        <time>2025-02-25T07:55:54Z</time>
      </trkpt>
      <trkpt lat="48.09017" lon="-3.56098">
        <ele>170.3</ele>
        <time>2025-02-25T07:55:55Z</time>
      </trkpt>
      <trkpt lat="48.09018" lon="-3.56096">
        <ele>170.4</ele>
        <time>2025-02-25T07:55:56Z</time>
      </trkpt>
      <trkpt lat="48.09019" lon="-3.56095">
        <ele>170.4</ele>
        <time>2025-02-25T07:55:57Z</time>
      </trkpt>
      <trkpt lat="48.0902" lon="-3.56094">
        <ele>170.4</ele>
        <time>2025-02-25T07:55:58Z</time>
      </trkpt>
      <trkpt lat="48.09021" lon="-3.56094">
        <ele>170.5</ele>
        <time>2025-02-25T07:55:59Z</time>
      </trkpt>
      <trkpt lat="48.09022" lon="-3.56092">
        <ele>170.5</ele>
        <time>2025-02-25T07:56:00Z</time>
      </trkpt>
      <trkpt lat="48.09023" lon="-3.56091">
        <ele>170.6</ele>
        <time>2025-02-25T07:56:01Z</time>
      </trkpt>
      <trkpt lat="48.09023" lon="-3.56089">
        <ele>170.7</ele>
        <time>2025-02-25T07:56:02Z</time>
      </trkpt>
      <trkpt lat="48.09024" lon="-3.56087">
        <ele>170.7</ele>
        <time>2025-02-25T07:56:03Z</time>
      </trkpt>
      <trkpt lat="48.09025" lon="-3.56085">
        <ele>170.8</ele>
        <time>2025-02-25T07:56:04Z</time>
      </trkpt>
      <trkpt lat="48.09026" lon="-3.56084">
        <ele>170.9</ele>
        <time>2025-02-25T07:56:05Z</time>
      </trkpt>
      <trkpt lat="48.09027" lon="-3.56082">
        <ele>171</ele>
        <time>2025-02-25T07:56:06Z</time>
      </trkpt>
      <trkpt lat="48.09027" lon="-3.56081">
        <ele>171</ele>
        <time>2025-02-25T07:56:07Z</time>
      </trkpt>
      <trkpt lat="48.09028" lon="-3.56079">
        <ele>171</ele>
        <time>2025-02-25T07:56:08Z</time>
      </trkpt>
      <trkpt lat="48.09029" lon="-3.56078">
        <ele>171</ele>
        <time>2025-02-25T07:56:09Z</time>
      </trkpt>
      <trkpt lat="48.0903" lon="-3.56076">
        <ele>170.9</ele>
        <time>2025-02-25T07:56:10Z</time>
      </trkpt>
      <trkpt lat="48.09031" lon="-3.56075">
        <ele>170.9</ele>
        <time>2025-02-25T07:56:11Z</time>
      </trkpt>
      <trkpt lat="48.09031" lon="-3.56073">
        <ele>170.9</ele>
        <time>2025-02-25T07:56:12Z</time>
      </trkpt>
      <trkpt lat="48.09032" lon="-3.56072">
        <ele>170.8</ele>
        <time>2025-02-25T07:56:13Z</time>
      </trkpt>
      <trkpt lat="48.09032" lon="-3.5607">
        <ele>170.8</ele>
        <time>2025-02-25T07:56:14Z</time>
      </trkpt>
      <trkpt lat="48.09032" lon="-3.56069">
        <ele>170.8</ele>
        <time>2025-02-25T07:56:15Z</time>
      </trkpt>
      <trkpt lat="48.09032" lon="-3.56068">
        <ele>170.8</ele>
        <time>2025-02-25T07:56:16Z</time>
      </trkpt>
      <trkpt lat="48.09033" lon="-3.56066">
        <ele>170.8</ele>
        <time>2025-02-25T07:56:17Z</time>
      </trkpt>
      <trkpt lat="48.09033" lon="-3.56065">
        <ele>170.8</ele>
        <time>2025-02-25T07:56:18Z</time>
      </trkpt>
      <trkpt lat="48.09032" lon="-3.56063">
        <ele>170.8</ele>
        <time>2025-02-25T07:56:19Z</time>
      </trkpt>
      <trkpt lat="48.09032" lon="-3.56061">
        <ele>170.8</ele>
        <time>2025-02-25T07:56:20Z</time>
      </trkpt>
      <trkpt lat="48.09033" lon="-3.5606">
        <ele>170.8</ele>
        <time>2025-02-25T07:56:21Z</time>
      </trkpt>
      <trkpt lat="48.09034" lon="-3.56059">
        <ele>170.8</ele>
        <time>2025-02-25T07:56:22Z</time>
      </trkpt>
      <trkpt lat="48.09034" lon="-3.56057">
        <ele>170.8</ele>
        <time>2025-02-25T07:56:23Z</time>
      </trkpt>
      <trkpt lat="48.09035" lon="-3.56056">
        <ele>170.7</ele>
        <time>2025-02-25T07:56:24Z</time>
      </trkpt>
      <trkpt lat="48.09036" lon="-3.56056">
        <ele>170.7</ele>
        <time>2025-02-25T07:56:25Z</time>
      </trkpt>
      <trkpt lat="48.09037" lon="-3.56055">
        <ele>170.7</ele>
        <time>2025-02-25T07:56:26Z</time>
      </trkpt>
      <trkpt lat="48.09038" lon="-3.56055">
        <ele>170.6</ele>
        <time>2025-02-25T07:56:27Z</time>
      </trkpt>
      <trkpt lat="48.09039" lon="-3.56054">
        <ele>170.6</ele>
        <time>2025-02-25T07:56:28Z</time>
      </trkpt>
      <trkpt lat="48.0904" lon="-3.56053">
        <ele>170.5</ele>
        <time>2025-02-25T07:56:29Z</time>
      </trkpt>
      <trkpt lat="48.09041" lon="-3.56052">
        <ele>170.5</ele>
        <time>2025-02-25T07:56:30Z</time>
      </trkpt>
      <trkpt lat="48.09042" lon="-3.56051">
        <ele>170.4</ele>
        <time>2025-02-25T07:56:31Z</time>
      </trkpt>
      <trkpt lat="48.09043" lon="-3.5605">
        <ele>170.3</ele>
        <time>2025-02-25T07:56:32Z</time>
      </trkpt>
      <trkpt lat="48.09044" lon="-3.56049">
        <ele>170.3</ele>
        <time>2025-02-25T07:56:33Z</time>
      </trkpt>
      <trkpt lat="48.09045" lon="-3.56048">
        <ele>170.2</ele>
        <time>2025-02-25T07:56:34Z</time>
      </trkpt>
      <trkpt lat="48.09046" lon="-3.56047">
        <ele>170.1</ele>
        <time>2025-02-25T07:56:35Z</time>
      </trkpt>
      <trkpt lat="48.09047" lon="-3.56046">
        <ele>170.1</ele>
        <time>2025-02-25T07:56:36Z</time>
      </trkpt>
      <trkpt lat="48.09047" lon="-3.56045">
        <ele>170</ele>
        <time>2025-02-25T07:56:37Z</time>
      </trkpt>
      <trkpt lat="48.09048" lon="-3.56044">
        <ele>170</ele>
        <time>2025-02-25T07:56:38Z</time>
      </trkpt>
      <trkpt lat="48.09049" lon="-3.56042">
        <ele>169.9</ele>
        <time>2025-02-25T07:56:39Z</time>
      </trkpt>
      <trkpt lat="48.0905" lon="-3.56041">
        <ele>169.8</ele>
        <time>2025-02-25T07:56:40Z</time>
      </trkpt>
      <trkpt lat="48.09051" lon="-3.56039">
        <ele>169.7</ele>
        <time>2025-02-25T07:56:41Z</time>
      </trkpt>
      <trkpt lat="48.09052" lon="-3.56038">
        <ele>169.6</ele>
        <time>2025-02-25T07:56:42Z</time>
      </trkpt>
      <trkpt lat="48.09053" lon="-3.56037">
        <ele>169.5</ele>
        <time>2025-02-25T07:56:43Z</time>
      </trkpt>
      <trkpt lat="48.09054" lon="-3.56036">
        <ele>169.4</ele>
        <time>2025-02-25T07:56:44Z</time>
      </trkpt>
      <trkpt lat="48.09056" lon="-3.56035">
        <ele>169.2</ele>
        <time>2025-02-25T07:56:45Z</time>
      </trkpt>
      <trkpt lat="48.09056" lon="-3.56032">
        <ele>169.1</ele>
        <time>2025-02-25T07:56:46Z</time>
      </trkpt>
      <trkpt lat="48.09058" lon="-3.5603">
        <ele>169</ele>
        <time>2025-02-25T07:56:47Z</time>
      </trkpt>
      <trkpt lat="48.09059" lon="-3.56028">
        <ele>168.9</ele>
        <time>2025-02-25T07:56:48Z</time>
      </trkpt>
      <trkpt lat="48.0906" lon="-3.56026">
        <ele>168.8</ele>
        <time>2025-02-25T07:56:49Z</time>
      </trkpt>
      <trkpt lat="48.09061" lon="-3.56025">
        <ele>168.8</ele>
        <time>2025-02-25T07:56:50Z</time>
      </trkpt>
      <trkpt lat="48.09062" lon="-3.56023">
        <ele>168.8</ele>
        <time>2025-02-25T07:56:51Z</time>
      </trkpt>
      <trkpt lat="48.09064" lon="-3.56022">
        <ele>168.7</ele>
        <time>2025-02-25T07:56:52Z</time>
      </trkpt>
      <trkpt lat="48.09065" lon="-3.56021">
        <ele>168.7</ele>
        <time>2025-02-25T07:56:53Z</time>
      </trkpt>
      <trkpt lat="48.09065" lon="-3.56019">
        <ele>168.7</ele>
        <time>2025-02-25T07:56:54Z</time>
      </trkpt>
      <trkpt lat="48.09065" lon="-3.56017">
        <ele>168.7</ele>
        <time>2025-02-25T07:56:55Z</time>
      </trkpt>
      <trkpt lat="48.09066" lon="-3.56015">
        <ele>168.6</ele>
        <time>2025-02-25T07:56:56Z</time>
      </trkpt>
      <trkpt lat="48.09067" lon="-3.56014">
        <ele>168.6</ele>
        <time>2025-02-25T07:56:57Z</time>
      </trkpt>
      <trkpt lat="48.09068" lon="-3.56014">
        <ele>168.6</ele>
        <time>2025-02-25T07:56:58Z</time>
      </trkpt>
      <trkpt lat="48.09069" lon="-3.56013">
        <ele>168.5</ele>
        <time>2025-02-25T07:56:59Z</time>
      </trkpt>
      <trkpt lat="48.0907" lon="-3.56013">
        <ele>168.5</ele>
        <time>2025-02-25T07:57:00Z</time>
      </trkpt>
      <trkpt lat="48.09071" lon="-3.56012">
        <ele>168.4</ele>
        <time>2025-02-25T07:57:01Z</time>
      </trkpt>
      <trkpt lat="48.09071" lon="-3.5601">
        <ele>168.4</ele>
        <time>2025-02-25T07:57:02Z</time>
      </trkpt>
      <trkpt lat="48.09072" lon="-3.56009">
        <ele>168.4</ele>
        <time>2025-02-25T07:57:03Z</time>
      </trkpt>
      <trkpt lat="48.09073" lon="-3.56008">
        <ele>168.4</ele>
        <time>2025-02-25T07:57:04Z</time>
      </trkpt>
      <trkpt lat="48.09074" lon="-3.56007">
        <ele>168.3</ele>
        <time>2025-02-25T07:57:05Z</time>
      </trkpt>
      <trkpt lat="48.09074" lon="-3.56005">
        <ele>168.3</ele>
        <time>2025-02-25T07:57:06Z</time>
      </trkpt>
      <trkpt lat="48.09074" lon="-3.56003">
        <ele>168.3</ele>
        <time>2025-02-25T07:57:07Z</time>
      </trkpt>
      <trkpt lat="48.09075" lon="-3.56001">
        <ele>168.3</ele>
        <time>2025-02-25T07:57:08Z</time>
      </trkpt>
      <trkpt lat="48.09075" lon="-3.56">
        <ele>168.3</ele>
        <time>2025-02-25T07:57:09Z</time>
      </trkpt>
      <trkpt lat="48.09075" lon="-3.55997">
        <ele>168</ele>
        <time>2025-02-25T07:57:10Z</time>
      </trkpt>
      <trkpt lat="48.09075" lon="-3.55995">
        <ele>167.9</ele>
        <time>2025-02-25T07:57:11Z</time>
      </trkpt>
      <trkpt lat="48.09075" lon="-3.55993">
        <ele>167.7</ele>
        <time>2025-02-25T07:57:12Z</time>
      </trkpt>
      <trkpt lat="48.09075" lon="-3.55991">
        <ele>167.5</ele>
        <time>2025-02-25T07:57:13Z</time>
      </trkpt>
      <trkpt lat="48.09075" lon="-3.55989">
        <ele>167.3</ele>
        <time>2025-02-25T07:57:14Z</time>
      </trkpt>
      <trkpt lat="48.09076" lon="-3.55988">
        <ele>167.2</ele>
        <time>2025-02-25T07:57:15Z</time>
      </trkpt>
      <trkpt lat="48.09076" lon="-3.55986">
        <ele>167</ele>
        <time>2025-02-25T07:57:16Z</time>
      </trkpt>
      <trkpt lat="48.09076" lon="-3.55984">
        <ele>166.8</ele>
        <time>2025-02-25T07:57:17Z</time>
      </trkpt>
      <trkpt lat="48.09076" lon="-3.55983">
        <ele>166.8</ele>
        <time>2025-02-25T07:57:18Z</time>
      </trkpt>
      <trkpt lat="48.09076" lon="-3.55981">
        <ele>166.6</ele>
        <time>2025-02-25T07:57:19Z</time>
      </trkpt>
      <trkpt lat="48.09076" lon="-3.55978">
        <ele>166.3</ele>
        <time>2025-02-25T07:57:20Z</time>
      </trkpt>
      <trkpt lat="48.09076" lon="-3.55977">
        <ele>166.2</ele>
        <time>2025-02-25T07:57:21Z</time>
      </trkpt>
      <trkpt lat="48.09077" lon="-3.55975">
        <ele>165.9</ele>
        <time>2025-02-25T07:57:22Z</time>
      </trkpt>
      <trkpt lat="48.09077" lon="-3.55973">
        <ele>165.8</ele>
        <time>2025-02-25T07:57:23Z</time>
      </trkpt>
      <trkpt lat="48.09078" lon="-3.55972">
        <ele>165.5</ele>
        <time>2025-02-25T07:57:24Z</time>
      </trkpt>
      <trkpt lat="48.09078" lon="-3.55971">
        <ele>165.4</ele>
        <time>2025-02-25T07:57:25Z</time>
      </trkpt>
      <trkpt lat="48.09078" lon="-3.55969">
        <ele>165.1</ele>
        <time>2025-02-25T07:57:26Z</time>
      </trkpt>
      <trkpt lat="48.09078" lon="-3.55968">
        <ele>164.9</ele>
        <time>2025-02-25T07:57:27Z</time>
      </trkpt>
      <trkpt lat="48.09078" lon="-3.55966">
        <ele>164.6</ele>
        <time>2025-02-25T07:57:28Z</time>
      </trkpt>
      <trkpt lat="48.09078" lon="-3.55964">
        <ele>164.3</ele>
        <time>2025-02-25T07:57:29Z</time>
      </trkpt>
      <trkpt lat="48.09079" lon="-3.55962">
        <ele>163.8</ele>
        <time>2025-02-25T07:57:30Z</time>
      </trkpt>
      <trkpt lat="48.09079" lon="-3.55961">
        <ele>163.6</ele>
        <time>2025-02-25T07:57:31Z</time>
      </trkpt>
      <trkpt lat="48.09079" lon="-3.55959">
        <ele>163.3</ele>
        <time>2025-02-25T07:57:32Z</time>
      </trkpt>
      <trkpt lat="48.09078" lon="-3.55957">
        <ele>163.2</ele>
        <time>2025-02-25T07:57:33Z</time>
      </trkpt>
      <trkpt lat="48.09078" lon="-3.55955">
        <ele>162.8</ele>
        <time>2025-02-25T07:57:34Z</time>
      </trkpt>
      <trkpt lat="48.09078" lon="-3.55954">
        <ele>162.7</ele>
        <time>2025-02-25T07:57:35Z</time>
      </trkpt>
      <trkpt lat="48.09078" lon="-3.55952">
        <ele>162.4</ele>
        <time>2025-02-25T07:57:36Z</time>
      </trkpt>
      <trkpt lat="48.09077" lon="-3.5595">
        <ele>162.2</ele>
        <time>2025-02-25T07:57:37Z</time>
      </trkpt>
      <trkpt lat="48.09076" lon="-3.55949">
        <ele>162.3</ele>
        <time>2025-02-25T07:57:38Z</time>
      </trkpt>
      <trkpt lat="48.09075" lon="-3.55949">
        <ele>162.5</ele>
        <time>2025-02-25T07:57:39Z</time>
      </trkpt>
      <trkpt lat="48.09074" lon="-3.55947">
        <ele>162.4</ele>
        <time>2025-02-25T07:57:40Z</time>
      </trkpt>
      <trkpt lat="48.09074" lon="-3.55946">
        <ele>162.2</ele>
        <time>2025-02-25T07:57:41Z</time>
      </trkpt>
      <trkpt lat="48.09073" lon="-3.55944">
        <ele>162.2</ele>
        <time>2025-02-25T07:57:42Z</time>
      </trkpt>
      <trkpt lat="48.09072" lon="-3.55943">
        <ele>162.2</ele>
        <time>2025-02-25T07:57:43Z</time>
      </trkpt>
      <trkpt lat="48.09072" lon="-3.55942">
        <ele>162.1</ele>
        <time>2025-02-25T07:57:44Z</time>
      </trkpt>
      <trkpt lat="48.09071" lon="-3.5594">
        <ele>162</ele>
        <time>2025-02-25T07:57:45Z</time>
      </trkpt>
      <trkpt lat="48.09071" lon="-3.55939">
        <ele>161.8</ele>
        <time>2025-02-25T07:57:46Z</time>
      </trkpt>
      <trkpt lat="48.09071" lon="-3.55937">
        <ele>161.5</ele>
        <time>2025-02-25T07:57:47Z</time>
      </trkpt>
      <trkpt lat="48.0907" lon="-3.55935">
        <ele>161.5</ele>
        <time>2025-02-25T07:57:48Z</time>
      </trkpt>
      <trkpt lat="48.09071" lon="-3.55936">
        <ele>161.4</ele>
        <time>2025-02-25T07:57:49Z</time>
      </trkpt>
      <trkpt lat="48.09071" lon="-3.55936">
        <ele>161.4</ele>
        <time>2025-02-25T07:57:50Z</time>
      </trkpt>
      <trkpt lat="48.09071" lon="-3.55935">
        <ele>161.2</ele>
        <time>2025-02-25T07:57:51Z</time>
      </trkpt>
      <trkpt lat="48.09071" lon="-3.55935">
        <ele>161.2</ele>
        <time>2025-02-25T07:57:52Z</time>
      </trkpt>
      <trkpt lat="48.09071" lon="-3.55935">
        <ele>161.2</ele>
        <time>2025-02-25T07:57:53Z</time>
      </trkpt>
      <trkpt lat="48.09071" lon="-3.55935">
        <ele>161.2</ele>
        <time>2025-02-25T07:57:54Z</time>
      </trkpt>
      <trkpt lat="48.09071" lon="-3.55935">
        <ele>161.2</ele>
        <time>2025-02-25T07:57:55Z</time>
      </trkpt>
      <trkpt lat="48.09071" lon="-3.55935">
        <ele>161.2</ele>
        <time>2025-02-25T07:57:56Z</time>
      </trkpt>
      <trkpt lat="48.09071" lon="-3.55935">
        <ele>161.2</ele>
        <time>2025-02-25T07:57:57Z</time>
      </trkpt>
      <trkpt lat="48.09071" lon="-3.55936">
        <ele>161.4</ele>
        <time>2025-02-25T07:57:58Z</time>
      </trkpt>
      <trkpt lat="48.09071" lon="-3.55936">
        <ele>161.4</ele>
        <time>2025-02-25T07:57:59Z</time>
      </trkpt>
      <trkpt lat="48.09071" lon="-3.55936">
        <ele>161.4</ele>
        <time>2025-02-25T07:58:00Z</time>
      </trkpt>
      <trkpt lat="48.09071" lon="-3.55936">
        <ele>161.4</ele>
        <time>2025-02-25T07:58:01Z</time>
      </trkpt>
      <trkpt lat="48.09071" lon="-3.55936">
        <ele>161.4</ele>
        <time>2025-02-25T07:58:02Z</time>
      </trkpt>
      <trkpt lat="48.09071" lon="-3.55936">
        <ele>161.4</ele>
        <time>2025-02-25T07:58:03Z</time>
      </trkpt>
      <trkpt lat="48.09071" lon="-3.55936">
        <ele>161.4</ele>
        <time>2025-02-25T07:58:04Z</time>
      </trkpt>
      <trkpt lat="48.09071" lon="-3.55936">
        <ele>161.4</ele>
        <time>2025-02-25T07:58:05Z</time>
      </trkpt>
      <trkpt lat="48.09071" lon="-3.55936">
        <ele>161.4</ele>
        <time>2025-02-25T07:58:06Z</time>
      </trkpt>
      <trkpt lat="48.0907" lon="-3.55935">
        <ele>161.5</ele>
        <time>2025-02-25T07:58:07Z</time>
      </trkpt>
      <trkpt lat="48.09069" lon="-3.55933">
        <ele>161.5</ele>
        <time>2025-02-25T07:58:08Z</time>
      </trkpt>
      <trkpt lat="48.09069" lon="-3.55931">
        <ele>161.2</ele>
        <time>2025-02-25T07:58:09Z</time>
      </trkpt>
      <trkpt lat="48.09068" lon="-3.55929">
        <ele>161.2</ele>
        <time>2025-02-25T07:58:10Z</time>
      </trkpt>
      <trkpt lat="48.09067" lon="-3.55926">
        <ele>161.1</ele>
        <time>2025-02-25T07:58:11Z</time>
      </trkpt>
      <trkpt lat="48.09066" lon="-3.55925">
        <ele>161.3</ele>
        <time>2025-02-25T07:58:12Z</time>
      </trkpt>
      <trkpt lat="48.09066" lon="-3.55923">
        <ele>161</ele>
        <time>2025-02-25T07:58:13Z</time>
      </trkpt>
      <trkpt lat="48.09065" lon="-3.55921">
        <ele>161.1</ele>
        <time>2025-02-25T07:58:14Z</time>
      </trkpt>
      <trkpt lat="48.09065" lon="-3.55919">
        <ele>160.9</ele>
        <time>2025-02-25T07:58:15Z</time>
      </trkpt>
      <trkpt lat="48.09064" lon="-3.55917">
        <ele>161</ele>
        <time>2025-02-25T07:58:16Z</time>
      </trkpt>
      <trkpt lat="48.09064" lon="-3.55916">
        <ele>160.8</ele>
        <time>2025-02-25T07:58:17Z</time>
      </trkpt>
      <trkpt lat="48.09064" lon="-3.55914">
        <ele>160.4</ele>
        <time>2025-02-25T07:58:18Z</time>
      </trkpt>
      <trkpt lat="48.09064" lon="-3.55912">
        <ele>160</ele>
        <time>2025-02-25T07:58:19Z</time>
      </trkpt>
      <trkpt lat="48.09064" lon="-3.5591">
        <ele>159.6</ele>
        <time>2025-02-25T07:58:20Z</time>
      </trkpt>
      <trkpt lat="48.09063" lon="-3.55908">
        <ele>159.5</ele>
        <time>2025-02-25T07:58:21Z</time>
      </trkpt>
      <trkpt lat="48.09063" lon="-3.55906">
        <ele>159.1</ele>
        <time>2025-02-25T07:58:22Z</time>
      </trkpt>
      <trkpt lat="48.09062" lon="-3.55905">
        <ele>159.3</ele>
        <time>2025-02-25T07:58:23Z</time>
      </trkpt>
      <trkpt lat="48.09062" lon="-3.55903">
        <ele>158.8</ele>
        <time>2025-02-25T07:58:24Z</time>
      </trkpt>
      <trkpt lat="48.09062" lon="-3.55902">
        <ele>158.6</ele>
        <time>2025-02-25T07:58:25Z</time>
      </trkpt>
      <trkpt lat="48.09061" lon="-3.559">
        <ele>158.6</ele>
        <time>2025-02-25T07:58:26Z</time>
      </trkpt>
      <trkpt lat="48.09061" lon="-3.55898">
        <ele>158.1</ele>
        <time>2025-02-25T07:58:27Z</time>
      </trkpt>
      <trkpt lat="48.09061" lon="-3.55896">
        <ele>157.7</ele>
        <time>2025-02-25T07:58:28Z</time>
      </trkpt>
      <trkpt lat="48.0906" lon="-3.55894">
        <ele>157.6</ele>
        <time>2025-02-25T07:58:29Z</time>
      </trkpt>
      <trkpt lat="48.09059" lon="-3.55892">
        <ele>157.5</ele>
        <time>2025-02-25T07:58:30Z</time>
      </trkpt>
      <trkpt lat="48.09059" lon="-3.55891">
        <ele>157.3</ele>
        <time>2025-02-25T07:58:31Z</time>
      </trkpt>
      <trkpt lat="48.09058" lon="-3.55889">
        <ele>157.2</ele>
        <time>2025-02-25T07:58:32Z</time>
      </trkpt>
      <trkpt lat="48.09059" lon="-3.55887">
        <ele>156.6</ele>
        <time>2025-02-25T07:58:33Z</time>
      </trkpt>
      <trkpt lat="48.09058" lon="-3.55885">
        <ele>156.5</ele>
        <time>2025-02-25T07:58:34Z</time>
      </trkpt>
      <trkpt lat="48.09058" lon="-3.55884">
        <ele>156.4</ele>
        <time>2025-02-25T07:58:35Z</time>
      </trkpt>
      <trkpt lat="48.09057" lon="-3.55882">
        <ele>156.3</ele>
        <time>2025-02-25T07:58:36Z</time>
      </trkpt>
      <trkpt lat="48.09057" lon="-3.5588">
        <ele>156</ele>
        <time>2025-02-25T07:58:37Z</time>
      </trkpt>
      <trkpt lat="48.09055" lon="-3.5588">
        <ele>156.5</ele>
        <time>2025-02-25T07:58:38Z</time>
      </trkpt>
      <trkpt lat="48.09055" lon="-3.55879">
        <ele>156.3</ele>
        <time>2025-02-25T07:58:39Z</time>
      </trkpt>
      <trkpt lat="48.09054" lon="-3.55878">
        <ele>156.2</ele>
        <time>2025-02-25T07:58:40Z</time>
      </trkpt>
      <trkpt lat="48.09053" lon="-3.55876">
        <ele>156</ele>
        <time>2025-02-25T07:58:41Z</time>
      </trkpt>
      <trkpt lat="48.09053" lon="-3.55875">
        <ele>155.8</ele>
        <time>2025-02-25T07:58:42Z</time>
      </trkpt>
      <trkpt lat="48.09052" lon="-3.55875">
        <ele>155.9</ele>
        <time>2025-02-25T07:58:43Z</time>
      </trkpt>
      <trkpt lat="48.09051" lon="-3.55875">
        <ele>156</ele>
        <time>2025-02-25T07:58:44Z</time>
      </trkpt>
      <trkpt lat="48.09051" lon="-3.55875">
        <ele>156</ele>
        <time>2025-02-25T07:58:45Z</time>
      </trkpt>
      <trkpt lat="48.09051" lon="-3.55875">
        <ele>156</ele>
        <time>2025-02-25T07:58:46Z</time>
      </trkpt>
      <trkpt lat="48.09051" lon="-3.55877">
        <ele>156.4</ele>
        <time>2025-02-25T07:58:47Z</time>
      </trkpt>
      <trkpt lat="48.09051" lon="-3.55878">
        <ele>156.6</ele>
        <time>2025-02-25T07:58:48Z</time>
      </trkpt>
      <trkpt lat="48.09052" lon="-3.55878">
        <ele>156.5</ele>
        <time>2025-02-25T07:58:49Z</time>
      </trkpt>
      <trkpt lat="48.09052" lon="-3.55878">
        <ele>156.5</ele>
        <time>2025-02-25T07:58:50Z</time>
      </trkpt>
      <trkpt lat="48.09052" lon="-3.55878">
        <ele>156.5</ele>
        <time>2025-02-25T07:58:51Z</time>
      </trkpt>
      <trkpt lat="48.09052" lon="-3.55878">
        <ele>156.5</ele>
        <time>2025-02-25T07:58:52Z</time>
      </trkpt>
      <trkpt lat="48.09052" lon="-3.55878">
        <ele>156.5</ele>
        <time>2025-02-25T07:58:53Z</time>
      </trkpt>
      <trkpt lat="48.09052" lon="-3.55878">
        <ele>156.5</ele>
        <time>2025-02-25T07:58:54Z</time>
      </trkpt>
      <trkpt lat="48.09052" lon="-3.55877">
        <ele>156.3</ele>
        <time>2025-02-25T07:58:55Z</time>
      </trkpt>
      <trkpt lat="48.0905" lon="-3.55876">
        <ele>156.3</ele>
        <time>2025-02-25T07:58:56Z</time>
      </trkpt>
      <trkpt lat="48.09049" lon="-3.55875">
        <ele>156.2</ele>
        <time>2025-02-25T07:58:57Z</time>
      </trkpt>
      <trkpt lat="48.09048" lon="-3.55875">
        <ele>156.3</ele>
        <time>2025-02-25T07:58:58Z</time>
      </trkpt>
      <trkpt lat="48.09047" lon="-3.55874">
        <ele>156.2</ele>
        <time>2025-02-25T07:58:59Z</time>
      </trkpt>
      <trkpt lat="48.09046" lon="-3.55873">
        <ele>156.1</ele>
        <time>2025-02-25T07:59:00Z</time>
      </trkpt>
      <trkpt lat="48.09045" lon="-3.55871">
        <ele>155.8</ele>
        <time>2025-02-25T07:59:01Z</time>
      </trkpt>
      <trkpt lat="48.09044" lon="-3.55871">
        <ele>155.9</ele>
        <time>2025-02-25T07:59:02Z</time>
      </trkpt>
      <trkpt lat="48.09043" lon="-3.5587">
        <ele>155.8</ele>
        <time>2025-02-25T07:59:03Z</time>
      </trkpt>
      <trkpt lat="48.09042" lon="-3.55868">
        <ele>155.5</ele>
        <time>2025-02-25T07:59:04Z</time>
      </trkpt>
      <trkpt lat="48.09042" lon="-3.55867">
        <ele>155.2</ele>
        <time>2025-02-25T07:59:05Z</time>
      </trkpt>
      <trkpt lat="48.09042" lon="-3.55865">
        <ele>154.8</ele>
        <time>2025-02-25T07:59:06Z</time>
      </trkpt>
      <trkpt lat="48.09042" lon="-3.55864">
        <ele>154.6</ele>
        <time>2025-02-25T07:59:07Z</time>
      </trkpt>
      <trkpt lat="48.09042" lon="-3.55863">
        <ele>154.4</ele>
        <time>2025-02-25T07:59:08Z</time>
      </trkpt>
      <trkpt lat="48.09044" lon="-3.55865">
        <ele>154.6</ele>
        <time>2025-02-25T07:59:09Z</time>
      </trkpt>
      <trkpt lat="48.09045" lon="-3.55866">
        <ele>154.8</ele>
        <time>2025-02-25T07:59:10Z</time>
      </trkpt>
      <trkpt lat="48.09045" lon="-3.55866">
        <ele>154.8</ele>
        <time>2025-02-25T07:59:11Z</time>
      </trkpt>
      <trkpt lat="48.09045" lon="-3.55866">
        <ele>154.8</ele>
        <time>2025-02-25T07:59:12Z</time>
      </trkpt>
      <trkpt lat="48.09045" lon="-3.55866">
        <ele>154.8</ele>
        <time>2025-02-25T07:59:13Z</time>
      </trkpt>
      <trkpt lat="48.09045" lon="-3.55866">
        <ele>154.8</ele>
        <time>2025-02-25T07:59:14Z</time>
      </trkpt>
      <trkpt lat="48.09045" lon="-3.55866">
        <ele>154.8</ele>
        <time>2025-02-25T07:59:15Z</time>
      </trkpt>
      <trkpt lat="48.09045" lon="-3.55866">
        <ele>154.8</ele>
        <time>2025-02-25T07:59:16Z</time>
      </trkpt>
      <trkpt lat="48.09045" lon="-3.55867">
        <ele>155</ele>
        <time>2025-02-25T07:59:17Z</time>
      </trkpt>
      <trkpt lat="48.09045" lon="-3.55868">
        <ele>155.2</ele>
        <time>2025-02-25T07:59:18Z</time>
      </trkpt>
      <trkpt lat="48.09046" lon="-3.55866">
        <ele>154.7</ele>
        <time>2025-02-25T07:59:19Z</time>
      </trkpt>
      <trkpt lat="48.09048" lon="-3.55865">
        <ele>154.3</ele>
        <time>2025-02-25T07:59:20Z</time>
      </trkpt>
      <trkpt lat="48.09049" lon="-3.55864">
        <ele>154</ele>
        <time>2025-02-25T07:59:21Z</time>
      </trkpt>
      <trkpt lat="48.09049" lon="-3.55863">
        <ele>153.8</ele>
        <time>2025-02-25T07:59:22Z</time>
      </trkpt>
      <trkpt lat="48.0905" lon="-3.55863">
        <ele>153.8</ele>
        <time>2025-02-25T07:59:23Z</time>
      </trkpt>
      <trkpt lat="48.0905" lon="-3.55862">
        <ele>153.6</ele>
        <time>2025-02-25T07:59:24Z</time>
      </trkpt>
      <trkpt lat="48.09051" lon="-3.55861">
        <ele>153.3</ele>
        <time>2025-02-25T07:59:25Z</time>
      </trkpt>
      <trkpt lat="48.09051" lon="-3.5586">
        <ele>153.2</ele>
        <time>2025-02-25T07:59:26Z</time>
      </trkpt>
      <trkpt lat="48.09051" lon="-3.55859">
        <ele>153.2</ele>
        <time>2025-02-25T07:59:27Z</time>
      </trkpt>
      <trkpt lat="48.0905" lon="-3.55858">
        <ele>153.2</ele>
        <time>2025-02-25T07:59:28Z</time>
      </trkpt>
      <trkpt lat="48.0905" lon="-3.55856">
        <ele>153</ele>
        <time>2025-02-25T07:59:29Z</time>
      </trkpt>
      <trkpt lat="48.09049" lon="-3.55855">
        <ele>153</ele>
        <time>2025-02-25T07:59:30Z</time>
      </trkpt>
      <trkpt lat="48.09048" lon="-3.55855">
        <ele>153</ele>
        <time>2025-02-25T07:59:31Z</time>
      </trkpt>
      <trkpt lat="48.09047" lon="-3.55855">
        <ele>153.1</ele>
        <time>2025-02-25T07:59:32Z</time>
      </trkpt>
      <trkpt lat="48.09047" lon="-3.55855">
        <ele>153.1</ele>
        <time>2025-02-25T07:59:33Z</time>
      </trkpt>
      <trkpt lat="48.09047" lon="-3.55853">
        <ele>152.9</ele>
        <time>2025-02-25T07:59:34Z</time>
      </trkpt>
      <trkpt lat="48.09047" lon="-3.55853">
        <ele>152.9</ele>
        <time>2025-02-25T07:59:35Z</time>
      </trkpt>
      <trkpt lat="48.09047" lon="-3.55852">
        <ele>152.9</ele>
        <time>2025-02-25T07:59:36Z</time>
      </trkpt>
      <trkpt lat="48.09047" lon="-3.55852">
        <ele>152.9</ele>
        <time>2025-02-25T07:59:37Z</time>
      </trkpt>
      <trkpt lat="48.09047" lon="-3.55852">
        <ele>152.9</ele>
        <time>2025-02-25T07:59:38Z</time>
      </trkpt>
      <trkpt lat="48.09047" lon="-3.55852">
        <ele>152.9</ele>
        <time>2025-02-25T07:59:39Z</time>
      </trkpt>
      <trkpt lat="48.09047" lon="-3.55852">
        <ele>152.9</ele>
        <time>2025-02-25T07:59:40Z</time>
      </trkpt>
      <trkpt lat="48.09047" lon="-3.55852">
        <ele>152.9</ele>
        <time>2025-02-25T07:59:41Z</time>
      </trkpt>
      <trkpt lat="48.09047" lon="-3.55852">
        <ele>152.9</ele>
        <time>2025-02-25T07:59:42Z</time>
      </trkpt>
      <trkpt lat="48.09047" lon="-3.55853">
        <ele>152.9</ele>
        <time>2025-02-25T07:59:43Z</time>
      </trkpt>
      <trkpt lat="48.09047" lon="-3.55853">
        <ele>152.9</ele>
        <time>2025-02-25T07:59:44Z</time>
      </trkpt>
      <trkpt lat="48.09047" lon="-3.55853">
        <ele>152.9</ele>
        <time>2025-02-25T07:59:45Z</time>
      </trkpt>
      <trkpt lat="48.09047" lon="-3.55853">
        <ele>152.9</ele>
        <time>2025-02-25T07:59:46Z</time>
      </trkpt>
      <trkpt lat="48.09047" lon="-3.55853">
        <ele>152.9</ele>
        <time>2025-02-25T07:59:47Z</time>
      </trkpt>
      <trkpt lat="48.09047" lon="-3.55852">
        <ele>152.9</ele>
        <time>2025-02-25T07:59:48Z</time>
      </trkpt>
      <trkpt lat="48.09047" lon="-3.55852">
        <ele>152.9</ele>
        <time>2025-02-25T07:59:49Z</time>
      </trkpt>
      <trkpt lat="48.09047" lon="-3.55852">
        <ele>152.9</ele>
        <time>2025-02-25T07:59:50Z</time>
      </trkpt>
      <trkpt lat="48.09047" lon="-3.5585">
        <ele>152.7</ele>
        <time>2025-02-25T07:59:51Z</time>
      </trkpt>
      <trkpt lat="48.09047" lon="-3.55849">
        <ele>152.6</ele>
        <time>2025-02-25T07:59:52Z</time>
      </trkpt>
      <trkpt lat="48.09047" lon="-3.55847">
        <ele>152.4</ele>
        <time>2025-02-25T07:59:53Z</time>
      </trkpt>
      <trkpt lat="48.09046" lon="-3.55846">
        <ele>152.4</ele>
        <time>2025-02-25T07:59:54Z</time>
      </trkpt>
      <trkpt lat="48.09046" lon="-3.55845">
        <ele>152.3</ele>
        <time>2025-02-25T07:59:55Z</time>
      </trkpt>
      <trkpt lat="48.09047" lon="-3.55844">
        <ele>152.2</ele>
        <time>2025-02-25T07:59:56Z</time>
      </trkpt>
      <trkpt lat="48.09047" lon="-3.55843">
        <ele>152.1</ele>
        <time>2025-02-25T07:59:57Z</time>
      </trkpt>
      <trkpt lat="48.09046" lon="-3.55842">
        <ele>152.1</ele>
        <time>2025-02-25T07:59:58Z</time>
      </trkpt>
      <trkpt lat="48.09046" lon="-3.55841">
        <ele>152</ele>
        <time>2025-02-25T07:59:59Z</time>
      </trkpt>
      <trkpt lat="48.09046" lon="-3.55842">
        <ele>152.1</ele>
        <time>2025-02-25T08:00:00Z</time>
      </trkpt>
      <trkpt lat="48.09045" lon="-3.55842">
        <ele>152.1</ele>
        <time>2025-02-25T08:00:01Z</time>
      </trkpt>
      <trkpt lat="48.09044" lon="-3.55842">
        <ele>152.2</ele>
        <time>2025-02-25T08:00:02Z</time>
      </trkpt>
      <trkpt lat="48.09044" lon="-3.55841">
        <ele>152.1</ele>
        <time>2025-02-25T08:00:03Z</time>
      </trkpt>
      <trkpt lat="48.09044" lon="-3.55841">
        <ele>152.1</ele>
        <time>2025-02-25T08:00:04Z</time>
      </trkpt>
      <trkpt lat="48.09044" lon="-3.55841">
        <ele>152.1</ele>
        <time>2025-02-25T08:00:05Z</time>
      </trkpt>
      <trkpt lat="48.09044" lon="-3.55841">
        <ele>152.1</ele>
        <time>2025-02-25T08:00:06Z</time>
      </trkpt>
      <trkpt lat="48.09044" lon="-3.55841">
        <ele>152.1</ele>
        <time>2025-02-25T08:00:07Z</time>
      </trkpt>
      <trkpt lat="48.09044" lon="-3.55842">
        <ele>152.2</ele>
        <time>2025-02-25T08:00:08Z</time>
      </trkpt>
      <trkpt lat="48.09044" lon="-3.55842">
        <ele>152.2</ele>
        <time>2025-02-25T08:00:09Z</time>
      </trkpt>
      <trkpt lat="48.09044" lon="-3.55842">
        <ele>152.2</ele>
        <time>2025-02-25T08:00:10Z</time>
      </trkpt>
      <trkpt lat="48.09044" lon="-3.55843">
        <ele>152.3</ele>
        <time>2025-02-25T08:00:11Z</time>
      </trkpt>
      <trkpt lat="48.09044" lon="-3.55843">
        <ele>152.3</ele>
        <time>2025-02-25T08:00:12Z</time>
      </trkpt>
      <trkpt lat="48.09044" lon="-3.55844">
        <ele>152.3</ele>
        <time>2025-02-25T08:00:13Z</time>
      </trkpt>
      <trkpt lat="48.09045" lon="-3.55845">
        <ele>152.4</ele>
        <time>2025-02-25T08:00:14Z</time>
      </trkpt>
      <trkpt lat="48.09045" lon="-3.55848">
        <ele>152.6</ele>
        <time>2025-02-25T08:00:15Z</time>
      </trkpt>
      <trkpt lat="48.09045" lon="-3.5585">
        <ele>152.8</ele>
        <time>2025-02-25T08:00:16Z</time>
      </trkpt>
      <trkpt lat="48.09045" lon="-3.55851">
        <ele>152.9</ele>
        <time>2025-02-25T08:00:17Z</time>
      </trkpt>
      <trkpt lat="48.09045" lon="-3.55853">
        <ele>153.1</ele>
        <time>2025-02-25T08:00:18Z</time>
      </trkpt>
      <trkpt lat="48.09044" lon="-3.55854">
        <ele>153.2</ele>
        <time>2025-02-25T08:00:19Z</time>
      </trkpt>
      <trkpt lat="48.09043" lon="-3.55855">
        <ele>153.4</ele>
        <time>2025-02-25T08:00:20Z</time>
      </trkpt>
      <trkpt lat="48.09042" lon="-3.55855">
        <ele>153.4</ele>
        <time>2025-02-25T08:00:21Z</time>
      </trkpt>
      <trkpt lat="48.09041" lon="-3.55857">
        <ele>153.7</ele>
        <time>2025-02-25T08:00:22Z</time>
      </trkpt>
      <trkpt lat="48.09041" lon="-3.55859">
        <ele>153.9</ele>
        <time>2025-02-25T08:00:23Z</time>
      </trkpt>
      <trkpt lat="48.09039" lon="-3.55859">
        <ele>154</ele>
        <time>2025-02-25T08:00:24Z</time>
      </trkpt>
      <trkpt lat="48.09038" lon="-3.55859">
        <ele>154.1</ele>
        <time>2025-02-25T08:00:25Z</time>
      </trkpt>
      <trkpt lat="48.09036" lon="-3.5586">
        <ele>154.3</ele>
        <time>2025-02-25T08:00:26Z</time>
      </trkpt>
      <trkpt lat="48.09033" lon="-3.5586">
        <ele>154.5</ele>
        <time>2025-02-25T08:00:27Z</time>
      </trkpt>
      <trkpt lat="48.09032" lon="-3.5586">
        <ele>154.6</ele>
        <time>2025-02-25T08:00:28Z</time>
      </trkpt>
      <trkpt lat="48.0903" lon="-3.5586">
        <ele>154.7</ele>
        <time>2025-02-25T08:00:29Z</time>
      </trkpt>
      <trkpt lat="48.0903" lon="-3.55859">
        <ele>154.6</ele>
        <time>2025-02-25T08:00:30Z</time>
      </trkpt>
      <trkpt lat="48.09029" lon="-3.55858">
        <ele>154.6</ele>
        <time>2025-02-25T08:00:31Z</time>
      </trkpt>
      <trkpt lat="48.09028" lon="-3.55857">
        <ele>154.5</ele>
        <time>2025-02-25T08:00:32Z</time>
      </trkpt>
      <trkpt lat="48.09027" lon="-3.55855">
        <ele>154.3</ele>
        <time>2025-02-25T08:00:33Z</time>
      </trkpt>
      <trkpt lat="48.09027" lon="-3.55853">
        <ele>154.1</ele>
        <time>2025-02-25T08:00:34Z</time>
      </trkpt>
      <trkpt lat="48.09027" lon="-3.55852">
        <ele>154</ele>
        <time>2025-02-25T08:00:35Z</time>
      </trkpt>
      <trkpt lat="48.09026" lon="-3.55851">
        <ele>153.8</ele>
        <time>2025-02-25T08:00:36Z</time>
      </trkpt>
      <trkpt lat="48.09025" lon="-3.55851">
        <ele>153.8</ele>
        <time>2025-02-25T08:00:37Z</time>
      </trkpt>
      <trkpt lat="48.09024" lon="-3.55851">
        <ele>153.8</ele>
        <time>2025-02-25T08:00:38Z</time>
      </trkpt>
      <trkpt lat="48.09023" lon="-3.55851">
        <ele>153.7</ele>
        <time>2025-02-25T08:00:39Z</time>
      </trkpt>
      <trkpt lat="48.09023" lon="-3.55851">
        <ele>153.7</ele>
        <time>2025-02-25T08:00:40Z</time>
      </trkpt>
      <trkpt lat="48.09022" lon="-3.55851">
        <ele>153.7</ele>
        <time>2025-02-25T08:00:41Z</time>
      </trkpt>
      <trkpt lat="48.09021" lon="-3.55851">
        <ele>153.7</ele>
        <time>2025-02-25T08:00:42Z</time>
      </trkpt>
      <trkpt lat="48.09021" lon="-3.5585">
        <ele>153.6</ele>
        <time>2025-02-25T08:00:43Z</time>
      </trkpt>
      <trkpt lat="48.0902" lon="-3.55851">
        <ele>153.6</ele>
        <time>2025-02-25T08:00:44Z</time>
      </trkpt>
      <trkpt lat="48.09019" lon="-3.55851">
        <ele>153.6</ele>
        <time>2025-02-25T08:00:45Z</time>
      </trkpt>
      <trkpt lat="48.09018" lon="-3.5585">
        <ele>153.4</ele>
        <time>2025-02-25T08:00:46Z</time>
      </trkpt>
      <trkpt lat="48.09017" lon="-3.55851">
        <ele>153.5</ele>
        <time>2025-02-25T08:00:47Z</time>
      </trkpt>
      <trkpt lat="48.09017" lon="-3.55852">
        <ele>153.6</ele>
        <time>2025-02-25T08:00:48Z</time>
      </trkpt>
      <trkpt lat="48.09018" lon="-3.55853">
        <ele>153.8</ele>
        <time>2025-02-25T08:00:49Z</time>
      </trkpt>
      <trkpt lat="48.09019" lon="-3.55852">
        <ele>153.7</ele>
        <time>2025-02-25T08:00:50Z</time>
      </trkpt>
      <trkpt lat="48.0902" lon="-3.55854">
        <ele>154</ele>
        <time>2025-02-25T08:00:51Z</time>
      </trkpt>
      <trkpt lat="48.0902" lon="-3.55855">
        <ele>154.1</ele>
        <time>2025-02-25T08:00:52Z</time>
      </trkpt>
      <trkpt lat="48.0902" lon="-3.55855">
        <ele>154.1</ele>
        <time>2025-02-25T08:00:53Z</time>
      </trkpt>
      <trkpt lat="48.09022" lon="-3.55856">
        <ele>154.2</ele>
        <time>2025-02-25T08:00:54Z</time>
      </trkpt>
      <trkpt lat="48.09023" lon="-3.55857">
        <ele>154.4</ele>
        <time>2025-02-25T08:00:55Z</time>
      </trkpt>
      <trkpt lat="48.09023" lon="-3.55858">
        <ele>154.5</ele>
        <time>2025-02-25T08:00:56Z</time>
      </trkpt>
      <trkpt lat="48.09025" lon="-3.55859">
        <ele>154.7</ele>
        <time>2025-02-25T08:00:57Z</time>
      </trkpt>
      <trkpt lat="48.09027" lon="-3.55859">
        <ele>154.7</ele>
        <time>2025-02-25T08:00:58Z</time>
      </trkpt>
      <trkpt lat="48.09029" lon="-3.55859">
        <ele>154.7</ele>
        <time>2025-02-25T08:00:59Z</time>
      </trkpt>
      <trkpt lat="48.09031" lon="-3.55858">
        <ele>154.4</ele>
        <time>2025-02-25T08:01:00Z</time>
      </trkpt>
      <trkpt lat="48.09032" lon="-3.55859">
        <ele>154.5</ele>
        <time>2025-02-25T08:01:01Z</time>
      </trkpt>
      <trkpt lat="48.09033" lon="-3.55859">
        <ele>154.4</ele>
        <time>2025-02-25T08:01:02Z</time>
      </trkpt>
      <trkpt lat="48.09034" lon="-3.55859">
        <ele>154.3</ele>
        <time>2025-02-25T08:01:03Z</time>
      </trkpt>
      <trkpt lat="48.09036" lon="-3.5586">
        <ele>154.3</ele>
        <time>2025-02-25T08:01:04Z</time>
      </trkpt>
      <trkpt lat="48.09037" lon="-3.5586">
        <ele>154.2</ele>
        <time>2025-02-25T08:01:05Z</time>
      </trkpt>
      <trkpt lat="48.09039" lon="-3.55861">
        <ele>154.2</ele>
        <time>2025-02-25T08:01:06Z</time>
      </trkpt>
      <trkpt lat="48.0904" lon="-3.5586">
        <ele>154</ele>
        <time>2025-02-25T08:01:07Z</time>
      </trkpt>
      <trkpt lat="48.0904" lon="-3.5586">
        <ele>154</ele>
        <time>2025-02-25T08:01:08Z</time>
      </trkpt>
      <trkpt lat="48.09041" lon="-3.5586">
        <ele>153.9</ele>
        <time>2025-02-25T08:01:09Z</time>
      </trkpt>
      <trkpt lat="48.09042" lon="-3.55861">
        <ele>154</ele>
        <time>2025-02-25T08:01:10Z</time>
      </trkpt>
      <trkpt lat="48.09044" lon="-3.55861">
        <ele>153.8</ele>
        <time>2025-02-25T08:01:11Z</time>
      </trkpt>
      <trkpt lat="48.09045" lon="-3.55862">
        <ele>153.9</ele>
        <time>2025-02-25T08:01:12Z</time>
      </trkpt>
      <trkpt lat="48.09046" lon="-3.55863">
        <ele>154.1</ele>
        <time>2025-02-25T08:01:13Z</time>
      </trkpt>
      <trkpt lat="48.09047" lon="-3.55864">
        <ele>154.2</ele>
        <time>2025-02-25T08:01:14Z</time>
      </trkpt>
      <trkpt lat="48.09048" lon="-3.55864">
        <ele>154.1</ele>
        <time>2025-02-25T08:01:15Z</time>
      </trkpt>
      <trkpt lat="48.09049" lon="-3.55865">
        <ele>154.2</ele>
        <time>2025-02-25T08:01:16Z</time>
      </trkpt>
      <trkpt lat="48.09049" lon="-3.55865">
        <ele>154.2</ele>
        <time>2025-02-25T08:01:17Z</time>
      </trkpt>
      <trkpt lat="48.09048" lon="-3.55864">
        <ele>154.1</ele>
        <time>2025-02-25T08:01:18Z</time>
      </trkpt>
      <trkpt lat="48.09047" lon="-3.55864">
        <ele>154.2</ele>
        <time>2025-02-25T08:01:19Z</time>
      </trkpt>
      <trkpt lat="48.09047" lon="-3.55864">
        <ele>154.2</ele>
        <time>2025-02-25T08:01:20Z</time>
      </trkpt>
      <trkpt lat="48.09048" lon="-3.55864">
        <ele>154.1</ele>
        <time>2025-02-25T08:01:21Z</time>
      </trkpt>
      <trkpt lat="48.09049" lon="-3.55865">
        <ele>154.2</ele>
        <time>2025-02-25T08:01:22Z</time>
      </trkpt>
      <trkpt lat="48.09051" lon="-3.55868">
        <ele>154.6</ele>
        <time>2025-02-25T08:01:23Z</time>
      </trkpt>
      <trkpt lat="48.09051" lon="-3.5587">
        <ele>155</ele>
        <time>2025-02-25T08:01:24Z</time>
      </trkpt>
      <trkpt lat="48.09051" lon="-3.55871">
        <ele>155.2</ele>
        <time>2025-02-25T08:01:25Z</time>
      </trkpt>
      <trkpt lat="48.09052" lon="-3.55872">
        <ele>155.3</ele>
        <time>2025-02-25T08:01:26Z</time>
      </trkpt>
      <trkpt lat="48.09052" lon="-3.55873">
        <ele>155.5</ele>
        <time>2025-02-25T08:01:27Z</time>
      </trkpt>
      <trkpt lat="48.09053" lon="-3.55875">
        <ele>155.8</ele>
        <time>2025-02-25T08:01:28Z</time>
      </trkpt>
      <trkpt lat="48.09053" lon="-3.55877">
        <ele>156.1</ele>
        <time>2025-02-25T08:01:29Z</time>
      </trkpt>
      <trkpt lat="48.09053" lon="-3.55878">
        <ele>156.3</ele>
        <time>2025-02-25T08:01:30Z</time>
      </trkpt>
      <trkpt lat="48.09053" lon="-3.5588">
        <ele>156.7</ele>
        <time>2025-02-25T08:01:31Z</time>
      </trkpt>
      <trkpt lat="48.09053" lon="-3.55881">
        <ele>156.9</ele>
        <time>2025-02-25T08:01:32Z</time>
      </trkpt>
      <trkpt lat="48.09053" lon="-3.55883">
        <ele>157.3</ele>
        <time>2025-02-25T08:01:33Z</time>
      </trkpt>
      <trkpt lat="48.09054" lon="-3.55884">
        <ele>157.3</ele>
        <time>2025-02-25T08:01:34Z</time>
      </trkpt>
      <trkpt lat="48.09055" lon="-3.55885">
        <ele>157.4</ele>
        <time>2025-02-25T08:01:35Z</time>
      </trkpt>
      <trkpt lat="48.09055" lon="-3.55886">
        <ele>157.6</ele>
        <time>2025-02-25T08:01:36Z</time>
      </trkpt>
      <trkpt lat="48.09056" lon="-3.55887">
        <ele>157.5</ele>
        <time>2025-02-25T08:01:37Z</time>
      </trkpt>
      <trkpt lat="48.09056" lon="-3.5589">
        <ele>158.1</ele>
        <time>2025-02-25T08:01:38Z</time>
      </trkpt>
      <trkpt lat="48.09057" lon="-3.55891">
        <ele>158</ele>
        <time>2025-02-25T08:01:39Z</time>
      </trkpt>
      <trkpt lat="48.09058" lon="-3.55892">
        <ele>157.9</ele>
        <time>2025-02-25T08:01:40Z</time>
      </trkpt>
      <trkpt lat="48.09059" lon="-3.55892">
        <ele>157.5</ele>
        <time>2025-02-25T08:01:41Z</time>
      </trkpt>
      <trkpt lat="48.0906" lon="-3.55895">
        <ele>157.8</ele>
        <time>2025-02-25T08:01:42Z</time>
      </trkpt>
      <trkpt lat="48.0906" lon="-3.55896">
        <ele>158.1</ele>
        <time>2025-02-25T08:01:43Z</time>
      </trkpt>
      <trkpt lat="48.09061" lon="-3.55898">
        <ele>158.1</ele>
        <time>2025-02-25T08:01:44Z</time>
      </trkpt>
      <trkpt lat="48.09061" lon="-3.55899">
        <ele>158.3</ele>
        <time>2025-02-25T08:01:45Z</time>
      </trkpt>
      <trkpt lat="48.09062" lon="-3.55901">
        <ele>158.4</ele>
        <time>2025-02-25T08:01:46Z</time>
      </trkpt>
      <trkpt lat="48.09062" lon="-3.55902">
        <ele>158.6</ele>
        <time>2025-02-25T08:01:47Z</time>
      </trkpt>
      <trkpt lat="48.09063" lon="-3.55903">
        <ele>158.5</ele>
        <time>2025-02-25T08:01:48Z</time>
      </trkpt>
      <trkpt lat="48.09063" lon="-3.55906">
        <ele>159.1</ele>
        <time>2025-02-25T08:01:49Z</time>
      </trkpt>
      <trkpt lat="48.09063" lon="-3.55907">
        <ele>159.3</ele>
        <time>2025-02-25T08:01:50Z</time>
      </trkpt>
      <trkpt lat="48.09063" lon="-3.55909">
        <ele>159.7</ele>
        <time>2025-02-25T08:01:51Z</time>
      </trkpt>
      <trkpt lat="48.09064" lon="-3.55911">
        <ele>159.8</ele>
        <time>2025-02-25T08:01:52Z</time>
      </trkpt>
      <trkpt lat="48.09064" lon="-3.55912">
        <ele>160</ele>
        <time>2025-02-25T08:01:53Z</time>
      </trkpt>
      <trkpt lat="48.09064" lon="-3.55913">
        <ele>160.2</ele>
        <time>2025-02-25T08:01:54Z</time>
      </trkpt>
      <trkpt lat="48.09065" lon="-3.55914">
        <ele>160.1</ele>
        <time>2025-02-25T08:01:55Z</time>
      </trkpt>
      <trkpt lat="48.09065" lon="-3.55916">
        <ele>160.5</ele>
        <time>2025-02-25T08:01:56Z</time>
      </trkpt>
      <trkpt lat="48.09066" lon="-3.55917">
        <ele>160.3</ele>
        <time>2025-02-25T08:01:57Z</time>
      </trkpt>
      <trkpt lat="48.09067" lon="-3.55918">
        <ele>160.1</ele>
        <time>2025-02-25T08:01:58Z</time>
      </trkpt>
      <trkpt lat="48.09067" lon="-3.55919">
        <ele>160.2</ele>
        <time>2025-02-25T08:01:59Z</time>
      </trkpt>
      <trkpt lat="48.09068" lon="-3.5592">
        <ele>160</ele>
        <time>2025-02-25T08:02:00Z</time>
      </trkpt>
      <trkpt lat="48.09069" lon="-3.55921">
        <ele>159.8</ele>
        <time>2025-02-25T08:02:01Z</time>
      </trkpt>
      <trkpt lat="48.09069" lon="-3.55923">
        <ele>160.1</ele>
        <time>2025-02-25T08:02:02Z</time>
      </trkpt>
      <trkpt lat="48.0907" lon="-3.55925">
        <ele>160</ele>
        <time>2025-02-25T08:02:03Z</time>
      </trkpt>
      <trkpt lat="48.0907" lon="-3.55926">
        <ele>160.2</ele>
        <time>2025-02-25T08:02:04Z</time>
      </trkpt>
      <trkpt lat="48.0907" lon="-3.55928">
        <ele>160.5</ele>
        <time>2025-02-25T08:02:05Z</time>
      </trkpt>
      <trkpt lat="48.09071" lon="-3.5593">
        <ele>160.5</ele>
        <time>2025-02-25T08:02:06Z</time>
      </trkpt>
      <trkpt lat="48.09071" lon="-3.55931">
        <ele>160.6</ele>
        <time>2025-02-25T08:02:07Z</time>
      </trkpt>
      <trkpt lat="48.09071" lon="-3.55932">
        <ele>160.8</ele>
        <time>2025-02-25T08:02:08Z</time>
      </trkpt>
      <trkpt lat="48.09072" lon="-3.55934">
        <ele>160.8</ele>
        <time>2025-02-25T08:02:09Z</time>
      </trkpt>
      <trkpt lat="48.09072" lon="-3.55935">
        <ele>161</ele>
        <time>2025-02-25T08:02:10Z</time>
      </trkpt>
      <trkpt lat="48.09072" lon="-3.55937">
        <ele>161.3</ele>
        <time>2025-02-25T08:02:11Z</time>
      </trkpt>
      <trkpt lat="48.09073" lon="-3.55938">
        <ele>161.2</ele>
        <time>2025-02-25T08:02:12Z</time>
      </trkpt>
      <trkpt lat="48.09073" lon="-3.5594">
        <ele>161.5</ele>
        <time>2025-02-25T08:02:13Z</time>
      </trkpt>
      <trkpt lat="48.09073" lon="-3.55941">
        <ele>161.7</ele>
        <time>2025-02-25T08:02:14Z</time>
      </trkpt>
      <trkpt lat="48.09074" lon="-3.55942">
        <ele>161.6</ele>
        <time>2025-02-25T08:02:15Z</time>
      </trkpt>
      <trkpt lat="48.09073" lon="-3.55944">
        <ele>162.2</ele>
        <time>2025-02-25T08:02:16Z</time>
      </trkpt>
      <trkpt lat="48.09074" lon="-3.55946">
        <ele>162.2</ele>
        <time>2025-02-25T08:02:17Z</time>
      </trkpt>
      <trkpt lat="48.09075" lon="-3.55948">
        <ele>162.3</ele>
        <time>2025-02-25T08:02:18Z</time>
      </trkpt>
      <trkpt lat="48.09075" lon="-3.55949">
        <ele>162.5</ele>
        <time>2025-02-25T08:02:19Z</time>
      </trkpt>
      <trkpt lat="48.09075" lon="-3.55951">
        <ele>162.8</ele>
        <time>2025-02-25T08:02:20Z</time>
      </trkpt>
      <trkpt lat="48.09075" lon="-3.55953">
        <ele>163.1</ele>
        <time>2025-02-25T08:02:21Z</time>
      </trkpt>
      <trkpt lat="48.09076" lon="-3.55954">
        <ele>163</ele>
        <time>2025-02-25T08:02:22Z</time>
      </trkpt>
      <trkpt lat="48.09077" lon="-3.55955">
        <ele>163</ele>
        <time>2025-02-25T08:02:23Z</time>
      </trkpt>
      <trkpt lat="48.09077" lon="-3.55957">
        <ele>163.3</ele>
        <time>2025-02-25T08:02:24Z</time>
      </trkpt>
      <trkpt lat="48.09077" lon="-3.55958">
        <ele>163.5</ele>
        <time>2025-02-25T08:02:25Z</time>
      </trkpt>
      <trkpt lat="48.09077" lon="-3.55959">
        <ele>163.6</ele>
        <time>2025-02-25T08:02:26Z</time>
      </trkpt>
      <trkpt lat="48.09077" lon="-3.55961">
        <ele>163.9</ele>
        <time>2025-02-25T08:02:27Z</time>
      </trkpt>
      <trkpt lat="48.09077" lon="-3.55962">
        <ele>164.1</ele>
        <time>2025-02-25T08:02:28Z</time>
      </trkpt>
      <trkpt lat="48.09077" lon="-3.55964">
        <ele>164.4</ele>
        <time>2025-02-25T08:02:29Z</time>
      </trkpt>
      <trkpt lat="48.09077" lon="-3.55965">
        <ele>164.6</ele>
        <time>2025-02-25T08:02:30Z</time>
      </trkpt>
      <trkpt lat="48.09076" lon="-3.55967">
        <ele>165</ele>
        <time>2025-02-25T08:02:31Z</time>
      </trkpt>
      <trkpt lat="48.09076" lon="-3.55969">
        <ele>165.3</ele>
        <time>2025-02-25T08:02:32Z</time>
      </trkpt>
      <trkpt lat="48.09076" lon="-3.5597">
        <ele>165.5</ele>
        <time>2025-02-25T08:02:33Z</time>
      </trkpt>
      <trkpt lat="48.09076" lon="-3.55972">
        <ele>165.8</ele>
        <time>2025-02-25T08:02:34Z</time>
      </trkpt>
      <trkpt lat="48.09075" lon="-3.55973">
        <ele>166</ele>
        <time>2025-02-25T08:02:35Z</time>
      </trkpt>
      <trkpt lat="48.09075" lon="-3.55975">
        <ele>166.1</ele>
        <time>2025-02-25T08:02:36Z</time>
      </trkpt>
      <trkpt lat="48.09075" lon="-3.55976">
        <ele>166.2</ele>
        <time>2025-02-25T08:02:37Z</time>
      </trkpt>
      <trkpt lat="48.09075" lon="-3.55978">
        <ele>166.4</ele>
        <time>2025-02-25T08:02:38Z</time>
      </trkpt>
      <trkpt lat="48.09076" lon="-3.55979">
        <ele>166.4</ele>
        <time>2025-02-25T08:02:39Z</time>
      </trkpt>
      <trkpt lat="48.09075" lon="-3.55981">
        <ele>166.7</ele>
        <time>2025-02-25T08:02:40Z</time>
      </trkpt>
      <trkpt lat="48.09075" lon="-3.55982">
        <ele>166.7</ele>
        <time>2025-02-25T08:02:41Z</time>
      </trkpt>
      <trkpt lat="48.09075" lon="-3.55983">
        <ele>166.8</ele>
        <time>2025-02-25T08:02:42Z</time>
      </trkpt>
      <trkpt lat="48.09075" lon="-3.55985">
        <ele>167</ele>
        <time>2025-02-25T08:02:43Z</time>
      </trkpt>
      <trkpt lat="48.09075" lon="-3.55986">
        <ele>167.1</ele>
        <time>2025-02-25T08:02:44Z</time>
      </trkpt>
      <trkpt lat="48.09075" lon="-3.55988">
        <ele>167.3</ele>
        <time>2025-02-25T08:02:45Z</time>
      </trkpt>
      <trkpt lat="48.09075" lon="-3.5599">
        <ele>167.4</ele>
        <time>2025-02-25T08:02:46Z</time>
      </trkpt>
      <trkpt lat="48.09075" lon="-3.55991">
        <ele>167.5</ele>
        <time>2025-02-25T08:02:47Z</time>
      </trkpt>
      <trkpt lat="48.09075" lon="-3.55993">
        <ele>167.7</ele>
        <time>2025-02-25T08:02:48Z</time>
      </trkpt>
      <trkpt lat="48.09075" lon="-3.55995">
        <ele>167.9</ele>
        <time>2025-02-25T08:02:49Z</time>
      </trkpt>
      <trkpt lat="48.09075" lon="-3.55996">
        <ele>168</ele>
        <time>2025-02-25T08:02:50Z</time>
      </trkpt>
      <trkpt lat="48.09075" lon="-3.55998">
        <ele>168.1</ele>
        <time>2025-02-25T08:02:51Z</time>
      </trkpt>
      <trkpt lat="48.09075" lon="-3.55998">
        <ele>168.1</ele>
        <time>2025-02-25T08:02:52Z</time>
      </trkpt>
      <trkpt lat="48.09074" lon="-3.56">
        <ele>168.3</ele>
        <time>2025-02-25T08:02:53Z</time>
      </trkpt>
      <trkpt lat="48.09074" lon="-3.56001">
        <ele>168.3</ele>
        <time>2025-02-25T08:02:54Z</time>
      </trkpt>
      <trkpt lat="48.09074" lon="-3.56003">
        <ele>168.3</ele>
        <time>2025-02-25T08:02:55Z</time>
      </trkpt>
      <trkpt lat="48.09074" lon="-3.56005">
        <ele>168.3</ele>
        <time>2025-02-25T08:02:56Z</time>
      </trkpt>
      <trkpt lat="48.09074" lon="-3.56007">
        <ele>168.3</ele>
        <time>2025-02-25T08:02:57Z</time>
      </trkpt>
      <trkpt lat="48.09073" lon="-3.56008">
        <ele>168.4</ele>
        <time>2025-02-25T08:02:58Z</time>
      </trkpt>
      <trkpt lat="48.09072" lon="-3.56009">
        <ele>168.4</ele>
        <time>2025-02-25T08:02:59Z</time>
      </trkpt>
      <trkpt lat="48.09072" lon="-3.56011">
        <ele>168.4</ele>
        <time>2025-02-25T08:03:00Z</time>
      </trkpt>
      <trkpt lat="48.09072" lon="-3.56012">
        <ele>168.4</ele>
        <time>2025-02-25T08:03:01Z</time>
      </trkpt>
      <trkpt lat="48.09071" lon="-3.56014">
        <ele>168.4</ele>
        <time>2025-02-25T08:03:02Z</time>
      </trkpt>
      <trkpt lat="48.0907" lon="-3.56016">
        <ele>168.5</ele>
        <time>2025-02-25T08:03:03Z</time>
      </trkpt>
      <trkpt lat="48.0907" lon="-3.56018">
        <ele>168.5</ele>
        <time>2025-02-25T08:03:04Z</time>
      </trkpt>
      <trkpt lat="48.09069" lon="-3.5602">
        <ele>168.5</ele>
        <time>2025-02-25T08:03:05Z</time>
      </trkpt>
      <trkpt lat="48.09069" lon="-3.56021">
        <ele>168.5</ele>
        <time>2025-02-25T08:03:06Z</time>
      </trkpt>
      <trkpt lat="48.09069" lon="-3.56022">
        <ele>168.5</ele>
        <time>2025-02-25T08:03:07Z</time>
      </trkpt>
      <trkpt lat="48.09068" lon="-3.56023">
        <ele>168.6</ele>
        <time>2025-02-25T08:03:08Z</time>
      </trkpt>
      <trkpt lat="48.09067" lon="-3.56023">
        <ele>168.6</ele>
        <time>2025-02-25T08:03:09Z</time>
      </trkpt>
      <trkpt lat="48.09066" lon="-3.56024">
        <ele>168.6</ele>
        <time>2025-02-25T08:03:10Z</time>
      </trkpt>
      <trkpt lat="48.09065" lon="-3.56025">
        <ele>168.7</ele>
        <time>2025-02-25T08:03:11Z</time>
      </trkpt>
      <trkpt lat="48.09064" lon="-3.56027">
        <ele>168.7</ele>
        <time>2025-02-25T08:03:12Z</time>
      </trkpt>
      <trkpt lat="48.09064" lon="-3.56029">
        <ele>168.7</ele>
        <time>2025-02-25T08:03:13Z</time>
      </trkpt>
      <trkpt lat="48.09063" lon="-3.5603">
        <ele>168.8</ele>
        <time>2025-02-25T08:03:14Z</time>
      </trkpt>
      <trkpt lat="48.09062" lon="-3.56032">
        <ele>168.9</ele>
        <time>2025-02-25T08:03:15Z</time>
      </trkpt>
      <trkpt lat="48.09061" lon="-3.56033">
        <ele>169</ele>
        <time>2025-02-25T08:03:16Z</time>
      </trkpt>
      <trkpt lat="48.0906" lon="-3.56034">
        <ele>169.1</ele>
        <time>2025-02-25T08:03:17Z</time>
      </trkpt>
      <trkpt lat="48.0906" lon="-3.56036">
        <ele>169.1</ele>
        <time>2025-02-25T08:03:18Z</time>
      </trkpt>
      <trkpt lat="48.09059" lon="-3.56037">
        <ele>169.2</ele>
        <time>2025-02-25T08:03:19Z</time>
      </trkpt>
      <trkpt lat="48.09059" lon="-3.56039">
        <ele>169.3</ele>
        <time>2025-02-25T08:03:20Z</time>
      </trkpt>
      <trkpt lat="48.09059" lon="-3.56041">
        <ele>169.4</ele>
        <time>2025-02-25T08:03:21Z</time>
      </trkpt>
      <trkpt lat="48.09058" lon="-3.56043">
        <ele>169.5</ele>
        <time>2025-02-25T08:03:22Z</time>
      </trkpt>
      <trkpt lat="48.09058" lon="-3.56044">
        <ele>169.5</ele>
        <time>2025-02-25T08:03:23Z</time>
      </trkpt>
      <trkpt lat="48.09057" lon="-3.56046">
        <ele>169.6</ele>
        <time>2025-02-25T08:03:24Z</time>
      </trkpt>
      <trkpt lat="48.09057" lon="-3.56048">
        <ele>169.7</ele>
        <time>2025-02-25T08:03:25Z</time>
      </trkpt>
      <trkpt lat="48.09056" lon="-3.56049">
        <ele>169.7</ele>
        <time>2025-02-25T08:03:26Z</time>
      </trkpt>
      <trkpt lat="48.09056" lon="-3.56051">
        <ele>169.8</ele>
        <time>2025-02-25T08:03:27Z</time>
      </trkpt>
      <trkpt lat="48.09055" lon="-3.56052">
        <ele>169.9</ele>
        <time>2025-02-25T08:03:28Z</time>
      </trkpt>
      <trkpt lat="48.09055" lon="-3.56053">
        <ele>169.9</ele>
        <time>2025-02-25T08:03:29Z</time>
      </trkpt>
      <trkpt lat="48.09054" lon="-3.56055">
        <ele>170</ele>
        <time>2025-02-25T08:03:30Z</time>
      </trkpt>
      <trkpt lat="48.09054" lon="-3.56056">
        <ele>170.1</ele>
        <time>2025-02-25T08:03:31Z</time>
      </trkpt>
      <trkpt lat="48.09053" lon="-3.56057">
        <ele>170.1</ele>
        <time>2025-02-25T08:03:32Z</time>
      </trkpt>
      <trkpt lat="48.09053" lon="-3.56059">
        <ele>170.1</ele>
        <time>2025-02-25T08:03:33Z</time>
      </trkpt>
      <trkpt lat="48.09052" lon="-3.5606">
        <ele>170.1</ele>
        <time>2025-02-25T08:03:34Z</time>
      </trkpt>
      <trkpt lat="48.09052" lon="-3.56062">
        <ele>170.1</ele>
        <time>2025-02-25T08:03:35Z</time>
      </trkpt>
      <trkpt lat="48.09051" lon="-3.56063">
        <ele>170.2</ele>
        <time>2025-02-25T08:03:36Z</time>
      </trkpt>
      <trkpt lat="48.09051" lon="-3.56065">
        <ele>170.2</ele>
        <time>2025-02-25T08:03:37Z</time>
      </trkpt>
      <trkpt lat="48.09051" lon="-3.56067">
        <ele>170.2</ele>
        <time>2025-02-25T08:03:38Z</time>
      </trkpt>
      <trkpt lat="48.0905" lon="-3.56068">
        <ele>170.2</ele>
        <time>2025-02-25T08:03:39Z</time>
      </trkpt>
      <trkpt lat="48.0905" lon="-3.5607">
        <ele>170.2</ele>
        <time>2025-02-25T08:03:40Z</time>
      </trkpt>
      <trkpt lat="48.0905" lon="-3.56072">
        <ele>170.2</ele>
        <time>2025-02-25T08:03:41Z</time>
      </trkpt>
      <trkpt lat="48.09049" lon="-3.56073">
        <ele>170.2</ele>
        <time>2025-02-25T08:03:42Z</time>
      </trkpt>
      <trkpt lat="48.09049" lon="-3.56075">
        <ele>170.2</ele>
        <time>2025-02-25T08:03:43Z</time>
      </trkpt>
      <trkpt lat="48.09048" lon="-3.56076">
        <ele>170.3</ele>
        <time>2025-02-25T08:03:44Z</time>
      </trkpt>
      <trkpt lat="48.09048" lon="-3.56078">
        <ele>170.3</ele>
        <time>2025-02-25T08:03:45Z</time>
      </trkpt>
      <trkpt lat="48.09048" lon="-3.56079">
        <ele>170.3</ele>
        <time>2025-02-25T08:03:46Z</time>
      </trkpt>
      <trkpt lat="48.09048" lon="-3.56081">
        <ele>170.3</ele>
        <time>2025-02-25T08:03:47Z</time>
      </trkpt>
      <trkpt lat="48.09047" lon="-3.56082">
        <ele>170.3</ele>
        <time>2025-02-25T08:03:48Z</time>
      </trkpt>
      <trkpt lat="48.09046" lon="-3.56083">
        <ele>170.3</ele>
        <time>2025-02-25T08:03:49Z</time>
      </trkpt>
      <trkpt lat="48.09045" lon="-3.56083">
        <ele>170.4</ele>
        <time>2025-02-25T08:03:50Z</time>
      </trkpt>
      <trkpt lat="48.09045" lon="-3.56082">
        <ele>170.4</ele>
        <time>2025-02-25T08:03:51Z</time>
      </trkpt>
      <trkpt lat="48.09045" lon="-3.56082">
        <ele>170.4</ele>
        <time>2025-02-25T08:03:52Z</time>
      </trkpt>
      <trkpt lat="48.09045" lon="-3.56081">
        <ele>170.4</ele>
        <time>2025-02-25T08:03:53Z</time>
      </trkpt>
      <trkpt lat="48.09045" lon="-3.56081">
        <ele>170.4</ele>
        <time>2025-02-25T08:03:54Z</time>
      </trkpt>
      <trkpt lat="48.09045" lon="-3.56081">
        <ele>170.4</ele>
        <time>2025-02-25T08:03:55Z</time>
      </trkpt>
      <trkpt lat="48.09045" lon="-3.56081">
        <ele>170.4</ele>
        <time>2025-02-25T08:03:56Z</time>
      </trkpt>
      <trkpt lat="48.09045" lon="-3.56081">
        <ele>170.4</ele>
        <time>2025-02-25T08:03:57Z</time>
      </trkpt>
      <trkpt lat="48.09045" lon="-3.56081">
        <ele>170.4</ele>
        <time>2025-02-25T08:03:58Z</time>
      </trkpt>
      <trkpt lat="48.09045" lon="-3.56081">
        <ele>170.4</ele>
        <time>2025-02-25T08:03:59Z</time>
      </trkpt>
      <trkpt lat="48.09045" lon="-3.56081">
        <ele>170.4</ele>
        <time>2025-02-25T08:04:00Z</time>
      </trkpt>
      <trkpt lat="48.09045" lon="-3.56081">
        <ele>170.4</ele>
        <time>2025-02-25T08:04:01Z</time>
      </trkpt>
      <trkpt lat="48.09045" lon="-3.56081">
        <ele>170.4</ele>
        <time>2025-02-25T08:04:02Z</time>
      </trkpt>
      <trkpt lat="48.09045" lon="-3.56081">
        <ele>170.4</ele>
        <time>2025-02-25T08:04:03Z</time>
      </trkpt>
      <trkpt lat="48.09046" lon="-3.56083">
        <ele>170.3</ele>
        <time>2025-02-25T08:04:04Z</time>
      </trkpt>
      <trkpt lat="48.09047" lon="-3.56084">
        <ele>170.3</ele>
        <time>2025-02-25T08:04:05Z</time>
      </trkpt>
      <trkpt lat="48.09047" lon="-3.56084">
        <ele>170.3</ele>
        <time>2025-02-25T08:04:06Z</time>
      </trkpt>
      <trkpt lat="48.09047" lon="-3.56084">
        <ele>170.3</ele>
        <time>2025-02-25T08:04:07Z</time>
      </trkpt>
      <trkpt lat="48.09047" lon="-3.56084">
        <ele>170.3</ele>
        <time>2025-02-25T08:04:08Z</time>
      </trkpt>
      <trkpt lat="48.09047" lon="-3.56084">
        <ele>170.3</ele>
        <time>2025-02-25T08:04:09Z</time>
      </trkpt>
      <trkpt lat="48.09046" lon="-3.56085">
        <ele>170.3</ele>
        <time>2025-02-25T08:04:10Z</time>
      </trkpt>
      <trkpt lat="48.09045" lon="-3.56087">
        <ele>170.2</ele>
        <time>2025-02-25T08:04:11Z</time>
      </trkpt>
      <trkpt lat="48.09044" lon="-3.56088">
        <ele>170.2</ele>
        <time>2025-02-25T08:04:12Z</time>
      </trkpt>
      <trkpt lat="48.09043" lon="-3.56089">
        <ele>170.2</ele>
        <time>2025-02-25T08:04:13Z</time>
      </trkpt>
      <trkpt lat="48.09042" lon="-3.5609">
        <ele>170.2</ele>
        <time>2025-02-25T08:04:14Z</time>
      </trkpt>
      <trkpt lat="48.09041" lon="-3.56091">
        <ele>170.2</ele>
        <time>2025-02-25T08:04:15Z</time>
      </trkpt>
      <trkpt lat="48.09041" lon="-3.5609">
        <ele>170.3</ele>
        <time>2025-02-25T08:04:16Z</time>
      </trkpt>
      <trkpt lat="48.0904" lon="-3.5609">
        <ele>170.3</ele>
        <time>2025-02-25T08:04:17Z</time>
      </trkpt>
      <trkpt lat="48.09039" lon="-3.5609">
        <ele>170.4</ele>
        <time>2025-02-25T08:04:18Z</time>
      </trkpt>
      <trkpt lat="48.09038" lon="-3.56091">
        <ele>170.4</ele>
        <time>2025-02-25T08:04:19Z</time>
      </trkpt>
      <trkpt lat="48.09037" lon="-3.56091">
        <ele>170.4</ele>
        <time>2025-02-25T08:04:20Z</time>
      </trkpt>
      <trkpt lat="48.09036" lon="-3.5609">
        <ele>170.5</ele>
        <time>2025-02-25T08:04:21Z</time>
      </trkpt>
      <trkpt lat="48.09035" lon="-3.5609">
        <ele>170.5</ele>
        <time>2025-02-25T08:04:22Z</time>
      </trkpt>
      <trkpt lat="48.09034" lon="-3.5609">
        <ele>170.5</ele>
        <time>2025-02-25T08:04:23Z</time>
      </trkpt>
      <trkpt lat="48.09033" lon="-3.5609">
        <ele>170.6</ele>
        <time>2025-02-25T08:04:24Z</time>
      </trkpt>
      <trkpt lat="48.09032" lon="-3.56091">
        <ele>170.6</ele>
        <time>2025-02-25T08:04:25Z</time>
      </trkpt>
      <trkpt lat="48.09031" lon="-3.56092">
        <ele>170.6</ele>
        <time>2025-02-25T08:04:26Z</time>
      </trkpt>
      <trkpt lat="48.09031" lon="-3.56093">
        <ele>170.5</ele>
        <time>2025-02-25T08:04:27Z</time>
      </trkpt>
      <trkpt lat="48.0903" lon="-3.56094">
        <ele>170.5</ele>
        <time>2025-02-25T08:04:28Z</time>
      </trkpt>
      <trkpt lat="48.09029" lon="-3.56096">
        <ele>170.5</ele>
        <time>2025-02-25T08:04:29Z</time>
      </trkpt>
      <trkpt lat="48.09028" lon="-3.56096">
        <ele>170.5</ele>
        <time>2025-02-25T08:04:30Z</time>
      </trkpt>
      <trkpt lat="48.09027" lon="-3.56097">
        <ele>170.5</ele>
        <time>2025-02-25T08:04:31Z</time>
      </trkpt>
      <trkpt lat="48.09026" lon="-3.56098">
        <ele>170.4</ele>
        <time>2025-02-25T08:04:32Z</time>
      </trkpt>
      <trkpt lat="48.09026" lon="-3.56101">
        <ele>170.3</ele>
        <time>2025-02-25T08:04:33Z</time>
      </trkpt>
      <trkpt lat="48.09025" lon="-3.56103">
        <ele>170.3</ele>
        <time>2025-02-25T08:04:34Z</time>
      </trkpt>
      <trkpt lat="48.09025" lon="-3.56104">
        <ele>170.2</ele>
        <time>2025-02-25T08:04:35Z</time>
      </trkpt>
      <trkpt lat="48.09024" lon="-3.56106">
        <ele>170.2</ele>
        <time>2025-02-25T08:04:36Z</time>
      </trkpt>
      <trkpt lat="48.09024" lon="-3.56108">
        <ele>170.1</ele>
        <time>2025-02-25T08:04:37Z</time>
      </trkpt>
      <trkpt lat="48.09023" lon="-3.5611">
        <ele>170</ele>
        <time>2025-02-25T08:04:38Z</time>
      </trkpt>
      <trkpt lat="48.09023" lon="-3.56111">
        <ele>170</ele>
        <time>2025-02-25T08:04:39Z</time>
      </trkpt>
      <trkpt lat="48.09022" lon="-3.56113">
        <ele>169.9</ele>
        <time>2025-02-25T08:04:40Z</time>
      </trkpt>
      <trkpt lat="48.09021" lon="-3.56114">
        <ele>169.9</ele>
        <time>2025-02-25T08:04:41Z</time>
      </trkpt>
      <trkpt lat="48.09021" lon="-3.56116">
        <ele>169.8</ele>
        <time>2025-02-25T08:04:42Z</time>
      </trkpt>
      <trkpt lat="48.0902" lon="-3.56118">
        <ele>169.8</ele>
        <time>2025-02-25T08:04:43Z</time>
      </trkpt>
      <trkpt lat="48.0902" lon="-3.5612">
        <ele>169.7</ele>
        <time>2025-02-25T08:04:44Z</time>
      </trkpt>
      <trkpt lat="48.09019" lon="-3.56122">
        <ele>169.6</ele>
        <time>2025-02-25T08:04:45Z</time>
      </trkpt>
      <trkpt lat="48.09018" lon="-3.56123">
        <ele>169.6</ele>
        <time>2025-02-25T08:04:46Z</time>
      </trkpt>
      <trkpt lat="48.09017" lon="-3.56124">
        <ele>169.5</ele>
        <time>2025-02-25T08:04:47Z</time>
      </trkpt>
      <trkpt lat="48.09016" lon="-3.56125">
        <ele>169.5</ele>
        <time>2025-02-25T08:04:48Z</time>
      </trkpt>
      <trkpt lat="48.09015" lon="-3.56126">
        <ele>169.5</ele>
        <time>2025-02-25T08:04:49Z</time>
      </trkpt>
      <trkpt lat="48.09014" lon="-3.56127">
        <ele>169.4</ele>
        <time>2025-02-25T08:04:50Z</time>
      </trkpt>
      <trkpt lat="48.09013" lon="-3.56128">
        <ele>169.4</ele>
        <time>2025-02-25T08:04:51Z</time>
      </trkpt>
      <trkpt lat="48.09012" lon="-3.56129">
        <ele>169.4</ele>
        <time>2025-02-25T08:04:52Z</time>
      </trkpt>
      <trkpt lat="48.09012" lon="-3.5613">
        <ele>169.3</ele>
        <time>2025-02-25T08:04:53Z</time>
      </trkpt>
      <trkpt lat="48.09011" lon="-3.56131">
        <ele>169.3</ele>
        <time>2025-02-25T08:04:54Z</time>
      </trkpt>
      <trkpt lat="48.0901" lon="-3.56133">
        <ele>169.2</ele>
        <time>2025-02-25T08:04:55Z</time>
      </trkpt>
      <trkpt lat="48.0901" lon="-3.56134">
        <ele>169.2</ele>
        <time>2025-02-25T08:04:56Z</time>
      </trkpt>
      <trkpt lat="48.0901" lon="-3.56136">
        <ele>169.1</ele>
        <time>2025-02-25T08:04:57Z</time>
      </trkpt>
      <trkpt lat="48.0901" lon="-3.56138">
        <ele>169</ele>
        <time>2025-02-25T08:04:58Z</time>
      </trkpt>
      <trkpt lat="48.09009" lon="-3.56139">
        <ele>169</ele>
        <time>2025-02-25T08:04:59Z</time>
      </trkpt>
      <trkpt lat="48.09009" lon="-3.56141">
        <ele>168.9</ele>
        <time>2025-02-25T08:05:00Z</time>
      </trkpt>
      <trkpt lat="48.09009" lon="-3.56142">
        <ele>168.9</ele>
        <time>2025-02-25T08:05:01Z</time>
      </trkpt>
      <trkpt lat="48.09008" lon="-3.56144">
        <ele>168.8</ele>
        <time>2025-02-25T08:05:02Z</time>
      </trkpt>
      <trkpt lat="48.09007" lon="-3.56145">
        <ele>168.8</ele>
        <time>2025-02-25T08:05:03Z</time>
      </trkpt>
      <trkpt lat="48.09007" lon="-3.56146">
        <ele>168.7</ele>
        <time>2025-02-25T08:05:04Z</time>
      </trkpt>
      <trkpt lat="48.09007" lon="-3.56148">
        <ele>168.7</ele>
        <time>2025-02-25T08:05:05Z</time>
      </trkpt>
      <trkpt lat="48.09007" lon="-3.56149">
        <ele>168.6</ele>
        <time>2025-02-25T08:05:06Z</time>
      </trkpt>
      <trkpt lat="48.09006" lon="-3.56151">
        <ele>168.6</ele>
        <time>2025-02-25T08:05:07Z</time>
      </trkpt>
      <trkpt lat="48.09006" lon="-3.56153">
        <ele>168.5</ele>
        <time>2025-02-25T08:05:08Z</time>
      </trkpt>
      <trkpt lat="48.09006" lon="-3.56154">
        <ele>168.5</ele>
        <time>2025-02-25T08:05:09Z</time>
      </trkpt>
      <trkpt lat="48.09005" lon="-3.56156">
        <ele>168.4</ele>
        <time>2025-02-25T08:05:10Z</time>
      </trkpt>
      <trkpt lat="48.09004" lon="-3.56157">
        <ele>168.3</ele>
        <time>2025-02-25T08:05:11Z</time>
      </trkpt>
      <trkpt lat="48.09004" lon="-3.56158">
        <ele>168.3</ele>
        <time>2025-02-25T08:05:12Z</time>
      </trkpt>
      <trkpt lat="48.09004" lon="-3.5616">
        <ele>168.2</ele>
        <time>2025-02-25T08:05:13Z</time>
      </trkpt>
      <trkpt lat="48.09005" lon="-3.56162">
        <ele>168.2</ele>
        <time>2025-02-25T08:05:14Z</time>
      </trkpt>
      <trkpt lat="48.09006" lon="-3.56163">
        <ele>168.1</ele>
        <time>2025-02-25T08:05:15Z</time>
      </trkpt>
      <trkpt lat="48.09006" lon="-3.56165">
        <ele>168.1</ele>
        <time>2025-02-25T08:05:16Z</time>
      </trkpt>
      <trkpt lat="48.09006" lon="-3.56166">
        <ele>168</ele>
        <time>2025-02-25T08:05:17Z</time>
      </trkpt>
      <trkpt lat="48.09006" lon="-3.56168">
        <ele>167.9</ele>
        <time>2025-02-25T08:05:18Z</time>
      </trkpt>
      <trkpt lat="48.09007" lon="-3.56168">
        <ele>167.9</ele>
        <time>2025-02-25T08:05:19Z</time>
      </trkpt>
      <trkpt lat="48.09008" lon="-3.56169">
        <ele>167.9</ele>
        <time>2025-02-25T08:05:20Z</time>
      </trkpt>
      <trkpt lat="48.09008" lon="-3.56169">
        <ele>167.9</ele>
        <time>2025-02-25T08:05:21Z</time>
      </trkpt>
      <trkpt lat="48.09009" lon="-3.5617">
        <ele>167.8</ele>
        <time>2025-02-25T08:05:22Z</time>
      </trkpt>
      <trkpt lat="48.0901" lon="-3.5617">
        <ele>167.8</ele>
        <time>2025-02-25T08:05:23Z</time>
      </trkpt>
      <trkpt lat="48.0901" lon="-3.56171">
        <ele>167.7</ele>
        <time>2025-02-25T08:05:24Z</time>
      </trkpt>
      <trkpt lat="48.0901" lon="-3.56171">
        <ele>167.7</ele>
        <time>2025-02-25T08:05:25Z</time>
      </trkpt>
      <trkpt lat="48.09011" lon="-3.5617">
        <ele>167.8</ele>
        <time>2025-02-25T08:05:26Z</time>
      </trkpt>
      <trkpt lat="48.09012" lon="-3.56171">
        <ele>167.8</ele>
        <time>2025-02-25T08:05:27Z</time>
      </trkpt>
      <trkpt lat="48.09013" lon="-3.56171">
        <ele>167.8</ele>
        <time>2025-02-25T08:05:28Z</time>
      </trkpt>
      <trkpt lat="48.09014" lon="-3.56172">
        <ele>167.7</ele>
        <time>2025-02-25T08:05:29Z</time>
      </trkpt>
      <trkpt lat="48.09015" lon="-3.56171">
        <ele>167.8</ele>
        <time>2025-02-25T08:05:30Z</time>
      </trkpt>
      <trkpt lat="48.09016" lon="-3.56171">
        <ele>167.8</ele>
        <time>2025-02-25T08:05:31Z</time>
      </trkpt>
      <trkpt lat="48.09016" lon="-3.56171">
        <ele>167.8</ele>
        <time>2025-02-25T08:05:32Z</time>
      </trkpt>
      <trkpt lat="48.09017" lon="-3.56172">
        <ele>167.7</ele>
        <time>2025-02-25T08:05:33Z</time>
      </trkpt>
      <trkpt lat="48.09019" lon="-3.56174">
        <ele>167.7</ele>
        <time>2025-02-25T08:05:34Z</time>
      </trkpt>
      <trkpt lat="48.0902" lon="-3.56175">
        <ele>167.6</ele>
        <time>2025-02-25T08:05:35Z</time>
      </trkpt>
      <trkpt lat="48.09021" lon="-3.56175">
        <ele>167.6</ele>
        <time>2025-02-25T08:05:36Z</time>
      </trkpt>
      <trkpt lat="48.09023" lon="-3.56176">
        <ele>167.6</ele>
        <time>2025-02-25T08:05:37Z</time>
      </trkpt>
      <trkpt lat="48.09024" lon="-3.56176">
        <ele>167.6</ele>
        <time>2025-02-25T08:05:38Z</time>
      </trkpt>
      <trkpt lat="48.09025" lon="-3.56177">
        <ele>167.6</ele>
        <time>2025-02-25T08:05:39Z</time>
      </trkpt>
      <trkpt lat="48.09027" lon="-3.56177">
        <ele>167.6</ele>
        <time>2025-02-25T08:05:40Z</time>
      </trkpt>
      <trkpt lat="48.09028" lon="-3.56177">
        <ele>167.6</ele>
        <time>2025-02-25T08:05:41Z</time>
      </trkpt>
      <trkpt lat="48.0903" lon="-3.56176">
        <ele>167.7</ele>
        <time>2025-02-25T08:05:42Z</time>
      </trkpt>
      <trkpt lat="48.09031" lon="-3.56176">
        <ele>167.8</ele>
        <time>2025-02-25T08:05:43Z</time>
      </trkpt>
      <trkpt lat="48.09032" lon="-3.56176">
        <ele>167.8</ele>
        <time>2025-02-25T08:05:44Z</time>
      </trkpt>
      <trkpt lat="48.09033" lon="-3.56175">
        <ele>167.9</ele>
        <time>2025-02-25T08:05:45Z</time>
      </trkpt>
      <trkpt lat="48.09033" lon="-3.56176">
        <ele>167.9</ele>
        <time>2025-02-25T08:05:46Z</time>
      </trkpt>
      <trkpt lat="48.09034" lon="-3.56176">
        <ele>167.9</ele>
        <time>2025-02-25T08:05:47Z</time>
      </trkpt>
      <trkpt lat="48.09035" lon="-3.56176">
        <ele>167.9</ele>
        <time>2025-02-25T08:05:48Z</time>
      </trkpt>
      <trkpt lat="48.09037" lon="-3.56177">
        <ele>168</ele>
        <time>2025-02-25T08:05:49Z</time>
      </trkpt>
      <trkpt lat="48.09038" lon="-3.56178">
        <ele>168</ele>
        <time>2025-02-25T08:05:50Z</time>
      </trkpt>
      <trkpt lat="48.0904" lon="-3.56179">
        <ele>168</ele>
        <time>2025-02-25T08:05:51Z</time>
      </trkpt>
      <trkpt lat="48.09041" lon="-3.5618">
        <ele>168</ele>
        <time>2025-02-25T08:05:52Z</time>
      </trkpt>
      <trkpt lat="48.09043" lon="-3.5618">
        <ele>168.1</ele>
        <time>2025-02-25T08:05:53Z</time>
      </trkpt>
      <trkpt lat="48.09045" lon="-3.56181">
        <ele>168.1</ele>
        <time>2025-02-25T08:05:54Z</time>
      </trkpt>
      <trkpt lat="48.09046" lon="-3.56181">
        <ele>168.1</ele>
        <time>2025-02-25T08:05:55Z</time>
      </trkpt>
      <trkpt lat="48.09048" lon="-3.5618">
        <ele>168.2</ele>
        <time>2025-02-25T08:05:56Z</time>
      </trkpt>
      <trkpt lat="48.09049" lon="-3.56181">
        <ele>168.2</ele>
        <time>2025-02-25T08:05:57Z</time>
      </trkpt>
      <trkpt lat="48.0905" lon="-3.56182">
        <ele>168.2</ele>
        <time>2025-02-25T08:05:58Z</time>
      </trkpt>
      <trkpt lat="48.09052" lon="-3.56183">
        <ele>168.3</ele>
        <time>2025-02-25T08:05:59Z</time>
      </trkpt>
      <trkpt lat="48.09053" lon="-3.56183">
        <ele>168.3</ele>
        <time>2025-02-25T08:06:00Z</time>
      </trkpt>
      <trkpt lat="48.09054" lon="-3.56184">
        <ele>168.3</ele>
        <time>2025-02-25T08:06:01Z</time>
      </trkpt>
      <trkpt lat="48.09055" lon="-3.56185">
        <ele>168.3</ele>
        <time>2025-02-25T08:06:02Z</time>
      </trkpt>
      <trkpt lat="48.09056" lon="-3.56186">
        <ele>168.3</ele>
        <time>2025-02-25T08:06:03Z</time>
      </trkpt>
      <trkpt lat="48.09057" lon="-3.56187">
        <ele>168.3</ele>
        <time>2025-02-25T08:06:04Z</time>
      </trkpt>
      <trkpt lat="48.09058" lon="-3.56188">
        <ele>168.3</ele>
        <time>2025-02-25T08:06:05Z</time>
      </trkpt>
      <trkpt lat="48.0906" lon="-3.56188">
        <ele>168.4</ele>
        <time>2025-02-25T08:06:06Z</time>
      </trkpt>
      <trkpt lat="48.09061" lon="-3.56189">
        <ele>168.4</ele>
        <time>2025-02-25T08:06:07Z</time>
      </trkpt>
      <trkpt lat="48.09062" lon="-3.56189">
        <ele>168.4</ele>
        <time>2025-02-25T08:06:08Z</time>
      </trkpt>
      <trkpt lat="48.09064" lon="-3.56191">
        <ele>168.4</ele>
        <time>2025-02-25T08:06:09Z</time>
      </trkpt>
      <trkpt lat="48.09065" lon="-3.56193">
        <ele>168.4</ele>
        <time>2025-02-25T08:06:10Z</time>
      </trkpt>
      <trkpt lat="48.09067" lon="-3.56194">
        <ele>168.4</ele>
        <time>2025-02-25T08:06:11Z</time>
      </trkpt>
      <trkpt lat="48.09067" lon="-3.56195">
        <ele>168.4</ele>
        <time>2025-02-25T08:06:12Z</time>
      </trkpt>
      <trkpt lat="48.09068" lon="-3.56195">
        <ele>168.4</ele>
        <time>2025-02-25T08:06:13Z</time>
      </trkpt>
      <trkpt lat="48.09069" lon="-3.56195">
        <ele>168.5</ele>
        <time>2025-02-25T08:06:14Z</time>
      </trkpt>
      <trkpt lat="48.0907" lon="-3.56194">
        <ele>168.5</ele>
        <time>2025-02-25T08:06:15Z</time>
      </trkpt>
      <trkpt lat="48.09072" lon="-3.56194">
        <ele>168.6</ele>
        <time>2025-02-25T08:06:16Z</time>
      </trkpt>
      <trkpt lat="48.09073" lon="-3.56193">
        <ele>168.6</ele>
        <time>2025-02-25T08:06:17Z</time>
      </trkpt>
      <trkpt lat="48.09073" lon="-3.56193">
        <ele>168.6</ele>
        <time>2025-02-25T08:06:18Z</time>
      </trkpt>
      <trkpt lat="48.09074" lon="-3.56193">
        <ele>168.7</ele>
        <time>2025-02-25T08:06:19Z</time>
      </trkpt>
      <trkpt lat="48.09075" lon="-3.56194">
        <ele>168.7</ele>
        <time>2025-02-25T08:06:20Z</time>
      </trkpt>
      <trkpt lat="48.09076" lon="-3.56195">
        <ele>168.7</ele>
        <time>2025-02-25T08:06:21Z</time>
      </trkpt>
      <trkpt lat="48.09076" lon="-3.56197">
        <ele>168.6</ele>
        <time>2025-02-25T08:06:22Z</time>
      </trkpt>
      <trkpt lat="48.09078" lon="-3.56197">
        <ele>168.7</ele>
        <time>2025-02-25T08:06:23Z</time>
      </trkpt>
      <trkpt lat="48.09078" lon="-3.56199">
        <ele>168.6</ele>
        <time>2025-02-25T08:06:24Z</time>
      </trkpt>
      <trkpt lat="48.09079" lon="-3.562">
        <ele>168.6</ele>
        <time>2025-02-25T08:06:25Z</time>
      </trkpt>
      <trkpt lat="48.0908" lon="-3.56201">
        <ele>168.6</ele>
        <time>2025-02-25T08:06:26Z</time>
      </trkpt>
      <trkpt lat="48.09081" lon="-3.56202">
        <ele>168.6</ele>
        <time>2025-02-25T08:06:27Z</time>
      </trkpt>
      <trkpt lat="48.09082" lon="-3.56203">
        <ele>168.6</ele>
        <time>2025-02-25T08:06:28Z</time>
      </trkpt>
      <trkpt lat="48.09082" lon="-3.56204">
        <ele>168.6</ele>
        <time>2025-02-25T08:06:29Z</time>
      </trkpt>
      <trkpt lat="48.09083" lon="-3.56205">
        <ele>168.6</ele>
        <time>2025-02-25T08:06:30Z</time>
      </trkpt>
      <trkpt lat="48.09084" lon="-3.56207">
        <ele>168.6</ele>
        <time>2025-02-25T08:06:31Z</time>
      </trkpt>
      <trkpt lat="48.09085" lon="-3.56208">
        <ele>168.6</ele>
        <time>2025-02-25T08:06:32Z</time>
      </trkpt>
      <trkpt lat="48.09086" lon="-3.56209">
        <ele>168.6</ele>
        <time>2025-02-25T08:06:33Z</time>
      </trkpt>
      <trkpt lat="48.09087" lon="-3.5621">
        <ele>168.6</ele>
        <time>2025-02-25T08:06:34Z</time>
      </trkpt>
      <trkpt lat="48.09088" lon="-3.5621">
        <ele>168.7</ele>
        <time>2025-02-25T08:06:35Z</time>
      </trkpt>
      <trkpt lat="48.09089" lon="-3.5621">
        <ele>168.8</ele>
        <time>2025-02-25T08:06:36Z</time>
      </trkpt>
      <trkpt lat="48.0909" lon="-3.56212">
        <ele>168.8</ele>
        <time>2025-02-25T08:06:37Z</time>
      </trkpt>
      <trkpt lat="48.0909" lon="-3.56213">
        <ele>168.7</ele>
        <time>2025-02-25T08:06:38Z</time>
      </trkpt>
      <trkpt lat="48.09092" lon="-3.56214">
        <ele>168.8</ele>
        <time>2025-02-25T08:06:39Z</time>
      </trkpt>
      <trkpt lat="48.09092" lon="-3.56216">
        <ele>168.8</ele>
        <time>2025-02-25T08:06:40Z</time>
      </trkpt>
      <trkpt lat="48.09093" lon="-3.56217">
        <ele>168.8</ele>
        <time>2025-02-25T08:06:41Z</time>
      </trkpt>
      <trkpt lat="48.09095" lon="-3.56218">
        <ele>168.9</ele>
        <time>2025-02-25T08:06:42Z</time>
      </trkpt>
      <trkpt lat="48.09096" lon="-3.56219">
        <ele>169</ele>
        <time>2025-02-25T08:06:43Z</time>
      </trkpt>
      <trkpt lat="48.09096" lon="-3.5622">
        <ele>169</ele>
        <time>2025-02-25T08:06:44Z</time>
      </trkpt>
      <trkpt lat="48.09097" lon="-3.56221">
        <ele>169</ele>
        <time>2025-02-25T08:06:45Z</time>
      </trkpt>
      <trkpt lat="48.09099" lon="-3.56221">
        <ele>169.1</ele>
        <time>2025-02-25T08:06:46Z</time>
      </trkpt>
      <trkpt lat="48.091" lon="-3.56222">
        <ele>169.2</ele>
        <time>2025-02-25T08:06:47Z</time>
      </trkpt>
      <trkpt lat="48.09101" lon="-3.56223">
        <ele>169.3</ele>
        <time>2025-02-25T08:06:48Z</time>
      </trkpt>
      <trkpt lat="48.09102" lon="-3.56224">
        <ele>169.3</ele>
        <time>2025-02-25T08:06:49Z</time>
      </trkpt>
      <trkpt lat="48.09102" lon="-3.56225">
        <ele>169.3</ele>
        <time>2025-02-25T08:06:50Z</time>
      </trkpt>
      <trkpt lat="48.09104" lon="-3.56225">
        <ele>169.4</ele>
        <time>2025-02-25T08:06:51Z</time>
      </trkpt>
      <trkpt lat="48.09105" lon="-3.56226">
        <ele>169.5</ele>
        <time>2025-02-25T08:06:52Z</time>
      </trkpt>
      <trkpt lat="48.09105" lon="-3.56228">
        <ele>169.4</ele>
        <time>2025-02-25T08:06:53Z</time>
      </trkpt>
      <trkpt lat="48.09106" lon="-3.56229">
        <ele>169.4</ele>
        <time>2025-02-25T08:06:54Z</time>
      </trkpt>
      <trkpt lat="48.09107" lon="-3.5623">
        <ele>169.5</ele>
        <time>2025-02-25T08:06:55Z</time>
      </trkpt>
      <trkpt lat="48.09108" lon="-3.5623">
        <ele>169.5</ele>
        <time>2025-02-25T08:06:56Z</time>
      </trkpt>
      <trkpt lat="48.09109" lon="-3.5623">
        <ele>169.6</ele>
        <time>2025-02-25T08:06:57Z</time>
      </trkpt>
      <trkpt lat="48.0911" lon="-3.56232">
        <ele>169.6</ele>
        <time>2025-02-25T08:06:58Z</time>
      </trkpt>
      <trkpt lat="48.09111" lon="-3.56233">
        <ele>169.6</ele>
        <time>2025-02-25T08:06:59Z</time>
      </trkpt>
      <trkpt lat="48.09111" lon="-3.56234">
        <ele>169.6</ele>
        <time>2025-02-25T08:07:00Z</time>
      </trkpt>
      <trkpt lat="48.09112" lon="-3.56235">
        <ele>169.6</ele>
        <time>2025-02-25T08:07:01Z</time>
      </trkpt>
      <trkpt lat="48.09113" lon="-3.56236">
        <ele>169.6</ele>
        <time>2025-02-25T08:07:02Z</time>
      </trkpt>
      <trkpt lat="48.09114" lon="-3.56238">
        <ele>169.6</ele>
        <time>2025-02-25T08:07:03Z</time>
      </trkpt>
      <trkpt lat="48.09115" lon="-3.56238">
        <ele>169.7</ele>
        <time>2025-02-25T08:07:04Z</time>
      </trkpt>
      <trkpt lat="48.09116" lon="-3.56239">
        <ele>169.7</ele>
        <time>2025-02-25T08:07:05Z</time>
      </trkpt>
      <trkpt lat="48.09117" lon="-3.5624">
        <ele>169.7</ele>
        <time>2025-02-25T08:07:06Z</time>
      </trkpt>
      <trkpt lat="48.09117" lon="-3.56242">
        <ele>169.7</ele>
        <time>2025-02-25T08:07:07Z</time>
      </trkpt>
      <trkpt lat="48.09117" lon="-3.56244">
        <ele>169.6</ele>
        <time>2025-02-25T08:07:08Z</time>
      </trkpt>
      <trkpt lat="48.09117" lon="-3.56246">
        <ele>169.5</ele>
        <time>2025-02-25T08:07:09Z</time>
      </trkpt>
      <trkpt lat="48.09117" lon="-3.56248">
        <ele>169.5</ele>
        <time>2025-02-25T08:07:10Z</time>
      </trkpt>
      <trkpt lat="48.09117" lon="-3.5625">
        <ele>169.4</ele>
        <time>2025-02-25T08:07:11Z</time>
      </trkpt>
      <trkpt lat="48.09117" lon="-3.56251">
        <ele>169.4</ele>
        <time>2025-02-25T08:07:12Z</time>
      </trkpt>
      <trkpt lat="48.09118" lon="-3.56253">
        <ele>169.5</ele>
        <time>2025-02-25T08:07:13Z</time>
      </trkpt>
      <trkpt lat="48.09118" lon="-3.56255">
        <ele>169.5</ele>
        <time>2025-02-25T08:07:14Z</time>
      </trkpt>
      <trkpt lat="48.09118" lon="-3.56257">
        <ele>169.5</ele>
        <time>2025-02-25T08:07:15Z</time>
      </trkpt>
      <trkpt lat="48.09118" lon="-3.56259">
        <ele>169.5</ele>
        <time>2025-02-25T08:07:16Z</time>
      </trkpt>
      <trkpt lat="48.09118" lon="-3.56261">
        <ele>169.5</ele>
        <time>2025-02-25T08:07:17Z</time>
      </trkpt>
      <trkpt lat="48.09118" lon="-3.56263">
        <ele>169.5</ele>
        <time>2025-02-25T08:07:18Z</time>
      </trkpt>
      <trkpt lat="48.09118" lon="-3.56265">
        <ele>169.5</ele>
        <time>2025-02-25T08:07:19Z</time>
      </trkpt>
      <trkpt lat="48.09118" lon="-3.56267">
        <ele>169.5</ele>
        <time>2025-02-25T08:07:20Z</time>
      </trkpt>
      <trkpt lat="48.09118" lon="-3.56268">
        <ele>169.5</ele>
        <time>2025-02-25T08:07:21Z</time>
      </trkpt>
      <trkpt lat="48.09119" lon="-3.5627">
        <ele>169.6</ele>
        <time>2025-02-25T08:07:22Z</time>
      </trkpt>
      <trkpt lat="48.09119" lon="-3.56272">
        <ele>169.6</ele>
        <time>2025-02-25T08:07:23Z</time>
      </trkpt>
      <trkpt lat="48.09119" lon="-3.56274">
        <ele>169.6</ele>
        <time>2025-02-25T08:07:24Z</time>
      </trkpt>
      <trkpt lat="48.0912" lon="-3.56275">
        <ele>169.6</ele>
        <time>2025-02-25T08:07:25Z</time>
      </trkpt>
      <trkpt lat="48.0912" lon="-3.56277">
        <ele>169.6</ele>
        <time>2025-02-25T08:07:26Z</time>
      </trkpt>
      <trkpt lat="48.09121" lon="-3.56279">
        <ele>169.7</ele>
        <time>2025-02-25T08:07:27Z</time>
      </trkpt>
      <trkpt lat="48.09121" lon="-3.5628">
        <ele>169.7</ele>
        <time>2025-02-25T08:07:28Z</time>
      </trkpt>
      <trkpt lat="48.09122" lon="-3.56282">
        <ele>169.8</ele>
        <time>2025-02-25T08:07:29Z</time>
      </trkpt>
      <trkpt lat="48.09122" lon="-3.56283">
        <ele>169.8</ele>
        <time>2025-02-25T08:07:30Z</time>
      </trkpt>
      <trkpt lat="48.09123" lon="-3.56284">
        <ele>169.9</ele>
        <time>2025-02-25T08:07:31Z</time>
      </trkpt>
      <trkpt lat="48.09123" lon="-3.56286">
        <ele>169.9</ele>
        <time>2025-02-25T08:07:32Z</time>
      </trkpt>
      <trkpt lat="48.09123" lon="-3.56288">
        <ele>169.9</ele>
        <time>2025-02-25T08:07:33Z</time>
      </trkpt>
      <trkpt lat="48.09124" lon="-3.5629">
        <ele>169.9</ele>
        <time>2025-02-25T08:07:34Z</time>
      </trkpt>
      <trkpt lat="48.09124" lon="-3.56291">
        <ele>169.9</ele>
        <time>2025-02-25T08:07:35Z</time>
      </trkpt>
      <trkpt lat="48.09125" lon="-3.56293">
        <ele>170</ele>
        <time>2025-02-25T08:07:36Z</time>
      </trkpt>
      <trkpt lat="48.09126" lon="-3.56294">
        <ele>170.1</ele>
        <time>2025-02-25T08:07:37Z</time>
      </trkpt>
      <trkpt lat="48.09127" lon="-3.56296">
        <ele>170.1</ele>
        <time>2025-02-25T08:07:38Z</time>
      </trkpt>
      <trkpt lat="48.09127" lon="-3.56298">
        <ele>170.1</ele>
        <time>2025-02-25T08:07:39Z</time>
      </trkpt>
      <trkpt lat="48.09128" lon="-3.563">
        <ele>170.2</ele>
        <time>2025-02-25T08:07:40Z</time>
      </trkpt>
      <trkpt lat="48.09128" lon="-3.56302">
        <ele>170.2</ele>
        <time>2025-02-25T08:07:41Z</time>
      </trkpt>
      <trkpt lat="48.09129" lon="-3.56303">
        <ele>170.3</ele>
        <time>2025-02-25T08:07:42Z</time>
      </trkpt>
      <trkpt lat="48.09129" lon="-3.56305">
        <ele>170.3</ele>
        <time>2025-02-25T08:07:43Z</time>
      </trkpt>
      <trkpt lat="48.0913" lon="-3.56306">
        <ele>170.4</ele>
        <time>2025-02-25T08:07:44Z</time>
      </trkpt>
      <trkpt lat="48.09131" lon="-3.56308">
        <ele>170.4</ele>
        <time>2025-02-25T08:07:45Z</time>
      </trkpt>
      <trkpt lat="48.09132" lon="-3.56309">
        <ele>170.5</ele>
        <time>2025-02-25T08:07:46Z</time>
      </trkpt>
      <trkpt lat="48.09132" lon="-3.56311">
        <ele>170.5</ele>
        <time>2025-02-25T08:07:47Z</time>
      </trkpt>
      <trkpt lat="48.09133" lon="-3.56312">
        <ele>170.5</ele>
        <time>2025-02-25T08:07:48Z</time>
      </trkpt>
      <trkpt lat="48.09134" lon="-3.56314">
        <ele>170.6</ele>
        <time>2025-02-25T08:07:49Z</time>
      </trkpt>
      <trkpt lat="48.09135" lon="-3.56315">
        <ele>170.7</ele>
        <time>2025-02-25T08:07:50Z</time>
      </trkpt>
      <trkpt lat="48.09135" lon="-3.56317">
        <ele>170.7</ele>
        <time>2025-02-25T08:07:51Z</time>
      </trkpt>
      <trkpt lat="48.09136" lon="-3.56319">
        <ele>170.7</ele>
        <time>2025-02-25T08:07:52Z</time>
      </trkpt>
      <trkpt lat="48.09137" lon="-3.5632">
        <ele>170.8</ele>
        <time>2025-02-25T08:07:53Z</time>
      </trkpt>
      <trkpt lat="48.09137" lon="-3.56322">
        <ele>170.8</ele>
        <time>2025-02-25T08:07:54Z</time>
      </trkpt>
      <trkpt lat="48.09138" lon="-3.56323">
        <ele>170.9</ele>
        <time>2025-02-25T08:07:55Z</time>
      </trkpt>
      <trkpt lat="48.09139" lon="-3.56324">
        <ele>171</ele>
        <time>2025-02-25T08:07:56Z</time>
      </trkpt>
      <trkpt lat="48.0914" lon="-3.56325">
        <ele>171</ele>
        <time>2025-02-25T08:07:57Z</time>
      </trkpt>
      <trkpt lat="48.09141" lon="-3.56327">
        <ele>171.1</ele>
        <time>2025-02-25T08:07:58Z</time>
      </trkpt>
      <trkpt lat="48.09142" lon="-3.56328">
        <ele>171.1</ele>
        <time>2025-02-25T08:07:59Z</time>
      </trkpt>
      <trkpt lat="48.09143" lon="-3.5633">
        <ele>171.1</ele>
        <time>2025-02-25T08:08:00Z</time>
      </trkpt>
      <trkpt lat="48.09143" lon="-3.56332">
        <ele>171.1</ele>
        <time>2025-02-25T08:08:01Z</time>
      </trkpt>
      <trkpt lat="48.09144" lon="-3.56333">
        <ele>171.2</ele>
        <time>2025-02-25T08:08:02Z</time>
      </trkpt>
      <trkpt lat="48.09144" lon="-3.56335">
        <ele>171.1</ele>
        <time>2025-02-25T08:08:03Z</time>
      </trkpt>
      <trkpt lat="48.09145" lon="-3.56336">
        <ele>171.1</ele>
        <time>2025-02-25T08:08:04Z</time>
      </trkpt>
      <trkpt lat="48.09146" lon="-3.56338">
        <ele>171.1</ele>
        <time>2025-02-25T08:08:05Z</time>
      </trkpt>
      <trkpt lat="48.09147" lon="-3.5634">
        <ele>171.1</ele>
        <time>2025-02-25T08:08:06Z</time>
      </trkpt>
      <trkpt lat="48.09147" lon="-3.56341">
        <ele>171.1</ele>
        <time>2025-02-25T08:08:07Z</time>
      </trkpt>
      <trkpt lat="48.09148" lon="-3.56343">
        <ele>171.1</ele>
        <time>2025-02-25T08:08:08Z</time>
      </trkpt>
      <trkpt lat="48.09148" lon="-3.56345">
        <ele>171</ele>
        <time>2025-02-25T08:08:09Z</time>
      </trkpt>
      <trkpt lat="48.09149" lon="-3.56346">
        <ele>171.1</ele>
        <time>2025-02-25T08:08:10Z</time>
      </trkpt>
      <trkpt lat="48.0915" lon="-3.56348">
        <ele>171.1</ele>
        <time>2025-02-25T08:08:11Z</time>
      </trkpt>
      <trkpt lat="48.09151" lon="-3.56349">
        <ele>171.1</ele>
        <time>2025-02-25T08:08:12Z</time>
      </trkpt>
      <trkpt lat="48.09152" lon="-3.5635">
        <ele>171.2</ele>
        <time>2025-02-25T08:08:13Z</time>
      </trkpt>
      <trkpt lat="48.09152" lon="-3.56352">
        <ele>171.1</ele>
        <time>2025-02-25T08:08:14Z</time>
      </trkpt>
      <trkpt lat="48.09153" lon="-3.56354">
        <ele>171.1</ele>
        <time>2025-02-25T08:08:15Z</time>
      </trkpt>
      <trkpt lat="48.09153" lon="-3.56355">
        <ele>171.1</ele>
        <time>2025-02-25T08:08:16Z</time>
      </trkpt>
      <trkpt lat="48.09154" lon="-3.56357">
        <ele>171.2</ele>
        <time>2025-02-25T08:08:17Z</time>
      </trkpt>
      <trkpt lat="48.09154" lon="-3.56358">
        <ele>171.1</ele>
        <time>2025-02-25T08:08:18Z</time>
      </trkpt>
      <trkpt lat="48.09155" lon="-3.56359">
        <ele>171.2</ele>
        <time>2025-02-25T08:08:19Z</time>
      </trkpt>
      <trkpt lat="48.09156" lon="-3.56361">
        <ele>171.2</ele>
        <time>2025-02-25T08:08:20Z</time>
      </trkpt>
      <trkpt lat="48.09156" lon="-3.56362">
        <ele>171.2</ele>
        <time>2025-02-25T08:08:21Z</time>
      </trkpt>
      <trkpt lat="48.09157" lon="-3.56364">
        <ele>171.2</ele>
        <time>2025-02-25T08:08:22Z</time>
      </trkpt>
      <trkpt lat="48.09157" lon="-3.56365">
        <ele>171.2</ele>
        <time>2025-02-25T08:08:23Z</time>
      </trkpt>
      <trkpt lat="48.09158" lon="-3.56366">
        <ele>171.2</ele>
        <time>2025-02-25T08:08:24Z</time>
      </trkpt>
      <trkpt lat="48.09158" lon="-3.56368">
        <ele>171.1</ele>
        <time>2025-02-25T08:08:25Z</time>
      </trkpt>
      <trkpt lat="48.09159" lon="-3.56369">
        <ele>171.2</ele>
        <time>2025-02-25T08:08:26Z</time>
      </trkpt>
      <trkpt lat="48.09159" lon="-3.56371">
        <ele>171.1</ele>
        <time>2025-02-25T08:08:27Z</time>
      </trkpt>
      <trkpt lat="48.0916" lon="-3.56373">
        <ele>171.1</ele>
        <time>2025-02-25T08:08:28Z</time>
      </trkpt>
      <trkpt lat="48.09161" lon="-3.56374">
        <ele>171.1</ele>
        <time>2025-02-25T08:08:29Z</time>
      </trkpt>
      <trkpt lat="48.09161" lon="-3.56376">
        <ele>171.1</ele>
        <time>2025-02-25T08:08:30Z</time>
      </trkpt>
      <trkpt lat="48.09162" lon="-3.56377">
        <ele>171.1</ele>
        <time>2025-02-25T08:08:31Z</time>
      </trkpt>
      <trkpt lat="48.09162" lon="-3.56379">
        <ele>171</ele>
        <time>2025-02-25T08:08:32Z</time>
      </trkpt>
      <trkpt lat="48.09163" lon="-3.56381">
        <ele>171</ele>
        <time>2025-02-25T08:08:33Z</time>
      </trkpt>
      <trkpt lat="48.09163" lon="-3.56382">
        <ele>171</ele>
        <time>2025-02-25T08:08:34Z</time>
      </trkpt>
      <trkpt lat="48.09164" lon="-3.56383">
        <ele>171</ele>
        <time>2025-02-25T08:08:35Z</time>
      </trkpt>
      <trkpt lat="48.09165" lon="-3.56386">
        <ele>171</ele>
        <time>2025-02-25T08:08:36Z</time>
      </trkpt>
      <trkpt lat="48.09165" lon="-3.56388">
        <ele>170.9</ele>
        <time>2025-02-25T08:08:37Z</time>
      </trkpt>
      <trkpt lat="48.09166" lon="-3.56389">
        <ele>170.9</ele>
        <time>2025-02-25T08:08:38Z</time>
      </trkpt>
      <trkpt lat="48.09167" lon="-3.56391">
        <ele>170.9</ele>
        <time>2025-02-25T08:08:39Z</time>
      </trkpt>
      <trkpt lat="48.09167" lon="-3.56392">
        <ele>170.9</ele>
        <time>2025-02-25T08:08:40Z</time>
      </trkpt>
      <trkpt lat="48.09168" lon="-3.56393">
        <ele>170.9</ele>
        <time>2025-02-25T08:08:41Z</time>
      </trkpt>
      <trkpt lat="48.09169" lon="-3.56395">
        <ele>170.9</ele>
        <time>2025-02-25T08:08:42Z</time>
      </trkpt>
      <trkpt lat="48.09169" lon="-3.56396">
        <ele>170.9</ele>
        <time>2025-02-25T08:08:43Z</time>
      </trkpt>
      <trkpt lat="48.0917" lon="-3.56397">
        <ele>170.9</ele>
        <time>2025-02-25T08:08:44Z</time>
      </trkpt>
      <trkpt lat="48.0917" lon="-3.56399">
        <ele>170.9</ele>
        <time>2025-02-25T08:08:45Z</time>
      </trkpt>
      <trkpt lat="48.09171" lon="-3.564">
        <ele>170.9</ele>
        <time>2025-02-25T08:08:46Z</time>
      </trkpt>
      <trkpt lat="48.09172" lon="-3.56401">
        <ele>170.9</ele>
        <time>2025-02-25T08:08:47Z</time>
      </trkpt>
      <trkpt lat="48.09173" lon="-3.56403">
        <ele>170.9</ele>
        <time>2025-02-25T08:08:48Z</time>
      </trkpt>
      <trkpt lat="48.09173" lon="-3.56405">
        <ele>170.9</ele>
        <time>2025-02-25T08:08:49Z</time>
      </trkpt>
      <trkpt lat="48.09174" lon="-3.56406">
        <ele>170.9</ele>
        <time>2025-02-25T08:08:50Z</time>
      </trkpt>
      <trkpt lat="48.09174" lon="-3.56408">
        <ele>170.8</ele>
        <time>2025-02-25T08:08:51Z</time>
      </trkpt>
      <trkpt lat="48.09175" lon="-3.56409">
        <ele>170.9</ele>
        <time>2025-02-25T08:08:52Z</time>
      </trkpt>
      <trkpt lat="48.09175" lon="-3.5641">
        <ele>170.8</ele>
        <time>2025-02-25T08:08:53Z</time>
      </trkpt>
      <trkpt lat="48.09176" lon="-3.56412">
        <ele>170.8</ele>
        <time>2025-02-25T08:08:54Z</time>
      </trkpt>
      <trkpt lat="48.09177" lon="-3.56413">
        <ele>170.9</ele>
        <time>2025-02-25T08:08:55Z</time>
      </trkpt>
      <trkpt lat="48.09178" lon="-3.56415">
        <ele>170.9</ele>
        <time>2025-02-25T08:08:56Z</time>
      </trkpt>
      <trkpt lat="48.09179" lon="-3.56416">
        <ele>170.9</ele>
        <time>2025-02-25T08:08:57Z</time>
      </trkpt>
      <trkpt lat="48.0918" lon="-3.56417">
        <ele>171</ele>
        <time>2025-02-25T08:08:58Z</time>
      </trkpt>
      <trkpt lat="48.0918" lon="-3.56418">
        <ele>170.9</ele>
        <time>2025-02-25T08:08:59Z</time>
      </trkpt>
      <trkpt lat="48.09181" lon="-3.56419">
        <ele>171</ele>
        <time>2025-02-25T08:09:00Z</time>
      </trkpt>
      <trkpt lat="48.09182" lon="-3.56421">
        <ele>171</ele>
        <time>2025-02-25T08:09:01Z</time>
      </trkpt>
      <trkpt lat="48.09183" lon="-3.56422">
        <ele>171.1</ele>
        <time>2025-02-25T08:09:02Z</time>
      </trkpt>
      <trkpt lat="48.09183" lon="-3.56423">
        <ele>171</ele>
        <time>2025-02-25T08:09:03Z</time>
      </trkpt>
      <trkpt lat="48.09184" lon="-3.56425">
        <ele>171.1</ele>
        <time>2025-02-25T08:09:04Z</time>
      </trkpt>
      <trkpt lat="48.09185" lon="-3.56426">
        <ele>171.1</ele>
        <time>2025-02-25T08:09:05Z</time>
      </trkpt>
      <trkpt lat="48.09186" lon="-3.56427">
        <ele>171.1</ele>
        <time>2025-02-25T08:09:06Z</time>
      </trkpt>
      <trkpt lat="48.09186" lon="-3.56429">
        <ele>171.1</ele>
        <time>2025-02-25T08:09:07Z</time>
      </trkpt>
      <trkpt lat="48.09187" lon="-3.56431">
        <ele>171.1</ele>
        <time>2025-02-25T08:09:08Z</time>
      </trkpt>
      <trkpt lat="48.09187" lon="-3.56433">
        <ele>171</ele>
        <time>2025-02-25T08:09:09Z</time>
      </trkpt>
      <trkpt lat="48.09188" lon="-3.56435">
        <ele>171</ele>
        <time>2025-02-25T08:09:10Z</time>
      </trkpt>
      <trkpt lat="48.09189" lon="-3.56436">
        <ele>171</ele>
        <time>2025-02-25T08:09:11Z</time>
      </trkpt>
      <trkpt lat="48.09189" lon="-3.56438">
        <ele>171</ele>
        <time>2025-02-25T08:09:12Z</time>
      </trkpt>
      <trkpt lat="48.0919" lon="-3.56439">
        <ele>171</ele>
        <time>2025-02-25T08:09:13Z</time>
      </trkpt>
      <trkpt lat="48.0919" lon="-3.56441">
        <ele>170.9</ele>
        <time>2025-02-25T08:09:14Z</time>
      </trkpt>
      <trkpt lat="48.09191" lon="-3.56442">
        <ele>171</ele>
        <time>2025-02-25T08:09:15Z</time>
      </trkpt>
      <trkpt lat="48.09192" lon="-3.56443">
        <ele>171</ele>
        <time>2025-02-25T08:09:16Z</time>
      </trkpt>
      <trkpt lat="48.09193" lon="-3.56445">
        <ele>170.9</ele>
        <time>2025-02-25T08:09:17Z</time>
      </trkpt>
      <trkpt lat="48.09194" lon="-3.56446">
        <ele>170.9</ele>
        <time>2025-02-25T08:09:18Z</time>
      </trkpt>
      <trkpt lat="48.09195" lon="-3.56448">
        <ele>170.9</ele>
        <time>2025-02-25T08:09:19Z</time>
      </trkpt>
      <trkpt lat="48.09196" lon="-3.56449">
        <ele>170.9</ele>
        <time>2025-02-25T08:09:20Z</time>
      </trkpt>
      <trkpt lat="48.09196" lon="-3.56451">
        <ele>170.8</ele>
        <time>2025-02-25T08:09:21Z</time>
      </trkpt>
      <trkpt lat="48.09197" lon="-3.56451">
        <ele>170.9</ele>
        <time>2025-02-25T08:09:22Z</time>
      </trkpt>
      <trkpt lat="48.09199" lon="-3.56452">
        <ele>170.9</ele>
        <time>2025-02-25T08:09:23Z</time>
      </trkpt>
      <trkpt lat="48.092" lon="-3.56453">
        <ele>171</ele>
        <time>2025-02-25T08:09:24Z</time>
      </trkpt>
      <trkpt lat="48.09201" lon="-3.56454">
        <ele>171</ele>
        <time>2025-02-25T08:09:25Z</time>
      </trkpt>
      <trkpt lat="48.09201" lon="-3.56456">
        <ele>170.9</ele>
        <time>2025-02-25T08:09:26Z</time>
      </trkpt>
      <trkpt lat="48.09202" lon="-3.56457">
        <ele>170.9</ele>
        <time>2025-02-25T08:09:27Z</time>
      </trkpt>
      <trkpt lat="48.09204" lon="-3.56458">
        <ele>171</ele>
        <time>2025-02-25T08:09:28Z</time>
      </trkpt>
      <trkpt lat="48.09205" lon="-3.56458">
        <ele>171.1</ele>
        <time>2025-02-25T08:09:29Z</time>
      </trkpt>
      <trkpt lat="48.09206" lon="-3.56459">
        <ele>171.1</ele>
        <time>2025-02-25T08:09:30Z</time>
      </trkpt>
      <trkpt lat="48.09207" lon="-3.5646">
        <ele>171.1</ele>
        <time>2025-02-25T08:09:31Z</time>
      </trkpt>
      <trkpt lat="48.09207" lon="-3.56462">
        <ele>171.1</ele>
        <time>2025-02-25T08:09:32Z</time>
      </trkpt>
      <trkpt lat="48.09208" lon="-3.56463">
        <ele>171.1</ele>
        <time>2025-02-25T08:09:33Z</time>
      </trkpt>
      <trkpt lat="48.09209" lon="-3.56465">
        <ele>171.2</ele>
        <time>2025-02-25T08:09:34Z</time>
      </trkpt>
      <trkpt lat="48.0921" lon="-3.56466">
        <ele>171.2</ele>
        <time>2025-02-25T08:09:35Z</time>
      </trkpt>
      <trkpt lat="48.0921" lon="-3.56468">
        <ele>171.2</ele>
        <time>2025-02-25T08:09:36Z</time>
      </trkpt>
      <trkpt lat="48.09211" lon="-3.56469">
        <ele>171.2</ele>
        <time>2025-02-25T08:09:37Z</time>
      </trkpt>
      <trkpt lat="48.09212" lon="-3.5647">
        <ele>171.3</ele>
        <time>2025-02-25T08:09:38Z</time>
      </trkpt>
      <trkpt lat="48.09214" lon="-3.5647">
        <ele>171.4</ele>
        <time>2025-02-25T08:09:39Z</time>
      </trkpt>
      <trkpt lat="48.09215" lon="-3.56472">
        <ele>171.5</ele>
        <time>2025-02-25T08:09:40Z</time>
      </trkpt>
      <trkpt lat="48.09216" lon="-3.56473">
        <ele>171.5</ele>
        <time>2025-02-25T08:09:41Z</time>
      </trkpt>
      <trkpt lat="48.09216" lon="-3.56474">
        <ele>171.5</ele>
        <time>2025-02-25T08:09:42Z</time>
      </trkpt>
      <trkpt lat="48.09217" lon="-3.56475">
        <ele>171.5</ele>
        <time>2025-02-25T08:09:43Z</time>
      </trkpt>
      <trkpt lat="48.09218" lon="-3.56476">
        <ele>171.6</ele>
        <time>2025-02-25T08:09:44Z</time>
      </trkpt>
      <trkpt lat="48.09219" lon="-3.56478">
        <ele>171.6</ele>
        <time>2025-02-25T08:09:45Z</time>
      </trkpt>
      <trkpt lat="48.0922" lon="-3.56479">
        <ele>171.6</ele>
        <time>2025-02-25T08:09:46Z</time>
      </trkpt>
      <trkpt lat="48.09221" lon="-3.5648">
        <ele>171.6</ele>
        <time>2025-02-25T08:09:47Z</time>
      </trkpt>
      <trkpt lat="48.09222" lon="-3.56481">
        <ele>171.7</ele>
        <time>2025-02-25T08:09:48Z</time>
      </trkpt>
      <trkpt lat="48.09223" lon="-3.56482">
        <ele>171.7</ele>
        <time>2025-02-25T08:09:49Z</time>
      </trkpt>
      <trkpt lat="48.09224" lon="-3.56484">
        <ele>171.7</ele>
        <time>2025-02-25T08:09:50Z</time>
      </trkpt>
      <trkpt lat="48.09225" lon="-3.56485">
        <ele>171.7</ele>
        <time>2025-02-25T08:09:51Z</time>
      </trkpt>
      <trkpt lat="48.09226" lon="-3.56485">
        <ele>171.7</ele>
        <time>2025-02-25T08:09:52Z</time>
      </trkpt>
      <trkpt lat="48.09227" lon="-3.56486">
        <ele>171.8</ele>
        <time>2025-02-25T08:09:53Z</time>
      </trkpt>
      <trkpt lat="48.09228" lon="-3.56487">
        <ele>171.8</ele>
        <time>2025-02-25T08:09:54Z</time>
      </trkpt>
      <trkpt lat="48.09229" lon="-3.56488">
        <ele>171.8</ele>
        <time>2025-02-25T08:09:55Z</time>
      </trkpt>
      <trkpt lat="48.0923" lon="-3.56489">
        <ele>171.8</ele>
        <time>2025-02-25T08:09:56Z</time>
      </trkpt>
      <trkpt lat="48.09231" lon="-3.56491">
        <ele>171.9</ele>
        <time>2025-02-25T08:09:57Z</time>
      </trkpt>
      <trkpt lat="48.09231" lon="-3.56493">
        <ele>171.8</ele>
        <time>2025-02-25T08:09:58Z</time>
      </trkpt>
      <trkpt lat="48.09231" lon="-3.56493">
        <ele>171.8</ele>
        <time>2025-02-25T08:09:59Z</time>
      </trkpt>
      <trkpt lat="48.09232" lon="-3.56494">
        <ele>171.8</ele>
        <time>2025-02-25T08:10:00Z</time>
      </trkpt>
      <trkpt lat="48.09233" lon="-3.56495">
        <ele>171.9</ele>
        <time>2025-02-25T08:10:01Z</time>
      </trkpt>
      <trkpt lat="48.09234" lon="-3.56496">
        <ele>171.9</ele>
        <time>2025-02-25T08:10:02Z</time>
      </trkpt>
      <trkpt lat="48.09235" lon="-3.56497">
        <ele>172</ele>
        <time>2025-02-25T08:10:03Z</time>
      </trkpt>
      <trkpt lat="48.09236" lon="-3.56498">
        <ele>172</ele>
        <time>2025-02-25T08:10:04Z</time>
      </trkpt>
      <trkpt lat="48.09237" lon="-3.56499">
        <ele>172.1</ele>
        <time>2025-02-25T08:10:05Z</time>
      </trkpt>
      <trkpt lat="48.09238" lon="-3.565">
        <ele>172.1</ele>
        <time>2025-02-25T08:10:06Z</time>
      </trkpt>
      <trkpt lat="48.09238" lon="-3.56501">
        <ele>172.1</ele>
        <time>2025-02-25T08:10:07Z</time>
      </trkpt>
      <trkpt lat="48.09239" lon="-3.56503">
        <ele>172.1</ele>
        <time>2025-02-25T08:10:08Z</time>
      </trkpt>
      <trkpt lat="48.09239" lon="-3.56505">
        <ele>172</ele>
        <time>2025-02-25T08:10:09Z</time>
      </trkpt>
      <trkpt lat="48.0924" lon="-3.56506">
        <ele>172.1</ele>
        <time>2025-02-25T08:10:10Z</time>
      </trkpt>
      <trkpt lat="48.09241" lon="-3.56507">
        <ele>172.1</ele>
        <time>2025-02-25T08:10:11Z</time>
      </trkpt>
      <trkpt lat="48.09241" lon="-3.56508">
        <ele>172.1</ele>
        <time>2025-02-25T08:10:12Z</time>
      </trkpt>
      <trkpt lat="48.09242" lon="-3.5651">
        <ele>172.1</ele>
        <time>2025-02-25T08:10:13Z</time>
      </trkpt>
      <trkpt lat="48.09243" lon="-3.56511">
        <ele>172.1</ele>
        <time>2025-02-25T08:10:14Z</time>
      </trkpt>
      <trkpt lat="48.09244" lon="-3.56511">
        <ele>172.2</ele>
        <time>2025-02-25T08:10:15Z</time>
      </trkpt>
      <trkpt lat="48.09246" lon="-3.56512">
        <ele>172.3</ele>
        <time>2025-02-25T08:10:16Z</time>
      </trkpt>
      <trkpt lat="48.09247" lon="-3.56513">
        <ele>172.3</ele>
        <time>2025-02-25T08:10:17Z</time>
      </trkpt>
      <trkpt lat="48.09248" lon="-3.56514">
        <ele>172.4</ele>
        <time>2025-02-25T08:10:18Z</time>
      </trkpt>
      <trkpt lat="48.09249" lon="-3.56516">
        <ele>172.4</ele>
        <time>2025-02-25T08:10:19Z</time>
      </trkpt>
      <trkpt lat="48.0925" lon="-3.56517">
        <ele>172.4</ele>
        <time>2025-02-25T08:10:20Z</time>
      </trkpt>
      <trkpt lat="48.09251" lon="-3.56518">
        <ele>172.4</ele>
        <time>2025-02-25T08:10:21Z</time>
      </trkpt>
      <trkpt lat="48.09251" lon="-3.56519">
        <ele>172.4</ele>
        <time>2025-02-25T08:10:22Z</time>
      </trkpt>
      <trkpt lat="48.09252" lon="-3.5652">
        <ele>172.4</ele>
        <time>2025-02-25T08:10:23Z</time>
      </trkpt>
      <trkpt lat="48.09253" lon="-3.56521">
        <ele>172.4</ele>
        <time>2025-02-25T08:10:24Z</time>
      </trkpt>
      <trkpt lat="48.09254" lon="-3.56521">
        <ele>172.4</ele>
        <time>2025-02-25T08:10:25Z</time>
      </trkpt>
      <trkpt lat="48.09255" lon="-3.56522">
        <ele>172.4</ele>
        <time>2025-02-25T08:10:26Z</time>
      </trkpt>
      <trkpt lat="48.09256" lon="-3.56523">
        <ele>172.4</ele>
        <time>2025-02-25T08:10:27Z</time>
      </trkpt>
      <trkpt lat="48.09257" lon="-3.56524">
        <ele>172.4</ele>
        <time>2025-02-25T08:10:28Z</time>
      </trkpt>
      <trkpt lat="48.09259" lon="-3.56525">
        <ele>172.4</ele>
        <time>2025-02-25T08:10:29Z</time>
      </trkpt>
      <trkpt lat="48.0926" lon="-3.56526">
        <ele>172.4</ele>
        <time>2025-02-25T08:10:30Z</time>
      </trkpt>
      <trkpt lat="48.0926" lon="-3.56527">
        <ele>172.4</ele>
        <time>2025-02-25T08:10:31Z</time>
      </trkpt>
      <trkpt lat="48.09262" lon="-3.56528">
        <ele>172.4</ele>
        <time>2025-02-25T08:10:32Z</time>
      </trkpt>
      <trkpt lat="48.09262" lon="-3.5653">
        <ele>172.4</ele>
        <time>2025-02-25T08:10:33Z</time>
      </trkpt>
      <trkpt lat="48.09263" lon="-3.56531">
        <ele>172.4</ele>
        <time>2025-02-25T08:10:34Z</time>
      </trkpt>
      <trkpt lat="48.09264" lon="-3.56532">
        <ele>172.4</ele>
        <time>2025-02-25T08:10:35Z</time>
      </trkpt>
      <trkpt lat="48.09265" lon="-3.56534">
        <ele>172.3</ele>
        <time>2025-02-25T08:10:36Z</time>
      </trkpt>
      <trkpt lat="48.09265" lon="-3.56536">
        <ele>172.2</ele>
        <time>2025-02-25T08:10:37Z</time>
      </trkpt>
      <trkpt lat="48.09266" lon="-3.56537">
        <ele>172.2</ele>
        <time>2025-02-25T08:10:38Z</time>
      </trkpt>
      <trkpt lat="48.09267" lon="-3.56538">
        <ele>172.2</ele>
        <time>2025-02-25T08:10:39Z</time>
      </trkpt>
      <trkpt lat="48.09267" lon="-3.56539">
        <ele>172.2</ele>
        <time>2025-02-25T08:10:40Z</time>
      </trkpt>
      <trkpt lat="48.09268" lon="-3.56541">
        <ele>172.2</ele>
        <time>2025-02-25T08:10:41Z</time>
      </trkpt>
      <trkpt lat="48.09269" lon="-3.56542">
        <ele>172.2</ele>
        <time>2025-02-25T08:10:42Z</time>
      </trkpt>
      <trkpt lat="48.09271" lon="-3.56543">
        <ele>172.2</ele>
        <time>2025-02-25T08:10:43Z</time>
      </trkpt>
      <trkpt lat="48.09271" lon="-3.56544">
        <ele>172.2</ele>
        <time>2025-02-25T08:10:44Z</time>
      </trkpt>
      <trkpt lat="48.09272" lon="-3.56545">
        <ele>172.2</ele>
        <time>2025-02-25T08:10:45Z</time>
      </trkpt>
      <trkpt lat="48.09273" lon="-3.56546">
        <ele>172.2</ele>
        <time>2025-02-25T08:10:46Z</time>
      </trkpt>
      <trkpt lat="48.09275" lon="-3.56548">
        <ele>172.2</ele>
        <time>2025-02-25T08:10:47Z</time>
      </trkpt>
      <trkpt lat="48.09276" lon="-3.5655">
        <ele>172.1</ele>
        <time>2025-02-25T08:10:48Z</time>
      </trkpt>
      <trkpt lat="48.09277" lon="-3.56551">
        <ele>172.1</ele>
        <time>2025-02-25T08:10:49Z</time>
      </trkpt>
      <trkpt lat="48.09278" lon="-3.56552">
        <ele>172.1</ele>
        <time>2025-02-25T08:10:50Z</time>
      </trkpt>
      <trkpt lat="48.09279" lon="-3.56552">
        <ele>172.2</ele>
        <time>2025-02-25T08:10:51Z</time>
      </trkpt>
      <trkpt lat="48.09279" lon="-3.56553">
        <ele>172.1</ele>
        <time>2025-02-25T08:10:52Z</time>
      </trkpt>
      <trkpt lat="48.0928" lon="-3.56554">
        <ele>172.1</ele>
        <time>2025-02-25T08:10:53Z</time>
      </trkpt>
      <trkpt lat="48.0928" lon="-3.56555">
        <ele>172.1</ele>
        <time>2025-02-25T08:10:54Z</time>
      </trkpt>
      <trkpt lat="48.09281" lon="-3.56556">
        <ele>172.1</ele>
        <time>2025-02-25T08:10:55Z</time>
      </trkpt>
      <trkpt lat="48.09282" lon="-3.56556">
        <ele>172.1</ele>
        <time>2025-02-25T08:10:56Z</time>
      </trkpt>
      <trkpt lat="48.09283" lon="-3.56557">
        <ele>172.2</ele>
        <time>2025-02-25T08:10:57Z</time>
      </trkpt>
      <trkpt lat="48.09283" lon="-3.56557">
        <ele>172.2</ele>
        <time>2025-02-25T08:10:58Z</time>
      </trkpt>
      <trkpt lat="48.09283" lon="-3.56558">
        <ele>172.2</ele>
        <time>2025-02-25T08:10:59Z</time>
      </trkpt>
      <trkpt lat="48.09283" lon="-3.5656">
        <ele>172.2</ele>
        <time>2025-02-25T08:11:00Z</time>
      </trkpt>
      <trkpt lat="48.09283" lon="-3.5656">
        <ele>172.2</ele>
        <time>2025-02-25T08:11:01Z</time>
      </trkpt>
      <trkpt lat="48.09283" lon="-3.56561">
        <ele>172.2</ele>
        <time>2025-02-25T08:11:02Z</time>
      </trkpt>
      <trkpt lat="48.0928" lon="-3.56564">
        <ele>172.1</ele>
        <time>2025-02-25T08:11:03Z</time>
      </trkpt>
      <trkpt lat="48.09278" lon="-3.56562">
        <ele>172</ele>
        <time>2025-02-25T08:11:04Z</time>
      </trkpt>
      <trkpt lat="48.09276" lon="-3.5656">
        <ele>171.9</ele>
        <time>2025-02-25T08:11:05Z</time>
      </trkpt>
      <trkpt lat="48.09275" lon="-3.56559">
        <ele>171.9</ele>
        <time>2025-02-25T08:11:06Z</time>
      </trkpt>
      <trkpt lat="48.09273" lon="-3.56557">
        <ele>171.8</ele>
        <time>2025-02-25T08:11:07Z</time>
      </trkpt>
      <trkpt lat="48.09272" lon="-3.56556">
        <ele>171.8</ele>
        <time>2025-02-25T08:11:08Z</time>
      </trkpt>
      <trkpt lat="48.09271" lon="-3.56556">
        <ele>171.8</ele>
        <time>2025-02-25T08:11:09Z</time>
      </trkpt>
      <trkpt lat="48.09269" lon="-3.56556">
        <ele>171.7</ele>
        <time>2025-02-25T08:11:10Z</time>
      </trkpt>
      <trkpt lat="48.09268" lon="-3.56555">
        <ele>171.7</ele>
        <time>2025-02-25T08:11:11Z</time>
      </trkpt>
      <trkpt lat="48.09267" lon="-3.56554">
        <ele>171.7</ele>
        <time>2025-02-25T08:11:12Z</time>
      </trkpt>
      <trkpt lat="48.09266" lon="-3.56554">
        <ele>171.6</ele>
        <time>2025-02-25T08:11:13Z</time>
      </trkpt>
      <trkpt lat="48.09264" lon="-3.56553">
        <ele>171.6</ele>
        <time>2025-02-25T08:11:14Z</time>
      </trkpt>
      <trkpt lat="48.09263" lon="-3.56552">
        <ele>171.6</ele>
        <time>2025-02-25T08:11:15Z</time>
      </trkpt>
      <trkpt lat="48.09262" lon="-3.56552">
        <ele>171.6</ele>
        <time>2025-02-25T08:11:16Z</time>
      </trkpt>
      <trkpt lat="48.0926" lon="-3.56552">
        <ele>171.5</ele>
        <time>2025-02-25T08:11:17Z</time>
      </trkpt>
      <trkpt lat="48.09259" lon="-3.56551">
        <ele>171.5</ele>
        <time>2025-02-25T08:11:18Z</time>
      </trkpt>
      <trkpt lat="48.09258" lon="-3.5655">
        <ele>171.5</ele>
        <time>2025-02-25T08:11:19Z</time>
      </trkpt>
      <trkpt lat="48.09257" lon="-3.5655">
        <ele>171.5</ele>
        <time>2025-02-25T08:11:20Z</time>
      </trkpt>
      <trkpt lat="48.09255" lon="-3.56549">
        <ele>171.4</ele>
        <time>2025-02-25T08:11:21Z</time>
      </trkpt>
      <trkpt lat="48.09254" lon="-3.56549">
        <ele>171.4</ele>
        <time>2025-02-25T08:11:22Z</time>
      </trkpt>
      <trkpt lat="48.09252" lon="-3.56548">
        <ele>171.3</ele>
        <time>2025-02-25T08:11:23Z</time>
      </trkpt>
      <trkpt lat="48.09251" lon="-3.56547">
        <ele>171.3</ele>
        <time>2025-02-25T08:11:24Z</time>
      </trkpt>
      <trkpt lat="48.0925" lon="-3.56546">
        <ele>171.3</ele>
        <time>2025-02-25T08:11:25Z</time>
      </trkpt>
      <trkpt lat="48.09248" lon="-3.56546">
        <ele>171.2</ele>
        <time>2025-02-25T08:11:26Z</time>
      </trkpt>
      <trkpt lat="48.09247" lon="-3.56545">
        <ele>171.2</ele>
        <time>2025-02-25T08:11:27Z</time>
      </trkpt>
      <trkpt lat="48.09246" lon="-3.56544">
        <ele>171.2</ele>
        <time>2025-02-25T08:11:28Z</time>
      </trkpt>
      <trkpt lat="48.09244" lon="-3.56543">
        <ele>171.1</ele>
        <time>2025-02-25T08:11:29Z</time>
      </trkpt>
      <trkpt lat="48.09243" lon="-3.56543">
        <ele>171.1</ele>
        <time>2025-02-25T08:11:30Z</time>
      </trkpt>
      <trkpt lat="48.09241" lon="-3.56544">
        <ele>171</ele>
        <time>2025-02-25T08:11:31Z</time>
      </trkpt>
      <trkpt lat="48.0924" lon="-3.56545">
        <ele>170.9</ele>
        <time>2025-02-25T08:11:32Z</time>
      </trkpt>
      <trkpt lat="48.09238" lon="-3.56544">
        <ele>170.8</ele>
        <time>2025-02-25T08:11:33Z</time>
      </trkpt>
      <trkpt lat="48.09237" lon="-3.56542">
        <ele>170.8</ele>
        <time>2025-02-25T08:11:34Z</time>
      </trkpt>
      <trkpt lat="48.09235" lon="-3.56541">
        <ele>170.7</ele>
        <time>2025-02-25T08:11:35Z</time>
      </trkpt>
      <trkpt lat="48.09234" lon="-3.5654">
        <ele>170.7</ele>
        <time>2025-02-25T08:11:36Z</time>
      </trkpt>
      <trkpt lat="48.09233" lon="-3.56539">
        <ele>170.6</ele>
        <time>2025-02-25T08:11:37Z</time>
      </trkpt>
      <trkpt lat="48.09232" lon="-3.56537">
        <ele>170.6</ele>
        <time>2025-02-25T08:11:38Z</time>
      </trkpt>
      <trkpt lat="48.09231" lon="-3.56536">
        <ele>170.5</ele>
        <time>2025-02-25T08:11:39Z</time>
      </trkpt>
      <trkpt lat="48.0923" lon="-3.56535">
        <ele>170.5</ele>
        <time>2025-02-25T08:11:40Z</time>
      </trkpt>
      <trkpt lat="48.09229" lon="-3.56535">
        <ele>170.4</ele>
        <time>2025-02-25T08:11:41Z</time>
      </trkpt>
      <trkpt lat="48.09228" lon="-3.56534">
        <ele>170.4</ele>
        <time>2025-02-25T08:11:42Z</time>
      </trkpt>
      <trkpt lat="48.09227" lon="-3.56534">
        <ele>170.3</ele>
        <time>2025-02-25T08:11:43Z</time>
      </trkpt>
      <trkpt lat="48.09226" lon="-3.56534">
        <ele>170.2</ele>
        <time>2025-02-25T08:11:44Z</time>
      </trkpt>
      <trkpt lat="48.09225" lon="-3.56534">
        <ele>170.2</ele>
        <time>2025-02-25T08:11:45Z</time>
      </trkpt>
      <trkpt lat="48.09224" lon="-3.56534">
        <ele>170.1</ele>
        <time>2025-02-25T08:11:46Z</time>
      </trkpt>
      <trkpt lat="48.09222" lon="-3.56534">
        <ele>170</ele>
        <time>2025-02-25T08:11:47Z</time>
      </trkpt>
      <trkpt lat="48.09221" lon="-3.56534">
        <ele>169.9</ele>
        <time>2025-02-25T08:11:48Z</time>
      </trkpt>
      <trkpt lat="48.0922" lon="-3.56534">
        <ele>169.8</ele>
        <time>2025-02-25T08:11:49Z</time>
      </trkpt>
      <trkpt lat="48.09219" lon="-3.56535">
        <ele>169.8</ele>
        <time>2025-02-25T08:11:50Z</time>
      </trkpt>
      <trkpt lat="48.09217" lon="-3.56535">
        <ele>169.6</ele>
        <time>2025-02-25T08:11:51Z</time>
      </trkpt>
      <trkpt lat="48.09216" lon="-3.56537">
        <ele>169.6</ele>
        <time>2025-02-25T08:11:52Z</time>
      </trkpt>
      <trkpt lat="48.09215" lon="-3.56539">
        <ele>169.5</ele>
        <time>2025-02-25T08:11:53Z</time>
      </trkpt>
      <trkpt lat="48.09214" lon="-3.5654">
        <ele>169.4</ele>
        <time>2025-02-25T08:11:54Z</time>
      </trkpt>
      <trkpt lat="48.09214" lon="-3.56543">
        <ele>169.4</ele>
        <time>2025-02-25T08:11:55Z</time>
      </trkpt>
      <trkpt lat="48.09213" lon="-3.56545">
        <ele>169.3</ele>
        <time>2025-02-25T08:11:56Z</time>
      </trkpt>
      <trkpt lat="48.09213" lon="-3.56547">
        <ele>169.3</ele>
        <time>2025-02-25T08:11:57Z</time>
      </trkpt>
      <trkpt lat="48.09213" lon="-3.56549">
        <ele>169.3</ele>
        <time>2025-02-25T08:11:58Z</time>
      </trkpt>
      <trkpt lat="48.09213" lon="-3.56551">
        <ele>169.3</ele>
        <time>2025-02-25T08:11:59Z</time>
      </trkpt>
      <trkpt lat="48.09212" lon="-3.56554">
        <ele>169.3</ele>
        <time>2025-02-25T08:12:00Z</time>
      </trkpt>
      <trkpt lat="48.09211" lon="-3.56555">
        <ele>169.2</ele>
        <time>2025-02-25T08:12:01Z</time>
      </trkpt>
      <trkpt lat="48.09211" lon="-3.56557">
        <ele>169.2</ele>
        <time>2025-02-25T08:12:02Z</time>
      </trkpt>
      <trkpt lat="48.09211" lon="-3.56559">
        <ele>169.2</ele>
        <time>2025-02-25T08:12:03Z</time>
      </trkpt>
      <trkpt lat="48.09211" lon="-3.56561">
        <ele>169.3</ele>
        <time>2025-02-25T08:12:04Z</time>
      </trkpt>
      <trkpt lat="48.0921" lon="-3.56563">
        <ele>169.2</ele>
        <time>2025-02-25T08:12:05Z</time>
      </trkpt>
      <trkpt lat="48.0921" lon="-3.56565">
        <ele>169.3</ele>
        <time>2025-02-25T08:12:06Z</time>
      </trkpt>
      <trkpt lat="48.09209" lon="-3.56567">
        <ele>169.2</ele>
        <time>2025-02-25T08:12:07Z</time>
      </trkpt>
      <trkpt lat="48.09208" lon="-3.56569">
        <ele>169.2</ele>
        <time>2025-02-25T08:12:08Z</time>
      </trkpt>
      <trkpt lat="48.09207" lon="-3.56571">
        <ele>169.2</ele>
        <time>2025-02-25T08:12:09Z</time>
      </trkpt>
      <trkpt lat="48.09206" lon="-3.56572">
        <ele>169.2</ele>
        <time>2025-02-25T08:12:10Z</time>
      </trkpt>
      <trkpt lat="48.09206" lon="-3.56574">
        <ele>169.2</ele>
        <time>2025-02-25T08:12:11Z</time>
      </trkpt>
      <trkpt lat="48.09205" lon="-3.56576">
        <ele>169.2</ele>
        <time>2025-02-25T08:12:12Z</time>
      </trkpt>
      <trkpt lat="48.09204" lon="-3.56577">
        <ele>169.2</ele>
        <time>2025-02-25T08:12:13Z</time>
      </trkpt>
      <trkpt lat="48.09203" lon="-3.5658">
        <ele>169.2</ele>
        <time>2025-02-25T08:12:14Z</time>
      </trkpt>
      <trkpt lat="48.09203" lon="-3.56582">
        <ele>169.3</ele>
        <time>2025-02-25T08:12:15Z</time>
      </trkpt>
      <trkpt lat="48.09202" lon="-3.56583">
        <ele>169.3</ele>
        <time>2025-02-25T08:12:16Z</time>
      </trkpt>
      <trkpt lat="48.09202" lon="-3.56585">
        <ele>169.3</ele>
        <time>2025-02-25T08:12:17Z</time>
      </trkpt>
      <trkpt lat="48.09201" lon="-3.56586">
        <ele>169.2</ele>
        <time>2025-02-25T08:12:18Z</time>
      </trkpt>
      <trkpt lat="48.09201" lon="-3.56588">
        <ele>169.2</ele>
        <time>2025-02-25T08:12:19Z</time>
      </trkpt>
      <trkpt lat="48.09201" lon="-3.5659">
        <ele>169.2</ele>
        <time>2025-02-25T08:12:20Z</time>
      </trkpt>
      <trkpt lat="48.09201" lon="-3.56592">
        <ele>169.2</ele>
        <time>2025-02-25T08:12:21Z</time>
      </trkpt>
      <trkpt lat="48.092" lon="-3.56594">
        <ele>169.2</ele>
        <time>2025-02-25T08:12:22Z</time>
      </trkpt>
      <trkpt lat="48.092" lon="-3.56595">
        <ele>169.2</ele>
        <time>2025-02-25T08:12:23Z</time>
      </trkpt>
      <trkpt lat="48.09199" lon="-3.56597">
        <ele>169.2</ele>
        <time>2025-02-25T08:12:24Z</time>
      </trkpt>
      <trkpt lat="48.09198" lon="-3.56599">
        <ele>169.1</ele>
        <time>2025-02-25T08:12:25Z</time>
      </trkpt>
      <trkpt lat="48.09198" lon="-3.56601">
        <ele>169.1</ele>
        <time>2025-02-25T08:12:26Z</time>
      </trkpt>
      <trkpt lat="48.09197" lon="-3.56603">
        <ele>169.1</ele>
        <time>2025-02-25T08:12:27Z</time>
      </trkpt>
      <trkpt lat="48.09197" lon="-3.56605">
        <ele>169.1</ele>
        <time>2025-02-25T08:12:28Z</time>
      </trkpt>
      <trkpt lat="48.09196" lon="-3.56607">
        <ele>169.1</ele>
        <time>2025-02-25T08:12:29Z</time>
      </trkpt>
      <trkpt lat="48.09196" lon="-3.56608">
        <ele>169.1</ele>
        <time>2025-02-25T08:12:30Z</time>
      </trkpt>
      <trkpt lat="48.09195" lon="-3.5661">
        <ele>169</ele>
        <time>2025-02-25T08:12:31Z</time>
      </trkpt>
      <trkpt lat="48.09194" lon="-3.56611">
        <ele>169</ele>
        <time>2025-02-25T08:12:32Z</time>
      </trkpt>
      <trkpt lat="48.09193" lon="-3.56612">
        <ele>169</ele>
        <time>2025-02-25T08:12:33Z</time>
      </trkpt>
      <trkpt lat="48.09192" lon="-3.56614">
        <ele>169</ele>
        <time>2025-02-25T08:12:34Z</time>
      </trkpt>
      <trkpt lat="48.09191" lon="-3.56615">
        <ele>169</ele>
        <time>2025-02-25T08:12:35Z</time>
      </trkpt>
      <trkpt lat="48.09191" lon="-3.56618">
        <ele>169.2</ele>
        <time>2025-02-25T08:12:36Z</time>
      </trkpt>
      <trkpt lat="48.0919" lon="-3.56619">
        <ele>169.2</ele>
        <time>2025-02-25T08:12:37Z</time>
      </trkpt>
      <trkpt lat="48.0919" lon="-3.56621">
        <ele>169.3</ele>
        <time>2025-02-25T08:12:38Z</time>
      </trkpt>
      <trkpt lat="48.09189" lon="-3.56622">
        <ele>169.3</ele>
        <time>2025-02-25T08:12:39Z</time>
      </trkpt>
      <trkpt lat="48.09189" lon="-3.56625">
        <ele>169.4</ele>
        <time>2025-02-25T08:12:40Z</time>
      </trkpt>
      <trkpt lat="48.09188" lon="-3.56627">
        <ele>169.5</ele>
        <time>2025-02-25T08:12:41Z</time>
      </trkpt>
      <trkpt lat="48.09188" lon="-3.56628">
        <ele>169.5</ele>
        <time>2025-02-25T08:12:42Z</time>
      </trkpt>
      <trkpt lat="48.09188" lon="-3.56629">
        <ele>169.6</ele>
        <time>2025-02-25T08:12:43Z</time>
      </trkpt>
      <trkpt lat="48.09187" lon="-3.5663">
        <ele>169.6</ele>
        <time>2025-02-25T08:12:44Z</time>
      </trkpt>
      <trkpt lat="48.09187" lon="-3.56632">
        <ele>169.7</ele>
        <time>2025-02-25T08:12:45Z</time>
      </trkpt>
      <trkpt lat="48.09187" lon="-3.56634">
        <ele>169.8</ele>
        <time>2025-02-25T08:12:46Z</time>
      </trkpt>
      <trkpt lat="48.09187" lon="-3.56636">
        <ele>169.9</ele>
        <time>2025-02-25T08:12:47Z</time>
      </trkpt>
      <trkpt lat="48.09187" lon="-3.56638">
        <ele>170</ele>
        <time>2025-02-25T08:12:48Z</time>
      </trkpt>
      <trkpt lat="48.09187" lon="-3.5664">
        <ele>170</ele>
        <time>2025-02-25T08:12:49Z</time>
      </trkpt>
      <trkpt lat="48.09187" lon="-3.56642">
        <ele>170</ele>
        <time>2025-02-25T08:12:50Z</time>
      </trkpt>
      <trkpt lat="48.09187" lon="-3.56644">
        <ele>170</ele>
        <time>2025-02-25T08:12:51Z</time>
      </trkpt>
      <trkpt lat="48.09186" lon="-3.56645">
        <ele>170.1</ele>
        <time>2025-02-25T08:12:52Z</time>
      </trkpt>
      <trkpt lat="48.09186" lon="-3.56647">
        <ele>170.1</ele>
        <time>2025-02-25T08:12:53Z</time>
      </trkpt>
      <trkpt lat="48.09186" lon="-3.56649">
        <ele>170.1</ele>
        <time>2025-02-25T08:12:54Z</time>
      </trkpt>
      <trkpt lat="48.09186" lon="-3.56651">
        <ele>170.1</ele>
        <time>2025-02-25T08:12:55Z</time>
      </trkpt>
      <trkpt lat="48.09185" lon="-3.56653">
        <ele>170.2</ele>
        <time>2025-02-25T08:12:56Z</time>
      </trkpt>
      <trkpt lat="48.09185" lon="-3.56655">
        <ele>170.2</ele>
        <time>2025-02-25T08:12:57Z</time>
      </trkpt>
      <trkpt lat="48.09184" lon="-3.56656">
        <ele>170.2</ele>
        <time>2025-02-25T08:12:58Z</time>
      </trkpt>
      <trkpt lat="48.09184" lon="-3.56658">
        <ele>170.3</ele>
        <time>2025-02-25T08:12:59Z</time>
      </trkpt>
      <trkpt lat="48.09183" lon="-3.5666">
        <ele>170.3</ele>
        <time>2025-02-25T08:13:00Z</time>
      </trkpt>
      <trkpt lat="48.09183" lon="-3.56662">
        <ele>170.3</ele>
        <time>2025-02-25T08:13:01Z</time>
      </trkpt>
      <trkpt lat="48.09183" lon="-3.56663">
        <ele>170.4</ele>
        <time>2025-02-25T08:13:02Z</time>
      </trkpt>
      <trkpt lat="48.09183" lon="-3.56665">
        <ele>170.4</ele>
        <time>2025-02-25T08:13:03Z</time>
      </trkpt>
      <trkpt lat="48.09182" lon="-3.56667">
        <ele>170.4</ele>
        <time>2025-02-25T08:13:04Z</time>
      </trkpt>
      <trkpt lat="48.09182" lon="-3.56668">
        <ele>170.4</ele>
        <time>2025-02-25T08:13:05Z</time>
      </trkpt>
      <trkpt lat="48.09182" lon="-3.5667">
        <ele>170.4</ele>
        <time>2025-02-25T08:13:06Z</time>
      </trkpt>
      <trkpt lat="48.09182" lon="-3.56672">
        <ele>170.4</ele>
        <time>2025-02-25T08:13:07Z</time>
      </trkpt>
      <trkpt lat="48.09181" lon="-3.56674">
        <ele>170.5</ele>
        <time>2025-02-25T08:13:08Z</time>
      </trkpt>
      <trkpt lat="48.0918" lon="-3.56676">
        <ele>170.5</ele>
        <time>2025-02-25T08:13:09Z</time>
      </trkpt>
      <trkpt lat="48.09179" lon="-3.56678">
        <ele>170.6</ele>
        <time>2025-02-25T08:13:10Z</time>
      </trkpt>
      <trkpt lat="48.09179" lon="-3.56679">
        <ele>170.6</ele>
        <time>2025-02-25T08:13:11Z</time>
      </trkpt>
      <trkpt lat="48.09178" lon="-3.56681">
        <ele>170.6</ele>
        <time>2025-02-25T08:13:12Z</time>
      </trkpt>
      <trkpt lat="48.09178" lon="-3.56682">
        <ele>170.6</ele>
        <time>2025-02-25T08:13:13Z</time>
      </trkpt>
      <trkpt lat="48.09177" lon="-3.56684">
        <ele>170.6</ele>
        <time>2025-02-25T08:13:14Z</time>
      </trkpt>
      <trkpt lat="48.09177" lon="-3.56685">
        <ele>170.6</ele>
        <time>2025-02-25T08:13:15Z</time>
      </trkpt>
      <trkpt lat="48.09176" lon="-3.56686">
        <ele>170.7</ele>
        <time>2025-02-25T08:13:16Z</time>
      </trkpt>
      <trkpt lat="48.09175" lon="-3.56688">
        <ele>170.7</ele>
        <time>2025-02-25T08:13:17Z</time>
      </trkpt>
      <trkpt lat="48.09175" lon="-3.56689">
        <ele>170.7</ele>
        <time>2025-02-25T08:13:18Z</time>
      </trkpt>
      <trkpt lat="48.09174" lon="-3.56691">
        <ele>170.7</ele>
        <time>2025-02-25T08:13:19Z</time>
      </trkpt>
      <trkpt lat="48.09173" lon="-3.56692">
        <ele>170.8</ele>
        <time>2025-02-25T08:13:20Z</time>
      </trkpt>
      <trkpt lat="48.09172" lon="-3.56694">
        <ele>170.8</ele>
        <time>2025-02-25T08:13:21Z</time>
      </trkpt>
      <trkpt lat="48.09172" lon="-3.56695">
        <ele>170.8</ele>
        <time>2025-02-25T08:13:22Z</time>
      </trkpt>
      <trkpt lat="48.09172" lon="-3.56697">
        <ele>170.7</ele>
        <time>2025-02-25T08:13:23Z</time>
      </trkpt>
      <trkpt lat="48.09172" lon="-3.56698">
        <ele>170.7</ele>
        <time>2025-02-25T08:13:24Z</time>
      </trkpt>
      <trkpt lat="48.09171" lon="-3.567">
        <ele>170.6</ele>
        <time>2025-02-25T08:13:25Z</time>
      </trkpt>
      <trkpt lat="48.09171" lon="-3.56702">
        <ele>170.5</ele>
        <time>2025-02-25T08:13:26Z</time>
      </trkpt>
      <trkpt lat="48.09171" lon="-3.56703">
        <ele>170.5</ele>
        <time>2025-02-25T08:13:27Z</time>
      </trkpt>
      <trkpt lat="48.0917" lon="-3.56705">
        <ele>170.5</ele>
        <time>2025-02-25T08:13:28Z</time>
      </trkpt>
      <trkpt lat="48.09169" lon="-3.56706">
        <ele>170.5</ele>
        <time>2025-02-25T08:13:29Z</time>
      </trkpt>
      <trkpt lat="48.09169" lon="-3.56708">
        <ele>170.4</ele>
        <time>2025-02-25T08:13:30Z</time>
      </trkpt>
      <trkpt lat="48.09169" lon="-3.5671">
        <ele>170.3</ele>
        <time>2025-02-25T08:13:31Z</time>
      </trkpt>
      <trkpt lat="48.09168" lon="-3.56711">
        <ele>170.3</ele>
        <time>2025-02-25T08:13:32Z</time>
      </trkpt>
      <trkpt lat="48.09168" lon="-3.56713">
        <ele>170.3</ele>
        <time>2025-02-25T08:13:33Z</time>
      </trkpt>
      <trkpt lat="48.09168" lon="-3.56714">
        <ele>170.2</ele>
        <time>2025-02-25T08:13:34Z</time>
      </trkpt>
      <trkpt lat="48.09167" lon="-3.56716">
        <ele>170.2</ele>
        <time>2025-02-25T08:13:35Z</time>
      </trkpt>
      <trkpt lat="48.09167" lon="-3.56717">
        <ele>170.2</ele>
        <time>2025-02-25T08:13:36Z</time>
      </trkpt>
      <trkpt lat="48.09167" lon="-3.5672">
        <ele>170.1</ele>
        <time>2025-02-25T08:13:37Z</time>
      </trkpt>
      <trkpt lat="48.09167" lon="-3.56721">
        <ele>170</ele>
        <time>2025-02-25T08:13:38Z</time>
      </trkpt>
      <trkpt lat="48.09166" lon="-3.56723">
        <ele>170</ele>
        <time>2025-02-25T08:13:39Z</time>
      </trkpt>
      <trkpt lat="48.09166" lon="-3.56725">
        <ele>169.9</ele>
        <time>2025-02-25T08:13:40Z</time>
      </trkpt>
      <trkpt lat="48.09165" lon="-3.56726">
        <ele>169.9</ele>
        <time>2025-02-25T08:13:41Z</time>
      </trkpt>
      <trkpt lat="48.09164" lon="-3.56727">
        <ele>169.8</ele>
        <time>2025-02-25T08:13:42Z</time>
      </trkpt>
      <trkpt lat="48.09164" lon="-3.56729">
        <ele>169.8</ele>
        <time>2025-02-25T08:13:43Z</time>
      </trkpt>
      <trkpt lat="48.09163" lon="-3.56731">
        <ele>169.7</ele>
        <time>2025-02-25T08:13:44Z</time>
      </trkpt>
      <trkpt lat="48.09162" lon="-3.56732">
        <ele>169.7</ele>
        <time>2025-02-25T08:13:45Z</time>
      </trkpt>
      <trkpt lat="48.09162" lon="-3.56734">
        <ele>169.6</ele>
        <time>2025-02-25T08:13:46Z</time>
      </trkpt>
      <trkpt lat="48.09162" lon="-3.56736">
        <ele>169.6</ele>
        <time>2025-02-25T08:13:47Z</time>
      </trkpt>
      <trkpt lat="48.09161" lon="-3.56738">
        <ele>169.5</ele>
        <time>2025-02-25T08:13:48Z</time>
      </trkpt>
      <trkpt lat="48.0916" lon="-3.56739">
        <ele>169.5</ele>
        <time>2025-02-25T08:13:49Z</time>
      </trkpt>
      <trkpt lat="48.0916" lon="-3.56741">
        <ele>169.5</ele>
        <time>2025-02-25T08:13:50Z</time>
      </trkpt>
      <trkpt lat="48.0916" lon="-3.56742">
        <ele>169.5</ele>
        <time>2025-02-25T08:13:51Z</time>
      </trkpt>
      <trkpt lat="48.09159" lon="-3.56743">
        <ele>169.5</ele>
        <time>2025-02-25T08:13:52Z</time>
      </trkpt>
      <trkpt lat="48.09159" lon="-3.56745">
        <ele>169.4</ele>
        <time>2025-02-25T08:13:53Z</time>
      </trkpt>
      <trkpt lat="48.09158" lon="-3.56747">
        <ele>169.4</ele>
        <time>2025-02-25T08:13:54Z</time>
      </trkpt>
      <trkpt lat="48.09157" lon="-3.56748">
        <ele>169.4</ele>
        <time>2025-02-25T08:13:55Z</time>
      </trkpt>
      <trkpt lat="48.09156" lon="-3.56749">
        <ele>169.4</ele>
        <time>2025-02-25T08:13:56Z</time>
      </trkpt>
      <trkpt lat="48.09155" lon="-3.5675">
        <ele>169.4</ele>
        <time>2025-02-25T08:13:57Z</time>
      </trkpt>
      <trkpt lat="48.09155" lon="-3.56752">
        <ele>169.3</ele>
        <time>2025-02-25T08:13:58Z</time>
      </trkpt>
      <trkpt lat="48.09154" lon="-3.56753">
        <ele>169.3</ele>
        <time>2025-02-25T08:13:59Z</time>
      </trkpt>
      <trkpt lat="48.09154" lon="-3.56755">
        <ele>169.3</ele>
        <time>2025-02-25T08:14:00Z</time>
      </trkpt>
      <trkpt lat="48.09154" lon="-3.56756">
        <ele>169.2</ele>
        <time>2025-02-25T08:14:01Z</time>
      </trkpt>
      <trkpt lat="48.09153" lon="-3.56758">
        <ele>169.2</ele>
        <time>2025-02-25T08:14:02Z</time>
      </trkpt>
      <trkpt lat="48.09152" lon="-3.56759">
        <ele>169.2</ele>
        <time>2025-02-25T08:14:03Z</time>
      </trkpt>
      <trkpt lat="48.09151" lon="-3.56761">
        <ele>169.2</ele>
        <time>2025-02-25T08:14:04Z</time>
      </trkpt>
      <trkpt lat="48.09151" lon="-3.56763">
        <ele>169.1</ele>
        <time>2025-02-25T08:14:05Z</time>
      </trkpt>
      <trkpt lat="48.0915" lon="-3.56765">
        <ele>169.1</ele>
        <time>2025-02-25T08:14:06Z</time>
      </trkpt>
      <trkpt lat="48.0915" lon="-3.56767">
        <ele>169</ele>
        <time>2025-02-25T08:14:07Z</time>
      </trkpt>
      <trkpt lat="48.0915" lon="-3.56768">
        <ele>169</ele>
        <time>2025-02-25T08:14:08Z</time>
      </trkpt>
      <trkpt lat="48.0915" lon="-3.5677">
        <ele>168.9</ele>
        <time>2025-02-25T08:14:09Z</time>
      </trkpt>
      <trkpt lat="48.0915" lon="-3.56772">
        <ele>168.8</ele>
        <time>2025-02-25T08:14:10Z</time>
      </trkpt>
      <trkpt lat="48.09149" lon="-3.56774">
        <ele>168.8</ele>
        <time>2025-02-25T08:14:11Z</time>
      </trkpt>
      <trkpt lat="48.09148" lon="-3.56776">
        <ele>168.7</ele>
        <time>2025-02-25T08:14:12Z</time>
      </trkpt>
      <trkpt lat="48.09148" lon="-3.56778">
        <ele>168.7</ele>
        <time>2025-02-25T08:14:13Z</time>
      </trkpt>
      <trkpt lat="48.09148" lon="-3.56778">
        <ele>168.7</ele>
        <time>2025-02-25T08:14:14Z</time>
      </trkpt>
      <trkpt lat="48.09147" lon="-3.56779">
        <ele>168.7</ele>
        <time>2025-02-25T08:14:15Z</time>
      </trkpt>
      <trkpt lat="48.09146" lon="-3.56781">
        <ele>168.6</ele>
        <time>2025-02-25T08:14:16Z</time>
      </trkpt>
      <trkpt lat="48.09146" lon="-3.5678">
        <ele>168.7</ele>
        <time>2025-02-25T08:14:17Z</time>
      </trkpt>
      <trkpt lat="48.09146" lon="-3.56781">
        <ele>168.6</ele>
        <time>2025-02-25T08:14:18Z</time>
      </trkpt>
      <trkpt lat="48.09145" lon="-3.56782">
        <ele>168.6</ele>
        <time>2025-02-25T08:14:19Z</time>
      </trkpt>
      <trkpt lat="48.09146" lon="-3.56782">
        <ele>168.6</ele>
        <time>2025-02-25T08:14:20Z</time>
      </trkpt>
      <trkpt lat="48.09145" lon="-3.56784">
        <ele>168.6</ele>
        <time>2025-02-25T08:14:21Z</time>
      </trkpt>
      <trkpt lat="48.09144" lon="-3.56787">
        <ele>168.5</ele>
        <time>2025-02-25T08:14:22Z</time>
      </trkpt>
      <trkpt lat="48.09143" lon="-3.56789">
        <ele>168.4</ele>
        <time>2025-02-25T08:14:23Z</time>
      </trkpt>
      <trkpt lat="48.09142" lon="-3.5679">
        <ele>168.4</ele>
        <time>2025-02-25T08:14:24Z</time>
      </trkpt>
      <trkpt lat="48.09142" lon="-3.56792">
        <ele>168.4</ele>
        <time>2025-02-25T08:14:25Z</time>
      </trkpt>
      <trkpt lat="48.09141" lon="-3.56793">
        <ele>168.4</ele>
        <time>2025-02-25T08:14:26Z</time>
      </trkpt>
      <trkpt lat="48.0914" lon="-3.56795">
        <ele>168.3</ele>
        <time>2025-02-25T08:14:27Z</time>
      </trkpt>
      <trkpt lat="48.0914" lon="-3.56797">
        <ele>168.3</ele>
        <time>2025-02-25T08:14:28Z</time>
      </trkpt>
      <trkpt lat="48.09139" lon="-3.56798">
        <ele>168.3</ele>
        <time>2025-02-25T08:14:29Z</time>
      </trkpt>
      <trkpt lat="48.09138" lon="-3.568">
        <ele>168.2</ele>
        <time>2025-02-25T08:14:30Z</time>
      </trkpt>
      <trkpt lat="48.09138" lon="-3.56801">
        <ele>168.2</ele>
        <time>2025-02-25T08:14:31Z</time>
      </trkpt>
      <trkpt lat="48.09137" lon="-3.56803">
        <ele>168.1</ele>
        <time>2025-02-25T08:14:32Z</time>
      </trkpt>
      <trkpt lat="48.09136" lon="-3.56804">
        <ele>168.1</ele>
        <time>2025-02-25T08:14:33Z</time>
      </trkpt>
      <trkpt lat="48.09135" lon="-3.56806">
        <ele>168</ele>
        <time>2025-02-25T08:14:34Z</time>
      </trkpt>
      <trkpt lat="48.09134" lon="-3.56807">
        <ele>168</ele>
        <time>2025-02-25T08:14:35Z</time>
      </trkpt>
      <trkpt lat="48.09134" lon="-3.56809">
        <ele>168</ele>
        <time>2025-02-25T08:14:36Z</time>
      </trkpt>
      <trkpt lat="48.09133" lon="-3.56812">
        <ele>168</ele>
        <time>2025-02-25T08:14:37Z</time>
      </trkpt>
      <trkpt lat="48.09133" lon="-3.56814">
        <ele>168</ele>
        <time>2025-02-25T08:14:38Z</time>
      </trkpt>
      <trkpt lat="48.09131" lon="-3.56815">
        <ele>168</ele>
        <time>2025-02-25T08:14:39Z</time>
      </trkpt>
      <trkpt lat="48.09131" lon="-3.56816">
        <ele>168</ele>
        <time>2025-02-25T08:14:40Z</time>
      </trkpt>
      <trkpt lat="48.0913" lon="-3.56819">
        <ele>168</ele>
        <time>2025-02-25T08:14:41Z</time>
      </trkpt>
      <trkpt lat="48.0913" lon="-3.5682">
        <ele>168</ele>
        <time>2025-02-25T08:14:42Z</time>
      </trkpt>
      <trkpt lat="48.0913" lon="-3.56822">
        <ele>168</ele>
        <time>2025-02-25T08:14:43Z</time>
      </trkpt>
      <trkpt lat="48.09129" lon="-3.56824">
        <ele>168</ele>
        <time>2025-02-25T08:14:44Z</time>
      </trkpt>
      <trkpt lat="48.09128" lon="-3.56825">
        <ele>168</ele>
        <time>2025-02-25T08:14:45Z</time>
      </trkpt>
      <trkpt lat="48.09127" lon="-3.56827">
        <ele>168</ele>
        <time>2025-02-25T08:14:46Z</time>
      </trkpt>
      <trkpt lat="48.09127" lon="-3.56828">
        <ele>168</ele>
        <time>2025-02-25T08:14:47Z</time>
      </trkpt>
      <trkpt lat="48.09126" lon="-3.5683">
        <ele>168</ele>
        <time>2025-02-25T08:14:48Z</time>
      </trkpt>
      <trkpt lat="48.09125" lon="-3.56831">
        <ele>168</ele>
        <time>2025-02-25T08:14:49Z</time>
      </trkpt>
      <trkpt lat="48.09124" lon="-3.56832">
        <ele>168</ele>
        <time>2025-02-25T08:14:50Z</time>
      </trkpt>
      <trkpt lat="48.09123" lon="-3.56834">
        <ele>168</ele>
        <time>2025-02-25T08:14:51Z</time>
      </trkpt>
      <trkpt lat="48.09123" lon="-3.56836">
        <ele>167.9</ele>
        <time>2025-02-25T08:14:52Z</time>
      </trkpt>
      <trkpt lat="48.09122" lon="-3.56837">
        <ele>167.9</ele>
        <time>2025-02-25T08:14:53Z</time>
      </trkpt>
      <trkpt lat="48.09121" lon="-3.56838">
        <ele>167.8</ele>
        <time>2025-02-25T08:14:54Z</time>
      </trkpt>
      <trkpt lat="48.0912" lon="-3.5684">
        <ele>167.8</ele>
        <time>2025-02-25T08:14:55Z</time>
      </trkpt>
      <trkpt lat="48.09119" lon="-3.56841">
        <ele>167.7</ele>
        <time>2025-02-25T08:14:56Z</time>
      </trkpt>
      <trkpt lat="48.09119" lon="-3.56843">
        <ele>167.7</ele>
        <time>2025-02-25T08:14:57Z</time>
      </trkpt>
      <trkpt lat="48.09118" lon="-3.56844">
        <ele>167.6</ele>
        <time>2025-02-25T08:14:58Z</time>
      </trkpt>
      <trkpt lat="48.09118" lon="-3.56846">
        <ele>167.5</ele>
        <time>2025-02-25T08:14:59Z</time>
      </trkpt>
      <trkpt lat="48.09118" lon="-3.56848">
        <ele>167.5</ele>
        <time>2025-02-25T08:15:00Z</time>
      </trkpt>
      <trkpt lat="48.09117" lon="-3.5685">
        <ele>167.4</ele>
        <time>2025-02-25T08:15:01Z</time>
      </trkpt>
      <trkpt lat="48.09116" lon="-3.56852">
        <ele>167.3</ele>
        <time>2025-02-25T08:15:02Z</time>
      </trkpt>
      <trkpt lat="48.09115" lon="-3.56854">
        <ele>167.3</ele>
        <time>2025-02-25T08:15:03Z</time>
      </trkpt>
      <trkpt lat="48.09115" lon="-3.56856">
        <ele>167.2</ele>
        <time>2025-02-25T08:15:04Z</time>
      </trkpt>
      <trkpt lat="48.09114" lon="-3.56858">
        <ele>167.1</ele>
        <time>2025-02-25T08:15:05Z</time>
      </trkpt>
      <trkpt lat="48.09113" lon="-3.56859">
        <ele>167.1</ele>
        <time>2025-02-25T08:15:06Z</time>
      </trkpt>
      <trkpt lat="48.09112" lon="-3.5686">
        <ele>167</ele>
        <time>2025-02-25T08:15:07Z</time>
      </trkpt>
      <trkpt lat="48.09111" lon="-3.56862">
        <ele>167</ele>
        <time>2025-02-25T08:15:08Z</time>
      </trkpt>
      <trkpt lat="48.09111" lon="-3.56864">
        <ele>167</ele>
        <time>2025-02-25T08:15:09Z</time>
      </trkpt>
      <trkpt lat="48.0911" lon="-3.56866">
        <ele>167</ele>
        <time>2025-02-25T08:15:10Z</time>
      </trkpt>
      <trkpt lat="48.09109" lon="-3.56867">
        <ele>166.9</ele>
        <time>2025-02-25T08:15:11Z</time>
      </trkpt>
      <trkpt lat="48.09108" lon="-3.56869">
        <ele>166.9</ele>
        <time>2025-02-25T08:15:12Z</time>
      </trkpt>
      <trkpt lat="48.09108" lon="-3.56871">
        <ele>166.9</ele>
        <time>2025-02-25T08:15:13Z</time>
      </trkpt>
      <trkpt lat="48.09107" lon="-3.56873">
        <ele>166.9</ele>
        <time>2025-02-25T08:15:14Z</time>
      </trkpt>
      <trkpt lat="48.09106" lon="-3.56874">
        <ele>166.8</ele>
        <time>2025-02-25T08:15:15Z</time>
      </trkpt>
      <trkpt lat="48.09106" lon="-3.56877">
        <ele>166.8</ele>
        <time>2025-02-25T08:15:16Z</time>
      </trkpt>
      <trkpt lat="48.09105" lon="-3.56878">
        <ele>166.8</ele>
        <time>2025-02-25T08:15:17Z</time>
      </trkpt>
      <trkpt lat="48.09105" lon="-3.5688">
        <ele>166.8</ele>
        <time>2025-02-25T08:15:18Z</time>
      </trkpt>
      <trkpt lat="48.09103" lon="-3.56881">
        <ele>166.7</ele>
        <time>2025-02-25T08:15:19Z</time>
      </trkpt>
      <trkpt lat="48.09103" lon="-3.56883">
        <ele>166.7</ele>
        <time>2025-02-25T08:15:20Z</time>
      </trkpt>
      <trkpt lat="48.09103" lon="-3.56885">
        <ele>166.7</ele>
        <time>2025-02-25T08:15:21Z</time>
      </trkpt>
      <trkpt lat="48.09103" lon="-3.56887">
        <ele>166.7</ele>
        <time>2025-02-25T08:15:22Z</time>
      </trkpt>
      <trkpt lat="48.09103" lon="-3.56889">
        <ele>166.7</ele>
        <time>2025-02-25T08:15:23Z</time>
      </trkpt>
      <trkpt lat="48.09102" lon="-3.56891">
        <ele>166.7</ele>
        <time>2025-02-25T08:15:24Z</time>
      </trkpt>
      <trkpt lat="48.09101" lon="-3.56892">
        <ele>166.6</ele>
        <time>2025-02-25T08:15:25Z</time>
      </trkpt>
      <trkpt lat="48.09101" lon="-3.56894">
        <ele>166.6</ele>
        <time>2025-02-25T08:15:26Z</time>
      </trkpt>
      <trkpt lat="48.091" lon="-3.56895">
        <ele>166.6</ele>
        <time>2025-02-25T08:15:27Z</time>
      </trkpt>
      <trkpt lat="48.09099" lon="-3.56896">
        <ele>166.6</ele>
        <time>2025-02-25T08:15:28Z</time>
      </trkpt>
      <trkpt lat="48.09098" lon="-3.56897">
        <ele>166.5</ele>
        <time>2025-02-25T08:15:29Z</time>
      </trkpt>
      <trkpt lat="48.09098" lon="-3.56899">
        <ele>166.5</ele>
        <time>2025-02-25T08:15:30Z</time>
      </trkpt>
      <trkpt lat="48.09096" lon="-3.569">
        <ele>166.5</ele>
        <time>2025-02-25T08:15:31Z</time>
      </trkpt>
      <trkpt lat="48.09095" lon="-3.56901">
        <ele>166.4</ele>
        <time>2025-02-25T08:15:32Z</time>
      </trkpt>
      <trkpt lat="48.09095" lon="-3.56903">
        <ele>166.4</ele>
        <time>2025-02-25T08:15:33Z</time>
      </trkpt>
      <trkpt lat="48.09094" lon="-3.56905">
        <ele>166.4</ele>
        <time>2025-02-25T08:15:34Z</time>
      </trkpt>
      <trkpt lat="48.09094" lon="-3.56907">
        <ele>166.4</ele>
        <time>2025-02-25T08:15:35Z</time>
      </trkpt>
      <trkpt lat="48.09094" lon="-3.56908">
        <ele>166.4</ele>
        <time>2025-02-25T08:15:36Z</time>
      </trkpt>
      <trkpt lat="48.09093" lon="-3.5691">
        <ele>166.3</ele>
        <time>2025-02-25T08:15:37Z</time>
      </trkpt>
      <trkpt lat="48.09092" lon="-3.56912">
        <ele>166.3</ele>
        <time>2025-02-25T08:15:38Z</time>
      </trkpt>
      <trkpt lat="48.09091" lon="-3.56914">
        <ele>166.3</ele>
        <time>2025-02-25T08:15:39Z</time>
      </trkpt>
      <trkpt lat="48.0909" lon="-3.56915">
        <ele>166.2</ele>
        <time>2025-02-25T08:15:40Z</time>
      </trkpt>
      <trkpt lat="48.0909" lon="-3.56917">
        <ele>166.2</ele>
        <time>2025-02-25T08:15:41Z</time>
      </trkpt>
      <trkpt lat="48.09089" lon="-3.56919">
        <ele>166.2</ele>
        <time>2025-02-25T08:15:42Z</time>
      </trkpt>
      <trkpt lat="48.09088" lon="-3.5692">
        <ele>166.2</ele>
        <time>2025-02-25T08:15:43Z</time>
      </trkpt>
      <trkpt lat="48.09087" lon="-3.56922">
        <ele>166.1</ele>
        <time>2025-02-25T08:15:44Z</time>
      </trkpt>
      <trkpt lat="48.09086" lon="-3.56923">
        <ele>166.1</ele>
        <time>2025-02-25T08:15:45Z</time>
      </trkpt>
      <trkpt lat="48.09085" lon="-3.56925">
        <ele>166.1</ele>
        <time>2025-02-25T08:15:46Z</time>
      </trkpt>
      <trkpt lat="48.09084" lon="-3.56926">
        <ele>166</ele>
        <time>2025-02-25T08:15:47Z</time>
      </trkpt>
      <trkpt lat="48.09084" lon="-3.56927">
        <ele>166</ele>
        <time>2025-02-25T08:15:48Z</time>
      </trkpt>
      <trkpt lat="48.09083" lon="-3.56929">
        <ele>166</ele>
        <time>2025-02-25T08:15:49Z</time>
      </trkpt>
      <trkpt lat="48.09082" lon="-3.56931">
        <ele>166</ele>
        <time>2025-02-25T08:15:50Z</time>
      </trkpt>
      <trkpt lat="48.09082" lon="-3.56932">
        <ele>166</ele>
        <time>2025-02-25T08:15:51Z</time>
      </trkpt>
      <trkpt lat="48.09081" lon="-3.56933">
        <ele>165.9</ele>
        <time>2025-02-25T08:15:52Z</time>
      </trkpt>
      <trkpt lat="48.0908" lon="-3.56935">
        <ele>165.9</ele>
        <time>2025-02-25T08:15:53Z</time>
      </trkpt>
      <trkpt lat="48.0908" lon="-3.56936">
        <ele>165.9</ele>
        <time>2025-02-25T08:15:54Z</time>
      </trkpt>
      <trkpt lat="48.09079" lon="-3.56938">
        <ele>165.8</ele>
        <time>2025-02-25T08:15:55Z</time>
      </trkpt>
      <trkpt lat="48.09078" lon="-3.56939">
        <ele>165.8</ele>
        <time>2025-02-25T08:15:56Z</time>
      </trkpt>
      <trkpt lat="48.09078" lon="-3.5694">
        <ele>165.8</ele>
        <time>2025-02-25T08:15:57Z</time>
      </trkpt>
      <trkpt lat="48.09077" lon="-3.56942">
        <ele>165.8</ele>
        <time>2025-02-25T08:15:58Z</time>
      </trkpt>
      <trkpt lat="48.09076" lon="-3.56943">
        <ele>165.7</ele>
        <time>2025-02-25T08:15:59Z</time>
      </trkpt>
      <trkpt lat="48.09074" lon="-3.56944">
        <ele>165.7</ele>
        <time>2025-02-25T08:16:00Z</time>
      </trkpt>
      <trkpt lat="48.09073" lon="-3.56945">
        <ele>165.6</ele>
        <time>2025-02-25T08:16:01Z</time>
      </trkpt>
      <trkpt lat="48.09072" lon="-3.56946">
        <ele>165.6</ele>
        <time>2025-02-25T08:16:02Z</time>
      </trkpt>
      <trkpt lat="48.09072" lon="-3.56948">
        <ele>165.6</ele>
        <time>2025-02-25T08:16:03Z</time>
      </trkpt>
      <trkpt lat="48.09071" lon="-3.56949">
        <ele>165.6</ele>
        <time>2025-02-25T08:16:04Z</time>
      </trkpt>
      <trkpt lat="48.0907" lon="-3.56951">
        <ele>165.5</ele>
        <time>2025-02-25T08:16:05Z</time>
      </trkpt>
      <trkpt lat="48.09069" lon="-3.56952">
        <ele>165.5</ele>
        <time>2025-02-25T08:16:06Z</time>
      </trkpt>
      <trkpt lat="48.09068" lon="-3.56953">
        <ele>165.4</ele>
        <time>2025-02-25T08:16:07Z</time>
      </trkpt>
      <trkpt lat="48.09067" lon="-3.56954">
        <ele>165.4</ele>
        <time>2025-02-25T08:16:08Z</time>
      </trkpt>
      <trkpt lat="48.09066" lon="-3.56955">
        <ele>165.4</ele>
        <time>2025-02-25T08:16:09Z</time>
      </trkpt>
      <trkpt lat="48.09065" lon="-3.56957">
        <ele>165.3</ele>
        <time>2025-02-25T08:16:10Z</time>
      </trkpt>
      <trkpt lat="48.09065" lon="-3.56958">
        <ele>165.3</ele>
        <time>2025-02-25T08:16:11Z</time>
      </trkpt>
      <trkpt lat="48.09064" lon="-3.56958">
        <ele>165.3</ele>
        <time>2025-02-25T08:16:12Z</time>
      </trkpt>
      <trkpt lat="48.09063" lon="-3.56959">
        <ele>165.3</ele>
        <time>2025-02-25T08:16:13Z</time>
      </trkpt>
      <trkpt lat="48.09063" lon="-3.56958">
        <ele>165.3</ele>
        <time>2025-02-25T08:16:14Z</time>
      </trkpt>
      <trkpt lat="48.09062" lon="-3.56958">
        <ele>165.2</ele>
        <time>2025-02-25T08:16:15Z</time>
      </trkpt>
      <trkpt lat="48.09062" lon="-3.56958">
        <ele>165.2</ele>
        <time>2025-02-25T08:16:16Z</time>
      </trkpt>
      <trkpt lat="48.09061" lon="-3.56959">
        <ele>165.2</ele>
        <time>2025-02-25T08:16:17Z</time>
      </trkpt>
      <trkpt lat="48.09061" lon="-3.56961">
        <ele>165.2</ele>
        <time>2025-02-25T08:16:18Z</time>
      </trkpt>
      <trkpt lat="48.09061" lon="-3.56961">
        <ele>165.2</ele>
        <time>2025-02-25T08:16:19Z</time>
      </trkpt>
      <trkpt lat="48.09062" lon="-3.56961">
        <ele>165.2</ele>
        <time>2025-02-25T08:16:20Z</time>
      </trkpt>
      <trkpt lat="48.09062" lon="-3.56961">
        <ele>165.2</ele>
        <time>2025-02-25T08:16:21Z</time>
      </trkpt>
      <trkpt lat="48.09062" lon="-3.56961">
        <ele>165.2</ele>
        <time>2025-02-25T08:16:22Z</time>
      </trkpt>
      <trkpt lat="48.09062" lon="-3.56961">
        <ele>165.2</ele>
        <time>2025-02-25T08:16:23Z</time>
      </trkpt>
      <trkpt lat="48.09062" lon="-3.56963">
        <ele>165.2</ele>
        <time>2025-02-25T08:16:24Z</time>
      </trkpt>
      <trkpt lat="48.09062" lon="-3.56964">
        <ele>165.2</ele>
        <time>2025-02-25T08:16:25Z</time>
      </trkpt>
      <trkpt lat="48.09061" lon="-3.56965">
        <ele>165.2</ele>
        <time>2025-02-25T08:16:26Z</time>
      </trkpt>
      <trkpt lat="48.0906" lon="-3.56967">
        <ele>165.2</ele>
        <time>2025-02-25T08:16:27Z</time>
      </trkpt>
      <trkpt lat="48.09059" lon="-3.56969">
        <ele>165.1</ele>
        <time>2025-02-25T08:16:28Z</time>
      </trkpt>
      <trkpt lat="48.09058" lon="-3.5697">
        <ele>165.1</ele>
        <time>2025-02-25T08:16:29Z</time>
      </trkpt>
      <trkpt lat="48.09057" lon="-3.56972">
        <ele>165.1</ele>
        <time>2025-02-25T08:16:30Z</time>
      </trkpt>
      <trkpt lat="48.09057" lon="-3.56973">
        <ele>165.1</ele>
        <time>2025-02-25T08:16:31Z</time>
      </trkpt>
      <trkpt lat="48.09057" lon="-3.56975">
        <ele>165.1</ele>
        <time>2025-02-25T08:16:32Z</time>
      </trkpt>
      <trkpt lat="48.09057" lon="-3.56976">
        <ele>165.2</ele>
        <time>2025-02-25T08:16:33Z</time>
      </trkpt>
      <trkpt lat="48.09056" lon="-3.56977">
        <ele>165.2</ele>
        <time>2025-02-25T08:16:34Z</time>
      </trkpt>
      <trkpt lat="48.09056" lon="-3.56978">
        <ele>165.2</ele>
        <time>2025-02-25T08:16:35Z</time>
      </trkpt>
      <trkpt lat="48.09056" lon="-3.56978">
        <ele>165.2</ele>
        <time>2025-02-25T08:16:36Z</time>
      </trkpt>
      <trkpt lat="48.09055" lon="-3.56979">
        <ele>165.2</ele>
        <time>2025-02-25T08:16:37Z</time>
      </trkpt>
      <trkpt lat="48.09055" lon="-3.5698">
        <ele>165.3</ele>
        <time>2025-02-25T08:16:38Z</time>
      </trkpt>
      <trkpt lat="48.09055" lon="-3.56981">
        <ele>165.3</ele>
        <time>2025-02-25T08:16:39Z</time>
      </trkpt>
      <trkpt lat="48.09054" lon="-3.56983">
        <ele>165.3</ele>
        <time>2025-02-25T08:16:40Z</time>
      </trkpt>
      <trkpt lat="48.09054" lon="-3.56984">
        <ele>165.3</ele>
        <time>2025-02-25T08:16:41Z</time>
      </trkpt>
      <trkpt lat="48.09053" lon="-3.56985">
        <ele>165.3</ele>
        <time>2025-02-25T08:16:42Z</time>
      </trkpt>
      <trkpt lat="48.09054" lon="-3.56983">
        <ele>165.3</ele>
        <time>2025-02-25T08:16:43Z</time>
      </trkpt>
      <trkpt lat="48.09054" lon="-3.56984">
        <ele>165.3</ele>
        <time>2025-02-25T08:16:44Z</time>
      </trkpt>
      <trkpt lat="48.09053" lon="-3.56985">
        <ele>165.3</ele>
        <time>2025-02-25T08:16:45Z</time>
      </trkpt>
      <trkpt lat="48.09053" lon="-3.56987">
        <ele>165.4</ele>
        <time>2025-02-25T08:16:46Z</time>
      </trkpt>
      <trkpt lat="48.09051" lon="-3.56988">
        <ele>165.3</ele>
        <time>2025-02-25T08:16:47Z</time>
      </trkpt>
      <trkpt lat="48.0905" lon="-3.56991">
        <ele>165.3</ele>
        <time>2025-02-25T08:16:48Z</time>
      </trkpt>
      <trkpt lat="48.0905" lon="-3.56994">
        <ele>165.4</ele>
        <time>2025-02-25T08:16:49Z</time>
      </trkpt>
      <trkpt lat="48.09049" lon="-3.56995">
        <ele>165.4</ele>
        <time>2025-02-25T08:16:50Z</time>
      </trkpt>
      <trkpt lat="48.09049" lon="-3.56997">
        <ele>165.4</ele>
        <time>2025-02-25T08:16:51Z</time>
      </trkpt>
      <trkpt lat="48.09048" lon="-3.56998">
        <ele>165.4</ele>
        <time>2025-02-25T08:16:52Z</time>
      </trkpt>
      <trkpt lat="48.09046" lon="-3.56999">
        <ele>165.3</ele>
        <time>2025-02-25T08:16:53Z</time>
      </trkpt>
      <trkpt lat="48.09044" lon="-3.57001">
        <ele>165.2</ele>
        <time>2025-02-25T08:16:54Z</time>
      </trkpt>
      <trkpt lat="48.09044" lon="-3.57002">
        <ele>165.2</ele>
        <time>2025-02-25T08:16:55Z</time>
      </trkpt>
      <trkpt lat="48.09043" lon="-3.57004">
        <ele>165.2</ele>
        <time>2025-02-25T08:16:56Z</time>
      </trkpt>
      <trkpt lat="48.09043" lon="-3.57006">
        <ele>165.2</ele>
        <time>2025-02-25T08:16:57Z</time>
      </trkpt>
      <trkpt lat="48.09042" lon="-3.57007">
        <ele>165.1</ele>
        <time>2025-02-25T08:16:58Z</time>
      </trkpt>
      <trkpt lat="48.09041" lon="-3.57009">
        <ele>165.1</ele>
        <time>2025-02-25T08:16:59Z</time>
      </trkpt>
      <trkpt lat="48.0904" lon="-3.5701">
        <ele>165.1</ele>
        <time>2025-02-25T08:17:00Z</time>
      </trkpt>
      <trkpt lat="48.09039" lon="-3.57012">
        <ele>165.1</ele>
        <time>2025-02-25T08:17:01Z</time>
      </trkpt>
      <trkpt lat="48.09038" lon="-3.57014">
        <ele>165.1</ele>
        <time>2025-02-25T08:17:02Z</time>
      </trkpt>
      <trkpt lat="48.09037" lon="-3.57016">
        <ele>165</ele>
        <time>2025-02-25T08:17:03Z</time>
      </trkpt>
      <trkpt lat="48.09036" lon="-3.57018">
        <ele>165</ele>
        <time>2025-02-25T08:17:04Z</time>
      </trkpt>
      <trkpt lat="48.09035" lon="-3.57019">
        <ele>165</ele>
        <time>2025-02-25T08:17:05Z</time>
      </trkpt>
      <trkpt lat="48.09034" lon="-3.5702">
        <ele>165</ele>
        <time>2025-02-25T08:17:06Z</time>
      </trkpt>
      <trkpt lat="48.09033" lon="-3.57021">
        <ele>165</ele>
        <time>2025-02-25T08:17:07Z</time>
      </trkpt>
      <trkpt lat="48.09033" lon="-3.57022">
        <ele>165</ele>
        <time>2025-02-25T08:17:08Z</time>
      </trkpt>
      <trkpt lat="48.09032" lon="-3.57023">
        <ele>165</ele>
        <time>2025-02-25T08:17:09Z</time>
      </trkpt>
      <trkpt lat="48.09031" lon="-3.57025">
        <ele>165</ele>
        <time>2025-02-25T08:17:10Z</time>
      </trkpt>
      <trkpt lat="48.0903" lon="-3.57027">
        <ele>165.1</ele>
        <time>2025-02-25T08:17:11Z</time>
      </trkpt>
      <trkpt lat="48.09029" lon="-3.57028">
        <ele>165</ele>
        <time>2025-02-25T08:17:12Z</time>
      </trkpt>
      <trkpt lat="48.09028" lon="-3.57029">
        <ele>165</ele>
        <time>2025-02-25T08:17:13Z</time>
      </trkpt>
      <trkpt lat="48.09027" lon="-3.57031">
        <ele>164.9</ele>
        <time>2025-02-25T08:17:14Z</time>
      </trkpt>
      <trkpt lat="48.09027" lon="-3.57033">
        <ele>164.9</ele>
        <time>2025-02-25T08:17:15Z</time>
      </trkpt>
      <trkpt lat="48.09026" lon="-3.57034">
        <ele>164.8</ele>
        <time>2025-02-25T08:17:16Z</time>
      </trkpt>
      <trkpt lat="48.09025" lon="-3.57036">
        <ele>164.7</ele>
        <time>2025-02-25T08:17:17Z</time>
      </trkpt>
      <trkpt lat="48.09024" lon="-3.57037">
        <ele>164.5</ele>
        <time>2025-02-25T08:17:18Z</time>
      </trkpt>
      <trkpt lat="48.09023" lon="-3.57039">
        <ele>164.5</ele>
        <time>2025-02-25T08:17:19Z</time>
      </trkpt>
      <trkpt lat="48.09022" lon="-3.5704">
        <ele>164.4</ele>
        <time>2025-02-25T08:17:20Z</time>
      </trkpt>
      <trkpt lat="48.09021" lon="-3.57042">
        <ele>164.3</ele>
        <time>2025-02-25T08:17:21Z</time>
      </trkpt>
      <trkpt lat="48.0902" lon="-3.57043">
        <ele>164.2</ele>
        <time>2025-02-25T08:17:22Z</time>
      </trkpt>
      <trkpt lat="48.09019" lon="-3.57045">
        <ele>164.1</ele>
        <time>2025-02-25T08:17:23Z</time>
      </trkpt>
      <trkpt lat="48.09018" lon="-3.57046">
        <ele>164.1</ele>
        <time>2025-02-25T08:17:24Z</time>
      </trkpt>
      <trkpt lat="48.09018" lon="-3.57048">
        <ele>164.1</ele>
        <time>2025-02-25T08:17:25Z</time>
      </trkpt>
      <trkpt lat="48.09017" lon="-3.5705">
        <ele>164.1</ele>
        <time>2025-02-25T08:17:26Z</time>
      </trkpt>
      <trkpt lat="48.09016" lon="-3.57051">
        <ele>164</ele>
        <time>2025-02-25T08:17:27Z</time>
      </trkpt>
      <trkpt lat="48.09016" lon="-3.57053">
        <ele>164.1</ele>
        <time>2025-02-25T08:17:28Z</time>
      </trkpt>
      <trkpt lat="48.09015" lon="-3.57055">
        <ele>164.1</ele>
        <time>2025-02-25T08:17:29Z</time>
      </trkpt>
      <trkpt lat="48.09015" lon="-3.57057">
        <ele>164.1</ele>
        <time>2025-02-25T08:17:30Z</time>
      </trkpt>
      <trkpt lat="48.09014" lon="-3.57059">
        <ele>164.1</ele>
        <time>2025-02-25T08:17:31Z</time>
      </trkpt>
      <trkpt lat="48.09013" lon="-3.5706">
        <ele>164</ele>
        <time>2025-02-25T08:17:32Z</time>
      </trkpt>
      <trkpt lat="48.09012" lon="-3.57061">
        <ele>164</ele>
        <time>2025-02-25T08:17:33Z</time>
      </trkpt>
      <trkpt lat="48.09011" lon="-3.57063">
        <ele>164</ele>
        <time>2025-02-25T08:17:34Z</time>
      </trkpt>
      <trkpt lat="48.0901" lon="-3.57064">
        <ele>163.9</ele>
        <time>2025-02-25T08:17:35Z</time>
      </trkpt>
      <trkpt lat="48.0901" lon="-3.57066">
        <ele>164</ele>
        <time>2025-02-25T08:17:36Z</time>
      </trkpt>
      <trkpt lat="48.0901" lon="-3.57068">
        <ele>164</ele>
        <time>2025-02-25T08:17:37Z</time>
      </trkpt>
      <trkpt lat="48.09009" lon="-3.5707">
        <ele>164</ele>
        <time>2025-02-25T08:17:38Z</time>
      </trkpt>
      <trkpt lat="48.09009" lon="-3.57072">
        <ele>164</ele>
        <time>2025-02-25T08:17:39Z</time>
      </trkpt>
      <trkpt lat="48.09009" lon="-3.57074">
        <ele>164.1</ele>
        <time>2025-02-25T08:17:40Z</time>
      </trkpt>
      <trkpt lat="48.09009" lon="-3.57076">
        <ele>164.1</ele>
        <time>2025-02-25T08:17:41Z</time>
      </trkpt>
      <trkpt lat="48.09008" lon="-3.57077">
        <ele>164.1</ele>
        <time>2025-02-25T08:17:42Z</time>
      </trkpt>
      <trkpt lat="48.09008" lon="-3.57079">
        <ele>164.2</ele>
        <time>2025-02-25T08:17:43Z</time>
      </trkpt>
      <trkpt lat="48.09008" lon="-3.57081">
        <ele>164.2</ele>
        <time>2025-02-25T08:17:44Z</time>
      </trkpt>
      <trkpt lat="48.09008" lon="-3.57083">
        <ele>164.3</ele>
        <time>2025-02-25T08:17:45Z</time>
      </trkpt>
      <trkpt lat="48.09008" lon="-3.57085">
        <ele>164.3</ele>
        <time>2025-02-25T08:17:46Z</time>
      </trkpt>
      <trkpt lat="48.09008" lon="-3.57087">
        <ele>164.3</ele>
        <time>2025-02-25T08:17:47Z</time>
      </trkpt>
      <trkpt lat="48.09008" lon="-3.57089">
        <ele>164.3</ele>
        <time>2025-02-25T08:17:48Z</time>
      </trkpt>
      <trkpt lat="48.09008" lon="-3.57091">
        <ele>164.3</ele>
        <time>2025-02-25T08:17:49Z</time>
      </trkpt>
      <trkpt lat="48.09008" lon="-3.57092">
        <ele>164.3</ele>
        <time>2025-02-25T08:17:50Z</time>
      </trkpt>
      <trkpt lat="48.09008" lon="-3.57094">
        <ele>164.3</ele>
        <time>2025-02-25T08:17:51Z</time>
      </trkpt>
      <trkpt lat="48.09008" lon="-3.57096">
        <ele>164.3</ele>
        <time>2025-02-25T08:17:52Z</time>
      </trkpt>
      <trkpt lat="48.09009" lon="-3.57097">
        <ele>164.3</ele>
        <time>2025-02-25T08:17:53Z</time>
      </trkpt>
      <trkpt lat="48.09008" lon="-3.57099">
        <ele>164.3</ele>
        <time>2025-02-25T08:17:54Z</time>
      </trkpt>
      <trkpt lat="48.09009" lon="-3.57101">
        <ele>164.3</ele>
        <time>2025-02-25T08:17:55Z</time>
      </trkpt>
      <trkpt lat="48.09009" lon="-3.57103">
        <ele>164.3</ele>
        <time>2025-02-25T08:17:56Z</time>
      </trkpt>
      <trkpt lat="48.09009" lon="-3.57105">
        <ele>164.3</ele>
        <time>2025-02-25T08:17:57Z</time>
      </trkpt>
      <trkpt lat="48.09008" lon="-3.57107">
        <ele>164.3</ele>
        <time>2025-02-25T08:17:58Z</time>
      </trkpt>
      <trkpt lat="48.09009" lon="-3.57109">
        <ele>164.3</ele>
        <time>2025-02-25T08:17:59Z</time>
      </trkpt>
      <trkpt lat="48.09009" lon="-3.57111">
        <ele>164.3</ele>
        <time>2025-02-25T08:18:00Z</time>
      </trkpt>
      <trkpt lat="48.09009" lon="-3.57113">
        <ele>164.4</ele>
        <time>2025-02-25T08:18:01Z</time>
      </trkpt>
      <trkpt lat="48.09009" lon="-3.57115">
        <ele>164.4</ele>
        <time>2025-02-25T08:18:02Z</time>
      </trkpt>
      <trkpt lat="48.09009" lon="-3.57116">
        <ele>164.4</ele>
        <time>2025-02-25T08:18:03Z</time>
      </trkpt>
      <trkpt lat="48.09009" lon="-3.57118">
        <ele>164.5</ele>
        <time>2025-02-25T08:18:04Z</time>
      </trkpt>
      <trkpt lat="48.09009" lon="-3.5712">
        <ele>164.5</ele>
        <time>2025-02-25T08:18:05Z</time>
      </trkpt>
      <trkpt lat="48.0901" lon="-3.57121">
        <ele>164.6</ele>
        <time>2025-02-25T08:18:06Z</time>
      </trkpt>
      <trkpt lat="48.0901" lon="-3.57123">
        <ele>164.6</ele>
        <time>2025-02-25T08:18:07Z</time>
      </trkpt>
      <trkpt lat="48.09011" lon="-3.57124">
        <ele>164.7</ele>
        <time>2025-02-25T08:18:08Z</time>
      </trkpt>
      <trkpt lat="48.09011" lon="-3.57126">
        <ele>164.7</ele>
        <time>2025-02-25T08:18:09Z</time>
      </trkpt>
      <trkpt lat="48.09011" lon="-3.57126">
        <ele>164.7</ele>
        <time>2025-02-25T08:18:10Z</time>
      </trkpt>
      <trkpt lat="48.09011" lon="-3.57127">
        <ele>164.7</ele>
        <time>2025-02-25T08:18:11Z</time>
      </trkpt>
      <trkpt lat="48.09011" lon="-3.57129">
        <ele>164.8</ele>
        <time>2025-02-25T08:18:12Z</time>
      </trkpt>
      <trkpt lat="48.09011" lon="-3.5713">
        <ele>164.8</ele>
        <time>2025-02-25T08:18:13Z</time>
      </trkpt>
      <trkpt lat="48.09011" lon="-3.57132">
        <ele>164.9</ele>
        <time>2025-02-25T08:18:14Z</time>
      </trkpt>
      <trkpt lat="48.09011" lon="-3.57134">
        <ele>164.9</ele>
        <time>2025-02-25T08:18:15Z</time>
      </trkpt>
      <trkpt lat="48.09011" lon="-3.57136">
        <ele>164.9</ele>
        <time>2025-02-25T08:18:16Z</time>
      </trkpt>
      <trkpt lat="48.09011" lon="-3.57137">
        <ele>165</ele>
        <time>2025-02-25T08:18:17Z</time>
      </trkpt>
      <trkpt lat="48.09011" lon="-3.57139">
        <ele>165</ele>
        <time>2025-02-25T08:18:18Z</time>
      </trkpt>
      <trkpt lat="48.09012" lon="-3.57141">
        <ele>165</ele>
        <time>2025-02-25T08:18:19Z</time>
      </trkpt>
      <trkpt lat="48.09012" lon="-3.57143">
        <ele>165.1</ele>
        <time>2025-02-25T08:18:20Z</time>
      </trkpt>
      <trkpt lat="48.09011" lon="-3.57145">
        <ele>165.1</ele>
        <time>2025-02-25T08:18:21Z</time>
      </trkpt>
      <trkpt lat="48.09011" lon="-3.57146">
        <ele>165.1</ele>
        <time>2025-02-25T08:18:22Z</time>
      </trkpt>
      <trkpt lat="48.09011" lon="-3.57148">
        <ele>165.1</ele>
        <time>2025-02-25T08:18:23Z</time>
      </trkpt>
      <trkpt lat="48.09012" lon="-3.5715">
        <ele>165.2</ele>
        <time>2025-02-25T08:18:24Z</time>
      </trkpt>
      <trkpt lat="48.09012" lon="-3.57153">
        <ele>165.2</ele>
        <time>2025-02-25T08:18:25Z</time>
      </trkpt>
      <trkpt lat="48.09012" lon="-3.57155">
        <ele>165.3</ele>
        <time>2025-02-25T08:18:26Z</time>
      </trkpt>
      <trkpt lat="48.09012" lon="-3.57157">
        <ele>165.3</ele>
        <time>2025-02-25T08:18:27Z</time>
      </trkpt>
      <trkpt lat="48.09012" lon="-3.57159">
        <ele>165.3</ele>
        <time>2025-02-25T08:18:28Z</time>
      </trkpt>
      <trkpt lat="48.09012" lon="-3.57161">
        <ele>165.3</ele>
        <time>2025-02-25T08:18:29Z</time>
      </trkpt>
      <trkpt lat="48.09012" lon="-3.57162">
        <ele>165.4</ele>
        <time>2025-02-25T08:18:30Z</time>
      </trkpt>
      <trkpt lat="48.09012" lon="-3.57164">
        <ele>165.4</ele>
        <time>2025-02-25T08:18:31Z</time>
      </trkpt>
      <trkpt lat="48.09011" lon="-3.57165">
        <ele>165.4</ele>
        <time>2025-02-25T08:18:32Z</time>
      </trkpt>
      <trkpt lat="48.09011" lon="-3.57167">
        <ele>165.4</ele>
        <time>2025-02-25T08:18:33Z</time>
      </trkpt>
      <trkpt lat="48.09011" lon="-3.57169">
        <ele>165.4</ele>
        <time>2025-02-25T08:18:34Z</time>
      </trkpt>
      <trkpt lat="48.09012" lon="-3.5717">
        <ele>165.4</ele>
        <time>2025-02-25T08:18:35Z</time>
      </trkpt>
      <trkpt lat="48.09012" lon="-3.57172">
        <ele>165.4</ele>
        <time>2025-02-25T08:18:36Z</time>
      </trkpt>
      <trkpt lat="48.09013" lon="-3.57174">
        <ele>165.5</ele>
        <time>2025-02-25T08:18:37Z</time>
      </trkpt>
      <trkpt lat="48.09014" lon="-3.57177">
        <ele>165.5</ele>
        <time>2025-02-25T08:18:38Z</time>
      </trkpt>
      <trkpt lat="48.09015" lon="-3.57179">
        <ele>165.5</ele>
        <time>2025-02-25T08:18:39Z</time>
      </trkpt>
      <trkpt lat="48.09015" lon="-3.5718">
        <ele>165.5</ele>
        <time>2025-02-25T08:18:40Z</time>
      </trkpt>
      <trkpt lat="48.09016" lon="-3.57182">
        <ele>165.6</ele>
        <time>2025-02-25T08:18:41Z</time>
      </trkpt>
      <trkpt lat="48.09016" lon="-3.57183">
        <ele>165.6</ele>
        <time>2025-02-25T08:18:42Z</time>
      </trkpt>
      <trkpt lat="48.09016" lon="-3.57185">
        <ele>165.6</ele>
        <time>2025-02-25T08:18:43Z</time>
      </trkpt>
      <trkpt lat="48.09016" lon="-3.57187">
        <ele>165.6</ele>
        <time>2025-02-25T08:18:44Z</time>
      </trkpt>
      <trkpt lat="48.09015" lon="-3.57189">
        <ele>165.5</ele>
        <time>2025-02-25T08:18:45Z</time>
      </trkpt>
      <trkpt lat="48.09015" lon="-3.57191">
        <ele>165.5</ele>
        <time>2025-02-25T08:18:46Z</time>
      </trkpt>
      <trkpt lat="48.09015" lon="-3.57192">
        <ele>165.5</ele>
        <time>2025-02-25T08:18:47Z</time>
      </trkpt>
      <trkpt lat="48.09015" lon="-3.57194">
        <ele>165.5</ele>
        <time>2025-02-25T08:18:48Z</time>
      </trkpt>
      <trkpt lat="48.09015" lon="-3.57196">
        <ele>165.6</ele>
        <time>2025-02-25T08:18:49Z</time>
      </trkpt>
      <trkpt lat="48.09015" lon="-3.57198">
        <ele>165.7</ele>
        <time>2025-02-25T08:18:50Z</time>
      </trkpt>
      <trkpt lat="48.09016" lon="-3.572">
        <ele>165.7</ele>
        <time>2025-02-25T08:18:51Z</time>
      </trkpt>
      <trkpt lat="48.09015" lon="-3.57202">
        <ele>165.8</ele>
        <time>2025-02-25T08:18:52Z</time>
      </trkpt>
      <trkpt lat="48.09016" lon="-3.57203">
        <ele>165.8</ele>
        <time>2025-02-25T08:18:53Z</time>
      </trkpt>
      <trkpt lat="48.09016" lon="-3.57206">
        <ele>165.9</ele>
        <time>2025-02-25T08:18:54Z</time>
      </trkpt>
      <trkpt lat="48.09017" lon="-3.57208">
        <ele>166</ele>
        <time>2025-02-25T08:18:55Z</time>
      </trkpt>
      <trkpt lat="48.09018" lon="-3.5721">
        <ele>166</ele>
        <time>2025-02-25T08:18:56Z</time>
      </trkpt>
      <trkpt lat="48.09019" lon="-3.57212">
        <ele>166.1</ele>
        <time>2025-02-25T08:18:57Z</time>
      </trkpt>
      <trkpt lat="48.0902" lon="-3.57212">
        <ele>166.1</ele>
        <time>2025-02-25T08:18:58Z</time>
      </trkpt>
      <trkpt lat="48.09021" lon="-3.57214">
        <ele>166.1</ele>
        <time>2025-02-25T08:18:59Z</time>
      </trkpt>
      <trkpt lat="48.09022" lon="-3.57215">
        <ele>166.1</ele>
        <time>2025-02-25T08:19:00Z</time>
      </trkpt>
      <trkpt lat="48.09023" lon="-3.57216">
        <ele>166.1</ele>
        <time>2025-02-25T08:19:01Z</time>
      </trkpt>
      <trkpt lat="48.09024" lon="-3.57218">
        <ele>166.1</ele>
        <time>2025-02-25T08:19:02Z</time>
      </trkpt>
      <trkpt lat="48.09025" lon="-3.57219">
        <ele>166.1</ele>
        <time>2025-02-25T08:19:03Z</time>
      </trkpt>
      <trkpt lat="48.09026" lon="-3.57219">
        <ele>166</ele>
        <time>2025-02-25T08:19:04Z</time>
      </trkpt>
      <trkpt lat="48.09027" lon="-3.5722">
        <ele>166</ele>
        <time>2025-02-25T08:19:05Z</time>
      </trkpt>
      <trkpt lat="48.09028" lon="-3.57222">
        <ele>166</ele>
        <time>2025-02-25T08:19:06Z</time>
      </trkpt>
      <trkpt lat="48.09027" lon="-3.57224">
        <ele>166</ele>
        <time>2025-02-25T08:19:07Z</time>
      </trkpt>
      <trkpt lat="48.09027" lon="-3.57226">
        <ele>166</ele>
        <time>2025-02-25T08:19:08Z</time>
      </trkpt>
      <trkpt lat="48.09026" lon="-3.57228">
        <ele>166.1</ele>
        <time>2025-02-25T08:19:09Z</time>
      </trkpt>
      <trkpt lat="48.09027" lon="-3.5723">
        <ele>166</ele>
        <time>2025-02-25T08:19:10Z</time>
      </trkpt>
      <trkpt lat="48.09027" lon="-3.57231">
        <ele>166</ele>
        <time>2025-02-25T08:19:11Z</time>
      </trkpt>
      <trkpt lat="48.09027" lon="-3.57233">
        <ele>166</ele>
        <time>2025-02-25T08:19:12Z</time>
      </trkpt>
      <trkpt lat="48.09027" lon="-3.57235">
        <ele>166</ele>
        <time>2025-02-25T08:19:13Z</time>
      </trkpt>
      <trkpt lat="48.09027" lon="-3.57237">
        <ele>166</ele>
        <time>2025-02-25T08:19:14Z</time>
      </trkpt>
      <trkpt lat="48.09027" lon="-3.57238">
        <ele>166</ele>
        <time>2025-02-25T08:19:15Z</time>
      </trkpt>
      <trkpt lat="48.09027" lon="-3.5724">
        <ele>166</ele>
        <time>2025-02-25T08:19:16Z</time>
      </trkpt>
      <trkpt lat="48.09028" lon="-3.57242">
        <ele>166</ele>
        <time>2025-02-25T08:19:17Z</time>
      </trkpt>
      <trkpt lat="48.09027" lon="-3.57244">
        <ele>166</ele>
        <time>2025-02-25T08:19:18Z</time>
      </trkpt>
      <trkpt lat="48.09028" lon="-3.57245">
        <ele>166</ele>
        <time>2025-02-25T08:19:19Z</time>
      </trkpt>
      <trkpt lat="48.09028" lon="-3.57247">
        <ele>166</ele>
        <time>2025-02-25T08:19:20Z</time>
      </trkpt>
      <trkpt lat="48.09028" lon="-3.57249">
        <ele>166</ele>
        <time>2025-02-25T08:19:21Z</time>
      </trkpt>
      <trkpt lat="48.09028" lon="-3.57251">
        <ele>166</ele>
        <time>2025-02-25T08:19:22Z</time>
      </trkpt>
      <trkpt lat="48.09029" lon="-3.57253">
        <ele>165.9</ele>
        <time>2025-02-25T08:19:23Z</time>
      </trkpt>
      <trkpt lat="48.0903" lon="-3.57254">
        <ele>165.8</ele>
        <time>2025-02-25T08:19:24Z</time>
      </trkpt>
      <trkpt lat="48.0903" lon="-3.57256">
        <ele>165.8</ele>
        <time>2025-02-25T08:19:25Z</time>
      </trkpt>
      <trkpt lat="48.09031" lon="-3.57258">
        <ele>165.7</ele>
        <time>2025-02-25T08:19:26Z</time>
      </trkpt>
      <trkpt lat="48.09031" lon="-3.5726">
        <ele>165.7</ele>
        <time>2025-02-25T08:19:27Z</time>
      </trkpt>
      <trkpt lat="48.09031" lon="-3.57261">
        <ele>165.7</ele>
        <time>2025-02-25T08:19:28Z</time>
      </trkpt>
      <trkpt lat="48.09032" lon="-3.57263">
        <ele>165.6</ele>
        <time>2025-02-25T08:19:29Z</time>
      </trkpt>
      <trkpt lat="48.09032" lon="-3.57265">
        <ele>165.6</ele>
        <time>2025-02-25T08:19:30Z</time>
      </trkpt>
      <trkpt lat="48.09032" lon="-3.57266">
        <ele>165.6</ele>
        <time>2025-02-25T08:19:31Z</time>
      </trkpt>
      <trkpt lat="48.09033" lon="-3.57267">
        <ele>165.5</ele>
        <time>2025-02-25T08:19:32Z</time>
      </trkpt>
      <trkpt lat="48.09033" lon="-3.57269">
        <ele>165.5</ele>
        <time>2025-02-25T08:19:33Z</time>
      </trkpt>
      <trkpt lat="48.09034" lon="-3.5727">
        <ele>165.4</ele>
        <time>2025-02-25T08:19:34Z</time>
      </trkpt>
      <trkpt lat="48.09034" lon="-3.57272">
        <ele>165.4</ele>
        <time>2025-02-25T08:19:35Z</time>
      </trkpt>
      <trkpt lat="48.09035" lon="-3.57274">
        <ele>165.3</ele>
        <time>2025-02-25T08:19:36Z</time>
      </trkpt>
      <trkpt lat="48.09035" lon="-3.57275">
        <ele>165.2</ele>
        <time>2025-02-25T08:19:37Z</time>
      </trkpt>
      <trkpt lat="48.09035" lon="-3.57277">
        <ele>165.2</ele>
        <time>2025-02-25T08:19:38Z</time>
      </trkpt>
      <trkpt lat="48.09036" lon="-3.57279">
        <ele>165.1</ele>
        <time>2025-02-25T08:19:39Z</time>
      </trkpt>
      <trkpt lat="48.09036" lon="-3.5728">
        <ele>165.2</ele>
        <time>2025-02-25T08:19:40Z</time>
      </trkpt>
      <trkpt lat="48.09037" lon="-3.57281">
        <ele>165.1</ele>
        <time>2025-02-25T08:19:41Z</time>
      </trkpt>
      <trkpt lat="48.09037" lon="-3.57283">
        <ele>165.1</ele>
        <time>2025-02-25T08:19:42Z</time>
      </trkpt>
      <trkpt lat="48.09038" lon="-3.57285">
        <ele>165.1</ele>
        <time>2025-02-25T08:19:43Z</time>
      </trkpt>
      <trkpt lat="48.09039" lon="-3.57287">
        <ele>165</ele>
        <time>2025-02-25T08:19:44Z</time>
      </trkpt>
      <trkpt lat="48.09039" lon="-3.57288">
        <ele>165</ele>
        <time>2025-02-25T08:19:45Z</time>
      </trkpt>
      <trkpt lat="48.0904" lon="-3.57289">
        <ele>164.9</ele>
        <time>2025-02-25T08:19:46Z</time>
      </trkpt>
      <trkpt lat="48.0904" lon="-3.57291">
        <ele>164.9</ele>
        <time>2025-02-25T08:19:47Z</time>
      </trkpt>
      <trkpt lat="48.0904" lon="-3.57293">
        <ele>165</ele>
        <time>2025-02-25T08:19:48Z</time>
      </trkpt>
      <trkpt lat="48.0904" lon="-3.57294">
        <ele>165</ele>
        <time>2025-02-25T08:19:49Z</time>
      </trkpt>
      <trkpt lat="48.09041" lon="-3.57296">
        <ele>164.9</ele>
        <time>2025-02-25T08:19:50Z</time>
      </trkpt>
      <trkpt lat="48.09041" lon="-3.57298">
        <ele>165</ele>
        <time>2025-02-25T08:19:51Z</time>
      </trkpt>
      <trkpt lat="48.09041" lon="-3.573">
        <ele>165</ele>
        <time>2025-02-25T08:19:52Z</time>
      </trkpt>
      <trkpt lat="48.09042" lon="-3.57301">
        <ele>164.9</ele>
        <time>2025-02-25T08:19:53Z</time>
      </trkpt>
      <trkpt lat="48.09042" lon="-3.57303">
        <ele>164.9</ele>
        <time>2025-02-25T08:19:54Z</time>
      </trkpt>
      <trkpt lat="48.09042" lon="-3.57305">
        <ele>164.9</ele>
        <time>2025-02-25T08:19:55Z</time>
      </trkpt>
      <trkpt lat="48.09043" lon="-3.57307">
        <ele>164.8</ele>
        <time>2025-02-25T08:19:56Z</time>
      </trkpt>
      <trkpt lat="48.09043" lon="-3.57308">
        <ele>164.8</ele>
        <time>2025-02-25T08:19:57Z</time>
      </trkpt>
      <trkpt lat="48.09044" lon="-3.57309">
        <ele>164.7</ele>
        <time>2025-02-25T08:19:58Z</time>
      </trkpt>
      <trkpt lat="48.09045" lon="-3.5731">
        <ele>164.5</ele>
        <time>2025-02-25T08:19:59Z</time>
      </trkpt>
      <trkpt lat="48.09045" lon="-3.57312">
        <ele>164.5</ele>
        <time>2025-02-25T08:20:00Z</time>
      </trkpt>
      <trkpt lat="48.09045" lon="-3.57315">
        <ele>164.5</ele>
        <time>2025-02-25T08:20:01Z</time>
      </trkpt>
      <trkpt lat="48.09045" lon="-3.57317">
        <ele>164.5</ele>
        <time>2025-02-25T08:20:02Z</time>
      </trkpt>
      <trkpt lat="48.09045" lon="-3.57318">
        <ele>164.5</ele>
        <time>2025-02-25T08:20:03Z</time>
      </trkpt>
      <trkpt lat="48.09045" lon="-3.5732">
        <ele>164.5</ele>
        <time>2025-02-25T08:20:04Z</time>
      </trkpt>
      <trkpt lat="48.09044" lon="-3.57322">
        <ele>164.7</ele>
        <time>2025-02-25T08:20:05Z</time>
      </trkpt>
      <trkpt lat="48.09044" lon="-3.57324">
        <ele>164.7</ele>
        <time>2025-02-25T08:20:06Z</time>
      </trkpt>
      <trkpt lat="48.09045" lon="-3.57325">
        <ele>164.5</ele>
        <time>2025-02-25T08:20:07Z</time>
      </trkpt>
      <trkpt lat="48.09044" lon="-3.57327">
        <ele>164.7</ele>
        <time>2025-02-25T08:20:08Z</time>
      </trkpt>
      <trkpt lat="48.09045" lon="-3.57329">
        <ele>164.5</ele>
        <time>2025-02-25T08:20:09Z</time>
      </trkpt>
      <trkpt lat="48.09045" lon="-3.5733">
        <ele>164.5</ele>
        <time>2025-02-25T08:20:10Z</time>
      </trkpt>
      <trkpt lat="48.09046" lon="-3.57332">
        <ele>164.4</ele>
        <time>2025-02-25T08:20:11Z</time>
      </trkpt>
      <trkpt lat="48.09046" lon="-3.57333">
        <ele>164.4</ele>
        <time>2025-02-25T08:20:12Z</time>
      </trkpt>
      <trkpt lat="48.09047" lon="-3.57336">
        <ele>164.3</ele>
        <time>2025-02-25T08:20:13Z</time>
      </trkpt>
      <trkpt lat="48.09047" lon="-3.57338">
        <ele>164.3</ele>
        <time>2025-02-25T08:20:14Z</time>
      </trkpt>
      <trkpt lat="48.09047" lon="-3.57339">
        <ele>164.4</ele>
        <time>2025-02-25T08:20:15Z</time>
      </trkpt>
      <trkpt lat="48.09047" lon="-3.57341">
        <ele>164.4</ele>
        <time>2025-02-25T08:20:16Z</time>
      </trkpt>
      <trkpt lat="48.09047" lon="-3.57343">
        <ele>164.5</ele>
        <time>2025-02-25T08:20:17Z</time>
      </trkpt>
      <trkpt lat="48.09048" lon="-3.57347">
        <ele>164.4</ele>
        <time>2025-02-25T08:20:18Z</time>
      </trkpt>
      <trkpt lat="48.09049" lon="-3.57349">
        <ele>164.4</ele>
        <time>2025-02-25T08:20:19Z</time>
      </trkpt>
      <trkpt lat="48.09049" lon="-3.57351">
        <ele>164.4</ele>
        <time>2025-02-25T08:20:20Z</time>
      </trkpt>
      <trkpt lat="48.09049" lon="-3.57354">
        <ele>164.5</ele>
        <time>2025-02-25T08:20:21Z</time>
      </trkpt>
      <trkpt lat="48.09049" lon="-3.57356">
        <ele>164.6</ele>
        <time>2025-02-25T08:20:22Z</time>
      </trkpt>
      <trkpt lat="48.09049" lon="-3.57357">
        <ele>164.6</ele>
        <time>2025-02-25T08:20:23Z</time>
      </trkpt>
      <trkpt lat="48.09049" lon="-3.57359">
        <ele>164.6</ele>
        <time>2025-02-25T08:20:24Z</time>
      </trkpt>
      <trkpt lat="48.09049" lon="-3.57361">
        <ele>164.7</ele>
        <time>2025-02-25T08:20:25Z</time>
      </trkpt>
      <trkpt lat="48.09049" lon="-3.57362">
        <ele>164.7</ele>
        <time>2025-02-25T08:20:26Z</time>
      </trkpt>
      <trkpt lat="48.09049" lon="-3.57364">
        <ele>164.7</ele>
        <time>2025-02-25T08:20:27Z</time>
      </trkpt>
      <trkpt lat="48.09049" lon="-3.57365">
        <ele>164.7</ele>
        <time>2025-02-25T08:20:28Z</time>
      </trkpt>
      <trkpt lat="48.09049" lon="-3.57367">
        <ele>164.7</ele>
        <time>2025-02-25T08:20:29Z</time>
      </trkpt>
      <trkpt lat="48.09049" lon="-3.57369">
        <ele>164.7</ele>
        <time>2025-02-25T08:20:30Z</time>
      </trkpt>
      <trkpt lat="48.0905" lon="-3.5737">
        <ele>164.6</ele>
        <time>2025-02-25T08:20:31Z</time>
      </trkpt>
      <trkpt lat="48.0905" lon="-3.57372">
        <ele>164.6</ele>
        <time>2025-02-25T08:20:32Z</time>
      </trkpt>
      <trkpt lat="48.0905" lon="-3.57374">
        <ele>164.6</ele>
        <time>2025-02-25T08:20:33Z</time>
      </trkpt>
      <trkpt lat="48.0905" lon="-3.57376">
        <ele>164.6</ele>
        <time>2025-02-25T08:20:34Z</time>
      </trkpt>
      <trkpt lat="48.0905" lon="-3.57378">
        <ele>164.6</ele>
        <time>2025-02-25T08:20:35Z</time>
      </trkpt>
      <trkpt lat="48.0905" lon="-3.5738">
        <ele>164.6</ele>
        <time>2025-02-25T08:20:36Z</time>
      </trkpt>
      <trkpt lat="48.09051" lon="-3.57381">
        <ele>164.5</ele>
        <time>2025-02-25T08:20:37Z</time>
      </trkpt>
      <trkpt lat="48.09051" lon="-3.57383">
        <ele>164.5</ele>
        <time>2025-02-25T08:20:38Z</time>
      </trkpt>
      <trkpt lat="48.09052" lon="-3.57385">
        <ele>164.4</ele>
        <time>2025-02-25T08:20:39Z</time>
      </trkpt>
      <trkpt lat="48.09052" lon="-3.57386">
        <ele>164.4</ele>
        <time>2025-02-25T08:20:40Z</time>
      </trkpt>
      <trkpt lat="48.09052" lon="-3.57388">
        <ele>164.4</ele>
        <time>2025-02-25T08:20:41Z</time>
      </trkpt>
      <trkpt lat="48.09053" lon="-3.5739">
        <ele>164.2</ele>
        <time>2025-02-25T08:20:42Z</time>
      </trkpt>
      <trkpt lat="48.09053" lon="-3.57392">
        <ele>164.2</ele>
        <time>2025-02-25T08:20:43Z</time>
      </trkpt>
      <trkpt lat="48.09053" lon="-3.57394">
        <ele>164.1</ele>
        <time>2025-02-25T08:20:44Z</time>
      </trkpt>
      <trkpt lat="48.09053" lon="-3.57396">
        <ele>164</ele>
        <time>2025-02-25T08:20:45Z</time>
      </trkpt>
      <trkpt lat="48.09053" lon="-3.57398">
        <ele>163.9</ele>
        <time>2025-02-25T08:20:46Z</time>
      </trkpt>
      <trkpt lat="48.09053" lon="-3.57399">
        <ele>163.9</ele>
        <time>2025-02-25T08:20:47Z</time>
      </trkpt>
      <trkpt lat="48.09053" lon="-3.57401">
        <ele>163.8</ele>
        <time>2025-02-25T08:20:48Z</time>
      </trkpt>
      <trkpt lat="48.09053" lon="-3.57402">
        <ele>163.8</ele>
        <time>2025-02-25T08:20:49Z</time>
      </trkpt>
      <trkpt lat="48.09054" lon="-3.57403">
        <ele>163.7</ele>
        <time>2025-02-25T08:20:50Z</time>
      </trkpt>
      <trkpt lat="48.09054" lon="-3.57405">
        <ele>163.6</ele>
        <time>2025-02-25T08:20:51Z</time>
      </trkpt>
      <trkpt lat="48.09055" lon="-3.57406">
        <ele>163.4</ele>
        <time>2025-02-25T08:20:52Z</time>
      </trkpt>
      <trkpt lat="48.09055" lon="-3.57408">
        <ele>163.4</ele>
        <time>2025-02-25T08:20:53Z</time>
      </trkpt>
      <trkpt lat="48.09056" lon="-3.57409">
        <ele>163.2</ele>
        <time>2025-02-25T08:20:54Z</time>
      </trkpt>
      <trkpt lat="48.09055" lon="-3.57412">
        <ele>163.2</ele>
        <time>2025-02-25T08:20:55Z</time>
      </trkpt>
      <trkpt lat="48.09055" lon="-3.57414">
        <ele>163.2</ele>
        <time>2025-02-25T08:20:56Z</time>
      </trkpt>
      <trkpt lat="48.09055" lon="-3.57415">
        <ele>163.1</ele>
        <time>2025-02-25T08:20:57Z</time>
      </trkpt>
      <trkpt lat="48.09055" lon="-3.57416">
        <ele>163.1</ele>
        <time>2025-02-25T08:20:58Z</time>
      </trkpt>
      <trkpt lat="48.09055" lon="-3.57418">
        <ele>163</ele>
        <time>2025-02-25T08:20:59Z</time>
      </trkpt>
      <trkpt lat="48.09055" lon="-3.5742">
        <ele>162.9</ele>
        <time>2025-02-25T08:21:00Z</time>
      </trkpt>
      <trkpt lat="48.09056" lon="-3.57421">
        <ele>162.8</ele>
        <time>2025-02-25T08:21:01Z</time>
      </trkpt>
      <trkpt lat="48.09056" lon="-3.57423">
        <ele>162.7</ele>
        <time>2025-02-25T08:21:02Z</time>
      </trkpt>
      <trkpt lat="48.09056" lon="-3.57425">
        <ele>162.7</ele>
        <time>2025-02-25T08:21:03Z</time>
      </trkpt>
      <trkpt lat="48.09056" lon="-3.57427">
        <ele>162.6</ele>
        <time>2025-02-25T08:21:04Z</time>
      </trkpt>
      <trkpt lat="48.09056" lon="-3.57428">
        <ele>162.5</ele>
        <time>2025-02-25T08:21:05Z</time>
      </trkpt>
      <trkpt lat="48.09056" lon="-3.5743">
        <ele>162.5</ele>
        <time>2025-02-25T08:21:06Z</time>
      </trkpt>
      <trkpt lat="48.09055" lon="-3.57432">
        <ele>162.5</ele>
        <time>2025-02-25T08:21:07Z</time>
      </trkpt>
      <trkpt lat="48.09055" lon="-3.57434">
        <ele>162.4</ele>
        <time>2025-02-25T08:21:08Z</time>
      </trkpt>
      <trkpt lat="48.09055" lon="-3.57436">
        <ele>162.4</ele>
        <time>2025-02-25T08:21:09Z</time>
      </trkpt>
      <trkpt lat="48.09055" lon="-3.57438">
        <ele>162.3</ele>
        <time>2025-02-25T08:21:10Z</time>
      </trkpt>
      <trkpt lat="48.09056" lon="-3.5744">
        <ele>162.1</ele>
        <time>2025-02-25T08:21:11Z</time>
      </trkpt>
      <trkpt lat="48.09056" lon="-3.57442">
        <ele>162</ele>
        <time>2025-02-25T08:21:12Z</time>
      </trkpt>
      <trkpt lat="48.09056" lon="-3.57444">
        <ele>162</ele>
        <time>2025-02-25T08:21:13Z</time>
      </trkpt>
      <trkpt lat="48.09056" lon="-3.57446">
        <ele>161.8</ele>
        <time>2025-02-25T08:21:14Z</time>
      </trkpt>
      <trkpt lat="48.09056" lon="-3.57449">
        <ele>161.6</ele>
        <time>2025-02-25T08:21:15Z</time>
      </trkpt>
      <trkpt lat="48.09056" lon="-3.57451">
        <ele>161.5</ele>
        <time>2025-02-25T08:21:16Z</time>
      </trkpt>
      <trkpt lat="48.09055" lon="-3.57452">
        <ele>161.5</ele>
        <time>2025-02-25T08:21:17Z</time>
      </trkpt>
      <trkpt lat="48.09054" lon="-3.57454">
        <ele>161.4</ele>
        <time>2025-02-25T08:21:18Z</time>
      </trkpt>
      <trkpt lat="48.09053" lon="-3.57456">
        <ele>161.4</ele>
        <time>2025-02-25T08:21:19Z</time>
      </trkpt>
      <trkpt lat="48.09053" lon="-3.57458">
        <ele>161.3</ele>
        <time>2025-02-25T08:21:20Z</time>
      </trkpt>
      <trkpt lat="48.09053" lon="-3.5746">
        <ele>161.1</ele>
        <time>2025-02-25T08:21:21Z</time>
      </trkpt>
      <trkpt lat="48.09052" lon="-3.57461">
        <ele>161.1</ele>
        <time>2025-02-25T08:21:22Z</time>
      </trkpt>
      <trkpt lat="48.09052" lon="-3.57463">
        <ele>161</ele>
        <time>2025-02-25T08:21:23Z</time>
      </trkpt>
      <trkpt lat="48.09052" lon="-3.57466">
        <ele>160.8</ele>
        <time>2025-02-25T08:21:24Z</time>
      </trkpt>
      <trkpt lat="48.09052" lon="-3.57468">
        <ele>160.7</ele>
        <time>2025-02-25T08:21:25Z</time>
      </trkpt>
      <trkpt lat="48.09052" lon="-3.5747">
        <ele>160.5</ele>
        <time>2025-02-25T08:21:26Z</time>
      </trkpt>
      <trkpt lat="48.09052" lon="-3.57471">
        <ele>160.5</ele>
        <time>2025-02-25T08:21:27Z</time>
      </trkpt>
      <trkpt lat="48.09052" lon="-3.57473">
        <ele>160.4</ele>
        <time>2025-02-25T08:21:28Z</time>
      </trkpt>
      <trkpt lat="48.09051" lon="-3.57475">
        <ele>160.4</ele>
        <time>2025-02-25T08:21:29Z</time>
      </trkpt>
      <trkpt lat="48.09051" lon="-3.57476">
        <ele>160.3</ele>
        <time>2025-02-25T08:21:30Z</time>
      </trkpt>
      <trkpt lat="48.09051" lon="-3.57478">
        <ele>160.2</ele>
        <time>2025-02-25T08:21:31Z</time>
      </trkpt>
      <trkpt lat="48.0905" lon="-3.5748">
        <ele>160.3</ele>
        <time>2025-02-25T08:21:32Z</time>
      </trkpt>
      <trkpt lat="48.09049" lon="-3.57481">
        <ele>160.3</ele>
        <time>2025-02-25T08:21:33Z</time>
      </trkpt>
      <trkpt lat="48.09048" lon="-3.57482">
        <ele>160.4</ele>
        <time>2025-02-25T08:21:34Z</time>
      </trkpt>
      <trkpt lat="48.09048" lon="-3.57483">
        <ele>160.3</ele>
        <time>2025-02-25T08:21:35Z</time>
      </trkpt>
      <trkpt lat="48.09047" lon="-3.57484">
        <ele>160.4</ele>
        <time>2025-02-25T08:21:36Z</time>
      </trkpt>
      <trkpt lat="48.09046" lon="-3.57485">
        <ele>160.4</ele>
        <time>2025-02-25T08:21:37Z</time>
      </trkpt>
      <trkpt lat="48.09045" lon="-3.57486">
        <ele>160.5</ele>
        <time>2025-02-25T08:21:38Z</time>
      </trkpt>
      <trkpt lat="48.09043" lon="-3.57487">
        <ele>160.6</ele>
        <time>2025-02-25T08:21:39Z</time>
      </trkpt>
      <trkpt lat="48.09042" lon="-3.57488">
        <ele>160.6</ele>
        <time>2025-02-25T08:21:40Z</time>
      </trkpt>
      <trkpt lat="48.09041" lon="-3.57489">
        <ele>160.7</ele>
        <time>2025-02-25T08:21:41Z</time>
      </trkpt>
      <trkpt lat="48.09039" lon="-3.57489">
        <ele>160.8</ele>
        <time>2025-02-25T08:21:42Z</time>
      </trkpt>
      <trkpt lat="48.09038" lon="-3.57491">
        <ele>160.8</ele>
        <time>2025-02-25T08:21:43Z</time>
      </trkpt>
      <trkpt lat="48.09037" lon="-3.57492">
        <ele>160.8</ele>
        <time>2025-02-25T08:21:44Z</time>
      </trkpt>
      <trkpt lat="48.09035" lon="-3.57493">
        <ele>160.9</ele>
        <time>2025-02-25T08:21:45Z</time>
      </trkpt>
      <trkpt lat="48.09034" lon="-3.57493">
        <ele>161</ele>
        <time>2025-02-25T08:21:46Z</time>
      </trkpt>
      <trkpt lat="48.09033" lon="-3.57495">
        <ele>161</ele>
        <time>2025-02-25T08:21:47Z</time>
      </trkpt>
      <trkpt lat="48.09032" lon="-3.57496">
        <ele>161</ele>
        <time>2025-02-25T08:21:48Z</time>
      </trkpt>
      <trkpt lat="48.09031" lon="-3.57498">
        <ele>160.9</ele>
        <time>2025-02-25T08:21:49Z</time>
      </trkpt>
      <trkpt lat="48.0903" lon="-3.57498">
        <ele>161</ele>
        <time>2025-02-25T08:21:50Z</time>
      </trkpt>
      <trkpt lat="48.09029" lon="-3.57499">
        <ele>161</ele>
        <time>2025-02-25T08:21:51Z</time>
      </trkpt>
      <trkpt lat="48.09028" lon="-3.575">
        <ele>161</ele>
        <time>2025-02-25T08:21:52Z</time>
      </trkpt>
      <trkpt lat="48.09028" lon="-3.57501">
        <ele>160.9</ele>
        <time>2025-02-25T08:21:53Z</time>
      </trkpt>
      <trkpt lat="48.09026" lon="-3.57502">
        <ele>161.1</ele>
        <time>2025-02-25T08:21:54Z</time>
      </trkpt>
      <trkpt lat="48.09025" lon="-3.57503">
        <ele>161.1</ele>
        <time>2025-02-25T08:21:55Z</time>
      </trkpt>
      <trkpt lat="48.09024" lon="-3.57504">
        <ele>161.1</ele>
        <time>2025-02-25T08:21:56Z</time>
      </trkpt>
      <trkpt lat="48.09023" lon="-3.57505">
        <ele>161.1</ele>
        <time>2025-02-25T08:21:57Z</time>
      </trkpt>
      <trkpt lat="48.09022" lon="-3.57506">
        <ele>161.2</ele>
        <time>2025-02-25T08:21:58Z</time>
      </trkpt>
      <trkpt lat="48.09021" lon="-3.57506">
        <ele>161.2</ele>
        <time>2025-02-25T08:21:59Z</time>
      </trkpt>
      <trkpt lat="48.0902" lon="-3.57507">
        <ele>161.2</ele>
        <time>2025-02-25T08:22:00Z</time>
      </trkpt>
      <trkpt lat="48.09019" lon="-3.57508">
        <ele>161.3</ele>
        <time>2025-02-25T08:22:01Z</time>
      </trkpt>
      <trkpt lat="48.09018" lon="-3.57508">
        <ele>161.3</ele>
        <time>2025-02-25T08:22:02Z</time>
      </trkpt>
      <trkpt lat="48.09017" lon="-3.57509">
        <ele>161.3</ele>
        <time>2025-02-25T08:22:03Z</time>
      </trkpt>
      <trkpt lat="48.09017" lon="-3.57511">
        <ele>161.2</ele>
        <time>2025-02-25T08:22:04Z</time>
      </trkpt>
      <trkpt lat="48.09016" lon="-3.57511">
        <ele>161.3</ele>
        <time>2025-02-25T08:22:05Z</time>
      </trkpt>
      <trkpt lat="48.09015" lon="-3.57512">
        <ele>161.3</ele>
        <time>2025-02-25T08:22:06Z</time>
      </trkpt>
      <trkpt lat="48.09013" lon="-3.57512">
        <ele>161.4</ele>
        <time>2025-02-25T08:22:07Z</time>
      </trkpt>
      <trkpt lat="48.09012" lon="-3.57512">
        <ele>161.5</ele>
        <time>2025-02-25T08:22:08Z</time>
      </trkpt>
      <trkpt lat="48.09011" lon="-3.57513">
        <ele>161.5</ele>
        <time>2025-02-25T08:22:09Z</time>
      </trkpt>
      <trkpt lat="48.0901" lon="-3.57514">
        <ele>161.5</ele>
        <time>2025-02-25T08:22:10Z</time>
      </trkpt>
      <trkpt lat="48.09009" lon="-3.57515">
        <ele>161.4</ele>
        <time>2025-02-25T08:22:11Z</time>
      </trkpt>
      <trkpt lat="48.09008" lon="-3.57516">
        <ele>161.4</ele>
        <time>2025-02-25T08:22:12Z</time>
      </trkpt>
      <trkpt lat="48.09007" lon="-3.57517">
        <ele>161.4</ele>
        <time>2025-02-25T08:22:13Z</time>
      </trkpt>
      <trkpt lat="48.09006" lon="-3.57518">
        <ele>161.4</ele>
        <time>2025-02-25T08:22:14Z</time>
      </trkpt>
      <trkpt lat="48.09005" lon="-3.57519">
        <ele>161.4</ele>
        <time>2025-02-25T08:22:15Z</time>
      </trkpt>
      <trkpt lat="48.09004" lon="-3.5752">
        <ele>161.4</ele>
        <time>2025-02-25T08:22:16Z</time>
      </trkpt>
      <trkpt lat="48.09004" lon="-3.57522">
        <ele>161.2</ele>
        <time>2025-02-25T08:22:17Z</time>
      </trkpt>
      <trkpt lat="48.09003" lon="-3.57523">
        <ele>161.2</ele>
        <time>2025-02-25T08:22:18Z</time>
      </trkpt>
      <trkpt lat="48.09002" lon="-3.57524">
        <ele>161.2</ele>
        <time>2025-02-25T08:22:19Z</time>
      </trkpt>
      <trkpt lat="48.09" lon="-3.57524">
        <ele>161.3</ele>
        <time>2025-02-25T08:22:20Z</time>
      </trkpt>
      <trkpt lat="48.08999" lon="-3.57525">
        <ele>161.3</ele>
        <time>2025-02-25T08:22:21Z</time>
      </trkpt>
      <trkpt lat="48.08999" lon="-3.57526">
        <ele>161.2</ele>
        <time>2025-02-25T08:22:22Z</time>
      </trkpt>
      <trkpt lat="48.08998" lon="-3.57527">
        <ele>161.2</ele>
        <time>2025-02-25T08:22:23Z</time>
      </trkpt>
      <trkpt lat="48.08997" lon="-3.57528">
        <ele>161.2</ele>
        <time>2025-02-25T08:22:24Z</time>
      </trkpt>
      <trkpt lat="48.08996" lon="-3.57528">
        <ele>161.3</ele>
        <time>2025-02-25T08:22:25Z</time>
      </trkpt>
      <trkpt lat="48.08995" lon="-3.57529">
        <ele>161.3</ele>
        <time>2025-02-25T08:22:26Z</time>
      </trkpt>
      <trkpt lat="48.08994" lon="-3.57529">
        <ele>161.4</ele>
        <time>2025-02-25T08:22:27Z</time>
      </trkpt>
      <trkpt lat="48.08993" lon="-3.5753">
        <ele>161.4</ele>
        <time>2025-02-25T08:22:28Z</time>
      </trkpt>
      <trkpt lat="48.08992" lon="-3.57532">
        <ele>161.4</ele>
        <time>2025-02-25T08:22:29Z</time>
      </trkpt>
      <trkpt lat="48.08991" lon="-3.57532">
        <ele>161.4</ele>
        <time>2025-02-25T08:22:30Z</time>
      </trkpt>
      <trkpt lat="48.0899" lon="-3.57533">
        <ele>161.5</ele>
        <time>2025-02-25T08:22:31Z</time>
      </trkpt>
      <trkpt lat="48.08989" lon="-3.57534">
        <ele>161.5</ele>
        <time>2025-02-25T08:22:32Z</time>
      </trkpt>
      <trkpt lat="48.08988" lon="-3.57534">
        <ele>161.5</ele>
        <time>2025-02-25T08:22:33Z</time>
      </trkpt>
      <trkpt lat="48.08987" lon="-3.57535">
        <ele>161.6</ele>
        <time>2025-02-25T08:22:34Z</time>
      </trkpt>
      <trkpt lat="48.08986" lon="-3.57537">
        <ele>161.5</ele>
        <time>2025-02-25T08:22:35Z</time>
      </trkpt>
      <trkpt lat="48.08985" lon="-3.57537">
        <ele>161.6</ele>
        <time>2025-02-25T08:22:36Z</time>
      </trkpt>
      <trkpt lat="48.08984" lon="-3.57538">
        <ele>161.6</ele>
        <time>2025-02-25T08:22:37Z</time>
      </trkpt>
      <trkpt lat="48.08984" lon="-3.57539">
        <ele>161.5</ele>
        <time>2025-02-25T08:22:38Z</time>
      </trkpt>
      <trkpt lat="48.08983" lon="-3.5754">
        <ele>161.5</ele>
        <time>2025-02-25T08:22:39Z</time>
      </trkpt>
      <trkpt lat="48.08982" lon="-3.57541">
        <ele>161.5</ele>
        <time>2025-02-25T08:22:40Z</time>
      </trkpt>
      <trkpt lat="48.08981" lon="-3.57543">
        <ele>161.4</ele>
        <time>2025-02-25T08:22:41Z</time>
      </trkpt>
      <trkpt lat="48.0898" lon="-3.57543">
        <ele>161.5</ele>
        <time>2025-02-25T08:22:42Z</time>
      </trkpt>
      <trkpt lat="48.08979" lon="-3.57544">
        <ele>161.5</ele>
        <time>2025-02-25T08:22:43Z</time>
      </trkpt>
      <trkpt lat="48.08979" lon="-3.57545">
        <ele>161.4</ele>
        <time>2025-02-25T08:22:44Z</time>
      </trkpt>
      <trkpt lat="48.08978" lon="-3.57547">
        <ele>161.3</ele>
        <time>2025-02-25T08:22:45Z</time>
      </trkpt>
      <trkpt lat="48.08977" lon="-3.57547">
        <ele>161.4</ele>
        <time>2025-02-25T08:22:46Z</time>
      </trkpt>
      <trkpt lat="48.08976" lon="-3.57548">
        <ele>161.4</ele>
        <time>2025-02-25T08:22:47Z</time>
      </trkpt>
      <trkpt lat="48.08974" lon="-3.57548">
        <ele>161.5</ele>
        <time>2025-02-25T08:22:48Z</time>
      </trkpt>
      <trkpt lat="48.08974" lon="-3.5755">
        <ele>161.3</ele>
        <time>2025-02-25T08:22:49Z</time>
      </trkpt>
      <trkpt lat="48.08974" lon="-3.5755">
        <ele>161.3</ele>
        <time>2025-02-25T08:22:50Z</time>
      </trkpt>
      <trkpt lat="48.08973" lon="-3.57551">
        <ele>161.3</ele>
        <time>2025-02-25T08:22:51Z</time>
      </trkpt>
      <trkpt lat="48.08971" lon="-3.57551">
        <ele>161.4</ele>
        <time>2025-02-25T08:22:52Z</time>
      </trkpt>
      <trkpt lat="48.0897" lon="-3.57553">
        <ele>161.4</ele>
        <time>2025-02-25T08:22:53Z</time>
      </trkpt>
      <trkpt lat="48.0897" lon="-3.57554">
        <ele>161.3</ele>
        <time>2025-02-25T08:22:54Z</time>
      </trkpt>
      <trkpt lat="48.08968" lon="-3.57555">
        <ele>161.3</ele>
        <time>2025-02-25T08:22:55Z</time>
      </trkpt>
      <trkpt lat="48.08967" lon="-3.57556">
        <ele>161.4</ele>
        <time>2025-02-25T08:22:56Z</time>
      </trkpt>
      <trkpt lat="48.08966" lon="-3.57556">
        <ele>161.4</ele>
        <time>2025-02-25T08:22:57Z</time>
      </trkpt>
      <trkpt lat="48.08965" lon="-3.57557">
        <ele>161.5</ele>
        <time>2025-02-25T08:22:58Z</time>
      </trkpt>
      <trkpt lat="48.08964" lon="-3.57558">
        <ele>161.5</ele>
        <time>2025-02-25T08:22:59Z</time>
      </trkpt>
      <trkpt lat="48.08963" lon="-3.57559">
        <ele>161.6</ele>
        <time>2025-02-25T08:23:00Z</time>
      </trkpt>
      <trkpt lat="48.08962" lon="-3.57559">
        <ele>161.6</ele>
        <time>2025-02-25T08:23:01Z</time>
      </trkpt>
      <trkpt lat="48.08961" lon="-3.5756">
        <ele>161.7</ele>
        <time>2025-02-25T08:23:02Z</time>
      </trkpt>
      <trkpt lat="48.0896" lon="-3.5756">
        <ele>161.7</ele>
        <time>2025-02-25T08:23:03Z</time>
      </trkpt>
      <trkpt lat="48.08959" lon="-3.57562">
        <ele>161.7</ele>
        <time>2025-02-25T08:23:04Z</time>
      </trkpt>
      <trkpt lat="48.08958" lon="-3.57563">
        <ele>161.7</ele>
        <time>2025-02-25T08:23:05Z</time>
      </trkpt>
      <trkpt lat="48.08957" lon="-3.57564">
        <ele>161.8</ele>
        <time>2025-02-25T08:23:06Z</time>
      </trkpt>
      <trkpt lat="48.08956" lon="-3.57564">
        <ele>161.8</ele>
        <time>2025-02-25T08:23:07Z</time>
      </trkpt>
      <trkpt lat="48.08955" lon="-3.57565">
        <ele>161.8</ele>
        <time>2025-02-25T08:23:08Z</time>
      </trkpt>
      <trkpt lat="48.08954" lon="-3.57566">
        <ele>161.8</ele>
        <time>2025-02-25T08:23:09Z</time>
      </trkpt>
      <trkpt lat="48.08953" lon="-3.57567">
        <ele>161.8</ele>
        <time>2025-02-25T08:23:10Z</time>
      </trkpt>
      <trkpt lat="48.08952" lon="-3.57568">
        <ele>161.8</ele>
        <time>2025-02-25T08:23:11Z</time>
      </trkpt>
      <trkpt lat="48.08951" lon="-3.5757">
        <ele>161.7</ele>
        <time>2025-02-25T08:23:12Z</time>
      </trkpt>
      <trkpt lat="48.0895" lon="-3.57571">
        <ele>161.7</ele>
        <time>2025-02-25T08:23:13Z</time>
      </trkpt>
      <trkpt lat="48.08949" lon="-3.57572">
        <ele>161.7</ele>
        <time>2025-02-25T08:23:14Z</time>
      </trkpt>
      <trkpt lat="48.08948" lon="-3.57572">
        <ele>161.7</ele>
        <time>2025-02-25T08:23:15Z</time>
      </trkpt>
      <trkpt lat="48.08947" lon="-3.57573">
        <ele>161.7</ele>
        <time>2025-02-25T08:23:16Z</time>
      </trkpt>
      <trkpt lat="48.08946" lon="-3.57574">
        <ele>161.6</ele>
        <time>2025-02-25T08:23:17Z</time>
      </trkpt>
      <trkpt lat="48.08945" lon="-3.57575">
        <ele>161.6</ele>
        <time>2025-02-25T08:23:18Z</time>
      </trkpt>
      <trkpt lat="48.08944" lon="-3.57576">
        <ele>161.6</ele>
        <time>2025-02-25T08:23:19Z</time>
      </trkpt>
      <trkpt lat="48.08943" lon="-3.57577">
        <ele>161.6</ele>
        <time>2025-02-25T08:23:20Z</time>
      </trkpt>
      <trkpt lat="48.08942" lon="-3.57578">
        <ele>161.6</ele>
        <time>2025-02-25T08:23:21Z</time>
      </trkpt>
      <trkpt lat="48.08941" lon="-3.57579">
        <ele>161.6</ele>
        <time>2025-02-25T08:23:22Z</time>
      </trkpt>
      <trkpt lat="48.0894" lon="-3.5758">
        <ele>161.6</ele>
        <time>2025-02-25T08:23:23Z</time>
      </trkpt>
      <trkpt lat="48.08939" lon="-3.5758">
        <ele>161.6</ele>
        <time>2025-02-25T08:23:24Z</time>
      </trkpt>
      <trkpt lat="48.08938" lon="-3.57581">
        <ele>161.6</ele>
        <time>2025-02-25T08:23:25Z</time>
      </trkpt>
      <trkpt lat="48.08936" lon="-3.57582">
        <ele>161.7</ele>
        <time>2025-02-25T08:23:26Z</time>
      </trkpt>
      <trkpt lat="48.08935" lon="-3.57584">
        <ele>161.7</ele>
        <time>2025-02-25T08:23:27Z</time>
      </trkpt>
      <trkpt lat="48.08934" lon="-3.57585">
        <ele>161.7</ele>
        <time>2025-02-25T08:23:28Z</time>
      </trkpt>
      <trkpt lat="48.08933" lon="-3.57586">
        <ele>161.7</ele>
        <time>2025-02-25T08:23:29Z</time>
      </trkpt>
      <trkpt lat="48.08932" lon="-3.57588">
        <ele>161.7</ele>
        <time>2025-02-25T08:23:30Z</time>
      </trkpt>
      <trkpt lat="48.08931" lon="-3.57588">
        <ele>161.8</ele>
        <time>2025-02-25T08:23:31Z</time>
      </trkpt>
      <trkpt lat="48.08931" lon="-3.57589">
        <ele>161.8</ele>
        <time>2025-02-25T08:23:32Z</time>
      </trkpt>
      <trkpt lat="48.08929" lon="-3.5759">
        <ele>161.8</ele>
        <time>2025-02-25T08:23:33Z</time>
      </trkpt>
      <trkpt lat="48.08928" lon="-3.57591">
        <ele>161.9</ele>
        <time>2025-02-25T08:23:34Z</time>
      </trkpt>
      <trkpt lat="48.08927" lon="-3.57592">
        <ele>161.9</ele>
        <time>2025-02-25T08:23:35Z</time>
      </trkpt>
      <trkpt lat="48.08926" lon="-3.57592">
        <ele>161.9</ele>
        <time>2025-02-25T08:23:36Z</time>
      </trkpt>
      <trkpt lat="48.08925" lon="-3.57593">
        <ele>161.9</ele>
        <time>2025-02-25T08:23:37Z</time>
      </trkpt>
      <trkpt lat="48.08924" lon="-3.57595">
        <ele>161.9</ele>
        <time>2025-02-25T08:23:38Z</time>
      </trkpt>
      <trkpt lat="48.08923" lon="-3.57596">
        <ele>161.8</ele>
        <time>2025-02-25T08:23:39Z</time>
      </trkpt>
      <trkpt lat="48.08922" lon="-3.57596">
        <ele>161.9</ele>
        <time>2025-02-25T08:23:40Z</time>
      </trkpt>
      <trkpt lat="48.08921" lon="-3.57597">
        <ele>161.9</ele>
        <time>2025-02-25T08:23:41Z</time>
      </trkpt>
      <trkpt lat="48.0892" lon="-3.57598">
        <ele>161.8</ele>
        <time>2025-02-25T08:23:42Z</time>
      </trkpt>
      <trkpt lat="48.08919" lon="-3.57599">
        <ele>161.8</ele>
        <time>2025-02-25T08:23:43Z</time>
      </trkpt>
      <trkpt lat="48.08918" lon="-3.576">
        <ele>161.8</ele>
        <time>2025-02-25T08:23:44Z</time>
      </trkpt>
      <trkpt lat="48.08917" lon="-3.57601">
        <ele>161.7</ele>
        <time>2025-02-25T08:23:45Z</time>
      </trkpt>
      <trkpt lat="48.08915" lon="-3.57602">
        <ele>161.7</ele>
        <time>2025-02-25T08:23:46Z</time>
      </trkpt>
      <trkpt lat="48.08914" lon="-3.57603">
        <ele>161.7</ele>
        <time>2025-02-25T08:23:47Z</time>
      </trkpt>
      <trkpt lat="48.08913" lon="-3.57604">
        <ele>161.6</ele>
        <time>2025-02-25T08:23:48Z</time>
      </trkpt>
      <trkpt lat="48.08912" lon="-3.57605">
        <ele>161.6</ele>
        <time>2025-02-25T08:23:49Z</time>
      </trkpt>
      <trkpt lat="48.08912" lon="-3.57607">
        <ele>161.5</ele>
        <time>2025-02-25T08:23:50Z</time>
      </trkpt>
      <trkpt lat="48.08911" lon="-3.57608">
        <ele>161.4</ele>
        <time>2025-02-25T08:23:51Z</time>
      </trkpt>
      <trkpt lat="48.0891" lon="-3.57608">
        <ele>161.5</ele>
        <time>2025-02-25T08:23:52Z</time>
      </trkpt>
      <trkpt lat="48.08909" lon="-3.57609">
        <ele>161.4</ele>
        <time>2025-02-25T08:23:53Z</time>
      </trkpt>
      <trkpt lat="48.08908" lon="-3.5761">
        <ele>161.4</ele>
        <time>2025-02-25T08:23:54Z</time>
      </trkpt>
      <trkpt lat="48.08907" lon="-3.57611">
        <ele>161.4</ele>
        <time>2025-02-25T08:23:55Z</time>
      </trkpt>
      <trkpt lat="48.08906" lon="-3.57611">
        <ele>161.4</ele>
        <time>2025-02-25T08:23:56Z</time>
      </trkpt>
      <trkpt lat="48.08906" lon="-3.57612">
        <ele>161.3</ele>
        <time>2025-02-25T08:23:57Z</time>
      </trkpt>
      <trkpt lat="48.08905" lon="-3.57614">
        <ele>161.3</ele>
        <time>2025-02-25T08:23:58Z</time>
      </trkpt>
      <trkpt lat="48.08904" lon="-3.57615">
        <ele>161.3</ele>
        <time>2025-02-25T08:23:59Z</time>
      </trkpt>
      <trkpt lat="48.08904" lon="-3.57616">
        <ele>161.2</ele>
        <time>2025-02-25T08:24:00Z</time>
      </trkpt>
      <trkpt lat="48.08903" lon="-3.57617">
        <ele>161.2</ele>
        <time>2025-02-25T08:24:01Z</time>
      </trkpt>
      <trkpt lat="48.08902" lon="-3.57618">
        <ele>161.1</ele>
        <time>2025-02-25T08:24:02Z</time>
      </trkpt>
      <trkpt lat="48.08901" lon="-3.57619">
        <ele>161.1</ele>
        <time>2025-02-25T08:24:03Z</time>
      </trkpt>
      <trkpt lat="48.089" lon="-3.5762">
        <ele>161.1</ele>
        <time>2025-02-25T08:24:04Z</time>
      </trkpt>
      <trkpt lat="48.08899" lon="-3.57621">
        <ele>161.1</ele>
        <time>2025-02-25T08:24:05Z</time>
      </trkpt>
      <trkpt lat="48.08899" lon="-3.57622">
        <ele>161</ele>
        <time>2025-02-25T08:24:06Z</time>
      </trkpt>
      <trkpt lat="48.08898" lon="-3.57624">
        <ele>160.9</ele>
        <time>2025-02-25T08:24:07Z</time>
      </trkpt>
      <trkpt lat="48.08897" lon="-3.57625">
        <ele>160.9</ele>
        <time>2025-02-25T08:24:08Z</time>
      </trkpt>
      <trkpt lat="48.08896" lon="-3.57627">
        <ele>160.7</ele>
        <time>2025-02-25T08:24:09Z</time>
      </trkpt>
      <trkpt lat="48.08896" lon="-3.57628">
        <ele>160.7</ele>
        <time>2025-02-25T08:24:10Z</time>
      </trkpt>
      <trkpt lat="48.08895" lon="-3.57629">
        <ele>160.6</ele>
        <time>2025-02-25T08:24:11Z</time>
      </trkpt>
      <trkpt lat="48.08894" lon="-3.5763">
        <ele>160.6</ele>
        <time>2025-02-25T08:24:12Z</time>
      </trkpt>
      <trkpt lat="48.08894" lon="-3.57632">
        <ele>160.5</ele>
        <time>2025-02-25T08:24:13Z</time>
      </trkpt>
      <trkpt lat="48.08893" lon="-3.57634">
        <ele>160.3</ele>
        <time>2025-02-25T08:24:14Z</time>
      </trkpt>
      <trkpt lat="48.08892" lon="-3.57635">
        <ele>160.3</ele>
        <time>2025-02-25T08:24:15Z</time>
      </trkpt>
      <trkpt lat="48.08891" lon="-3.57636">
        <ele>160.2</ele>
        <time>2025-02-25T08:24:16Z</time>
      </trkpt>
      <trkpt lat="48.0889" lon="-3.57638">
        <ele>160.1</ele>
        <time>2025-02-25T08:24:17Z</time>
      </trkpt>
      <trkpt lat="48.0889" lon="-3.57639">
        <ele>160</ele>
        <time>2025-02-25T08:24:18Z</time>
      </trkpt>
      <trkpt lat="48.08888" lon="-3.5764">
        <ele>160.1</ele>
        <time>2025-02-25T08:24:19Z</time>
      </trkpt>
      <trkpt lat="48.08887" lon="-3.57642">
        <ele>160.1</ele>
        <time>2025-02-25T08:24:20Z</time>
      </trkpt>
      <trkpt lat="48.08887" lon="-3.57643">
        <ele>160</ele>
        <time>2025-02-25T08:24:21Z</time>
      </trkpt>
      <trkpt lat="48.08886" lon="-3.57645">
        <ele>160.1</ele>
        <time>2025-02-25T08:24:22Z</time>
      </trkpt>
      <trkpt lat="48.08885" lon="-3.57646">
        <ele>160.1</ele>
        <time>2025-02-25T08:24:23Z</time>
      </trkpt>
      <trkpt lat="48.08885" lon="-3.57648">
        <ele>160</ele>
        <time>2025-02-25T08:24:24Z</time>
      </trkpt>
      <trkpt lat="48.08884" lon="-3.5765">
        <ele>160.1</ele>
        <time>2025-02-25T08:24:25Z</time>
      </trkpt>
      <trkpt lat="48.08883" lon="-3.5765">
        <ele>160.2</ele>
        <time>2025-02-25T08:24:26Z</time>
      </trkpt>
      <trkpt lat="48.08882" lon="-3.57652">
        <ele>160.2</ele>
        <time>2025-02-25T08:24:27Z</time>
      </trkpt>
      <trkpt lat="48.08881" lon="-3.57653">
        <ele>160.2</ele>
        <time>2025-02-25T08:24:28Z</time>
      </trkpt>
      <trkpt lat="48.0888" lon="-3.57654">
        <ele>160.2</ele>
        <time>2025-02-25T08:24:29Z</time>
      </trkpt>
      <trkpt lat="48.08879" lon="-3.57655">
        <ele>160.3</ele>
        <time>2025-02-25T08:24:30Z</time>
      </trkpt>
      <trkpt lat="48.08879" lon="-3.57657">
        <ele>160.2</ele>
        <time>2025-02-25T08:24:31Z</time>
      </trkpt>
      <trkpt lat="48.08878" lon="-3.57658">
        <ele>160.2</ele>
        <time>2025-02-25T08:24:32Z</time>
      </trkpt>
      <trkpt lat="48.08877" lon="-3.5766">
        <ele>160.2</ele>
        <time>2025-02-25T08:24:33Z</time>
      </trkpt>
      <trkpt lat="48.08877" lon="-3.57662">
        <ele>160.1</ele>
        <time>2025-02-25T08:24:34Z</time>
      </trkpt>
      <trkpt lat="48.08876" lon="-3.57664">
        <ele>160.1</ele>
        <time>2025-02-25T08:24:35Z</time>
      </trkpt>
      <trkpt lat="48.08876" lon="-3.57666">
        <ele>160</ele>
        <time>2025-02-25T08:24:36Z</time>
      </trkpt>
      <trkpt lat="48.08876" lon="-3.57668">
        <ele>159.9</ele>
        <time>2025-02-25T08:24:37Z</time>
      </trkpt>
      <trkpt lat="48.08874" lon="-3.57669">
        <ele>160</ele>
        <time>2025-02-25T08:24:38Z</time>
      </trkpt>
      <trkpt lat="48.08873" lon="-3.5767">
        <ele>160</ele>
        <time>2025-02-25T08:24:39Z</time>
      </trkpt>
      <trkpt lat="48.08872" lon="-3.57671">
        <ele>160.1</ele>
        <time>2025-02-25T08:24:40Z</time>
      </trkpt>
      <trkpt lat="48.08871" lon="-3.57672">
        <ele>160.1</ele>
        <time>2025-02-25T08:24:41Z</time>
      </trkpt>
      <trkpt lat="48.0887" lon="-3.57673">
        <ele>160.1</ele>
        <time>2025-02-25T08:24:42Z</time>
      </trkpt>
      <trkpt lat="48.08869" lon="-3.57675">
        <ele>160.1</ele>
        <time>2025-02-25T08:24:43Z</time>
      </trkpt>
      <trkpt lat="48.08869" lon="-3.57676">
        <ele>160.1</ele>
        <time>2025-02-25T08:24:44Z</time>
      </trkpt>
      <trkpt lat="48.08868" lon="-3.57678">
        <ele>160.1</ele>
        <time>2025-02-25T08:24:45Z</time>
      </trkpt>
      <trkpt lat="48.08868" lon="-3.57679">
        <ele>160.1</ele>
        <time>2025-02-25T08:24:46Z</time>
      </trkpt>
      <trkpt lat="48.08867" lon="-3.57681">
        <ele>160.1</ele>
        <time>2025-02-25T08:24:47Z</time>
      </trkpt>
      <trkpt lat="48.08866" lon="-3.57682">
        <ele>160.1</ele>
        <time>2025-02-25T08:24:48Z</time>
      </trkpt>
      <trkpt lat="48.08865" lon="-3.57684">
        <ele>160.1</ele>
        <time>2025-02-25T08:24:49Z</time>
      </trkpt>
      <trkpt lat="48.08865" lon="-3.57686">
        <ele>160</ele>
        <time>2025-02-25T08:24:50Z</time>
      </trkpt>
      <trkpt lat="48.08864" lon="-3.57687">
        <ele>160.1</ele>
        <time>2025-02-25T08:24:51Z</time>
      </trkpt>
      <trkpt lat="48.08863" lon="-3.57689">
        <ele>160.1</ele>
        <time>2025-02-25T08:24:52Z</time>
      </trkpt>
      <trkpt lat="48.08863" lon="-3.5769">
        <ele>160</ele>
        <time>2025-02-25T08:24:53Z</time>
      </trkpt>
      <trkpt lat="48.08862" lon="-3.57692">
        <ele>160</ele>
        <time>2025-02-25T08:24:54Z</time>
      </trkpt>
      <trkpt lat="48.08862" lon="-3.57694">
        <ele>160</ele>
        <time>2025-02-25T08:24:55Z</time>
      </trkpt>
      <trkpt lat="48.08862" lon="-3.57696">
        <ele>159.9</ele>
        <time>2025-02-25T08:24:56Z</time>
      </trkpt>
      <trkpt lat="48.08862" lon="-3.57697">
        <ele>159.8</ele>
        <time>2025-02-25T08:24:57Z</time>
      </trkpt>
      <trkpt lat="48.08861" lon="-3.57699">
        <ele>159.8</ele>
        <time>2025-02-25T08:24:58Z</time>
      </trkpt>
      <trkpt lat="48.0886" lon="-3.57701">
        <ele>159.8</ele>
        <time>2025-02-25T08:24:59Z</time>
      </trkpt>
      <trkpt lat="48.08859" lon="-3.57703">
        <ele>159.8</ele>
        <time>2025-02-25T08:25:00Z</time>
      </trkpt>
      <trkpt lat="48.08859" lon="-3.57705">
        <ele>159.8</ele>
        <time>2025-02-25T08:25:01Z</time>
      </trkpt>
      <trkpt lat="48.08858" lon="-3.57706">
        <ele>159.8</ele>
        <time>2025-02-25T08:25:02Z</time>
      </trkpt>
      <trkpt lat="48.08857" lon="-3.57708">
        <ele>159.8</ele>
        <time>2025-02-25T08:25:03Z</time>
      </trkpt>
      <trkpt lat="48.08857" lon="-3.5771">
        <ele>159.7</ele>
        <time>2025-02-25T08:25:04Z</time>
      </trkpt>
      <trkpt lat="48.08856" lon="-3.57712">
        <ele>159.7</ele>
        <time>2025-02-25T08:25:05Z</time>
      </trkpt>
      <trkpt lat="48.08855" lon="-3.57713">
        <ele>159.8</ele>
        <time>2025-02-25T08:25:06Z</time>
      </trkpt>
      <trkpt lat="48.08854" lon="-3.57714">
        <ele>159.8</ele>
        <time>2025-02-25T08:25:07Z</time>
      </trkpt>
      <trkpt lat="48.08854" lon="-3.57716">
        <ele>159.7</ele>
        <time>2025-02-25T08:25:08Z</time>
      </trkpt>
      <trkpt lat="48.08853" lon="-3.57718">
        <ele>159.7</ele>
        <time>2025-02-25T08:25:09Z</time>
      </trkpt>
      <trkpt lat="48.08852" lon="-3.5772">
        <ele>159.7</ele>
        <time>2025-02-25T08:25:10Z</time>
      </trkpt>
      <trkpt lat="48.08851" lon="-3.57721">
        <ele>159.8</ele>
        <time>2025-02-25T08:25:11Z</time>
      </trkpt>
      <trkpt lat="48.0885" lon="-3.57722">
        <ele>159.8</ele>
        <time>2025-02-25T08:25:12Z</time>
      </trkpt>
      <trkpt lat="48.08849" lon="-3.57723">
        <ele>159.9</ele>
        <time>2025-02-25T08:25:13Z</time>
      </trkpt>
      <trkpt lat="48.08848" lon="-3.57723">
        <ele>159.9</ele>
        <time>2025-02-25T08:25:14Z</time>
      </trkpt>
      <trkpt lat="48.08847" lon="-3.57724">
        <ele>160</ele>
        <time>2025-02-25T08:25:15Z</time>
      </trkpt>
      <trkpt lat="48.08846" lon="-3.57724">
        <ele>160.1</ele>
        <time>2025-02-25T08:25:16Z</time>
      </trkpt>
      <trkpt lat="48.08845" lon="-3.57725">
        <ele>160.2</ele>
        <time>2025-02-25T08:25:17Z</time>
      </trkpt>
      <trkpt lat="48.08843" lon="-3.57725">
        <ele>160.3</ele>
        <time>2025-02-25T08:25:18Z</time>
      </trkpt>
      <trkpt lat="48.08842" lon="-3.57725">
        <ele>160.4</ele>
        <time>2025-02-25T08:25:19Z</time>
      </trkpt>
      <trkpt lat="48.08841" lon="-3.57726">
        <ele>160.4</ele>
        <time>2025-02-25T08:25:20Z</time>
      </trkpt>
      <trkpt lat="48.0884" lon="-3.57726">
        <ele>160.5</ele>
        <time>2025-02-25T08:25:21Z</time>
      </trkpt>
      <trkpt lat="48.08839" lon="-3.57726">
        <ele>160.6</ele>
        <time>2025-02-25T08:25:22Z</time>
      </trkpt>
      <trkpt lat="48.08838" lon="-3.57726">
        <ele>160.7</ele>
        <time>2025-02-25T08:25:23Z</time>
      </trkpt>
      <trkpt lat="48.08837" lon="-3.57725">
        <ele>160.7</ele>
        <time>2025-02-25T08:25:24Z</time>
      </trkpt>
      <trkpt lat="48.08836" lon="-3.57725">
        <ele>160.8</ele>
        <time>2025-02-25T08:25:25Z</time>
      </trkpt>
      <trkpt lat="48.08835" lon="-3.57724">
        <ele>160.9</ele>
        <time>2025-02-25T08:25:26Z</time>
      </trkpt>
      <trkpt lat="48.08833" lon="-3.57723">
        <ele>161</ele>
        <time>2025-02-25T08:25:27Z</time>
      </trkpt>
      <trkpt lat="48.08832" lon="-3.57724">
        <ele>161</ele>
        <time>2025-02-25T08:25:28Z</time>
      </trkpt>
      <trkpt lat="48.0883" lon="-3.57724">
        <ele>161.1</ele>
        <time>2025-02-25T08:25:29Z</time>
      </trkpt>
      <trkpt lat="48.08829" lon="-3.57725">
        <ele>161.1</ele>
        <time>2025-02-25T08:25:30Z</time>
      </trkpt>
      <trkpt lat="48.08828" lon="-3.57725">
        <ele>161.2</ele>
        <time>2025-02-25T08:25:31Z</time>
      </trkpt>
      <trkpt lat="48.08827" lon="-3.57724">
        <ele>161.2</ele>
        <time>2025-02-25T08:25:32Z</time>
      </trkpt>
      <trkpt lat="48.08826" lon="-3.57724">
        <ele>161.2</ele>
        <time>2025-02-25T08:25:33Z</time>
      </trkpt>
      <trkpt lat="48.08825" lon="-3.57724">
        <ele>161.3</ele>
        <time>2025-02-25T08:25:34Z</time>
      </trkpt>
      <trkpt lat="48.08824" lon="-3.57723">
        <ele>161.3</ele>
        <time>2025-02-25T08:25:35Z</time>
      </trkpt>
      <trkpt lat="48.08823" lon="-3.57722">
        <ele>161.4</ele>
        <time>2025-02-25T08:25:36Z</time>
      </trkpt>
      <trkpt lat="48.08821" lon="-3.57722">
        <ele>161.4</ele>
        <time>2025-02-25T08:25:37Z</time>
      </trkpt>
      <trkpt lat="48.0882" lon="-3.57723">
        <ele>161.5</ele>
        <time>2025-02-25T08:25:38Z</time>
      </trkpt>
      <trkpt lat="48.08819" lon="-3.57723">
        <ele>161.5</ele>
        <time>2025-02-25T08:25:39Z</time>
      </trkpt>
      <trkpt lat="48.08817" lon="-3.57722">
        <ele>161.6</ele>
        <time>2025-02-25T08:25:40Z</time>
      </trkpt>
      <trkpt lat="48.08816" lon="-3.57722">
        <ele>161.6</ele>
        <time>2025-02-25T08:25:41Z</time>
      </trkpt>
      <trkpt lat="48.08815" lon="-3.57722">
        <ele>161.7</ele>
        <time>2025-02-25T08:25:42Z</time>
      </trkpt>
      <trkpt lat="48.08814" lon="-3.57721">
        <ele>161.7</ele>
        <time>2025-02-25T08:25:43Z</time>
      </trkpt>
      <trkpt lat="48.08813" lon="-3.57721">
        <ele>161.7</ele>
        <time>2025-02-25T08:25:44Z</time>
      </trkpt>
      <trkpt lat="48.08811" lon="-3.57722">
        <ele>161.8</ele>
        <time>2025-02-25T08:25:45Z</time>
      </trkpt>
      <trkpt lat="48.0881" lon="-3.57722">
        <ele>161.8</ele>
        <time>2025-02-25T08:25:46Z</time>
      </trkpt>
      <trkpt lat="48.08809" lon="-3.57722">
        <ele>161.9</ele>
        <time>2025-02-25T08:25:47Z</time>
      </trkpt>
      <trkpt lat="48.08808" lon="-3.57721">
        <ele>161.9</ele>
        <time>2025-02-25T08:25:48Z</time>
      </trkpt>
      <trkpt lat="48.08807" lon="-3.57721">
        <ele>162</ele>
        <time>2025-02-25T08:25:49Z</time>
      </trkpt>
      <trkpt lat="48.08805" lon="-3.57721">
        <ele>162</ele>
        <time>2025-02-25T08:25:50Z</time>
      </trkpt>
      <trkpt lat="48.08804" lon="-3.57721">
        <ele>161.9</ele>
        <time>2025-02-25T08:25:51Z</time>
      </trkpt>
      <trkpt lat="48.08803" lon="-3.57721">
        <ele>161.9</ele>
        <time>2025-02-25T08:25:52Z</time>
      </trkpt>
      <trkpt lat="48.08802" lon="-3.57721">
        <ele>161.9</ele>
        <time>2025-02-25T08:25:53Z</time>
      </trkpt>
      <trkpt lat="48.088" lon="-3.57721">
        <ele>161.8</ele>
        <time>2025-02-25T08:25:54Z</time>
      </trkpt>
      <trkpt lat="48.08799" lon="-3.57721">
        <ele>161.8</ele>
        <time>2025-02-25T08:25:55Z</time>
      </trkpt>
      <trkpt lat="48.08798" lon="-3.57721">
        <ele>161.7</ele>
        <time>2025-02-25T08:25:56Z</time>
      </trkpt>
      <trkpt lat="48.08797" lon="-3.57721">
        <ele>161.7</ele>
        <time>2025-02-25T08:25:57Z</time>
      </trkpt>
      <trkpt lat="48.08795" lon="-3.5772">
        <ele>161.7</ele>
        <time>2025-02-25T08:25:58Z</time>
      </trkpt>
      <trkpt lat="48.08794" lon="-3.5772">
        <ele>161.6</ele>
        <time>2025-02-25T08:25:59Z</time>
      </trkpt>
      <trkpt lat="48.08793" lon="-3.5772">
        <ele>161.6</ele>
        <time>2025-02-25T08:26:00Z</time>
      </trkpt>
      <trkpt lat="48.08792" lon="-3.5772">
        <ele>161.6</ele>
        <time>2025-02-25T08:26:01Z</time>
      </trkpt>
      <trkpt lat="48.08791" lon="-3.5772">
        <ele>161.5</ele>
        <time>2025-02-25T08:26:02Z</time>
      </trkpt>
      <trkpt lat="48.0879" lon="-3.57719">
        <ele>161.5</ele>
        <time>2025-02-25T08:26:03Z</time>
      </trkpt>
      <trkpt lat="48.08789" lon="-3.57719">
        <ele>161.5</ele>
        <time>2025-02-25T08:26:04Z</time>
      </trkpt>
      <trkpt lat="48.08788" lon="-3.5772">
        <ele>161.4</ele>
        <time>2025-02-25T08:26:05Z</time>
      </trkpt>
      <trkpt lat="48.08786" lon="-3.57719">
        <ele>161.4</ele>
        <time>2025-02-25T08:26:06Z</time>
      </trkpt>
      <trkpt lat="48.08785" lon="-3.57719">
        <ele>161.3</ele>
        <time>2025-02-25T08:26:07Z</time>
      </trkpt>
      <trkpt lat="48.08784" lon="-3.57719">
        <ele>161.3</ele>
        <time>2025-02-25T08:26:08Z</time>
      </trkpt>
      <trkpt lat="48.08782" lon="-3.5772">
        <ele>161.2</ele>
        <time>2025-02-25T08:26:09Z</time>
      </trkpt>
      <trkpt lat="48.08781" lon="-3.57719">
        <ele>161.2</ele>
        <time>2025-02-25T08:26:10Z</time>
      </trkpt>
      <trkpt lat="48.0878" lon="-3.57718">
        <ele>161.2</ele>
        <time>2025-02-25T08:26:11Z</time>
      </trkpt>
      <trkpt lat="48.08779" lon="-3.57718">
        <ele>161.2</ele>
        <time>2025-02-25T08:26:12Z</time>
      </trkpt>
      <trkpt lat="48.08777" lon="-3.57718">
        <ele>161.1</ele>
        <time>2025-02-25T08:26:13Z</time>
      </trkpt>
      <trkpt lat="48.08776" lon="-3.57717">
        <ele>161.2</ele>
        <time>2025-02-25T08:26:14Z</time>
      </trkpt>
      <trkpt lat="48.08775" lon="-3.57717">
        <ele>161.2</ele>
        <time>2025-02-25T08:26:15Z</time>
      </trkpt>
      <trkpt lat="48.08774" lon="-3.57716">
        <ele>161.2</ele>
        <time>2025-02-25T08:26:16Z</time>
      </trkpt>
      <trkpt lat="48.08772" lon="-3.57715">
        <ele>161.2</ele>
        <time>2025-02-25T08:26:17Z</time>
      </trkpt>
      <trkpt lat="48.08771" lon="-3.57715">
        <ele>161.2</ele>
        <time>2025-02-25T08:26:18Z</time>
      </trkpt>
      <trkpt lat="48.0877" lon="-3.57714">
        <ele>161.2</ele>
        <time>2025-02-25T08:26:19Z</time>
      </trkpt>
      <trkpt lat="48.08769" lon="-3.57712">
        <ele>161.3</ele>
        <time>2025-02-25T08:26:20Z</time>
      </trkpt>
      <trkpt lat="48.08768" lon="-3.57711">
        <ele>161.3</ele>
        <time>2025-02-25T08:26:21Z</time>
      </trkpt>
      <trkpt lat="48.08767" lon="-3.57709">
        <ele>161.3</ele>
        <time>2025-02-25T08:26:22Z</time>
      </trkpt>
      <trkpt lat="48.08767" lon="-3.57708">
        <ele>161.3</ele>
        <time>2025-02-25T08:26:23Z</time>
      </trkpt>
      <trkpt lat="48.08766" lon="-3.57706">
        <ele>161.3</ele>
        <time>2025-02-25T08:26:24Z</time>
      </trkpt>
      <trkpt lat="48.08766" lon="-3.57704">
        <ele>161.4</ele>
        <time>2025-02-25T08:26:25Z</time>
      </trkpt>
      <trkpt lat="48.08765" lon="-3.57703">
        <ele>161.4</ele>
        <time>2025-02-25T08:26:26Z</time>
      </trkpt>
      <trkpt lat="48.08764" lon="-3.57701">
        <ele>161.4</ele>
        <time>2025-02-25T08:26:27Z</time>
      </trkpt>
      <trkpt lat="48.08763" lon="-3.577">
        <ele>161.4</ele>
        <time>2025-02-25T08:26:28Z</time>
      </trkpt>
      <trkpt lat="48.08763" lon="-3.57698">
        <ele>161.4</ele>
        <time>2025-02-25T08:26:29Z</time>
      </trkpt>
      <trkpt lat="48.08762" lon="-3.57697">
        <ele>161.4</ele>
        <time>2025-02-25T08:26:30Z</time>
      </trkpt>
      <trkpt lat="48.08761" lon="-3.57695">
        <ele>161.4</ele>
        <time>2025-02-25T08:26:31Z</time>
      </trkpt>
      <trkpt lat="48.0876" lon="-3.57694">
        <ele>161.4</ele>
        <time>2025-02-25T08:26:32Z</time>
      </trkpt>
      <trkpt lat="48.08759" lon="-3.57693">
        <ele>161.4</ele>
        <time>2025-02-25T08:26:33Z</time>
      </trkpt>
      <trkpt lat="48.08758" lon="-3.57692">
        <ele>161.4</ele>
        <time>2025-02-25T08:26:34Z</time>
      </trkpt>
      <trkpt lat="48.08757" lon="-3.5769">
        <ele>161.4</ele>
        <time>2025-02-25T08:26:35Z</time>
      </trkpt>
      <trkpt lat="48.08756" lon="-3.57689">
        <ele>161.4</ele>
        <time>2025-02-25T08:26:36Z</time>
      </trkpt>
      <trkpt lat="48.08755" lon="-3.57688">
        <ele>161.4</ele>
        <time>2025-02-25T08:26:37Z</time>
      </trkpt>
      <trkpt lat="48.08754" lon="-3.57686">
        <ele>161.4</ele>
        <time>2025-02-25T08:26:38Z</time>
      </trkpt>
      <trkpt lat="48.08753" lon="-3.57685">
        <ele>161.4</ele>
        <time>2025-02-25T08:26:39Z</time>
      </trkpt>
      <trkpt lat="48.08752" lon="-3.57684">
        <ele>161.4</ele>
        <time>2025-02-25T08:26:40Z</time>
      </trkpt>
      <trkpt lat="48.08751" lon="-3.57682">
        <ele>161.5</ele>
        <time>2025-02-25T08:26:41Z</time>
      </trkpt>
      <trkpt lat="48.08751" lon="-3.5768">
        <ele>161.6</ele>
        <time>2025-02-25T08:26:42Z</time>
      </trkpt>
      <trkpt lat="48.0875" lon="-3.57679">
        <ele>161.6</ele>
        <time>2025-02-25T08:26:43Z</time>
      </trkpt>
      <trkpt lat="48.08749" lon="-3.57678">
        <ele>161.6</ele>
        <time>2025-02-25T08:26:44Z</time>
      </trkpt>
      <trkpt lat="48.08748" lon="-3.57676">
        <ele>161.6</ele>
        <time>2025-02-25T08:26:45Z</time>
      </trkpt>
      <trkpt lat="48.08748" lon="-3.57675">
        <ele>161.6</ele>
        <time>2025-02-25T08:26:46Z</time>
      </trkpt>
      <trkpt lat="48.08746" lon="-3.57674">
        <ele>161.6</ele>
        <time>2025-02-25T08:26:47Z</time>
      </trkpt>
      <trkpt lat="48.08745" lon="-3.57673">
        <ele>161.6</ele>
        <time>2025-02-25T08:26:48Z</time>
      </trkpt>
      <trkpt lat="48.08744" lon="-3.57673">
        <ele>161.6</ele>
        <time>2025-02-25T08:26:49Z</time>
      </trkpt>
      <trkpt lat="48.08743" lon="-3.57672">
        <ele>161.6</ele>
        <time>2025-02-25T08:26:50Z</time>
      </trkpt>
      <trkpt lat="48.08742" lon="-3.57671">
        <ele>161.6</ele>
        <time>2025-02-25T08:26:51Z</time>
      </trkpt>
      <trkpt lat="48.08741" lon="-3.5767">
        <ele>161.6</ele>
        <time>2025-02-25T08:26:52Z</time>
      </trkpt>
      <trkpt lat="48.0874" lon="-3.57669">
        <ele>161.6</ele>
        <time>2025-02-25T08:26:53Z</time>
      </trkpt>
      <trkpt lat="48.08739" lon="-3.57668">
        <ele>161.6</ele>
        <time>2025-02-25T08:26:54Z</time>
      </trkpt>
      <trkpt lat="48.08738" lon="-3.57667">
        <ele>161.6</ele>
        <time>2025-02-25T08:26:55Z</time>
      </trkpt>
      <trkpt lat="48.08737" lon="-3.57666">
        <ele>161.5</ele>
        <time>2025-02-25T08:26:56Z</time>
      </trkpt>
      <trkpt lat="48.08736" lon="-3.57665">
        <ele>161.5</ele>
        <time>2025-02-25T08:26:57Z</time>
      </trkpt>
      <trkpt lat="48.08735" lon="-3.57664">
        <ele>161.5</ele>
        <time>2025-02-25T08:26:58Z</time>
      </trkpt>
      <trkpt lat="48.08734" lon="-3.57663">
        <ele>161.5</ele>
        <time>2025-02-25T08:26:59Z</time>
      </trkpt>
      <trkpt lat="48.08733" lon="-3.57662">
        <ele>161.5</ele>
        <time>2025-02-25T08:27:00Z</time>
      </trkpt>
      <trkpt lat="48.08732" lon="-3.57661">
        <ele>161.4</ele>
        <time>2025-02-25T08:27:01Z</time>
      </trkpt>
      <trkpt lat="48.08731" lon="-3.5766">
        <ele>161.4</ele>
        <time>2025-02-25T08:27:02Z</time>
      </trkpt>
      <trkpt lat="48.0873" lon="-3.57659">
        <ele>161.4</ele>
        <time>2025-02-25T08:27:03Z</time>
      </trkpt>
      <trkpt lat="48.08729" lon="-3.57659">
        <ele>161.3</ele>
        <time>2025-02-25T08:27:04Z</time>
      </trkpt>
      <trkpt lat="48.08728" lon="-3.57658">
        <ele>161.3</ele>
        <time>2025-02-25T08:27:05Z</time>
      </trkpt>
      <trkpt lat="48.08727" lon="-3.57656">
        <ele>161.2</ele>
        <time>2025-02-25T08:27:06Z</time>
      </trkpt>
      <trkpt lat="48.08727" lon="-3.57655">
        <ele>161.2</ele>
        <time>2025-02-25T08:27:07Z</time>
      </trkpt>
      <trkpt lat="48.08725" lon="-3.57655">
        <ele>161.1</ele>
        <time>2025-02-25T08:27:08Z</time>
      </trkpt>
      <trkpt lat="48.08724" lon="-3.57655">
        <ele>161.1</ele>
        <time>2025-02-25T08:27:09Z</time>
      </trkpt>
      <trkpt lat="48.08723" lon="-3.57654">
        <ele>161</ele>
        <time>2025-02-25T08:27:10Z</time>
      </trkpt>
      <trkpt lat="48.08722" lon="-3.57654">
        <ele>161</ele>
        <time>2025-02-25T08:27:11Z</time>
      </trkpt>
      <trkpt lat="48.08721" lon="-3.57653">
        <ele>160.9</ele>
        <time>2025-02-25T08:27:12Z</time>
      </trkpt>
      <trkpt lat="48.0872" lon="-3.57652">
        <ele>160.8</ele>
        <time>2025-02-25T08:27:13Z</time>
      </trkpt>
      <trkpt lat="48.08719" lon="-3.57651">
        <ele>160.7</ele>
        <time>2025-02-25T08:27:14Z</time>
      </trkpt>
      <trkpt lat="48.08718" lon="-3.57651">
        <ele>160.5</ele>
        <time>2025-02-25T08:27:15Z</time>
      </trkpt>
      <trkpt lat="48.08717" lon="-3.5765">
        <ele>160.4</ele>
        <time>2025-02-25T08:27:16Z</time>
      </trkpt>
      <trkpt lat="48.08716" lon="-3.57648">
        <ele>160.3</ele>
        <time>2025-02-25T08:27:17Z</time>
      </trkpt>
      <trkpt lat="48.08715" lon="-3.57648">
        <ele>160.2</ele>
        <time>2025-02-25T08:27:18Z</time>
      </trkpt>
      <trkpt lat="48.08714" lon="-3.57647">
        <ele>160.1</ele>
        <time>2025-02-25T08:27:19Z</time>
      </trkpt>
      <trkpt lat="48.08713" lon="-3.57646">
        <ele>160</ele>
        <time>2025-02-25T08:27:20Z</time>
      </trkpt>
      <trkpt lat="48.08712" lon="-3.57645">
        <ele>159.9</ele>
        <time>2025-02-25T08:27:21Z</time>
      </trkpt>
      <trkpt lat="48.08711" lon="-3.57644">
        <ele>159.8</ele>
        <time>2025-02-25T08:27:22Z</time>
      </trkpt>
      <trkpt lat="48.0871" lon="-3.57643">
        <ele>159.7</ele>
        <time>2025-02-25T08:27:23Z</time>
      </trkpt>
      <trkpt lat="48.08709" lon="-3.57642">
        <ele>159.6</ele>
        <time>2025-02-25T08:27:24Z</time>
      </trkpt>
      <trkpt lat="48.08708" lon="-3.57641">
        <ele>159.5</ele>
        <time>2025-02-25T08:27:25Z</time>
      </trkpt>
      <trkpt lat="48.08707" lon="-3.5764">
        <ele>159.4</ele>
        <time>2025-02-25T08:27:26Z</time>
      </trkpt>
      <trkpt lat="48.08706" lon="-3.57639">
        <ele>159.2</ele>
        <time>2025-02-25T08:27:27Z</time>
      </trkpt>
      <trkpt lat="48.08706" lon="-3.57637">
        <ele>159.2</ele>
        <time>2025-02-25T08:27:28Z</time>
      </trkpt>
      <trkpt lat="48.08705" lon="-3.57636">
        <ele>159.1</ele>
        <time>2025-02-25T08:27:29Z</time>
      </trkpt>
      <trkpt lat="48.08704" lon="-3.57635">
        <ele>159</ele>
        <time>2025-02-25T08:27:30Z</time>
      </trkpt>
      <trkpt lat="48.08703" lon="-3.57634">
        <ele>158.9</ele>
        <time>2025-02-25T08:27:31Z</time>
      </trkpt>
      <trkpt lat="48.08702" lon="-3.57632">
        <ele>158.8</ele>
        <time>2025-02-25T08:27:32Z</time>
      </trkpt>
      <trkpt lat="48.08702" lon="-3.57631">
        <ele>158.8</ele>
        <time>2025-02-25T08:27:33Z</time>
      </trkpt>
      <trkpt lat="48.08701" lon="-3.5763">
        <ele>158.7</ele>
        <time>2025-02-25T08:27:34Z</time>
      </trkpt>
      <trkpt lat="48.087" lon="-3.57628">
        <ele>158.6</ele>
        <time>2025-02-25T08:27:35Z</time>
      </trkpt>
      <trkpt lat="48.08699" lon="-3.57627">
        <ele>158.5</ele>
        <time>2025-02-25T08:27:36Z</time>
      </trkpt>
      <trkpt lat="48.08698" lon="-3.57626">
        <ele>158.4</ele>
        <time>2025-02-25T08:27:37Z</time>
      </trkpt>
      <trkpt lat="48.08697" lon="-3.57624">
        <ele>158.3</ele>
        <time>2025-02-25T08:27:38Z</time>
      </trkpt>
      <trkpt lat="48.08696" lon="-3.57623">
        <ele>158.2</ele>
        <time>2025-02-25T08:27:39Z</time>
      </trkpt>
      <trkpt lat="48.08695" lon="-3.57622">
        <ele>158.1</ele>
        <time>2025-02-25T08:27:40Z</time>
      </trkpt>
      <trkpt lat="48.08694" lon="-3.57622">
        <ele>158</ele>
        <time>2025-02-25T08:27:41Z</time>
      </trkpt>
      <trkpt lat="48.08693" lon="-3.5762">
        <ele>157.8</ele>
        <time>2025-02-25T08:27:42Z</time>
      </trkpt>
      <trkpt lat="48.08692" lon="-3.57619">
        <ele>157.7</ele>
        <time>2025-02-25T08:27:43Z</time>
      </trkpt>
      <trkpt lat="48.08691" lon="-3.57617">
        <ele>157.6</ele>
        <time>2025-02-25T08:27:44Z</time>
      </trkpt>
      <trkpt lat="48.0869" lon="-3.57616">
        <ele>157.5</ele>
        <time>2025-02-25T08:27:45Z</time>
      </trkpt>
      <trkpt lat="48.08689" lon="-3.57616">
        <ele>157.4</ele>
        <time>2025-02-25T08:27:46Z</time>
      </trkpt>
      <trkpt lat="48.08688" lon="-3.57614">
        <ele>157.3</ele>
        <time>2025-02-25T08:27:47Z</time>
      </trkpt>
      <trkpt lat="48.08687" lon="-3.57613">
        <ele>157.2</ele>
        <time>2025-02-25T08:27:48Z</time>
      </trkpt>
      <trkpt lat="48.08686" lon="-3.57611">
        <ele>157.1</ele>
        <time>2025-02-25T08:27:49Z</time>
      </trkpt>
      <trkpt lat="48.08685" lon="-3.5761">
        <ele>157</ele>
        <time>2025-02-25T08:27:50Z</time>
      </trkpt>
      <trkpt lat="48.08684" lon="-3.57609">
        <ele>156.9</ele>
        <time>2025-02-25T08:27:51Z</time>
      </trkpt>
      <trkpt lat="48.08683" lon="-3.57607">
        <ele>156.8</ele>
        <time>2025-02-25T08:27:52Z</time>
      </trkpt>
      <trkpt lat="48.08683" lon="-3.57606">
        <ele>156.8</ele>
        <time>2025-02-25T08:27:53Z</time>
      </trkpt>
      <trkpt lat="48.08682" lon="-3.57604">
        <ele>156.7</ele>
        <time>2025-02-25T08:27:54Z</time>
      </trkpt>
      <trkpt lat="48.08681" lon="-3.57603">
        <ele>156.5</ele>
        <time>2025-02-25T08:27:55Z</time>
      </trkpt>
      <trkpt lat="48.0868" lon="-3.57601">
        <ele>156.4</ele>
        <time>2025-02-25T08:27:56Z</time>
      </trkpt>
      <trkpt lat="48.08679" lon="-3.57601">
        <ele>156.3</ele>
        <time>2025-02-25T08:27:57Z</time>
      </trkpt>
      <trkpt lat="48.08678" lon="-3.576">
        <ele>156.2</ele>
        <time>2025-02-25T08:27:58Z</time>
      </trkpt>
      <trkpt lat="48.08677" lon="-3.57599">
        <ele>156.1</ele>
        <time>2025-02-25T08:27:59Z</time>
      </trkpt>
      <trkpt lat="48.08676" lon="-3.57598">
        <ele>156</ele>
        <time>2025-02-25T08:28:00Z</time>
      </trkpt>
      <trkpt lat="48.08675" lon="-3.57596">
        <ele>155.9</ele>
        <time>2025-02-25T08:28:01Z</time>
      </trkpt>
      <trkpt lat="48.08674" lon="-3.57595">
        <ele>155.8</ele>
        <time>2025-02-25T08:28:02Z</time>
      </trkpt>
      <trkpt lat="48.08673" lon="-3.57594">
        <ele>155.7</ele>
        <time>2025-02-25T08:28:03Z</time>
      </trkpt>
      <trkpt lat="48.08672" lon="-3.57593">
        <ele>155.6</ele>
        <time>2025-02-25T08:28:04Z</time>
      </trkpt>
      <trkpt lat="48.08672" lon="-3.57592">
        <ele>155.6</ele>
        <time>2025-02-25T08:28:05Z</time>
      </trkpt>
      <trkpt lat="48.08671" lon="-3.57591">
        <ele>155.5</ele>
        <time>2025-02-25T08:28:06Z</time>
      </trkpt>
      <trkpt lat="48.0867" lon="-3.5759">
        <ele>155.4</ele>
        <time>2025-02-25T08:28:07Z</time>
      </trkpt>
      <trkpt lat="48.08669" lon="-3.5759">
        <ele>155.3</ele>
        <time>2025-02-25T08:28:08Z</time>
      </trkpt>
      <trkpt lat="48.08668" lon="-3.57589">
        <ele>155.1</ele>
        <time>2025-02-25T08:28:09Z</time>
      </trkpt>
      <trkpt lat="48.08667" lon="-3.57587">
        <ele>155</ele>
        <time>2025-02-25T08:28:10Z</time>
      </trkpt>
      <trkpt lat="48.08666" lon="-3.57586">
        <ele>154.9</ele>
        <time>2025-02-25T08:28:11Z</time>
      </trkpt>
      <trkpt lat="48.08665" lon="-3.57584">
        <ele>154.8</ele>
        <time>2025-02-25T08:28:12Z</time>
      </trkpt>
      <trkpt lat="48.08664" lon="-3.57583">
        <ele>154.6</ele>
        <time>2025-02-25T08:28:13Z</time>
      </trkpt>
      <trkpt lat="48.08663" lon="-3.57582">
        <ele>154.5</ele>
        <time>2025-02-25T08:28:14Z</time>
      </trkpt>
      <trkpt lat="48.08662" lon="-3.57581">
        <ele>154.3</ele>
        <time>2025-02-25T08:28:15Z</time>
      </trkpt>
      <trkpt lat="48.08662" lon="-3.57579">
        <ele>154.3</ele>
        <time>2025-02-25T08:28:16Z</time>
      </trkpt>
      <trkpt lat="48.0866" lon="-3.57578">
        <ele>154</ele>
        <time>2025-02-25T08:28:17Z</time>
      </trkpt>
      <trkpt lat="48.08659" lon="-3.57577">
        <ele>153.9</ele>
        <time>2025-02-25T08:28:18Z</time>
      </trkpt>
      <trkpt lat="48.08658" lon="-3.57576">
        <ele>153.8</ele>
        <time>2025-02-25T08:28:19Z</time>
      </trkpt>
      <trkpt lat="48.08657" lon="-3.57576">
        <ele>153.6</ele>
        <time>2025-02-25T08:28:20Z</time>
      </trkpt>
      <trkpt lat="48.08656" lon="-3.57574">
        <ele>153.5</ele>
        <time>2025-02-25T08:28:21Z</time>
      </trkpt>
      <trkpt lat="48.08656" lon="-3.57572">
        <ele>153.5</ele>
        <time>2025-02-25T08:28:22Z</time>
      </trkpt>
      <trkpt lat="48.08655" lon="-3.57571">
        <ele>153.3</ele>
        <time>2025-02-25T08:28:23Z</time>
      </trkpt>
      <trkpt lat="48.08654" lon="-3.5757">
        <ele>153.2</ele>
        <time>2025-02-25T08:28:24Z</time>
      </trkpt>
      <trkpt lat="48.08653" lon="-3.57569">
        <ele>153</ele>
        <time>2025-02-25T08:28:25Z</time>
      </trkpt>
      <trkpt lat="48.08652" lon="-3.57567">
        <ele>152.9</ele>
        <time>2025-02-25T08:28:26Z</time>
      </trkpt>
      <trkpt lat="48.08651" lon="-3.57566">
        <ele>152.7</ele>
        <time>2025-02-25T08:28:27Z</time>
      </trkpt>
      <trkpt lat="48.0865" lon="-3.57565">
        <ele>152.6</ele>
        <time>2025-02-25T08:28:28Z</time>
      </trkpt>
      <trkpt lat="48.0865" lon="-3.57564">
        <ele>152.6</ele>
        <time>2025-02-25T08:28:29Z</time>
      </trkpt>
      <trkpt lat="48.08649" lon="-3.57563">
        <ele>152.5</ele>
        <time>2025-02-25T08:28:30Z</time>
      </trkpt>
      <trkpt lat="48.08648" lon="-3.57561">
        <ele>152.3</ele>
        <time>2025-02-25T08:28:31Z</time>
      </trkpt>
      <trkpt lat="48.08647" lon="-3.5756">
        <ele>152.2</ele>
        <time>2025-02-25T08:28:32Z</time>
      </trkpt>
      <trkpt lat="48.08646" lon="-3.57559">
        <ele>152</ele>
        <time>2025-02-25T08:28:33Z</time>
      </trkpt>
      <trkpt lat="48.08645" lon="-3.57558">
        <ele>151.9</ele>
        <time>2025-02-25T08:28:34Z</time>
      </trkpt>
      <trkpt lat="48.08644" lon="-3.57557">
        <ele>151.7</ele>
        <time>2025-02-25T08:28:35Z</time>
      </trkpt>
      <trkpt lat="48.08643" lon="-3.57555">
        <ele>151.6</ele>
        <time>2025-02-25T08:28:36Z</time>
      </trkpt>
      <trkpt lat="48.08642" lon="-3.57554">
        <ele>151.4</ele>
        <time>2025-02-25T08:28:37Z</time>
      </trkpt>
      <trkpt lat="48.08641" lon="-3.57552">
        <ele>151.3</ele>
        <time>2025-02-25T08:28:38Z</time>
      </trkpt>
      <trkpt lat="48.0864" lon="-3.57551">
        <ele>151.2</ele>
        <time>2025-02-25T08:28:39Z</time>
      </trkpt>
      <trkpt lat="48.08639" lon="-3.5755">
        <ele>151</ele>
        <time>2025-02-25T08:28:40Z</time>
      </trkpt>
      <trkpt lat="48.08638" lon="-3.57549">
        <ele>150.9</ele>
        <time>2025-02-25T08:28:41Z</time>
      </trkpt>
      <trkpt lat="48.08637" lon="-3.57547">
        <ele>150.7</ele>
        <time>2025-02-25T08:28:42Z</time>
      </trkpt>
      <trkpt lat="48.08637" lon="-3.57546">
        <ele>150.7</ele>
        <time>2025-02-25T08:28:43Z</time>
      </trkpt>
      <trkpt lat="48.08636" lon="-3.57545">
        <ele>150.5</ele>
        <time>2025-02-25T08:28:44Z</time>
      </trkpt>
      <trkpt lat="48.08635" lon="-3.57544">
        <ele>150.4</ele>
        <time>2025-02-25T08:28:45Z</time>
      </trkpt>
      <trkpt lat="48.08634" lon="-3.57542">
        <ele>150.2</ele>
        <time>2025-02-25T08:28:46Z</time>
      </trkpt>
      <trkpt lat="48.08633" lon="-3.57541">
        <ele>150</ele>
        <time>2025-02-25T08:28:47Z</time>
      </trkpt>
      <trkpt lat="48.08632" lon="-3.5754">
        <ele>149.9</ele>
        <time>2025-02-25T08:28:48Z</time>
      </trkpt>
      <trkpt lat="48.08631" lon="-3.57539">
        <ele>149.7</ele>
        <time>2025-02-25T08:28:49Z</time>
      </trkpt>
      <trkpt lat="48.0863" lon="-3.57537">
        <ele>149.5</ele>
        <time>2025-02-25T08:28:50Z</time>
      </trkpt>
      <trkpt lat="48.08629" lon="-3.57536">
        <ele>149.3</ele>
        <time>2025-02-25T08:28:51Z</time>
      </trkpt>
      <trkpt lat="48.08628" lon="-3.57535">
        <ele>149.1</ele>
        <time>2025-02-25T08:28:52Z</time>
      </trkpt>
      <trkpt lat="48.08627" lon="-3.57533">
        <ele>148.9</ele>
        <time>2025-02-25T08:28:53Z</time>
      </trkpt>
      <trkpt lat="48.08627" lon="-3.57531">
        <ele>148.9</ele>
        <time>2025-02-25T08:28:54Z</time>
      </trkpt>
      <trkpt lat="48.08626" lon="-3.5753">
        <ele>148.7</ele>
        <time>2025-02-25T08:28:55Z</time>
      </trkpt>
      <trkpt lat="48.08626" lon="-3.57528">
        <ele>148.7</ele>
        <time>2025-02-25T08:28:56Z</time>
      </trkpt>
      <trkpt lat="48.08625" lon="-3.57526">
        <ele>148.5</ele>
        <time>2025-02-25T08:28:57Z</time>
      </trkpt>
      <trkpt lat="48.08624" lon="-3.57525">
        <ele>148.3</ele>
        <time>2025-02-25T08:28:58Z</time>
      </trkpt>
      <trkpt lat="48.08624" lon="-3.57523">
        <ele>148.2</ele>
        <time>2025-02-25T08:28:59Z</time>
      </trkpt>
      <trkpt lat="48.08623" lon="-3.57521">
        <ele>148</ele>
        <time>2025-02-25T08:29:00Z</time>
      </trkpt>
      <trkpt lat="48.08623" lon="-3.5752">
        <ele>148</ele>
        <time>2025-02-25T08:29:01Z</time>
      </trkpt>
      <trkpt lat="48.08622" lon="-3.57518">
        <ele>147.8</ele>
        <time>2025-02-25T08:29:02Z</time>
      </trkpt>
      <trkpt lat="48.08621" lon="-3.57517">
        <ele>147.6</ele>
        <time>2025-02-25T08:29:03Z</time>
      </trkpt>
      <trkpt lat="48.08621" lon="-3.57515">
        <ele>147.6</ele>
        <time>2025-02-25T08:29:04Z</time>
      </trkpt>
      <trkpt lat="48.0862" lon="-3.57513">
        <ele>147.4</ele>
        <time>2025-02-25T08:29:05Z</time>
      </trkpt>
      <trkpt lat="48.0862" lon="-3.57512">
        <ele>147.4</ele>
        <time>2025-02-25T08:29:06Z</time>
      </trkpt>
      <trkpt lat="48.08619" lon="-3.5751">
        <ele>147.2</ele>
        <time>2025-02-25T08:29:07Z</time>
      </trkpt>
      <trkpt lat="48.08619" lon="-3.57508">
        <ele>147.2</ele>
        <time>2025-02-25T08:29:08Z</time>
      </trkpt>
      <trkpt lat="48.08618" lon="-3.57507">
        <ele>147.1</ele>
        <time>2025-02-25T08:29:09Z</time>
      </trkpt>
      <trkpt lat="48.08618" lon="-3.57505">
        <ele>147</ele>
        <time>2025-02-25T08:29:10Z</time>
      </trkpt>
      <trkpt lat="48.08617" lon="-3.57503">
        <ele>146.9</ele>
        <time>2025-02-25T08:29:11Z</time>
      </trkpt>
      <trkpt lat="48.08617" lon="-3.57501">
        <ele>146.9</ele>
        <time>2025-02-25T08:29:12Z</time>
      </trkpt>
      <trkpt lat="48.08616" lon="-3.575">
        <ele>146.7</ele>
        <time>2025-02-25T08:29:13Z</time>
      </trkpt>
      <trkpt lat="48.08615" lon="-3.57498">
        <ele>146.5</ele>
        <time>2025-02-25T08:29:14Z</time>
      </trkpt>
      <trkpt lat="48.08615" lon="-3.57497">
        <ele>146.5</ele>
        <time>2025-02-25T08:29:15Z</time>
      </trkpt>
      <trkpt lat="48.08614" lon="-3.57495">
        <ele>146.2</ele>
        <time>2025-02-25T08:29:16Z</time>
      </trkpt>
      <trkpt lat="48.08613" lon="-3.57494">
        <ele>146.1</ele>
        <time>2025-02-25T08:29:17Z</time>
      </trkpt>
      <trkpt lat="48.08613" lon="-3.57492">
        <ele>146</ele>
        <time>2025-02-25T08:29:18Z</time>
      </trkpt>
      <trkpt lat="48.08612" lon="-3.5749">
        <ele>145.8</ele>
        <time>2025-02-25T08:29:19Z</time>
      </trkpt>
      <trkpt lat="48.08612" lon="-3.57489">
        <ele>145.7</ele>
        <time>2025-02-25T08:29:20Z</time>
      </trkpt>
      <trkpt lat="48.08612" lon="-3.57487">
        <ele>145.7</ele>
        <time>2025-02-25T08:29:21Z</time>
      </trkpt>
      <trkpt lat="48.08611" lon="-3.57485">
        <ele>145.4</ele>
        <time>2025-02-25T08:29:22Z</time>
      </trkpt>
      <trkpt lat="48.08611" lon="-3.57483">
        <ele>145.4</ele>
        <time>2025-02-25T08:29:23Z</time>
      </trkpt>
      <trkpt lat="48.0861" lon="-3.57481">
        <ele>145.2</ele>
        <time>2025-02-25T08:29:24Z</time>
      </trkpt>
      <trkpt lat="48.0861" lon="-3.5748">
        <ele>145.1</ele>
        <time>2025-02-25T08:29:25Z</time>
      </trkpt>
      <trkpt lat="48.08609" lon="-3.57479">
        <ele>144.9</ele>
        <time>2025-02-25T08:29:26Z</time>
      </trkpt>
      <trkpt lat="48.08608" lon="-3.57477">
        <ele>144.7</ele>
        <time>2025-02-25T08:29:27Z</time>
      </trkpt>
      <trkpt lat="48.08607" lon="-3.57476">
        <ele>144.5</ele>
        <time>2025-02-25T08:29:28Z</time>
      </trkpt>
      <trkpt lat="48.08606" lon="-3.57475">
        <ele>144.4</ele>
        <time>2025-02-25T08:29:29Z</time>
      </trkpt>
      <trkpt lat="48.08604" lon="-3.57475">
        <ele>144.1</ele>
        <time>2025-02-25T08:29:30Z</time>
      </trkpt>
      <trkpt lat="48.08602" lon="-3.57475">
        <ele>143.8</ele>
        <time>2025-02-25T08:29:31Z</time>
      </trkpt>
      <trkpt lat="48.08601" lon="-3.57475">
        <ele>143.6</ele>
        <time>2025-02-25T08:29:32Z</time>
      </trkpt>
      <trkpt lat="48.086" lon="-3.57475">
        <ele>143.5</ele>
        <time>2025-02-25T08:29:33Z</time>
      </trkpt>
      <trkpt lat="48.08599" lon="-3.57475">
        <ele>143.4</ele>
        <time>2025-02-25T08:29:34Z</time>
      </trkpt>
      <trkpt lat="48.08597" lon="-3.57476">
        <ele>143.1</ele>
        <time>2025-02-25T08:29:35Z</time>
      </trkpt>
      <trkpt lat="48.08596" lon="-3.57476">
        <ele>143</ele>
        <time>2025-02-25T08:29:36Z</time>
      </trkpt>
      <trkpt lat="48.08595" lon="-3.57477">
        <ele>142.9</ele>
        <time>2025-02-25T08:29:37Z</time>
      </trkpt>
      <trkpt lat="48.08594" lon="-3.57478">
        <ele>142.7</ele>
        <time>2025-02-25T08:29:38Z</time>
      </trkpt>
      <trkpt lat="48.08593" lon="-3.57479">
        <ele>142.6</ele>
        <time>2025-02-25T08:29:39Z</time>
      </trkpt>
      <trkpt lat="48.08592" lon="-3.5748">
        <ele>142.5</ele>
        <time>2025-02-25T08:29:40Z</time>
      </trkpt>
      <trkpt lat="48.08591" lon="-3.57482">
        <ele>142.5</ele>
        <time>2025-02-25T08:29:41Z</time>
      </trkpt>
      <trkpt lat="48.0859" lon="-3.57483">
        <ele>142.3</ele>
        <time>2025-02-25T08:29:42Z</time>
      </trkpt>
      <trkpt lat="48.08589" lon="-3.57484">
        <ele>142.2</ele>
        <time>2025-02-25T08:29:43Z</time>
      </trkpt>
      <trkpt lat="48.08589" lon="-3.57486">
        <ele>142.3</ele>
        <time>2025-02-25T08:29:44Z</time>
      </trkpt>
      <trkpt lat="48.08588" lon="-3.57487">
        <ele>142.2</ele>
        <time>2025-02-25T08:29:45Z</time>
      </trkpt>
      <trkpt lat="48.08587" lon="-3.57489">
        <ele>142.1</ele>
        <time>2025-02-25T08:29:46Z</time>
      </trkpt>
      <trkpt lat="48.08586" lon="-3.5749">
        <ele>142</ele>
        <time>2025-02-25T08:29:47Z</time>
      </trkpt>
      <trkpt lat="48.08585" lon="-3.57491">
        <ele>141.9</ele>
        <time>2025-02-25T08:29:48Z</time>
      </trkpt>
      <trkpt lat="48.08584" lon="-3.57492">
        <ele>141.8</ele>
        <time>2025-02-25T08:29:49Z</time>
      </trkpt>
      <trkpt lat="48.08583" lon="-3.57493">
        <ele>141.7</ele>
        <time>2025-02-25T08:29:50Z</time>
      </trkpt>
      <trkpt lat="48.08582" lon="-3.57494">
        <ele>141.6</ele>
        <time>2025-02-25T08:29:51Z</time>
      </trkpt>
      <trkpt lat="48.08581" lon="-3.57496">
        <ele>141.6</ele>
        <time>2025-02-25T08:29:52Z</time>
      </trkpt>
      <trkpt lat="48.0858" lon="-3.57497">
        <ele>141.5</ele>
        <time>2025-02-25T08:29:53Z</time>
      </trkpt>
      <trkpt lat="48.08579" lon="-3.57499">
        <ele>141.5</ele>
        <time>2025-02-25T08:29:54Z</time>
      </trkpt>
      <trkpt lat="48.08579" lon="-3.57501">
        <ele>141.6</ele>
        <time>2025-02-25T08:29:55Z</time>
      </trkpt>
      <trkpt lat="48.08578" lon="-3.57503">
        <ele>141.5</ele>
        <time>2025-02-25T08:29:56Z</time>
      </trkpt>
      <trkpt lat="48.08577" lon="-3.57504">
        <ele>141.5</ele>
        <time>2025-02-25T08:29:57Z</time>
      </trkpt>
      <trkpt lat="48.08576" lon="-3.57505">
        <ele>141.4</ele>
        <time>2025-02-25T08:29:58Z</time>
      </trkpt>
      <trkpt lat="48.08575" lon="-3.57507">
        <ele>141.4</ele>
        <time>2025-02-25T08:29:59Z</time>
      </trkpt>
      <trkpt lat="48.08574" lon="-3.57508">
        <ele>141.3</ele>
        <time>2025-02-25T08:30:00Z</time>
      </trkpt>
      <trkpt lat="48.08574" lon="-3.57509">
        <ele>141.3</ele>
        <time>2025-02-25T08:30:01Z</time>
      </trkpt>
      <trkpt lat="48.08573" lon="-3.57511">
        <ele>141.3</ele>
        <time>2025-02-25T08:30:02Z</time>
      </trkpt>
      <trkpt lat="48.08572" lon="-3.57512">
        <ele>141.2</ele>
        <time>2025-02-25T08:30:03Z</time>
      </trkpt>
      <trkpt lat="48.08571" lon="-3.57514">
        <ele>141.2</ele>
        <time>2025-02-25T08:30:04Z</time>
      </trkpt>
      <trkpt lat="48.0857" lon="-3.57516">
        <ele>141.1</ele>
        <time>2025-02-25T08:30:05Z</time>
      </trkpt>
      <trkpt lat="48.08569" lon="-3.57517">
        <ele>141.1</ele>
        <time>2025-02-25T08:30:06Z</time>
      </trkpt>
      <trkpt lat="48.08569" lon="-3.57519">
        <ele>141.1</ele>
        <time>2025-02-25T08:30:07Z</time>
      </trkpt>
      <trkpt lat="48.08568" lon="-3.5752">
        <ele>141.1</ele>
        <time>2025-02-25T08:30:08Z</time>
      </trkpt>
      <trkpt lat="48.08567" lon="-3.57521">
        <ele>141</ele>
        <time>2025-02-25T08:30:09Z</time>
      </trkpt>
      <trkpt lat="48.08566" lon="-3.57522">
        <ele>140.9</ele>
        <time>2025-02-25T08:30:10Z</time>
      </trkpt>
      <trkpt lat="48.08565" lon="-3.57523">
        <ele>140.8</ele>
        <time>2025-02-25T08:30:11Z</time>
      </trkpt>
      <trkpt lat="48.08564" lon="-3.57524">
        <ele>140.8</ele>
        <time>2025-02-25T08:30:12Z</time>
      </trkpt>
      <trkpt lat="48.08563" lon="-3.57525">
        <ele>140.7</ele>
        <time>2025-02-25T08:30:13Z</time>
      </trkpt>
      <trkpt lat="48.08562" lon="-3.57524">
        <ele>140.6</ele>
        <time>2025-02-25T08:30:14Z</time>
      </trkpt>
      <trkpt lat="48.08561" lon="-3.57524">
        <ele>140.5</ele>
        <time>2025-02-25T08:30:15Z</time>
      </trkpt>
      <trkpt lat="48.0856" lon="-3.57524">
        <ele>140.3</ele>
        <time>2025-02-25T08:30:16Z</time>
      </trkpt>
      <trkpt lat="48.08559" lon="-3.57523">
        <ele>140.2</ele>
        <time>2025-02-25T08:30:17Z</time>
      </trkpt>
      <trkpt lat="48.08557" lon="-3.57523">
        <ele>140</ele>
        <time>2025-02-25T08:30:18Z</time>
      </trkpt>
      <trkpt lat="48.08556" lon="-3.57522">
        <ele>139.8</ele>
        <time>2025-02-25T08:30:19Z</time>
      </trkpt>
      <trkpt lat="48.08556" lon="-3.57521">
        <ele>139.8</ele>
        <time>2025-02-25T08:30:20Z</time>
      </trkpt>
      <trkpt lat="48.08556" lon="-3.57521">
        <ele>139.8</ele>
        <time>2025-02-25T08:30:21Z</time>
      </trkpt>
      <trkpt lat="48.08556" lon="-3.57521">
        <ele>139.8</ele>
        <time>2025-02-25T08:30:22Z</time>
      </trkpt>
      <trkpt lat="48.08556" lon="-3.57521">
        <ele>139.8</ele>
        <time>2025-02-25T08:30:23Z</time>
      </trkpt>
      <trkpt lat="48.08556" lon="-3.57521">
        <ele>139.8</ele>
        <time>2025-02-25T08:30:24Z</time>
      </trkpt>
      <trkpt lat="48.08556" lon="-3.57521">
        <ele>139.8</ele>
        <time>2025-02-25T08:30:25Z</time>
      </trkpt>
      <trkpt lat="48.08556" lon="-3.57521">
        <ele>139.8</ele>
        <time>2025-02-25T08:30:26Z</time>
      </trkpt>
      <trkpt lat="48.08556" lon="-3.57521">
        <ele>139.8</ele>
        <time>2025-02-25T08:30:27Z</time>
      </trkpt>
      <trkpt lat="48.08556" lon="-3.57521">
        <ele>139.8</ele>
        <time>2025-02-25T08:30:28Z</time>
      </trkpt>
      <trkpt lat="48.08556" lon="-3.57521">
        <ele>139.8</ele>
        <time>2025-02-25T08:30:29Z</time>
      </trkpt>
      <trkpt lat="48.08557" lon="-3.57521">
        <ele>139.9</ele>
        <time>2025-02-25T08:30:30Z</time>
      </trkpt>
      <trkpt lat="48.08557" lon="-3.57521">
        <ele>139.9</ele>
        <time>2025-02-25T08:30:31Z</time>
      </trkpt>
      <trkpt lat="48.08557" lon="-3.57521">
        <ele>139.9</ele>
        <time>2025-02-25T08:30:32Z</time>
      </trkpt>
      <trkpt lat="48.08557" lon="-3.57521">
        <ele>139.9</ele>
        <time>2025-02-25T08:30:33Z</time>
      </trkpt>
      <trkpt lat="48.08556" lon="-3.57521">
        <ele>139.8</ele>
        <time>2025-02-25T08:30:34Z</time>
      </trkpt>
      <trkpt lat="48.08556" lon="-3.57521">
        <ele>139.8</ele>
        <time>2025-02-25T08:30:35Z</time>
      </trkpt>
      <trkpt lat="48.08555" lon="-3.5752">
        <ele>139.7</ele>
        <time>2025-02-25T08:30:36Z</time>
      </trkpt>
      <trkpt lat="48.08555" lon="-3.5752">
        <ele>139.7</ele>
        <time>2025-02-25T08:30:37Z</time>
      </trkpt>
      <trkpt lat="48.08555" lon="-3.5752">
        <ele>139.7</ele>
        <time>2025-02-25T08:30:38Z</time>
      </trkpt>
      <trkpt lat="48.08555" lon="-3.5752">
        <ele>139.7</ele>
        <time>2025-02-25T08:30:39Z</time>
      </trkpt>
      <trkpt lat="48.08555" lon="-3.5752">
        <ele>139.7</ele>
        <time>2025-02-25T08:30:40Z</time>
      </trkpt>
      <trkpt lat="48.08555" lon="-3.5752">
        <ele>139.7</ele>
        <time>2025-02-25T08:30:41Z</time>
      </trkpt>
      <trkpt lat="48.08556" lon="-3.5752">
        <ele>139.8</ele>
        <time>2025-02-25T08:30:42Z</time>
      </trkpt>
      <trkpt lat="48.08555" lon="-3.5752">
        <ele>139.7</ele>
        <time>2025-02-25T08:30:43Z</time>
      </trkpt>
      <trkpt lat="48.08556" lon="-3.5752">
        <ele>139.8</ele>
        <time>2025-02-25T08:30:44Z</time>
      </trkpt>
      <trkpt lat="48.08557" lon="-3.5752">
        <ele>139.9</ele>
        <time>2025-02-25T08:30:45Z</time>
      </trkpt>
      <trkpt lat="48.08558" lon="-3.57521">
        <ele>140</ele>
        <time>2025-02-25T08:30:46Z</time>
      </trkpt>
      <trkpt lat="48.08559" lon="-3.57521">
        <ele>140.1</ele>
        <time>2025-02-25T08:30:47Z</time>
      </trkpt>
      <trkpt lat="48.08559" lon="-3.5752">
        <ele>140.1</ele>
        <time>2025-02-25T08:30:48Z</time>
      </trkpt>
      <trkpt lat="48.08561" lon="-3.5752">
        <ele>140.3</ele>
        <time>2025-02-25T08:30:49Z</time>
      </trkpt>
      <trkpt lat="48.08562" lon="-3.57519">
        <ele>140.4</ele>
        <time>2025-02-25T08:30:50Z</time>
      </trkpt>
      <trkpt lat="48.08563" lon="-3.57519">
        <ele>140.5</ele>
        <time>2025-02-25T08:30:51Z</time>
      </trkpt>
      <trkpt lat="48.08564" lon="-3.57519">
        <ele>140.6</ele>
        <time>2025-02-25T08:30:52Z</time>
      </trkpt>
      <trkpt lat="48.08565" lon="-3.57518">
        <ele>140.7</ele>
        <time>2025-02-25T08:30:53Z</time>
      </trkpt>
      <trkpt lat="48.08566" lon="-3.57517">
        <ele>140.7</ele>
        <time>2025-02-25T08:30:54Z</time>
      </trkpt>
      <trkpt lat="48.08566" lon="-3.57516">
        <ele>140.7</ele>
        <time>2025-02-25T08:30:55Z</time>
      </trkpt>
      <trkpt lat="48.08567" lon="-3.57515">
        <ele>140.8</ele>
        <time>2025-02-25T08:30:56Z</time>
      </trkpt>
      <trkpt lat="48.08567" lon="-3.57514">
        <ele>140.7</ele>
        <time>2025-02-25T08:30:57Z</time>
      </trkpt>
      <trkpt lat="48.08568" lon="-3.57512">
        <ele>140.8</ele>
        <time>2025-02-25T08:30:58Z</time>
      </trkpt>
      <trkpt lat="48.08569" lon="-3.57511">
        <ele>140.8</ele>
        <time>2025-02-25T08:30:59Z</time>
      </trkpt>
      <trkpt lat="48.0857" lon="-3.5751">
        <ele>140.9</ele>
        <time>2025-02-25T08:31:00Z</time>
      </trkpt>
      <trkpt lat="48.08571" lon="-3.57509">
        <ele>141</ele>
        <time>2025-02-25T08:31:01Z</time>
      </trkpt>
      <trkpt lat="48.08572" lon="-3.57508">
        <ele>141.1</ele>
        <time>2025-02-25T08:31:02Z</time>
      </trkpt>
      <trkpt lat="48.08572" lon="-3.57507">
        <ele>141</ele>
        <time>2025-02-25T08:31:03Z</time>
      </trkpt>
      <trkpt lat="48.08573" lon="-3.57506">
        <ele>141.1</ele>
        <time>2025-02-25T08:31:04Z</time>
      </trkpt>
      <trkpt lat="48.08574" lon="-3.57504">
        <ele>141.1</ele>
        <time>2025-02-25T08:31:05Z</time>
      </trkpt>
      <trkpt lat="48.08575" lon="-3.57503">
        <ele>141.2</ele>
        <time>2025-02-25T08:31:06Z</time>
      </trkpt>
      <trkpt lat="48.08576" lon="-3.57502">
        <ele>141.3</ele>
        <time>2025-02-25T08:31:07Z</time>
      </trkpt>
      <trkpt lat="48.08577" lon="-3.57501">
        <ele>141.4</ele>
        <time>2025-02-25T08:31:08Z</time>
      </trkpt>
      <trkpt lat="48.08578" lon="-3.575">
        <ele>141.4</ele>
        <time>2025-02-25T08:31:09Z</time>
      </trkpt>
      <trkpt lat="48.08578" lon="-3.57499">
        <ele>141.4</ele>
        <time>2025-02-25T08:31:10Z</time>
      </trkpt>
      <trkpt lat="48.08579" lon="-3.57498">
        <ele>141.5</ele>
        <time>2025-02-25T08:31:11Z</time>
      </trkpt>
      <trkpt lat="48.0858" lon="-3.57497">
        <ele>141.5</ele>
        <time>2025-02-25T08:31:12Z</time>
      </trkpt>
      <trkpt lat="48.08581" lon="-3.57496">
        <ele>141.6</ele>
        <time>2025-02-25T08:31:13Z</time>
      </trkpt>
      <trkpt lat="48.08582" lon="-3.57495">
        <ele>141.7</ele>
        <time>2025-02-25T08:31:14Z</time>
      </trkpt>
      <trkpt lat="48.08583" lon="-3.57493">
        <ele>141.7</ele>
        <time>2025-02-25T08:31:15Z</time>
      </trkpt>
      <trkpt lat="48.08583" lon="-3.57492">
        <ele>141.7</ele>
        <time>2025-02-25T08:31:16Z</time>
      </trkpt>
      <trkpt lat="48.08584" lon="-3.5749">
        <ele>141.7</ele>
        <time>2025-02-25T08:31:17Z</time>
      </trkpt>
      <trkpt lat="48.08584" lon="-3.57489">
        <ele>141.7</ele>
        <time>2025-02-25T08:31:18Z</time>
      </trkpt>
      <trkpt lat="48.08585" lon="-3.57488">
        <ele>141.8</ele>
        <time>2025-02-25T08:31:19Z</time>
      </trkpt>
      <trkpt lat="48.08585" lon="-3.57488">
        <ele>141.8</ele>
        <time>2025-02-25T08:31:20Z</time>
      </trkpt>
      <trkpt lat="48.08585" lon="-3.57488">
        <ele>141.8</ele>
        <time>2025-02-25T08:31:21Z</time>
      </trkpt>
      <trkpt lat="48.08585" lon="-3.57488">
        <ele>141.8</ele>
        <time>2025-02-25T08:31:22Z</time>
      </trkpt>
      <trkpt lat="48.08585" lon="-3.57488">
        <ele>141.8</ele>
        <time>2025-02-25T08:31:23Z</time>
      </trkpt>
      <trkpt lat="48.08585" lon="-3.57487">
        <ele>141.8</ele>
        <time>2025-02-25T08:31:24Z</time>
      </trkpt>
      <trkpt lat="48.08586" lon="-3.57486">
        <ele>141.9</ele>
        <time>2025-02-25T08:31:25Z</time>
      </trkpt>
      <trkpt lat="48.08586" lon="-3.57486">
        <ele>141.9</ele>
        <time>2025-02-25T08:31:26Z</time>
      </trkpt>
      <trkpt lat="48.08586" lon="-3.57486">
        <ele>141.9</ele>
        <time>2025-02-25T08:31:27Z</time>
      </trkpt>
      <trkpt lat="48.08586" lon="-3.57486">
        <ele>141.9</ele>
        <time>2025-02-25T08:31:28Z</time>
      </trkpt>
      <trkpt lat="48.08586" lon="-3.57486">
        <ele>141.9</ele>
        <time>2025-02-25T08:31:29Z</time>
      </trkpt>
      <trkpt lat="48.08586" lon="-3.57486">
        <ele>141.9</ele>
        <time>2025-02-25T08:31:30Z</time>
      </trkpt>
      <trkpt lat="48.08586" lon="-3.57486">
        <ele>141.9</ele>
        <time>2025-02-25T08:31:31Z</time>
      </trkpt>
      <trkpt lat="48.08586" lon="-3.57486">
        <ele>141.9</ele>
        <time>2025-02-25T08:31:32Z</time>
      </trkpt>
      <trkpt lat="48.08586" lon="-3.57486">
        <ele>141.9</ele>
        <time>2025-02-25T08:31:33Z</time>
      </trkpt>
      <trkpt lat="48.08586" lon="-3.57486">
        <ele>141.9</ele>
        <time>2025-02-25T08:31:34Z</time>
      </trkpt>
      <trkpt lat="48.08586" lon="-3.57486">
        <ele>141.9</ele>
        <time>2025-02-25T08:31:35Z</time>
      </trkpt>
      <trkpt lat="48.08586" lon="-3.57486">
        <ele>141.9</ele>
        <time>2025-02-25T08:31:36Z</time>
      </trkpt>
      <trkpt lat="48.08586" lon="-3.57486">
        <ele>141.9</ele>
        <time>2025-02-25T08:31:37Z</time>
      </trkpt>
      <trkpt lat="48.08586" lon="-3.57486">
        <ele>141.9</ele>
        <time>2025-02-25T08:31:38Z</time>
      </trkpt>
      <trkpt lat="48.08585" lon="-3.57486">
        <ele>141.7</ele>
        <time>2025-02-25T08:31:39Z</time>
      </trkpt>
      <trkpt lat="48.08585" lon="-3.57487">
        <ele>141.8</ele>
        <time>2025-02-25T08:31:40Z</time>
      </trkpt>
      <trkpt lat="48.08587" lon="-3.57491">
        <ele>142.2</ele>
        <time>2025-02-25T08:31:41Z</time>
      </trkpt>
      <trkpt lat="48.08587" lon="-3.57493">
        <ele>142.3</ele>
        <time>2025-02-25T08:31:42Z</time>
      </trkpt>
      <trkpt lat="48.08586" lon="-3.57494">
        <ele>142.2</ele>
        <time>2025-02-25T08:31:43Z</time>
      </trkpt>
      <trkpt lat="48.08585" lon="-3.57495">
        <ele>142.1</ele>
        <time>2025-02-25T08:31:44Z</time>
      </trkpt>
      <trkpt lat="48.08584" lon="-3.57494">
        <ele>141.9</ele>
        <time>2025-02-25T08:31:45Z</time>
      </trkpt>
      <trkpt lat="48.08584" lon="-3.57494">
        <ele>141.9</ele>
        <time>2025-02-25T08:31:46Z</time>
      </trkpt>
      <trkpt lat="48.08584" lon="-3.57494">
        <ele>141.9</ele>
        <time>2025-02-25T08:31:47Z</time>
      </trkpt>
      <trkpt lat="48.08584" lon="-3.57494">
        <ele>141.9</ele>
        <time>2025-02-25T08:31:48Z</time>
      </trkpt>
      <trkpt lat="48.08584" lon="-3.57494">
        <ele>141.9</ele>
        <time>2025-02-25T08:31:49Z</time>
      </trkpt>
      <trkpt lat="48.08584" lon="-3.57494">
        <ele>141.9</ele>
        <time>2025-02-25T08:31:50Z</time>
      </trkpt>
      <trkpt lat="48.08584" lon="-3.57494">
        <ele>141.9</ele>
        <time>2025-02-25T08:31:51Z</time>
      </trkpt>
      <trkpt lat="48.08584" lon="-3.57495">
        <ele>141.9</ele>
        <time>2025-02-25T08:31:52Z</time>
      </trkpt>
      <trkpt lat="48.08583" lon="-3.57494">
        <ele>141.7</ele>
        <time>2025-02-25T08:31:53Z</time>
      </trkpt>
      <trkpt lat="48.08583" lon="-3.57494">
        <ele>141.7</ele>
        <time>2025-02-25T08:31:54Z</time>
      </trkpt>
      <trkpt lat="48.08583" lon="-3.57494">
        <ele>141.7</ele>
        <time>2025-02-25T08:31:55Z</time>
      </trkpt>
      <trkpt lat="48.08583" lon="-3.57494">
        <ele>141.7</ele>
        <time>2025-02-25T08:31:56Z</time>
      </trkpt>
      <trkpt lat="48.08583" lon="-3.57494">
        <ele>141.7</ele>
        <time>2025-02-25T08:31:57Z</time>
      </trkpt>
      <trkpt lat="48.08583" lon="-3.57494">
        <ele>141.7</ele>
        <time>2025-02-25T08:31:58Z</time>
      </trkpt>
      <trkpt lat="48.08583" lon="-3.57494">
        <ele>141.7</ele>
        <time>2025-02-25T08:31:59Z</time>
      </trkpt>
      <trkpt lat="48.08583" lon="-3.57494">
        <ele>141.7</ele>
        <time>2025-02-25T08:32:00Z</time>
      </trkpt>
      <trkpt lat="48.08583" lon="-3.57494">
        <ele>141.7</ele>
        <time>2025-02-25T08:32:01Z</time>
      </trkpt>
      <trkpt lat="48.08583" lon="-3.57494">
        <ele>141.7</ele>
        <time>2025-02-25T08:32:02Z</time>
      </trkpt>
      <trkpt lat="48.08583" lon="-3.57494">
        <ele>141.7</ele>
        <time>2025-02-25T08:32:03Z</time>
      </trkpt>
      <trkpt lat="48.08583" lon="-3.57494">
        <ele>141.7</ele>
        <time>2025-02-25T08:32:04Z</time>
      </trkpt>
      <trkpt lat="48.08583" lon="-3.57494">
        <ele>141.7</ele>
        <time>2025-02-25T08:32:05Z</time>
      </trkpt>
      <trkpt lat="48.08582" lon="-3.57495">
        <ele>141.7</ele>
        <time>2025-02-25T08:32:06Z</time>
      </trkpt>
      <trkpt lat="48.08582" lon="-3.57495">
        <ele>141.7</ele>
        <time>2025-02-25T08:32:07Z</time>
      </trkpt>
      <trkpt lat="48.08582" lon="-3.57495">
        <ele>141.7</ele>
        <time>2025-02-25T08:32:08Z</time>
      </trkpt>
      <trkpt lat="48.08582" lon="-3.57495">
        <ele>141.7</ele>
        <time>2025-02-25T08:32:09Z</time>
      </trkpt>
      <trkpt lat="48.08581" lon="-3.57494">
        <ele>141.5</ele>
        <time>2025-02-25T08:32:10Z</time>
      </trkpt>
      <trkpt lat="48.08581" lon="-3.57494">
        <ele>141.5</ele>
        <time>2025-02-25T08:32:11Z</time>
      </trkpt>
      <trkpt lat="48.08582" lon="-3.57495">
        <ele>141.7</ele>
        <time>2025-02-25T08:32:12Z</time>
      </trkpt>
      <trkpt lat="48.08582" lon="-3.57495">
        <ele>141.7</ele>
        <time>2025-02-25T08:32:13Z</time>
      </trkpt>
      <trkpt lat="48.08582" lon="-3.57495">
        <ele>141.7</ele>
        <time>2025-02-25T08:32:14Z</time>
      </trkpt>
      <trkpt lat="48.08582" lon="-3.57495">
        <ele>141.7</ele>
        <time>2025-02-25T08:32:15Z</time>
      </trkpt>
      <trkpt lat="48.08582" lon="-3.57495">
        <ele>141.7</ele>
        <time>2025-02-25T08:32:16Z</time>
      </trkpt>
      <trkpt lat="48.08582" lon="-3.57495">
        <ele>141.7</ele>
        <time>2025-02-25T08:32:17Z</time>
      </trkpt>
      <trkpt lat="48.08582" lon="-3.57495">
        <ele>141.7</ele>
        <time>2025-02-25T08:32:18Z</time>
      </trkpt>
      <trkpt lat="48.08582" lon="-3.57495">
        <ele>141.7</ele>
        <time>2025-02-25T08:32:19Z</time>
      </trkpt>
      <trkpt lat="48.08582" lon="-3.57495">
        <ele>141.7</ele>
        <time>2025-02-25T08:32:20Z</time>
      </trkpt>
      <trkpt lat="48.08582" lon="-3.57495">
        <ele>141.7</ele>
        <time>2025-02-25T08:32:21Z</time>
      </trkpt>
      <trkpt lat="48.08581" lon="-3.57495">
        <ele>141.6</ele>
        <time>2025-02-25T08:32:22Z</time>
      </trkpt>
      <trkpt lat="48.0858" lon="-3.57496">
        <ele>141.5</ele>
        <time>2025-02-25T08:32:23Z</time>
      </trkpt>
      <trkpt lat="48.08579" lon="-3.57497">
        <ele>141.4</ele>
        <time>2025-02-25T08:32:24Z</time>
      </trkpt>
      <trkpt lat="48.08578" lon="-3.57499">
        <ele>141.4</ele>
        <time>2025-02-25T08:32:25Z</time>
      </trkpt>
      <trkpt lat="48.08577" lon="-3.57501">
        <ele>141.4</ele>
        <time>2025-02-25T08:32:26Z</time>
      </trkpt>
      <trkpt lat="48.08577" lon="-3.57503">
        <ele>141.4</ele>
        <time>2025-02-25T08:32:27Z</time>
      </trkpt>
      <trkpt lat="48.08577" lon="-3.57505">
        <ele>141.5</ele>
        <time>2025-02-25T08:32:28Z</time>
      </trkpt>
      <trkpt lat="48.08576" lon="-3.57506">
        <ele>141.4</ele>
        <time>2025-02-25T08:32:29Z</time>
      </trkpt>
      <trkpt lat="48.08576" lon="-3.57508">
        <ele>141.5</ele>
        <time>2025-02-25T08:32:30Z</time>
      </trkpt>
      <trkpt lat="48.08575" lon="-3.57509">
        <ele>141.4</ele>
        <time>2025-02-25T08:32:31Z</time>
      </trkpt>
      <trkpt lat="48.08574" lon="-3.57511">
        <ele>141.4</ele>
        <time>2025-02-25T08:32:32Z</time>
      </trkpt>
      <trkpt lat="48.08574" lon="-3.57512">
        <ele>141.4</ele>
        <time>2025-02-25T08:32:33Z</time>
      </trkpt>
      <trkpt lat="48.08574" lon="-3.57513">
        <ele>141.5</ele>
        <time>2025-02-25T08:32:34Z</time>
      </trkpt>
      <trkpt lat="48.08573" lon="-3.57514">
        <ele>141.4</ele>
        <time>2025-02-25T08:32:35Z</time>
      </trkpt>
      <trkpt lat="48.08573" lon="-3.57515">
        <ele>141.4</ele>
        <time>2025-02-25T08:32:36Z</time>
      </trkpt>
      <trkpt lat="48.08572" lon="-3.57516">
        <ele>141.4</ele>
        <time>2025-02-25T08:32:37Z</time>
      </trkpt>
      <trkpt lat="48.08571" lon="-3.57516">
        <ele>141.2</ele>
        <time>2025-02-25T08:32:38Z</time>
      </trkpt>
      <trkpt lat="48.0857" lon="-3.57517">
        <ele>141.2</ele>
        <time>2025-02-25T08:32:39Z</time>
      </trkpt>
      <trkpt lat="48.08569" lon="-3.57517">
        <ele>141.1</ele>
        <time>2025-02-25T08:32:40Z</time>
      </trkpt>
      <trkpt lat="48.08568" lon="-3.57519">
        <ele>141</ele>
        <time>2025-02-25T08:32:41Z</time>
      </trkpt>
      <trkpt lat="48.08567" lon="-3.5752">
        <ele>141</ele>
        <time>2025-02-25T08:32:42Z</time>
      </trkpt>
      <trkpt lat="48.08566" lon="-3.57521">
        <ele>140.9</ele>
        <time>2025-02-25T08:32:43Z</time>
      </trkpt>
      <trkpt lat="48.08565" lon="-3.57522">
        <ele>140.8</ele>
        <time>2025-02-25T08:32:44Z</time>
      </trkpt>
      <trkpt lat="48.08565" lon="-3.57523">
        <ele>140.8</ele>
        <time>2025-02-25T08:32:45Z</time>
      </trkpt>
      <trkpt lat="48.08563" lon="-3.57523">
        <ele>140.6</ele>
        <time>2025-02-25T08:32:46Z</time>
      </trkpt>
      <trkpt lat="48.08563" lon="-3.57523">
        <ele>140.6</ele>
        <time>2025-02-25T08:32:47Z</time>
      </trkpt>
      <trkpt lat="48.08562" lon="-3.57523">
        <ele>140.5</ele>
        <time>2025-02-25T08:32:48Z</time>
      </trkpt>
      <trkpt lat="48.08561" lon="-3.57524">
        <ele>140.5</ele>
        <time>2025-02-25T08:32:49Z</time>
      </trkpt>
      <trkpt lat="48.08559" lon="-3.57525">
        <ele>140.3</ele>
        <time>2025-02-25T08:32:50Z</time>
      </trkpt>
      <trkpt lat="48.08558" lon="-3.57524">
        <ele>140.1</ele>
        <time>2025-02-25T08:32:51Z</time>
      </trkpt>
      <trkpt lat="48.08558" lon="-3.57523">
        <ele>140.1</ele>
        <time>2025-02-25T08:32:52Z</time>
      </trkpt>
      <trkpt lat="48.08557" lon="-3.57522">
        <ele>139.9</ele>
        <time>2025-02-25T08:32:53Z</time>
      </trkpt>
      <trkpt lat="48.08556" lon="-3.57521">
        <ele>139.8</ele>
        <time>2025-02-25T08:32:54Z</time>
      </trkpt>
      <trkpt lat="48.08555" lon="-3.5752">
        <ele>139.7</ele>
        <time>2025-02-25T08:32:55Z</time>
      </trkpt>
      <trkpt lat="48.08555" lon="-3.57518">
        <ele>139.6</ele>
        <time>2025-02-25T08:32:56Z</time>
      </trkpt>
      <trkpt lat="48.08554" lon="-3.57517">
        <ele>139.4</ele>
        <time>2025-02-25T08:32:57Z</time>
      </trkpt>
      <trkpt lat="48.08553" lon="-3.57516">
        <ele>139.3</ele>
        <time>2025-02-25T08:32:58Z</time>
      </trkpt>
      <trkpt lat="48.08552" lon="-3.57515">
        <ele>139.2</ele>
        <time>2025-02-25T08:32:59Z</time>
      </trkpt>
      <trkpt lat="48.08552" lon="-3.57514">
        <ele>139.1</ele>
        <time>2025-02-25T08:33:00Z</time>
      </trkpt>
      <trkpt lat="48.08551" lon="-3.57513">
        <ele>139</ele>
        <time>2025-02-25T08:33:01Z</time>
      </trkpt>
      <trkpt lat="48.0855" lon="-3.57512">
        <ele>138.8</ele>
        <time>2025-02-25T08:33:02Z</time>
      </trkpt>
      <trkpt lat="48.0855" lon="-3.5751">
        <ele>138.8</ele>
        <time>2025-02-25T08:33:03Z</time>
      </trkpt>
      <trkpt lat="48.08549" lon="-3.57509">
        <ele>138.6</ele>
        <time>2025-02-25T08:33:04Z</time>
      </trkpt>
      <trkpt lat="48.08548" lon="-3.57508">
        <ele>138.5</ele>
        <time>2025-02-25T08:33:05Z</time>
      </trkpt>
      <trkpt lat="48.08548" lon="-3.57507">
        <ele>138.4</ele>
        <time>2025-02-25T08:33:06Z</time>
      </trkpt>
      <trkpt lat="48.08547" lon="-3.57506">
        <ele>138.3</ele>
        <time>2025-02-25T08:33:07Z</time>
      </trkpt>
      <trkpt lat="48.08546" lon="-3.57504">
        <ele>138.1</ele>
        <time>2025-02-25T08:33:08Z</time>
      </trkpt>
      <trkpt lat="48.08545" lon="-3.57503">
        <ele>138</ele>
        <time>2025-02-25T08:33:09Z</time>
      </trkpt>
      <trkpt lat="48.08545" lon="-3.57501">
        <ele>137.9</ele>
        <time>2025-02-25T08:33:10Z</time>
      </trkpt>
      <trkpt lat="48.08544" lon="-3.57501">
        <ele>137.8</ele>
        <time>2025-02-25T08:33:11Z</time>
      </trkpt>
      <trkpt lat="48.08543" lon="-3.57499">
        <ele>137.6</ele>
        <time>2025-02-25T08:33:12Z</time>
      </trkpt>
      <trkpt lat="48.08542" lon="-3.57498">
        <ele>137.5</ele>
        <time>2025-02-25T08:33:13Z</time>
      </trkpt>
      <trkpt lat="48.08541" lon="-3.57497">
        <ele>137.3</ele>
        <time>2025-02-25T08:33:14Z</time>
      </trkpt>
      <trkpt lat="48.08541" lon="-3.57496">
        <ele>137.3</ele>
        <time>2025-02-25T08:33:15Z</time>
      </trkpt>
      <trkpt lat="48.0854" lon="-3.57495">
        <ele>137.1</ele>
        <time>2025-02-25T08:33:16Z</time>
      </trkpt>
      <trkpt lat="48.08539" lon="-3.57494">
        <ele>137</ele>
        <time>2025-02-25T08:33:17Z</time>
      </trkpt>
      <trkpt lat="48.08538" lon="-3.57493">
        <ele>136.9</ele>
        <time>2025-02-25T08:33:18Z</time>
      </trkpt>
      <trkpt lat="48.08538" lon="-3.57492">
        <ele>136.8</ele>
        <time>2025-02-25T08:33:19Z</time>
      </trkpt>
      <trkpt lat="48.08537" lon="-3.57491">
        <ele>136.7</ele>
        <time>2025-02-25T08:33:20Z</time>
      </trkpt>
      <trkpt lat="48.08536" lon="-3.5749">
        <ele>136.5</ele>
        <time>2025-02-25T08:33:21Z</time>
      </trkpt>
      <trkpt lat="48.08535" lon="-3.57489">
        <ele>136.4</ele>
        <time>2025-02-25T08:33:22Z</time>
      </trkpt>
      <trkpt lat="48.08535" lon="-3.57488">
        <ele>136.3</ele>
        <time>2025-02-25T08:33:23Z</time>
      </trkpt>
      <trkpt lat="48.08534" lon="-3.57487">
        <ele>136.2</ele>
        <time>2025-02-25T08:33:24Z</time>
      </trkpt>
      <trkpt lat="48.08533" lon="-3.57486">
        <ele>136.1</ele>
        <time>2025-02-25T08:33:25Z</time>
      </trkpt>
      <trkpt lat="48.08532" lon="-3.57485">
        <ele>135.9</ele>
        <time>2025-02-25T08:33:26Z</time>
      </trkpt>
      <trkpt lat="48.08531" lon="-3.57485">
        <ele>135.8</ele>
        <time>2025-02-25T08:33:27Z</time>
      </trkpt>
      <trkpt lat="48.0853" lon="-3.57484">
        <ele>135.7</ele>
        <time>2025-02-25T08:33:28Z</time>
      </trkpt>
      <trkpt lat="48.08529" lon="-3.57483">
        <ele>135.5</ele>
        <time>2025-02-25T08:33:29Z</time>
      </trkpt>
      <trkpt lat="48.08528" lon="-3.57482">
        <ele>135.4</ele>
        <time>2025-02-25T08:33:30Z</time>
      </trkpt>
      <trkpt lat="48.08527" lon="-3.5748">
        <ele>135.2</ele>
        <time>2025-02-25T08:33:31Z</time>
      </trkpt>
      <trkpt lat="48.08527" lon="-3.57479">
        <ele>135.2</ele>
        <time>2025-02-25T08:33:32Z</time>
      </trkpt>
      <trkpt lat="48.08526" lon="-3.57478">
        <ele>135</ele>
        <time>2025-02-25T08:33:33Z</time>
      </trkpt>
      <trkpt lat="48.08525" lon="-3.57476">
        <ele>134.8</ele>
        <time>2025-02-25T08:33:34Z</time>
      </trkpt>
      <trkpt lat="48.08525" lon="-3.57475">
        <ele>134.8</ele>
        <time>2025-02-25T08:33:35Z</time>
      </trkpt>
      <trkpt lat="48.08524" lon="-3.57474">
        <ele>134.7</ele>
        <time>2025-02-25T08:33:36Z</time>
      </trkpt>
      <trkpt lat="48.08524" lon="-3.57472">
        <ele>134.6</ele>
        <time>2025-02-25T08:33:37Z</time>
      </trkpt>
      <trkpt lat="48.08523" lon="-3.57471">
        <ele>134.4</ele>
        <time>2025-02-25T08:33:38Z</time>
      </trkpt>
      <trkpt lat="48.08522" lon="-3.5747">
        <ele>134.3</ele>
        <time>2025-02-25T08:33:39Z</time>
      </trkpt>
      <trkpt lat="48.08521" lon="-3.57469">
        <ele>134.2</ele>
        <time>2025-02-25T08:33:40Z</time>
      </trkpt>
      <trkpt lat="48.08521" lon="-3.57468">
        <ele>134.1</ele>
        <time>2025-02-25T08:33:41Z</time>
      </trkpt>
      <trkpt lat="48.0852" lon="-3.57468">
        <ele>134</ele>
        <time>2025-02-25T08:33:42Z</time>
      </trkpt>
      <trkpt lat="48.08519" lon="-3.57467">
        <ele>133.9</ele>
        <time>2025-02-25T08:33:43Z</time>
      </trkpt>
      <trkpt lat="48.08518" lon="-3.57466">
        <ele>133.7</ele>
        <time>2025-02-25T08:33:44Z</time>
      </trkpt>
      <trkpt lat="48.08517" lon="-3.57465">
        <ele>133.6</ele>
        <time>2025-02-25T08:33:45Z</time>
      </trkpt>
      <trkpt lat="48.08517" lon="-3.57464">
        <ele>133.5</ele>
        <time>2025-02-25T08:33:46Z</time>
      </trkpt>
      <trkpt lat="48.08516" lon="-3.57463">
        <ele>133.4</ele>
        <time>2025-02-25T08:33:47Z</time>
      </trkpt>
      <trkpt lat="48.08515" lon="-3.57462">
        <ele>133.3</ele>
        <time>2025-02-25T08:33:48Z</time>
      </trkpt>
      <trkpt lat="48.08515" lon="-3.57461">
        <ele>133.2</ele>
        <time>2025-02-25T08:33:49Z</time>
      </trkpt>
      <trkpt lat="48.08514" lon="-3.57459">
        <ele>133</ele>
        <time>2025-02-25T08:33:50Z</time>
      </trkpt>
      <trkpt lat="48.08513" lon="-3.57458">
        <ele>132.9</ele>
        <time>2025-02-25T08:33:51Z</time>
      </trkpt>
      <trkpt lat="48.08512" lon="-3.57457">
        <ele>132.7</ele>
        <time>2025-02-25T08:33:52Z</time>
      </trkpt>
      <trkpt lat="48.08511" lon="-3.57456">
        <ele>132.6</ele>
        <time>2025-02-25T08:33:53Z</time>
      </trkpt>
      <trkpt lat="48.0851" lon="-3.57455">
        <ele>132.5</ele>
        <time>2025-02-25T08:33:54Z</time>
      </trkpt>
      <trkpt lat="48.0851" lon="-3.57453">
        <ele>132.4</ele>
        <time>2025-02-25T08:33:55Z</time>
      </trkpt>
      <trkpt lat="48.08509" lon="-3.57452">
        <ele>132.2</ele>
        <time>2025-02-25T08:33:56Z</time>
      </trkpt>
      <trkpt lat="48.08508" lon="-3.57451">
        <ele>132.1</ele>
        <time>2025-02-25T08:33:57Z</time>
      </trkpt>
      <trkpt lat="48.08507" lon="-3.5745">
        <ele>132</ele>
        <time>2025-02-25T08:33:58Z</time>
      </trkpt>
      <trkpt lat="48.08506" lon="-3.57449">
        <ele>131.8</ele>
        <time>2025-02-25T08:33:59Z</time>
      </trkpt>
      <trkpt lat="48.08506" lon="-3.57448">
        <ele>131.8</ele>
        <time>2025-02-25T08:34:00Z</time>
      </trkpt>
      <trkpt lat="48.08505" lon="-3.57446">
        <ele>131.6</ele>
        <time>2025-02-25T08:34:01Z</time>
      </trkpt>
      <trkpt lat="48.08504" lon="-3.57445">
        <ele>131.5</ele>
        <time>2025-02-25T08:34:02Z</time>
      </trkpt>
      <trkpt lat="48.08503" lon="-3.57444">
        <ele>131.3</ele>
        <time>2025-02-25T08:34:03Z</time>
      </trkpt>
      <trkpt lat="48.08502" lon="-3.57443">
        <ele>131.2</ele>
        <time>2025-02-25T08:34:04Z</time>
      </trkpt>
      <trkpt lat="48.08501" lon="-3.57442">
        <ele>131</ele>
        <time>2025-02-25T08:34:05Z</time>
      </trkpt>
      <trkpt lat="48.085" lon="-3.57441">
        <ele>130.9</ele>
        <time>2025-02-25T08:34:06Z</time>
      </trkpt>
      <trkpt lat="48.08499" lon="-3.5744">
        <ele>130.8</ele>
        <time>2025-02-25T08:34:07Z</time>
      </trkpt>
      <trkpt lat="48.08499" lon="-3.57439">
        <ele>130.7</ele>
        <time>2025-02-25T08:34:08Z</time>
      </trkpt>
      <trkpt lat="48.08498" lon="-3.57438">
        <ele>130.6</ele>
        <time>2025-02-25T08:34:09Z</time>
      </trkpt>
      <trkpt lat="48.08497" lon="-3.57437">
        <ele>130.5</ele>
        <time>2025-02-25T08:34:10Z</time>
      </trkpt>
      <trkpt lat="48.08496" lon="-3.57436">
        <ele>130.4</ele>
        <time>2025-02-25T08:34:11Z</time>
      </trkpt>
      <trkpt lat="48.08495" lon="-3.57435">
        <ele>130.3</ele>
        <time>2025-02-25T08:34:12Z</time>
      </trkpt>
      <trkpt lat="48.08494" lon="-3.57433">
        <ele>130.2</ele>
        <time>2025-02-25T08:34:13Z</time>
      </trkpt>
      <trkpt lat="48.08494" lon="-3.57432">
        <ele>130.1</ele>
        <time>2025-02-25T08:34:14Z</time>
      </trkpt>
      <trkpt lat="48.08493" lon="-3.57431">
        <ele>130</ele>
        <time>2025-02-25T08:34:15Z</time>
      </trkpt>
      <trkpt lat="48.08492" lon="-3.5743">
        <ele>129.9</ele>
        <time>2025-02-25T08:34:16Z</time>
      </trkpt>
      <trkpt lat="48.08491" lon="-3.57429">
        <ele>129.8</ele>
        <time>2025-02-25T08:34:17Z</time>
      </trkpt>
      <trkpt lat="48.0849" lon="-3.57428">
        <ele>129.7</ele>
        <time>2025-02-25T08:34:18Z</time>
      </trkpt>
      <trkpt lat="48.08489" lon="-3.57427">
        <ele>129.6</ele>
        <time>2025-02-25T08:34:19Z</time>
      </trkpt>
      <trkpt lat="48.08488" lon="-3.57425">
        <ele>129.4</ele>
        <time>2025-02-25T08:34:20Z</time>
      </trkpt>
      <trkpt lat="48.08487" lon="-3.57424">
        <ele>129.3</ele>
        <time>2025-02-25T08:34:21Z</time>
      </trkpt>
      <trkpt lat="48.08486" lon="-3.57423">
        <ele>129.2</ele>
        <time>2025-02-25T08:34:22Z</time>
      </trkpt>
      <trkpt lat="48.08485" lon="-3.57422">
        <ele>129.1</ele>
        <time>2025-02-25T08:34:23Z</time>
      </trkpt>
      <trkpt lat="48.08484" lon="-3.57421">
        <ele>129</ele>
        <time>2025-02-25T08:34:24Z</time>
      </trkpt>
      <trkpt lat="48.08483" lon="-3.57419">
        <ele>128.9</ele>
        <time>2025-02-25T08:34:25Z</time>
      </trkpt>
      <trkpt lat="48.08483" lon="-3.57418">
        <ele>128.8</ele>
        <time>2025-02-25T08:34:26Z</time>
      </trkpt>
      <trkpt lat="48.08482" lon="-3.57417">
        <ele>128.7</ele>
        <time>2025-02-25T08:34:27Z</time>
      </trkpt>
      <trkpt lat="48.08481" lon="-3.57415">
        <ele>128.6</ele>
        <time>2025-02-25T08:34:28Z</time>
      </trkpt>
      <trkpt lat="48.0848" lon="-3.57414">
        <ele>128.6</ele>
        <time>2025-02-25T08:34:29Z</time>
      </trkpt>
      <trkpt lat="48.08479" lon="-3.57413">
        <ele>128.5</ele>
        <time>2025-02-25T08:34:30Z</time>
      </trkpt>
      <trkpt lat="48.08478" lon="-3.57412">
        <ele>128.4</ele>
        <time>2025-02-25T08:34:31Z</time>
      </trkpt>
      <trkpt lat="48.08477" lon="-3.57411">
        <ele>128.3</ele>
        <time>2025-02-25T08:34:32Z</time>
      </trkpt>
      <trkpt lat="48.08477" lon="-3.5741">
        <ele>128.3</ele>
        <time>2025-02-25T08:34:33Z</time>
      </trkpt>
      <trkpt lat="48.08476" lon="-3.57409">
        <ele>128.3</ele>
        <time>2025-02-25T08:34:34Z</time>
      </trkpt>
      <trkpt lat="48.08475" lon="-3.57408">
        <ele>128.2</ele>
        <time>2025-02-25T08:34:35Z</time>
      </trkpt>
      <trkpt lat="48.08474" lon="-3.57407">
        <ele>128.1</ele>
        <time>2025-02-25T08:34:36Z</time>
      </trkpt>
      <trkpt lat="48.08473" lon="-3.57406">
        <ele>128.1</ele>
        <time>2025-02-25T08:34:37Z</time>
      </trkpt>
      <trkpt lat="48.08472" lon="-3.57405">
        <ele>128</ele>
        <time>2025-02-25T08:34:38Z</time>
      </trkpt>
      <trkpt lat="48.08471" lon="-3.57403">
        <ele>127.9</ele>
        <time>2025-02-25T08:34:39Z</time>
      </trkpt>
      <trkpt lat="48.0847" lon="-3.57402">
        <ele>127.8</ele>
        <time>2025-02-25T08:34:40Z</time>
      </trkpt>
      <trkpt lat="48.08469" lon="-3.57401">
        <ele>127.8</ele>
        <time>2025-02-25T08:34:41Z</time>
      </trkpt>
      <trkpt lat="48.08468" lon="-3.57401">
        <ele>127.7</ele>
        <time>2025-02-25T08:34:42Z</time>
      </trkpt>
      <trkpt lat="48.08467" lon="-3.574">
        <ele>127.6</ele>
        <time>2025-02-25T08:34:43Z</time>
      </trkpt>
      <trkpt lat="48.08466" lon="-3.57399">
        <ele>127.6</ele>
        <time>2025-02-25T08:34:44Z</time>
      </trkpt>
      <trkpt lat="48.08465" lon="-3.57398">
        <ele>127.5</ele>
        <time>2025-02-25T08:34:45Z</time>
      </trkpt>
      <trkpt lat="48.08463" lon="-3.57397">
        <ele>127.3</ele>
        <time>2025-02-25T08:34:46Z</time>
      </trkpt>
      <trkpt lat="48.08463" lon="-3.57396">
        <ele>127.3</ele>
        <time>2025-02-25T08:34:47Z</time>
      </trkpt>
      <trkpt lat="48.08462" lon="-3.57394">
        <ele>127.3</ele>
        <time>2025-02-25T08:34:48Z</time>
      </trkpt>
      <trkpt lat="48.08461" lon="-3.57393">
        <ele>127.2</ele>
        <time>2025-02-25T08:34:49Z</time>
      </trkpt>
      <trkpt lat="48.0846" lon="-3.57392">
        <ele>127.1</ele>
        <time>2025-02-25T08:34:50Z</time>
      </trkpt>
      <trkpt lat="48.08458" lon="-3.57392">
        <ele>127</ele>
        <time>2025-02-25T08:34:51Z</time>
      </trkpt>
      <trkpt lat="48.08457" lon="-3.57391">
        <ele>126.9</ele>
        <time>2025-02-25T08:34:52Z</time>
      </trkpt>
      <trkpt lat="48.08456" lon="-3.5739">
        <ele>126.8</ele>
        <time>2025-02-25T08:34:53Z</time>
      </trkpt>
      <trkpt lat="48.08455" lon="-3.5739">
        <ele>126.8</ele>
        <time>2025-02-25T08:34:54Z</time>
      </trkpt>
      <trkpt lat="48.08454" lon="-3.57388">
        <ele>126.7</ele>
        <time>2025-02-25T08:34:55Z</time>
      </trkpt>
      <trkpt lat="48.08453" lon="-3.57387">
        <ele>126.6</ele>
        <time>2025-02-25T08:34:56Z</time>
      </trkpt>
      <trkpt lat="48.08452" lon="-3.57386">
        <ele>126.5</ele>
        <time>2025-02-25T08:34:57Z</time>
      </trkpt>
      <trkpt lat="48.08451" lon="-3.57385">
        <ele>126.4</ele>
        <time>2025-02-25T08:34:58Z</time>
      </trkpt>
      <trkpt lat="48.0845" lon="-3.57384">
        <ele>126.4</ele>
        <time>2025-02-25T08:34:59Z</time>
      </trkpt>
      <trkpt lat="48.08449" lon="-3.57383">
        <ele>126.3</ele>
        <time>2025-02-25T08:35:00Z</time>
      </trkpt>
      <trkpt lat="48.08448" lon="-3.57382">
        <ele>126.2</ele>
        <time>2025-02-25T08:35:01Z</time>
      </trkpt>
      <trkpt lat="48.08447" lon="-3.57382">
        <ele>126.2</ele>
        <time>2025-02-25T08:35:02Z</time>
      </trkpt>
      <trkpt lat="48.08446" lon="-3.57383">
        <ele>126.1</ele>
        <time>2025-02-25T08:35:03Z</time>
      </trkpt>
      <trkpt lat="48.08445" lon="-3.57383">
        <ele>126</ele>
        <time>2025-02-25T08:35:04Z</time>
      </trkpt>
      <trkpt lat="48.08444" lon="-3.57383">
        <ele>126</ele>
        <time>2025-02-25T08:35:05Z</time>
      </trkpt>
      <trkpt lat="48.08442" lon="-3.57382">
        <ele>125.7</ele>
        <time>2025-02-25T08:35:06Z</time>
      </trkpt>
      <trkpt lat="48.08441" lon="-3.57383">
        <ele>125.6</ele>
        <time>2025-02-25T08:35:07Z</time>
      </trkpt>
      <trkpt lat="48.08441" lon="-3.57384">
        <ele>125.6</ele>
        <time>2025-02-25T08:35:08Z</time>
      </trkpt>
      <trkpt lat="48.0844" lon="-3.57386">
        <ele>125.5</ele>
        <time>2025-02-25T08:35:09Z</time>
      </trkpt>
      <trkpt lat="48.0844" lon="-3.57387">
        <ele>125.5</ele>
        <time>2025-02-25T08:35:10Z</time>
      </trkpt>
      <trkpt lat="48.0844" lon="-3.57389">
        <ele>125.5</ele>
        <time>2025-02-25T08:35:11Z</time>
      </trkpt>
      <trkpt lat="48.08439" lon="-3.57391">
        <ele>125.4</ele>
        <time>2025-02-25T08:35:12Z</time>
      </trkpt>
      <trkpt lat="48.08439" lon="-3.57392">
        <ele>125.4</ele>
        <time>2025-02-25T08:35:13Z</time>
      </trkpt>
      <trkpt lat="48.08439" lon="-3.57393">
        <ele>125.4</ele>
        <time>2025-02-25T08:35:14Z</time>
      </trkpt>
      <trkpt lat="48.08439" lon="-3.57394">
        <ele>125.4</ele>
        <time>2025-02-25T08:35:15Z</time>
      </trkpt>
      <trkpt lat="48.08438" lon="-3.57395">
        <ele>125.4</ele>
        <time>2025-02-25T08:35:16Z</time>
      </trkpt>
      <trkpt lat="48.08437" lon="-3.57397">
        <ele>125.3</ele>
        <time>2025-02-25T08:35:17Z</time>
      </trkpt>
      <trkpt lat="48.08437" lon="-3.57398">
        <ele>125.3</ele>
        <time>2025-02-25T08:35:18Z</time>
      </trkpt>
      <trkpt lat="48.08436" lon="-3.57399">
        <ele>125.2</ele>
        <time>2025-02-25T08:35:19Z</time>
      </trkpt>
      <trkpt lat="48.08435" lon="-3.57399">
        <ele>125.1</ele>
        <time>2025-02-25T08:35:20Z</time>
      </trkpt>
      <trkpt lat="48.08434" lon="-3.57401">
        <ele>125</ele>
        <time>2025-02-25T08:35:21Z</time>
      </trkpt>
      <trkpt lat="48.08433" lon="-3.57401">
        <ele>124.9</ele>
        <time>2025-02-25T08:35:22Z</time>
      </trkpt>
      <trkpt lat="48.08432" lon="-3.57402">
        <ele>124.9</ele>
        <time>2025-02-25T08:35:23Z</time>
      </trkpt>
      <trkpt lat="48.08432" lon="-3.57404">
        <ele>124.9</ele>
        <time>2025-02-25T08:35:24Z</time>
      </trkpt>
      <trkpt lat="48.08432" lon="-3.57405">
        <ele>124.9</ele>
        <time>2025-02-25T08:35:25Z</time>
      </trkpt>
      <trkpt lat="48.08432" lon="-3.57406">
        <ele>124.9</ele>
        <time>2025-02-25T08:35:26Z</time>
      </trkpt>
      <trkpt lat="48.08432" lon="-3.57408">
        <ele>125</ele>
        <time>2025-02-25T08:35:27Z</time>
      </trkpt>
      <trkpt lat="48.08431" lon="-3.57409">
        <ele>124.9</ele>
        <time>2025-02-25T08:35:28Z</time>
      </trkpt>
      <trkpt lat="48.08431" lon="-3.5741">
        <ele>124.9</ele>
        <time>2025-02-25T08:35:29Z</time>
      </trkpt>
      <trkpt lat="48.0843" lon="-3.5741">
        <ele>124.8</ele>
        <time>2025-02-25T08:35:30Z</time>
      </trkpt>
      <trkpt lat="48.08429" lon="-3.57411">
        <ele>124.8</ele>
        <time>2025-02-25T08:35:31Z</time>
      </trkpt>
      <trkpt lat="48.08429" lon="-3.57412">
        <ele>124.8</ele>
        <time>2025-02-25T08:35:32Z</time>
      </trkpt>
      <trkpt lat="48.08428" lon="-3.57412">
        <ele>124.7</ele>
        <time>2025-02-25T08:35:33Z</time>
      </trkpt>
      <trkpt lat="48.08427" lon="-3.57413">
        <ele>124.7</ele>
        <time>2025-02-25T08:35:34Z</time>
      </trkpt>
      <trkpt lat="48.08426" lon="-3.57413">
        <ele>124.6</ele>
        <time>2025-02-25T08:35:35Z</time>
      </trkpt>
      <trkpt lat="48.08426" lon="-3.57415">
        <ele>124.6</ele>
        <time>2025-02-25T08:35:36Z</time>
      </trkpt>
      <trkpt lat="48.08425" lon="-3.57416">
        <ele>124.6</ele>
        <time>2025-02-25T08:35:37Z</time>
      </trkpt>
      <trkpt lat="48.08425" lon="-3.57417">
        <ele>124.6</ele>
        <time>2025-02-25T08:35:38Z</time>
      </trkpt>
      <trkpt lat="48.08424" lon="-3.57419">
        <ele>124.6</ele>
        <time>2025-02-25T08:35:39Z</time>
      </trkpt>
      <trkpt lat="48.08423" lon="-3.5742">
        <ele>124.6</ele>
        <time>2025-02-25T08:35:40Z</time>
      </trkpt>
      <trkpt lat="48.08422" lon="-3.57421">
        <ele>124.5</ele>
        <time>2025-02-25T08:35:41Z</time>
      </trkpt>
      <trkpt lat="48.08421" lon="-3.57423">
        <ele>124.5</ele>
        <time>2025-02-25T08:35:42Z</time>
      </trkpt>
      <trkpt lat="48.0842" lon="-3.57424">
        <ele>124.5</ele>
        <time>2025-02-25T08:35:43Z</time>
      </trkpt>
      <trkpt lat="48.08419" lon="-3.57425">
        <ele>124.5</ele>
        <time>2025-02-25T08:35:44Z</time>
      </trkpt>
      <trkpt lat="48.08418" lon="-3.57426">
        <ele>124.4</ele>
        <time>2025-02-25T08:35:45Z</time>
      </trkpt>
      <trkpt lat="48.08418" lon="-3.57427">
        <ele>124.5</ele>
        <time>2025-02-25T08:35:46Z</time>
      </trkpt>
      <trkpt lat="48.08416" lon="-3.57428">
        <ele>124.4</ele>
        <time>2025-02-25T08:35:47Z</time>
      </trkpt>
      <trkpt lat="48.08415" lon="-3.5743">
        <ele>124.4</ele>
        <time>2025-02-25T08:35:48Z</time>
      </trkpt>
      <trkpt lat="48.08414" lon="-3.57431">
        <ele>124.4</ele>
        <time>2025-02-25T08:35:49Z</time>
      </trkpt>
      <trkpt lat="48.08414" lon="-3.57432">
        <ele>124.5</ele>
        <time>2025-02-25T08:35:50Z</time>
      </trkpt>
      <trkpt lat="48.08413" lon="-3.57434">
        <ele>124.5</ele>
        <time>2025-02-25T08:35:51Z</time>
      </trkpt>
      <trkpt lat="48.08413" lon="-3.57435">
        <ele>124.5</ele>
        <time>2025-02-25T08:35:52Z</time>
      </trkpt>
      <trkpt lat="48.08412" lon="-3.57437">
        <ele>124.6</ele>
        <time>2025-02-25T08:35:53Z</time>
      </trkpt>
      <trkpt lat="48.08411" lon="-3.57437">
        <ele>124.5</ele>
        <time>2025-02-25T08:35:54Z</time>
      </trkpt>
      <trkpt lat="48.0841" lon="-3.57438">
        <ele>124.5</ele>
        <time>2025-02-25T08:35:55Z</time>
      </trkpt>
      <trkpt lat="48.08409" lon="-3.57439">
        <ele>124.5</ele>
        <time>2025-02-25T08:35:56Z</time>
      </trkpt>
      <trkpt lat="48.08409" lon="-3.5744">
        <ele>124.6</ele>
        <time>2025-02-25T08:35:57Z</time>
      </trkpt>
      <trkpt lat="48.08408" lon="-3.57441">
        <ele>124.6</ele>
        <time>2025-02-25T08:35:58Z</time>
      </trkpt>
      <trkpt lat="48.08407" lon="-3.57442">
        <ele>124.6</ele>
        <time>2025-02-25T08:35:59Z</time>
      </trkpt>
      <trkpt lat="48.08406" lon="-3.57443">
        <ele>124.6</ele>
        <time>2025-02-25T08:36:00Z</time>
      </trkpt>
      <trkpt lat="48.08405" lon="-3.57444">
        <ele>124.6</ele>
        <time>2025-02-25T08:36:01Z</time>
      </trkpt>
      <trkpt lat="48.08405" lon="-3.57445">
        <ele>124.6</ele>
        <time>2025-02-25T08:36:02Z</time>
      </trkpt>
      <trkpt lat="48.08404" lon="-3.57446">
        <ele>124.6</ele>
        <time>2025-02-25T08:36:03Z</time>
      </trkpt>
      <trkpt lat="48.08404" lon="-3.57447">
        <ele>124.7</ele>
        <time>2025-02-25T08:36:04Z</time>
      </trkpt>
      <trkpt lat="48.08403" lon="-3.57448">
        <ele>124.7</ele>
        <time>2025-02-25T08:36:05Z</time>
      </trkpt>
      <trkpt lat="48.08402" lon="-3.57449">
        <ele>124.7</ele>
        <time>2025-02-25T08:36:06Z</time>
      </trkpt>
      <trkpt lat="48.08401" lon="-3.5745">
        <ele>124.7</ele>
        <time>2025-02-25T08:36:07Z</time>
      </trkpt>
      <trkpt lat="48.084" lon="-3.57451">
        <ele>124.7</ele>
        <time>2025-02-25T08:36:08Z</time>
      </trkpt>
      <trkpt lat="48.08399" lon="-3.57451">
        <ele>124.7</ele>
        <time>2025-02-25T08:36:09Z</time>
      </trkpt>
      <trkpt lat="48.08398" lon="-3.57452">
        <ele>124.7</ele>
        <time>2025-02-25T08:36:10Z</time>
      </trkpt>
      <trkpt lat="48.08397" lon="-3.57453">
        <ele>124.7</ele>
        <time>2025-02-25T08:36:11Z</time>
      </trkpt>
      <trkpt lat="48.08396" lon="-3.57454">
        <ele>124.7</ele>
        <time>2025-02-25T08:36:12Z</time>
      </trkpt>
      <trkpt lat="48.08395" lon="-3.57455">
        <ele>124.7</ele>
        <time>2025-02-25T08:36:13Z</time>
      </trkpt>
      <trkpt lat="48.08394" lon="-3.57456">
        <ele>124.7</ele>
        <time>2025-02-25T08:36:14Z</time>
      </trkpt>
      <trkpt lat="48.08393" lon="-3.57457">
        <ele>124.7</ele>
        <time>2025-02-25T08:36:15Z</time>
      </trkpt>
      <trkpt lat="48.08392" lon="-3.57458">
        <ele>124.7</ele>
        <time>2025-02-25T08:36:16Z</time>
      </trkpt>
      <trkpt lat="48.08391" lon="-3.57459">
        <ele>124.6</ele>
        <time>2025-02-25T08:36:17Z</time>
      </trkpt>
      <trkpt lat="48.0839" lon="-3.5746">
        <ele>124.6</ele>
        <time>2025-02-25T08:36:18Z</time>
      </trkpt>
      <trkpt lat="48.08389" lon="-3.57461">
        <ele>124.6</ele>
        <time>2025-02-25T08:36:19Z</time>
      </trkpt>
      <trkpt lat="48.08388" lon="-3.57462">
        <ele>124.6</ele>
        <time>2025-02-25T08:36:20Z</time>
      </trkpt>
      <trkpt lat="48.08387" lon="-3.57463">
        <ele>124.6</ele>
        <time>2025-02-25T08:36:21Z</time>
      </trkpt>
      <trkpt lat="48.08386" lon="-3.57463">
        <ele>124.6</ele>
        <time>2025-02-25T08:36:22Z</time>
      </trkpt>
      <trkpt lat="48.08385" lon="-3.57463">
        <ele>124.6</ele>
        <time>2025-02-25T08:36:23Z</time>
      </trkpt>
      <trkpt lat="48.08384" lon="-3.57464">
        <ele>124.7</ele>
        <time>2025-02-25T08:36:24Z</time>
      </trkpt>
      <trkpt lat="48.08383" lon="-3.57465">
        <ele>124.7</ele>
        <time>2025-02-25T08:36:25Z</time>
      </trkpt>
      <trkpt lat="48.08382" lon="-3.57466">
        <ele>124.7</ele>
        <time>2025-02-25T08:36:26Z</time>
      </trkpt>
      <trkpt lat="48.0838" lon="-3.57467">
        <ele>124.8</ele>
        <time>2025-02-25T08:36:27Z</time>
      </trkpt>
      <trkpt lat="48.08379" lon="-3.57468">
        <ele>124.8</ele>
        <time>2025-02-25T08:36:28Z</time>
      </trkpt>
      <trkpt lat="48.08377" lon="-3.57468">
        <ele>124.8</ele>
        <time>2025-02-25T08:36:29Z</time>
      </trkpt>
      <trkpt lat="48.08376" lon="-3.57467">
        <ele>124.7</ele>
        <time>2025-02-25T08:36:30Z</time>
      </trkpt>
      <trkpt lat="48.08375" lon="-3.57468">
        <ele>124.8</ele>
        <time>2025-02-25T08:36:31Z</time>
      </trkpt>
      <trkpt lat="48.08374" lon="-3.57469">
        <ele>124.8</ele>
        <time>2025-02-25T08:36:32Z</time>
      </trkpt>
      <trkpt lat="48.08373" lon="-3.5747">
        <ele>124.9</ele>
        <time>2025-02-25T08:36:33Z</time>
      </trkpt>
      <trkpt lat="48.08372" lon="-3.57471">
        <ele>124.9</ele>
        <time>2025-02-25T08:36:34Z</time>
      </trkpt>
      <trkpt lat="48.08371" lon="-3.57471">
        <ele>124.9</ele>
        <time>2025-02-25T08:36:35Z</time>
      </trkpt>
      <trkpt lat="48.0837" lon="-3.57472">
        <ele>125</ele>
        <time>2025-02-25T08:36:36Z</time>
      </trkpt>
      <trkpt lat="48.08369" lon="-3.57472">
        <ele>125</ele>
        <time>2025-02-25T08:36:37Z</time>
      </trkpt>
      <trkpt lat="48.08368" lon="-3.57473">
        <ele>125</ele>
        <time>2025-02-25T08:36:38Z</time>
      </trkpt>
      <trkpt lat="48.08367" lon="-3.57474">
        <ele>125.1</ele>
        <time>2025-02-25T08:36:39Z</time>
      </trkpt>
      <trkpt lat="48.08366" lon="-3.57475">
        <ele>125.1</ele>
        <time>2025-02-25T08:36:40Z</time>
      </trkpt>
      <trkpt lat="48.08365" lon="-3.57476">
        <ele>125.2</ele>
        <time>2025-02-25T08:36:41Z</time>
      </trkpt>
      <trkpt lat="48.08364" lon="-3.57477">
        <ele>125.2</ele>
        <time>2025-02-25T08:36:42Z</time>
      </trkpt>
      <trkpt lat="48.08363" lon="-3.57478">
        <ele>125.2</ele>
        <time>2025-02-25T08:36:43Z</time>
      </trkpt>
      <trkpt lat="48.08363" lon="-3.57479">
        <ele>125.3</ele>
        <time>2025-02-25T08:36:44Z</time>
      </trkpt>
      <trkpt lat="48.08362" lon="-3.5748">
        <ele>125.3</ele>
        <time>2025-02-25T08:36:45Z</time>
      </trkpt>
      <trkpt lat="48.08361" lon="-3.5748">
        <ele>125.3</ele>
        <time>2025-02-25T08:36:46Z</time>
      </trkpt>
      <trkpt lat="48.0836" lon="-3.57481">
        <ele>125.3</ele>
        <time>2025-02-25T08:36:47Z</time>
      </trkpt>
      <trkpt lat="48.08359" lon="-3.57482">
        <ele>125.3</ele>
        <time>2025-02-25T08:36:48Z</time>
      </trkpt>
      <trkpt lat="48.08357" lon="-3.57482">
        <ele>125.2</ele>
        <time>2025-02-25T08:36:49Z</time>
      </trkpt>
      <trkpt lat="48.08357" lon="-3.57483">
        <ele>125.2</ele>
        <time>2025-02-25T08:36:50Z</time>
      </trkpt>
      <trkpt lat="48.08356" lon="-3.57486">
        <ele>125.3</ele>
        <time>2025-02-25T08:36:51Z</time>
      </trkpt>
      <trkpt lat="48.08355" lon="-3.57486">
        <ele>125.3</ele>
        <time>2025-02-25T08:36:52Z</time>
      </trkpt>
      <trkpt lat="48.08354" lon="-3.57487">
        <ele>125.3</ele>
        <time>2025-02-25T08:36:53Z</time>
      </trkpt>
      <trkpt lat="48.08353" lon="-3.57489">
        <ele>125.3</ele>
        <time>2025-02-25T08:36:54Z</time>
      </trkpt>
      <trkpt lat="48.08352" lon="-3.5749">
        <ele>125.3</ele>
        <time>2025-02-25T08:36:55Z</time>
      </trkpt>
      <trkpt lat="48.08351" lon="-3.57491">
        <ele>125.3</ele>
        <time>2025-02-25T08:36:56Z</time>
      </trkpt>
      <trkpt lat="48.0835" lon="-3.57492">
        <ele>125.3</ele>
        <time>2025-02-25T08:36:57Z</time>
      </trkpt>
      <trkpt lat="48.08349" lon="-3.57494">
        <ele>125.3</ele>
        <time>2025-02-25T08:36:58Z</time>
      </trkpt>
      <trkpt lat="48.08348" lon="-3.57494">
        <ele>125.3</ele>
        <time>2025-02-25T08:36:59Z</time>
      </trkpt>
      <trkpt lat="48.08347" lon="-3.57495">
        <ele>125.3</ele>
        <time>2025-02-25T08:37:00Z</time>
      </trkpt>
      <trkpt lat="48.08346" lon="-3.57496">
        <ele>125.3</ele>
        <time>2025-02-25T08:37:01Z</time>
      </trkpt>
      <trkpt lat="48.08345" lon="-3.57498">
        <ele>125.3</ele>
        <time>2025-02-25T08:37:02Z</time>
      </trkpt>
      <trkpt lat="48.08344" lon="-3.57499">
        <ele>125.3</ele>
        <time>2025-02-25T08:37:03Z</time>
      </trkpt>
      <trkpt lat="48.08343" lon="-3.57501">
        <ele>125.4</ele>
        <time>2025-02-25T08:37:04Z</time>
      </trkpt>
      <trkpt lat="48.08342" lon="-3.57501">
        <ele>125.3</ele>
        <time>2025-02-25T08:37:05Z</time>
      </trkpt>
      <trkpt lat="48.08341" lon="-3.57502">
        <ele>125.3</ele>
        <time>2025-02-25T08:37:06Z</time>
      </trkpt>
      <trkpt lat="48.0834" lon="-3.57503">
        <ele>125.3</ele>
        <time>2025-02-25T08:37:07Z</time>
      </trkpt>
      <trkpt lat="48.08339" lon="-3.57504">
        <ele>125.2</ele>
        <time>2025-02-25T08:37:08Z</time>
      </trkpt>
      <trkpt lat="48.08338" lon="-3.57505">
        <ele>125.2</ele>
        <time>2025-02-25T08:37:09Z</time>
      </trkpt>
      <trkpt lat="48.08337" lon="-3.57506">
        <ele>125.2</ele>
        <time>2025-02-25T08:37:10Z</time>
      </trkpt>
      <trkpt lat="48.08336" lon="-3.57508">
        <ele>125.1</ele>
        <time>2025-02-25T08:37:11Z</time>
      </trkpt>
      <trkpt lat="48.08335" lon="-3.57509">
        <ele>125.1</ele>
        <time>2025-02-25T08:37:12Z</time>
      </trkpt>
      <trkpt lat="48.08334" lon="-3.5751">
        <ele>125</ele>
        <time>2025-02-25T08:37:13Z</time>
      </trkpt>
      <trkpt lat="48.08333" lon="-3.57512">
        <ele>125</ele>
        <time>2025-02-25T08:37:14Z</time>
      </trkpt>
      <trkpt lat="48.08332" lon="-3.57512">
        <ele>125</ele>
        <time>2025-02-25T08:37:15Z</time>
      </trkpt>
      <trkpt lat="48.08332" lon="-3.57514">
        <ele>125</ele>
        <time>2025-02-25T08:37:16Z</time>
      </trkpt>
      <trkpt lat="48.08331" lon="-3.57514">
        <ele>124.9</ele>
        <time>2025-02-25T08:37:17Z</time>
      </trkpt>
      <trkpt lat="48.0833" lon="-3.57515">
        <ele>124.9</ele>
        <time>2025-02-25T08:37:18Z</time>
      </trkpt>
      <trkpt lat="48.08329" lon="-3.57517">
        <ele>124.8</ele>
        <time>2025-02-25T08:37:19Z</time>
      </trkpt>
      <trkpt lat="48.08328" lon="-3.57518">
        <ele>124.8</ele>
        <time>2025-02-25T08:37:20Z</time>
      </trkpt>
      <trkpt lat="48.08327" lon="-3.5752">
        <ele>124.8</ele>
        <time>2025-02-25T08:37:21Z</time>
      </trkpt>
      <trkpt lat="48.08326" lon="-3.57521">
        <ele>124.7</ele>
        <time>2025-02-25T08:37:22Z</time>
      </trkpt>
      <trkpt lat="48.08326" lon="-3.57522">
        <ele>124.7</ele>
        <time>2025-02-25T08:37:23Z</time>
      </trkpt>
      <trkpt lat="48.08324" lon="-3.57523">
        <ele>124.7</ele>
        <time>2025-02-25T08:37:24Z</time>
      </trkpt>
      <trkpt lat="48.08323" lon="-3.57523">
        <ele>124.6</ele>
        <time>2025-02-25T08:37:25Z</time>
      </trkpt>
      <trkpt lat="48.08322" lon="-3.57524">
        <ele>124.6</ele>
        <time>2025-02-25T08:37:26Z</time>
      </trkpt>
      <trkpt lat="48.08321" lon="-3.57525">
        <ele>124.6</ele>
        <time>2025-02-25T08:37:27Z</time>
      </trkpt>
      <trkpt lat="48.0832" lon="-3.57526">
        <ele>124.5</ele>
        <time>2025-02-25T08:37:28Z</time>
      </trkpt>
      <trkpt lat="48.08319" lon="-3.57527">
        <ele>124.5</ele>
        <time>2025-02-25T08:37:29Z</time>
      </trkpt>
      <trkpt lat="48.08318" lon="-3.57528">
        <ele>124.5</ele>
        <time>2025-02-25T08:37:30Z</time>
      </trkpt>
      <trkpt lat="48.08317" lon="-3.57529">
        <ele>124.4</ele>
        <time>2025-02-25T08:37:31Z</time>
      </trkpt>
      <trkpt lat="48.08315" lon="-3.57529">
        <ele>124.4</ele>
        <time>2025-02-25T08:37:32Z</time>
      </trkpt>
      <trkpt lat="48.08314" lon="-3.5753">
        <ele>124.3</ele>
        <time>2025-02-25T08:37:33Z</time>
      </trkpt>
      <trkpt lat="48.08313" lon="-3.5753">
        <ele>124.3</ele>
        <time>2025-02-25T08:37:34Z</time>
      </trkpt>
      <trkpt lat="48.08312" lon="-3.57531">
        <ele>124.3</ele>
        <time>2025-02-25T08:37:35Z</time>
      </trkpt>
      <trkpt lat="48.08311" lon="-3.57532">
        <ele>124.2</ele>
        <time>2025-02-25T08:37:36Z</time>
      </trkpt>
      <trkpt lat="48.08309" lon="-3.57533">
        <ele>124.1</ele>
        <time>2025-02-25T08:37:37Z</time>
      </trkpt>
      <trkpt lat="48.08308" lon="-3.57535">
        <ele>124.1</ele>
        <time>2025-02-25T08:37:38Z</time>
      </trkpt>
      <trkpt lat="48.08307" lon="-3.57535">
        <ele>124.1</ele>
        <time>2025-02-25T08:37:39Z</time>
      </trkpt>
      <trkpt lat="48.08306" lon="-3.57535">
        <ele>124</ele>
        <time>2025-02-25T08:37:40Z</time>
      </trkpt>
      <trkpt lat="48.08305" lon="-3.57535">
        <ele>124</ele>
        <time>2025-02-25T08:37:41Z</time>
      </trkpt>
      <trkpt lat="48.08304" lon="-3.57535">
        <ele>123.9</ele>
        <time>2025-02-25T08:37:42Z</time>
      </trkpt>
      <trkpt lat="48.08302" lon="-3.57536">
        <ele>123.9</ele>
        <time>2025-02-25T08:37:43Z</time>
      </trkpt>
      <trkpt lat="48.08301" lon="-3.57537">
        <ele>123.8</ele>
        <time>2025-02-25T08:37:44Z</time>
      </trkpt>
      <trkpt lat="48.083" lon="-3.57537">
        <ele>123.8</ele>
        <time>2025-02-25T08:37:45Z</time>
      </trkpt>
      <trkpt lat="48.08298" lon="-3.57538">
        <ele>123.7</ele>
        <time>2025-02-25T08:37:46Z</time>
      </trkpt>
      <trkpt lat="48.08297" lon="-3.57539">
        <ele>123.7</ele>
        <time>2025-02-25T08:37:47Z</time>
      </trkpt>
      <trkpt lat="48.08296" lon="-3.57539">
        <ele>123.7</ele>
        <time>2025-02-25T08:37:48Z</time>
      </trkpt>
      <trkpt lat="48.08295" lon="-3.5754">
        <ele>123.6</ele>
        <time>2025-02-25T08:37:49Z</time>
      </trkpt>
      <trkpt lat="48.08293" lon="-3.5754">
        <ele>123.5</ele>
        <time>2025-02-25T08:37:50Z</time>
      </trkpt>
      <trkpt lat="48.08292" lon="-3.57541">
        <ele>123.5</ele>
        <time>2025-02-25T08:37:51Z</time>
      </trkpt>
      <trkpt lat="48.08291" lon="-3.57543">
        <ele>123.5</ele>
        <time>2025-02-25T08:37:52Z</time>
      </trkpt>
      <trkpt lat="48.0829" lon="-3.57544">
        <ele>123.4</ele>
        <time>2025-02-25T08:37:53Z</time>
      </trkpt>
      <trkpt lat="48.08289" lon="-3.57545">
        <ele>123.4</ele>
        <time>2025-02-25T08:37:54Z</time>
      </trkpt>
      <trkpt lat="48.08288" lon="-3.57546">
        <ele>123.4</ele>
        <time>2025-02-25T08:37:55Z</time>
      </trkpt>
      <trkpt lat="48.08287" lon="-3.57547">
        <ele>123.3</ele>
        <time>2025-02-25T08:37:56Z</time>
      </trkpt>
      <trkpt lat="48.08286" lon="-3.57548">
        <ele>123.3</ele>
        <time>2025-02-25T08:37:57Z</time>
      </trkpt>
      <trkpt lat="48.08285" lon="-3.57549">
        <ele>123.3</ele>
        <time>2025-02-25T08:37:58Z</time>
      </trkpt>
      <trkpt lat="48.08284" lon="-3.57549">
        <ele>123.2</ele>
        <time>2025-02-25T08:37:59Z</time>
      </trkpt>
      <trkpt lat="48.08283" lon="-3.57549">
        <ele>123.2</ele>
        <time>2025-02-25T08:38:00Z</time>
      </trkpt>
      <trkpt lat="48.08282" lon="-3.57549">
        <ele>123.2</ele>
        <time>2025-02-25T08:38:01Z</time>
      </trkpt>
      <trkpt lat="48.08281" lon="-3.5755">
        <ele>123.1</ele>
        <time>2025-02-25T08:38:02Z</time>
      </trkpt>
      <trkpt lat="48.0828" lon="-3.57551">
        <ele>123.1</ele>
        <time>2025-02-25T08:38:03Z</time>
      </trkpt>
      <trkpt lat="48.08279" lon="-3.57551">
        <ele>123</ele>
        <time>2025-02-25T08:38:04Z</time>
      </trkpt>
      <trkpt lat="48.08278" lon="-3.57552">
        <ele>123</ele>
        <time>2025-02-25T08:38:05Z</time>
      </trkpt>
      <trkpt lat="48.08276" lon="-3.57553">
        <ele>123</ele>
        <time>2025-02-25T08:38:06Z</time>
      </trkpt>
      <trkpt lat="48.08275" lon="-3.57553">
        <ele>123</ele>
        <time>2025-02-25T08:38:07Z</time>
      </trkpt>
      <trkpt lat="48.08274" lon="-3.57554">
        <ele>123</ele>
        <time>2025-02-25T08:38:08Z</time>
      </trkpt>
      <trkpt lat="48.08273" lon="-3.57554">
        <ele>123</ele>
        <time>2025-02-25T08:38:09Z</time>
      </trkpt>
      <trkpt lat="48.08272" lon="-3.57555">
        <ele>123</ele>
        <time>2025-02-25T08:38:10Z</time>
      </trkpt>
      <trkpt lat="48.08271" lon="-3.57556">
        <ele>123</ele>
        <time>2025-02-25T08:38:11Z</time>
      </trkpt>
      <trkpt lat="48.0827" lon="-3.57556">
        <ele>123</ele>
        <time>2025-02-25T08:38:12Z</time>
      </trkpt>
      <trkpt lat="48.08269" lon="-3.57557">
        <ele>123</ele>
        <time>2025-02-25T08:38:13Z</time>
      </trkpt>
      <trkpt lat="48.08268" lon="-3.57558">
        <ele>123</ele>
        <time>2025-02-25T08:38:14Z</time>
      </trkpt>
      <trkpt lat="48.08267" lon="-3.57559">
        <ele>123</ele>
        <time>2025-02-25T08:38:15Z</time>
      </trkpt>
      <trkpt lat="48.08265" lon="-3.5756">
        <ele>122.9</ele>
        <time>2025-02-25T08:38:16Z</time>
      </trkpt>
      <trkpt lat="48.08264" lon="-3.5756">
        <ele>122.9</ele>
        <time>2025-02-25T08:38:17Z</time>
      </trkpt>
      <trkpt lat="48.08263" lon="-3.57561">
        <ele>122.9</ele>
        <time>2025-02-25T08:38:18Z</time>
      </trkpt>
      <trkpt lat="48.08262" lon="-3.57562">
        <ele>122.9</ele>
        <time>2025-02-25T08:38:19Z</time>
      </trkpt>
      <trkpt lat="48.08261" lon="-3.57563">
        <ele>122.8</ele>
        <time>2025-02-25T08:38:20Z</time>
      </trkpt>
      <trkpt lat="48.0826" lon="-3.57563">
        <ele>122.8</ele>
        <time>2025-02-25T08:38:21Z</time>
      </trkpt>
      <trkpt lat="48.08259" lon="-3.57564">
        <ele>122.8</ele>
        <time>2025-02-25T08:38:22Z</time>
      </trkpt>
      <trkpt lat="48.08258" lon="-3.57564">
        <ele>122.8</ele>
        <time>2025-02-25T08:38:23Z</time>
      </trkpt>
      <trkpt lat="48.08257" lon="-3.57565">
        <ele>122.7</ele>
        <time>2025-02-25T08:38:24Z</time>
      </trkpt>
      <trkpt lat="48.08255" lon="-3.57566">
        <ele>122.7</ele>
        <time>2025-02-25T08:38:25Z</time>
      </trkpt>
      <trkpt lat="48.08254" lon="-3.57567">
        <ele>122.6</ele>
        <time>2025-02-25T08:38:26Z</time>
      </trkpt>
      <trkpt lat="48.08254" lon="-3.57568">
        <ele>122.6</ele>
        <time>2025-02-25T08:38:27Z</time>
      </trkpt>
      <trkpt lat="48.08253" lon="-3.5757">
        <ele>122.5</ele>
        <time>2025-02-25T08:38:28Z</time>
      </trkpt>
      <trkpt lat="48.08252" lon="-3.57571">
        <ele>122.5</ele>
        <time>2025-02-25T08:38:29Z</time>
      </trkpt>
      <trkpt lat="48.08251" lon="-3.57571">
        <ele>122.5</ele>
        <time>2025-02-25T08:38:30Z</time>
      </trkpt>
      <trkpt lat="48.0825" lon="-3.57572">
        <ele>122.4</ele>
        <time>2025-02-25T08:38:31Z</time>
      </trkpt>
      <trkpt lat="48.08249" lon="-3.57574">
        <ele>122.3</ele>
        <time>2025-02-25T08:38:32Z</time>
      </trkpt>
      <trkpt lat="48.08248" lon="-3.57575">
        <ele>122.3</ele>
        <time>2025-02-25T08:38:33Z</time>
      </trkpt>
      <trkpt lat="48.08247" lon="-3.57576">
        <ele>122.2</ele>
        <time>2025-02-25T08:38:34Z</time>
      </trkpt>
      <trkpt lat="48.08246" lon="-3.57577">
        <ele>122.2</ele>
        <time>2025-02-25T08:38:35Z</time>
      </trkpt>
      <trkpt lat="48.08245" lon="-3.57578">
        <ele>122.2</ele>
        <time>2025-02-25T08:38:36Z</time>
      </trkpt>
      <trkpt lat="48.08244" lon="-3.5758">
        <ele>122.1</ele>
        <time>2025-02-25T08:38:37Z</time>
      </trkpt>
      <trkpt lat="48.08243" lon="-3.57581">
        <ele>122.1</ele>
        <time>2025-02-25T08:38:38Z</time>
      </trkpt>
      <trkpt lat="48.08242" lon="-3.57582">
        <ele>122</ele>
        <time>2025-02-25T08:38:39Z</time>
      </trkpt>
      <trkpt lat="48.08241" lon="-3.57583">
        <ele>122</ele>
        <time>2025-02-25T08:38:40Z</time>
      </trkpt>
      <trkpt lat="48.0824" lon="-3.57584">
        <ele>122</ele>
        <time>2025-02-25T08:38:41Z</time>
      </trkpt>
      <trkpt lat="48.08239" lon="-3.57586">
        <ele>121.9</ele>
        <time>2025-02-25T08:38:42Z</time>
      </trkpt>
      <trkpt lat="48.08238" lon="-3.57587">
        <ele>121.8</ele>
        <time>2025-02-25T08:38:43Z</time>
      </trkpt>
      <trkpt lat="48.08237" lon="-3.57588">
        <ele>121.8</ele>
        <time>2025-02-25T08:38:44Z</time>
      </trkpt>
      <trkpt lat="48.08237" lon="-3.57589">
        <ele>121.7</ele>
        <time>2025-02-25T08:38:45Z</time>
      </trkpt>
      <trkpt lat="48.08236" lon="-3.5759">
        <ele>121.6</ele>
        <time>2025-02-25T08:38:46Z</time>
      </trkpt>
      <trkpt lat="48.08235" lon="-3.57592">
        <ele>121.5</ele>
        <time>2025-02-25T08:38:47Z</time>
      </trkpt>
      <trkpt lat="48.08234" lon="-3.57594">
        <ele>121.4</ele>
        <time>2025-02-25T08:38:48Z</time>
      </trkpt>
      <trkpt lat="48.08233" lon="-3.57594">
        <ele>121.4</ele>
        <time>2025-02-25T08:38:49Z</time>
      </trkpt>
      <trkpt lat="48.08232" lon="-3.57596">
        <ele>121.2</ele>
        <time>2025-02-25T08:38:50Z</time>
      </trkpt>
      <trkpt lat="48.08231" lon="-3.57597">
        <ele>121.2</ele>
        <time>2025-02-25T08:38:51Z</time>
      </trkpt>
      <trkpt lat="48.08231" lon="-3.57599">
        <ele>121.1</ele>
        <time>2025-02-25T08:38:52Z</time>
      </trkpt>
      <trkpt lat="48.0823" lon="-3.576">
        <ele>121</ele>
        <time>2025-02-25T08:38:53Z</time>
      </trkpt>
      <trkpt lat="48.08229" lon="-3.57601">
        <ele>120.9</ele>
        <time>2025-02-25T08:38:54Z</time>
      </trkpt>
      <trkpt lat="48.08228" lon="-3.57602">
        <ele>120.8</ele>
        <time>2025-02-25T08:38:55Z</time>
      </trkpt>
      <trkpt lat="48.08227" lon="-3.57601">
        <ele>120.8</ele>
        <time>2025-02-25T08:38:56Z</time>
      </trkpt>
      <trkpt lat="48.08226" lon="-3.57602">
        <ele>120.7</ele>
        <time>2025-02-25T08:38:57Z</time>
      </trkpt>
      <trkpt lat="48.08224" lon="-3.57603">
        <ele>120.6</ele>
        <time>2025-02-25T08:38:58Z</time>
      </trkpt>
      <trkpt lat="48.08223" lon="-3.57603">
        <ele>120.6</ele>
        <time>2025-02-25T08:38:59Z</time>
      </trkpt>
      <trkpt lat="48.08222" lon="-3.57604">
        <ele>120.5</ele>
        <time>2025-02-25T08:39:00Z</time>
      </trkpt>
      <trkpt lat="48.08221" lon="-3.57604">
        <ele>120.5</ele>
        <time>2025-02-25T08:39:01Z</time>
      </trkpt>
      <trkpt lat="48.0822" lon="-3.57606">
        <ele>120.4</ele>
        <time>2025-02-25T08:39:02Z</time>
      </trkpt>
      <trkpt lat="48.08219" lon="-3.57607">
        <ele>120.3</ele>
        <time>2025-02-25T08:39:03Z</time>
      </trkpt>
      <trkpt lat="48.08218" lon="-3.57608">
        <ele>120.2</ele>
        <time>2025-02-25T08:39:04Z</time>
      </trkpt>
      <trkpt lat="48.08218" lon="-3.57609">
        <ele>120.1</ele>
        <time>2025-02-25T08:39:05Z</time>
      </trkpt>
      <trkpt lat="48.08217" lon="-3.57609">
        <ele>120.1</ele>
        <time>2025-02-25T08:39:06Z</time>
      </trkpt>
      <trkpt lat="48.08216" lon="-3.57609">
        <ele>120.1</ele>
        <time>2025-02-25T08:39:07Z</time>
      </trkpt>
      <trkpt lat="48.08215" lon="-3.5761">
        <ele>120.1</ele>
        <time>2025-02-25T08:39:08Z</time>
      </trkpt>
      <trkpt lat="48.08215" lon="-3.5761">
        <ele>120.1</ele>
        <time>2025-02-25T08:39:09Z</time>
      </trkpt>
      <trkpt lat="48.08214" lon="-3.57611">
        <ele>120</ele>
        <time>2025-02-25T08:39:10Z</time>
      </trkpt>
      <trkpt lat="48.08213" lon="-3.57612">
        <ele>119.9</ele>
        <time>2025-02-25T08:39:11Z</time>
      </trkpt>
      <trkpt lat="48.08213" lon="-3.57612">
        <ele>119.9</ele>
        <time>2025-02-25T08:39:12Z</time>
      </trkpt>
      <trkpt lat="48.08212" lon="-3.57612">
        <ele>119.9</ele>
        <time>2025-02-25T08:39:13Z</time>
      </trkpt>
      <trkpt lat="48.08211" lon="-3.57612">
        <ele>119.9</ele>
        <time>2025-02-25T08:39:14Z</time>
      </trkpt>
      <trkpt lat="48.08211" lon="-3.57612">
        <ele>119.9</ele>
        <time>2025-02-25T08:39:15Z</time>
      </trkpt>
      <trkpt lat="48.08211" lon="-3.57612">
        <ele>119.9</ele>
        <time>2025-02-25T08:39:16Z</time>
      </trkpt>
      <trkpt lat="48.08211" lon="-3.57612">
        <ele>119.9</ele>
        <time>2025-02-25T08:39:17Z</time>
      </trkpt>
      <trkpt lat="48.08211" lon="-3.57613">
        <ele>119.9</ele>
        <time>2025-02-25T08:39:18Z</time>
      </trkpt>
      <trkpt lat="48.08212" lon="-3.57614">
        <ele>119.8</ele>
        <time>2025-02-25T08:39:19Z</time>
      </trkpt>
      <trkpt lat="48.08212" lon="-3.57615">
        <ele>119.7</ele>
        <time>2025-02-25T08:39:20Z</time>
      </trkpt>
      <trkpt lat="48.08211" lon="-3.57617">
        <ele>119.6</ele>
        <time>2025-02-25T08:39:21Z</time>
      </trkpt>
      <trkpt lat="48.08211" lon="-3.57619">
        <ele>119.4</ele>
        <time>2025-02-25T08:39:22Z</time>
      </trkpt>
      <trkpt lat="48.0821" lon="-3.57619">
        <ele>119.4</ele>
        <time>2025-02-25T08:39:23Z</time>
      </trkpt>
      <trkpt lat="48.08209" lon="-3.5762">
        <ele>119.4</ele>
        <time>2025-02-25T08:39:24Z</time>
      </trkpt>
      <trkpt lat="48.08208" lon="-3.57621">
        <ele>119.3</ele>
        <time>2025-02-25T08:39:25Z</time>
      </trkpt>
      <trkpt lat="48.08207" lon="-3.57621">
        <ele>119.3</ele>
        <time>2025-02-25T08:39:26Z</time>
      </trkpt>
      <trkpt lat="48.08206" lon="-3.57622">
        <ele>119.2</ele>
        <time>2025-02-25T08:39:27Z</time>
      </trkpt>
      <trkpt lat="48.08206" lon="-3.57623">
        <ele>119.1</ele>
        <time>2025-02-25T08:39:28Z</time>
      </trkpt>
      <trkpt lat="48.08206" lon="-3.57623">
        <ele>119.1</ele>
        <time>2025-02-25T08:39:29Z</time>
      </trkpt>
      <trkpt lat="48.08205" lon="-3.57624">
        <ele>119.1</ele>
        <time>2025-02-25T08:39:30Z</time>
      </trkpt>
      <trkpt lat="48.08204" lon="-3.57625">
        <ele>119</ele>
        <time>2025-02-25T08:39:31Z</time>
      </trkpt>
      <trkpt lat="48.08204" lon="-3.57626">
        <ele>118.9</ele>
        <time>2025-02-25T08:39:32Z</time>
      </trkpt>
      <trkpt lat="48.08203" lon="-3.57628">
        <ele>118.8</ele>
        <time>2025-02-25T08:39:33Z</time>
      </trkpt>
      <trkpt lat="48.08203" lon="-3.57629">
        <ele>118.7</ele>
        <time>2025-02-25T08:39:34Z</time>
      </trkpt>
      <trkpt lat="48.08203" lon="-3.57629">
        <ele>118.7</ele>
        <time>2025-02-25T08:39:35Z</time>
      </trkpt>
      <trkpt lat="48.08203" lon="-3.57629">
        <ele>118.7</ele>
        <time>2025-02-25T08:39:36Z</time>
      </trkpt>
      <trkpt lat="48.08203" lon="-3.57629">
        <ele>118.7</ele>
        <time>2025-02-25T08:39:37Z</time>
      </trkpt>
      <trkpt lat="48.08203" lon="-3.57629">
        <ele>118.7</ele>
        <time>2025-02-25T08:39:38Z</time>
      </trkpt>
      <trkpt lat="48.08203" lon="-3.5763">
        <ele>118.6</ele>
        <time>2025-02-25T08:39:39Z</time>
      </trkpt>
      <trkpt lat="48.08202" lon="-3.5763">
        <ele>118.6</ele>
        <time>2025-02-25T08:39:40Z</time>
      </trkpt>
      <trkpt lat="48.08201" lon="-3.57631">
        <ele>118.6</ele>
        <time>2025-02-25T08:39:41Z</time>
      </trkpt>
      <trkpt lat="48.08201" lon="-3.57632">
        <ele>118.5</ele>
        <time>2025-02-25T08:39:42Z</time>
      </trkpt>
      <trkpt lat="48.082" lon="-3.57634">
        <ele>118.4</ele>
        <time>2025-02-25T08:39:43Z</time>
      </trkpt>
      <trkpt lat="48.082" lon="-3.57634">
        <ele>118.4</ele>
        <time>2025-02-25T08:39:44Z</time>
      </trkpt>
      <trkpt lat="48.08199" lon="-3.57634">
        <ele>118.4</ele>
        <time>2025-02-25T08:39:45Z</time>
      </trkpt>
      <trkpt lat="48.08198" lon="-3.57632">
        <ele>118.5</ele>
        <time>2025-02-25T08:39:46Z</time>
      </trkpt>
      <trkpt lat="48.08198" lon="-3.57631">
        <ele>118.6</ele>
        <time>2025-02-25T08:39:47Z</time>
      </trkpt>
      <trkpt lat="48.08197" lon="-3.5763">
        <ele>118.6</ele>
        <time>2025-02-25T08:39:48Z</time>
      </trkpt>
      <trkpt lat="48.08196" lon="-3.57629">
        <ele>118.7</ele>
        <time>2025-02-25T08:39:49Z</time>
      </trkpt>
      <trkpt lat="48.08195" lon="-3.5763">
        <ele>118.6</ele>
        <time>2025-02-25T08:39:50Z</time>
      </trkpt>
      <trkpt lat="48.08195" lon="-3.57629">
        <ele>118.7</ele>
        <time>2025-02-25T08:39:51Z</time>
      </trkpt>
      <trkpt lat="48.08195" lon="-3.57629">
        <ele>118.7</ele>
        <time>2025-02-25T08:39:52Z</time>
      </trkpt>
      <trkpt lat="48.08196" lon="-3.57628">
        <ele>118.8</ele>
        <time>2025-02-25T08:39:53Z</time>
      </trkpt>
      <trkpt lat="48.08195" lon="-3.57627">
        <ele>118.9</ele>
        <time>2025-02-25T08:39:54Z</time>
      </trkpt>
      <trkpt lat="48.08194" lon="-3.57626">
        <ele>118.9</ele>
        <time>2025-02-25T08:39:55Z</time>
      </trkpt>
      <trkpt lat="48.08194" lon="-3.57627">
        <ele>118.8</ele>
        <time>2025-02-25T08:39:56Z</time>
      </trkpt>
      <trkpt lat="48.08194" lon="-3.57628">
        <ele>118.8</ele>
        <time>2025-02-25T08:39:57Z</time>
      </trkpt>
      <trkpt lat="48.08194" lon="-3.57629">
        <ele>118.7</ele>
        <time>2025-02-25T08:39:58Z</time>
      </trkpt>
      <trkpt lat="48.08193" lon="-3.5763">
        <ele>118.6</ele>
        <time>2025-02-25T08:39:59Z</time>
      </trkpt>
      <trkpt lat="48.08192" lon="-3.57631">
        <ele>118.4</ele>
        <time>2025-02-25T08:40:00Z</time>
      </trkpt>
      <trkpt lat="48.08192" lon="-3.57632">
        <ele>118.3</ele>
        <time>2025-02-25T08:40:01Z</time>
      </trkpt>
      <trkpt lat="48.08191" lon="-3.57633">
        <ele>118.2</ele>
        <time>2025-02-25T08:40:02Z</time>
      </trkpt>
      <trkpt lat="48.0819" lon="-3.57634">
        <ele>118.1</ele>
        <time>2025-02-25T08:40:03Z</time>
      </trkpt>
      <trkpt lat="48.08189" lon="-3.57635">
        <ele>117.9</ele>
        <time>2025-02-25T08:40:04Z</time>
      </trkpt>
      <trkpt lat="48.08188" lon="-3.57635">
        <ele>117.8</ele>
        <time>2025-02-25T08:40:05Z</time>
      </trkpt>
      <trkpt lat="48.08187" lon="-3.57636">
        <ele>117.7</ele>
        <time>2025-02-25T08:40:06Z</time>
      </trkpt>
      <trkpt lat="48.08186" lon="-3.57637">
        <ele>117.5</ele>
        <time>2025-02-25T08:40:07Z</time>
      </trkpt>
      <trkpt lat="48.08185" lon="-3.57637">
        <ele>117.5</ele>
        <time>2025-02-25T08:40:08Z</time>
      </trkpt>
      <trkpt lat="48.08184" lon="-3.57638">
        <ele>117.3</ele>
        <time>2025-02-25T08:40:09Z</time>
      </trkpt>
      <trkpt lat="48.08183" lon="-3.57639">
        <ele>117.2</ele>
        <time>2025-02-25T08:40:10Z</time>
      </trkpt>
      <trkpt lat="48.08182" lon="-3.5764">
        <ele>117.1</ele>
        <time>2025-02-25T08:40:11Z</time>
      </trkpt>
      <trkpt lat="48.08181" lon="-3.5764">
        <ele>117</ele>
        <time>2025-02-25T08:40:12Z</time>
      </trkpt>
      <trkpt lat="48.0818" lon="-3.5764">
        <ele>116.9</ele>
        <time>2025-02-25T08:40:13Z</time>
      </trkpt>
      <trkpt lat="48.0818" lon="-3.57641">
        <ele>116.9</ele>
        <time>2025-02-25T08:40:14Z</time>
      </trkpt>
      <trkpt lat="48.08179" lon="-3.57642">
        <ele>116.8</ele>
        <time>2025-02-25T08:40:15Z</time>
      </trkpt>
      <trkpt lat="48.08178" lon="-3.57643">
        <ele>116.8</ele>
        <time>2025-02-25T08:40:16Z</time>
      </trkpt>
      <trkpt lat="48.08177" lon="-3.57643">
        <ele>116.7</ele>
        <time>2025-02-25T08:40:17Z</time>
      </trkpt>
      <trkpt lat="48.08176" lon="-3.57644">
        <ele>116.6</ele>
        <time>2025-02-25T08:40:18Z</time>
      </trkpt>
      <trkpt lat="48.08175" lon="-3.57644">
        <ele>116.5</ele>
        <time>2025-02-25T08:40:19Z</time>
      </trkpt>
      <trkpt lat="48.08174" lon="-3.57645">
        <ele>116.5</ele>
        <time>2025-02-25T08:40:20Z</time>
      </trkpt>
      <trkpt lat="48.08174" lon="-3.57645">
        <ele>116.5</ele>
        <time>2025-02-25T08:40:21Z</time>
      </trkpt>
      <trkpt lat="48.08173" lon="-3.57646">
        <ele>116.4</ele>
        <time>2025-02-25T08:40:22Z</time>
      </trkpt>
      <trkpt lat="48.08172" lon="-3.57647">
        <ele>116.3</ele>
        <time>2025-02-25T08:40:23Z</time>
      </trkpt>
      <trkpt lat="48.08171" lon="-3.57648">
        <ele>116.3</ele>
        <time>2025-02-25T08:40:24Z</time>
      </trkpt>
      <trkpt lat="48.08171" lon="-3.57649">
        <ele>116.3</ele>
        <time>2025-02-25T08:40:25Z</time>
      </trkpt>
      <trkpt lat="48.0817" lon="-3.57649">
        <ele>116.2</ele>
        <time>2025-02-25T08:40:26Z</time>
      </trkpt>
      <trkpt lat="48.0817" lon="-3.5765">
        <ele>116.2</ele>
        <time>2025-02-25T08:40:27Z</time>
      </trkpt>
      <trkpt lat="48.0817" lon="-3.57651">
        <ele>116.2</ele>
        <time>2025-02-25T08:40:28Z</time>
      </trkpt>
      <trkpt lat="48.08169" lon="-3.57652">
        <ele>116.1</ele>
        <time>2025-02-25T08:40:29Z</time>
      </trkpt>
      <trkpt lat="48.08169" lon="-3.57652">
        <ele>116.1</ele>
        <time>2025-02-25T08:40:30Z</time>
      </trkpt>
      <trkpt lat="48.08169" lon="-3.57653">
        <ele>116.1</ele>
        <time>2025-02-25T08:40:31Z</time>
      </trkpt>
      <trkpt lat="48.08168" lon="-3.57654">
        <ele>116.1</ele>
        <time>2025-02-25T08:40:32Z</time>
      </trkpt>
      <trkpt lat="48.08168" lon="-3.57655">
        <ele>116.1</ele>
        <time>2025-02-25T08:40:33Z</time>
      </trkpt>
      <trkpt lat="48.08167" lon="-3.57655">
        <ele>116</ele>
        <time>2025-02-25T08:40:34Z</time>
      </trkpt>
      <trkpt lat="48.08167" lon="-3.57656">
        <ele>116</ele>
        <time>2025-02-25T08:40:35Z</time>
      </trkpt>
      <trkpt lat="48.08166" lon="-3.57656">
        <ele>116</ele>
        <time>2025-02-25T08:40:36Z</time>
      </trkpt>
      <trkpt lat="48.08165" lon="-3.57656">
        <ele>116</ele>
        <time>2025-02-25T08:40:37Z</time>
      </trkpt>
      <trkpt lat="48.08165" lon="-3.57657">
        <ele>116</ele>
        <time>2025-02-25T08:40:38Z</time>
      </trkpt>
      <trkpt lat="48.08164" lon="-3.57657">
        <ele>116</ele>
        <time>2025-02-25T08:40:39Z</time>
      </trkpt>
      <trkpt lat="48.08163" lon="-3.57658">
        <ele>116</ele>
        <time>2025-02-25T08:40:40Z</time>
      </trkpt>
      <trkpt lat="48.08163" lon="-3.57659">
        <ele>116</ele>
        <time>2025-02-25T08:40:41Z</time>
      </trkpt>
      <trkpt lat="48.08162" lon="-3.57659">
        <ele>116</ele>
        <time>2025-02-25T08:40:42Z</time>
      </trkpt>
      <trkpt lat="48.08161" lon="-3.57662">
        <ele>116</ele>
        <time>2025-02-25T08:40:43Z</time>
      </trkpt>
      <trkpt lat="48.08161" lon="-3.57663">
        <ele>116</ele>
        <time>2025-02-25T08:40:44Z</time>
      </trkpt>
      <trkpt lat="48.08161" lon="-3.57665">
        <ele>116</ele>
        <time>2025-02-25T08:40:45Z</time>
      </trkpt>
      <trkpt lat="48.0816" lon="-3.57666">
        <ele>116</ele>
        <time>2025-02-25T08:40:46Z</time>
      </trkpt>
      <trkpt lat="48.08159" lon="-3.57667">
        <ele>116</ele>
        <time>2025-02-25T08:40:47Z</time>
      </trkpt>
      <trkpt lat="48.08159" lon="-3.57667">
        <ele>116</ele>
        <time>2025-02-25T08:40:48Z</time>
      </trkpt>
      <trkpt lat="48.08159" lon="-3.57668">
        <ele>116</ele>
        <time>2025-02-25T08:40:49Z</time>
      </trkpt>
      <trkpt lat="48.08158" lon="-3.57668">
        <ele>116</ele>
        <time>2025-02-25T08:40:50Z</time>
      </trkpt>
      <trkpt lat="48.08158" lon="-3.57668">
        <ele>116</ele>
        <time>2025-02-25T08:40:51Z</time>
      </trkpt>
      <trkpt lat="48.08158" lon="-3.57668">
        <ele>116</ele>
        <time>2025-02-25T08:40:52Z</time>
      </trkpt>
      <trkpt lat="48.08157" lon="-3.57669">
        <ele>116.1</ele>
        <time>2025-02-25T08:40:53Z</time>
      </trkpt>
      <trkpt lat="48.08156" lon="-3.57668">
        <ele>116</ele>
        <time>2025-02-25T08:40:54Z</time>
      </trkpt>
      <trkpt lat="48.08155" lon="-3.5767">
        <ele>116.1</ele>
        <time>2025-02-25T08:40:55Z</time>
      </trkpt>
      <trkpt lat="48.08155" lon="-3.5767">
        <ele>116.1</ele>
        <time>2025-02-25T08:40:56Z</time>
      </trkpt>
      <trkpt lat="48.08155" lon="-3.5767">
        <ele>116.1</ele>
        <time>2025-02-25T08:40:57Z</time>
      </trkpt>
      <trkpt lat="48.08155" lon="-3.57671">
        <ele>116.2</ele>
        <time>2025-02-25T08:40:58Z</time>
      </trkpt>
      <trkpt lat="48.08155" lon="-3.57672">
        <ele>116.2</ele>
        <time>2025-02-25T08:40:59Z</time>
      </trkpt>
      <trkpt lat="48.08156" lon="-3.57672">
        <ele>116.2</ele>
        <time>2025-02-25T08:41:00Z</time>
      </trkpt>
      <trkpt lat="48.08156" lon="-3.57672">
        <ele>116.2</ele>
        <time>2025-02-25T08:41:01Z</time>
      </trkpt>
      <trkpt lat="48.08155" lon="-3.57677">
        <ele>116.4</ele>
        <time>2025-02-25T08:41:02Z</time>
      </trkpt>
      <trkpt lat="48.08154" lon="-3.57679">
        <ele>116.4</ele>
        <time>2025-02-25T08:41:03Z</time>
      </trkpt>
      <trkpt lat="48.08153" lon="-3.57679">
        <ele>116.4</ele>
        <time>2025-02-25T08:41:04Z</time>
      </trkpt>
      <trkpt lat="48.08153" lon="-3.57679">
        <ele>116.4</ele>
        <time>2025-02-25T08:41:05Z</time>
      </trkpt>
      <trkpt lat="48.08153" lon="-3.57678">
        <ele>116.4</ele>
        <time>2025-02-25T08:41:06Z</time>
      </trkpt>
      <trkpt lat="48.08152" lon="-3.57678">
        <ele>116.4</ele>
        <time>2025-02-25T08:41:07Z</time>
      </trkpt>
      <trkpt lat="48.08152" lon="-3.57679">
        <ele>116.4</ele>
        <time>2025-02-25T08:41:08Z</time>
      </trkpt>
      <trkpt lat="48.08151" lon="-3.5768">
        <ele>116.5</ele>
        <time>2025-02-25T08:41:09Z</time>
      </trkpt>
      <trkpt lat="48.0815" lon="-3.57679">
        <ele>116.4</ele>
        <time>2025-02-25T08:41:10Z</time>
      </trkpt>
      <trkpt lat="48.08149" lon="-3.57678">
        <ele>116.4</ele>
        <time>2025-02-25T08:41:11Z</time>
      </trkpt>
      <trkpt lat="48.08149" lon="-3.57679">
        <ele>116.4</ele>
        <time>2025-02-25T08:41:12Z</time>
      </trkpt>
      <trkpt lat="48.08148" lon="-3.57679">
        <ele>116.4</ele>
        <time>2025-02-25T08:41:13Z</time>
      </trkpt>
      <trkpt lat="48.08148" lon="-3.57679">
        <ele>116.4</ele>
        <time>2025-02-25T08:41:14Z</time>
      </trkpt>
      <trkpt lat="48.08148" lon="-3.57681">
        <ele>116.5</ele>
        <time>2025-02-25T08:41:15Z</time>
      </trkpt>
      <trkpt lat="48.08148" lon="-3.57682">
        <ele>116.6</ele>
        <time>2025-02-25T08:41:16Z</time>
      </trkpt>
      <trkpt lat="48.08147" lon="-3.57682">
        <ele>116.6</ele>
        <time>2025-02-25T08:41:17Z</time>
      </trkpt>
      <trkpt lat="48.08146" lon="-3.57683">
        <ele>116.6</ele>
        <time>2025-02-25T08:41:18Z</time>
      </trkpt>
      <trkpt lat="48.08146" lon="-3.57684">
        <ele>116.6</ele>
        <time>2025-02-25T08:41:19Z</time>
      </trkpt>
      <trkpt lat="48.08145" lon="-3.57685">
        <ele>116.7</ele>
        <time>2025-02-25T08:41:20Z</time>
      </trkpt>
      <trkpt lat="48.08144" lon="-3.57686">
        <ele>116.7</ele>
        <time>2025-02-25T08:41:21Z</time>
      </trkpt>
      <trkpt lat="48.08143" lon="-3.57686">
        <ele>116.7</ele>
        <time>2025-02-25T08:41:22Z</time>
      </trkpt>
      <trkpt lat="48.08143" lon="-3.57687">
        <ele>116.7</ele>
        <time>2025-02-25T08:41:23Z</time>
      </trkpt>
      <trkpt lat="48.08143" lon="-3.57688">
        <ele>116.8</ele>
        <time>2025-02-25T08:41:24Z</time>
      </trkpt>
      <trkpt lat="48.08142" lon="-3.57688">
        <ele>116.8</ele>
        <time>2025-02-25T08:41:25Z</time>
      </trkpt>
      <trkpt lat="48.08141" lon="-3.57688">
        <ele>116.8</ele>
        <time>2025-02-25T08:41:26Z</time>
      </trkpt>
      <trkpt lat="48.0814" lon="-3.57689">
        <ele>116.8</ele>
        <time>2025-02-25T08:41:27Z</time>
      </trkpt>
      <trkpt lat="48.08139" lon="-3.57689">
        <ele>116.8</ele>
        <time>2025-02-25T08:41:28Z</time>
      </trkpt>
      <trkpt lat="48.08139" lon="-3.57689">
        <ele>116.8</ele>
        <time>2025-02-25T08:41:29Z</time>
      </trkpt>
      <trkpt lat="48.08139" lon="-3.57689">
        <ele>116.8</ele>
        <time>2025-02-25T08:41:30Z</time>
      </trkpt>
      <trkpt lat="48.08138" lon="-3.57689">
        <ele>116.8</ele>
        <time>2025-02-25T08:41:31Z</time>
      </trkpt>
      <trkpt lat="48.08137" lon="-3.5769">
        <ele>116.8</ele>
        <time>2025-02-25T08:41:32Z</time>
      </trkpt>
      <trkpt lat="48.08137" lon="-3.57689">
        <ele>116.8</ele>
        <time>2025-02-25T08:41:33Z</time>
      </trkpt>
      <trkpt lat="48.08136" lon="-3.5769">
        <ele>116.8</ele>
        <time>2025-02-25T08:41:34Z</time>
      </trkpt>
      <trkpt lat="48.08136" lon="-3.57691">
        <ele>116.9</ele>
        <time>2025-02-25T08:41:35Z</time>
      </trkpt>
      <trkpt lat="48.08136" lon="-3.57692">
        <ele>116.9</ele>
        <time>2025-02-25T08:41:36Z</time>
      </trkpt>
      <trkpt lat="48.08136" lon="-3.57693">
        <ele>116.9</ele>
        <time>2025-02-25T08:41:37Z</time>
      </trkpt>
      <trkpt lat="48.08135" lon="-3.57694">
        <ele>117</ele>
        <time>2025-02-25T08:41:38Z</time>
      </trkpt>
      <trkpt lat="48.08135" lon="-3.57695">
        <ele>117</ele>
        <time>2025-02-25T08:41:39Z</time>
      </trkpt>
      <trkpt lat="48.08135" lon="-3.57696">
        <ele>117.1</ele>
        <time>2025-02-25T08:41:40Z</time>
      </trkpt>
      <trkpt lat="48.08135" lon="-3.57697">
        <ele>117.1</ele>
        <time>2025-02-25T08:41:41Z</time>
      </trkpt>
      <trkpt lat="48.08135" lon="-3.57698">
        <ele>117.1</ele>
        <time>2025-02-25T08:41:42Z</time>
      </trkpt>
      <trkpt lat="48.08135" lon="-3.57698">
        <ele>117.1</ele>
        <time>2025-02-25T08:41:43Z</time>
      </trkpt>
      <trkpt lat="48.08134" lon="-3.57699">
        <ele>117.2</ele>
        <time>2025-02-25T08:41:44Z</time>
      </trkpt>
      <trkpt lat="48.08134" lon="-3.577">
        <ele>117.2</ele>
        <time>2025-02-25T08:41:45Z</time>
      </trkpt>
      <trkpt lat="48.08134" lon="-3.57701">
        <ele>117.3</ele>
        <time>2025-02-25T08:41:46Z</time>
      </trkpt>
      <trkpt lat="48.08133" lon="-3.57702">
        <ele>117.3</ele>
        <time>2025-02-25T08:41:47Z</time>
      </trkpt>
      <trkpt lat="48.08133" lon="-3.57703">
        <ele>117.4</ele>
        <time>2025-02-25T08:41:48Z</time>
      </trkpt>
      <trkpt lat="48.08132" lon="-3.57703">
        <ele>117.4</ele>
        <time>2025-02-25T08:41:49Z</time>
      </trkpt>
      <trkpt lat="48.08132" lon="-3.57704">
        <ele>117.4</ele>
        <time>2025-02-25T08:41:50Z</time>
      </trkpt>
      <trkpt lat="48.08132" lon="-3.57705">
        <ele>117.5</ele>
        <time>2025-02-25T08:41:51Z</time>
      </trkpt>
      <trkpt lat="48.08133" lon="-3.57707">
        <ele>117.5</ele>
        <time>2025-02-25T08:41:52Z</time>
      </trkpt>
      <trkpt lat="48.08133" lon="-3.57708">
        <ele>117.6</ele>
        <time>2025-02-25T08:41:53Z</time>
      </trkpt>
      <trkpt lat="48.08133" lon="-3.57708">
        <ele>117.6</ele>
        <time>2025-02-25T08:41:54Z</time>
      </trkpt>
      <trkpt lat="48.08132" lon="-3.57709">
        <ele>117.7</ele>
        <time>2025-02-25T08:41:55Z</time>
      </trkpt>
      <trkpt lat="48.08132" lon="-3.57709">
        <ele>117.7</ele>
        <time>2025-02-25T08:41:56Z</time>
      </trkpt>
      <trkpt lat="48.08132" lon="-3.5771">
        <ele>117.7</ele>
        <time>2025-02-25T08:41:57Z</time>
      </trkpt>
      <trkpt lat="48.08132" lon="-3.57713">
        <ele>117.8</ele>
        <time>2025-02-25T08:41:58Z</time>
      </trkpt>
      <trkpt lat="48.08132" lon="-3.57714">
        <ele>117.9</ele>
        <time>2025-02-25T08:41:59Z</time>
      </trkpt>
      <trkpt lat="48.08132" lon="-3.57715">
        <ele>117.9</ele>
        <time>2025-02-25T08:42:00Z</time>
      </trkpt>
      <trkpt lat="48.08131" lon="-3.57717">
        <ele>118</ele>
        <time>2025-02-25T08:42:01Z</time>
      </trkpt>
      <trkpt lat="48.08131" lon="-3.57717">
        <ele>118</ele>
        <time>2025-02-25T08:42:02Z</time>
      </trkpt>
      <trkpt lat="48.08131" lon="-3.57716">
        <ele>118</ele>
        <time>2025-02-25T08:42:03Z</time>
      </trkpt>
      <trkpt lat="48.08131" lon="-3.57716">
        <ele>118</ele>
        <time>2025-02-25T08:42:04Z</time>
      </trkpt>
      <trkpt lat="48.08132" lon="-3.57716">
        <ele>118</ele>
        <time>2025-02-25T08:42:05Z</time>
      </trkpt>
      <trkpt lat="48.08131" lon="-3.57717">
        <ele>118</ele>
        <time>2025-02-25T08:42:06Z</time>
      </trkpt>
      <trkpt lat="48.08131" lon="-3.57718">
        <ele>118.1</ele>
        <time>2025-02-25T08:42:07Z</time>
      </trkpt>
      <trkpt lat="48.08131" lon="-3.5772">
        <ele>118.2</ele>
        <time>2025-02-25T08:42:08Z</time>
      </trkpt>
      <trkpt lat="48.08131" lon="-3.57721">
        <ele>118.2</ele>
        <time>2025-02-25T08:42:09Z</time>
      </trkpt>
      <trkpt lat="48.08132" lon="-3.57722">
        <ele>118.2</ele>
        <time>2025-02-25T08:42:10Z</time>
      </trkpt>
      <trkpt lat="48.08131" lon="-3.57724">
        <ele>118.3</ele>
        <time>2025-02-25T08:42:11Z</time>
      </trkpt>
      <trkpt lat="48.08131" lon="-3.57726">
        <ele>118.4</ele>
        <time>2025-02-25T08:42:12Z</time>
      </trkpt>
      <trkpt lat="48.08131" lon="-3.57728">
        <ele>118.5</ele>
        <time>2025-02-25T08:42:13Z</time>
      </trkpt>
      <trkpt lat="48.0813" lon="-3.57729">
        <ele>118.6</ele>
        <time>2025-02-25T08:42:14Z</time>
      </trkpt>
      <trkpt lat="48.0813" lon="-3.57731">
        <ele>118.6</ele>
        <time>2025-02-25T08:42:15Z</time>
      </trkpt>
      <trkpt lat="48.0813" lon="-3.57732">
        <ele>118.7</ele>
        <time>2025-02-25T08:42:16Z</time>
      </trkpt>
      <trkpt lat="48.0813" lon="-3.57734">
        <ele>118.7</ele>
        <time>2025-02-25T08:42:17Z</time>
      </trkpt>
      <trkpt lat="48.0813" lon="-3.57735">
        <ele>118.8</ele>
        <time>2025-02-25T08:42:18Z</time>
      </trkpt>
      <trkpt lat="48.0813" lon="-3.57737">
        <ele>118.9</ele>
        <time>2025-02-25T08:42:19Z</time>
      </trkpt>
      <trkpt lat="48.0813" lon="-3.57738">
        <ele>118.9</ele>
        <time>2025-02-25T08:42:20Z</time>
      </trkpt>
      <trkpt lat="48.0813" lon="-3.5774">
        <ele>119</ele>
        <time>2025-02-25T08:42:21Z</time>
      </trkpt>
      <trkpt lat="48.08131" lon="-3.57741">
        <ele>119</ele>
        <time>2025-02-25T08:42:22Z</time>
      </trkpt>
      <trkpt lat="48.08131" lon="-3.57742">
        <ele>119</ele>
        <time>2025-02-25T08:42:23Z</time>
      </trkpt>
      <trkpt lat="48.0813" lon="-3.57743">
        <ele>119.1</ele>
        <time>2025-02-25T08:42:24Z</time>
      </trkpt>
      <trkpt lat="48.0813" lon="-3.57744">
        <ele>119.1</ele>
        <time>2025-02-25T08:42:25Z</time>
      </trkpt>
      <trkpt lat="48.0813" lon="-3.57745">
        <ele>119.1</ele>
        <time>2025-02-25T08:42:26Z</time>
      </trkpt>
      <trkpt lat="48.0813" lon="-3.57746">
        <ele>119.2</ele>
        <time>2025-02-25T08:42:27Z</time>
      </trkpt>
      <trkpt lat="48.0813" lon="-3.57747">
        <ele>119.2</ele>
        <time>2025-02-25T08:42:28Z</time>
      </trkpt>
      <trkpt lat="48.0813" lon="-3.57747">
        <ele>119.2</ele>
        <time>2025-02-25T08:42:29Z</time>
      </trkpt>
      <trkpt lat="48.08131" lon="-3.57747">
        <ele>119.2</ele>
        <time>2025-02-25T08:42:30Z</time>
      </trkpt>
      <trkpt lat="48.08131" lon="-3.57748">
        <ele>119.2</ele>
        <time>2025-02-25T08:42:31Z</time>
      </trkpt>
      <trkpt lat="48.08131" lon="-3.57748">
        <ele>119.2</ele>
        <time>2025-02-25T08:42:32Z</time>
      </trkpt>
      <trkpt lat="48.08132" lon="-3.57748">
        <ele>119.2</ele>
        <time>2025-02-25T08:42:33Z</time>
      </trkpt>
      <trkpt lat="48.08132" lon="-3.5775">
        <ele>119.2</ele>
        <time>2025-02-25T08:42:34Z</time>
      </trkpt>
      <trkpt lat="48.08132" lon="-3.5775">
        <ele>119.2</ele>
        <time>2025-02-25T08:42:35Z</time>
      </trkpt>
      <trkpt lat="48.08132" lon="-3.5775">
        <ele>119.2</ele>
        <time>2025-02-25T08:42:36Z</time>
      </trkpt>
      <trkpt lat="48.08132" lon="-3.57751">
        <ele>119.3</ele>
        <time>2025-02-25T08:42:37Z</time>
      </trkpt>
      <trkpt lat="48.08132" lon="-3.5775">
        <ele>119.2</ele>
        <time>2025-02-25T08:42:38Z</time>
      </trkpt>
      <trkpt lat="48.08131" lon="-3.5775">
        <ele>119.3</ele>
        <time>2025-02-25T08:42:39Z</time>
      </trkpt>
      <trkpt lat="48.08131" lon="-3.5775">
        <ele>119.3</ele>
        <time>2025-02-25T08:42:40Z</time>
      </trkpt>
      <trkpt lat="48.08131" lon="-3.5775">
        <ele>119.3</ele>
        <time>2025-02-25T08:42:41Z</time>
      </trkpt>
      <trkpt lat="48.08131" lon="-3.57751">
        <ele>119.3</ele>
        <time>2025-02-25T08:42:42Z</time>
      </trkpt>
      <trkpt lat="48.08131" lon="-3.57752">
        <ele>119.4</ele>
        <time>2025-02-25T08:42:43Z</time>
      </trkpt>
      <trkpt lat="48.0813" lon="-3.57752">
        <ele>119.4</ele>
        <time>2025-02-25T08:42:44Z</time>
      </trkpt>
      <trkpt lat="48.0813" lon="-3.57753">
        <ele>119.5</ele>
        <time>2025-02-25T08:42:45Z</time>
      </trkpt>
      <trkpt lat="48.0813" lon="-3.57753">
        <ele>119.5</ele>
        <time>2025-02-25T08:42:46Z</time>
      </trkpt>
      <trkpt lat="48.08129" lon="-3.57753">
        <ele>119.5</ele>
        <time>2025-02-25T08:42:47Z</time>
      </trkpt>
      <trkpt lat="48.08129" lon="-3.57753">
        <ele>119.5</ele>
        <time>2025-02-25T08:42:48Z</time>
      </trkpt>
      <trkpt lat="48.08128" lon="-3.57752">
        <ele>119.5</ele>
        <time>2025-02-25T08:42:49Z</time>
      </trkpt>
      <trkpt lat="48.08128" lon="-3.57749">
        <ele>119.4</ele>
        <time>2025-02-25T08:42:50Z</time>
      </trkpt>
      <trkpt lat="48.08128" lon="-3.57749">
        <ele>119.4</ele>
        <time>2025-02-25T08:42:51Z</time>
      </trkpt>
      <trkpt lat="48.08128" lon="-3.57747">
        <ele>119.3</ele>
        <time>2025-02-25T08:42:52Z</time>
      </trkpt>
      <trkpt lat="48.08127" lon="-3.57746">
        <ele>119.3</ele>
        <time>2025-02-25T08:42:53Z</time>
      </trkpt>
      <trkpt lat="48.08128" lon="-3.57744">
        <ele>119.2</ele>
        <time>2025-02-25T08:42:54Z</time>
      </trkpt>
      <trkpt lat="48.08128" lon="-3.57743">
        <ele>119.1</ele>
        <time>2025-02-25T08:42:55Z</time>
      </trkpt>
      <trkpt lat="48.08128" lon="-3.57743">
        <ele>119.1</ele>
        <time>2025-02-25T08:42:56Z</time>
      </trkpt>
      <trkpt lat="48.08128" lon="-3.57743">
        <ele>119.1</ele>
        <time>2025-02-25T08:42:57Z</time>
      </trkpt>
      <trkpt lat="48.08128" lon="-3.57744">
        <ele>119.2</ele>
        <time>2025-02-25T08:42:58Z</time>
      </trkpt>
      <trkpt lat="48.08128" lon="-3.57744">
        <ele>119.2</ele>
        <time>2025-02-25T08:42:59Z</time>
      </trkpt>
      <trkpt lat="48.08128" lon="-3.57744">
        <ele>119.2</ele>
        <time>2025-02-25T08:43:00Z</time>
      </trkpt>
      <trkpt lat="48.08129" lon="-3.57744">
        <ele>119.1</ele>
        <time>2025-02-25T08:43:01Z</time>
      </trkpt>
      <trkpt lat="48.08129" lon="-3.57744">
        <ele>119.1</ele>
        <time>2025-02-25T08:43:02Z</time>
      </trkpt>
      <trkpt lat="48.08129" lon="-3.57744">
        <ele>119.1</ele>
        <time>2025-02-25T08:43:03Z</time>
      </trkpt>
      <trkpt lat="48.08129" lon="-3.57744">
        <ele>119.1</ele>
        <time>2025-02-25T08:43:04Z</time>
      </trkpt>
      <trkpt lat="48.08129" lon="-3.57744">
        <ele>119.1</ele>
        <time>2025-02-25T08:43:05Z</time>
      </trkpt>
      <trkpt lat="48.08129" lon="-3.57744">
        <ele>119.1</ele>
        <time>2025-02-25T08:43:06Z</time>
      </trkpt>
      <trkpt lat="48.08129" lon="-3.57744">
        <ele>119.1</ele>
        <time>2025-02-25T08:43:07Z</time>
      </trkpt>
      <trkpt lat="48.08129" lon="-3.57744">
        <ele>119.1</ele>
        <time>2025-02-25T08:43:08Z</time>
      </trkpt>
      <trkpt lat="48.08129" lon="-3.57744">
        <ele>119.1</ele>
        <time>2025-02-25T08:43:09Z</time>
      </trkpt>
      <trkpt lat="48.08129" lon="-3.57744">
        <ele>119.1</ele>
        <time>2025-02-25T08:43:10Z</time>
      </trkpt>
      <trkpt lat="48.08129" lon="-3.57744">
        <ele>119.1</ele>
        <time>2025-02-25T08:43:11Z</time>
      </trkpt>
      <trkpt lat="48.08129" lon="-3.57744">
        <ele>119.1</ele>
        <time>2025-02-25T08:43:12Z</time>
      </trkpt>
      <trkpt lat="48.08129" lon="-3.57744">
        <ele>119.1</ele>
        <time>2025-02-25T08:43:13Z</time>
      </trkpt>
      <trkpt lat="48.08129" lon="-3.57744">
        <ele>119.1</ele>
        <time>2025-02-25T08:43:14Z</time>
      </trkpt>
      <trkpt lat="48.08129" lon="-3.57744">
        <ele>119.1</ele>
        <time>2025-02-25T08:43:15Z</time>
      </trkpt>
      <trkpt lat="48.08129" lon="-3.57744">
        <ele>119.1</ele>
        <time>2025-02-25T08:43:16Z</time>
      </trkpt>
      <trkpt lat="48.08129" lon="-3.57744">
        <ele>119.1</ele>
        <time>2025-02-25T08:43:17Z</time>
      </trkpt>
      <trkpt lat="48.08129" lon="-3.57744">
        <ele>119.1</ele>
        <time>2025-02-25T08:43:18Z</time>
      </trkpt>
      <trkpt lat="48.08129" lon="-3.57744">
        <ele>119.1</ele>
        <time>2025-02-25T08:43:19Z</time>
      </trkpt>
      <trkpt lat="48.08129" lon="-3.57744">
        <ele>119.1</ele>
        <time>2025-02-25T08:43:20Z</time>
      </trkpt>
      <trkpt lat="48.08129" lon="-3.57745">
        <ele>119.2</ele>
        <time>2025-02-25T08:43:21Z</time>
      </trkpt>
      <trkpt lat="48.08129" lon="-3.57745">
        <ele>119.2</ele>
        <time>2025-02-25T08:43:22Z</time>
      </trkpt>
      <trkpt lat="48.08129" lon="-3.57745">
        <ele>119.2</ele>
        <time>2025-02-25T08:43:23Z</time>
      </trkpt>
      <trkpt lat="48.08129" lon="-3.57745">
        <ele>119.2</ele>
        <time>2025-02-25T08:43:24Z</time>
      </trkpt>
      <trkpt lat="48.08129" lon="-3.57745">
        <ele>119.2</ele>
        <time>2025-02-25T08:43:25Z</time>
      </trkpt>
      <trkpt lat="48.08129" lon="-3.57745">
        <ele>119.2</ele>
        <time>2025-02-25T08:43:26Z</time>
      </trkpt>
      <trkpt lat="48.08129" lon="-3.57745">
        <ele>119.2</ele>
        <time>2025-02-25T08:43:27Z</time>
      </trkpt>
      <trkpt lat="48.08129" lon="-3.57744">
        <ele>119.1</ele>
        <time>2025-02-25T08:43:28Z</time>
      </trkpt>
      <trkpt lat="48.08129" lon="-3.57744">
        <ele>119.1</ele>
        <time>2025-02-25T08:43:29Z</time>
      </trkpt>
      <trkpt lat="48.08129" lon="-3.57744">
        <ele>119.1</ele>
        <time>2025-02-25T08:43:30Z</time>
      </trkpt>
      <trkpt lat="48.08129" lon="-3.57744">
        <ele>119.1</ele>
        <time>2025-02-25T08:43:31Z</time>
      </trkpt>
      <trkpt lat="48.08129" lon="-3.57744">
        <ele>119.1</ele>
        <time>2025-02-25T08:43:32Z</time>
      </trkpt>
      <trkpt lat="48.08129" lon="-3.57744">
        <ele>119.1</ele>
        <time>2025-02-25T08:43:33Z</time>
      </trkpt>
      <trkpt lat="48.08129" lon="-3.57745">
        <ele>119.2</ele>
        <time>2025-02-25T08:43:34Z</time>
      </trkpt>
      <trkpt lat="48.08129" lon="-3.57745">
        <ele>119.2</ele>
        <time>2025-02-25T08:43:35Z</time>
      </trkpt>
      <trkpt lat="48.08129" lon="-3.57745">
        <ele>119.2</ele>
        <time>2025-02-25T08:43:36Z</time>
      </trkpt>
      <trkpt lat="48.08129" lon="-3.57745">
        <ele>119.2</ele>
        <time>2025-02-25T08:43:37Z</time>
      </trkpt>
      <trkpt lat="48.08129" lon="-3.57745">
        <ele>119.2</ele>
        <time>2025-02-25T08:43:38Z</time>
      </trkpt>
      <trkpt lat="48.08129" lon="-3.57745">
        <ele>119.2</ele>
        <time>2025-02-25T08:43:39Z</time>
      </trkpt>
      <trkpt lat="48.08129" lon="-3.57745">
        <ele>119.2</ele>
        <time>2025-02-25T08:43:40Z</time>
      </trkpt>
      <trkpt lat="48.08129" lon="-3.57745">
        <ele>119.2</ele>
        <time>2025-02-25T08:43:41Z</time>
      </trkpt>
      <trkpt lat="48.08129" lon="-3.57745">
        <ele>119.2</ele>
        <time>2025-02-25T08:43:42Z</time>
      </trkpt>
      <trkpt lat="48.08129" lon="-3.57745">
        <ele>119.2</ele>
        <time>2025-02-25T08:43:43Z</time>
      </trkpt>
      <trkpt lat="48.08129" lon="-3.57745">
        <ele>119.2</ele>
        <time>2025-02-25T08:43:44Z</time>
      </trkpt>
      <trkpt lat="48.08129" lon="-3.57746">
        <ele>119.2</ele>
        <time>2025-02-25T08:43:45Z</time>
      </trkpt>
      <trkpt lat="48.08129" lon="-3.57747">
        <ele>119.2</ele>
        <time>2025-02-25T08:43:46Z</time>
      </trkpt>
      <trkpt lat="48.08129" lon="-3.57749">
        <ele>119.3</ele>
        <time>2025-02-25T08:43:47Z</time>
      </trkpt>
      <trkpt lat="48.08129" lon="-3.5775">
        <ele>119.4</ele>
        <time>2025-02-25T08:43:48Z</time>
      </trkpt>
      <trkpt lat="48.08129" lon="-3.57749">
        <ele>119.3</ele>
        <time>2025-02-25T08:43:49Z</time>
      </trkpt>
      <trkpt lat="48.08129" lon="-3.57749">
        <ele>119.3</ele>
        <time>2025-02-25T08:43:50Z</time>
      </trkpt>
      <trkpt lat="48.08128" lon="-3.57751">
        <ele>119.4</ele>
        <time>2025-02-25T08:43:51Z</time>
      </trkpt>
      <trkpt lat="48.08128" lon="-3.57754">
        <ele>119.6</ele>
        <time>2025-02-25T08:43:52Z</time>
      </trkpt>
      <trkpt lat="48.08127" lon="-3.57754">
        <ele>119.6</ele>
        <time>2025-02-25T08:43:53Z</time>
      </trkpt>
      <trkpt lat="48.08127" lon="-3.57756">
        <ele>119.7</ele>
        <time>2025-02-25T08:43:54Z</time>
      </trkpt>
      <trkpt lat="48.08127" lon="-3.57756">
        <ele>119.7</ele>
        <time>2025-02-25T08:43:55Z</time>
      </trkpt>
      <trkpt lat="48.08127" lon="-3.57757">
        <ele>119.8</ele>
        <time>2025-02-25T08:43:56Z</time>
      </trkpt>
      <trkpt lat="48.08127" lon="-3.57759">
        <ele>119.9</ele>
        <time>2025-02-25T08:43:57Z</time>
      </trkpt>
      <trkpt lat="48.08126" lon="-3.57762">
        <ele>120.1</ele>
        <time>2025-02-25T08:43:58Z</time>
      </trkpt>
      <trkpt lat="48.08126" lon="-3.57763">
        <ele>120.1</ele>
        <time>2025-02-25T08:43:59Z</time>
      </trkpt>
      <trkpt lat="48.08126" lon="-3.57764">
        <ele>120.2</ele>
        <time>2025-02-25T08:44:00Z</time>
      </trkpt>
      <trkpt lat="48.08126" lon="-3.57763">
        <ele>120.1</ele>
        <time>2025-02-25T08:44:01Z</time>
      </trkpt>
      <trkpt lat="48.08125" lon="-3.57764">
        <ele>120.3</ele>
        <time>2025-02-25T08:44:02Z</time>
      </trkpt>
      <trkpt lat="48.08124" lon="-3.57766">
        <ele>120.4</ele>
        <time>2025-02-25T08:44:03Z</time>
      </trkpt>
      <trkpt lat="48.08124" lon="-3.57767">
        <ele>120.5</ele>
        <time>2025-02-25T08:44:04Z</time>
      </trkpt>
      <trkpt lat="48.08124" lon="-3.57768">
        <ele>120.5</ele>
        <time>2025-02-25T08:44:05Z</time>
      </trkpt>
      <trkpt lat="48.08123" lon="-3.57771">
        <ele>120.8</ele>
        <time>2025-02-25T08:44:06Z</time>
      </trkpt>
      <trkpt lat="48.08123" lon="-3.57774">
        <ele>120.9</ele>
        <time>2025-02-25T08:44:07Z</time>
      </trkpt>
      <trkpt lat="48.08122" lon="-3.57776">
        <ele>121.1</ele>
        <time>2025-02-25T08:44:08Z</time>
      </trkpt>
      <trkpt lat="48.08122" lon="-3.57778">
        <ele>121.2</ele>
        <time>2025-02-25T08:44:09Z</time>
      </trkpt>
      <trkpt lat="48.08121" lon="-3.5778">
        <ele>121.3</ele>
        <time>2025-02-25T08:44:10Z</time>
      </trkpt>
      <trkpt lat="48.0812" lon="-3.5778">
        <ele>121.4</ele>
        <time>2025-02-25T08:44:11Z</time>
      </trkpt>
      <trkpt lat="48.08121" lon="-3.57778">
        <ele>121.3</ele>
        <time>2025-02-25T08:44:12Z</time>
      </trkpt>
      <trkpt lat="48.08121" lon="-3.57778">
        <ele>121.3</ele>
        <time>2025-02-25T08:44:13Z</time>
      </trkpt>
      <trkpt lat="48.08121" lon="-3.57778">
        <ele>121.3</ele>
        <time>2025-02-25T08:44:14Z</time>
      </trkpt>
      <trkpt lat="48.0812" lon="-3.57779">
        <ele>121.4</ele>
        <time>2025-02-25T08:44:15Z</time>
      </trkpt>
      <trkpt lat="48.0812" lon="-3.57782">
        <ele>121.4</ele>
        <time>2025-02-25T08:44:16Z</time>
      </trkpt>
      <trkpt lat="48.0812" lon="-3.57784">
        <ele>121.4</ele>
        <time>2025-02-25T08:44:17Z</time>
      </trkpt>
      <trkpt lat="48.08119" lon="-3.57785">
        <ele>121.5</ele>
        <time>2025-02-25T08:44:18Z</time>
      </trkpt>
      <trkpt lat="48.08119" lon="-3.57787">
        <ele>121.5</ele>
        <time>2025-02-25T08:44:19Z</time>
      </trkpt>
      <trkpt lat="48.08119" lon="-3.57788">
        <ele>121.5</ele>
        <time>2025-02-25T08:44:20Z</time>
      </trkpt>
      <trkpt lat="48.08119" lon="-3.57789">
        <ele>121.5</ele>
        <time>2025-02-25T08:44:21Z</time>
      </trkpt>
      <trkpt lat="48.08118" lon="-3.5779">
        <ele>121.6</ele>
        <time>2025-02-25T08:44:22Z</time>
      </trkpt>
      <trkpt lat="48.08118" lon="-3.57792">
        <ele>121.6</ele>
        <time>2025-02-25T08:44:23Z</time>
      </trkpt>
      <trkpt lat="48.08117" lon="-3.57793">
        <ele>121.7</ele>
        <time>2025-02-25T08:44:24Z</time>
      </trkpt>
      <trkpt lat="48.08117" lon="-3.57796">
        <ele>121.7</ele>
        <time>2025-02-25T08:44:25Z</time>
      </trkpt>
      <trkpt lat="48.08116" lon="-3.57798">
        <ele>121.8</ele>
        <time>2025-02-25T08:44:26Z</time>
      </trkpt>
      <trkpt lat="48.08116" lon="-3.57801">
        <ele>121.8</ele>
        <time>2025-02-25T08:44:27Z</time>
      </trkpt>
      <trkpt lat="48.08116" lon="-3.57802">
        <ele>121.8</ele>
        <time>2025-02-25T08:44:28Z</time>
      </trkpt>
      <trkpt lat="48.08116" lon="-3.57804">
        <ele>121.8</ele>
        <time>2025-02-25T08:44:29Z</time>
      </trkpt>
      <trkpt lat="48.08116" lon="-3.57806">
        <ele>121.8</ele>
        <time>2025-02-25T08:44:30Z</time>
      </trkpt>
      <trkpt lat="48.08116" lon="-3.57807">
        <ele>121.9</ele>
        <time>2025-02-25T08:44:31Z</time>
      </trkpt>
      <trkpt lat="48.08116" lon="-3.57809">
        <ele>121.9</ele>
        <time>2025-02-25T08:44:32Z</time>
      </trkpt>
      <trkpt lat="48.08115" lon="-3.57811">
        <ele>122.1</ele>
        <time>2025-02-25T08:44:33Z</time>
      </trkpt>
      <trkpt lat="48.08115" lon="-3.57813">
        <ele>122.1</ele>
        <time>2025-02-25T08:44:34Z</time>
      </trkpt>
      <trkpt lat="48.08115" lon="-3.57814">
        <ele>122.2</ele>
        <time>2025-02-25T08:44:35Z</time>
      </trkpt>
      <trkpt lat="48.08116" lon="-3.57816">
        <ele>122.2</ele>
        <time>2025-02-25T08:44:36Z</time>
      </trkpt>
      <trkpt lat="48.08115" lon="-3.57818">
        <ele>122.3</ele>
        <time>2025-02-25T08:44:37Z</time>
      </trkpt>
      <trkpt lat="48.08115" lon="-3.57819">
        <ele>122.3</ele>
        <time>2025-02-25T08:44:38Z</time>
      </trkpt>
      <trkpt lat="48.08115" lon="-3.57821">
        <ele>122.4</ele>
        <time>2025-02-25T08:44:39Z</time>
      </trkpt>
      <trkpt lat="48.08114" lon="-3.57822">
        <ele>122.5</ele>
        <time>2025-02-25T08:44:40Z</time>
      </trkpt>
      <trkpt lat="48.08114" lon="-3.57824">
        <ele>122.6</ele>
        <time>2025-02-25T08:44:41Z</time>
      </trkpt>
      <trkpt lat="48.08114" lon="-3.57826">
        <ele>122.6</ele>
        <time>2025-02-25T08:44:42Z</time>
      </trkpt>
      <trkpt lat="48.08113" lon="-3.57827">
        <ele>122.7</ele>
        <time>2025-02-25T08:44:43Z</time>
      </trkpt>
      <trkpt lat="48.08113" lon="-3.5783">
        <ele>122.8</ele>
        <time>2025-02-25T08:44:44Z</time>
      </trkpt>
      <trkpt lat="48.08113" lon="-3.57832">
        <ele>122.9</ele>
        <time>2025-02-25T08:44:45Z</time>
      </trkpt>
      <trkpt lat="48.08113" lon="-3.57833">
        <ele>122.9</ele>
        <time>2025-02-25T08:44:46Z</time>
      </trkpt>
      <trkpt lat="48.08113" lon="-3.57827">
        <ele>122.7</ele>
        <time>2025-02-25T08:44:47Z</time>
      </trkpt>
      <trkpt lat="48.08113" lon="-3.57825">
        <ele>122.6</ele>
        <time>2025-02-25T08:44:48Z</time>
      </trkpt>
      <trkpt lat="48.08113" lon="-3.57825">
        <ele>122.6</ele>
        <time>2025-02-25T08:44:49Z</time>
      </trkpt>
      <trkpt lat="48.08113" lon="-3.57825">
        <ele>122.6</ele>
        <time>2025-02-25T08:44:50Z</time>
      </trkpt>
      <trkpt lat="48.08113" lon="-3.57824">
        <ele>122.6</ele>
        <time>2025-02-25T08:44:51Z</time>
      </trkpt>
      <trkpt lat="48.08113" lon="-3.57824">
        <ele>122.6</ele>
        <time>2025-02-25T08:44:52Z</time>
      </trkpt>
      <trkpt lat="48.08113" lon="-3.57824">
        <ele>122.6</ele>
        <time>2025-02-25T08:44:53Z</time>
      </trkpt>
      <trkpt lat="48.08113" lon="-3.57824">
        <ele>122.6</ele>
        <time>2025-02-25T08:44:54Z</time>
      </trkpt>
      <trkpt lat="48.08113" lon="-3.57824">
        <ele>122.6</ele>
        <time>2025-02-25T08:44:55Z</time>
      </trkpt>
      <trkpt lat="48.08113" lon="-3.57824">
        <ele>122.6</ele>
        <time>2025-02-25T08:44:56Z</time>
      </trkpt>
      <trkpt lat="48.08113" lon="-3.57824">
        <ele>122.6</ele>
        <time>2025-02-25T08:44:57Z</time>
      </trkpt>
      <trkpt lat="48.08113" lon="-3.57824">
        <ele>122.6</ele>
        <time>2025-02-25T08:44:58Z</time>
      </trkpt>
      <trkpt lat="48.08112" lon="-3.57824">
        <ele>122.6</ele>
        <time>2025-02-25T08:44:59Z</time>
      </trkpt>
      <trkpt lat="48.08112" lon="-3.57825">
        <ele>122.7</ele>
        <time>2025-02-25T08:45:00Z</time>
      </trkpt>
      <trkpt lat="48.08112" lon="-3.57828">
        <ele>122.8</ele>
        <time>2025-02-25T08:45:01Z</time>
      </trkpt>
      <trkpt lat="48.08112" lon="-3.5783">
        <ele>122.8</ele>
        <time>2025-02-25T08:45:02Z</time>
      </trkpt>
      <trkpt lat="48.08112" lon="-3.57831">
        <ele>122.9</ele>
        <time>2025-02-25T08:45:03Z</time>
      </trkpt>
      <trkpt lat="48.08112" lon="-3.57833">
        <ele>123</ele>
        <time>2025-02-25T08:45:04Z</time>
      </trkpt>
      <trkpt lat="48.08112" lon="-3.57835">
        <ele>123</ele>
        <time>2025-02-25T08:45:05Z</time>
      </trkpt>
      <trkpt lat="48.08112" lon="-3.57836">
        <ele>123.1</ele>
        <time>2025-02-25T08:45:06Z</time>
      </trkpt>
      <trkpt lat="48.08112" lon="-3.57838">
        <ele>123.1</ele>
        <time>2025-02-25T08:45:07Z</time>
      </trkpt>
      <trkpt lat="48.08112" lon="-3.57839">
        <ele>123.2</ele>
        <time>2025-02-25T08:45:08Z</time>
      </trkpt>
      <trkpt lat="48.08112" lon="-3.57841">
        <ele>123.2</ele>
        <time>2025-02-25T08:45:09Z</time>
      </trkpt>
      <trkpt lat="48.08112" lon="-3.57842">
        <ele>123.3</ele>
        <time>2025-02-25T08:45:10Z</time>
      </trkpt>
      <trkpt lat="48.08112" lon="-3.57844">
        <ele>123.4</ele>
        <time>2025-02-25T08:45:11Z</time>
      </trkpt>
      <trkpt lat="48.08112" lon="-3.57846">
        <ele>123.4</ele>
        <time>2025-02-25T08:45:12Z</time>
      </trkpt>
      <trkpt lat="48.08112" lon="-3.57847">
        <ele>123.5</ele>
        <time>2025-02-25T08:45:13Z</time>
      </trkpt>
      <trkpt lat="48.08112" lon="-3.57849">
        <ele>123.5</ele>
        <time>2025-02-25T08:45:14Z</time>
      </trkpt>
      <trkpt lat="48.08112" lon="-3.5785">
        <ele>123.6</ele>
        <time>2025-02-25T08:45:15Z</time>
      </trkpt>
      <trkpt lat="48.08112" lon="-3.57851">
        <ele>123.6</ele>
        <time>2025-02-25T08:45:16Z</time>
      </trkpt>
      <trkpt lat="48.08112" lon="-3.57853">
        <ele>123.7</ele>
        <time>2025-02-25T08:45:17Z</time>
      </trkpt>
      <trkpt lat="48.08112" lon="-3.57854">
        <ele>123.7</ele>
        <time>2025-02-25T08:45:18Z</time>
      </trkpt>
      <trkpt lat="48.08112" lon="-3.57855">
        <ele>123.7</ele>
        <time>2025-02-25T08:45:19Z</time>
      </trkpt>
      <trkpt lat="48.08111" lon="-3.57856">
        <ele>123.8</ele>
        <time>2025-02-25T08:45:20Z</time>
      </trkpt>
      <trkpt lat="48.08111" lon="-3.57857">
        <ele>123.9</ele>
        <time>2025-02-25T08:45:21Z</time>
      </trkpt>
      <trkpt lat="48.08111" lon="-3.57859">
        <ele>123.9</ele>
        <time>2025-02-25T08:45:22Z</time>
      </trkpt>
      <trkpt lat="48.0811" lon="-3.5786">
        <ele>124</ele>
        <time>2025-02-25T08:45:23Z</time>
      </trkpt>
      <trkpt lat="48.0811" lon="-3.57862">
        <ele>124.1</ele>
        <time>2025-02-25T08:45:24Z</time>
      </trkpt>
      <trkpt lat="48.0811" lon="-3.57863">
        <ele>124.1</ele>
        <time>2025-02-25T08:45:25Z</time>
      </trkpt>
      <trkpt lat="48.0811" lon="-3.57864">
        <ele>124.1</ele>
        <time>2025-02-25T08:45:26Z</time>
      </trkpt>
      <trkpt lat="48.0811" lon="-3.57865">
        <ele>124.2</ele>
        <time>2025-02-25T08:45:27Z</time>
      </trkpt>
      <trkpt lat="48.08109" lon="-3.57867">
        <ele>124.3</ele>
        <time>2025-02-25T08:45:28Z</time>
      </trkpt>
      <trkpt lat="48.08109" lon="-3.57869">
        <ele>124.4</ele>
        <time>2025-02-25T08:45:29Z</time>
      </trkpt>
      <trkpt lat="48.08109" lon="-3.5787">
        <ele>124.4</ele>
        <time>2025-02-25T08:45:30Z</time>
      </trkpt>
      <trkpt lat="48.08109" lon="-3.57872">
        <ele>124.5</ele>
        <time>2025-02-25T08:45:31Z</time>
      </trkpt>
      <trkpt lat="48.08109" lon="-3.57873">
        <ele>124.5</ele>
        <time>2025-02-25T08:45:32Z</time>
      </trkpt>
      <trkpt lat="48.08109" lon="-3.57875">
        <ele>124.6</ele>
        <time>2025-02-25T08:45:33Z</time>
      </trkpt>
      <trkpt lat="48.08108" lon="-3.57876">
        <ele>124.6</ele>
        <time>2025-02-25T08:45:34Z</time>
      </trkpt>
      <trkpt lat="48.08108" lon="-3.57878">
        <ele>124.7</ele>
        <time>2025-02-25T08:45:35Z</time>
      </trkpt>
      <trkpt lat="48.08108" lon="-3.5788">
        <ele>124.8</ele>
        <time>2025-02-25T08:45:36Z</time>
      </trkpt>
      <trkpt lat="48.08108" lon="-3.57882">
        <ele>124.9</ele>
        <time>2025-02-25T08:45:37Z</time>
      </trkpt>
      <trkpt lat="48.08108" lon="-3.57883">
        <ele>124.9</ele>
        <time>2025-02-25T08:45:38Z</time>
      </trkpt>
      <trkpt lat="48.08107" lon="-3.57885">
        <ele>125</ele>
        <time>2025-02-25T08:45:39Z</time>
      </trkpt>
      <trkpt lat="48.08107" lon="-3.57886">
        <ele>125</ele>
        <time>2025-02-25T08:45:40Z</time>
      </trkpt>
      <trkpt lat="48.08107" lon="-3.57888">
        <ele>125.1</ele>
        <time>2025-02-25T08:45:41Z</time>
      </trkpt>
      <trkpt lat="48.08107" lon="-3.5789">
        <ele>125.2</ele>
        <time>2025-02-25T08:45:42Z</time>
      </trkpt>
      <trkpt lat="48.08107" lon="-3.57892">
        <ele>125.3</ele>
        <time>2025-02-25T08:45:43Z</time>
      </trkpt>
      <trkpt lat="48.08106" lon="-3.57893">
        <ele>125.3</ele>
        <time>2025-02-25T08:45:44Z</time>
      </trkpt>
      <trkpt lat="48.08106" lon="-3.57895">
        <ele>125.4</ele>
        <time>2025-02-25T08:45:45Z</time>
      </trkpt>
      <trkpt lat="48.08106" lon="-3.57896">
        <ele>125.4</ele>
        <time>2025-02-25T08:45:46Z</time>
      </trkpt>
      <trkpt lat="48.08106" lon="-3.57898">
        <ele>125.5</ele>
        <time>2025-02-25T08:45:47Z</time>
      </trkpt>
      <trkpt lat="48.08105" lon="-3.579">
        <ele>125.6</ele>
        <time>2025-02-25T08:45:48Z</time>
      </trkpt>
      <trkpt lat="48.08105" lon="-3.57902">
        <ele>125.7</ele>
        <time>2025-02-25T08:45:49Z</time>
      </trkpt>
      <trkpt lat="48.08105" lon="-3.57903">
        <ele>125.7</ele>
        <time>2025-02-25T08:45:50Z</time>
      </trkpt>
      <trkpt lat="48.08104" lon="-3.57905">
        <ele>125.8</ele>
        <time>2025-02-25T08:45:51Z</time>
      </trkpt>
      <trkpt lat="48.08104" lon="-3.57906">
        <ele>125.9</ele>
        <time>2025-02-25T08:45:52Z</time>
      </trkpt>
      <trkpt lat="48.08104" lon="-3.57908">
        <ele>125.9</ele>
        <time>2025-02-25T08:45:53Z</time>
      </trkpt>
      <trkpt lat="48.08103" lon="-3.5791">
        <ele>126.1</ele>
        <time>2025-02-25T08:45:54Z</time>
      </trkpt>
      <trkpt lat="48.08103" lon="-3.57911">
        <ele>126.1</ele>
        <time>2025-02-25T08:45:55Z</time>
      </trkpt>
      <trkpt lat="48.08103" lon="-3.57913">
        <ele>126.2</ele>
        <time>2025-02-25T08:45:56Z</time>
      </trkpt>
      <trkpt lat="48.08102" lon="-3.57915">
        <ele>126.3</ele>
        <time>2025-02-25T08:45:57Z</time>
      </trkpt>
      <trkpt lat="48.08102" lon="-3.57916">
        <ele>126.3</ele>
        <time>2025-02-25T08:45:58Z</time>
      </trkpt>
      <trkpt lat="48.08102" lon="-3.57918">
        <ele>126.4</ele>
        <time>2025-02-25T08:45:59Z</time>
      </trkpt>
      <trkpt lat="48.08101" lon="-3.57919">
        <ele>126.5</ele>
        <time>2025-02-25T08:46:00Z</time>
      </trkpt>
      <trkpt lat="48.08101" lon="-3.57921">
        <ele>126.6</ele>
        <time>2025-02-25T08:46:01Z</time>
      </trkpt>
      <trkpt lat="48.08101" lon="-3.57922">
        <ele>126.6</ele>
        <time>2025-02-25T08:46:02Z</time>
      </trkpt>
      <trkpt lat="48.081" lon="-3.57924">
        <ele>126.8</ele>
        <time>2025-02-25T08:46:03Z</time>
      </trkpt>
      <trkpt lat="48.081" lon="-3.57926">
        <ele>126.9</ele>
        <time>2025-02-25T08:46:04Z</time>
      </trkpt>
      <trkpt lat="48.081" lon="-3.57927">
        <ele>126.9</ele>
        <time>2025-02-25T08:46:05Z</time>
      </trkpt>
      <trkpt lat="48.081" lon="-3.57929">
        <ele>127</ele>
        <time>2025-02-25T08:46:06Z</time>
      </trkpt>
      <trkpt lat="48.081" lon="-3.5793">
        <ele>127.1</ele>
        <time>2025-02-25T08:46:07Z</time>
      </trkpt>
      <trkpt lat="48.081" lon="-3.57932">
        <ele>127.2</ele>
        <time>2025-02-25T08:46:08Z</time>
      </trkpt>
      <trkpt lat="48.08099" lon="-3.57934">
        <ele>127.3</ele>
        <time>2025-02-25T08:46:09Z</time>
      </trkpt>
      <trkpt lat="48.08099" lon="-3.57935">
        <ele>127.4</ele>
        <time>2025-02-25T08:46:10Z</time>
      </trkpt>
      <trkpt lat="48.08098" lon="-3.57937">
        <ele>127.5</ele>
        <time>2025-02-25T08:46:11Z</time>
      </trkpt>
      <trkpt lat="48.08098" lon="-3.57938">
        <ele>127.6</ele>
        <time>2025-02-25T08:46:12Z</time>
      </trkpt>
      <trkpt lat="48.08097" lon="-3.5794">
        <ele>127.8</ele>
        <time>2025-02-25T08:46:13Z</time>
      </trkpt>
      <trkpt lat="48.08097" lon="-3.57942">
        <ele>127.9</ele>
        <time>2025-02-25T08:46:14Z</time>
      </trkpt>
      <trkpt lat="48.08097" lon="-3.57944">
        <ele>128</ele>
        <time>2025-02-25T08:46:15Z</time>
      </trkpt>
      <trkpt lat="48.08097" lon="-3.57946">
        <ele>128.1</ele>
        <time>2025-02-25T08:46:16Z</time>
      </trkpt>
      <trkpt lat="48.08097" lon="-3.57947">
        <ele>128.2</ele>
        <time>2025-02-25T08:46:17Z</time>
      </trkpt>
      <trkpt lat="48.08097" lon="-3.57949">
        <ele>128.3</ele>
        <time>2025-02-25T08:46:18Z</time>
      </trkpt>
      <trkpt lat="48.08097" lon="-3.57951">
        <ele>128.4</ele>
        <time>2025-02-25T08:46:19Z</time>
      </trkpt>
      <trkpt lat="48.08097" lon="-3.57952">
        <ele>128.4</ele>
        <time>2025-02-25T08:46:20Z</time>
      </trkpt>
      <trkpt lat="48.08097" lon="-3.57953">
        <ele>128.5</ele>
        <time>2025-02-25T08:46:21Z</time>
      </trkpt>
      <trkpt lat="48.08097" lon="-3.57955">
        <ele>128.6</ele>
        <time>2025-02-25T08:46:22Z</time>
      </trkpt>
      <trkpt lat="48.08097" lon="-3.57957">
        <ele>128.7</ele>
        <time>2025-02-25T08:46:23Z</time>
      </trkpt>
      <trkpt lat="48.08097" lon="-3.57958">
        <ele>128.7</ele>
        <time>2025-02-25T08:46:24Z</time>
      </trkpt>
      <trkpt lat="48.08097" lon="-3.5796">
        <ele>128.9</ele>
        <time>2025-02-25T08:46:25Z</time>
      </trkpt>
      <trkpt lat="48.08096" lon="-3.57962">
        <ele>129</ele>
        <time>2025-02-25T08:46:26Z</time>
      </trkpt>
      <trkpt lat="48.08096" lon="-3.57963">
        <ele>129.1</ele>
        <time>2025-02-25T08:46:27Z</time>
      </trkpt>
      <trkpt lat="48.08096" lon="-3.57965">
        <ele>129.2</ele>
        <time>2025-02-25T08:46:28Z</time>
      </trkpt>
      <trkpt lat="48.08096" lon="-3.57966">
        <ele>129.2</ele>
        <time>2025-02-25T08:46:29Z</time>
      </trkpt>
      <trkpt lat="48.08096" lon="-3.57968">
        <ele>129.3</ele>
        <time>2025-02-25T08:46:30Z</time>
      </trkpt>
      <trkpt lat="48.08095" lon="-3.5797">
        <ele>129.5</ele>
        <time>2025-02-25T08:46:31Z</time>
      </trkpt>
      <trkpt lat="48.08096" lon="-3.57971">
        <ele>129.5</ele>
        <time>2025-02-25T08:46:32Z</time>
      </trkpt>
      <trkpt lat="48.08095" lon="-3.57973">
        <ele>129.6</ele>
        <time>2025-02-25T08:46:33Z</time>
      </trkpt>
      <trkpt lat="48.08095" lon="-3.57974">
        <ele>129.6</ele>
        <time>2025-02-25T08:46:34Z</time>
      </trkpt>
      <trkpt lat="48.08095" lon="-3.57976">
        <ele>129.7</ele>
        <time>2025-02-25T08:46:35Z</time>
      </trkpt>
      <trkpt lat="48.08095" lon="-3.57977">
        <ele>129.8</ele>
        <time>2025-02-25T08:46:36Z</time>
      </trkpt>
      <trkpt lat="48.08095" lon="-3.57979">
        <ele>129.8</ele>
        <time>2025-02-25T08:46:37Z</time>
      </trkpt>
      <trkpt lat="48.08095" lon="-3.57981">
        <ele>129.9</ele>
        <time>2025-02-25T08:46:38Z</time>
      </trkpt>
      <trkpt lat="48.08095" lon="-3.57983">
        <ele>130</ele>
        <time>2025-02-25T08:46:39Z</time>
      </trkpt>
      <trkpt lat="48.08095" lon="-3.57984">
        <ele>130</ele>
        <time>2025-02-25T08:46:40Z</time>
      </trkpt>
      <trkpt lat="48.08094" lon="-3.57986">
        <ele>130.1</ele>
        <time>2025-02-25T08:46:41Z</time>
      </trkpt>
      <trkpt lat="48.08094" lon="-3.57987">
        <ele>130.1</ele>
        <time>2025-02-25T08:46:42Z</time>
      </trkpt>
      <trkpt lat="48.08094" lon="-3.57989">
        <ele>130.2</ele>
        <time>2025-02-25T08:46:43Z</time>
      </trkpt>
      <trkpt lat="48.08094" lon="-3.57991">
        <ele>130.3</ele>
        <time>2025-02-25T08:46:44Z</time>
      </trkpt>
      <trkpt lat="48.08094" lon="-3.57992">
        <ele>130.3</ele>
        <time>2025-02-25T08:46:45Z</time>
      </trkpt>
      <trkpt lat="48.08093" lon="-3.57994">
        <ele>130.4</ele>
        <time>2025-02-25T08:46:46Z</time>
      </trkpt>
      <trkpt lat="48.08093" lon="-3.57995">
        <ele>130.5</ele>
        <time>2025-02-25T08:46:47Z</time>
      </trkpt>
      <trkpt lat="48.08093" lon="-3.57997">
        <ele>130.5</ele>
        <time>2025-02-25T08:46:48Z</time>
      </trkpt>
      <trkpt lat="48.08093" lon="-3.57999">
        <ele>130.6</ele>
        <time>2025-02-25T08:46:49Z</time>
      </trkpt>
      <trkpt lat="48.08092" lon="-3.58">
        <ele>130.7</ele>
        <time>2025-02-25T08:46:50Z</time>
      </trkpt>
      <trkpt lat="48.08092" lon="-3.58002">
        <ele>130.8</ele>
        <time>2025-02-25T08:46:51Z</time>
      </trkpt>
      <trkpt lat="48.08092" lon="-3.58004">
        <ele>130.9</ele>
        <time>2025-02-25T08:46:52Z</time>
      </trkpt>
      <trkpt lat="48.08092" lon="-3.58006">
        <ele>131.1</ele>
        <time>2025-02-25T08:46:53Z</time>
      </trkpt>
      <trkpt lat="48.08092" lon="-3.58007">
        <ele>131.1</ele>
        <time>2025-02-25T08:46:54Z</time>
      </trkpt>
      <trkpt lat="48.08092" lon="-3.58009">
        <ele>131.2</ele>
        <time>2025-02-25T08:46:55Z</time>
      </trkpt>
      <trkpt lat="48.08091" lon="-3.58011">
        <ele>131.4</ele>
        <time>2025-02-25T08:46:56Z</time>
      </trkpt>
      <trkpt lat="48.08091" lon="-3.58012">
        <ele>131.5</ele>
        <time>2025-02-25T08:46:57Z</time>
      </trkpt>
      <trkpt lat="48.08091" lon="-3.58014">
        <ele>131.6</ele>
        <time>2025-02-25T08:46:58Z</time>
      </trkpt>
      <trkpt lat="48.0809" lon="-3.58016">
        <ele>131.8</ele>
        <time>2025-02-25T08:46:59Z</time>
      </trkpt>
      <trkpt lat="48.0809" lon="-3.58017">
        <ele>131.8</ele>
        <time>2025-02-25T08:47:00Z</time>
      </trkpt>
      <trkpt lat="48.0809" lon="-3.58019">
        <ele>132</ele>
        <time>2025-02-25T08:47:01Z</time>
      </trkpt>
      <trkpt lat="48.08089" lon="-3.58021">
        <ele>132.2</ele>
        <time>2025-02-25T08:47:02Z</time>
      </trkpt>
      <trkpt lat="48.08089" lon="-3.58022">
        <ele>132.2</ele>
        <time>2025-02-25T08:47:03Z</time>
      </trkpt>
      <trkpt lat="48.08089" lon="-3.58025">
        <ele>132.4</ele>
        <time>2025-02-25T08:47:04Z</time>
      </trkpt>
      <trkpt lat="48.08089" lon="-3.58026">
        <ele>132.5</ele>
        <time>2025-02-25T08:47:05Z</time>
      </trkpt>
      <trkpt lat="48.08089" lon="-3.58028">
        <ele>132.6</ele>
        <time>2025-02-25T08:47:06Z</time>
      </trkpt>
      <trkpt lat="48.08089" lon="-3.5803">
        <ele>132.7</ele>
        <time>2025-02-25T08:47:07Z</time>
      </trkpt>
      <trkpt lat="48.08088" lon="-3.58032">
        <ele>132.8</ele>
        <time>2025-02-25T08:47:08Z</time>
      </trkpt>
      <trkpt lat="48.08088" lon="-3.58033">
        <ele>132.9</ele>
        <time>2025-02-25T08:47:09Z</time>
      </trkpt>
      <trkpt lat="48.08088" lon="-3.58034">
        <ele>132.9</ele>
        <time>2025-02-25T08:47:10Z</time>
      </trkpt>
      <trkpt lat="48.08088" lon="-3.58036">
        <ele>133</ele>
        <time>2025-02-25T08:47:11Z</time>
      </trkpt>
      <trkpt lat="48.08089" lon="-3.58038">
        <ele>133</ele>
        <time>2025-02-25T08:47:12Z</time>
      </trkpt>
      <trkpt lat="48.08088" lon="-3.5804">
        <ele>133.2</ele>
        <time>2025-02-25T08:47:13Z</time>
      </trkpt>
      <trkpt lat="48.08088" lon="-3.58041">
        <ele>133.2</ele>
        <time>2025-02-25T08:47:14Z</time>
      </trkpt>
      <trkpt lat="48.08088" lon="-3.58043">
        <ele>133.3</ele>
        <time>2025-02-25T08:47:15Z</time>
      </trkpt>
      <trkpt lat="48.08087" lon="-3.58045">
        <ele>133.4</ele>
        <time>2025-02-25T08:47:16Z</time>
      </trkpt>
      <trkpt lat="48.08088" lon="-3.58047">
        <ele>133.5</ele>
        <time>2025-02-25T08:47:17Z</time>
      </trkpt>
      <trkpt lat="48.08088" lon="-3.58048">
        <ele>133.5</ele>
        <time>2025-02-25T08:47:18Z</time>
      </trkpt>
      <trkpt lat="48.08088" lon="-3.5805">
        <ele>133.6</ele>
        <time>2025-02-25T08:47:19Z</time>
      </trkpt>
      <trkpt lat="48.08087" lon="-3.58052">
        <ele>133.7</ele>
        <time>2025-02-25T08:47:20Z</time>
      </trkpt>
      <trkpt lat="48.08087" lon="-3.58054">
        <ele>133.8</ele>
        <time>2025-02-25T08:47:21Z</time>
      </trkpt>
      <trkpt lat="48.08087" lon="-3.58054">
        <ele>133.8</ele>
        <time>2025-02-25T08:47:22Z</time>
      </trkpt>
      <trkpt lat="48.08087" lon="-3.58056">
        <ele>133.9</ele>
        <time>2025-02-25T08:47:23Z</time>
      </trkpt>
      <trkpt lat="48.08087" lon="-3.58057">
        <ele>134</ele>
        <time>2025-02-25T08:47:24Z</time>
      </trkpt>
      <trkpt lat="48.08087" lon="-3.58059">
        <ele>134.1</ele>
        <time>2025-02-25T08:47:25Z</time>
      </trkpt>
      <trkpt lat="48.08087" lon="-3.58061">
        <ele>134.3</ele>
        <time>2025-02-25T08:47:26Z</time>
      </trkpt>
      <trkpt lat="48.08086" lon="-3.58062">
        <ele>134.4</ele>
        <time>2025-02-25T08:47:27Z</time>
      </trkpt>
      <trkpt lat="48.08086" lon="-3.58064">
        <ele>134.5</ele>
        <time>2025-02-25T08:47:28Z</time>
      </trkpt>
      <trkpt lat="48.08086" lon="-3.58065">
        <ele>134.6</ele>
        <time>2025-02-25T08:47:29Z</time>
      </trkpt>
      <trkpt lat="48.08086" lon="-3.58067">
        <ele>134.7</ele>
        <time>2025-02-25T08:47:30Z</time>
      </trkpt>
      <trkpt lat="48.08086" lon="-3.58069">
        <ele>134.9</ele>
        <time>2025-02-25T08:47:31Z</time>
      </trkpt>
      <trkpt lat="48.08086" lon="-3.5807">
        <ele>134.9</ele>
        <time>2025-02-25T08:47:32Z</time>
      </trkpt>
      <trkpt lat="48.08085" lon="-3.58072">
        <ele>135.1</ele>
        <time>2025-02-25T08:47:33Z</time>
      </trkpt>
      <trkpt lat="48.08085" lon="-3.58073">
        <ele>135.2</ele>
        <time>2025-02-25T08:47:34Z</time>
      </trkpt>
      <trkpt lat="48.08084" lon="-3.58074">
        <ele>135.3</ele>
        <time>2025-02-25T08:47:35Z</time>
      </trkpt>
      <trkpt lat="48.08084" lon="-3.58076">
        <ele>135.4</ele>
        <time>2025-02-25T08:47:36Z</time>
      </trkpt>
      <trkpt lat="48.08083" lon="-3.58078">
        <ele>135.6</ele>
        <time>2025-02-25T08:47:37Z</time>
      </trkpt>
      <trkpt lat="48.08083" lon="-3.58079">
        <ele>135.7</ele>
        <time>2025-02-25T08:47:38Z</time>
      </trkpt>
      <trkpt lat="48.08083" lon="-3.5808">
        <ele>135.8</ele>
        <time>2025-02-25T08:47:39Z</time>
      </trkpt>
      <trkpt lat="48.08083" lon="-3.58082">
        <ele>135.9</ele>
        <time>2025-02-25T08:47:40Z</time>
      </trkpt>
      <trkpt lat="48.08082" lon="-3.58083">
        <ele>136</ele>
        <time>2025-02-25T08:47:41Z</time>
      </trkpt>
      <trkpt lat="48.08082" lon="-3.58085">
        <ele>136.1</ele>
        <time>2025-02-25T08:47:42Z</time>
      </trkpt>
      <trkpt lat="48.08082" lon="-3.58086">
        <ele>136.1</ele>
        <time>2025-02-25T08:47:43Z</time>
      </trkpt>
      <trkpt lat="48.08081" lon="-3.58088">
        <ele>136.3</ele>
        <time>2025-02-25T08:47:44Z</time>
      </trkpt>
      <trkpt lat="48.08081" lon="-3.58089">
        <ele>136.3</ele>
        <time>2025-02-25T08:47:45Z</time>
      </trkpt>
      <trkpt lat="48.08081" lon="-3.58091">
        <ele>136.4</ele>
        <time>2025-02-25T08:47:46Z</time>
      </trkpt>
      <trkpt lat="48.08081" lon="-3.58092">
        <ele>136.4</ele>
        <time>2025-02-25T08:47:47Z</time>
      </trkpt>
      <trkpt lat="48.0808" lon="-3.58094">
        <ele>136.5</ele>
        <time>2025-02-25T08:47:48Z</time>
      </trkpt>
      <trkpt lat="48.0808" lon="-3.58095">
        <ele>136.5</ele>
        <time>2025-02-25T08:47:49Z</time>
      </trkpt>
      <trkpt lat="48.08079" lon="-3.58097">
        <ele>136.6</ele>
        <time>2025-02-25T08:47:50Z</time>
      </trkpt>
      <trkpt lat="48.08078" lon="-3.58098">
        <ele>136.7</ele>
        <time>2025-02-25T08:47:51Z</time>
      </trkpt>
      <trkpt lat="48.08078" lon="-3.581">
        <ele>136.8</ele>
        <time>2025-02-25T08:47:52Z</time>
      </trkpt>
      <trkpt lat="48.08078" lon="-3.58102">
        <ele>136.9</ele>
        <time>2025-02-25T08:47:53Z</time>
      </trkpt>
      <trkpt lat="48.08077" lon="-3.58104">
        <ele>137</ele>
        <time>2025-02-25T08:47:54Z</time>
      </trkpt>
      <trkpt lat="48.08076" lon="-3.58105">
        <ele>137</ele>
        <time>2025-02-25T08:47:55Z</time>
      </trkpt>
      <trkpt lat="48.08076" lon="-3.58107">
        <ele>137.1</ele>
        <time>2025-02-25T08:47:56Z</time>
      </trkpt>
      <trkpt lat="48.08075" lon="-3.58108">
        <ele>137.2</ele>
        <time>2025-02-25T08:47:57Z</time>
      </trkpt>
      <trkpt lat="48.08074" lon="-3.5811">
        <ele>137.3</ele>
        <time>2025-02-25T08:47:58Z</time>
      </trkpt>
      <trkpt lat="48.08074" lon="-3.58112">
        <ele>137.4</ele>
        <time>2025-02-25T08:47:59Z</time>
      </trkpt>
      <trkpt lat="48.08074" lon="-3.58114">
        <ele>137.4</ele>
        <time>2025-02-25T08:48:00Z</time>
      </trkpt>
      <trkpt lat="48.08074" lon="-3.58116">
        <ele>137.5</ele>
        <time>2025-02-25T08:48:01Z</time>
      </trkpt>
      <trkpt lat="48.08073" lon="-3.58117">
        <ele>137.6</ele>
        <time>2025-02-25T08:48:02Z</time>
      </trkpt>
      <trkpt lat="48.08073" lon="-3.58119">
        <ele>137.7</ele>
        <time>2025-02-25T08:48:03Z</time>
      </trkpt>
      <trkpt lat="48.08073" lon="-3.58121">
        <ele>137.7</ele>
        <time>2025-02-25T08:48:04Z</time>
      </trkpt>
      <trkpt lat="48.08072" lon="-3.58123">
        <ele>137.8</ele>
        <time>2025-02-25T08:48:05Z</time>
      </trkpt>
      <trkpt lat="48.08072" lon="-3.58124">
        <ele>137.9</ele>
        <time>2025-02-25T08:48:06Z</time>
      </trkpt>
      <trkpt lat="48.08071" lon="-3.58126">
        <ele>138</ele>
        <time>2025-02-25T08:48:07Z</time>
      </trkpt>
      <trkpt lat="48.0807" lon="-3.58127">
        <ele>138.1</ele>
        <time>2025-02-25T08:48:08Z</time>
      </trkpt>
      <trkpt lat="48.08069" lon="-3.58129">
        <ele>138.2</ele>
        <time>2025-02-25T08:48:09Z</time>
      </trkpt>
      <trkpt lat="48.08069" lon="-3.5813">
        <ele>138.2</ele>
        <time>2025-02-25T08:48:10Z</time>
      </trkpt>
      <trkpt lat="48.08068" lon="-3.58132">
        <ele>138.3</ele>
        <time>2025-02-25T08:48:11Z</time>
      </trkpt>
      <trkpt lat="48.08068" lon="-3.58133">
        <ele>138.3</ele>
        <time>2025-02-25T08:48:12Z</time>
      </trkpt>
      <trkpt lat="48.08066" lon="-3.58135">
        <ele>138.5</ele>
        <time>2025-02-25T08:48:13Z</time>
      </trkpt>
      <trkpt lat="48.08065" lon="-3.58136">
        <ele>138.6</ele>
        <time>2025-02-25T08:48:14Z</time>
      </trkpt>
      <trkpt lat="48.08065" lon="-3.58138">
        <ele>138.6</ele>
        <time>2025-02-25T08:48:15Z</time>
      </trkpt>
      <trkpt lat="48.08064" lon="-3.5814">
        <ele>138.7</ele>
        <time>2025-02-25T08:48:16Z</time>
      </trkpt>
      <trkpt lat="48.08063" lon="-3.58141">
        <ele>138.8</ele>
        <time>2025-02-25T08:48:17Z</time>
      </trkpt>
      <trkpt lat="48.08062" lon="-3.58142">
        <ele>138.9</ele>
        <time>2025-02-25T08:48:18Z</time>
      </trkpt>
      <trkpt lat="48.08062" lon="-3.58143">
        <ele>138.9</ele>
        <time>2025-02-25T08:48:19Z</time>
      </trkpt>
      <trkpt lat="48.08061" lon="-3.58144">
        <ele>139</ele>
        <time>2025-02-25T08:48:20Z</time>
      </trkpt>
      <trkpt lat="48.0806" lon="-3.58146">
        <ele>139.1</ele>
        <time>2025-02-25T08:48:21Z</time>
      </trkpt>
      <trkpt lat="48.08059" lon="-3.58146">
        <ele>139.1</ele>
        <time>2025-02-25T08:48:22Z</time>
      </trkpt>
      <trkpt lat="48.08059" lon="-3.58148">
        <ele>139.2</ele>
        <time>2025-02-25T08:48:23Z</time>
      </trkpt>
      <trkpt lat="48.08058" lon="-3.58149">
        <ele>139.3</ele>
        <time>2025-02-25T08:48:24Z</time>
      </trkpt>
      <trkpt lat="48.08057" lon="-3.5815">
        <ele>139.3</ele>
        <time>2025-02-25T08:48:25Z</time>
      </trkpt>
      <trkpt lat="48.08057" lon="-3.58152">
        <ele>139.4</ele>
        <time>2025-02-25T08:48:26Z</time>
      </trkpt>
      <trkpt lat="48.08056" lon="-3.58153">
        <ele>139.5</ele>
        <time>2025-02-25T08:48:27Z</time>
      </trkpt>
      <trkpt lat="48.08056" lon="-3.58155">
        <ele>139.6</ele>
        <time>2025-02-25T08:48:28Z</time>
      </trkpt>
      <trkpt lat="48.08056" lon="-3.58156">
        <ele>139.6</ele>
        <time>2025-02-25T08:48:29Z</time>
      </trkpt>
      <trkpt lat="48.08055" lon="-3.58158">
        <ele>139.7</ele>
        <time>2025-02-25T08:48:30Z</time>
      </trkpt>
      <trkpt lat="48.08055" lon="-3.5816">
        <ele>139.8</ele>
        <time>2025-02-25T08:48:31Z</time>
      </trkpt>
      <trkpt lat="48.08054" lon="-3.58161">
        <ele>139.8</ele>
        <time>2025-02-25T08:48:32Z</time>
      </trkpt>
      <trkpt lat="48.08053" lon="-3.58162">
        <ele>139.8</ele>
        <time>2025-02-25T08:48:33Z</time>
      </trkpt>
      <trkpt lat="48.08053" lon="-3.58164">
        <ele>139.9</ele>
        <time>2025-02-25T08:48:34Z</time>
      </trkpt>
      <trkpt lat="48.08053" lon="-3.58166">
        <ele>140</ele>
        <time>2025-02-25T08:48:35Z</time>
      </trkpt>
      <trkpt lat="48.08053" lon="-3.58167">
        <ele>140</ele>
        <time>2025-02-25T08:48:36Z</time>
      </trkpt>
      <trkpt lat="48.08053" lon="-3.58169">
        <ele>140.1</ele>
        <time>2025-02-25T08:48:37Z</time>
      </trkpt>
      <trkpt lat="48.08053" lon="-3.5817">
        <ele>140.1</ele>
        <time>2025-02-25T08:48:38Z</time>
      </trkpt>
      <trkpt lat="48.08052" lon="-3.58172">
        <ele>140.2</ele>
        <time>2025-02-25T08:48:39Z</time>
      </trkpt>
      <trkpt lat="48.08052" lon="-3.58174">
        <ele>140.3</ele>
        <time>2025-02-25T08:48:40Z</time>
      </trkpt>
      <trkpt lat="48.08052" lon="-3.58175">
        <ele>140.3</ele>
        <time>2025-02-25T08:48:41Z</time>
      </trkpt>
      <trkpt lat="48.08052" lon="-3.58177">
        <ele>140.4</ele>
        <time>2025-02-25T08:48:42Z</time>
      </trkpt>
      <trkpt lat="48.08051" lon="-3.58179">
        <ele>140.4</ele>
        <time>2025-02-25T08:48:43Z</time>
      </trkpt>
      <trkpt lat="48.08051" lon="-3.5818">
        <ele>140.5</ele>
        <time>2025-02-25T08:48:44Z</time>
      </trkpt>
      <trkpt lat="48.0805" lon="-3.58182">
        <ele>140.6</ele>
        <time>2025-02-25T08:48:45Z</time>
      </trkpt>
      <trkpt lat="48.0805" lon="-3.58184">
        <ele>140.6</ele>
        <time>2025-02-25T08:48:46Z</time>
      </trkpt>
      <trkpt lat="48.08049" lon="-3.58185">
        <ele>140.7</ele>
        <time>2025-02-25T08:48:47Z</time>
      </trkpt>
      <trkpt lat="48.08049" lon="-3.58187">
        <ele>140.7</ele>
        <time>2025-02-25T08:48:48Z</time>
      </trkpt>
      <trkpt lat="48.08049" lon="-3.58189">
        <ele>140.8</ele>
        <time>2025-02-25T08:48:49Z</time>
      </trkpt>
      <trkpt lat="48.08049" lon="-3.58191">
        <ele>140.9</ele>
        <time>2025-02-25T08:48:50Z</time>
      </trkpt>
      <trkpt lat="48.08048" lon="-3.58193">
        <ele>140.9</ele>
        <time>2025-02-25T08:48:51Z</time>
      </trkpt>
      <trkpt lat="48.08048" lon="-3.58195">
        <ele>141</ele>
        <time>2025-02-25T08:48:52Z</time>
      </trkpt>
      <trkpt lat="48.08047" lon="-3.58197">
        <ele>141</ele>
        <time>2025-02-25T08:48:53Z</time>
      </trkpt>
      <trkpt lat="48.08047" lon="-3.58199">
        <ele>141</ele>
        <time>2025-02-25T08:48:54Z</time>
      </trkpt>
      <trkpt lat="48.08047" lon="-3.582">
        <ele>141</ele>
        <time>2025-02-25T08:48:55Z</time>
      </trkpt>
      <trkpt lat="48.08047" lon="-3.58202">
        <ele>141</ele>
        <time>2025-02-25T08:48:56Z</time>
      </trkpt>
      <trkpt lat="48.08046" lon="-3.58204">
        <ele>141</ele>
        <time>2025-02-25T08:48:57Z</time>
      </trkpt>
      <trkpt lat="48.08046" lon="-3.58206">
        <ele>141</ele>
        <time>2025-02-25T08:48:58Z</time>
      </trkpt>
      <trkpt lat="48.08046" lon="-3.58208">
        <ele>141</ele>
        <time>2025-02-25T08:48:59Z</time>
      </trkpt>
      <trkpt lat="48.08046" lon="-3.5821">
        <ele>141</ele>
        <time>2025-02-25T08:49:00Z</time>
      </trkpt>
      <trkpt lat="48.08046" lon="-3.58211">
        <ele>141</ele>
        <time>2025-02-25T08:49:01Z</time>
      </trkpt>
      <trkpt lat="48.08045" lon="-3.58213">
        <ele>141</ele>
        <time>2025-02-25T08:49:02Z</time>
      </trkpt>
      <trkpt lat="48.08045" lon="-3.58215">
        <ele>141</ele>
        <time>2025-02-25T08:49:03Z</time>
      </trkpt>
      <trkpt lat="48.08045" lon="-3.58216">
        <ele>141</ele>
        <time>2025-02-25T08:49:04Z</time>
      </trkpt>
      <trkpt lat="48.08044" lon="-3.58218">
        <ele>141</ele>
        <time>2025-02-25T08:49:05Z</time>
      </trkpt>
      <trkpt lat="48.08044" lon="-3.5822">
        <ele>141</ele>
        <time>2025-02-25T08:49:06Z</time>
      </trkpt>
      <trkpt lat="48.08044" lon="-3.58222">
        <ele>141</ele>
        <time>2025-02-25T08:49:07Z</time>
      </trkpt>
      <trkpt lat="48.08044" lon="-3.58224">
        <ele>141</ele>
        <time>2025-02-25T08:49:08Z</time>
      </trkpt>
      <trkpt lat="48.08043" lon="-3.58225">
        <ele>141</ele>
        <time>2025-02-25T08:49:09Z</time>
      </trkpt>
      <trkpt lat="48.08043" lon="-3.58227">
        <ele>141</ele>
        <time>2025-02-25T08:49:10Z</time>
      </trkpt>
      <trkpt lat="48.08043" lon="-3.58228">
        <ele>141</ele>
        <time>2025-02-25T08:49:11Z</time>
      </trkpt>
      <trkpt lat="48.08043" lon="-3.5823">
        <ele>141</ele>
        <time>2025-02-25T08:49:12Z</time>
      </trkpt>
      <trkpt lat="48.08043" lon="-3.58231">
        <ele>141</ele>
        <time>2025-02-25T08:49:13Z</time>
      </trkpt>
      <trkpt lat="48.08042" lon="-3.58233">
        <ele>141</ele>
        <time>2025-02-25T08:49:14Z</time>
      </trkpt>
      <trkpt lat="48.08042" lon="-3.58235">
        <ele>141</ele>
        <time>2025-02-25T08:49:15Z</time>
      </trkpt>
      <trkpt lat="48.08042" lon="-3.58237">
        <ele>141</ele>
        <time>2025-02-25T08:49:16Z</time>
      </trkpt>
      <trkpt lat="48.08041" lon="-3.58238">
        <ele>141</ele>
        <time>2025-02-25T08:49:17Z</time>
      </trkpt>
      <trkpt lat="48.08041" lon="-3.5824">
        <ele>141</ele>
        <time>2025-02-25T08:49:18Z</time>
      </trkpt>
      <trkpt lat="48.08041" lon="-3.58242">
        <ele>141</ele>
        <time>2025-02-25T08:49:19Z</time>
      </trkpt>
      <trkpt lat="48.0804" lon="-3.58243">
        <ele>141</ele>
        <time>2025-02-25T08:49:20Z</time>
      </trkpt>
      <trkpt lat="48.0804" lon="-3.58245">
        <ele>141</ele>
        <time>2025-02-25T08:49:21Z</time>
      </trkpt>
      <trkpt lat="48.0804" lon="-3.58247">
        <ele>141</ele>
        <time>2025-02-25T08:49:22Z</time>
      </trkpt>
      <trkpt lat="48.0804" lon="-3.58248">
        <ele>141</ele>
        <time>2025-02-25T08:49:23Z</time>
      </trkpt>
      <trkpt lat="48.0804" lon="-3.5825">
        <ele>141</ele>
        <time>2025-02-25T08:49:24Z</time>
      </trkpt>
      <trkpt lat="48.0804" lon="-3.58252">
        <ele>140.9</ele>
        <time>2025-02-25T08:49:25Z</time>
      </trkpt>
      <trkpt lat="48.0804" lon="-3.58253">
        <ele>140.9</ele>
        <time>2025-02-25T08:49:26Z</time>
      </trkpt>
      <trkpt lat="48.0804" lon="-3.58255">
        <ele>140.8</ele>
        <time>2025-02-25T08:49:27Z</time>
      </trkpt>
      <trkpt lat="48.0804" lon="-3.58256">
        <ele>140.8</ele>
        <time>2025-02-25T08:49:28Z</time>
      </trkpt>
      <trkpt lat="48.08041" lon="-3.58258">
        <ele>140.7</ele>
        <time>2025-02-25T08:49:29Z</time>
      </trkpt>
      <trkpt lat="48.08041" lon="-3.5826">
        <ele>140.6</ele>
        <time>2025-02-25T08:49:30Z</time>
      </trkpt>
      <trkpt lat="48.08042" lon="-3.58262">
        <ele>140.6</ele>
        <time>2025-02-25T08:49:31Z</time>
      </trkpt>
      <trkpt lat="48.08043" lon="-3.58263">
        <ele>140.5</ele>
        <time>2025-02-25T08:49:32Z</time>
      </trkpt>
      <trkpt lat="48.08043" lon="-3.58265">
        <ele>140.5</ele>
        <time>2025-02-25T08:49:33Z</time>
      </trkpt>
      <trkpt lat="48.08044" lon="-3.58266">
        <ele>140.4</ele>
        <time>2025-02-25T08:49:34Z</time>
      </trkpt>
      <trkpt lat="48.08044" lon="-3.58268">
        <ele>140.4</ele>
        <time>2025-02-25T08:49:35Z</time>
      </trkpt>
      <trkpt lat="48.08045" lon="-3.58269">
        <ele>140.3</ele>
        <time>2025-02-25T08:49:36Z</time>
      </trkpt>
      <trkpt lat="48.08045" lon="-3.58271">
        <ele>140.2</ele>
        <time>2025-02-25T08:49:37Z</time>
      </trkpt>
      <trkpt lat="48.08046" lon="-3.58271">
        <ele>140.2</ele>
        <time>2025-02-25T08:49:38Z</time>
      </trkpt>
      <trkpt lat="48.08047" lon="-3.58273">
        <ele>140.2</ele>
        <time>2025-02-25T08:49:39Z</time>
      </trkpt>
      <trkpt lat="48.08048" lon="-3.58275">
        <ele>140.1</ele>
        <time>2025-02-25T08:49:40Z</time>
      </trkpt>
      <trkpt lat="48.08049" lon="-3.58276">
        <ele>140.1</ele>
        <time>2025-02-25T08:49:41Z</time>
      </trkpt>
      <trkpt lat="48.08049" lon="-3.58277">
        <ele>140</ele>
        <time>2025-02-25T08:49:42Z</time>
      </trkpt>
      <trkpt lat="48.0805" lon="-3.58278">
        <ele>140</ele>
        <time>2025-02-25T08:49:43Z</time>
      </trkpt>
      <trkpt lat="48.08051" lon="-3.5828">
        <ele>140</ele>
        <time>2025-02-25T08:49:44Z</time>
      </trkpt>
      <trkpt lat="48.08052" lon="-3.58281">
        <ele>140</ele>
        <time>2025-02-25T08:49:45Z</time>
      </trkpt>
      <trkpt lat="48.08053" lon="-3.58281">
        <ele>140</ele>
        <time>2025-02-25T08:49:46Z</time>
      </trkpt>
      <trkpt lat="48.08054" lon="-3.58282">
        <ele>140</ele>
        <time>2025-02-25T08:49:47Z</time>
      </trkpt>
      <trkpt lat="48.08055" lon="-3.58283">
        <ele>140</ele>
        <time>2025-02-25T08:49:48Z</time>
      </trkpt>
      <trkpt lat="48.08056" lon="-3.58284">
        <ele>140</ele>
        <time>2025-02-25T08:49:49Z</time>
      </trkpt>
      <trkpt lat="48.08057" lon="-3.58285">
        <ele>140</ele>
        <time>2025-02-25T08:49:50Z</time>
      </trkpt>
      <trkpt lat="48.08058" lon="-3.58285">
        <ele>140</ele>
        <time>2025-02-25T08:49:51Z</time>
      </trkpt>
      <trkpt lat="48.08059" lon="-3.58286">
        <ele>140</ele>
        <time>2025-02-25T08:49:52Z</time>
      </trkpt>
      <trkpt lat="48.0806" lon="-3.58287">
        <ele>139.9</ele>
        <time>2025-02-25T08:49:53Z</time>
      </trkpt>
      <trkpt lat="48.08061" lon="-3.58288">
        <ele>139.9</ele>
        <time>2025-02-25T08:49:54Z</time>
      </trkpt>
      <trkpt lat="48.08063" lon="-3.58288">
        <ele>139.9</ele>
        <time>2025-02-25T08:49:55Z</time>
      </trkpt>
      <trkpt lat="48.08064" lon="-3.58288">
        <ele>139.9</ele>
        <time>2025-02-25T08:49:56Z</time>
      </trkpt>
      <trkpt lat="48.08065" lon="-3.58288">
        <ele>139.9</ele>
        <time>2025-02-25T08:49:57Z</time>
      </trkpt>
      <trkpt lat="48.08066" lon="-3.58288">
        <ele>139.9</ele>
        <time>2025-02-25T08:49:58Z</time>
      </trkpt>
      <trkpt lat="48.08067" lon="-3.58288">
        <ele>139.8</ele>
        <time>2025-02-25T08:49:59Z</time>
      </trkpt>
      <trkpt lat="48.08068" lon="-3.58288">
        <ele>139.8</ele>
        <time>2025-02-25T08:50:00Z</time>
      </trkpt>
      <trkpt lat="48.08069" lon="-3.58288">
        <ele>139.8</ele>
        <time>2025-02-25T08:50:01Z</time>
      </trkpt>
      <trkpt lat="48.0807" lon="-3.58288">
        <ele>139.8</ele>
        <time>2025-02-25T08:50:02Z</time>
      </trkpt>
      <trkpt lat="48.08071" lon="-3.58288">
        <ele>139.8</ele>
        <time>2025-02-25T08:50:03Z</time>
      </trkpt>
      <trkpt lat="48.08072" lon="-3.58289">
        <ele>139.8</ele>
        <time>2025-02-25T08:50:04Z</time>
      </trkpt>
      <trkpt lat="48.08073" lon="-3.5829">
        <ele>139.7</ele>
        <time>2025-02-25T08:50:05Z</time>
      </trkpt>
      <trkpt lat="48.08073" lon="-3.58291">
        <ele>139.7</ele>
        <time>2025-02-25T08:50:06Z</time>
      </trkpt>
      <trkpt lat="48.08074" lon="-3.58292">
        <ele>139.7</ele>
        <time>2025-02-25T08:50:07Z</time>
      </trkpt>
      <trkpt lat="48.08075" lon="-3.58293">
        <ele>139.6</ele>
        <time>2025-02-25T08:50:08Z</time>
      </trkpt>
      <trkpt lat="48.08075" lon="-3.58294">
        <ele>139.6</ele>
        <time>2025-02-25T08:50:09Z</time>
      </trkpt>
      <trkpt lat="48.08075" lon="-3.58294">
        <ele>139.6</ele>
        <time>2025-02-25T08:50:10Z</time>
      </trkpt>
      <trkpt lat="48.08075" lon="-3.58294">
        <ele>139.6</ele>
        <time>2025-02-25T08:50:11Z</time>
      </trkpt>
      <trkpt lat="48.08076" lon="-3.58295">
        <ele>139.5</ele>
        <time>2025-02-25T08:50:12Z</time>
      </trkpt>
      <trkpt lat="48.08076" lon="-3.58297">
        <ele>139.5</ele>
        <time>2025-02-25T08:50:13Z</time>
      </trkpt>
      <trkpt lat="48.08076" lon="-3.58297">
        <ele>139.5</ele>
        <time>2025-02-25T08:50:14Z</time>
      </trkpt>
      <trkpt lat="48.08076" lon="-3.58297">
        <ele>139.5</ele>
        <time>2025-02-25T08:50:15Z</time>
      </trkpt>
      <trkpt lat="48.08076" lon="-3.58297">
        <ele>139.5</ele>
        <time>2025-02-25T08:50:16Z</time>
      </trkpt>
      <trkpt lat="48.08076" lon="-3.58297">
        <ele>139.5</ele>
        <time>2025-02-25T08:50:17Z</time>
      </trkpt>
      <trkpt lat="48.08076" lon="-3.58297">
        <ele>139.5</ele>
        <time>2025-02-25T08:50:18Z</time>
      </trkpt>
      <trkpt lat="48.08076" lon="-3.58297">
        <ele>139.5</ele>
        <time>2025-02-25T08:50:19Z</time>
      </trkpt>
      <trkpt lat="48.08076" lon="-3.58299">
        <ele>139.4</ele>
        <time>2025-02-25T08:50:20Z</time>
      </trkpt>
      <trkpt lat="48.08075" lon="-3.583">
        <ele>139.4</ele>
        <time>2025-02-25T08:50:21Z</time>
      </trkpt>
      <trkpt lat="48.08074" lon="-3.58301">
        <ele>139.4</ele>
        <time>2025-02-25T08:50:22Z</time>
      </trkpt>
      <trkpt lat="48.08074" lon="-3.58302">
        <ele>139.4</ele>
        <time>2025-02-25T08:50:23Z</time>
      </trkpt>
      <trkpt lat="48.08074" lon="-3.58304">
        <ele>139.4</ele>
        <time>2025-02-25T08:50:24Z</time>
      </trkpt>
      <trkpt lat="48.08074" lon="-3.58305">
        <ele>139.3</ele>
        <time>2025-02-25T08:50:25Z</time>
      </trkpt>
      <trkpt lat="48.08074" lon="-3.58306">
        <ele>139.3</ele>
        <time>2025-02-25T08:50:26Z</time>
      </trkpt>
      <trkpt lat="48.08073" lon="-3.58307">
        <ele>139.3</ele>
        <time>2025-02-25T08:50:27Z</time>
      </trkpt>
      <trkpt lat="48.08074" lon="-3.58308">
        <ele>139.2</ele>
        <time>2025-02-25T08:50:28Z</time>
      </trkpt>
      <trkpt lat="48.08074" lon="-3.58309">
        <ele>139.1</ele>
        <time>2025-02-25T08:50:29Z</time>
      </trkpt>
      <trkpt lat="48.08075" lon="-3.5831">
        <ele>139</ele>
        <time>2025-02-25T08:50:30Z</time>
      </trkpt>
      <trkpt lat="48.08075" lon="-3.58311">
        <ele>139</ele>
        <time>2025-02-25T08:50:31Z</time>
      </trkpt>
      <trkpt lat="48.08075" lon="-3.58311">
        <ele>139</ele>
        <time>2025-02-25T08:50:32Z</time>
      </trkpt>
      <trkpt lat="48.08076" lon="-3.58311">
        <ele>138.9</ele>
        <time>2025-02-25T08:50:33Z</time>
      </trkpt>
      <trkpt lat="48.08076" lon="-3.58312">
        <ele>138.9</ele>
        <time>2025-02-25T08:50:34Z</time>
      </trkpt>
      <trkpt lat="48.08077" lon="-3.58314">
        <ele>138.7</ele>
        <time>2025-02-25T08:50:35Z</time>
      </trkpt>
      <trkpt lat="48.08077" lon="-3.58315">
        <ele>138.6</ele>
        <time>2025-02-25T08:50:36Z</time>
      </trkpt>
      <trkpt lat="48.08077" lon="-3.58316">
        <ele>138.6</ele>
        <time>2025-02-25T08:50:37Z</time>
      </trkpt>
      <trkpt lat="48.08078" lon="-3.58317">
        <ele>138.4</ele>
        <time>2025-02-25T08:50:38Z</time>
      </trkpt>
      <trkpt lat="48.08078" lon="-3.58318">
        <ele>138.4</ele>
        <time>2025-02-25T08:50:39Z</time>
      </trkpt>
      <trkpt lat="48.08079" lon="-3.58319">
        <ele>138.3</ele>
        <time>2025-02-25T08:50:40Z</time>
      </trkpt>
      <trkpt lat="48.08079" lon="-3.5832">
        <ele>138.2</ele>
        <time>2025-02-25T08:50:41Z</time>
      </trkpt>
      <trkpt lat="48.0808" lon="-3.58321">
        <ele>138.1</ele>
        <time>2025-02-25T08:50:42Z</time>
      </trkpt>
      <trkpt lat="48.0808" lon="-3.58323">
        <ele>137.9</ele>
        <time>2025-02-25T08:50:43Z</time>
      </trkpt>
      <trkpt lat="48.0808" lon="-3.58324">
        <ele>137.9</ele>
        <time>2025-02-25T08:50:44Z</time>
      </trkpt>
      <trkpt lat="48.0808" lon="-3.58326">
        <ele>137.7</ele>
        <time>2025-02-25T08:50:45Z</time>
      </trkpt>
      <trkpt lat="48.08081" lon="-3.58328">
        <ele>137.5</ele>
        <time>2025-02-25T08:50:46Z</time>
      </trkpt>
      <trkpt lat="48.08081" lon="-3.5833">
        <ele>137.4</ele>
        <time>2025-02-25T08:50:47Z</time>
      </trkpt>
      <trkpt lat="48.08081" lon="-3.58332">
        <ele>137.3</ele>
        <time>2025-02-25T08:50:48Z</time>
      </trkpt>
      <trkpt lat="48.08082" lon="-3.58333">
        <ele>137.1</ele>
        <time>2025-02-25T08:50:49Z</time>
      </trkpt>
      <trkpt lat="48.08082" lon="-3.58334">
        <ele>137.1</ele>
        <time>2025-02-25T08:50:50Z</time>
      </trkpt>
      <trkpt lat="48.08082" lon="-3.58335">
        <ele>137</ele>
        <time>2025-02-25T08:50:51Z</time>
      </trkpt>
      <trkpt lat="48.08083" lon="-3.58338">
        <ele>136.9</ele>
        <time>2025-02-25T08:50:52Z</time>
      </trkpt>
      <trkpt lat="48.08083" lon="-3.5834">
        <ele>136.8</ele>
        <time>2025-02-25T08:50:53Z</time>
      </trkpt>
      <trkpt lat="48.08084" lon="-3.58341">
        <ele>136.7</ele>
        <time>2025-02-25T08:50:54Z</time>
      </trkpt>
      <trkpt lat="48.08084" lon="-3.58343">
        <ele>136.7</ele>
        <time>2025-02-25T08:50:55Z</time>
      </trkpt>
      <trkpt lat="48.08085" lon="-3.58345">
        <ele>136.6</ele>
        <time>2025-02-25T08:50:56Z</time>
      </trkpt>
      <trkpt lat="48.08085" lon="-3.58348">
        <ele>136.5</ele>
        <time>2025-02-25T08:50:57Z</time>
      </trkpt>
      <trkpt lat="48.08085" lon="-3.58352">
        <ele>136.3</ele>
        <time>2025-02-25T08:50:58Z</time>
      </trkpt>
      <trkpt lat="48.08085" lon="-3.58354">
        <ele>136.3</ele>
        <time>2025-02-25T08:50:59Z</time>
      </trkpt>
      <trkpt lat="48.08084" lon="-3.58356">
        <ele>136.2</ele>
        <time>2025-02-25T08:51:00Z</time>
      </trkpt>
      <trkpt lat="48.08083" lon="-3.58358">
        <ele>136.1</ele>
        <time>2025-02-25T08:51:01Z</time>
      </trkpt>
      <trkpt lat="48.08082" lon="-3.5836">
        <ele>136.1</ele>
        <time>2025-02-25T08:51:02Z</time>
      </trkpt>
      <trkpt lat="48.08081" lon="-3.58362">
        <ele>136</ele>
        <time>2025-02-25T08:51:03Z</time>
      </trkpt>
      <trkpt lat="48.0808" lon="-3.58363">
        <ele>136</ele>
        <time>2025-02-25T08:51:04Z</time>
      </trkpt>
      <trkpt lat="48.08079" lon="-3.58364">
        <ele>136</ele>
        <time>2025-02-25T08:51:05Z</time>
      </trkpt>
      <trkpt lat="48.08077" lon="-3.58365">
        <ele>136</ele>
        <time>2025-02-25T08:51:06Z</time>
      </trkpt>
      <trkpt lat="48.08077" lon="-3.58365">
        <ele>136</ele>
        <time>2025-02-25T08:51:07Z</time>
      </trkpt>
      <trkpt lat="48.08076" lon="-3.58366">
        <ele>136</ele>
        <time>2025-02-25T08:51:08Z</time>
      </trkpt>
      <trkpt lat="48.08075" lon="-3.58367">
        <ele>135.9</ele>
        <time>2025-02-25T08:51:09Z</time>
      </trkpt>
      <trkpt lat="48.08074" lon="-3.58369">
        <ele>135.9</ele>
        <time>2025-02-25T08:51:10Z</time>
      </trkpt>
      <trkpt lat="48.08073" lon="-3.58371">
        <ele>135.8</ele>
        <time>2025-02-25T08:51:11Z</time>
      </trkpt>
      <trkpt lat="48.08073" lon="-3.58373">
        <ele>135.7</ele>
        <time>2025-02-25T08:51:12Z</time>
      </trkpt>
      <trkpt lat="48.08072" lon="-3.58375">
        <ele>135.6</ele>
        <time>2025-02-25T08:51:13Z</time>
      </trkpt>
      <trkpt lat="48.08072" lon="-3.58377">
        <ele>135.5</ele>
        <time>2025-02-25T08:51:14Z</time>
      </trkpt>
      <trkpt lat="48.08072" lon="-3.58379">
        <ele>135.4</ele>
        <time>2025-02-25T08:51:15Z</time>
      </trkpt>
      <trkpt lat="48.08072" lon="-3.58381">
        <ele>135.3</ele>
        <time>2025-02-25T08:51:16Z</time>
      </trkpt>
      <trkpt lat="48.08073" lon="-3.58384">
        <ele>135</ele>
        <time>2025-02-25T08:51:17Z</time>
      </trkpt>
      <trkpt lat="48.08073" lon="-3.58386">
        <ele>134.9</ele>
        <time>2025-02-25T08:51:18Z</time>
      </trkpt>
      <trkpt lat="48.08073" lon="-3.58388">
        <ele>134.8</ele>
        <time>2025-02-25T08:51:19Z</time>
      </trkpt>
      <trkpt lat="48.08073" lon="-3.58391">
        <ele>134.6</ele>
        <time>2025-02-25T08:51:20Z</time>
      </trkpt>
      <trkpt lat="48.08073" lon="-3.58393">
        <ele>134.4</ele>
        <time>2025-02-25T08:51:21Z</time>
      </trkpt>
      <trkpt lat="48.08073" lon="-3.58395">
        <ele>134.2</ele>
        <time>2025-02-25T08:51:22Z</time>
      </trkpt>
      <trkpt lat="48.08073" lon="-3.58398">
        <ele>134</ele>
        <time>2025-02-25T08:51:23Z</time>
      </trkpt>
      <trkpt lat="48.08073" lon="-3.584">
        <ele>133.8</ele>
        <time>2025-02-25T08:51:24Z</time>
      </trkpt>
      <trkpt lat="48.08073" lon="-3.58403">
        <ele>133.5</ele>
        <time>2025-02-25T08:51:25Z</time>
      </trkpt>
      <trkpt lat="48.08072" lon="-3.58405">
        <ele>133.4</ele>
        <time>2025-02-25T08:51:26Z</time>
      </trkpt>
      <trkpt lat="48.08072" lon="-3.58408">
        <ele>133.2</ele>
        <time>2025-02-25T08:51:27Z</time>
      </trkpt>
      <trkpt lat="48.08072" lon="-3.5841">
        <ele>133</ele>
        <time>2025-02-25T08:51:28Z</time>
      </trkpt>
      <trkpt lat="48.08072" lon="-3.58413">
        <ele>132.7</ele>
        <time>2025-02-25T08:51:29Z</time>
      </trkpt>
      <trkpt lat="48.08072" lon="-3.58415">
        <ele>132.6</ele>
        <time>2025-02-25T08:51:30Z</time>
      </trkpt>
      <trkpt lat="48.08071" lon="-3.58418">
        <ele>132.3</ele>
        <time>2025-02-25T08:51:31Z</time>
      </trkpt>
      <trkpt lat="48.0807" lon="-3.5842">
        <ele>132.2</ele>
        <time>2025-02-25T08:51:32Z</time>
      </trkpt>
      <trkpt lat="48.08071" lon="-3.58421">
        <ele>132.1</ele>
        <time>2025-02-25T08:51:33Z</time>
      </trkpt>
      <trkpt lat="48.08072" lon="-3.5842">
        <ele>132.2</ele>
        <time>2025-02-25T08:51:34Z</time>
      </trkpt>
      <trkpt lat="48.08072" lon="-3.58418">
        <ele>132.3</ele>
        <time>2025-02-25T08:51:35Z</time>
      </trkpt>
      <trkpt lat="48.08072" lon="-3.58419">
        <ele>132.2</ele>
        <time>2025-02-25T08:51:36Z</time>
      </trkpt>
      <trkpt lat="48.08073" lon="-3.58417">
        <ele>132.3</ele>
        <time>2025-02-25T08:51:37Z</time>
      </trkpt>
      <trkpt lat="48.08075" lon="-3.58419">
        <ele>132.1</ele>
        <time>2025-02-25T08:51:38Z</time>
      </trkpt>
      <trkpt lat="48.08075" lon="-3.58417">
        <ele>132.3</ele>
        <time>2025-02-25T08:51:39Z</time>
      </trkpt>
      <trkpt lat="48.08075" lon="-3.58416">
        <ele>132.4</ele>
        <time>2025-02-25T08:51:40Z</time>
      </trkpt>
      <trkpt lat="48.08075" lon="-3.58416">
        <ele>132.4</ele>
        <time>2025-02-25T08:51:41Z</time>
      </trkpt>
      <trkpt lat="48.08075" lon="-3.58416">
        <ele>132.4</ele>
        <time>2025-02-25T08:51:42Z</time>
      </trkpt>
      <trkpt lat="48.08075" lon="-3.58416">
        <ele>132.4</ele>
        <time>2025-02-25T08:51:43Z</time>
      </trkpt>
      <trkpt lat="48.08075" lon="-3.58417">
        <ele>132.3</ele>
        <time>2025-02-25T08:51:44Z</time>
      </trkpt>
      <trkpt lat="48.08075" lon="-3.58418">
        <ele>132.2</ele>
        <time>2025-02-25T08:51:45Z</time>
      </trkpt>
      <trkpt lat="48.08075" lon="-3.5842">
        <ele>132.1</ele>
        <time>2025-02-25T08:51:46Z</time>
      </trkpt>
      <trkpt lat="48.08077" lon="-3.58421">
        <ele>131.9</ele>
        <time>2025-02-25T08:51:47Z</time>
      </trkpt>
      <trkpt lat="48.08078" lon="-3.58422">
        <ele>131.8</ele>
        <time>2025-02-25T08:51:48Z</time>
      </trkpt>
      <trkpt lat="48.08078" lon="-3.58423">
        <ele>131.7</ele>
        <time>2025-02-25T08:51:49Z</time>
      </trkpt>
      <trkpt lat="48.0808" lon="-3.58424">
        <ele>131.6</ele>
        <time>2025-02-25T08:51:50Z</time>
      </trkpt>
      <trkpt lat="48.08081" lon="-3.58424">
        <ele>131.6</ele>
        <time>2025-02-25T08:51:51Z</time>
      </trkpt>
      <trkpt lat="48.08081" lon="-3.58424">
        <ele>131.6</ele>
        <time>2025-02-25T08:51:52Z</time>
      </trkpt>
      <trkpt lat="48.08082" lon="-3.58425">
        <ele>131.4</ele>
        <time>2025-02-25T08:51:53Z</time>
      </trkpt>
      <trkpt lat="48.08083" lon="-3.58425">
        <ele>131.4</ele>
        <time>2025-02-25T08:51:54Z</time>
      </trkpt>
      <trkpt lat="48.08083" lon="-3.58425">
        <ele>131.4</ele>
        <time>2025-02-25T08:51:55Z</time>
      </trkpt>
      <trkpt lat="48.08083" lon="-3.58425">
        <ele>131.4</ele>
        <time>2025-02-25T08:51:56Z</time>
      </trkpt>
      <trkpt lat="48.08083" lon="-3.58427">
        <ele>131.3</ele>
        <time>2025-02-25T08:51:57Z</time>
      </trkpt>
      <trkpt lat="48.08082" lon="-3.58426">
        <ele>131.4</ele>
        <time>2025-02-25T08:51:58Z</time>
      </trkpt>
      <trkpt lat="48.08082" lon="-3.58426">
        <ele>131.4</ele>
        <time>2025-02-25T08:51:59Z</time>
      </trkpt>
      <trkpt lat="48.08082" lon="-3.58426">
        <ele>131.4</ele>
        <time>2025-02-25T08:52:00Z</time>
      </trkpt>
      <trkpt lat="48.08082" lon="-3.58426">
        <ele>131.4</ele>
        <time>2025-02-25T08:52:01Z</time>
      </trkpt>
      <trkpt lat="48.08082" lon="-3.58426">
        <ele>131.4</ele>
        <time>2025-02-25T08:52:02Z</time>
      </trkpt>
      <trkpt lat="48.08082" lon="-3.58426">
        <ele>131.4</ele>
        <time>2025-02-25T08:52:03Z</time>
      </trkpt>
      <trkpt lat="48.08082" lon="-3.58426">
        <ele>131.4</ele>
        <time>2025-02-25T08:52:04Z</time>
      </trkpt>
      <trkpt lat="48.08082" lon="-3.58426">
        <ele>131.4</ele>
        <time>2025-02-25T08:52:05Z</time>
      </trkpt>
      <trkpt lat="48.08081" lon="-3.58426">
        <ele>131.4</ele>
        <time>2025-02-25T08:52:06Z</time>
      </trkpt>
      <trkpt lat="48.0808" lon="-3.58427">
        <ele>131.4</ele>
        <time>2025-02-25T08:52:07Z</time>
      </trkpt>
      <trkpt lat="48.0808" lon="-3.58428">
        <ele>131.3</ele>
        <time>2025-02-25T08:52:08Z</time>
      </trkpt>
      <trkpt lat="48.0808" lon="-3.58429">
        <ele>131.2</ele>
        <time>2025-02-25T08:52:09Z</time>
      </trkpt>
      <trkpt lat="48.08079" lon="-3.58431">
        <ele>131.1</ele>
        <time>2025-02-25T08:52:10Z</time>
      </trkpt>
      <trkpt lat="48.08079" lon="-3.58433">
        <ele>131</ele>
        <time>2025-02-25T08:52:11Z</time>
      </trkpt>
      <trkpt lat="48.08079" lon="-3.58435">
        <ele>130.8</ele>
        <time>2025-02-25T08:52:12Z</time>
      </trkpt>
      <trkpt lat="48.08078" lon="-3.58436">
        <ele>130.8</ele>
        <time>2025-02-25T08:52:13Z</time>
      </trkpt>
      <trkpt lat="48.08077" lon="-3.58437">
        <ele>130.8</ele>
        <time>2025-02-25T08:52:14Z</time>
      </trkpt>
      <trkpt lat="48.08077" lon="-3.58438">
        <ele>130.7</ele>
        <time>2025-02-25T08:52:15Z</time>
      </trkpt>
      <trkpt lat="48.08076" lon="-3.58438">
        <ele>130.7</ele>
        <time>2025-02-25T08:52:16Z</time>
      </trkpt>
      <trkpt lat="48.08075" lon="-3.58439">
        <ele>130.7</ele>
        <time>2025-02-25T08:52:17Z</time>
      </trkpt>
      <trkpt lat="48.08075" lon="-3.5844">
        <ele>130.6</ele>
        <time>2025-02-25T08:52:18Z</time>
      </trkpt>
      <trkpt lat="48.08076" lon="-3.58441">
        <ele>130.5</ele>
        <time>2025-02-25T08:52:19Z</time>
      </trkpt>
      <trkpt lat="48.08076" lon="-3.58442">
        <ele>130.4</ele>
        <time>2025-02-25T08:52:20Z</time>
      </trkpt>
      <trkpt lat="48.08076" lon="-3.58443">
        <ele>130.4</ele>
        <time>2025-02-25T08:52:21Z</time>
      </trkpt>
      <trkpt lat="48.08076" lon="-3.58445">
        <ele>130.2</ele>
        <time>2025-02-25T08:52:22Z</time>
      </trkpt>
      <trkpt lat="48.08075" lon="-3.58447">
        <ele>130.1</ele>
        <time>2025-02-25T08:52:23Z</time>
      </trkpt>
      <trkpt lat="48.08074" lon="-3.5845">
        <ele>129.8</ele>
        <time>2025-02-25T08:52:24Z</time>
      </trkpt>
      <trkpt lat="48.08072" lon="-3.58451">
        <ele>129.8</ele>
        <time>2025-02-25T08:52:25Z</time>
      </trkpt>
      <trkpt lat="48.08071" lon="-3.58452">
        <ele>129.7</ele>
        <time>2025-02-25T08:52:26Z</time>
      </trkpt>
      <trkpt lat="48.0807" lon="-3.58454">
        <ele>129.6</ele>
        <time>2025-02-25T08:52:27Z</time>
      </trkpt>
      <trkpt lat="48.08069" lon="-3.58456">
        <ele>129.5</ele>
        <time>2025-02-25T08:52:28Z</time>
      </trkpt>
      <trkpt lat="48.08069" lon="-3.58457">
        <ele>129.4</ele>
        <time>2025-02-25T08:52:29Z</time>
      </trkpt>
      <trkpt lat="48.08069" lon="-3.5846">
        <ele>129.1</ele>
        <time>2025-02-25T08:52:30Z</time>
      </trkpt>
      <trkpt lat="48.08069" lon="-3.58462">
        <ele>128.9</ele>
        <time>2025-02-25T08:52:31Z</time>
      </trkpt>
      <trkpt lat="48.08069" lon="-3.58463">
        <ele>128.9</ele>
        <time>2025-02-25T08:52:32Z</time>
      </trkpt>
      <trkpt lat="48.08069" lon="-3.58465">
        <ele>128.7</ele>
        <time>2025-02-25T08:52:33Z</time>
      </trkpt>
      <trkpt lat="48.08068" lon="-3.58466">
        <ele>128.7</ele>
        <time>2025-02-25T08:52:34Z</time>
      </trkpt>
      <trkpt lat="48.08068" lon="-3.58468">
        <ele>128.5</ele>
        <time>2025-02-25T08:52:35Z</time>
      </trkpt>
      <trkpt lat="48.08067" lon="-3.58469">
        <ele>128.5</ele>
        <time>2025-02-25T08:52:36Z</time>
      </trkpt>
      <trkpt lat="48.08067" lon="-3.58471">
        <ele>128.3</ele>
        <time>2025-02-25T08:52:37Z</time>
      </trkpt>
      <trkpt lat="48.08067" lon="-3.58473">
        <ele>128.1</ele>
        <time>2025-02-25T08:52:38Z</time>
      </trkpt>
      <trkpt lat="48.08067" lon="-3.58474">
        <ele>128</ele>
        <time>2025-02-25T08:52:39Z</time>
      </trkpt>
      <trkpt lat="48.08066" lon="-3.58477">
        <ele>127.8</ele>
        <time>2025-02-25T08:52:40Z</time>
      </trkpt>
      <trkpt lat="48.08066" lon="-3.58479">
        <ele>127.6</ele>
        <time>2025-02-25T08:52:41Z</time>
      </trkpt>
      <trkpt lat="48.08065" lon="-3.58481">
        <ele>127.5</ele>
        <time>2025-02-25T08:52:42Z</time>
      </trkpt>
      <trkpt lat="48.08066" lon="-3.58482">
        <ele>127.3</ele>
        <time>2025-02-25T08:52:43Z</time>
      </trkpt>
      <trkpt lat="48.08065" lon="-3.58483">
        <ele>127.3</ele>
        <time>2025-02-25T08:52:44Z</time>
      </trkpt>
      <trkpt lat="48.08065" lon="-3.58484">
        <ele>127.2</ele>
        <time>2025-02-25T08:52:45Z</time>
      </trkpt>
      <trkpt lat="48.08064" lon="-3.58485">
        <ele>127.2</ele>
        <time>2025-02-25T08:52:46Z</time>
      </trkpt>
      <trkpt lat="48.08064" lon="-3.58487">
        <ele>127</ele>
        <time>2025-02-25T08:52:47Z</time>
      </trkpt>
      <trkpt lat="48.08063" lon="-3.58488">
        <ele>126.9</ele>
        <time>2025-02-25T08:52:48Z</time>
      </trkpt>
      <trkpt lat="48.08063" lon="-3.5849">
        <ele>126.7</ele>
        <time>2025-02-25T08:52:49Z</time>
      </trkpt>
      <trkpt lat="48.08063" lon="-3.58491">
        <ele>126.6</ele>
        <time>2025-02-25T08:52:50Z</time>
      </trkpt>
      <trkpt lat="48.08063" lon="-3.58493">
        <ele>126.4</ele>
        <time>2025-02-25T08:52:51Z</time>
      </trkpt>
      <trkpt lat="48.08062" lon="-3.58493">
        <ele>126.5</ele>
        <time>2025-02-25T08:52:52Z</time>
      </trkpt>
      <trkpt lat="48.08061" lon="-3.58494">
        <ele>126.4</ele>
        <time>2025-02-25T08:52:53Z</time>
      </trkpt>
      <trkpt lat="48.08061" lon="-3.58496">
        <ele>126.2</ele>
        <time>2025-02-25T08:52:54Z</time>
      </trkpt>
      <trkpt lat="48.08063" lon="-3.58492">
        <ele>126.5</ele>
        <time>2025-02-25T08:52:55Z</time>
      </trkpt>
      <trkpt lat="48.08064" lon="-3.58493">
        <ele>126.4</ele>
        <time>2025-02-25T08:52:56Z</time>
      </trkpt>
      <trkpt lat="48.08064" lon="-3.58496">
        <ele>126.1</ele>
        <time>2025-02-25T08:52:57Z</time>
      </trkpt>
      <trkpt lat="48.08062" lon="-3.58497">
        <ele>126.1</ele>
        <time>2025-02-25T08:52:58Z</time>
      </trkpt>
      <trkpt lat="48.08061" lon="-3.58498">
        <ele>126</ele>
        <time>2025-02-25T08:52:59Z</time>
      </trkpt>
      <trkpt lat="48.08061" lon="-3.58501">
        <ele>125.7</ele>
        <time>2025-02-25T08:53:00Z</time>
      </trkpt>
      <trkpt lat="48.0806" lon="-3.58503">
        <ele>125.5</ele>
        <time>2025-02-25T08:53:01Z</time>
      </trkpt>
      <trkpt lat="48.0806" lon="-3.58504">
        <ele>125.4</ele>
        <time>2025-02-25T08:53:02Z</time>
      </trkpt>
      <trkpt lat="48.08059" lon="-3.58506">
        <ele>125.2</ele>
        <time>2025-02-25T08:53:03Z</time>
      </trkpt>
      <trkpt lat="48.08059" lon="-3.58506">
        <ele>125.2</ele>
        <time>2025-02-25T08:53:04Z</time>
      </trkpt>
      <trkpt lat="48.08059" lon="-3.58507">
        <ele>125.1</ele>
        <time>2025-02-25T08:53:05Z</time>
      </trkpt>
      <trkpt lat="48.08059" lon="-3.58508">
        <ele>125</ele>
        <time>2025-02-25T08:53:06Z</time>
      </trkpt>
      <trkpt lat="48.08057" lon="-3.58509">
        <ele>125</ele>
        <time>2025-02-25T08:53:07Z</time>
      </trkpt>
      <trkpt lat="48.08056" lon="-3.5851">
        <ele>124.9</ele>
        <time>2025-02-25T08:53:08Z</time>
      </trkpt>
      <trkpt lat="48.08055" lon="-3.58512">
        <ele>124.7</ele>
        <time>2025-02-25T08:53:09Z</time>
      </trkpt>
      <trkpt lat="48.08055" lon="-3.58513">
        <ele>124.6</ele>
        <time>2025-02-25T08:53:10Z</time>
      </trkpt>
      <trkpt lat="48.08054" lon="-3.58515">
        <ele>124.4</ele>
        <time>2025-02-25T08:53:11Z</time>
      </trkpt>
      <trkpt lat="48.08054" lon="-3.58516">
        <ele>124.3</ele>
        <time>2025-02-25T08:53:12Z</time>
      </trkpt>
      <trkpt lat="48.08053" lon="-3.58518">
        <ele>124.1</ele>
        <time>2025-02-25T08:53:13Z</time>
      </trkpt>
      <trkpt lat="48.08053" lon="-3.58519">
        <ele>123.9</ele>
        <time>2025-02-25T08:53:14Z</time>
      </trkpt>
      <trkpt lat="48.08052" lon="-3.58521">
        <ele>123.7</ele>
        <time>2025-02-25T08:53:15Z</time>
      </trkpt>
      <trkpt lat="48.08052" lon="-3.58523">
        <ele>123.5</ele>
        <time>2025-02-25T08:53:16Z</time>
      </trkpt>
      <trkpt lat="48.08051" lon="-3.58524">
        <ele>123.4</ele>
        <time>2025-02-25T08:53:17Z</time>
      </trkpt>
      <trkpt lat="48.0805" lon="-3.58525">
        <ele>123.3</ele>
        <time>2025-02-25T08:53:18Z</time>
      </trkpt>
      <trkpt lat="48.08049" lon="-3.58527">
        <ele>123.1</ele>
        <time>2025-02-25T08:53:19Z</time>
      </trkpt>
      <trkpt lat="48.08048" lon="-3.58528">
        <ele>123</ele>
        <time>2025-02-25T08:53:20Z</time>
      </trkpt>
      <trkpt lat="48.08048" lon="-3.5853">
        <ele>122.8</ele>
        <time>2025-02-25T08:53:21Z</time>
      </trkpt>
      <trkpt lat="48.08047" lon="-3.58531">
        <ele>122.7</ele>
        <time>2025-02-25T08:53:22Z</time>
      </trkpt>
      <trkpt lat="48.08047" lon="-3.58532">
        <ele>122.5</ele>
        <time>2025-02-25T08:53:23Z</time>
      </trkpt>
      <trkpt lat="48.08046" lon="-3.58533">
        <ele>122.4</ele>
        <time>2025-02-25T08:53:24Z</time>
      </trkpt>
      <trkpt lat="48.08045" lon="-3.58535">
        <ele>122.2</ele>
        <time>2025-02-25T08:53:25Z</time>
      </trkpt>
      <trkpt lat="48.08045" lon="-3.58536">
        <ele>122.1</ele>
        <time>2025-02-25T08:53:26Z</time>
      </trkpt>
      <trkpt lat="48.08045" lon="-3.58538">
        <ele>121.9</ele>
        <time>2025-02-25T08:53:27Z</time>
      </trkpt>
      <trkpt lat="48.08046" lon="-3.5854">
        <ele>121.7</ele>
        <time>2025-02-25T08:53:28Z</time>
      </trkpt>
      <trkpt lat="48.08046" lon="-3.58541">
        <ele>121.6</ele>
        <time>2025-02-25T08:53:29Z</time>
      </trkpt>
      <trkpt lat="48.08048" lon="-3.58536">
        <ele>122.1</ele>
        <time>2025-02-25T08:53:30Z</time>
      </trkpt>
      <trkpt lat="48.08048" lon="-3.58536">
        <ele>122.1</ele>
        <time>2025-02-25T08:53:31Z</time>
      </trkpt>
      <trkpt lat="48.08047" lon="-3.58537">
        <ele>122</ele>
        <time>2025-02-25T08:53:32Z</time>
      </trkpt>
      <trkpt lat="48.08047" lon="-3.58538">
        <ele>121.9</ele>
        <time>2025-02-25T08:53:33Z</time>
      </trkpt>
      <trkpt lat="48.08047" lon="-3.5854">
        <ele>121.7</ele>
        <time>2025-02-25T08:53:34Z</time>
      </trkpt>
      <trkpt lat="48.08048" lon="-3.58541">
        <ele>121.6</ele>
        <time>2025-02-25T08:53:35Z</time>
      </trkpt>
      <trkpt lat="48.08048" lon="-3.58542">
        <ele>121.5</ele>
        <time>2025-02-25T08:53:36Z</time>
      </trkpt>
      <trkpt lat="48.08048" lon="-3.58544">
        <ele>121.2</ele>
        <time>2025-02-25T08:53:37Z</time>
      </trkpt>
      <trkpt lat="48.08048" lon="-3.58545">
        <ele>121.1</ele>
        <time>2025-02-25T08:53:38Z</time>
      </trkpt>
      <trkpt lat="48.08049" lon="-3.58546">
        <ele>121</ele>
        <time>2025-02-25T08:53:39Z</time>
      </trkpt>
      <trkpt lat="48.08049" lon="-3.58545">
        <ele>121.1</ele>
        <time>2025-02-25T08:53:40Z</time>
      </trkpt>
      <trkpt lat="48.0805" lon="-3.58545">
        <ele>121.1</ele>
        <time>2025-02-25T08:53:41Z</time>
      </trkpt>
      <trkpt lat="48.0805" lon="-3.58543">
        <ele>121.4</ele>
        <time>2025-02-25T08:53:42Z</time>
      </trkpt>
      <trkpt lat="48.0805" lon="-3.58543">
        <ele>121.4</ele>
        <time>2025-02-25T08:53:43Z</time>
      </trkpt>
      <trkpt lat="48.0805" lon="-3.58542">
        <ele>121.5</ele>
        <time>2025-02-25T08:53:44Z</time>
      </trkpt>
      <trkpt lat="48.08051" lon="-3.58542">
        <ele>121.5</ele>
        <time>2025-02-25T08:53:45Z</time>
      </trkpt>
      <trkpt lat="48.08051" lon="-3.58542">
        <ele>121.5</ele>
        <time>2025-02-25T08:53:46Z</time>
      </trkpt>
      <trkpt lat="48.0805" lon="-3.58542">
        <ele>121.5</ele>
        <time>2025-02-25T08:53:47Z</time>
      </trkpt>
      <trkpt lat="48.0805" lon="-3.58539">
        <ele>121.8</ele>
        <time>2025-02-25T08:53:48Z</time>
      </trkpt>
      <trkpt lat="48.08052" lon="-3.58537">
        <ele>122</ele>
        <time>2025-02-25T08:53:49Z</time>
      </trkpt>
      <trkpt lat="48.08053" lon="-3.58538">
        <ele>121.9</ele>
        <time>2025-02-25T08:53:50Z</time>
      </trkpt>
      <trkpt lat="48.08054" lon="-3.58539">
        <ele>121.8</ele>
        <time>2025-02-25T08:53:51Z</time>
      </trkpt>
      <trkpt lat="48.08055" lon="-3.5854">
        <ele>121.7</ele>
        <time>2025-02-25T08:53:52Z</time>
      </trkpt>
      <trkpt lat="48.08055" lon="-3.5854">
        <ele>121.7</ele>
        <time>2025-02-25T08:53:53Z</time>
      </trkpt>
      <trkpt lat="48.08056" lon="-3.58541">
        <ele>121.6</ele>
        <time>2025-02-25T08:53:54Z</time>
      </trkpt>
      <trkpt lat="48.08057" lon="-3.58542">
        <ele>121.4</ele>
        <time>2025-02-25T08:53:55Z</time>
      </trkpt>
      <trkpt lat="48.08058" lon="-3.58543">
        <ele>121.3</ele>
        <time>2025-02-25T08:53:56Z</time>
      </trkpt>
      <trkpt lat="48.08058" lon="-3.58544">
        <ele>121.2</ele>
        <time>2025-02-25T08:53:57Z</time>
      </trkpt>
      <trkpt lat="48.08059" lon="-3.58544">
        <ele>121.1</ele>
        <time>2025-02-25T08:53:58Z</time>
      </trkpt>
      <trkpt lat="48.08059" lon="-3.58545">
        <ele>121</ele>
        <time>2025-02-25T08:53:59Z</time>
      </trkpt>
      <trkpt lat="48.08059" lon="-3.58546">
        <ele>120.9</ele>
        <time>2025-02-25T08:54:00Z</time>
      </trkpt>
      <trkpt lat="48.0806" lon="-3.58547">
        <ele>120.8</ele>
        <time>2025-02-25T08:54:01Z</time>
      </trkpt>
      <trkpt lat="48.08059" lon="-3.58548">
        <ele>120.7</ele>
        <time>2025-02-25T08:54:02Z</time>
      </trkpt>
      <trkpt lat="48.0806" lon="-3.58549">
        <ele>120.5</ele>
        <time>2025-02-25T08:54:03Z</time>
      </trkpt>
      <trkpt lat="48.0806" lon="-3.5855">
        <ele>120.4</ele>
        <time>2025-02-25T08:54:04Z</time>
      </trkpt>
      <trkpt lat="48.08059" lon="-3.58551">
        <ele>120.4</ele>
        <time>2025-02-25T08:54:05Z</time>
      </trkpt>
      <trkpt lat="48.08058" lon="-3.58552">
        <ele>120.3</ele>
        <time>2025-02-25T08:54:06Z</time>
      </trkpt>
      <trkpt lat="48.08057" lon="-3.58554">
        <ele>120.1</ele>
        <time>2025-02-25T08:54:07Z</time>
      </trkpt>
      <trkpt lat="48.08056" lon="-3.58556">
        <ele>119.9</ele>
        <time>2025-02-25T08:54:08Z</time>
      </trkpt>
      <trkpt lat="48.08055" lon="-3.58558">
        <ele>119.6</ele>
        <time>2025-02-25T08:54:09Z</time>
      </trkpt>
      <trkpt lat="48.08054" lon="-3.58559">
        <ele>119.5</ele>
        <time>2025-02-25T08:54:10Z</time>
      </trkpt>
      <trkpt lat="48.08054" lon="-3.5856">
        <ele>119.4</ele>
        <time>2025-02-25T08:54:11Z</time>
      </trkpt>
      <trkpt lat="48.08054" lon="-3.58562">
        <ele>119.1</ele>
        <time>2025-02-25T08:54:12Z</time>
      </trkpt>
      <trkpt lat="48.08053" lon="-3.58563">
        <ele>118.9</ele>
        <time>2025-02-25T08:54:13Z</time>
      </trkpt>
      <trkpt lat="48.08053" lon="-3.58564">
        <ele>118.8</ele>
        <time>2025-02-25T08:54:14Z</time>
      </trkpt>
      <trkpt lat="48.08052" lon="-3.58565">
        <ele>118.6</ele>
        <time>2025-02-25T08:54:15Z</time>
      </trkpt>
      <trkpt lat="48.08052" lon="-3.58565">
        <ele>118.6</ele>
        <time>2025-02-25T08:54:16Z</time>
      </trkpt>
      <trkpt lat="48.08052" lon="-3.58564">
        <ele>118.8</ele>
        <time>2025-02-25T08:54:17Z</time>
      </trkpt>
      <trkpt lat="48.08051" lon="-3.58565">
        <ele>118.6</ele>
        <time>2025-02-25T08:54:18Z</time>
      </trkpt>
      <trkpt lat="48.08052" lon="-3.58567">
        <ele>118.4</ele>
        <time>2025-02-25T08:54:19Z</time>
      </trkpt>
      <trkpt lat="48.08052" lon="-3.58568">
        <ele>118.2</ele>
        <time>2025-02-25T08:54:20Z</time>
      </trkpt>
      <trkpt lat="48.08052" lon="-3.5857">
        <ele>117.9</ele>
        <time>2025-02-25T08:54:21Z</time>
      </trkpt>
      <trkpt lat="48.08051" lon="-3.58571">
        <ele>117.8</ele>
        <time>2025-02-25T08:54:22Z</time>
      </trkpt>
      <trkpt lat="48.0805" lon="-3.58572">
        <ele>117.6</ele>
        <time>2025-02-25T08:54:23Z</time>
      </trkpt>
      <trkpt lat="48.08049" lon="-3.58572">
        <ele>117.6</ele>
        <time>2025-02-25T08:54:24Z</time>
      </trkpt>
      <trkpt lat="48.08048" lon="-3.58573">
        <ele>117.5</ele>
        <time>2025-02-25T08:54:25Z</time>
      </trkpt>
      <trkpt lat="48.08046" lon="-3.58574">
        <ele>117.3</ele>
        <time>2025-02-25T08:54:26Z</time>
      </trkpt>
      <trkpt lat="48.08046" lon="-3.58574">
        <ele>117.3</ele>
        <time>2025-02-25T08:54:27Z</time>
      </trkpt>
      <trkpt lat="48.08045" lon="-3.58575">
        <ele>117.2</ele>
        <time>2025-02-25T08:54:28Z</time>
      </trkpt>
      <trkpt lat="48.08043" lon="-3.58576">
        <ele>117.1</ele>
        <time>2025-02-25T08:54:29Z</time>
      </trkpt>
      <trkpt lat="48.08043" lon="-3.58576">
        <ele>117.1</ele>
        <time>2025-02-25T08:54:30Z</time>
      </trkpt>
      <trkpt lat="48.08043" lon="-3.58576">
        <ele>117.1</ele>
        <time>2025-02-25T08:54:31Z</time>
      </trkpt>
      <trkpt lat="48.08043" lon="-3.58577">
        <ele>116.9</ele>
        <time>2025-02-25T08:54:32Z</time>
      </trkpt>
      <trkpt lat="48.08043" lon="-3.58579">
        <ele>116.6</ele>
        <time>2025-02-25T08:54:33Z</time>
      </trkpt>
      <trkpt lat="48.08042" lon="-3.5858">
        <ele>116.5</ele>
        <time>2025-02-25T08:54:34Z</time>
      </trkpt>
      <trkpt lat="48.08042" lon="-3.58579">
        <ele>116.6</ele>
        <time>2025-02-25T08:54:35Z</time>
      </trkpt>
      <trkpt lat="48.08041" lon="-3.58582">
        <ele>116.2</ele>
        <time>2025-02-25T08:54:36Z</time>
      </trkpt>
      <trkpt lat="48.08041" lon="-3.58584">
        <ele>115.9</ele>
        <time>2025-02-25T08:54:37Z</time>
      </trkpt>
      <trkpt lat="48.08042" lon="-3.58586">
        <ele>115.6</ele>
        <time>2025-02-25T08:54:38Z</time>
      </trkpt>
      <trkpt lat="48.08042" lon="-3.58589">
        <ele>115.1</ele>
        <time>2025-02-25T08:54:39Z</time>
      </trkpt>
      <trkpt lat="48.08043" lon="-3.5859">
        <ele>114.9</ele>
        <time>2025-02-25T08:54:40Z</time>
      </trkpt>
      <trkpt lat="48.08044" lon="-3.58591">
        <ele>114.8</ele>
        <time>2025-02-25T08:54:41Z</time>
      </trkpt>
      <trkpt lat="48.08045" lon="-3.58593">
        <ele>114.5</ele>
        <time>2025-02-25T08:54:42Z</time>
      </trkpt>
      <trkpt lat="48.08045" lon="-3.58585">
        <ele>115.7</ele>
        <time>2025-02-25T08:54:43Z</time>
      </trkpt>
      <trkpt lat="48.08044" lon="-3.58588">
        <ele>115.3</ele>
        <time>2025-02-25T08:54:44Z</time>
      </trkpt>
      <trkpt lat="48.08043" lon="-3.5859">
        <ele>114.9</ele>
        <time>2025-02-25T08:54:45Z</time>
      </trkpt>
      <trkpt lat="48.08043" lon="-3.58592">
        <ele>114.6</ele>
        <time>2025-02-25T08:54:46Z</time>
      </trkpt>
      <trkpt lat="48.08042" lon="-3.58595">
        <ele>114.1</ele>
        <time>2025-02-25T08:54:47Z</time>
      </trkpt>
      <trkpt lat="48.08041" lon="-3.58596">
        <ele>113.9</ele>
        <time>2025-02-25T08:54:48Z</time>
      </trkpt>
      <trkpt lat="48.0804" lon="-3.58597">
        <ele>113.8</ele>
        <time>2025-02-25T08:54:49Z</time>
      </trkpt>
      <trkpt lat="48.0804" lon="-3.58598">
        <ele>113.6</ele>
        <time>2025-02-25T08:54:50Z</time>
      </trkpt>
      <trkpt lat="48.08039" lon="-3.58599">
        <ele>113.4</ele>
        <time>2025-02-25T08:54:51Z</time>
      </trkpt>
      <trkpt lat="48.08041" lon="-3.58594">
        <ele>114.3</ele>
        <time>2025-02-25T08:54:52Z</time>
      </trkpt>
      <trkpt lat="48.08041" lon="-3.58592">
        <ele>114.6</ele>
        <time>2025-02-25T08:54:53Z</time>
      </trkpt>
      <trkpt lat="48.08041" lon="-3.58592">
        <ele>114.6</ele>
        <time>2025-02-25T08:54:54Z</time>
      </trkpt>
      <trkpt lat="48.08041" lon="-3.58592">
        <ele>114.6</ele>
        <time>2025-02-25T08:54:55Z</time>
      </trkpt>
      <trkpt lat="48.08041" lon="-3.58592">
        <ele>114.6</ele>
        <time>2025-02-25T08:54:56Z</time>
      </trkpt>
      <trkpt lat="48.08041" lon="-3.58592">
        <ele>114.6</ele>
        <time>2025-02-25T08:54:57Z</time>
      </trkpt>
      <trkpt lat="48.08041" lon="-3.5859">
        <ele>114.9</ele>
        <time>2025-02-25T08:54:58Z</time>
      </trkpt>
      <trkpt lat="48.08035" lon="-3.58589">
        <ele>115</ele>
        <time>2025-02-25T08:54:59Z</time>
      </trkpt>
      <trkpt lat="48.08034" lon="-3.58589">
        <ele>115</ele>
        <time>2025-02-25T08:55:00Z</time>
      </trkpt>
      <trkpt lat="48.08034" lon="-3.58592">
        <ele>114.5</ele>
        <time>2025-02-25T08:55:01Z</time>
      </trkpt>
      <trkpt lat="48.08035" lon="-3.58593">
        <ele>114.4</ele>
        <time>2025-02-25T08:55:02Z</time>
      </trkpt>
      <trkpt lat="48.08036" lon="-3.58593">
        <ele>114.4</ele>
        <time>2025-02-25T08:55:03Z</time>
      </trkpt>
      <trkpt lat="48.08036" lon="-3.58593">
        <ele>114.4</ele>
        <time>2025-02-25T08:55:04Z</time>
      </trkpt>
      <trkpt lat="48.08036" lon="-3.58593">
        <ele>114.4</ele>
        <time>2025-02-25T08:55:05Z</time>
      </trkpt>
      <trkpt lat="48.08036" lon="-3.58593">
        <ele>114.4</ele>
        <time>2025-02-25T08:55:06Z</time>
      </trkpt>
      <trkpt lat="48.08036" lon="-3.58593">
        <ele>114.4</ele>
        <time>2025-02-25T08:55:07Z</time>
      </trkpt>
      <trkpt lat="48.08036" lon="-3.58593">
        <ele>114.4</ele>
        <time>2025-02-25T08:55:08Z</time>
      </trkpt>
      <trkpt lat="48.08037" lon="-3.58594">
        <ele>114.2</ele>
        <time>2025-02-25T08:55:09Z</time>
      </trkpt>
      <trkpt lat="48.08038" lon="-3.58594">
        <ele>114.2</ele>
        <time>2025-02-25T08:55:10Z</time>
      </trkpt>
      <trkpt lat="48.08039" lon="-3.58594">
        <ele>114.2</ele>
        <time>2025-02-25T08:55:11Z</time>
      </trkpt>
      <trkpt lat="48.0804" lon="-3.58593">
        <ele>114.4</ele>
        <time>2025-02-25T08:55:12Z</time>
      </trkpt>
      <trkpt lat="48.08041" lon="-3.58593">
        <ele>114.4</ele>
        <time>2025-02-25T08:55:13Z</time>
      </trkpt>
      <trkpt lat="48.08041" lon="-3.58592">
        <ele>114.6</ele>
        <time>2025-02-25T08:55:14Z</time>
      </trkpt>
      <trkpt lat="48.08042" lon="-3.58592">
        <ele>114.6</ele>
        <time>2025-02-25T08:55:15Z</time>
      </trkpt>
      <trkpt lat="48.08044" lon="-3.58591">
        <ele>114.8</ele>
        <time>2025-02-25T08:55:16Z</time>
      </trkpt>
      <trkpt lat="48.08045" lon="-3.58591">
        <ele>114.8</ele>
        <time>2025-02-25T08:55:17Z</time>
      </trkpt>
      <trkpt lat="48.08047" lon="-3.58592">
        <ele>114.7</ele>
        <time>2025-02-25T08:55:18Z</time>
      </trkpt>
      <trkpt lat="48.08049" lon="-3.58594">
        <ele>114.4</ele>
        <time>2025-02-25T08:55:19Z</time>
      </trkpt>
      <trkpt lat="48.0805" lon="-3.58597">
        <ele>113.9</ele>
        <time>2025-02-25T08:55:20Z</time>
      </trkpt>
      <trkpt lat="48.0805" lon="-3.58598">
        <ele>113.8</ele>
        <time>2025-02-25T08:55:21Z</time>
      </trkpt>
      <trkpt lat="48.08051" lon="-3.586">
        <ele>113.5</ele>
        <time>2025-02-25T08:55:22Z</time>
      </trkpt>
      <trkpt lat="48.08051" lon="-3.586">
        <ele>113.5</ele>
        <time>2025-02-25T08:55:23Z</time>
      </trkpt>
      <trkpt lat="48.08051" lon="-3.58601">
        <ele>113.4</ele>
        <time>2025-02-25T08:55:24Z</time>
      </trkpt>
      <trkpt lat="48.08048" lon="-3.58597">
        <ele>113.9</ele>
        <time>2025-02-25T08:55:25Z</time>
      </trkpt>
      <trkpt lat="48.08048" lon="-3.58596">
        <ele>114.1</ele>
        <time>2025-02-25T08:55:26Z</time>
      </trkpt>
      <trkpt lat="48.08047" lon="-3.58596">
        <ele>114</ele>
        <time>2025-02-25T08:55:27Z</time>
      </trkpt>
      <trkpt lat="48.08047" lon="-3.58596">
        <ele>114</ele>
        <time>2025-02-25T08:55:28Z</time>
      </trkpt>
      <trkpt lat="48.08047" lon="-3.58596">
        <ele>114</ele>
        <time>2025-02-25T08:55:29Z</time>
      </trkpt>
      <trkpt lat="48.08047" lon="-3.58596">
        <ele>114</ele>
        <time>2025-02-25T08:55:30Z</time>
      </trkpt>
      <trkpt lat="48.08047" lon="-3.58596">
        <ele>114</ele>
        <time>2025-02-25T08:55:31Z</time>
      </trkpt>
      <trkpt lat="48.08047" lon="-3.58596">
        <ele>114</ele>
        <time>2025-02-25T08:55:32Z</time>
      </trkpt>
      <trkpt lat="48.08047" lon="-3.58596">
        <ele>114</ele>
        <time>2025-02-25T08:55:33Z</time>
      </trkpt>
      <trkpt lat="48.08048" lon="-3.58596">
        <ele>114.1</ele>
        <time>2025-02-25T08:55:34Z</time>
      </trkpt>
      <trkpt lat="48.08048" lon="-3.58596">
        <ele>114.1</ele>
        <time>2025-02-25T08:55:35Z</time>
      </trkpt>
      <trkpt lat="48.08049" lon="-3.58596">
        <ele>114.1</ele>
        <time>2025-02-25T08:55:36Z</time>
      </trkpt>
      <trkpt lat="48.08049" lon="-3.58597">
        <ele>113.9</ele>
        <time>2025-02-25T08:55:37Z</time>
      </trkpt>
      <trkpt lat="48.08049" lon="-3.58597">
        <ele>113.9</ele>
        <time>2025-02-25T08:55:38Z</time>
      </trkpt>
      <trkpt lat="48.08049" lon="-3.58597">
        <ele>113.9</ele>
        <time>2025-02-25T08:55:39Z</time>
      </trkpt>
      <trkpt lat="48.08049" lon="-3.58597">
        <ele>113.9</ele>
        <time>2025-02-25T08:55:40Z</time>
      </trkpt>
      <trkpt lat="48.08049" lon="-3.58597">
        <ele>113.9</ele>
        <time>2025-02-25T08:55:41Z</time>
      </trkpt>
      <trkpt lat="48.08049" lon="-3.58597">
        <ele>113.9</ele>
        <time>2025-02-25T08:55:42Z</time>
      </trkpt>
      <trkpt lat="48.08049" lon="-3.58597">
        <ele>113.9</ele>
        <time>2025-02-25T08:55:43Z</time>
      </trkpt>
      <trkpt lat="48.08049" lon="-3.58598">
        <ele>113.8</ele>
        <time>2025-02-25T08:55:44Z</time>
      </trkpt>
      <trkpt lat="48.08049" lon="-3.58598">
        <ele>113.8</ele>
        <time>2025-02-25T08:55:45Z</time>
      </trkpt>
      <trkpt lat="48.08049" lon="-3.58598">
        <ele>113.8</ele>
        <time>2025-02-25T08:55:46Z</time>
      </trkpt>
      <trkpt lat="48.08049" lon="-3.58599">
        <ele>113.6</ele>
        <time>2025-02-25T08:55:47Z</time>
      </trkpt>
      <trkpt lat="48.08049" lon="-3.586">
        <ele>113.5</ele>
        <time>2025-02-25T08:55:48Z</time>
      </trkpt>
      <trkpt lat="48.08049" lon="-3.586">
        <ele>113.5</ele>
        <time>2025-02-25T08:55:49Z</time>
      </trkpt>
      <trkpt lat="48.0805" lon="-3.58601">
        <ele>113.3</ele>
        <time>2025-02-25T08:55:50Z</time>
      </trkpt>
      <trkpt lat="48.0805" lon="-3.58601">
        <ele>113.3</ele>
        <time>2025-02-25T08:55:51Z</time>
      </trkpt>
      <trkpt lat="48.0805" lon="-3.58601">
        <ele>113.3</ele>
        <time>2025-02-25T08:55:52Z</time>
      </trkpt>
      <trkpt lat="48.0805" lon="-3.58601">
        <ele>113.3</ele>
        <time>2025-02-25T08:55:53Z</time>
      </trkpt>
      <trkpt lat="48.0805" lon="-3.58601">
        <ele>113.3</ele>
        <time>2025-02-25T08:55:54Z</time>
      </trkpt>
      <trkpt lat="48.0805" lon="-3.58601">
        <ele>113.3</ele>
        <time>2025-02-25T08:55:55Z</time>
      </trkpt>
      <trkpt lat="48.0805" lon="-3.58601">
        <ele>113.3</ele>
        <time>2025-02-25T08:55:56Z</time>
      </trkpt>
      <trkpt lat="48.0805" lon="-3.58601">
        <ele>113.3</ele>
        <time>2025-02-25T08:55:57Z</time>
      </trkpt>
      <trkpt lat="48.08051" lon="-3.58601">
        <ele>113.4</ele>
        <time>2025-02-25T08:55:58Z</time>
      </trkpt>
      <trkpt lat="48.08051" lon="-3.58601">
        <ele>113.4</ele>
        <time>2025-02-25T08:55:59Z</time>
      </trkpt>
      <trkpt lat="48.08052" lon="-3.58601">
        <ele>113.4</ele>
        <time>2025-02-25T08:56:00Z</time>
      </trkpt>
      <trkpt lat="48.08052" lon="-3.58601">
        <ele>113.4</ele>
        <time>2025-02-25T08:56:01Z</time>
      </trkpt>
      <trkpt lat="48.08053" lon="-3.58601">
        <ele>113.4</ele>
        <time>2025-02-25T08:56:02Z</time>
      </trkpt>
      <trkpt lat="48.08053" lon="-3.58601">
        <ele>113.4</ele>
        <time>2025-02-25T08:56:03Z</time>
      </trkpt>
      <trkpt lat="48.08053" lon="-3.58602">
        <ele>113.3</ele>
        <time>2025-02-25T08:56:04Z</time>
      </trkpt>
      <trkpt lat="48.08053" lon="-3.58602">
        <ele>113.3</ele>
        <time>2025-02-25T08:56:05Z</time>
      </trkpt>
      <trkpt lat="48.08053" lon="-3.58602">
        <ele>113.3</ele>
        <time>2025-02-25T08:56:06Z</time>
      </trkpt>
      <trkpt lat="48.08053" lon="-3.58602">
        <ele>113.3</ele>
        <time>2025-02-25T08:56:07Z</time>
      </trkpt>
      <trkpt lat="48.08053" lon="-3.58602">
        <ele>113.3</ele>
        <time>2025-02-25T08:56:08Z</time>
      </trkpt>
      <trkpt lat="48.08053" lon="-3.58602">
        <ele>113.3</ele>
        <time>2025-02-25T08:56:09Z</time>
      </trkpt>
      <trkpt lat="48.08053" lon="-3.58602">
        <ele>113.3</ele>
        <time>2025-02-25T08:56:10Z</time>
      </trkpt>
      <trkpt lat="48.08053" lon="-3.58602">
        <ele>113.3</ele>
        <time>2025-02-25T08:56:11Z</time>
      </trkpt>
      <trkpt lat="48.08053" lon="-3.58602">
        <ele>113.3</ele>
        <time>2025-02-25T08:56:12Z</time>
      </trkpt>
      <trkpt lat="48.08053" lon="-3.58602">
        <ele>113.3</ele>
        <time>2025-02-25T08:56:13Z</time>
      </trkpt>
      <trkpt lat="48.08053" lon="-3.58602">
        <ele>113.3</ele>
        <time>2025-02-25T08:56:14Z</time>
      </trkpt>
      <trkpt lat="48.08053" lon="-3.58602">
        <ele>113.3</ele>
        <time>2025-02-25T08:56:15Z</time>
      </trkpt>
      <trkpt lat="48.08054" lon="-3.58602">
        <ele>113.3</ele>
        <time>2025-02-25T08:56:16Z</time>
      </trkpt>
      <trkpt lat="48.08055" lon="-3.58601">
        <ele>113.4</ele>
        <time>2025-02-25T08:56:17Z</time>
      </trkpt>
      <trkpt lat="48.08056" lon="-3.58599">
        <ele>113.8</ele>
        <time>2025-02-25T08:56:18Z</time>
      </trkpt>
      <trkpt lat="48.08058" lon="-3.58599">
        <ele>114</ele>
        <time>2025-02-25T08:56:19Z</time>
      </trkpt>
      <trkpt lat="48.08059" lon="-3.586">
        <ele>114</ele>
        <time>2025-02-25T08:56:20Z</time>
      </trkpt>
      <trkpt lat="48.08059" lon="-3.58601">
        <ele>113.9</ele>
        <time>2025-02-25T08:56:21Z</time>
      </trkpt>
      <trkpt lat="48.0806" lon="-3.58602">
        <ele>114</ele>
        <time>2025-02-25T08:56:22Z</time>
      </trkpt>
      <trkpt lat="48.08059" lon="-3.58602">
        <ele>113.8</ele>
        <time>2025-02-25T08:56:23Z</time>
      </trkpt>
      <trkpt lat="48.08059" lon="-3.58601">
        <ele>113.9</ele>
        <time>2025-02-25T08:56:24Z</time>
      </trkpt>
      <trkpt lat="48.08057" lon="-3.586">
        <ele>113.8</ele>
        <time>2025-02-25T08:56:25Z</time>
      </trkpt>
      <trkpt lat="48.08056" lon="-3.586">
        <ele>113.7</ele>
        <time>2025-02-25T08:56:26Z</time>
      </trkpt>
      <trkpt lat="48.08056" lon="-3.586">
        <ele>113.7</ele>
        <time>2025-02-25T08:56:27Z</time>
      </trkpt>
      <trkpt lat="48.08056" lon="-3.586">
        <ele>113.7</ele>
        <time>2025-02-25T08:56:28Z</time>
      </trkpt>
      <trkpt lat="48.08056" lon="-3.586">
        <ele>113.7</ele>
        <time>2025-02-25T08:56:29Z</time>
      </trkpt>
      <trkpt lat="48.08057" lon="-3.586">
        <ele>113.8</ele>
        <time>2025-02-25T08:56:30Z</time>
      </trkpt>
      <trkpt lat="48.08058" lon="-3.586">
        <ele>113.9</ele>
        <time>2025-02-25T08:56:31Z</time>
      </trkpt>
      <trkpt lat="48.08058" lon="-3.58599">
        <ele>114</ele>
        <time>2025-02-25T08:56:32Z</time>
      </trkpt>
      <trkpt lat="48.08057" lon="-3.58598">
        <ele>114.1</ele>
        <time>2025-02-25T08:56:33Z</time>
      </trkpt>
      <trkpt lat="48.08056" lon="-3.58598">
        <ele>113.9</ele>
        <time>2025-02-25T08:56:34Z</time>
      </trkpt>
      <trkpt lat="48.08056" lon="-3.58599">
        <ele>113.8</ele>
        <time>2025-02-25T08:56:35Z</time>
      </trkpt>
      <trkpt lat="48.08055" lon="-3.586">
        <ele>113.6</ele>
        <time>2025-02-25T08:56:36Z</time>
      </trkpt>
      <trkpt lat="48.08055" lon="-3.586">
        <ele>113.6</ele>
        <time>2025-02-25T08:56:37Z</time>
      </trkpt>
      <trkpt lat="48.08054" lon="-3.58601">
        <ele>113.4</ele>
        <time>2025-02-25T08:56:38Z</time>
      </trkpt>
      <trkpt lat="48.08055" lon="-3.586">
        <ele>113.6</ele>
        <time>2025-02-25T08:56:39Z</time>
      </trkpt>
      <trkpt lat="48.08056" lon="-3.58601">
        <ele>113.5</ele>
        <time>2025-02-25T08:56:40Z</time>
      </trkpt>
      <trkpt lat="48.08057" lon="-3.58602">
        <ele>113.5</ele>
        <time>2025-02-25T08:56:41Z</time>
      </trkpt>
      <trkpt lat="48.08058" lon="-3.58601">
        <ele>113.8</ele>
        <time>2025-02-25T08:56:42Z</time>
      </trkpt>
      <trkpt lat="48.08059" lon="-3.58601">
        <ele>113.9</ele>
        <time>2025-02-25T08:56:43Z</time>
      </trkpt>
      <trkpt lat="48.08059" lon="-3.58601">
        <ele>113.9</ele>
        <time>2025-02-25T08:56:44Z</time>
      </trkpt>
      <trkpt lat="48.08059" lon="-3.58601">
        <ele>113.9</ele>
        <time>2025-02-25T08:56:45Z</time>
      </trkpt>
      <trkpt lat="48.0806" lon="-3.586">
        <ele>114.2</ele>
        <time>2025-02-25T08:56:46Z</time>
      </trkpt>
      <trkpt lat="48.0806" lon="-3.586">
        <ele>114.2</ele>
        <time>2025-02-25T08:56:47Z</time>
      </trkpt>
      <trkpt lat="48.08061" lon="-3.58599">
        <ele>114.4</ele>
        <time>2025-02-25T08:56:48Z</time>
      </trkpt>
      <trkpt lat="48.08062" lon="-3.586">
        <ele>114.4</ele>
        <time>2025-02-25T08:56:49Z</time>
      </trkpt>
      <trkpt lat="48.08062" lon="-3.58601">
        <ele>114.3</ele>
        <time>2025-02-25T08:56:50Z</time>
      </trkpt>
      <trkpt lat="48.08062" lon="-3.58601">
        <ele>114.3</ele>
        <time>2025-02-25T08:56:51Z</time>
      </trkpt>
      <trkpt lat="48.08063" lon="-3.58602">
        <ele>114.4</ele>
        <time>2025-02-25T08:56:52Z</time>
      </trkpt>
      <trkpt lat="48.08064" lon="-3.58604">
        <ele>114.4</ele>
        <time>2025-02-25T08:56:53Z</time>
      </trkpt>
      <trkpt lat="48.08065" lon="-3.58604">
        <ele>114.5</ele>
        <time>2025-02-25T08:56:54Z</time>
      </trkpt>
      <trkpt lat="48.08066" lon="-3.58605">
        <ele>114.6</ele>
        <time>2025-02-25T08:56:55Z</time>
      </trkpt>
      <trkpt lat="48.08067" lon="-3.58605">
        <ele>114.8</ele>
        <time>2025-02-25T08:56:56Z</time>
      </trkpt>
      <trkpt lat="48.08068" lon="-3.58605">
        <ele>115</ele>
        <time>2025-02-25T08:56:57Z</time>
      </trkpt>
      <trkpt lat="48.08068" lon="-3.58605">
        <ele>115</ele>
        <time>2025-02-25T08:56:58Z</time>
      </trkpt>
      <trkpt lat="48.08069" lon="-3.58605">
        <ele>115.1</ele>
        <time>2025-02-25T08:56:59Z</time>
      </trkpt>
      <trkpt lat="48.08069" lon="-3.58605">
        <ele>115.1</ele>
        <time>2025-02-25T08:57:00Z</time>
      </trkpt>
      <trkpt lat="48.08068" lon="-3.58604">
        <ele>115</ele>
        <time>2025-02-25T08:57:01Z</time>
      </trkpt>
      <trkpt lat="48.08067" lon="-3.58604">
        <ele>114.9</ele>
        <time>2025-02-25T08:57:02Z</time>
      </trkpt>
      <trkpt lat="48.08067" lon="-3.58604">
        <ele>114.9</ele>
        <time>2025-02-25T08:57:03Z</time>
      </trkpt>
      <trkpt lat="48.08067" lon="-3.58604">
        <ele>114.9</ele>
        <time>2025-02-25T08:57:04Z</time>
      </trkpt>
      <trkpt lat="48.08067" lon="-3.58604">
        <ele>114.9</ele>
        <time>2025-02-25T08:57:05Z</time>
      </trkpt>
      <trkpt lat="48.08067" lon="-3.58604">
        <ele>114.9</ele>
        <time>2025-02-25T08:57:06Z</time>
      </trkpt>
      <trkpt lat="48.08067" lon="-3.58604">
        <ele>114.9</ele>
        <time>2025-02-25T08:57:07Z</time>
      </trkpt>
      <trkpt lat="48.08067" lon="-3.58604">
        <ele>114.9</ele>
        <time>2025-02-25T08:57:08Z</time>
      </trkpt>
      <trkpt lat="48.08068" lon="-3.58604">
        <ele>115</ele>
        <time>2025-02-25T08:57:09Z</time>
      </trkpt>
      <trkpt lat="48.0807" lon="-3.58603">
        <ele>115.4</ele>
        <time>2025-02-25T08:57:10Z</time>
      </trkpt>
      <trkpt lat="48.0807" lon="-3.58603">
        <ele>115.4</ele>
        <time>2025-02-25T08:57:11Z</time>
      </trkpt>
      <trkpt lat="48.0807" lon="-3.58604">
        <ele>115.3</ele>
        <time>2025-02-25T08:57:12Z</time>
      </trkpt>
      <trkpt lat="48.08071" lon="-3.58604">
        <ele>115.5</ele>
        <time>2025-02-25T08:57:13Z</time>
      </trkpt>
      <trkpt lat="48.08071" lon="-3.58605">
        <ele>115.5</ele>
        <time>2025-02-25T08:57:14Z</time>
      </trkpt>
      <trkpt lat="48.08072" lon="-3.58605">
        <ele>115.7</ele>
        <time>2025-02-25T08:57:15Z</time>
      </trkpt>
      <trkpt lat="48.08073" lon="-3.58606">
        <ele>115.8</ele>
        <time>2025-02-25T08:57:16Z</time>
      </trkpt>
      <trkpt lat="48.08073" lon="-3.58606">
        <ele>115.8</ele>
        <time>2025-02-25T08:57:17Z</time>
      </trkpt>
      <trkpt lat="48.08073" lon="-3.58606">
        <ele>115.8</ele>
        <time>2025-02-25T08:57:18Z</time>
      </trkpt>
      <trkpt lat="48.08072" lon="-3.58606">
        <ele>115.6</ele>
        <time>2025-02-25T08:57:19Z</time>
      </trkpt>
      <trkpt lat="48.08072" lon="-3.58607">
        <ele>115.6</ele>
        <time>2025-02-25T08:57:20Z</time>
      </trkpt>
      <trkpt lat="48.08072" lon="-3.58607">
        <ele>115.6</ele>
        <time>2025-02-25T08:57:21Z</time>
      </trkpt>
      <trkpt lat="48.08072" lon="-3.58607">
        <ele>115.6</ele>
        <time>2025-02-25T08:57:22Z</time>
      </trkpt>
      <trkpt lat="48.08072" lon="-3.58609">
        <ele>115.6</ele>
        <time>2025-02-25T08:57:23Z</time>
      </trkpt>
      <trkpt lat="48.08073" lon="-3.5861">
        <ele>115.8</ele>
        <time>2025-02-25T08:57:24Z</time>
      </trkpt>
      <trkpt lat="48.08073" lon="-3.58611">
        <ele>115.8</ele>
        <time>2025-02-25T08:57:25Z</time>
      </trkpt>
      <trkpt lat="48.08073" lon="-3.5861">
        <ele>115.8</ele>
        <time>2025-02-25T08:57:26Z</time>
      </trkpt>
      <trkpt lat="48.08074" lon="-3.5861">
        <ele>116</ele>
        <time>2025-02-25T08:57:27Z</time>
      </trkpt>
      <trkpt lat="48.08073" lon="-3.5861">
        <ele>115.8</ele>
        <time>2025-02-25T08:57:28Z</time>
      </trkpt>
      <trkpt lat="48.08072" lon="-3.5861">
        <ele>115.6</ele>
        <time>2025-02-25T08:57:29Z</time>
      </trkpt>
      <trkpt lat="48.08072" lon="-3.58611">
        <ele>115.6</ele>
        <time>2025-02-25T08:57:30Z</time>
      </trkpt>
      <trkpt lat="48.08073" lon="-3.58611">
        <ele>115.8</ele>
        <time>2025-02-25T08:57:31Z</time>
      </trkpt>
      <trkpt lat="48.08073" lon="-3.58611">
        <ele>115.8</ele>
        <time>2025-02-25T08:57:32Z</time>
      </trkpt>
      <trkpt lat="48.08073" lon="-3.58611">
        <ele>115.8</ele>
        <time>2025-02-25T08:57:33Z</time>
      </trkpt>
      <trkpt lat="48.08073" lon="-3.58612">
        <ele>115.8</ele>
        <time>2025-02-25T08:57:34Z</time>
      </trkpt>
      <trkpt lat="48.08073" lon="-3.58612">
        <ele>115.8</ele>
        <time>2025-02-25T08:57:35Z</time>
      </trkpt>
      <trkpt lat="48.08073" lon="-3.58612">
        <ele>115.8</ele>
        <time>2025-02-25T08:57:36Z</time>
      </trkpt>
      <trkpt lat="48.08072" lon="-3.58612">
        <ele>115.6</ele>
        <time>2025-02-25T08:57:37Z</time>
      </trkpt>
      <trkpt lat="48.08072" lon="-3.58612">
        <ele>115.6</ele>
        <time>2025-02-25T08:57:38Z</time>
      </trkpt>
      <trkpt lat="48.08072" lon="-3.58612">
        <ele>115.6</ele>
        <time>2025-02-25T08:57:39Z</time>
      </trkpt>
      <trkpt lat="48.08072" lon="-3.58612">
        <ele>115.6</ele>
        <time>2025-02-25T08:57:40Z</time>
      </trkpt>
      <trkpt lat="48.08072" lon="-3.58612">
        <ele>115.6</ele>
        <time>2025-02-25T08:57:41Z</time>
      </trkpt>
      <trkpt lat="48.08072" lon="-3.58612">
        <ele>115.6</ele>
        <time>2025-02-25T08:57:42Z</time>
      </trkpt>
      <trkpt lat="48.08072" lon="-3.58612">
        <ele>115.6</ele>
        <time>2025-02-25T08:57:43Z</time>
      </trkpt>
      <trkpt lat="48.08072" lon="-3.58612">
        <ele>115.6</ele>
        <time>2025-02-25T08:57:44Z</time>
      </trkpt>
      <trkpt lat="48.08072" lon="-3.58612">
        <ele>115.6</ele>
        <time>2025-02-25T08:57:45Z</time>
      </trkpt>
      <trkpt lat="48.08072" lon="-3.58612">
        <ele>115.6</ele>
        <time>2025-02-25T08:57:46Z</time>
      </trkpt>
      <trkpt lat="48.08072" lon="-3.58612">
        <ele>115.6</ele>
        <time>2025-02-25T08:57:47Z</time>
      </trkpt>
      <trkpt lat="48.08073" lon="-3.58611">
        <ele>115.8</ele>
        <time>2025-02-25T08:57:48Z</time>
      </trkpt>
      <trkpt lat="48.08073" lon="-3.5861">
        <ele>115.8</ele>
        <time>2025-02-25T08:57:49Z</time>
      </trkpt>
      <trkpt lat="48.08073" lon="-3.5861">
        <ele>115.8</ele>
        <time>2025-02-25T08:57:50Z</time>
      </trkpt>
      <trkpt lat="48.08073" lon="-3.58611">
        <ele>115.8</ele>
        <time>2025-02-25T08:57:51Z</time>
      </trkpt>
      <trkpt lat="48.08073" lon="-3.5861">
        <ele>115.8</ele>
        <time>2025-02-25T08:57:52Z</time>
      </trkpt>
      <trkpt lat="48.08074" lon="-3.58609">
        <ele>116</ele>
        <time>2025-02-25T08:57:53Z</time>
      </trkpt>
      <trkpt lat="48.08076" lon="-3.5861">
        <ele>116.4</ele>
        <time>2025-02-25T08:57:54Z</time>
      </trkpt>
      <trkpt lat="48.08077" lon="-3.58611">
        <ele>116.6</ele>
        <time>2025-02-25T08:57:55Z</time>
      </trkpt>
      <trkpt lat="48.08077" lon="-3.58611">
        <ele>116.6</ele>
        <time>2025-02-25T08:57:56Z</time>
      </trkpt>
      <trkpt lat="48.08076" lon="-3.58612">
        <ele>116.4</ele>
        <time>2025-02-25T08:57:57Z</time>
      </trkpt>
      <trkpt lat="48.08075" lon="-3.58612">
        <ele>116.2</ele>
        <time>2025-02-25T08:57:58Z</time>
      </trkpt>
      <trkpt lat="48.08073" lon="-3.58611">
        <ele>115.8</ele>
        <time>2025-02-25T08:57:59Z</time>
      </trkpt>
      <trkpt lat="48.08073" lon="-3.5861">
        <ele>115.8</ele>
        <time>2025-02-25T08:58:00Z</time>
      </trkpt>
      <trkpt lat="48.08073" lon="-3.5861">
        <ele>115.8</ele>
        <time>2025-02-25T08:58:01Z</time>
      </trkpt>
      <trkpt lat="48.08073" lon="-3.5861">
        <ele>115.8</ele>
        <time>2025-02-25T08:58:02Z</time>
      </trkpt>
      <trkpt lat="48.08073" lon="-3.5861">
        <ele>115.8</ele>
        <time>2025-02-25T08:58:03Z</time>
      </trkpt>
      <trkpt lat="48.08073" lon="-3.5861">
        <ele>115.8</ele>
        <time>2025-02-25T08:58:04Z</time>
      </trkpt>
      <trkpt lat="48.08073" lon="-3.5861">
        <ele>115.8</ele>
        <time>2025-02-25T08:58:05Z</time>
      </trkpt>
      <trkpt lat="48.08073" lon="-3.5861">
        <ele>115.8</ele>
        <time>2025-02-25T08:58:06Z</time>
      </trkpt>
      <trkpt lat="48.08073" lon="-3.5861">
        <ele>115.8</ele>
        <time>2025-02-25T08:58:07Z</time>
      </trkpt>
      <trkpt lat="48.08073" lon="-3.5861">
        <ele>115.8</ele>
        <time>2025-02-25T08:58:08Z</time>
      </trkpt>
      <trkpt lat="48.08073" lon="-3.5861">
        <ele>115.8</ele>
        <time>2025-02-25T08:58:09Z</time>
      </trkpt>
      <trkpt lat="48.08073" lon="-3.5861">
        <ele>115.8</ele>
        <time>2025-02-25T08:58:10Z</time>
      </trkpt>
      <trkpt lat="48.08073" lon="-3.5861">
        <ele>115.8</ele>
        <time>2025-02-25T08:58:11Z</time>
      </trkpt>
      <trkpt lat="48.08073" lon="-3.5861">
        <ele>115.8</ele>
        <time>2025-02-25T08:58:12Z</time>
      </trkpt>
      <trkpt lat="48.08073" lon="-3.5861">
        <ele>115.8</ele>
        <time>2025-02-25T08:58:13Z</time>
      </trkpt>
      <trkpt lat="48.08073" lon="-3.5861">
        <ele>115.8</ele>
        <time>2025-02-25T08:58:14Z</time>
      </trkpt>
      <trkpt lat="48.08073" lon="-3.5861">
        <ele>115.8</ele>
        <time>2025-02-25T08:58:15Z</time>
      </trkpt>
      <trkpt lat="48.08073" lon="-3.5861">
        <ele>115.8</ele>
        <time>2025-02-25T08:58:16Z</time>
      </trkpt>
      <trkpt lat="48.08073" lon="-3.5861">
        <ele>115.8</ele>
        <time>2025-02-25T08:58:17Z</time>
      </trkpt>
      <trkpt lat="48.08073" lon="-3.5861">
        <ele>115.8</ele>
        <time>2025-02-25T08:58:18Z</time>
      </trkpt>
      <trkpt lat="48.08073" lon="-3.5861">
        <ele>115.8</ele>
        <time>2025-02-25T08:58:19Z</time>
      </trkpt>
      <trkpt lat="48.08073" lon="-3.5861">
        <ele>115.8</ele>
        <time>2025-02-25T08:58:20Z</time>
      </trkpt>
      <trkpt lat="48.08073" lon="-3.5861">
        <ele>115.8</ele>
        <time>2025-02-25T08:58:21Z</time>
      </trkpt>
      <trkpt lat="48.08073" lon="-3.5861">
        <ele>115.8</ele>
        <time>2025-02-25T08:58:22Z</time>
      </trkpt>
      <trkpt lat="48.08073" lon="-3.5861">
        <ele>115.8</ele>
        <time>2025-02-25T08:58:23Z</time>
      </trkpt>
      <trkpt lat="48.08073" lon="-3.5861">
        <ele>115.8</ele>
        <time>2025-02-25T08:58:24Z</time>
      </trkpt>
      <trkpt lat="48.08073" lon="-3.5861">
        <ele>115.8</ele>
        <time>2025-02-25T08:58:25Z</time>
      </trkpt>
      <trkpt lat="48.08073" lon="-3.5861">
        <ele>115.8</ele>
        <time>2025-02-25T08:58:26Z</time>
      </trkpt>
      <trkpt lat="48.08073" lon="-3.5861">
        <ele>115.8</ele>
        <time>2025-02-25T08:58:27Z</time>
      </trkpt>
      <trkpt lat="48.08073" lon="-3.5861">
        <ele>115.8</ele>
        <time>2025-02-25T08:58:28Z</time>
      </trkpt>
      <trkpt lat="48.08073" lon="-3.5861">
        <ele>115.8</ele>
        <time>2025-02-25T08:58:29Z</time>
      </trkpt>
      <trkpt lat="48.08073" lon="-3.5861">
        <ele>115.8</ele>
        <time>2025-02-25T08:58:30Z</time>
      </trkpt>
      <trkpt lat="48.08073" lon="-3.5861">
        <ele>115.8</ele>
        <time>2025-02-25T08:58:31Z</time>
      </trkpt>
      <trkpt lat="48.08073" lon="-3.5861">
        <ele>115.8</ele>
        <time>2025-02-25T08:58:32Z</time>
      </trkpt>
      <trkpt lat="48.08073" lon="-3.5861">
        <ele>115.8</ele>
        <time>2025-02-25T08:58:33Z</time>
      </trkpt>
      <trkpt lat="48.08073" lon="-3.58609">
        <ele>115.8</ele>
        <time>2025-02-25T08:58:34Z</time>
      </trkpt>
      <trkpt lat="48.08072" lon="-3.5861">
        <ele>115.6</ele>
        <time>2025-02-25T08:58:35Z</time>
      </trkpt>
      <trkpt lat="48.08073" lon="-3.58611">
        <ele>115.8</ele>
        <time>2025-02-25T08:58:36Z</time>
      </trkpt>
      <trkpt lat="48.08073" lon="-3.58611">
        <ele>115.8</ele>
        <time>2025-02-25T08:58:37Z</time>
      </trkpt>
      <trkpt lat="48.08072" lon="-3.58611">
        <ele>115.6</ele>
        <time>2025-02-25T08:58:38Z</time>
      </trkpt>
      <trkpt lat="48.08071" lon="-3.58611">
        <ele>115.3</ele>
        <time>2025-02-25T08:58:39Z</time>
      </trkpt>
      <trkpt lat="48.08071" lon="-3.58611">
        <ele>115.3</ele>
        <time>2025-02-25T08:58:40Z</time>
      </trkpt>
      <trkpt lat="48.0807" lon="-3.58611">
        <ele>115.1</ele>
        <time>2025-02-25T08:58:41Z</time>
      </trkpt>
      <trkpt lat="48.08071" lon="-3.58612">
        <ele>115.4</ele>
        <time>2025-02-25T08:58:42Z</time>
      </trkpt>
      <trkpt lat="48.08071" lon="-3.58612">
        <ele>115.4</ele>
        <time>2025-02-25T08:58:43Z</time>
      </trkpt>
      <trkpt lat="48.0807" lon="-3.58612">
        <ele>115.1</ele>
        <time>2025-02-25T08:58:44Z</time>
      </trkpt>
      <trkpt lat="48.0807" lon="-3.58612">
        <ele>115.1</ele>
        <time>2025-02-25T08:58:45Z</time>
      </trkpt>
      <trkpt lat="48.0807" lon="-3.58612">
        <ele>115.1</ele>
        <time>2025-02-25T08:58:46Z</time>
      </trkpt>
      <trkpt lat="48.0807" lon="-3.58613">
        <ele>115.2</ele>
        <time>2025-02-25T08:58:47Z</time>
      </trkpt>
      <trkpt lat="48.0807" lon="-3.58613">
        <ele>115.2</ele>
        <time>2025-02-25T08:58:48Z</time>
      </trkpt>
      <trkpt lat="48.0807" lon="-3.58613">
        <ele>115.2</ele>
        <time>2025-02-25T08:58:49Z</time>
      </trkpt>
      <trkpt lat="48.0807" lon="-3.58613">
        <ele>115.2</ele>
        <time>2025-02-25T08:58:50Z</time>
      </trkpt>
      <trkpt lat="48.0807" lon="-3.58614">
        <ele>115.2</ele>
        <time>2025-02-25T08:58:51Z</time>
      </trkpt>
      <trkpt lat="48.0807" lon="-3.58613">
        <ele>115.2</ele>
        <time>2025-02-25T08:58:52Z</time>
      </trkpt>
      <trkpt lat="48.0807" lon="-3.58611">
        <ele>115.1</ele>
        <time>2025-02-25T08:58:53Z</time>
      </trkpt>
      <trkpt lat="48.0807" lon="-3.58611">
        <ele>115.1</ele>
        <time>2025-02-25T08:58:54Z</time>
      </trkpt>
      <trkpt lat="48.0807" lon="-3.5861">
        <ele>115.2</ele>
        <time>2025-02-25T08:58:55Z</time>
      </trkpt>
      <trkpt lat="48.0807" lon="-3.5861">
        <ele>115.2</ele>
        <time>2025-02-25T08:58:56Z</time>
      </trkpt>
      <trkpt lat="48.0807" lon="-3.5861">
        <ele>115.2</ele>
        <time>2025-02-25T08:58:57Z</time>
      </trkpt>
      <trkpt lat="48.0807" lon="-3.5861">
        <ele>115.2</ele>
        <time>2025-02-25T08:58:58Z</time>
      </trkpt>
      <trkpt lat="48.0807" lon="-3.5861">
        <ele>115.2</ele>
        <time>2025-02-25T08:58:59Z</time>
      </trkpt>
      <trkpt lat="48.0807" lon="-3.5861">
        <ele>115.2</ele>
        <time>2025-02-25T08:59:00Z</time>
      </trkpt>
      <trkpt lat="48.0807" lon="-3.5861">
        <ele>115.2</ele>
        <time>2025-02-25T08:59:01Z</time>
      </trkpt>
      <trkpt lat="48.0807" lon="-3.5861">
        <ele>115.2</ele>
        <time>2025-02-25T08:59:02Z</time>
      </trkpt>
      <trkpt lat="48.0807" lon="-3.5861">
        <ele>115.2</ele>
        <time>2025-02-25T08:59:03Z</time>
      </trkpt>
      <trkpt lat="48.0807" lon="-3.5861">
        <ele>115.2</ele>
        <time>2025-02-25T08:59:04Z</time>
      </trkpt>
      <trkpt lat="48.0807" lon="-3.58609">
        <ele>115.2</ele>
        <time>2025-02-25T08:59:05Z</time>
      </trkpt>
      <trkpt lat="48.0807" lon="-3.58609">
        <ele>115.2</ele>
        <time>2025-02-25T08:59:06Z</time>
      </trkpt>
      <trkpt lat="48.0807" lon="-3.58609">
        <ele>115.2</ele>
        <time>2025-02-25T08:59:07Z</time>
      </trkpt>
      <trkpt lat="48.0807" lon="-3.58609">
        <ele>115.2</ele>
        <time>2025-02-25T08:59:08Z</time>
      </trkpt>
      <trkpt lat="48.0807" lon="-3.58609">
        <ele>115.2</ele>
        <time>2025-02-25T08:59:09Z</time>
      </trkpt>
      <trkpt lat="48.0807" lon="-3.58609">
        <ele>115.2</ele>
        <time>2025-02-25T08:59:10Z</time>
      </trkpt>
      <trkpt lat="48.0807" lon="-3.5861">
        <ele>115.2</ele>
        <time>2025-02-25T08:59:11Z</time>
      </trkpt>
      <trkpt lat="48.0807" lon="-3.5861">
        <ele>115.2</ele>
        <time>2025-02-25T08:59:12Z</time>
      </trkpt>
      <trkpt lat="48.0807" lon="-3.5861">
        <ele>115.2</ele>
        <time>2025-02-25T08:59:13Z</time>
      </trkpt>
      <trkpt lat="48.0807" lon="-3.5861">
        <ele>115.2</ele>
        <time>2025-02-25T08:59:14Z</time>
      </trkpt>
      <trkpt lat="48.0807" lon="-3.5861">
        <ele>115.2</ele>
        <time>2025-02-25T08:59:15Z</time>
      </trkpt>
      <trkpt lat="48.0807" lon="-3.5861">
        <ele>115.2</ele>
        <time>2025-02-25T08:59:16Z</time>
      </trkpt>
      <trkpt lat="48.0807" lon="-3.58609">
        <ele>115.2</ele>
        <time>2025-02-25T08:59:17Z</time>
      </trkpt>
      <trkpt lat="48.0807" lon="-3.5861">
        <ele>115.2</ele>
        <time>2025-02-25T08:59:18Z</time>
      </trkpt>
      <trkpt lat="48.0807" lon="-3.5861">
        <ele>115.2</ele>
        <time>2025-02-25T08:59:19Z</time>
      </trkpt>
      <trkpt lat="48.0807" lon="-3.58609">
        <ele>115.2</ele>
        <time>2025-02-25T08:59:20Z</time>
      </trkpt>
      <trkpt lat="48.0807" lon="-3.58609">
        <ele>115.2</ele>
        <time>2025-02-25T08:59:21Z</time>
      </trkpt>
      <trkpt lat="48.0807" lon="-3.58609">
        <ele>115.2</ele>
        <time>2025-02-25T08:59:22Z</time>
      </trkpt>
      <trkpt lat="48.0807" lon="-3.58609">
        <ele>115.2</ele>
        <time>2025-02-25T08:59:23Z</time>
      </trkpt>
      <trkpt lat="48.0807" lon="-3.58609">
        <ele>115.2</ele>
        <time>2025-02-25T08:59:24Z</time>
      </trkpt>
      <trkpt lat="48.0807" lon="-3.5861">
        <ele>115.2</ele>
        <time>2025-02-25T08:59:25Z</time>
      </trkpt>
      <trkpt lat="48.08071" lon="-3.58611">
        <ele>115.3</ele>
        <time>2025-02-25T08:59:26Z</time>
      </trkpt>
      <trkpt lat="48.08071" lon="-3.58611">
        <ele>115.3</ele>
        <time>2025-02-25T08:59:27Z</time>
      </trkpt>
      <trkpt lat="48.08071" lon="-3.58611">
        <ele>115.3</ele>
        <time>2025-02-25T08:59:28Z</time>
      </trkpt>
      <trkpt lat="48.08071" lon="-3.58611">
        <ele>115.3</ele>
        <time>2025-02-25T08:59:29Z</time>
      </trkpt>
      <trkpt lat="48.08071" lon="-3.58611">
        <ele>115.3</ele>
        <time>2025-02-25T08:59:30Z</time>
      </trkpt>
      <trkpt lat="48.08071" lon="-3.58611">
        <ele>115.3</ele>
        <time>2025-02-25T08:59:31Z</time>
      </trkpt>
      <trkpt lat="48.08071" lon="-3.58611">
        <ele>115.3</ele>
        <time>2025-02-25T08:59:32Z</time>
      </trkpt>
      <trkpt lat="48.08071" lon="-3.58611">
        <ele>115.3</ele>
        <time>2025-02-25T08:59:33Z</time>
      </trkpt>
      <trkpt lat="48.08071" lon="-3.58611">
        <ele>115.3</ele>
        <time>2025-02-25T08:59:34Z</time>
      </trkpt>
      <trkpt lat="48.08071" lon="-3.58611">
        <ele>115.3</ele>
        <time>2025-02-25T08:59:35Z</time>
      </trkpt>
      <trkpt lat="48.08071" lon="-3.58611">
        <ele>115.3</ele>
        <time>2025-02-25T08:59:36Z</time>
      </trkpt>
      <trkpt lat="48.08071" lon="-3.58611">
        <ele>115.3</ele>
        <time>2025-02-25T08:59:37Z</time>
      </trkpt>
      <trkpt lat="48.08071" lon="-3.58611">
        <ele>115.3</ele>
        <time>2025-02-25T08:59:38Z</time>
      </trkpt>
      <trkpt lat="48.08071" lon="-3.58611">
        <ele>115.3</ele>
        <time>2025-02-25T08:59:39Z</time>
      </trkpt>
      <trkpt lat="48.08071" lon="-3.58611">
        <ele>115.3</ele>
        <time>2025-02-25T08:59:40Z</time>
      </trkpt>
      <trkpt lat="48.08071" lon="-3.58612">
        <ele>115.4</ele>
        <time>2025-02-25T08:59:41Z</time>
      </trkpt>
      <trkpt lat="48.08072" lon="-3.58614">
        <ele>115.6</ele>
        <time>2025-02-25T08:59:42Z</time>
      </trkpt>
      <trkpt lat="48.08072" lon="-3.58616">
        <ele>115.7</ele>
        <time>2025-02-25T08:59:43Z</time>
      </trkpt>
      <trkpt lat="48.08073" lon="-3.58616">
        <ele>115.9</ele>
        <time>2025-02-25T08:59:44Z</time>
      </trkpt>
      <trkpt lat="48.08074" lon="-3.58617">
        <ele>116.1</ele>
        <time>2025-02-25T08:59:45Z</time>
      </trkpt>
      <trkpt lat="48.08074" lon="-3.58619">
        <ele>116.2</ele>
        <time>2025-02-25T08:59:46Z</time>
      </trkpt>
      <trkpt lat="48.08073" lon="-3.58622">
        <ele>116</ele>
        <time>2025-02-25T08:59:47Z</time>
      </trkpt>
      <trkpt lat="48.08072" lon="-3.58624">
        <ele>115.8</ele>
        <time>2025-02-25T08:59:48Z</time>
      </trkpt>
      <trkpt lat="48.08072" lon="-3.58626">
        <ele>115.9</ele>
        <time>2025-02-25T08:59:49Z</time>
      </trkpt>
      <trkpt lat="48.08072" lon="-3.58628">
        <ele>115.9</ele>
        <time>2025-02-25T08:59:50Z</time>
      </trkpt>
      <trkpt lat="48.0807" lon="-3.58629">
        <ele>115.5</ele>
        <time>2025-02-25T08:59:51Z</time>
      </trkpt>
      <trkpt lat="48.08068" lon="-3.5863">
        <ele>115</ele>
        <time>2025-02-25T08:59:52Z</time>
      </trkpt>
      <trkpt lat="48.08067" lon="-3.58632">
        <ele>114.8</ele>
        <time>2025-02-25T08:59:53Z</time>
      </trkpt>
      <trkpt lat="48.08066" lon="-3.58633">
        <ele>114.6</ele>
        <time>2025-02-25T08:59:54Z</time>
      </trkpt>
      <trkpt lat="48.08066" lon="-3.58635">
        <ele>114.6</ele>
        <time>2025-02-25T08:59:55Z</time>
      </trkpt>
      <trkpt lat="48.08066" lon="-3.58636">
        <ele>114.6</ele>
        <time>2025-02-25T08:59:56Z</time>
      </trkpt>
      <trkpt lat="48.08065" lon="-3.58637">
        <ele>114.4</ele>
        <time>2025-02-25T08:59:57Z</time>
      </trkpt>
      <trkpt lat="48.08065" lon="-3.58639">
        <ele>114.4</ele>
        <time>2025-02-25T08:59:58Z</time>
      </trkpt>
      <trkpt lat="48.08064" lon="-3.5864">
        <ele>114.2</ele>
        <time>2025-02-25T08:59:59Z</time>
      </trkpt>
      <trkpt lat="48.08064" lon="-3.58641">
        <ele>114.3</ele>
        <time>2025-02-25T09:00:00Z</time>
      </trkpt>
      <trkpt lat="48.08063" lon="-3.58642">
        <ele>114.1</ele>
        <time>2025-02-25T09:00:01Z</time>
      </trkpt>
      <trkpt lat="48.08063" lon="-3.58643">
        <ele>114.2</ele>
        <time>2025-02-25T09:00:02Z</time>
      </trkpt>
      <trkpt lat="48.08062" lon="-3.58644">
        <ele>114</ele>
        <time>2025-02-25T09:00:03Z</time>
      </trkpt>
      <trkpt lat="48.08062" lon="-3.58644">
        <ele>114</ele>
        <time>2025-02-25T09:00:04Z</time>
      </trkpt>
      <trkpt lat="48.08061" lon="-3.58645">
        <ele>113.8</ele>
        <time>2025-02-25T09:00:05Z</time>
      </trkpt>
      <trkpt lat="48.0806" lon="-3.58647">
        <ele>113.7</ele>
        <time>2025-02-25T09:00:06Z</time>
      </trkpt>
      <trkpt lat="48.08059" lon="-3.58647">
        <ele>113.5</ele>
        <time>2025-02-25T09:00:07Z</time>
      </trkpt>
      <trkpt lat="48.08058" lon="-3.58648">
        <ele>113.3</ele>
        <time>2025-02-25T09:00:08Z</time>
      </trkpt>
      <trkpt lat="48.08057" lon="-3.58649">
        <ele>113.1</ele>
        <time>2025-02-25T09:00:09Z</time>
      </trkpt>
      <trkpt lat="48.08057" lon="-3.5865">
        <ele>113.2</ele>
        <time>2025-02-25T09:00:10Z</time>
      </trkpt>
      <trkpt lat="48.08056" lon="-3.58653">
        <ele>113.1</ele>
        <time>2025-02-25T09:00:11Z</time>
      </trkpt>
      <trkpt lat="48.08056" lon="-3.58654">
        <ele>113.2</ele>
        <time>2025-02-25T09:00:12Z</time>
      </trkpt>
      <trkpt lat="48.08055" lon="-3.58657">
        <ele>113.2</ele>
        <time>2025-02-25T09:00:13Z</time>
      </trkpt>
      <trkpt lat="48.08054" lon="-3.58658">
        <ele>113</ele>
        <time>2025-02-25T09:00:14Z</time>
      </trkpt>
      <trkpt lat="48.08054" lon="-3.58659">
        <ele>113.1</ele>
        <time>2025-02-25T09:00:15Z</time>
      </trkpt>
      <trkpt lat="48.08053" lon="-3.5866">
        <ele>112.9</ele>
        <time>2025-02-25T09:00:16Z</time>
      </trkpt>
      <trkpt lat="48.08052" lon="-3.58662">
        <ele>112.8</ele>
        <time>2025-02-25T09:00:17Z</time>
      </trkpt>
      <trkpt lat="48.08051" lon="-3.58663">
        <ele>112.7</ele>
        <time>2025-02-25T09:00:18Z</time>
      </trkpt>
      <trkpt lat="48.0805" lon="-3.58664">
        <ele>112.5</ele>
        <time>2025-02-25T09:00:19Z</time>
      </trkpt>
      <trkpt lat="48.08049" lon="-3.58665">
        <ele>112.3</ele>
        <time>2025-02-25T09:00:20Z</time>
      </trkpt>
      <trkpt lat="48.08048" lon="-3.58666">
        <ele>112.1</ele>
        <time>2025-02-25T09:00:21Z</time>
      </trkpt>
      <trkpt lat="48.08048" lon="-3.58668">
        <ele>112.2</ele>
        <time>2025-02-25T09:00:22Z</time>
      </trkpt>
      <trkpt lat="48.08048" lon="-3.58669">
        <ele>112.3</ele>
        <time>2025-02-25T09:00:23Z</time>
      </trkpt>
      <trkpt lat="48.08047" lon="-3.5867">
        <ele>112.1</ele>
        <time>2025-02-25T09:00:24Z</time>
      </trkpt>
      <trkpt lat="48.08047" lon="-3.58671">
        <ele>112.2</ele>
        <time>2025-02-25T09:00:25Z</time>
      </trkpt>
      <trkpt lat="48.08046" lon="-3.58673">
        <ele>112.1</ele>
        <time>2025-02-25T09:00:26Z</time>
      </trkpt>
      <trkpt lat="48.08045" lon="-3.58675">
        <ele>112.1</ele>
        <time>2025-02-25T09:00:27Z</time>
      </trkpt>
      <trkpt lat="48.08045" lon="-3.58677">
        <ele>112.2</ele>
        <time>2025-02-25T09:00:28Z</time>
      </trkpt>
      <trkpt lat="48.08046" lon="-3.58678">
        <ele>112.5</ele>
        <time>2025-02-25T09:00:29Z</time>
      </trkpt>
      <trkpt lat="48.08045" lon="-3.5868">
        <ele>112.5</ele>
        <time>2025-02-25T09:00:30Z</time>
      </trkpt>
      <trkpt lat="48.08044" lon="-3.58681">
        <ele>112.3</ele>
        <time>2025-02-25T09:00:31Z</time>
      </trkpt>
      <trkpt lat="48.08043" lon="-3.58681">
        <ele>112.1</ele>
        <time>2025-02-25T09:00:32Z</time>
      </trkpt>
      <trkpt lat="48.08043" lon="-3.58682">
        <ele>112.2</ele>
        <time>2025-02-25T09:00:33Z</time>
      </trkpt>
      <trkpt lat="48.08042" lon="-3.58683">
        <ele>112</ele>
        <time>2025-02-25T09:00:34Z</time>
      </trkpt>
      <trkpt lat="48.08041" lon="-3.58684">
        <ele>111.9</ele>
        <time>2025-02-25T09:00:35Z</time>
      </trkpt>
      <trkpt lat="48.0804" lon="-3.58685">
        <ele>111.8</ele>
        <time>2025-02-25T09:00:36Z</time>
      </trkpt>
      <trkpt lat="48.08039" lon="-3.58686">
        <ele>111.6</ele>
        <time>2025-02-25T09:00:37Z</time>
      </trkpt>
      <trkpt lat="48.08039" lon="-3.58687">
        <ele>111.7</ele>
        <time>2025-02-25T09:00:38Z</time>
      </trkpt>
      <trkpt lat="48.08039" lon="-3.58687">
        <ele>111.7</ele>
        <time>2025-02-25T09:00:39Z</time>
      </trkpt>
      <trkpt lat="48.0804" lon="-3.58688">
        <ele>112</ele>
        <time>2025-02-25T09:00:40Z</time>
      </trkpt>
      <trkpt lat="48.0804" lon="-3.58689">
        <ele>112.1</ele>
        <time>2025-02-25T09:00:41Z</time>
      </trkpt>
      <trkpt lat="48.0804" lon="-3.58688">
        <ele>112</ele>
        <time>2025-02-25T09:00:42Z</time>
      </trkpt>
      <trkpt lat="48.0804" lon="-3.58687">
        <ele>112</ele>
        <time>2025-02-25T09:00:43Z</time>
      </trkpt>
      <trkpt lat="48.0804" lon="-3.58687">
        <ele>112</ele>
        <time>2025-02-25T09:00:44Z</time>
      </trkpt>
      <trkpt lat="48.0804" lon="-3.58687">
        <ele>112</ele>
        <time>2025-02-25T09:00:45Z</time>
      </trkpt>
      <trkpt lat="48.0804" lon="-3.58688">
        <ele>112</ele>
        <time>2025-02-25T09:00:46Z</time>
      </trkpt>
      <trkpt lat="48.0804" lon="-3.58688">
        <ele>112</ele>
        <time>2025-02-25T09:00:47Z</time>
      </trkpt>
      <trkpt lat="48.0804" lon="-3.58688">
        <ele>112</ele>
        <time>2025-02-25T09:00:48Z</time>
      </trkpt>
      <trkpt lat="48.0804" lon="-3.58688">
        <ele>112</ele>
        <time>2025-02-25T09:00:49Z</time>
      </trkpt>
      <trkpt lat="48.0804" lon="-3.58688">
        <ele>112</ele>
        <time>2025-02-25T09:00:50Z</time>
      </trkpt>
      <trkpt lat="48.0804" lon="-3.58688">
        <ele>112</ele>
        <time>2025-02-25T09:00:51Z</time>
      </trkpt>
      <trkpt lat="48.0804" lon="-3.58688">
        <ele>112</ele>
        <time>2025-02-25T09:00:52Z</time>
      </trkpt>
      <trkpt lat="48.0804" lon="-3.58689">
        <ele>112.1</ele>
        <time>2025-02-25T09:00:53Z</time>
      </trkpt>
      <trkpt lat="48.0804" lon="-3.58689">
        <ele>112.1</ele>
        <time>2025-02-25T09:00:54Z</time>
      </trkpt>
      <trkpt lat="48.0804" lon="-3.58689">
        <ele>112.1</ele>
        <time>2025-02-25T09:00:55Z</time>
      </trkpt>
      <trkpt lat="48.0804" lon="-3.58689">
        <ele>112.1</ele>
        <time>2025-02-25T09:00:56Z</time>
      </trkpt>
      <trkpt lat="48.0804" lon="-3.58689">
        <ele>112.1</ele>
        <time>2025-02-25T09:00:57Z</time>
      </trkpt>
      <trkpt lat="48.0804" lon="-3.58689">
        <ele>112.1</ele>
        <time>2025-02-25T09:00:58Z</time>
      </trkpt>
      <trkpt lat="48.0804" lon="-3.58689">
        <ele>112.1</ele>
        <time>2025-02-25T09:00:59Z</time>
      </trkpt>
      <trkpt lat="48.0804" lon="-3.58689">
        <ele>112.1</ele>
        <time>2025-02-25T09:01:00Z</time>
      </trkpt>
      <trkpt lat="48.0804" lon="-3.58689">
        <ele>112.1</ele>
        <time>2025-02-25T09:01:01Z</time>
      </trkpt>
      <trkpt lat="48.0804" lon="-3.58689">
        <ele>112.1</ele>
        <time>2025-02-25T09:01:02Z</time>
      </trkpt>
      <trkpt lat="48.0804" lon="-3.58689">
        <ele>112.1</ele>
        <time>2025-02-25T09:01:03Z</time>
      </trkpt>
      <trkpt lat="48.0804" lon="-3.58689">
        <ele>112.1</ele>
        <time>2025-02-25T09:01:04Z</time>
      </trkpt>
      <trkpt lat="48.08039" lon="-3.58689">
        <ele>111.9</ele>
        <time>2025-02-25T09:01:05Z</time>
      </trkpt>
      <trkpt lat="48.08038" lon="-3.5869">
        <ele>111.8</ele>
        <time>2025-02-25T09:01:06Z</time>
      </trkpt>
      <trkpt lat="48.08037" lon="-3.58692">
        <ele>111.8</ele>
        <time>2025-02-25T09:01:07Z</time>
      </trkpt>
      <trkpt lat="48.08037" lon="-3.58692">
        <ele>111.8</ele>
        <time>2025-02-25T09:01:08Z</time>
      </trkpt>
      <trkpt lat="48.08036" lon="-3.58694">
        <ele>111.7</ele>
        <time>2025-02-25T09:01:09Z</time>
      </trkpt>
      <trkpt lat="48.08035" lon="-3.58695">
        <ele>111.6</ele>
        <time>2025-02-25T09:01:10Z</time>
      </trkpt>
      <trkpt lat="48.08037" lon="-3.58698">
        <ele>112.3</ele>
        <time>2025-02-25T09:01:11Z</time>
      </trkpt>
      <trkpt lat="48.08039" lon="-3.58698">
        <ele>112.7</ele>
        <time>2025-02-25T09:01:12Z</time>
      </trkpt>
      <trkpt lat="48.08039" lon="-3.58697">
        <ele>112.6</ele>
        <time>2025-02-25T09:01:13Z</time>
      </trkpt>
      <trkpt lat="48.0804" lon="-3.58697">
        <ele>112.8</ele>
        <time>2025-02-25T09:01:14Z</time>
      </trkpt>
      <trkpt lat="48.0804" lon="-3.58698">
        <ele>112.9</ele>
        <time>2025-02-25T09:01:15Z</time>
      </trkpt>
      <trkpt lat="48.0804" lon="-3.58699">
        <ele>113</ele>
        <time>2025-02-25T09:01:16Z</time>
      </trkpt>
      <trkpt lat="48.0804" lon="-3.58699">
        <ele>113</ele>
        <time>2025-02-25T09:01:17Z</time>
      </trkpt>
      <trkpt lat="48.0804" lon="-3.58699">
        <ele>113</ele>
        <time>2025-02-25T09:01:18Z</time>
      </trkpt>
      <trkpt lat="48.0804" lon="-3.58699">
        <ele>113</ele>
        <time>2025-02-25T09:01:19Z</time>
      </trkpt>
      <trkpt lat="48.0804" lon="-3.58699">
        <ele>113</ele>
        <time>2025-02-25T09:01:20Z</time>
      </trkpt>
      <trkpt lat="48.0804" lon="-3.58698">
        <ele>112.9</ele>
        <time>2025-02-25T09:01:21Z</time>
      </trkpt>
      <trkpt lat="48.08039" lon="-3.58699">
        <ele>112.8</ele>
        <time>2025-02-25T09:01:22Z</time>
      </trkpt>
      <trkpt lat="48.08039" lon="-3.587">
        <ele>112.9</ele>
        <time>2025-02-25T09:01:23Z</time>
      </trkpt>
      <trkpt lat="48.08038" lon="-3.587">
        <ele>112.7</ele>
        <time>2025-02-25T09:01:24Z</time>
      </trkpt>
      <trkpt lat="48.08038" lon="-3.58701">
        <ele>112.7</ele>
        <time>2025-02-25T09:01:25Z</time>
      </trkpt>
      <trkpt lat="48.08038" lon="-3.58702">
        <ele>112.8</ele>
        <time>2025-02-25T09:01:26Z</time>
      </trkpt>
      <trkpt lat="48.08037" lon="-3.58702">
        <ele>112.6</ele>
        <time>2025-02-25T09:01:27Z</time>
      </trkpt>
      <trkpt lat="48.08036" lon="-3.58704">
        <ele>112.6</ele>
        <time>2025-02-25T09:01:28Z</time>
      </trkpt>
      <trkpt lat="48.08035" lon="-3.58707">
        <ele>112.7</ele>
        <time>2025-02-25T09:01:29Z</time>
      </trkpt>
      <trkpt lat="48.08035" lon="-3.58706">
        <ele>112.6</ele>
        <time>2025-02-25T09:01:30Z</time>
      </trkpt>
      <trkpt lat="48.08035" lon="-3.58706">
        <ele>112.6</ele>
        <time>2025-02-25T09:01:31Z</time>
      </trkpt>
      <trkpt lat="48.08035" lon="-3.58707">
        <ele>112.7</ele>
        <time>2025-02-25T09:01:32Z</time>
      </trkpt>
      <trkpt lat="48.08034" lon="-3.58707">
        <ele>112.5</ele>
        <time>2025-02-25T09:01:33Z</time>
      </trkpt>
      <trkpt lat="48.08034" lon="-3.58708">
        <ele>112.6</ele>
        <time>2025-02-25T09:01:34Z</time>
      </trkpt>
      <trkpt lat="48.08033" lon="-3.58709">
        <ele>112.5</ele>
        <time>2025-02-25T09:01:35Z</time>
      </trkpt>
      <trkpt lat="48.08032" lon="-3.5871">
        <ele>112.4</ele>
        <time>2025-02-25T09:01:36Z</time>
      </trkpt>
      <trkpt lat="48.08032" lon="-3.58711">
        <ele>112.5</ele>
        <time>2025-02-25T09:01:37Z</time>
      </trkpt>
      <trkpt lat="48.08031" lon="-3.58711">
        <ele>112.3</ele>
        <time>2025-02-25T09:01:38Z</time>
      </trkpt>
      <trkpt lat="48.08032" lon="-3.58712">
        <ele>112.6</ele>
        <time>2025-02-25T09:01:39Z</time>
      </trkpt>
      <trkpt lat="48.08033" lon="-3.58714">
        <ele>113</ele>
        <time>2025-02-25T09:01:40Z</time>
      </trkpt>
      <trkpt lat="48.08032" lon="-3.58715">
        <ele>112.9</ele>
        <time>2025-02-25T09:01:41Z</time>
      </trkpt>
      <trkpt lat="48.08031" lon="-3.58718">
        <ele>113</ele>
        <time>2025-02-25T09:01:42Z</time>
      </trkpt>
      <trkpt lat="48.0803" lon="-3.5872">
        <ele>113.1</ele>
        <time>2025-02-25T09:01:43Z</time>
      </trkpt>
      <trkpt lat="48.0803" lon="-3.58721">
        <ele>113.2</ele>
        <time>2025-02-25T09:01:44Z</time>
      </trkpt>
      <trkpt lat="48.08028" lon="-3.58723">
        <ele>113.1</ele>
        <time>2025-02-25T09:01:45Z</time>
      </trkpt>
      <trkpt lat="48.08027" lon="-3.58724">
        <ele>113</ele>
        <time>2025-02-25T09:01:46Z</time>
      </trkpt>
      <trkpt lat="48.08026" lon="-3.58725">
        <ele>112.8</ele>
        <time>2025-02-25T09:01:47Z</time>
      </trkpt>
      <trkpt lat="48.08025" lon="-3.58727">
        <ele>112.8</ele>
        <time>2025-02-25T09:01:48Z</time>
      </trkpt>
      <trkpt lat="48.08025" lon="-3.58728">
        <ele>112.8</ele>
        <time>2025-02-25T09:01:49Z</time>
      </trkpt>
      <trkpt lat="48.08025" lon="-3.58728">
        <ele>112.8</ele>
        <time>2025-02-25T09:01:50Z</time>
      </trkpt>
      <trkpt lat="48.08025" lon="-3.58729">
        <ele>112.9</ele>
        <time>2025-02-25T09:01:51Z</time>
      </trkpt>
      <trkpt lat="48.08025" lon="-3.5873">
        <ele>113</ele>
        <time>2025-02-25T09:01:52Z</time>
      </trkpt>
      <trkpt lat="48.08025" lon="-3.58731">
        <ele>113.1</ele>
        <time>2025-02-25T09:01:53Z</time>
      </trkpt>
      <trkpt lat="48.08024" lon="-3.58732">
        <ele>112.9</ele>
        <time>2025-02-25T09:01:54Z</time>
      </trkpt>
      <trkpt lat="48.08024" lon="-3.58733">
        <ele>113</ele>
        <time>2025-02-25T09:01:55Z</time>
      </trkpt>
      <trkpt lat="48.08023" lon="-3.58734">
        <ele>112.9</ele>
        <time>2025-02-25T09:01:56Z</time>
      </trkpt>
      <trkpt lat="48.08023" lon="-3.58735">
        <ele>113</ele>
        <time>2025-02-25T09:01:57Z</time>
      </trkpt>
      <trkpt lat="48.08022" lon="-3.58736">
        <ele>112.8</ele>
        <time>2025-02-25T09:01:58Z</time>
      </trkpt>
      <trkpt lat="48.08021" lon="-3.58737">
        <ele>112.7</ele>
        <time>2025-02-25T09:01:59Z</time>
      </trkpt>
      <trkpt lat="48.08021" lon="-3.58738">
        <ele>112.8</ele>
        <time>2025-02-25T09:02:00Z</time>
      </trkpt>
      <trkpt lat="48.08019" lon="-3.58739">
        <ele>112.5</ele>
        <time>2025-02-25T09:02:01Z</time>
      </trkpt>
      <trkpt lat="48.08019" lon="-3.5874">
        <ele>112.6</ele>
        <time>2025-02-25T09:02:02Z</time>
      </trkpt>
      <trkpt lat="48.08018" lon="-3.58741">
        <ele>112.5</ele>
        <time>2025-02-25T09:02:03Z</time>
      </trkpt>
      <trkpt lat="48.08018" lon="-3.58742">
        <ele>112.6</ele>
        <time>2025-02-25T09:02:04Z</time>
      </trkpt>
      <trkpt lat="48.08017" lon="-3.58743">
        <ele>112.5</ele>
        <time>2025-02-25T09:02:05Z</time>
      </trkpt>
      <trkpt lat="48.08014" lon="-3.58743">
        <ele>111.9</ele>
        <time>2025-02-25T09:02:06Z</time>
      </trkpt>
      <trkpt lat="48.08012" lon="-3.58747">
        <ele>111.9</ele>
        <time>2025-02-25T09:02:07Z</time>
      </trkpt>
      <trkpt lat="48.0801" lon="-3.58748">
        <ele>111.6</ele>
        <time>2025-02-25T09:02:08Z</time>
      </trkpt>
      <trkpt lat="48.08011" lon="-3.58751">
        <ele>112</ele>
        <time>2025-02-25T09:02:09Z</time>
      </trkpt>
      <trkpt lat="48.08011" lon="-3.58753">
        <ele>112.1</ele>
        <time>2025-02-25T09:02:10Z</time>
      </trkpt>
      <trkpt lat="48.08012" lon="-3.58753">
        <ele>112.3</ele>
        <time>2025-02-25T09:02:11Z</time>
      </trkpt>
      <trkpt lat="48.08012" lon="-3.58754">
        <ele>112.3</ele>
        <time>2025-02-25T09:02:12Z</time>
      </trkpt>
      <trkpt lat="48.08012" lon="-3.58755">
        <ele>112.3</ele>
        <time>2025-02-25T09:02:13Z</time>
      </trkpt>
      <trkpt lat="48.08012" lon="-3.58756">
        <ele>112.4</ele>
        <time>2025-02-25T09:02:14Z</time>
      </trkpt>
      <trkpt lat="48.08013" lon="-3.58757">
        <ele>112.6</ele>
        <time>2025-02-25T09:02:15Z</time>
      </trkpt>
      <trkpt lat="48.08013" lon="-3.58757">
        <ele>112.6</ele>
        <time>2025-02-25T09:02:16Z</time>
      </trkpt>
      <trkpt lat="48.08013" lon="-3.58758">
        <ele>112.6</ele>
        <time>2025-02-25T09:02:17Z</time>
      </trkpt>
      <trkpt lat="48.08013" lon="-3.58759">
        <ele>112.7</ele>
        <time>2025-02-25T09:02:18Z</time>
      </trkpt>
      <trkpt lat="48.08014" lon="-3.5876">
        <ele>112.9</ele>
        <time>2025-02-25T09:02:19Z</time>
      </trkpt>
      <trkpt lat="48.08013" lon="-3.58761">
        <ele>112.7</ele>
        <time>2025-02-25T09:02:20Z</time>
      </trkpt>
      <trkpt lat="48.08013" lon="-3.58762">
        <ele>112.8</ele>
        <time>2025-02-25T09:02:21Z</time>
      </trkpt>
      <trkpt lat="48.08013" lon="-3.58763">
        <ele>112.8</ele>
        <time>2025-02-25T09:02:22Z</time>
      </trkpt>
      <trkpt lat="48.08013" lon="-3.58764">
        <ele>112.8</ele>
        <time>2025-02-25T09:02:23Z</time>
      </trkpt>
      <trkpt lat="48.08012" lon="-3.58765">
        <ele>112.7</ele>
        <time>2025-02-25T09:02:24Z</time>
      </trkpt>
      <trkpt lat="48.08012" lon="-3.58766">
        <ele>112.7</ele>
        <time>2025-02-25T09:02:25Z</time>
      </trkpt>
      <trkpt lat="48.08012" lon="-3.58767">
        <ele>112.8</ele>
        <time>2025-02-25T09:02:26Z</time>
      </trkpt>
      <trkpt lat="48.08012" lon="-3.58768">
        <ele>112.8</ele>
        <time>2025-02-25T09:02:27Z</time>
      </trkpt>
      <trkpt lat="48.08012" lon="-3.58768">
        <ele>112.8</ele>
        <time>2025-02-25T09:02:28Z</time>
      </trkpt>
      <trkpt lat="48.08012" lon="-3.58769">
        <ele>112.8</ele>
        <time>2025-02-25T09:02:29Z</time>
      </trkpt>
      <trkpt lat="48.08011" lon="-3.58771">
        <ele>112.7</ele>
        <time>2025-02-25T09:02:30Z</time>
      </trkpt>
      <trkpt lat="48.08011" lon="-3.58772">
        <ele>112.8</ele>
        <time>2025-02-25T09:02:31Z</time>
      </trkpt>
      <trkpt lat="48.08011" lon="-3.58773">
        <ele>112.8</ele>
        <time>2025-02-25T09:02:32Z</time>
      </trkpt>
      <trkpt lat="48.0801" lon="-3.58774">
        <ele>112.7</ele>
        <time>2025-02-25T09:02:33Z</time>
      </trkpt>
      <trkpt lat="48.0801" lon="-3.58775">
        <ele>112.7</ele>
        <time>2025-02-25T09:02:34Z</time>
      </trkpt>
      <trkpt lat="48.08009" lon="-3.58776">
        <ele>112.6</ele>
        <time>2025-02-25T09:02:35Z</time>
      </trkpt>
      <trkpt lat="48.08008" lon="-3.58778">
        <ele>112.4</ele>
        <time>2025-02-25T09:02:36Z</time>
      </trkpt>
      <trkpt lat="48.08006" lon="-3.5878">
        <ele>112.1</ele>
        <time>2025-02-25T09:02:37Z</time>
      </trkpt>
      <trkpt lat="48.08006" lon="-3.58781">
        <ele>112.2</ele>
        <time>2025-02-25T09:02:38Z</time>
      </trkpt>
      <trkpt lat="48.08005" lon="-3.58783">
        <ele>112.1</ele>
        <time>2025-02-25T09:02:39Z</time>
      </trkpt>
      <trkpt lat="48.08005" lon="-3.58784">
        <ele>112.1</ele>
        <time>2025-02-25T09:02:40Z</time>
      </trkpt>
      <trkpt lat="48.08004" lon="-3.58785">
        <ele>111.9</ele>
        <time>2025-02-25T09:02:41Z</time>
      </trkpt>
      <trkpt lat="48.08003" lon="-3.58788">
        <ele>111.9</ele>
        <time>2025-02-25T09:02:42Z</time>
      </trkpt>
      <trkpt lat="48.08002" lon="-3.58789">
        <ele>111.7</ele>
        <time>2025-02-25T09:02:43Z</time>
      </trkpt>
      <trkpt lat="48.08001" lon="-3.58791">
        <ele>111.6</ele>
        <time>2025-02-25T09:02:44Z</time>
      </trkpt>
      <trkpt lat="48.07999" lon="-3.58793">
        <ele>111.3</ele>
        <time>2025-02-25T09:02:45Z</time>
      </trkpt>
      <trkpt lat="48.07998" lon="-3.58794">
        <ele>111.2</ele>
        <time>2025-02-25T09:02:46Z</time>
      </trkpt>
      <trkpt lat="48.07997" lon="-3.58796">
        <ele>111</ele>
        <time>2025-02-25T09:02:47Z</time>
      </trkpt>
      <trkpt lat="48.07996" lon="-3.58797">
        <ele>110.8</ele>
        <time>2025-02-25T09:02:48Z</time>
      </trkpt>
      <trkpt lat="48.07996" lon="-3.58799">
        <ele>110.9</ele>
        <time>2025-02-25T09:02:49Z</time>
      </trkpt>
      <trkpt lat="48.07995" lon="-3.588">
        <ele>110.7</ele>
        <time>2025-02-25T09:02:50Z</time>
      </trkpt>
      <trkpt lat="48.07997" lon="-3.58802">
        <ele>111.2</ele>
        <time>2025-02-25T09:02:51Z</time>
      </trkpt>
      <trkpt lat="48.07996" lon="-3.588">
        <ele>110.9</ele>
        <time>2025-02-25T09:02:52Z</time>
      </trkpt>
      <trkpt lat="48.07996" lon="-3.588">
        <ele>110.9</ele>
        <time>2025-02-25T09:02:53Z</time>
      </trkpt>
      <trkpt lat="48.07996" lon="-3.588">
        <ele>110.9</ele>
        <time>2025-02-25T09:02:54Z</time>
      </trkpt>
      <trkpt lat="48.07996" lon="-3.58799">
        <ele>110.9</ele>
        <time>2025-02-25T09:02:55Z</time>
      </trkpt>
      <trkpt lat="48.07996" lon="-3.58799">
        <ele>110.9</ele>
        <time>2025-02-25T09:02:56Z</time>
      </trkpt>
      <trkpt lat="48.07996" lon="-3.58799">
        <ele>110.9</ele>
        <time>2025-02-25T09:02:57Z</time>
      </trkpt>
      <trkpt lat="48.07996" lon="-3.58799">
        <ele>110.9</ele>
        <time>2025-02-25T09:02:58Z</time>
      </trkpt>
      <trkpt lat="48.07996" lon="-3.58799">
        <ele>110.9</ele>
        <time>2025-02-25T09:02:59Z</time>
      </trkpt>
      <trkpt lat="48.07996" lon="-3.58799">
        <ele>110.9</ele>
        <time>2025-02-25T09:03:00Z</time>
      </trkpt>
      <trkpt lat="48.07996" lon="-3.588">
        <ele>110.9</ele>
        <time>2025-02-25T09:03:01Z</time>
      </trkpt>
      <trkpt lat="48.07995" lon="-3.588">
        <ele>110.7</ele>
        <time>2025-02-25T09:03:02Z</time>
      </trkpt>
      <trkpt lat="48.07995" lon="-3.58801">
        <ele>110.8</ele>
        <time>2025-02-25T09:03:03Z</time>
      </trkpt>
      <trkpt lat="48.07994" lon="-3.588">
        <ele>110.5</ele>
        <time>2025-02-25T09:03:04Z</time>
      </trkpt>
      <trkpt lat="48.07993" lon="-3.58801">
        <ele>110.3</ele>
        <time>2025-02-25T09:03:05Z</time>
      </trkpt>
      <trkpt lat="48.07989" lon="-3.58796">
        <ele>109.3</ele>
        <time>2025-02-25T09:03:06Z</time>
      </trkpt>
      <trkpt lat="48.07987" lon="-3.58796">
        <ele>108.8</ele>
        <time>2025-02-25T09:03:07Z</time>
      </trkpt>
      <trkpt lat="48.07985" lon="-3.58803">
        <ele>108.7</ele>
        <time>2025-02-25T09:03:08Z</time>
      </trkpt>
      <trkpt lat="48.07959" lon="-3.58817">
        <ele>102.7</ele>
        <time>2025-02-25T09:03:09Z</time>
      </trkpt>
      <trkpt lat="48.0796" lon="-3.58818">
        <ele>102.9</ele>
        <time>2025-02-25T09:03:10Z</time>
      </trkpt>
      <trkpt lat="48.0796" lon="-3.58818">
        <ele>102.9</ele>
        <time>2025-02-25T09:03:11Z</time>
      </trkpt>
      <trkpt lat="48.0796" lon="-3.5882">
        <ele>102.9</ele>
        <time>2025-02-25T09:03:12Z</time>
      </trkpt>
      <trkpt lat="48.0796" lon="-3.5882">
        <ele>102.9</ele>
        <time>2025-02-25T09:03:13Z</time>
      </trkpt>
      <trkpt lat="48.0796" lon="-3.5882">
        <ele>102.9</ele>
        <time>2025-02-25T09:03:14Z</time>
      </trkpt>
      <trkpt lat="48.07961" lon="-3.5882">
        <ele>103.2</ele>
        <time>2025-02-25T09:03:15Z</time>
      </trkpt>
      <trkpt lat="48.07962" lon="-3.58822">
        <ele>103.4</ele>
        <time>2025-02-25T09:03:16Z</time>
      </trkpt>
      <trkpt lat="48.07963" lon="-3.58821">
        <ele>103.7</ele>
        <time>2025-02-25T09:03:17Z</time>
      </trkpt>
      <trkpt lat="48.07963" lon="-3.58821">
        <ele>103.7</ele>
        <time>2025-02-25T09:03:18Z</time>
      </trkpt>
      <trkpt lat="48.07963" lon="-3.58823">
        <ele>103.7</ele>
        <time>2025-02-25T09:03:19Z</time>
      </trkpt>
      <trkpt lat="48.07963" lon="-3.58825">
        <ele>103.7</ele>
        <time>2025-02-25T09:03:20Z</time>
      </trkpt>
      <trkpt lat="48.07963" lon="-3.58828">
        <ele>103.7</ele>
        <time>2025-02-25T09:03:21Z</time>
      </trkpt>
      <trkpt lat="48.07963" lon="-3.5883">
        <ele>103.7</ele>
        <time>2025-02-25T09:03:22Z</time>
      </trkpt>
      <trkpt lat="48.07963" lon="-3.58833">
        <ele>103.7</ele>
        <time>2025-02-25T09:03:23Z</time>
      </trkpt>
      <trkpt lat="48.07963" lon="-3.58835">
        <ele>103.5</ele>
        <time>2025-02-25T09:03:24Z</time>
      </trkpt>
      <trkpt lat="48.07963" lon="-3.58836">
        <ele>103.4</ele>
        <time>2025-02-25T09:03:25Z</time>
      </trkpt>
      <trkpt lat="48.07964" lon="-3.58838">
        <ele>103.4</ele>
        <time>2025-02-25T09:03:26Z</time>
      </trkpt>
      <trkpt lat="48.07964" lon="-3.58838">
        <ele>103.4</ele>
        <time>2025-02-25T09:03:27Z</time>
      </trkpt>
      <trkpt lat="48.07964" lon="-3.58838">
        <ele>103.4</ele>
        <time>2025-02-25T09:03:28Z</time>
      </trkpt>
      <trkpt lat="48.07964" lon="-3.58837">
        <ele>103.5</ele>
        <time>2025-02-25T09:03:29Z</time>
      </trkpt>
      <trkpt lat="48.07964" lon="-3.58837">
        <ele>103.5</ele>
        <time>2025-02-25T09:03:30Z</time>
      </trkpt>
      <trkpt lat="48.07964" lon="-3.58837">
        <ele>103.5</ele>
        <time>2025-02-25T09:03:31Z</time>
      </trkpt>
      <trkpt lat="48.07964" lon="-3.58837">
        <ele>103.5</ele>
        <time>2025-02-25T09:03:32Z</time>
      </trkpt>
      <trkpt lat="48.07964" lon="-3.58839">
        <ele>103.3</ele>
        <time>2025-02-25T09:03:33Z</time>
      </trkpt>
      <trkpt lat="48.07964" lon="-3.5884">
        <ele>103.2</ele>
        <time>2025-02-25T09:03:34Z</time>
      </trkpt>
      <trkpt lat="48.07965" lon="-3.5884">
        <ele>103.4</ele>
        <time>2025-02-25T09:03:35Z</time>
      </trkpt>
      <trkpt lat="48.07966" lon="-3.58841">
        <ele>103.5</ele>
        <time>2025-02-25T09:03:36Z</time>
      </trkpt>
      <trkpt lat="48.07967" lon="-3.58843">
        <ele>103.5</ele>
        <time>2025-02-25T09:03:37Z</time>
      </trkpt>
      <trkpt lat="48.07967" lon="-3.58845">
        <ele>103.2</ele>
        <time>2025-02-25T09:03:38Z</time>
      </trkpt>
      <trkpt lat="48.07967" lon="-3.58847">
        <ele>103</ele>
        <time>2025-02-25T09:03:39Z</time>
      </trkpt>
      <trkpt lat="48.07967" lon="-3.58848">
        <ele>102.9</ele>
        <time>2025-02-25T09:03:40Z</time>
      </trkpt>
      <trkpt lat="48.07968" lon="-3.5885">
        <ele>102.8</ele>
        <time>2025-02-25T09:03:41Z</time>
      </trkpt>
      <trkpt lat="48.07969" lon="-3.58851">
        <ele>102.9</ele>
        <time>2025-02-25T09:03:42Z</time>
      </trkpt>
      <trkpt lat="48.07969" lon="-3.58853">
        <ele>102.6</ele>
        <time>2025-02-25T09:03:43Z</time>
      </trkpt>
      <trkpt lat="48.0797" lon="-3.58855">
        <ele>102.5</ele>
        <time>2025-02-25T09:03:44Z</time>
      </trkpt>
      <trkpt lat="48.07971" lon="-3.58857">
        <ele>102.4</ele>
        <time>2025-02-25T09:03:45Z</time>
      </trkpt>
      <trkpt lat="48.07972" lon="-3.58858">
        <ele>102.4</ele>
        <time>2025-02-25T09:03:46Z</time>
      </trkpt>
      <trkpt lat="48.07972" lon="-3.5886">
        <ele>102.1</ele>
        <time>2025-02-25T09:03:47Z</time>
      </trkpt>
      <trkpt lat="48.07973" lon="-3.58862">
        <ele>101.9</ele>
        <time>2025-02-25T09:03:48Z</time>
      </trkpt>
      <trkpt lat="48.07974" lon="-3.58863">
        <ele>101.8</ele>
        <time>2025-02-25T09:03:49Z</time>
      </trkpt>
      <trkpt lat="48.07974" lon="-3.58865">
        <ele>101.3</ele>
        <time>2025-02-25T09:03:50Z</time>
      </trkpt>
      <trkpt lat="48.07975" lon="-3.58866">
        <ele>101.2</ele>
        <time>2025-02-25T09:03:51Z</time>
      </trkpt>
      <trkpt lat="48.07975" lon="-3.58868">
        <ele>100.6</ele>
        <time>2025-02-25T09:03:52Z</time>
      </trkpt>
      <trkpt lat="48.07975" lon="-3.5887">
        <ele>100.1</ele>
        <time>2025-02-25T09:03:53Z</time>
      </trkpt>
      <trkpt lat="48.07976" lon="-3.58871">
        <ele>100</ele>
        <time>2025-02-25T09:03:54Z</time>
      </trkpt>
      <trkpt lat="48.07977" lon="-3.58872">
        <ele>100</ele>
        <time>2025-02-25T09:03:55Z</time>
      </trkpt>
      <trkpt lat="48.07977" lon="-3.58873">
        <ele>99.7</ele>
        <time>2025-02-25T09:03:56Z</time>
      </trkpt>
      <trkpt lat="48.07978" lon="-3.58874">
        <ele>99.6</ele>
        <time>2025-02-25T09:03:57Z</time>
      </trkpt>
      <trkpt lat="48.07979" lon="-3.58876">
        <ele>99.3</ele>
        <time>2025-02-25T09:03:58Z</time>
      </trkpt>
      <trkpt lat="48.07979" lon="-3.58878">
        <ele>98.7</ele>
        <time>2025-02-25T09:03:59Z</time>
      </trkpt>
      <trkpt lat="48.0798" lon="-3.58879">
        <ele>98.7</ele>
        <time>2025-02-25T09:04:00Z</time>
      </trkpt>
      <trkpt lat="48.07981" lon="-3.58879">
        <ele>98.9</ele>
        <time>2025-02-25T09:04:01Z</time>
      </trkpt>
      <trkpt lat="48.07982" lon="-3.5888">
        <ele>98.9</ele>
        <time>2025-02-25T09:04:02Z</time>
      </trkpt>
      <trkpt lat="48.07983" lon="-3.5888">
        <ele>99.2</ele>
        <time>2025-02-25T09:04:03Z</time>
      </trkpt>
      <trkpt lat="48.07985" lon="-3.58881">
        <ele>99.4</ele>
        <time>2025-02-25T09:04:04Z</time>
      </trkpt>
      <trkpt lat="48.07985" lon="-3.58882">
        <ele>99.1</ele>
        <time>2025-02-25T09:04:05Z</time>
      </trkpt>
      <trkpt lat="48.07986" lon="-3.58883">
        <ele>99.1</ele>
        <time>2025-02-25T09:04:06Z</time>
      </trkpt>
      <trkpt lat="48.07987" lon="-3.58884">
        <ele>99</ele>
        <time>2025-02-25T09:04:07Z</time>
      </trkpt>
      <trkpt lat="48.07987" lon="-3.58885">
        <ele>98.8</ele>
        <time>2025-02-25T09:04:08Z</time>
      </trkpt>
      <trkpt lat="48.07988" lon="-3.58886">
        <ele>98.7</ele>
        <time>2025-02-25T09:04:09Z</time>
      </trkpt>
      <trkpt lat="48.07989" lon="-3.58887">
        <ele>98.7</ele>
        <time>2025-02-25T09:04:10Z</time>
      </trkpt>
      <trkpt lat="48.0799" lon="-3.58888">
        <ele>98.7</ele>
        <time>2025-02-25T09:04:11Z</time>
      </trkpt>
      <trkpt lat="48.07991" lon="-3.58888">
        <ele>99</ele>
        <time>2025-02-25T09:04:12Z</time>
      </trkpt>
      <trkpt lat="48.07992" lon="-3.58889">
        <ele>99</ele>
        <time>2025-02-25T09:04:13Z</time>
      </trkpt>
      <trkpt lat="48.07993" lon="-3.58891">
        <ele>98.7</ele>
        <time>2025-02-25T09:04:14Z</time>
      </trkpt>
      <trkpt lat="48.07994" lon="-3.58892">
        <ele>98.7</ele>
        <time>2025-02-25T09:04:15Z</time>
      </trkpt>
      <trkpt lat="48.07995" lon="-3.58893">
        <ele>98.7</ele>
        <time>2025-02-25T09:04:16Z</time>
      </trkpt>
      <trkpt lat="48.07996" lon="-3.58894">
        <ele>98.7</ele>
        <time>2025-02-25T09:04:17Z</time>
      </trkpt>
      <trkpt lat="48.07997" lon="-3.58893">
        <ele>99.2</ele>
        <time>2025-02-25T09:04:18Z</time>
      </trkpt>
      <trkpt lat="48.07999" lon="-3.58893">
        <ele>99.7</ele>
        <time>2025-02-25T09:04:19Z</time>
      </trkpt>
      <trkpt lat="48.08001" lon="-3.58893">
        <ele>100.2</ele>
        <time>2025-02-25T09:04:20Z</time>
      </trkpt>
      <trkpt lat="48.08002" lon="-3.58893">
        <ele>100.4</ele>
        <time>2025-02-25T09:04:21Z</time>
      </trkpt>
      <trkpt lat="48.08003" lon="-3.58894">
        <ele>100.4</ele>
        <time>2025-02-25T09:04:22Z</time>
      </trkpt>
      <trkpt lat="48.08004" lon="-3.58895">
        <ele>100.3</ele>
        <time>2025-02-25T09:04:23Z</time>
      </trkpt>
      <trkpt lat="48.08005" lon="-3.58895">
        <ele>100.5</ele>
        <time>2025-02-25T09:04:24Z</time>
      </trkpt>
      <trkpt lat="48.08005" lon="-3.58897">
        <ele>100</ele>
        <time>2025-02-25T09:04:25Z</time>
      </trkpt>
      <trkpt lat="48.08006" lon="-3.58897">
        <ele>100.3</ele>
        <time>2025-02-25T09:04:26Z</time>
      </trkpt>
      <trkpt lat="48.08008" lon="-3.58897">
        <ele>100.7</ele>
        <time>2025-02-25T09:04:27Z</time>
      </trkpt>
      <trkpt lat="48.08009" lon="-3.58898">
        <ele>100.6</ele>
        <time>2025-02-25T09:04:28Z</time>
      </trkpt>
      <trkpt lat="48.0801" lon="-3.58899">
        <ele>100.6</ele>
        <time>2025-02-25T09:04:29Z</time>
      </trkpt>
      <trkpt lat="48.0801" lon="-3.589">
        <ele>100.4</ele>
        <time>2025-02-25T09:04:30Z</time>
      </trkpt>
      <trkpt lat="48.08011" lon="-3.58901">
        <ele>100.3</ele>
        <time>2025-02-25T09:04:31Z</time>
      </trkpt>
      <trkpt lat="48.08012" lon="-3.58902">
        <ele>100.3</ele>
        <time>2025-02-25T09:04:32Z</time>
      </trkpt>
      <trkpt lat="48.08013" lon="-3.58903">
        <ele>100.3</ele>
        <time>2025-02-25T09:04:33Z</time>
      </trkpt>
      <trkpt lat="48.08014" lon="-3.58903">
        <ele>100.5</ele>
        <time>2025-02-25T09:04:34Z</time>
      </trkpt>
      <trkpt lat="48.08015" lon="-3.58904">
        <ele>100.4</ele>
        <time>2025-02-25T09:04:35Z</time>
      </trkpt>
      <trkpt lat="48.08016" lon="-3.58905">
        <ele>100.4</ele>
        <time>2025-02-25T09:04:36Z</time>
      </trkpt>
      <trkpt lat="48.08017" lon="-3.58906">
        <ele>100.4</ele>
        <time>2025-02-25T09:04:37Z</time>
      </trkpt>
      <trkpt lat="48.08018" lon="-3.58907">
        <ele>100.3</ele>
        <time>2025-02-25T09:04:38Z</time>
      </trkpt>
      <trkpt lat="48.08019" lon="-3.58909">
        <ele>100</ele>
        <time>2025-02-25T09:04:39Z</time>
      </trkpt>
      <trkpt lat="48.0802" lon="-3.5891">
        <ele>100</ele>
        <time>2025-02-25T09:04:40Z</time>
      </trkpt>
      <trkpt lat="48.08021" lon="-3.58912">
        <ele>99.7</ele>
        <time>2025-02-25T09:04:41Z</time>
      </trkpt>
      <trkpt lat="48.08022" lon="-3.58913">
        <ele>99.7</ele>
        <time>2025-02-25T09:04:42Z</time>
      </trkpt>
      <trkpt lat="48.08023" lon="-3.58915">
        <ele>99.4</ele>
        <time>2025-02-25T09:04:43Z</time>
      </trkpt>
      <trkpt lat="48.08024" lon="-3.58916">
        <ele>99.4</ele>
        <time>2025-02-25T09:04:44Z</time>
      </trkpt>
      <trkpt lat="48.08025" lon="-3.58917">
        <ele>99.3</ele>
        <time>2025-02-25T09:04:45Z</time>
      </trkpt>
      <trkpt lat="48.08026" lon="-3.58918">
        <ele>99.3</ele>
        <time>2025-02-25T09:04:46Z</time>
      </trkpt>
      <trkpt lat="48.08027" lon="-3.58919">
        <ele>99.3</ele>
        <time>2025-02-25T09:04:47Z</time>
      </trkpt>
      <trkpt lat="48.08028" lon="-3.58921">
        <ele>99.1</ele>
        <time>2025-02-25T09:04:48Z</time>
      </trkpt>
      <trkpt lat="48.08028" lon="-3.58922">
        <ele>98.9</ele>
        <time>2025-02-25T09:04:49Z</time>
      </trkpt>
      <trkpt lat="48.08029" lon="-3.58923">
        <ele>98.9</ele>
        <time>2025-02-25T09:04:50Z</time>
      </trkpt>
      <trkpt lat="48.0803" lon="-3.58923">
        <ele>99</ele>
        <time>2025-02-25T09:04:51Z</time>
      </trkpt>
      <trkpt lat="48.08031" lon="-3.58924">
        <ele>99</ele>
        <time>2025-02-25T09:04:52Z</time>
      </trkpt>
      <trkpt lat="48.08031" lon="-3.58925">
        <ele>98.8</ele>
        <time>2025-02-25T09:04:53Z</time>
      </trkpt>
      <trkpt lat="48.08032" lon="-3.58927">
        <ele>98.5</ele>
        <time>2025-02-25T09:04:54Z</time>
      </trkpt>
      <trkpt lat="48.08032" lon="-3.58928">
        <ele>98.3</ele>
        <time>2025-02-25T09:04:55Z</time>
      </trkpt>
      <trkpt lat="48.08033" lon="-3.58928">
        <ele>98.5</ele>
        <time>2025-02-25T09:04:56Z</time>
      </trkpt>
      <trkpt lat="48.08034" lon="-3.58928">
        <ele>98.7</ele>
        <time>2025-02-25T09:04:57Z</time>
      </trkpt>
      <trkpt lat="48.08036" lon="-3.58929">
        <ele>98.8</ele>
        <time>2025-02-25T09:04:58Z</time>
      </trkpt>
      <trkpt lat="48.08037" lon="-3.5893">
        <ele>98.8</ele>
        <time>2025-02-25T09:04:59Z</time>
      </trkpt>
      <trkpt lat="48.08038" lon="-3.58931">
        <ele>98.7</ele>
        <time>2025-02-25T09:05:00Z</time>
      </trkpt>
      <trkpt lat="48.08038" lon="-3.58932">
        <ele>98.5</ele>
        <time>2025-02-25T09:05:01Z</time>
      </trkpt>
      <trkpt lat="48.08039" lon="-3.58934">
        <ele>98.3</ele>
        <time>2025-02-25T09:05:02Z</time>
      </trkpt>
      <trkpt lat="48.08039" lon="-3.58935">
        <ele>98.1</ele>
        <time>2025-02-25T09:05:03Z</time>
      </trkpt>
      <trkpt lat="48.0804" lon="-3.58936">
        <ele>98</ele>
        <time>2025-02-25T09:05:04Z</time>
      </trkpt>
      <trkpt lat="48.08041" lon="-3.58937">
        <ele>98</ele>
        <time>2025-02-25T09:05:05Z</time>
      </trkpt>
      <trkpt lat="48.08041" lon="-3.58938">
        <ele>97.8</ele>
        <time>2025-02-25T09:05:06Z</time>
      </trkpt>
      <trkpt lat="48.08042" lon="-3.5894">
        <ele>97.5</ele>
        <time>2025-02-25T09:05:07Z</time>
      </trkpt>
      <trkpt lat="48.08042" lon="-3.58941">
        <ele>97.3</ele>
        <time>2025-02-25T09:05:08Z</time>
      </trkpt>
      <trkpt lat="48.08043" lon="-3.58942">
        <ele>97.3</ele>
        <time>2025-02-25T09:05:09Z</time>
      </trkpt>
      <trkpt lat="48.08044" lon="-3.58944">
        <ele>97</ele>
        <time>2025-02-25T09:05:10Z</time>
      </trkpt>
      <trkpt lat="48.08045" lon="-3.58945">
        <ele>97</ele>
        <time>2025-02-25T09:05:11Z</time>
      </trkpt>
      <trkpt lat="48.08045" lon="-3.58946">
        <ele>96.8</ele>
        <time>2025-02-25T09:05:12Z</time>
      </trkpt>
      <trkpt lat="48.08045" lon="-3.58948">
        <ele>96.5</ele>
        <time>2025-02-25T09:05:13Z</time>
      </trkpt>
      <trkpt lat="48.08045" lon="-3.58949">
        <ele>96.3</ele>
        <time>2025-02-25T09:05:14Z</time>
      </trkpt>
      <trkpt lat="48.08046" lon="-3.5895">
        <ele>96.3</ele>
        <time>2025-02-25T09:05:15Z</time>
      </trkpt>
      <trkpt lat="48.08047" lon="-3.58951">
        <ele>96.4</ele>
        <time>2025-02-25T09:05:16Z</time>
      </trkpt>
      <trkpt lat="48.08048" lon="-3.58952">
        <ele>96.4</ele>
        <time>2025-02-25T09:05:17Z</time>
      </trkpt>
      <trkpt lat="48.08049" lon="-3.58953">
        <ele>96.4</ele>
        <time>2025-02-25T09:05:18Z</time>
      </trkpt>
      <trkpt lat="48.0805" lon="-3.58954">
        <ele>96.3</ele>
        <time>2025-02-25T09:05:19Z</time>
      </trkpt>
      <trkpt lat="48.0805" lon="-3.58955">
        <ele>96.2</ele>
        <time>2025-02-25T09:05:20Z</time>
      </trkpt>
      <trkpt lat="48.08049" lon="-3.58954">
        <ele>96.2</ele>
        <time>2025-02-25T09:05:21Z</time>
      </trkpt>
      <trkpt lat="48.08049" lon="-3.58955">
        <ele>96</ele>
        <time>2025-02-25T09:05:22Z</time>
      </trkpt>
      <trkpt lat="48.0805" lon="-3.58956">
        <ele>96</ele>
        <time>2025-02-25T09:05:23Z</time>
      </trkpt>
      <trkpt lat="48.08051" lon="-3.58958">
        <ele>95.8</ele>
        <time>2025-02-25T09:05:24Z</time>
      </trkpt>
      <trkpt lat="48.08051" lon="-3.58959">
        <ele>95.6</ele>
        <time>2025-02-25T09:05:25Z</time>
      </trkpt>
      <trkpt lat="48.08051" lon="-3.5896">
        <ele>95.5</ele>
        <time>2025-02-25T09:05:26Z</time>
      </trkpt>
      <trkpt lat="48.08052" lon="-3.58961">
        <ele>95.5</ele>
        <time>2025-02-25T09:05:27Z</time>
      </trkpt>
      <trkpt lat="48.08053" lon="-3.58963">
        <ele>95.3</ele>
        <time>2025-02-25T09:05:28Z</time>
      </trkpt>
      <trkpt lat="48.08053" lon="-3.58964">
        <ele>95.1</ele>
        <time>2025-02-25T09:05:29Z</time>
      </trkpt>
      <trkpt lat="48.08054" lon="-3.58966">
        <ele>94.9</ele>
        <time>2025-02-25T09:05:30Z</time>
      </trkpt>
      <trkpt lat="48.08055" lon="-3.58967">
        <ele>94.9</ele>
        <time>2025-02-25T09:05:31Z</time>
      </trkpt>
      <trkpt lat="48.08055" lon="-3.58968">
        <ele>94.7</ele>
        <time>2025-02-25T09:05:32Z</time>
      </trkpt>
      <trkpt lat="48.08056" lon="-3.5897">
        <ele>94.5</ele>
        <time>2025-02-25T09:05:33Z</time>
      </trkpt>
      <trkpt lat="48.08057" lon="-3.58971">
        <ele>94.6</ele>
        <time>2025-02-25T09:05:34Z</time>
      </trkpt>
      <trkpt lat="48.08058" lon="-3.58972">
        <ele>94.7</ele>
        <time>2025-02-25T09:05:35Z</time>
      </trkpt>
      <trkpt lat="48.08059" lon="-3.58973">
        <ele>94.8</ele>
        <time>2025-02-25T09:05:36Z</time>
      </trkpt>
      <trkpt lat="48.0806" lon="-3.58974">
        <ele>94.9</ele>
        <time>2025-02-25T09:05:37Z</time>
      </trkpt>
      <trkpt lat="48.0806" lon="-3.58975">
        <ele>94.8</ele>
        <time>2025-02-25T09:05:38Z</time>
      </trkpt>
      <trkpt lat="48.08061" lon="-3.58976">
        <ele>94.9</ele>
        <time>2025-02-25T09:05:39Z</time>
      </trkpt>
      <trkpt lat="48.08061" lon="-3.58978">
        <ele>94.6</ele>
        <time>2025-02-25T09:05:40Z</time>
      </trkpt>
      <trkpt lat="48.08062" lon="-3.58979">
        <ele>94.7</ele>
        <time>2025-02-25T09:05:41Z</time>
      </trkpt>
      <trkpt lat="48.08062" lon="-3.58981">
        <ele>94.5</ele>
        <time>2025-02-25T09:05:42Z</time>
      </trkpt>
      <trkpt lat="48.08063" lon="-3.58983">
        <ele>94.4</ele>
        <time>2025-02-25T09:05:43Z</time>
      </trkpt>
      <trkpt lat="48.08064" lon="-3.58984">
        <ele>94.5</ele>
        <time>2025-02-25T09:05:44Z</time>
      </trkpt>
      <trkpt lat="48.08065" lon="-3.58985">
        <ele>94.5</ele>
        <time>2025-02-25T09:05:45Z</time>
      </trkpt>
      <trkpt lat="48.08065" lon="-3.58986">
        <ele>94.4</ele>
        <time>2025-02-25T09:05:46Z</time>
      </trkpt>
      <trkpt lat="48.08066" lon="-3.58988">
        <ele>94.3</ele>
        <time>2025-02-25T09:05:47Z</time>
      </trkpt>
      <trkpt lat="48.08067" lon="-3.58988">
        <ele>94.5</ele>
        <time>2025-02-25T09:05:48Z</time>
      </trkpt>
      <trkpt lat="48.08069" lon="-3.58989">
        <ele>94.7</ele>
        <time>2025-02-25T09:05:49Z</time>
      </trkpt>
      <trkpt lat="48.08069" lon="-3.58989">
        <ele>94.7</ele>
        <time>2025-02-25T09:05:50Z</time>
      </trkpt>
      <trkpt lat="48.0807" lon="-3.5899">
        <ele>94.7</ele>
        <time>2025-02-25T09:05:51Z</time>
      </trkpt>
      <trkpt lat="48.08071" lon="-3.58991">
        <ele>94.7</ele>
        <time>2025-02-25T09:05:52Z</time>
      </trkpt>
      <trkpt lat="48.08071" lon="-3.58993">
        <ele>94.4</ele>
        <time>2025-02-25T09:05:53Z</time>
      </trkpt>
      <trkpt lat="48.08072" lon="-3.58994">
        <ele>94.4</ele>
        <time>2025-02-25T09:05:54Z</time>
      </trkpt>
      <trkpt lat="48.08072" lon="-3.58995">
        <ele>94.2</ele>
        <time>2025-02-25T09:05:55Z</time>
      </trkpt>
      <trkpt lat="48.08073" lon="-3.58996">
        <ele>94.2</ele>
        <time>2025-02-25T09:05:56Z</time>
      </trkpt>
      <trkpt lat="48.08074" lon="-3.58998">
        <ele>94</ele>
        <time>2025-02-25T09:05:57Z</time>
      </trkpt>
      <trkpt lat="48.08075" lon="-3.58999">
        <ele>94</ele>
        <time>2025-02-25T09:05:58Z</time>
      </trkpt>
      <trkpt lat="48.08076" lon="-3.59">
        <ele>93.9</ele>
        <time>2025-02-25T09:05:59Z</time>
      </trkpt>
      <trkpt lat="48.08076" lon="-3.59001">
        <ele>93.8</ele>
        <time>2025-02-25T09:06:00Z</time>
      </trkpt>
      <trkpt lat="48.08077" lon="-3.59002">
        <ele>93.8</ele>
        <time>2025-02-25T09:06:01Z</time>
      </trkpt>
      <trkpt lat="48.08078" lon="-3.59003">
        <ele>93.8</ele>
        <time>2025-02-25T09:06:02Z</time>
      </trkpt>
      <trkpt lat="48.08078" lon="-3.59006">
        <ele>93.5</ele>
        <time>2025-02-25T09:06:03Z</time>
      </trkpt>
      <trkpt lat="48.08078" lon="-3.59007">
        <ele>93.3</ele>
        <time>2025-02-25T09:06:04Z</time>
      </trkpt>
      <trkpt lat="48.08079" lon="-3.59009">
        <ele>93.2</ele>
        <time>2025-02-25T09:06:05Z</time>
      </trkpt>
      <trkpt lat="48.0808" lon="-3.5901">
        <ele>93.2</ele>
        <time>2025-02-25T09:06:06Z</time>
      </trkpt>
      <trkpt lat="48.08081" lon="-3.59011">
        <ele>93.1</ele>
        <time>2025-02-25T09:06:07Z</time>
      </trkpt>
      <trkpt lat="48.08081" lon="-3.59012">
        <ele>93</ele>
        <time>2025-02-25T09:06:08Z</time>
      </trkpt>
      <trkpt lat="48.08082" lon="-3.59013">
        <ele>93</ele>
        <time>2025-02-25T09:06:09Z</time>
      </trkpt>
      <trkpt lat="48.08082" lon="-3.59015">
        <ele>92.7</ele>
        <time>2025-02-25T09:06:10Z</time>
      </trkpt>
      <trkpt lat="48.08084" lon="-3.59015">
        <ele>93</ele>
        <time>2025-02-25T09:06:11Z</time>
      </trkpt>
      <trkpt lat="48.08084" lon="-3.59016">
        <ele>92.8</ele>
        <time>2025-02-25T09:06:12Z</time>
      </trkpt>
      <trkpt lat="48.08085" lon="-3.59017">
        <ele>92.9</ele>
        <time>2025-02-25T09:06:13Z</time>
      </trkpt>
      <trkpt lat="48.08086" lon="-3.59017">
        <ele>93.1</ele>
        <time>2025-02-25T09:06:14Z</time>
      </trkpt>
      <trkpt lat="48.08087" lon="-3.59018">
        <ele>93.2</ele>
        <time>2025-02-25T09:06:15Z</time>
      </trkpt>
      <trkpt lat="48.08088" lon="-3.59021">
        <ele>92.9</ele>
        <time>2025-02-25T09:06:16Z</time>
      </trkpt>
      <trkpt lat="48.08089" lon="-3.59022">
        <ele>92.9</ele>
        <time>2025-02-25T09:06:17Z</time>
      </trkpt>
      <trkpt lat="48.0809" lon="-3.59024">
        <ele>92.8</ele>
        <time>2025-02-25T09:06:18Z</time>
      </trkpt>
      <trkpt lat="48.08091" lon="-3.59026">
        <ele>92.7</ele>
        <time>2025-02-25T09:06:19Z</time>
      </trkpt>
      <trkpt lat="48.08092" lon="-3.59027">
        <ele>92.7</ele>
        <time>2025-02-25T09:06:20Z</time>
      </trkpt>
      <trkpt lat="48.08094" lon="-3.59028">
        <ele>92.9</ele>
        <time>2025-02-25T09:06:21Z</time>
      </trkpt>
      <trkpt lat="48.08095" lon="-3.5903">
        <ele>92.8</ele>
        <time>2025-02-25T09:06:22Z</time>
      </trkpt>
      <trkpt lat="48.08096" lon="-3.59031">
        <ele>92.9</ele>
        <time>2025-02-25T09:06:23Z</time>
      </trkpt>
      <trkpt lat="48.08098" lon="-3.59033">
        <ele>93</ele>
        <time>2025-02-25T09:06:24Z</time>
      </trkpt>
      <trkpt lat="48.08099" lon="-3.59033">
        <ele>93.1</ele>
        <time>2025-02-25T09:06:25Z</time>
      </trkpt>
      <trkpt lat="48.081" lon="-3.59034">
        <ele>93.1</ele>
        <time>2025-02-25T09:06:26Z</time>
      </trkpt>
      <trkpt lat="48.08101" lon="-3.59034">
        <ele>93.3</ele>
        <time>2025-02-25T09:06:27Z</time>
      </trkpt>
      <trkpt lat="48.08102" lon="-3.59035">
        <ele>93.3</ele>
        <time>2025-02-25T09:06:28Z</time>
      </trkpt>
      <trkpt lat="48.08103" lon="-3.59036">
        <ele>93.3</ele>
        <time>2025-02-25T09:06:29Z</time>
      </trkpt>
      <trkpt lat="48.08103" lon="-3.59037">
        <ele>93.2</ele>
        <time>2025-02-25T09:06:30Z</time>
      </trkpt>
      <trkpt lat="48.08104" lon="-3.59039">
        <ele>93</ele>
        <time>2025-02-25T09:06:31Z</time>
      </trkpt>
      <trkpt lat="48.08104" lon="-3.59039">
        <ele>93</ele>
        <time>2025-02-25T09:06:32Z</time>
      </trkpt>
      <trkpt lat="48.08104" lon="-3.5904">
        <ele>92.9</ele>
        <time>2025-02-25T09:06:33Z</time>
      </trkpt>
      <trkpt lat="48.08104" lon="-3.59041">
        <ele>92.7</ele>
        <time>2025-02-25T09:06:34Z</time>
      </trkpt>
      <trkpt lat="48.08105" lon="-3.59042">
        <ele>92.7</ele>
        <time>2025-02-25T09:06:35Z</time>
      </trkpt>
      <trkpt lat="48.08106" lon="-3.59042">
        <ele>92.8</ele>
        <time>2025-02-25T09:06:36Z</time>
      </trkpt>
      <trkpt lat="48.08107" lon="-3.59044">
        <ele>92.6</ele>
        <time>2025-02-25T09:06:37Z</time>
      </trkpt>
      <trkpt lat="48.08108" lon="-3.59045">
        <ele>92.5</ele>
        <time>2025-02-25T09:06:38Z</time>
      </trkpt>
      <trkpt lat="48.08109" lon="-3.59045">
        <ele>92.7</ele>
        <time>2025-02-25T09:06:39Z</time>
      </trkpt>
      <trkpt lat="48.08109" lon="-3.59047">
        <ele>92.3</ele>
        <time>2025-02-25T09:06:40Z</time>
      </trkpt>
      <trkpt lat="48.0811" lon="-3.59048">
        <ele>92.2</ele>
        <time>2025-02-25T09:06:41Z</time>
      </trkpt>
      <trkpt lat="48.08111" lon="-3.59049">
        <ele>92.2</ele>
        <time>2025-02-25T09:06:42Z</time>
      </trkpt>
      <trkpt lat="48.08112" lon="-3.5905">
        <ele>92.1</ele>
        <time>2025-02-25T09:06:43Z</time>
      </trkpt>
      <trkpt lat="48.08112" lon="-3.59051">
        <ele>91.9</ele>
        <time>2025-02-25T09:06:44Z</time>
      </trkpt>
      <trkpt lat="48.08113" lon="-3.59052">
        <ele>91.8</ele>
        <time>2025-02-25T09:06:45Z</time>
      </trkpt>
      <trkpt lat="48.08114" lon="-3.59053">
        <ele>91.7</ele>
        <time>2025-02-25T09:06:46Z</time>
      </trkpt>
      <trkpt lat="48.08114" lon="-3.59054">
        <ele>91.5</ele>
        <time>2025-02-25T09:06:47Z</time>
      </trkpt>
      <trkpt lat="48.08115" lon="-3.59055">
        <ele>91.4</ele>
        <time>2025-02-25T09:06:48Z</time>
      </trkpt>
      <trkpt lat="48.08116" lon="-3.59056">
        <ele>91.3</ele>
        <time>2025-02-25T09:06:49Z</time>
      </trkpt>
      <trkpt lat="48.08117" lon="-3.59057">
        <ele>91.2</ele>
        <time>2025-02-25T09:06:50Z</time>
      </trkpt>
      <trkpt lat="48.08117" lon="-3.59059">
        <ele>91</ele>
        <time>2025-02-25T09:06:51Z</time>
      </trkpt>
      <trkpt lat="48.08118" lon="-3.5906">
        <ele>90.9</ele>
        <time>2025-02-25T09:06:52Z</time>
      </trkpt>
      <trkpt lat="48.08119" lon="-3.5906">
        <ele>91</ele>
        <time>2025-02-25T09:06:53Z</time>
      </trkpt>
      <trkpt lat="48.08119" lon="-3.59061">
        <ele>90.9</ele>
        <time>2025-02-25T09:06:54Z</time>
      </trkpt>
      <trkpt lat="48.0812" lon="-3.59063">
        <ele>90.7</ele>
        <time>2025-02-25T09:06:55Z</time>
      </trkpt>
      <trkpt lat="48.0812" lon="-3.59065">
        <ele>90.4</ele>
        <time>2025-02-25T09:06:56Z</time>
      </trkpt>
      <trkpt lat="48.08121" lon="-3.59067">
        <ele>90.2</ele>
        <time>2025-02-25T09:06:57Z</time>
      </trkpt>
      <trkpt lat="48.08121" lon="-3.59068">
        <ele>90</ele>
        <time>2025-02-25T09:06:58Z</time>
      </trkpt>
      <trkpt lat="48.08122" lon="-3.59069">
        <ele>90</ele>
        <time>2025-02-25T09:06:59Z</time>
      </trkpt>
      <trkpt lat="48.08123" lon="-3.5907">
        <ele>89.9</ele>
        <time>2025-02-25T09:07:00Z</time>
      </trkpt>
      <trkpt lat="48.08124" lon="-3.59072">
        <ele>89.6</ele>
        <time>2025-02-25T09:07:01Z</time>
      </trkpt>
      <trkpt lat="48.08122" lon="-3.59074">
        <ele>89.3</ele>
        <time>2025-02-25T09:07:02Z</time>
      </trkpt>
      <trkpt lat="48.0812" lon="-3.59074">
        <ele>89.2</ele>
        <time>2025-02-25T09:07:03Z</time>
      </trkpt>
      <trkpt lat="48.0812" lon="-3.59074">
        <ele>89.2</ele>
        <time>2025-02-25T09:07:04Z</time>
      </trkpt>
      <trkpt lat="48.0812" lon="-3.59075">
        <ele>89.1</ele>
        <time>2025-02-25T09:07:05Z</time>
      </trkpt>
      <trkpt lat="48.08119" lon="-3.59077">
        <ele>88.8</ele>
        <time>2025-02-25T09:07:06Z</time>
      </trkpt>
      <trkpt lat="48.08119" lon="-3.59078">
        <ele>88.7</ele>
        <time>2025-02-25T09:07:07Z</time>
      </trkpt>
      <trkpt lat="48.08119" lon="-3.5908">
        <ele>88.4</ele>
        <time>2025-02-25T09:07:08Z</time>
      </trkpt>
      <trkpt lat="48.08121" lon="-3.59081">
        <ele>88.3</ele>
        <time>2025-02-25T09:07:09Z</time>
      </trkpt>
      <trkpt lat="48.08122" lon="-3.59083">
        <ele>88</ele>
        <time>2025-02-25T09:07:10Z</time>
      </trkpt>
      <trkpt lat="48.08123" lon="-3.59084">
        <ele>88</ele>
        <time>2025-02-25T09:07:11Z</time>
      </trkpt>
      <trkpt lat="48.08124" lon="-3.59084">
        <ele>88</ele>
        <time>2025-02-25T09:07:12Z</time>
      </trkpt>
      <trkpt lat="48.08125" lon="-3.59085">
        <ele>87.9</ele>
        <time>2025-02-25T09:07:13Z</time>
      </trkpt>
      <trkpt lat="48.08126" lon="-3.59086">
        <ele>87.9</ele>
        <time>2025-02-25T09:07:14Z</time>
      </trkpt>
      <trkpt lat="48.08127" lon="-3.59087">
        <ele>87.8</ele>
        <time>2025-02-25T09:07:15Z</time>
      </trkpt>
      <trkpt lat="48.08128" lon="-3.59088">
        <ele>87.7</ele>
        <time>2025-02-25T09:07:16Z</time>
      </trkpt>
      <trkpt lat="48.08129" lon="-3.59089">
        <ele>87.7</ele>
        <time>2025-02-25T09:07:17Z</time>
      </trkpt>
      <trkpt lat="48.0813" lon="-3.5909">
        <ele>87.6</ele>
        <time>2025-02-25T09:07:18Z</time>
      </trkpt>
      <trkpt lat="48.0813" lon="-3.59091">
        <ele>87.5</ele>
        <time>2025-02-25T09:07:19Z</time>
      </trkpt>
      <trkpt lat="48.08131" lon="-3.59091">
        <ele>87.5</ele>
        <time>2025-02-25T09:07:20Z</time>
      </trkpt>
      <trkpt lat="48.08132" lon="-3.59093">
        <ele>87.4</ele>
        <time>2025-02-25T09:07:21Z</time>
      </trkpt>
      <trkpt lat="48.08133" lon="-3.59094">
        <ele>87.3</ele>
        <time>2025-02-25T09:07:22Z</time>
      </trkpt>
      <trkpt lat="48.08133" lon="-3.59095">
        <ele>87.2</ele>
        <time>2025-02-25T09:07:23Z</time>
      </trkpt>
      <trkpt lat="48.08134" lon="-3.59096">
        <ele>87.2</ele>
        <time>2025-02-25T09:07:24Z</time>
      </trkpt>
      <trkpt lat="48.08134" lon="-3.59098">
        <ele>87</ele>
        <time>2025-02-25T09:07:25Z</time>
      </trkpt>
      <trkpt lat="48.08135" lon="-3.59099">
        <ele>87</ele>
        <time>2025-02-25T09:07:26Z</time>
      </trkpt>
      <trkpt lat="48.08135" lon="-3.591">
        <ele>86.9</ele>
        <time>2025-02-25T09:07:27Z</time>
      </trkpt>
      <trkpt lat="48.08136" lon="-3.59102">
        <ele>86.7</ele>
        <time>2025-02-25T09:07:28Z</time>
      </trkpt>
      <trkpt lat="48.08136" lon="-3.59103">
        <ele>86.7</ele>
        <time>2025-02-25T09:07:29Z</time>
      </trkpt>
      <trkpt lat="48.08137" lon="-3.59105">
        <ele>86.5</ele>
        <time>2025-02-25T09:07:30Z</time>
      </trkpt>
      <trkpt lat="48.08138" lon="-3.59107">
        <ele>86.3</ele>
        <time>2025-02-25T09:07:31Z</time>
      </trkpt>
      <trkpt lat="48.08138" lon="-3.59108">
        <ele>86.3</ele>
        <time>2025-02-25T09:07:32Z</time>
      </trkpt>
      <trkpt lat="48.0814" lon="-3.5911">
        <ele>86.1</ele>
        <time>2025-02-25T09:07:33Z</time>
      </trkpt>
      <trkpt lat="48.08141" lon="-3.59111">
        <ele>86</ele>
        <time>2025-02-25T09:07:34Z</time>
      </trkpt>
      <trkpt lat="48.08141" lon="-3.59112">
        <ele>86</ele>
        <time>2025-02-25T09:07:35Z</time>
      </trkpt>
      <trkpt lat="48.08142" lon="-3.59114">
        <ele>85.9</ele>
        <time>2025-02-25T09:07:36Z</time>
      </trkpt>
      <trkpt lat="48.08142" lon="-3.59116">
        <ele>85.8</ele>
        <time>2025-02-25T09:07:37Z</time>
      </trkpt>
      <trkpt lat="48.08143" lon="-3.59117">
        <ele>85.8</ele>
        <time>2025-02-25T09:07:38Z</time>
      </trkpt>
      <trkpt lat="48.08144" lon="-3.59118">
        <ele>85.8</ele>
        <time>2025-02-25T09:07:39Z</time>
      </trkpt>
      <trkpt lat="48.08145" lon="-3.59119">
        <ele>85.8</ele>
        <time>2025-02-25T09:07:40Z</time>
      </trkpt>
      <trkpt lat="48.08146" lon="-3.5912">
        <ele>85.8</ele>
        <time>2025-02-25T09:07:41Z</time>
      </trkpt>
      <trkpt lat="48.08147" lon="-3.5912">
        <ele>85.8</ele>
        <time>2025-02-25T09:07:42Z</time>
      </trkpt>
      <trkpt lat="48.08147" lon="-3.59121">
        <ele>85.7</ele>
        <time>2025-02-25T09:07:43Z</time>
      </trkpt>
      <trkpt lat="48.08147" lon="-3.59123">
        <ele>85.7</ele>
        <time>2025-02-25T09:07:44Z</time>
      </trkpt>
      <trkpt lat="48.08147" lon="-3.59124">
        <ele>85.7</ele>
        <time>2025-02-25T09:07:45Z</time>
      </trkpt>
      <trkpt lat="48.08148" lon="-3.59126">
        <ele>85.6</ele>
        <time>2025-02-25T09:07:46Z</time>
      </trkpt>
      <trkpt lat="48.08149" lon="-3.59126">
        <ele>85.7</ele>
        <time>2025-02-25T09:07:47Z</time>
      </trkpt>
      <trkpt lat="48.08149" lon="-3.59127">
        <ele>85.6</ele>
        <time>2025-02-25T09:07:48Z</time>
      </trkpt>
      <trkpt lat="48.0815" lon="-3.59129">
        <ele>85.6</ele>
        <time>2025-02-25T09:07:49Z</time>
      </trkpt>
      <trkpt lat="48.08151" lon="-3.59129">
        <ele>85.6</ele>
        <time>2025-02-25T09:07:50Z</time>
      </trkpt>
      <trkpt lat="48.08151" lon="-3.5913">
        <ele>85.6</ele>
        <time>2025-02-25T09:07:51Z</time>
      </trkpt>
      <trkpt lat="48.08152" lon="-3.5913">
        <ele>85.6</ele>
        <time>2025-02-25T09:07:52Z</time>
      </trkpt>
      <trkpt lat="48.08152" lon="-3.59131">
        <ele>85.6</ele>
        <time>2025-02-25T09:07:53Z</time>
      </trkpt>
      <trkpt lat="48.08153" lon="-3.5913">
        <ele>85.7</ele>
        <time>2025-02-25T09:07:54Z</time>
      </trkpt>
      <trkpt lat="48.08153" lon="-3.5913">
        <ele>85.7</ele>
        <time>2025-02-25T09:07:55Z</time>
      </trkpt>
      <trkpt lat="48.08153" lon="-3.5913">
        <ele>85.7</ele>
        <time>2025-02-25T09:07:56Z</time>
      </trkpt>
      <trkpt lat="48.08154" lon="-3.59131">
        <ele>85.7</ele>
        <time>2025-02-25T09:07:57Z</time>
      </trkpt>
      <trkpt lat="48.08155" lon="-3.59131">
        <ele>85.7</ele>
        <time>2025-02-25T09:07:58Z</time>
      </trkpt>
      <trkpt lat="48.08155" lon="-3.59131">
        <ele>85.7</ele>
        <time>2025-02-25T09:07:59Z</time>
      </trkpt>
      <trkpt lat="48.08155" lon="-3.59131">
        <ele>85.7</ele>
        <time>2025-02-25T09:08:00Z</time>
      </trkpt>
      <trkpt lat="48.08155" lon="-3.59132">
        <ele>85.7</ele>
        <time>2025-02-25T09:08:01Z</time>
      </trkpt>
      <trkpt lat="48.08155" lon="-3.59131">
        <ele>85.7</ele>
        <time>2025-02-25T09:08:02Z</time>
      </trkpt>
      <trkpt lat="48.08156" lon="-3.59132">
        <ele>85.7</ele>
        <time>2025-02-25T09:08:03Z</time>
      </trkpt>
      <trkpt lat="48.08156" lon="-3.59133">
        <ele>85.7</ele>
        <time>2025-02-25T09:08:04Z</time>
      </trkpt>
      <trkpt lat="48.08156" lon="-3.59134">
        <ele>85.7</ele>
        <time>2025-02-25T09:08:05Z</time>
      </trkpt>
      <trkpt lat="48.08156" lon="-3.59135">
        <ele>85.7</ele>
        <time>2025-02-25T09:08:06Z</time>
      </trkpt>
      <trkpt lat="48.08156" lon="-3.59136">
        <ele>85.7</ele>
        <time>2025-02-25T09:08:07Z</time>
      </trkpt>
      <trkpt lat="48.08157" lon="-3.59136">
        <ele>85.7</ele>
        <time>2025-02-25T09:08:08Z</time>
      </trkpt>
      <trkpt lat="48.08158" lon="-3.59137">
        <ele>85.7</ele>
        <time>2025-02-25T09:08:09Z</time>
      </trkpt>
      <trkpt lat="48.08158" lon="-3.59137">
        <ele>85.7</ele>
        <time>2025-02-25T09:08:10Z</time>
      </trkpt>
      <trkpt lat="48.08159" lon="-3.59138">
        <ele>85.7</ele>
        <time>2025-02-25T09:08:11Z</time>
      </trkpt>
      <trkpt lat="48.08159" lon="-3.59139">
        <ele>85.7</ele>
        <time>2025-02-25T09:08:12Z</time>
      </trkpt>
      <trkpt lat="48.0816" lon="-3.59141">
        <ele>85.8</ele>
        <time>2025-02-25T09:08:13Z</time>
      </trkpt>
      <trkpt lat="48.0816" lon="-3.59141">
        <ele>85.8</ele>
        <time>2025-02-25T09:08:14Z</time>
      </trkpt>
      <trkpt lat="48.0816" lon="-3.59143">
        <ele>85.9</ele>
        <time>2025-02-25T09:08:15Z</time>
      </trkpt>
      <trkpt lat="48.08161" lon="-3.59144">
        <ele>85.9</ele>
        <time>2025-02-25T09:08:16Z</time>
      </trkpt>
      <trkpt lat="48.08161" lon="-3.59146">
        <ele>86</ele>
        <time>2025-02-25T09:08:17Z</time>
      </trkpt>
      <trkpt lat="48.08161" lon="-3.59148">
        <ele>86.1</ele>
        <time>2025-02-25T09:08:18Z</time>
      </trkpt>
      <trkpt lat="48.08161" lon="-3.59149">
        <ele>86.1</ele>
        <time>2025-02-25T09:08:19Z</time>
      </trkpt>
      <trkpt lat="48.08161" lon="-3.5915">
        <ele>86.1</ele>
        <time>2025-02-25T09:08:20Z</time>
      </trkpt>
      <trkpt lat="48.08161" lon="-3.59151">
        <ele>86.1</ele>
        <time>2025-02-25T09:08:21Z</time>
      </trkpt>
      <trkpt lat="48.08161" lon="-3.59152">
        <ele>86.2</ele>
        <time>2025-02-25T09:08:22Z</time>
      </trkpt>
      <trkpt lat="48.08161" lon="-3.59153">
        <ele>86.2</ele>
        <time>2025-02-25T09:08:23Z</time>
      </trkpt>
      <trkpt lat="48.0816" lon="-3.59153">
        <ele>86.1</ele>
        <time>2025-02-25T09:08:24Z</time>
      </trkpt>
      <trkpt lat="48.08159" lon="-3.59154">
        <ele>86.1</ele>
        <time>2025-02-25T09:08:25Z</time>
      </trkpt>
      <trkpt lat="48.08158" lon="-3.59154">
        <ele>86.1</ele>
        <time>2025-02-25T09:08:26Z</time>
      </trkpt>
      <trkpt lat="48.08158" lon="-3.59154">
        <ele>86.1</ele>
        <time>2025-02-25T09:08:27Z</time>
      </trkpt>
      <trkpt lat="48.08158" lon="-3.59154">
        <ele>86.1</ele>
        <time>2025-02-25T09:08:28Z</time>
      </trkpt>
      <trkpt lat="48.08158" lon="-3.59154">
        <ele>86.1</ele>
        <time>2025-02-25T09:08:29Z</time>
      </trkpt>
      <trkpt lat="48.08158" lon="-3.59153">
        <ele>86</ele>
        <time>2025-02-25T09:08:30Z</time>
      </trkpt>
      <trkpt lat="48.08158" lon="-3.59153">
        <ele>86</ele>
        <time>2025-02-25T09:08:31Z</time>
      </trkpt>
      <trkpt lat="48.08158" lon="-3.59153">
        <ele>86</ele>
        <time>2025-02-25T09:08:32Z</time>
      </trkpt>
      <trkpt lat="48.08158" lon="-3.59153">
        <ele>86</ele>
        <time>2025-02-25T09:08:33Z</time>
      </trkpt>
      <trkpt lat="48.08157" lon="-3.59153">
        <ele>86</ele>
        <time>2025-02-25T09:08:34Z</time>
      </trkpt>
      <trkpt lat="48.08157" lon="-3.59153">
        <ele>86</ele>
        <time>2025-02-25T09:08:35Z</time>
      </trkpt>
      <trkpt lat="48.08157" lon="-3.59153">
        <ele>86</ele>
        <time>2025-02-25T09:08:36Z</time>
      </trkpt>
      <trkpt lat="48.08157" lon="-3.59153">
        <ele>86</ele>
        <time>2025-02-25T09:08:37Z</time>
      </trkpt>
      <trkpt lat="48.08157" lon="-3.59153">
        <ele>86</ele>
        <time>2025-02-25T09:08:38Z</time>
      </trkpt>
      <trkpt lat="48.08157" lon="-3.59153">
        <ele>86</ele>
        <time>2025-02-25T09:08:39Z</time>
      </trkpt>
      <trkpt lat="48.08157" lon="-3.59153">
        <ele>86</ele>
        <time>2025-02-25T09:08:40Z</time>
      </trkpt>
      <trkpt lat="48.08157" lon="-3.59153">
        <ele>86</ele>
        <time>2025-02-25T09:08:41Z</time>
      </trkpt>
      <trkpt lat="48.08157" lon="-3.59153">
        <ele>86</ele>
        <time>2025-02-25T09:08:42Z</time>
      </trkpt>
      <trkpt lat="48.08157" lon="-3.59153">
        <ele>86</ele>
        <time>2025-02-25T09:08:43Z</time>
      </trkpt>
      <trkpt lat="48.08157" lon="-3.59153">
        <ele>86</ele>
        <time>2025-02-25T09:08:44Z</time>
      </trkpt>
      <trkpt lat="48.08157" lon="-3.59153">
        <ele>86</ele>
        <time>2025-02-25T09:08:45Z</time>
      </trkpt>
      <trkpt lat="48.08157" lon="-3.59153">
        <ele>86</ele>
        <time>2025-02-25T09:08:46Z</time>
      </trkpt>
      <trkpt lat="48.08158" lon="-3.59151">
        <ele>86</ele>
        <time>2025-02-25T09:08:47Z</time>
      </trkpt>
      <trkpt lat="48.08158" lon="-3.5915">
        <ele>86</ele>
        <time>2025-02-25T09:08:48Z</time>
      </trkpt>
      <trkpt lat="48.08159" lon="-3.5915">
        <ele>86</ele>
        <time>2025-02-25T09:08:49Z</time>
      </trkpt>
      <trkpt lat="48.08159" lon="-3.59149">
        <ele>86</ele>
        <time>2025-02-25T09:08:50Z</time>
      </trkpt>
      <trkpt lat="48.08158" lon="-3.59149">
        <ele>85.9</ele>
        <time>2025-02-25T09:08:51Z</time>
      </trkpt>
      <trkpt lat="48.08157" lon="-3.5915">
        <ele>85.9</ele>
        <time>2025-02-25T09:08:52Z</time>
      </trkpt>
      <trkpt lat="48.08155" lon="-3.5915">
        <ele>85.8</ele>
        <time>2025-02-25T09:08:53Z</time>
      </trkpt>
      <trkpt lat="48.08154" lon="-3.59152">
        <ele>85.8</ele>
        <time>2025-02-25T09:08:54Z</time>
      </trkpt>
      <trkpt lat="48.08155" lon="-3.59154">
        <ele>85.9</ele>
        <time>2025-02-25T09:08:55Z</time>
      </trkpt>
      <trkpt lat="48.08155" lon="-3.59155">
        <ele>85.9</ele>
        <time>2025-02-25T09:08:56Z</time>
      </trkpt>
      <trkpt lat="48.08155" lon="-3.59157">
        <ele>86</ele>
        <time>2025-02-25T09:08:57Z</time>
      </trkpt>
      <trkpt lat="48.08155" lon="-3.59158">
        <ele>86</ele>
        <time>2025-02-25T09:08:58Z</time>
      </trkpt>
      <trkpt lat="48.08156" lon="-3.5916">
        <ele>86.1</ele>
        <time>2025-02-25T09:08:59Z</time>
      </trkpt>
      <trkpt lat="48.08156" lon="-3.59161">
        <ele>86.1</ele>
        <time>2025-02-25T09:09:00Z</time>
      </trkpt>
      <trkpt lat="48.08158" lon="-3.59161">
        <ele>86.2</ele>
        <time>2025-02-25T09:09:01Z</time>
      </trkpt>
      <trkpt lat="48.0816" lon="-3.5916">
        <ele>86.3</ele>
        <time>2025-02-25T09:09:02Z</time>
      </trkpt>
      <trkpt lat="48.08161" lon="-3.5916">
        <ele>86.4</ele>
        <time>2025-02-25T09:09:03Z</time>
      </trkpt>
      <trkpt lat="48.08162" lon="-3.5916">
        <ele>86.5</ele>
        <time>2025-02-25T09:09:04Z</time>
      </trkpt>
      <trkpt lat="48.08162" lon="-3.59161">
        <ele>86.5</ele>
        <time>2025-02-25T09:09:05Z</time>
      </trkpt>
      <trkpt lat="48.08163" lon="-3.59162">
        <ele>86.6</ele>
        <time>2025-02-25T09:09:06Z</time>
      </trkpt>
      <trkpt lat="48.08164" lon="-3.59163">
        <ele>86.7</ele>
        <time>2025-02-25T09:09:07Z</time>
      </trkpt>
      <trkpt lat="48.08164" lon="-3.59165">
        <ele>86.8</ele>
        <time>2025-02-25T09:09:08Z</time>
      </trkpt>
      <trkpt lat="48.08164" lon="-3.59166">
        <ele>86.8</ele>
        <time>2025-02-25T09:09:09Z</time>
      </trkpt>
      <trkpt lat="48.08164" lon="-3.59167">
        <ele>86.8</ele>
        <time>2025-02-25T09:09:10Z</time>
      </trkpt>
      <trkpt lat="48.08165" lon="-3.59167">
        <ele>86.9</ele>
        <time>2025-02-25T09:09:11Z</time>
      </trkpt>
      <trkpt lat="48.08165" lon="-3.59168">
        <ele>86.9</ele>
        <time>2025-02-25T09:09:12Z</time>
      </trkpt>
      <trkpt lat="48.08166" lon="-3.59168">
        <ele>87</ele>
        <time>2025-02-25T09:09:13Z</time>
      </trkpt>
      <trkpt lat="48.08167" lon="-3.59169">
        <ele>87.1</ele>
        <time>2025-02-25T09:09:14Z</time>
      </trkpt>
      <trkpt lat="48.08167" lon="-3.59169">
        <ele>87.1</ele>
        <time>2025-02-25T09:09:15Z</time>
      </trkpt>
      <trkpt lat="48.08168" lon="-3.59169">
        <ele>87.3</ele>
        <time>2025-02-25T09:09:16Z</time>
      </trkpt>
      <trkpt lat="48.08169" lon="-3.59169">
        <ele>87.4</ele>
        <time>2025-02-25T09:09:17Z</time>
      </trkpt>
      <trkpt lat="48.08169" lon="-3.59169">
        <ele>87.4</ele>
        <time>2025-02-25T09:09:18Z</time>
      </trkpt>
      <trkpt lat="48.0817" lon="-3.59169">
        <ele>87.6</ele>
        <time>2025-02-25T09:09:19Z</time>
      </trkpt>
      <trkpt lat="48.0817" lon="-3.59169">
        <ele>87.6</ele>
        <time>2025-02-25T09:09:20Z</time>
      </trkpt>
      <trkpt lat="48.08171" lon="-3.5917">
        <ele>87.7</ele>
        <time>2025-02-25T09:09:21Z</time>
      </trkpt>
      <trkpt lat="48.08172" lon="-3.5917">
        <ele>87.9</ele>
        <time>2025-02-25T09:09:22Z</time>
      </trkpt>
      <trkpt lat="48.08172" lon="-3.59171">
        <ele>87.9</ele>
        <time>2025-02-25T09:09:23Z</time>
      </trkpt>
      <trkpt lat="48.08173" lon="-3.59172">
        <ele>88.1</ele>
        <time>2025-02-25T09:09:24Z</time>
      </trkpt>
      <trkpt lat="48.08174" lon="-3.59172">
        <ele>88.2</ele>
        <time>2025-02-25T09:09:25Z</time>
      </trkpt>
      <trkpt lat="48.08175" lon="-3.59171">
        <ele>88.4</ele>
        <time>2025-02-25T09:09:26Z</time>
      </trkpt>
      <trkpt lat="48.08175" lon="-3.5917">
        <ele>88.3</ele>
        <time>2025-02-25T09:09:27Z</time>
      </trkpt>
      <trkpt lat="48.08175" lon="-3.5917">
        <ele>88.3</ele>
        <time>2025-02-25T09:09:28Z</time>
      </trkpt>
      <trkpt lat="48.08176" lon="-3.59169">
        <ele>88.4</ele>
        <time>2025-02-25T09:09:29Z</time>
      </trkpt>
      <trkpt lat="48.08176" lon="-3.59168">
        <ele>88.4</ele>
        <time>2025-02-25T09:09:30Z</time>
      </trkpt>
      <trkpt lat="48.08177" lon="-3.59168">
        <ele>88.5</ele>
        <time>2025-02-25T09:09:31Z</time>
      </trkpt>
      <trkpt lat="48.08177" lon="-3.59168">
        <ele>88.5</ele>
        <time>2025-02-25T09:09:32Z</time>
      </trkpt>
      <trkpt lat="48.08177" lon="-3.59168">
        <ele>88.5</ele>
        <time>2025-02-25T09:09:33Z</time>
      </trkpt>
      <trkpt lat="48.08177" lon="-3.59168">
        <ele>88.5</ele>
        <time>2025-02-25T09:09:34Z</time>
      </trkpt>
      <trkpt lat="48.08177" lon="-3.59168">
        <ele>88.5</ele>
        <time>2025-02-25T09:09:35Z</time>
      </trkpt>
      <trkpt lat="48.08177" lon="-3.59168">
        <ele>88.5</ele>
        <time>2025-02-25T09:09:36Z</time>
      </trkpt>
      <trkpt lat="48.08177" lon="-3.59168">
        <ele>88.5</ele>
        <time>2025-02-25T09:09:37Z</time>
      </trkpt>
      <trkpt lat="48.08177" lon="-3.59168">
        <ele>88.5</ele>
        <time>2025-02-25T09:09:38Z</time>
      </trkpt>
      <trkpt lat="48.08177" lon="-3.59168">
        <ele>88.5</ele>
        <time>2025-02-25T09:09:39Z</time>
      </trkpt>
      <trkpt lat="48.08177" lon="-3.59168">
        <ele>88.5</ele>
        <time>2025-02-25T09:09:40Z</time>
      </trkpt>
      <trkpt lat="48.08177" lon="-3.59168">
        <ele>88.5</ele>
        <time>2025-02-25T09:09:41Z</time>
      </trkpt>
      <trkpt lat="48.08177" lon="-3.59168">
        <ele>88.5</ele>
        <time>2025-02-25T09:09:42Z</time>
      </trkpt>
      <trkpt lat="48.08177" lon="-3.59168">
        <ele>88.5</ele>
        <time>2025-02-25T09:09:43Z</time>
      </trkpt>
      <trkpt lat="48.08178" lon="-3.59168">
        <ele>88.7</ele>
        <time>2025-02-25T09:09:44Z</time>
      </trkpt>
      <trkpt lat="48.08178" lon="-3.59168">
        <ele>88.7</ele>
        <time>2025-02-25T09:09:45Z</time>
      </trkpt>
      <trkpt lat="48.08177" lon="-3.59167">
        <ele>88.5</ele>
        <time>2025-02-25T09:09:46Z</time>
      </trkpt>
      <trkpt lat="48.08177" lon="-3.59167">
        <ele>88.5</ele>
        <time>2025-02-25T09:09:47Z</time>
      </trkpt>
      <trkpt lat="48.08177" lon="-3.59167">
        <ele>88.5</ele>
        <time>2025-02-25T09:09:48Z</time>
      </trkpt>
      <trkpt lat="48.08177" lon="-3.59167">
        <ele>88.5</ele>
        <time>2025-02-25T09:09:49Z</time>
      </trkpt>
      <trkpt lat="48.08177" lon="-3.59167">
        <ele>88.5</ele>
        <time>2025-02-25T09:09:50Z</time>
      </trkpt>
      <trkpt lat="48.08177" lon="-3.59167">
        <ele>88.5</ele>
        <time>2025-02-25T09:09:51Z</time>
      </trkpt>
      <trkpt lat="48.08177" lon="-3.59168">
        <ele>88.5</ele>
        <time>2025-02-25T09:09:52Z</time>
      </trkpt>
      <trkpt lat="48.08177" lon="-3.59167">
        <ele>88.5</ele>
        <time>2025-02-25T09:09:53Z</time>
      </trkpt>
      <trkpt lat="48.08177" lon="-3.59167">
        <ele>88.5</ele>
        <time>2025-02-25T09:09:54Z</time>
      </trkpt>
      <trkpt lat="48.08176" lon="-3.59167">
        <ele>88.4</ele>
        <time>2025-02-25T09:09:55Z</time>
      </trkpt>
      <trkpt lat="48.08176" lon="-3.59167">
        <ele>88.4</ele>
        <time>2025-02-25T09:09:56Z</time>
      </trkpt>
      <trkpt lat="48.08176" lon="-3.59167">
        <ele>88.4</ele>
        <time>2025-02-25T09:09:57Z</time>
      </trkpt>
      <trkpt lat="48.08176" lon="-3.59167">
        <ele>88.4</ele>
        <time>2025-02-25T09:09:58Z</time>
      </trkpt>
      <trkpt lat="48.08176" lon="-3.59167">
        <ele>88.4</ele>
        <time>2025-02-25T09:09:59Z</time>
      </trkpt>
      <trkpt lat="48.08176" lon="-3.59167">
        <ele>88.4</ele>
        <time>2025-02-25T09:10:00Z</time>
      </trkpt>
      <trkpt lat="48.08176" lon="-3.59167">
        <ele>88.4</ele>
        <time>2025-02-25T09:10:01Z</time>
      </trkpt>
      <trkpt lat="48.08176" lon="-3.59167">
        <ele>88.4</ele>
        <time>2025-02-25T09:10:02Z</time>
      </trkpt>
      <trkpt lat="48.08176" lon="-3.59167">
        <ele>88.4</ele>
        <time>2025-02-25T09:10:03Z</time>
      </trkpt>
      <trkpt lat="48.08176" lon="-3.59167">
        <ele>88.4</ele>
        <time>2025-02-25T09:10:04Z</time>
      </trkpt>
      <trkpt lat="48.08176" lon="-3.59167">
        <ele>88.4</ele>
        <time>2025-02-25T09:10:05Z</time>
      </trkpt>
      <trkpt lat="48.08176" lon="-3.59167">
        <ele>88.4</ele>
        <time>2025-02-25T09:10:06Z</time>
      </trkpt>
      <trkpt lat="48.08176" lon="-3.59167">
        <ele>88.4</ele>
        <time>2025-02-25T09:10:07Z</time>
      </trkpt>
      <trkpt lat="48.08176" lon="-3.59167">
        <ele>88.4</ele>
        <time>2025-02-25T09:10:08Z</time>
      </trkpt>
      <trkpt lat="48.08176" lon="-3.59167">
        <ele>88.4</ele>
        <time>2025-02-25T09:10:09Z</time>
      </trkpt>
      <trkpt lat="48.08176" lon="-3.59167">
        <ele>88.4</ele>
        <time>2025-02-25T09:10:10Z</time>
      </trkpt>
      <trkpt lat="48.08176" lon="-3.59167">
        <ele>88.4</ele>
        <time>2025-02-25T09:10:11Z</time>
      </trkpt>
      <trkpt lat="48.08176" lon="-3.59167">
        <ele>88.4</ele>
        <time>2025-02-25T09:10:12Z</time>
      </trkpt>
      <trkpt lat="48.08176" lon="-3.59167">
        <ele>88.4</ele>
        <time>2025-02-25T09:10:13Z</time>
      </trkpt>
      <trkpt lat="48.08176" lon="-3.59167">
        <ele>88.4</ele>
        <time>2025-02-25T09:10:14Z</time>
      </trkpt>
      <trkpt lat="48.08176" lon="-3.59167">
        <ele>88.4</ele>
        <time>2025-02-25T09:10:15Z</time>
      </trkpt>
      <trkpt lat="48.08176" lon="-3.59167">
        <ele>88.4</ele>
        <time>2025-02-25T09:10:16Z</time>
      </trkpt>
      <trkpt lat="48.08176" lon="-3.59167">
        <ele>88.4</ele>
        <time>2025-02-25T09:10:17Z</time>
      </trkpt>
      <trkpt lat="48.08176" lon="-3.59167">
        <ele>88.4</ele>
        <time>2025-02-25T09:10:18Z</time>
      </trkpt>
      <trkpt lat="48.08176" lon="-3.59167">
        <ele>88.4</ele>
        <time>2025-02-25T09:10:19Z</time>
      </trkpt>
      <trkpt lat="48.08176" lon="-3.59167">
        <ele>88.4</ele>
        <time>2025-02-25T09:10:20Z</time>
      </trkpt>
      <trkpt lat="48.08176" lon="-3.59167">
        <ele>88.4</ele>
        <time>2025-02-25T09:10:21Z</time>
      </trkpt>
      <trkpt lat="48.08176" lon="-3.59167">
        <ele>88.4</ele>
        <time>2025-02-25T09:10:22Z</time>
      </trkpt>
      <trkpt lat="48.08176" lon="-3.59167">
        <ele>88.4</ele>
        <time>2025-02-25T09:10:23Z</time>
      </trkpt>
      <trkpt lat="48.08176" lon="-3.59167">
        <ele>88.4</ele>
        <time>2025-02-25T09:10:24Z</time>
      </trkpt>
      <trkpt lat="48.08176" lon="-3.59167">
        <ele>88.4</ele>
        <time>2025-02-25T09:10:25Z</time>
      </trkpt>
      <trkpt lat="48.08176" lon="-3.59168">
        <ele>88.4</ele>
        <time>2025-02-25T09:10:26Z</time>
      </trkpt>
      <trkpt lat="48.08176" lon="-3.59168">
        <ele>88.4</ele>
        <time>2025-02-25T09:10:27Z</time>
      </trkpt>
      <trkpt lat="48.08176" lon="-3.59168">
        <ele>88.4</ele>
        <time>2025-02-25T09:10:28Z</time>
      </trkpt>
      <trkpt lat="48.08176" lon="-3.59168">
        <ele>88.4</ele>
        <time>2025-02-25T09:10:29Z</time>
      </trkpt>
      <trkpt lat="48.08176" lon="-3.59168">
        <ele>88.4</ele>
        <time>2025-02-25T09:10:30Z</time>
      </trkpt>
      <trkpt lat="48.08176" lon="-3.59168">
        <ele>88.4</ele>
        <time>2025-02-25T09:10:31Z</time>
      </trkpt>
      <trkpt lat="48.08176" lon="-3.59168">
        <ele>88.4</ele>
        <time>2025-02-25T09:10:32Z</time>
      </trkpt>
      <trkpt lat="48.08176" lon="-3.59168">
        <ele>88.4</ele>
        <time>2025-02-25T09:10:33Z</time>
      </trkpt>
      <trkpt lat="48.08176" lon="-3.59168">
        <ele>88.4</ele>
        <time>2025-02-25T09:10:34Z</time>
      </trkpt>
      <trkpt lat="48.08176" lon="-3.59168">
        <ele>88.4</ele>
        <time>2025-02-25T09:10:35Z</time>
      </trkpt>
      <trkpt lat="48.08176" lon="-3.59168">
        <ele>88.4</ele>
        <time>2025-02-25T09:10:36Z</time>
      </trkpt>
      <trkpt lat="48.08176" lon="-3.59168">
        <ele>88.4</ele>
        <time>2025-02-25T09:10:37Z</time>
      </trkpt>
      <trkpt lat="48.08176" lon="-3.59168">
        <ele>88.4</ele>
        <time>2025-02-25T09:10:38Z</time>
      </trkpt>
      <trkpt lat="48.08176" lon="-3.59168">
        <ele>88.4</ele>
        <time>2025-02-25T09:10:39Z</time>
      </trkpt>
      <trkpt lat="48.08176" lon="-3.59168">
        <ele>88.4</ele>
        <time>2025-02-25T09:10:40Z</time>
      </trkpt>
      <trkpt lat="48.08176" lon="-3.59168">
        <ele>88.4</ele>
        <time>2025-02-25T09:10:41Z</time>
      </trkpt>
      <trkpt lat="48.08176" lon="-3.59168">
        <ele>88.4</ele>
        <time>2025-02-25T09:10:42Z</time>
      </trkpt>
      <trkpt lat="48.08176" lon="-3.59167">
        <ele>88.4</ele>
        <time>2025-02-25T09:10:43Z</time>
      </trkpt>
      <trkpt lat="48.08176" lon="-3.59167">
        <ele>88.4</ele>
        <time>2025-02-25T09:10:44Z</time>
      </trkpt>
      <trkpt lat="48.08176" lon="-3.59167">
        <ele>88.4</ele>
        <time>2025-02-25T09:10:45Z</time>
      </trkpt>
      <trkpt lat="48.08176" lon="-3.59167">
        <ele>88.4</ele>
        <time>2025-02-25T09:10:46Z</time>
      </trkpt>
      <trkpt lat="48.08176" lon="-3.59167">
        <ele>88.4</ele>
        <time>2025-02-25T09:10:47Z</time>
      </trkpt>
      <trkpt lat="48.08176" lon="-3.59167">
        <ele>88.4</ele>
        <time>2025-02-25T09:10:48Z</time>
      </trkpt>
      <trkpt lat="48.08176" lon="-3.59167">
        <ele>88.4</ele>
        <time>2025-02-25T09:10:49Z</time>
      </trkpt>
      <trkpt lat="48.08176" lon="-3.59167">
        <ele>88.4</ele>
        <time>2025-02-25T09:10:50Z</time>
      </trkpt>
      <trkpt lat="48.08176" lon="-3.59167">
        <ele>88.4</ele>
        <time>2025-02-25T09:10:51Z</time>
      </trkpt>
      <trkpt lat="48.08176" lon="-3.59167">
        <ele>88.4</ele>
        <time>2025-02-25T09:10:52Z</time>
      </trkpt>
      <trkpt lat="48.08176" lon="-3.59167">
        <ele>88.4</ele>
        <time>2025-02-25T09:10:53Z</time>
      </trkpt>
      <trkpt lat="48.08177" lon="-3.59168">
        <ele>88.5</ele>
        <time>2025-02-25T09:10:54Z</time>
      </trkpt>
      <trkpt lat="48.08177" lon="-3.59168">
        <ele>88.5</ele>
        <time>2025-02-25T09:10:55Z</time>
      </trkpt>
      <trkpt lat="48.08177" lon="-3.59168">
        <ele>88.5</ele>
        <time>2025-02-25T09:10:56Z</time>
      </trkpt>
      <trkpt lat="48.08177" lon="-3.59168">
        <ele>88.5</ele>
        <time>2025-02-25T09:10:57Z</time>
      </trkpt>
      <trkpt lat="48.08177" lon="-3.59168">
        <ele>88.5</ele>
        <time>2025-02-25T09:10:58Z</time>
      </trkpt>
      <trkpt lat="48.08177" lon="-3.59168">
        <ele>88.5</ele>
        <time>2025-02-25T09:10:59Z</time>
      </trkpt>
      <trkpt lat="48.08177" lon="-3.59168">
        <ele>88.5</ele>
        <time>2025-02-25T09:11:00Z</time>
      </trkpt>
      <trkpt lat="48.08176" lon="-3.59169">
        <ele>88.4</ele>
        <time>2025-02-25T09:11:01Z</time>
      </trkpt>
      <trkpt lat="48.08176" lon="-3.59168">
        <ele>88.4</ele>
        <time>2025-02-25T09:11:02Z</time>
      </trkpt>
      <trkpt lat="48.08177" lon="-3.59168">
        <ele>88.5</ele>
        <time>2025-02-25T09:11:03Z</time>
      </trkpt>
      <trkpt lat="48.08177" lon="-3.59168">
        <ele>88.5</ele>
        <time>2025-02-25T09:11:04Z</time>
      </trkpt>
      <trkpt lat="48.08177" lon="-3.59168">
        <ele>88.5</ele>
        <time>2025-02-25T09:11:05Z</time>
      </trkpt>
      <trkpt lat="48.08177" lon="-3.59168">
        <ele>88.5</ele>
        <time>2025-02-25T09:11:06Z</time>
      </trkpt>
      <trkpt lat="48.08177" lon="-3.59168">
        <ele>88.5</ele>
        <time>2025-02-25T09:11:07Z</time>
      </trkpt>
      <trkpt lat="48.08176" lon="-3.59168">
        <ele>88.4</ele>
        <time>2025-02-25T09:11:08Z</time>
      </trkpt>
      <trkpt lat="48.08176" lon="-3.59167">
        <ele>88.4</ele>
        <time>2025-02-25T09:11:09Z</time>
      </trkpt>
      <trkpt lat="48.08176" lon="-3.59167">
        <ele>88.4</ele>
        <time>2025-02-25T09:11:10Z</time>
      </trkpt>
      <trkpt lat="48.08176" lon="-3.59167">
        <ele>88.4</ele>
        <time>2025-02-25T09:11:11Z</time>
      </trkpt>
      <trkpt lat="48.08176" lon="-3.59167">
        <ele>88.4</ele>
        <time>2025-02-25T09:11:12Z</time>
      </trkpt>
      <trkpt lat="48.08176" lon="-3.59167">
        <ele>88.4</ele>
        <time>2025-02-25T09:11:13Z</time>
      </trkpt>
      <trkpt lat="48.08176" lon="-3.59167">
        <ele>88.4</ele>
        <time>2025-02-25T09:11:14Z</time>
      </trkpt>
      <trkpt lat="48.08176" lon="-3.59167">
        <ele>88.4</ele>
        <time>2025-02-25T09:11:15Z</time>
      </trkpt>
      <trkpt lat="48.08176" lon="-3.59167">
        <ele>88.4</ele>
        <time>2025-02-25T09:11:16Z</time>
      </trkpt>
      <trkpt lat="48.08176" lon="-3.59167">
        <ele>88.4</ele>
        <time>2025-02-25T09:11:17Z</time>
      </trkpt>
      <trkpt lat="48.08176" lon="-3.59167">
        <ele>88.4</ele>
        <time>2025-02-25T09:11:18Z</time>
      </trkpt>
      <trkpt lat="48.08176" lon="-3.59167">
        <ele>88.4</ele>
        <time>2025-02-25T09:11:19Z</time>
      </trkpt>
      <trkpt lat="48.08176" lon="-3.59167">
        <ele>88.4</ele>
        <time>2025-02-25T09:11:20Z</time>
      </trkpt>
      <trkpt lat="48.08176" lon="-3.59167">
        <ele>88.4</ele>
        <time>2025-02-25T09:11:21Z</time>
      </trkpt>
      <trkpt lat="48.08176" lon="-3.59167">
        <ele>88.4</ele>
        <time>2025-02-25T09:11:22Z</time>
      </trkpt>
      <trkpt lat="48.08176" lon="-3.59167">
        <ele>88.4</ele>
        <time>2025-02-25T09:11:23Z</time>
      </trkpt>
      <trkpt lat="48.08176" lon="-3.59167">
        <ele>88.4</ele>
        <time>2025-02-25T09:11:24Z</time>
      </trkpt>
      <trkpt lat="48.08176" lon="-3.59167">
        <ele>88.4</ele>
        <time>2025-02-25T09:11:25Z</time>
      </trkpt>
      <trkpt lat="48.08176" lon="-3.59167">
        <ele>88.4</ele>
        <time>2025-02-25T09:11:26Z</time>
      </trkpt>
      <trkpt lat="48.08176" lon="-3.59167">
        <ele>88.4</ele>
        <time>2025-02-25T09:11:27Z</time>
      </trkpt>
      <trkpt lat="48.08176" lon="-3.59167">
        <ele>88.4</ele>
        <time>2025-02-25T09:11:28Z</time>
      </trkpt>
      <trkpt lat="48.08176" lon="-3.59167">
        <ele>88.4</ele>
        <time>2025-02-25T09:11:29Z</time>
      </trkpt>
      <trkpt lat="48.08177" lon="-3.59168">
        <ele>88.5</ele>
        <time>2025-02-25T09:11:30Z</time>
      </trkpt>
      <trkpt lat="48.08177" lon="-3.59168">
        <ele>88.5</ele>
        <time>2025-02-25T09:11:31Z</time>
      </trkpt>
      <trkpt lat="48.08177" lon="-3.59168">
        <ele>88.5</ele>
        <time>2025-02-25T09:11:32Z</time>
      </trkpt>
      <trkpt lat="48.08177" lon="-3.59168">
        <ele>88.5</ele>
        <time>2025-02-25T09:11:33Z</time>
      </trkpt>
      <trkpt lat="48.08177" lon="-3.59169">
        <ele>88.6</ele>
        <time>2025-02-25T09:11:34Z</time>
      </trkpt>
      <trkpt lat="48.08177" lon="-3.59169">
        <ele>88.6</ele>
        <time>2025-02-25T09:11:35Z</time>
      </trkpt>
      <trkpt lat="48.08177" lon="-3.59169">
        <ele>88.6</ele>
        <time>2025-02-25T09:11:36Z</time>
      </trkpt>
      <trkpt lat="48.08177" lon="-3.59169">
        <ele>88.6</ele>
        <time>2025-02-25T09:11:37Z</time>
      </trkpt>
      <trkpt lat="48.08177" lon="-3.59169">
        <ele>88.6</ele>
        <time>2025-02-25T09:11:38Z</time>
      </trkpt>
      <trkpt lat="48.08177" lon="-3.59169">
        <ele>88.6</ele>
        <time>2025-02-25T09:11:39Z</time>
      </trkpt>
      <trkpt lat="48.08177" lon="-3.59169">
        <ele>88.6</ele>
        <time>2025-02-25T09:11:40Z</time>
      </trkpt>
      <trkpt lat="48.08177" lon="-3.59169">
        <ele>88.6</ele>
        <time>2025-02-25T09:11:41Z</time>
      </trkpt>
      <trkpt lat="48.08177" lon="-3.59169">
        <ele>88.6</ele>
        <time>2025-02-25T09:11:42Z</time>
      </trkpt>
      <trkpt lat="48.08177" lon="-3.59169">
        <ele>88.6</ele>
        <time>2025-02-25T09:11:43Z</time>
      </trkpt>
      <trkpt lat="48.08177" lon="-3.59169">
        <ele>88.6</ele>
        <time>2025-02-25T09:11:44Z</time>
      </trkpt>
      <trkpt lat="48.08177" lon="-3.59169">
        <ele>88.6</ele>
        <time>2025-02-25T09:11:45Z</time>
      </trkpt>
      <trkpt lat="48.08177" lon="-3.59169">
        <ele>88.6</ele>
        <time>2025-02-25T09:11:46Z</time>
      </trkpt>
      <trkpt lat="48.08177" lon="-3.59169">
        <ele>88.6</ele>
        <time>2025-02-25T09:11:47Z</time>
      </trkpt>
      <trkpt lat="48.08177" lon="-3.59169">
        <ele>88.6</ele>
        <time>2025-02-25T09:11:48Z</time>
      </trkpt>
      <trkpt lat="48.08177" lon="-3.59169">
        <ele>88.6</ele>
        <time>2025-02-25T09:11:49Z</time>
      </trkpt>
      <trkpt lat="48.08177" lon="-3.59169">
        <ele>88.6</ele>
        <time>2025-02-25T09:11:50Z</time>
      </trkpt>
      <trkpt lat="48.08177" lon="-3.59169">
        <ele>88.6</ele>
        <time>2025-02-25T09:11:51Z</time>
      </trkpt>
      <trkpt lat="48.08177" lon="-3.59169">
        <ele>88.6</ele>
        <time>2025-02-25T09:11:52Z</time>
      </trkpt>
      <trkpt lat="48.08177" lon="-3.59169">
        <ele>88.6</ele>
        <time>2025-02-25T09:11:53Z</time>
      </trkpt>
      <trkpt lat="48.08177" lon="-3.59169">
        <ele>88.6</ele>
        <time>2025-02-25T09:11:54Z</time>
      </trkpt>
      <trkpt lat="48.08177" lon="-3.59169">
        <ele>88.6</ele>
        <time>2025-02-25T09:11:55Z</time>
      </trkpt>
      <trkpt lat="48.08177" lon="-3.59169">
        <ele>88.6</ele>
        <time>2025-02-25T09:11:56Z</time>
      </trkpt>
      <trkpt lat="48.08177" lon="-3.59169">
        <ele>88.6</ele>
        <time>2025-02-25T09:11:57Z</time>
      </trkpt>
      <trkpt lat="48.08177" lon="-3.59169">
        <ele>88.6</ele>
        <time>2025-02-25T09:11:58Z</time>
      </trkpt>
      <trkpt lat="48.08177" lon="-3.59169">
        <ele>88.6</ele>
        <time>2025-02-25T09:11:59Z</time>
      </trkpt>
      <trkpt lat="48.08177" lon="-3.59169">
        <ele>88.6</ele>
        <time>2025-02-25T09:12:00Z</time>
      </trkpt>
      <trkpt lat="48.08177" lon="-3.59168">
        <ele>88.5</ele>
        <time>2025-02-25T09:12:01Z</time>
      </trkpt>
      <trkpt lat="48.08177" lon="-3.59168">
        <ele>88.5</ele>
        <time>2025-02-25T09:12:02Z</time>
      </trkpt>
      <trkpt lat="48.08177" lon="-3.59168">
        <ele>88.5</ele>
        <time>2025-02-25T09:12:03Z</time>
      </trkpt>
      <trkpt lat="48.08177" lon="-3.59168">
        <ele>88.5</ele>
        <time>2025-02-25T09:12:04Z</time>
      </trkpt>
      <trkpt lat="48.08177" lon="-3.59168">
        <ele>88.5</ele>
        <time>2025-02-25T09:12:05Z</time>
      </trkpt>
      <trkpt lat="48.08177" lon="-3.59168">
        <ele>88.5</ele>
        <time>2025-02-25T09:12:06Z</time>
      </trkpt>
      <trkpt lat="48.08177" lon="-3.59168">
        <ele>88.5</ele>
        <time>2025-02-25T09:12:07Z</time>
      </trkpt>
      <trkpt lat="48.08177" lon="-3.59168">
        <ele>88.5</ele>
        <time>2025-02-25T09:12:08Z</time>
      </trkpt>
      <trkpt lat="48.08177" lon="-3.59168">
        <ele>88.5</ele>
        <time>2025-02-25T09:12:09Z</time>
      </trkpt>
      <trkpt lat="48.08177" lon="-3.59168">
        <ele>88.5</ele>
        <time>2025-02-25T09:12:10Z</time>
      </trkpt>
      <trkpt lat="48.08177" lon="-3.59168">
        <ele>88.5</ele>
        <time>2025-02-25T09:12:11Z</time>
      </trkpt>
      <trkpt lat="48.08177" lon="-3.59168">
        <ele>88.5</ele>
        <time>2025-02-25T09:12:12Z</time>
      </trkpt>
      <trkpt lat="48.08177" lon="-3.59168">
        <ele>88.5</ele>
        <time>2025-02-25T09:12:13Z</time>
      </trkpt>
      <trkpt lat="48.08177" lon="-3.59168">
        <ele>88.5</ele>
        <time>2025-02-25T09:12:14Z</time>
      </trkpt>
      <trkpt lat="48.08177" lon="-3.59168">
        <ele>88.5</ele>
        <time>2025-02-25T09:12:15Z</time>
      </trkpt>
      <trkpt lat="48.08177" lon="-3.59168">
        <ele>88.5</ele>
        <time>2025-02-25T09:12:16Z</time>
      </trkpt>
      <trkpt lat="48.08177" lon="-3.59168">
        <ele>88.5</ele>
        <time>2025-02-25T09:12:17Z</time>
      </trkpt>
      <trkpt lat="48.08177" lon="-3.59168">
        <ele>88.5</ele>
        <time>2025-02-25T09:12:18Z</time>
      </trkpt>
      <trkpt lat="48.08177" lon="-3.59168">
        <ele>88.5</ele>
        <time>2025-02-25T09:12:19Z</time>
      </trkpt>
      <trkpt lat="48.08177" lon="-3.59168">
        <ele>88.5</ele>
        <time>2025-02-25T09:12:20Z</time>
      </trkpt>
      <trkpt lat="48.08177" lon="-3.59168">
        <ele>88.5</ele>
        <time>2025-02-25T09:12:21Z</time>
      </trkpt>
      <trkpt lat="48.08177" lon="-3.59168">
        <ele>88.5</ele>
        <time>2025-02-25T09:12:22Z</time>
      </trkpt>
      <trkpt lat="48.08177" lon="-3.59168">
        <ele>88.5</ele>
        <time>2025-02-25T09:12:23Z</time>
      </trkpt>
      <trkpt lat="48.08177" lon="-3.59168">
        <ele>88.5</ele>
        <time>2025-02-25T09:12:24Z</time>
      </trkpt>
      <trkpt lat="48.08177" lon="-3.59168">
        <ele>88.5</ele>
        <time>2025-02-25T09:12:25Z</time>
      </trkpt>
      <trkpt lat="48.08177" lon="-3.59168">
        <ele>88.5</ele>
        <time>2025-02-25T09:12:26Z</time>
      </trkpt>
      <trkpt lat="48.08177" lon="-3.59168">
        <ele>88.5</ele>
        <time>2025-02-25T09:12:27Z</time>
      </trkpt>
      <trkpt lat="48.08177" lon="-3.59168">
        <ele>88.5</ele>
        <time>2025-02-25T09:12:28Z</time>
      </trkpt>
      <trkpt lat="48.08177" lon="-3.59168">
        <ele>88.5</ele>
        <time>2025-02-25T09:12:29Z</time>
      </trkpt>
      <trkpt lat="48.08177" lon="-3.59168">
        <ele>88.5</ele>
        <time>2025-02-25T09:12:30Z</time>
      </trkpt>
      <trkpt lat="48.08177" lon="-3.59168">
        <ele>88.5</ele>
        <time>2025-02-25T09:12:31Z</time>
      </trkpt>
      <trkpt lat="48.08177" lon="-3.59168">
        <ele>88.5</ele>
        <time>2025-02-25T09:12:32Z</time>
      </trkpt>
      <trkpt lat="48.08177" lon="-3.59168">
        <ele>88.5</ele>
        <time>2025-02-25T09:12:33Z</time>
      </trkpt>
      <trkpt lat="48.08177" lon="-3.59168">
        <ele>88.5</ele>
        <time>2025-02-25T09:12:34Z</time>
      </trkpt>
      <trkpt lat="48.08177" lon="-3.59168">
        <ele>88.5</ele>
        <time>2025-02-25T09:12:35Z</time>
      </trkpt>
      <trkpt lat="48.08177" lon="-3.59168">
        <ele>88.5</ele>
        <time>2025-02-25T09:12:36Z</time>
      </trkpt>
      <trkpt lat="48.08177" lon="-3.59168">
        <ele>88.5</ele>
        <time>2025-02-25T09:12:37Z</time>
      </trkpt>
      <trkpt lat="48.08177" lon="-3.59168">
        <ele>88.5</ele>
        <time>2025-02-25T09:12:38Z</time>
      </trkpt>
      <trkpt lat="48.08177" lon="-3.59168">
        <ele>88.5</ele>
        <time>2025-02-25T09:12:39Z</time>
      </trkpt>
      <trkpt lat="48.08177" lon="-3.59168">
        <ele>88.5</ele>
        <time>2025-02-25T09:12:40Z</time>
      </trkpt>
      <trkpt lat="48.08177" lon="-3.59168">
        <ele>88.5</ele>
        <time>2025-02-25T09:12:41Z</time>
      </trkpt>
      <trkpt lat="48.08178" lon="-3.59169">
        <ele>88.7</ele>
        <time>2025-02-25T09:12:42Z</time>
      </trkpt>
      <trkpt lat="48.08178" lon="-3.59169">
        <ele>88.7</ele>
        <time>2025-02-25T09:12:43Z</time>
      </trkpt>
      <trkpt lat="48.08178" lon="-3.59169">
        <ele>88.7</ele>
        <time>2025-02-25T09:12:44Z</time>
      </trkpt>
      <trkpt lat="48.08178" lon="-3.59169">
        <ele>88.7</ele>
        <time>2025-02-25T09:12:45Z</time>
      </trkpt>
      <trkpt lat="48.08178" lon="-3.59169">
        <ele>88.7</ele>
        <time>2025-02-25T09:12:46Z</time>
      </trkpt>
      <trkpt lat="48.08178" lon="-3.59169">
        <ele>88.7</ele>
        <time>2025-02-25T09:12:47Z</time>
      </trkpt>
      <trkpt lat="48.08178" lon="-3.59169">
        <ele>88.7</ele>
        <time>2025-02-25T09:12:48Z</time>
      </trkpt>
      <trkpt lat="48.08178" lon="-3.59169">
        <ele>88.7</ele>
        <time>2025-02-25T09:12:49Z</time>
      </trkpt>
      <trkpt lat="48.08178" lon="-3.59169">
        <ele>88.7</ele>
        <time>2025-02-25T09:12:50Z</time>
      </trkpt>
      <trkpt lat="48.08178" lon="-3.59169">
        <ele>88.7</ele>
        <time>2025-02-25T09:12:51Z</time>
      </trkpt>
      <trkpt lat="48.08178" lon="-3.59169">
        <ele>88.7</ele>
        <time>2025-02-25T09:12:52Z</time>
      </trkpt>
      <trkpt lat="48.08178" lon="-3.59169">
        <ele>88.7</ele>
        <time>2025-02-25T09:12:53Z</time>
      </trkpt>
      <trkpt lat="48.08178" lon="-3.59169">
        <ele>88.7</ele>
        <time>2025-02-25T09:12:54Z</time>
      </trkpt>
      <trkpt lat="48.08178" lon="-3.59169">
        <ele>88.7</ele>
        <time>2025-02-25T09:12:55Z</time>
      </trkpt>
      <trkpt lat="48.08177" lon="-3.5917">
        <ele>88.6</ele>
        <time>2025-02-25T09:12:56Z</time>
      </trkpt>
      <trkpt lat="48.08177" lon="-3.5917">
        <ele>88.6</ele>
        <time>2025-02-25T09:12:57Z</time>
      </trkpt>
      <trkpt lat="48.08177" lon="-3.59171">
        <ele>88.6</ele>
        <time>2025-02-25T09:12:58Z</time>
      </trkpt>
      <trkpt lat="48.08177" lon="-3.59171">
        <ele>88.6</ele>
        <time>2025-02-25T09:12:59Z</time>
      </trkpt>
      <trkpt lat="48.08177" lon="-3.5917">
        <ele>88.6</ele>
        <time>2025-02-25T09:13:00Z</time>
      </trkpt>
      <trkpt lat="48.08176" lon="-3.5917">
        <ele>88.5</ele>
        <time>2025-02-25T09:13:01Z</time>
      </trkpt>
      <trkpt lat="48.08176" lon="-3.59169">
        <ele>88.4</ele>
        <time>2025-02-25T09:13:02Z</time>
      </trkpt>
      <trkpt lat="48.08176" lon="-3.59169">
        <ele>88.4</ele>
        <time>2025-02-25T09:13:03Z</time>
      </trkpt>
      <trkpt lat="48.08176" lon="-3.59169">
        <ele>88.4</ele>
        <time>2025-02-25T09:13:04Z</time>
      </trkpt>
      <trkpt lat="48.08176" lon="-3.59168">
        <ele>88.4</ele>
        <time>2025-02-25T09:13:05Z</time>
      </trkpt>
      <trkpt lat="48.08176" lon="-3.59168">
        <ele>88.4</ele>
        <time>2025-02-25T09:13:06Z</time>
      </trkpt>
      <trkpt lat="48.08176" lon="-3.59168">
        <ele>88.4</ele>
        <time>2025-02-25T09:13:07Z</time>
      </trkpt>
      <trkpt lat="48.08176" lon="-3.59168">
        <ele>88.4</ele>
        <time>2025-02-25T09:13:08Z</time>
      </trkpt>
      <trkpt lat="48.08176" lon="-3.59168">
        <ele>88.4</ele>
        <time>2025-02-25T09:13:09Z</time>
      </trkpt>
      <trkpt lat="48.08176" lon="-3.59168">
        <ele>88.4</ele>
        <time>2025-02-25T09:13:10Z</time>
      </trkpt>
      <trkpt lat="48.08176" lon="-3.59168">
        <ele>88.4</ele>
        <time>2025-02-25T09:13:11Z</time>
      </trkpt>
      <trkpt lat="48.08176" lon="-3.59168">
        <ele>88.4</ele>
        <time>2025-02-25T09:13:12Z</time>
      </trkpt>
      <trkpt lat="48.08176" lon="-3.59168">
        <ele>88.4</ele>
        <time>2025-02-25T09:13:13Z</time>
      </trkpt>
      <trkpt lat="48.08176" lon="-3.59168">
        <ele>88.4</ele>
        <time>2025-02-25T09:13:14Z</time>
      </trkpt>
      <trkpt lat="48.08176" lon="-3.59168">
        <ele>88.4</ele>
        <time>2025-02-25T09:13:15Z</time>
      </trkpt>
      <trkpt lat="48.08176" lon="-3.59168">
        <ele>88.4</ele>
        <time>2025-02-25T09:13:16Z</time>
      </trkpt>
      <trkpt lat="48.08176" lon="-3.59168">
        <ele>88.4</ele>
        <time>2025-02-25T09:13:17Z</time>
      </trkpt>
      <trkpt lat="48.08176" lon="-3.59168">
        <ele>88.4</ele>
        <time>2025-02-25T09:13:18Z</time>
      </trkpt>
      <trkpt lat="48.08176" lon="-3.59168">
        <ele>88.4</ele>
        <time>2025-02-25T09:13:19Z</time>
      </trkpt>
      <trkpt lat="48.08176" lon="-3.59168">
        <ele>88.4</ele>
        <time>2025-02-25T09:13:20Z</time>
      </trkpt>
      <trkpt lat="48.08176" lon="-3.59168">
        <ele>88.4</ele>
        <time>2025-02-25T09:13:21Z</time>
      </trkpt>
      <trkpt lat="48.08176" lon="-3.59168">
        <ele>88.4</ele>
        <time>2025-02-25T09:13:22Z</time>
      </trkpt>
      <trkpt lat="48.08176" lon="-3.59168">
        <ele>88.4</ele>
        <time>2025-02-25T09:13:23Z</time>
      </trkpt>
      <trkpt lat="48.08176" lon="-3.59168">
        <ele>88.4</ele>
        <time>2025-02-25T09:13:24Z</time>
      </trkpt>
      <trkpt lat="48.08176" lon="-3.59168">
        <ele>88.4</ele>
        <time>2025-02-25T09:13:25Z</time>
      </trkpt>
      <trkpt lat="48.08176" lon="-3.59168">
        <ele>88.4</ele>
        <time>2025-02-25T09:13:26Z</time>
      </trkpt>
      <trkpt lat="48.08176" lon="-3.59168">
        <ele>88.4</ele>
        <time>2025-02-25T09:13:27Z</time>
      </trkpt>
      <trkpt lat="48.08176" lon="-3.59168">
        <ele>88.4</ele>
        <time>2025-02-25T09:13:28Z</time>
      </trkpt>
      <trkpt lat="48.08176" lon="-3.59168">
        <ele>88.4</ele>
        <time>2025-02-25T09:13:29Z</time>
      </trkpt>
      <trkpt lat="48.08176" lon="-3.59168">
        <ele>88.4</ele>
        <time>2025-02-25T09:13:30Z</time>
      </trkpt>
      <trkpt lat="48.08176" lon="-3.59168">
        <ele>88.4</ele>
        <time>2025-02-25T09:13:31Z</time>
      </trkpt>
      <trkpt lat="48.08176" lon="-3.59168">
        <ele>88.4</ele>
        <time>2025-02-25T09:13:32Z</time>
      </trkpt>
      <trkpt lat="48.08176" lon="-3.59168">
        <ele>88.4</ele>
        <time>2025-02-25T09:13:33Z</time>
      </trkpt>
      <trkpt lat="48.08176" lon="-3.59168">
        <ele>88.4</ele>
        <time>2025-02-25T09:13:34Z</time>
      </trkpt>
      <trkpt lat="48.08176" lon="-3.59168">
        <ele>88.4</ele>
        <time>2025-02-25T09:13:35Z</time>
      </trkpt>
      <trkpt lat="48.08176" lon="-3.59168">
        <ele>88.4</ele>
        <time>2025-02-25T09:13:36Z</time>
      </trkpt>
      <trkpt lat="48.08176" lon="-3.59168">
        <ele>88.4</ele>
        <time>2025-02-25T09:13:37Z</time>
      </trkpt>
      <trkpt lat="48.08176" lon="-3.59168">
        <ele>88.4</ele>
        <time>2025-02-25T09:13:38Z</time>
      </trkpt>
      <trkpt lat="48.08176" lon="-3.59168">
        <ele>88.4</ele>
        <time>2025-02-25T09:13:39Z</time>
      </trkpt>
      <trkpt lat="48.08176" lon="-3.59168">
        <ele>88.4</ele>
        <time>2025-02-25T09:13:40Z</time>
      </trkpt>
      <trkpt lat="48.08176" lon="-3.59168">
        <ele>88.4</ele>
        <time>2025-02-25T09:13:41Z</time>
      </trkpt>
      <trkpt lat="48.08176" lon="-3.59168">
        <ele>88.4</ele>
        <time>2025-02-25T09:13:42Z</time>
      </trkpt>
      <trkpt lat="48.08176" lon="-3.59168">
        <ele>88.4</ele>
        <time>2025-02-25T09:13:43Z</time>
      </trkpt>
      <trkpt lat="48.08176" lon="-3.59168">
        <ele>88.4</ele>
        <time>2025-02-25T09:13:44Z</time>
      </trkpt>
      <trkpt lat="48.08176" lon="-3.59168">
        <ele>88.4</ele>
        <time>2025-02-25T09:13:45Z</time>
      </trkpt>
      <trkpt lat="48.08176" lon="-3.59168">
        <ele>88.4</ele>
        <time>2025-02-25T09:13:46Z</time>
      </trkpt>
      <trkpt lat="48.08176" lon="-3.59168">
        <ele>88.4</ele>
        <time>2025-02-25T09:13:47Z</time>
      </trkpt>
      <trkpt lat="48.08176" lon="-3.59168">
        <ele>88.4</ele>
        <time>2025-02-25T09:13:48Z</time>
      </trkpt>
      <trkpt lat="48.08176" lon="-3.59168">
        <ele>88.4</ele>
        <time>2025-02-25T09:13:49Z</time>
      </trkpt>
      <trkpt lat="48.08176" lon="-3.59168">
        <ele>88.4</ele>
        <time>2025-02-25T09:13:50Z</time>
      </trkpt>
      <trkpt lat="48.08176" lon="-3.59168">
        <ele>88.4</ele>
        <time>2025-02-25T09:13:51Z</time>
      </trkpt>
      <trkpt lat="48.08175" lon="-3.59168">
        <ele>88.2</ele>
        <time>2025-02-25T09:13:52Z</time>
      </trkpt>
      <trkpt lat="48.08175" lon="-3.59168">
        <ele>88.2</ele>
        <time>2025-02-25T09:13:53Z</time>
      </trkpt>
      <trkpt lat="48.08175" lon="-3.59168">
        <ele>88.2</ele>
        <time>2025-02-25T09:13:54Z</time>
      </trkpt>
      <trkpt lat="48.08175" lon="-3.59168">
        <ele>88.2</ele>
        <time>2025-02-25T09:13:55Z</time>
      </trkpt>
      <trkpt lat="48.08175" lon="-3.59169">
        <ele>88.3</ele>
        <time>2025-02-25T09:13:56Z</time>
      </trkpt>
      <trkpt lat="48.08175" lon="-3.59169">
        <ele>88.3</ele>
        <time>2025-02-25T09:13:57Z</time>
      </trkpt>
      <trkpt lat="48.08175" lon="-3.59169">
        <ele>88.3</ele>
        <time>2025-02-25T09:13:58Z</time>
      </trkpt>
      <trkpt lat="48.08174" lon="-3.59169">
        <ele>88.1</ele>
        <time>2025-02-25T09:13:59Z</time>
      </trkpt>
      <trkpt lat="48.08174" lon="-3.59169">
        <ele>88.1</ele>
        <time>2025-02-25T09:14:00Z</time>
      </trkpt>
      <trkpt lat="48.08174" lon="-3.59169">
        <ele>88.1</ele>
        <time>2025-02-25T09:14:01Z</time>
      </trkpt>
      <trkpt lat="48.08174" lon="-3.59169">
        <ele>88.1</ele>
        <time>2025-02-25T09:14:02Z</time>
      </trkpt>
      <trkpt lat="48.08174" lon="-3.59169">
        <ele>88.1</ele>
        <time>2025-02-25T09:14:03Z</time>
      </trkpt>
      <trkpt lat="48.08174" lon="-3.59169">
        <ele>88.1</ele>
        <time>2025-02-25T09:14:04Z</time>
      </trkpt>
      <trkpt lat="48.08174" lon="-3.59169">
        <ele>88.1</ele>
        <time>2025-02-25T09:14:05Z</time>
      </trkpt>
      <trkpt lat="48.08174" lon="-3.59169">
        <ele>88.1</ele>
        <time>2025-02-25T09:14:06Z</time>
      </trkpt>
      <trkpt lat="48.08174" lon="-3.59169">
        <ele>88.1</ele>
        <time>2025-02-25T09:14:07Z</time>
      </trkpt>
      <trkpt lat="48.08174" lon="-3.59169">
        <ele>88.1</ele>
        <time>2025-02-25T09:14:08Z</time>
      </trkpt>
      <trkpt lat="48.08174" lon="-3.59169">
        <ele>88.1</ele>
        <time>2025-02-25T09:14:09Z</time>
      </trkpt>
      <trkpt lat="48.08174" lon="-3.59169">
        <ele>88.1</ele>
        <time>2025-02-25T09:14:10Z</time>
      </trkpt>
      <trkpt lat="48.08174" lon="-3.59168">
        <ele>88.1</ele>
        <time>2025-02-25T09:14:11Z</time>
      </trkpt>
      <trkpt lat="48.08174" lon="-3.59168">
        <ele>88.1</ele>
        <time>2025-02-25T09:14:12Z</time>
      </trkpt>
      <trkpt lat="48.08174" lon="-3.59168">
        <ele>88.1</ele>
        <time>2025-02-25T09:14:13Z</time>
      </trkpt>
      <trkpt lat="48.08174" lon="-3.59168">
        <ele>88.1</ele>
        <time>2025-02-25T09:14:14Z</time>
      </trkpt>
      <trkpt lat="48.08174" lon="-3.59168">
        <ele>88.1</ele>
        <time>2025-02-25T09:14:15Z</time>
      </trkpt>
      <trkpt lat="48.08174" lon="-3.59168">
        <ele>88.1</ele>
        <time>2025-02-25T09:14:16Z</time>
      </trkpt>
      <trkpt lat="48.08174" lon="-3.59168">
        <ele>88.1</ele>
        <time>2025-02-25T09:14:17Z</time>
      </trkpt>
      <trkpt lat="48.08174" lon="-3.59168">
        <ele>88.1</ele>
        <time>2025-02-25T09:14:18Z</time>
      </trkpt>
      <trkpt lat="48.08174" lon="-3.59168">
        <ele>88.1</ele>
        <time>2025-02-25T09:14:19Z</time>
      </trkpt>
      <trkpt lat="48.08174" lon="-3.59168">
        <ele>88.1</ele>
        <time>2025-02-25T09:14:20Z</time>
      </trkpt>
      <trkpt lat="48.08174" lon="-3.59168">
        <ele>88.1</ele>
        <time>2025-02-25T09:14:21Z</time>
      </trkpt>
      <trkpt lat="48.08174" lon="-3.59168">
        <ele>88.1</ele>
        <time>2025-02-25T09:14:22Z</time>
      </trkpt>
      <trkpt lat="48.08174" lon="-3.59168">
        <ele>88.1</ele>
        <time>2025-02-25T09:14:23Z</time>
      </trkpt>
      <trkpt lat="48.08174" lon="-3.59168">
        <ele>88.1</ele>
        <time>2025-02-25T09:14:24Z</time>
      </trkpt>
      <trkpt lat="48.08174" lon="-3.59168">
        <ele>88.1</ele>
        <time>2025-02-25T09:14:25Z</time>
      </trkpt>
      <trkpt lat="48.08174" lon="-3.59168">
        <ele>88.1</ele>
        <time>2025-02-25T09:14:26Z</time>
      </trkpt>
      <trkpt lat="48.08174" lon="-3.59167">
        <ele>88.1</ele>
        <time>2025-02-25T09:14:27Z</time>
      </trkpt>
      <trkpt lat="48.08174" lon="-3.59167">
        <ele>88.1</ele>
        <time>2025-02-25T09:14:28Z</time>
      </trkpt>
      <trkpt lat="48.08174" lon="-3.59167">
        <ele>88.1</ele>
        <time>2025-02-25T09:14:29Z</time>
      </trkpt>
      <trkpt lat="48.08174" lon="-3.59167">
        <ele>88.1</ele>
        <time>2025-02-25T09:14:30Z</time>
      </trkpt>
      <trkpt lat="48.08174" lon="-3.59167">
        <ele>88.1</ele>
        <time>2025-02-25T09:14:31Z</time>
      </trkpt>
      <trkpt lat="48.08174" lon="-3.59167">
        <ele>88.1</ele>
        <time>2025-02-25T09:14:32Z</time>
      </trkpt>
      <trkpt lat="48.08174" lon="-3.59167">
        <ele>88.1</ele>
        <time>2025-02-25T09:14:33Z</time>
      </trkpt>
      <trkpt lat="48.08174" lon="-3.59167">
        <ele>88.1</ele>
        <time>2025-02-25T09:14:34Z</time>
      </trkpt>
      <trkpt lat="48.08174" lon="-3.59167">
        <ele>88.1</ele>
        <time>2025-02-25T09:14:35Z</time>
      </trkpt>
      <trkpt lat="48.08174" lon="-3.59167">
        <ele>88.1</ele>
        <time>2025-02-25T09:14:36Z</time>
      </trkpt>
      <trkpt lat="48.08174" lon="-3.59167">
        <ele>88.1</ele>
        <time>2025-02-25T09:14:37Z</time>
      </trkpt>
      <trkpt lat="48.08174" lon="-3.59167">
        <ele>88.1</ele>
        <time>2025-02-25T09:14:38Z</time>
      </trkpt>
      <trkpt lat="48.08174" lon="-3.59167">
        <ele>88.1</ele>
        <time>2025-02-25T09:14:39Z</time>
      </trkpt>
      <trkpt lat="48.08174" lon="-3.59167">
        <ele>88.1</ele>
        <time>2025-02-25T09:14:40Z</time>
      </trkpt>
      <trkpt lat="48.08174" lon="-3.59167">
        <ele>88.1</ele>
        <time>2025-02-25T09:14:41Z</time>
      </trkpt>
      <trkpt lat="48.08174" lon="-3.59167">
        <ele>88.1</ele>
        <time>2025-02-25T09:14:42Z</time>
      </trkpt>
      <trkpt lat="48.08174" lon="-3.59167">
        <ele>88.1</ele>
        <time>2025-02-25T09:14:43Z</time>
      </trkpt>
      <trkpt lat="48.08174" lon="-3.59167">
        <ele>88.1</ele>
        <time>2025-02-25T09:14:44Z</time>
      </trkpt>
      <trkpt lat="48.08174" lon="-3.59167">
        <ele>88.1</ele>
        <time>2025-02-25T09:14:45Z</time>
      </trkpt>
      <trkpt lat="48.08174" lon="-3.59167">
        <ele>88.1</ele>
        <time>2025-02-25T09:14:46Z</time>
      </trkpt>
      <trkpt lat="48.08174" lon="-3.59167">
        <ele>88.1</ele>
        <time>2025-02-25T09:14:47Z</time>
      </trkpt>
      <trkpt lat="48.08174" lon="-3.59167">
        <ele>88.1</ele>
        <time>2025-02-25T09:14:48Z</time>
      </trkpt>
      <trkpt lat="48.08174" lon="-3.59167">
        <ele>88.1</ele>
        <time>2025-02-25T09:14:49Z</time>
      </trkpt>
      <trkpt lat="48.08174" lon="-3.59167">
        <ele>88.1</ele>
        <time>2025-02-25T09:14:50Z</time>
      </trkpt>
      <trkpt lat="48.08174" lon="-3.59167">
        <ele>88.1</ele>
        <time>2025-02-25T09:14:51Z</time>
      </trkpt>
      <trkpt lat="48.08174" lon="-3.59167">
        <ele>88.1</ele>
        <time>2025-02-25T09:14:52Z</time>
      </trkpt>
      <trkpt lat="48.08174" lon="-3.59167">
        <ele>88.1</ele>
        <time>2025-02-25T09:14:53Z</time>
      </trkpt>
      <trkpt lat="48.08174" lon="-3.59167">
        <ele>88.1</ele>
        <time>2025-02-25T09:14:54Z</time>
      </trkpt>
      <trkpt lat="48.08174" lon="-3.59167">
        <ele>88.1</ele>
        <time>2025-02-25T09:14:55Z</time>
      </trkpt>
      <trkpt lat="48.08174" lon="-3.59167">
        <ele>88.1</ele>
        <time>2025-02-25T09:14:56Z</time>
      </trkpt>
      <trkpt lat="48.08174" lon="-3.59167">
        <ele>88.1</ele>
        <time>2025-02-25T09:14:57Z</time>
      </trkpt>
      <trkpt lat="48.08174" lon="-3.59167">
        <ele>88.1</ele>
        <time>2025-02-25T09:14:58Z</time>
      </trkpt>
      <trkpt lat="48.08174" lon="-3.59167">
        <ele>88.1</ele>
        <time>2025-02-25T09:14:59Z</time>
      </trkpt>
      <trkpt lat="48.08174" lon="-3.59167">
        <ele>88.1</ele>
        <time>2025-02-25T09:15:00Z</time>
      </trkpt>
      <trkpt lat="48.08174" lon="-3.59167">
        <ele>88.1</ele>
        <time>2025-02-25T09:15:01Z</time>
      </trkpt>
      <trkpt lat="48.08174" lon="-3.59167">
        <ele>88.1</ele>
        <time>2025-02-25T09:15:02Z</time>
      </trkpt>
      <trkpt lat="48.08174" lon="-3.59167">
        <ele>88.1</ele>
        <time>2025-02-25T09:15:03Z</time>
      </trkpt>
      <trkpt lat="48.08174" lon="-3.59167">
        <ele>88.1</ele>
        <time>2025-02-25T09:15:04Z</time>
      </trkpt>
      <trkpt lat="48.08174" lon="-3.59167">
        <ele>88.1</ele>
        <time>2025-02-25T09:15:05Z</time>
      </trkpt>
      <trkpt lat="48.08174" lon="-3.59167">
        <ele>88.1</ele>
        <time>2025-02-25T09:15:06Z</time>
      </trkpt>
      <trkpt lat="48.08174" lon="-3.59167">
        <ele>88.1</ele>
        <time>2025-02-25T09:15:07Z</time>
      </trkpt>
      <trkpt lat="48.08174" lon="-3.59167">
        <ele>88.1</ele>
        <time>2025-02-25T09:15:08Z</time>
      </trkpt>
      <trkpt lat="48.08174" lon="-3.59167">
        <ele>88.1</ele>
        <time>2025-02-25T09:15:09Z</time>
      </trkpt>
      <trkpt lat="48.08174" lon="-3.59167">
        <ele>88.1</ele>
        <time>2025-02-25T09:15:10Z</time>
      </trkpt>
      <trkpt lat="48.08174" lon="-3.59167">
        <ele>88.1</ele>
        <time>2025-02-25T09:15:11Z</time>
      </trkpt>
      <trkpt lat="48.08174" lon="-3.59167">
        <ele>88.1</ele>
        <time>2025-02-25T09:15:12Z</time>
      </trkpt>
      <trkpt lat="48.08174" lon="-3.59167">
        <ele>88.1</ele>
        <time>2025-02-25T09:15:13Z</time>
      </trkpt>
      <trkpt lat="48.08174" lon="-3.59167">
        <ele>88.1</ele>
        <time>2025-02-25T09:15:14Z</time>
      </trkpt>
      <trkpt lat="48.08174" lon="-3.59167">
        <ele>88.1</ele>
        <time>2025-02-25T09:15:15Z</time>
      </trkpt>
      <trkpt lat="48.08174" lon="-3.59167">
        <ele>88.1</ele>
        <time>2025-02-25T09:15:16Z</time>
      </trkpt>
      <trkpt lat="48.08174" lon="-3.59167">
        <ele>88.1</ele>
        <time>2025-02-25T09:15:17Z</time>
      </trkpt>
      <trkpt lat="48.08174" lon="-3.59167">
        <ele>88.1</ele>
        <time>2025-02-25T09:15:18Z</time>
      </trkpt>
      <trkpt lat="48.08174" lon="-3.59167">
        <ele>88.1</ele>
        <time>2025-02-25T09:15:19Z</time>
      </trkpt>
      <trkpt lat="48.08174" lon="-3.59167">
        <ele>88.1</ele>
        <time>2025-02-25T09:15:20Z</time>
      </trkpt>
      <trkpt lat="48.08174" lon="-3.59167">
        <ele>88.1</ele>
        <time>2025-02-25T09:15:21Z</time>
      </trkpt>
      <trkpt lat="48.08174" lon="-3.59167">
        <ele>88.1</ele>
        <time>2025-02-25T09:15:22Z</time>
      </trkpt>
      <trkpt lat="48.08174" lon="-3.59167">
        <ele>88.1</ele>
        <time>2025-02-25T09:15:23Z</time>
      </trkpt>
      <trkpt lat="48.08174" lon="-3.59167">
        <ele>88.1</ele>
        <time>2025-02-25T09:15:24Z</time>
      </trkpt>
      <trkpt lat="48.08174" lon="-3.59167">
        <ele>88.1</ele>
        <time>2025-02-25T09:15:25Z</time>
      </trkpt>
      <trkpt lat="48.08174" lon="-3.59167">
        <ele>88.1</ele>
        <time>2025-02-25T09:15:26Z</time>
      </trkpt>
      <trkpt lat="48.08174" lon="-3.59167">
        <ele>88.1</ele>
        <time>2025-02-25T09:15:27Z</time>
      </trkpt>
      <trkpt lat="48.08174" lon="-3.59167">
        <ele>88.1</ele>
        <time>2025-02-25T09:15:28Z</time>
      </trkpt>
      <trkpt lat="48.08174" lon="-3.59167">
        <ele>88.1</ele>
        <time>2025-02-25T09:15:29Z</time>
      </trkpt>
      <trkpt lat="48.08174" lon="-3.59167">
        <ele>88.1</ele>
        <time>2025-02-25T09:15:30Z</time>
      </trkpt>
      <trkpt lat="48.08174" lon="-3.59167">
        <ele>88.1</ele>
        <time>2025-02-25T09:15:31Z</time>
      </trkpt>
      <trkpt lat="48.08174" lon="-3.59167">
        <ele>88.1</ele>
        <time>2025-02-25T09:15:32Z</time>
      </trkpt>
      <trkpt lat="48.08174" lon="-3.59167">
        <ele>88.1</ele>
        <time>2025-02-25T09:15:33Z</time>
      </trkpt>
      <trkpt lat="48.08174" lon="-3.59167">
        <ele>88.1</ele>
        <time>2025-02-25T09:15:34Z</time>
      </trkpt>
      <trkpt lat="48.08174" lon="-3.59167">
        <ele>88.1</ele>
        <time>2025-02-25T09:15:35Z</time>
      </trkpt>
      <trkpt lat="48.08174" lon="-3.59167">
        <ele>88.1</ele>
        <time>2025-02-25T09:15:36Z</time>
      </trkpt>
      <trkpt lat="48.08174" lon="-3.59167">
        <ele>88.1</ele>
        <time>2025-02-25T09:15:37Z</time>
      </trkpt>
      <trkpt lat="48.08173" lon="-3.59166">
        <ele>87.9</ele>
        <time>2025-02-25T09:15:38Z</time>
      </trkpt>
      <trkpt lat="48.08173" lon="-3.59166">
        <ele>87.9</ele>
        <time>2025-02-25T09:15:39Z</time>
      </trkpt>
      <trkpt lat="48.08173" lon="-3.59166">
        <ele>87.9</ele>
        <time>2025-02-25T09:15:40Z</time>
      </trkpt>
      <trkpt lat="48.08173" lon="-3.59166">
        <ele>87.9</ele>
        <time>2025-02-25T09:15:41Z</time>
      </trkpt>
      <trkpt lat="48.08173" lon="-3.59166">
        <ele>87.9</ele>
        <time>2025-02-25T09:15:42Z</time>
      </trkpt>
      <trkpt lat="48.08173" lon="-3.59166">
        <ele>87.9</ele>
        <time>2025-02-25T09:15:43Z</time>
      </trkpt>
      <trkpt lat="48.08173" lon="-3.59166">
        <ele>87.9</ele>
        <time>2025-02-25T09:15:44Z</time>
      </trkpt>
      <trkpt lat="48.08173" lon="-3.59166">
        <ele>87.9</ele>
        <time>2025-02-25T09:15:45Z</time>
      </trkpt>
      <trkpt lat="48.08173" lon="-3.59166">
        <ele>87.9</ele>
        <time>2025-02-25T09:15:46Z</time>
      </trkpt>
      <trkpt lat="48.08173" lon="-3.59166">
        <ele>87.9</ele>
        <time>2025-02-25T09:15:47Z</time>
      </trkpt>
      <trkpt lat="48.08173" lon="-3.59166">
        <ele>87.9</ele>
        <time>2025-02-25T09:15:48Z</time>
      </trkpt>
      <trkpt lat="48.08173" lon="-3.59166">
        <ele>87.9</ele>
        <time>2025-02-25T09:15:49Z</time>
      </trkpt>
      <trkpt lat="48.08173" lon="-3.59166">
        <ele>87.9</ele>
        <time>2025-02-25T09:15:50Z</time>
      </trkpt>
      <trkpt lat="48.08173" lon="-3.59166">
        <ele>87.9</ele>
        <time>2025-02-25T09:15:51Z</time>
      </trkpt>
      <trkpt lat="48.08173" lon="-3.59166">
        <ele>87.9</ele>
        <time>2025-02-25T09:15:52Z</time>
      </trkpt>
      <trkpt lat="48.08173" lon="-3.59166">
        <ele>87.9</ele>
        <time>2025-02-25T09:15:53Z</time>
      </trkpt>
      <trkpt lat="48.08173" lon="-3.59166">
        <ele>87.9</ele>
        <time>2025-02-25T09:15:54Z</time>
      </trkpt>
      <trkpt lat="48.08173" lon="-3.59166">
        <ele>87.9</ele>
        <time>2025-02-25T09:15:55Z</time>
      </trkpt>
      <trkpt lat="48.08173" lon="-3.59166">
        <ele>87.9</ele>
        <time>2025-02-25T09:15:56Z</time>
      </trkpt>
      <trkpt lat="48.08173" lon="-3.59166">
        <ele>87.9</ele>
        <time>2025-02-25T09:15:57Z</time>
      </trkpt>
      <trkpt lat="48.08173" lon="-3.59166">
        <ele>87.9</ele>
        <time>2025-02-25T09:15:58Z</time>
      </trkpt>
      <trkpt lat="48.08173" lon="-3.59166">
        <ele>87.9</ele>
        <time>2025-02-25T09:15:59Z</time>
      </trkpt>
      <trkpt lat="48.08173" lon="-3.59166">
        <ele>87.9</ele>
        <time>2025-02-25T09:16:00Z</time>
      </trkpt>
      <trkpt lat="48.08173" lon="-3.59166">
        <ele>87.9</ele>
        <time>2025-02-25T09:16:01Z</time>
      </trkpt>
      <trkpt lat="48.08173" lon="-3.59166">
        <ele>87.9</ele>
        <time>2025-02-25T09:16:02Z</time>
      </trkpt>
      <trkpt lat="48.08173" lon="-3.59166">
        <ele>87.9</ele>
        <time>2025-02-25T09:16:03Z</time>
      </trkpt>
      <trkpt lat="48.08173" lon="-3.59166">
        <ele>87.9</ele>
        <time>2025-02-25T09:16:04Z</time>
      </trkpt>
      <trkpt lat="48.08173" lon="-3.59166">
        <ele>87.9</ele>
        <time>2025-02-25T09:16:05Z</time>
      </trkpt>
      <trkpt lat="48.08173" lon="-3.59166">
        <ele>87.9</ele>
        <time>2025-02-25T09:16:06Z</time>
      </trkpt>
      <trkpt lat="48.08173" lon="-3.59166">
        <ele>87.9</ele>
        <time>2025-02-25T09:16:07Z</time>
      </trkpt>
      <trkpt lat="48.08173" lon="-3.59166">
        <ele>87.9</ele>
        <time>2025-02-25T09:16:08Z</time>
      </trkpt>
      <trkpt lat="48.08173" lon="-3.59166">
        <ele>87.9</ele>
        <time>2025-02-25T09:16:09Z</time>
      </trkpt>
      <trkpt lat="48.08173" lon="-3.59166">
        <ele>87.9</ele>
        <time>2025-02-25T09:16:10Z</time>
      </trkpt>
      <trkpt lat="48.08173" lon="-3.59166">
        <ele>87.9</ele>
        <time>2025-02-25T09:16:11Z</time>
      </trkpt>
      <trkpt lat="48.08173" lon="-3.59166">
        <ele>87.9</ele>
        <time>2025-02-25T09:16:12Z</time>
      </trkpt>
      <trkpt lat="48.08173" lon="-3.59166">
        <ele>87.9</ele>
        <time>2025-02-25T09:16:13Z</time>
      </trkpt>
      <trkpt lat="48.08173" lon="-3.59166">
        <ele>87.9</ele>
        <time>2025-02-25T09:16:14Z</time>
      </trkpt>
      <trkpt lat="48.08173" lon="-3.59166">
        <ele>87.9</ele>
        <time>2025-02-25T09:16:15Z</time>
      </trkpt>
      <trkpt lat="48.08173" lon="-3.59166">
        <ele>87.9</ele>
        <time>2025-02-25T09:16:16Z</time>
      </trkpt>
      <trkpt lat="48.08173" lon="-3.59166">
        <ele>87.9</ele>
        <time>2025-02-25T09:16:17Z</time>
      </trkpt>
      <trkpt lat="48.08173" lon="-3.59166">
        <ele>87.9</ele>
        <time>2025-02-25T09:16:18Z</time>
      </trkpt>
      <trkpt lat="48.08173" lon="-3.59166">
        <ele>87.9</ele>
        <time>2025-02-25T09:16:19Z</time>
      </trkpt>
      <trkpt lat="48.08173" lon="-3.59166">
        <ele>87.9</ele>
        <time>2025-02-25T09:16:20Z</time>
      </trkpt>
      <trkpt lat="48.08173" lon="-3.59166">
        <ele>87.9</ele>
        <time>2025-02-25T09:16:21Z</time>
      </trkpt>
      <trkpt lat="48.08173" lon="-3.59166">
        <ele>87.9</ele>
        <time>2025-02-25T09:16:22Z</time>
      </trkpt>
      <trkpt lat="48.08173" lon="-3.59166">
        <ele>87.9</ele>
        <time>2025-02-25T09:16:23Z</time>
      </trkpt>
      <trkpt lat="48.08173" lon="-3.59166">
        <ele>87.9</ele>
        <time>2025-02-25T09:16:24Z</time>
      </trkpt>
      <trkpt lat="48.08173" lon="-3.59166">
        <ele>87.9</ele>
        <time>2025-02-25T09:16:25Z</time>
      </trkpt>
      <trkpt lat="48.08173" lon="-3.59166">
        <ele>87.9</ele>
        <time>2025-02-25T09:16:26Z</time>
      </trkpt>
      <trkpt lat="48.08173" lon="-3.59166">
        <ele>87.9</ele>
        <time>2025-02-25T09:16:27Z</time>
      </trkpt>
      <trkpt lat="48.08173" lon="-3.59166">
        <ele>87.9</ele>
        <time>2025-02-25T09:16:28Z</time>
      </trkpt>
      <trkpt lat="48.08173" lon="-3.59166">
        <ele>87.9</ele>
        <time>2025-02-25T09:16:29Z</time>
      </trkpt>
      <trkpt lat="48.08173" lon="-3.59166">
        <ele>87.9</ele>
        <time>2025-02-25T09:16:30Z</time>
      </trkpt>
      <trkpt lat="48.08173" lon="-3.59166">
        <ele>87.9</ele>
        <time>2025-02-25T09:16:31Z</time>
      </trkpt>
      <trkpt lat="48.08173" lon="-3.59166">
        <ele>87.9</ele>
        <time>2025-02-25T09:16:32Z</time>
      </trkpt>
      <trkpt lat="48.08173" lon="-3.59166">
        <ele>87.9</ele>
        <time>2025-02-25T09:16:33Z</time>
      </trkpt>
      <trkpt lat="48.08173" lon="-3.59166">
        <ele>87.9</ele>
        <time>2025-02-25T09:16:34Z</time>
      </trkpt>
      <trkpt lat="48.08173" lon="-3.59166">
        <ele>87.9</ele>
        <time>2025-02-25T09:16:35Z</time>
      </trkpt>
      <trkpt lat="48.08173" lon="-3.59166">
        <ele>87.9</ele>
        <time>2025-02-25T09:16:36Z</time>
      </trkpt>
      <trkpt lat="48.08173" lon="-3.59166">
        <ele>87.9</ele>
        <time>2025-02-25T09:16:37Z</time>
      </trkpt>
      <trkpt lat="48.08173" lon="-3.59166">
        <ele>87.9</ele>
        <time>2025-02-25T09:16:38Z</time>
      </trkpt>
      <trkpt lat="48.08173" lon="-3.59166">
        <ele>87.9</ele>
        <time>2025-02-25T09:16:39Z</time>
      </trkpt>
      <trkpt lat="48.08173" lon="-3.59166">
        <ele>87.9</ele>
        <time>2025-02-25T09:16:40Z</time>
      </trkpt>
      <trkpt lat="48.08173" lon="-3.59166">
        <ele>87.9</ele>
        <time>2025-02-25T09:16:41Z</time>
      </trkpt>
      <trkpt lat="48.08173" lon="-3.59166">
        <ele>87.9</ele>
        <time>2025-02-25T09:16:42Z</time>
      </trkpt>
      <trkpt lat="48.08173" lon="-3.59166">
        <ele>87.9</ele>
        <time>2025-02-25T09:16:43Z</time>
      </trkpt>
      <trkpt lat="48.08173" lon="-3.59166">
        <ele>87.9</ele>
        <time>2025-02-25T09:16:44Z</time>
      </trkpt>
      <trkpt lat="48.08173" lon="-3.59166">
        <ele>87.9</ele>
        <time>2025-02-25T09:16:45Z</time>
      </trkpt>
      <trkpt lat="48.08173" lon="-3.59166">
        <ele>87.9</ele>
        <time>2025-02-25T09:16:46Z</time>
      </trkpt>
      <trkpt lat="48.08173" lon="-3.59166">
        <ele>87.9</ele>
        <time>2025-02-25T09:16:47Z</time>
      </trkpt>
      <trkpt lat="48.08173" lon="-3.59166">
        <ele>87.9</ele>
        <time>2025-02-25T09:16:48Z</time>
      </trkpt>
      <trkpt lat="48.08173" lon="-3.59166">
        <ele>87.9</ele>
        <time>2025-02-25T09:16:49Z</time>
      </trkpt>
      <trkpt lat="48.08173" lon="-3.59166">
        <ele>87.9</ele>
        <time>2025-02-25T09:16:50Z</time>
      </trkpt>
      <trkpt lat="48.08173" lon="-3.59166">
        <ele>87.9</ele>
        <time>2025-02-25T09:16:51Z</time>
      </trkpt>
      <trkpt lat="48.08173" lon="-3.59166">
        <ele>87.9</ele>
        <time>2025-02-25T09:16:52Z</time>
      </trkpt>
      <trkpt lat="48.08173" lon="-3.59166">
        <ele>87.9</ele>
        <time>2025-02-25T09:16:53Z</time>
      </trkpt>
      <trkpt lat="48.08173" lon="-3.59166">
        <ele>87.9</ele>
        <time>2025-02-25T09:16:54Z</time>
      </trkpt>
      <trkpt lat="48.08173" lon="-3.59166">
        <ele>87.9</ele>
        <time>2025-02-25T09:16:55Z</time>
      </trkpt>
      <trkpt lat="48.08173" lon="-3.59166">
        <ele>87.9</ele>
        <time>2025-02-25T09:16:56Z</time>
      </trkpt>
      <trkpt lat="48.08173" lon="-3.59166">
        <ele>87.9</ele>
        <time>2025-02-25T09:16:57Z</time>
      </trkpt>
      <trkpt lat="48.08173" lon="-3.59166">
        <ele>87.9</ele>
        <time>2025-02-25T09:16:58Z</time>
      </trkpt>
      <trkpt lat="48.08173" lon="-3.59166">
        <ele>87.9</ele>
        <time>2025-02-25T09:16:59Z</time>
      </trkpt>
      <trkpt lat="48.08173" lon="-3.59166">
        <ele>87.9</ele>
        <time>2025-02-25T09:17:00Z</time>
      </trkpt>
      <trkpt lat="48.08173" lon="-3.59166">
        <ele>87.9</ele>
        <time>2025-02-25T09:17:01Z</time>
      </trkpt>
      <trkpt lat="48.08174" lon="-3.59166">
        <ele>88</ele>
        <time>2025-02-25T09:17:02Z</time>
      </trkpt>
      <trkpt lat="48.08174" lon="-3.59166">
        <ele>88</ele>
        <time>2025-02-25T09:17:03Z</time>
      </trkpt>
      <trkpt lat="48.08174" lon="-3.59166">
        <ele>88</ele>
        <time>2025-02-25T09:17:04Z</time>
      </trkpt>
      <trkpt lat="48.08174" lon="-3.59166">
        <ele>88</ele>
        <time>2025-02-25T09:17:05Z</time>
      </trkpt>
      <trkpt lat="48.08174" lon="-3.59166">
        <ele>88</ele>
        <time>2025-02-25T09:17:06Z</time>
      </trkpt>
      <trkpt lat="48.08174" lon="-3.59166">
        <ele>88</ele>
        <time>2025-02-25T09:17:07Z</time>
      </trkpt>
      <trkpt lat="48.08174" lon="-3.59166">
        <ele>88</ele>
        <time>2025-02-25T09:17:08Z</time>
      </trkpt>
      <trkpt lat="48.08174" lon="-3.59166">
        <ele>88</ele>
        <time>2025-02-25T09:17:09Z</time>
      </trkpt>
      <trkpt lat="48.08174" lon="-3.59166">
        <ele>88</ele>
        <time>2025-02-25T09:17:10Z</time>
      </trkpt>
      <trkpt lat="48.08174" lon="-3.59166">
        <ele>88</ele>
        <time>2025-02-25T09:17:11Z</time>
      </trkpt>
      <trkpt lat="48.08174" lon="-3.59166">
        <ele>88</ele>
        <time>2025-02-25T09:17:12Z</time>
      </trkpt>
      <trkpt lat="48.08174" lon="-3.59166">
        <ele>88</ele>
        <time>2025-02-25T09:17:13Z</time>
      </trkpt>
      <trkpt lat="48.08174" lon="-3.59166">
        <ele>88</ele>
        <time>2025-02-25T09:17:14Z</time>
      </trkpt>
      <trkpt lat="48.08174" lon="-3.59166">
        <ele>88</ele>
        <time>2025-02-25T09:17:15Z</time>
      </trkpt>
      <trkpt lat="48.08174" lon="-3.59166">
        <ele>88</ele>
        <time>2025-02-25T09:17:16Z</time>
      </trkpt>
      <trkpt lat="48.08174" lon="-3.59166">
        <ele>88</ele>
        <time>2025-02-25T09:17:17Z</time>
      </trkpt>
      <trkpt lat="48.08174" lon="-3.59166">
        <ele>88</ele>
        <time>2025-02-25T09:17:18Z</time>
      </trkpt>
      <trkpt lat="48.08174" lon="-3.59166">
        <ele>88</ele>
        <time>2025-02-25T09:17:19Z</time>
      </trkpt>
      <trkpt lat="48.08174" lon="-3.59166">
        <ele>88</ele>
        <time>2025-02-25T09:17:20Z</time>
      </trkpt>
      <trkpt lat="48.08174" lon="-3.59166">
        <ele>88</ele>
        <time>2025-02-25T09:17:21Z</time>
      </trkpt>
      <trkpt lat="48.08174" lon="-3.59166">
        <ele>88</ele>
        <time>2025-02-25T09:17:22Z</time>
      </trkpt>
      <trkpt lat="48.08174" lon="-3.59166">
        <ele>88</ele>
        <time>2025-02-25T09:17:23Z</time>
      </trkpt>
      <trkpt lat="48.08174" lon="-3.59166">
        <ele>88</ele>
        <time>2025-02-25T09:17:24Z</time>
      </trkpt>
      <trkpt lat="48.08174" lon="-3.59166">
        <ele>88</ele>
        <time>2025-02-25T09:17:25Z</time>
      </trkpt>
      <trkpt lat="48.08174" lon="-3.59166">
        <ele>88</ele>
        <time>2025-02-25T09:17:26Z</time>
      </trkpt>
      <trkpt lat="48.08174" lon="-3.59166">
        <ele>88</ele>
        <time>2025-02-25T09:17:27Z</time>
      </trkpt>
      <trkpt lat="48.08174" lon="-3.59166">
        <ele>88</ele>
        <time>2025-02-25T09:17:28Z</time>
      </trkpt>
      <trkpt lat="48.08174" lon="-3.59166">
        <ele>88</ele>
        <time>2025-02-25T09:17:29Z</time>
      </trkpt>
      <trkpt lat="48.08174" lon="-3.59166">
        <ele>88</ele>
        <time>2025-02-25T09:17:30Z</time>
      </trkpt>
      <trkpt lat="48.08174" lon="-3.59166">
        <ele>88</ele>
        <time>2025-02-25T09:17:31Z</time>
      </trkpt>
      <trkpt lat="48.08174" lon="-3.59166">
        <ele>88</ele>
        <time>2025-02-25T09:17:32Z</time>
      </trkpt>
      <trkpt lat="48.08174" lon="-3.59166">
        <ele>88</ele>
        <time>2025-02-25T09:17:33Z</time>
      </trkpt>
      <trkpt lat="48.08174" lon="-3.59166">
        <ele>88</ele>
        <time>2025-02-25T09:17:34Z</time>
      </trkpt>
      <trkpt lat="48.08174" lon="-3.59166">
        <ele>88</ele>
        <time>2025-02-25T09:17:35Z</time>
      </trkpt>
      <trkpt lat="48.08174" lon="-3.59166">
        <ele>88</ele>
        <time>2025-02-25T09:17:36Z</time>
      </trkpt>
      <trkpt lat="48.08173" lon="-3.59166">
        <ele>87.9</ele>
        <time>2025-02-25T09:17:37Z</time>
      </trkpt>
      <trkpt lat="48.08173" lon="-3.59167">
        <ele>87.9</ele>
        <time>2025-02-25T09:17:38Z</time>
      </trkpt>
      <trkpt lat="48.08173" lon="-3.59167">
        <ele>87.9</ele>
        <time>2025-02-25T09:17:39Z</time>
      </trkpt>
      <trkpt lat="48.08173" lon="-3.59167">
        <ele>87.9</ele>
        <time>2025-02-25T09:17:40Z</time>
      </trkpt>
      <trkpt lat="48.08173" lon="-3.59167">
        <ele>87.9</ele>
        <time>2025-02-25T09:17:41Z</time>
      </trkpt>
      <trkpt lat="48.08173" lon="-3.59167">
        <ele>87.9</ele>
        <time>2025-02-25T09:17:42Z</time>
      </trkpt>
      <trkpt lat="48.08173" lon="-3.59167">
        <ele>87.9</ele>
        <time>2025-02-25T09:17:43Z</time>
      </trkpt>
      <trkpt lat="48.08173" lon="-3.59167">
        <ele>87.9</ele>
        <time>2025-02-25T09:17:44Z</time>
      </trkpt>
      <trkpt lat="48.08173" lon="-3.59167">
        <ele>87.9</ele>
        <time>2025-02-25T09:17:45Z</time>
      </trkpt>
      <trkpt lat="48.08173" lon="-3.59167">
        <ele>87.9</ele>
        <time>2025-02-25T09:17:46Z</time>
      </trkpt>
      <trkpt lat="48.08173" lon="-3.59167">
        <ele>87.9</ele>
        <time>2025-02-25T09:17:47Z</time>
      </trkpt>
      <trkpt lat="48.08173" lon="-3.59167">
        <ele>87.9</ele>
        <time>2025-02-25T09:17:48Z</time>
      </trkpt>
      <trkpt lat="48.08173" lon="-3.59167">
        <ele>87.9</ele>
        <time>2025-02-25T09:17:49Z</time>
      </trkpt>
      <trkpt lat="48.08173" lon="-3.59167">
        <ele>87.9</ele>
        <time>2025-02-25T09:17:50Z</time>
      </trkpt>
      <trkpt lat="48.08173" lon="-3.59167">
        <ele>87.9</ele>
        <time>2025-02-25T09:17:51Z</time>
      </trkpt>
      <trkpt lat="48.08173" lon="-3.59167">
        <ele>87.9</ele>
        <time>2025-02-25T09:17:52Z</time>
      </trkpt>
      <trkpt lat="48.08173" lon="-3.59167">
        <ele>87.9</ele>
        <time>2025-02-25T09:17:53Z</time>
      </trkpt>
      <trkpt lat="48.08173" lon="-3.59167">
        <ele>87.9</ele>
        <time>2025-02-25T09:17:54Z</time>
      </trkpt>
      <trkpt lat="48.08173" lon="-3.59167">
        <ele>87.9</ele>
        <time>2025-02-25T09:17:55Z</time>
      </trkpt>
      <trkpt lat="48.08173" lon="-3.59167">
        <ele>87.9</ele>
        <time>2025-02-25T09:17:56Z</time>
      </trkpt>
      <trkpt lat="48.08173" lon="-3.59167">
        <ele>87.9</ele>
        <time>2025-02-25T09:17:57Z</time>
      </trkpt>
      <trkpt lat="48.08173" lon="-3.59167">
        <ele>87.9</ele>
        <time>2025-02-25T09:17:58Z</time>
      </trkpt>
      <trkpt lat="48.08173" lon="-3.59167">
        <ele>87.9</ele>
        <time>2025-02-25T09:17:59Z</time>
      </trkpt>
      <trkpt lat="48.08173" lon="-3.59167">
        <ele>87.9</ele>
        <time>2025-02-25T09:18:00Z</time>
      </trkpt>
      <trkpt lat="48.08173" lon="-3.59167">
        <ele>87.9</ele>
        <time>2025-02-25T09:18:01Z</time>
      </trkpt>
      <trkpt lat="48.08173" lon="-3.59167">
        <ele>87.9</ele>
        <time>2025-02-25T09:18:02Z</time>
      </trkpt>
      <trkpt lat="48.08173" lon="-3.59167">
        <ele>87.9</ele>
        <time>2025-02-25T09:18:03Z</time>
      </trkpt>
      <trkpt lat="48.08173" lon="-3.59167">
        <ele>87.9</ele>
        <time>2025-02-25T09:18:04Z</time>
      </trkpt>
      <trkpt lat="48.08173" lon="-3.59167">
        <ele>87.9</ele>
        <time>2025-02-25T09:18:05Z</time>
      </trkpt>
      <trkpt lat="48.08173" lon="-3.59167">
        <ele>87.9</ele>
        <time>2025-02-25T09:18:06Z</time>
      </trkpt>
      <trkpt lat="48.08173" lon="-3.59167">
        <ele>87.9</ele>
        <time>2025-02-25T09:18:07Z</time>
      </trkpt>
      <trkpt lat="48.08173" lon="-3.59167">
        <ele>87.9</ele>
        <time>2025-02-25T09:18:08Z</time>
      </trkpt>
      <trkpt lat="48.08173" lon="-3.59167">
        <ele>87.9</ele>
        <time>2025-02-25T09:18:09Z</time>
      </trkpt>
      <trkpt lat="48.08173" lon="-3.59167">
        <ele>87.9</ele>
        <time>2025-02-25T09:18:10Z</time>
      </trkpt>
      <trkpt lat="48.08173" lon="-3.59167">
        <ele>87.9</ele>
        <time>2025-02-25T09:18:11Z</time>
      </trkpt>
      <trkpt lat="48.08173" lon="-3.59167">
        <ele>87.9</ele>
        <time>2025-02-25T09:18:12Z</time>
      </trkpt>
      <trkpt lat="48.08173" lon="-3.59167">
        <ele>87.9</ele>
        <time>2025-02-25T09:18:13Z</time>
      </trkpt>
      <trkpt lat="48.08173" lon="-3.59167">
        <ele>87.9</ele>
        <time>2025-02-25T09:18:14Z</time>
      </trkpt>
      <trkpt lat="48.08173" lon="-3.59167">
        <ele>87.9</ele>
        <time>2025-02-25T09:18:15Z</time>
      </trkpt>
      <trkpt lat="48.08173" lon="-3.59167">
        <ele>87.9</ele>
        <time>2025-02-25T09:18:16Z</time>
      </trkpt>
      <trkpt lat="48.08173" lon="-3.59167">
        <ele>87.9</ele>
        <time>2025-02-25T09:18:17Z</time>
      </trkpt>
      <trkpt lat="48.08173" lon="-3.59167">
        <ele>87.9</ele>
        <time>2025-02-25T09:18:18Z</time>
      </trkpt>
      <trkpt lat="48.08173" lon="-3.59167">
        <ele>87.9</ele>
        <time>2025-02-25T09:18:19Z</time>
      </trkpt>
      <trkpt lat="48.08173" lon="-3.59167">
        <ele>87.9</ele>
        <time>2025-02-25T09:18:20Z</time>
      </trkpt>
      <trkpt lat="48.08173" lon="-3.59167">
        <ele>87.9</ele>
        <time>2025-02-25T09:18:21Z</time>
      </trkpt>
      <trkpt lat="48.08173" lon="-3.59167">
        <ele>87.9</ele>
        <time>2025-02-25T09:18:22Z</time>
      </trkpt>
      <trkpt lat="48.08173" lon="-3.59167">
        <ele>87.9</ele>
        <time>2025-02-25T09:18:23Z</time>
      </trkpt>
      <trkpt lat="48.08173" lon="-3.59167">
        <ele>87.9</ele>
        <time>2025-02-25T09:18:24Z</time>
      </trkpt>
      <trkpt lat="48.08174" lon="-3.59167">
        <ele>88.1</ele>
        <time>2025-02-25T09:18:25Z</time>
      </trkpt>
      <trkpt lat="48.08174" lon="-3.59167">
        <ele>88.1</ele>
        <time>2025-02-25T09:18:26Z</time>
      </trkpt>
      <trkpt lat="48.08174" lon="-3.59167">
        <ele>88.1</ele>
        <time>2025-02-25T09:18:27Z</time>
      </trkpt>
      <trkpt lat="48.08174" lon="-3.59166">
        <ele>88</ele>
        <time>2025-02-25T09:18:28Z</time>
      </trkpt>
      <trkpt lat="48.08174" lon="-3.59166">
        <ele>88</ele>
        <time>2025-02-25T09:18:29Z</time>
      </trkpt>
      <trkpt lat="48.08174" lon="-3.59166">
        <ele>88</ele>
        <time>2025-02-25T09:18:30Z</time>
      </trkpt>
      <trkpt lat="48.08174" lon="-3.59166">
        <ele>88</ele>
        <time>2025-02-25T09:18:31Z</time>
      </trkpt>
      <trkpt lat="48.08174" lon="-3.59166">
        <ele>88</ele>
        <time>2025-02-25T09:18:32Z</time>
      </trkpt>
      <trkpt lat="48.08174" lon="-3.59166">
        <ele>88</ele>
        <time>2025-02-25T09:18:33Z</time>
      </trkpt>
      <trkpt lat="48.08174" lon="-3.59166">
        <ele>88</ele>
        <time>2025-02-25T09:18:34Z</time>
      </trkpt>
      <trkpt lat="48.08174" lon="-3.59166">
        <ele>88</ele>
        <time>2025-02-25T09:18:35Z</time>
      </trkpt>
      <trkpt lat="48.08174" lon="-3.59166">
        <ele>88</ele>
        <time>2025-02-25T09:18:36Z</time>
      </trkpt>
      <trkpt lat="48.08174" lon="-3.59166">
        <ele>88</ele>
        <time>2025-02-25T09:18:37Z</time>
      </trkpt>
      <trkpt lat="48.08174" lon="-3.59166">
        <ele>88</ele>
        <time>2025-02-25T09:18:38Z</time>
      </trkpt>
      <trkpt lat="48.08174" lon="-3.59166">
        <ele>88</ele>
        <time>2025-02-25T09:18:39Z</time>
      </trkpt>
      <trkpt lat="48.08174" lon="-3.59166">
        <ele>88</ele>
        <time>2025-02-25T09:18:40Z</time>
      </trkpt>
      <trkpt lat="48.08174" lon="-3.59166">
        <ele>88</ele>
        <time>2025-02-25T09:18:41Z</time>
      </trkpt>
      <trkpt lat="48.08174" lon="-3.59166">
        <ele>88</ele>
        <time>2025-02-25T09:18:42Z</time>
      </trkpt>
      <trkpt lat="48.08174" lon="-3.59166">
        <ele>88</ele>
        <time>2025-02-25T09:18:43Z</time>
      </trkpt>
      <trkpt lat="48.08174" lon="-3.59166">
        <ele>88</ele>
        <time>2025-02-25T09:18:44Z</time>
      </trkpt>
      <trkpt lat="48.08174" lon="-3.59166">
        <ele>88</ele>
        <time>2025-02-25T09:18:45Z</time>
      </trkpt>
      <trkpt lat="48.08174" lon="-3.59166">
        <ele>88</ele>
        <time>2025-02-25T09:18:46Z</time>
      </trkpt>
      <trkpt lat="48.08174" lon="-3.59166">
        <ele>88</ele>
        <time>2025-02-25T09:18:47Z</time>
      </trkpt>
      <trkpt lat="48.08174" lon="-3.59166">
        <ele>88</ele>
        <time>2025-02-25T09:18:48Z</time>
      </trkpt>
      <trkpt lat="48.08174" lon="-3.59166">
        <ele>88</ele>
        <time>2025-02-25T09:18:49Z</time>
      </trkpt>
      <trkpt lat="48.08174" lon="-3.59166">
        <ele>88</ele>
        <time>2025-02-25T09:18:50Z</time>
      </trkpt>
      <trkpt lat="48.08174" lon="-3.59166">
        <ele>88</ele>
        <time>2025-02-25T09:18:51Z</time>
      </trkpt>
      <trkpt lat="48.08174" lon="-3.59166">
        <ele>88</ele>
        <time>2025-02-25T09:18:52Z</time>
      </trkpt>
      <trkpt lat="48.08174" lon="-3.59166">
        <ele>88</ele>
        <time>2025-02-25T09:18:53Z</time>
      </trkpt>
      <trkpt lat="48.08175" lon="-3.59166">
        <ele>88.2</ele>
        <time>2025-02-25T09:18:54Z</time>
      </trkpt>
      <trkpt lat="48.08175" lon="-3.59166">
        <ele>88.2</ele>
        <time>2025-02-25T09:18:55Z</time>
      </trkpt>
      <trkpt lat="48.08175" lon="-3.59166">
        <ele>88.2</ele>
        <time>2025-02-25T09:18:56Z</time>
      </trkpt>
      <trkpt lat="48.08175" lon="-3.59166">
        <ele>88.2</ele>
        <time>2025-02-25T09:18:57Z</time>
      </trkpt>
      <trkpt lat="48.08175" lon="-3.59166">
        <ele>88.2</ele>
        <time>2025-02-25T09:18:58Z</time>
      </trkpt>
      <trkpt lat="48.08175" lon="-3.59166">
        <ele>88.2</ele>
        <time>2025-02-25T09:18:59Z</time>
      </trkpt>
      <trkpt lat="48.08175" lon="-3.59166">
        <ele>88.2</ele>
        <time>2025-02-25T09:19:00Z</time>
      </trkpt>
      <trkpt lat="48.08175" lon="-3.59166">
        <ele>88.2</ele>
        <time>2025-02-25T09:19:01Z</time>
      </trkpt>
      <trkpt lat="48.08175" lon="-3.59166">
        <ele>88.2</ele>
        <time>2025-02-25T09:19:02Z</time>
      </trkpt>
      <trkpt lat="48.08175" lon="-3.59166">
        <ele>88.2</ele>
        <time>2025-02-25T09:19:03Z</time>
      </trkpt>
      <trkpt lat="48.08175" lon="-3.59166">
        <ele>88.2</ele>
        <time>2025-02-25T09:19:04Z</time>
      </trkpt>
      <trkpt lat="48.08175" lon="-3.59166">
        <ele>88.2</ele>
        <time>2025-02-25T09:19:05Z</time>
      </trkpt>
      <trkpt lat="48.08175" lon="-3.59166">
        <ele>88.2</ele>
        <time>2025-02-25T09:19:06Z</time>
      </trkpt>
      <trkpt lat="48.08175" lon="-3.59166">
        <ele>88.2</ele>
        <time>2025-02-25T09:19:07Z</time>
      </trkpt>
      <trkpt lat="48.08175" lon="-3.59166">
        <ele>88.2</ele>
        <time>2025-02-25T09:19:08Z</time>
      </trkpt>
      <trkpt lat="48.08175" lon="-3.59166">
        <ele>88.2</ele>
        <time>2025-02-25T09:19:09Z</time>
      </trkpt>
      <trkpt lat="48.08175" lon="-3.59166">
        <ele>88.2</ele>
        <time>2025-02-25T09:19:10Z</time>
      </trkpt>
      <trkpt lat="48.08175" lon="-3.59166">
        <ele>88.2</ele>
        <time>2025-02-25T09:19:11Z</time>
      </trkpt>
      <trkpt lat="48.08175" lon="-3.59166">
        <ele>88.2</ele>
        <time>2025-02-25T09:19:12Z</time>
      </trkpt>
      <trkpt lat="48.08175" lon="-3.59166">
        <ele>88.2</ele>
        <time>2025-02-25T09:19:13Z</time>
      </trkpt>
      <trkpt lat="48.08175" lon="-3.59166">
        <ele>88.2</ele>
        <time>2025-02-25T09:19:14Z</time>
      </trkpt>
      <trkpt lat="48.08175" lon="-3.59166">
        <ele>88.2</ele>
        <time>2025-02-25T09:19:15Z</time>
      </trkpt>
      <trkpt lat="48.08175" lon="-3.59166">
        <ele>88.2</ele>
        <time>2025-02-25T09:19:16Z</time>
      </trkpt>
      <trkpt lat="48.08175" lon="-3.59166">
        <ele>88.2</ele>
        <time>2025-02-25T09:19:17Z</time>
      </trkpt>
      <trkpt lat="48.08175" lon="-3.59166">
        <ele>88.2</ele>
        <time>2025-02-25T09:19:18Z</time>
      </trkpt>
      <trkpt lat="48.08175" lon="-3.59166">
        <ele>88.2</ele>
        <time>2025-02-25T09:19:19Z</time>
      </trkpt>
      <trkpt lat="48.08175" lon="-3.59166">
        <ele>88.2</ele>
        <time>2025-02-25T09:19:20Z</time>
      </trkpt>
      <trkpt lat="48.08175" lon="-3.59166">
        <ele>88.2</ele>
        <time>2025-02-25T09:19:21Z</time>
      </trkpt>
      <trkpt lat="48.08175" lon="-3.59166">
        <ele>88.2</ele>
        <time>2025-02-25T09:19:22Z</time>
      </trkpt>
      <trkpt lat="48.08175" lon="-3.59166">
        <ele>88.2</ele>
        <time>2025-02-25T09:19:23Z</time>
      </trkpt>
      <trkpt lat="48.08175" lon="-3.59166">
        <ele>88.2</ele>
        <time>2025-02-25T09:19:24Z</time>
      </trkpt>
      <trkpt lat="48.08175" lon="-3.59166">
        <ele>88.2</ele>
        <time>2025-02-25T09:19:25Z</time>
      </trkpt>
      <trkpt lat="48.08175" lon="-3.59166">
        <ele>88.2</ele>
        <time>2025-02-25T09:19:26Z</time>
      </trkpt>
      <trkpt lat="48.08175" lon="-3.59166">
        <ele>88.2</ele>
        <time>2025-02-25T09:19:27Z</time>
      </trkpt>
      <trkpt lat="48.08175" lon="-3.59166">
        <ele>88.2</ele>
        <time>2025-02-25T09:19:28Z</time>
      </trkpt>
      <trkpt lat="48.08175" lon="-3.59166">
        <ele>88.2</ele>
        <time>2025-02-25T09:19:29Z</time>
      </trkpt>
      <trkpt lat="48.08175" lon="-3.59166">
        <ele>88.2</ele>
        <time>2025-02-25T09:19:30Z</time>
      </trkpt>
      <trkpt lat="48.08175" lon="-3.59166">
        <ele>88.2</ele>
        <time>2025-02-25T09:19:31Z</time>
      </trkpt>
      <trkpt lat="48.08175" lon="-3.59166">
        <ele>88.2</ele>
        <time>2025-02-25T09:19:32Z</time>
      </trkpt>
      <trkpt lat="48.08175" lon="-3.59166">
        <ele>88.2</ele>
        <time>2025-02-25T09:19:33Z</time>
      </trkpt>
      <trkpt lat="48.08175" lon="-3.59166">
        <ele>88.2</ele>
        <time>2025-02-25T09:19:34Z</time>
      </trkpt>
      <trkpt lat="48.08175" lon="-3.59166">
        <ele>88.2</ele>
        <time>2025-02-25T09:19:35Z</time>
      </trkpt>
      <trkpt lat="48.08175" lon="-3.59166">
        <ele>88.2</ele>
        <time>2025-02-25T09:19:36Z</time>
      </trkpt>
      <trkpt lat="48.08175" lon="-3.59166">
        <ele>88.2</ele>
        <time>2025-02-25T09:19:37Z</time>
      </trkpt>
      <trkpt lat="48.08175" lon="-3.59166">
        <ele>88.2</ele>
        <time>2025-02-25T09:19:38Z</time>
      </trkpt>
      <trkpt lat="48.08175" lon="-3.59166">
        <ele>88.2</ele>
        <time>2025-02-25T09:19:39Z</time>
      </trkpt>
      <trkpt lat="48.08175" lon="-3.59166">
        <ele>88.2</ele>
        <time>2025-02-25T09:19:40Z</time>
      </trkpt>
      <trkpt lat="48.08175" lon="-3.59166">
        <ele>88.2</ele>
        <time>2025-02-25T09:19:41Z</time>
      </trkpt>
      <trkpt lat="48.08175" lon="-3.59166">
        <ele>88.2</ele>
        <time>2025-02-25T09:19:42Z</time>
      </trkpt>
      <trkpt lat="48.08175" lon="-3.59166">
        <ele>88.2</ele>
        <time>2025-02-25T09:19:43Z</time>
      </trkpt>
      <trkpt lat="48.08175" lon="-3.59166">
        <ele>88.2</ele>
        <time>2025-02-25T09:19:44Z</time>
      </trkpt>
      <trkpt lat="48.08175" lon="-3.59166">
        <ele>88.2</ele>
        <time>2025-02-25T09:19:45Z</time>
      </trkpt>
      <trkpt lat="48.08175" lon="-3.59166">
        <ele>88.2</ele>
        <time>2025-02-25T09:19:46Z</time>
      </trkpt>
      <trkpt lat="48.08175" lon="-3.59166">
        <ele>88.2</ele>
        <time>2025-02-25T09:19:47Z</time>
      </trkpt>
      <trkpt lat="48.08175" lon="-3.59166">
        <ele>88.2</ele>
        <time>2025-02-25T09:19:48Z</time>
      </trkpt>
      <trkpt lat="48.08175" lon="-3.59166">
        <ele>88.2</ele>
        <time>2025-02-25T09:19:49Z</time>
      </trkpt>
      <trkpt lat="48.08175" lon="-3.59166">
        <ele>88.2</ele>
        <time>2025-02-25T09:19:50Z</time>
      </trkpt>
      <trkpt lat="48.08175" lon="-3.59166">
        <ele>88.2</ele>
        <time>2025-02-25T09:19:51Z</time>
      </trkpt>
      <trkpt lat="48.08175" lon="-3.59166">
        <ele>88.2</ele>
        <time>2025-02-25T09:19:52Z</time>
      </trkpt>
      <trkpt lat="48.08175" lon="-3.59166">
        <ele>88.2</ele>
        <time>2025-02-25T09:19:53Z</time>
      </trkpt>
      <trkpt lat="48.08175" lon="-3.59166">
        <ele>88.2</ele>
        <time>2025-02-25T09:19:54Z</time>
      </trkpt>
      <trkpt lat="48.08175" lon="-3.59166">
        <ele>88.2</ele>
        <time>2025-02-25T09:19:55Z</time>
      </trkpt>
      <trkpt lat="48.08175" lon="-3.59166">
        <ele>88.2</ele>
        <time>2025-02-25T09:19:56Z</time>
      </trkpt>
      <trkpt lat="48.08175" lon="-3.59166">
        <ele>88.2</ele>
        <time>2025-02-25T09:19:57Z</time>
      </trkpt>
      <trkpt lat="48.08175" lon="-3.59166">
        <ele>88.2</ele>
        <time>2025-02-25T09:19:58Z</time>
      </trkpt>
      <trkpt lat="48.08175" lon="-3.59166">
        <ele>88.2</ele>
        <time>2025-02-25T09:19:59Z</time>
      </trkpt>
      <trkpt lat="48.08175" lon="-3.59166">
        <ele>88.2</ele>
        <time>2025-02-25T09:20:00Z</time>
      </trkpt>
      <trkpt lat="48.08175" lon="-3.59166">
        <ele>88.2</ele>
        <time>2025-02-25T09:20:01Z</time>
      </trkpt>
      <trkpt lat="48.08175" lon="-3.59166">
        <ele>88.2</ele>
        <time>2025-02-25T09:20:02Z</time>
      </trkpt>
      <trkpt lat="48.08175" lon="-3.59166">
        <ele>88.2</ele>
        <time>2025-02-25T09:20:03Z</time>
      </trkpt>
      <trkpt lat="48.08175" lon="-3.59166">
        <ele>88.2</ele>
        <time>2025-02-25T09:20:04Z</time>
      </trkpt>
      <trkpt lat="48.08175" lon="-3.59166">
        <ele>88.2</ele>
        <time>2025-02-25T09:20:05Z</time>
      </trkpt>
      <trkpt lat="48.08175" lon="-3.59166">
        <ele>88.2</ele>
        <time>2025-02-25T09:20:06Z</time>
      </trkpt>
      <trkpt lat="48.08175" lon="-3.59166">
        <ele>88.2</ele>
        <time>2025-02-25T09:20:07Z</time>
      </trkpt>
      <trkpt lat="48.08175" lon="-3.59167">
        <ele>88.2</ele>
        <time>2025-02-25T09:20:08Z</time>
      </trkpt>
      <trkpt lat="48.08175" lon="-3.59166">
        <ele>88.2</ele>
        <time>2025-02-25T09:20:09Z</time>
      </trkpt>
      <trkpt lat="48.08175" lon="-3.59166">
        <ele>88.2</ele>
        <time>2025-02-25T09:20:10Z</time>
      </trkpt>
      <trkpt lat="48.08175" lon="-3.59166">
        <ele>88.2</ele>
        <time>2025-02-25T09:20:11Z</time>
      </trkpt>
      <trkpt lat="48.08175" lon="-3.59166">
        <ele>88.2</ele>
        <time>2025-02-25T09:20:12Z</time>
      </trkpt>
      <trkpt lat="48.08175" lon="-3.59166">
        <ele>88.2</ele>
        <time>2025-02-25T09:20:13Z</time>
      </trkpt>
      <trkpt lat="48.08175" lon="-3.59166">
        <ele>88.2</ele>
        <time>2025-02-25T09:20:14Z</time>
      </trkpt>
      <trkpt lat="48.08175" lon="-3.59166">
        <ele>88.2</ele>
        <time>2025-02-25T09:20:15Z</time>
      </trkpt>
      <trkpt lat="48.08175" lon="-3.59166">
        <ele>88.2</ele>
        <time>2025-02-25T09:20:16Z</time>
      </trkpt>
      <trkpt lat="48.08175" lon="-3.59166">
        <ele>88.2</ele>
        <time>2025-02-25T09:20:17Z</time>
      </trkpt>
      <trkpt lat="48.08175" lon="-3.59166">
        <ele>88.2</ele>
        <time>2025-02-25T09:20:18Z</time>
      </trkpt>
      <trkpt lat="48.08175" lon="-3.59166">
        <ele>88.2</ele>
        <time>2025-02-25T09:20:19Z</time>
      </trkpt>
      <trkpt lat="48.08175" lon="-3.59166">
        <ele>88.2</ele>
        <time>2025-02-25T09:20:20Z</time>
      </trkpt>
      <trkpt lat="48.08175" lon="-3.59166">
        <ele>88.2</ele>
        <time>2025-02-25T09:20:21Z</time>
      </trkpt>
      <trkpt lat="48.08175" lon="-3.59166">
        <ele>88.2</ele>
        <time>2025-02-25T09:20:22Z</time>
      </trkpt>
      <trkpt lat="48.08175" lon="-3.59166">
        <ele>88.2</ele>
        <time>2025-02-25T09:20:23Z</time>
      </trkpt>
      <trkpt lat="48.08175" lon="-3.59166">
        <ele>88.2</ele>
        <time>2025-02-25T09:20:24Z</time>
      </trkpt>
      <trkpt lat="48.08175" lon="-3.59166">
        <ele>88.2</ele>
        <time>2025-02-25T09:20:25Z</time>
      </trkpt>
      <trkpt lat="48.08175" lon="-3.59166">
        <ele>88.2</ele>
        <time>2025-02-25T09:20:26Z</time>
      </trkpt>
      <trkpt lat="48.08175" lon="-3.59166">
        <ele>88.2</ele>
        <time>2025-02-25T09:20:27Z</time>
      </trkpt>
      <trkpt lat="48.08175" lon="-3.59166">
        <ele>88.2</ele>
        <time>2025-02-25T09:20:28Z</time>
      </trkpt>
      <trkpt lat="48.08175" lon="-3.59166">
        <ele>88.2</ele>
        <time>2025-02-25T09:20:29Z</time>
      </trkpt>
      <trkpt lat="48.08175" lon="-3.59166">
        <ele>88.2</ele>
        <time>2025-02-25T09:20:30Z</time>
      </trkpt>
      <trkpt lat="48.08175" lon="-3.59166">
        <ele>88.2</ele>
        <time>2025-02-25T09:20:31Z</time>
      </trkpt>
      <trkpt lat="48.08175" lon="-3.59166">
        <ele>88.2</ele>
        <time>2025-02-25T09:20:32Z</time>
      </trkpt>
      <trkpt lat="48.08175" lon="-3.59166">
        <ele>88.2</ele>
        <time>2025-02-25T09:20:33Z</time>
      </trkpt>
      <trkpt lat="48.08175" lon="-3.59166">
        <ele>88.2</ele>
        <time>2025-02-25T09:20:34Z</time>
      </trkpt>
      <trkpt lat="48.08175" lon="-3.59166">
        <ele>88.2</ele>
        <time>2025-02-25T09:20:35Z</time>
      </trkpt>
      <trkpt lat="48.08175" lon="-3.59166">
        <ele>88.2</ele>
        <time>2025-02-25T09:20:36Z</time>
      </trkpt>
      <trkpt lat="48.08175" lon="-3.59166">
        <ele>88.2</ele>
        <time>2025-02-25T09:20:37Z</time>
      </trkpt>
      <trkpt lat="48.08175" lon="-3.59166">
        <ele>88.2</ele>
        <time>2025-02-25T09:20:38Z</time>
      </trkpt>
      <trkpt lat="48.08175" lon="-3.59166">
        <ele>88.2</ele>
        <time>2025-02-25T09:20:39Z</time>
      </trkpt>
      <trkpt lat="48.08175" lon="-3.59166">
        <ele>88.2</ele>
        <time>2025-02-25T09:20:40Z</time>
      </trkpt>
      <trkpt lat="48.08175" lon="-3.59166">
        <ele>88.2</ele>
        <time>2025-02-25T09:20:41Z</time>
      </trkpt>
      <trkpt lat="48.08175" lon="-3.59166">
        <ele>88.2</ele>
        <time>2025-02-25T09:20:42Z</time>
      </trkpt>
      <trkpt lat="48.08175" lon="-3.59166">
        <ele>88.2</ele>
        <time>2025-02-25T09:20:43Z</time>
      </trkpt>
      <trkpt lat="48.08175" lon="-3.59166">
        <ele>88.2</ele>
        <time>2025-02-25T09:20:44Z</time>
      </trkpt>
      <trkpt lat="48.08175" lon="-3.59166">
        <ele>88.2</ele>
        <time>2025-02-25T09:20:45Z</time>
      </trkpt>
      <trkpt lat="48.08175" lon="-3.59166">
        <ele>88.2</ele>
        <time>2025-02-25T09:20:46Z</time>
      </trkpt>
      <trkpt lat="48.08175" lon="-3.59166">
        <ele>88.2</ele>
        <time>2025-02-25T09:20:47Z</time>
      </trkpt>
      <trkpt lat="48.08175" lon="-3.59166">
        <ele>88.2</ele>
        <time>2025-02-25T09:20:48Z</time>
      </trkpt>
      <trkpt lat="48.08175" lon="-3.59166">
        <ele>88.2</ele>
        <time>2025-02-25T09:20:49Z</time>
      </trkpt>
      <trkpt lat="48.08175" lon="-3.59166">
        <ele>88.2</ele>
        <time>2025-02-25T09:20:50Z</time>
      </trkpt>
      <trkpt lat="48.08175" lon="-3.59166">
        <ele>88.2</ele>
        <time>2025-02-25T09:20:51Z</time>
      </trkpt>
      <trkpt lat="48.08175" lon="-3.59166">
        <ele>88.2</ele>
        <time>2025-02-25T09:20:52Z</time>
      </trkpt>
      <trkpt lat="48.08175" lon="-3.59166">
        <ele>88.2</ele>
        <time>2025-02-25T09:20:53Z</time>
      </trkpt>
      <trkpt lat="48.08175" lon="-3.59166">
        <ele>88.2</ele>
        <time>2025-02-25T09:20:54Z</time>
      </trkpt>
      <trkpt lat="48.08175" lon="-3.59166">
        <ele>88.2</ele>
        <time>2025-02-25T09:20:55Z</time>
      </trkpt>
      <trkpt lat="48.08175" lon="-3.59166">
        <ele>88.2</ele>
        <time>2025-02-25T09:20:56Z</time>
      </trkpt>
      <trkpt lat="48.08175" lon="-3.59166">
        <ele>88.2</ele>
        <time>2025-02-25T09:20:57Z</time>
      </trkpt>
      <trkpt lat="48.08175" lon="-3.59166">
        <ele>88.2</ele>
        <time>2025-02-25T09:20:58Z</time>
      </trkpt>
      <trkpt lat="48.08175" lon="-3.59166">
        <ele>88.2</ele>
        <time>2025-02-25T09:20:59Z</time>
      </trkpt>
      <trkpt lat="48.08175" lon="-3.59166">
        <ele>88.2</ele>
        <time>2025-02-25T09:21:00Z</time>
      </trkpt>
      <trkpt lat="48.08175" lon="-3.59166">
        <ele>88.2</ele>
        <time>2025-02-25T09:21:01Z</time>
      </trkpt>
      <trkpt lat="48.08175" lon="-3.59166">
        <ele>88.2</ele>
        <time>2025-02-25T09:21:02Z</time>
      </trkpt>
      <trkpt lat="48.08175" lon="-3.59166">
        <ele>88.2</ele>
        <time>2025-02-25T09:21:03Z</time>
      </trkpt>
      <trkpt lat="48.08175" lon="-3.59166">
        <ele>88.2</ele>
        <time>2025-02-25T09:21:04Z</time>
      </trkpt>
      <trkpt lat="48.08175" lon="-3.59166">
        <ele>88.2</ele>
        <time>2025-02-25T09:21:05Z</time>
      </trkpt>
      <trkpt lat="48.08175" lon="-3.59166">
        <ele>88.2</ele>
        <time>2025-02-25T09:21:06Z</time>
      </trkpt>
      <trkpt lat="48.08175" lon="-3.59166">
        <ele>88.2</ele>
        <time>2025-02-25T09:21:07Z</time>
      </trkpt>
      <trkpt lat="48.08175" lon="-3.59166">
        <ele>88.2</ele>
        <time>2025-02-25T09:21:08Z</time>
      </trkpt>
      <trkpt lat="48.08175" lon="-3.59167">
        <ele>88.2</ele>
        <time>2025-02-25T09:21:09Z</time>
      </trkpt>
      <trkpt lat="48.08175" lon="-3.59166">
        <ele>88.2</ele>
        <time>2025-02-25T09:21:10Z</time>
      </trkpt>
      <trkpt lat="48.08175" lon="-3.59166">
        <ele>88.2</ele>
        <time>2025-02-25T09:21:11Z</time>
      </trkpt>
      <trkpt lat="48.08175" lon="-3.59166">
        <ele>88.2</ele>
        <time>2025-02-25T09:21:12Z</time>
      </trkpt>
      <trkpt lat="48.08175" lon="-3.59166">
        <ele>88.2</ele>
        <time>2025-02-25T09:21:13Z</time>
      </trkpt>
      <trkpt lat="48.08175" lon="-3.59166">
        <ele>88.2</ele>
        <time>2025-02-25T09:21:14Z</time>
      </trkpt>
      <trkpt lat="48.08175" lon="-3.59166">
        <ele>88.2</ele>
        <time>2025-02-25T09:21:15Z</time>
      </trkpt>
      <trkpt lat="48.08175" lon="-3.59166">
        <ele>88.2</ele>
        <time>2025-02-25T09:21:16Z</time>
      </trkpt>
      <trkpt lat="48.08175" lon="-3.59166">
        <ele>88.2</ele>
        <time>2025-02-25T09:21:17Z</time>
      </trkpt>
      <trkpt lat="48.08175" lon="-3.59166">
        <ele>88.2</ele>
        <time>2025-02-25T09:21:18Z</time>
      </trkpt>
      <trkpt lat="48.08175" lon="-3.59166">
        <ele>88.2</ele>
        <time>2025-02-25T09:21:19Z</time>
      </trkpt>
      <trkpt lat="48.08175" lon="-3.59166">
        <ele>88.2</ele>
        <time>2025-02-25T09:21:20Z</time>
      </trkpt>
      <trkpt lat="48.08175" lon="-3.59166">
        <ele>88.2</ele>
        <time>2025-02-25T09:21:21Z</time>
      </trkpt>
      <trkpt lat="48.08175" lon="-3.59166">
        <ele>88.2</ele>
        <time>2025-02-25T09:21:22Z</time>
      </trkpt>
      <trkpt lat="48.08175" lon="-3.59166">
        <ele>88.2</ele>
        <time>2025-02-25T09:21:23Z</time>
      </trkpt>
      <trkpt lat="48.08175" lon="-3.59166">
        <ele>88.2</ele>
        <time>2025-02-25T09:21:24Z</time>
      </trkpt>
      <trkpt lat="48.08175" lon="-3.59166">
        <ele>88.2</ele>
        <time>2025-02-25T09:21:25Z</time>
      </trkpt>
      <trkpt lat="48.08175" lon="-3.59166">
        <ele>88.2</ele>
        <time>2025-02-25T09:21:26Z</time>
      </trkpt>
      <trkpt lat="48.08175" lon="-3.59166">
        <ele>88.2</ele>
        <time>2025-02-25T09:21:27Z</time>
      </trkpt>
      <trkpt lat="48.08175" lon="-3.59166">
        <ele>88.2</ele>
        <time>2025-02-25T09:21:28Z</time>
      </trkpt>
      <trkpt lat="48.08175" lon="-3.59166">
        <ele>88.2</ele>
        <time>2025-02-25T09:21:29Z</time>
      </trkpt>
      <trkpt lat="48.08175" lon="-3.59166">
        <ele>88.2</ele>
        <time>2025-02-25T09:21:30Z</time>
      </trkpt>
      <trkpt lat="48.08175" lon="-3.59166">
        <ele>88.2</ele>
        <time>2025-02-25T09:21:31Z</time>
      </trkpt>
      <trkpt lat="48.08175" lon="-3.59166">
        <ele>88.2</ele>
        <time>2025-02-25T09:21:32Z</time>
      </trkpt>
      <trkpt lat="48.08175" lon="-3.59166">
        <ele>88.2</ele>
        <time>2025-02-25T09:21:33Z</time>
      </trkpt>
      <trkpt lat="48.08175" lon="-3.59166">
        <ele>88.2</ele>
        <time>2025-02-25T09:21:34Z</time>
      </trkpt>
      <trkpt lat="48.08175" lon="-3.59166">
        <ele>88.2</ele>
        <time>2025-02-25T09:21:35Z</time>
      </trkpt>
      <trkpt lat="48.08175" lon="-3.59166">
        <ele>88.2</ele>
        <time>2025-02-25T09:21:36Z</time>
      </trkpt>
      <trkpt lat="48.08175" lon="-3.59166">
        <ele>88.2</ele>
        <time>2025-02-25T09:21:37Z</time>
      </trkpt>
      <trkpt lat="48.08175" lon="-3.59166">
        <ele>88.2</ele>
        <time>2025-02-25T09:21:38Z</time>
      </trkpt>
      <trkpt lat="48.08175" lon="-3.59166">
        <ele>88.2</ele>
        <time>2025-02-25T09:21:39Z</time>
      </trkpt>
      <trkpt lat="48.08175" lon="-3.59166">
        <ele>88.2</ele>
        <time>2025-02-25T09:21:40Z</time>
      </trkpt>
      <trkpt lat="48.08175" lon="-3.59166">
        <ele>88.2</ele>
        <time>2025-02-25T09:21:41Z</time>
      </trkpt>
      <trkpt lat="48.08175" lon="-3.59166">
        <ele>88.2</ele>
        <time>2025-02-25T09:21:42Z</time>
      </trkpt>
      <trkpt lat="48.08175" lon="-3.59166">
        <ele>88.2</ele>
        <time>2025-02-25T09:21:43Z</time>
      </trkpt>
      <trkpt lat="48.08175" lon="-3.59166">
        <ele>88.2</ele>
        <time>2025-02-25T09:21:44Z</time>
      </trkpt>
      <trkpt lat="48.08175" lon="-3.59166">
        <ele>88.2</ele>
        <time>2025-02-25T09:21:45Z</time>
      </trkpt>
      <trkpt lat="48.08175" lon="-3.59166">
        <ele>88.2</ele>
        <time>2025-02-25T09:21:46Z</time>
      </trkpt>
      <trkpt lat="48.08175" lon="-3.59166">
        <ele>88.2</ele>
        <time>2025-02-25T09:21:47Z</time>
      </trkpt>
      <trkpt lat="48.08175" lon="-3.59166">
        <ele>88.2</ele>
        <time>2025-02-25T09:21:48Z</time>
      </trkpt>
      <trkpt lat="48.08175" lon="-3.59166">
        <ele>88.2</ele>
        <time>2025-02-25T09:21:49Z</time>
      </trkpt>
      <trkpt lat="48.08175" lon="-3.59166">
        <ele>88.2</ele>
        <time>2025-02-25T09:21:50Z</time>
      </trkpt>
      <trkpt lat="48.08175" lon="-3.59166">
        <ele>88.2</ele>
        <time>2025-02-25T09:21:51Z</time>
      </trkpt>
      <trkpt lat="48.08175" lon="-3.59166">
        <ele>88.2</ele>
        <time>2025-02-25T09:21:52Z</time>
      </trkpt>
      <trkpt lat="48.08175" lon="-3.59166">
        <ele>88.2</ele>
        <time>2025-02-25T09:21:53Z</time>
      </trkpt>
      <trkpt lat="48.08175" lon="-3.59166">
        <ele>88.2</ele>
        <time>2025-02-25T09:21:54Z</time>
      </trkpt>
      <trkpt lat="48.08175" lon="-3.59166">
        <ele>88.2</ele>
        <time>2025-02-25T09:21:55Z</time>
      </trkpt>
      <trkpt lat="48.08175" lon="-3.59166">
        <ele>88.2</ele>
        <time>2025-02-25T09:21:56Z</time>
      </trkpt>
      <trkpt lat="48.08175" lon="-3.59166">
        <ele>88.2</ele>
        <time>2025-02-25T09:21:57Z</time>
      </trkpt>
      <trkpt lat="48.08175" lon="-3.59166">
        <ele>88.2</ele>
        <time>2025-02-25T09:21:58Z</time>
      </trkpt>
      <trkpt lat="48.08175" lon="-3.59166">
        <ele>88.2</ele>
        <time>2025-02-25T09:21:59Z</time>
      </trkpt>
      <trkpt lat="48.08175" lon="-3.59166">
        <ele>88.2</ele>
        <time>2025-02-25T09:22:00Z</time>
      </trkpt>
      <trkpt lat="48.08175" lon="-3.59166">
        <ele>88.2</ele>
        <time>2025-02-25T09:22:01Z</time>
      </trkpt>
      <trkpt lat="48.08175" lon="-3.59166">
        <ele>88.2</ele>
        <time>2025-02-25T09:22:02Z</time>
      </trkpt>
      <trkpt lat="48.08175" lon="-3.59166">
        <ele>88.2</ele>
        <time>2025-02-25T09:22:03Z</time>
      </trkpt>
      <trkpt lat="48.08175" lon="-3.59166">
        <ele>88.2</ele>
        <time>2025-02-25T09:22:04Z</time>
      </trkpt>
      <trkpt lat="48.08175" lon="-3.59166">
        <ele>88.2</ele>
        <time>2025-02-25T09:22:05Z</time>
      </trkpt>
      <trkpt lat="48.08175" lon="-3.59166">
        <ele>88.2</ele>
        <time>2025-02-25T09:22:06Z</time>
      </trkpt>
      <trkpt lat="48.08176" lon="-3.59166">
        <ele>88.3</ele>
        <time>2025-02-25T09:22:07Z</time>
      </trkpt>
      <trkpt lat="48.08176" lon="-3.59167">
        <ele>88.4</ele>
        <time>2025-02-25T09:22:08Z</time>
      </trkpt>
      <trkpt lat="48.08177" lon="-3.59168">
        <ele>88.5</ele>
        <time>2025-02-25T09:22:09Z</time>
      </trkpt>
      <trkpt lat="48.08179" lon="-3.59167">
        <ele>88.8</ele>
        <time>2025-02-25T09:22:10Z</time>
      </trkpt>
      <trkpt lat="48.0818" lon="-3.59168">
        <ele>89</ele>
        <time>2025-02-25T09:22:11Z</time>
      </trkpt>
      <trkpt lat="48.0818" lon="-3.5917">
        <ele>89</ele>
        <time>2025-02-25T09:22:12Z</time>
      </trkpt>
      <trkpt lat="48.08181" lon="-3.5917">
        <ele>89.2</ele>
        <time>2025-02-25T09:22:13Z</time>
      </trkpt>
      <trkpt lat="48.08181" lon="-3.59172">
        <ele>89.3</ele>
        <time>2025-02-25T09:22:14Z</time>
      </trkpt>
      <trkpt lat="48.08182" lon="-3.59173">
        <ele>89.4</ele>
        <time>2025-02-25T09:22:15Z</time>
      </trkpt>
      <trkpt lat="48.08182" lon="-3.59174">
        <ele>89.5</ele>
        <time>2025-02-25T09:22:16Z</time>
      </trkpt>
      <trkpt lat="48.08183" lon="-3.59175">
        <ele>89.7</ele>
        <time>2025-02-25T09:22:17Z</time>
      </trkpt>
      <trkpt lat="48.08183" lon="-3.59176">
        <ele>89.7</ele>
        <time>2025-02-25T09:22:18Z</time>
      </trkpt>
      <trkpt lat="48.08183" lon="-3.59177">
        <ele>89.7</ele>
        <time>2025-02-25T09:22:19Z</time>
      </trkpt>
      <trkpt lat="48.08184" lon="-3.59178">
        <ele>89.9</ele>
        <time>2025-02-25T09:22:20Z</time>
      </trkpt>
      <trkpt lat="48.08185" lon="-3.59179">
        <ele>90.1</ele>
        <time>2025-02-25T09:22:21Z</time>
      </trkpt>
      <trkpt lat="48.08185" lon="-3.59181">
        <ele>90.2</ele>
        <time>2025-02-25T09:22:22Z</time>
      </trkpt>
      <trkpt lat="48.08185" lon="-3.59182">
        <ele>90.2</ele>
        <time>2025-02-25T09:22:23Z</time>
      </trkpt>
      <trkpt lat="48.08185" lon="-3.59183">
        <ele>90.2</ele>
        <time>2025-02-25T09:22:24Z</time>
      </trkpt>
      <trkpt lat="48.08185" lon="-3.59184">
        <ele>90.3</ele>
        <time>2025-02-25T09:22:25Z</time>
      </trkpt>
      <trkpt lat="48.08186" lon="-3.59185">
        <ele>90.4</ele>
        <time>2025-02-25T09:22:26Z</time>
      </trkpt>
      <trkpt lat="48.08186" lon="-3.59186">
        <ele>90.5</ele>
        <time>2025-02-25T09:22:27Z</time>
      </trkpt>
      <trkpt lat="48.08187" lon="-3.59187">
        <ele>90.7</ele>
        <time>2025-02-25T09:22:28Z</time>
      </trkpt>
      <trkpt lat="48.08188" lon="-3.59188">
        <ele>90.8</ele>
        <time>2025-02-25T09:22:29Z</time>
      </trkpt>
      <trkpt lat="48.08188" lon="-3.5919">
        <ele>90.9</ele>
        <time>2025-02-25T09:22:30Z</time>
      </trkpt>
      <trkpt lat="48.08188" lon="-3.59193">
        <ele>91</ele>
        <time>2025-02-25T09:22:31Z</time>
      </trkpt>
      <trkpt lat="48.08188" lon="-3.59195">
        <ele>91.1</ele>
        <time>2025-02-25T09:22:32Z</time>
      </trkpt>
      <trkpt lat="48.08188" lon="-3.59197">
        <ele>91.2</ele>
        <time>2025-02-25T09:22:33Z</time>
      </trkpt>
      <trkpt lat="48.08189" lon="-3.59199">
        <ele>91.4</ele>
        <time>2025-02-25T09:22:34Z</time>
      </trkpt>
      <trkpt lat="48.08189" lon="-3.59201">
        <ele>91.5</ele>
        <time>2025-02-25T09:22:35Z</time>
      </trkpt>
      <trkpt lat="48.08189" lon="-3.59202">
        <ele>91.5</ele>
        <time>2025-02-25T09:22:36Z</time>
      </trkpt>
      <trkpt lat="48.0819" lon="-3.59204">
        <ele>91.8</ele>
        <time>2025-02-25T09:22:37Z</time>
      </trkpt>
      <trkpt lat="48.0819" lon="-3.59205">
        <ele>91.8</ele>
        <time>2025-02-25T09:22:38Z</time>
      </trkpt>
      <trkpt lat="48.08191" lon="-3.59206">
        <ele>92</ele>
        <time>2025-02-25T09:22:39Z</time>
      </trkpt>
      <trkpt lat="48.08191" lon="-3.59208">
        <ele>92.1</ele>
        <time>2025-02-25T09:22:40Z</time>
      </trkpt>
      <trkpt lat="48.08192" lon="-3.59209">
        <ele>92.2</ele>
        <time>2025-02-25T09:22:41Z</time>
      </trkpt>
      <trkpt lat="48.08192" lon="-3.59211">
        <ele>92.3</ele>
        <time>2025-02-25T09:22:42Z</time>
      </trkpt>
      <trkpt lat="48.08192" lon="-3.59212">
        <ele>92.3</ele>
        <time>2025-02-25T09:22:43Z</time>
      </trkpt>
      <trkpt lat="48.08192" lon="-3.59214">
        <ele>92.4</ele>
        <time>2025-02-25T09:22:44Z</time>
      </trkpt>
      <trkpt lat="48.08192" lon="-3.59215">
        <ele>92.5</ele>
        <time>2025-02-25T09:22:45Z</time>
      </trkpt>
      <trkpt lat="48.08192" lon="-3.59217">
        <ele>92.5</ele>
        <time>2025-02-25T09:22:46Z</time>
      </trkpt>
      <trkpt lat="48.08192" lon="-3.59217">
        <ele>92.5</ele>
        <time>2025-02-25T09:22:47Z</time>
      </trkpt>
      <trkpt lat="48.08192" lon="-3.59219">
        <ele>92.6</ele>
        <time>2025-02-25T09:22:48Z</time>
      </trkpt>
      <trkpt lat="48.08192" lon="-3.5922">
        <ele>92.6</ele>
        <time>2025-02-25T09:22:49Z</time>
      </trkpt>
      <trkpt lat="48.08192" lon="-3.59221">
        <ele>92.7</ele>
        <time>2025-02-25T09:22:50Z</time>
      </trkpt>
      <trkpt lat="48.08192" lon="-3.59223">
        <ele>92.8</ele>
        <time>2025-02-25T09:22:51Z</time>
      </trkpt>
      <trkpt lat="48.08192" lon="-3.59225">
        <ele>92.8</ele>
        <time>2025-02-25T09:22:52Z</time>
      </trkpt>
      <trkpt lat="48.08192" lon="-3.59226">
        <ele>92.9</ele>
        <time>2025-02-25T09:22:53Z</time>
      </trkpt>
      <trkpt lat="48.08192" lon="-3.59227">
        <ele>92.9</ele>
        <time>2025-02-25T09:22:54Z</time>
      </trkpt>
      <trkpt lat="48.08193" lon="-3.59228">
        <ele>93</ele>
        <time>2025-02-25T09:22:55Z</time>
      </trkpt>
      <trkpt lat="48.08193" lon="-3.5923">
        <ele>93.1</ele>
        <time>2025-02-25T09:22:56Z</time>
      </trkpt>
      <trkpt lat="48.08193" lon="-3.59231">
        <ele>93.1</ele>
        <time>2025-02-25T09:22:57Z</time>
      </trkpt>
      <trkpt lat="48.08193" lon="-3.59233">
        <ele>93.2</ele>
        <time>2025-02-25T09:22:58Z</time>
      </trkpt>
      <trkpt lat="48.08193" lon="-3.59234">
        <ele>93.2</ele>
        <time>2025-02-25T09:22:59Z</time>
      </trkpt>
      <trkpt lat="48.08192" lon="-3.59235">
        <ele>93.2</ele>
        <time>2025-02-25T09:23:00Z</time>
      </trkpt>
      <trkpt lat="48.08192" lon="-3.59236">
        <ele>93.2</ele>
        <time>2025-02-25T09:23:01Z</time>
      </trkpt>
      <trkpt lat="48.08192" lon="-3.59237">
        <ele>93.2</ele>
        <time>2025-02-25T09:23:02Z</time>
      </trkpt>
      <trkpt lat="48.08192" lon="-3.59238">
        <ele>93.3</ele>
        <time>2025-02-25T09:23:03Z</time>
      </trkpt>
      <trkpt lat="48.08192" lon="-3.59238">
        <ele>93.3</ele>
        <time>2025-02-25T09:23:04Z</time>
      </trkpt>
      <trkpt lat="48.08192" lon="-3.5924">
        <ele>93.3</ele>
        <time>2025-02-25T09:23:05Z</time>
      </trkpt>
      <trkpt lat="48.08193" lon="-3.59242">
        <ele>93.5</ele>
        <time>2025-02-25T09:23:06Z</time>
      </trkpt>
      <trkpt lat="48.08193" lon="-3.59243">
        <ele>93.6</ele>
        <time>2025-02-25T09:23:07Z</time>
      </trkpt>
      <trkpt lat="48.08193" lon="-3.59245">
        <ele>93.6</ele>
        <time>2025-02-25T09:23:08Z</time>
      </trkpt>
      <trkpt lat="48.08193" lon="-3.59247">
        <ele>93.7</ele>
        <time>2025-02-25T09:23:09Z</time>
      </trkpt>
      <trkpt lat="48.08193" lon="-3.59248">
        <ele>93.7</ele>
        <time>2025-02-25T09:23:10Z</time>
      </trkpt>
      <trkpt lat="48.08193" lon="-3.59249">
        <ele>93.8</ele>
        <time>2025-02-25T09:23:11Z</time>
      </trkpt>
      <trkpt lat="48.08193" lon="-3.5925">
        <ele>93.8</ele>
        <time>2025-02-25T09:23:12Z</time>
      </trkpt>
      <trkpt lat="48.08193" lon="-3.59252">
        <ele>93.9</ele>
        <time>2025-02-25T09:23:13Z</time>
      </trkpt>
      <trkpt lat="48.08193" lon="-3.59253">
        <ele>93.9</ele>
        <time>2025-02-25T09:23:14Z</time>
      </trkpt>
      <trkpt lat="48.08194" lon="-3.59255">
        <ele>94.1</ele>
        <time>2025-02-25T09:23:15Z</time>
      </trkpt>
      <trkpt lat="48.08195" lon="-3.59256">
        <ele>94.3</ele>
        <time>2025-02-25T09:23:16Z</time>
      </trkpt>
      <trkpt lat="48.08195" lon="-3.59258">
        <ele>94.3</ele>
        <time>2025-02-25T09:23:17Z</time>
      </trkpt>
      <trkpt lat="48.08194" lon="-3.59259">
        <ele>94.3</ele>
        <time>2025-02-25T09:23:18Z</time>
      </trkpt>
      <trkpt lat="48.08194" lon="-3.59261">
        <ele>94.3</ele>
        <time>2025-02-25T09:23:19Z</time>
      </trkpt>
      <trkpt lat="48.08194" lon="-3.59263">
        <ele>94.4</ele>
        <time>2025-02-25T09:23:20Z</time>
      </trkpt>
      <trkpt lat="48.08194" lon="-3.59264">
        <ele>94.4</ele>
        <time>2025-02-25T09:23:21Z</time>
      </trkpt>
      <trkpt lat="48.08194" lon="-3.59266">
        <ele>94.5</ele>
        <time>2025-02-25T09:23:22Z</time>
      </trkpt>
      <trkpt lat="48.08195" lon="-3.59268">
        <ele>94.7</ele>
        <time>2025-02-25T09:23:23Z</time>
      </trkpt>
      <trkpt lat="48.08195" lon="-3.59269">
        <ele>94.7</ele>
        <time>2025-02-25T09:23:24Z</time>
      </trkpt>
      <trkpt lat="48.08194" lon="-3.5927">
        <ele>94.7</ele>
        <time>2025-02-25T09:23:25Z</time>
      </trkpt>
      <trkpt lat="48.08194" lon="-3.59272">
        <ele>94.7</ele>
        <time>2025-02-25T09:23:26Z</time>
      </trkpt>
      <trkpt lat="48.08195" lon="-3.59273">
        <ele>94.9</ele>
        <time>2025-02-25T09:23:27Z</time>
      </trkpt>
      <trkpt lat="48.08195" lon="-3.59275">
        <ele>95</ele>
        <time>2025-02-25T09:23:28Z</time>
      </trkpt>
      <trkpt lat="48.08195" lon="-3.59275">
        <ele>95</ele>
        <time>2025-02-25T09:23:29Z</time>
      </trkpt>
      <trkpt lat="48.08195" lon="-3.59278">
        <ele>95.1</ele>
        <time>2025-02-25T09:23:30Z</time>
      </trkpt>
      <trkpt lat="48.08195" lon="-3.5928">
        <ele>95.1</ele>
        <time>2025-02-25T09:23:31Z</time>
      </trkpt>
      <trkpt lat="48.08195" lon="-3.59281">
        <ele>95.2</ele>
        <time>2025-02-25T09:23:32Z</time>
      </trkpt>
      <trkpt lat="48.08195" lon="-3.59283">
        <ele>95.3</ele>
        <time>2025-02-25T09:23:33Z</time>
      </trkpt>
      <trkpt lat="48.08195" lon="-3.59285">
        <ele>95.3</ele>
        <time>2025-02-25T09:23:34Z</time>
      </trkpt>
      <trkpt lat="48.08196" lon="-3.59286">
        <ele>95.5</ele>
        <time>2025-02-25T09:23:35Z</time>
      </trkpt>
      <trkpt lat="48.08196" lon="-3.59288">
        <ele>95.6</ele>
        <time>2025-02-25T09:23:36Z</time>
      </trkpt>
      <trkpt lat="48.08196" lon="-3.59289">
        <ele>95.6</ele>
        <time>2025-02-25T09:23:37Z</time>
      </trkpt>
      <trkpt lat="48.08195" lon="-3.59291">
        <ele>95.5</ele>
        <time>2025-02-25T09:23:38Z</time>
      </trkpt>
      <trkpt lat="48.08196" lon="-3.59292">
        <ele>95.7</ele>
        <time>2025-02-25T09:23:39Z</time>
      </trkpt>
      <trkpt lat="48.08196" lon="-3.59294">
        <ele>95.8</ele>
        <time>2025-02-25T09:23:40Z</time>
      </trkpt>
      <trkpt lat="48.08197" lon="-3.59295">
        <ele>96</ele>
        <time>2025-02-25T09:23:41Z</time>
      </trkpt>
      <trkpt lat="48.08197" lon="-3.59296">
        <ele>96</ele>
        <time>2025-02-25T09:23:42Z</time>
      </trkpt>
      <trkpt lat="48.08197" lon="-3.59296">
        <ele>96</ele>
        <time>2025-02-25T09:23:43Z</time>
      </trkpt>
      <trkpt lat="48.08198" lon="-3.59299">
        <ele>96.2</ele>
        <time>2025-02-25T09:23:44Z</time>
      </trkpt>
      <trkpt lat="48.08199" lon="-3.593">
        <ele>96.4</ele>
        <time>2025-02-25T09:23:45Z</time>
      </trkpt>
      <trkpt lat="48.08199" lon="-3.59302">
        <ele>96.5</ele>
        <time>2025-02-25T09:23:46Z</time>
      </trkpt>
      <trkpt lat="48.082" lon="-3.59303">
        <ele>96.7</ele>
        <time>2025-02-25T09:23:47Z</time>
      </trkpt>
      <trkpt lat="48.08201" lon="-3.59304">
        <ele>96.9</ele>
        <time>2025-02-25T09:23:48Z</time>
      </trkpt>
      <trkpt lat="48.08202" lon="-3.59305">
        <ele>97.1</ele>
        <time>2025-02-25T09:23:49Z</time>
      </trkpt>
      <trkpt lat="48.08202" lon="-3.59306">
        <ele>97.1</ele>
        <time>2025-02-25T09:23:50Z</time>
      </trkpt>
      <trkpt lat="48.08203" lon="-3.59307">
        <ele>97.2</ele>
        <time>2025-02-25T09:23:51Z</time>
      </trkpt>
      <trkpt lat="48.08203" lon="-3.59308">
        <ele>97.3</ele>
        <time>2025-02-25T09:23:52Z</time>
      </trkpt>
      <trkpt lat="48.08204" lon="-3.5931">
        <ele>97.4</ele>
        <time>2025-02-25T09:23:53Z</time>
      </trkpt>
      <trkpt lat="48.08205" lon="-3.5931">
        <ele>97.6</ele>
        <time>2025-02-25T09:23:54Z</time>
      </trkpt>
      <trkpt lat="48.08205" lon="-3.59311">
        <ele>97.6</ele>
        <time>2025-02-25T09:23:55Z</time>
      </trkpt>
      <trkpt lat="48.08205" lon="-3.59312">
        <ele>97.6</ele>
        <time>2025-02-25T09:23:56Z</time>
      </trkpt>
      <trkpt lat="48.08206" lon="-3.59313">
        <ele>97.8</ele>
        <time>2025-02-25T09:23:57Z</time>
      </trkpt>
      <trkpt lat="48.08206" lon="-3.59313">
        <ele>97.8</ele>
        <time>2025-02-25T09:23:58Z</time>
      </trkpt>
      <trkpt lat="48.08206" lon="-3.59314">
        <ele>97.8</ele>
        <time>2025-02-25T09:23:59Z</time>
      </trkpt>
      <trkpt lat="48.08207" lon="-3.59315">
        <ele>98</ele>
        <time>2025-02-25T09:24:00Z</time>
      </trkpt>
      <trkpt lat="48.08208" lon="-3.59316">
        <ele>98.1</ele>
        <time>2025-02-25T09:24:01Z</time>
      </trkpt>
      <trkpt lat="48.08209" lon="-3.59317">
        <ele>98.3</ele>
        <time>2025-02-25T09:24:02Z</time>
      </trkpt>
      <trkpt lat="48.08209" lon="-3.59318">
        <ele>98.3</ele>
        <time>2025-02-25T09:24:03Z</time>
      </trkpt>
      <trkpt lat="48.08209" lon="-3.59318">
        <ele>98.3</ele>
        <time>2025-02-25T09:24:04Z</time>
      </trkpt>
      <trkpt lat="48.08209" lon="-3.59319">
        <ele>98.3</ele>
        <time>2025-02-25T09:24:05Z</time>
      </trkpt>
      <trkpt lat="48.08209" lon="-3.59318">
        <ele>98.3</ele>
        <time>2025-02-25T09:24:06Z</time>
      </trkpt>
      <trkpt lat="48.0821" lon="-3.59318">
        <ele>98.5</ele>
        <time>2025-02-25T09:24:07Z</time>
      </trkpt>
      <trkpt lat="48.0821" lon="-3.59319">
        <ele>98.5</ele>
        <time>2025-02-25T09:24:08Z</time>
      </trkpt>
      <trkpt lat="48.0821" lon="-3.59319">
        <ele>98.5</ele>
        <time>2025-02-25T09:24:09Z</time>
      </trkpt>
      <trkpt lat="48.0821" lon="-3.59319">
        <ele>98.5</ele>
        <time>2025-02-25T09:24:10Z</time>
      </trkpt>
      <trkpt lat="48.0821" lon="-3.59319">
        <ele>98.5</ele>
        <time>2025-02-25T09:24:11Z</time>
      </trkpt>
      <trkpt lat="48.0821" lon="-3.59318">
        <ele>98.5</ele>
        <time>2025-02-25T09:24:12Z</time>
      </trkpt>
      <trkpt lat="48.0821" lon="-3.59318">
        <ele>98.5</ele>
        <time>2025-02-25T09:24:13Z</time>
      </trkpt>
      <trkpt lat="48.0821" lon="-3.59318">
        <ele>98.5</ele>
        <time>2025-02-25T09:24:14Z</time>
      </trkpt>
      <trkpt lat="48.0821" lon="-3.59318">
        <ele>98.5</ele>
        <time>2025-02-25T09:24:15Z</time>
      </trkpt>
      <trkpt lat="48.0821" lon="-3.59319">
        <ele>98.5</ele>
        <time>2025-02-25T09:24:16Z</time>
      </trkpt>
      <trkpt lat="48.08209" lon="-3.59321">
        <ele>98.4</ele>
        <time>2025-02-25T09:24:17Z</time>
      </trkpt>
      <trkpt lat="48.08209" lon="-3.59322">
        <ele>98.4</ele>
        <time>2025-02-25T09:24:18Z</time>
      </trkpt>
      <trkpt lat="48.08208" lon="-3.59322">
        <ele>98.2</ele>
        <time>2025-02-25T09:24:19Z</time>
      </trkpt>
      <trkpt lat="48.08208" lon="-3.59323">
        <ele>98.3</ele>
        <time>2025-02-25T09:24:20Z</time>
      </trkpt>
      <trkpt lat="48.08207" lon="-3.59324">
        <ele>98.1</ele>
        <time>2025-02-25T09:24:21Z</time>
      </trkpt>
      <trkpt lat="48.08207" lon="-3.59325">
        <ele>98.1</ele>
        <time>2025-02-25T09:24:22Z</time>
      </trkpt>
      <trkpt lat="48.08206" lon="-3.59326">
        <ele>98</ele>
        <time>2025-02-25T09:24:23Z</time>
      </trkpt>
      <trkpt lat="48.08205" lon="-3.59327">
        <ele>97.8</ele>
        <time>2025-02-25T09:24:24Z</time>
      </trkpt>
      <trkpt lat="48.08205" lon="-3.59328">
        <ele>97.8</ele>
        <time>2025-02-25T09:24:25Z</time>
      </trkpt>
      <trkpt lat="48.08204" lon="-3.59329">
        <ele>97.7</ele>
        <time>2025-02-25T09:24:26Z</time>
      </trkpt>
      <trkpt lat="48.08203" lon="-3.5933">
        <ele>97.5</ele>
        <time>2025-02-25T09:24:27Z</time>
      </trkpt>
      <trkpt lat="48.08203" lon="-3.59333">
        <ele>97.5</ele>
        <time>2025-02-25T09:24:28Z</time>
      </trkpt>
      <trkpt lat="48.08203" lon="-3.59334">
        <ele>97.6</ele>
        <time>2025-02-25T09:24:29Z</time>
      </trkpt>
      <trkpt lat="48.08202" lon="-3.59335">
        <ele>97.5</ele>
        <time>2025-02-25T09:24:30Z</time>
      </trkpt>
      <trkpt lat="48.08202" lon="-3.59338">
        <ele>97.7</ele>
        <time>2025-02-25T09:24:31Z</time>
      </trkpt>
      <trkpt lat="48.08201" lon="-3.5934">
        <ele>97.7</ele>
        <time>2025-02-25T09:24:32Z</time>
      </trkpt>
      <trkpt lat="48.08201" lon="-3.59342">
        <ele>97.9</ele>
        <time>2025-02-25T09:24:33Z</time>
      </trkpt>
      <trkpt lat="48.082" lon="-3.59344">
        <ele>97.8</ele>
        <time>2025-02-25T09:24:34Z</time>
      </trkpt>
      <trkpt lat="48.082" lon="-3.59345">
        <ele>97.9</ele>
        <time>2025-02-25T09:24:35Z</time>
      </trkpt>
      <trkpt lat="48.08198" lon="-3.59347">
        <ele>97.7</ele>
        <time>2025-02-25T09:24:36Z</time>
      </trkpt>
      <trkpt lat="48.08198" lon="-3.59349">
        <ele>97.8</ele>
        <time>2025-02-25T09:24:37Z</time>
      </trkpt>
      <trkpt lat="48.08197" lon="-3.5935">
        <ele>97.7</ele>
        <time>2025-02-25T09:24:38Z</time>
      </trkpt>
      <trkpt lat="48.08196" lon="-3.59351">
        <ele>97.6</ele>
        <time>2025-02-25T09:24:39Z</time>
      </trkpt>
      <trkpt lat="48.08195" lon="-3.59352">
        <ele>97.5</ele>
        <time>2025-02-25T09:24:40Z</time>
      </trkpt>
      <trkpt lat="48.08194" lon="-3.59354">
        <ele>97.4</ele>
        <time>2025-02-25T09:24:41Z</time>
      </trkpt>
      <trkpt lat="48.08194" lon="-3.59355">
        <ele>97.5</ele>
        <time>2025-02-25T09:24:42Z</time>
      </trkpt>
      <trkpt lat="48.08193" lon="-3.59356">
        <ele>97.3</ele>
        <time>2025-02-25T09:24:43Z</time>
      </trkpt>
      <trkpt lat="48.08193" lon="-3.59358">
        <ele>97.5</ele>
        <time>2025-02-25T09:24:44Z</time>
      </trkpt>
      <trkpt lat="48.08192" lon="-3.5936">
        <ele>97.4</ele>
        <time>2025-02-25T09:24:45Z</time>
      </trkpt>
      <trkpt lat="48.08192" lon="-3.59361">
        <ele>97.5</ele>
        <time>2025-02-25T09:24:46Z</time>
      </trkpt>
      <trkpt lat="48.08191" lon="-3.59363">
        <ele>97.3</ele>
        <time>2025-02-25T09:24:47Z</time>
      </trkpt>
      <trkpt lat="48.08191" lon="-3.59364">
        <ele>97.4</ele>
        <time>2025-02-25T09:24:48Z</time>
      </trkpt>
      <trkpt lat="48.0819" lon="-3.59365">
        <ele>97.2</ele>
        <time>2025-02-25T09:24:49Z</time>
      </trkpt>
      <trkpt lat="48.0819" lon="-3.59367">
        <ele>97.3</ele>
        <time>2025-02-25T09:24:50Z</time>
      </trkpt>
      <trkpt lat="48.0819" lon="-3.59369">
        <ele>97.3</ele>
        <time>2025-02-25T09:24:51Z</time>
      </trkpt>
      <trkpt lat="48.08189" lon="-3.5937">
        <ele>97.1</ele>
        <time>2025-02-25T09:24:52Z</time>
      </trkpt>
      <trkpt lat="48.08189" lon="-3.59372">
        <ele>97.2</ele>
        <time>2025-02-25T09:24:53Z</time>
      </trkpt>
      <trkpt lat="48.08188" lon="-3.59374">
        <ele>97.1</ele>
        <time>2025-02-25T09:24:54Z</time>
      </trkpt>
      <trkpt lat="48.08188" lon="-3.59376">
        <ele>97.1</ele>
        <time>2025-02-25T09:24:55Z</time>
      </trkpt>
      <trkpt lat="48.08187" lon="-3.59378">
        <ele>97</ele>
        <time>2025-02-25T09:24:56Z</time>
      </trkpt>
      <trkpt lat="48.08187" lon="-3.59379">
        <ele>97</ele>
        <time>2025-02-25T09:24:57Z</time>
      </trkpt>
      <trkpt lat="48.08186" lon="-3.59379">
        <ele>96.8</ele>
        <time>2025-02-25T09:24:58Z</time>
      </trkpt>
      <trkpt lat="48.08186" lon="-3.59381">
        <ele>96.9</ele>
        <time>2025-02-25T09:24:59Z</time>
      </trkpt>
      <trkpt lat="48.08186" lon="-3.59382">
        <ele>96.9</ele>
        <time>2025-02-25T09:25:00Z</time>
      </trkpt>
      <trkpt lat="48.08186" lon="-3.59384">
        <ele>97</ele>
        <time>2025-02-25T09:25:01Z</time>
      </trkpt>
      <trkpt lat="48.08185" lon="-3.59385">
        <ele>96.8</ele>
        <time>2025-02-25T09:25:02Z</time>
      </trkpt>
      <trkpt lat="48.08185" lon="-3.59387">
        <ele>96.9</ele>
        <time>2025-02-25T09:25:03Z</time>
      </trkpt>
      <trkpt lat="48.08184" lon="-3.59389">
        <ele>96.7</ele>
        <time>2025-02-25T09:25:04Z</time>
      </trkpt>
      <trkpt lat="48.08184" lon="-3.59391">
        <ele>96.8</ele>
        <time>2025-02-25T09:25:05Z</time>
      </trkpt>
      <trkpt lat="48.08184" lon="-3.59392">
        <ele>96.9</ele>
        <time>2025-02-25T09:25:06Z</time>
      </trkpt>
      <trkpt lat="48.08184" lon="-3.59394">
        <ele>96.9</ele>
        <time>2025-02-25T09:25:07Z</time>
      </trkpt>
      <trkpt lat="48.08183" lon="-3.59396">
        <ele>96.8</ele>
        <time>2025-02-25T09:25:08Z</time>
      </trkpt>
      <trkpt lat="48.08183" lon="-3.59398">
        <ele>96.9</ele>
        <time>2025-02-25T09:25:09Z</time>
      </trkpt>
      <trkpt lat="48.08182" lon="-3.59399">
        <ele>96.7</ele>
        <time>2025-02-25T09:25:10Z</time>
      </trkpt>
      <trkpt lat="48.08182" lon="-3.594">
        <ele>96.7</ele>
        <time>2025-02-25T09:25:11Z</time>
      </trkpt>
      <trkpt lat="48.08181" lon="-3.59402">
        <ele>96.6</ele>
        <time>2025-02-25T09:25:12Z</time>
      </trkpt>
      <trkpt lat="48.0818" lon="-3.59403">
        <ele>96.4</ele>
        <time>2025-02-25T09:25:13Z</time>
      </trkpt>
      <trkpt lat="48.0818" lon="-3.59405">
        <ele>96.5</ele>
        <time>2025-02-25T09:25:14Z</time>
      </trkpt>
      <trkpt lat="48.0818" lon="-3.59407">
        <ele>96.5</ele>
        <time>2025-02-25T09:25:15Z</time>
      </trkpt>
      <trkpt lat="48.08179" lon="-3.59408">
        <ele>96.4</ele>
        <time>2025-02-25T09:25:16Z</time>
      </trkpt>
      <trkpt lat="48.08179" lon="-3.5941">
        <ele>96.4</ele>
        <time>2025-02-25T09:25:17Z</time>
      </trkpt>
      <trkpt lat="48.08178" lon="-3.59411">
        <ele>96.2</ele>
        <time>2025-02-25T09:25:18Z</time>
      </trkpt>
      <trkpt lat="48.08178" lon="-3.59413">
        <ele>96.3</ele>
        <time>2025-02-25T09:25:19Z</time>
      </trkpt>
      <trkpt lat="48.08177" lon="-3.59414">
        <ele>96.1</ele>
        <time>2025-02-25T09:25:20Z</time>
      </trkpt>
      <trkpt lat="48.08177" lon="-3.59416">
        <ele>96.2</ele>
        <time>2025-02-25T09:25:21Z</time>
      </trkpt>
      <trkpt lat="48.08177" lon="-3.59417">
        <ele>96.2</ele>
        <time>2025-02-25T09:25:22Z</time>
      </trkpt>
      <trkpt lat="48.08176" lon="-3.59418">
        <ele>96</ele>
        <time>2025-02-25T09:25:23Z</time>
      </trkpt>
      <trkpt lat="48.08176" lon="-3.59419">
        <ele>96</ele>
        <time>2025-02-25T09:25:24Z</time>
      </trkpt>
      <trkpt lat="48.08176" lon="-3.59421">
        <ele>96</ele>
        <time>2025-02-25T09:25:25Z</time>
      </trkpt>
      <trkpt lat="48.08175" lon="-3.59423">
        <ele>95.8</ele>
        <time>2025-02-25T09:25:26Z</time>
      </trkpt>
      <trkpt lat="48.08175" lon="-3.59424">
        <ele>95.8</ele>
        <time>2025-02-25T09:25:27Z</time>
      </trkpt>
      <trkpt lat="48.08174" lon="-3.59426">
        <ele>95.6</ele>
        <time>2025-02-25T09:25:28Z</time>
      </trkpt>
      <trkpt lat="48.08174" lon="-3.59427">
        <ele>95.6</ele>
        <time>2025-02-25T09:25:29Z</time>
      </trkpt>
      <trkpt lat="48.08174" lon="-3.59429">
        <ele>95.6</ele>
        <time>2025-02-25T09:25:30Z</time>
      </trkpt>
      <trkpt lat="48.08173" lon="-3.59431">
        <ele>95.4</ele>
        <time>2025-02-25T09:25:31Z</time>
      </trkpt>
      <trkpt lat="48.08173" lon="-3.59432">
        <ele>95.4</ele>
        <time>2025-02-25T09:25:32Z</time>
      </trkpt>
      <trkpt lat="48.08172" lon="-3.59433">
        <ele>95.2</ele>
        <time>2025-02-25T09:25:33Z</time>
      </trkpt>
      <trkpt lat="48.08172" lon="-3.59434">
        <ele>95.2</ele>
        <time>2025-02-25T09:25:34Z</time>
      </trkpt>
      <trkpt lat="48.08171" lon="-3.59436">
        <ele>94.9</ele>
        <time>2025-02-25T09:25:35Z</time>
      </trkpt>
      <trkpt lat="48.08171" lon="-3.59437">
        <ele>94.9</ele>
        <time>2025-02-25T09:25:36Z</time>
      </trkpt>
      <trkpt lat="48.0817" lon="-3.59439">
        <ele>94.7</ele>
        <time>2025-02-25T09:25:37Z</time>
      </trkpt>
      <trkpt lat="48.0817" lon="-3.59438">
        <ele>94.7</ele>
        <time>2025-02-25T09:25:38Z</time>
      </trkpt>
      <trkpt lat="48.08171" lon="-3.59438">
        <ele>94.9</ele>
        <time>2025-02-25T09:25:39Z</time>
      </trkpt>
      <trkpt lat="48.08171" lon="-3.59438">
        <ele>94.9</ele>
        <time>2025-02-25T09:25:40Z</time>
      </trkpt>
      <trkpt lat="48.08171" lon="-3.59439">
        <ele>94.9</ele>
        <time>2025-02-25T09:25:41Z</time>
      </trkpt>
      <trkpt lat="48.08171" lon="-3.59441">
        <ele>94.9</ele>
        <time>2025-02-25T09:25:42Z</time>
      </trkpt>
      <trkpt lat="48.08172" lon="-3.59441">
        <ele>95.2</ele>
        <time>2025-02-25T09:25:43Z</time>
      </trkpt>
      <trkpt lat="48.08172" lon="-3.59442">
        <ele>95.2</ele>
        <time>2025-02-25T09:25:44Z</time>
      </trkpt>
      <trkpt lat="48.08173" lon="-3.59443">
        <ele>95.4</ele>
        <time>2025-02-25T09:25:45Z</time>
      </trkpt>
      <trkpt lat="48.08173" lon="-3.59443">
        <ele>95.4</ele>
        <time>2025-02-25T09:25:46Z</time>
      </trkpt>
      <trkpt lat="48.08174" lon="-3.59445">
        <ele>95.6</ele>
        <time>2025-02-25T09:25:47Z</time>
      </trkpt>
      <trkpt lat="48.08175" lon="-3.59445">
        <ele>95.8</ele>
        <time>2025-02-25T09:25:48Z</time>
      </trkpt>
      <trkpt lat="48.08175" lon="-3.59446">
        <ele>95.9</ele>
        <time>2025-02-25T09:25:49Z</time>
      </trkpt>
      <trkpt lat="48.08176" lon="-3.59447">
        <ele>96.1</ele>
        <time>2025-02-25T09:25:50Z</time>
      </trkpt>
      <trkpt lat="48.08176" lon="-3.59447">
        <ele>96.1</ele>
        <time>2025-02-25T09:25:51Z</time>
      </trkpt>
      <trkpt lat="48.08176" lon="-3.59447">
        <ele>96.1</ele>
        <time>2025-02-25T09:25:52Z</time>
      </trkpt>
      <trkpt lat="48.08176" lon="-3.59447">
        <ele>96.1</ele>
        <time>2025-02-25T09:25:53Z</time>
      </trkpt>
      <trkpt lat="48.08176" lon="-3.59447">
        <ele>96.1</ele>
        <time>2025-02-25T09:25:54Z</time>
      </trkpt>
      <trkpt lat="48.08176" lon="-3.59447">
        <ele>96.1</ele>
        <time>2025-02-25T09:25:55Z</time>
      </trkpt>
      <trkpt lat="48.08176" lon="-3.59448">
        <ele>96.1</ele>
        <time>2025-02-25T09:25:56Z</time>
      </trkpt>
      <trkpt lat="48.08176" lon="-3.59448">
        <ele>96.1</ele>
        <time>2025-02-25T09:25:57Z</time>
      </trkpt>
      <trkpt lat="48.08178" lon="-3.59446">
        <ele>96.5</ele>
        <time>2025-02-25T09:25:58Z</time>
      </trkpt>
      <trkpt lat="48.0818" lon="-3.59447">
        <ele>97</ele>
        <time>2025-02-25T09:25:59Z</time>
      </trkpt>
      <trkpt lat="48.0818" lon="-3.59449">
        <ele>97</ele>
        <time>2025-02-25T09:26:00Z</time>
      </trkpt>
      <trkpt lat="48.08181" lon="-3.59451">
        <ele>97.3</ele>
        <time>2025-02-25T09:26:01Z</time>
      </trkpt>
      <trkpt lat="48.08182" lon="-3.59451">
        <ele>97.5</ele>
        <time>2025-02-25T09:26:02Z</time>
      </trkpt>
      <trkpt lat="48.08183" lon="-3.59452">
        <ele>97.8</ele>
        <time>2025-02-25T09:26:03Z</time>
      </trkpt>
      <trkpt lat="48.08183" lon="-3.59453">
        <ele>97.8</ele>
        <time>2025-02-25T09:26:04Z</time>
      </trkpt>
      <trkpt lat="48.08184" lon="-3.59455">
        <ele>98.1</ele>
        <time>2025-02-25T09:26:05Z</time>
      </trkpt>
      <trkpt lat="48.08184" lon="-3.59456">
        <ele>98.2</ele>
        <time>2025-02-25T09:26:06Z</time>
      </trkpt>
      <trkpt lat="48.08185" lon="-3.59457">
        <ele>98.4</ele>
        <time>2025-02-25T09:26:07Z</time>
      </trkpt>
      <trkpt lat="48.08185" lon="-3.59458">
        <ele>98.4</ele>
        <time>2025-02-25T09:26:08Z</time>
      </trkpt>
      <trkpt lat="48.08186" lon="-3.5946">
        <ele>98.7</ele>
        <time>2025-02-25T09:26:09Z</time>
      </trkpt>
      <trkpt lat="48.08187" lon="-3.5946">
        <ele>99</ele>
        <time>2025-02-25T09:26:10Z</time>
      </trkpt>
      <trkpt lat="48.08188" lon="-3.59461">
        <ele>99.2</ele>
        <time>2025-02-25T09:26:11Z</time>
      </trkpt>
      <trkpt lat="48.08188" lon="-3.59463">
        <ele>99.3</ele>
        <time>2025-02-25T09:26:12Z</time>
      </trkpt>
      <trkpt lat="48.08189" lon="-3.59464">
        <ele>99.5</ele>
        <time>2025-02-25T09:26:13Z</time>
      </trkpt>
      <trkpt lat="48.08189" lon="-3.59465">
        <ele>99.6</ele>
        <time>2025-02-25T09:26:14Z</time>
      </trkpt>
      <trkpt lat="48.08189" lon="-3.59466">
        <ele>99.6</ele>
        <time>2025-02-25T09:26:15Z</time>
      </trkpt>
      <trkpt lat="48.0819" lon="-3.59466">
        <ele>99.8</ele>
        <time>2025-02-25T09:26:16Z</time>
      </trkpt>
      <trkpt lat="48.0819" lon="-3.59467">
        <ele>99.9</ele>
        <time>2025-02-25T09:26:17Z</time>
      </trkpt>
      <trkpt lat="48.0819" lon="-3.59468">
        <ele>99.9</ele>
        <time>2025-02-25T09:26:18Z</time>
      </trkpt>
      <trkpt lat="48.0819" lon="-3.59469">
        <ele>99.9</ele>
        <time>2025-02-25T09:26:19Z</time>
      </trkpt>
      <trkpt lat="48.0819" lon="-3.5947">
        <ele>100</ele>
        <time>2025-02-25T09:26:20Z</time>
      </trkpt>
      <trkpt lat="48.0819" lon="-3.59471">
        <ele>100</ele>
        <time>2025-02-25T09:26:21Z</time>
      </trkpt>
      <trkpt lat="48.0819" lon="-3.59473">
        <ele>100</ele>
        <time>2025-02-25T09:26:22Z</time>
      </trkpt>
      <trkpt lat="48.08191" lon="-3.59473">
        <ele>100.3</ele>
        <time>2025-02-25T09:26:23Z</time>
      </trkpt>
      <trkpt lat="48.08192" lon="-3.59474">
        <ele>100.5</ele>
        <time>2025-02-25T09:26:24Z</time>
      </trkpt>
      <trkpt lat="48.08192" lon="-3.59475">
        <ele>100.5</ele>
        <time>2025-02-25T09:26:25Z</time>
      </trkpt>
      <trkpt lat="48.08193" lon="-3.59476">
        <ele>100.7</ele>
        <time>2025-02-25T09:26:26Z</time>
      </trkpt>
      <trkpt lat="48.08193" lon="-3.59477">
        <ele>100.7</ele>
        <time>2025-02-25T09:26:27Z</time>
      </trkpt>
      <trkpt lat="48.08193" lon="-3.59478">
        <ele>100.7</ele>
        <time>2025-02-25T09:26:28Z</time>
      </trkpt>
      <trkpt lat="48.08192" lon="-3.59479">
        <ele>100.5</ele>
        <time>2025-02-25T09:26:29Z</time>
      </trkpt>
      <trkpt lat="48.08192" lon="-3.59479">
        <ele>100.5</ele>
        <time>2025-02-25T09:26:30Z</time>
      </trkpt>
      <trkpt lat="48.08192" lon="-3.59478">
        <ele>100.5</ele>
        <time>2025-02-25T09:26:31Z</time>
      </trkpt>
      <trkpt lat="48.08192" lon="-3.59478">
        <ele>100.5</ele>
        <time>2025-02-25T09:26:32Z</time>
      </trkpt>
      <trkpt lat="48.08192" lon="-3.59478">
        <ele>100.5</ele>
        <time>2025-02-25T09:26:33Z</time>
      </trkpt>
      <trkpt lat="48.08193" lon="-3.59479">
        <ele>100.7</ele>
        <time>2025-02-25T09:26:34Z</time>
      </trkpt>
      <trkpt lat="48.08193" lon="-3.59479">
        <ele>100.7</ele>
        <time>2025-02-25T09:26:35Z</time>
      </trkpt>
      <trkpt lat="48.08193" lon="-3.5948">
        <ele>100.7</ele>
        <time>2025-02-25T09:26:36Z</time>
      </trkpt>
      <trkpt lat="48.08191" lon="-3.59481">
        <ele>100.3</ele>
        <time>2025-02-25T09:26:37Z</time>
      </trkpt>
      <trkpt lat="48.08191" lon="-3.5948">
        <ele>100.3</ele>
        <time>2025-02-25T09:26:38Z</time>
      </trkpt>
      <trkpt lat="48.08191" lon="-3.59479">
        <ele>100.3</ele>
        <time>2025-02-25T09:26:39Z</time>
      </trkpt>
      <trkpt lat="48.08191" lon="-3.59479">
        <ele>100.3</ele>
        <time>2025-02-25T09:26:40Z</time>
      </trkpt>
      <trkpt lat="48.08192" lon="-3.5948">
        <ele>100.5</ele>
        <time>2025-02-25T09:26:41Z</time>
      </trkpt>
      <trkpt lat="48.08192" lon="-3.59481">
        <ele>100.5</ele>
        <time>2025-02-25T09:26:42Z</time>
      </trkpt>
      <trkpt lat="48.08192" lon="-3.59482">
        <ele>100.5</ele>
        <time>2025-02-25T09:26:43Z</time>
      </trkpt>
      <trkpt lat="48.08192" lon="-3.59484">
        <ele>100.5</ele>
        <time>2025-02-25T09:26:44Z</time>
      </trkpt>
      <trkpt lat="48.08191" lon="-3.59486">
        <ele>100.3</ele>
        <time>2025-02-25T09:26:45Z</time>
      </trkpt>
      <trkpt lat="48.08191" lon="-3.59489">
        <ele>100.3</ele>
        <time>2025-02-25T09:26:46Z</time>
      </trkpt>
      <trkpt lat="48.08191" lon="-3.5949">
        <ele>100.3</ele>
        <time>2025-02-25T09:26:47Z</time>
      </trkpt>
      <trkpt lat="48.08191" lon="-3.59491">
        <ele>100.3</ele>
        <time>2025-02-25T09:26:48Z</time>
      </trkpt>
      <trkpt lat="48.08191" lon="-3.59492">
        <ele>100.3</ele>
        <time>2025-02-25T09:26:49Z</time>
      </trkpt>
      <trkpt lat="48.08191" lon="-3.59492">
        <ele>100.3</ele>
        <time>2025-02-25T09:26:50Z</time>
      </trkpt>
      <trkpt lat="48.08191" lon="-3.59492">
        <ele>100.3</ele>
        <time>2025-02-25T09:26:51Z</time>
      </trkpt>
      <trkpt lat="48.0819" lon="-3.59492">
        <ele>100</ele>
        <time>2025-02-25T09:26:52Z</time>
      </trkpt>
      <trkpt lat="48.0819" lon="-3.59493">
        <ele>100</ele>
        <time>2025-02-25T09:26:53Z</time>
      </trkpt>
      <trkpt lat="48.0819" lon="-3.59493">
        <ele>100</ele>
        <time>2025-02-25T09:26:54Z</time>
      </trkpt>
      <trkpt lat="48.0819" lon="-3.59494">
        <ele>100</ele>
        <time>2025-02-25T09:26:55Z</time>
      </trkpt>
      <trkpt lat="48.08191" lon="-3.59495">
        <ele>100.3</ele>
        <time>2025-02-25T09:26:56Z</time>
      </trkpt>
      <trkpt lat="48.08191" lon="-3.59496">
        <ele>100.3</ele>
        <time>2025-02-25T09:26:57Z</time>
      </trkpt>
      <trkpt lat="48.08192" lon="-3.59497">
        <ele>100.5</ele>
        <time>2025-02-25T09:26:58Z</time>
      </trkpt>
      <trkpt lat="48.08191" lon="-3.59498">
        <ele>100.3</ele>
        <time>2025-02-25T09:26:59Z</time>
      </trkpt>
      <trkpt lat="48.08192" lon="-3.59499">
        <ele>100.5</ele>
        <time>2025-02-25T09:27:00Z</time>
      </trkpt>
      <trkpt lat="48.08192" lon="-3.595">
        <ele>100.5</ele>
        <time>2025-02-25T09:27:01Z</time>
      </trkpt>
      <trkpt lat="48.08192" lon="-3.595">
        <ele>100.5</ele>
        <time>2025-02-25T09:27:02Z</time>
      </trkpt>
      <trkpt lat="48.08191" lon="-3.59502">
        <ele>100.3</ele>
        <time>2025-02-25T09:27:03Z</time>
      </trkpt>
      <trkpt lat="48.08191" lon="-3.59502">
        <ele>100.3</ele>
        <time>2025-02-25T09:27:04Z</time>
      </trkpt>
      <trkpt lat="48.08191" lon="-3.59503">
        <ele>100.4</ele>
        <time>2025-02-25T09:27:05Z</time>
      </trkpt>
      <trkpt lat="48.08192" lon="-3.59503">
        <ele>100.6</ele>
        <time>2025-02-25T09:27:06Z</time>
      </trkpt>
      <trkpt lat="48.08192" lon="-3.59504">
        <ele>100.6</ele>
        <time>2025-02-25T09:27:07Z</time>
      </trkpt>
      <trkpt lat="48.08192" lon="-3.59507">
        <ele>100.7</ele>
        <time>2025-02-25T09:27:08Z</time>
      </trkpt>
      <trkpt lat="48.08192" lon="-3.59509">
        <ele>100.8</ele>
        <time>2025-02-25T09:27:09Z</time>
      </trkpt>
      <trkpt lat="48.08193" lon="-3.5951">
        <ele>101</ele>
        <time>2025-02-25T09:27:10Z</time>
      </trkpt>
      <trkpt lat="48.08193" lon="-3.59511">
        <ele>101.1</ele>
        <time>2025-02-25T09:27:11Z</time>
      </trkpt>
      <trkpt lat="48.08192" lon="-3.59512">
        <ele>100.9</ele>
        <time>2025-02-25T09:27:12Z</time>
      </trkpt>
      <trkpt lat="48.08192" lon="-3.59513">
        <ele>100.9</ele>
        <time>2025-02-25T09:27:13Z</time>
      </trkpt>
      <trkpt lat="48.08192" lon="-3.59515">
        <ele>101</ele>
        <time>2025-02-25T09:27:14Z</time>
      </trkpt>
      <trkpt lat="48.08192" lon="-3.59517">
        <ele>101.1</ele>
        <time>2025-02-25T09:27:15Z</time>
      </trkpt>
      <trkpt lat="48.08191" lon="-3.59517">
        <ele>100.9</ele>
        <time>2025-02-25T09:27:16Z</time>
      </trkpt>
      <trkpt lat="48.08191" lon="-3.59517">
        <ele>100.9</ele>
        <time>2025-02-25T09:27:17Z</time>
      </trkpt>
      <trkpt lat="48.08191" lon="-3.59519">
        <ele>100.9</ele>
        <time>2025-02-25T09:27:18Z</time>
      </trkpt>
      <trkpt lat="48.08191" lon="-3.59519">
        <ele>100.9</ele>
        <time>2025-02-25T09:27:19Z</time>
      </trkpt>
      <trkpt lat="48.0819" lon="-3.59518">
        <ele>100.7</ele>
        <time>2025-02-25T09:27:20Z</time>
      </trkpt>
      <trkpt lat="48.0819" lon="-3.59517">
        <ele>100.7</ele>
        <time>2025-02-25T09:27:21Z</time>
      </trkpt>
      <trkpt lat="48.08189" lon="-3.59521">
        <ele>100.6</ele>
        <time>2025-02-25T09:27:22Z</time>
      </trkpt>
      <trkpt lat="48.08189" lon="-3.59525">
        <ele>100.7</ele>
        <time>2025-02-25T09:27:23Z</time>
      </trkpt>
      <trkpt lat="48.08189" lon="-3.59527">
        <ele>100.8</ele>
        <time>2025-02-25T09:27:24Z</time>
      </trkpt>
      <trkpt lat="48.0819" lon="-3.59528">
        <ele>101.1</ele>
        <time>2025-02-25T09:27:25Z</time>
      </trkpt>
      <trkpt lat="48.0819" lon="-3.59529">
        <ele>101.1</ele>
        <time>2025-02-25T09:27:26Z</time>
      </trkpt>
      <trkpt lat="48.08191" lon="-3.5953">
        <ele>101.4</ele>
        <time>2025-02-25T09:27:27Z</time>
      </trkpt>
      <trkpt lat="48.08193" lon="-3.59526">
        <ele>101.6</ele>
        <time>2025-02-25T09:27:28Z</time>
      </trkpt>
      <trkpt lat="48.08194" lon="-3.59527">
        <ele>101.9</ele>
        <time>2025-02-25T09:27:29Z</time>
      </trkpt>
      <trkpt lat="48.08195" lon="-3.59528">
        <ele>102.2</ele>
        <time>2025-02-25T09:27:30Z</time>
      </trkpt>
      <trkpt lat="48.08196" lon="-3.59528">
        <ele>102.6</ele>
        <time>2025-02-25T09:27:31Z</time>
      </trkpt>
      <trkpt lat="48.08196" lon="-3.59529">
        <ele>102.6</ele>
        <time>2025-02-25T09:27:32Z</time>
      </trkpt>
      <trkpt lat="48.08196" lon="-3.5953">
        <ele>102.7</ele>
        <time>2025-02-25T09:27:33Z</time>
      </trkpt>
      <trkpt lat="48.08196" lon="-3.5953">
        <ele>102.7</ele>
        <time>2025-02-25T09:27:34Z</time>
      </trkpt>
      <trkpt lat="48.08195" lon="-3.5953">
        <ele>102.4</ele>
        <time>2025-02-25T09:27:35Z</time>
      </trkpt>
      <trkpt lat="48.08195" lon="-3.5953">
        <ele>102.4</ele>
        <time>2025-02-25T09:27:36Z</time>
      </trkpt>
      <trkpt lat="48.08195" lon="-3.5953">
        <ele>102.4</ele>
        <time>2025-02-25T09:27:37Z</time>
      </trkpt>
      <trkpt lat="48.08195" lon="-3.5953">
        <ele>102.4</ele>
        <time>2025-02-25T09:27:38Z</time>
      </trkpt>
      <trkpt lat="48.08194" lon="-3.59533">
        <ele>102.3</ele>
        <time>2025-02-25T09:27:39Z</time>
      </trkpt>
      <trkpt lat="48.08193" lon="-3.59536">
        <ele>102.3</ele>
        <time>2025-02-25T09:27:40Z</time>
      </trkpt>
      <trkpt lat="48.08192" lon="-3.59536">
        <ele>102</ele>
        <time>2025-02-25T09:27:41Z</time>
      </trkpt>
      <trkpt lat="48.08192" lon="-3.59536">
        <ele>102</ele>
        <time>2025-02-25T09:27:42Z</time>
      </trkpt>
      <trkpt lat="48.08191" lon="-3.59535">
        <ele>101.7</ele>
        <time>2025-02-25T09:27:43Z</time>
      </trkpt>
      <trkpt lat="48.08191" lon="-3.59536">
        <ele>101.8</ele>
        <time>2025-02-25T09:27:44Z</time>
      </trkpt>
      <trkpt lat="48.08191" lon="-3.59538">
        <ele>101.9</ele>
        <time>2025-02-25T09:27:45Z</time>
      </trkpt>
      <trkpt lat="48.08191" lon="-3.59538">
        <ele>101.9</ele>
        <time>2025-02-25T09:27:46Z</time>
      </trkpt>
      <trkpt lat="48.08191" lon="-3.59538">
        <ele>101.9</ele>
        <time>2025-02-25T09:27:47Z</time>
      </trkpt>
      <trkpt lat="48.0819" lon="-3.59538">
        <ele>101.7</ele>
        <time>2025-02-25T09:27:48Z</time>
      </trkpt>
      <trkpt lat="48.0819" lon="-3.59538">
        <ele>101.7</ele>
        <time>2025-02-25T09:27:49Z</time>
      </trkpt>
      <trkpt lat="48.0819" lon="-3.59539">
        <ele>101.8</ele>
        <time>2025-02-25T09:27:50Z</time>
      </trkpt>
      <trkpt lat="48.0819" lon="-3.5954">
        <ele>101.8</ele>
        <time>2025-02-25T09:27:51Z</time>
      </trkpt>
      <trkpt lat="48.08191" lon="-3.59541">
        <ele>102.1</ele>
        <time>2025-02-25T09:27:52Z</time>
      </trkpt>
      <trkpt lat="48.08191" lon="-3.59542">
        <ele>102.2</ele>
        <time>2025-02-25T09:27:53Z</time>
      </trkpt>
      <trkpt lat="48.08191" lon="-3.59543">
        <ele>102.3</ele>
        <time>2025-02-25T09:27:54Z</time>
      </trkpt>
      <trkpt lat="48.08191" lon="-3.59543">
        <ele>102.3</ele>
        <time>2025-02-25T09:27:55Z</time>
      </trkpt>
      <trkpt lat="48.08191" lon="-3.59544">
        <ele>102.4</ele>
        <time>2025-02-25T09:27:56Z</time>
      </trkpt>
      <trkpt lat="48.08191" lon="-3.59546">
        <ele>102.5</ele>
        <time>2025-02-25T09:27:57Z</time>
      </trkpt>
      <trkpt lat="48.08191" lon="-3.59547">
        <ele>102.6</ele>
        <time>2025-02-25T09:27:58Z</time>
      </trkpt>
      <trkpt lat="48.08191" lon="-3.59547">
        <ele>102.6</ele>
        <time>2025-02-25T09:27:59Z</time>
      </trkpt>
      <trkpt lat="48.08191" lon="-3.59549">
        <ele>102.7</ele>
        <time>2025-02-25T09:28:00Z</time>
      </trkpt>
      <trkpt lat="48.08191" lon="-3.59551">
        <ele>102.8</ele>
        <time>2025-02-25T09:28:01Z</time>
      </trkpt>
      <trkpt lat="48.08192" lon="-3.59551">
        <ele>103.1</ele>
        <time>2025-02-25T09:28:02Z</time>
      </trkpt>
      <trkpt lat="48.08193" lon="-3.59553">
        <ele>103.5</ele>
        <time>2025-02-25T09:28:03Z</time>
      </trkpt>
      <trkpt lat="48.08193" lon="-3.59553">
        <ele>103.5</ele>
        <time>2025-02-25T09:28:04Z</time>
      </trkpt>
      <trkpt lat="48.08193" lon="-3.59555">
        <ele>103.6</ele>
        <time>2025-02-25T09:28:05Z</time>
      </trkpt>
      <trkpt lat="48.08194" lon="-3.59556">
        <ele>103.9</ele>
        <time>2025-02-25T09:28:06Z</time>
      </trkpt>
      <trkpt lat="48.08194" lon="-3.59557">
        <ele>103.9</ele>
        <time>2025-02-25T09:28:07Z</time>
      </trkpt>
      <trkpt lat="48.08194" lon="-3.59558">
        <ele>104</ele>
        <time>2025-02-25T09:28:08Z</time>
      </trkpt>
      <trkpt lat="48.08194" lon="-3.59559">
        <ele>104</ele>
        <time>2025-02-25T09:28:09Z</time>
      </trkpt>
      <trkpt lat="48.08194" lon="-3.5956">
        <ele>104</ele>
        <time>2025-02-25T09:28:10Z</time>
      </trkpt>
      <trkpt lat="48.08194" lon="-3.59561">
        <ele>104.1</ele>
        <time>2025-02-25T09:28:11Z</time>
      </trkpt>
      <trkpt lat="48.08194" lon="-3.59561">
        <ele>104.1</ele>
        <time>2025-02-25T09:28:12Z</time>
      </trkpt>
      <trkpt lat="48.08194" lon="-3.59562">
        <ele>104.1</ele>
        <time>2025-02-25T09:28:13Z</time>
      </trkpt>
      <trkpt lat="48.08194" lon="-3.59563">
        <ele>104.2</ele>
        <time>2025-02-25T09:28:14Z</time>
      </trkpt>
      <trkpt lat="48.08195" lon="-3.59564">
        <ele>104.5</ele>
        <time>2025-02-25T09:28:15Z</time>
      </trkpt>
      <trkpt lat="48.08195" lon="-3.59565">
        <ele>104.5</ele>
        <time>2025-02-25T09:28:16Z</time>
      </trkpt>
      <trkpt lat="48.08195" lon="-3.59566">
        <ele>104.6</ele>
        <time>2025-02-25T09:28:17Z</time>
      </trkpt>
      <trkpt lat="48.08195" lon="-3.59567">
        <ele>104.6</ele>
        <time>2025-02-25T09:28:18Z</time>
      </trkpt>
      <trkpt lat="48.08195" lon="-3.59569">
        <ele>104.7</ele>
        <time>2025-02-25T09:28:19Z</time>
      </trkpt>
      <trkpt lat="48.08195" lon="-3.59569">
        <ele>104.7</ele>
        <time>2025-02-25T09:28:20Z</time>
      </trkpt>
      <trkpt lat="48.08195" lon="-3.5957">
        <ele>104.7</ele>
        <time>2025-02-25T09:28:21Z</time>
      </trkpt>
      <trkpt lat="48.08195" lon="-3.59571">
        <ele>104.8</ele>
        <time>2025-02-25T09:28:22Z</time>
      </trkpt>
      <trkpt lat="48.08195" lon="-3.59572">
        <ele>104.8</ele>
        <time>2025-02-25T09:28:23Z</time>
      </trkpt>
      <trkpt lat="48.08195" lon="-3.59574">
        <ele>104.9</ele>
        <time>2025-02-25T09:28:24Z</time>
      </trkpt>
      <trkpt lat="48.08194" lon="-3.59575">
        <ele>104.6</ele>
        <time>2025-02-25T09:28:25Z</time>
      </trkpt>
      <trkpt lat="48.08195" lon="-3.59574">
        <ele>104.9</ele>
        <time>2025-02-25T09:28:26Z</time>
      </trkpt>
      <trkpt lat="48.08194" lon="-3.59575">
        <ele>104.6</ele>
        <time>2025-02-25T09:28:27Z</time>
      </trkpt>
      <trkpt lat="48.08194" lon="-3.59576">
        <ele>104.6</ele>
        <time>2025-02-25T09:28:28Z</time>
      </trkpt>
      <trkpt lat="48.08194" lon="-3.59578">
        <ele>104.7</ele>
        <time>2025-02-25T09:28:29Z</time>
      </trkpt>
      <trkpt lat="48.08194" lon="-3.59579">
        <ele>104.7</ele>
        <time>2025-02-25T09:28:30Z</time>
      </trkpt>
      <trkpt lat="48.08194" lon="-3.5958">
        <ele>104.8</ele>
        <time>2025-02-25T09:28:31Z</time>
      </trkpt>
      <trkpt lat="48.08194" lon="-3.5958">
        <ele>104.8</ele>
        <time>2025-02-25T09:28:32Z</time>
      </trkpt>
      <trkpt lat="48.08194" lon="-3.5958">
        <ele>104.8</ele>
        <time>2025-02-25T09:28:33Z</time>
      </trkpt>
      <trkpt lat="48.08194" lon="-3.59581">
        <ele>104.8</ele>
        <time>2025-02-25T09:28:34Z</time>
      </trkpt>
      <trkpt lat="48.08195" lon="-3.59582">
        <ele>105.2</ele>
        <time>2025-02-25T09:28:35Z</time>
      </trkpt>
      <trkpt lat="48.08195" lon="-3.59582">
        <ele>105.2</ele>
        <time>2025-02-25T09:28:36Z</time>
      </trkpt>
      <trkpt lat="48.08195" lon="-3.59584">
        <ele>105.3</ele>
        <time>2025-02-25T09:28:37Z</time>
      </trkpt>
      <trkpt lat="48.08196" lon="-3.59585">
        <ele>105.7</ele>
        <time>2025-02-25T09:28:38Z</time>
      </trkpt>
      <trkpt lat="48.08196" lon="-3.59586">
        <ele>105.8</ele>
        <time>2025-02-25T09:28:39Z</time>
      </trkpt>
      <trkpt lat="48.08196" lon="-3.59586">
        <ele>105.8</ele>
        <time>2025-02-25T09:28:40Z</time>
      </trkpt>
      <trkpt lat="48.08196" lon="-3.59588">
        <ele>106</ele>
        <time>2025-02-25T09:28:41Z</time>
      </trkpt>
      <trkpt lat="48.08197" lon="-3.59589">
        <ele>106.5</ele>
        <time>2025-02-25T09:28:42Z</time>
      </trkpt>
      <trkpt lat="48.08197" lon="-3.5959">
        <ele>106.6</ele>
        <time>2025-02-25T09:28:43Z</time>
      </trkpt>
      <trkpt lat="48.08197" lon="-3.59591">
        <ele>106.7</ele>
        <time>2025-02-25T09:28:44Z</time>
      </trkpt>
      <trkpt lat="48.08197" lon="-3.59592">
        <ele>106.8</ele>
        <time>2025-02-25T09:28:45Z</time>
      </trkpt>
      <trkpt lat="48.08197" lon="-3.59593">
        <ele>106.9</ele>
        <time>2025-02-25T09:28:46Z</time>
      </trkpt>
      <trkpt lat="48.08197" lon="-3.59594">
        <ele>107</ele>
        <time>2025-02-25T09:28:47Z</time>
      </trkpt>
      <trkpt lat="48.08197" lon="-3.59595">
        <ele>107.1</ele>
        <time>2025-02-25T09:28:48Z</time>
      </trkpt>
      <trkpt lat="48.08197" lon="-3.59595">
        <ele>107.1</ele>
        <time>2025-02-25T09:28:49Z</time>
      </trkpt>
      <trkpt lat="48.08197" lon="-3.59596">
        <ele>107.2</ele>
        <time>2025-02-25T09:28:50Z</time>
      </trkpt>
      <trkpt lat="48.08198" lon="-3.59597">
        <ele>107.6</ele>
        <time>2025-02-25T09:28:51Z</time>
      </trkpt>
      <trkpt lat="48.08198" lon="-3.59598">
        <ele>107.7</ele>
        <time>2025-02-25T09:28:52Z</time>
      </trkpt>
      <trkpt lat="48.082" lon="-3.59598">
        <ele>108.4</ele>
        <time>2025-02-25T09:28:53Z</time>
      </trkpt>
      <trkpt lat="48.082" lon="-3.59601">
        <ele>108.7</ele>
        <time>2025-02-25T09:28:54Z</time>
      </trkpt>
      <trkpt lat="48.082" lon="-3.59603">
        <ele>108.8</ele>
        <time>2025-02-25T09:28:55Z</time>
      </trkpt>
      <trkpt lat="48.08199" lon="-3.59604">
        <ele>108.6</ele>
        <time>2025-02-25T09:28:56Z</time>
      </trkpt>
      <trkpt lat="48.08199" lon="-3.59605">
        <ele>108.7</ele>
        <time>2025-02-25T09:28:57Z</time>
      </trkpt>
      <trkpt lat="48.08199" lon="-3.59606">
        <ele>108.8</ele>
        <time>2025-02-25T09:28:58Z</time>
      </trkpt>
      <trkpt lat="48.08199" lon="-3.59607">
        <ele>108.9</ele>
        <time>2025-02-25T09:28:59Z</time>
      </trkpt>
      <trkpt lat="48.08199" lon="-3.59609">
        <ele>109.1</ele>
        <time>2025-02-25T09:29:00Z</time>
      </trkpt>
      <trkpt lat="48.08199" lon="-3.5961">
        <ele>109.2</ele>
        <time>2025-02-25T09:29:01Z</time>
      </trkpt>
      <trkpt lat="48.08198" lon="-3.59612">
        <ele>109.1</ele>
        <time>2025-02-25T09:29:02Z</time>
      </trkpt>
      <trkpt lat="48.08198" lon="-3.59613">
        <ele>109.2</ele>
        <time>2025-02-25T09:29:03Z</time>
      </trkpt>
      <trkpt lat="48.08198" lon="-3.59614">
        <ele>109.3</ele>
        <time>2025-02-25T09:29:04Z</time>
      </trkpt>
      <trkpt lat="48.08198" lon="-3.59615">
        <ele>109.4</ele>
        <time>2025-02-25T09:29:05Z</time>
      </trkpt>
      <trkpt lat="48.08197" lon="-3.59616">
        <ele>109.2</ele>
        <time>2025-02-25T09:29:06Z</time>
      </trkpt>
      <trkpt lat="48.08197" lon="-3.59617">
        <ele>109.3</ele>
        <time>2025-02-25T09:29:07Z</time>
      </trkpt>
      <trkpt lat="48.08196" lon="-3.59618">
        <ele>109.2</ele>
        <time>2025-02-25T09:29:08Z</time>
      </trkpt>
      <trkpt lat="48.08195" lon="-3.59618">
        <ele>108.9</ele>
        <time>2025-02-25T09:29:09Z</time>
      </trkpt>
      <trkpt lat="48.08194" lon="-3.59619">
        <ele>108.7</ele>
        <time>2025-02-25T09:29:10Z</time>
      </trkpt>
      <trkpt lat="48.08193" lon="-3.5962">
        <ele>108.6</ele>
        <time>2025-02-25T09:29:11Z</time>
      </trkpt>
      <trkpt lat="48.08192" lon="-3.59621">
        <ele>108.5</ele>
        <time>2025-02-25T09:29:12Z</time>
      </trkpt>
      <trkpt lat="48.08192" lon="-3.59622">
        <ele>108.6</ele>
        <time>2025-02-25T09:29:13Z</time>
      </trkpt>
      <trkpt lat="48.08191" lon="-3.59622">
        <ele>108.4</ele>
        <time>2025-02-25T09:29:14Z</time>
      </trkpt>
      <trkpt lat="48.0819" lon="-3.59623">
        <ele>108.2</ele>
        <time>2025-02-25T09:29:15Z</time>
      </trkpt>
      <trkpt lat="48.08189" lon="-3.59623">
        <ele>108</ele>
        <time>2025-02-25T09:29:16Z</time>
      </trkpt>
      <trkpt lat="48.08188" lon="-3.59622">
        <ele>107.6</ele>
        <time>2025-02-25T09:29:17Z</time>
      </trkpt>
      <trkpt lat="48.08188" lon="-3.59622">
        <ele>107.6</ele>
        <time>2025-02-25T09:29:18Z</time>
      </trkpt>
      <trkpt lat="48.08187" lon="-3.59622">
        <ele>107.4</ele>
        <time>2025-02-25T09:29:19Z</time>
      </trkpt>
      <trkpt lat="48.08186" lon="-3.59623">
        <ele>107.3</ele>
        <time>2025-02-25T09:29:20Z</time>
      </trkpt>
      <trkpt lat="48.08186" lon="-3.59623">
        <ele>107.3</ele>
        <time>2025-02-25T09:29:21Z</time>
      </trkpt>
      <trkpt lat="48.08185" lon="-3.59622">
        <ele>106.9</ele>
        <time>2025-02-25T09:29:22Z</time>
      </trkpt>
      <trkpt lat="48.08185" lon="-3.59622">
        <ele>106.9</ele>
        <time>2025-02-25T09:29:23Z</time>
      </trkpt>
      <trkpt lat="48.08185" lon="-3.59621">
        <ele>106.8</ele>
        <time>2025-02-25T09:29:24Z</time>
      </trkpt>
      <trkpt lat="48.08185" lon="-3.5962">
        <ele>106.7</ele>
        <time>2025-02-25T09:29:25Z</time>
      </trkpt>
      <trkpt lat="48.08185" lon="-3.59619">
        <ele>106.6</ele>
        <time>2025-02-25T09:29:26Z</time>
      </trkpt>
      <trkpt lat="48.08185" lon="-3.59619">
        <ele>106.6</ele>
        <time>2025-02-25T09:29:27Z</time>
      </trkpt>
      <trkpt lat="48.08184" lon="-3.59619">
        <ele>106.3</ele>
        <time>2025-02-25T09:29:28Z</time>
      </trkpt>
      <trkpt lat="48.08184" lon="-3.5962">
        <ele>106.4</ele>
        <time>2025-02-25T09:29:29Z</time>
      </trkpt>
      <trkpt lat="48.08183" lon="-3.5962">
        <ele>106.2</ele>
        <time>2025-02-25T09:29:30Z</time>
      </trkpt>
      <trkpt lat="48.08183" lon="-3.5962">
        <ele>106.2</ele>
        <time>2025-02-25T09:29:31Z</time>
      </trkpt>
      <trkpt lat="48.08182" lon="-3.59621">
        <ele>106.1</ele>
        <time>2025-02-25T09:29:32Z</time>
      </trkpt>
      <trkpt lat="48.08181" lon="-3.59621">
        <ele>105.9</ele>
        <time>2025-02-25T09:29:33Z</time>
      </trkpt>
      <trkpt lat="48.08181" lon="-3.59621">
        <ele>105.9</ele>
        <time>2025-02-25T09:29:34Z</time>
      </trkpt>
      <trkpt lat="48.0818" lon="-3.59623">
        <ele>105.9</ele>
        <time>2025-02-25T09:29:35Z</time>
      </trkpt>
      <trkpt lat="48.08179" lon="-3.59626">
        <ele>106</ele>
        <time>2025-02-25T09:29:36Z</time>
      </trkpt>
      <trkpt lat="48.08178" lon="-3.59628">
        <ele>106</ele>
        <time>2025-02-25T09:29:37Z</time>
      </trkpt>
      <trkpt lat="48.08177" lon="-3.59628">
        <ele>105.8</ele>
        <time>2025-02-25T09:29:38Z</time>
      </trkpt>
      <trkpt lat="48.08177" lon="-3.59629">
        <ele>105.9</ele>
        <time>2025-02-25T09:29:39Z</time>
      </trkpt>
      <trkpt lat="48.08176" lon="-3.59629">
        <ele>105.7</ele>
        <time>2025-02-25T09:29:40Z</time>
      </trkpt>
      <trkpt lat="48.08175" lon="-3.59629">
        <ele>105.5</ele>
        <time>2025-02-25T09:29:41Z</time>
      </trkpt>
      <trkpt lat="48.08176" lon="-3.59629">
        <ele>105.7</ele>
        <time>2025-02-25T09:29:42Z</time>
      </trkpt>
      <trkpt lat="48.08176" lon="-3.5963">
        <ele>105.8</ele>
        <time>2025-02-25T09:29:43Z</time>
      </trkpt>
      <trkpt lat="48.08177" lon="-3.59629">
        <ele>105.9</ele>
        <time>2025-02-25T09:29:44Z</time>
      </trkpt>
      <trkpt lat="48.08177" lon="-3.59629">
        <ele>105.9</ele>
        <time>2025-02-25T09:29:45Z</time>
      </trkpt>
      <trkpt lat="48.08177" lon="-3.59629">
        <ele>105.9</ele>
        <time>2025-02-25T09:29:46Z</time>
      </trkpt>
      <trkpt lat="48.08177" lon="-3.59629">
        <ele>105.9</ele>
        <time>2025-02-25T09:29:47Z</time>
      </trkpt>
      <trkpt lat="48.08177" lon="-3.59629">
        <ele>105.9</ele>
        <time>2025-02-25T09:29:48Z</time>
      </trkpt>
      <trkpt lat="48.08177" lon="-3.59629">
        <ele>105.9</ele>
        <time>2025-02-25T09:29:49Z</time>
      </trkpt>
      <trkpt lat="48.08177" lon="-3.59629">
        <ele>105.9</ele>
        <time>2025-02-25T09:29:50Z</time>
      </trkpt>
      <trkpt lat="48.08177" lon="-3.59629">
        <ele>105.9</ele>
        <time>2025-02-25T09:29:51Z</time>
      </trkpt>
      <trkpt lat="48.08177" lon="-3.59629">
        <ele>105.9</ele>
        <time>2025-02-25T09:29:52Z</time>
      </trkpt>
      <trkpt lat="48.08178" lon="-3.59629">
        <ele>106.2</ele>
        <time>2025-02-25T09:29:53Z</time>
      </trkpt>
      <trkpt lat="48.08178" lon="-3.59629">
        <ele>106.2</ele>
        <time>2025-02-25T09:29:54Z</time>
      </trkpt>
      <trkpt lat="48.08178" lon="-3.59629">
        <ele>106.2</ele>
        <time>2025-02-25T09:29:55Z</time>
      </trkpt>
      <trkpt lat="48.08178" lon="-3.59629">
        <ele>106.2</ele>
        <time>2025-02-25T09:29:56Z</time>
      </trkpt>
      <trkpt lat="48.08177" lon="-3.5963">
        <ele>106.1</ele>
        <time>2025-02-25T09:29:57Z</time>
      </trkpt>
      <trkpt lat="48.08175" lon="-3.59631">
        <ele>105.7</ele>
        <time>2025-02-25T09:29:58Z</time>
      </trkpt>
      <trkpt lat="48.08174" lon="-3.59632">
        <ele>105.7</ele>
        <time>2025-02-25T09:29:59Z</time>
      </trkpt>
      <trkpt lat="48.08173" lon="-3.59632">
        <ele>105.4</ele>
        <time>2025-02-25T09:30:00Z</time>
      </trkpt>
      <trkpt lat="48.08172" lon="-3.59633">
        <ele>105.3</ele>
        <time>2025-02-25T09:30:01Z</time>
      </trkpt>
      <trkpt lat="48.08171" lon="-3.59634">
        <ele>105.3</ele>
        <time>2025-02-25T09:30:02Z</time>
      </trkpt>
      <trkpt lat="48.0817" lon="-3.59636">
        <ele>105.3</ele>
        <time>2025-02-25T09:30:03Z</time>
      </trkpt>
      <trkpt lat="48.08169" lon="-3.59637">
        <ele>105.2</ele>
        <time>2025-02-25T09:30:04Z</time>
      </trkpt>
      <trkpt lat="48.08169" lon="-3.59638">
        <ele>105.4</ele>
        <time>2025-02-25T09:30:05Z</time>
      </trkpt>
      <trkpt lat="48.08168" lon="-3.59639">
        <ele>105.3</ele>
        <time>2025-02-25T09:30:06Z</time>
      </trkpt>
      <trkpt lat="48.08167" lon="-3.59641">
        <ele>105.4</ele>
        <time>2025-02-25T09:30:07Z</time>
      </trkpt>
      <trkpt lat="48.08167" lon="-3.59642">
        <ele>105.5</ele>
        <time>2025-02-25T09:30:08Z</time>
      </trkpt>
      <trkpt lat="48.08165" lon="-3.59644">
        <ele>105.2</ele>
        <time>2025-02-25T09:30:09Z</time>
      </trkpt>
      <trkpt lat="48.08164" lon="-3.59646">
        <ele>105.2</ele>
        <time>2025-02-25T09:30:10Z</time>
      </trkpt>
      <trkpt lat="48.08163" lon="-3.59647">
        <ele>105.1</ele>
        <time>2025-02-25T09:30:11Z</time>
      </trkpt>
      <trkpt lat="48.08162" lon="-3.59648">
        <ele>104.9</ele>
        <time>2025-02-25T09:30:12Z</time>
      </trkpt>
      <trkpt lat="48.08161" lon="-3.59649">
        <ele>104.7</ele>
        <time>2025-02-25T09:30:13Z</time>
      </trkpt>
      <trkpt lat="48.08161" lon="-3.5965">
        <ele>104.9</ele>
        <time>2025-02-25T09:30:14Z</time>
      </trkpt>
      <trkpt lat="48.0816" lon="-3.59651">
        <ele>104.7</ele>
        <time>2025-02-25T09:30:15Z</time>
      </trkpt>
      <trkpt lat="48.0816" lon="-3.59652">
        <ele>104.9</ele>
        <time>2025-02-25T09:30:16Z</time>
      </trkpt>
      <trkpt lat="48.08159" lon="-3.59654">
        <ele>104.8</ele>
        <time>2025-02-25T09:30:17Z</time>
      </trkpt>
      <trkpt lat="48.08158" lon="-3.59656">
        <ele>104.8</ele>
        <time>2025-02-25T09:30:18Z</time>
      </trkpt>
      <trkpt lat="48.08158" lon="-3.59658">
        <ele>105</ele>
        <time>2025-02-25T09:30:19Z</time>
      </trkpt>
      <trkpt lat="48.08157" lon="-3.59659">
        <ele>104.9</ele>
        <time>2025-02-25T09:30:20Z</time>
      </trkpt>
      <trkpt lat="48.08157" lon="-3.59661">
        <ele>105.1</ele>
        <time>2025-02-25T09:30:21Z</time>
      </trkpt>
      <trkpt lat="48.08156" lon="-3.59662">
        <ele>104.9</ele>
        <time>2025-02-25T09:30:22Z</time>
      </trkpt>
      <trkpt lat="48.08155" lon="-3.59663">
        <ele>104.7</ele>
        <time>2025-02-25T09:30:23Z</time>
      </trkpt>
      <trkpt lat="48.08154" lon="-3.59664">
        <ele>104.6</ele>
        <time>2025-02-25T09:30:24Z</time>
      </trkpt>
      <trkpt lat="48.08153" lon="-3.59665">
        <ele>104.4</ele>
        <time>2025-02-25T09:30:25Z</time>
      </trkpt>
      <trkpt lat="48.08152" lon="-3.59666">
        <ele>104.2</ele>
        <time>2025-02-25T09:30:26Z</time>
      </trkpt>
      <trkpt lat="48.08152" lon="-3.59667">
        <ele>104.3</ele>
        <time>2025-02-25T09:30:27Z</time>
      </trkpt>
      <trkpt lat="48.08152" lon="-3.59669">
        <ele>104.5</ele>
        <time>2025-02-25T09:30:28Z</time>
      </trkpt>
      <trkpt lat="48.08151" lon="-3.59671">
        <ele>104.3</ele>
        <time>2025-02-25T09:30:29Z</time>
      </trkpt>
      <trkpt lat="48.0815" lon="-3.59672">
        <ele>104.1</ele>
        <time>2025-02-25T09:30:30Z</time>
      </trkpt>
      <trkpt lat="48.08149" lon="-3.59673">
        <ele>103.8</ele>
        <time>2025-02-25T09:30:31Z</time>
      </trkpt>
      <trkpt lat="48.08149" lon="-3.59674">
        <ele>103.9</ele>
        <time>2025-02-25T09:30:32Z</time>
      </trkpt>
      <trkpt lat="48.08148" lon="-3.59676">
        <ele>103.7</ele>
        <time>2025-02-25T09:30:33Z</time>
      </trkpt>
      <trkpt lat="48.08148" lon="-3.59678">
        <ele>103.9</ele>
        <time>2025-02-25T09:30:34Z</time>
      </trkpt>
      <trkpt lat="48.08147" lon="-3.59679">
        <ele>103.6</ele>
        <time>2025-02-25T09:30:35Z</time>
      </trkpt>
      <trkpt lat="48.08147" lon="-3.5968">
        <ele>103.7</ele>
        <time>2025-02-25T09:30:36Z</time>
      </trkpt>
      <trkpt lat="48.08146" lon="-3.59682">
        <ele>103.5</ele>
        <time>2025-02-25T09:30:37Z</time>
      </trkpt>
      <trkpt lat="48.08145" lon="-3.59683">
        <ele>103.3</ele>
        <time>2025-02-25T09:30:38Z</time>
      </trkpt>
      <trkpt lat="48.08145" lon="-3.59684">
        <ele>103.4</ele>
        <time>2025-02-25T09:30:39Z</time>
      </trkpt>
      <trkpt lat="48.08144" lon="-3.59686">
        <ele>103.2</ele>
        <time>2025-02-25T09:30:40Z</time>
      </trkpt>
      <trkpt lat="48.08143" lon="-3.59687">
        <ele>102.9</ele>
        <time>2025-02-25T09:30:41Z</time>
      </trkpt>
      <trkpt lat="48.08143" lon="-3.59688">
        <ele>103</ele>
        <time>2025-02-25T09:30:42Z</time>
      </trkpt>
      <trkpt lat="48.08142" lon="-3.59689">
        <ele>102.7</ele>
        <time>2025-02-25T09:30:43Z</time>
      </trkpt>
      <trkpt lat="48.08141" lon="-3.59691">
        <ele>102.5</ele>
        <time>2025-02-25T09:30:44Z</time>
      </trkpt>
      <trkpt lat="48.08141" lon="-3.59692">
        <ele>102.6</ele>
        <time>2025-02-25T09:30:45Z</time>
      </trkpt>
      <trkpt lat="48.0814" lon="-3.59693">
        <ele>102.3</ele>
        <time>2025-02-25T09:30:46Z</time>
      </trkpt>
      <trkpt lat="48.08139" lon="-3.59694">
        <ele>102</ele>
        <time>2025-02-25T09:30:47Z</time>
      </trkpt>
      <trkpt lat="48.08139" lon="-3.59697">
        <ele>102.2</ele>
        <time>2025-02-25T09:30:48Z</time>
      </trkpt>
      <trkpt lat="48.08138" lon="-3.59698">
        <ele>101.9</ele>
        <time>2025-02-25T09:30:49Z</time>
      </trkpt>
      <trkpt lat="48.08137" lon="-3.59699">
        <ele>101.5</ele>
        <time>2025-02-25T09:30:50Z</time>
      </trkpt>
      <trkpt lat="48.08136" lon="-3.597">
        <ele>101.1</ele>
        <time>2025-02-25T09:30:51Z</time>
      </trkpt>
      <trkpt lat="48.08136" lon="-3.59702">
        <ele>101.3</ele>
        <time>2025-02-25T09:30:52Z</time>
      </trkpt>
      <trkpt lat="48.08136" lon="-3.59704">
        <ele>101.4</ele>
        <time>2025-02-25T09:30:53Z</time>
      </trkpt>
      <trkpt lat="48.08135" lon="-3.59705">
        <ele>101</ele>
        <time>2025-02-25T09:30:54Z</time>
      </trkpt>
      <trkpt lat="48.08134" lon="-3.59707">
        <ele>100.7</ele>
        <time>2025-02-25T09:30:55Z</time>
      </trkpt>
      <trkpt lat="48.08134" lon="-3.59708">
        <ele>100.8</ele>
        <time>2025-02-25T09:30:56Z</time>
      </trkpt>
      <trkpt lat="48.08133" lon="-3.59709">
        <ele>100.4</ele>
        <time>2025-02-25T09:30:57Z</time>
      </trkpt>
      <trkpt lat="48.08133" lon="-3.59711">
        <ele>100.5</ele>
        <time>2025-02-25T09:30:58Z</time>
      </trkpt>
      <trkpt lat="48.08132" lon="-3.59712">
        <ele>100.1</ele>
        <time>2025-02-25T09:30:59Z</time>
      </trkpt>
      <trkpt lat="48.08132" lon="-3.59714">
        <ele>100.3</ele>
        <time>2025-02-25T09:31:00Z</time>
      </trkpt>
      <trkpt lat="48.08132" lon="-3.59715">
        <ele>100.3</ele>
        <time>2025-02-25T09:31:01Z</time>
      </trkpt>
      <trkpt lat="48.08131" lon="-3.59717">
        <ele>100</ele>
        <time>2025-02-25T09:31:02Z</time>
      </trkpt>
      <trkpt lat="48.0813" lon="-3.59718">
        <ele>99.6</ele>
        <time>2025-02-25T09:31:03Z</time>
      </trkpt>
      <trkpt lat="48.08129" lon="-3.59719">
        <ele>99.2</ele>
        <time>2025-02-25T09:31:04Z</time>
      </trkpt>
      <trkpt lat="48.08129" lon="-3.5972">
        <ele>99.2</ele>
        <time>2025-02-25T09:31:05Z</time>
      </trkpt>
      <trkpt lat="48.08128" lon="-3.59722">
        <ele>98.9</ele>
        <time>2025-02-25T09:31:06Z</time>
      </trkpt>
      <trkpt lat="48.08127" lon="-3.59723">
        <ele>98.5</ele>
        <time>2025-02-25T09:31:07Z</time>
      </trkpt>
      <trkpt lat="48.08126" lon="-3.59724">
        <ele>98</ele>
        <time>2025-02-25T09:31:08Z</time>
      </trkpt>
      <trkpt lat="48.08126" lon="-3.59725">
        <ele>98</ele>
        <time>2025-02-25T09:31:09Z</time>
      </trkpt>
      <trkpt lat="48.08126" lon="-3.59727">
        <ele>98.1</ele>
        <time>2025-02-25T09:31:10Z</time>
      </trkpt>
      <trkpt lat="48.08126" lon="-3.5973">
        <ele>98.1</ele>
        <time>2025-02-25T09:31:11Z</time>
      </trkpt>
      <trkpt lat="48.08126" lon="-3.59731">
        <ele>98.1</ele>
        <time>2025-02-25T09:31:12Z</time>
      </trkpt>
      <trkpt lat="48.08125" lon="-3.59733">
        <ele>97.7</ele>
        <time>2025-02-25T09:31:13Z</time>
      </trkpt>
      <trkpt lat="48.08124" lon="-3.59734">
        <ele>97.2</ele>
        <time>2025-02-25T09:31:14Z</time>
      </trkpt>
      <trkpt lat="48.08124" lon="-3.59735">
        <ele>97.2</ele>
        <time>2025-02-25T09:31:15Z</time>
      </trkpt>
      <trkpt lat="48.08124" lon="-3.59736">
        <ele>97.3</ele>
        <time>2025-02-25T09:31:16Z</time>
      </trkpt>
      <trkpt lat="48.08124" lon="-3.59737">
        <ele>97.3</ele>
        <time>2025-02-25T09:31:17Z</time>
      </trkpt>
      <trkpt lat="48.08124" lon="-3.59739">
        <ele>97.3</ele>
        <time>2025-02-25T09:31:18Z</time>
      </trkpt>
      <trkpt lat="48.08124" lon="-3.59741">
        <ele>97.3</ele>
        <time>2025-02-25T09:31:19Z</time>
      </trkpt>
      <trkpt lat="48.08123" lon="-3.59742">
        <ele>96.9</ele>
        <time>2025-02-25T09:31:20Z</time>
      </trkpt>
      <trkpt lat="48.08122" lon="-3.59743">
        <ele>96.4</ele>
        <time>2025-02-25T09:31:21Z</time>
      </trkpt>
      <trkpt lat="48.08122" lon="-3.59745">
        <ele>96.4</ele>
        <time>2025-02-25T09:31:22Z</time>
      </trkpt>
      <trkpt lat="48.08122" lon="-3.59747">
        <ele>96.4</ele>
        <time>2025-02-25T09:31:23Z</time>
      </trkpt>
      <trkpt lat="48.08122" lon="-3.59748">
        <ele>96.5</ele>
        <time>2025-02-25T09:31:24Z</time>
      </trkpt>
      <trkpt lat="48.08121" lon="-3.5975">
        <ele>96</ele>
        <time>2025-02-25T09:31:25Z</time>
      </trkpt>
      <trkpt lat="48.08121" lon="-3.59751">
        <ele>96</ele>
        <time>2025-02-25T09:31:26Z</time>
      </trkpt>
      <trkpt lat="48.08121" lon="-3.59753">
        <ele>96</ele>
        <time>2025-02-25T09:31:27Z</time>
      </trkpt>
      <trkpt lat="48.0812" lon="-3.59754">
        <ele>95.5</ele>
        <time>2025-02-25T09:31:28Z</time>
      </trkpt>
      <trkpt lat="48.0812" lon="-3.59756">
        <ele>95.5</ele>
        <time>2025-02-25T09:31:29Z</time>
      </trkpt>
      <trkpt lat="48.0812" lon="-3.59757">
        <ele>95.6</ele>
        <time>2025-02-25T09:31:30Z</time>
      </trkpt>
      <trkpt lat="48.08119" lon="-3.59758">
        <ele>95.1</ele>
        <time>2025-02-25T09:31:31Z</time>
      </trkpt>
      <trkpt lat="48.08119" lon="-3.5976">
        <ele>95.1</ele>
        <time>2025-02-25T09:31:32Z</time>
      </trkpt>
      <trkpt lat="48.08118" lon="-3.59761">
        <ele>94.6</ele>
        <time>2025-02-25T09:31:33Z</time>
      </trkpt>
      <trkpt lat="48.08117" lon="-3.59762">
        <ele>94.1</ele>
        <time>2025-02-25T09:31:34Z</time>
      </trkpt>
      <trkpt lat="48.08117" lon="-3.59764">
        <ele>94.1</ele>
        <time>2025-02-25T09:31:35Z</time>
      </trkpt>
      <trkpt lat="48.08116" lon="-3.59765">
        <ele>93.6</ele>
        <time>2025-02-25T09:31:36Z</time>
      </trkpt>
      <trkpt lat="48.08117" lon="-3.59767">
        <ele>94.1</ele>
        <time>2025-02-25T09:31:37Z</time>
      </trkpt>
      <trkpt lat="48.08117" lon="-3.59768">
        <ele>94.1</ele>
        <time>2025-02-25T09:31:38Z</time>
      </trkpt>
      <trkpt lat="48.08116" lon="-3.5977">
        <ele>93.6</ele>
        <time>2025-02-25T09:31:39Z</time>
      </trkpt>
      <trkpt lat="48.08116" lon="-3.59771">
        <ele>93.6</ele>
        <time>2025-02-25T09:31:40Z</time>
      </trkpt>
      <trkpt lat="48.08115" lon="-3.59773">
        <ele>93.1</ele>
        <time>2025-02-25T09:31:41Z</time>
      </trkpt>
      <trkpt lat="48.08115" lon="-3.59775">
        <ele>93.1</ele>
        <time>2025-02-25T09:31:42Z</time>
      </trkpt>
      <trkpt lat="48.08114" lon="-3.59776">
        <ele>92.6</ele>
        <time>2025-02-25T09:31:43Z</time>
      </trkpt>
      <trkpt lat="48.08114" lon="-3.59778">
        <ele>92.6</ele>
        <time>2025-02-25T09:31:44Z</time>
      </trkpt>
      <trkpt lat="48.08114" lon="-3.59779">
        <ele>92.5</ele>
        <time>2025-02-25T09:31:45Z</time>
      </trkpt>
      <trkpt lat="48.08114" lon="-3.59781">
        <ele>92.4</ele>
        <time>2025-02-25T09:31:46Z</time>
      </trkpt>
      <trkpt lat="48.08113" lon="-3.59783">
        <ele>91.8</ele>
        <time>2025-02-25T09:31:47Z</time>
      </trkpt>
      <trkpt lat="48.08113" lon="-3.59785">
        <ele>91.8</ele>
        <time>2025-02-25T09:31:48Z</time>
      </trkpt>
      <trkpt lat="48.08113" lon="-3.59787">
        <ele>91.7</ele>
        <time>2025-02-25T09:31:49Z</time>
      </trkpt>
      <trkpt lat="48.08112" lon="-3.59789">
        <ele>91.1</ele>
        <time>2025-02-25T09:31:50Z</time>
      </trkpt>
      <trkpt lat="48.08112" lon="-3.59791">
        <ele>91</ele>
        <time>2025-02-25T09:31:51Z</time>
      </trkpt>
      <trkpt lat="48.08112" lon="-3.59793">
        <ele>90.9</ele>
        <time>2025-02-25T09:31:52Z</time>
      </trkpt>
      <trkpt lat="48.08111" lon="-3.59795">
        <ele>90.4</ele>
        <time>2025-02-25T09:31:53Z</time>
      </trkpt>
      <trkpt lat="48.08111" lon="-3.59797">
        <ele>90.3</ele>
        <time>2025-02-25T09:31:54Z</time>
      </trkpt>
      <trkpt lat="48.08111" lon="-3.59799">
        <ele>90.2</ele>
        <time>2025-02-25T09:31:55Z</time>
      </trkpt>
      <trkpt lat="48.08111" lon="-3.598">
        <ele>90.2</ele>
        <time>2025-02-25T09:31:56Z</time>
      </trkpt>
      <trkpt lat="48.08111" lon="-3.59802">
        <ele>90.1</ele>
        <time>2025-02-25T09:31:57Z</time>
      </trkpt>
      <trkpt lat="48.08111" lon="-3.59804">
        <ele>90</ele>
        <time>2025-02-25T09:31:58Z</time>
      </trkpt>
      <trkpt lat="48.08111" lon="-3.59806">
        <ele>89.9</ele>
        <time>2025-02-25T09:31:59Z</time>
      </trkpt>
      <trkpt lat="48.0811" lon="-3.59807">
        <ele>89.7</ele>
        <time>2025-02-25T09:32:00Z</time>
      </trkpt>
      <trkpt lat="48.0811" lon="-3.59809">
        <ele>89.6</ele>
        <time>2025-02-25T09:32:01Z</time>
      </trkpt>
      <trkpt lat="48.0811" lon="-3.5981">
        <ele>89.5</ele>
        <time>2025-02-25T09:32:02Z</time>
      </trkpt>
      <trkpt lat="48.0811" lon="-3.59812">
        <ele>89.4</ele>
        <time>2025-02-25T09:32:03Z</time>
      </trkpt>
      <trkpt lat="48.0811" lon="-3.59813">
        <ele>89.3</ele>
        <time>2025-02-25T09:32:04Z</time>
      </trkpt>
      <trkpt lat="48.08109" lon="-3.59815">
        <ele>89</ele>
        <time>2025-02-25T09:32:05Z</time>
      </trkpt>
      <trkpt lat="48.08109" lon="-3.59816">
        <ele>88.9</ele>
        <time>2025-02-25T09:32:06Z</time>
      </trkpt>
      <trkpt lat="48.08108" lon="-3.59817">
        <ele>88.7</ele>
        <time>2025-02-25T09:32:07Z</time>
      </trkpt>
      <trkpt lat="48.08109" lon="-3.59819">
        <ele>88.7</ele>
        <time>2025-02-25T09:32:08Z</time>
      </trkpt>
      <trkpt lat="48.08109" lon="-3.59821">
        <ele>88.6</ele>
        <time>2025-02-25T09:32:09Z</time>
      </trkpt>
      <trkpt lat="48.08109" lon="-3.59823">
        <ele>88.5</ele>
        <time>2025-02-25T09:32:10Z</time>
      </trkpt>
      <trkpt lat="48.08109" lon="-3.59825">
        <ele>88.3</ele>
        <time>2025-02-25T09:32:11Z</time>
      </trkpt>
      <trkpt lat="48.08109" lon="-3.59826">
        <ele>88.3</ele>
        <time>2025-02-25T09:32:12Z</time>
      </trkpt>
      <trkpt lat="48.08109" lon="-3.59828">
        <ele>88.1</ele>
        <time>2025-02-25T09:32:13Z</time>
      </trkpt>
      <trkpt lat="48.0811" lon="-3.59829">
        <ele>88.2</ele>
        <time>2025-02-25T09:32:14Z</time>
      </trkpt>
      <trkpt lat="48.0811" lon="-3.59831">
        <ele>88</ele>
        <time>2025-02-25T09:32:15Z</time>
      </trkpt>
      <trkpt lat="48.08109" lon="-3.59832">
        <ele>87.9</ele>
        <time>2025-02-25T09:32:16Z</time>
      </trkpt>
      <trkpt lat="48.08109" lon="-3.59833">
        <ele>87.8</ele>
        <time>2025-02-25T09:32:17Z</time>
      </trkpt>
      <trkpt lat="48.08108" lon="-3.59835">
        <ele>87.6</ele>
        <time>2025-02-25T09:32:18Z</time>
      </trkpt>
      <trkpt lat="48.08108" lon="-3.59836">
        <ele>87.6</ele>
        <time>2025-02-25T09:32:19Z</time>
      </trkpt>
      <trkpt lat="48.08107" lon="-3.59838">
        <ele>87.4</ele>
        <time>2025-02-25T09:32:20Z</time>
      </trkpt>
      <trkpt lat="48.08108" lon="-3.59839">
        <ele>87.5</ele>
        <time>2025-02-25T09:32:21Z</time>
      </trkpt>
      <trkpt lat="48.08107" lon="-3.59841">
        <ele>87.3</ele>
        <time>2025-02-25T09:32:22Z</time>
      </trkpt>
      <trkpt lat="48.08107" lon="-3.59843">
        <ele>87.3</ele>
        <time>2025-02-25T09:32:23Z</time>
      </trkpt>
      <trkpt lat="48.08108" lon="-3.59845">
        <ele>87.3</ele>
        <time>2025-02-25T09:32:24Z</time>
      </trkpt>
      <trkpt lat="48.08108" lon="-3.59846">
        <ele>87.3</ele>
        <time>2025-02-25T09:32:25Z</time>
      </trkpt>
      <trkpt lat="48.08107" lon="-3.59848">
        <ele>87.1</ele>
        <time>2025-02-25T09:32:26Z</time>
      </trkpt>
      <trkpt lat="48.08107" lon="-3.5985">
        <ele>87</ele>
        <time>2025-02-25T09:32:27Z</time>
      </trkpt>
      <trkpt lat="48.08107" lon="-3.59851">
        <ele>87</ele>
        <time>2025-02-25T09:32:28Z</time>
      </trkpt>
      <trkpt lat="48.08107" lon="-3.59853">
        <ele>87</ele>
        <time>2025-02-25T09:32:29Z</time>
      </trkpt>
      <trkpt lat="48.08108" lon="-3.59854">
        <ele>87</ele>
        <time>2025-02-25T09:32:30Z</time>
      </trkpt>
      <trkpt lat="48.08108" lon="-3.59851">
        <ele>87.1</ele>
        <time>2025-02-25T09:32:31Z</time>
      </trkpt>
      <trkpt lat="48.08108" lon="-3.5985">
        <ele>87.1</ele>
        <time>2025-02-25T09:32:32Z</time>
      </trkpt>
      <trkpt lat="48.08108" lon="-3.5985">
        <ele>87.1</ele>
        <time>2025-02-25T09:32:33Z</time>
      </trkpt>
      <trkpt lat="48.08109" lon="-3.59849">
        <ele>87.3</ele>
        <time>2025-02-25T09:32:34Z</time>
      </trkpt>
      <trkpt lat="48.08109" lon="-3.59849">
        <ele>87.3</ele>
        <time>2025-02-25T09:32:35Z</time>
      </trkpt>
      <trkpt lat="48.08109" lon="-3.59849">
        <ele>87.3</ele>
        <time>2025-02-25T09:32:36Z</time>
      </trkpt>
      <trkpt lat="48.0811" lon="-3.59849">
        <ele>87.3</ele>
        <time>2025-02-25T09:32:37Z</time>
      </trkpt>
      <trkpt lat="48.08111" lon="-3.59846">
        <ele>87.5</ele>
        <time>2025-02-25T09:32:38Z</time>
      </trkpt>
      <trkpt lat="48.08113" lon="-3.59844">
        <ele>88.5</ele>
        <time>2025-02-25T09:32:39Z</time>
      </trkpt>
      <trkpt lat="48.08113" lon="-3.59844">
        <ele>88.5</ele>
        <time>2025-02-25T09:32:40Z</time>
      </trkpt>
      <trkpt lat="48.08113" lon="-3.59843">
        <ele>88.5</ele>
        <time>2025-02-25T09:32:41Z</time>
      </trkpt>
      <trkpt lat="48.08113" lon="-3.59842">
        <ele>88.6</ele>
        <time>2025-02-25T09:32:42Z</time>
      </trkpt>
      <trkpt lat="48.08113" lon="-3.59842">
        <ele>88.6</ele>
        <time>2025-02-25T09:32:43Z</time>
      </trkpt>
      <trkpt lat="48.08113" lon="-3.59843">
        <ele>88.5</ele>
        <time>2025-02-25T09:32:44Z</time>
      </trkpt>
      <trkpt lat="48.08112" lon="-3.59844">
        <ele>88</ele>
        <time>2025-02-25T09:32:45Z</time>
      </trkpt>
      <trkpt lat="48.08112" lon="-3.59844">
        <ele>88</ele>
        <time>2025-02-25T09:32:46Z</time>
      </trkpt>
      <trkpt lat="48.08112" lon="-3.59846">
        <ele>87.9</ele>
        <time>2025-02-25T09:32:47Z</time>
      </trkpt>
      <trkpt lat="48.08111" lon="-3.59848">
        <ele>87.5</ele>
        <time>2025-02-25T09:32:48Z</time>
      </trkpt>
      <trkpt lat="48.08107" lon="-3.5985">
        <ele>87</ele>
        <time>2025-02-25T09:32:49Z</time>
      </trkpt>
      <trkpt lat="48.08108" lon="-3.59851">
        <ele>87.1</ele>
        <time>2025-02-25T09:32:50Z</time>
      </trkpt>
      <trkpt lat="48.08108" lon="-3.59852">
        <ele>87.1</ele>
        <time>2025-02-25T09:32:51Z</time>
      </trkpt>
      <trkpt lat="48.08108" lon="-3.59852">
        <ele>87.1</ele>
        <time>2025-02-25T09:32:52Z</time>
      </trkpt>
      <trkpt lat="48.08109" lon="-3.59855">
        <ele>87.1</ele>
        <time>2025-02-25T09:32:53Z</time>
      </trkpt>
      <trkpt lat="48.08109" lon="-3.59855">
        <ele>87.1</ele>
        <time>2025-02-25T09:32:54Z</time>
      </trkpt>
      <trkpt lat="48.08109" lon="-3.59855">
        <ele>87.1</ele>
        <time>2025-02-25T09:32:55Z</time>
      </trkpt>
      <trkpt lat="48.0811" lon="-3.59857">
        <ele>87.1</ele>
        <time>2025-02-25T09:32:56Z</time>
      </trkpt>
      <trkpt lat="48.0811" lon="-3.59858">
        <ele>87</ele>
        <time>2025-02-25T09:32:57Z</time>
      </trkpt>
      <trkpt lat="48.0811" lon="-3.59859">
        <ele>87</ele>
        <time>2025-02-25T09:32:58Z</time>
      </trkpt>
      <trkpt lat="48.08111" lon="-3.59861">
        <ele>87</ele>
        <time>2025-02-25T09:32:59Z</time>
      </trkpt>
      <trkpt lat="48.08111" lon="-3.59862">
        <ele>87</ele>
        <time>2025-02-25T09:33:00Z</time>
      </trkpt>
      <trkpt lat="48.08111" lon="-3.59864">
        <ele>86.9</ele>
        <time>2025-02-25T09:33:01Z</time>
      </trkpt>
      <trkpt lat="48.08112" lon="-3.59866">
        <ele>87.1</ele>
        <time>2025-02-25T09:33:02Z</time>
      </trkpt>
      <trkpt lat="48.08112" lon="-3.59868">
        <ele>87</ele>
        <time>2025-02-25T09:33:03Z</time>
      </trkpt>
      <trkpt lat="48.08112" lon="-3.5987">
        <ele>87</ele>
        <time>2025-02-25T09:33:04Z</time>
      </trkpt>
      <trkpt lat="48.08113" lon="-3.59872">
        <ele>87.2</ele>
        <time>2025-02-25T09:33:05Z</time>
      </trkpt>
      <trkpt lat="48.08113" lon="-3.59872">
        <ele>87.2</ele>
        <time>2025-02-25T09:33:06Z</time>
      </trkpt>
      <trkpt lat="48.08113" lon="-3.59873">
        <ele>87.1</ele>
        <time>2025-02-25T09:33:07Z</time>
      </trkpt>
      <trkpt lat="48.08113" lon="-3.59874">
        <ele>87.1</ele>
        <time>2025-02-25T09:33:08Z</time>
      </trkpt>
      <trkpt lat="48.08112" lon="-3.59875">
        <ele>86.8</ele>
        <time>2025-02-25T09:33:09Z</time>
      </trkpt>
      <trkpt lat="48.08112" lon="-3.59877">
        <ele>86.7</ele>
        <time>2025-02-25T09:33:10Z</time>
      </trkpt>
      <trkpt lat="48.08112" lon="-3.59878">
        <ele>86.6</ele>
        <time>2025-02-25T09:33:11Z</time>
      </trkpt>
      <trkpt lat="48.08113" lon="-3.59879">
        <ele>86.9</ele>
        <time>2025-02-25T09:33:12Z</time>
      </trkpt>
      <trkpt lat="48.08113" lon="-3.59879">
        <ele>86.9</ele>
        <time>2025-02-25T09:33:13Z</time>
      </trkpt>
      <trkpt lat="48.08113" lon="-3.59879">
        <ele>86.9</ele>
        <time>2025-02-25T09:33:14Z</time>
      </trkpt>
      <trkpt lat="48.08112" lon="-3.59879">
        <ele>86.6</ele>
        <time>2025-02-25T09:33:15Z</time>
      </trkpt>
      <trkpt lat="48.08112" lon="-3.59879">
        <ele>86.6</ele>
        <time>2025-02-25T09:33:16Z</time>
      </trkpt>
      <trkpt lat="48.08112" lon="-3.59879">
        <ele>86.6</ele>
        <time>2025-02-25T09:33:17Z</time>
      </trkpt>
      <trkpt lat="48.08112" lon="-3.59879">
        <ele>86.6</ele>
        <time>2025-02-25T09:33:18Z</time>
      </trkpt>
      <trkpt lat="48.08112" lon="-3.59879">
        <ele>86.6</ele>
        <time>2025-02-25T09:33:19Z</time>
      </trkpt>
      <trkpt lat="48.08112" lon="-3.59879">
        <ele>86.6</ele>
        <time>2025-02-25T09:33:20Z</time>
      </trkpt>
      <trkpt lat="48.08112" lon="-3.59879">
        <ele>86.6</ele>
        <time>2025-02-25T09:33:21Z</time>
      </trkpt>
      <trkpt lat="48.08112" lon="-3.5988">
        <ele>86.6</ele>
        <time>2025-02-25T09:33:22Z</time>
      </trkpt>
      <trkpt lat="48.08113" lon="-3.59882">
        <ele>86.7</ele>
        <time>2025-02-25T09:33:23Z</time>
      </trkpt>
      <trkpt lat="48.08114" lon="-3.59883">
        <ele>86.9</ele>
        <time>2025-02-25T09:33:24Z</time>
      </trkpt>
      <trkpt lat="48.08116" lon="-3.59883">
        <ele>87.4</ele>
        <time>2025-02-25T09:33:25Z</time>
      </trkpt>
      <trkpt lat="48.08118" lon="-3.59883">
        <ele>87.9</ele>
        <time>2025-02-25T09:33:26Z</time>
      </trkpt>
      <trkpt lat="48.08119" lon="-3.59885">
        <ele>88</ele>
        <time>2025-02-25T09:33:27Z</time>
      </trkpt>
      <trkpt lat="48.08119" lon="-3.59887">
        <ele>87.8</ele>
        <time>2025-02-25T09:33:28Z</time>
      </trkpt>
      <trkpt lat="48.0812" lon="-3.59888">
        <ele>88</ele>
        <time>2025-02-25T09:33:29Z</time>
      </trkpt>
      <trkpt lat="48.0812" lon="-3.59889">
        <ele>87.9</ele>
        <time>2025-02-25T09:33:30Z</time>
      </trkpt>
      <trkpt lat="48.08121" lon="-3.59891">
        <ele>88</ele>
        <time>2025-02-25T09:33:31Z</time>
      </trkpt>
      <trkpt lat="48.08121" lon="-3.59891">
        <ele>88</ele>
        <time>2025-02-25T09:33:32Z</time>
      </trkpt>
      <trkpt lat="48.08121" lon="-3.59893">
        <ele>87.9</ele>
        <time>2025-02-25T09:33:33Z</time>
      </trkpt>
      <trkpt lat="48.08121" lon="-3.59894">
        <ele>87.9</ele>
        <time>2025-02-25T09:33:34Z</time>
      </trkpt>
      <trkpt lat="48.08122" lon="-3.59895">
        <ele>88</ele>
        <time>2025-02-25T09:33:35Z</time>
      </trkpt>
      <trkpt lat="48.08123" lon="-3.59897">
        <ele>88.1</ele>
        <time>2025-02-25T09:33:36Z</time>
      </trkpt>
      <trkpt lat="48.08122" lon="-3.59896">
        <ele>88</ele>
        <time>2025-02-25T09:33:37Z</time>
      </trkpt>
      <trkpt lat="48.08122" lon="-3.59897">
        <ele>87.9</ele>
        <time>2025-02-25T09:33:38Z</time>
      </trkpt>
      <trkpt lat="48.08123" lon="-3.59898">
        <ele>88</ele>
        <time>2025-02-25T09:33:39Z</time>
      </trkpt>
      <trkpt lat="48.08123" lon="-3.59898">
        <ele>88</ele>
        <time>2025-02-25T09:33:40Z</time>
      </trkpt>
      <trkpt lat="48.08124" lon="-3.59899">
        <ele>88.1</ele>
        <time>2025-02-25T09:33:41Z</time>
      </trkpt>
      <trkpt lat="48.08125" lon="-3.599">
        <ele>88.2</ele>
        <time>2025-02-25T09:33:42Z</time>
      </trkpt>
      <trkpt lat="48.08125" lon="-3.59901">
        <ele>88.1</ele>
        <time>2025-02-25T09:33:43Z</time>
      </trkpt>
      <trkpt lat="48.08126" lon="-3.59902">
        <ele>88.2</ele>
        <time>2025-02-25T09:33:44Z</time>
      </trkpt>
      <trkpt lat="48.08127" lon="-3.59902">
        <ele>88.4</ele>
        <time>2025-02-25T09:33:45Z</time>
      </trkpt>
      <trkpt lat="48.08128" lon="-3.59902">
        <ele>88.5</ele>
        <time>2025-02-25T09:33:46Z</time>
      </trkpt>
      <trkpt lat="48.08128" lon="-3.59902">
        <ele>88.5</ele>
        <time>2025-02-25T09:33:47Z</time>
      </trkpt>
      <trkpt lat="48.08129" lon="-3.59902">
        <ele>88.6</ele>
        <time>2025-02-25T09:33:48Z</time>
      </trkpt>
      <trkpt lat="48.0813" lon="-3.59902">
        <ele>88.8</ele>
        <time>2025-02-25T09:33:49Z</time>
      </trkpt>
      <trkpt lat="48.08131" lon="-3.59902">
        <ele>88.9</ele>
        <time>2025-02-25T09:33:50Z</time>
      </trkpt>
      <trkpt lat="48.08131" lon="-3.59902">
        <ele>88.9</ele>
        <time>2025-02-25T09:33:51Z</time>
      </trkpt>
      <trkpt lat="48.08132" lon="-3.59902">
        <ele>89.1</ele>
        <time>2025-02-25T09:33:52Z</time>
      </trkpt>
      <trkpt lat="48.08133" lon="-3.59903">
        <ele>89.1</ele>
        <time>2025-02-25T09:33:53Z</time>
      </trkpt>
      <trkpt lat="48.08134" lon="-3.59903">
        <ele>89.3</ele>
        <time>2025-02-25T09:33:54Z</time>
      </trkpt>
      <trkpt lat="48.08135" lon="-3.59904">
        <ele>89.3</ele>
        <time>2025-02-25T09:33:55Z</time>
      </trkpt>
      <trkpt lat="48.08136" lon="-3.59904">
        <ele>89.4</ele>
        <time>2025-02-25T09:33:56Z</time>
      </trkpt>
      <trkpt lat="48.08137" lon="-3.59905">
        <ele>89.4</ele>
        <time>2025-02-25T09:33:57Z</time>
      </trkpt>
      <trkpt lat="48.08138" lon="-3.59905">
        <ele>89.6</ele>
        <time>2025-02-25T09:33:58Z</time>
      </trkpt>
      <trkpt lat="48.0814" lon="-3.59906">
        <ele>89.7</ele>
        <time>2025-02-25T09:33:59Z</time>
      </trkpt>
      <trkpt lat="48.08141" lon="-3.59907">
        <ele>89.7</ele>
        <time>2025-02-25T09:34:00Z</time>
      </trkpt>
      <trkpt lat="48.08142" lon="-3.59908">
        <ele>89.8</ele>
        <time>2025-02-25T09:34:01Z</time>
      </trkpt>
      <trkpt lat="48.08142" lon="-3.59908">
        <ele>89.8</ele>
        <time>2025-02-25T09:34:02Z</time>
      </trkpt>
      <trkpt lat="48.08142" lon="-3.59908">
        <ele>89.8</ele>
        <time>2025-02-25T09:34:03Z</time>
      </trkpt>
      <trkpt lat="48.08143" lon="-3.59908">
        <ele>89.9</ele>
        <time>2025-02-25T09:34:04Z</time>
      </trkpt>
      <trkpt lat="48.08144" lon="-3.59908">
        <ele>90.1</ele>
        <time>2025-02-25T09:34:05Z</time>
      </trkpt>
      <trkpt lat="48.08145" lon="-3.59909">
        <ele>90.1</ele>
        <time>2025-02-25T09:34:06Z</time>
      </trkpt>
      <trkpt lat="48.08147" lon="-3.59909">
        <ele>90.4</ele>
        <time>2025-02-25T09:34:07Z</time>
      </trkpt>
      <trkpt lat="48.08147" lon="-3.59909">
        <ele>90.4</ele>
        <time>2025-02-25T09:34:08Z</time>
      </trkpt>
      <trkpt lat="48.08148" lon="-3.5991">
        <ele>90.4</ele>
        <time>2025-02-25T09:34:09Z</time>
      </trkpt>
      <trkpt lat="48.08149" lon="-3.5991">
        <ele>90.6</ele>
        <time>2025-02-25T09:34:10Z</time>
      </trkpt>
      <trkpt lat="48.08151" lon="-3.5991">
        <ele>90.9</ele>
        <time>2025-02-25T09:34:11Z</time>
      </trkpt>
      <trkpt lat="48.08152" lon="-3.59909">
        <ele>91.3</ele>
        <time>2025-02-25T09:34:12Z</time>
      </trkpt>
      <trkpt lat="48.08153" lon="-3.59909">
        <ele>91.4</ele>
        <time>2025-02-25T09:34:13Z</time>
      </trkpt>
      <trkpt lat="48.08155" lon="-3.5991">
        <ele>91.6</ele>
        <time>2025-02-25T09:34:14Z</time>
      </trkpt>
      <trkpt lat="48.08156" lon="-3.5991">
        <ele>91.7</ele>
        <time>2025-02-25T09:34:15Z</time>
      </trkpt>
      <trkpt lat="48.08157" lon="-3.59911">
        <ele>91.7</ele>
        <time>2025-02-25T09:34:16Z</time>
      </trkpt>
      <trkpt lat="48.08159" lon="-3.59911">
        <ele>92</ele>
        <time>2025-02-25T09:34:17Z</time>
      </trkpt>
      <trkpt lat="48.0816" lon="-3.59912">
        <ele>92</ele>
        <time>2025-02-25T09:34:18Z</time>
      </trkpt>
      <trkpt lat="48.08162" lon="-3.59912">
        <ele>92.3</ele>
        <time>2025-02-25T09:34:19Z</time>
      </trkpt>
      <trkpt lat="48.08163" lon="-3.59913">
        <ele>92.2</ele>
        <time>2025-02-25T09:34:20Z</time>
      </trkpt>
      <trkpt lat="48.08164" lon="-3.59914">
        <ele>92.2</ele>
        <time>2025-02-25T09:34:21Z</time>
      </trkpt>
      <trkpt lat="48.08165" lon="-3.59913">
        <ele>92.5</ele>
        <time>2025-02-25T09:34:22Z</time>
      </trkpt>
      <trkpt lat="48.08166" lon="-3.59913">
        <ele>92.7</ele>
        <time>2025-02-25T09:34:23Z</time>
      </trkpt>
      <trkpt lat="48.08168" lon="-3.59914">
        <ele>92.8</ele>
        <time>2025-02-25T09:34:24Z</time>
      </trkpt>
      <trkpt lat="48.08169" lon="-3.59914">
        <ele>92.9</ele>
        <time>2025-02-25T09:34:25Z</time>
      </trkpt>
      <trkpt lat="48.0817" lon="-3.59914">
        <ele>93.1</ele>
        <time>2025-02-25T09:34:26Z</time>
      </trkpt>
      <trkpt lat="48.08171" lon="-3.59914">
        <ele>93.2</ele>
        <time>2025-02-25T09:34:27Z</time>
      </trkpt>
      <trkpt lat="48.08172" lon="-3.59915">
        <ele>93.1</ele>
        <time>2025-02-25T09:34:28Z</time>
      </trkpt>
      <trkpt lat="48.08173" lon="-3.59916">
        <ele>93.1</ele>
        <time>2025-02-25T09:34:29Z</time>
      </trkpt>
      <trkpt lat="48.08174" lon="-3.59916">
        <ele>93.2</ele>
        <time>2025-02-25T09:34:30Z</time>
      </trkpt>
      <trkpt lat="48.08175" lon="-3.59917">
        <ele>93.1</ele>
        <time>2025-02-25T09:34:31Z</time>
      </trkpt>
      <trkpt lat="48.08177" lon="-3.59917">
        <ele>93.4</ele>
        <time>2025-02-25T09:34:32Z</time>
      </trkpt>
      <trkpt lat="48.08178" lon="-3.59918">
        <ele>93.3</ele>
        <time>2025-02-25T09:34:33Z</time>
      </trkpt>
      <trkpt lat="48.08179" lon="-3.5992">
        <ele>92.9</ele>
        <time>2025-02-25T09:34:34Z</time>
      </trkpt>
      <trkpt lat="48.0818" lon="-3.59921">
        <ele>92.8</ele>
        <time>2025-02-25T09:34:35Z</time>
      </trkpt>
      <trkpt lat="48.08181" lon="-3.59921">
        <ele>92.9</ele>
        <time>2025-02-25T09:34:36Z</time>
      </trkpt>
      <trkpt lat="48.08182" lon="-3.59921">
        <ele>93</ele>
        <time>2025-02-25T09:34:37Z</time>
      </trkpt>
      <trkpt lat="48.08184" lon="-3.59921">
        <ele>93.3</ele>
        <time>2025-02-25T09:34:38Z</time>
      </trkpt>
      <trkpt lat="48.08185" lon="-3.5992">
        <ele>93.7</ele>
        <time>2025-02-25T09:34:39Z</time>
      </trkpt>
      <trkpt lat="48.08187" lon="-3.59921">
        <ele>93.7</ele>
        <time>2025-02-25T09:34:40Z</time>
      </trkpt>
      <trkpt lat="48.08188" lon="-3.59921">
        <ele>93.9</ele>
        <time>2025-02-25T09:34:41Z</time>
      </trkpt>
      <trkpt lat="48.08189" lon="-3.59921">
        <ele>94</ele>
        <time>2025-02-25T09:34:42Z</time>
      </trkpt>
      <trkpt lat="48.0819" lon="-3.59922">
        <ele>93.9</ele>
        <time>2025-02-25T09:34:43Z</time>
      </trkpt>
      <trkpt lat="48.08191" lon="-3.59923">
        <ele>93.7</ele>
        <time>2025-02-25T09:34:44Z</time>
      </trkpt>
      <trkpt lat="48.08192" lon="-3.59923">
        <ele>93.8</ele>
        <time>2025-02-25T09:34:45Z</time>
      </trkpt>
      <trkpt lat="48.08193" lon="-3.59924">
        <ele>93.7</ele>
        <time>2025-02-25T09:34:46Z</time>
      </trkpt>
      <trkpt lat="48.08194" lon="-3.59925">
        <ele>93.5</ele>
        <time>2025-02-25T09:34:47Z</time>
      </trkpt>
      <trkpt lat="48.08195" lon="-3.59925">
        <ele>93.7</ele>
        <time>2025-02-25T09:34:48Z</time>
      </trkpt>
      <trkpt lat="48.08195" lon="-3.59926">
        <ele>93.4</ele>
        <time>2025-02-25T09:34:49Z</time>
      </trkpt>
      <trkpt lat="48.08196" lon="-3.59925">
        <ele>93.8</ele>
        <time>2025-02-25T09:34:50Z</time>
      </trkpt>
      <trkpt lat="48.08197" lon="-3.59926">
        <ele>93.6</ele>
        <time>2025-02-25T09:34:51Z</time>
      </trkpt>
      <trkpt lat="48.08198" lon="-3.59927">
        <ele>93.5</ele>
        <time>2025-02-25T09:34:52Z</time>
      </trkpt>
      <trkpt lat="48.08199" lon="-3.59928">
        <ele>93.3</ele>
        <time>2025-02-25T09:34:53Z</time>
      </trkpt>
      <trkpt lat="48.082" lon="-3.59929">
        <ele>93.1</ele>
        <time>2025-02-25T09:34:54Z</time>
      </trkpt>
      <trkpt lat="48.08201" lon="-3.5993">
        <ele>93</ele>
        <time>2025-02-25T09:34:55Z</time>
      </trkpt>
      <trkpt lat="48.08202" lon="-3.59931">
        <ele>92.8</ele>
        <time>2025-02-25T09:34:56Z</time>
      </trkpt>
      <trkpt lat="48.08203" lon="-3.59931">
        <ele>93</ele>
        <time>2025-02-25T09:34:57Z</time>
      </trkpt>
      <trkpt lat="48.08203" lon="-3.59931">
        <ele>93</ele>
        <time>2025-02-25T09:34:58Z</time>
      </trkpt>
      <trkpt lat="48.08204" lon="-3.59931">
        <ele>93.1</ele>
        <time>2025-02-25T09:34:59Z</time>
      </trkpt>
      <trkpt lat="48.08205" lon="-3.59931">
        <ele>93.2</ele>
        <time>2025-02-25T09:35:00Z</time>
      </trkpt>
      <trkpt lat="48.08206" lon="-3.59931">
        <ele>93.3</ele>
        <time>2025-02-25T09:35:01Z</time>
      </trkpt>
      <trkpt lat="48.08207" lon="-3.59932">
        <ele>93.2</ele>
        <time>2025-02-25T09:35:02Z</time>
      </trkpt>
      <trkpt lat="48.08207" lon="-3.59933">
        <ele>92.9</ele>
        <time>2025-02-25T09:35:03Z</time>
      </trkpt>
      <trkpt lat="48.08208" lon="-3.59933">
        <ele>93</ele>
        <time>2025-02-25T09:35:04Z</time>
      </trkpt>
      <trkpt lat="48.08208" lon="-3.59933">
        <ele>93</ele>
        <time>2025-02-25T09:35:05Z</time>
      </trkpt>
      <trkpt lat="48.08208" lon="-3.59935">
        <ele>92.5</ele>
        <time>2025-02-25T09:35:06Z</time>
      </trkpt>
      <trkpt lat="48.08208" lon="-3.59937">
        <ele>92</ele>
        <time>2025-02-25T09:35:07Z</time>
      </trkpt>
      <trkpt lat="48.08209" lon="-3.59937">
        <ele>92.1</ele>
        <time>2025-02-25T09:35:08Z</time>
      </trkpt>
      <trkpt lat="48.0821" lon="-3.59937">
        <ele>92.2</ele>
        <time>2025-02-25T09:35:09Z</time>
      </trkpt>
      <trkpt lat="48.08211" lon="-3.59938">
        <ele>92.1</ele>
        <time>2025-02-25T09:35:10Z</time>
      </trkpt>
      <trkpt lat="48.08212" lon="-3.59937">
        <ele>92.5</ele>
        <time>2025-02-25T09:35:11Z</time>
      </trkpt>
      <trkpt lat="48.08213" lon="-3.59937">
        <ele>92.6</ele>
        <time>2025-02-25T09:35:12Z</time>
      </trkpt>
      <trkpt lat="48.08214" lon="-3.59937">
        <ele>92.8</ele>
        <time>2025-02-25T09:35:13Z</time>
      </trkpt>
      <trkpt lat="48.08214" lon="-3.59938">
        <ele>92.5</ele>
        <time>2025-02-25T09:35:14Z</time>
      </trkpt>
      <trkpt lat="48.08215" lon="-3.59939">
        <ele>92.4</ele>
        <time>2025-02-25T09:35:15Z</time>
      </trkpt>
      <trkpt lat="48.08216" lon="-3.59939">
        <ele>92.5</ele>
        <time>2025-02-25T09:35:16Z</time>
      </trkpt>
      <trkpt lat="48.08217" lon="-3.59939">
        <ele>92.7</ele>
        <time>2025-02-25T09:35:17Z</time>
      </trkpt>
      <trkpt lat="48.08218" lon="-3.5994">
        <ele>92.5</ele>
        <time>2025-02-25T09:35:18Z</time>
      </trkpt>
      <trkpt lat="48.08219" lon="-3.5994">
        <ele>92.7</ele>
        <time>2025-02-25T09:35:19Z</time>
      </trkpt>
      <trkpt lat="48.0822" lon="-3.59939">
        <ele>93.1</ele>
        <time>2025-02-25T09:35:20Z</time>
      </trkpt>
      <trkpt lat="48.08221" lon="-3.59939">
        <ele>93.2</ele>
        <time>2025-02-25T09:35:21Z</time>
      </trkpt>
      <trkpt lat="48.08222" lon="-3.59939">
        <ele>93.3</ele>
        <time>2025-02-25T09:35:22Z</time>
      </trkpt>
      <trkpt lat="48.08223" lon="-3.5994">
        <ele>93.2</ele>
        <time>2025-02-25T09:35:23Z</time>
      </trkpt>
      <trkpt lat="48.08224" lon="-3.5994">
        <ele>93.3</ele>
        <time>2025-02-25T09:35:24Z</time>
      </trkpt>
      <trkpt lat="48.08225" lon="-3.5994">
        <ele>93.3</ele>
        <time>2025-02-25T09:35:25Z</time>
      </trkpt>
      <trkpt lat="48.08226" lon="-3.59941">
        <ele>93.2</ele>
        <time>2025-02-25T09:35:26Z</time>
      </trkpt>
      <trkpt lat="48.08227" lon="-3.59941">
        <ele>93.2</ele>
        <time>2025-02-25T09:35:27Z</time>
      </trkpt>
      <trkpt lat="48.08228" lon="-3.59941">
        <ele>93.3</ele>
        <time>2025-02-25T09:35:28Z</time>
      </trkpt>
      <trkpt lat="48.08229" lon="-3.59941">
        <ele>93.4</ele>
        <time>2025-02-25T09:35:29Z</time>
      </trkpt>
      <trkpt lat="48.08229" lon="-3.5994">
        <ele>93.6</ele>
        <time>2025-02-25T09:35:30Z</time>
      </trkpt>
      <trkpt lat="48.0823" lon="-3.59941">
        <ele>93.5</ele>
        <time>2025-02-25T09:35:31Z</time>
      </trkpt>
      <trkpt lat="48.08231" lon="-3.59941">
        <ele>93.5</ele>
        <time>2025-02-25T09:35:32Z</time>
      </trkpt>
      <trkpt lat="48.08232" lon="-3.59942">
        <ele>93.4</ele>
        <time>2025-02-25T09:35:33Z</time>
      </trkpt>
      <trkpt lat="48.08233" lon="-3.59942">
        <ele>93.4</ele>
        <time>2025-02-25T09:35:34Z</time>
      </trkpt>
      <trkpt lat="48.08234" lon="-3.59942">
        <ele>93.5</ele>
        <time>2025-02-25T09:35:35Z</time>
      </trkpt>
      <trkpt lat="48.08235" lon="-3.59942">
        <ele>93.6</ele>
        <time>2025-02-25T09:35:36Z</time>
      </trkpt>
      <trkpt lat="48.08236" lon="-3.59942">
        <ele>93.7</ele>
        <time>2025-02-25T09:35:37Z</time>
      </trkpt>
      <trkpt lat="48.08237" lon="-3.59942">
        <ele>93.7</ele>
        <time>2025-02-25T09:35:38Z</time>
      </trkpt>
      <trkpt lat="48.08238" lon="-3.59942">
        <ele>93.8</ele>
        <time>2025-02-25T09:35:39Z</time>
      </trkpt>
      <trkpt lat="48.08239" lon="-3.59942">
        <ele>93.9</ele>
        <time>2025-02-25T09:35:40Z</time>
      </trkpt>
      <trkpt lat="48.0824" lon="-3.59941">
        <ele>94.2</ele>
        <time>2025-02-25T09:35:41Z</time>
      </trkpt>
      <trkpt lat="48.08241" lon="-3.59941">
        <ele>94.3</ele>
        <time>2025-02-25T09:35:42Z</time>
      </trkpt>
      <trkpt lat="48.08242" lon="-3.59941">
        <ele>94.4</ele>
        <time>2025-02-25T09:35:43Z</time>
      </trkpt>
      <trkpt lat="48.08243" lon="-3.59941">
        <ele>94.5</ele>
        <time>2025-02-25T09:35:44Z</time>
      </trkpt>
      <trkpt lat="48.08244" lon="-3.59941">
        <ele>94.5</ele>
        <time>2025-02-25T09:35:45Z</time>
      </trkpt>
      <trkpt lat="48.08245" lon="-3.59941">
        <ele>94.6</ele>
        <time>2025-02-25T09:35:46Z</time>
      </trkpt>
      <trkpt lat="48.08246" lon="-3.59941">
        <ele>94.7</ele>
        <time>2025-02-25T09:35:47Z</time>
      </trkpt>
      <trkpt lat="48.08247" lon="-3.5994">
        <ele>95</ele>
        <time>2025-02-25T09:35:48Z</time>
      </trkpt>
      <trkpt lat="48.08247" lon="-3.59939">
        <ele>95.3</ele>
        <time>2025-02-25T09:35:49Z</time>
      </trkpt>
      <trkpt lat="48.08248" lon="-3.59939">
        <ele>95.4</ele>
        <time>2025-02-25T09:35:50Z</time>
      </trkpt>
      <trkpt lat="48.08249" lon="-3.59939">
        <ele>95.5</ele>
        <time>2025-02-25T09:35:51Z</time>
      </trkpt>
      <trkpt lat="48.08249" lon="-3.5994">
        <ele>95.2</ele>
        <time>2025-02-25T09:35:52Z</time>
      </trkpt>
      <trkpt lat="48.0825" lon="-3.5994">
        <ele>95.3</ele>
        <time>2025-02-25T09:35:53Z</time>
      </trkpt>
      <trkpt lat="48.0825" lon="-3.59941">
        <ele>95</ele>
        <time>2025-02-25T09:35:54Z</time>
      </trkpt>
      <trkpt lat="48.08251" lon="-3.59942">
        <ele>94.7</ele>
        <time>2025-02-25T09:35:55Z</time>
      </trkpt>
      <trkpt lat="48.08253" lon="-3.59942">
        <ele>94.6</ele>
        <time>2025-02-25T09:35:56Z</time>
      </trkpt>
      <trkpt lat="48.08255" lon="-3.59941">
        <ele>94.9</ele>
        <time>2025-02-25T09:35:57Z</time>
      </trkpt>
      <trkpt lat="48.08256" lon="-3.59941">
        <ele>94.8</ele>
        <time>2025-02-25T09:35:58Z</time>
      </trkpt>
      <trkpt lat="48.08257" lon="-3.59941">
        <ele>94.8</ele>
        <time>2025-02-25T09:35:59Z</time>
      </trkpt>
      <trkpt lat="48.08257" lon="-3.59941">
        <ele>94.8</ele>
        <time>2025-02-25T09:36:00Z</time>
      </trkpt>
      <trkpt lat="48.08256" lon="-3.59941">
        <ele>94.8</ele>
        <time>2025-02-25T09:36:01Z</time>
      </trkpt>
      <trkpt lat="48.08256" lon="-3.59941">
        <ele>94.8</ele>
        <time>2025-02-25T09:36:02Z</time>
      </trkpt>
      <trkpt lat="48.08256" lon="-3.59941">
        <ele>94.8</ele>
        <time>2025-02-25T09:36:03Z</time>
      </trkpt>
      <trkpt lat="48.08257" lon="-3.59941">
        <ele>94.8</ele>
        <time>2025-02-25T09:36:04Z</time>
      </trkpt>
      <trkpt lat="48.08257" lon="-3.59942">
        <ele>94.5</ele>
        <time>2025-02-25T09:36:05Z</time>
      </trkpt>
      <trkpt lat="48.08258" lon="-3.59938">
        <ele>95.7</ele>
        <time>2025-02-25T09:36:06Z</time>
      </trkpt>
      <trkpt lat="48.08259" lon="-3.59937">
        <ele>96</ele>
        <time>2025-02-25T09:36:07Z</time>
      </trkpt>
      <trkpt lat="48.0826" lon="-3.59937">
        <ele>96</ele>
        <time>2025-02-25T09:36:08Z</time>
      </trkpt>
      <trkpt lat="48.08262" lon="-3.59938">
        <ele>95.6</ele>
        <time>2025-02-25T09:36:09Z</time>
      </trkpt>
      <trkpt lat="48.08263" lon="-3.59937">
        <ele>95.9</ele>
        <time>2025-02-25T09:36:10Z</time>
      </trkpt>
      <trkpt lat="48.08263" lon="-3.59936">
        <ele>96.2</ele>
        <time>2025-02-25T09:36:11Z</time>
      </trkpt>
      <trkpt lat="48.08264" lon="-3.59936">
        <ele>96.2</ele>
        <time>2025-02-25T09:36:12Z</time>
      </trkpt>
      <trkpt lat="48.08264" lon="-3.59936">
        <ele>96.2</ele>
        <time>2025-02-25T09:36:13Z</time>
      </trkpt>
      <trkpt lat="48.08264" lon="-3.59935">
        <ele>96.6</ele>
        <time>2025-02-25T09:36:14Z</time>
      </trkpt>
      <trkpt lat="48.08265" lon="-3.59934">
        <ele>96.9</ele>
        <time>2025-02-25T09:36:15Z</time>
      </trkpt>
      <trkpt lat="48.08266" lon="-3.59933">
        <ele>97.2</ele>
        <time>2025-02-25T09:36:16Z</time>
      </trkpt>
      <trkpt lat="48.08267" lon="-3.59933">
        <ele>97.2</ele>
        <time>2025-02-25T09:36:17Z</time>
      </trkpt>
      <trkpt lat="48.08267" lon="-3.59933">
        <ele>97.2</ele>
        <time>2025-02-25T09:36:18Z</time>
      </trkpt>
      <trkpt lat="48.08268" lon="-3.59933">
        <ele>97.2</ele>
        <time>2025-02-25T09:36:19Z</time>
      </trkpt>
      <trkpt lat="48.08269" lon="-3.59933">
        <ele>97.2</ele>
        <time>2025-02-25T09:36:20Z</time>
      </trkpt>
      <trkpt lat="48.0827" lon="-3.59933">
        <ele>97.2</ele>
        <time>2025-02-25T09:36:21Z</time>
      </trkpt>
      <trkpt lat="48.0827" lon="-3.59933">
        <ele>97.2</ele>
        <time>2025-02-25T09:36:22Z</time>
      </trkpt>
      <trkpt lat="48.08271" lon="-3.59932">
        <ele>97.5</ele>
        <time>2025-02-25T09:36:23Z</time>
      </trkpt>
      <trkpt lat="48.08272" lon="-3.59932">
        <ele>97.5</ele>
        <time>2025-02-25T09:36:24Z</time>
      </trkpt>
      <trkpt lat="48.08273" lon="-3.59933">
        <ele>97.2</ele>
        <time>2025-02-25T09:36:25Z</time>
      </trkpt>
      <trkpt lat="48.08274" lon="-3.59933">
        <ele>97.1</ele>
        <time>2025-02-25T09:36:26Z</time>
      </trkpt>
      <trkpt lat="48.08274" lon="-3.59932">
        <ele>97.5</ele>
        <time>2025-02-25T09:36:27Z</time>
      </trkpt>
      <trkpt lat="48.08275" lon="-3.59931">
        <ele>97.8</ele>
        <time>2025-02-25T09:36:28Z</time>
      </trkpt>
      <trkpt lat="48.08275" lon="-3.5993">
        <ele>98.2</ele>
        <time>2025-02-25T09:36:29Z</time>
      </trkpt>
      <trkpt lat="48.08276" lon="-3.59929">
        <ele>98.6</ele>
        <time>2025-02-25T09:36:30Z</time>
      </trkpt>
      <trkpt lat="48.08277" lon="-3.59928">
        <ele>98.9</ele>
        <time>2025-02-25T09:36:31Z</time>
      </trkpt>
      <trkpt lat="48.08277" lon="-3.59928">
        <ele>98.9</ele>
        <time>2025-02-25T09:36:32Z</time>
      </trkpt>
      <trkpt lat="48.08278" lon="-3.59927">
        <ele>99.3</ele>
        <time>2025-02-25T09:36:33Z</time>
      </trkpt>
      <trkpt lat="48.08278" lon="-3.59925">
        <ele>100</ele>
        <time>2025-02-25T09:36:34Z</time>
      </trkpt>
      <trkpt lat="48.08278" lon="-3.59924">
        <ele>100.4</ele>
        <time>2025-02-25T09:36:35Z</time>
      </trkpt>
      <trkpt lat="48.08278" lon="-3.59923">
        <ele>100.7</ele>
        <time>2025-02-25T09:36:36Z</time>
      </trkpt>
      <trkpt lat="48.08279" lon="-3.59923">
        <ele>100.9</ele>
        <time>2025-02-25T09:36:37Z</time>
      </trkpt>
      <trkpt lat="48.08279" lon="-3.59923">
        <ele>100.9</ele>
        <time>2025-02-25T09:36:38Z</time>
      </trkpt>
      <trkpt lat="48.0828" lon="-3.59922">
        <ele>101.3</ele>
        <time>2025-02-25T09:36:39Z</time>
      </trkpt>
      <trkpt lat="48.08281" lon="-3.59922">
        <ele>101.4</ele>
        <time>2025-02-25T09:36:40Z</time>
      </trkpt>
      <trkpt lat="48.08282" lon="-3.59921">
        <ele>101.9</ele>
        <time>2025-02-25T09:36:41Z</time>
      </trkpt>
      <trkpt lat="48.08283" lon="-3.59921">
        <ele>102</ele>
        <time>2025-02-25T09:36:42Z</time>
      </trkpt>
      <trkpt lat="48.08283" lon="-3.59921">
        <ele>102</ele>
        <time>2025-02-25T09:36:43Z</time>
      </trkpt>
      <trkpt lat="48.08284" lon="-3.5992">
        <ele>102.5</ele>
        <time>2025-02-25T09:36:44Z</time>
      </trkpt>
      <trkpt lat="48.08285" lon="-3.5992">
        <ele>102.6</ele>
        <time>2025-02-25T09:36:45Z</time>
      </trkpt>
      <trkpt lat="48.08285" lon="-3.59919">
        <ele>102.9</ele>
        <time>2025-02-25T09:36:46Z</time>
      </trkpt>
      <trkpt lat="48.08286" lon="-3.59918">
        <ele>103.4</ele>
        <time>2025-02-25T09:36:47Z</time>
      </trkpt>
      <trkpt lat="48.08287" lon="-3.59917">
        <ele>103.9</ele>
        <time>2025-02-25T09:36:48Z</time>
      </trkpt>
      <trkpt lat="48.08288" lon="-3.59917">
        <ele>104</ele>
        <time>2025-02-25T09:36:49Z</time>
      </trkpt>
      <trkpt lat="48.08289" lon="-3.59917">
        <ele>104.1</ele>
        <time>2025-02-25T09:36:50Z</time>
      </trkpt>
      <trkpt lat="48.08291" lon="-3.59918">
        <ele>103.9</ele>
        <time>2025-02-25T09:36:51Z</time>
      </trkpt>
      <trkpt lat="48.08292" lon="-3.59918">
        <ele>104.1</ele>
        <time>2025-02-25T09:36:52Z</time>
      </trkpt>
      <trkpt lat="48.08291" lon="-3.59919">
        <ele>103.6</ele>
        <time>2025-02-25T09:36:53Z</time>
      </trkpt>
      <trkpt lat="48.08292" lon="-3.5992">
        <ele>103.3</ele>
        <time>2025-02-25T09:36:54Z</time>
      </trkpt>
      <trkpt lat="48.08292" lon="-3.59921">
        <ele>103</ele>
        <time>2025-02-25T09:36:55Z</time>
      </trkpt>
      <trkpt lat="48.08292" lon="-3.59921">
        <ele>103</ele>
        <time>2025-02-25T09:36:56Z</time>
      </trkpt>
      <trkpt lat="48.08292" lon="-3.59921">
        <ele>103</ele>
        <time>2025-02-25T09:36:57Z</time>
      </trkpt>
      <trkpt lat="48.08293" lon="-3.59921">
        <ele>103.1</ele>
        <time>2025-02-25T09:36:58Z</time>
      </trkpt>
      <trkpt lat="48.08293" lon="-3.59924">
        <ele>102</ele>
        <time>2025-02-25T09:36:59Z</time>
      </trkpt>
      <trkpt lat="48.08295" lon="-3.59927">
        <ele>101.1</ele>
        <time>2025-02-25T09:37:00Z</time>
      </trkpt>
      <trkpt lat="48.08296" lon="-3.59928">
        <ele>100.9</ele>
        <time>2025-02-25T09:37:01Z</time>
      </trkpt>
      <trkpt lat="48.08297" lon="-3.59928">
        <ele>101</ele>
        <time>2025-02-25T09:37:02Z</time>
      </trkpt>
      <trkpt lat="48.08298" lon="-3.59928">
        <ele>101.1</ele>
        <time>2025-02-25T09:37:03Z</time>
      </trkpt>
      <trkpt lat="48.08298" lon="-3.59928">
        <ele>101.1</ele>
        <time>2025-02-25T09:37:04Z</time>
      </trkpt>
      <trkpt lat="48.08299" lon="-3.59927">
        <ele>101.6</ele>
        <time>2025-02-25T09:37:05Z</time>
      </trkpt>
      <trkpt lat="48.08299" lon="-3.59927">
        <ele>101.6</ele>
        <time>2025-02-25T09:37:06Z</time>
      </trkpt>
      <trkpt lat="48.083" lon="-3.59926">
        <ele>102</ele>
        <time>2025-02-25T09:37:07Z</time>
      </trkpt>
      <trkpt lat="48.083" lon="-3.59926">
        <ele>102</ele>
        <time>2025-02-25T09:37:08Z</time>
      </trkpt>
      <trkpt lat="48.08299" lon="-3.59925">
        <ele>102.3</ele>
        <time>2025-02-25T09:37:09Z</time>
      </trkpt>
      <trkpt lat="48.08299" lon="-3.59923">
        <ele>103</ele>
        <time>2025-02-25T09:37:10Z</time>
      </trkpt>
      <trkpt lat="48.08298" lon="-3.59921">
        <ele>103.6</ele>
        <time>2025-02-25T09:37:11Z</time>
      </trkpt>
      <trkpt lat="48.08299" lon="-3.5992">
        <ele>104.1</ele>
        <time>2025-02-25T09:37:12Z</time>
      </trkpt>
      <trkpt lat="48.083" lon="-3.5992">
        <ele>104.2</ele>
        <time>2025-02-25T09:37:13Z</time>
      </trkpt>
      <trkpt lat="48.083" lon="-3.5992">
        <ele>104.2</ele>
        <time>2025-02-25T09:37:14Z</time>
      </trkpt>
      <trkpt lat="48.08301" lon="-3.59919">
        <ele>104.7</ele>
        <time>2025-02-25T09:37:15Z</time>
      </trkpt>
      <trkpt lat="48.08302" lon="-3.59919">
        <ele>104.8</ele>
        <time>2025-02-25T09:37:16Z</time>
      </trkpt>
      <trkpt lat="48.08302" lon="-3.59917">
        <ele>105.5</ele>
        <time>2025-02-25T09:37:17Z</time>
      </trkpt>
      <trkpt lat="48.08303" lon="-3.59917">
        <ele>105.6</ele>
        <time>2025-02-25T09:37:18Z</time>
      </trkpt>
      <trkpt lat="48.08303" lon="-3.59918">
        <ele>105.2</ele>
        <time>2025-02-25T09:37:19Z</time>
      </trkpt>
      <trkpt lat="48.08303" lon="-3.59918">
        <ele>105.2</ele>
        <time>2025-02-25T09:37:20Z</time>
      </trkpt>
      <trkpt lat="48.08304" lon="-3.59918">
        <ele>105.4</ele>
        <time>2025-02-25T09:37:21Z</time>
      </trkpt>
      <trkpt lat="48.08305" lon="-3.59918">
        <ele>105.5</ele>
        <time>2025-02-25T09:37:22Z</time>
      </trkpt>
      <trkpt lat="48.08305" lon="-3.59918">
        <ele>105.5</ele>
        <time>2025-02-25T09:37:23Z</time>
      </trkpt>
      <trkpt lat="48.08306" lon="-3.5992">
        <ele>104.9</ele>
        <time>2025-02-25T09:37:24Z</time>
      </trkpt>
      <trkpt lat="48.08308" lon="-3.59919">
        <ele>106</ele>
        <time>2025-02-25T09:37:25Z</time>
      </trkpt>
      <trkpt lat="48.08308" lon="-3.59917">
        <ele>106.7</ele>
        <time>2025-02-25T09:37:26Z</time>
      </trkpt>
      <trkpt lat="48.08309" lon="-3.59917">
        <ele>107</ele>
        <time>2025-02-25T09:37:27Z</time>
      </trkpt>
      <trkpt lat="48.08309" lon="-3.59916">
        <ele>107.3</ele>
        <time>2025-02-25T09:37:28Z</time>
      </trkpt>
      <trkpt lat="48.0831" lon="-3.59917">
        <ele>107.3</ele>
        <time>2025-02-25T09:37:29Z</time>
      </trkpt>
      <trkpt lat="48.08311" lon="-3.59916">
        <ele>108</ele>
        <time>2025-02-25T09:37:30Z</time>
      </trkpt>
      <trkpt lat="48.0831" lon="-3.59916">
        <ele>107.6</ele>
        <time>2025-02-25T09:37:31Z</time>
      </trkpt>
      <trkpt lat="48.08311" lon="-3.59915">
        <ele>108.3</ele>
        <time>2025-02-25T09:37:32Z</time>
      </trkpt>
      <trkpt lat="48.08311" lon="-3.59914">
        <ele>108.6</ele>
        <time>2025-02-25T09:37:33Z</time>
      </trkpt>
      <trkpt lat="48.08311" lon="-3.59913">
        <ele>108.9</ele>
        <time>2025-02-25T09:37:34Z</time>
      </trkpt>
      <trkpt lat="48.08312" lon="-3.59912">
        <ele>109.5</ele>
        <time>2025-02-25T09:37:35Z</time>
      </trkpt>
      <trkpt lat="48.08312" lon="-3.59912">
        <ele>109.5</ele>
        <time>2025-02-25T09:37:36Z</time>
      </trkpt>
      <trkpt lat="48.08313" lon="-3.59912">
        <ele>109.8</ele>
        <time>2025-02-25T09:37:37Z</time>
      </trkpt>
      <trkpt lat="48.08314" lon="-3.59912">
        <ele>110.1</ele>
        <time>2025-02-25T09:37:38Z</time>
      </trkpt>
      <trkpt lat="48.08314" lon="-3.59911">
        <ele>110.4</ele>
        <time>2025-02-25T09:37:39Z</time>
      </trkpt>
      <trkpt lat="48.08315" lon="-3.5991">
        <ele>111</ele>
        <time>2025-02-25T09:37:40Z</time>
      </trkpt>
      <trkpt lat="48.08316" lon="-3.59909">
        <ele>111.6</ele>
        <time>2025-02-25T09:37:41Z</time>
      </trkpt>
      <trkpt lat="48.08316" lon="-3.59909">
        <ele>111.6</ele>
        <time>2025-02-25T09:37:42Z</time>
      </trkpt>
      <trkpt lat="48.08317" lon="-3.59908">
        <ele>112.1</ele>
        <time>2025-02-25T09:37:43Z</time>
      </trkpt>
      <trkpt lat="48.08318" lon="-3.59908">
        <ele>112.4</ele>
        <time>2025-02-25T09:37:44Z</time>
      </trkpt>
      <trkpt lat="48.08319" lon="-3.59908">
        <ele>112.7</ele>
        <time>2025-02-25T09:37:45Z</time>
      </trkpt>
      <trkpt lat="48.0832" lon="-3.59908">
        <ele>113</ele>
        <time>2025-02-25T09:37:46Z</time>
      </trkpt>
      <trkpt lat="48.0832" lon="-3.59909">
        <ele>112.7</ele>
        <time>2025-02-25T09:37:47Z</time>
      </trkpt>
      <trkpt lat="48.08321" lon="-3.59909">
        <ele>113</ele>
        <time>2025-02-25T09:37:48Z</time>
      </trkpt>
      <trkpt lat="48.08322" lon="-3.59909">
        <ele>113.3</ele>
        <time>2025-02-25T09:37:49Z</time>
      </trkpt>
      <trkpt lat="48.08321" lon="-3.59909">
        <ele>113</ele>
        <time>2025-02-25T09:37:50Z</time>
      </trkpt>
      <trkpt lat="48.08321" lon="-3.5991">
        <ele>112.8</ele>
        <time>2025-02-25T09:37:51Z</time>
      </trkpt>
      <trkpt lat="48.08321" lon="-3.5991">
        <ele>112.8</ele>
        <time>2025-02-25T09:37:52Z</time>
      </trkpt>
      <trkpt lat="48.08321" lon="-3.5991">
        <ele>112.8</ele>
        <time>2025-02-25T09:37:53Z</time>
      </trkpt>
      <trkpt lat="48.08325" lon="-3.59913">
        <ele>113.2</ele>
        <time>2025-02-25T09:37:54Z</time>
      </trkpt>
      <trkpt lat="48.08327" lon="-3.59915">
        <ele>113.3</ele>
        <time>2025-02-25T09:37:55Z</time>
      </trkpt>
      <trkpt lat="48.08329" lon="-3.59916">
        <ele>113.8</ele>
        <time>2025-02-25T09:37:56Z</time>
      </trkpt>
      <trkpt lat="48.0833" lon="-3.59916">
        <ele>114.1</ele>
        <time>2025-02-25T09:37:57Z</time>
      </trkpt>
      <trkpt lat="48.0833" lon="-3.59916">
        <ele>114.1</ele>
        <time>2025-02-25T09:37:58Z</time>
      </trkpt>
      <trkpt lat="48.0833" lon="-3.59917">
        <ele>113.8</ele>
        <time>2025-02-25T09:37:59Z</time>
      </trkpt>
      <trkpt lat="48.0833" lon="-3.59917">
        <ele>113.8</ele>
        <time>2025-02-25T09:38:00Z</time>
      </trkpt>
      <trkpt lat="48.08329" lon="-3.59918">
        <ele>113.2</ele>
        <time>2025-02-25T09:38:01Z</time>
      </trkpt>
      <trkpt lat="48.08329" lon="-3.59918">
        <ele>113.2</ele>
        <time>2025-02-25T09:38:02Z</time>
      </trkpt>
      <trkpt lat="48.08329" lon="-3.59917">
        <ele>113.5</ele>
        <time>2025-02-25T09:38:03Z</time>
      </trkpt>
      <trkpt lat="48.08326" lon="-3.59916">
        <ele>112.8</ele>
        <time>2025-02-25T09:38:04Z</time>
      </trkpt>
      <trkpt lat="48.08324" lon="-3.59915">
        <ele>112.4</ele>
        <time>2025-02-25T09:38:05Z</time>
      </trkpt>
      <trkpt lat="48.08324" lon="-3.59915">
        <ele>112.4</ele>
        <time>2025-02-25T09:38:06Z</time>
      </trkpt>
      <trkpt lat="48.08324" lon="-3.59915">
        <ele>112.4</ele>
        <time>2025-02-25T09:38:07Z</time>
      </trkpt>
      <trkpt lat="48.08323" lon="-3.59916">
        <ele>111.8</ele>
        <time>2025-02-25T09:38:08Z</time>
      </trkpt>
      <trkpt lat="48.08323" lon="-3.59916">
        <ele>111.8</ele>
        <time>2025-02-25T09:38:09Z</time>
      </trkpt>
      <trkpt lat="48.08323" lon="-3.59916">
        <ele>111.8</ele>
        <time>2025-02-25T09:38:10Z</time>
      </trkpt>
      <trkpt lat="48.08324" lon="-3.59915">
        <ele>112.4</ele>
        <time>2025-02-25T09:38:11Z</time>
      </trkpt>
      <trkpt lat="48.08326" lon="-3.59912">
        <ele>113.8</ele>
        <time>2025-02-25T09:38:12Z</time>
      </trkpt>
      <trkpt lat="48.08328" lon="-3.5991">
        <ele>114.9</ele>
        <time>2025-02-25T09:38:13Z</time>
      </trkpt>
      <trkpt lat="48.0833" lon="-3.5991">
        <ele>115.4</ele>
        <time>2025-02-25T09:38:14Z</time>
      </trkpt>
      <trkpt lat="48.0833" lon="-3.5991">
        <ele>115.4</ele>
        <time>2025-02-25T09:38:15Z</time>
      </trkpt>
      <trkpt lat="48.0833" lon="-3.5991">
        <ele>115.4</ele>
        <time>2025-02-25T09:38:16Z</time>
      </trkpt>
      <trkpt lat="48.08331" lon="-3.59912">
        <ele>115.3</ele>
        <time>2025-02-25T09:38:17Z</time>
      </trkpt>
      <trkpt lat="48.08328" lon="-3.59916">
        <ele>113.4</ele>
        <time>2025-02-25T09:38:18Z</time>
      </trkpt>
      <trkpt lat="48.0833" lon="-3.59916">
        <ele>114.1</ele>
        <time>2025-02-25T09:38:19Z</time>
      </trkpt>
      <trkpt lat="48.08331" lon="-3.59916">
        <ele>114.4</ele>
        <time>2025-02-25T09:38:20Z</time>
      </trkpt>
      <trkpt lat="48.08333" lon="-3.59917">
        <ele>114.8</ele>
        <time>2025-02-25T09:38:21Z</time>
      </trkpt>
      <trkpt lat="48.08328" lon="-3.59919">
        <ele>112.5</ele>
        <time>2025-02-25T09:38:22Z</time>
      </trkpt>
      <trkpt lat="48.08328" lon="-3.59921">
        <ele>111.8</ele>
        <time>2025-02-25T09:38:23Z</time>
      </trkpt>
      <trkpt lat="48.0833" lon="-3.59922">
        <ele>112.2</ele>
        <time>2025-02-25T09:38:24Z</time>
      </trkpt>
      <trkpt lat="48.0833" lon="-3.59922">
        <ele>112.2</ele>
        <time>2025-02-25T09:38:25Z</time>
      </trkpt>
      <trkpt lat="48.08331" lon="-3.59922">
        <ele>112.5</ele>
        <time>2025-02-25T09:38:26Z</time>
      </trkpt>
      <trkpt lat="48.0833" lon="-3.59922">
        <ele>112.2</ele>
        <time>2025-02-25T09:38:27Z</time>
      </trkpt>
      <trkpt lat="48.08329" lon="-3.59922">
        <ele>111.8</ele>
        <time>2025-02-25T09:38:28Z</time>
      </trkpt>
      <trkpt lat="48.08329" lon="-3.59923">
        <ele>111.5</ele>
        <time>2025-02-25T09:38:29Z</time>
      </trkpt>
      <trkpt lat="48.0833" lon="-3.59922">
        <ele>112.2</ele>
        <time>2025-02-25T09:38:30Z</time>
      </trkpt>
      <trkpt lat="48.0833" lon="-3.59922">
        <ele>112.2</ele>
        <time>2025-02-25T09:38:31Z</time>
      </trkpt>
      <trkpt lat="48.0833" lon="-3.59922">
        <ele>112.2</ele>
        <time>2025-02-25T09:38:32Z</time>
      </trkpt>
      <trkpt lat="48.0833" lon="-3.59922">
        <ele>112.2</ele>
        <time>2025-02-25T09:38:33Z</time>
      </trkpt>
      <trkpt lat="48.0833" lon="-3.59922">
        <ele>112.2</ele>
        <time>2025-02-25T09:38:34Z</time>
      </trkpt>
      <trkpt lat="48.08331" lon="-3.59923">
        <ele>112.2</ele>
        <time>2025-02-25T09:38:35Z</time>
      </trkpt>
      <trkpt lat="48.08331" lon="-3.59924">
        <ele>111.8</ele>
        <time>2025-02-25T09:38:36Z</time>
      </trkpt>
      <trkpt lat="48.08331" lon="-3.59924">
        <ele>111.8</ele>
        <time>2025-02-25T09:38:37Z</time>
      </trkpt>
      <trkpt lat="48.08331" lon="-3.59924">
        <ele>111.8</ele>
        <time>2025-02-25T09:38:38Z</time>
      </trkpt>
      <trkpt lat="48.08331" lon="-3.59924">
        <ele>111.8</ele>
        <time>2025-02-25T09:38:39Z</time>
      </trkpt>
      <trkpt lat="48.08331" lon="-3.59923">
        <ele>112.2</ele>
        <time>2025-02-25T09:38:40Z</time>
      </trkpt>
      <trkpt lat="48.08331" lon="-3.59923">
        <ele>112.2</ele>
        <time>2025-02-25T09:38:41Z</time>
      </trkpt>
      <trkpt lat="48.08331" lon="-3.59923">
        <ele>112.2</ele>
        <time>2025-02-25T09:38:42Z</time>
      </trkpt>
      <trkpt lat="48.08331" lon="-3.59924">
        <ele>111.8</ele>
        <time>2025-02-25T09:38:43Z</time>
      </trkpt>
      <trkpt lat="48.08331" lon="-3.59925">
        <ele>111.5</ele>
        <time>2025-02-25T09:38:44Z</time>
      </trkpt>
      <trkpt lat="48.08332" lon="-3.59925">
        <ele>111.9</ele>
        <time>2025-02-25T09:38:45Z</time>
      </trkpt>
      <trkpt lat="48.08331" lon="-3.59926">
        <ele>111.2</ele>
        <time>2025-02-25T09:38:46Z</time>
      </trkpt>
      <trkpt lat="48.08332" lon="-3.59926">
        <ele>111.5</ele>
        <time>2025-02-25T09:38:47Z</time>
      </trkpt>
      <trkpt lat="48.08332" lon="-3.59926">
        <ele>111.5</ele>
        <time>2025-02-25T09:38:48Z</time>
      </trkpt>
      <trkpt lat="48.08332" lon="-3.59926">
        <ele>111.5</ele>
        <time>2025-02-25T09:38:49Z</time>
      </trkpt>
      <trkpt lat="48.08332" lon="-3.59926">
        <ele>111.5</ele>
        <time>2025-02-25T09:38:50Z</time>
      </trkpt>
      <trkpt lat="48.08332" lon="-3.59926">
        <ele>111.5</ele>
        <time>2025-02-25T09:38:51Z</time>
      </trkpt>
      <trkpt lat="48.08332" lon="-3.59926">
        <ele>111.5</ele>
        <time>2025-02-25T09:38:52Z</time>
      </trkpt>
      <trkpt lat="48.08332" lon="-3.59926">
        <ele>111.5</ele>
        <time>2025-02-25T09:38:53Z</time>
      </trkpt>
      <trkpt lat="48.08332" lon="-3.59926">
        <ele>111.5</ele>
        <time>2025-02-25T09:38:54Z</time>
      </trkpt>
      <trkpt lat="48.08332" lon="-3.59926">
        <ele>111.5</ele>
        <time>2025-02-25T09:38:55Z</time>
      </trkpt>
      <trkpt lat="48.08332" lon="-3.59926">
        <ele>111.5</ele>
        <time>2025-02-25T09:38:56Z</time>
      </trkpt>
      <trkpt lat="48.08332" lon="-3.59926">
        <ele>111.5</ele>
        <time>2025-02-25T09:38:57Z</time>
      </trkpt>
      <trkpt lat="48.08332" lon="-3.59926">
        <ele>111.5</ele>
        <time>2025-02-25T09:38:58Z</time>
      </trkpt>
      <trkpt lat="48.08332" lon="-3.59926">
        <ele>111.5</ele>
        <time>2025-02-25T09:38:59Z</time>
      </trkpt>
      <trkpt lat="48.08333" lon="-3.59926">
        <ele>111.9</ele>
        <time>2025-02-25T09:39:00Z</time>
      </trkpt>
      <trkpt lat="48.08334" lon="-3.59926">
        <ele>112.2</ele>
        <time>2025-02-25T09:39:01Z</time>
      </trkpt>
      <trkpt lat="48.08335" lon="-3.59926">
        <ele>112.4</ele>
        <time>2025-02-25T09:39:02Z</time>
      </trkpt>
      <trkpt lat="48.08336" lon="-3.59928">
        <ele>112.1</ele>
        <time>2025-02-25T09:39:03Z</time>
      </trkpt>
      <trkpt lat="48.08336" lon="-3.59932">
        <ele>110.8</ele>
        <time>2025-02-25T09:39:04Z</time>
      </trkpt>
      <trkpt lat="48.08336" lon="-3.59935">
        <ele>109.9</ele>
        <time>2025-02-25T09:39:05Z</time>
      </trkpt>
      <trkpt lat="48.08336" lon="-3.59937">
        <ele>109.3</ele>
        <time>2025-02-25T09:39:06Z</time>
      </trkpt>
      <trkpt lat="48.08336" lon="-3.59939">
        <ele>108.6</ele>
        <time>2025-02-25T09:39:07Z</time>
      </trkpt>
      <trkpt lat="48.08337" lon="-3.5994">
        <ele>108.7</ele>
        <time>2025-02-25T09:39:08Z</time>
      </trkpt>
      <trkpt lat="48.08338" lon="-3.59941">
        <ele>108.7</ele>
        <time>2025-02-25T09:39:09Z</time>
      </trkpt>
      <trkpt lat="48.08339" lon="-3.59941">
        <ele>109.1</ele>
        <time>2025-02-25T09:39:10Z</time>
      </trkpt>
      <trkpt lat="48.0834" lon="-3.59941">
        <ele>109.4</ele>
        <time>2025-02-25T09:39:11Z</time>
      </trkpt>
      <trkpt lat="48.0834" lon="-3.59941">
        <ele>109.4</ele>
        <time>2025-02-25T09:39:12Z</time>
      </trkpt>
      <trkpt lat="48.0834" lon="-3.5994">
        <ele>109.7</ele>
        <time>2025-02-25T09:39:13Z</time>
      </trkpt>
      <trkpt lat="48.0834" lon="-3.5994">
        <ele>109.7</ele>
        <time>2025-02-25T09:39:14Z</time>
      </trkpt>
      <trkpt lat="48.0834" lon="-3.5994">
        <ele>109.7</ele>
        <time>2025-02-25T09:39:15Z</time>
      </trkpt>
      <trkpt lat="48.0834" lon="-3.5994">
        <ele>109.7</ele>
        <time>2025-02-25T09:39:16Z</time>
      </trkpt>
      <trkpt lat="48.0834" lon="-3.5994">
        <ele>109.7</ele>
        <time>2025-02-25T09:39:17Z</time>
      </trkpt>
      <trkpt lat="48.0834" lon="-3.5994">
        <ele>109.7</ele>
        <time>2025-02-25T09:39:18Z</time>
      </trkpt>
      <trkpt lat="48.0834" lon="-3.5994">
        <ele>109.7</ele>
        <time>2025-02-25T09:39:19Z</time>
      </trkpt>
      <trkpt lat="48.0834" lon="-3.5994">
        <ele>109.7</ele>
        <time>2025-02-25T09:39:20Z</time>
      </trkpt>
      <trkpt lat="48.0834" lon="-3.5994">
        <ele>109.7</ele>
        <time>2025-02-25T09:39:21Z</time>
      </trkpt>
      <trkpt lat="48.0834" lon="-3.5994">
        <ele>109.7</ele>
        <time>2025-02-25T09:39:22Z</time>
      </trkpt>
      <trkpt lat="48.0834" lon="-3.5994">
        <ele>109.7</ele>
        <time>2025-02-25T09:39:23Z</time>
      </trkpt>
      <trkpt lat="48.0834" lon="-3.5994">
        <ele>109.7</ele>
        <time>2025-02-25T09:39:24Z</time>
      </trkpt>
      <trkpt lat="48.0834" lon="-3.5994">
        <ele>109.7</ele>
        <time>2025-02-25T09:39:25Z</time>
      </trkpt>
      <trkpt lat="48.0834" lon="-3.5994">
        <ele>109.7</ele>
        <time>2025-02-25T09:39:26Z</time>
      </trkpt>
      <trkpt lat="48.08341" lon="-3.5994">
        <ele>110</ele>
        <time>2025-02-25T09:39:27Z</time>
      </trkpt>
      <trkpt lat="48.08341" lon="-3.5994">
        <ele>110</ele>
        <time>2025-02-25T09:39:28Z</time>
      </trkpt>
      <trkpt lat="48.08341" lon="-3.5994">
        <ele>110</ele>
        <time>2025-02-25T09:39:29Z</time>
      </trkpt>
      <trkpt lat="48.08341" lon="-3.5994">
        <ele>110</ele>
        <time>2025-02-25T09:39:30Z</time>
      </trkpt>
      <trkpt lat="48.08341" lon="-3.5994">
        <ele>110</ele>
        <time>2025-02-25T09:39:31Z</time>
      </trkpt>
      <trkpt lat="48.08341" lon="-3.5994">
        <ele>110</ele>
        <time>2025-02-25T09:39:32Z</time>
      </trkpt>
      <trkpt lat="48.08341" lon="-3.5994">
        <ele>110</ele>
        <time>2025-02-25T09:39:33Z</time>
      </trkpt>
      <trkpt lat="48.08341" lon="-3.5994">
        <ele>110</ele>
        <time>2025-02-25T09:39:34Z</time>
      </trkpt>
      <trkpt lat="48.08341" lon="-3.5994">
        <ele>110</ele>
        <time>2025-02-25T09:39:35Z</time>
      </trkpt>
      <trkpt lat="48.08341" lon="-3.5994">
        <ele>110</ele>
        <time>2025-02-25T09:39:36Z</time>
      </trkpt>
      <trkpt lat="48.08341" lon="-3.59941">
        <ele>109.7</ele>
        <time>2025-02-25T09:39:37Z</time>
      </trkpt>
      <trkpt lat="48.08341" lon="-3.5994">
        <ele>110</ele>
        <time>2025-02-25T09:39:38Z</time>
      </trkpt>
      <trkpt lat="48.08341" lon="-3.5994">
        <ele>110</ele>
        <time>2025-02-25T09:39:39Z</time>
      </trkpt>
      <trkpt lat="48.08341" lon="-3.5994">
        <ele>110</ele>
        <time>2025-02-25T09:39:40Z</time>
      </trkpt>
      <trkpt lat="48.0834" lon="-3.5994">
        <ele>109.7</ele>
        <time>2025-02-25T09:39:41Z</time>
      </trkpt>
      <trkpt lat="48.0834" lon="-3.5994">
        <ele>109.7</ele>
        <time>2025-02-25T09:39:42Z</time>
      </trkpt>
      <trkpt lat="48.0834" lon="-3.5994">
        <ele>109.7</ele>
        <time>2025-02-25T09:39:43Z</time>
      </trkpt>
      <trkpt lat="48.08341" lon="-3.5994">
        <ele>110</ele>
        <time>2025-02-25T09:39:44Z</time>
      </trkpt>
      <trkpt lat="48.08342" lon="-3.5994">
        <ele>110.4</ele>
        <time>2025-02-25T09:39:45Z</time>
      </trkpt>
      <trkpt lat="48.08344" lon="-3.5994">
        <ele>111</ele>
        <time>2025-02-25T09:39:46Z</time>
      </trkpt>
      <trkpt lat="48.08345" lon="-3.5994">
        <ele>111.4</ele>
        <time>2025-02-25T09:39:47Z</time>
      </trkpt>
      <trkpt lat="48.08346" lon="-3.59941">
        <ele>111.4</ele>
        <time>2025-02-25T09:39:48Z</time>
      </trkpt>
      <trkpt lat="48.08347" lon="-3.59941">
        <ele>111.8</ele>
        <time>2025-02-25T09:39:49Z</time>
      </trkpt>
      <trkpt lat="48.08347" lon="-3.59942">
        <ele>111.5</ele>
        <time>2025-02-25T09:39:50Z</time>
      </trkpt>
      <trkpt lat="48.08348" lon="-3.59943">
        <ele>111.6</ele>
        <time>2025-02-25T09:39:51Z</time>
      </trkpt>
      <trkpt lat="48.08349" lon="-3.59943">
        <ele>112</ele>
        <time>2025-02-25T09:39:52Z</time>
      </trkpt>
      <trkpt lat="48.08349" lon="-3.59943">
        <ele>112</ele>
        <time>2025-02-25T09:39:53Z</time>
      </trkpt>
      <trkpt lat="48.0835" lon="-3.59944">
        <ele>112.1</ele>
        <time>2025-02-25T09:39:54Z</time>
      </trkpt>
      <trkpt lat="48.08351" lon="-3.59944">
        <ele>112.5</ele>
        <time>2025-02-25T09:39:55Z</time>
      </trkpt>
      <trkpt lat="48.08351" lon="-3.59945">
        <ele>112.2</ele>
        <time>2025-02-25T09:39:56Z</time>
      </trkpt>
      <trkpt lat="48.08352" lon="-3.59945">
        <ele>112.6</ele>
        <time>2025-02-25T09:39:57Z</time>
      </trkpt>
      <trkpt lat="48.08353" lon="-3.59946">
        <ele>112.7</ele>
        <time>2025-02-25T09:39:58Z</time>
      </trkpt>
      <trkpt lat="48.08353" lon="-3.59946">
        <ele>112.7</ele>
        <time>2025-02-25T09:39:59Z</time>
      </trkpt>
      <trkpt lat="48.08354" lon="-3.59946">
        <ele>113</ele>
        <time>2025-02-25T09:40:00Z</time>
      </trkpt>
      <trkpt lat="48.08355" lon="-3.59946">
        <ele>113.4</ele>
        <time>2025-02-25T09:40:01Z</time>
      </trkpt>
      <trkpt lat="48.08357" lon="-3.59947">
        <ele>113.8</ele>
        <time>2025-02-25T09:40:02Z</time>
      </trkpt>
      <trkpt lat="48.08358" lon="-3.59947">
        <ele>114.2</ele>
        <time>2025-02-25T09:40:03Z</time>
      </trkpt>
      <trkpt lat="48.08359" lon="-3.59948">
        <ele>114.3</ele>
        <time>2025-02-25T09:40:04Z</time>
      </trkpt>
      <trkpt lat="48.0836" lon="-3.59949">
        <ele>114.4</ele>
        <time>2025-02-25T09:40:05Z</time>
      </trkpt>
      <trkpt lat="48.0836" lon="-3.59951">
        <ele>113.9</ele>
        <time>2025-02-25T09:40:06Z</time>
      </trkpt>
      <trkpt lat="48.08361" lon="-3.59952">
        <ele>114.1</ele>
        <time>2025-02-25T09:40:07Z</time>
      </trkpt>
      <trkpt lat="48.08362" lon="-3.59952">
        <ele>114.3</ele>
        <time>2025-02-25T09:40:08Z</time>
      </trkpt>
      <trkpt lat="48.08363" lon="-3.59952">
        <ele>114.5</ele>
        <time>2025-02-25T09:40:09Z</time>
      </trkpt>
      <trkpt lat="48.08364" lon="-3.59953">
        <ele>114.5</ele>
        <time>2025-02-25T09:40:10Z</time>
      </trkpt>
      <trkpt lat="48.08364" lon="-3.59954">
        <ele>114.3</ele>
        <time>2025-02-25T09:40:11Z</time>
      </trkpt>
      <trkpt lat="48.08365" lon="-3.59954">
        <ele>114.5</ele>
        <time>2025-02-25T09:40:12Z</time>
      </trkpt>
      <trkpt lat="48.08367" lon="-3.59955">
        <ele>114.8</ele>
        <time>2025-02-25T09:40:13Z</time>
      </trkpt>
      <trkpt lat="48.08367" lon="-3.59955">
        <ele>114.8</ele>
        <time>2025-02-25T09:40:14Z</time>
      </trkpt>
      <trkpt lat="48.08368" lon="-3.59956">
        <ele>114.8</ele>
        <time>2025-02-25T09:40:15Z</time>
      </trkpt>
      <trkpt lat="48.08369" lon="-3.59957">
        <ele>114.8</ele>
        <time>2025-02-25T09:40:16Z</time>
      </trkpt>
      <trkpt lat="48.0837" lon="-3.59958">
        <ele>114.8</ele>
        <time>2025-02-25T09:40:17Z</time>
      </trkpt>
      <trkpt lat="48.08371" lon="-3.59959">
        <ele>114.8</ele>
        <time>2025-02-25T09:40:18Z</time>
      </trkpt>
      <trkpt lat="48.08372" lon="-3.5996">
        <ele>114.9</ele>
        <time>2025-02-25T09:40:19Z</time>
      </trkpt>
      <trkpt lat="48.08372" lon="-3.59961">
        <ele>114.6</ele>
        <time>2025-02-25T09:40:20Z</time>
      </trkpt>
      <trkpt lat="48.08374" lon="-3.59963">
        <ele>114.7</ele>
        <time>2025-02-25T09:40:21Z</time>
      </trkpt>
      <trkpt lat="48.08375" lon="-3.59964">
        <ele>114.8</ele>
        <time>2025-02-25T09:40:22Z</time>
      </trkpt>
      <trkpt lat="48.08375" lon="-3.59966">
        <ele>114.3</ele>
        <time>2025-02-25T09:40:23Z</time>
      </trkpt>
      <trkpt lat="48.08377" lon="-3.59967">
        <ele>114.7</ele>
        <time>2025-02-25T09:40:24Z</time>
      </trkpt>
      <trkpt lat="48.08376" lon="-3.59967">
        <ele>114.4</ele>
        <time>2025-02-25T09:40:25Z</time>
      </trkpt>
      <trkpt lat="48.08377" lon="-3.59967">
        <ele>114.7</ele>
        <time>2025-02-25T09:40:26Z</time>
      </trkpt>
      <trkpt lat="48.08376" lon="-3.59967">
        <ele>114.4</ele>
        <time>2025-02-25T09:40:27Z</time>
      </trkpt>
      <trkpt lat="48.08376" lon="-3.59968">
        <ele>114.2</ele>
        <time>2025-02-25T09:40:28Z</time>
      </trkpt>
      <trkpt lat="48.08376" lon="-3.59969">
        <ele>114</ele>
        <time>2025-02-25T09:40:29Z</time>
      </trkpt>
      <trkpt lat="48.08377" lon="-3.59969">
        <ele>114.3</ele>
        <time>2025-02-25T09:40:30Z</time>
      </trkpt>
      <trkpt lat="48.08378" lon="-3.59969">
        <ele>114.5</ele>
        <time>2025-02-25T09:40:31Z</time>
      </trkpt>
      <trkpt lat="48.08378" lon="-3.5997">
        <ele>114.3</ele>
        <time>2025-02-25T09:40:32Z</time>
      </trkpt>
      <trkpt lat="48.08378" lon="-3.59971">
        <ele>114.1</ele>
        <time>2025-02-25T09:40:33Z</time>
      </trkpt>
      <trkpt lat="48.08379" lon="-3.5997">
        <ele>114.6</ele>
        <time>2025-02-25T09:40:34Z</time>
      </trkpt>
      <trkpt lat="48.08379" lon="-3.59971">
        <ele>114.4</ele>
        <time>2025-02-25T09:40:35Z</time>
      </trkpt>
      <trkpt lat="48.0838" lon="-3.59971">
        <ele>114.7</ele>
        <time>2025-02-25T09:40:36Z</time>
      </trkpt>
      <trkpt lat="48.08381" lon="-3.5997">
        <ele>115.2</ele>
        <time>2025-02-25T09:40:37Z</time>
      </trkpt>
      <trkpt lat="48.08381" lon="-3.5997">
        <ele>115.2</ele>
        <time>2025-02-25T09:40:38Z</time>
      </trkpt>
      <trkpt lat="48.0838" lon="-3.5997">
        <ele>114.9</ele>
        <time>2025-02-25T09:40:39Z</time>
      </trkpt>
      <trkpt lat="48.0838" lon="-3.5997">
        <ele>114.9</ele>
        <time>2025-02-25T09:40:40Z</time>
      </trkpt>
      <trkpt lat="48.0838" lon="-3.5997">
        <ele>114.9</ele>
        <time>2025-02-25T09:40:41Z</time>
      </trkpt>
      <trkpt lat="48.0838" lon="-3.59971">
        <ele>114.7</ele>
        <time>2025-02-25T09:40:42Z</time>
      </trkpt>
      <trkpt lat="48.0838" lon="-3.5997">
        <ele>114.9</ele>
        <time>2025-02-25T09:40:43Z</time>
      </trkpt>
      <trkpt lat="48.0838" lon="-3.5997">
        <ele>114.9</ele>
        <time>2025-02-25T09:40:44Z</time>
      </trkpt>
      <trkpt lat="48.08382" lon="-3.59971">
        <ele>115.3</ele>
        <time>2025-02-25T09:40:45Z</time>
      </trkpt>
      <trkpt lat="48.08383" lon="-3.59972">
        <ele>115.3</ele>
        <time>2025-02-25T09:40:46Z</time>
      </trkpt>
      <trkpt lat="48.08384" lon="-3.59973">
        <ele>115.4</ele>
        <time>2025-02-25T09:40:47Z</time>
      </trkpt>
      <trkpt lat="48.08385" lon="-3.59974">
        <ele>115.5</ele>
        <time>2025-02-25T09:40:48Z</time>
      </trkpt>
      <trkpt lat="48.08384" lon="-3.59975">
        <ele>115</ele>
        <time>2025-02-25T09:40:49Z</time>
      </trkpt>
      <trkpt lat="48.08385" lon="-3.59975">
        <ele>115.3</ele>
        <time>2025-02-25T09:40:50Z</time>
      </trkpt>
      <trkpt lat="48.08385" lon="-3.59976">
        <ele>115</ele>
        <time>2025-02-25T09:40:51Z</time>
      </trkpt>
      <trkpt lat="48.08386" lon="-3.59977">
        <ele>115.1</ele>
        <time>2025-02-25T09:40:52Z</time>
      </trkpt>
      <trkpt lat="48.08387" lon="-3.59978">
        <ele>115.2</ele>
        <time>2025-02-25T09:40:53Z</time>
      </trkpt>
      <trkpt lat="48.08388" lon="-3.59979">
        <ele>115.3</ele>
        <time>2025-02-25T09:40:54Z</time>
      </trkpt>
      <trkpt lat="48.08389" lon="-3.59981">
        <ele>115.1</ele>
        <time>2025-02-25T09:40:55Z</time>
      </trkpt>
      <trkpt lat="48.0839" lon="-3.59983">
        <ele>114.8</ele>
        <time>2025-02-25T09:40:56Z</time>
      </trkpt>
      <trkpt lat="48.08391" lon="-3.59984">
        <ele>114.8</ele>
        <time>2025-02-25T09:40:57Z</time>
      </trkpt>
      <trkpt lat="48.08391" lon="-3.59985">
        <ele>114.5</ele>
        <time>2025-02-25T09:40:58Z</time>
      </trkpt>
      <trkpt lat="48.08392" lon="-3.59986">
        <ele>114.5</ele>
        <time>2025-02-25T09:40:59Z</time>
      </trkpt>
      <trkpt lat="48.08393" lon="-3.59986">
        <ele>114.6</ele>
        <time>2025-02-25T09:41:00Z</time>
      </trkpt>
      <trkpt lat="48.08393" lon="-3.59987">
        <ele>114.4</ele>
        <time>2025-02-25T09:41:01Z</time>
      </trkpt>
      <trkpt lat="48.08394" lon="-3.59989">
        <ele>114.1</ele>
        <time>2025-02-25T09:41:02Z</time>
      </trkpt>
      <trkpt lat="48.08394" lon="-3.5999">
        <ele>113.9</ele>
        <time>2025-02-25T09:41:03Z</time>
      </trkpt>
      <trkpt lat="48.08394" lon="-3.59991">
        <ele>113.7</ele>
        <time>2025-02-25T09:41:04Z</time>
      </trkpt>
      <trkpt lat="48.08394" lon="-3.59992">
        <ele>113.5</ele>
        <time>2025-02-25T09:41:05Z</time>
      </trkpt>
      <trkpt lat="48.08394" lon="-3.59993">
        <ele>113.2</ele>
        <time>2025-02-25T09:41:06Z</time>
      </trkpt>
      <trkpt lat="48.08395" lon="-3.59995">
        <ele>113</ele>
        <time>2025-02-25T09:41:07Z</time>
      </trkpt>
      <trkpt lat="48.08396" lon="-3.59997">
        <ele>112.7</ele>
        <time>2025-02-25T09:41:08Z</time>
      </trkpt>
      <trkpt lat="48.08397" lon="-3.59998">
        <ele>112.6</ele>
        <time>2025-02-25T09:41:09Z</time>
      </trkpt>
      <trkpt lat="48.08398" lon="-3.59999">
        <ele>112.5</ele>
        <time>2025-02-25T09:41:10Z</time>
      </trkpt>
      <trkpt lat="48.08399" lon="-3.59999">
        <ele>112.7</ele>
        <time>2025-02-25T09:41:11Z</time>
      </trkpt>
      <trkpt lat="48.084" lon="-3.60001">
        <ele>112.4</ele>
        <time>2025-02-25T09:41:12Z</time>
      </trkpt>
      <trkpt lat="48.08401" lon="-3.60002">
        <ele>112.3</ele>
        <time>2025-02-25T09:41:13Z</time>
      </trkpt>
      <trkpt lat="48.08402" lon="-3.60003">
        <ele>112.2</ele>
        <time>2025-02-25T09:41:14Z</time>
      </trkpt>
      <trkpt lat="48.08402" lon="-3.60004">
        <ele>111.9</ele>
        <time>2025-02-25T09:41:15Z</time>
      </trkpt>
      <trkpt lat="48.08403" lon="-3.60005">
        <ele>111.9</ele>
        <time>2025-02-25T09:41:16Z</time>
      </trkpt>
      <trkpt lat="48.08404" lon="-3.60006">
        <ele>111.8</ele>
        <time>2025-02-25T09:41:17Z</time>
      </trkpt>
      <trkpt lat="48.08405" lon="-3.60007">
        <ele>111.7</ele>
        <time>2025-02-25T09:41:18Z</time>
      </trkpt>
      <trkpt lat="48.08406" lon="-3.60009">
        <ele>111.4</ele>
        <time>2025-02-25T09:41:19Z</time>
      </trkpt>
      <trkpt lat="48.08407" lon="-3.6001">
        <ele>111.3</ele>
        <time>2025-02-25T09:41:20Z</time>
      </trkpt>
      <trkpt lat="48.08409" lon="-3.60009">
        <ele>111.9</ele>
        <time>2025-02-25T09:41:21Z</time>
      </trkpt>
      <trkpt lat="48.0841" lon="-3.6001">
        <ele>111.8</ele>
        <time>2025-02-25T09:41:22Z</time>
      </trkpt>
      <trkpt lat="48.08411" lon="-3.60011">
        <ele>111.7</ele>
        <time>2025-02-25T09:41:23Z</time>
      </trkpt>
      <trkpt lat="48.08412" lon="-3.60012">
        <ele>111.7</ele>
        <time>2025-02-25T09:41:24Z</time>
      </trkpt>
      <trkpt lat="48.08412" lon="-3.60014">
        <ele>111.2</ele>
        <time>2025-02-25T09:41:25Z</time>
      </trkpt>
      <trkpt lat="48.08413" lon="-3.60014">
        <ele>111.4</ele>
        <time>2025-02-25T09:41:26Z</time>
      </trkpt>
      <trkpt lat="48.08414" lon="-3.60016">
        <ele>111.1</ele>
        <time>2025-02-25T09:41:27Z</time>
      </trkpt>
      <trkpt lat="48.08414" lon="-3.60016">
        <ele>111.1</ele>
        <time>2025-02-25T09:41:28Z</time>
      </trkpt>
      <trkpt lat="48.08415" lon="-3.60018">
        <ele>110.8</ele>
        <time>2025-02-25T09:41:29Z</time>
      </trkpt>
      <trkpt lat="48.08416" lon="-3.6002">
        <ele>110.6</ele>
        <time>2025-02-25T09:41:30Z</time>
      </trkpt>
      <trkpt lat="48.08416" lon="-3.60021">
        <ele>110.3</ele>
        <time>2025-02-25T09:41:31Z</time>
      </trkpt>
      <trkpt lat="48.08417" lon="-3.60022">
        <ele>110.3</ele>
        <time>2025-02-25T09:41:32Z</time>
      </trkpt>
      <trkpt lat="48.08418" lon="-3.60024">
        <ele>110</ele>
        <time>2025-02-25T09:41:33Z</time>
      </trkpt>
      <trkpt lat="48.08418" lon="-3.60026">
        <ele>109.6</ele>
        <time>2025-02-25T09:41:34Z</time>
      </trkpt>
      <trkpt lat="48.08419" lon="-3.60027">
        <ele>109.5</ele>
        <time>2025-02-25T09:41:35Z</time>
      </trkpt>
      <trkpt lat="48.0842" lon="-3.60028">
        <ele>109.4</ele>
        <time>2025-02-25T09:41:36Z</time>
      </trkpt>
      <trkpt lat="48.08421" lon="-3.60029">
        <ele>109.4</ele>
        <time>2025-02-25T09:41:37Z</time>
      </trkpt>
      <trkpt lat="48.08421" lon="-3.6003">
        <ele>109.3</ele>
        <time>2025-02-25T09:41:38Z</time>
      </trkpt>
      <trkpt lat="48.08422" lon="-3.60032">
        <ele>109.2</ele>
        <time>2025-02-25T09:41:39Z</time>
      </trkpt>
      <trkpt lat="48.08422" lon="-3.60034">
        <ele>108.9</ele>
        <time>2025-02-25T09:41:40Z</time>
      </trkpt>
      <trkpt lat="48.08424" lon="-3.60035">
        <ele>109</ele>
        <time>2025-02-25T09:41:41Z</time>
      </trkpt>
      <trkpt lat="48.08424" lon="-3.60037">
        <ele>108.7</ele>
        <time>2025-02-25T09:41:42Z</time>
      </trkpt>
      <trkpt lat="48.08425" lon="-3.60038">
        <ele>108.7</ele>
        <time>2025-02-25T09:41:43Z</time>
      </trkpt>
      <trkpt lat="48.08426" lon="-3.60039">
        <ele>108.7</ele>
        <time>2025-02-25T09:41:44Z</time>
      </trkpt>
      <trkpt lat="48.08427" lon="-3.6004">
        <ele>108.7</ele>
        <time>2025-02-25T09:41:45Z</time>
      </trkpt>
      <trkpt lat="48.08428" lon="-3.60041">
        <ele>108.7</ele>
        <time>2025-02-25T09:41:46Z</time>
      </trkpt>
      <trkpt lat="48.08428" lon="-3.60042">
        <ele>108.6</ele>
        <time>2025-02-25T09:41:47Z</time>
      </trkpt>
      <trkpt lat="48.08429" lon="-3.60043">
        <ele>108.6</ele>
        <time>2025-02-25T09:41:48Z</time>
      </trkpt>
      <trkpt lat="48.0843" lon="-3.60045">
        <ele>108.4</ele>
        <time>2025-02-25T09:41:49Z</time>
      </trkpt>
      <trkpt lat="48.0843" lon="-3.60046">
        <ele>108.3</ele>
        <time>2025-02-25T09:41:50Z</time>
      </trkpt>
      <trkpt lat="48.08431" lon="-3.60047">
        <ele>108.3</ele>
        <time>2025-02-25T09:41:51Z</time>
      </trkpt>
      <trkpt lat="48.08432" lon="-3.60048">
        <ele>108.3</ele>
        <time>2025-02-25T09:41:52Z</time>
      </trkpt>
      <trkpt lat="48.08433" lon="-3.60049">
        <ele>108.3</ele>
        <time>2025-02-25T09:41:53Z</time>
      </trkpt>
      <trkpt lat="48.08434" lon="-3.6005">
        <ele>108.3</ele>
        <time>2025-02-25T09:41:54Z</time>
      </trkpt>
      <trkpt lat="48.08434" lon="-3.60052">
        <ele>108</ele>
        <time>2025-02-25T09:41:55Z</time>
      </trkpt>
      <trkpt lat="48.08435" lon="-3.60053">
        <ele>108</ele>
        <time>2025-02-25T09:41:56Z</time>
      </trkpt>
      <trkpt lat="48.08436" lon="-3.60054">
        <ele>108</ele>
        <time>2025-02-25T09:41:57Z</time>
      </trkpt>
      <trkpt lat="48.08437" lon="-3.60055">
        <ele>108</ele>
        <time>2025-02-25T09:41:58Z</time>
      </trkpt>
      <trkpt lat="48.08437" lon="-3.60056">
        <ele>107.8</ele>
        <time>2025-02-25T09:41:59Z</time>
      </trkpt>
      <trkpt lat="48.08438" lon="-3.60058">
        <ele>107.5</ele>
        <time>2025-02-25T09:42:00Z</time>
      </trkpt>
      <trkpt lat="48.08439" lon="-3.60059">
        <ele>107.4</ele>
        <time>2025-02-25T09:42:01Z</time>
      </trkpt>
      <trkpt lat="48.0844" lon="-3.6006">
        <ele>107.4</ele>
        <time>2025-02-25T09:42:02Z</time>
      </trkpt>
      <trkpt lat="48.0844" lon="-3.60061">
        <ele>107.2</ele>
        <time>2025-02-25T09:42:03Z</time>
      </trkpt>
      <trkpt lat="48.08441" lon="-3.60063">
        <ele>106.9</ele>
        <time>2025-02-25T09:42:04Z</time>
      </trkpt>
      <trkpt lat="48.08442" lon="-3.60064">
        <ele>106.8</ele>
        <time>2025-02-25T09:42:05Z</time>
      </trkpt>
      <trkpt lat="48.08442" lon="-3.60066">
        <ele>106.4</ele>
        <time>2025-02-25T09:42:06Z</time>
      </trkpt>
      <trkpt lat="48.08443" lon="-3.60067">
        <ele>106.3</ele>
        <time>2025-02-25T09:42:07Z</time>
      </trkpt>
      <trkpt lat="48.08444" lon="-3.60069">
        <ele>106</ele>
        <time>2025-02-25T09:42:08Z</time>
      </trkpt>
      <trkpt lat="48.08445" lon="-3.6007">
        <ele>106</ele>
        <time>2025-02-25T09:42:09Z</time>
      </trkpt>
      <trkpt lat="48.08446" lon="-3.60071">
        <ele>106</ele>
        <time>2025-02-25T09:42:10Z</time>
      </trkpt>
      <trkpt lat="48.08447" lon="-3.60072">
        <ele>106</ele>
        <time>2025-02-25T09:42:11Z</time>
      </trkpt>
      <trkpt lat="48.08448" lon="-3.60074">
        <ele>105.7</ele>
        <time>2025-02-25T09:42:12Z</time>
      </trkpt>
      <trkpt lat="48.08449" lon="-3.60074">
        <ele>105.9</ele>
        <time>2025-02-25T09:42:13Z</time>
      </trkpt>
      <trkpt lat="48.08449" lon="-3.60076">
        <ele>105.5</ele>
        <time>2025-02-25T09:42:14Z</time>
      </trkpt>
      <trkpt lat="48.0845" lon="-3.60077">
        <ele>105.5</ele>
        <time>2025-02-25T09:42:15Z</time>
      </trkpt>
      <trkpt lat="48.08451" lon="-3.60078">
        <ele>105.5</ele>
        <time>2025-02-25T09:42:16Z</time>
      </trkpt>
      <trkpt lat="48.08452" lon="-3.60079">
        <ele>105.5</ele>
        <time>2025-02-25T09:42:17Z</time>
      </trkpt>
      <trkpt lat="48.08453" lon="-3.6008">
        <ele>105.5</ele>
        <time>2025-02-25T09:42:18Z</time>
      </trkpt>
      <trkpt lat="48.08454" lon="-3.6008">
        <ele>105.7</ele>
        <time>2025-02-25T09:42:19Z</time>
      </trkpt>
      <trkpt lat="48.08455" lon="-3.60081">
        <ele>105.8</ele>
        <time>2025-02-25T09:42:20Z</time>
      </trkpt>
      <trkpt lat="48.08456" lon="-3.60081">
        <ele>106</ele>
        <time>2025-02-25T09:42:21Z</time>
      </trkpt>
      <trkpt lat="48.08457" lon="-3.60081">
        <ele>106.2</ele>
        <time>2025-02-25T09:42:22Z</time>
      </trkpt>
      <trkpt lat="48.08458" lon="-3.60083">
        <ele>106</ele>
        <time>2025-02-25T09:42:23Z</time>
      </trkpt>
      <trkpt lat="48.08459" lon="-3.60084">
        <ele>106</ele>
        <time>2025-02-25T09:42:24Z</time>
      </trkpt>
      <trkpt lat="48.0846" lon="-3.60085">
        <ele>105.9</ele>
        <time>2025-02-25T09:42:25Z</time>
      </trkpt>
      <trkpt lat="48.08461" lon="-3.60085">
        <ele>106.1</ele>
        <time>2025-02-25T09:42:26Z</time>
      </trkpt>
      <trkpt lat="48.08462" lon="-3.60086">
        <ele>106</ele>
        <time>2025-02-25T09:42:27Z</time>
      </trkpt>
      <trkpt lat="48.08462" lon="-3.60087">
        <ele>105.8</ele>
        <time>2025-02-25T09:42:28Z</time>
      </trkpt>
      <trkpt lat="48.08464" lon="-3.60087">
        <ele>106.1</ele>
        <time>2025-02-25T09:42:29Z</time>
      </trkpt>
      <trkpt lat="48.08465" lon="-3.60088">
        <ele>106</ele>
        <time>2025-02-25T09:42:30Z</time>
      </trkpt>
      <trkpt lat="48.08466" lon="-3.60089">
        <ele>105.9</ele>
        <time>2025-02-25T09:42:31Z</time>
      </trkpt>
      <trkpt lat="48.08467" lon="-3.6009">
        <ele>105.7</ele>
        <time>2025-02-25T09:42:32Z</time>
      </trkpt>
      <trkpt lat="48.08468" lon="-3.60092">
        <ele>105.3</ele>
        <time>2025-02-25T09:42:33Z</time>
      </trkpt>
      <trkpt lat="48.08469" lon="-3.60093">
        <ele>105.1</ele>
        <time>2025-02-25T09:42:34Z</time>
      </trkpt>
      <trkpt lat="48.08469" lon="-3.60095">
        <ele>104.4</ele>
        <time>2025-02-25T09:42:35Z</time>
      </trkpt>
      <trkpt lat="48.08469" lon="-3.60096">
        <ele>104.1</ele>
        <time>2025-02-25T09:42:36Z</time>
      </trkpt>
      <trkpt lat="48.0847" lon="-3.60096">
        <ele>104.2</ele>
        <time>2025-02-25T09:42:37Z</time>
      </trkpt>
      <trkpt lat="48.08471" lon="-3.60097">
        <ele>103.9</ele>
        <time>2025-02-25T09:42:38Z</time>
      </trkpt>
      <trkpt lat="48.08472" lon="-3.60098">
        <ele>103.7</ele>
        <time>2025-02-25T09:42:39Z</time>
      </trkpt>
      <trkpt lat="48.08472" lon="-3.601">
        <ele>103</ele>
        <time>2025-02-25T09:42:40Z</time>
      </trkpt>
      <trkpt lat="48.08474" lon="-3.60101">
        <ele>103.1</ele>
        <time>2025-02-25T09:42:41Z</time>
      </trkpt>
      <trkpt lat="48.08474" lon="-3.60101">
        <ele>103.1</ele>
        <time>2025-02-25T09:42:42Z</time>
      </trkpt>
      <trkpt lat="48.08475" lon="-3.60101">
        <ele>103.4</ele>
        <time>2025-02-25T09:42:43Z</time>
      </trkpt>
      <trkpt lat="48.08475" lon="-3.60102">
        <ele>103</ele>
        <time>2025-02-25T09:42:44Z</time>
      </trkpt>
      <trkpt lat="48.08477" lon="-3.60103">
        <ele>103.3</ele>
        <time>2025-02-25T09:42:45Z</time>
      </trkpt>
      <trkpt lat="48.08478" lon="-3.60104">
        <ele>103.2</ele>
        <time>2025-02-25T09:42:46Z</time>
      </trkpt>
      <trkpt lat="48.08479" lon="-3.60105">
        <ele>103.2</ele>
        <time>2025-02-25T09:42:47Z</time>
      </trkpt>
      <trkpt lat="48.0848" lon="-3.60105">
        <ele>103.5</ele>
        <time>2025-02-25T09:42:48Z</time>
      </trkpt>
      <trkpt lat="48.08481" lon="-3.60106">
        <ele>103.5</ele>
        <time>2025-02-25T09:42:49Z</time>
      </trkpt>
      <trkpt lat="48.08482" lon="-3.60107">
        <ele>103.4</ele>
        <time>2025-02-25T09:42:50Z</time>
      </trkpt>
      <trkpt lat="48.08483" lon="-3.60107">
        <ele>103.7</ele>
        <time>2025-02-25T09:42:51Z</time>
      </trkpt>
      <trkpt lat="48.08484" lon="-3.60107">
        <ele>104</ele>
        <time>2025-02-25T09:42:52Z</time>
      </trkpt>
      <trkpt lat="48.08485" lon="-3.60108">
        <ele>104.1</ele>
        <time>2025-02-25T09:42:53Z</time>
      </trkpt>
      <trkpt lat="48.08486" lon="-3.60108">
        <ele>104.4</ele>
        <time>2025-02-25T09:42:54Z</time>
      </trkpt>
      <trkpt lat="48.08487" lon="-3.60108">
        <ele>104.7</ele>
        <time>2025-02-25T09:42:55Z</time>
      </trkpt>
      <trkpt lat="48.08488" lon="-3.60108">
        <ele>105</ele>
        <time>2025-02-25T09:42:56Z</time>
      </trkpt>
      <trkpt lat="48.08489" lon="-3.60109">
        <ele>105</ele>
        <time>2025-02-25T09:42:57Z</time>
      </trkpt>
      <trkpt lat="48.0849" lon="-3.60111">
        <ele>104.8</ele>
        <time>2025-02-25T09:42:58Z</time>
      </trkpt>
      <trkpt lat="48.08491" lon="-3.60111">
        <ele>105.1</ele>
        <time>2025-02-25T09:42:59Z</time>
      </trkpt>
      <trkpt lat="48.08491" lon="-3.60112">
        <ele>104.9</ele>
        <time>2025-02-25T09:43:00Z</time>
      </trkpt>
      <trkpt lat="48.08492" lon="-3.60112">
        <ele>105.2</ele>
        <time>2025-02-25T09:43:01Z</time>
      </trkpt>
      <trkpt lat="48.08493" lon="-3.60113">
        <ele>105.3</ele>
        <time>2025-02-25T09:43:02Z</time>
      </trkpt>
      <trkpt lat="48.08494" lon="-3.60114">
        <ele>105.4</ele>
        <time>2025-02-25T09:43:03Z</time>
      </trkpt>
      <trkpt lat="48.08495" lon="-3.60114">
        <ele>105.7</ele>
        <time>2025-02-25T09:43:04Z</time>
      </trkpt>
      <trkpt lat="48.08496" lon="-3.60115">
        <ele>105.7</ele>
        <time>2025-02-25T09:43:05Z</time>
      </trkpt>
      <trkpt lat="48.08497" lon="-3.60116">
        <ele>105.8</ele>
        <time>2025-02-25T09:43:06Z</time>
      </trkpt>
      <trkpt lat="48.08498" lon="-3.60117">
        <ele>105.8</ele>
        <time>2025-02-25T09:43:07Z</time>
      </trkpt>
      <trkpt lat="48.08499" lon="-3.60118">
        <ele>105.8</ele>
        <time>2025-02-25T09:43:08Z</time>
      </trkpt>
      <trkpt lat="48.085" lon="-3.60119">
        <ele>105.7</ele>
        <time>2025-02-25T09:43:09Z</time>
      </trkpt>
      <trkpt lat="48.08501" lon="-3.6012">
        <ele>105.6</ele>
        <time>2025-02-25T09:43:10Z</time>
      </trkpt>
      <trkpt lat="48.08502" lon="-3.60121">
        <ele>105.6</ele>
        <time>2025-02-25T09:43:11Z</time>
      </trkpt>
      <trkpt lat="48.08504" lon="-3.60122">
        <ele>105.7</ele>
        <time>2025-02-25T09:43:12Z</time>
      </trkpt>
      <trkpt lat="48.08504" lon="-3.60124">
        <ele>105.1</ele>
        <time>2025-02-25T09:43:13Z</time>
      </trkpt>
      <trkpt lat="48.08506" lon="-3.60124">
        <ele>105.5</ele>
        <time>2025-02-25T09:43:14Z</time>
      </trkpt>
      <trkpt lat="48.08507" lon="-3.60124">
        <ele>105.7</ele>
        <time>2025-02-25T09:43:15Z</time>
      </trkpt>
      <trkpt lat="48.08507" lon="-3.60125">
        <ele>105.4</ele>
        <time>2025-02-25T09:43:16Z</time>
      </trkpt>
      <trkpt lat="48.08507" lon="-3.60127">
        <ele>104.8</ele>
        <time>2025-02-25T09:43:17Z</time>
      </trkpt>
      <trkpt lat="48.08506" lon="-3.60129">
        <ele>104</ele>
        <time>2025-02-25T09:43:18Z</time>
      </trkpt>
      <trkpt lat="48.08506" lon="-3.60129">
        <ele>104</ele>
        <time>2025-02-25T09:43:19Z</time>
      </trkpt>
      <trkpt lat="48.08506" lon="-3.60129">
        <ele>104</ele>
        <time>2025-02-25T09:43:20Z</time>
      </trkpt>
      <trkpt lat="48.08506" lon="-3.60129">
        <ele>104</ele>
        <time>2025-02-25T09:43:21Z</time>
      </trkpt>
      <trkpt lat="48.08506" lon="-3.60129">
        <ele>104</ele>
        <time>2025-02-25T09:43:22Z</time>
      </trkpt>
      <trkpt lat="48.08506" lon="-3.60129">
        <ele>104</ele>
        <time>2025-02-25T09:43:23Z</time>
      </trkpt>
      <trkpt lat="48.08507" lon="-3.60129">
        <ele>104.2</ele>
        <time>2025-02-25T09:43:24Z</time>
      </trkpt>
      <trkpt lat="48.08507" lon="-3.60128">
        <ele>104.5</ele>
        <time>2025-02-25T09:43:25Z</time>
      </trkpt>
      <trkpt lat="48.08508" lon="-3.60128">
        <ele>104.7</ele>
        <time>2025-02-25T09:43:26Z</time>
      </trkpt>
      <trkpt lat="48.08509" lon="-3.6013">
        <ele>104.3</ele>
        <time>2025-02-25T09:43:27Z</time>
      </trkpt>
      <trkpt lat="48.0851" lon="-3.60131">
        <ele>104.2</ele>
        <time>2025-02-25T09:43:28Z</time>
      </trkpt>
      <trkpt lat="48.08512" lon="-3.60131">
        <ele>104.6</ele>
        <time>2025-02-25T09:43:29Z</time>
      </trkpt>
      <trkpt lat="48.08513" lon="-3.60131">
        <ele>104.7</ele>
        <time>2025-02-25T09:43:30Z</time>
      </trkpt>
      <trkpt lat="48.08514" lon="-3.60131">
        <ele>104.9</ele>
        <time>2025-02-25T09:43:31Z</time>
      </trkpt>
      <trkpt lat="48.08516" lon="-3.60132">
        <ele>105</ele>
        <time>2025-02-25T09:43:32Z</time>
      </trkpt>
      <trkpt lat="48.08517" lon="-3.60133">
        <ele>104.9</ele>
        <time>2025-02-25T09:43:33Z</time>
      </trkpt>
      <trkpt lat="48.08518" lon="-3.60134">
        <ele>104.8</ele>
        <time>2025-02-25T09:43:34Z</time>
      </trkpt>
      <trkpt lat="48.08519" lon="-3.60135">
        <ele>104.6</ele>
        <time>2025-02-25T09:43:35Z</time>
      </trkpt>
      <trkpt lat="48.0852" lon="-3.60136">
        <ele>104.5</ele>
        <time>2025-02-25T09:43:36Z</time>
      </trkpt>
      <trkpt lat="48.08521" lon="-3.60136">
        <ele>104.7</ele>
        <time>2025-02-25T09:43:37Z</time>
      </trkpt>
      <trkpt lat="48.08521" lon="-3.60137">
        <ele>104.4</ele>
        <time>2025-02-25T09:43:38Z</time>
      </trkpt>
      <trkpt lat="48.08522" lon="-3.60138">
        <ele>104.2</ele>
        <time>2025-02-25T09:43:39Z</time>
      </trkpt>
      <trkpt lat="48.08523" lon="-3.60138">
        <ele>104.4</ele>
        <time>2025-02-25T09:43:40Z</time>
      </trkpt>
      <trkpt lat="48.08524" lon="-3.60139">
        <ele>104.3</ele>
        <time>2025-02-25T09:43:41Z</time>
      </trkpt>
      <trkpt lat="48.08525" lon="-3.60139">
        <ele>104.5</ele>
        <time>2025-02-25T09:43:42Z</time>
      </trkpt>
      <trkpt lat="48.08526" lon="-3.60139">
        <ele>104.7</ele>
        <time>2025-02-25T09:43:43Z</time>
      </trkpt>
      <trkpt lat="48.08527" lon="-3.6014">
        <ele>104.7</ele>
        <time>2025-02-25T09:43:44Z</time>
      </trkpt>
      <trkpt lat="48.08528" lon="-3.60141">
        <ele>104.7</ele>
        <time>2025-02-25T09:43:45Z</time>
      </trkpt>
      <trkpt lat="48.0853" lon="-3.60142">
        <ele>105</ele>
        <time>2025-02-25T09:43:46Z</time>
      </trkpt>
      <trkpt lat="48.08531" lon="-3.60143">
        <ele>105.1</ele>
        <time>2025-02-25T09:43:47Z</time>
      </trkpt>
      <trkpt lat="48.08532" lon="-3.60144">
        <ele>105.2</ele>
        <time>2025-02-25T09:43:48Z</time>
      </trkpt>
      <trkpt lat="48.08533" lon="-3.60145">
        <ele>105.2</ele>
        <time>2025-02-25T09:43:49Z</time>
      </trkpt>
      <trkpt lat="48.08534" lon="-3.60147">
        <ele>105.1</ele>
        <time>2025-02-25T09:43:50Z</time>
      </trkpt>
      <trkpt lat="48.08535" lon="-3.60147">
        <ele>105.3</ele>
        <time>2025-02-25T09:43:51Z</time>
      </trkpt>
      <trkpt lat="48.08536" lon="-3.60147">
        <ele>105.6</ele>
        <time>2025-02-25T09:43:52Z</time>
      </trkpt>
      <trkpt lat="48.08536" lon="-3.60148">
        <ele>105.3</ele>
        <time>2025-02-25T09:43:53Z</time>
      </trkpt>
      <trkpt lat="48.08537" lon="-3.60149">
        <ele>105.4</ele>
        <time>2025-02-25T09:43:54Z</time>
      </trkpt>
      <trkpt lat="48.08538" lon="-3.60149">
        <ele>105.6</ele>
        <time>2025-02-25T09:43:55Z</time>
      </trkpt>
      <trkpt lat="48.08539" lon="-3.60149">
        <ele>105.8</ele>
        <time>2025-02-25T09:43:56Z</time>
      </trkpt>
      <trkpt lat="48.0854" lon="-3.60149">
        <ele>106.1</ele>
        <time>2025-02-25T09:43:57Z</time>
      </trkpt>
      <trkpt lat="48.08541" lon="-3.60149">
        <ele>106.3</ele>
        <time>2025-02-25T09:43:58Z</time>
      </trkpt>
      <trkpt lat="48.08542" lon="-3.60149">
        <ele>106.5</ele>
        <time>2025-02-25T09:43:59Z</time>
      </trkpt>
      <trkpt lat="48.08543" lon="-3.60149">
        <ele>106.8</ele>
        <time>2025-02-25T09:44:00Z</time>
      </trkpt>
      <trkpt lat="48.08545" lon="-3.6015">
        <ele>107</ele>
        <time>2025-02-25T09:44:01Z</time>
      </trkpt>
      <trkpt lat="48.08546" lon="-3.60151">
        <ele>106.9</ele>
        <time>2025-02-25T09:44:02Z</time>
      </trkpt>
      <trkpt lat="48.08546" lon="-3.60153">
        <ele>106.4</ele>
        <time>2025-02-25T09:44:03Z</time>
      </trkpt>
      <trkpt lat="48.08548" lon="-3.60153">
        <ele>106.8</ele>
        <time>2025-02-25T09:44:04Z</time>
      </trkpt>
      <trkpt lat="48.08549" lon="-3.60153">
        <ele>107</ele>
        <time>2025-02-25T09:44:05Z</time>
      </trkpt>
      <trkpt lat="48.08549" lon="-3.60154">
        <ele>106.7</ele>
        <time>2025-02-25T09:44:06Z</time>
      </trkpt>
      <trkpt lat="48.0855" lon="-3.60156">
        <ele>106.3</ele>
        <time>2025-02-25T09:44:07Z</time>
      </trkpt>
      <trkpt lat="48.08551" lon="-3.60156">
        <ele>106.5</ele>
        <time>2025-02-25T09:44:08Z</time>
      </trkpt>
      <trkpt lat="48.08552" lon="-3.60157">
        <ele>106.4</ele>
        <time>2025-02-25T09:44:09Z</time>
      </trkpt>
      <trkpt lat="48.08552" lon="-3.60158">
        <ele>106.1</ele>
        <time>2025-02-25T09:44:10Z</time>
      </trkpt>
      <trkpt lat="48.08554" lon="-3.60158">
        <ele>106.5</ele>
        <time>2025-02-25T09:44:11Z</time>
      </trkpt>
      <trkpt lat="48.08555" lon="-3.60159">
        <ele>106.4</ele>
        <time>2025-02-25T09:44:12Z</time>
      </trkpt>
      <trkpt lat="48.08556" lon="-3.6016">
        <ele>106.2</ele>
        <time>2025-02-25T09:44:13Z</time>
      </trkpt>
      <trkpt lat="48.08557" lon="-3.6016">
        <ele>106.3</ele>
        <time>2025-02-25T09:44:14Z</time>
      </trkpt>
      <trkpt lat="48.08559" lon="-3.6016">
        <ele>106.6</ele>
        <time>2025-02-25T09:44:15Z</time>
      </trkpt>
      <trkpt lat="48.08561" lon="-3.60159">
        <ele>107.2</ele>
        <time>2025-02-25T09:44:16Z</time>
      </trkpt>
      <trkpt lat="48.08563" lon="-3.60159">
        <ele>107.4</ele>
        <time>2025-02-25T09:44:17Z</time>
      </trkpt>
      <trkpt lat="48.08564" lon="-3.6016">
        <ele>107.2</ele>
        <time>2025-02-25T09:44:18Z</time>
      </trkpt>
      <trkpt lat="48.08566" lon="-3.6016">
        <ele>107.5</ele>
        <time>2025-02-25T09:44:19Z</time>
      </trkpt>
      <trkpt lat="48.08567" lon="-3.6016">
        <ele>107.6</ele>
        <time>2025-02-25T09:44:20Z</time>
      </trkpt>
      <trkpt lat="48.08568" lon="-3.60161">
        <ele>107.4</ele>
        <time>2025-02-25T09:44:21Z</time>
      </trkpt>
      <trkpt lat="48.08569" lon="-3.60162">
        <ele>107.1</ele>
        <time>2025-02-25T09:44:22Z</time>
      </trkpt>
      <trkpt lat="48.0857" lon="-3.60163">
        <ele>106.9</ele>
        <time>2025-02-25T09:44:23Z</time>
      </trkpt>
      <trkpt lat="48.08571" lon="-3.60163">
        <ele>107</ele>
        <time>2025-02-25T09:44:24Z</time>
      </trkpt>
      <trkpt lat="48.08572" lon="-3.60164">
        <ele>106.8</ele>
        <time>2025-02-25T09:44:25Z</time>
      </trkpt>
      <trkpt lat="48.08573" lon="-3.60164">
        <ele>106.9</ele>
        <time>2025-02-25T09:44:26Z</time>
      </trkpt>
      <trkpt lat="48.08574" lon="-3.60165">
        <ele>106.6</ele>
        <time>2025-02-25T09:44:27Z</time>
      </trkpt>
      <trkpt lat="48.08575" lon="-3.60165">
        <ele>106.7</ele>
        <time>2025-02-25T09:44:28Z</time>
      </trkpt>
      <trkpt lat="48.08576" lon="-3.60165">
        <ele>106.8</ele>
        <time>2025-02-25T09:44:29Z</time>
      </trkpt>
      <trkpt lat="48.08577" lon="-3.60166">
        <ele>106.6</ele>
        <time>2025-02-25T09:44:30Z</time>
      </trkpt>
      <trkpt lat="48.08578" lon="-3.60166">
        <ele>106.7</ele>
        <time>2025-02-25T09:44:31Z</time>
      </trkpt>
      <trkpt lat="48.08579" lon="-3.60167">
        <ele>106.4</ele>
        <time>2025-02-25T09:44:32Z</time>
      </trkpt>
      <trkpt lat="48.08581" lon="-3.60167">
        <ele>106.7</ele>
        <time>2025-02-25T09:44:33Z</time>
      </trkpt>
      <trkpt lat="48.08582" lon="-3.60168">
        <ele>106.5</ele>
        <time>2025-02-25T09:44:34Z</time>
      </trkpt>
      <trkpt lat="48.08582" lon="-3.6017">
        <ele>105.9</ele>
        <time>2025-02-25T09:44:35Z</time>
      </trkpt>
      <trkpt lat="48.08582" lon="-3.60171">
        <ele>105.6</ele>
        <time>2025-02-25T09:44:36Z</time>
      </trkpt>
      <trkpt lat="48.08583" lon="-3.60172">
        <ele>105.4</ele>
        <time>2025-02-25T09:44:37Z</time>
      </trkpt>
      <trkpt lat="48.08584" lon="-3.60173">
        <ele>105.2</ele>
        <time>2025-02-25T09:44:38Z</time>
      </trkpt>
      <trkpt lat="48.08585" lon="-3.60174">
        <ele>104.9</ele>
        <time>2025-02-25T09:44:39Z</time>
      </trkpt>
      <trkpt lat="48.08586" lon="-3.60175">
        <ele>104.6</ele>
        <time>2025-02-25T09:44:40Z</time>
      </trkpt>
      <trkpt lat="48.08588" lon="-3.60175">
        <ele>104.5</ele>
        <time>2025-02-25T09:44:41Z</time>
      </trkpt>
      <trkpt lat="48.08589" lon="-3.60177">
        <ele>103.9</ele>
        <time>2025-02-25T09:44:42Z</time>
      </trkpt>
      <trkpt lat="48.08589" lon="-3.60178">
        <ele>103.7</ele>
        <time>2025-02-25T09:44:43Z</time>
      </trkpt>
      <trkpt lat="48.0859" lon="-3.60179">
        <ele>103.3</ele>
        <time>2025-02-25T09:44:44Z</time>
      </trkpt>
      <trkpt lat="48.08591" lon="-3.6018">
        <ele>103</ele>
        <time>2025-02-25T09:44:45Z</time>
      </trkpt>
      <trkpt lat="48.08592" lon="-3.60182">
        <ele>102.4</ele>
        <time>2025-02-25T09:44:46Z</time>
      </trkpt>
      <trkpt lat="48.08592" lon="-3.60183">
        <ele>102.1</ele>
        <time>2025-02-25T09:44:47Z</time>
      </trkpt>
      <trkpt lat="48.08593" lon="-3.60184">
        <ele>101.8</ele>
        <time>2025-02-25T09:44:48Z</time>
      </trkpt>
      <trkpt lat="48.08593" lon="-3.60185">
        <ele>101.5</ele>
        <time>2025-02-25T09:44:49Z</time>
      </trkpt>
      <trkpt lat="48.08593" lon="-3.60187">
        <ele>100.9</ele>
        <time>2025-02-25T09:44:50Z</time>
      </trkpt>
      <trkpt lat="48.08594" lon="-3.60188">
        <ele>100.6</ele>
        <time>2025-02-25T09:44:51Z</time>
      </trkpt>
      <trkpt lat="48.08595" lon="-3.60189">
        <ele>100.2</ele>
        <time>2025-02-25T09:44:52Z</time>
      </trkpt>
      <trkpt lat="48.08595" lon="-3.6019">
        <ele>99.9</ele>
        <time>2025-02-25T09:44:53Z</time>
      </trkpt>
      <trkpt lat="48.08595" lon="-3.60191">
        <ele>99.6</ele>
        <time>2025-02-25T09:44:54Z</time>
      </trkpt>
      <trkpt lat="48.08595" lon="-3.60191">
        <ele>99.6</ele>
        <time>2025-02-25T09:44:55Z</time>
      </trkpt>
      <trkpt lat="48.08595" lon="-3.60191">
        <ele>99.6</ele>
        <time>2025-02-25T09:44:56Z</time>
      </trkpt>
      <trkpt lat="48.08595" lon="-3.60193">
        <ele>99</ele>
        <time>2025-02-25T09:44:57Z</time>
      </trkpt>
      <trkpt lat="48.08595" lon="-3.60194">
        <ele>98.7</ele>
        <time>2025-02-25T09:44:58Z</time>
      </trkpt>
      <trkpt lat="48.08595" lon="-3.60195">
        <ele>98.5</ele>
        <time>2025-02-25T09:44:59Z</time>
      </trkpt>
      <trkpt lat="48.08596" lon="-3.60193">
        <ele>99</ele>
        <time>2025-02-25T09:45:00Z</time>
      </trkpt>
      <trkpt lat="48.08596" lon="-3.60191">
        <ele>99.6</ele>
        <time>2025-02-25T09:45:01Z</time>
      </trkpt>
      <trkpt lat="48.08596" lon="-3.60191">
        <ele>99.6</ele>
        <time>2025-02-25T09:45:02Z</time>
      </trkpt>
      <trkpt lat="48.08596" lon="-3.60191">
        <ele>99.6</ele>
        <time>2025-02-25T09:45:03Z</time>
      </trkpt>
      <trkpt lat="48.08596" lon="-3.60191">
        <ele>99.6</ele>
        <time>2025-02-25T09:45:04Z</time>
      </trkpt>
      <trkpt lat="48.08596" lon="-3.6019">
        <ele>99.9</ele>
        <time>2025-02-25T09:45:05Z</time>
      </trkpt>
      <trkpt lat="48.08596" lon="-3.60189">
        <ele>100.2</ele>
        <time>2025-02-25T09:45:06Z</time>
      </trkpt>
      <trkpt lat="48.08598" lon="-3.60189">
        <ele>100.1</ele>
        <time>2025-02-25T09:45:07Z</time>
      </trkpt>
      <trkpt lat="48.08599" lon="-3.60189">
        <ele>100.1</ele>
        <time>2025-02-25T09:45:08Z</time>
      </trkpt>
      <trkpt lat="48.08599" lon="-3.60189">
        <ele>100.1</ele>
        <time>2025-02-25T09:45:09Z</time>
      </trkpt>
      <trkpt lat="48.08598" lon="-3.60192">
        <ele>99.2</ele>
        <time>2025-02-25T09:45:10Z</time>
      </trkpt>
      <trkpt lat="48.08598" lon="-3.60194">
        <ele>98.6</ele>
        <time>2025-02-25T09:45:11Z</time>
      </trkpt>
      <trkpt lat="48.08597" lon="-3.60195">
        <ele>98.5</ele>
        <time>2025-02-25T09:45:12Z</time>
      </trkpt>
      <trkpt lat="48.08597" lon="-3.60194">
        <ele>98.6</ele>
        <time>2025-02-25T09:45:13Z</time>
      </trkpt>
      <trkpt lat="48.08597" lon="-3.60196">
        <ele>98.4</ele>
        <time>2025-02-25T09:45:14Z</time>
      </trkpt>
      <trkpt lat="48.08597" lon="-3.60196">
        <ele>98.4</ele>
        <time>2025-02-25T09:45:15Z</time>
      </trkpt>
      <trkpt lat="48.08597" lon="-3.60197">
        <ele>98.4</ele>
        <time>2025-02-25T09:45:16Z</time>
      </trkpt>
      <trkpt lat="48.08596" lon="-3.60197">
        <ele>98.4</ele>
        <time>2025-02-25T09:45:17Z</time>
      </trkpt>
      <trkpt lat="48.08596" lon="-3.60201">
        <ele>98.2</ele>
        <time>2025-02-25T09:45:18Z</time>
      </trkpt>
      <trkpt lat="48.08597" lon="-3.60202">
        <ele>98.1</ele>
        <time>2025-02-25T09:45:19Z</time>
      </trkpt>
      <trkpt lat="48.08597" lon="-3.60204">
        <ele>98</ele>
        <time>2025-02-25T09:45:20Z</time>
      </trkpt>
      <trkpt lat="48.08598" lon="-3.60204">
        <ele>98</ele>
        <time>2025-02-25T09:45:21Z</time>
      </trkpt>
      <trkpt lat="48.08598" lon="-3.60205">
        <ele>97.9</ele>
        <time>2025-02-25T09:45:22Z</time>
      </trkpt>
      <trkpt lat="48.08599" lon="-3.60203">
        <ele>98</ele>
        <time>2025-02-25T09:45:23Z</time>
      </trkpt>
      <trkpt lat="48.08599" lon="-3.60204">
        <ele>98</ele>
        <time>2025-02-25T09:45:24Z</time>
      </trkpt>
      <trkpt lat="48.08599" lon="-3.60203">
        <ele>98</ele>
        <time>2025-02-25T09:45:25Z</time>
      </trkpt>
      <trkpt lat="48.086" lon="-3.60205">
        <ele>97.9</ele>
        <time>2025-02-25T09:45:26Z</time>
      </trkpt>
      <trkpt lat="48.086" lon="-3.60205">
        <ele>97.9</ele>
        <time>2025-02-25T09:45:27Z</time>
      </trkpt>
      <trkpt lat="48.08601" lon="-3.60204">
        <ele>98</ele>
        <time>2025-02-25T09:45:28Z</time>
      </trkpt>
      <trkpt lat="48.08601" lon="-3.60204">
        <ele>98</ele>
        <time>2025-02-25T09:45:29Z</time>
      </trkpt>
      <trkpt lat="48.086" lon="-3.60204">
        <ele>98</ele>
        <time>2025-02-25T09:45:30Z</time>
      </trkpt>
      <trkpt lat="48.086" lon="-3.60204">
        <ele>98</ele>
        <time>2025-02-25T09:45:31Z</time>
      </trkpt>
      <trkpt lat="48.086" lon="-3.60205">
        <ele>97.9</ele>
        <time>2025-02-25T09:45:32Z</time>
      </trkpt>
      <trkpt lat="48.08601" lon="-3.60205">
        <ele>97.9</ele>
        <time>2025-02-25T09:45:33Z</time>
      </trkpt>
      <trkpt lat="48.08601" lon="-3.60205">
        <ele>97.9</ele>
        <time>2025-02-25T09:45:34Z</time>
      </trkpt>
      <trkpt lat="48.08602" lon="-3.60205">
        <ele>98</ele>
        <time>2025-02-25T09:45:35Z</time>
      </trkpt>
      <trkpt lat="48.08602" lon="-3.60205">
        <ele>98</ele>
        <time>2025-02-25T09:45:36Z</time>
      </trkpt>
      <trkpt lat="48.08603" lon="-3.60206">
        <ele>97.9</ele>
        <time>2025-02-25T09:45:37Z</time>
      </trkpt>
      <trkpt lat="48.08602" lon="-3.60207">
        <ele>97.9</ele>
        <time>2025-02-25T09:45:38Z</time>
      </trkpt>
      <trkpt lat="48.08602" lon="-3.60207">
        <ele>97.9</ele>
        <time>2025-02-25T09:45:39Z</time>
      </trkpt>
      <trkpt lat="48.08601" lon="-3.60206">
        <ele>97.9</ele>
        <time>2025-02-25T09:45:40Z</time>
      </trkpt>
      <trkpt lat="48.08601" lon="-3.60205">
        <ele>97.9</ele>
        <time>2025-02-25T09:45:41Z</time>
      </trkpt>
      <trkpt lat="48.086" lon="-3.60205">
        <ele>97.9</ele>
        <time>2025-02-25T09:45:42Z</time>
      </trkpt>
      <trkpt lat="48.08601" lon="-3.60202">
        <ele>98.1</ele>
        <time>2025-02-25T09:45:43Z</time>
      </trkpt>
      <trkpt lat="48.08601" lon="-3.60201">
        <ele>98.1</ele>
        <time>2025-02-25T09:45:44Z</time>
      </trkpt>
      <trkpt lat="48.08603" lon="-3.60205">
        <ele>98</ele>
        <time>2025-02-25T09:45:45Z</time>
      </trkpt>
      <trkpt lat="48.08603" lon="-3.60207">
        <ele>97.9</ele>
        <time>2025-02-25T09:45:46Z</time>
      </trkpt>
      <trkpt lat="48.08604" lon="-3.60209">
        <ele>97.9</ele>
        <time>2025-02-25T09:45:47Z</time>
      </trkpt>
      <trkpt lat="48.08604" lon="-3.60211">
        <ele>97.8</ele>
        <time>2025-02-25T09:45:48Z</time>
      </trkpt>
      <trkpt lat="48.08603" lon="-3.60213">
        <ele>97.7</ele>
        <time>2025-02-25T09:45:49Z</time>
      </trkpt>
      <trkpt lat="48.08604" lon="-3.60214">
        <ele>97.7</ele>
        <time>2025-02-25T09:45:50Z</time>
      </trkpt>
      <trkpt lat="48.08604" lon="-3.60215">
        <ele>97.7</ele>
        <time>2025-02-25T09:45:51Z</time>
      </trkpt>
      <trkpt lat="48.08604" lon="-3.60216">
        <ele>97.7</ele>
        <time>2025-02-25T09:45:52Z</time>
      </trkpt>
      <trkpt lat="48.08605" lon="-3.60217">
        <ele>97.7</ele>
        <time>2025-02-25T09:45:53Z</time>
      </trkpt>
      <trkpt lat="48.08605" lon="-3.60217">
        <ele>97.7</ele>
        <time>2025-02-25T09:45:54Z</time>
      </trkpt>
      <trkpt lat="48.08605" lon="-3.60219">
        <ele>97.6</ele>
        <time>2025-02-25T09:45:55Z</time>
      </trkpt>
      <trkpt lat="48.08606" lon="-3.6022">
        <ele>97.7</ele>
        <time>2025-02-25T09:45:56Z</time>
      </trkpt>
      <trkpt lat="48.08606" lon="-3.6022">
        <ele>97.7</ele>
        <time>2025-02-25T09:45:57Z</time>
      </trkpt>
      <trkpt lat="48.08607" lon="-3.60219">
        <ele>97.8</ele>
        <time>2025-02-25T09:45:58Z</time>
      </trkpt>
      <trkpt lat="48.08606" lon="-3.6022">
        <ele>97.7</ele>
        <time>2025-02-25T09:45:59Z</time>
      </trkpt>
      <trkpt lat="48.08607" lon="-3.6022">
        <ele>97.7</ele>
        <time>2025-02-25T09:46:00Z</time>
      </trkpt>
      <trkpt lat="48.08607" lon="-3.60221">
        <ele>97.7</ele>
        <time>2025-02-25T09:46:01Z</time>
      </trkpt>
      <trkpt lat="48.08607" lon="-3.60222">
        <ele>97.7</ele>
        <time>2025-02-25T09:46:02Z</time>
      </trkpt>
      <trkpt lat="48.08607" lon="-3.60223">
        <ele>97.8</ele>
        <time>2025-02-25T09:46:03Z</time>
      </trkpt>
      <trkpt lat="48.08608" lon="-3.60224">
        <ele>98</ele>
        <time>2025-02-25T09:46:04Z</time>
      </trkpt>
      <trkpt lat="48.08608" lon="-3.60225">
        <ele>98.1</ele>
        <time>2025-02-25T09:46:05Z</time>
      </trkpt>
      <trkpt lat="48.08608" lon="-3.60226">
        <ele>98.2</ele>
        <time>2025-02-25T09:46:06Z</time>
      </trkpt>
      <trkpt lat="48.0861" lon="-3.60225">
        <ele>98.3</ele>
        <time>2025-02-25T09:46:07Z</time>
      </trkpt>
      <trkpt lat="48.0861" lon="-3.60224">
        <ele>98.2</ele>
        <time>2025-02-25T09:46:08Z</time>
      </trkpt>
      <trkpt lat="48.08611" lon="-3.60224">
        <ele>98.2</ele>
        <time>2025-02-25T09:46:09Z</time>
      </trkpt>
      <trkpt lat="48.08612" lon="-3.60227">
        <ele>99</ele>
        <time>2025-02-25T09:46:10Z</time>
      </trkpt>
      <trkpt lat="48.08611" lon="-3.60228">
        <ele>98.8</ele>
        <time>2025-02-25T09:46:11Z</time>
      </trkpt>
      <trkpt lat="48.08611" lon="-3.6023">
        <ele>99.1</ele>
        <time>2025-02-25T09:46:12Z</time>
      </trkpt>
      <trkpt lat="48.08611" lon="-3.60232">
        <ele>99.4</ele>
        <time>2025-02-25T09:46:13Z</time>
      </trkpt>
      <trkpt lat="48.0861" lon="-3.60234">
        <ele>99.5</ele>
        <time>2025-02-25T09:46:14Z</time>
      </trkpt>
      <trkpt lat="48.08611" lon="-3.60235">
        <ele>99.8</ele>
        <time>2025-02-25T09:46:15Z</time>
      </trkpt>
      <trkpt lat="48.0861" lon="-3.60237">
        <ele>99.9</ele>
        <time>2025-02-25T09:46:16Z</time>
      </trkpt>
      <trkpt lat="48.0861" lon="-3.60239">
        <ele>100.2</ele>
        <time>2025-02-25T09:46:17Z</time>
      </trkpt>
      <trkpt lat="48.0861" lon="-3.60241">
        <ele>100.5</ele>
        <time>2025-02-25T09:46:18Z</time>
      </trkpt>
      <trkpt lat="48.08609" lon="-3.60242">
        <ele>100.4</ele>
        <time>2025-02-25T09:46:19Z</time>
      </trkpt>
      <trkpt lat="48.08608" lon="-3.60243">
        <ele>100.3</ele>
        <time>2025-02-25T09:46:20Z</time>
      </trkpt>
      <trkpt lat="48.08607" lon="-3.60245">
        <ele>100.4</ele>
        <time>2025-02-25T09:46:21Z</time>
      </trkpt>
      <trkpt lat="48.08606" lon="-3.60246">
        <ele>100.3</ele>
        <time>2025-02-25T09:46:22Z</time>
      </trkpt>
      <trkpt lat="48.08606" lon="-3.60248">
        <ele>100.5</ele>
        <time>2025-02-25T09:46:23Z</time>
      </trkpt>
      <trkpt lat="48.08605" lon="-3.60248">
        <ele>100.3</ele>
        <time>2025-02-25T09:46:24Z</time>
      </trkpt>
      <trkpt lat="48.08604" lon="-3.60249">
        <ele>100.1</ele>
        <time>2025-02-25T09:46:25Z</time>
      </trkpt>
      <trkpt lat="48.08603" lon="-3.60251">
        <ele>100</ele>
        <time>2025-02-25T09:46:26Z</time>
      </trkpt>
      <trkpt lat="48.08602" lon="-3.60252">
        <ele>99.8</ele>
        <time>2025-02-25T09:46:27Z</time>
      </trkpt>
      <trkpt lat="48.08601" lon="-3.60253">
        <ele>99.6</ele>
        <time>2025-02-25T09:46:28Z</time>
      </trkpt>
      <trkpt lat="48.08601" lon="-3.60254">
        <ele>99.6</ele>
        <time>2025-02-25T09:46:29Z</time>
      </trkpt>
      <trkpt lat="48.086" lon="-3.60256">
        <ele>99.5</ele>
        <time>2025-02-25T09:46:30Z</time>
      </trkpt>
      <trkpt lat="48.086" lon="-3.60257">
        <ele>99.5</ele>
        <time>2025-02-25T09:46:31Z</time>
      </trkpt>
      <trkpt lat="48.08599" lon="-3.60258">
        <ele>99.3</ele>
        <time>2025-02-25T09:46:32Z</time>
      </trkpt>
      <trkpt lat="48.08599" lon="-3.60259">
        <ele>99.3</ele>
        <time>2025-02-25T09:46:33Z</time>
      </trkpt>
      <trkpt lat="48.08598" lon="-3.6026">
        <ele>99.1</ele>
        <time>2025-02-25T09:46:34Z</time>
      </trkpt>
      <trkpt lat="48.08597" lon="-3.60261">
        <ele>98.8</ele>
        <time>2025-02-25T09:46:35Z</time>
      </trkpt>
      <trkpt lat="48.08597" lon="-3.60263">
        <ele>98.9</ele>
        <time>2025-02-25T09:46:36Z</time>
      </trkpt>
      <trkpt lat="48.08596" lon="-3.60264">
        <ele>98.7</ele>
        <time>2025-02-25T09:46:37Z</time>
      </trkpt>
      <trkpt lat="48.08595" lon="-3.60265">
        <ele>98.4</ele>
        <time>2025-02-25T09:46:38Z</time>
      </trkpt>
      <trkpt lat="48.08595" lon="-3.60267">
        <ele>98.5</ele>
        <time>2025-02-25T09:46:39Z</time>
      </trkpt>
      <trkpt lat="48.08594" lon="-3.60269">
        <ele>98.2</ele>
        <time>2025-02-25T09:46:40Z</time>
      </trkpt>
      <trkpt lat="48.08594" lon="-3.6027">
        <ele>98.2</ele>
        <time>2025-02-25T09:46:41Z</time>
      </trkpt>
      <trkpt lat="48.08592" lon="-3.60271">
        <ele>97.7</ele>
        <time>2025-02-25T09:46:42Z</time>
      </trkpt>
      <trkpt lat="48.08592" lon="-3.60273">
        <ele>97.7</ele>
        <time>2025-02-25T09:46:43Z</time>
      </trkpt>
      <trkpt lat="48.08591" lon="-3.60275">
        <ele>97.4</ele>
        <time>2025-02-25T09:46:44Z</time>
      </trkpt>
      <trkpt lat="48.0859" lon="-3.60276">
        <ele>97.1</ele>
        <time>2025-02-25T09:46:45Z</time>
      </trkpt>
      <trkpt lat="48.0859" lon="-3.60278">
        <ele>97.2</ele>
        <time>2025-02-25T09:46:46Z</time>
      </trkpt>
      <trkpt lat="48.08589" lon="-3.60279">
        <ele>96.9</ele>
        <time>2025-02-25T09:46:47Z</time>
      </trkpt>
      <trkpt lat="48.08589" lon="-3.60281">
        <ele>96.9</ele>
        <time>2025-02-25T09:46:48Z</time>
      </trkpt>
      <trkpt lat="48.08588" lon="-3.60283">
        <ele>96.6</ele>
        <time>2025-02-25T09:46:49Z</time>
      </trkpt>
      <trkpt lat="48.08588" lon="-3.60284">
        <ele>96.6</ele>
        <time>2025-02-25T09:46:50Z</time>
      </trkpt>
      <trkpt lat="48.08588" lon="-3.60286">
        <ele>96.6</ele>
        <time>2025-02-25T09:46:51Z</time>
      </trkpt>
      <trkpt lat="48.08587" lon="-3.60287">
        <ele>96.3</ele>
        <time>2025-02-25T09:46:52Z</time>
      </trkpt>
      <trkpt lat="48.08587" lon="-3.60288">
        <ele>96.3</ele>
        <time>2025-02-25T09:46:53Z</time>
      </trkpt>
      <trkpt lat="48.08586" lon="-3.6029">
        <ele>95.9</ele>
        <time>2025-02-25T09:46:54Z</time>
      </trkpt>
      <trkpt lat="48.08586" lon="-3.60292">
        <ele>96</ele>
        <time>2025-02-25T09:46:55Z</time>
      </trkpt>
      <trkpt lat="48.08587" lon="-3.60293">
        <ele>96.3</ele>
        <time>2025-02-25T09:46:56Z</time>
      </trkpt>
      <trkpt lat="48.08586" lon="-3.60296">
        <ele>96</ele>
        <time>2025-02-25T09:46:57Z</time>
      </trkpt>
      <trkpt lat="48.08586" lon="-3.60298">
        <ele>96</ele>
        <time>2025-02-25T09:46:58Z</time>
      </trkpt>
      <trkpt lat="48.08585" lon="-3.60299">
        <ele>95.6</ele>
        <time>2025-02-25T09:46:59Z</time>
      </trkpt>
      <trkpt lat="48.08584" lon="-3.60301">
        <ele>95.3</ele>
        <time>2025-02-25T09:47:00Z</time>
      </trkpt>
      <trkpt lat="48.08584" lon="-3.60303">
        <ele>95.3</ele>
        <time>2025-02-25T09:47:01Z</time>
      </trkpt>
      <trkpt lat="48.08584" lon="-3.60304">
        <ele>95.3</ele>
        <time>2025-02-25T09:47:02Z</time>
      </trkpt>
      <trkpt lat="48.08584" lon="-3.60306">
        <ele>95.3</ele>
        <time>2025-02-25T09:47:03Z</time>
      </trkpt>
      <trkpt lat="48.08584" lon="-3.60307">
        <ele>95.3</ele>
        <time>2025-02-25T09:47:04Z</time>
      </trkpt>
      <trkpt lat="48.08584" lon="-3.60309">
        <ele>95.3</ele>
        <time>2025-02-25T09:47:05Z</time>
      </trkpt>
      <trkpt lat="48.08583" lon="-3.60311">
        <ele>95</ele>
        <time>2025-02-25T09:47:06Z</time>
      </trkpt>
      <trkpt lat="48.08583" lon="-3.60313">
        <ele>95</ele>
        <time>2025-02-25T09:47:07Z</time>
      </trkpt>
      <trkpt lat="48.08583" lon="-3.60315">
        <ele>95</ele>
        <time>2025-02-25T09:47:08Z</time>
      </trkpt>
      <trkpt lat="48.08583" lon="-3.60317">
        <ele>95</ele>
        <time>2025-02-25T09:47:09Z</time>
      </trkpt>
      <trkpt lat="48.08584" lon="-3.60319">
        <ele>95.3</ele>
        <time>2025-02-25T09:47:10Z</time>
      </trkpt>
      <trkpt lat="48.08584" lon="-3.60321">
        <ele>95.3</ele>
        <time>2025-02-25T09:47:11Z</time>
      </trkpt>
      <trkpt lat="48.08583" lon="-3.60323">
        <ele>95</ele>
        <time>2025-02-25T09:47:12Z</time>
      </trkpt>
      <trkpt lat="48.08582" lon="-3.60324">
        <ele>95.1</ele>
        <time>2025-02-25T09:47:13Z</time>
      </trkpt>
      <trkpt lat="48.08581" lon="-3.60326">
        <ele>95.2</ele>
        <time>2025-02-25T09:47:14Z</time>
      </trkpt>
      <trkpt lat="48.08582" lon="-3.60329">
        <ele>95.1</ele>
        <time>2025-02-25T09:47:15Z</time>
      </trkpt>
      <trkpt lat="48.08582" lon="-3.60331">
        <ele>95.1</ele>
        <time>2025-02-25T09:47:16Z</time>
      </trkpt>
      <trkpt lat="48.08582" lon="-3.60332">
        <ele>95.1</ele>
        <time>2025-02-25T09:47:17Z</time>
      </trkpt>
      <trkpt lat="48.08582" lon="-3.60334">
        <ele>95.1</ele>
        <time>2025-02-25T09:47:18Z</time>
      </trkpt>
      <trkpt lat="48.08582" lon="-3.60336">
        <ele>95.2</ele>
        <time>2025-02-25T09:47:19Z</time>
      </trkpt>
      <trkpt lat="48.08583" lon="-3.60338">
        <ele>95.2</ele>
        <time>2025-02-25T09:47:20Z</time>
      </trkpt>
      <trkpt lat="48.08583" lon="-3.6034">
        <ele>95.3</ele>
        <time>2025-02-25T09:47:21Z</time>
      </trkpt>
      <trkpt lat="48.08583" lon="-3.60341">
        <ele>95.3</ele>
        <time>2025-02-25T09:47:22Z</time>
      </trkpt>
      <trkpt lat="48.08584" lon="-3.60343">
        <ele>95.6</ele>
        <time>2025-02-25T09:47:23Z</time>
      </trkpt>
      <trkpt lat="48.08584" lon="-3.60345">
        <ele>95.7</ele>
        <time>2025-02-25T09:47:24Z</time>
      </trkpt>
      <trkpt lat="48.08584" lon="-3.60346">
        <ele>95.7</ele>
        <time>2025-02-25T09:47:25Z</time>
      </trkpt>
      <trkpt lat="48.08584" lon="-3.60347">
        <ele>95.8</ele>
        <time>2025-02-25T09:47:26Z</time>
      </trkpt>
      <trkpt lat="48.08584" lon="-3.60349">
        <ele>95.8</ele>
        <time>2025-02-25T09:47:27Z</time>
      </trkpt>
      <trkpt lat="48.08585" lon="-3.6035">
        <ele>96.3</ele>
        <time>2025-02-25T09:47:28Z</time>
      </trkpt>
      <trkpt lat="48.08585" lon="-3.60352">
        <ele>96.4</ele>
        <time>2025-02-25T09:47:29Z</time>
      </trkpt>
      <trkpt lat="48.08585" lon="-3.60354">
        <ele>96.4</ele>
        <time>2025-02-25T09:47:30Z</time>
      </trkpt>
      <trkpt lat="48.08584" lon="-3.60355">
        <ele>96</ele>
        <time>2025-02-25T09:47:31Z</time>
      </trkpt>
      <trkpt lat="48.08584" lon="-3.60357">
        <ele>96.1</ele>
        <time>2025-02-25T09:47:32Z</time>
      </trkpt>
      <trkpt lat="48.08584" lon="-3.60358">
        <ele>96.2</ele>
        <time>2025-02-25T09:47:33Z</time>
      </trkpt>
      <trkpt lat="48.08584" lon="-3.6036">
        <ele>96.2</ele>
        <time>2025-02-25T09:47:34Z</time>
      </trkpt>
      <trkpt lat="48.08584" lon="-3.60361">
        <ele>96.3</ele>
        <time>2025-02-25T09:47:35Z</time>
      </trkpt>
      <trkpt lat="48.08585" lon="-3.60363">
        <ele>96.7</ele>
        <time>2025-02-25T09:47:36Z</time>
      </trkpt>
      <trkpt lat="48.08585" lon="-3.60365">
        <ele>96.8</ele>
        <time>2025-02-25T09:47:37Z</time>
      </trkpt>
      <trkpt lat="48.08585" lon="-3.60367">
        <ele>96.9</ele>
        <time>2025-02-25T09:47:38Z</time>
      </trkpt>
      <trkpt lat="48.08585" lon="-3.60369">
        <ele>96.9</ele>
        <time>2025-02-25T09:47:39Z</time>
      </trkpt>
      <trkpt lat="48.08585" lon="-3.6037">
        <ele>97</ele>
        <time>2025-02-25T09:47:40Z</time>
      </trkpt>
      <trkpt lat="48.08585" lon="-3.60372">
        <ele>97</ele>
        <time>2025-02-25T09:47:41Z</time>
      </trkpt>
      <trkpt lat="48.08585" lon="-3.60373">
        <ele>97.1</ele>
        <time>2025-02-25T09:47:42Z</time>
      </trkpt>
      <trkpt lat="48.08586" lon="-3.60375">
        <ele>97.5</ele>
        <time>2025-02-25T09:47:43Z</time>
      </trkpt>
      <trkpt lat="48.08585" lon="-3.60377">
        <ele>97.2</ele>
        <time>2025-02-25T09:47:44Z</time>
      </trkpt>
      <trkpt lat="48.08585" lon="-3.60378">
        <ele>97.2</ele>
        <time>2025-02-25T09:47:45Z</time>
      </trkpt>
      <trkpt lat="48.08585" lon="-3.6038">
        <ele>97.3</ele>
        <time>2025-02-25T09:47:46Z</time>
      </trkpt>
      <trkpt lat="48.08585" lon="-3.60381">
        <ele>97.3</ele>
        <time>2025-02-25T09:47:47Z</time>
      </trkpt>
      <trkpt lat="48.08585" lon="-3.60383">
        <ele>97.4</ele>
        <time>2025-02-25T09:47:48Z</time>
      </trkpt>
      <trkpt lat="48.08585" lon="-3.60384">
        <ele>97.4</ele>
        <time>2025-02-25T09:47:49Z</time>
      </trkpt>
      <trkpt lat="48.08585" lon="-3.60387">
        <ele>97.5</ele>
        <time>2025-02-25T09:47:50Z</time>
      </trkpt>
      <trkpt lat="48.08585" lon="-3.60389">
        <ele>97.6</ele>
        <time>2025-02-25T09:47:51Z</time>
      </trkpt>
      <trkpt lat="48.08585" lon="-3.6039">
        <ele>97.6</ele>
        <time>2025-02-25T09:47:52Z</time>
      </trkpt>
      <trkpt lat="48.08585" lon="-3.60392">
        <ele>97.7</ele>
        <time>2025-02-25T09:47:53Z</time>
      </trkpt>
      <trkpt lat="48.08585" lon="-3.60394">
        <ele>97.8</ele>
        <time>2025-02-25T09:47:54Z</time>
      </trkpt>
      <trkpt lat="48.08585" lon="-3.60396">
        <ele>97.8</ele>
        <time>2025-02-25T09:47:55Z</time>
      </trkpt>
      <trkpt lat="48.08585" lon="-3.60397">
        <ele>97.9</ele>
        <time>2025-02-25T09:47:56Z</time>
      </trkpt>
      <trkpt lat="48.08585" lon="-3.60399">
        <ele>97.9</ele>
        <time>2025-02-25T09:47:57Z</time>
      </trkpt>
      <trkpt lat="48.08586" lon="-3.604">
        <ele>98.3</ele>
        <time>2025-02-25T09:47:58Z</time>
      </trkpt>
      <trkpt lat="48.08586" lon="-3.60402">
        <ele>98.4</ele>
        <time>2025-02-25T09:47:59Z</time>
      </trkpt>
      <trkpt lat="48.08586" lon="-3.60403">
        <ele>98.4</ele>
        <time>2025-02-25T09:48:00Z</time>
      </trkpt>
      <trkpt lat="48.08586" lon="-3.60405">
        <ele>98.5</ele>
        <time>2025-02-25T09:48:01Z</time>
      </trkpt>
      <trkpt lat="48.08586" lon="-3.60407">
        <ele>98.5</ele>
        <time>2025-02-25T09:48:02Z</time>
      </trkpt>
      <trkpt lat="48.08587" lon="-3.60408">
        <ele>98.9</ele>
        <time>2025-02-25T09:48:03Z</time>
      </trkpt>
      <trkpt lat="48.08587" lon="-3.6041">
        <ele>99</ele>
        <time>2025-02-25T09:48:04Z</time>
      </trkpt>
      <trkpt lat="48.08588" lon="-3.60411">
        <ele>99.3</ele>
        <time>2025-02-25T09:48:05Z</time>
      </trkpt>
      <trkpt lat="48.08589" lon="-3.60412">
        <ele>99.7</ele>
        <time>2025-02-25T09:48:06Z</time>
      </trkpt>
      <trkpt lat="48.08589" lon="-3.60413">
        <ele>99.7</ele>
        <time>2025-02-25T09:48:07Z</time>
      </trkpt>
      <trkpt lat="48.0859" lon="-3.60414">
        <ele>100.1</ele>
        <time>2025-02-25T09:48:08Z</time>
      </trkpt>
      <trkpt lat="48.0859" lon="-3.60416">
        <ele>100.1</ele>
        <time>2025-02-25T09:48:09Z</time>
      </trkpt>
      <trkpt lat="48.0859" lon="-3.60418">
        <ele>100.2</ele>
        <time>2025-02-25T09:48:10Z</time>
      </trkpt>
      <trkpt lat="48.08591" lon="-3.6042">
        <ele>100.6</ele>
        <time>2025-02-25T09:48:11Z</time>
      </trkpt>
      <trkpt lat="48.08592" lon="-3.60421">
        <ele>100.9</ele>
        <time>2025-02-25T09:48:12Z</time>
      </trkpt>
      <trkpt lat="48.08592" lon="-3.60422">
        <ele>100.9</ele>
        <time>2025-02-25T09:48:13Z</time>
      </trkpt>
      <trkpt lat="48.08592" lon="-3.60423">
        <ele>101</ele>
        <time>2025-02-25T09:48:14Z</time>
      </trkpt>
      <trkpt lat="48.08592" lon="-3.60426">
        <ele>101</ele>
        <time>2025-02-25T09:48:15Z</time>
      </trkpt>
      <trkpt lat="48.08591" lon="-3.60427">
        <ele>100.8</ele>
        <time>2025-02-25T09:48:16Z</time>
      </trkpt>
      <trkpt lat="48.08592" lon="-3.60429">
        <ele>101.1</ele>
        <time>2025-02-25T09:48:17Z</time>
      </trkpt>
      <trkpt lat="48.08593" lon="-3.60431">
        <ele>101.5</ele>
        <time>2025-02-25T09:48:18Z</time>
      </trkpt>
      <trkpt lat="48.08592" lon="-3.6043">
        <ele>101.1</ele>
        <time>2025-02-25T09:48:19Z</time>
      </trkpt>
      <trkpt lat="48.08593" lon="-3.60431">
        <ele>101.5</ele>
        <time>2025-02-25T09:48:20Z</time>
      </trkpt>
      <trkpt lat="48.08593" lon="-3.60432">
        <ele>101.5</ele>
        <time>2025-02-25T09:48:21Z</time>
      </trkpt>
      <trkpt lat="48.08593" lon="-3.60432">
        <ele>101.5</ele>
        <time>2025-02-25T09:48:22Z</time>
      </trkpt>
      <trkpt lat="48.08594" lon="-3.60433">
        <ele>101.8</ele>
        <time>2025-02-25T09:48:23Z</time>
      </trkpt>
      <trkpt lat="48.08595" lon="-3.60434">
        <ele>102.1</ele>
        <time>2025-02-25T09:48:24Z</time>
      </trkpt>
      <trkpt lat="48.08595" lon="-3.60435">
        <ele>102.2</ele>
        <time>2025-02-25T09:48:25Z</time>
      </trkpt>
      <trkpt lat="48.08596" lon="-3.60436">
        <ele>102.5</ele>
        <time>2025-02-25T09:48:26Z</time>
      </trkpt>
      <trkpt lat="48.08596" lon="-3.60437">
        <ele>102.5</ele>
        <time>2025-02-25T09:48:27Z</time>
      </trkpt>
      <trkpt lat="48.08596" lon="-3.60438">
        <ele>102.5</ele>
        <time>2025-02-25T09:48:28Z</time>
      </trkpt>
      <trkpt lat="48.08595" lon="-3.60437">
        <ele>102.2</ele>
        <time>2025-02-25T09:48:29Z</time>
      </trkpt>
      <trkpt lat="48.08595" lon="-3.60437">
        <ele>102.2</ele>
        <time>2025-02-25T09:48:30Z</time>
      </trkpt>
      <trkpt lat="48.08595" lon="-3.60437">
        <ele>102.2</ele>
        <time>2025-02-25T09:48:31Z</time>
      </trkpt>
      <trkpt lat="48.08595" lon="-3.60437">
        <ele>102.2</ele>
        <time>2025-02-25T09:48:32Z</time>
      </trkpt>
      <trkpt lat="48.08595" lon="-3.60437">
        <ele>102.2</ele>
        <time>2025-02-25T09:48:33Z</time>
      </trkpt>
      <trkpt lat="48.08595" lon="-3.60437">
        <ele>102.2</ele>
        <time>2025-02-25T09:48:34Z</time>
      </trkpt>
      <trkpt lat="48.08595" lon="-3.60437">
        <ele>102.2</ele>
        <time>2025-02-25T09:48:35Z</time>
      </trkpt>
      <trkpt lat="48.08595" lon="-3.60437">
        <ele>102.2</ele>
        <time>2025-02-25T09:48:36Z</time>
      </trkpt>
      <trkpt lat="48.08595" lon="-3.60437">
        <ele>102.2</ele>
        <time>2025-02-25T09:48:37Z</time>
      </trkpt>
      <trkpt lat="48.08595" lon="-3.60437">
        <ele>102.2</ele>
        <time>2025-02-25T09:48:38Z</time>
      </trkpt>
      <trkpt lat="48.08595" lon="-3.60437">
        <ele>102.2</ele>
        <time>2025-02-25T09:48:39Z</time>
      </trkpt>
      <trkpt lat="48.08595" lon="-3.60437">
        <ele>102.2</ele>
        <time>2025-02-25T09:48:40Z</time>
      </trkpt>
      <trkpt lat="48.08595" lon="-3.60437">
        <ele>102.2</ele>
        <time>2025-02-25T09:48:41Z</time>
      </trkpt>
      <trkpt lat="48.08595" lon="-3.60437">
        <ele>102.2</ele>
        <time>2025-02-25T09:48:42Z</time>
      </trkpt>
      <trkpt lat="48.08595" lon="-3.60437">
        <ele>102.2</ele>
        <time>2025-02-25T09:48:43Z</time>
      </trkpt>
      <trkpt lat="48.08595" lon="-3.60436">
        <ele>102.2</ele>
        <time>2025-02-25T09:48:44Z</time>
      </trkpt>
      <trkpt lat="48.08595" lon="-3.60437">
        <ele>102.2</ele>
        <time>2025-02-25T09:48:45Z</time>
      </trkpt>
      <trkpt lat="48.08595" lon="-3.60437">
        <ele>102.2</ele>
        <time>2025-02-25T09:48:46Z</time>
      </trkpt>
      <trkpt lat="48.08595" lon="-3.60436">
        <ele>102.2</ele>
        <time>2025-02-25T09:48:47Z</time>
      </trkpt>
      <trkpt lat="48.08595" lon="-3.60435">
        <ele>102.2</ele>
        <time>2025-02-25T09:48:48Z</time>
      </trkpt>
      <trkpt lat="48.08595" lon="-3.60434">
        <ele>102.1</ele>
        <time>2025-02-25T09:48:49Z</time>
      </trkpt>
      <trkpt lat="48.08595" lon="-3.60432">
        <ele>102.1</ele>
        <time>2025-02-25T09:48:50Z</time>
      </trkpt>
      <trkpt lat="48.08596" lon="-3.60431">
        <ele>102.4</ele>
        <time>2025-02-25T09:48:51Z</time>
      </trkpt>
      <trkpt lat="48.08597" lon="-3.6043">
        <ele>102.7</ele>
        <time>2025-02-25T09:48:52Z</time>
      </trkpt>
      <trkpt lat="48.08598" lon="-3.60431">
        <ele>103</ele>
        <time>2025-02-25T09:48:53Z</time>
      </trkpt>
      <trkpt lat="48.08598" lon="-3.60433">
        <ele>103</ele>
        <time>2025-02-25T09:48:54Z</time>
      </trkpt>
      <trkpt lat="48.08599" lon="-3.60435">
        <ele>103.4</ele>
        <time>2025-02-25T09:48:55Z</time>
      </trkpt>
      <trkpt lat="48.08599" lon="-3.60437">
        <ele>103.4</ele>
        <time>2025-02-25T09:48:56Z</time>
      </trkpt>
      <trkpt lat="48.08599" lon="-3.60438">
        <ele>103.4</ele>
        <time>2025-02-25T09:48:57Z</time>
      </trkpt>
      <trkpt lat="48.08598" lon="-3.60439">
        <ele>103.1</ele>
        <time>2025-02-25T09:48:58Z</time>
      </trkpt>
      <trkpt lat="48.08598" lon="-3.6044">
        <ele>103.1</ele>
        <time>2025-02-25T09:48:59Z</time>
      </trkpt>
      <trkpt lat="48.08597" lon="-3.60439">
        <ele>102.8</ele>
        <time>2025-02-25T09:49:00Z</time>
      </trkpt>
      <trkpt lat="48.08597" lon="-3.60439">
        <ele>102.8</ele>
        <time>2025-02-25T09:49:01Z</time>
      </trkpt>
      <trkpt lat="48.08597" lon="-3.60439">
        <ele>102.8</ele>
        <time>2025-02-25T09:49:02Z</time>
      </trkpt>
      <trkpt lat="48.08597" lon="-3.60439">
        <ele>102.8</ele>
        <time>2025-02-25T09:49:03Z</time>
      </trkpt>
      <trkpt lat="48.08597" lon="-3.60439">
        <ele>102.8</ele>
        <time>2025-02-25T09:49:04Z</time>
      </trkpt>
      <trkpt lat="48.08597" lon="-3.60439">
        <ele>102.8</ele>
        <time>2025-02-25T09:49:05Z</time>
      </trkpt>
      <trkpt lat="48.08597" lon="-3.60439">
        <ele>102.8</ele>
        <time>2025-02-25T09:49:06Z</time>
      </trkpt>
      <trkpt lat="48.08597" lon="-3.60439">
        <ele>102.8</ele>
        <time>2025-02-25T09:49:07Z</time>
      </trkpt>
      <trkpt lat="48.08597" lon="-3.60439">
        <ele>102.8</ele>
        <time>2025-02-25T09:49:08Z</time>
      </trkpt>
      <trkpt lat="48.08597" lon="-3.60439">
        <ele>102.8</ele>
        <time>2025-02-25T09:49:09Z</time>
      </trkpt>
      <trkpt lat="48.08597" lon="-3.60439">
        <ele>102.8</ele>
        <time>2025-02-25T09:49:10Z</time>
      </trkpt>
      <trkpt lat="48.08597" lon="-3.60439">
        <ele>102.8</ele>
        <time>2025-02-25T09:49:11Z</time>
      </trkpt>
      <trkpt lat="48.08597" lon="-3.60439">
        <ele>102.8</ele>
        <time>2025-02-25T09:49:12Z</time>
      </trkpt>
      <trkpt lat="48.08595" lon="-3.60439">
        <ele>102.2</ele>
        <time>2025-02-25T09:49:13Z</time>
      </trkpt>
      <trkpt lat="48.08595" lon="-3.60439">
        <ele>102.2</ele>
        <time>2025-02-25T09:49:14Z</time>
      </trkpt>
      <trkpt lat="48.08594" lon="-3.60441">
        <ele>102</ele>
        <time>2025-02-25T09:49:15Z</time>
      </trkpt>
      <trkpt lat="48.08595" lon="-3.60442">
        <ele>102.3</ele>
        <time>2025-02-25T09:49:16Z</time>
      </trkpt>
      <trkpt lat="48.08594" lon="-3.60444">
        <ele>102.1</ele>
        <time>2025-02-25T09:49:17Z</time>
      </trkpt>
      <trkpt lat="48.08594" lon="-3.60445">
        <ele>102.1</ele>
        <time>2025-02-25T09:49:18Z</time>
      </trkpt>
      <trkpt lat="48.08594" lon="-3.60447">
        <ele>102.1</ele>
        <time>2025-02-25T09:49:19Z</time>
      </trkpt>
      <trkpt lat="48.08595" lon="-3.60448">
        <ele>102.4</ele>
        <time>2025-02-25T09:49:20Z</time>
      </trkpt>
      <trkpt lat="48.08596" lon="-3.60449">
        <ele>102.7</ele>
        <time>2025-02-25T09:49:21Z</time>
      </trkpt>
      <trkpt lat="48.08597" lon="-3.6045">
        <ele>102.9</ele>
        <time>2025-02-25T09:49:22Z</time>
      </trkpt>
      <trkpt lat="48.08598" lon="-3.60452">
        <ele>103.2</ele>
        <time>2025-02-25T09:49:23Z</time>
      </trkpt>
      <trkpt lat="48.08599" lon="-3.60451">
        <ele>103.5</ele>
        <time>2025-02-25T09:49:24Z</time>
      </trkpt>
      <trkpt lat="48.086" lon="-3.6045">
        <ele>103.8</ele>
        <time>2025-02-25T09:49:25Z</time>
      </trkpt>
      <trkpt lat="48.086" lon="-3.60449">
        <ele>103.8</ele>
        <time>2025-02-25T09:49:26Z</time>
      </trkpt>
      <trkpt lat="48.086" lon="-3.60448">
        <ele>103.8</ele>
        <time>2025-02-25T09:49:27Z</time>
      </trkpt>
      <trkpt lat="48.08601" lon="-3.60446">
        <ele>104.1</ele>
        <time>2025-02-25T09:49:28Z</time>
      </trkpt>
      <trkpt lat="48.08601" lon="-3.60445">
        <ele>104.1</ele>
        <time>2025-02-25T09:49:29Z</time>
      </trkpt>
      <trkpt lat="48.08601" lon="-3.60443">
        <ele>104.1</ele>
        <time>2025-02-25T09:49:30Z</time>
      </trkpt>
      <trkpt lat="48.08601" lon="-3.60442">
        <ele>104.1</ele>
        <time>2025-02-25T09:49:31Z</time>
      </trkpt>
      <trkpt lat="48.086" lon="-3.60441">
        <ele>103.8</ele>
        <time>2025-02-25T09:49:32Z</time>
      </trkpt>
      <trkpt lat="48.086" lon="-3.60444">
        <ele>103.8</ele>
        <time>2025-02-25T09:49:33Z</time>
      </trkpt>
      <trkpt lat="48.08601" lon="-3.60444">
        <ele>104.1</ele>
        <time>2025-02-25T09:49:34Z</time>
      </trkpt>
      <trkpt lat="48.08603" lon="-3.60445">
        <ele>104.7</ele>
        <time>2025-02-25T09:49:35Z</time>
      </trkpt>
      <trkpt lat="48.08603" lon="-3.60447">
        <ele>104.6</ele>
        <time>2025-02-25T09:49:36Z</time>
      </trkpt>
      <trkpt lat="48.08604" lon="-3.60448">
        <ele>104.9</ele>
        <time>2025-02-25T09:49:37Z</time>
      </trkpt>
      <trkpt lat="48.08605" lon="-3.6045">
        <ele>105.1</ele>
        <time>2025-02-25T09:49:38Z</time>
      </trkpt>
      <trkpt lat="48.08605" lon="-3.60452">
        <ele>105.1</ele>
        <time>2025-02-25T09:49:39Z</time>
      </trkpt>
      <trkpt lat="48.08606" lon="-3.60453">
        <ele>105.3</ele>
        <time>2025-02-25T09:49:40Z</time>
      </trkpt>
      <trkpt lat="48.08607" lon="-3.60454">
        <ele>105.6</ele>
        <time>2025-02-25T09:49:41Z</time>
      </trkpt>
      <trkpt lat="48.08607" lon="-3.60455">
        <ele>105.5</ele>
        <time>2025-02-25T09:49:42Z</time>
      </trkpt>
      <trkpt lat="48.08608" lon="-3.60456">
        <ele>105.8</ele>
        <time>2025-02-25T09:49:43Z</time>
      </trkpt>
      <trkpt lat="48.08609" lon="-3.60457">
        <ele>106</ele>
        <time>2025-02-25T09:49:44Z</time>
      </trkpt>
      <trkpt lat="48.08609" lon="-3.60458">
        <ele>106</ele>
        <time>2025-02-25T09:49:45Z</time>
      </trkpt>
      <trkpt lat="48.0861" lon="-3.60459">
        <ele>106.2</ele>
        <time>2025-02-25T09:49:46Z</time>
      </trkpt>
      <trkpt lat="48.08611" lon="-3.60459">
        <ele>106.4</ele>
        <time>2025-02-25T09:49:47Z</time>
      </trkpt>
      <trkpt lat="48.08612" lon="-3.60459">
        <ele>106.8</ele>
        <time>2025-02-25T09:49:48Z</time>
      </trkpt>
      <trkpt lat="48.08612" lon="-3.6046">
        <ele>106.7</ele>
        <time>2025-02-25T09:49:49Z</time>
      </trkpt>
      <trkpt lat="48.08613" lon="-3.6046">
        <ele>107.1</ele>
        <time>2025-02-25T09:49:50Z</time>
      </trkpt>
      <trkpt lat="48.08612" lon="-3.60463">
        <ele>106.6</ele>
        <time>2025-02-25T09:49:51Z</time>
      </trkpt>
      <trkpt lat="48.08611" lon="-3.60465">
        <ele>106.2</ele>
        <time>2025-02-25T09:49:52Z</time>
      </trkpt>
      <trkpt lat="48.08609" lon="-3.60467">
        <ele>105.7</ele>
        <time>2025-02-25T09:49:53Z</time>
      </trkpt>
      <trkpt lat="48.08609" lon="-3.60468">
        <ele>105.7</ele>
        <time>2025-02-25T09:49:54Z</time>
      </trkpt>
      <trkpt lat="48.08609" lon="-3.6047">
        <ele>105.6</ele>
        <time>2025-02-25T09:49:55Z</time>
      </trkpt>
      <trkpt lat="48.08609" lon="-3.60472">
        <ele>105.6</ele>
        <time>2025-02-25T09:49:56Z</time>
      </trkpt>
      <trkpt lat="48.08609" lon="-3.60473">
        <ele>105.5</ele>
        <time>2025-02-25T09:49:57Z</time>
      </trkpt>
      <trkpt lat="48.08609" lon="-3.60476">
        <ele>105.6</ele>
        <time>2025-02-25T09:49:58Z</time>
      </trkpt>
      <trkpt lat="48.08609" lon="-3.60478">
        <ele>105.6</ele>
        <time>2025-02-25T09:49:59Z</time>
      </trkpt>
      <trkpt lat="48.08608" lon="-3.6048">
        <ele>105.4</ele>
        <time>2025-02-25T09:50:00Z</time>
      </trkpt>
      <trkpt lat="48.08608" lon="-3.60482">
        <ele>105.4</ele>
        <time>2025-02-25T09:50:01Z</time>
      </trkpt>
      <trkpt lat="48.08608" lon="-3.60483">
        <ele>105.4</ele>
        <time>2025-02-25T09:50:02Z</time>
      </trkpt>
      <trkpt lat="48.08608" lon="-3.60484">
        <ele>105.4</ele>
        <time>2025-02-25T09:50:03Z</time>
      </trkpt>
      <trkpt lat="48.08608" lon="-3.60485">
        <ele>105.4</ele>
        <time>2025-02-25T09:50:04Z</time>
      </trkpt>
      <trkpt lat="48.08608" lon="-3.60487">
        <ele>105.4</ele>
        <time>2025-02-25T09:50:05Z</time>
      </trkpt>
      <trkpt lat="48.08608" lon="-3.60488">
        <ele>105.4</ele>
        <time>2025-02-25T09:50:06Z</time>
      </trkpt>
      <trkpt lat="48.08608" lon="-3.60489">
        <ele>105.4</ele>
        <time>2025-02-25T09:50:07Z</time>
      </trkpt>
      <trkpt lat="48.08608" lon="-3.6049">
        <ele>105.4</ele>
        <time>2025-02-25T09:50:08Z</time>
      </trkpt>
      <trkpt lat="48.08608" lon="-3.60492">
        <ele>105.4</ele>
        <time>2025-02-25T09:50:09Z</time>
      </trkpt>
      <trkpt lat="48.08607" lon="-3.60494">
        <ele>105.2</ele>
        <time>2025-02-25T09:50:10Z</time>
      </trkpt>
      <trkpt lat="48.08607" lon="-3.60495">
        <ele>105.2</ele>
        <time>2025-02-25T09:50:11Z</time>
      </trkpt>
      <trkpt lat="48.08607" lon="-3.60497">
        <ele>105.2</ele>
        <time>2025-02-25T09:50:12Z</time>
      </trkpt>
      <trkpt lat="48.08608" lon="-3.60499">
        <ele>105.4</ele>
        <time>2025-02-25T09:50:13Z</time>
      </trkpt>
      <trkpt lat="48.08608" lon="-3.605">
        <ele>105.4</ele>
        <time>2025-02-25T09:50:14Z</time>
      </trkpt>
      <trkpt lat="48.08608" lon="-3.60503">
        <ele>105.3</ele>
        <time>2025-02-25T09:50:15Z</time>
      </trkpt>
      <trkpt lat="48.08608" lon="-3.60505">
        <ele>105.3</ele>
        <time>2025-02-25T09:50:16Z</time>
      </trkpt>
      <trkpt lat="48.08608" lon="-3.60507">
        <ele>105.2</ele>
        <time>2025-02-25T09:50:17Z</time>
      </trkpt>
      <trkpt lat="48.08609" lon="-3.60509">
        <ele>105.3</ele>
        <time>2025-02-25T09:50:18Z</time>
      </trkpt>
      <trkpt lat="48.08609" lon="-3.60512">
        <ele>105.2</ele>
        <time>2025-02-25T09:50:19Z</time>
      </trkpt>
      <trkpt lat="48.08609" lon="-3.60514">
        <ele>105.2</ele>
        <time>2025-02-25T09:50:20Z</time>
      </trkpt>
      <trkpt lat="48.0861" lon="-3.60515">
        <ele>105.3</ele>
        <time>2025-02-25T09:50:21Z</time>
      </trkpt>
      <trkpt lat="48.08609" lon="-3.60516">
        <ele>105.1</ele>
        <time>2025-02-25T09:50:22Z</time>
      </trkpt>
      <trkpt lat="48.08609" lon="-3.60518">
        <ele>105</ele>
        <time>2025-02-25T09:50:23Z</time>
      </trkpt>
      <trkpt lat="48.0861" lon="-3.60521">
        <ele>105.1</ele>
        <time>2025-02-25T09:50:24Z</time>
      </trkpt>
      <trkpt lat="48.0861" lon="-3.60523">
        <ele>105</ele>
        <time>2025-02-25T09:50:25Z</time>
      </trkpt>
      <trkpt lat="48.0861" lon="-3.60525">
        <ele>104.9</ele>
        <time>2025-02-25T09:50:26Z</time>
      </trkpt>
      <trkpt lat="48.0861" lon="-3.60527">
        <ele>104.9</ele>
        <time>2025-02-25T09:50:27Z</time>
      </trkpt>
      <trkpt lat="48.0861" lon="-3.60529">
        <ele>104.8</ele>
        <time>2025-02-25T09:50:28Z</time>
      </trkpt>
      <trkpt lat="48.0861" lon="-3.6053">
        <ele>104.7</ele>
        <time>2025-02-25T09:50:29Z</time>
      </trkpt>
      <trkpt lat="48.0861" lon="-3.60533">
        <ele>104.5</ele>
        <time>2025-02-25T09:50:30Z</time>
      </trkpt>
      <trkpt lat="48.08611" lon="-3.60534">
        <ele>104.5</ele>
        <time>2025-02-25T09:50:31Z</time>
      </trkpt>
      <trkpt lat="48.08612" lon="-3.60535">
        <ele>104.7</ele>
        <time>2025-02-25T09:50:32Z</time>
      </trkpt>
      <trkpt lat="48.08612" lon="-3.60537">
        <ele>104.6</ele>
        <time>2025-02-25T09:50:33Z</time>
      </trkpt>
      <trkpt lat="48.08613" lon="-3.60538">
        <ele>104.7</ele>
        <time>2025-02-25T09:50:34Z</time>
      </trkpt>
      <trkpt lat="48.08613" lon="-3.6054">
        <ele>104.6</ele>
        <time>2025-02-25T09:50:35Z</time>
      </trkpt>
      <trkpt lat="48.08613" lon="-3.60541">
        <ele>104.5</ele>
        <time>2025-02-25T09:50:36Z</time>
      </trkpt>
      <trkpt lat="48.08613" lon="-3.60543">
        <ele>104.4</ele>
        <time>2025-02-25T09:50:37Z</time>
      </trkpt>
      <trkpt lat="48.08614" lon="-3.60544">
        <ele>104.6</ele>
        <time>2025-02-25T09:50:38Z</time>
      </trkpt>
      <trkpt lat="48.08613" lon="-3.60546">
        <ele>104.2</ele>
        <time>2025-02-25T09:50:39Z</time>
      </trkpt>
      <trkpt lat="48.08613" lon="-3.60548">
        <ele>104</ele>
        <time>2025-02-25T09:50:40Z</time>
      </trkpt>
      <trkpt lat="48.08613" lon="-3.6055">
        <ele>103.9</ele>
        <time>2025-02-25T09:50:41Z</time>
      </trkpt>
      <trkpt lat="48.08613" lon="-3.60551">
        <ele>103.8</ele>
        <time>2025-02-25T09:50:42Z</time>
      </trkpt>
      <trkpt lat="48.08613" lon="-3.60553">
        <ele>103.7</ele>
        <time>2025-02-25T09:50:43Z</time>
      </trkpt>
      <trkpt lat="48.08614" lon="-3.60554">
        <ele>103.8</ele>
        <time>2025-02-25T09:50:44Z</time>
      </trkpt>
      <trkpt lat="48.08614" lon="-3.60556">
        <ele>103.7</ele>
        <time>2025-02-25T09:50:45Z</time>
      </trkpt>
      <trkpt lat="48.08614" lon="-3.60558">
        <ele>103.5</ele>
        <time>2025-02-25T09:50:46Z</time>
      </trkpt>
      <trkpt lat="48.08614" lon="-3.60559">
        <ele>103.5</ele>
        <time>2025-02-25T09:50:47Z</time>
      </trkpt>
      <trkpt lat="48.08614" lon="-3.6056">
        <ele>103.4</ele>
        <time>2025-02-25T09:50:48Z</time>
      </trkpt>
      <trkpt lat="48.08615" lon="-3.60562">
        <ele>103.5</ele>
        <time>2025-02-25T09:50:49Z</time>
      </trkpt>
      <trkpt lat="48.08615" lon="-3.60564">
        <ele>103.3</ele>
        <time>2025-02-25T09:50:50Z</time>
      </trkpt>
      <trkpt lat="48.08616" lon="-3.60566">
        <ele>103.3</ele>
        <time>2025-02-25T09:50:51Z</time>
      </trkpt>
      <trkpt lat="48.08617" lon="-3.60567">
        <ele>103.5</ele>
        <time>2025-02-25T09:50:52Z</time>
      </trkpt>
      <trkpt lat="48.08619" lon="-3.60567">
        <ele>103.9</ele>
        <time>2025-02-25T09:50:53Z</time>
      </trkpt>
      <trkpt lat="48.0862" lon="-3.60568">
        <ele>104.1</ele>
        <time>2025-02-25T09:50:54Z</time>
      </trkpt>
      <trkpt lat="48.0862" lon="-3.60569">
        <ele>104</ele>
        <time>2025-02-25T09:50:55Z</time>
      </trkpt>
      <trkpt lat="48.08621" lon="-3.60571">
        <ele>104</ele>
        <time>2025-02-25T09:50:56Z</time>
      </trkpt>
      <trkpt lat="48.08621" lon="-3.60572">
        <ele>103.9</ele>
        <time>2025-02-25T09:50:57Z</time>
      </trkpt>
      <trkpt lat="48.08623" lon="-3.60573">
        <ele>104.2</ele>
        <time>2025-02-25T09:50:58Z</time>
      </trkpt>
      <trkpt lat="48.08624" lon="-3.60574">
        <ele>104.3</ele>
        <time>2025-02-25T09:50:59Z</time>
      </trkpt>
      <trkpt lat="48.08624" lon="-3.60576">
        <ele>104.1</ele>
        <time>2025-02-25T09:51:00Z</time>
      </trkpt>
      <trkpt lat="48.08625" lon="-3.60577">
        <ele>104.2</ele>
        <time>2025-02-25T09:51:01Z</time>
      </trkpt>
      <trkpt lat="48.08626" lon="-3.60578">
        <ele>104.3</ele>
        <time>2025-02-25T09:51:02Z</time>
      </trkpt>
      <trkpt lat="48.08627" lon="-3.6058">
        <ele>104.2</ele>
        <time>2025-02-25T09:51:03Z</time>
      </trkpt>
      <trkpt lat="48.08628" lon="-3.60581">
        <ele>104.3</ele>
        <time>2025-02-25T09:51:04Z</time>
      </trkpt>
      <trkpt lat="48.08629" lon="-3.60582">
        <ele>104.4</ele>
        <time>2025-02-25T09:51:05Z</time>
      </trkpt>
      <trkpt lat="48.08629" lon="-3.60583">
        <ele>104.3</ele>
        <time>2025-02-25T09:51:06Z</time>
      </trkpt>
      <trkpt lat="48.08631" lon="-3.60584">
        <ele>104.5</ele>
        <time>2025-02-25T09:51:07Z</time>
      </trkpt>
      <trkpt lat="48.08632" lon="-3.60584">
        <ele>104.7</ele>
        <time>2025-02-25T09:51:08Z</time>
      </trkpt>
      <trkpt lat="48.08633" lon="-3.60585">
        <ele>104.8</ele>
        <time>2025-02-25T09:51:09Z</time>
      </trkpt>
      <trkpt lat="48.08633" lon="-3.60586">
        <ele>104.7</ele>
        <time>2025-02-25T09:51:10Z</time>
      </trkpt>
      <trkpt lat="48.08634" lon="-3.60586">
        <ele>104.9</ele>
        <time>2025-02-25T09:51:11Z</time>
      </trkpt>
      <trkpt lat="48.08635" lon="-3.60587">
        <ele>104.9</ele>
        <time>2025-02-25T09:51:12Z</time>
      </trkpt>
      <trkpt lat="48.08636" lon="-3.60588">
        <ele>104.9</ele>
        <time>2025-02-25T09:51:13Z</time>
      </trkpt>
      <trkpt lat="48.08638" lon="-3.60587">
        <ele>105.3</ele>
        <time>2025-02-25T09:51:14Z</time>
      </trkpt>
      <trkpt lat="48.08639" lon="-3.60588">
        <ele>105.4</ele>
        <time>2025-02-25T09:51:15Z</time>
      </trkpt>
      <trkpt lat="48.0864" lon="-3.60588">
        <ele>105.6</ele>
        <time>2025-02-25T09:51:16Z</time>
      </trkpt>
      <trkpt lat="48.08642" lon="-3.60588">
        <ele>106.1</ele>
        <time>2025-02-25T09:51:17Z</time>
      </trkpt>
      <trkpt lat="48.08643" lon="-3.60588">
        <ele>106.3</ele>
        <time>2025-02-25T09:51:18Z</time>
      </trkpt>
      <trkpt lat="48.08645" lon="-3.60588">
        <ele>106.8</ele>
        <time>2025-02-25T09:51:19Z</time>
      </trkpt>
      <trkpt lat="48.08646" lon="-3.60589">
        <ele>106.8</ele>
        <time>2025-02-25T09:51:20Z</time>
      </trkpt>
      <trkpt lat="48.08647" lon="-3.60589">
        <ele>107</ele>
        <time>2025-02-25T09:51:21Z</time>
      </trkpt>
      <trkpt lat="48.08648" lon="-3.6059">
        <ele>107.1</ele>
        <time>2025-02-25T09:51:22Z</time>
      </trkpt>
      <trkpt lat="48.08649" lon="-3.6059">
        <ele>107.3</ele>
        <time>2025-02-25T09:51:23Z</time>
      </trkpt>
      <trkpt lat="48.0865" lon="-3.60591">
        <ele>107.4</ele>
        <time>2025-02-25T09:51:24Z</time>
      </trkpt>
      <trkpt lat="48.08651" lon="-3.60591">
        <ele>107.6</ele>
        <time>2025-02-25T09:51:25Z</time>
      </trkpt>
      <trkpt lat="48.08652" lon="-3.60591">
        <ele>107.8</ele>
        <time>2025-02-25T09:51:26Z</time>
      </trkpt>
      <trkpt lat="48.08654" lon="-3.60591">
        <ele>108.3</ele>
        <time>2025-02-25T09:51:27Z</time>
      </trkpt>
      <trkpt lat="48.08654" lon="-3.60591">
        <ele>108.3</ele>
        <time>2025-02-25T09:51:28Z</time>
      </trkpt>
      <trkpt lat="48.08655" lon="-3.60592">
        <ele>108.3</ele>
        <time>2025-02-25T09:51:29Z</time>
      </trkpt>
      <trkpt lat="48.08656" lon="-3.60593">
        <ele>108.3</ele>
        <time>2025-02-25T09:51:30Z</time>
      </trkpt>
      <trkpt lat="48.08657" lon="-3.60593">
        <ele>108.5</ele>
        <time>2025-02-25T09:51:31Z</time>
      </trkpt>
      <trkpt lat="48.08658" lon="-3.60593">
        <ele>108.7</ele>
        <time>2025-02-25T09:51:32Z</time>
      </trkpt>
      <trkpt lat="48.08659" lon="-3.60593">
        <ele>108.9</ele>
        <time>2025-02-25T09:51:33Z</time>
      </trkpt>
      <trkpt lat="48.0866" lon="-3.60593">
        <ele>109.1</ele>
        <time>2025-02-25T09:51:34Z</time>
      </trkpt>
      <trkpt lat="48.08661" lon="-3.60593">
        <ele>109.3</ele>
        <time>2025-02-25T09:51:35Z</time>
      </trkpt>
      <trkpt lat="48.08662" lon="-3.60594">
        <ele>109.3</ele>
        <time>2025-02-25T09:51:36Z</time>
      </trkpt>
      <trkpt lat="48.08664" lon="-3.60593">
        <ele>110</ele>
        <time>2025-02-25T09:51:37Z</time>
      </trkpt>
      <trkpt lat="48.08665" lon="-3.60593">
        <ele>110.2</ele>
        <time>2025-02-25T09:51:38Z</time>
      </trkpt>
      <trkpt lat="48.08666" lon="-3.60593">
        <ele>110.4</ele>
        <time>2025-02-25T09:51:39Z</time>
      </trkpt>
      <trkpt lat="48.08667" lon="-3.60594">
        <ele>110.3</ele>
        <time>2025-02-25T09:51:40Z</time>
      </trkpt>
      <trkpt lat="48.08668" lon="-3.60593">
        <ele>110.7</ele>
        <time>2025-02-25T09:51:41Z</time>
      </trkpt>
      <trkpt lat="48.08669" lon="-3.60594">
        <ele>110.5</ele>
        <time>2025-02-25T09:51:42Z</time>
      </trkpt>
      <trkpt lat="48.0867" lon="-3.60594">
        <ele>110.6</ele>
        <time>2025-02-25T09:51:43Z</time>
      </trkpt>
      <trkpt lat="48.08671" lon="-3.60594">
        <ele>110.6</ele>
        <time>2025-02-25T09:51:44Z</time>
      </trkpt>
      <trkpt lat="48.08672" lon="-3.60594">
        <ele>110.7</ele>
        <time>2025-02-25T09:51:45Z</time>
      </trkpt>
      <trkpt lat="48.08673" lon="-3.60594">
        <ele>110.8</ele>
        <time>2025-02-25T09:51:46Z</time>
      </trkpt>
      <trkpt lat="48.08674" lon="-3.60594">
        <ele>110.8</ele>
        <time>2025-02-25T09:51:47Z</time>
      </trkpt>
      <trkpt lat="48.08675" lon="-3.60595">
        <ele>110.7</ele>
        <time>2025-02-25T09:51:48Z</time>
      </trkpt>
      <trkpt lat="48.08675" lon="-3.60595">
        <ele>110.7</ele>
        <time>2025-02-25T09:51:49Z</time>
      </trkpt>
      <trkpt lat="48.08676" lon="-3.60595">
        <ele>110.7</ele>
        <time>2025-02-25T09:51:50Z</time>
      </trkpt>
      <trkpt lat="48.08677" lon="-3.60596">
        <ele>110.6</ele>
        <time>2025-02-25T09:51:51Z</time>
      </trkpt>
      <trkpt lat="48.08678" lon="-3.60596">
        <ele>110.6</ele>
        <time>2025-02-25T09:51:52Z</time>
      </trkpt>
      <trkpt lat="48.08679" lon="-3.60596">
        <ele>110.7</ele>
        <time>2025-02-25T09:51:53Z</time>
      </trkpt>
      <trkpt lat="48.0868" lon="-3.60596">
        <ele>110.8</ele>
        <time>2025-02-25T09:51:54Z</time>
      </trkpt>
      <trkpt lat="48.08681" lon="-3.60595">
        <ele>111.1</ele>
        <time>2025-02-25T09:51:55Z</time>
      </trkpt>
      <trkpt lat="48.08682" lon="-3.60595">
        <ele>111.2</ele>
        <time>2025-02-25T09:51:56Z</time>
      </trkpt>
      <trkpt lat="48.08683" lon="-3.60595">
        <ele>111.2</ele>
        <time>2025-02-25T09:51:57Z</time>
      </trkpt>
      <trkpt lat="48.08684" lon="-3.60594">
        <ele>111.6</ele>
        <time>2025-02-25T09:51:58Z</time>
      </trkpt>
      <trkpt lat="48.08685" lon="-3.60594">
        <ele>111.6</ele>
        <time>2025-02-25T09:51:59Z</time>
      </trkpt>
      <trkpt lat="48.08686" lon="-3.60593">
        <ele>112</ele>
        <time>2025-02-25T09:52:00Z</time>
      </trkpt>
      <trkpt lat="48.08686" lon="-3.60592">
        <ele>112.2</ele>
        <time>2025-02-25T09:52:01Z</time>
      </trkpt>
      <trkpt lat="48.08688" lon="-3.6059">
        <ele>112.9</ele>
        <time>2025-02-25T09:52:02Z</time>
      </trkpt>
      <trkpt lat="48.08689" lon="-3.6059">
        <ele>112.9</ele>
        <time>2025-02-25T09:52:03Z</time>
      </trkpt>
      <trkpt lat="48.08691" lon="-3.6059">
        <ele>113.1</ele>
        <time>2025-02-25T09:52:04Z</time>
      </trkpt>
      <trkpt lat="48.08692" lon="-3.60589">
        <ele>113.4</ele>
        <time>2025-02-25T09:52:05Z</time>
      </trkpt>
      <trkpt lat="48.08693" lon="-3.6059">
        <ele>113.2</ele>
        <time>2025-02-25T09:52:06Z</time>
      </trkpt>
      <trkpt lat="48.08694" lon="-3.60589">
        <ele>113.5</ele>
        <time>2025-02-25T09:52:07Z</time>
      </trkpt>
      <trkpt lat="48.08694" lon="-3.60588">
        <ele>113.8</ele>
        <time>2025-02-25T09:52:08Z</time>
      </trkpt>
      <trkpt lat="48.08694" lon="-3.60586">
        <ele>114.3</ele>
        <time>2025-02-25T09:52:09Z</time>
      </trkpt>
      <trkpt lat="48.08694" lon="-3.60584">
        <ele>114.8</ele>
        <time>2025-02-25T09:52:10Z</time>
      </trkpt>
      <trkpt lat="48.08695" lon="-3.60583">
        <ele>115.1</ele>
        <time>2025-02-25T09:52:11Z</time>
      </trkpt>
      <trkpt lat="48.08697" lon="-3.60583">
        <ele>115.1</ele>
        <time>2025-02-25T09:52:12Z</time>
      </trkpt>
      <trkpt lat="48.08698" lon="-3.60582">
        <ele>115.3</ele>
        <time>2025-02-25T09:52:13Z</time>
      </trkpt>
      <trkpt lat="48.087" lon="-3.60582">
        <ele>115.4</ele>
        <time>2025-02-25T09:52:14Z</time>
      </trkpt>
      <trkpt lat="48.087" lon="-3.60582">
        <ele>115.4</ele>
        <time>2025-02-25T09:52:15Z</time>
      </trkpt>
      <trkpt lat="48.087" lon="-3.60584">
        <ele>115</ele>
        <time>2025-02-25T09:52:16Z</time>
      </trkpt>
      <trkpt lat="48.08701" lon="-3.60585">
        <ele>114.8</ele>
        <time>2025-02-25T09:52:17Z</time>
      </trkpt>
      <trkpt lat="48.08701" lon="-3.60586">
        <ele>114.6</ele>
        <time>2025-02-25T09:52:18Z</time>
      </trkpt>
      <trkpt lat="48.08705" lon="-3.60585">
        <ele>115</ele>
        <time>2025-02-25T09:52:19Z</time>
      </trkpt>
      <trkpt lat="48.08707" lon="-3.60584">
        <ele>115.3</ele>
        <time>2025-02-25T09:52:20Z</time>
      </trkpt>
      <trkpt lat="48.08708" lon="-3.60585">
        <ele>115.1</ele>
        <time>2025-02-25T09:52:21Z</time>
      </trkpt>
      <trkpt lat="48.08709" lon="-3.60585">
        <ele>115.1</ele>
        <time>2025-02-25T09:52:22Z</time>
      </trkpt>
      <trkpt lat="48.0871" lon="-3.60584">
        <ele>115.4</ele>
        <time>2025-02-25T09:52:23Z</time>
      </trkpt>
      <trkpt lat="48.08711" lon="-3.60584">
        <ele>115.4</ele>
        <time>2025-02-25T09:52:24Z</time>
      </trkpt>
      <trkpt lat="48.08712" lon="-3.60584">
        <ele>115.5</ele>
        <time>2025-02-25T09:52:25Z</time>
      </trkpt>
      <trkpt lat="48.08712" lon="-3.60585">
        <ele>115.2</ele>
        <time>2025-02-25T09:52:26Z</time>
      </trkpt>
      <trkpt lat="48.08713" lon="-3.60585">
        <ele>115.2</ele>
        <time>2025-02-25T09:52:27Z</time>
      </trkpt>
      <trkpt lat="48.08713" lon="-3.60585">
        <ele>115.2</ele>
        <time>2025-02-25T09:52:28Z</time>
      </trkpt>
      <trkpt lat="48.08714" lon="-3.60586">
        <ele>115</ele>
        <time>2025-02-25T09:52:29Z</time>
      </trkpt>
      <trkpt lat="48.08715" lon="-3.60586">
        <ele>115.1</ele>
        <time>2025-02-25T09:52:30Z</time>
      </trkpt>
      <trkpt lat="48.08716" lon="-3.60586">
        <ele>115.1</ele>
        <time>2025-02-25T09:52:31Z</time>
      </trkpt>
      <trkpt lat="48.08717" lon="-3.60587">
        <ele>114.9</ele>
        <time>2025-02-25T09:52:32Z</time>
      </trkpt>
      <trkpt lat="48.08718" lon="-3.60588">
        <ele>114.7</ele>
        <time>2025-02-25T09:52:33Z</time>
      </trkpt>
      <trkpt lat="48.08719" lon="-3.60588">
        <ele>114.7</ele>
        <time>2025-02-25T09:52:34Z</time>
      </trkpt>
      <trkpt lat="48.0872" lon="-3.60588">
        <ele>114.7</ele>
        <time>2025-02-25T09:52:35Z</time>
      </trkpt>
      <trkpt lat="48.08721" lon="-3.60588">
        <ele>114.8</ele>
        <time>2025-02-25T09:52:36Z</time>
      </trkpt>
      <trkpt lat="48.08722" lon="-3.6059">
        <ele>114.3</ele>
        <time>2025-02-25T09:52:37Z</time>
      </trkpt>
      <trkpt lat="48.08723" lon="-3.6059">
        <ele>114.3</ele>
        <time>2025-02-25T09:52:38Z</time>
      </trkpt>
      <trkpt lat="48.08723" lon="-3.60592">
        <ele>113.8</ele>
        <time>2025-02-25T09:52:39Z</time>
      </trkpt>
      <trkpt lat="48.08725" lon="-3.60593">
        <ele>113.6</ele>
        <time>2025-02-25T09:52:40Z</time>
      </trkpt>
      <trkpt lat="48.08726" lon="-3.60592">
        <ele>113.9</ele>
        <time>2025-02-25T09:52:41Z</time>
      </trkpt>
      <trkpt lat="48.08727" lon="-3.60592">
        <ele>113.9</ele>
        <time>2025-02-25T09:52:42Z</time>
      </trkpt>
      <trkpt lat="48.08728" lon="-3.60593">
        <ele>113.7</ele>
        <time>2025-02-25T09:52:43Z</time>
      </trkpt>
      <trkpt lat="48.08729" lon="-3.60593">
        <ele>113.7</ele>
        <time>2025-02-25T09:52:44Z</time>
      </trkpt>
      <trkpt lat="48.0873" lon="-3.60594">
        <ele>113.5</ele>
        <time>2025-02-25T09:52:45Z</time>
      </trkpt>
      <trkpt lat="48.08731" lon="-3.60595">
        <ele>113.3</ele>
        <time>2025-02-25T09:52:46Z</time>
      </trkpt>
      <trkpt lat="48.08732" lon="-3.60596">
        <ele>113.1</ele>
        <time>2025-02-25T09:52:47Z</time>
      </trkpt>
      <trkpt lat="48.08733" lon="-3.60597">
        <ele>112.9</ele>
        <time>2025-02-25T09:52:48Z</time>
      </trkpt>
      <trkpt lat="48.08734" lon="-3.60597">
        <ele>113</ele>
        <time>2025-02-25T09:52:49Z</time>
      </trkpt>
      <trkpt lat="48.08735" lon="-3.60597">
        <ele>113</ele>
        <time>2025-02-25T09:52:50Z</time>
      </trkpt>
      <trkpt lat="48.08736" lon="-3.60599">
        <ele>112.6</ele>
        <time>2025-02-25T09:52:51Z</time>
      </trkpt>
      <trkpt lat="48.08737" lon="-3.606">
        <ele>112.4</ele>
        <time>2025-02-25T09:52:52Z</time>
      </trkpt>
      <trkpt lat="48.08738" lon="-3.60599">
        <ele>112.7</ele>
        <time>2025-02-25T09:52:53Z</time>
      </trkpt>
      <trkpt lat="48.0874" lon="-3.60599">
        <ele>112.8</ele>
        <time>2025-02-25T09:52:54Z</time>
      </trkpt>
      <trkpt lat="48.0874" lon="-3.606">
        <ele>112.6</ele>
        <time>2025-02-25T09:52:55Z</time>
      </trkpt>
      <trkpt lat="48.08741" lon="-3.60601">
        <ele>112.4</ele>
        <time>2025-02-25T09:52:56Z</time>
      </trkpt>
      <trkpt lat="48.08743" lon="-3.60601">
        <ele>112.5</ele>
        <time>2025-02-25T09:52:57Z</time>
      </trkpt>
      <trkpt lat="48.08744" lon="-3.60601">
        <ele>112.5</ele>
        <time>2025-02-25T09:52:58Z</time>
      </trkpt>
      <trkpt lat="48.08745" lon="-3.60601">
        <ele>112.6</ele>
        <time>2025-02-25T09:52:59Z</time>
      </trkpt>
      <trkpt lat="48.08746" lon="-3.60601">
        <ele>112.6</ele>
        <time>2025-02-25T09:53:00Z</time>
      </trkpt>
      <trkpt lat="48.08747" lon="-3.60602">
        <ele>112.5</ele>
        <time>2025-02-25T09:53:01Z</time>
      </trkpt>
      <trkpt lat="48.08748" lon="-3.60602">
        <ele>112.5</ele>
        <time>2025-02-25T09:53:02Z</time>
      </trkpt>
      <trkpt lat="48.08748" lon="-3.60603">
        <ele>112.4</ele>
        <time>2025-02-25T09:53:03Z</time>
      </trkpt>
      <trkpt lat="48.08749" lon="-3.60603">
        <ele>112.4</ele>
        <time>2025-02-25T09:53:04Z</time>
      </trkpt>
      <trkpt lat="48.08751" lon="-3.60603">
        <ele>112.5</ele>
        <time>2025-02-25T09:53:05Z</time>
      </trkpt>
      <trkpt lat="48.08752" lon="-3.60603">
        <ele>112.6</ele>
        <time>2025-02-25T09:53:06Z</time>
      </trkpt>
      <trkpt lat="48.08752" lon="-3.60603">
        <ele>112.6</ele>
        <time>2025-02-25T09:53:07Z</time>
      </trkpt>
      <trkpt lat="48.08753" lon="-3.60604">
        <ele>112.5</ele>
        <time>2025-02-25T09:53:08Z</time>
      </trkpt>
      <trkpt lat="48.08754" lon="-3.60604">
        <ele>112.6</ele>
        <time>2025-02-25T09:53:09Z</time>
      </trkpt>
      <trkpt lat="48.08755" lon="-3.60605">
        <ele>112.5</ele>
        <time>2025-02-25T09:53:10Z</time>
      </trkpt>
      <trkpt lat="48.08756" lon="-3.60607">
        <ele>112.2</ele>
        <time>2025-02-25T09:53:11Z</time>
      </trkpt>
      <trkpt lat="48.08757" lon="-3.60607">
        <ele>112.3</ele>
        <time>2025-02-25T09:53:12Z</time>
      </trkpt>
      <trkpt lat="48.08758" lon="-3.60608">
        <ele>112.2</ele>
        <time>2025-02-25T09:53:13Z</time>
      </trkpt>
      <trkpt lat="48.08759" lon="-3.60608">
        <ele>112.2</ele>
        <time>2025-02-25T09:53:14Z</time>
      </trkpt>
      <trkpt lat="48.0876" lon="-3.60608">
        <ele>112.3</ele>
        <time>2025-02-25T09:53:15Z</time>
      </trkpt>
      <trkpt lat="48.08761" lon="-3.60609">
        <ele>112.2</ele>
        <time>2025-02-25T09:53:16Z</time>
      </trkpt>
      <trkpt lat="48.08762" lon="-3.6061">
        <ele>112.1</ele>
        <time>2025-02-25T09:53:17Z</time>
      </trkpt>
      <trkpt lat="48.08763" lon="-3.60609">
        <ele>112.4</ele>
        <time>2025-02-25T09:53:18Z</time>
      </trkpt>
      <trkpt lat="48.08764" lon="-3.60609">
        <ele>112.4</ele>
        <time>2025-02-25T09:53:19Z</time>
      </trkpt>
      <trkpt lat="48.08765" lon="-3.60609">
        <ele>112.5</ele>
        <time>2025-02-25T09:53:20Z</time>
      </trkpt>
      <trkpt lat="48.08766" lon="-3.60609">
        <ele>112.6</ele>
        <time>2025-02-25T09:53:21Z</time>
      </trkpt>
      <trkpt lat="48.08767" lon="-3.60607">
        <ele>113.1</ele>
        <time>2025-02-25T09:53:22Z</time>
      </trkpt>
      <trkpt lat="48.08767" lon="-3.60606">
        <ele>113.3</ele>
        <time>2025-02-25T09:53:23Z</time>
      </trkpt>
      <trkpt lat="48.08767" lon="-3.60605">
        <ele>113.5</ele>
        <time>2025-02-25T09:53:24Z</time>
      </trkpt>
      <trkpt lat="48.08768" lon="-3.60605">
        <ele>113.5</ele>
        <time>2025-02-25T09:53:25Z</time>
      </trkpt>
      <trkpt lat="48.08769" lon="-3.60605">
        <ele>113.6</ele>
        <time>2025-02-25T09:53:26Z</time>
      </trkpt>
      <trkpt lat="48.08769" lon="-3.60604">
        <ele>113.8</ele>
        <time>2025-02-25T09:53:27Z</time>
      </trkpt>
      <trkpt lat="48.0877" lon="-3.60604">
        <ele>113.9</ele>
        <time>2025-02-25T09:53:28Z</time>
      </trkpt>
      <trkpt lat="48.08771" lon="-3.60603">
        <ele>114.2</ele>
        <time>2025-02-25T09:53:29Z</time>
      </trkpt>
      <trkpt lat="48.08772" lon="-3.60602">
        <ele>114.5</ele>
        <time>2025-02-25T09:53:30Z</time>
      </trkpt>
      <trkpt lat="48.08773" lon="-3.60601">
        <ele>114.8</ele>
        <time>2025-02-25T09:53:31Z</time>
      </trkpt>
      <trkpt lat="48.08774" lon="-3.606">
        <ele>115.1</ele>
        <time>2025-02-25T09:53:32Z</time>
      </trkpt>
      <trkpt lat="48.08775" lon="-3.60599">
        <ele>115.4</ele>
        <time>2025-02-25T09:53:33Z</time>
      </trkpt>
      <trkpt lat="48.08776" lon="-3.60598">
        <ele>115.7</ele>
        <time>2025-02-25T09:53:34Z</time>
      </trkpt>
      <trkpt lat="48.08777" lon="-3.60598">
        <ele>115.8</ele>
        <time>2025-02-25T09:53:35Z</time>
      </trkpt>
      <trkpt lat="48.08777" lon="-3.60597">
        <ele>116</ele>
        <time>2025-02-25T09:53:36Z</time>
      </trkpt>
      <trkpt lat="48.08778" lon="-3.60597">
        <ele>116.1</ele>
        <time>2025-02-25T09:53:37Z</time>
      </trkpt>
      <trkpt lat="48.08778" lon="-3.60597">
        <ele>116.1</ele>
        <time>2025-02-25T09:53:38Z</time>
      </trkpt>
      <trkpt lat="48.08779" lon="-3.60598">
        <ele>116</ele>
        <time>2025-02-25T09:53:39Z</time>
      </trkpt>
      <trkpt lat="48.0878" lon="-3.60598">
        <ele>116.1</ele>
        <time>2025-02-25T09:53:40Z</time>
      </trkpt>
      <trkpt lat="48.08781" lon="-3.60599">
        <ele>116</ele>
        <time>2025-02-25T09:53:41Z</time>
      </trkpt>
      <trkpt lat="48.08782" lon="-3.60599">
        <ele>116.1</ele>
        <time>2025-02-25T09:53:42Z</time>
      </trkpt>
      <trkpt lat="48.08783" lon="-3.60601">
        <ele>115.7</ele>
        <time>2025-02-25T09:53:43Z</time>
      </trkpt>
      <trkpt lat="48.08784" lon="-3.60601">
        <ele>115.9</ele>
        <time>2025-02-25T09:53:44Z</time>
      </trkpt>
      <trkpt lat="48.08784" lon="-3.60601">
        <ele>115.9</ele>
        <time>2025-02-25T09:53:45Z</time>
      </trkpt>
      <trkpt lat="48.08785" lon="-3.60602">
        <ele>115.7</ele>
        <time>2025-02-25T09:53:46Z</time>
      </trkpt>
      <trkpt lat="48.08785" lon="-3.60602">
        <ele>115.7</ele>
        <time>2025-02-25T09:53:47Z</time>
      </trkpt>
      <trkpt lat="48.08786" lon="-3.60602">
        <ele>115.9</ele>
        <time>2025-02-25T09:53:48Z</time>
      </trkpt>
      <trkpt lat="48.08786" lon="-3.60603">
        <ele>115.6</ele>
        <time>2025-02-25T09:53:49Z</time>
      </trkpt>
      <trkpt lat="48.08787" lon="-3.60603">
        <ele>115.7</ele>
        <time>2025-02-25T09:53:50Z</time>
      </trkpt>
      <trkpt lat="48.08788" lon="-3.60603">
        <ele>115.9</ele>
        <time>2025-02-25T09:53:51Z</time>
      </trkpt>
      <trkpt lat="48.08789" lon="-3.60603">
        <ele>116</ele>
        <time>2025-02-25T09:53:52Z</time>
      </trkpt>
      <trkpt lat="48.0879" lon="-3.60605">
        <ele>115.6</ele>
        <time>2025-02-25T09:53:53Z</time>
      </trkpt>
      <trkpt lat="48.08791" lon="-3.60606">
        <ele>115.5</ele>
        <time>2025-02-25T09:53:54Z</time>
      </trkpt>
      <trkpt lat="48.08792" lon="-3.60607">
        <ele>115.4</ele>
        <time>2025-02-25T09:53:55Z</time>
      </trkpt>
      <trkpt lat="48.08792" lon="-3.60608">
        <ele>115.2</ele>
        <time>2025-02-25T09:53:56Z</time>
      </trkpt>
      <trkpt lat="48.08793" lon="-3.60608">
        <ele>115.3</ele>
        <time>2025-02-25T09:53:57Z</time>
      </trkpt>
      <trkpt lat="48.08794" lon="-3.60609">
        <ele>115.2</ele>
        <time>2025-02-25T09:53:58Z</time>
      </trkpt>
      <trkpt lat="48.08795" lon="-3.6061">
        <ele>115.1</ele>
        <time>2025-02-25T09:53:59Z</time>
      </trkpt>
      <trkpt lat="48.08796" lon="-3.60611">
        <ele>115</ele>
        <time>2025-02-25T09:54:00Z</time>
      </trkpt>
      <trkpt lat="48.08797" lon="-3.60611">
        <ele>115.1</ele>
        <time>2025-02-25T09:54:01Z</time>
      </trkpt>
      <trkpt lat="48.08798" lon="-3.60612">
        <ele>115</ele>
        <time>2025-02-25T09:54:02Z</time>
      </trkpt>
      <trkpt lat="48.08799" lon="-3.60613">
        <ele>114.9</ele>
        <time>2025-02-25T09:54:03Z</time>
      </trkpt>
      <trkpt lat="48.088" lon="-3.60613">
        <ele>115</ele>
        <time>2025-02-25T09:54:04Z</time>
      </trkpt>
      <trkpt lat="48.08801" lon="-3.60614">
        <ele>114.9</ele>
        <time>2025-02-25T09:54:05Z</time>
      </trkpt>
      <trkpt lat="48.08802" lon="-3.60614">
        <ele>115</ele>
        <time>2025-02-25T09:54:06Z</time>
      </trkpt>
      <trkpt lat="48.08803" lon="-3.60614">
        <ele>115.1</ele>
        <time>2025-02-25T09:54:07Z</time>
      </trkpt>
      <trkpt lat="48.08804" lon="-3.60615">
        <ele>115</ele>
        <time>2025-02-25T09:54:08Z</time>
      </trkpt>
      <trkpt lat="48.08805" lon="-3.60615">
        <ele>115.1</ele>
        <time>2025-02-25T09:54:09Z</time>
      </trkpt>
      <trkpt lat="48.08806" lon="-3.60615">
        <ele>115.2</ele>
        <time>2025-02-25T09:54:10Z</time>
      </trkpt>
      <trkpt lat="48.08807" lon="-3.60616">
        <ele>115.1</ele>
        <time>2025-02-25T09:54:11Z</time>
      </trkpt>
      <trkpt lat="48.08808" lon="-3.60616">
        <ele>115.3</ele>
        <time>2025-02-25T09:54:12Z</time>
      </trkpt>
      <trkpt lat="48.08809" lon="-3.60617">
        <ele>115.2</ele>
        <time>2025-02-25T09:54:13Z</time>
      </trkpt>
      <trkpt lat="48.08809" lon="-3.60619">
        <ele>114.8</ele>
        <time>2025-02-25T09:54:14Z</time>
      </trkpt>
      <trkpt lat="48.0881" lon="-3.60619">
        <ele>114.9</ele>
        <time>2025-02-25T09:54:15Z</time>
      </trkpt>
      <trkpt lat="48.08811" lon="-3.6062">
        <ele>114.8</ele>
        <time>2025-02-25T09:54:16Z</time>
      </trkpt>
      <trkpt lat="48.08812" lon="-3.6062">
        <ele>114.9</ele>
        <time>2025-02-25T09:54:17Z</time>
      </trkpt>
      <trkpt lat="48.08813" lon="-3.6062">
        <ele>115.1</ele>
        <time>2025-02-25T09:54:18Z</time>
      </trkpt>
      <trkpt lat="48.08814" lon="-3.60621">
        <ele>115</ele>
        <time>2025-02-25T09:54:19Z</time>
      </trkpt>
      <trkpt lat="48.08815" lon="-3.60623">
        <ele>114.6</ele>
        <time>2025-02-25T09:54:20Z</time>
      </trkpt>
      <trkpt lat="48.08816" lon="-3.60624">
        <ele>114.5</ele>
        <time>2025-02-25T09:54:21Z</time>
      </trkpt>
      <trkpt lat="48.08817" lon="-3.60625">
        <ele>114.4</ele>
        <time>2025-02-25T09:54:22Z</time>
      </trkpt>
      <trkpt lat="48.08818" lon="-3.60625">
        <ele>114.6</ele>
        <time>2025-02-25T09:54:23Z</time>
      </trkpt>
      <trkpt lat="48.08819" lon="-3.60625">
        <ele>114.7</ele>
        <time>2025-02-25T09:54:24Z</time>
      </trkpt>
      <trkpt lat="48.0882" lon="-3.60625">
        <ele>114.8</ele>
        <time>2025-02-25T09:54:25Z</time>
      </trkpt>
      <trkpt lat="48.0882" lon="-3.60626">
        <ele>114.6</ele>
        <time>2025-02-25T09:54:26Z</time>
      </trkpt>
      <trkpt lat="48.08821" lon="-3.60627">
        <ele>114.5</ele>
        <time>2025-02-25T09:54:27Z</time>
      </trkpt>
      <trkpt lat="48.08822" lon="-3.60629">
        <ele>114.1</ele>
        <time>2025-02-25T09:54:28Z</time>
      </trkpt>
      <trkpt lat="48.08823" lon="-3.60629">
        <ele>114.2</ele>
        <time>2025-02-25T09:54:29Z</time>
      </trkpt>
      <trkpt lat="48.08824" lon="-3.6063">
        <ele>114.1</ele>
        <time>2025-02-25T09:54:30Z</time>
      </trkpt>
      <trkpt lat="48.08825" lon="-3.6063">
        <ele>114.2</ele>
        <time>2025-02-25T09:54:31Z</time>
      </trkpt>
      <trkpt lat="48.08826" lon="-3.60631">
        <ele>114.1</ele>
        <time>2025-02-25T09:54:32Z</time>
      </trkpt>
      <trkpt lat="48.08827" lon="-3.60631">
        <ele>114.2</ele>
        <time>2025-02-25T09:54:33Z</time>
      </trkpt>
      <trkpt lat="48.08828" lon="-3.6063">
        <ele>114.6</ele>
        <time>2025-02-25T09:54:34Z</time>
      </trkpt>
      <trkpt lat="48.0883" lon="-3.60629">
        <ele>115.1</ele>
        <time>2025-02-25T09:54:35Z</time>
      </trkpt>
      <trkpt lat="48.08831" lon="-3.60629">
        <ele>115.2</ele>
        <time>2025-02-25T09:54:36Z</time>
      </trkpt>
      <trkpt lat="48.08832" lon="-3.60629">
        <ele>115.3</ele>
        <time>2025-02-25T09:54:37Z</time>
      </trkpt>
      <trkpt lat="48.08834" lon="-3.6063">
        <ele>115.3</ele>
        <time>2025-02-25T09:54:38Z</time>
      </trkpt>
      <trkpt lat="48.08835" lon="-3.6063">
        <ele>115.3</ele>
        <time>2025-02-25T09:54:39Z</time>
      </trkpt>
      <trkpt lat="48.08836" lon="-3.60631">
        <ele>115.2</ele>
        <time>2025-02-25T09:54:40Z</time>
      </trkpt>
      <trkpt lat="48.08837" lon="-3.60631">
        <ele>115.2</ele>
        <time>2025-02-25T09:54:41Z</time>
      </trkpt>
      <trkpt lat="48.08838" lon="-3.60631">
        <ele>115.3</ele>
        <time>2025-02-25T09:54:42Z</time>
      </trkpt>
      <trkpt lat="48.08839" lon="-3.60631">
        <ele>115.3</ele>
        <time>2025-02-25T09:54:43Z</time>
      </trkpt>
      <trkpt lat="48.0884" lon="-3.6063">
        <ele>115.6</ele>
        <time>2025-02-25T09:54:44Z</time>
      </trkpt>
      <trkpt lat="48.08841" lon="-3.60631">
        <ele>115.5</ele>
        <time>2025-02-25T09:54:45Z</time>
      </trkpt>
      <trkpt lat="48.08842" lon="-3.60631">
        <ele>115.5</ele>
        <time>2025-02-25T09:54:46Z</time>
      </trkpt>
      <trkpt lat="48.08843" lon="-3.60631">
        <ele>115.6</ele>
        <time>2025-02-25T09:54:47Z</time>
      </trkpt>
      <trkpt lat="48.08844" lon="-3.60631">
        <ele>115.6</ele>
        <time>2025-02-25T09:54:48Z</time>
      </trkpt>
      <trkpt lat="48.08845" lon="-3.60631">
        <ele>115.7</ele>
        <time>2025-02-25T09:54:49Z</time>
      </trkpt>
      <trkpt lat="48.08846" lon="-3.60631">
        <ele>115.8</ele>
        <time>2025-02-25T09:54:50Z</time>
      </trkpt>
      <trkpt lat="48.08847" lon="-3.60631">
        <ele>115.8</ele>
        <time>2025-02-25T09:54:51Z</time>
      </trkpt>
      <trkpt lat="48.08848" lon="-3.6063">
        <ele>116.1</ele>
        <time>2025-02-25T09:54:52Z</time>
      </trkpt>
      <trkpt lat="48.08849" lon="-3.60629">
        <ele>116.4</ele>
        <time>2025-02-25T09:54:53Z</time>
      </trkpt>
      <trkpt lat="48.0885" lon="-3.60629">
        <ele>116.5</ele>
        <time>2025-02-25T09:54:54Z</time>
      </trkpt>
      <trkpt lat="48.08852" lon="-3.60629">
        <ele>116.6</ele>
        <time>2025-02-25T09:54:55Z</time>
      </trkpt>
      <trkpt lat="48.08853" lon="-3.60628">
        <ele>116.9</ele>
        <time>2025-02-25T09:54:56Z</time>
      </trkpt>
      <trkpt lat="48.08854" lon="-3.60628">
        <ele>116.9</ele>
        <time>2025-02-25T09:54:57Z</time>
      </trkpt>
      <trkpt lat="48.08855" lon="-3.60629">
        <ele>116.8</ele>
        <time>2025-02-25T09:54:58Z</time>
      </trkpt>
      <trkpt lat="48.08857" lon="-3.60628">
        <ele>117.1</ele>
        <time>2025-02-25T09:54:59Z</time>
      </trkpt>
      <trkpt lat="48.08858" lon="-3.60627">
        <ele>117.4</ele>
        <time>2025-02-25T09:55:00Z</time>
      </trkpt>
      <trkpt lat="48.08859" lon="-3.60627">
        <ele>117.4</ele>
        <time>2025-02-25T09:55:01Z</time>
      </trkpt>
      <trkpt lat="48.0886" lon="-3.60626">
        <ele>117.7</ele>
        <time>2025-02-25T09:55:02Z</time>
      </trkpt>
      <trkpt lat="48.08861" lon="-3.60626">
        <ele>117.8</ele>
        <time>2025-02-25T09:55:03Z</time>
      </trkpt>
      <trkpt lat="48.08862" lon="-3.60626">
        <ele>117.8</ele>
        <time>2025-02-25T09:55:04Z</time>
      </trkpt>
      <trkpt lat="48.08863" lon="-3.60625">
        <ele>118</ele>
        <time>2025-02-25T09:55:05Z</time>
      </trkpt>
      <trkpt lat="48.08864" lon="-3.60624">
        <ele>118.2</ele>
        <time>2025-02-25T09:55:06Z</time>
      </trkpt>
      <trkpt lat="48.08865" lon="-3.60624">
        <ele>118.1</ele>
        <time>2025-02-25T09:55:07Z</time>
      </trkpt>
      <trkpt lat="48.08865" lon="-3.60623">
        <ele>118.4</ele>
        <time>2025-02-25T09:55:08Z</time>
      </trkpt>
      <trkpt lat="48.08866" lon="-3.60622">
        <ele>118.5</ele>
        <time>2025-02-25T09:55:09Z</time>
      </trkpt>
      <trkpt lat="48.08868" lon="-3.60622">
        <ele>118.5</ele>
        <time>2025-02-25T09:55:10Z</time>
      </trkpt>
      <trkpt lat="48.08869" lon="-3.60621">
        <ele>118.7</ele>
        <time>2025-02-25T09:55:11Z</time>
      </trkpt>
      <trkpt lat="48.0887" lon="-3.6062">
        <ele>118.9</ele>
        <time>2025-02-25T09:55:12Z</time>
      </trkpt>
      <trkpt lat="48.08871" lon="-3.6062">
        <ele>118.8</ele>
        <time>2025-02-25T09:55:13Z</time>
      </trkpt>
      <trkpt lat="48.08872" lon="-3.60619">
        <ele>119</ele>
        <time>2025-02-25T09:55:14Z</time>
      </trkpt>
      <trkpt lat="48.08874" lon="-3.60619">
        <ele>119</ele>
        <time>2025-02-25T09:55:15Z</time>
      </trkpt>
      <trkpt lat="48.08875" lon="-3.60618">
        <ele>119.1</ele>
        <time>2025-02-25T09:55:16Z</time>
      </trkpt>
      <trkpt lat="48.08876" lon="-3.60618">
        <ele>119.1</ele>
        <time>2025-02-25T09:55:17Z</time>
      </trkpt>
      <trkpt lat="48.08877" lon="-3.60618">
        <ele>119.1</ele>
        <time>2025-02-25T09:55:18Z</time>
      </trkpt>
      <trkpt lat="48.08878" lon="-3.60617">
        <ele>119.2</ele>
        <time>2025-02-25T09:55:19Z</time>
      </trkpt>
      <trkpt lat="48.0888" lon="-3.60616">
        <ele>119.4</ele>
        <time>2025-02-25T09:55:20Z</time>
      </trkpt>
      <trkpt lat="48.08881" lon="-3.60615">
        <ele>119.5</ele>
        <time>2025-02-25T09:55:21Z</time>
      </trkpt>
      <trkpt lat="48.08882" lon="-3.60615">
        <ele>119.5</ele>
        <time>2025-02-25T09:55:22Z</time>
      </trkpt>
      <trkpt lat="48.08883" lon="-3.60614">
        <ele>119.7</ele>
        <time>2025-02-25T09:55:23Z</time>
      </trkpt>
      <trkpt lat="48.08884" lon="-3.60614">
        <ele>119.6</ele>
        <time>2025-02-25T09:55:24Z</time>
      </trkpt>
      <trkpt lat="48.08885" lon="-3.60614">
        <ele>119.6</ele>
        <time>2025-02-25T09:55:25Z</time>
      </trkpt>
      <trkpt lat="48.08886" lon="-3.60612">
        <ele>119.9</ele>
        <time>2025-02-25T09:55:26Z</time>
      </trkpt>
      <trkpt lat="48.08886" lon="-3.60612">
        <ele>119.9</ele>
        <time>2025-02-25T09:55:27Z</time>
      </trkpt>
      <trkpt lat="48.08887" lon="-3.60611">
        <ele>120.1</ele>
        <time>2025-02-25T09:55:28Z</time>
      </trkpt>
      <trkpt lat="48.08888" lon="-3.60611">
        <ele>120.1</ele>
        <time>2025-02-25T09:55:29Z</time>
      </trkpt>
      <trkpt lat="48.08889" lon="-3.60612">
        <ele>119.8</ele>
        <time>2025-02-25T09:55:30Z</time>
      </trkpt>
      <trkpt lat="48.0889" lon="-3.60611">
        <ele>120</ele>
        <time>2025-02-25T09:55:31Z</time>
      </trkpt>
      <trkpt lat="48.08891" lon="-3.60611">
        <ele>120</ele>
        <time>2025-02-25T09:55:32Z</time>
      </trkpt>
      <trkpt lat="48.08892" lon="-3.6061">
        <ele>120.2</ele>
        <time>2025-02-25T09:55:33Z</time>
      </trkpt>
      <trkpt lat="48.08894" lon="-3.6061">
        <ele>120.2</ele>
        <time>2025-02-25T09:55:34Z</time>
      </trkpt>
      <trkpt lat="48.08895" lon="-3.6061">
        <ele>120.2</ele>
        <time>2025-02-25T09:55:35Z</time>
      </trkpt>
      <trkpt lat="48.08896" lon="-3.60609">
        <ele>120.4</ele>
        <time>2025-02-25T09:55:36Z</time>
      </trkpt>
      <trkpt lat="48.08897" lon="-3.60608">
        <ele>120.6</ele>
        <time>2025-02-25T09:55:37Z</time>
      </trkpt>
      <trkpt lat="48.08898" lon="-3.60608">
        <ele>120.6</ele>
        <time>2025-02-25T09:55:38Z</time>
      </trkpt>
      <trkpt lat="48.08899" lon="-3.60608">
        <ele>120.6</ele>
        <time>2025-02-25T09:55:39Z</time>
      </trkpt>
      <trkpt lat="48.089" lon="-3.60607">
        <ele>120.8</ele>
        <time>2025-02-25T09:55:40Z</time>
      </trkpt>
      <trkpt lat="48.089" lon="-3.60607">
        <ele>120.8</ele>
        <time>2025-02-25T09:55:41Z</time>
      </trkpt>
      <trkpt lat="48.08901" lon="-3.60606">
        <ele>121</ele>
        <time>2025-02-25T09:55:42Z</time>
      </trkpt>
      <trkpt lat="48.08902" lon="-3.60606">
        <ele>121</ele>
        <time>2025-02-25T09:55:43Z</time>
      </trkpt>
      <trkpt lat="48.08903" lon="-3.60605">
        <ele>121.2</ele>
        <time>2025-02-25T09:55:44Z</time>
      </trkpt>
      <trkpt lat="48.08904" lon="-3.60605">
        <ele>121.2</ele>
        <time>2025-02-25T09:55:45Z</time>
      </trkpt>
      <trkpt lat="48.08905" lon="-3.60605">
        <ele>121.2</ele>
        <time>2025-02-25T09:55:46Z</time>
      </trkpt>
      <trkpt lat="48.08906" lon="-3.60605">
        <ele>121.2</ele>
        <time>2025-02-25T09:55:47Z</time>
      </trkpt>
      <trkpt lat="48.08907" lon="-3.60604">
        <ele>121.4</ele>
        <time>2025-02-25T09:55:48Z</time>
      </trkpt>
      <trkpt lat="48.08908" lon="-3.60604">
        <ele>121.4</ele>
        <time>2025-02-25T09:55:49Z</time>
      </trkpt>
      <trkpt lat="48.08909" lon="-3.60604">
        <ele>121.4</ele>
        <time>2025-02-25T09:55:50Z</time>
      </trkpt>
      <trkpt lat="48.0891" lon="-3.60603">
        <ele>121.5</ele>
        <time>2025-02-25T09:55:51Z</time>
      </trkpt>
      <trkpt lat="48.08911" lon="-3.60603">
        <ele>121.5</ele>
        <time>2025-02-25T09:55:52Z</time>
      </trkpt>
      <trkpt lat="48.08912" lon="-3.60602">
        <ele>121.7</ele>
        <time>2025-02-25T09:55:53Z</time>
      </trkpt>
      <trkpt lat="48.08913" lon="-3.60602">
        <ele>121.7</ele>
        <time>2025-02-25T09:55:54Z</time>
      </trkpt>
      <trkpt lat="48.08913" lon="-3.60601">
        <ele>121.9</ele>
        <time>2025-02-25T09:55:55Z</time>
      </trkpt>
      <trkpt lat="48.08914" lon="-3.60601">
        <ele>121.9</ele>
        <time>2025-02-25T09:55:56Z</time>
      </trkpt>
      <trkpt lat="48.08915" lon="-3.60601">
        <ele>121.8</ele>
        <time>2025-02-25T09:55:57Z</time>
      </trkpt>
      <trkpt lat="48.08916" lon="-3.60601">
        <ele>121.8</ele>
        <time>2025-02-25T09:55:58Z</time>
      </trkpt>
      <trkpt lat="48.08917" lon="-3.60601">
        <ele>121.8</ele>
        <time>2025-02-25T09:55:59Z</time>
      </trkpt>
      <trkpt lat="48.08918" lon="-3.60601">
        <ele>121.8</ele>
        <time>2025-02-25T09:56:00Z</time>
      </trkpt>
      <trkpt lat="48.08919" lon="-3.60602">
        <ele>121.6</ele>
        <time>2025-02-25T09:56:01Z</time>
      </trkpt>
      <trkpt lat="48.0892" lon="-3.60602">
        <ele>121.5</ele>
        <time>2025-02-25T09:56:02Z</time>
      </trkpt>
      <trkpt lat="48.08921" lon="-3.60602">
        <ele>121.5</ele>
        <time>2025-02-25T09:56:03Z</time>
      </trkpt>
      <trkpt lat="48.08922" lon="-3.60602">
        <ele>121.4</ele>
        <time>2025-02-25T09:56:04Z</time>
      </trkpt>
      <trkpt lat="48.08923" lon="-3.60602">
        <ele>121.4</ele>
        <time>2025-02-25T09:56:05Z</time>
      </trkpt>
      <trkpt lat="48.08925" lon="-3.60603">
        <ele>121.2</ele>
        <time>2025-02-25T09:56:06Z</time>
      </trkpt>
      <trkpt lat="48.08926" lon="-3.60604">
        <ele>120.9</ele>
        <time>2025-02-25T09:56:07Z</time>
      </trkpt>
      <trkpt lat="48.08927" lon="-3.60604">
        <ele>120.9</ele>
        <time>2025-02-25T09:56:08Z</time>
      </trkpt>
      <trkpt lat="48.08929" lon="-3.60605">
        <ele>120.7</ele>
        <time>2025-02-25T09:56:09Z</time>
      </trkpt>
      <trkpt lat="48.0893" lon="-3.60605">
        <ele>120.6</ele>
        <time>2025-02-25T09:56:10Z</time>
      </trkpt>
      <trkpt lat="48.08932" lon="-3.60606">
        <ele>120.4</ele>
        <time>2025-02-25T09:56:11Z</time>
      </trkpt>
      <trkpt lat="48.08933" lon="-3.60605">
        <ele>120.5</ele>
        <time>2025-02-25T09:56:12Z</time>
      </trkpt>
      <trkpt lat="48.08934" lon="-3.60605">
        <ele>120.5</ele>
        <time>2025-02-25T09:56:13Z</time>
      </trkpt>
      <trkpt lat="48.08935" lon="-3.60606">
        <ele>120.3</ele>
        <time>2025-02-25T09:56:14Z</time>
      </trkpt>
      <trkpt lat="48.08936" lon="-3.60606">
        <ele>120.2</ele>
        <time>2025-02-25T09:56:15Z</time>
      </trkpt>
      <trkpt lat="48.08937" lon="-3.60606">
        <ele>120.2</ele>
        <time>2025-02-25T09:56:16Z</time>
      </trkpt>
      <trkpt lat="48.08938" lon="-3.60606">
        <ele>120.2</ele>
        <time>2025-02-25T09:56:17Z</time>
      </trkpt>
      <trkpt lat="48.08939" lon="-3.60607">
        <ele>119.9</ele>
        <time>2025-02-25T09:56:18Z</time>
      </trkpt>
      <trkpt lat="48.0894" lon="-3.60607">
        <ele>119.9</ele>
        <time>2025-02-25T09:56:19Z</time>
      </trkpt>
      <trkpt lat="48.08941" lon="-3.60607">
        <ele>119.9</ele>
        <time>2025-02-25T09:56:20Z</time>
      </trkpt>
      <trkpt lat="48.08942" lon="-3.60608">
        <ele>119.6</ele>
        <time>2025-02-25T09:56:21Z</time>
      </trkpt>
      <trkpt lat="48.08943" lon="-3.60609">
        <ele>119.4</ele>
        <time>2025-02-25T09:56:22Z</time>
      </trkpt>
      <trkpt lat="48.08944" lon="-3.60609">
        <ele>119.4</ele>
        <time>2025-02-25T09:56:23Z</time>
      </trkpt>
      <trkpt lat="48.08945" lon="-3.6061">
        <ele>119.2</ele>
        <time>2025-02-25T09:56:24Z</time>
      </trkpt>
      <trkpt lat="48.08946" lon="-3.60609">
        <ele>119.4</ele>
        <time>2025-02-25T09:56:25Z</time>
      </trkpt>
      <trkpt lat="48.08948" lon="-3.60609">
        <ele>119.4</ele>
        <time>2025-02-25T09:56:26Z</time>
      </trkpt>
      <trkpt lat="48.08949" lon="-3.6061">
        <ele>119.2</ele>
        <time>2025-02-25T09:56:27Z</time>
      </trkpt>
      <trkpt lat="48.08951" lon="-3.6061">
        <ele>119.2</ele>
        <time>2025-02-25T09:56:28Z</time>
      </trkpt>
      <trkpt lat="48.08952" lon="-3.6061">
        <ele>119.2</ele>
        <time>2025-02-25T09:56:29Z</time>
      </trkpt>
      <trkpt lat="48.08953" lon="-3.60609">
        <ele>119.4</ele>
        <time>2025-02-25T09:56:30Z</time>
      </trkpt>
      <trkpt lat="48.08954" lon="-3.60609">
        <ele>119.4</ele>
        <time>2025-02-25T09:56:31Z</time>
      </trkpt>
      <trkpt lat="48.08955" lon="-3.6061">
        <ele>119.2</ele>
        <time>2025-02-25T09:56:32Z</time>
      </trkpt>
      <trkpt lat="48.08956" lon="-3.6061">
        <ele>119.2</ele>
        <time>2025-02-25T09:56:33Z</time>
      </trkpt>
      <trkpt lat="48.08957" lon="-3.60611">
        <ele>119</ele>
        <time>2025-02-25T09:56:34Z</time>
      </trkpt>
      <trkpt lat="48.08958" lon="-3.60612">
        <ele>118.9</ele>
        <time>2025-02-25T09:56:35Z</time>
      </trkpt>
      <trkpt lat="48.08959" lon="-3.60613">
        <ele>118.8</ele>
        <time>2025-02-25T09:56:36Z</time>
      </trkpt>
      <trkpt lat="48.0896" lon="-3.60614">
        <ele>118.6</ele>
        <time>2025-02-25T09:56:37Z</time>
      </trkpt>
      <trkpt lat="48.08961" lon="-3.60614">
        <ele>118.6</ele>
        <time>2025-02-25T09:56:38Z</time>
      </trkpt>
      <trkpt lat="48.08962" lon="-3.60615">
        <ele>118.5</ele>
        <time>2025-02-25T09:56:39Z</time>
      </trkpt>
      <trkpt lat="48.08963" lon="-3.60615">
        <ele>118.5</ele>
        <time>2025-02-25T09:56:40Z</time>
      </trkpt>
      <trkpt lat="48.08964" lon="-3.60616">
        <ele>118.4</ele>
        <time>2025-02-25T09:56:41Z</time>
      </trkpt>
      <trkpt lat="48.08966" lon="-3.60616">
        <ele>118.4</ele>
        <time>2025-02-25T09:56:42Z</time>
      </trkpt>
      <trkpt lat="48.08967" lon="-3.60617">
        <ele>118.3</ele>
        <time>2025-02-25T09:56:43Z</time>
      </trkpt>
      <trkpt lat="48.08968" lon="-3.60618">
        <ele>118.2</ele>
        <time>2025-02-25T09:56:44Z</time>
      </trkpt>
      <trkpt lat="48.08969" lon="-3.60619">
        <ele>118.1</ele>
        <time>2025-02-25T09:56:45Z</time>
      </trkpt>
      <trkpt lat="48.0897" lon="-3.60619">
        <ele>118.1</ele>
        <time>2025-02-25T09:56:46Z</time>
      </trkpt>
      <trkpt lat="48.08971" lon="-3.60618">
        <ele>118.2</ele>
        <time>2025-02-25T09:56:47Z</time>
      </trkpt>
      <trkpt lat="48.08972" lon="-3.60618">
        <ele>118.3</ele>
        <time>2025-02-25T09:56:48Z</time>
      </trkpt>
      <trkpt lat="48.08973" lon="-3.60618">
        <ele>118.3</ele>
        <time>2025-02-25T09:56:49Z</time>
      </trkpt>
      <trkpt lat="48.08974" lon="-3.60619">
        <ele>118.2</ele>
        <time>2025-02-25T09:56:50Z</time>
      </trkpt>
      <trkpt lat="48.08975" lon="-3.6062">
        <ele>118.1</ele>
        <time>2025-02-25T09:56:51Z</time>
      </trkpt>
      <trkpt lat="48.08976" lon="-3.6062">
        <ele>118.1</ele>
        <time>2025-02-25T09:56:52Z</time>
      </trkpt>
      <trkpt lat="48.08977" lon="-3.60621">
        <ele>118</ele>
        <time>2025-02-25T09:56:53Z</time>
      </trkpt>
      <trkpt lat="48.08978" lon="-3.60623">
        <ele>117.8</ele>
        <time>2025-02-25T09:56:54Z</time>
      </trkpt>
      <trkpt lat="48.0898" lon="-3.60623">
        <ele>117.9</ele>
        <time>2025-02-25T09:56:55Z</time>
      </trkpt>
      <trkpt lat="48.08981" lon="-3.60623">
        <ele>117.9</ele>
        <time>2025-02-25T09:56:56Z</time>
      </trkpt>
      <trkpt lat="48.08982" lon="-3.60623">
        <ele>117.9</ele>
        <time>2025-02-25T09:56:57Z</time>
      </trkpt>
      <trkpt lat="48.08983" lon="-3.60625">
        <ele>117.7</ele>
        <time>2025-02-25T09:56:58Z</time>
      </trkpt>
      <trkpt lat="48.08984" lon="-3.60625">
        <ele>117.7</ele>
        <time>2025-02-25T09:56:59Z</time>
      </trkpt>
      <trkpt lat="48.08984" lon="-3.60626">
        <ele>117.6</ele>
        <time>2025-02-25T09:57:00Z</time>
      </trkpt>
      <trkpt lat="48.08986" lon="-3.60627">
        <ele>117.5</ele>
        <time>2025-02-25T09:57:01Z</time>
      </trkpt>
      <trkpt lat="48.08987" lon="-3.60627">
        <ele>117.5</ele>
        <time>2025-02-25T09:57:02Z</time>
      </trkpt>
      <trkpt lat="48.08987" lon="-3.60627">
        <ele>117.5</ele>
        <time>2025-02-25T09:57:03Z</time>
      </trkpt>
      <trkpt lat="48.08988" lon="-3.60627">
        <ele>117.5</ele>
        <time>2025-02-25T09:57:04Z</time>
      </trkpt>
      <trkpt lat="48.08988" lon="-3.60627">
        <ele>117.5</ele>
        <time>2025-02-25T09:57:05Z</time>
      </trkpt>
      <trkpt lat="48.08988" lon="-3.60629">
        <ele>117.3</ele>
        <time>2025-02-25T09:57:06Z</time>
      </trkpt>
      <trkpt lat="48.08988" lon="-3.60629">
        <ele>117.3</ele>
        <time>2025-02-25T09:57:07Z</time>
      </trkpt>
      <trkpt lat="48.08989" lon="-3.60629">
        <ele>117.3</ele>
        <time>2025-02-25T09:57:08Z</time>
      </trkpt>
      <trkpt lat="48.0899" lon="-3.60631">
        <ele>117</ele>
        <time>2025-02-25T09:57:09Z</time>
      </trkpt>
      <trkpt lat="48.08991" lon="-3.60632">
        <ele>116.9</ele>
        <time>2025-02-25T09:57:10Z</time>
      </trkpt>
      <trkpt lat="48.08992" lon="-3.60633">
        <ele>116.8</ele>
        <time>2025-02-25T09:57:11Z</time>
      </trkpt>
      <trkpt lat="48.08994" lon="-3.60633">
        <ele>116.8</ele>
        <time>2025-02-25T09:57:12Z</time>
      </trkpt>
      <trkpt lat="48.08995" lon="-3.60633">
        <ele>116.8</ele>
        <time>2025-02-25T09:57:13Z</time>
      </trkpt>
      <trkpt lat="48.08996" lon="-3.60632">
        <ele>117</ele>
        <time>2025-02-25T09:57:14Z</time>
      </trkpt>
      <trkpt lat="48.08998" lon="-3.60631">
        <ele>117.1</ele>
        <time>2025-02-25T09:57:15Z</time>
      </trkpt>
      <trkpt lat="48.08998" lon="-3.6063">
        <ele>117.3</ele>
        <time>2025-02-25T09:57:16Z</time>
      </trkpt>
      <trkpt lat="48.08999" lon="-3.60629">
        <ele>117.4</ele>
        <time>2025-02-25T09:57:17Z</time>
      </trkpt>
      <trkpt lat="48.09" lon="-3.60629">
        <ele>117.4</ele>
        <time>2025-02-25T09:57:18Z</time>
      </trkpt>
      <trkpt lat="48.09001" lon="-3.60628">
        <ele>117.6</ele>
        <time>2025-02-25T09:57:19Z</time>
      </trkpt>
      <trkpt lat="48.09002" lon="-3.60627">
        <ele>117.8</ele>
        <time>2025-02-25T09:57:20Z</time>
      </trkpt>
      <trkpt lat="48.09003" lon="-3.60626">
        <ele>117.9</ele>
        <time>2025-02-25T09:57:21Z</time>
      </trkpt>
      <trkpt lat="48.09004" lon="-3.60626">
        <ele>117.9</ele>
        <time>2025-02-25T09:57:22Z</time>
      </trkpt>
      <trkpt lat="48.09005" lon="-3.60625">
        <ele>118.1</ele>
        <time>2025-02-25T09:57:23Z</time>
      </trkpt>
      <trkpt lat="48.09005" lon="-3.60624">
        <ele>118.2</ele>
        <time>2025-02-25T09:57:24Z</time>
      </trkpt>
      <trkpt lat="48.09006" lon="-3.60623">
        <ele>118.4</ele>
        <time>2025-02-25T09:57:25Z</time>
      </trkpt>
      <trkpt lat="48.09006" lon="-3.60623">
        <ele>118.4</ele>
        <time>2025-02-25T09:57:26Z</time>
      </trkpt>
      <trkpt lat="48.09007" lon="-3.60622">
        <ele>118.5</ele>
        <time>2025-02-25T09:57:27Z</time>
      </trkpt>
      <trkpt lat="48.09009" lon="-3.60622">
        <ele>118.6</ele>
        <time>2025-02-25T09:57:28Z</time>
      </trkpt>
      <trkpt lat="48.0901" lon="-3.60622">
        <ele>118.6</ele>
        <time>2025-02-25T09:57:29Z</time>
      </trkpt>
      <trkpt lat="48.09011" lon="-3.60621">
        <ele>118.7</ele>
        <time>2025-02-25T09:57:30Z</time>
      </trkpt>
      <trkpt lat="48.09012" lon="-3.60621">
        <ele>118.7</ele>
        <time>2025-02-25T09:57:31Z</time>
      </trkpt>
      <trkpt lat="48.09013" lon="-3.6062">
        <ele>118.9</ele>
        <time>2025-02-25T09:57:32Z</time>
      </trkpt>
      <trkpt lat="48.09014" lon="-3.60619">
        <ele>119</ele>
        <time>2025-02-25T09:57:33Z</time>
      </trkpt>
      <trkpt lat="48.09015" lon="-3.60619">
        <ele>119</ele>
        <time>2025-02-25T09:57:34Z</time>
      </trkpt>
      <trkpt lat="48.09017" lon="-3.60619">
        <ele>119</ele>
        <time>2025-02-25T09:57:35Z</time>
      </trkpt>
      <trkpt lat="48.09017" lon="-3.60619">
        <ele>119</ele>
        <time>2025-02-25T09:57:36Z</time>
      </trkpt>
      <trkpt lat="48.09018" lon="-3.6062">
        <ele>118.9</ele>
        <time>2025-02-25T09:57:37Z</time>
      </trkpt>
      <trkpt lat="48.09019" lon="-3.6062">
        <ele>118.9</ele>
        <time>2025-02-25T09:57:38Z</time>
      </trkpt>
      <trkpt lat="48.09021" lon="-3.60619">
        <ele>119.1</ele>
        <time>2025-02-25T09:57:39Z</time>
      </trkpt>
      <trkpt lat="48.09021" lon="-3.60618">
        <ele>119.2</ele>
        <time>2025-02-25T09:57:40Z</time>
      </trkpt>
      <trkpt lat="48.09022" lon="-3.60618">
        <ele>119.2</ele>
        <time>2025-02-25T09:57:41Z</time>
      </trkpt>
      <trkpt lat="48.09023" lon="-3.60617">
        <ele>119.3</ele>
        <time>2025-02-25T09:57:42Z</time>
      </trkpt>
      <trkpt lat="48.09023" lon="-3.60617">
        <ele>119.3</ele>
        <time>2025-02-25T09:57:43Z</time>
      </trkpt>
      <trkpt lat="48.09024" lon="-3.60617">
        <ele>119.3</ele>
        <time>2025-02-25T09:57:44Z</time>
      </trkpt>
      <trkpt lat="48.09025" lon="-3.60617">
        <ele>119.3</ele>
        <time>2025-02-25T09:57:45Z</time>
      </trkpt>
      <trkpt lat="48.09026" lon="-3.60616">
        <ele>119.5</ele>
        <time>2025-02-25T09:57:46Z</time>
      </trkpt>
      <trkpt lat="48.09027" lon="-3.60617">
        <ele>119.4</ele>
        <time>2025-02-25T09:57:47Z</time>
      </trkpt>
      <trkpt lat="48.09028" lon="-3.60616">
        <ele>119.5</ele>
        <time>2025-02-25T09:57:48Z</time>
      </trkpt>
      <trkpt lat="48.09028" lon="-3.60615">
        <ele>119.6</ele>
        <time>2025-02-25T09:57:49Z</time>
      </trkpt>
      <trkpt lat="48.09029" lon="-3.60615">
        <ele>119.6</ele>
        <time>2025-02-25T09:57:50Z</time>
      </trkpt>
      <trkpt lat="48.0903" lon="-3.60614">
        <ele>119.7</ele>
        <time>2025-02-25T09:57:51Z</time>
      </trkpt>
      <trkpt lat="48.09031" lon="-3.60615">
        <ele>119.6</ele>
        <time>2025-02-25T09:57:52Z</time>
      </trkpt>
      <trkpt lat="48.09031" lon="-3.60615">
        <ele>119.6</ele>
        <time>2025-02-25T09:57:53Z</time>
      </trkpt>
      <trkpt lat="48.09032" lon="-3.60615">
        <ele>119.6</ele>
        <time>2025-02-25T09:57:54Z</time>
      </trkpt>
      <trkpt lat="48.09033" lon="-3.60615">
        <ele>119.6</ele>
        <time>2025-02-25T09:57:55Z</time>
      </trkpt>
      <trkpt lat="48.09034" lon="-3.60615">
        <ele>119.5</ele>
        <time>2025-02-25T09:57:56Z</time>
      </trkpt>
      <trkpt lat="48.09035" lon="-3.60615">
        <ele>119.5</ele>
        <time>2025-02-25T09:57:57Z</time>
      </trkpt>
      <trkpt lat="48.09035" lon="-3.60616">
        <ele>119.4</ele>
        <time>2025-02-25T09:57:58Z</time>
      </trkpt>
      <trkpt lat="48.09036" lon="-3.60615">
        <ele>119.5</ele>
        <time>2025-02-25T09:57:59Z</time>
      </trkpt>
      <trkpt lat="48.09038" lon="-3.60615">
        <ele>119.5</ele>
        <time>2025-02-25T09:58:00Z</time>
      </trkpt>
      <trkpt lat="48.09038" lon="-3.60615">
        <ele>119.5</ele>
        <time>2025-02-25T09:58:01Z</time>
      </trkpt>
      <trkpt lat="48.09039" lon="-3.60615">
        <ele>119.5</ele>
        <time>2025-02-25T09:58:02Z</time>
      </trkpt>
      <trkpt lat="48.0904" lon="-3.60615">
        <ele>119.5</ele>
        <time>2025-02-25T09:58:03Z</time>
      </trkpt>
      <trkpt lat="48.09041" lon="-3.60616">
        <ele>119.4</ele>
        <time>2025-02-25T09:58:04Z</time>
      </trkpt>
      <trkpt lat="48.09042" lon="-3.60617">
        <ele>119.3</ele>
        <time>2025-02-25T09:58:05Z</time>
      </trkpt>
      <trkpt lat="48.09042" lon="-3.60619">
        <ele>119</ele>
        <time>2025-02-25T09:58:06Z</time>
      </trkpt>
      <trkpt lat="48.09043" lon="-3.6062">
        <ele>118.9</ele>
        <time>2025-02-25T09:58:07Z</time>
      </trkpt>
      <trkpt lat="48.09044" lon="-3.60621">
        <ele>118.7</ele>
        <time>2025-02-25T09:58:08Z</time>
      </trkpt>
      <trkpt lat="48.09045" lon="-3.60621">
        <ele>118.7</ele>
        <time>2025-02-25T09:58:09Z</time>
      </trkpt>
      <trkpt lat="48.09045" lon="-3.60622">
        <ele>118.6</ele>
        <time>2025-02-25T09:58:10Z</time>
      </trkpt>
      <trkpt lat="48.09046" lon="-3.60621">
        <ele>118.7</ele>
        <time>2025-02-25T09:58:11Z</time>
      </trkpt>
      <trkpt lat="48.09047" lon="-3.60621">
        <ele>118.7</ele>
        <time>2025-02-25T09:58:12Z</time>
      </trkpt>
      <trkpt lat="48.09048" lon="-3.6062">
        <ele>118.8</ele>
        <time>2025-02-25T09:58:13Z</time>
      </trkpt>
      <trkpt lat="48.09049" lon="-3.60619">
        <ele>118.9</ele>
        <time>2025-02-25T09:58:14Z</time>
      </trkpt>
      <trkpt lat="48.0905" lon="-3.60619">
        <ele>118.9</ele>
        <time>2025-02-25T09:58:15Z</time>
      </trkpt>
      <trkpt lat="48.0905" lon="-3.60617">
        <ele>119.2</ele>
        <time>2025-02-25T09:58:16Z</time>
      </trkpt>
      <trkpt lat="48.09051" lon="-3.60616">
        <ele>119.3</ele>
        <time>2025-02-25T09:58:17Z</time>
      </trkpt>
      <trkpt lat="48.09051" lon="-3.60616">
        <ele>119.3</ele>
        <time>2025-02-25T09:58:18Z</time>
      </trkpt>
      <trkpt lat="48.09052" lon="-3.60615">
        <ele>119.5</ele>
        <time>2025-02-25T09:58:19Z</time>
      </trkpt>
      <trkpt lat="48.09053" lon="-3.60616">
        <ele>119.3</ele>
        <time>2025-02-25T09:58:20Z</time>
      </trkpt>
      <trkpt lat="48.09053" lon="-3.60615">
        <ele>119.5</ele>
        <time>2025-02-25T09:58:21Z</time>
      </trkpt>
      <trkpt lat="48.09054" lon="-3.60615">
        <ele>119.4</ele>
        <time>2025-02-25T09:58:22Z</time>
      </trkpt>
      <trkpt lat="48.09055" lon="-3.60615">
        <ele>119.4</ele>
        <time>2025-02-25T09:58:23Z</time>
      </trkpt>
      <trkpt lat="48.09056" lon="-3.60615">
        <ele>119.4</ele>
        <time>2025-02-25T09:58:24Z</time>
      </trkpt>
      <trkpt lat="48.09057" lon="-3.60615">
        <ele>119.4</ele>
        <time>2025-02-25T09:58:25Z</time>
      </trkpt>
      <trkpt lat="48.09058" lon="-3.60615">
        <ele>119.4</ele>
        <time>2025-02-25T09:58:26Z</time>
      </trkpt>
      <trkpt lat="48.09059" lon="-3.60614">
        <ele>119.6</ele>
        <time>2025-02-25T09:58:27Z</time>
      </trkpt>
      <trkpt lat="48.0906" lon="-3.60614">
        <ele>119.6</ele>
        <time>2025-02-25T09:58:28Z</time>
      </trkpt>
      <trkpt lat="48.09061" lon="-3.60614">
        <ele>119.5</ele>
        <time>2025-02-25T09:58:29Z</time>
      </trkpt>
      <trkpt lat="48.09062" lon="-3.60615">
        <ele>119.4</ele>
        <time>2025-02-25T09:58:30Z</time>
      </trkpt>
      <trkpt lat="48.09063" lon="-3.60615">
        <ele>119.4</ele>
        <time>2025-02-25T09:58:31Z</time>
      </trkpt>
      <trkpt lat="48.09064" lon="-3.60615">
        <ele>119.4</ele>
        <time>2025-02-25T09:58:32Z</time>
      </trkpt>
      <trkpt lat="48.09065" lon="-3.60615">
        <ele>119.3</ele>
        <time>2025-02-25T09:58:33Z</time>
      </trkpt>
      <trkpt lat="48.09066" lon="-3.60614">
        <ele>119.5</ele>
        <time>2025-02-25T09:58:34Z</time>
      </trkpt>
      <trkpt lat="48.09067" lon="-3.60614">
        <ele>119.5</ele>
        <time>2025-02-25T09:58:35Z</time>
      </trkpt>
      <trkpt lat="48.09068" lon="-3.60614">
        <ele>119.5</ele>
        <time>2025-02-25T09:58:36Z</time>
      </trkpt>
      <trkpt lat="48.09068" lon="-3.60614">
        <ele>119.5</ele>
        <time>2025-02-25T09:58:37Z</time>
      </trkpt>
      <trkpt lat="48.09069" lon="-3.60614">
        <ele>119.5</ele>
        <time>2025-02-25T09:58:38Z</time>
      </trkpt>
      <trkpt lat="48.0907" lon="-3.60615">
        <ele>119.3</ele>
        <time>2025-02-25T09:58:39Z</time>
      </trkpt>
      <trkpt lat="48.09071" lon="-3.60615">
        <ele>119.3</ele>
        <time>2025-02-25T09:58:40Z</time>
      </trkpt>
      <trkpt lat="48.09072" lon="-3.60615">
        <ele>119.3</ele>
        <time>2025-02-25T09:58:41Z</time>
      </trkpt>
      <trkpt lat="48.09073" lon="-3.60616">
        <ele>119.1</ele>
        <time>2025-02-25T09:58:42Z</time>
      </trkpt>
      <trkpt lat="48.09075" lon="-3.60617">
        <ele>118.9</ele>
        <time>2025-02-25T09:58:43Z</time>
      </trkpt>
      <trkpt lat="48.09076" lon="-3.60616">
        <ele>119</ele>
        <time>2025-02-25T09:58:44Z</time>
      </trkpt>
      <trkpt lat="48.09077" lon="-3.60617">
        <ele>118.8</ele>
        <time>2025-02-25T09:58:45Z</time>
      </trkpt>
      <trkpt lat="48.09078" lon="-3.60617">
        <ele>118.8</ele>
        <time>2025-02-25T09:58:46Z</time>
      </trkpt>
      <trkpt lat="48.09079" lon="-3.60617">
        <ele>118.8</ele>
        <time>2025-02-25T09:58:47Z</time>
      </trkpt>
      <trkpt lat="48.0908" lon="-3.60618">
        <ele>118.6</ele>
        <time>2025-02-25T09:58:48Z</time>
      </trkpt>
      <trkpt lat="48.09081" lon="-3.60619">
        <ele>118.3</ele>
        <time>2025-02-25T09:58:49Z</time>
      </trkpt>
      <trkpt lat="48.09082" lon="-3.60619">
        <ele>118.3</ele>
        <time>2025-02-25T09:58:50Z</time>
      </trkpt>
      <trkpt lat="48.09083" lon="-3.60619">
        <ele>118.3</ele>
        <time>2025-02-25T09:58:51Z</time>
      </trkpt>
      <trkpt lat="48.09083" lon="-3.60619">
        <ele>118.3</ele>
        <time>2025-02-25T09:58:52Z</time>
      </trkpt>
      <trkpt lat="48.09084" lon="-3.60618">
        <ele>118.5</ele>
        <time>2025-02-25T09:58:53Z</time>
      </trkpt>
      <trkpt lat="48.09086" lon="-3.60618">
        <ele>118.5</ele>
        <time>2025-02-25T09:58:54Z</time>
      </trkpt>
      <trkpt lat="48.09087" lon="-3.60618">
        <ele>118.4</ele>
        <time>2025-02-25T09:58:55Z</time>
      </trkpt>
      <trkpt lat="48.09088" lon="-3.60618">
        <ele>118.4</ele>
        <time>2025-02-25T09:58:56Z</time>
      </trkpt>
      <trkpt lat="48.09089" lon="-3.60619">
        <ele>118.2</ele>
        <time>2025-02-25T09:58:57Z</time>
      </trkpt>
      <trkpt lat="48.0909" lon="-3.6062">
        <ele>118</ele>
        <time>2025-02-25T09:58:58Z</time>
      </trkpt>
      <trkpt lat="48.09091" lon="-3.6062">
        <ele>118</ele>
        <time>2025-02-25T09:58:59Z</time>
      </trkpt>
      <trkpt lat="48.09092" lon="-3.6062">
        <ele>118</ele>
        <time>2025-02-25T09:59:00Z</time>
      </trkpt>
      <trkpt lat="48.09093" lon="-3.60621">
        <ele>117.8</ele>
        <time>2025-02-25T09:59:01Z</time>
      </trkpt>
      <trkpt lat="48.09094" lon="-3.60621">
        <ele>117.8</ele>
        <time>2025-02-25T09:59:02Z</time>
      </trkpt>
      <trkpt lat="48.09095" lon="-3.60621">
        <ele>117.7</ele>
        <time>2025-02-25T09:59:03Z</time>
      </trkpt>
      <trkpt lat="48.09096" lon="-3.60621">
        <ele>117.7</ele>
        <time>2025-02-25T09:59:04Z</time>
      </trkpt>
      <trkpt lat="48.09097" lon="-3.60621">
        <ele>117.7</ele>
        <time>2025-02-25T09:59:05Z</time>
      </trkpt>
      <trkpt lat="48.09097" lon="-3.60621">
        <ele>117.7</ele>
        <time>2025-02-25T09:59:06Z</time>
      </trkpt>
      <trkpt lat="48.09099" lon="-3.60621">
        <ele>117.7</ele>
        <time>2025-02-25T09:59:07Z</time>
      </trkpt>
      <trkpt lat="48.09099" lon="-3.60622">
        <ele>117.5</ele>
        <time>2025-02-25T09:59:08Z</time>
      </trkpt>
      <trkpt lat="48.091" lon="-3.60622">
        <ele>117.5</ele>
        <time>2025-02-25T09:59:09Z</time>
      </trkpt>
      <trkpt lat="48.09101" lon="-3.60623">
        <ele>117.3</ele>
        <time>2025-02-25T09:59:10Z</time>
      </trkpt>
      <trkpt lat="48.09102" lon="-3.60623">
        <ele>117.3</ele>
        <time>2025-02-25T09:59:11Z</time>
      </trkpt>
      <trkpt lat="48.09103" lon="-3.60622">
        <ele>117.5</ele>
        <time>2025-02-25T09:59:12Z</time>
      </trkpt>
      <trkpt lat="48.09104" lon="-3.60622">
        <ele>117.5</ele>
        <time>2025-02-25T09:59:13Z</time>
      </trkpt>
      <trkpt lat="48.09105" lon="-3.60623">
        <ele>117.3</ele>
        <time>2025-02-25T09:59:14Z</time>
      </trkpt>
      <trkpt lat="48.09106" lon="-3.60623">
        <ele>117.3</ele>
        <time>2025-02-25T09:59:15Z</time>
      </trkpt>
      <trkpt lat="48.09107" lon="-3.60623">
        <ele>117.3</ele>
        <time>2025-02-25T09:59:16Z</time>
      </trkpt>
      <trkpt lat="48.09108" lon="-3.60624">
        <ele>117.2</ele>
        <time>2025-02-25T09:59:17Z</time>
      </trkpt>
      <trkpt lat="48.0911" lon="-3.60624">
        <ele>117.1</ele>
        <time>2025-02-25T09:59:18Z</time>
      </trkpt>
      <trkpt lat="48.0911" lon="-3.60624">
        <ele>117.1</ele>
        <time>2025-02-25T09:59:19Z</time>
      </trkpt>
      <trkpt lat="48.09112" lon="-3.60625">
        <ele>117.1</ele>
        <time>2025-02-25T09:59:20Z</time>
      </trkpt>
      <trkpt lat="48.09113" lon="-3.60625">
        <ele>117.1</ele>
        <time>2025-02-25T09:59:21Z</time>
      </trkpt>
      <trkpt lat="48.09114" lon="-3.60625">
        <ele>117.2</ele>
        <time>2025-02-25T09:59:22Z</time>
      </trkpt>
      <trkpt lat="48.09115" lon="-3.60625">
        <ele>117.3</ele>
        <time>2025-02-25T09:59:23Z</time>
      </trkpt>
      <trkpt lat="48.09116" lon="-3.60625">
        <ele>117.4</ele>
        <time>2025-02-25T09:59:24Z</time>
      </trkpt>
      <trkpt lat="48.09117" lon="-3.60626">
        <ele>117.3</ele>
        <time>2025-02-25T09:59:25Z</time>
      </trkpt>
      <trkpt lat="48.09118" lon="-3.60627">
        <ele>117.2</ele>
        <time>2025-02-25T09:59:26Z</time>
      </trkpt>
      <trkpt lat="48.09118" lon="-3.60629">
        <ele>117</ele>
        <time>2025-02-25T09:59:27Z</time>
      </trkpt>
      <trkpt lat="48.09117" lon="-3.6063">
        <ele>116.8</ele>
        <time>2025-02-25T09:59:28Z</time>
      </trkpt>
      <trkpt lat="48.09117" lon="-3.60629">
        <ele>116.9</ele>
        <time>2025-02-25T09:59:29Z</time>
      </trkpt>
      <trkpt lat="48.09117" lon="-3.6063">
        <ele>116.8</ele>
        <time>2025-02-25T09:59:30Z</time>
      </trkpt>
      <trkpt lat="48.09118" lon="-3.60631">
        <ele>116.7</ele>
        <time>2025-02-25T09:59:31Z</time>
      </trkpt>
      <trkpt lat="48.09119" lon="-3.60632">
        <ele>116.7</ele>
        <time>2025-02-25T09:59:32Z</time>
      </trkpt>
      <trkpt lat="48.0912" lon="-3.60633">
        <ele>116.7</ele>
        <time>2025-02-25T09:59:33Z</time>
      </trkpt>
      <trkpt lat="48.09121" lon="-3.60634">
        <ele>116.6</ele>
        <time>2025-02-25T09:59:34Z</time>
      </trkpt>
      <trkpt lat="48.09122" lon="-3.60635">
        <ele>116.6</ele>
        <time>2025-02-25T09:59:35Z</time>
      </trkpt>
      <trkpt lat="48.09123" lon="-3.60637">
        <ele>116.5</ele>
        <time>2025-02-25T09:59:36Z</time>
      </trkpt>
      <trkpt lat="48.09124" lon="-3.60638">
        <ele>116.5</ele>
        <time>2025-02-25T09:59:37Z</time>
      </trkpt>
      <trkpt lat="48.09125" lon="-3.60638">
        <ele>116.6</ele>
        <time>2025-02-25T09:59:38Z</time>
      </trkpt>
      <trkpt lat="48.09126" lon="-3.60639">
        <ele>116.6</ele>
        <time>2025-02-25T09:59:39Z</time>
      </trkpt>
      <trkpt lat="48.09127" lon="-3.60639">
        <ele>116.7</ele>
        <time>2025-02-25T09:59:40Z</time>
      </trkpt>
      <trkpt lat="48.09129" lon="-3.60641">
        <ele>116.8</ele>
        <time>2025-02-25T09:59:41Z</time>
      </trkpt>
      <trkpt lat="48.0913" lon="-3.60642">
        <ele>116.8</ele>
        <time>2025-02-25T09:59:42Z</time>
      </trkpt>
      <trkpt lat="48.0913" lon="-3.60642">
        <ele>116.8</ele>
        <time>2025-02-25T09:59:43Z</time>
      </trkpt>
      <trkpt lat="48.09131" lon="-3.60644">
        <ele>116.8</ele>
        <time>2025-02-25T09:59:44Z</time>
      </trkpt>
      <trkpt lat="48.09132" lon="-3.60645">
        <ele>116.8</ele>
        <time>2025-02-25T09:59:45Z</time>
      </trkpt>
      <trkpt lat="48.09133" lon="-3.60645">
        <ele>116.9</ele>
        <time>2025-02-25T09:59:46Z</time>
      </trkpt>
      <trkpt lat="48.09134" lon="-3.60646">
        <ele>117</ele>
        <time>2025-02-25T09:59:47Z</time>
      </trkpt>
      <trkpt lat="48.09135" lon="-3.60646">
        <ele>117.1</ele>
        <time>2025-02-25T09:59:48Z</time>
      </trkpt>
      <trkpt lat="48.09136" lon="-3.60647">
        <ele>117.1</ele>
        <time>2025-02-25T09:59:49Z</time>
      </trkpt>
      <trkpt lat="48.09137" lon="-3.60648">
        <ele>117.1</ele>
        <time>2025-02-25T09:59:50Z</time>
      </trkpt>
      <trkpt lat="48.09137" lon="-3.60648">
        <ele>117.1</ele>
        <time>2025-02-25T09:59:51Z</time>
      </trkpt>
      <trkpt lat="48.09138" lon="-3.60648">
        <ele>117.2</ele>
        <time>2025-02-25T09:59:52Z</time>
      </trkpt>
      <trkpt lat="48.09139" lon="-3.60649">
        <ele>117.3</ele>
        <time>2025-02-25T09:59:53Z</time>
      </trkpt>
      <trkpt lat="48.0914" lon="-3.6065">
        <ele>117.3</ele>
        <time>2025-02-25T09:59:54Z</time>
      </trkpt>
      <trkpt lat="48.0914" lon="-3.6065">
        <ele>117.3</ele>
        <time>2025-02-25T09:59:55Z</time>
      </trkpt>
      <trkpt lat="48.09141" lon="-3.60651">
        <ele>117.4</ele>
        <time>2025-02-25T09:59:56Z</time>
      </trkpt>
      <trkpt lat="48.09142" lon="-3.60651">
        <ele>117.5</ele>
        <time>2025-02-25T09:59:57Z</time>
      </trkpt>
      <trkpt lat="48.09143" lon="-3.60652">
        <ele>117.5</ele>
        <time>2025-02-25T09:59:58Z</time>
      </trkpt>
      <trkpt lat="48.09144" lon="-3.60653">
        <ele>117.5</ele>
        <time>2025-02-25T09:59:59Z</time>
      </trkpt>
      <trkpt lat="48.09144" lon="-3.60653">
        <ele>117.5</ele>
        <time>2025-02-25T10:00:00Z</time>
      </trkpt>
      <trkpt lat="48.09145" lon="-3.60654">
        <ele>117.6</ele>
        <time>2025-02-25T10:00:01Z</time>
      </trkpt>
      <trkpt lat="48.09146" lon="-3.60654">
        <ele>117.7</ele>
        <time>2025-02-25T10:00:02Z</time>
      </trkpt>
      <trkpt lat="48.09146" lon="-3.60657">
        <ele>117.4</ele>
        <time>2025-02-25T10:00:03Z</time>
      </trkpt>
      <trkpt lat="48.09147" lon="-3.60658">
        <ele>117.4</ele>
        <time>2025-02-25T10:00:04Z</time>
      </trkpt>
      <trkpt lat="48.09147" lon="-3.60659">
        <ele>117.3</ele>
        <time>2025-02-25T10:00:05Z</time>
      </trkpt>
      <trkpt lat="48.09149" lon="-3.60658">
        <ele>117.6</ele>
        <time>2025-02-25T10:00:06Z</time>
      </trkpt>
      <trkpt lat="48.0915" lon="-3.60658">
        <ele>117.7</ele>
        <time>2025-02-25T10:00:07Z</time>
      </trkpt>
      <trkpt lat="48.0915" lon="-3.60659">
        <ele>117.6</ele>
        <time>2025-02-25T10:00:08Z</time>
      </trkpt>
      <trkpt lat="48.09152" lon="-3.60658">
        <ele>117.9</ele>
        <time>2025-02-25T10:00:09Z</time>
      </trkpt>
      <trkpt lat="48.09153" lon="-3.60657">
        <ele>118.1</ele>
        <time>2025-02-25T10:00:10Z</time>
      </trkpt>
      <trkpt lat="48.09154" lon="-3.60657">
        <ele>118.2</ele>
        <time>2025-02-25T10:00:11Z</time>
      </trkpt>
      <trkpt lat="48.09155" lon="-3.60657">
        <ele>118.3</ele>
        <time>2025-02-25T10:00:12Z</time>
      </trkpt>
      <trkpt lat="48.09156" lon="-3.60657">
        <ele>118.4</ele>
        <time>2025-02-25T10:00:13Z</time>
      </trkpt>
      <trkpt lat="48.09157" lon="-3.60657">
        <ele>118.5</ele>
        <time>2025-02-25T10:00:14Z</time>
      </trkpt>
      <trkpt lat="48.09159" lon="-3.60656">
        <ele>118.8</ele>
        <time>2025-02-25T10:00:15Z</time>
      </trkpt>
      <trkpt lat="48.09159" lon="-3.60655">
        <ele>118.9</ele>
        <time>2025-02-25T10:00:16Z</time>
      </trkpt>
      <trkpt lat="48.09161" lon="-3.60655">
        <ele>119.1</ele>
        <time>2025-02-25T10:00:17Z</time>
      </trkpt>
      <trkpt lat="48.09162" lon="-3.60655">
        <ele>119.2</ele>
        <time>2025-02-25T10:00:18Z</time>
      </trkpt>
      <trkpt lat="48.09163" lon="-3.60655">
        <ele>119.3</ele>
        <time>2025-02-25T10:00:19Z</time>
      </trkpt>
      <trkpt lat="48.09164" lon="-3.60654">
        <ele>119.5</ele>
        <time>2025-02-25T10:00:20Z</time>
      </trkpt>
      <trkpt lat="48.09165" lon="-3.60654">
        <ele>119.6</ele>
        <time>2025-02-25T10:00:21Z</time>
      </trkpt>
      <trkpt lat="48.09166" lon="-3.60653">
        <ele>119.9</ele>
        <time>2025-02-25T10:00:22Z</time>
      </trkpt>
      <trkpt lat="48.09167" lon="-3.60653">
        <ele>119.9</ele>
        <time>2025-02-25T10:00:23Z</time>
      </trkpt>
      <trkpt lat="48.09168" lon="-3.60652">
        <ele>120</ele>
        <time>2025-02-25T10:00:24Z</time>
      </trkpt>
      <trkpt lat="48.09169" lon="-3.6065">
        <ele>120.2</ele>
        <time>2025-02-25T10:00:25Z</time>
      </trkpt>
      <trkpt lat="48.0917" lon="-3.60649">
        <ele>120.3</ele>
        <time>2025-02-25T10:00:26Z</time>
      </trkpt>
      <trkpt lat="48.09171" lon="-3.60649">
        <ele>120.2</ele>
        <time>2025-02-25T10:00:27Z</time>
      </trkpt>
      <trkpt lat="48.09172" lon="-3.60648">
        <ele>120.3</ele>
        <time>2025-02-25T10:00:28Z</time>
      </trkpt>
      <trkpt lat="48.09173" lon="-3.60647">
        <ele>120.4</ele>
        <time>2025-02-25T10:00:29Z</time>
      </trkpt>
      <trkpt lat="48.09174" lon="-3.60646">
        <ele>120.4</ele>
        <time>2025-02-25T10:00:30Z</time>
      </trkpt>
      <trkpt lat="48.09174" lon="-3.60645">
        <ele>120.6</ele>
        <time>2025-02-25T10:00:31Z</time>
      </trkpt>
      <trkpt lat="48.09175" lon="-3.60645">
        <ele>120.5</ele>
        <time>2025-02-25T10:00:32Z</time>
      </trkpt>
      <trkpt lat="48.09176" lon="-3.60644">
        <ele>120.6</ele>
        <time>2025-02-25T10:00:33Z</time>
      </trkpt>
      <trkpt lat="48.09176" lon="-3.60642">
        <ele>120.9</ele>
        <time>2025-02-25T10:00:34Z</time>
      </trkpt>
      <trkpt lat="48.09177" lon="-3.60641">
        <ele>121</ele>
        <time>2025-02-25T10:00:35Z</time>
      </trkpt>
      <trkpt lat="48.09178" lon="-3.6064">
        <ele>121</ele>
        <time>2025-02-25T10:00:36Z</time>
      </trkpt>
      <trkpt lat="48.09178" lon="-3.60638">
        <ele>121.3</ele>
        <time>2025-02-25T10:00:37Z</time>
      </trkpt>
      <trkpt lat="48.09178" lon="-3.60637">
        <ele>121.5</ele>
        <time>2025-02-25T10:00:38Z</time>
      </trkpt>
      <trkpt lat="48.09179" lon="-3.60635">
        <ele>121.7</ele>
        <time>2025-02-25T10:00:39Z</time>
      </trkpt>
      <trkpt lat="48.09179" lon="-3.60634">
        <ele>121.9</ele>
        <time>2025-02-25T10:00:40Z</time>
      </trkpt>
      <trkpt lat="48.09179" lon="-3.60633">
        <ele>122</ele>
        <time>2025-02-25T10:00:41Z</time>
      </trkpt>
      <trkpt lat="48.0918" lon="-3.60631">
        <ele>122.3</ele>
        <time>2025-02-25T10:00:42Z</time>
      </trkpt>
      <trkpt lat="48.0918" lon="-3.6063">
        <ele>122.4</ele>
        <time>2025-02-25T10:00:43Z</time>
      </trkpt>
      <trkpt lat="48.0918" lon="-3.60629">
        <ele>122.6</ele>
        <time>2025-02-25T10:00:44Z</time>
      </trkpt>
      <trkpt lat="48.0918" lon="-3.60627">
        <ele>122.9</ele>
        <time>2025-02-25T10:00:45Z</time>
      </trkpt>
      <trkpt lat="48.09181" lon="-3.60626">
        <ele>123.1</ele>
        <time>2025-02-25T10:00:46Z</time>
      </trkpt>
      <trkpt lat="48.09181" lon="-3.60625">
        <ele>123.3</ele>
        <time>2025-02-25T10:00:47Z</time>
      </trkpt>
      <trkpt lat="48.09182" lon="-3.60624">
        <ele>123.4</ele>
        <time>2025-02-25T10:00:48Z</time>
      </trkpt>
      <trkpt lat="48.09183" lon="-3.60623">
        <ele>123.6</ele>
        <time>2025-02-25T10:00:49Z</time>
      </trkpt>
      <trkpt lat="48.09183" lon="-3.60622">
        <ele>123.8</ele>
        <time>2025-02-25T10:00:50Z</time>
      </trkpt>
      <trkpt lat="48.09184" lon="-3.60621">
        <ele>124</ele>
        <time>2025-02-25T10:00:51Z</time>
      </trkpt>
      <trkpt lat="48.09185" lon="-3.6062">
        <ele>124.3</ele>
        <time>2025-02-25T10:00:52Z</time>
      </trkpt>
      <trkpt lat="48.09186" lon="-3.60619">
        <ele>124.5</ele>
        <time>2025-02-25T10:00:53Z</time>
      </trkpt>
      <trkpt lat="48.09186" lon="-3.60617">
        <ele>124.9</ele>
        <time>2025-02-25T10:00:54Z</time>
      </trkpt>
      <trkpt lat="48.09187" lon="-3.60616">
        <ele>125.2</ele>
        <time>2025-02-25T10:00:55Z</time>
      </trkpt>
      <trkpt lat="48.09188" lon="-3.60614">
        <ele>125.7</ele>
        <time>2025-02-25T10:00:56Z</time>
      </trkpt>
      <trkpt lat="48.09189" lon="-3.60613">
        <ele>126</ele>
        <time>2025-02-25T10:00:57Z</time>
      </trkpt>
      <trkpt lat="48.0919" lon="-3.60613">
        <ele>126.1</ele>
        <time>2025-02-25T10:00:58Z</time>
      </trkpt>
      <trkpt lat="48.09191" lon="-3.60612">
        <ele>126.4</ele>
        <time>2025-02-25T10:00:59Z</time>
      </trkpt>
      <trkpt lat="48.09192" lon="-3.6061">
        <ele>126.8</ele>
        <time>2025-02-25T10:01:00Z</time>
      </trkpt>
      <trkpt lat="48.09192" lon="-3.60609">
        <ele>126.9</ele>
        <time>2025-02-25T10:01:01Z</time>
      </trkpt>
      <trkpt lat="48.09193" lon="-3.60608">
        <ele>127.1</ele>
        <time>2025-02-25T10:01:02Z</time>
      </trkpt>
      <trkpt lat="48.09194" lon="-3.60607">
        <ele>127.2</ele>
        <time>2025-02-25T10:01:03Z</time>
      </trkpt>
      <trkpt lat="48.09195" lon="-3.60605">
        <ele>127.3</ele>
        <time>2025-02-25T10:01:04Z</time>
      </trkpt>
      <trkpt lat="48.09195" lon="-3.60603">
        <ele>127.5</ele>
        <time>2025-02-25T10:01:05Z</time>
      </trkpt>
      <trkpt lat="48.09196" lon="-3.60602">
        <ele>127.3</ele>
        <time>2025-02-25T10:01:06Z</time>
      </trkpt>
      <trkpt lat="48.09197" lon="-3.60601">
        <ele>127.2</ele>
        <time>2025-02-25T10:01:07Z</time>
      </trkpt>
      <trkpt lat="48.09198" lon="-3.606">
        <ele>127.2</ele>
        <time>2025-02-25T10:01:08Z</time>
      </trkpt>
      <trkpt lat="48.09199" lon="-3.60598">
        <ele>127.2</ele>
        <time>2025-02-25T10:01:09Z</time>
      </trkpt>
      <trkpt lat="48.09199" lon="-3.60597">
        <ele>127.4</ele>
        <time>2025-02-25T10:01:10Z</time>
      </trkpt>
      <trkpt lat="48.092" lon="-3.60596">
        <ele>127.4</ele>
        <time>2025-02-25T10:01:11Z</time>
      </trkpt>
      <trkpt lat="48.09201" lon="-3.60595">
        <ele>127.4</ele>
        <time>2025-02-25T10:01:12Z</time>
      </trkpt>
      <trkpt lat="48.09201" lon="-3.60594">
        <ele>127.6</ele>
        <time>2025-02-25T10:01:13Z</time>
      </trkpt>
      <trkpt lat="48.09202" lon="-3.60593">
        <ele>127.6</ele>
        <time>2025-02-25T10:01:14Z</time>
      </trkpt>
      <trkpt lat="48.09203" lon="-3.60592">
        <ele>127.7</ele>
        <time>2025-02-25T10:01:15Z</time>
      </trkpt>
      <trkpt lat="48.09203" lon="-3.60592">
        <ele>127.7</ele>
        <time>2025-02-25T10:01:16Z</time>
      </trkpt>
      <trkpt lat="48.09204" lon="-3.6059">
        <ele>128</ele>
        <time>2025-02-25T10:01:17Z</time>
      </trkpt>
      <trkpt lat="48.09205" lon="-3.6059">
        <ele>128</ele>
        <time>2025-02-25T10:01:18Z</time>
      </trkpt>
      <trkpt lat="48.09206" lon="-3.60588">
        <ele>128.4</ele>
        <time>2025-02-25T10:01:19Z</time>
      </trkpt>
      <trkpt lat="48.09206" lon="-3.60587">
        <ele>128.6</ele>
        <time>2025-02-25T10:01:20Z</time>
      </trkpt>
      <trkpt lat="48.09207" lon="-3.60586">
        <ele>128.8</ele>
        <time>2025-02-25T10:01:21Z</time>
      </trkpt>
      <trkpt lat="48.09207" lon="-3.60585">
        <ele>129.1</ele>
        <time>2025-02-25T10:01:22Z</time>
      </trkpt>
      <trkpt lat="48.09208" lon="-3.60584">
        <ele>129.3</ele>
        <time>2025-02-25T10:01:23Z</time>
      </trkpt>
      <trkpt lat="48.09209" lon="-3.60584">
        <ele>129.4</ele>
        <time>2025-02-25T10:01:24Z</time>
      </trkpt>
      <trkpt lat="48.0921" lon="-3.60583">
        <ele>129.6</ele>
        <time>2025-02-25T10:01:25Z</time>
      </trkpt>
      <trkpt lat="48.09211" lon="-3.60582">
        <ele>129.7</ele>
        <time>2025-02-25T10:01:26Z</time>
      </trkpt>
      <trkpt lat="48.09212" lon="-3.60581">
        <ele>129.9</ele>
        <time>2025-02-25T10:01:27Z</time>
      </trkpt>
      <trkpt lat="48.09213" lon="-3.60581">
        <ele>129.9</ele>
        <time>2025-02-25T10:01:28Z</time>
      </trkpt>
      <trkpt lat="48.09213" lon="-3.60581">
        <ele>129.9</ele>
        <time>2025-02-25T10:01:29Z</time>
      </trkpt>
      <trkpt lat="48.09214" lon="-3.6058">
        <ele>130</ele>
        <time>2025-02-25T10:01:30Z</time>
      </trkpt>
      <trkpt lat="48.09215" lon="-3.60579">
        <ele>130.2</ele>
        <time>2025-02-25T10:01:31Z</time>
      </trkpt>
      <trkpt lat="48.09216" lon="-3.60578">
        <ele>130.3</ele>
        <time>2025-02-25T10:01:32Z</time>
      </trkpt>
      <trkpt lat="48.09217" lon="-3.60577">
        <ele>130.5</ele>
        <time>2025-02-25T10:01:33Z</time>
      </trkpt>
      <trkpt lat="48.09218" lon="-3.60576">
        <ele>130.6</ele>
        <time>2025-02-25T10:01:34Z</time>
      </trkpt>
      <trkpt lat="48.09219" lon="-3.60575">
        <ele>130.7</ele>
        <time>2025-02-25T10:01:35Z</time>
      </trkpt>
      <trkpt lat="48.0922" lon="-3.60575">
        <ele>130.8</ele>
        <time>2025-02-25T10:01:36Z</time>
      </trkpt>
      <trkpt lat="48.09221" lon="-3.60574">
        <ele>130.9</ele>
        <time>2025-02-25T10:01:37Z</time>
      </trkpt>
      <trkpt lat="48.09221" lon="-3.60573">
        <ele>131.1</ele>
        <time>2025-02-25T10:01:38Z</time>
      </trkpt>
      <trkpt lat="48.09222" lon="-3.60572">
        <ele>131.2</ele>
        <time>2025-02-25T10:01:39Z</time>
      </trkpt>
      <trkpt lat="48.09223" lon="-3.60571">
        <ele>131.1</ele>
        <time>2025-02-25T10:01:40Z</time>
      </trkpt>
      <trkpt lat="48.09224" lon="-3.60571">
        <ele>130.8</ele>
        <time>2025-02-25T10:01:41Z</time>
      </trkpt>
      <trkpt lat="48.09225" lon="-3.6057">
        <ele>130.7</ele>
        <time>2025-02-25T10:01:42Z</time>
      </trkpt>
      <trkpt lat="48.09226" lon="-3.60569">
        <ele>130.5</ele>
        <time>2025-02-25T10:01:43Z</time>
      </trkpt>
      <trkpt lat="48.09227" lon="-3.60569">
        <ele>130.3</ele>
        <time>2025-02-25T10:01:44Z</time>
      </trkpt>
      <trkpt lat="48.09228" lon="-3.60568">
        <ele>130.2</ele>
        <time>2025-02-25T10:01:45Z</time>
      </trkpt>
      <trkpt lat="48.09229" lon="-3.60568">
        <ele>129.9</ele>
        <time>2025-02-25T10:01:46Z</time>
      </trkpt>
      <trkpt lat="48.0923" lon="-3.60568">
        <ele>129.6</ele>
        <time>2025-02-25T10:01:47Z</time>
      </trkpt>
      <trkpt lat="48.09231" lon="-3.60568">
        <ele>129.4</ele>
        <time>2025-02-25T10:01:48Z</time>
      </trkpt>
      <trkpt lat="48.09232" lon="-3.60567">
        <ele>129.3</ele>
        <time>2025-02-25T10:01:49Z</time>
      </trkpt>
      <trkpt lat="48.09234" lon="-3.60567">
        <ele>128.8</ele>
        <time>2025-02-25T10:01:50Z</time>
      </trkpt>
      <trkpt lat="48.09234" lon="-3.60566">
        <ele>129</ele>
        <time>2025-02-25T10:01:51Z</time>
      </trkpt>
      <trkpt lat="48.09235" lon="-3.60566">
        <ele>128.7</ele>
        <time>2025-02-25T10:01:52Z</time>
      </trkpt>
      <trkpt lat="48.09236" lon="-3.60566">
        <ele>128.5</ele>
        <time>2025-02-25T10:01:53Z</time>
      </trkpt>
      <trkpt lat="48.09237" lon="-3.60566">
        <ele>128.2</ele>
        <time>2025-02-25T10:01:54Z</time>
      </trkpt>
      <trkpt lat="48.09238" lon="-3.60565">
        <ele>128.2</ele>
        <time>2025-02-25T10:01:55Z</time>
      </trkpt>
      <trkpt lat="48.09238" lon="-3.60565">
        <ele>128.2</ele>
        <time>2025-02-25T10:01:56Z</time>
      </trkpt>
      <trkpt lat="48.09239" lon="-3.60565">
        <ele>127.9</ele>
        <time>2025-02-25T10:01:57Z</time>
      </trkpt>
      <trkpt lat="48.0924" lon="-3.60564">
        <ele>127.9</ele>
        <time>2025-02-25T10:01:58Z</time>
      </trkpt>
      <trkpt lat="48.09241" lon="-3.60564">
        <ele>127.7</ele>
        <time>2025-02-25T10:01:59Z</time>
      </trkpt>
      <trkpt lat="48.09242" lon="-3.60564">
        <ele>127.4</ele>
        <time>2025-02-25T10:02:00Z</time>
      </trkpt>
      <trkpt lat="48.09243" lon="-3.60565">
        <ele>127</ele>
        <time>2025-02-25T10:02:01Z</time>
      </trkpt>
      <trkpt lat="48.09243" lon="-3.60565">
        <ele>127</ele>
        <time>2025-02-25T10:02:02Z</time>
      </trkpt>
      <trkpt lat="48.09245" lon="-3.60564">
        <ele>126.7</ele>
        <time>2025-02-25T10:02:03Z</time>
      </trkpt>
      <trkpt lat="48.09246" lon="-3.60564">
        <ele>126.5</ele>
        <time>2025-02-25T10:02:04Z</time>
      </trkpt>
      <trkpt lat="48.09247" lon="-3.60563">
        <ele>126.5</ele>
        <time>2025-02-25T10:02:05Z</time>
      </trkpt>
      <trkpt lat="48.09248" lon="-3.60563">
        <ele>126.3</ele>
        <time>2025-02-25T10:02:06Z</time>
      </trkpt>
      <trkpt lat="48.09249" lon="-3.60563">
        <ele>126.1</ele>
        <time>2025-02-25T10:02:07Z</time>
      </trkpt>
      <trkpt lat="48.0925" lon="-3.60562">
        <ele>126.1</ele>
        <time>2025-02-25T10:02:08Z</time>
      </trkpt>
      <trkpt lat="48.09251" lon="-3.60562">
        <ele>125.9</ele>
        <time>2025-02-25T10:02:09Z</time>
      </trkpt>
      <trkpt lat="48.09252" lon="-3.60562">
        <ele>125.7</ele>
        <time>2025-02-25T10:02:10Z</time>
      </trkpt>
      <trkpt lat="48.09253" lon="-3.60561">
        <ele>125.8</ele>
        <time>2025-02-25T10:02:11Z</time>
      </trkpt>
      <trkpt lat="48.09254" lon="-3.60561">
        <ele>125.6</ele>
        <time>2025-02-25T10:02:12Z</time>
      </trkpt>
      <trkpt lat="48.09255" lon="-3.6056">
        <ele>125.6</ele>
        <time>2025-02-25T10:02:13Z</time>
      </trkpt>
      <trkpt lat="48.09256" lon="-3.60559">
        <ele>125.6</ele>
        <time>2025-02-25T10:02:14Z</time>
      </trkpt>
      <trkpt lat="48.09257" lon="-3.60559">
        <ele>125.4</ele>
        <time>2025-02-25T10:02:15Z</time>
      </trkpt>
      <trkpt lat="48.09257" lon="-3.60559">
        <ele>125.4</ele>
        <time>2025-02-25T10:02:16Z</time>
      </trkpt>
      <trkpt lat="48.09258" lon="-3.60558">
        <ele>125.4</ele>
        <time>2025-02-25T10:02:17Z</time>
      </trkpt>
      <trkpt lat="48.09259" lon="-3.60558">
        <ele>125.2</ele>
        <time>2025-02-25T10:02:18Z</time>
      </trkpt>
      <trkpt lat="48.09259" lon="-3.60557">
        <ele>125.4</ele>
        <time>2025-02-25T10:02:19Z</time>
      </trkpt>
      <trkpt lat="48.0926" lon="-3.60557">
        <ele>125.2</ele>
        <time>2025-02-25T10:02:20Z</time>
      </trkpt>
      <trkpt lat="48.09261" lon="-3.60557">
        <ele>124.9</ele>
        <time>2025-02-25T10:02:21Z</time>
      </trkpt>
      <trkpt lat="48.09262" lon="-3.60557">
        <ele>124.7</ele>
        <time>2025-02-25T10:02:22Z</time>
      </trkpt>
      <trkpt lat="48.09263" lon="-3.60557">
        <ele>124.4</ele>
        <time>2025-02-25T10:02:23Z</time>
      </trkpt>
      <trkpt lat="48.09264" lon="-3.60557">
        <ele>124.2</ele>
        <time>2025-02-25T10:02:24Z</time>
      </trkpt>
      <trkpt lat="48.09265" lon="-3.60557">
        <ele>123.9</ele>
        <time>2025-02-25T10:02:25Z</time>
      </trkpt>
      <trkpt lat="48.09266" lon="-3.60557">
        <ele>123.7</ele>
        <time>2025-02-25T10:02:26Z</time>
      </trkpt>
      <trkpt lat="48.09266" lon="-3.60557">
        <ele>123.7</ele>
        <time>2025-02-25T10:02:27Z</time>
      </trkpt>
      <trkpt lat="48.09266" lon="-3.60557">
        <ele>123.7</ele>
        <time>2025-02-25T10:02:28Z</time>
      </trkpt>
      <trkpt lat="48.09266" lon="-3.60557">
        <ele>123.7</ele>
        <time>2025-02-25T10:02:29Z</time>
      </trkpt>
      <trkpt lat="48.09266" lon="-3.60557">
        <ele>123.7</ele>
        <time>2025-02-25T10:02:30Z</time>
      </trkpt>
      <trkpt lat="48.09266" lon="-3.60557">
        <ele>123.7</ele>
        <time>2025-02-25T10:02:31Z</time>
      </trkpt>
      <trkpt lat="48.09266" lon="-3.60557">
        <ele>123.7</ele>
        <time>2025-02-25T10:02:32Z</time>
      </trkpt>
      <trkpt lat="48.09266" lon="-3.60557">
        <ele>123.7</ele>
        <time>2025-02-25T10:02:33Z</time>
      </trkpt>
      <trkpt lat="48.09269" lon="-3.6056">
        <ele>122.5</ele>
        <time>2025-02-25T10:02:34Z</time>
      </trkpt>
      <trkpt lat="48.0927" lon="-3.6056">
        <ele>122.3</ele>
        <time>2025-02-25T10:02:35Z</time>
      </trkpt>
      <trkpt lat="48.09272" lon="-3.60558">
        <ele>122.1</ele>
        <time>2025-02-25T10:02:36Z</time>
      </trkpt>
      <trkpt lat="48.09273" lon="-3.60557">
        <ele>122</ele>
        <time>2025-02-25T10:02:37Z</time>
      </trkpt>
      <trkpt lat="48.09273" lon="-3.60556">
        <ele>122.1</ele>
        <time>2025-02-25T10:02:38Z</time>
      </trkpt>
      <trkpt lat="48.09274" lon="-3.60555">
        <ele>122.1</ele>
        <time>2025-02-25T10:02:39Z</time>
      </trkpt>
      <trkpt lat="48.09275" lon="-3.60554">
        <ele>122.2</ele>
        <time>2025-02-25T10:02:40Z</time>
      </trkpt>
      <trkpt lat="48.09276" lon="-3.60554">
        <ele>122</ele>
        <time>2025-02-25T10:02:41Z</time>
      </trkpt>
      <trkpt lat="48.09277" lon="-3.60554">
        <ele>121.8</ele>
        <time>2025-02-25T10:02:42Z</time>
      </trkpt>
      <trkpt lat="48.09278" lon="-3.60553">
        <ele>121.9</ele>
        <time>2025-02-25T10:02:43Z</time>
      </trkpt>
      <trkpt lat="48.09279" lon="-3.60553">
        <ele>121.9</ele>
        <time>2025-02-25T10:02:44Z</time>
      </trkpt>
      <trkpt lat="48.0928" lon="-3.60553">
        <ele>121.9</ele>
        <time>2025-02-25T10:02:45Z</time>
      </trkpt>
      <trkpt lat="48.09281" lon="-3.60552">
        <ele>122.2</ele>
        <time>2025-02-25T10:02:46Z</time>
      </trkpt>
      <trkpt lat="48.09282" lon="-3.60552">
        <ele>122.2</ele>
        <time>2025-02-25T10:02:47Z</time>
      </trkpt>
      <trkpt lat="48.09283" lon="-3.60551">
        <ele>122.5</ele>
        <time>2025-02-25T10:02:48Z</time>
      </trkpt>
      <trkpt lat="48.09284" lon="-3.60551">
        <ele>122.5</ele>
        <time>2025-02-25T10:02:49Z</time>
      </trkpt>
      <trkpt lat="48.09285" lon="-3.60551">
        <ele>122.5</ele>
        <time>2025-02-25T10:02:50Z</time>
      </trkpt>
      <trkpt lat="48.09286" lon="-3.60552">
        <ele>122.1</ele>
        <time>2025-02-25T10:02:51Z</time>
      </trkpt>
      <trkpt lat="48.09286" lon="-3.60552">
        <ele>122.1</ele>
        <time>2025-02-25T10:02:52Z</time>
      </trkpt>
      <trkpt lat="48.09288" lon="-3.60551">
        <ele>122.4</ele>
        <time>2025-02-25T10:02:53Z</time>
      </trkpt>
      <trkpt lat="48.09289" lon="-3.60551">
        <ele>122.4</ele>
        <time>2025-02-25T10:02:54Z</time>
      </trkpt>
      <trkpt lat="48.0929" lon="-3.6055">
        <ele>122.6</ele>
        <time>2025-02-25T10:02:55Z</time>
      </trkpt>
      <trkpt lat="48.09291" lon="-3.60549">
        <ele>122.9</ele>
        <time>2025-02-25T10:02:56Z</time>
      </trkpt>
      <trkpt lat="48.09293" lon="-3.60549">
        <ele>122.8</ele>
        <time>2025-02-25T10:02:57Z</time>
      </trkpt>
      <trkpt lat="48.09294" lon="-3.60549">
        <ele>122.8</ele>
        <time>2025-02-25T10:02:58Z</time>
      </trkpt>
      <trkpt lat="48.09295" lon="-3.60549">
        <ele>122.8</ele>
        <time>2025-02-25T10:02:59Z</time>
      </trkpt>
      <trkpt lat="48.09296" lon="-3.60549">
        <ele>122.7</ele>
        <time>2025-02-25T10:03:00Z</time>
      </trkpt>
      <trkpt lat="48.09297" lon="-3.60549">
        <ele>122.7</ele>
        <time>2025-02-25T10:03:01Z</time>
      </trkpt>
      <trkpt lat="48.09298" lon="-3.60548">
        <ele>122.9</ele>
        <time>2025-02-25T10:03:02Z</time>
      </trkpt>
      <trkpt lat="48.09299" lon="-3.60548">
        <ele>122.9</ele>
        <time>2025-02-25T10:03:03Z</time>
      </trkpt>
      <trkpt lat="48.093" lon="-3.60547">
        <ele>123.1</ele>
        <time>2025-02-25T10:03:04Z</time>
      </trkpt>
      <trkpt lat="48.09302" lon="-3.60547">
        <ele>123</ele>
        <time>2025-02-25T10:03:05Z</time>
      </trkpt>
      <trkpt lat="48.09303" lon="-3.60547">
        <ele>123</ele>
        <time>2025-02-25T10:03:06Z</time>
      </trkpt>
      <trkpt lat="48.09304" lon="-3.60547">
        <ele>122.9</ele>
        <time>2025-02-25T10:03:07Z</time>
      </trkpt>
      <trkpt lat="48.09305" lon="-3.60547">
        <ele>122.9</ele>
        <time>2025-02-25T10:03:08Z</time>
      </trkpt>
      <trkpt lat="48.09306" lon="-3.60548">
        <ele>122.6</ele>
        <time>2025-02-25T10:03:09Z</time>
      </trkpt>
      <trkpt lat="48.09307" lon="-3.60548">
        <ele>122.6</ele>
        <time>2025-02-25T10:03:10Z</time>
      </trkpt>
      <trkpt lat="48.09308" lon="-3.60548">
        <ele>122.6</ele>
        <time>2025-02-25T10:03:11Z</time>
      </trkpt>
      <trkpt lat="48.09309" lon="-3.60548">
        <ele>122.6</ele>
        <time>2025-02-25T10:03:12Z</time>
      </trkpt>
      <trkpt lat="48.0931" lon="-3.60549">
        <ele>122.4</ele>
        <time>2025-02-25T10:03:13Z</time>
      </trkpt>
      <trkpt lat="48.09311" lon="-3.60548">
        <ele>122.6</ele>
        <time>2025-02-25T10:03:14Z</time>
      </trkpt>
      <trkpt lat="48.09312" lon="-3.60548">
        <ele>122.6</ele>
        <time>2025-02-25T10:03:15Z</time>
      </trkpt>
      <trkpt lat="48.09313" lon="-3.60548">
        <ele>122.6</ele>
        <time>2025-02-25T10:03:16Z</time>
      </trkpt>
      <trkpt lat="48.09314" lon="-3.60548">
        <ele>122.5</ele>
        <time>2025-02-25T10:03:17Z</time>
      </trkpt>
      <trkpt lat="48.09315" lon="-3.60548">
        <ele>122.5</ele>
        <time>2025-02-25T10:03:18Z</time>
      </trkpt>
      <trkpt lat="48.09316" lon="-3.60548">
        <ele>122.5</ele>
        <time>2025-02-25T10:03:19Z</time>
      </trkpt>
      <trkpt lat="48.09317" lon="-3.60548">
        <ele>122.5</ele>
        <time>2025-02-25T10:03:20Z</time>
      </trkpt>
      <trkpt lat="48.09318" lon="-3.60548">
        <ele>122.5</ele>
        <time>2025-02-25T10:03:21Z</time>
      </trkpt>
      <trkpt lat="48.09319" lon="-3.60549">
        <ele>122.3</ele>
        <time>2025-02-25T10:03:22Z</time>
      </trkpt>
      <trkpt lat="48.0932" lon="-3.60548">
        <ele>122.5</ele>
        <time>2025-02-25T10:03:23Z</time>
      </trkpt>
      <trkpt lat="48.09321" lon="-3.60548">
        <ele>122.5</ele>
        <time>2025-02-25T10:03:24Z</time>
      </trkpt>
      <trkpt lat="48.09323" lon="-3.60548">
        <ele>122.5</ele>
        <time>2025-02-25T10:03:25Z</time>
      </trkpt>
      <trkpt lat="48.09324" lon="-3.60547">
        <ele>122.6</ele>
        <time>2025-02-25T10:03:26Z</time>
      </trkpt>
      <trkpt lat="48.09326" lon="-3.60547">
        <ele>122.6</ele>
        <time>2025-02-25T10:03:27Z</time>
      </trkpt>
      <trkpt lat="48.09327" lon="-3.60547">
        <ele>122.6</ele>
        <time>2025-02-25T10:03:28Z</time>
      </trkpt>
      <trkpt lat="48.09328" lon="-3.60546">
        <ele>122.8</ele>
        <time>2025-02-25T10:03:29Z</time>
      </trkpt>
      <trkpt lat="48.09329" lon="-3.60545">
        <ele>123</ele>
        <time>2025-02-25T10:03:30Z</time>
      </trkpt>
      <trkpt lat="48.09331" lon="-3.60544">
        <ele>123.1</ele>
        <time>2025-02-25T10:03:31Z</time>
      </trkpt>
      <trkpt lat="48.09332" lon="-3.60542">
        <ele>123.5</ele>
        <time>2025-02-25T10:03:32Z</time>
      </trkpt>
      <trkpt lat="48.09333" lon="-3.60541">
        <ele>123.6</ele>
        <time>2025-02-25T10:03:33Z</time>
      </trkpt>
      <trkpt lat="48.09334" lon="-3.60541">
        <ele>123.6</ele>
        <time>2025-02-25T10:03:34Z</time>
      </trkpt>
      <trkpt lat="48.09334" lon="-3.60541">
        <ele>123.6</ele>
        <time>2025-02-25T10:03:35Z</time>
      </trkpt>
      <trkpt lat="48.09335" lon="-3.6054">
        <ele>123.7</ele>
        <time>2025-02-25T10:03:36Z</time>
      </trkpt>
      <trkpt lat="48.09336" lon="-3.6054">
        <ele>123.7</ele>
        <time>2025-02-25T10:03:37Z</time>
      </trkpt>
      <trkpt lat="48.09338" lon="-3.60539">
        <ele>123.7</ele>
        <time>2025-02-25T10:03:38Z</time>
      </trkpt>
      <trkpt lat="48.09338" lon="-3.60539">
        <ele>123.7</ele>
        <time>2025-02-25T10:03:39Z</time>
      </trkpt>
      <trkpt lat="48.09339" lon="-3.60538">
        <ele>123.8</ele>
        <time>2025-02-25T10:03:40Z</time>
      </trkpt>
      <trkpt lat="48.0934" lon="-3.60537">
        <ele>123.9</ele>
        <time>2025-02-25T10:03:41Z</time>
      </trkpt>
      <trkpt lat="48.09341" lon="-3.60536">
        <ele>124</ele>
        <time>2025-02-25T10:03:42Z</time>
      </trkpt>
      <trkpt lat="48.09341" lon="-3.60536">
        <ele>124</ele>
        <time>2025-02-25T10:03:43Z</time>
      </trkpt>
      <trkpt lat="48.09342" lon="-3.60535">
        <ele>124.2</ele>
        <time>2025-02-25T10:03:44Z</time>
      </trkpt>
      <trkpt lat="48.09343" lon="-3.60535">
        <ele>124.1</ele>
        <time>2025-02-25T10:03:45Z</time>
      </trkpt>
      <trkpt lat="48.09345" lon="-3.60536">
        <ele>123.8</ele>
        <time>2025-02-25T10:03:46Z</time>
      </trkpt>
      <trkpt lat="48.09346" lon="-3.60537">
        <ele>123.6</ele>
        <time>2025-02-25T10:03:47Z</time>
      </trkpt>
      <trkpt lat="48.09347" lon="-3.60537">
        <ele>123.5</ele>
        <time>2025-02-25T10:03:48Z</time>
      </trkpt>
      <trkpt lat="48.09348" lon="-3.60536">
        <ele>123.6</ele>
        <time>2025-02-25T10:03:49Z</time>
      </trkpt>
      <trkpt lat="48.09349" lon="-3.60535">
        <ele>123.7</ele>
        <time>2025-02-25T10:03:50Z</time>
      </trkpt>
      <trkpt lat="48.09349" lon="-3.60533">
        <ele>124</ele>
        <time>2025-02-25T10:03:51Z</time>
      </trkpt>
      <trkpt lat="48.0935" lon="-3.60532">
        <ele>124.1</ele>
        <time>2025-02-25T10:03:52Z</time>
      </trkpt>
      <trkpt lat="48.09352" lon="-3.60532">
        <ele>124</ele>
        <time>2025-02-25T10:03:53Z</time>
      </trkpt>
      <trkpt lat="48.09353" lon="-3.60532">
        <ele>123.9</ele>
        <time>2025-02-25T10:03:54Z</time>
      </trkpt>
      <trkpt lat="48.09353" lon="-3.60532">
        <ele>123.9</ele>
        <time>2025-02-25T10:03:55Z</time>
      </trkpt>
      <trkpt lat="48.09354" lon="-3.60531">
        <ele>124</ele>
        <time>2025-02-25T10:03:56Z</time>
      </trkpt>
      <trkpt lat="48.09355" lon="-3.6053">
        <ele>124.1</ele>
        <time>2025-02-25T10:03:57Z</time>
      </trkpt>
      <trkpt lat="48.09357" lon="-3.6053">
        <ele>124</ele>
        <time>2025-02-25T10:03:58Z</time>
      </trkpt>
      <trkpt lat="48.09358" lon="-3.60529">
        <ele>124</ele>
        <time>2025-02-25T10:03:59Z</time>
      </trkpt>
      <trkpt lat="48.09359" lon="-3.60528">
        <ele>124.1</ele>
        <time>2025-02-25T10:04:00Z</time>
      </trkpt>
      <trkpt lat="48.09359" lon="-3.60527">
        <ele>124.3</ele>
        <time>2025-02-25T10:04:01Z</time>
      </trkpt>
      <trkpt lat="48.0936" lon="-3.60525">
        <ele>124.5</ele>
        <time>2025-02-25T10:04:02Z</time>
      </trkpt>
      <trkpt lat="48.0936" lon="-3.60523">
        <ele>124.8</ele>
        <time>2025-02-25T10:04:03Z</time>
      </trkpt>
      <trkpt lat="48.09361" lon="-3.60523">
        <ele>124.7</ele>
        <time>2025-02-25T10:04:04Z</time>
      </trkpt>
      <trkpt lat="48.09361" lon="-3.60522">
        <ele>124.8</ele>
        <time>2025-02-25T10:04:05Z</time>
      </trkpt>
      <trkpt lat="48.09362" lon="-3.60521">
        <ele>124.9</ele>
        <time>2025-02-25T10:04:06Z</time>
      </trkpt>
      <trkpt lat="48.09363" lon="-3.6052">
        <ele>125</ele>
        <time>2025-02-25T10:04:07Z</time>
      </trkpt>
      <trkpt lat="48.09364" lon="-3.6052">
        <ele>124.9</ele>
        <time>2025-02-25T10:04:08Z</time>
      </trkpt>
      <trkpt lat="48.09365" lon="-3.6052">
        <ele>124.8</ele>
        <time>2025-02-25T10:04:09Z</time>
      </trkpt>
      <trkpt lat="48.09366" lon="-3.6052">
        <ele>124.8</ele>
        <time>2025-02-25T10:04:10Z</time>
      </trkpt>
      <trkpt lat="48.09367" lon="-3.60519">
        <ele>124.8</ele>
        <time>2025-02-25T10:04:11Z</time>
      </trkpt>
      <trkpt lat="48.09368" lon="-3.60519">
        <ele>124.8</ele>
        <time>2025-02-25T10:04:12Z</time>
      </trkpt>
      <trkpt lat="48.0937" lon="-3.60518">
        <ele>124.8</ele>
        <time>2025-02-25T10:04:13Z</time>
      </trkpt>
      <trkpt lat="48.09371" lon="-3.60518">
        <ele>124.7</ele>
        <time>2025-02-25T10:04:14Z</time>
      </trkpt>
      <trkpt lat="48.09373" lon="-3.60518">
        <ele>124.6</ele>
        <time>2025-02-25T10:04:15Z</time>
      </trkpt>
      <trkpt lat="48.09374" lon="-3.60517">
        <ele>124.6</ele>
        <time>2025-02-25T10:04:16Z</time>
      </trkpt>
      <trkpt lat="48.09375" lon="-3.60516">
        <ele>124.7</ele>
        <time>2025-02-25T10:04:17Z</time>
      </trkpt>
      <trkpt lat="48.09376" lon="-3.60516">
        <ele>124.6</ele>
        <time>2025-02-25T10:04:18Z</time>
      </trkpt>
      <trkpt lat="48.09377" lon="-3.60515">
        <ele>124.7</ele>
        <time>2025-02-25T10:04:19Z</time>
      </trkpt>
      <trkpt lat="48.09378" lon="-3.60514">
        <ele>124.8</ele>
        <time>2025-02-25T10:04:20Z</time>
      </trkpt>
      <trkpt lat="48.09378" lon="-3.60513">
        <ele>124.9</ele>
        <time>2025-02-25T10:04:21Z</time>
      </trkpt>
      <trkpt lat="48.09379" lon="-3.60511">
        <ele>125.1</ele>
        <time>2025-02-25T10:04:22Z</time>
      </trkpt>
      <trkpt lat="48.0938" lon="-3.60511">
        <ele>125.1</ele>
        <time>2025-02-25T10:04:23Z</time>
      </trkpt>
      <trkpt lat="48.09381" lon="-3.6051">
        <ele>125.1</ele>
        <time>2025-02-25T10:04:24Z</time>
      </trkpt>
      <trkpt lat="48.09382" lon="-3.60509">
        <ele>125.2</ele>
        <time>2025-02-25T10:04:25Z</time>
      </trkpt>
      <trkpt lat="48.09383" lon="-3.60507">
        <ele>125.4</ele>
        <time>2025-02-25T10:04:26Z</time>
      </trkpt>
      <trkpt lat="48.09384" lon="-3.60506">
        <ele>125.5</ele>
        <time>2025-02-25T10:04:27Z</time>
      </trkpt>
      <trkpt lat="48.09384" lon="-3.60505">
        <ele>125.6</ele>
        <time>2025-02-25T10:04:28Z</time>
      </trkpt>
      <trkpt lat="48.09385" lon="-3.60505">
        <ele>125.6</ele>
        <time>2025-02-25T10:04:29Z</time>
      </trkpt>
      <trkpt lat="48.09386" lon="-3.60504">
        <ele>125.6</ele>
        <time>2025-02-25T10:04:30Z</time>
      </trkpt>
      <trkpt lat="48.09387" lon="-3.60502">
        <ele>125.8</ele>
        <time>2025-02-25T10:04:31Z</time>
      </trkpt>
      <trkpt lat="48.09387" lon="-3.60501">
        <ele>126</ele>
        <time>2025-02-25T10:04:32Z</time>
      </trkpt>
      <trkpt lat="48.09388" lon="-3.60499">
        <ele>126.2</ele>
        <time>2025-02-25T10:04:33Z</time>
      </trkpt>
      <trkpt lat="48.09389" lon="-3.60498">
        <ele>126.3</ele>
        <time>2025-02-25T10:04:34Z</time>
      </trkpt>
      <trkpt lat="48.0939" lon="-3.60497">
        <ele>126.3</ele>
        <time>2025-02-25T10:04:35Z</time>
      </trkpt>
      <trkpt lat="48.09391" lon="-3.60495">
        <ele>126.4</ele>
        <time>2025-02-25T10:04:36Z</time>
      </trkpt>
      <trkpt lat="48.09392" lon="-3.60495">
        <ele>126.3</ele>
        <time>2025-02-25T10:04:37Z</time>
      </trkpt>
      <trkpt lat="48.09393" lon="-3.60494">
        <ele>126.3</ele>
        <time>2025-02-25T10:04:38Z</time>
      </trkpt>
      <trkpt lat="48.09394" lon="-3.60493">
        <ele>126.3</ele>
        <time>2025-02-25T10:04:39Z</time>
      </trkpt>
      <trkpt lat="48.09394" lon="-3.60491">
        <ele>126.6</ele>
        <time>2025-02-25T10:04:40Z</time>
      </trkpt>
      <trkpt lat="48.09396" lon="-3.60491">
        <ele>126.3</ele>
        <time>2025-02-25T10:04:41Z</time>
      </trkpt>
      <trkpt lat="48.09397" lon="-3.6049">
        <ele>126.3</ele>
        <time>2025-02-25T10:04:42Z</time>
      </trkpt>
      <trkpt lat="48.09397" lon="-3.60489">
        <ele>126.4</ele>
        <time>2025-02-25T10:04:43Z</time>
      </trkpt>
      <trkpt lat="48.09398" lon="-3.60487">
        <ele>126.6</ele>
        <time>2025-02-25T10:04:44Z</time>
      </trkpt>
      <trkpt lat="48.09399" lon="-3.60486">
        <ele>126.6</ele>
        <time>2025-02-25T10:04:45Z</time>
      </trkpt>
      <trkpt lat="48.094" lon="-3.60485">
        <ele>126.6</ele>
        <time>2025-02-25T10:04:46Z</time>
      </trkpt>
      <trkpt lat="48.094" lon="-3.60485">
        <ele>126.6</ele>
        <time>2025-02-25T10:04:47Z</time>
      </trkpt>
      <trkpt lat="48.09401" lon="-3.60483">
        <ele>126.7</ele>
        <time>2025-02-25T10:04:48Z</time>
      </trkpt>
      <trkpt lat="48.09402" lon="-3.60482">
        <ele>126.7</ele>
        <time>2025-02-25T10:04:49Z</time>
      </trkpt>
      <trkpt lat="48.09402" lon="-3.60481">
        <ele>126.8</ele>
        <time>2025-02-25T10:04:50Z</time>
      </trkpt>
      <trkpt lat="48.09403" lon="-3.6048">
        <ele>126.8</ele>
        <time>2025-02-25T10:04:51Z</time>
      </trkpt>
      <trkpt lat="48.09404" lon="-3.60479">
        <ele>126.8</ele>
        <time>2025-02-25T10:04:52Z</time>
      </trkpt>
      <trkpt lat="48.09405" lon="-3.60477">
        <ele>127</ele>
        <time>2025-02-25T10:04:53Z</time>
      </trkpt>
      <trkpt lat="48.09406" lon="-3.60477">
        <ele>126.8</ele>
        <time>2025-02-25T10:04:54Z</time>
      </trkpt>
      <trkpt lat="48.09407" lon="-3.60476">
        <ele>126.8</ele>
        <time>2025-02-25T10:04:55Z</time>
      </trkpt>
      <trkpt lat="48.09407" lon="-3.60474">
        <ele>127.1</ele>
        <time>2025-02-25T10:04:56Z</time>
      </trkpt>
      <trkpt lat="48.09408" lon="-3.60473">
        <ele>127.1</ele>
        <time>2025-02-25T10:04:57Z</time>
      </trkpt>
      <trkpt lat="48.09409" lon="-3.60472">
        <ele>127.1</ele>
        <time>2025-02-25T10:04:58Z</time>
      </trkpt>
      <trkpt lat="48.0941" lon="-3.60471">
        <ele>127.1</ele>
        <time>2025-02-25T10:04:59Z</time>
      </trkpt>
      <trkpt lat="48.09411" lon="-3.6047">
        <ele>127.1</ele>
        <time>2025-02-25T10:05:00Z</time>
      </trkpt>
      <trkpt lat="48.09411" lon="-3.60469">
        <ele>127.2</ele>
        <time>2025-02-25T10:05:01Z</time>
      </trkpt>
      <trkpt lat="48.09412" lon="-3.60468">
        <ele>127.1</ele>
        <time>2025-02-25T10:05:02Z</time>
      </trkpt>
      <trkpt lat="48.09413" lon="-3.60467">
        <ele>127.1</ele>
        <time>2025-02-25T10:05:03Z</time>
      </trkpt>
      <trkpt lat="48.09413" lon="-3.60465">
        <ele>127.3</ele>
        <time>2025-02-25T10:05:04Z</time>
      </trkpt>
      <trkpt lat="48.09414" lon="-3.60464">
        <ele>127.3</ele>
        <time>2025-02-25T10:05:05Z</time>
      </trkpt>
      <trkpt lat="48.09415" lon="-3.60463">
        <ele>127.2</ele>
        <time>2025-02-25T10:05:06Z</time>
      </trkpt>
      <trkpt lat="48.09416" lon="-3.60462">
        <ele>127.2</ele>
        <time>2025-02-25T10:05:07Z</time>
      </trkpt>
      <trkpt lat="48.09417" lon="-3.60461">
        <ele>127.2</ele>
        <time>2025-02-25T10:05:08Z</time>
      </trkpt>
      <trkpt lat="48.09418" lon="-3.60461">
        <ele>127</ele>
        <time>2025-02-25T10:05:09Z</time>
      </trkpt>
      <trkpt lat="48.09419" lon="-3.60459">
        <ele>127.1</ele>
        <time>2025-02-25T10:05:10Z</time>
      </trkpt>
      <trkpt lat="48.0942" lon="-3.60459">
        <ele>126.9</ele>
        <time>2025-02-25T10:05:11Z</time>
      </trkpt>
      <trkpt lat="48.09421" lon="-3.60459">
        <ele>126.8</ele>
        <time>2025-02-25T10:05:12Z</time>
      </trkpt>
      <trkpt lat="48.09422" lon="-3.60458">
        <ele>126.8</ele>
        <time>2025-02-25T10:05:13Z</time>
      </trkpt>
      <trkpt lat="48.09422" lon="-3.60458">
        <ele>126.8</ele>
        <time>2025-02-25T10:05:14Z</time>
      </trkpt>
      <trkpt lat="48.09423" lon="-3.60457">
        <ele>126.8</ele>
        <time>2025-02-25T10:05:15Z</time>
      </trkpt>
      <trkpt lat="48.09424" lon="-3.60456">
        <ele>126.7</ele>
        <time>2025-02-25T10:05:16Z</time>
      </trkpt>
      <trkpt lat="48.09425" lon="-3.60454">
        <ele>126.9</ele>
        <time>2025-02-25T10:05:17Z</time>
      </trkpt>
      <trkpt lat="48.09425" lon="-3.60453">
        <ele>127</ele>
        <time>2025-02-25T10:05:18Z</time>
      </trkpt>
      <trkpt lat="48.09427" lon="-3.60451">
        <ele>127</ele>
        <time>2025-02-25T10:05:19Z</time>
      </trkpt>
      <trkpt lat="48.09427" lon="-3.60448">
        <ele>127.4</ele>
        <time>2025-02-25T10:05:20Z</time>
      </trkpt>
      <trkpt lat="48.09428" lon="-3.60446">
        <ele>127.6</ele>
        <time>2025-02-25T10:05:21Z</time>
      </trkpt>
      <trkpt lat="48.09429" lon="-3.60445">
        <ele>127.6</ele>
        <time>2025-02-25T10:05:22Z</time>
      </trkpt>
      <trkpt lat="48.09429" lon="-3.60443">
        <ele>127.8</ele>
        <time>2025-02-25T10:05:23Z</time>
      </trkpt>
      <trkpt lat="48.0943" lon="-3.60443">
        <ele>127.7</ele>
        <time>2025-02-25T10:05:24Z</time>
      </trkpt>
      <trkpt lat="48.09431" lon="-3.60442">
        <ele>127.6</ele>
        <time>2025-02-25T10:05:25Z</time>
      </trkpt>
      <trkpt lat="48.09432" lon="-3.6044">
        <ele>127.7</ele>
        <time>2025-02-25T10:05:26Z</time>
      </trkpt>
      <trkpt lat="48.09433" lon="-3.60438">
        <ele>127.7</ele>
        <time>2025-02-25T10:05:27Z</time>
      </trkpt>
      <trkpt lat="48.09434" lon="-3.60436">
        <ele>127.7</ele>
        <time>2025-02-25T10:05:28Z</time>
      </trkpt>
      <trkpt lat="48.09435" lon="-3.60435">
        <ele>127.7</ele>
        <time>2025-02-25T10:05:29Z</time>
      </trkpt>
      <trkpt lat="48.09436" lon="-3.60433">
        <ele>127.7</ele>
        <time>2025-02-25T10:05:30Z</time>
      </trkpt>
      <trkpt lat="48.09437" lon="-3.60433">
        <ele>127.6</ele>
        <time>2025-02-25T10:05:31Z</time>
      </trkpt>
      <trkpt lat="48.09437" lon="-3.60432">
        <ele>127.7</ele>
        <time>2025-02-25T10:05:32Z</time>
      </trkpt>
      <trkpt lat="48.09438" lon="-3.60431">
        <ele>127.7</ele>
        <time>2025-02-25T10:05:33Z</time>
      </trkpt>
      <trkpt lat="48.09439" lon="-3.6043">
        <ele>127.6</ele>
        <time>2025-02-25T10:05:34Z</time>
      </trkpt>
      <trkpt lat="48.0944" lon="-3.60429">
        <ele>127.6</ele>
        <time>2025-02-25T10:05:35Z</time>
      </trkpt>
      <trkpt lat="48.0944" lon="-3.60428">
        <ele>127.7</ele>
        <time>2025-02-25T10:05:36Z</time>
      </trkpt>
      <trkpt lat="48.09441" lon="-3.60427">
        <ele>127.6</ele>
        <time>2025-02-25T10:05:37Z</time>
      </trkpt>
      <trkpt lat="48.09442" lon="-3.60425">
        <ele>127.7</ele>
        <time>2025-02-25T10:05:38Z</time>
      </trkpt>
      <trkpt lat="48.09442" lon="-3.60424">
        <ele>127.7</ele>
        <time>2025-02-25T10:05:39Z</time>
      </trkpt>
      <trkpt lat="48.09443" lon="-3.60424">
        <ele>127.6</ele>
        <time>2025-02-25T10:05:40Z</time>
      </trkpt>
      <trkpt lat="48.09444" lon="-3.60422">
        <ele>127.7</ele>
        <time>2025-02-25T10:05:41Z</time>
      </trkpt>
      <trkpt lat="48.09445" lon="-3.60421">
        <ele>127.6</ele>
        <time>2025-02-25T10:05:42Z</time>
      </trkpt>
      <trkpt lat="48.09446" lon="-3.6042">
        <ele>127.5</ele>
        <time>2025-02-25T10:05:43Z</time>
      </trkpt>
      <trkpt lat="48.09447" lon="-3.60419">
        <ele>127.5</ele>
        <time>2025-02-25T10:05:44Z</time>
      </trkpt>
      <trkpt lat="48.09447" lon="-3.60417">
        <ele>127.6</ele>
        <time>2025-02-25T10:05:45Z</time>
      </trkpt>
      <trkpt lat="48.09448" lon="-3.60415">
        <ele>127.6</ele>
        <time>2025-02-25T10:05:46Z</time>
      </trkpt>
      <trkpt lat="48.09448" lon="-3.60413">
        <ele>127.8</ele>
        <time>2025-02-25T10:05:47Z</time>
      </trkpt>
      <trkpt lat="48.09449" lon="-3.60412">
        <ele>127.7</ele>
        <time>2025-02-25T10:05:48Z</time>
      </trkpt>
      <trkpt lat="48.0945" lon="-3.60411">
        <ele>127.6</ele>
        <time>2025-02-25T10:05:49Z</time>
      </trkpt>
      <trkpt lat="48.09451" lon="-3.6041">
        <ele>127.6</ele>
        <time>2025-02-25T10:05:50Z</time>
      </trkpt>
      <trkpt lat="48.09451" lon="-3.60408">
        <ele>127.8</ele>
        <time>2025-02-25T10:05:51Z</time>
      </trkpt>
      <trkpt lat="48.09452" lon="-3.60407">
        <ele>127.7</ele>
        <time>2025-02-25T10:05:52Z</time>
      </trkpt>
      <trkpt lat="48.09453" lon="-3.60405">
        <ele>127.7</ele>
        <time>2025-02-25T10:05:53Z</time>
      </trkpt>
      <trkpt lat="48.09454" lon="-3.60404">
        <ele>127.7</ele>
        <time>2025-02-25T10:05:54Z</time>
      </trkpt>
      <trkpt lat="48.09454" lon="-3.60402">
        <ele>127.9</ele>
        <time>2025-02-25T10:05:55Z</time>
      </trkpt>
      <trkpt lat="48.09455" lon="-3.60401">
        <ele>127.8</ele>
        <time>2025-02-25T10:05:56Z</time>
      </trkpt>
      <trkpt lat="48.09455" lon="-3.60399">
        <ele>128</ele>
        <time>2025-02-25T10:05:57Z</time>
      </trkpt>
      <trkpt lat="48.09456" lon="-3.60397">
        <ele>128</ele>
        <time>2025-02-25T10:05:58Z</time>
      </trkpt>
      <trkpt lat="48.09457" lon="-3.60396">
        <ele>128</ele>
        <time>2025-02-25T10:05:59Z</time>
      </trkpt>
      <trkpt lat="48.09457" lon="-3.60395">
        <ele>128.1</ele>
        <time>2025-02-25T10:06:00Z</time>
      </trkpt>
      <trkpt lat="48.09458" lon="-3.60393">
        <ele>128.2</ele>
        <time>2025-02-25T10:06:01Z</time>
      </trkpt>
      <trkpt lat="48.09459" lon="-3.60392">
        <ele>128.1</ele>
        <time>2025-02-25T10:06:02Z</time>
      </trkpt>
      <trkpt lat="48.0946" lon="-3.60392">
        <ele>128</ele>
        <time>2025-02-25T10:06:03Z</time>
      </trkpt>
      <trkpt lat="48.09461" lon="-3.6039">
        <ele>128.1</ele>
        <time>2025-02-25T10:06:04Z</time>
      </trkpt>
      <trkpt lat="48.09461" lon="-3.60389">
        <ele>128.2</ele>
        <time>2025-02-25T10:06:05Z</time>
      </trkpt>
      <trkpt lat="48.09462" lon="-3.60387">
        <ele>128.3</ele>
        <time>2025-02-25T10:06:06Z</time>
      </trkpt>
      <trkpt lat="48.09463" lon="-3.60386">
        <ele>128.2</ele>
        <time>2025-02-25T10:06:07Z</time>
      </trkpt>
      <trkpt lat="48.09463" lon="-3.60386">
        <ele>128.2</ele>
        <time>2025-02-25T10:06:08Z</time>
      </trkpt>
      <trkpt lat="48.09465" lon="-3.60385">
        <ele>128.1</ele>
        <time>2025-02-25T10:06:09Z</time>
      </trkpt>
      <trkpt lat="48.09466" lon="-3.60384">
        <ele>128.1</ele>
        <time>2025-02-25T10:06:10Z</time>
      </trkpt>
      <trkpt lat="48.09467" lon="-3.60384">
        <ele>127.9</ele>
        <time>2025-02-25T10:06:11Z</time>
      </trkpt>
      <trkpt lat="48.09468" lon="-3.60384">
        <ele>127.8</ele>
        <time>2025-02-25T10:06:12Z</time>
      </trkpt>
      <trkpt lat="48.0947" lon="-3.60383">
        <ele>127.7</ele>
        <time>2025-02-25T10:06:13Z</time>
      </trkpt>
      <trkpt lat="48.09471" lon="-3.60382">
        <ele>127.6</ele>
        <time>2025-02-25T10:06:14Z</time>
      </trkpt>
      <trkpt lat="48.09472" lon="-3.60381">
        <ele>127.6</ele>
        <time>2025-02-25T10:06:15Z</time>
      </trkpt>
      <trkpt lat="48.09473" lon="-3.60381">
        <ele>127.5</ele>
        <time>2025-02-25T10:06:16Z</time>
      </trkpt>
      <trkpt lat="48.09474" lon="-3.6038">
        <ele>127.5</ele>
        <time>2025-02-25T10:06:17Z</time>
      </trkpt>
      <trkpt lat="48.09475" lon="-3.6038">
        <ele>127.4</ele>
        <time>2025-02-25T10:06:18Z</time>
      </trkpt>
      <trkpt lat="48.09476" lon="-3.60379">
        <ele>127.4</ele>
        <time>2025-02-25T10:06:19Z</time>
      </trkpt>
      <trkpt lat="48.09477" lon="-3.60378">
        <ele>127.3</ele>
        <time>2025-02-25T10:06:20Z</time>
      </trkpt>
      <trkpt lat="48.09479" lon="-3.60378">
        <ele>127.1</ele>
        <time>2025-02-25T10:06:21Z</time>
      </trkpt>
      <trkpt lat="48.0948" lon="-3.60377">
        <ele>127.1</ele>
        <time>2025-02-25T10:06:22Z</time>
      </trkpt>
      <trkpt lat="48.09481" lon="-3.60377">
        <ele>127</ele>
        <time>2025-02-25T10:06:23Z</time>
      </trkpt>
      <trkpt lat="48.09481" lon="-3.60376">
        <ele>127.1</ele>
        <time>2025-02-25T10:06:24Z</time>
      </trkpt>
      <trkpt lat="48.09482" lon="-3.60376">
        <ele>127</ele>
        <time>2025-02-25T10:06:25Z</time>
      </trkpt>
      <trkpt lat="48.09483" lon="-3.60374">
        <ele>127.1</ele>
        <time>2025-02-25T10:06:26Z</time>
      </trkpt>
      <trkpt lat="48.09484" lon="-3.60372">
        <ele>127.2</ele>
        <time>2025-02-25T10:06:27Z</time>
      </trkpt>
      <trkpt lat="48.09485" lon="-3.60371">
        <ele>127.2</ele>
        <time>2025-02-25T10:06:28Z</time>
      </trkpt>
      <trkpt lat="48.09486" lon="-3.6037">
        <ele>127.2</ele>
        <time>2025-02-25T10:06:29Z</time>
      </trkpt>
      <trkpt lat="48.09487" lon="-3.6037">
        <ele>127.1</ele>
        <time>2025-02-25T10:06:30Z</time>
      </trkpt>
      <trkpt lat="48.09488" lon="-3.60368">
        <ele>127.2</ele>
        <time>2025-02-25T10:06:31Z</time>
      </trkpt>
      <trkpt lat="48.09489" lon="-3.60368">
        <ele>127.1</ele>
        <time>2025-02-25T10:06:32Z</time>
      </trkpt>
      <trkpt lat="48.09489" lon="-3.60366">
        <ele>127.3</ele>
        <time>2025-02-25T10:06:33Z</time>
      </trkpt>
      <trkpt lat="48.0949" lon="-3.60367">
        <ele>127.2</ele>
        <time>2025-02-25T10:06:34Z</time>
      </trkpt>
      <trkpt lat="48.09491" lon="-3.60366">
        <ele>127.2</ele>
        <time>2025-02-25T10:06:35Z</time>
      </trkpt>
      <trkpt lat="48.09492" lon="-3.60365">
        <ele>127.2</ele>
        <time>2025-02-25T10:06:36Z</time>
      </trkpt>
      <trkpt lat="48.09493" lon="-3.60364">
        <ele>127.2</ele>
        <time>2025-02-25T10:06:37Z</time>
      </trkpt>
      <trkpt lat="48.09494" lon="-3.60364">
        <ele>127.1</ele>
        <time>2025-02-25T10:06:38Z</time>
      </trkpt>
      <trkpt lat="48.09495" lon="-3.60364">
        <ele>127.1</ele>
        <time>2025-02-25T10:06:39Z</time>
      </trkpt>
      <trkpt lat="48.09496" lon="-3.60363">
        <ele>127.1</ele>
        <time>2025-02-25T10:06:40Z</time>
      </trkpt>
      <trkpt lat="48.09496" lon="-3.60362">
        <ele>127.2</ele>
        <time>2025-02-25T10:06:41Z</time>
      </trkpt>
      <trkpt lat="48.09497" lon="-3.60361">
        <ele>127.2</ele>
        <time>2025-02-25T10:06:42Z</time>
      </trkpt>
      <trkpt lat="48.09498" lon="-3.6036">
        <ele>127.2</ele>
        <time>2025-02-25T10:06:43Z</time>
      </trkpt>
      <trkpt lat="48.095" lon="-3.6036">
        <ele>127.1</ele>
        <time>2025-02-25T10:06:44Z</time>
      </trkpt>
      <trkpt lat="48.095" lon="-3.60358">
        <ele>127.2</ele>
        <time>2025-02-25T10:06:45Z</time>
      </trkpt>
      <trkpt lat="48.09501" lon="-3.60358">
        <ele>127.2</ele>
        <time>2025-02-25T10:06:46Z</time>
      </trkpt>
      <trkpt lat="48.09502" lon="-3.60357">
        <ele>127.2</ele>
        <time>2025-02-25T10:06:47Z</time>
      </trkpt>
      <trkpt lat="48.09503" lon="-3.60356">
        <ele>127.2</ele>
        <time>2025-02-25T10:06:48Z</time>
      </trkpt>
      <trkpt lat="48.09504" lon="-3.60355">
        <ele>127.2</ele>
        <time>2025-02-25T10:06:49Z</time>
      </trkpt>
      <trkpt lat="48.09505" lon="-3.60355">
        <ele>127.1</ele>
        <time>2025-02-25T10:06:50Z</time>
      </trkpt>
      <trkpt lat="48.09506" lon="-3.60355">
        <ele>127.1</ele>
        <time>2025-02-25T10:06:51Z</time>
      </trkpt>
      <trkpt lat="48.09507" lon="-3.60354">
        <ele>127.1</ele>
        <time>2025-02-25T10:06:52Z</time>
      </trkpt>
      <trkpt lat="48.09508" lon="-3.60354">
        <ele>127</ele>
        <time>2025-02-25T10:06:53Z</time>
      </trkpt>
      <trkpt lat="48.09509" lon="-3.60353">
        <ele>127</ele>
        <time>2025-02-25T10:06:54Z</time>
      </trkpt>
      <trkpt lat="48.0951" lon="-3.60352">
        <ele>127.1</ele>
        <time>2025-02-25T10:06:55Z</time>
      </trkpt>
      <trkpt lat="48.09511" lon="-3.60351">
        <ele>127.1</ele>
        <time>2025-02-25T10:06:56Z</time>
      </trkpt>
      <trkpt lat="48.09512" lon="-3.6035">
        <ele>127.1</ele>
        <time>2025-02-25T10:06:57Z</time>
      </trkpt>
      <trkpt lat="48.09513" lon="-3.60349">
        <ele>127.1</ele>
        <time>2025-02-25T10:06:58Z</time>
      </trkpt>
      <trkpt lat="48.09514" lon="-3.60349">
        <ele>127.1</ele>
        <time>2025-02-25T10:06:59Z</time>
      </trkpt>
      <trkpt lat="48.09515" lon="-3.60347">
        <ele>127.2</ele>
        <time>2025-02-25T10:07:00Z</time>
      </trkpt>
      <trkpt lat="48.09515" lon="-3.60346">
        <ele>127.3</ele>
        <time>2025-02-25T10:07:01Z</time>
      </trkpt>
      <trkpt lat="48.09516" lon="-3.60345">
        <ele>127.3</ele>
        <time>2025-02-25T10:07:02Z</time>
      </trkpt>
      <trkpt lat="48.09517" lon="-3.60343">
        <ele>127.5</ele>
        <time>2025-02-25T10:07:03Z</time>
      </trkpt>
      <trkpt lat="48.09518" lon="-3.60342">
        <ele>127.5</ele>
        <time>2025-02-25T10:07:04Z</time>
      </trkpt>
      <trkpt lat="48.09519" lon="-3.6034">
        <ele>127.7</ele>
        <time>2025-02-25T10:07:05Z</time>
      </trkpt>
      <trkpt lat="48.0952" lon="-3.60341">
        <ele>127.5</ele>
        <time>2025-02-25T10:07:06Z</time>
      </trkpt>
      <trkpt lat="48.09522" lon="-3.60341">
        <ele>127.4</ele>
        <time>2025-02-25T10:07:07Z</time>
      </trkpt>
      <trkpt lat="48.09523" lon="-3.6034">
        <ele>127.5</ele>
        <time>2025-02-25T10:07:08Z</time>
      </trkpt>
      <trkpt lat="48.09524" lon="-3.6034">
        <ele>127.4</ele>
        <time>2025-02-25T10:07:09Z</time>
      </trkpt>
      <trkpt lat="48.09525" lon="-3.60339">
        <ele>127.5</ele>
        <time>2025-02-25T10:07:10Z</time>
      </trkpt>
      <trkpt lat="48.09527" lon="-3.60339">
        <ele>127.4</ele>
        <time>2025-02-25T10:07:11Z</time>
      </trkpt>
      <trkpt lat="48.09528" lon="-3.60339">
        <ele>127.4</ele>
        <time>2025-02-25T10:07:12Z</time>
      </trkpt>
      <trkpt lat="48.09529" lon="-3.60339">
        <ele>127.3</ele>
        <time>2025-02-25T10:07:13Z</time>
      </trkpt>
      <trkpt lat="48.0953" lon="-3.60338">
        <ele>127.3</ele>
        <time>2025-02-25T10:07:14Z</time>
      </trkpt>
      <trkpt lat="48.09531" lon="-3.60338">
        <ele>127.3</ele>
        <time>2025-02-25T10:07:15Z</time>
      </trkpt>
      <trkpt lat="48.09532" lon="-3.60337">
        <ele>127.3</ele>
        <time>2025-02-25T10:07:16Z</time>
      </trkpt>
      <trkpt lat="48.09533" lon="-3.60336">
        <ele>127.3</ele>
        <time>2025-02-25T10:07:17Z</time>
      </trkpt>
      <trkpt lat="48.09534" lon="-3.60335">
        <ele>127.4</ele>
        <time>2025-02-25T10:07:18Z</time>
      </trkpt>
      <trkpt lat="48.09535" lon="-3.60334">
        <ele>127.4</ele>
        <time>2025-02-25T10:07:19Z</time>
      </trkpt>
      <trkpt lat="48.09536" lon="-3.60333">
        <ele>127.4</ele>
        <time>2025-02-25T10:07:20Z</time>
      </trkpt>
      <trkpt lat="48.09537" lon="-3.60332">
        <ele>127.4</ele>
        <time>2025-02-25T10:07:21Z</time>
      </trkpt>
      <trkpt lat="48.09538" lon="-3.60332">
        <ele>127.4</ele>
        <time>2025-02-25T10:07:22Z</time>
      </trkpt>
      <trkpt lat="48.09539" lon="-3.60332">
        <ele>127.3</ele>
        <time>2025-02-25T10:07:23Z</time>
      </trkpt>
      <trkpt lat="48.0954" lon="-3.60333">
        <ele>127.1</ele>
        <time>2025-02-25T10:07:24Z</time>
      </trkpt>
      <trkpt lat="48.09541" lon="-3.60333">
        <ele>127.1</ele>
        <time>2025-02-25T10:07:25Z</time>
      </trkpt>
      <trkpt lat="48.09542" lon="-3.60334">
        <ele>126.9</ele>
        <time>2025-02-25T10:07:26Z</time>
      </trkpt>
      <trkpt lat="48.09543" lon="-3.60335">
        <ele>126.7</ele>
        <time>2025-02-25T10:07:27Z</time>
      </trkpt>
      <trkpt lat="48.09543" lon="-3.60335">
        <ele>126.7</ele>
        <time>2025-02-25T10:07:28Z</time>
      </trkpt>
      <trkpt lat="48.09544" lon="-3.60336">
        <ele>126.5</ele>
        <time>2025-02-25T10:07:29Z</time>
      </trkpt>
      <trkpt lat="48.09544" lon="-3.60336">
        <ele>126.5</ele>
        <time>2025-02-25T10:07:30Z</time>
      </trkpt>
      <trkpt lat="48.09546" lon="-3.60336">
        <ele>126.4</ele>
        <time>2025-02-25T10:07:31Z</time>
      </trkpt>
      <trkpt lat="48.09547" lon="-3.60337">
        <ele>126.2</ele>
        <time>2025-02-25T10:07:32Z</time>
      </trkpt>
      <trkpt lat="48.09548" lon="-3.60338">
        <ele>126</ele>
        <time>2025-02-25T10:07:33Z</time>
      </trkpt>
      <trkpt lat="48.09549" lon="-3.60338">
        <ele>126</ele>
        <time>2025-02-25T10:07:34Z</time>
      </trkpt>
      <trkpt lat="48.0955" lon="-3.60339">
        <ele>125.8</ele>
        <time>2025-02-25T10:07:35Z</time>
      </trkpt>
      <trkpt lat="48.0955" lon="-3.60339">
        <ele>125.8</ele>
        <time>2025-02-25T10:07:36Z</time>
      </trkpt>
      <trkpt lat="48.09549" lon="-3.60339">
        <ele>125.9</ele>
        <time>2025-02-25T10:07:37Z</time>
      </trkpt>
      <trkpt lat="48.09549" lon="-3.60339">
        <ele>125.9</ele>
        <time>2025-02-25T10:07:38Z</time>
      </trkpt>
      <trkpt lat="48.09549" lon="-3.60339">
        <ele>125.9</ele>
        <time>2025-02-25T10:07:39Z</time>
      </trkpt>
      <trkpt lat="48.0955" lon="-3.6034">
        <ele>125.7</ele>
        <time>2025-02-25T10:07:40Z</time>
      </trkpt>
      <trkpt lat="48.0955" lon="-3.6034">
        <ele>125.7</ele>
        <time>2025-02-25T10:07:41Z</time>
      </trkpt>
      <trkpt lat="48.0955" lon="-3.60339">
        <ele>125.8</ele>
        <time>2025-02-25T10:07:42Z</time>
      </trkpt>
      <trkpt lat="48.09552" lon="-3.60337">
        <ele>125.9</ele>
        <time>2025-02-25T10:07:43Z</time>
      </trkpt>
      <trkpt lat="48.09553" lon="-3.60337">
        <ele>125.8</ele>
        <time>2025-02-25T10:07:44Z</time>
      </trkpt>
      <trkpt lat="48.09553" lon="-3.60335">
        <ele>126</ele>
        <time>2025-02-25T10:07:45Z</time>
      </trkpt>
      <trkpt lat="48.09554" lon="-3.60335">
        <ele>125.9</ele>
        <time>2025-02-25T10:07:46Z</time>
      </trkpt>
      <trkpt lat="48.09555" lon="-3.60334">
        <ele>126</ele>
        <time>2025-02-25T10:07:47Z</time>
      </trkpt>
      <trkpt lat="48.09555" lon="-3.60333">
        <ele>126.1</ele>
        <time>2025-02-25T10:07:48Z</time>
      </trkpt>
      <trkpt lat="48.09556" lon="-3.60332">
        <ele>126.1</ele>
        <time>2025-02-25T10:07:49Z</time>
      </trkpt>
      <trkpt lat="48.09557" lon="-3.60333">
        <ele>126</ele>
        <time>2025-02-25T10:07:50Z</time>
      </trkpt>
      <trkpt lat="48.09558" lon="-3.60332">
        <ele>126</ele>
        <time>2025-02-25T10:07:51Z</time>
      </trkpt>
      <trkpt lat="48.09559" lon="-3.60331">
        <ele>126.1</ele>
        <time>2025-02-25T10:07:52Z</time>
      </trkpt>
      <trkpt lat="48.0956" lon="-3.60331">
        <ele>126</ele>
        <time>2025-02-25T10:07:53Z</time>
      </trkpt>
      <trkpt lat="48.09561" lon="-3.60331">
        <ele>126</ele>
        <time>2025-02-25T10:07:54Z</time>
      </trkpt>
      <trkpt lat="48.09562" lon="-3.60331">
        <ele>126</ele>
        <time>2025-02-25T10:07:55Z</time>
      </trkpt>
      <trkpt lat="48.09563" lon="-3.60331">
        <ele>125.9</ele>
        <time>2025-02-25T10:07:56Z</time>
      </trkpt>
      <trkpt lat="48.09563" lon="-3.60331">
        <ele>125.9</ele>
        <time>2025-02-25T10:07:57Z</time>
      </trkpt>
      <trkpt lat="48.09564" lon="-3.6033">
        <ele>126</ele>
        <time>2025-02-25T10:07:58Z</time>
      </trkpt>
      <trkpt lat="48.09564" lon="-3.60329">
        <ele>126.1</ele>
        <time>2025-02-25T10:07:59Z</time>
      </trkpt>
      <trkpt lat="48.09565" lon="-3.60325">
        <ele>126.4</ele>
        <time>2025-02-25T10:08:00Z</time>
      </trkpt>
      <trkpt lat="48.09565" lon="-3.60323">
        <ele>126.5</ele>
        <time>2025-02-25T10:08:01Z</time>
      </trkpt>
      <trkpt lat="48.09566" lon="-3.60322">
        <ele>126.6</ele>
        <time>2025-02-25T10:08:02Z</time>
      </trkpt>
      <trkpt lat="48.09568" lon="-3.60322">
        <ele>126.6</ele>
        <time>2025-02-25T10:08:03Z</time>
      </trkpt>
      <trkpt lat="48.09569" lon="-3.60321">
        <ele>126.6</ele>
        <time>2025-02-25T10:08:04Z</time>
      </trkpt>
      <trkpt lat="48.0957" lon="-3.6032">
        <ele>126.7</ele>
        <time>2025-02-25T10:08:05Z</time>
      </trkpt>
      <trkpt lat="48.09571" lon="-3.60319">
        <ele>126.8</ele>
        <time>2025-02-25T10:08:06Z</time>
      </trkpt>
      <trkpt lat="48.09571" lon="-3.60319">
        <ele>126.8</ele>
        <time>2025-02-25T10:08:07Z</time>
      </trkpt>
      <trkpt lat="48.09572" lon="-3.60318">
        <ele>126.8</ele>
        <time>2025-02-25T10:08:08Z</time>
      </trkpt>
      <trkpt lat="48.09573" lon="-3.60318">
        <ele>126.8</ele>
        <time>2025-02-25T10:08:09Z</time>
      </trkpt>
      <trkpt lat="48.09573" lon="-3.60317">
        <ele>126.9</ele>
        <time>2025-02-25T10:08:10Z</time>
      </trkpt>
      <trkpt lat="48.09574" lon="-3.60316">
        <ele>127</ele>
        <time>2025-02-25T10:08:11Z</time>
      </trkpt>
      <trkpt lat="48.09574" lon="-3.60315">
        <ele>127.1</ele>
        <time>2025-02-25T10:08:12Z</time>
      </trkpt>
      <trkpt lat="48.09575" lon="-3.60314">
        <ele>127.2</ele>
        <time>2025-02-25T10:08:13Z</time>
      </trkpt>
      <trkpt lat="48.09576" lon="-3.60313">
        <ele>127.3</ele>
        <time>2025-02-25T10:08:14Z</time>
      </trkpt>
      <trkpt lat="48.09576" lon="-3.60313">
        <ele>127.3</ele>
        <time>2025-02-25T10:08:15Z</time>
      </trkpt>
      <trkpt lat="48.09577" lon="-3.60312">
        <ele>127.4</ele>
        <time>2025-02-25T10:08:16Z</time>
      </trkpt>
      <trkpt lat="48.09577" lon="-3.60311">
        <ele>127.5</ele>
        <time>2025-02-25T10:08:17Z</time>
      </trkpt>
      <trkpt lat="48.09578" lon="-3.60309">
        <ele>127.7</ele>
        <time>2025-02-25T10:08:18Z</time>
      </trkpt>
      <trkpt lat="48.09577" lon="-3.60308">
        <ele>127.8</ele>
        <time>2025-02-25T10:08:19Z</time>
      </trkpt>
      <trkpt lat="48.09577" lon="-3.60308">
        <ele>127.8</ele>
        <time>2025-02-25T10:08:20Z</time>
      </trkpt>
      <trkpt lat="48.09577" lon="-3.60308">
        <ele>127.8</ele>
        <time>2025-02-25T10:08:21Z</time>
      </trkpt>
      <trkpt lat="48.09577" lon="-3.60308">
        <ele>127.8</ele>
        <time>2025-02-25T10:08:22Z</time>
      </trkpt>
      <trkpt lat="48.09577" lon="-3.60307">
        <ele>127.9</ele>
        <time>2025-02-25T10:08:23Z</time>
      </trkpt>
      <trkpt lat="48.09577" lon="-3.60307">
        <ele>127.9</ele>
        <time>2025-02-25T10:08:24Z</time>
      </trkpt>
      <trkpt lat="48.09578" lon="-3.60308">
        <ele>127.8</ele>
        <time>2025-02-25T10:08:25Z</time>
      </trkpt>
      <trkpt lat="48.09579" lon="-3.60309">
        <ele>127.6</ele>
        <time>2025-02-25T10:08:26Z</time>
      </trkpt>
      <trkpt lat="48.0958" lon="-3.60308">
        <ele>127.7</ele>
        <time>2025-02-25T10:08:27Z</time>
      </trkpt>
      <trkpt lat="48.09581" lon="-3.60308">
        <ele>127.7</ele>
        <time>2025-02-25T10:08:28Z</time>
      </trkpt>
      <trkpt lat="48.09582" lon="-3.60308">
        <ele>127.7</ele>
        <time>2025-02-25T10:08:29Z</time>
      </trkpt>
      <trkpt lat="48.09583" lon="-3.60306">
        <ele>128</ele>
        <time>2025-02-25T10:08:30Z</time>
      </trkpt>
      <trkpt lat="48.09583" lon="-3.60305">
        <ele>128</ele>
        <time>2025-02-25T10:08:31Z</time>
      </trkpt>
      <trkpt lat="48.09584" lon="-3.60305">
        <ele>128</ele>
        <time>2025-02-25T10:08:32Z</time>
      </trkpt>
      <trkpt lat="48.09585" lon="-3.60305">
        <ele>127.9</ele>
        <time>2025-02-25T10:08:33Z</time>
      </trkpt>
      <trkpt lat="48.09585" lon="-3.60304">
        <ele>127.9</ele>
        <time>2025-02-25T10:08:34Z</time>
      </trkpt>
      <trkpt lat="48.09586" lon="-3.60304">
        <ele>127.9</ele>
        <time>2025-02-25T10:08:35Z</time>
      </trkpt>
      <trkpt lat="48.09587" lon="-3.60304">
        <ele>127.8</ele>
        <time>2025-02-25T10:08:36Z</time>
      </trkpt>
      <trkpt lat="48.09588" lon="-3.60304">
        <ele>127.7</ele>
        <time>2025-02-25T10:08:37Z</time>
      </trkpt>
      <trkpt lat="48.09589" lon="-3.60304">
        <ele>127.7</ele>
        <time>2025-02-25T10:08:38Z</time>
      </trkpt>
      <trkpt lat="48.09589" lon="-3.60304">
        <ele>127.7</ele>
        <time>2025-02-25T10:08:39Z</time>
      </trkpt>
      <trkpt lat="48.0959" lon="-3.60304">
        <ele>127.6</ele>
        <time>2025-02-25T10:08:40Z</time>
      </trkpt>
      <trkpt lat="48.09591" lon="-3.60304">
        <ele>127.5</ele>
        <time>2025-02-25T10:08:41Z</time>
      </trkpt>
      <trkpt lat="48.09592" lon="-3.60303">
        <ele>127.5</ele>
        <time>2025-02-25T10:08:42Z</time>
      </trkpt>
      <trkpt lat="48.09593" lon="-3.60303">
        <ele>127.5</ele>
        <time>2025-02-25T10:08:43Z</time>
      </trkpt>
      <trkpt lat="48.09593" lon="-3.60303">
        <ele>127.5</ele>
        <time>2025-02-25T10:08:44Z</time>
      </trkpt>
      <trkpt lat="48.09594" lon="-3.60302">
        <ele>127.5</ele>
        <time>2025-02-25T10:08:45Z</time>
      </trkpt>
      <trkpt lat="48.09595" lon="-3.60302">
        <ele>127.4</ele>
        <time>2025-02-25T10:08:46Z</time>
      </trkpt>
      <trkpt lat="48.09595" lon="-3.60301">
        <ele>127.5</ele>
        <time>2025-02-25T10:08:47Z</time>
      </trkpt>
      <trkpt lat="48.09595" lon="-3.603">
        <ele>127.5</ele>
        <time>2025-02-25T10:08:48Z</time>
      </trkpt>
      <trkpt lat="48.09596" lon="-3.60299">
        <ele>127.5</ele>
        <time>2025-02-25T10:08:49Z</time>
      </trkpt>
      <trkpt lat="48.09595" lon="-3.60299">
        <ele>127.6</ele>
        <time>2025-02-25T10:08:50Z</time>
      </trkpt>
      <trkpt lat="48.09595" lon="-3.60297">
        <ele>127.7</ele>
        <time>2025-02-25T10:08:51Z</time>
      </trkpt>
      <trkpt lat="48.09595" lon="-3.60296">
        <ele>127.8</ele>
        <time>2025-02-25T10:08:52Z</time>
      </trkpt>
      <trkpt lat="48.09595" lon="-3.60296">
        <ele>127.8</ele>
        <time>2025-02-25T10:08:53Z</time>
      </trkpt>
      <trkpt lat="48.09594" lon="-3.60295">
        <ele>127.9</ele>
        <time>2025-02-25T10:08:54Z</time>
      </trkpt>
      <trkpt lat="48.09594" lon="-3.60293">
        <ele>128</ele>
        <time>2025-02-25T10:08:55Z</time>
      </trkpt>
      <trkpt lat="48.09593" lon="-3.60291">
        <ele>128.2</ele>
        <time>2025-02-25T10:08:56Z</time>
      </trkpt>
      <trkpt lat="48.09593" lon="-3.6029">
        <ele>128.3</ele>
        <time>2025-02-25T10:08:57Z</time>
      </trkpt>
      <trkpt lat="48.09594" lon="-3.60292">
        <ele>128.1</ele>
        <time>2025-02-25T10:08:58Z</time>
      </trkpt>
      <trkpt lat="48.09594" lon="-3.60292">
        <ele>128.1</ele>
        <time>2025-02-25T10:08:59Z</time>
      </trkpt>
      <trkpt lat="48.09594" lon="-3.60293">
        <ele>128</ele>
        <time>2025-02-25T10:09:00Z</time>
      </trkpt>
      <trkpt lat="48.09594" lon="-3.60293">
        <ele>128</ele>
        <time>2025-02-25T10:09:01Z</time>
      </trkpt>
      <trkpt lat="48.09594" lon="-3.60293">
        <ele>128</ele>
        <time>2025-02-25T10:09:02Z</time>
      </trkpt>
      <trkpt lat="48.09594" lon="-3.60293">
        <ele>128</ele>
        <time>2025-02-25T10:09:03Z</time>
      </trkpt>
      <trkpt lat="48.09594" lon="-3.60293">
        <ele>128</ele>
        <time>2025-02-25T10:09:04Z</time>
      </trkpt>
      <trkpt lat="48.09594" lon="-3.60293">
        <ele>128</ele>
        <time>2025-02-25T10:09:05Z</time>
      </trkpt>
      <trkpt lat="48.09594" lon="-3.60293">
        <ele>128</ele>
        <time>2025-02-25T10:09:06Z</time>
      </trkpt>
      <trkpt lat="48.09594" lon="-3.60293">
        <ele>128</ele>
        <time>2025-02-25T10:09:07Z</time>
      </trkpt>
      <trkpt lat="48.09594" lon="-3.60293">
        <ele>128</ele>
        <time>2025-02-25T10:09:08Z</time>
      </trkpt>
      <trkpt lat="48.09594" lon="-3.60293">
        <ele>128</ele>
        <time>2025-02-25T10:09:09Z</time>
      </trkpt>
      <trkpt lat="48.09594" lon="-3.60293">
        <ele>128</ele>
        <time>2025-02-25T10:09:10Z</time>
      </trkpt>
      <trkpt lat="48.09594" lon="-3.60293">
        <ele>128</ele>
        <time>2025-02-25T10:09:11Z</time>
      </trkpt>
      <trkpt lat="48.09594" lon="-3.60293">
        <ele>128</ele>
        <time>2025-02-25T10:09:12Z</time>
      </trkpt>
      <trkpt lat="48.09594" lon="-3.60293">
        <ele>128</ele>
        <time>2025-02-25T10:09:13Z</time>
      </trkpt>
      <trkpt lat="48.09594" lon="-3.60293">
        <ele>128</ele>
        <time>2025-02-25T10:09:14Z</time>
      </trkpt>
      <trkpt lat="48.09594" lon="-3.60293">
        <ele>128</ele>
        <time>2025-02-25T10:09:15Z</time>
      </trkpt>
      <trkpt lat="48.09594" lon="-3.60293">
        <ele>128</ele>
        <time>2025-02-25T10:09:16Z</time>
      </trkpt>
      <trkpt lat="48.09594" lon="-3.60293">
        <ele>128</ele>
        <time>2025-02-25T10:09:17Z</time>
      </trkpt>
      <trkpt lat="48.09594" lon="-3.60293">
        <ele>128</ele>
        <time>2025-02-25T10:09:18Z</time>
      </trkpt>
      <trkpt lat="48.09595" lon="-3.60293">
        <ele>128</ele>
        <time>2025-02-25T10:09:19Z</time>
      </trkpt>
      <trkpt lat="48.09595" lon="-3.60292">
        <ele>128.1</ele>
        <time>2025-02-25T10:09:20Z</time>
      </trkpt>
      <trkpt lat="48.09595" lon="-3.60292">
        <ele>128.1</ele>
        <time>2025-02-25T10:09:21Z</time>
      </trkpt>
      <trkpt lat="48.09596" lon="-3.60291">
        <ele>128.1</ele>
        <time>2025-02-25T10:09:22Z</time>
      </trkpt>
      <trkpt lat="48.09597" lon="-3.60291">
        <ele>128.1</ele>
        <time>2025-02-25T10:09:23Z</time>
      </trkpt>
      <trkpt lat="48.09598" lon="-3.6029">
        <ele>128.1</ele>
        <time>2025-02-25T10:09:24Z</time>
      </trkpt>
      <trkpt lat="48.09599" lon="-3.6029">
        <ele>128.1</ele>
        <time>2025-02-25T10:09:25Z</time>
      </trkpt>
      <trkpt lat="48.096" lon="-3.6029">
        <ele>128</ele>
        <time>2025-02-25T10:09:26Z</time>
      </trkpt>
      <trkpt lat="48.096" lon="-3.6029">
        <ele>128</ele>
        <time>2025-02-25T10:09:27Z</time>
      </trkpt>
      <trkpt lat="48.09601" lon="-3.60288">
        <ele>128.2</ele>
        <time>2025-02-25T10:09:28Z</time>
      </trkpt>
      <trkpt lat="48.09601" lon="-3.60287">
        <ele>128.2</ele>
        <time>2025-02-25T10:09:29Z</time>
      </trkpt>
      <trkpt lat="48.09601" lon="-3.60286">
        <ele>128.3</ele>
        <time>2025-02-25T10:09:30Z</time>
      </trkpt>
      <trkpt lat="48.09602" lon="-3.60285">
        <ele>128.4</ele>
        <time>2025-02-25T10:09:31Z</time>
      </trkpt>
      <trkpt lat="48.09603" lon="-3.60284">
        <ele>128.5</ele>
        <time>2025-02-25T10:09:32Z</time>
      </trkpt>
      <trkpt lat="48.09604" lon="-3.60285">
        <ele>128.4</ele>
        <time>2025-02-25T10:09:33Z</time>
      </trkpt>
      <trkpt lat="48.09605" lon="-3.60286">
        <ele>128.2</ele>
        <time>2025-02-25T10:09:34Z</time>
      </trkpt>
      <trkpt lat="48.09606" lon="-3.60286">
        <ele>128.2</ele>
        <time>2025-02-25T10:09:35Z</time>
      </trkpt>
      <trkpt lat="48.09606" lon="-3.60286">
        <ele>128.2</ele>
        <time>2025-02-25T10:09:36Z</time>
      </trkpt>
      <trkpt lat="48.09607" lon="-3.60286">
        <ele>128.2</ele>
        <time>2025-02-25T10:09:37Z</time>
      </trkpt>
      <trkpt lat="48.09608" lon="-3.60284">
        <ele>128.4</ele>
        <time>2025-02-25T10:09:38Z</time>
      </trkpt>
      <trkpt lat="48.09608" lon="-3.60284">
        <ele>128.4</ele>
        <time>2025-02-25T10:09:39Z</time>
      </trkpt>
      <trkpt lat="48.09609" lon="-3.60284">
        <ele>128.4</ele>
        <time>2025-02-25T10:09:40Z</time>
      </trkpt>
      <trkpt lat="48.09609" lon="-3.60284">
        <ele>128.4</ele>
        <time>2025-02-25T10:09:41Z</time>
      </trkpt>
      <trkpt lat="48.0961" lon="-3.60284">
        <ele>128.3</ele>
        <time>2025-02-25T10:09:42Z</time>
      </trkpt>
      <trkpt lat="48.0961" lon="-3.60283">
        <ele>128.5</ele>
        <time>2025-02-25T10:09:43Z</time>
      </trkpt>
      <trkpt lat="48.09612" lon="-3.60282">
        <ele>128.5</ele>
        <time>2025-02-25T10:09:44Z</time>
      </trkpt>
      <trkpt lat="48.09613" lon="-3.60282">
        <ele>128.5</ele>
        <time>2025-02-25T10:09:45Z</time>
      </trkpt>
      <trkpt lat="48.09614" lon="-3.60282">
        <ele>128.5</ele>
        <time>2025-02-25T10:09:46Z</time>
      </trkpt>
      <trkpt lat="48.09615" lon="-3.6028">
        <ele>128.6</ele>
        <time>2025-02-25T10:09:47Z</time>
      </trkpt>
      <trkpt lat="48.09616" lon="-3.6028">
        <ele>128.6</ele>
        <time>2025-02-25T10:09:48Z</time>
      </trkpt>
      <trkpt lat="48.09616" lon="-3.60278">
        <ele>128.8</ele>
        <time>2025-02-25T10:09:49Z</time>
      </trkpt>
      <trkpt lat="48.09617" lon="-3.60279">
        <ele>128.7</ele>
        <time>2025-02-25T10:09:50Z</time>
      </trkpt>
      <trkpt lat="48.09617" lon="-3.60279">
        <ele>128.7</ele>
        <time>2025-02-25T10:09:51Z</time>
      </trkpt>
      <trkpt lat="48.09618" lon="-3.60279">
        <ele>128.6</ele>
        <time>2025-02-25T10:09:52Z</time>
      </trkpt>
      <trkpt lat="48.09618" lon="-3.60279">
        <ele>128.6</ele>
        <time>2025-02-25T10:09:53Z</time>
      </trkpt>
      <trkpt lat="48.09618" lon="-3.60279">
        <ele>128.6</ele>
        <time>2025-02-25T10:09:54Z</time>
      </trkpt>
      <trkpt lat="48.09619" lon="-3.60279">
        <ele>128.6</ele>
        <time>2025-02-25T10:09:55Z</time>
      </trkpt>
      <trkpt lat="48.09619" lon="-3.60278">
        <ele>128.7</ele>
        <time>2025-02-25T10:09:56Z</time>
      </trkpt>
      <trkpt lat="48.09619" lon="-3.60276">
        <ele>128.8</ele>
        <time>2025-02-25T10:09:57Z</time>
      </trkpt>
      <trkpt lat="48.09619" lon="-3.60275">
        <ele>128.8</ele>
        <time>2025-02-25T10:09:58Z</time>
      </trkpt>
      <trkpt lat="48.0962" lon="-3.60274">
        <ele>128.9</ele>
        <time>2025-02-25T10:09:59Z</time>
      </trkpt>
      <trkpt lat="48.0962" lon="-3.60273">
        <ele>128.9</ele>
        <time>2025-02-25T10:10:00Z</time>
      </trkpt>
      <trkpt lat="48.09622" lon="-3.60271">
        <ele>128.9</ele>
        <time>2025-02-25T10:10:01Z</time>
      </trkpt>
      <trkpt lat="48.09623" lon="-3.6027">
        <ele>129</ele>
        <time>2025-02-25T10:10:02Z</time>
      </trkpt>
      <trkpt lat="48.09624" lon="-3.6027">
        <ele>128.9</ele>
        <time>2025-02-25T10:10:03Z</time>
      </trkpt>
      <trkpt lat="48.09623" lon="-3.60271">
        <ele>128.9</ele>
        <time>2025-02-25T10:10:04Z</time>
      </trkpt>
      <trkpt lat="48.09625" lon="-3.60269">
        <ele>129</ele>
        <time>2025-02-25T10:10:05Z</time>
      </trkpt>
      <trkpt lat="48.09625" lon="-3.60267">
        <ele>129.1</ele>
        <time>2025-02-25T10:10:06Z</time>
      </trkpt>
      <trkpt lat="48.09625" lon="-3.60266">
        <ele>129.1</ele>
        <time>2025-02-25T10:10:07Z</time>
      </trkpt>
      <trkpt lat="48.09625" lon="-3.60265">
        <ele>129.2</ele>
        <time>2025-02-25T10:10:08Z</time>
      </trkpt>
      <trkpt lat="48.09626" lon="-3.60265">
        <ele>129.2</ele>
        <time>2025-02-25T10:10:09Z</time>
      </trkpt>
      <trkpt lat="48.09627" lon="-3.60263">
        <ele>129.3</ele>
        <time>2025-02-25T10:10:10Z</time>
      </trkpt>
      <trkpt lat="48.09627" lon="-3.60262">
        <ele>129.3</ele>
        <time>2025-02-25T10:10:11Z</time>
      </trkpt>
      <trkpt lat="48.09628" lon="-3.60261">
        <ele>129.4</ele>
        <time>2025-02-25T10:10:12Z</time>
      </trkpt>
      <trkpt lat="48.09629" lon="-3.60261">
        <ele>129.3</ele>
        <time>2025-02-25T10:10:13Z</time>
      </trkpt>
      <trkpt lat="48.0963" lon="-3.6026">
        <ele>129.4</ele>
        <time>2025-02-25T10:10:14Z</time>
      </trkpt>
      <trkpt lat="48.09631" lon="-3.60261">
        <ele>129.3</ele>
        <time>2025-02-25T10:10:15Z</time>
      </trkpt>
      <trkpt lat="48.09632" lon="-3.60261">
        <ele>129.3</ele>
        <time>2025-02-25T10:10:16Z</time>
      </trkpt>
      <trkpt lat="48.09633" lon="-3.6026">
        <ele>129.4</ele>
        <time>2025-02-25T10:10:17Z</time>
      </trkpt>
      <trkpt lat="48.09634" lon="-3.6026">
        <ele>129.3</ele>
        <time>2025-02-25T10:10:18Z</time>
      </trkpt>
      <trkpt lat="48.09635" lon="-3.60259">
        <ele>129.4</ele>
        <time>2025-02-25T10:10:19Z</time>
      </trkpt>
      <trkpt lat="48.09636" lon="-3.60259">
        <ele>129.4</ele>
        <time>2025-02-25T10:10:20Z</time>
      </trkpt>
      <trkpt lat="48.09636" lon="-3.60258">
        <ele>129.5</ele>
        <time>2025-02-25T10:10:21Z</time>
      </trkpt>
      <trkpt lat="48.09637" lon="-3.60256">
        <ele>129.6</ele>
        <time>2025-02-25T10:10:22Z</time>
      </trkpt>
      <trkpt lat="48.09638" lon="-3.60255">
        <ele>129.6</ele>
        <time>2025-02-25T10:10:23Z</time>
      </trkpt>
      <trkpt lat="48.09639" lon="-3.60254">
        <ele>129.7</ele>
        <time>2025-02-25T10:10:24Z</time>
      </trkpt>
      <trkpt lat="48.0964" lon="-3.60255">
        <ele>129.6</ele>
        <time>2025-02-25T10:10:25Z</time>
      </trkpt>
      <trkpt lat="48.09642" lon="-3.60255">
        <ele>129.5</ele>
        <time>2025-02-25T10:10:26Z</time>
      </trkpt>
      <trkpt lat="48.09643" lon="-3.60256">
        <ele>129.5</ele>
        <time>2025-02-25T10:10:27Z</time>
      </trkpt>
      <trkpt lat="48.09643" lon="-3.60256">
        <ele>129.5</ele>
        <time>2025-02-25T10:10:28Z</time>
      </trkpt>
      <trkpt lat="48.09644" lon="-3.60256">
        <ele>129.4</ele>
        <time>2025-02-25T10:10:29Z</time>
      </trkpt>
      <trkpt lat="48.09645" lon="-3.60256">
        <ele>129.4</ele>
        <time>2025-02-25T10:10:30Z</time>
      </trkpt>
      <trkpt lat="48.09646" lon="-3.60256">
        <ele>129.4</ele>
        <time>2025-02-25T10:10:31Z</time>
      </trkpt>
      <trkpt lat="48.09647" lon="-3.60256">
        <ele>129.3</ele>
        <time>2025-02-25T10:10:32Z</time>
      </trkpt>
      <trkpt lat="48.09648" lon="-3.60255">
        <ele>129.4</ele>
        <time>2025-02-25T10:10:33Z</time>
      </trkpt>
      <trkpt lat="48.09649" lon="-3.60255">
        <ele>129.3</ele>
        <time>2025-02-25T10:10:34Z</time>
      </trkpt>
      <trkpt lat="48.09649" lon="-3.60255">
        <ele>129.3</ele>
        <time>2025-02-25T10:10:35Z</time>
      </trkpt>
      <trkpt lat="48.0965" lon="-3.60254">
        <ele>129.4</ele>
        <time>2025-02-25T10:10:36Z</time>
      </trkpt>
      <trkpt lat="48.0965" lon="-3.60254">
        <ele>129.4</ele>
        <time>2025-02-25T10:10:37Z</time>
      </trkpt>
      <trkpt lat="48.09651" lon="-3.60253">
        <ele>129.4</ele>
        <time>2025-02-25T10:10:38Z</time>
      </trkpt>
      <trkpt lat="48.09652" lon="-3.60253">
        <ele>129.4</ele>
        <time>2025-02-25T10:10:39Z</time>
      </trkpt>
      <trkpt lat="48.09653" lon="-3.60253">
        <ele>129.3</ele>
        <time>2025-02-25T10:10:40Z</time>
      </trkpt>
      <trkpt lat="48.09654" lon="-3.60252">
        <ele>129.4</ele>
        <time>2025-02-25T10:10:41Z</time>
      </trkpt>
      <trkpt lat="48.09655" lon="-3.60251">
        <ele>129.4</ele>
        <time>2025-02-25T10:10:42Z</time>
      </trkpt>
      <trkpt lat="48.09655" lon="-3.60251">
        <ele>129.4</ele>
        <time>2025-02-25T10:10:43Z</time>
      </trkpt>
      <trkpt lat="48.09655" lon="-3.60249">
        <ele>129.5</ele>
        <time>2025-02-25T10:10:44Z</time>
      </trkpt>
      <trkpt lat="48.09655" lon="-3.60248">
        <ele>129.5</ele>
        <time>2025-02-25T10:10:45Z</time>
      </trkpt>
      <trkpt lat="48.09655" lon="-3.60246">
        <ele>129.6</ele>
        <time>2025-02-25T10:10:46Z</time>
      </trkpt>
      <trkpt lat="48.09655" lon="-3.60245">
        <ele>129.7</ele>
        <time>2025-02-25T10:10:47Z</time>
      </trkpt>
      <trkpt lat="48.09655" lon="-3.60244">
        <ele>129.8</ele>
        <time>2025-02-25T10:10:48Z</time>
      </trkpt>
      <trkpt lat="48.09655" lon="-3.60243">
        <ele>129.8</ele>
        <time>2025-02-25T10:10:49Z</time>
      </trkpt>
      <trkpt lat="48.09655" lon="-3.60241">
        <ele>129.9</ele>
        <time>2025-02-25T10:10:50Z</time>
      </trkpt>
      <trkpt lat="48.09655" lon="-3.6024">
        <ele>130</ele>
        <time>2025-02-25T10:10:51Z</time>
      </trkpt>
      <trkpt lat="48.09656" lon="-3.60239">
        <ele>130</ele>
        <time>2025-02-25T10:10:52Z</time>
      </trkpt>
      <trkpt lat="48.09656" lon="-3.60238">
        <ele>130.1</ele>
        <time>2025-02-25T10:10:53Z</time>
      </trkpt>
      <trkpt lat="48.09657" lon="-3.60237">
        <ele>130.1</ele>
        <time>2025-02-25T10:10:54Z</time>
      </trkpt>
      <trkpt lat="48.09658" lon="-3.60235">
        <ele>130.2</ele>
        <time>2025-02-25T10:10:55Z</time>
      </trkpt>
      <trkpt lat="48.09658" lon="-3.60233">
        <ele>130.3</ele>
        <time>2025-02-25T10:10:56Z</time>
      </trkpt>
      <trkpt lat="48.09659" lon="-3.60231">
        <ele>130.5</ele>
        <time>2025-02-25T10:10:57Z</time>
      </trkpt>
      <trkpt lat="48.09659" lon="-3.6023">
        <ele>130.5</ele>
        <time>2025-02-25T10:10:58Z</time>
      </trkpt>
      <trkpt lat="48.09659" lon="-3.60229">
        <ele>130.6</ele>
        <time>2025-02-25T10:10:59Z</time>
      </trkpt>
      <trkpt lat="48.09659" lon="-3.60228">
        <ele>130.6</ele>
        <time>2025-02-25T10:11:00Z</time>
      </trkpt>
      <trkpt lat="48.0966" lon="-3.60228">
        <ele>130.6</ele>
        <time>2025-02-25T10:11:01Z</time>
      </trkpt>
      <trkpt lat="48.0966" lon="-3.60226">
        <ele>130.8</ele>
        <time>2025-02-25T10:11:02Z</time>
      </trkpt>
      <trkpt lat="48.0966" lon="-3.60225">
        <ele>130.8</ele>
        <time>2025-02-25T10:11:03Z</time>
      </trkpt>
      <trkpt lat="48.09661" lon="-3.60224">
        <ele>130.9</ele>
        <time>2025-02-25T10:11:04Z</time>
      </trkpt>
      <trkpt lat="48.09661" lon="-3.60223">
        <ele>130.9</ele>
        <time>2025-02-25T10:11:05Z</time>
      </trkpt>
      <trkpt lat="48.09662" lon="-3.60221">
        <ele>131</ele>
        <time>2025-02-25T10:11:06Z</time>
      </trkpt>
      <trkpt lat="48.09662" lon="-3.6022">
        <ele>131.1</ele>
        <time>2025-02-25T10:11:07Z</time>
      </trkpt>
      <trkpt lat="48.09662" lon="-3.6022">
        <ele>131.1</ele>
        <time>2025-02-25T10:11:08Z</time>
      </trkpt>
      <trkpt lat="48.09663" lon="-3.60219">
        <ele>131.1</ele>
        <time>2025-02-25T10:11:09Z</time>
      </trkpt>
      <trkpt lat="48.09663" lon="-3.60217">
        <ele>131.2</ele>
        <time>2025-02-25T10:11:10Z</time>
      </trkpt>
      <trkpt lat="48.09663" lon="-3.60216">
        <ele>131.2</ele>
        <time>2025-02-25T10:11:11Z</time>
      </trkpt>
      <trkpt lat="48.09663" lon="-3.60215">
        <ele>131.3</ele>
        <time>2025-02-25T10:11:12Z</time>
      </trkpt>
      <trkpt lat="48.09663" lon="-3.60214">
        <ele>131.3</ele>
        <time>2025-02-25T10:11:13Z</time>
      </trkpt>
      <trkpt lat="48.09663" lon="-3.60212">
        <ele>131.4</ele>
        <time>2025-02-25T10:11:14Z</time>
      </trkpt>
      <trkpt lat="48.09664" lon="-3.6021">
        <ele>131.4</ele>
        <time>2025-02-25T10:11:15Z</time>
      </trkpt>
      <trkpt lat="48.09664" lon="-3.60209">
        <ele>131.5</ele>
        <time>2025-02-25T10:11:16Z</time>
      </trkpt>
      <trkpt lat="48.09665" lon="-3.60209">
        <ele>131.5</ele>
        <time>2025-02-25T10:11:17Z</time>
      </trkpt>
      <trkpt lat="48.09666" lon="-3.60207">
        <ele>131.5</ele>
        <time>2025-02-25T10:11:18Z</time>
      </trkpt>
      <trkpt lat="48.09667" lon="-3.60206">
        <ele>131.6</ele>
        <time>2025-02-25T10:11:19Z</time>
      </trkpt>
      <trkpt lat="48.09667" lon="-3.60205">
        <ele>131.6</ele>
        <time>2025-02-25T10:11:20Z</time>
      </trkpt>
      <trkpt lat="48.09668" lon="-3.60204">
        <ele>131.7</ele>
        <time>2025-02-25T10:11:21Z</time>
      </trkpt>
      <trkpt lat="48.09669" lon="-3.60203">
        <ele>131.8</ele>
        <time>2025-02-25T10:11:22Z</time>
      </trkpt>
      <trkpt lat="48.09668" lon="-3.60202">
        <ele>131.8</ele>
        <time>2025-02-25T10:11:23Z</time>
      </trkpt>
      <trkpt lat="48.09669" lon="-3.60201">
        <ele>131.8</ele>
        <time>2025-02-25T10:11:24Z</time>
      </trkpt>
      <trkpt lat="48.09669" lon="-3.602">
        <ele>131.9</ele>
        <time>2025-02-25T10:11:25Z</time>
      </trkpt>
      <trkpt lat="48.09668" lon="-3.60198">
        <ele>131.9</ele>
        <time>2025-02-25T10:11:26Z</time>
      </trkpt>
      <trkpt lat="48.09668" lon="-3.60196">
        <ele>132</ele>
        <time>2025-02-25T10:11:27Z</time>
      </trkpt>
      <trkpt lat="48.09669" lon="-3.60196">
        <ele>132</ele>
        <time>2025-02-25T10:11:28Z</time>
      </trkpt>
      <trkpt lat="48.0967" lon="-3.60194">
        <ele>132.2</ele>
        <time>2025-02-25T10:11:29Z</time>
      </trkpt>
      <trkpt lat="48.0967" lon="-3.60193">
        <ele>132.2</ele>
        <time>2025-02-25T10:11:30Z</time>
      </trkpt>
      <trkpt lat="48.09671" lon="-3.60191">
        <ele>132.4</ele>
        <time>2025-02-25T10:11:31Z</time>
      </trkpt>
      <trkpt lat="48.09672" lon="-3.6019">
        <ele>132.5</ele>
        <time>2025-02-25T10:11:32Z</time>
      </trkpt>
      <trkpt lat="48.09672" lon="-3.60189">
        <ele>132.5</ele>
        <time>2025-02-25T10:11:33Z</time>
      </trkpt>
      <trkpt lat="48.09672" lon="-3.60188">
        <ele>132.6</ele>
        <time>2025-02-25T10:11:34Z</time>
      </trkpt>
      <trkpt lat="48.09672" lon="-3.60187">
        <ele>132.7</ele>
        <time>2025-02-25T10:11:35Z</time>
      </trkpt>
      <trkpt lat="48.09673" lon="-3.60186">
        <ele>132.8</ele>
        <time>2025-02-25T10:11:36Z</time>
      </trkpt>
      <trkpt lat="48.09673" lon="-3.60185">
        <ele>132.8</ele>
        <time>2025-02-25T10:11:37Z</time>
      </trkpt>
      <trkpt lat="48.09674" lon="-3.60184">
        <ele>132.9</ele>
        <time>2025-02-25T10:11:38Z</time>
      </trkpt>
      <trkpt lat="48.09675" lon="-3.60183">
        <ele>133</ele>
        <time>2025-02-25T10:11:39Z</time>
      </trkpt>
      <trkpt lat="48.09674" lon="-3.60185">
        <ele>132.9</ele>
        <time>2025-02-25T10:11:40Z</time>
      </trkpt>
      <trkpt lat="48.09675" lon="-3.60183">
        <ele>133</ele>
        <time>2025-02-25T10:11:41Z</time>
      </trkpt>
      <trkpt lat="48.09675" lon="-3.60183">
        <ele>133</ele>
        <time>2025-02-25T10:11:42Z</time>
      </trkpt>
      <trkpt lat="48.09675" lon="-3.6018">
        <ele>133.2</ele>
        <time>2025-02-25T10:11:43Z</time>
      </trkpt>
      <trkpt lat="48.09674" lon="-3.60179">
        <ele>133.2</ele>
        <time>2025-02-25T10:11:44Z</time>
      </trkpt>
      <trkpt lat="48.09674" lon="-3.60179">
        <ele>133.2</ele>
        <time>2025-02-25T10:11:45Z</time>
      </trkpt>
      <trkpt lat="48.09673" lon="-3.60176">
        <ele>133.4</ele>
        <time>2025-02-25T10:11:46Z</time>
      </trkpt>
      <trkpt lat="48.09674" lon="-3.60173">
        <ele>133.6</ele>
        <time>2025-02-25T10:11:47Z</time>
      </trkpt>
      <trkpt lat="48.09674" lon="-3.60171">
        <ele>133.7</ele>
        <time>2025-02-25T10:11:48Z</time>
      </trkpt>
      <trkpt lat="48.09674" lon="-3.60172">
        <ele>133.7</ele>
        <time>2025-02-25T10:11:49Z</time>
      </trkpt>
      <trkpt lat="48.09674" lon="-3.60171">
        <ele>133.7</ele>
        <time>2025-02-25T10:11:50Z</time>
      </trkpt>
      <trkpt lat="48.09675" lon="-3.6017">
        <ele>133.8</ele>
        <time>2025-02-25T10:11:51Z</time>
      </trkpt>
      <trkpt lat="48.09676" lon="-3.6017">
        <ele>133.8</ele>
        <time>2025-02-25T10:11:52Z</time>
      </trkpt>
      <trkpt lat="48.09677" lon="-3.6017">
        <ele>133.8</ele>
        <time>2025-02-25T10:11:53Z</time>
      </trkpt>
      <trkpt lat="48.09677" lon="-3.60167">
        <ele>134</ele>
        <time>2025-02-25T10:11:54Z</time>
      </trkpt>
      <trkpt lat="48.09677" lon="-3.60166">
        <ele>134</ele>
        <time>2025-02-25T10:11:55Z</time>
      </trkpt>
      <trkpt lat="48.09678" lon="-3.60164">
        <ele>134.1</ele>
        <time>2025-02-25T10:11:56Z</time>
      </trkpt>
      <trkpt lat="48.09677" lon="-3.60163">
        <ele>134.1</ele>
        <time>2025-02-25T10:11:57Z</time>
      </trkpt>
      <trkpt lat="48.09677" lon="-3.60161">
        <ele>134.2</ele>
        <time>2025-02-25T10:11:58Z</time>
      </trkpt>
      <trkpt lat="48.09677" lon="-3.6016">
        <ele>134.2</ele>
        <time>2025-02-25T10:11:59Z</time>
      </trkpt>
      <trkpt lat="48.09677" lon="-3.6016">
        <ele>134.2</ele>
        <time>2025-02-25T10:12:00Z</time>
      </trkpt>
      <trkpt lat="48.09677" lon="-3.6016">
        <ele>134.2</ele>
        <time>2025-02-25T10:12:01Z</time>
      </trkpt>
      <trkpt lat="48.09677" lon="-3.60158">
        <ele>134.3</ele>
        <time>2025-02-25T10:12:02Z</time>
      </trkpt>
      <trkpt lat="48.09676" lon="-3.60157">
        <ele>134.3</ele>
        <time>2025-02-25T10:12:03Z</time>
      </trkpt>
      <trkpt lat="48.09677" lon="-3.60155">
        <ele>134.4</ele>
        <time>2025-02-25T10:12:04Z</time>
      </trkpt>
      <trkpt lat="48.09677" lon="-3.60153">
        <ele>134.5</ele>
        <time>2025-02-25T10:12:05Z</time>
      </trkpt>
      <trkpt lat="48.09678" lon="-3.60152">
        <ele>134.5</ele>
        <time>2025-02-25T10:12:06Z</time>
      </trkpt>
      <trkpt lat="48.09679" lon="-3.60151">
        <ele>134.6</ele>
        <time>2025-02-25T10:12:07Z</time>
      </trkpt>
      <trkpt lat="48.09679" lon="-3.60151">
        <ele>134.6</ele>
        <time>2025-02-25T10:12:08Z</time>
      </trkpt>
      <trkpt lat="48.09679" lon="-3.60148">
        <ele>134.7</ele>
        <time>2025-02-25T10:12:09Z</time>
      </trkpt>
      <trkpt lat="48.0968" lon="-3.60148">
        <ele>134.7</ele>
        <time>2025-02-25T10:12:10Z</time>
      </trkpt>
      <trkpt lat="48.0968" lon="-3.60148">
        <ele>134.7</ele>
        <time>2025-02-25T10:12:11Z</time>
      </trkpt>
      <trkpt lat="48.09681" lon="-3.60147">
        <ele>134.7</ele>
        <time>2025-02-25T10:12:12Z</time>
      </trkpt>
      <trkpt lat="48.09681" lon="-3.60146">
        <ele>134.7</ele>
        <time>2025-02-25T10:12:13Z</time>
      </trkpt>
      <trkpt lat="48.09682" lon="-3.60145">
        <ele>134.8</ele>
        <time>2025-02-25T10:12:14Z</time>
      </trkpt>
      <trkpt lat="48.09683" lon="-3.60143">
        <ele>134.9</ele>
        <time>2025-02-25T10:12:15Z</time>
      </trkpt>
      <trkpt lat="48.09683" lon="-3.60141">
        <ele>134.9</ele>
        <time>2025-02-25T10:12:16Z</time>
      </trkpt>
      <trkpt lat="48.09682" lon="-3.60139">
        <ele>135</ele>
        <time>2025-02-25T10:12:17Z</time>
      </trkpt>
      <trkpt lat="48.09683" lon="-3.60137">
        <ele>135.1</ele>
        <time>2025-02-25T10:12:18Z</time>
      </trkpt>
      <trkpt lat="48.09683" lon="-3.60136">
        <ele>135.1</ele>
        <time>2025-02-25T10:12:19Z</time>
      </trkpt>
      <trkpt lat="48.09684" lon="-3.60135">
        <ele>135.2</ele>
        <time>2025-02-25T10:12:20Z</time>
      </trkpt>
      <trkpt lat="48.09685" lon="-3.60134">
        <ele>135.2</ele>
        <time>2025-02-25T10:12:21Z</time>
      </trkpt>
      <trkpt lat="48.09685" lon="-3.60133">
        <ele>135.3</ele>
        <time>2025-02-25T10:12:22Z</time>
      </trkpt>
      <trkpt lat="48.09685" lon="-3.60131">
        <ele>135.4</ele>
        <time>2025-02-25T10:12:23Z</time>
      </trkpt>
      <trkpt lat="48.09686" lon="-3.6013">
        <ele>135.4</ele>
        <time>2025-02-25T10:12:24Z</time>
      </trkpt>
      <trkpt lat="48.09686" lon="-3.60128">
        <ele>135.5</ele>
        <time>2025-02-25T10:12:25Z</time>
      </trkpt>
      <trkpt lat="48.09687" lon="-3.60127">
        <ele>135.5</ele>
        <time>2025-02-25T10:12:26Z</time>
      </trkpt>
      <trkpt lat="48.09688" lon="-3.60126">
        <ele>135.6</ele>
        <time>2025-02-25T10:12:27Z</time>
      </trkpt>
      <trkpt lat="48.09689" lon="-3.60124">
        <ele>135.6</ele>
        <time>2025-02-25T10:12:28Z</time>
      </trkpt>
      <trkpt lat="48.09689" lon="-3.60123">
        <ele>135.7</ele>
        <time>2025-02-25T10:12:29Z</time>
      </trkpt>
      <trkpt lat="48.09689" lon="-3.60121">
        <ele>135.8</ele>
        <time>2025-02-25T10:12:30Z</time>
      </trkpt>
      <trkpt lat="48.0969" lon="-3.60121">
        <ele>135.7</ele>
        <time>2025-02-25T10:12:31Z</time>
      </trkpt>
      <trkpt lat="48.0969" lon="-3.60119">
        <ele>135.8</ele>
        <time>2025-02-25T10:12:32Z</time>
      </trkpt>
      <trkpt lat="48.0969" lon="-3.60118">
        <ele>135.9</ele>
        <time>2025-02-25T10:12:33Z</time>
      </trkpt>
      <trkpt lat="48.0969" lon="-3.60116">
        <ele>136</ele>
        <time>2025-02-25T10:12:34Z</time>
      </trkpt>
      <trkpt lat="48.0969" lon="-3.60115">
        <ele>136</ele>
        <time>2025-02-25T10:12:35Z</time>
      </trkpt>
      <trkpt lat="48.0969" lon="-3.60114">
        <ele>136</ele>
        <time>2025-02-25T10:12:36Z</time>
      </trkpt>
      <trkpt lat="48.09691" lon="-3.60112">
        <ele>136.1</ele>
        <time>2025-02-25T10:12:37Z</time>
      </trkpt>
      <trkpt lat="48.09691" lon="-3.60111">
        <ele>136.1</ele>
        <time>2025-02-25T10:12:38Z</time>
      </trkpt>
      <trkpt lat="48.09691" lon="-3.60109">
        <ele>136.3</ele>
        <time>2025-02-25T10:12:39Z</time>
      </trkpt>
      <trkpt lat="48.09693" lon="-3.60108">
        <ele>136.3</ele>
        <time>2025-02-25T10:12:40Z</time>
      </trkpt>
      <trkpt lat="48.09693" lon="-3.60107">
        <ele>136.3</ele>
        <time>2025-02-25T10:12:41Z</time>
      </trkpt>
      <trkpt lat="48.09694" lon="-3.60106">
        <ele>136.4</ele>
        <time>2025-02-25T10:12:42Z</time>
      </trkpt>
      <trkpt lat="48.09695" lon="-3.60105">
        <ele>136.5</ele>
        <time>2025-02-25T10:12:43Z</time>
      </trkpt>
      <trkpt lat="48.09695" lon="-3.60104">
        <ele>136.6</ele>
        <time>2025-02-25T10:12:44Z</time>
      </trkpt>
      <trkpt lat="48.09695" lon="-3.60102">
        <ele>136.7</ele>
        <time>2025-02-25T10:12:45Z</time>
      </trkpt>
      <trkpt lat="48.09695" lon="-3.60101">
        <ele>136.8</ele>
        <time>2025-02-25T10:12:46Z</time>
      </trkpt>
      <trkpt lat="48.09695" lon="-3.60099">
        <ele>136.9</ele>
        <time>2025-02-25T10:12:47Z</time>
      </trkpt>
      <trkpt lat="48.09695" lon="-3.60097">
        <ele>137.1</ele>
        <time>2025-02-25T10:12:48Z</time>
      </trkpt>
      <trkpt lat="48.09695" lon="-3.60096">
        <ele>137.1</ele>
        <time>2025-02-25T10:12:49Z</time>
      </trkpt>
      <trkpt lat="48.09695" lon="-3.60095">
        <ele>137.2</ele>
        <time>2025-02-25T10:12:50Z</time>
      </trkpt>
      <trkpt lat="48.09695" lon="-3.60092">
        <ele>137.4</ele>
        <time>2025-02-25T10:12:51Z</time>
      </trkpt>
      <trkpt lat="48.09696" lon="-3.60092">
        <ele>137.5</ele>
        <time>2025-02-25T10:12:52Z</time>
      </trkpt>
      <trkpt lat="48.09697" lon="-3.60092">
        <ele>137.6</ele>
        <time>2025-02-25T10:12:53Z</time>
      </trkpt>
      <trkpt lat="48.09698" lon="-3.60092">
        <ele>137.6</ele>
        <time>2025-02-25T10:12:54Z</time>
      </trkpt>
      <trkpt lat="48.09699" lon="-3.60091">
        <ele>137.7</ele>
        <time>2025-02-25T10:12:55Z</time>
      </trkpt>
      <trkpt lat="48.09699" lon="-3.60092">
        <ele>137.7</ele>
        <time>2025-02-25T10:12:56Z</time>
      </trkpt>
      <trkpt lat="48.09699" lon="-3.6009">
        <ele>137.8</ele>
        <time>2025-02-25T10:12:57Z</time>
      </trkpt>
      <trkpt lat="48.097" lon="-3.60089">
        <ele>137.9</ele>
        <time>2025-02-25T10:12:58Z</time>
      </trkpt>
      <trkpt lat="48.09701" lon="-3.60089">
        <ele>138</ele>
        <time>2025-02-25T10:12:59Z</time>
      </trkpt>
      <trkpt lat="48.09701" lon="-3.60087">
        <ele>138.1</ele>
        <time>2025-02-25T10:13:00Z</time>
      </trkpt>
      <trkpt lat="48.09701" lon="-3.60085">
        <ele>138.2</ele>
        <time>2025-02-25T10:13:01Z</time>
      </trkpt>
      <trkpt lat="48.09701" lon="-3.60084">
        <ele>138.2</ele>
        <time>2025-02-25T10:13:02Z</time>
      </trkpt>
      <trkpt lat="48.09702" lon="-3.60083">
        <ele>138.3</ele>
        <time>2025-02-25T10:13:03Z</time>
      </trkpt>
      <trkpt lat="48.09702" lon="-3.60082">
        <ele>138.3</ele>
        <time>2025-02-25T10:13:04Z</time>
      </trkpt>
      <trkpt lat="48.09702" lon="-3.60081">
        <ele>138.4</ele>
        <time>2025-02-25T10:13:05Z</time>
      </trkpt>
      <trkpt lat="48.09703" lon="-3.60079">
        <ele>138.5</ele>
        <time>2025-02-25T10:13:06Z</time>
      </trkpt>
      <trkpt lat="48.09704" lon="-3.60078">
        <ele>138.5</ele>
        <time>2025-02-25T10:13:07Z</time>
      </trkpt>
      <trkpt lat="48.09704" lon="-3.60077">
        <ele>138.6</ele>
        <time>2025-02-25T10:13:08Z</time>
      </trkpt>
      <trkpt lat="48.09704" lon="-3.60076">
        <ele>138.6</ele>
        <time>2025-02-25T10:13:09Z</time>
      </trkpt>
      <trkpt lat="48.09705" lon="-3.60074">
        <ele>138.7</ele>
        <time>2025-02-25T10:13:10Z</time>
      </trkpt>
      <trkpt lat="48.09705" lon="-3.60073">
        <ele>138.7</ele>
        <time>2025-02-25T10:13:11Z</time>
      </trkpt>
      <trkpt lat="48.09705" lon="-3.60071">
        <ele>138.8</ele>
        <time>2025-02-25T10:13:12Z</time>
      </trkpt>
      <trkpt lat="48.09705" lon="-3.6007">
        <ele>138.8</ele>
        <time>2025-02-25T10:13:13Z</time>
      </trkpt>
      <trkpt lat="48.09705" lon="-3.60069">
        <ele>138.8</ele>
        <time>2025-02-25T10:13:14Z</time>
      </trkpt>
      <trkpt lat="48.09706" lon="-3.60068">
        <ele>138.8</ele>
        <time>2025-02-25T10:13:15Z</time>
      </trkpt>
      <trkpt lat="48.09707" lon="-3.60066">
        <ele>138.9</ele>
        <time>2025-02-25T10:13:16Z</time>
      </trkpt>
      <trkpt lat="48.09707" lon="-3.60066">
        <ele>138.9</ele>
        <time>2025-02-25T10:13:17Z</time>
      </trkpt>
      <trkpt lat="48.09708" lon="-3.60064">
        <ele>138.9</ele>
        <time>2025-02-25T10:13:18Z</time>
      </trkpt>
      <trkpt lat="48.09708" lon="-3.60063">
        <ele>138.9</ele>
        <time>2025-02-25T10:13:19Z</time>
      </trkpt>
      <trkpt lat="48.09708" lon="-3.60061">
        <ele>138.9</ele>
        <time>2025-02-25T10:13:20Z</time>
      </trkpt>
      <trkpt lat="48.09709" lon="-3.6006">
        <ele>138.9</ele>
        <time>2025-02-25T10:13:21Z</time>
      </trkpt>
      <trkpt lat="48.0971" lon="-3.60059">
        <ele>138.8</ele>
        <time>2025-02-25T10:13:22Z</time>
      </trkpt>
      <trkpt lat="48.0971" lon="-3.60058">
        <ele>138.9</ele>
        <time>2025-02-25T10:13:23Z</time>
      </trkpt>
      <trkpt lat="48.0971" lon="-3.60057">
        <ele>138.9</ele>
        <time>2025-02-25T10:13:24Z</time>
      </trkpt>
      <trkpt lat="48.09711" lon="-3.60056">
        <ele>138.8</ele>
        <time>2025-02-25T10:13:25Z</time>
      </trkpt>
      <trkpt lat="48.09711" lon="-3.60054">
        <ele>138.9</ele>
        <time>2025-02-25T10:13:26Z</time>
      </trkpt>
      <trkpt lat="48.0971" lon="-3.60054">
        <ele>138.9</ele>
        <time>2025-02-25T10:13:27Z</time>
      </trkpt>
      <trkpt lat="48.0971" lon="-3.60052">
        <ele>139</ele>
        <time>2025-02-25T10:13:28Z</time>
      </trkpt>
      <trkpt lat="48.0971" lon="-3.60051">
        <ele>139</ele>
        <time>2025-02-25T10:13:29Z</time>
      </trkpt>
      <trkpt lat="48.0971" lon="-3.6005">
        <ele>139.1</ele>
        <time>2025-02-25T10:13:30Z</time>
      </trkpt>
      <trkpt lat="48.0971" lon="-3.60049">
        <ele>139.1</ele>
        <time>2025-02-25T10:13:31Z</time>
      </trkpt>
      <trkpt lat="48.0971" lon="-3.60048">
        <ele>139.2</ele>
        <time>2025-02-25T10:13:32Z</time>
      </trkpt>
      <trkpt lat="48.09711" lon="-3.60047">
        <ele>139.1</ele>
        <time>2025-02-25T10:13:33Z</time>
      </trkpt>
      <trkpt lat="48.09711" lon="-3.60046">
        <ele>139.2</ele>
        <time>2025-02-25T10:13:34Z</time>
      </trkpt>
      <trkpt lat="48.09711" lon="-3.60045">
        <ele>139.2</ele>
        <time>2025-02-25T10:13:35Z</time>
      </trkpt>
      <trkpt lat="48.09712" lon="-3.60044">
        <ele>139.2</ele>
        <time>2025-02-25T10:13:36Z</time>
      </trkpt>
      <trkpt lat="48.09712" lon="-3.60043">
        <ele>139.2</ele>
        <time>2025-02-25T10:13:37Z</time>
      </trkpt>
      <trkpt lat="48.09713" lon="-3.60042">
        <ele>139.2</ele>
        <time>2025-02-25T10:13:38Z</time>
      </trkpt>
      <trkpt lat="48.09713" lon="-3.6004">
        <ele>139.2</ele>
        <time>2025-02-25T10:13:39Z</time>
      </trkpt>
      <trkpt lat="48.09714" lon="-3.60038">
        <ele>139.2</ele>
        <time>2025-02-25T10:13:40Z</time>
      </trkpt>
      <trkpt lat="48.09714" lon="-3.60038">
        <ele>139.2</ele>
        <time>2025-02-25T10:13:41Z</time>
      </trkpt>
      <trkpt lat="48.09715" lon="-3.60037">
        <ele>139.2</ele>
        <time>2025-02-25T10:13:42Z</time>
      </trkpt>
      <trkpt lat="48.09716" lon="-3.60035">
        <ele>139.2</ele>
        <time>2025-02-25T10:13:43Z</time>
      </trkpt>
      <trkpt lat="48.09716" lon="-3.60033">
        <ele>139.3</ele>
        <time>2025-02-25T10:13:44Z</time>
      </trkpt>
      <trkpt lat="48.09716" lon="-3.60032">
        <ele>139.3</ele>
        <time>2025-02-25T10:13:45Z</time>
      </trkpt>
      <trkpt lat="48.09716" lon="-3.6003">
        <ele>139.4</ele>
        <time>2025-02-25T10:13:46Z</time>
      </trkpt>
      <trkpt lat="48.09716" lon="-3.60029">
        <ele>139.4</ele>
        <time>2025-02-25T10:13:47Z</time>
      </trkpt>
      <trkpt lat="48.09716" lon="-3.60027">
        <ele>139.5</ele>
        <time>2025-02-25T10:13:48Z</time>
      </trkpt>
      <trkpt lat="48.09717" lon="-3.60026">
        <ele>139.5</ele>
        <time>2025-02-25T10:13:49Z</time>
      </trkpt>
      <trkpt lat="48.09717" lon="-3.60025">
        <ele>139.5</ele>
        <time>2025-02-25T10:13:50Z</time>
      </trkpt>
      <trkpt lat="48.09716" lon="-3.60023">
        <ele>139.7</ele>
        <time>2025-02-25T10:13:51Z</time>
      </trkpt>
      <trkpt lat="48.09715" lon="-3.60022">
        <ele>139.8</ele>
        <time>2025-02-25T10:13:52Z</time>
      </trkpt>
      <trkpt lat="48.09715" lon="-3.6002">
        <ele>139.9</ele>
        <time>2025-02-25T10:13:53Z</time>
      </trkpt>
      <trkpt lat="48.09715" lon="-3.60019">
        <ele>139.9</ele>
        <time>2025-02-25T10:13:54Z</time>
      </trkpt>
      <trkpt lat="48.09716" lon="-3.60017">
        <ele>139.9</ele>
        <time>2025-02-25T10:13:55Z</time>
      </trkpt>
      <trkpt lat="48.09716" lon="-3.60016">
        <ele>140</ele>
        <time>2025-02-25T10:13:56Z</time>
      </trkpt>
      <trkpt lat="48.09716" lon="-3.60014">
        <ele>140.1</ele>
        <time>2025-02-25T10:13:57Z</time>
      </trkpt>
      <trkpt lat="48.09716" lon="-3.60013">
        <ele>140.1</ele>
        <time>2025-02-25T10:13:58Z</time>
      </trkpt>
      <trkpt lat="48.09716" lon="-3.60011">
        <ele>140.2</ele>
        <time>2025-02-25T10:13:59Z</time>
      </trkpt>
      <trkpt lat="48.09717" lon="-3.6001">
        <ele>140.1</ele>
        <time>2025-02-25T10:14:00Z</time>
      </trkpt>
      <trkpt lat="48.09717" lon="-3.60009">
        <ele>140.2</ele>
        <time>2025-02-25T10:14:01Z</time>
      </trkpt>
      <trkpt lat="48.09717" lon="-3.60007">
        <ele>140.3</ele>
        <time>2025-02-25T10:14:02Z</time>
      </trkpt>
      <trkpt lat="48.09718" lon="-3.60005">
        <ele>140.2</ele>
        <time>2025-02-25T10:14:03Z</time>
      </trkpt>
      <trkpt lat="48.09718" lon="-3.60005">
        <ele>140.2</ele>
        <time>2025-02-25T10:14:04Z</time>
      </trkpt>
      <trkpt lat="48.09719" lon="-3.60004">
        <ele>140.2</ele>
        <time>2025-02-25T10:14:05Z</time>
      </trkpt>
      <trkpt lat="48.09719" lon="-3.60002">
        <ele>140.3</ele>
        <time>2025-02-25T10:14:06Z</time>
      </trkpt>
      <trkpt lat="48.09719" lon="-3.60001">
        <ele>140.3</ele>
        <time>2025-02-25T10:14:07Z</time>
      </trkpt>
      <trkpt lat="48.0972" lon="-3.6">
        <ele>140.2</ele>
        <time>2025-02-25T10:14:08Z</time>
      </trkpt>
      <trkpt lat="48.09721" lon="-3.59999">
        <ele>140.2</ele>
        <time>2025-02-25T10:14:09Z</time>
      </trkpt>
      <trkpt lat="48.09722" lon="-3.59998">
        <ele>140.1</ele>
        <time>2025-02-25T10:14:10Z</time>
      </trkpt>
      <trkpt lat="48.09722" lon="-3.59996">
        <ele>140.2</ele>
        <time>2025-02-25T10:14:11Z</time>
      </trkpt>
      <trkpt lat="48.09722" lon="-3.59994">
        <ele>140.2</ele>
        <time>2025-02-25T10:14:12Z</time>
      </trkpt>
      <trkpt lat="48.09722" lon="-3.59993">
        <ele>140.3</ele>
        <time>2025-02-25T10:14:13Z</time>
      </trkpt>
      <trkpt lat="48.09723" lon="-3.59992">
        <ele>140.4</ele>
        <time>2025-02-25T10:14:14Z</time>
      </trkpt>
      <trkpt lat="48.09724" lon="-3.59991">
        <ele>140.7</ele>
        <time>2025-02-25T10:14:15Z</time>
      </trkpt>
      <trkpt lat="48.09724" lon="-3.5999">
        <ele>140.7</ele>
        <time>2025-02-25T10:14:16Z</time>
      </trkpt>
      <trkpt lat="48.09725" lon="-3.59988">
        <ele>141</ele>
        <time>2025-02-25T10:14:17Z</time>
      </trkpt>
      <trkpt lat="48.09725" lon="-3.59987">
        <ele>141</ele>
        <time>2025-02-25T10:14:18Z</time>
      </trkpt>
      <trkpt lat="48.09725" lon="-3.59984">
        <ele>141.1</ele>
        <time>2025-02-25T10:14:19Z</time>
      </trkpt>
      <trkpt lat="48.09725" lon="-3.59982">
        <ele>141.2</ele>
        <time>2025-02-25T10:14:20Z</time>
      </trkpt>
      <trkpt lat="48.09724" lon="-3.59982">
        <ele>141</ele>
        <time>2025-02-25T10:14:21Z</time>
      </trkpt>
      <trkpt lat="48.09724" lon="-3.59982">
        <ele>141</ele>
        <time>2025-02-25T10:14:22Z</time>
      </trkpt>
      <trkpt lat="48.09724" lon="-3.59982">
        <ele>141</ele>
        <time>2025-02-25T10:14:23Z</time>
      </trkpt>
      <trkpt lat="48.09724" lon="-3.59982">
        <ele>141</ele>
        <time>2025-02-25T10:14:24Z</time>
      </trkpt>
      <trkpt lat="48.09724" lon="-3.59982">
        <ele>141</ele>
        <time>2025-02-25T10:14:25Z</time>
      </trkpt>
      <trkpt lat="48.09724" lon="-3.59981">
        <ele>141</ele>
        <time>2025-02-25T10:14:26Z</time>
      </trkpt>
      <trkpt lat="48.09724" lon="-3.5998">
        <ele>141.1</ele>
        <time>2025-02-25T10:14:27Z</time>
      </trkpt>
      <trkpt lat="48.09724" lon="-3.59978">
        <ele>141.1</ele>
        <time>2025-02-25T10:14:28Z</time>
      </trkpt>
      <trkpt lat="48.09723" lon="-3.59977">
        <ele>141</ele>
        <time>2025-02-25T10:14:29Z</time>
      </trkpt>
      <trkpt lat="48.09723" lon="-3.59975">
        <ele>141</ele>
        <time>2025-02-25T10:14:30Z</time>
      </trkpt>
      <trkpt lat="48.09723" lon="-3.59973">
        <ele>141.1</ele>
        <time>2025-02-25T10:14:31Z</time>
      </trkpt>
      <trkpt lat="48.09722" lon="-3.59972">
        <ele>141</ele>
        <time>2025-02-25T10:14:32Z</time>
      </trkpt>
      <trkpt lat="48.09722" lon="-3.5997">
        <ele>141.1</ele>
        <time>2025-02-25T10:14:33Z</time>
      </trkpt>
      <trkpt lat="48.09722" lon="-3.59969">
        <ele>141.1</ele>
        <time>2025-02-25T10:14:34Z</time>
      </trkpt>
      <trkpt lat="48.09722" lon="-3.59967">
        <ele>141.2</ele>
        <time>2025-02-25T10:14:35Z</time>
      </trkpt>
      <trkpt lat="48.09722" lon="-3.59966">
        <ele>141.2</ele>
        <time>2025-02-25T10:14:36Z</time>
      </trkpt>
      <trkpt lat="48.09722" lon="-3.59963">
        <ele>141.4</ele>
        <time>2025-02-25T10:14:37Z</time>
      </trkpt>
      <trkpt lat="48.09722" lon="-3.59962">
        <ele>141.4</ele>
        <time>2025-02-25T10:14:38Z</time>
      </trkpt>
      <trkpt lat="48.09723" lon="-3.59959">
        <ele>141.6</ele>
        <time>2025-02-25T10:14:39Z</time>
      </trkpt>
      <trkpt lat="48.09723" lon="-3.59957">
        <ele>141.7</ele>
        <time>2025-02-25T10:14:40Z</time>
      </trkpt>
      <trkpt lat="48.09723" lon="-3.59956">
        <ele>141.7</ele>
        <time>2025-02-25T10:14:41Z</time>
      </trkpt>
      <trkpt lat="48.09723" lon="-3.59954">
        <ele>141.8</ele>
        <time>2025-02-25T10:14:42Z</time>
      </trkpt>
      <trkpt lat="48.09723" lon="-3.59953">
        <ele>141.8</ele>
        <time>2025-02-25T10:14:43Z</time>
      </trkpt>
      <trkpt lat="48.09723" lon="-3.59951">
        <ele>141.9</ele>
        <time>2025-02-25T10:14:44Z</time>
      </trkpt>
      <trkpt lat="48.09723" lon="-3.5995">
        <ele>141.9</ele>
        <time>2025-02-25T10:14:45Z</time>
      </trkpt>
      <trkpt lat="48.09723" lon="-3.59949">
        <ele>142</ele>
        <time>2025-02-25T10:14:46Z</time>
      </trkpt>
      <trkpt lat="48.09723" lon="-3.59947">
        <ele>142</ele>
        <time>2025-02-25T10:14:47Z</time>
      </trkpt>
      <trkpt lat="48.09723" lon="-3.59946">
        <ele>142.1</ele>
        <time>2025-02-25T10:14:48Z</time>
      </trkpt>
      <trkpt lat="48.09723" lon="-3.59945">
        <ele>142.1</ele>
        <time>2025-02-25T10:14:49Z</time>
      </trkpt>
      <trkpt lat="48.09722" lon="-3.59944">
        <ele>142</ele>
        <time>2025-02-25T10:14:50Z</time>
      </trkpt>
      <trkpt lat="48.09722" lon="-3.59942">
        <ele>142.1</ele>
        <time>2025-02-25T10:14:51Z</time>
      </trkpt>
      <trkpt lat="48.09721" lon="-3.59941">
        <ele>142.3</ele>
        <time>2025-02-25T10:14:52Z</time>
      </trkpt>
      <trkpt lat="48.09721" lon="-3.59938">
        <ele>142.4</ele>
        <time>2025-02-25T10:14:53Z</time>
      </trkpt>
      <trkpt lat="48.09721" lon="-3.59937">
        <ele>142.4</ele>
        <time>2025-02-25T10:14:54Z</time>
      </trkpt>
      <trkpt lat="48.09721" lon="-3.59936">
        <ele>142.4</ele>
        <time>2025-02-25T10:14:55Z</time>
      </trkpt>
      <trkpt lat="48.09721" lon="-3.59934">
        <ele>142.5</ele>
        <time>2025-02-25T10:14:56Z</time>
      </trkpt>
      <trkpt lat="48.0972" lon="-3.59933">
        <ele>142.6</ele>
        <time>2025-02-25T10:14:57Z</time>
      </trkpt>
      <trkpt lat="48.0972" lon="-3.59932">
        <ele>142.7</ele>
        <time>2025-02-25T10:14:58Z</time>
      </trkpt>
      <trkpt lat="48.0972" lon="-3.59931">
        <ele>142.7</ele>
        <time>2025-02-25T10:14:59Z</time>
      </trkpt>
      <trkpt lat="48.09719" lon="-3.59929">
        <ele>142.8</ele>
        <time>2025-02-25T10:15:00Z</time>
      </trkpt>
      <trkpt lat="48.09719" lon="-3.59928">
        <ele>142.9</ele>
        <time>2025-02-25T10:15:01Z</time>
      </trkpt>
      <trkpt lat="48.09719" lon="-3.59927">
        <ele>142.9</ele>
        <time>2025-02-25T10:15:02Z</time>
      </trkpt>
      <trkpt lat="48.0972" lon="-3.59926">
        <ele>142.9</ele>
        <time>2025-02-25T10:15:03Z</time>
      </trkpt>
      <trkpt lat="48.09721" lon="-3.59924">
        <ele>142.8</ele>
        <time>2025-02-25T10:15:04Z</time>
      </trkpt>
      <trkpt lat="48.09721" lon="-3.59923">
        <ele>142.9</ele>
        <time>2025-02-25T10:15:05Z</time>
      </trkpt>
      <trkpt lat="48.09722" lon="-3.59921">
        <ele>142.9</ele>
        <time>2025-02-25T10:15:06Z</time>
      </trkpt>
      <trkpt lat="48.09722" lon="-3.5992">
        <ele>142.9</ele>
        <time>2025-02-25T10:15:07Z</time>
      </trkpt>
      <trkpt lat="48.09723" lon="-3.5992">
        <ele>143</ele>
        <time>2025-02-25T10:15:08Z</time>
      </trkpt>
      <trkpt lat="48.09723" lon="-3.59919">
        <ele>143.1</ele>
        <time>2025-02-25T10:15:09Z</time>
      </trkpt>
      <trkpt lat="48.09724" lon="-3.59919">
        <ele>143.2</ele>
        <time>2025-02-25T10:15:10Z</time>
      </trkpt>
      <trkpt lat="48.09725" lon="-3.59918">
        <ele>143.5</ele>
        <time>2025-02-25T10:15:11Z</time>
      </trkpt>
      <trkpt lat="48.09726" lon="-3.59917">
        <ele>143.7</ele>
        <time>2025-02-25T10:15:12Z</time>
      </trkpt>
      <trkpt lat="48.09727" lon="-3.59917">
        <ele>143.8</ele>
        <time>2025-02-25T10:15:13Z</time>
      </trkpt>
      <trkpt lat="48.09727" lon="-3.59915">
        <ele>143.9</ele>
        <time>2025-02-25T10:15:14Z</time>
      </trkpt>
      <trkpt lat="48.09728" lon="-3.59915">
        <ele>144.1</ele>
        <time>2025-02-25T10:15:15Z</time>
      </trkpt>
      <trkpt lat="48.09728" lon="-3.59914">
        <ele>144.1</ele>
        <time>2025-02-25T10:15:16Z</time>
      </trkpt>
      <trkpt lat="48.09729" lon="-3.59913">
        <ele>144.4</ele>
        <time>2025-02-25T10:15:17Z</time>
      </trkpt>
      <trkpt lat="48.09729" lon="-3.59912">
        <ele>144.4</ele>
        <time>2025-02-25T10:15:18Z</time>
      </trkpt>
      <trkpt lat="48.09728" lon="-3.5991">
        <ele>144.3</ele>
        <time>2025-02-25T10:15:19Z</time>
      </trkpt>
      <trkpt lat="48.09727" lon="-3.59909">
        <ele>144.1</ele>
        <time>2025-02-25T10:15:20Z</time>
      </trkpt>
      <trkpt lat="48.09727" lon="-3.59907">
        <ele>144.2</ele>
        <time>2025-02-25T10:15:21Z</time>
      </trkpt>
      <trkpt lat="48.09727" lon="-3.59905">
        <ele>144.3</ele>
        <time>2025-02-25T10:15:22Z</time>
      </trkpt>
      <trkpt lat="48.09726" lon="-3.59904">
        <ele>144.1</ele>
        <time>2025-02-25T10:15:23Z</time>
      </trkpt>
      <trkpt lat="48.09726" lon="-3.59903">
        <ele>144.2</ele>
        <time>2025-02-25T10:15:24Z</time>
      </trkpt>
      <trkpt lat="48.09726" lon="-3.599">
        <ele>144.3</ele>
        <time>2025-02-25T10:15:25Z</time>
      </trkpt>
      <trkpt lat="48.09726" lon="-3.59899">
        <ele>144.3</ele>
        <time>2025-02-25T10:15:26Z</time>
      </trkpt>
      <trkpt lat="48.09726" lon="-3.59898">
        <ele>144.4</ele>
        <time>2025-02-25T10:15:27Z</time>
      </trkpt>
      <trkpt lat="48.09727" lon="-3.59897">
        <ele>144.6</ele>
        <time>2025-02-25T10:15:28Z</time>
      </trkpt>
      <trkpt lat="48.09728" lon="-3.59896">
        <ele>144.8</ele>
        <time>2025-02-25T10:15:29Z</time>
      </trkpt>
      <trkpt lat="48.09728" lon="-3.59895">
        <ele>144.8</ele>
        <time>2025-02-25T10:15:30Z</time>
      </trkpt>
      <trkpt lat="48.09728" lon="-3.59894">
        <ele>144.9</ele>
        <time>2025-02-25T10:15:31Z</time>
      </trkpt>
      <trkpt lat="48.09728" lon="-3.59893">
        <ele>144.9</ele>
        <time>2025-02-25T10:15:32Z</time>
      </trkpt>
      <trkpt lat="48.09727" lon="-3.59892">
        <ele>144.7</ele>
        <time>2025-02-25T10:15:33Z</time>
      </trkpt>
      <trkpt lat="48.09727" lon="-3.59891">
        <ele>144.8</ele>
        <time>2025-02-25T10:15:34Z</time>
      </trkpt>
      <trkpt lat="48.09727" lon="-3.5989">
        <ele>144.8</ele>
        <time>2025-02-25T10:15:35Z</time>
      </trkpt>
      <trkpt lat="48.09727" lon="-3.59888">
        <ele>144.9</ele>
        <time>2025-02-25T10:15:36Z</time>
      </trkpt>
      <trkpt lat="48.09728" lon="-3.59889">
        <ele>145</ele>
        <time>2025-02-25T10:15:37Z</time>
      </trkpt>
      <trkpt lat="48.09728" lon="-3.59889">
        <ele>145</ele>
        <time>2025-02-25T10:15:38Z</time>
      </trkpt>
      <trkpt lat="48.09728" lon="-3.5989">
        <ele>145</ele>
        <time>2025-02-25T10:15:39Z</time>
      </trkpt>
      <trkpt lat="48.0973" lon="-3.59889">
        <ele>145.4</ele>
        <time>2025-02-25T10:15:40Z</time>
      </trkpt>
      <trkpt lat="48.0973" lon="-3.59887">
        <ele>145.5</ele>
        <time>2025-02-25T10:15:41Z</time>
      </trkpt>
      <trkpt lat="48.09731" lon="-3.59886">
        <ele>145.7</ele>
        <time>2025-02-25T10:15:42Z</time>
      </trkpt>
      <trkpt lat="48.09732" lon="-3.59885">
        <ele>145.9</ele>
        <time>2025-02-25T10:15:43Z</time>
      </trkpt>
      <trkpt lat="48.09732" lon="-3.59884">
        <ele>145.9</ele>
        <time>2025-02-25T10:15:44Z</time>
      </trkpt>
      <trkpt lat="48.09731" lon="-3.59881">
        <ele>145.9</ele>
        <time>2025-02-25T10:15:45Z</time>
      </trkpt>
      <trkpt lat="48.0973" lon="-3.59879">
        <ele>145.8</ele>
        <time>2025-02-25T10:15:46Z</time>
      </trkpt>
      <trkpt lat="48.09729" lon="-3.59877">
        <ele>145.6</ele>
        <time>2025-02-25T10:15:47Z</time>
      </trkpt>
      <trkpt lat="48.09729" lon="-3.59875">
        <ele>145.7</ele>
        <time>2025-02-25T10:15:48Z</time>
      </trkpt>
      <trkpt lat="48.09728" lon="-3.59874">
        <ele>145.6</ele>
        <time>2025-02-25T10:15:49Z</time>
      </trkpt>
      <trkpt lat="48.09728" lon="-3.59872">
        <ele>145.6</ele>
        <time>2025-02-25T10:15:50Z</time>
      </trkpt>
      <trkpt lat="48.09728" lon="-3.59871">
        <ele>145.7</ele>
        <time>2025-02-25T10:15:51Z</time>
      </trkpt>
      <trkpt lat="48.09727" lon="-3.5987">
        <ele>145.5</ele>
        <time>2025-02-25T10:15:52Z</time>
      </trkpt>
      <trkpt lat="48.09727" lon="-3.59869">
        <ele>145.6</ele>
        <time>2025-02-25T10:15:53Z</time>
      </trkpt>
      <trkpt lat="48.09727" lon="-3.59868">
        <ele>145.6</ele>
        <time>2025-02-25T10:15:54Z</time>
      </trkpt>
      <trkpt lat="48.09727" lon="-3.59866">
        <ele>145.7</ele>
        <time>2025-02-25T10:15:55Z</time>
      </trkpt>
      <trkpt lat="48.09727" lon="-3.59865">
        <ele>145.7</ele>
        <time>2025-02-25T10:15:56Z</time>
      </trkpt>
      <trkpt lat="48.09728" lon="-3.59864">
        <ele>145.9</ele>
        <time>2025-02-25T10:15:57Z</time>
      </trkpt>
      <trkpt lat="48.09727" lon="-3.59862">
        <ele>145.8</ele>
        <time>2025-02-25T10:15:58Z</time>
      </trkpt>
      <trkpt lat="48.09727" lon="-3.59862">
        <ele>145.8</ele>
        <time>2025-02-25T10:15:59Z</time>
      </trkpt>
      <trkpt lat="48.09727" lon="-3.5986">
        <ele>145.9</ele>
        <time>2025-02-25T10:16:00Z</time>
      </trkpt>
      <trkpt lat="48.09727" lon="-3.59859">
        <ele>145.9</ele>
        <time>2025-02-25T10:16:01Z</time>
      </trkpt>
      <trkpt lat="48.09727" lon="-3.59858">
        <ele>146</ele>
        <time>2025-02-25T10:16:02Z</time>
      </trkpt>
      <trkpt lat="48.09727" lon="-3.59858">
        <ele>146</ele>
        <time>2025-02-25T10:16:03Z</time>
      </trkpt>
      <trkpt lat="48.09727" lon="-3.59857">
        <ele>146</ele>
        <time>2025-02-25T10:16:04Z</time>
      </trkpt>
      <trkpt lat="48.09727" lon="-3.59855">
        <ele>146.1</ele>
        <time>2025-02-25T10:16:05Z</time>
      </trkpt>
      <trkpt lat="48.09726" lon="-3.59854">
        <ele>145.9</ele>
        <time>2025-02-25T10:16:06Z</time>
      </trkpt>
      <trkpt lat="48.09726" lon="-3.59852">
        <ele>146</ele>
        <time>2025-02-25T10:16:07Z</time>
      </trkpt>
      <trkpt lat="48.09726" lon="-3.5985">
        <ele>146.1</ele>
        <time>2025-02-25T10:16:08Z</time>
      </trkpt>
      <trkpt lat="48.09725" lon="-3.59848">
        <ele>146</ele>
        <time>2025-02-25T10:16:09Z</time>
      </trkpt>
      <trkpt lat="48.09725" lon="-3.59847">
        <ele>146</ele>
        <time>2025-02-25T10:16:10Z</time>
      </trkpt>
      <trkpt lat="48.09724" lon="-3.59847">
        <ele>145.8</ele>
        <time>2025-02-25T10:16:11Z</time>
      </trkpt>
      <trkpt lat="48.09724" lon="-3.59846">
        <ele>145.9</ele>
        <time>2025-02-25T10:16:12Z</time>
      </trkpt>
      <trkpt lat="48.09724" lon="-3.59845">
        <ele>145.9</ele>
        <time>2025-02-25T10:16:13Z</time>
      </trkpt>
      <trkpt lat="48.09724" lon="-3.59845">
        <ele>145.9</ele>
        <time>2025-02-25T10:16:14Z</time>
      </trkpt>
      <trkpt lat="48.09724" lon="-3.59846">
        <ele>145.9</ele>
        <time>2025-02-25T10:16:15Z</time>
      </trkpt>
      <trkpt lat="48.09724" lon="-3.59846">
        <ele>145.9</ele>
        <time>2025-02-25T10:16:16Z</time>
      </trkpt>
      <trkpt lat="48.09724" lon="-3.59846">
        <ele>145.9</ele>
        <time>2025-02-25T10:16:17Z</time>
      </trkpt>
      <trkpt lat="48.09724" lon="-3.59845">
        <ele>145.9</ele>
        <time>2025-02-25T10:16:18Z</time>
      </trkpt>
      <trkpt lat="48.09721" lon="-3.59844">
        <ele>145.7</ele>
        <time>2025-02-25T10:16:19Z</time>
      </trkpt>
      <trkpt lat="48.0972" lon="-3.5984">
        <ele>145.9</ele>
        <time>2025-02-25T10:16:20Z</time>
      </trkpt>
      <trkpt lat="48.0972" lon="-3.59838">
        <ele>145.9</ele>
        <time>2025-02-25T10:16:21Z</time>
      </trkpt>
      <trkpt lat="48.0972" lon="-3.59837">
        <ele>146</ele>
        <time>2025-02-25T10:16:22Z</time>
      </trkpt>
      <trkpt lat="48.0972" lon="-3.59836">
        <ele>146</ele>
        <time>2025-02-25T10:16:23Z</time>
      </trkpt>
      <trkpt lat="48.0972" lon="-3.59835">
        <ele>146</ele>
        <time>2025-02-25T10:16:24Z</time>
      </trkpt>
      <trkpt lat="48.0972" lon="-3.59834">
        <ele>146.1</ele>
        <time>2025-02-25T10:16:25Z</time>
      </trkpt>
      <trkpt lat="48.09719" lon="-3.59833">
        <ele>146.1</ele>
        <time>2025-02-25T10:16:26Z</time>
      </trkpt>
      <trkpt lat="48.0972" lon="-3.59833">
        <ele>146.1</ele>
        <time>2025-02-25T10:16:27Z</time>
      </trkpt>
      <trkpt lat="48.0972" lon="-3.59833">
        <ele>146.1</ele>
        <time>2025-02-25T10:16:28Z</time>
      </trkpt>
      <trkpt lat="48.09721" lon="-3.59832">
        <ele>146.1</ele>
        <time>2025-02-25T10:16:29Z</time>
      </trkpt>
      <trkpt lat="48.09721" lon="-3.5983">
        <ele>146.2</ele>
        <time>2025-02-25T10:16:30Z</time>
      </trkpt>
      <trkpt lat="48.09721" lon="-3.59829">
        <ele>146.2</ele>
        <time>2025-02-25T10:16:31Z</time>
      </trkpt>
      <trkpt lat="48.09721" lon="-3.59828">
        <ele>146.2</ele>
        <time>2025-02-25T10:16:32Z</time>
      </trkpt>
      <trkpt lat="48.09721" lon="-3.59827">
        <ele>146.3</ele>
        <time>2025-02-25T10:16:33Z</time>
      </trkpt>
      <trkpt lat="48.09721" lon="-3.59825">
        <ele>146.3</ele>
        <time>2025-02-25T10:16:34Z</time>
      </trkpt>
      <trkpt lat="48.09721" lon="-3.59824">
        <ele>146.4</ele>
        <time>2025-02-25T10:16:35Z</time>
      </trkpt>
      <trkpt lat="48.09721" lon="-3.59822">
        <ele>146.5</ele>
        <time>2025-02-25T10:16:36Z</time>
      </trkpt>
      <trkpt lat="48.09721" lon="-3.59821">
        <ele>146.5</ele>
        <time>2025-02-25T10:16:37Z</time>
      </trkpt>
      <trkpt lat="48.09721" lon="-3.5982">
        <ele>146.5</ele>
        <time>2025-02-25T10:16:38Z</time>
      </trkpt>
      <trkpt lat="48.09721" lon="-3.59818">
        <ele>146.6</ele>
        <time>2025-02-25T10:16:39Z</time>
      </trkpt>
      <trkpt lat="48.0972" lon="-3.59817">
        <ele>146.7</ele>
        <time>2025-02-25T10:16:40Z</time>
      </trkpt>
      <trkpt lat="48.09719" lon="-3.59815">
        <ele>146.8</ele>
        <time>2025-02-25T10:16:41Z</time>
      </trkpt>
      <trkpt lat="48.09719" lon="-3.59814">
        <ele>146.8</ele>
        <time>2025-02-25T10:16:42Z</time>
      </trkpt>
      <trkpt lat="48.09719" lon="-3.59812">
        <ele>146.9</ele>
        <time>2025-02-25T10:16:43Z</time>
      </trkpt>
      <trkpt lat="48.09719" lon="-3.5981">
        <ele>147</ele>
        <time>2025-02-25T10:16:44Z</time>
      </trkpt>
      <trkpt lat="48.09719" lon="-3.59808">
        <ele>147</ele>
        <time>2025-02-25T10:16:45Z</time>
      </trkpt>
      <trkpt lat="48.09719" lon="-3.59807">
        <ele>147.1</ele>
        <time>2025-02-25T10:16:46Z</time>
      </trkpt>
      <trkpt lat="48.09719" lon="-3.59806">
        <ele>147.1</ele>
        <time>2025-02-25T10:16:47Z</time>
      </trkpt>
      <trkpt lat="48.09718" lon="-3.59805">
        <ele>147.2</ele>
        <time>2025-02-25T10:16:48Z</time>
      </trkpt>
      <trkpt lat="48.09718" lon="-3.59804">
        <ele>147.2</ele>
        <time>2025-02-25T10:16:49Z</time>
      </trkpt>
      <trkpt lat="48.09719" lon="-3.59802">
        <ele>147.2</ele>
        <time>2025-02-25T10:16:50Z</time>
      </trkpt>
      <trkpt lat="48.09719" lon="-3.598">
        <ele>147.3</ele>
        <time>2025-02-25T10:16:51Z</time>
      </trkpt>
      <trkpt lat="48.09718" lon="-3.598">
        <ele>147.4</ele>
        <time>2025-02-25T10:16:52Z</time>
      </trkpt>
      <trkpt lat="48.09718" lon="-3.59799">
        <ele>147.4</ele>
        <time>2025-02-25T10:16:53Z</time>
      </trkpt>
      <trkpt lat="48.09718" lon="-3.59797">
        <ele>147.5</ele>
        <time>2025-02-25T10:16:54Z</time>
      </trkpt>
      <trkpt lat="48.09718" lon="-3.59796">
        <ele>147.5</ele>
        <time>2025-02-25T10:16:55Z</time>
      </trkpt>
      <trkpt lat="48.09718" lon="-3.59795">
        <ele>147.5</ele>
        <time>2025-02-25T10:16:56Z</time>
      </trkpt>
      <trkpt lat="48.09718" lon="-3.59794">
        <ele>147.6</ele>
        <time>2025-02-25T10:16:57Z</time>
      </trkpt>
      <trkpt lat="48.09718" lon="-3.59792">
        <ele>147.6</ele>
        <time>2025-02-25T10:16:58Z</time>
      </trkpt>
      <trkpt lat="48.09718" lon="-3.59791">
        <ele>147.7</ele>
        <time>2025-02-25T10:16:59Z</time>
      </trkpt>
      <trkpt lat="48.09718" lon="-3.59789">
        <ele>147.7</ele>
        <time>2025-02-25T10:17:00Z</time>
      </trkpt>
      <trkpt lat="48.09718" lon="-3.59788">
        <ele>147.8</ele>
        <time>2025-02-25T10:17:01Z</time>
      </trkpt>
      <trkpt lat="48.09717" lon="-3.59787">
        <ele>147.9</ele>
        <time>2025-02-25T10:17:02Z</time>
      </trkpt>
      <trkpt lat="48.09717" lon="-3.59786">
        <ele>147.9</ele>
        <time>2025-02-25T10:17:03Z</time>
      </trkpt>
      <trkpt lat="48.09716" lon="-3.59786">
        <ele>147.9</ele>
        <time>2025-02-25T10:17:04Z</time>
      </trkpt>
      <trkpt lat="48.09715" lon="-3.59785">
        <ele>148</ele>
        <time>2025-02-25T10:17:05Z</time>
      </trkpt>
      <trkpt lat="48.09714" lon="-3.59784">
        <ele>148.1</ele>
        <time>2025-02-25T10:17:06Z</time>
      </trkpt>
      <trkpt lat="48.09714" lon="-3.59783">
        <ele>148.1</ele>
        <time>2025-02-25T10:17:07Z</time>
      </trkpt>
      <trkpt lat="48.09714" lon="-3.59782">
        <ele>148.1</ele>
        <time>2025-02-25T10:17:08Z</time>
      </trkpt>
      <trkpt lat="48.09714" lon="-3.59781">
        <ele>148.2</ele>
        <time>2025-02-25T10:17:09Z</time>
      </trkpt>
      <trkpt lat="48.09714" lon="-3.59779">
        <ele>148.3</ele>
        <time>2025-02-25T10:17:10Z</time>
      </trkpt>
      <trkpt lat="48.09713" lon="-3.59778">
        <ele>148.3</ele>
        <time>2025-02-25T10:17:11Z</time>
      </trkpt>
      <trkpt lat="48.09713" lon="-3.59777">
        <ele>148.4</ele>
        <time>2025-02-25T10:17:12Z</time>
      </trkpt>
      <trkpt lat="48.09713" lon="-3.59776">
        <ele>148.4</ele>
        <time>2025-02-25T10:17:13Z</time>
      </trkpt>
      <trkpt lat="48.09713" lon="-3.59774">
        <ele>148.4</ele>
        <time>2025-02-25T10:17:14Z</time>
      </trkpt>
      <trkpt lat="48.09713" lon="-3.59774">
        <ele>148.4</ele>
        <time>2025-02-25T10:17:15Z</time>
      </trkpt>
      <trkpt lat="48.09712" lon="-3.59773">
        <ele>148.5</ele>
        <time>2025-02-25T10:17:16Z</time>
      </trkpt>
      <trkpt lat="48.09713" lon="-3.59771">
        <ele>148.5</ele>
        <time>2025-02-25T10:17:17Z</time>
      </trkpt>
      <trkpt lat="48.09712" lon="-3.5977">
        <ele>148.5</ele>
        <time>2025-02-25T10:17:18Z</time>
      </trkpt>
      <trkpt lat="48.09712" lon="-3.59768">
        <ele>148.6</ele>
        <time>2025-02-25T10:17:19Z</time>
      </trkpt>
      <trkpt lat="48.09711" lon="-3.59766">
        <ele>148.7</ele>
        <time>2025-02-25T10:17:20Z</time>
      </trkpt>
      <trkpt lat="48.09711" lon="-3.59765">
        <ele>148.7</ele>
        <time>2025-02-25T10:17:21Z</time>
      </trkpt>
      <trkpt lat="48.0971" lon="-3.59764">
        <ele>148.7</ele>
        <time>2025-02-25T10:17:22Z</time>
      </trkpt>
      <trkpt lat="48.0971" lon="-3.59763">
        <ele>148.7</ele>
        <time>2025-02-25T10:17:23Z</time>
      </trkpt>
      <trkpt lat="48.0971" lon="-3.59763">
        <ele>148.7</ele>
        <time>2025-02-25T10:17:24Z</time>
      </trkpt>
      <trkpt lat="48.0971" lon="-3.59762">
        <ele>148.8</ele>
        <time>2025-02-25T10:17:25Z</time>
      </trkpt>
      <trkpt lat="48.0971" lon="-3.5976">
        <ele>148.8</ele>
        <time>2025-02-25T10:17:26Z</time>
      </trkpt>
      <trkpt lat="48.09709" lon="-3.59759">
        <ele>148.8</ele>
        <time>2025-02-25T10:17:27Z</time>
      </trkpt>
      <trkpt lat="48.09709" lon="-3.59758">
        <ele>148.8</ele>
        <time>2025-02-25T10:17:28Z</time>
      </trkpt>
      <trkpt lat="48.09708" lon="-3.59756">
        <ele>148.9</ele>
        <time>2025-02-25T10:17:29Z</time>
      </trkpt>
      <trkpt lat="48.09708" lon="-3.59754">
        <ele>148.9</ele>
        <time>2025-02-25T10:17:30Z</time>
      </trkpt>
      <trkpt lat="48.09707" lon="-3.59751">
        <ele>149</ele>
        <time>2025-02-25T10:17:31Z</time>
      </trkpt>
      <trkpt lat="48.09706" lon="-3.59749">
        <ele>149</ele>
        <time>2025-02-25T10:17:32Z</time>
      </trkpt>
      <trkpt lat="48.09706" lon="-3.59749">
        <ele>149</ele>
        <time>2025-02-25T10:17:33Z</time>
      </trkpt>
      <trkpt lat="48.09706" lon="-3.59748">
        <ele>149.1</ele>
        <time>2025-02-25T10:17:34Z</time>
      </trkpt>
      <trkpt lat="48.09706" lon="-3.59747">
        <ele>149.1</ele>
        <time>2025-02-25T10:17:35Z</time>
      </trkpt>
      <trkpt lat="48.09705" lon="-3.59746">
        <ele>149.1</ele>
        <time>2025-02-25T10:17:36Z</time>
      </trkpt>
      <trkpt lat="48.09705" lon="-3.59745">
        <ele>149.1</ele>
        <time>2025-02-25T10:17:37Z</time>
      </trkpt>
      <trkpt lat="48.09705" lon="-3.59744">
        <ele>149.2</ele>
        <time>2025-02-25T10:17:38Z</time>
      </trkpt>
      <trkpt lat="48.09705" lon="-3.59743">
        <ele>149.2</ele>
        <time>2025-02-25T10:17:39Z</time>
      </trkpt>
      <trkpt lat="48.09704" lon="-3.59742">
        <ele>149.2</ele>
        <time>2025-02-25T10:17:40Z</time>
      </trkpt>
      <trkpt lat="48.09704" lon="-3.5974">
        <ele>149.2</ele>
        <time>2025-02-25T10:17:41Z</time>
      </trkpt>
      <trkpt lat="48.09704" lon="-3.5974">
        <ele>149.2</ele>
        <time>2025-02-25T10:17:42Z</time>
      </trkpt>
      <trkpt lat="48.09704" lon="-3.59739">
        <ele>149.3</ele>
        <time>2025-02-25T10:17:43Z</time>
      </trkpt>
      <trkpt lat="48.09704" lon="-3.59737">
        <ele>149.3</ele>
        <time>2025-02-25T10:17:44Z</time>
      </trkpt>
      <trkpt lat="48.09704" lon="-3.59736">
        <ele>149.3</ele>
        <time>2025-02-25T10:17:45Z</time>
      </trkpt>
      <trkpt lat="48.09704" lon="-3.59735">
        <ele>149.4</ele>
        <time>2025-02-25T10:17:46Z</time>
      </trkpt>
      <trkpt lat="48.09704" lon="-3.59734">
        <ele>149.4</ele>
        <time>2025-02-25T10:17:47Z</time>
      </trkpt>
      <trkpt lat="48.09703" lon="-3.59733">
        <ele>149.4</ele>
        <time>2025-02-25T10:17:48Z</time>
      </trkpt>
      <trkpt lat="48.09703" lon="-3.59732">
        <ele>149.4</ele>
        <time>2025-02-25T10:17:49Z</time>
      </trkpt>
      <trkpt lat="48.09704" lon="-3.59731">
        <ele>149.5</ele>
        <time>2025-02-25T10:17:50Z</time>
      </trkpt>
      <trkpt lat="48.09704" lon="-3.5973">
        <ele>149.5</ele>
        <time>2025-02-25T10:17:51Z</time>
      </trkpt>
      <trkpt lat="48.09704" lon="-3.59728">
        <ele>149.5</ele>
        <time>2025-02-25T10:17:52Z</time>
      </trkpt>
      <trkpt lat="48.09703" lon="-3.59727">
        <ele>149.5</ele>
        <time>2025-02-25T10:17:53Z</time>
      </trkpt>
      <trkpt lat="48.09703" lon="-3.59726">
        <ele>149.5</ele>
        <time>2025-02-25T10:17:54Z</time>
      </trkpt>
      <trkpt lat="48.09703" lon="-3.59725">
        <ele>149.6</ele>
        <time>2025-02-25T10:17:55Z</time>
      </trkpt>
      <trkpt lat="48.09702" lon="-3.59724">
        <ele>149.5</ele>
        <time>2025-02-25T10:17:56Z</time>
      </trkpt>
      <trkpt lat="48.09703" lon="-3.59723">
        <ele>149.6</ele>
        <time>2025-02-25T10:17:57Z</time>
      </trkpt>
      <trkpt lat="48.09703" lon="-3.59722">
        <ele>149.6</ele>
        <time>2025-02-25T10:17:58Z</time>
      </trkpt>
      <trkpt lat="48.09703" lon="-3.59722">
        <ele>149.6</ele>
        <time>2025-02-25T10:17:59Z</time>
      </trkpt>
      <trkpt lat="48.09703" lon="-3.5972">
        <ele>149.7</ele>
        <time>2025-02-25T10:18:00Z</time>
      </trkpt>
      <trkpt lat="48.09702" lon="-3.5972">
        <ele>149.6</ele>
        <time>2025-02-25T10:18:01Z</time>
      </trkpt>
      <trkpt lat="48.09702" lon="-3.59719">
        <ele>149.7</ele>
        <time>2025-02-25T10:18:02Z</time>
      </trkpt>
      <trkpt lat="48.09702" lon="-3.59718">
        <ele>149.7</ele>
        <time>2025-02-25T10:18:03Z</time>
      </trkpt>
      <trkpt lat="48.09702" lon="-3.59717">
        <ele>149.7</ele>
        <time>2025-02-25T10:18:04Z</time>
      </trkpt>
      <trkpt lat="48.09702" lon="-3.59715">
        <ele>149.8</ele>
        <time>2025-02-25T10:18:05Z</time>
      </trkpt>
      <trkpt lat="48.09701" lon="-3.59714">
        <ele>149.8</ele>
        <time>2025-02-25T10:18:06Z</time>
      </trkpt>
      <trkpt lat="48.09702" lon="-3.59713">
        <ele>149.9</ele>
        <time>2025-02-25T10:18:07Z</time>
      </trkpt>
      <trkpt lat="48.09701" lon="-3.59713">
        <ele>149.8</ele>
        <time>2025-02-25T10:18:08Z</time>
      </trkpt>
      <trkpt lat="48.09701" lon="-3.59711">
        <ele>149.9</ele>
        <time>2025-02-25T10:18:09Z</time>
      </trkpt>
      <trkpt lat="48.09701" lon="-3.59708">
        <ele>150</ele>
        <time>2025-02-25T10:18:10Z</time>
      </trkpt>
      <trkpt lat="48.09701" lon="-3.59707">
        <ele>150</ele>
        <time>2025-02-25T10:18:11Z</time>
      </trkpt>
      <trkpt lat="48.09702" lon="-3.59706">
        <ele>150.1</ele>
        <time>2025-02-25T10:18:12Z</time>
      </trkpt>
      <trkpt lat="48.09702" lon="-3.59705">
        <ele>150.2</ele>
        <time>2025-02-25T10:18:13Z</time>
      </trkpt>
      <trkpt lat="48.09701" lon="-3.59704">
        <ele>150.1</ele>
        <time>2025-02-25T10:18:14Z</time>
      </trkpt>
      <trkpt lat="48.09701" lon="-3.59703">
        <ele>150.2</ele>
        <time>2025-02-25T10:18:15Z</time>
      </trkpt>
      <trkpt lat="48.097" lon="-3.59702">
        <ele>150.1</ele>
        <time>2025-02-25T10:18:16Z</time>
      </trkpt>
      <trkpt lat="48.097" lon="-3.597">
        <ele>150.2</ele>
        <time>2025-02-25T10:18:17Z</time>
      </trkpt>
      <trkpt lat="48.09701" lon="-3.59702">
        <ele>150.2</ele>
        <time>2025-02-25T10:18:18Z</time>
      </trkpt>
      <trkpt lat="48.09701" lon="-3.59701">
        <ele>150.2</ele>
        <time>2025-02-25T10:18:19Z</time>
      </trkpt>
      <trkpt lat="48.09701" lon="-3.597">
        <ele>150.3</ele>
        <time>2025-02-25T10:18:20Z</time>
      </trkpt>
      <trkpt lat="48.097" lon="-3.59698">
        <ele>150.3</ele>
        <time>2025-02-25T10:18:21Z</time>
      </trkpt>
      <trkpt lat="48.097" lon="-3.59696">
        <ele>150.3</ele>
        <time>2025-02-25T10:18:22Z</time>
      </trkpt>
      <trkpt lat="48.097" lon="-3.59695">
        <ele>150.4</ele>
        <time>2025-02-25T10:18:23Z</time>
      </trkpt>
      <trkpt lat="48.097" lon="-3.59693">
        <ele>150.5</ele>
        <time>2025-02-25T10:18:24Z</time>
      </trkpt>
      <trkpt lat="48.09701" lon="-3.59691">
        <ele>150.6</ele>
        <time>2025-02-25T10:18:25Z</time>
      </trkpt>
      <trkpt lat="48.09701" lon="-3.59689">
        <ele>150.7</ele>
        <time>2025-02-25T10:18:26Z</time>
      </trkpt>
      <trkpt lat="48.09701" lon="-3.59688">
        <ele>150.7</ele>
        <time>2025-02-25T10:18:27Z</time>
      </trkpt>
      <trkpt lat="48.097" lon="-3.59686">
        <ele>150.7</ele>
        <time>2025-02-25T10:18:28Z</time>
      </trkpt>
      <trkpt lat="48.097" lon="-3.59685">
        <ele>150.7</ele>
        <time>2025-02-25T10:18:29Z</time>
      </trkpt>
      <trkpt lat="48.09699" lon="-3.59683">
        <ele>150.7</ele>
        <time>2025-02-25T10:18:30Z</time>
      </trkpt>
      <trkpt lat="48.097" lon="-3.59682">
        <ele>150.8</ele>
        <time>2025-02-25T10:18:31Z</time>
      </trkpt>
      <trkpt lat="48.097" lon="-3.59682">
        <ele>150.8</ele>
        <time>2025-02-25T10:18:32Z</time>
      </trkpt>
      <trkpt lat="48.09699" lon="-3.59681">
        <ele>150.8</ele>
        <time>2025-02-25T10:18:33Z</time>
      </trkpt>
      <trkpt lat="48.09699" lon="-3.59679">
        <ele>150.9</ele>
        <time>2025-02-25T10:18:34Z</time>
      </trkpt>
      <trkpt lat="48.097" lon="-3.59678">
        <ele>151</ele>
        <time>2025-02-25T10:18:35Z</time>
      </trkpt>
      <trkpt lat="48.097" lon="-3.59677">
        <ele>151</ele>
        <time>2025-02-25T10:18:36Z</time>
      </trkpt>
      <trkpt lat="48.097" lon="-3.59675">
        <ele>151.1</ele>
        <time>2025-02-25T10:18:37Z</time>
      </trkpt>
      <trkpt lat="48.097" lon="-3.59673">
        <ele>151.2</ele>
        <time>2025-02-25T10:18:38Z</time>
      </trkpt>
      <trkpt lat="48.09701" lon="-3.59672">
        <ele>151.3</ele>
        <time>2025-02-25T10:18:39Z</time>
      </trkpt>
      <trkpt lat="48.097" lon="-3.59671">
        <ele>151.2</ele>
        <time>2025-02-25T10:18:40Z</time>
      </trkpt>
      <trkpt lat="48.09701" lon="-3.59669">
        <ele>151.4</ele>
        <time>2025-02-25T10:18:41Z</time>
      </trkpt>
      <trkpt lat="48.09701" lon="-3.59668">
        <ele>151.4</ele>
        <time>2025-02-25T10:18:42Z</time>
      </trkpt>
      <trkpt lat="48.09702" lon="-3.59666">
        <ele>151.6</ele>
        <time>2025-02-25T10:18:43Z</time>
      </trkpt>
      <trkpt lat="48.09702" lon="-3.59664">
        <ele>151.6</ele>
        <time>2025-02-25T10:18:44Z</time>
      </trkpt>
      <trkpt lat="48.09702" lon="-3.59663">
        <ele>151.7</ele>
        <time>2025-02-25T10:18:45Z</time>
      </trkpt>
      <trkpt lat="48.09703" lon="-3.59661">
        <ele>151.8</ele>
        <time>2025-02-25T10:18:46Z</time>
      </trkpt>
      <trkpt lat="48.09703" lon="-3.59661">
        <ele>151.8</ele>
        <time>2025-02-25T10:18:47Z</time>
      </trkpt>
      <trkpt lat="48.09704" lon="-3.5966">
        <ele>151.9</ele>
        <time>2025-02-25T10:18:48Z</time>
      </trkpt>
      <trkpt lat="48.09704" lon="-3.59659">
        <ele>152</ele>
        <time>2025-02-25T10:18:49Z</time>
      </trkpt>
      <trkpt lat="48.09704" lon="-3.59657">
        <ele>152</ele>
        <time>2025-02-25T10:18:50Z</time>
      </trkpt>
      <trkpt lat="48.09704" lon="-3.59656">
        <ele>152.1</ele>
        <time>2025-02-25T10:18:51Z</time>
      </trkpt>
      <trkpt lat="48.09705" lon="-3.59655">
        <ele>152.2</ele>
        <time>2025-02-25T10:18:52Z</time>
      </trkpt>
      <trkpt lat="48.09705" lon="-3.59654">
        <ele>152.2</ele>
        <time>2025-02-25T10:18:53Z</time>
      </trkpt>
      <trkpt lat="48.09706" lon="-3.59653">
        <ele>152.3</ele>
        <time>2025-02-25T10:18:54Z</time>
      </trkpt>
      <trkpt lat="48.09706" lon="-3.59652">
        <ele>152.4</ele>
        <time>2025-02-25T10:18:55Z</time>
      </trkpt>
      <trkpt lat="48.09706" lon="-3.59651">
        <ele>152.4</ele>
        <time>2025-02-25T10:18:56Z</time>
      </trkpt>
      <trkpt lat="48.09707" lon="-3.59649">
        <ele>152.5</ele>
        <time>2025-02-25T10:18:57Z</time>
      </trkpt>
      <trkpt lat="48.09707" lon="-3.59648">
        <ele>152.6</ele>
        <time>2025-02-25T10:18:58Z</time>
      </trkpt>
      <trkpt lat="48.09707" lon="-3.59646">
        <ele>152.6</ele>
        <time>2025-02-25T10:18:59Z</time>
      </trkpt>
      <trkpt lat="48.09707" lon="-3.59645">
        <ele>152.7</ele>
        <time>2025-02-25T10:19:00Z</time>
      </trkpt>
      <trkpt lat="48.09706" lon="-3.59643">
        <ele>152.7</ele>
        <time>2025-02-25T10:19:01Z</time>
      </trkpt>
      <trkpt lat="48.09706" lon="-3.59642">
        <ele>152.7</ele>
        <time>2025-02-25T10:19:02Z</time>
      </trkpt>
      <trkpt lat="48.09706" lon="-3.5964">
        <ele>152.8</ele>
        <time>2025-02-25T10:19:03Z</time>
      </trkpt>
      <trkpt lat="48.09706" lon="-3.59639">
        <ele>152.8</ele>
        <time>2025-02-25T10:19:04Z</time>
      </trkpt>
      <trkpt lat="48.09706" lon="-3.59638">
        <ele>152.9</ele>
        <time>2025-02-25T10:19:05Z</time>
      </trkpt>
      <trkpt lat="48.09706" lon="-3.59637">
        <ele>152.9</ele>
        <time>2025-02-25T10:19:06Z</time>
      </trkpt>
      <trkpt lat="48.09706" lon="-3.59635">
        <ele>153</ele>
        <time>2025-02-25T10:19:07Z</time>
      </trkpt>
      <trkpt lat="48.09706" lon="-3.59634">
        <ele>153</ele>
        <time>2025-02-25T10:19:08Z</time>
      </trkpt>
      <trkpt lat="48.09706" lon="-3.59633">
        <ele>153</ele>
        <time>2025-02-25T10:19:09Z</time>
      </trkpt>
      <trkpt lat="48.09706" lon="-3.59631">
        <ele>153.1</ele>
        <time>2025-02-25T10:19:10Z</time>
      </trkpt>
      <trkpt lat="48.09706" lon="-3.59629">
        <ele>153.2</ele>
        <time>2025-02-25T10:19:11Z</time>
      </trkpt>
      <trkpt lat="48.09706" lon="-3.59628">
        <ele>153.2</ele>
        <time>2025-02-25T10:19:12Z</time>
      </trkpt>
      <trkpt lat="48.09707" lon="-3.59627">
        <ele>153.3</ele>
        <time>2025-02-25T10:19:13Z</time>
      </trkpt>
      <trkpt lat="48.09708" lon="-3.59625">
        <ele>153.5</ele>
        <time>2025-02-25T10:19:14Z</time>
      </trkpt>
      <trkpt lat="48.09709" lon="-3.59625">
        <ele>153.5</ele>
        <time>2025-02-25T10:19:15Z</time>
      </trkpt>
      <trkpt lat="48.09709" lon="-3.59622">
        <ele>153.7</ele>
        <time>2025-02-25T10:19:16Z</time>
      </trkpt>
      <trkpt lat="48.09709" lon="-3.5962">
        <ele>153.7</ele>
        <time>2025-02-25T10:19:17Z</time>
      </trkpt>
      <trkpt lat="48.0971" lon="-3.59619">
        <ele>153.8</ele>
        <time>2025-02-25T10:19:18Z</time>
      </trkpt>
      <trkpt lat="48.09711" lon="-3.59617">
        <ele>154</ele>
        <time>2025-02-25T10:19:19Z</time>
      </trkpt>
      <trkpt lat="48.0971" lon="-3.59615">
        <ele>154</ele>
        <time>2025-02-25T10:19:20Z</time>
      </trkpt>
      <trkpt lat="48.0971" lon="-3.59615">
        <ele>154</ele>
        <time>2025-02-25T10:19:21Z</time>
      </trkpt>
      <trkpt lat="48.0971" lon="-3.59613">
        <ele>154.1</ele>
        <time>2025-02-25T10:19:22Z</time>
      </trkpt>
      <trkpt lat="48.09711" lon="-3.59612">
        <ele>154.2</ele>
        <time>2025-02-25T10:19:23Z</time>
      </trkpt>
      <trkpt lat="48.09711" lon="-3.59611">
        <ele>154.2</ele>
        <time>2025-02-25T10:19:24Z</time>
      </trkpt>
      <trkpt lat="48.09711" lon="-3.5961">
        <ele>154.2</ele>
        <time>2025-02-25T10:19:25Z</time>
      </trkpt>
      <trkpt lat="48.09711" lon="-3.59609">
        <ele>154.3</ele>
        <time>2025-02-25T10:19:26Z</time>
      </trkpt>
      <trkpt lat="48.09711" lon="-3.59608">
        <ele>154.3</ele>
        <time>2025-02-25T10:19:27Z</time>
      </trkpt>
      <trkpt lat="48.09711" lon="-3.59607">
        <ele>154.3</ele>
        <time>2025-02-25T10:19:28Z</time>
      </trkpt>
      <trkpt lat="48.09711" lon="-3.59605">
        <ele>154.4</ele>
        <time>2025-02-25T10:19:29Z</time>
      </trkpt>
      <trkpt lat="48.09711" lon="-3.59604">
        <ele>154.4</ele>
        <time>2025-02-25T10:19:30Z</time>
      </trkpt>
      <trkpt lat="48.09712" lon="-3.59603">
        <ele>154.6</ele>
        <time>2025-02-25T10:19:31Z</time>
      </trkpt>
      <trkpt lat="48.09712" lon="-3.59602">
        <ele>154.6</ele>
        <time>2025-02-25T10:19:32Z</time>
      </trkpt>
      <trkpt lat="48.09712" lon="-3.596">
        <ele>154.7</ele>
        <time>2025-02-25T10:19:33Z</time>
      </trkpt>
      <trkpt lat="48.09712" lon="-3.59599">
        <ele>154.7</ele>
        <time>2025-02-25T10:19:34Z</time>
      </trkpt>
      <trkpt lat="48.09712" lon="-3.59598">
        <ele>154.7</ele>
        <time>2025-02-25T10:19:35Z</time>
      </trkpt>
      <trkpt lat="48.09712" lon="-3.59597">
        <ele>154.8</ele>
        <time>2025-02-25T10:19:36Z</time>
      </trkpt>
      <trkpt lat="48.09712" lon="-3.59595">
        <ele>154.8</ele>
        <time>2025-02-25T10:19:37Z</time>
      </trkpt>
      <trkpt lat="48.09712" lon="-3.59593">
        <ele>154.9</ele>
        <time>2025-02-25T10:19:38Z</time>
      </trkpt>
      <trkpt lat="48.09712" lon="-3.59592">
        <ele>155</ele>
        <time>2025-02-25T10:19:39Z</time>
      </trkpt>
      <trkpt lat="48.09712" lon="-3.5959">
        <ele>155</ele>
        <time>2025-02-25T10:19:40Z</time>
      </trkpt>
      <trkpt lat="48.09712" lon="-3.59588">
        <ele>155.1</ele>
        <time>2025-02-25T10:19:41Z</time>
      </trkpt>
      <trkpt lat="48.09712" lon="-3.59586">
        <ele>155.2</ele>
        <time>2025-02-25T10:19:42Z</time>
      </trkpt>
      <trkpt lat="48.09711" lon="-3.59585">
        <ele>155.1</ele>
        <time>2025-02-25T10:19:43Z</time>
      </trkpt>
      <trkpt lat="48.09712" lon="-3.59583">
        <ele>155.3</ele>
        <time>2025-02-25T10:19:44Z</time>
      </trkpt>
      <trkpt lat="48.09711" lon="-3.59581">
        <ele>155.3</ele>
        <time>2025-02-25T10:19:45Z</time>
      </trkpt>
      <trkpt lat="48.09711" lon="-3.59579">
        <ele>155.3</ele>
        <time>2025-02-25T10:19:46Z</time>
      </trkpt>
      <trkpt lat="48.09711" lon="-3.59578">
        <ele>155.4</ele>
        <time>2025-02-25T10:19:47Z</time>
      </trkpt>
      <trkpt lat="48.0971" lon="-3.59576">
        <ele>155.4</ele>
        <time>2025-02-25T10:19:48Z</time>
      </trkpt>
      <trkpt lat="48.0971" lon="-3.59574">
        <ele>155.5</ele>
        <time>2025-02-25T10:19:49Z</time>
      </trkpt>
      <trkpt lat="48.0971" lon="-3.59573">
        <ele>155.5</ele>
        <time>2025-02-25T10:19:50Z</time>
      </trkpt>
      <trkpt lat="48.09709" lon="-3.59571">
        <ele>155.5</ele>
        <time>2025-02-25T10:19:51Z</time>
      </trkpt>
      <trkpt lat="48.09709" lon="-3.59569">
        <ele>155.6</ele>
        <time>2025-02-25T10:19:52Z</time>
      </trkpt>
      <trkpt lat="48.09709" lon="-3.59567">
        <ele>155.6</ele>
        <time>2025-02-25T10:19:53Z</time>
      </trkpt>
      <trkpt lat="48.09708" lon="-3.59566">
        <ele>155.6</ele>
        <time>2025-02-25T10:19:54Z</time>
      </trkpt>
      <trkpt lat="48.09708" lon="-3.59564">
        <ele>155.7</ele>
        <time>2025-02-25T10:19:55Z</time>
      </trkpt>
      <trkpt lat="48.09707" lon="-3.59563">
        <ele>155.6</ele>
        <time>2025-02-25T10:19:56Z</time>
      </trkpt>
      <trkpt lat="48.09707" lon="-3.59561">
        <ele>155.7</ele>
        <time>2025-02-25T10:19:57Z</time>
      </trkpt>
      <trkpt lat="48.09707" lon="-3.59559">
        <ele>155.8</ele>
        <time>2025-02-25T10:19:58Z</time>
      </trkpt>
      <trkpt lat="48.09706" lon="-3.59557">
        <ele>155.8</ele>
        <time>2025-02-25T10:19:59Z</time>
      </trkpt>
      <trkpt lat="48.09705" lon="-3.59556">
        <ele>155.7</ele>
        <time>2025-02-25T10:20:00Z</time>
      </trkpt>
      <trkpt lat="48.09705" lon="-3.59554">
        <ele>155.8</ele>
        <time>2025-02-25T10:20:01Z</time>
      </trkpt>
      <trkpt lat="48.09705" lon="-3.59552">
        <ele>155.8</ele>
        <time>2025-02-25T10:20:02Z</time>
      </trkpt>
      <trkpt lat="48.09705" lon="-3.5955">
        <ele>155.9</ele>
        <time>2025-02-25T10:20:03Z</time>
      </trkpt>
      <trkpt lat="48.09704" lon="-3.59549">
        <ele>155.8</ele>
        <time>2025-02-25T10:20:04Z</time>
      </trkpt>
      <trkpt lat="48.09704" lon="-3.59547">
        <ele>155.9</ele>
        <time>2025-02-25T10:20:05Z</time>
      </trkpt>
      <trkpt lat="48.09704" lon="-3.59545">
        <ele>155.9</ele>
        <time>2025-02-25T10:20:06Z</time>
      </trkpt>
      <trkpt lat="48.09703" lon="-3.59544">
        <ele>155.9</ele>
        <time>2025-02-25T10:20:07Z</time>
      </trkpt>
      <trkpt lat="48.09703" lon="-3.59542">
        <ele>156</ele>
        <time>2025-02-25T10:20:08Z</time>
      </trkpt>
      <trkpt lat="48.09702" lon="-3.59541">
        <ele>155.9</ele>
        <time>2025-02-25T10:20:09Z</time>
      </trkpt>
      <trkpt lat="48.09702" lon="-3.59539">
        <ele>156</ele>
        <time>2025-02-25T10:20:10Z</time>
      </trkpt>
      <trkpt lat="48.09702" lon="-3.59538">
        <ele>156</ele>
        <time>2025-02-25T10:20:11Z</time>
      </trkpt>
      <trkpt lat="48.09702" lon="-3.59536">
        <ele>156.1</ele>
        <time>2025-02-25T10:20:12Z</time>
      </trkpt>
      <trkpt lat="48.09701" lon="-3.59535">
        <ele>156</ele>
        <time>2025-02-25T10:20:13Z</time>
      </trkpt>
      <trkpt lat="48.09701" lon="-3.59533">
        <ele>156.1</ele>
        <time>2025-02-25T10:20:14Z</time>
      </trkpt>
      <trkpt lat="48.09701" lon="-3.59533">
        <ele>156.1</ele>
        <time>2025-02-25T10:20:15Z</time>
      </trkpt>
      <trkpt lat="48.097" lon="-3.59531">
        <ele>156.1</ele>
        <time>2025-02-25T10:20:16Z</time>
      </trkpt>
      <trkpt lat="48.097" lon="-3.5953">
        <ele>156.1</ele>
        <time>2025-02-25T10:20:17Z</time>
      </trkpt>
      <trkpt lat="48.097" lon="-3.59529">
        <ele>156.2</ele>
        <time>2025-02-25T10:20:18Z</time>
      </trkpt>
      <trkpt lat="48.09699" lon="-3.59527">
        <ele>156.2</ele>
        <time>2025-02-25T10:20:19Z</time>
      </trkpt>
      <trkpt lat="48.09699" lon="-3.59526">
        <ele>156.2</ele>
        <time>2025-02-25T10:20:20Z</time>
      </trkpt>
      <trkpt lat="48.09699" lon="-3.59524">
        <ele>156.3</ele>
        <time>2025-02-25T10:20:21Z</time>
      </trkpt>
      <trkpt lat="48.097" lon="-3.59522">
        <ele>156.4</ele>
        <time>2025-02-25T10:20:22Z</time>
      </trkpt>
      <trkpt lat="48.097" lon="-3.59521">
        <ele>156.4</ele>
        <time>2025-02-25T10:20:23Z</time>
      </trkpt>
      <trkpt lat="48.097" lon="-3.59519">
        <ele>156.5</ele>
        <time>2025-02-25T10:20:24Z</time>
      </trkpt>
      <trkpt lat="48.097" lon="-3.59518">
        <ele>156.5</ele>
        <time>2025-02-25T10:20:25Z</time>
      </trkpt>
      <trkpt lat="48.09701" lon="-3.59516">
        <ele>156.6</ele>
        <time>2025-02-25T10:20:26Z</time>
      </trkpt>
      <trkpt lat="48.09701" lon="-3.59514">
        <ele>156.6</ele>
        <time>2025-02-25T10:20:27Z</time>
      </trkpt>
      <trkpt lat="48.09702" lon="-3.59513">
        <ele>156.7</ele>
        <time>2025-02-25T10:20:28Z</time>
      </trkpt>
      <trkpt lat="48.09701" lon="-3.59511">
        <ele>156.7</ele>
        <time>2025-02-25T10:20:29Z</time>
      </trkpt>
      <trkpt lat="48.09701" lon="-3.5951">
        <ele>156.7</ele>
        <time>2025-02-25T10:20:30Z</time>
      </trkpt>
      <trkpt lat="48.09702" lon="-3.59508">
        <ele>156.8</ele>
        <time>2025-02-25T10:20:31Z</time>
      </trkpt>
      <trkpt lat="48.09702" lon="-3.59507">
        <ele>156.8</ele>
        <time>2025-02-25T10:20:32Z</time>
      </trkpt>
      <trkpt lat="48.09702" lon="-3.59505">
        <ele>156.9</ele>
        <time>2025-02-25T10:20:33Z</time>
      </trkpt>
      <trkpt lat="48.09703" lon="-3.59503">
        <ele>156.9</ele>
        <time>2025-02-25T10:20:34Z</time>
      </trkpt>
      <trkpt lat="48.09703" lon="-3.59501">
        <ele>157</ele>
        <time>2025-02-25T10:20:35Z</time>
      </trkpt>
      <trkpt lat="48.09703" lon="-3.59499">
        <ele>157</ele>
        <time>2025-02-25T10:20:36Z</time>
      </trkpt>
      <trkpt lat="48.09703" lon="-3.59498">
        <ele>157.1</ele>
        <time>2025-02-25T10:20:37Z</time>
      </trkpt>
      <trkpt lat="48.09704" lon="-3.59496">
        <ele>157.1</ele>
        <time>2025-02-25T10:20:38Z</time>
      </trkpt>
      <trkpt lat="48.09704" lon="-3.59495">
        <ele>157.2</ele>
        <time>2025-02-25T10:20:39Z</time>
      </trkpt>
      <trkpt lat="48.09705" lon="-3.59493">
        <ele>157.3</ele>
        <time>2025-02-25T10:20:40Z</time>
      </trkpt>
      <trkpt lat="48.09704" lon="-3.59491">
        <ele>157.3</ele>
        <time>2025-02-25T10:20:41Z</time>
      </trkpt>
      <trkpt lat="48.09704" lon="-3.5949">
        <ele>157.4</ele>
        <time>2025-02-25T10:20:42Z</time>
      </trkpt>
      <trkpt lat="48.09705" lon="-3.59488">
        <ele>157.4</ele>
        <time>2025-02-25T10:20:43Z</time>
      </trkpt>
      <trkpt lat="48.09706" lon="-3.59488">
        <ele>157.4</ele>
        <time>2025-02-25T10:20:44Z</time>
      </trkpt>
      <trkpt lat="48.09707" lon="-3.59486">
        <ele>157.5</ele>
        <time>2025-02-25T10:20:45Z</time>
      </trkpt>
      <trkpt lat="48.09708" lon="-3.59485">
        <ele>157.5</ele>
        <time>2025-02-25T10:20:46Z</time>
      </trkpt>
      <trkpt lat="48.09708" lon="-3.59484">
        <ele>157.6</ele>
        <time>2025-02-25T10:20:47Z</time>
      </trkpt>
      <trkpt lat="48.09708" lon="-3.59482">
        <ele>157.6</ele>
        <time>2025-02-25T10:20:48Z</time>
      </trkpt>
      <trkpt lat="48.09709" lon="-3.59481">
        <ele>157.7</ele>
        <time>2025-02-25T10:20:49Z</time>
      </trkpt>
      <trkpt lat="48.09709" lon="-3.5948">
        <ele>157.7</ele>
        <time>2025-02-25T10:20:50Z</time>
      </trkpt>
      <trkpt lat="48.09709" lon="-3.59478">
        <ele>157.8</ele>
        <time>2025-02-25T10:20:51Z</time>
      </trkpt>
      <trkpt lat="48.09709" lon="-3.59476">
        <ele>157.9</ele>
        <time>2025-02-25T10:20:52Z</time>
      </trkpt>
      <trkpt lat="48.09709" lon="-3.59474">
        <ele>157.9</ele>
        <time>2025-02-25T10:20:53Z</time>
      </trkpt>
      <trkpt lat="48.09709" lon="-3.59472">
        <ele>158</ele>
        <time>2025-02-25T10:20:54Z</time>
      </trkpt>
      <trkpt lat="48.09709" lon="-3.5947">
        <ele>158.1</ele>
        <time>2025-02-25T10:20:55Z</time>
      </trkpt>
      <trkpt lat="48.09709" lon="-3.59468">
        <ele>158.2</ele>
        <time>2025-02-25T10:20:56Z</time>
      </trkpt>
      <trkpt lat="48.0971" lon="-3.59467">
        <ele>158.2</ele>
        <time>2025-02-25T10:20:57Z</time>
      </trkpt>
      <trkpt lat="48.09711" lon="-3.59467">
        <ele>158.2</ele>
        <time>2025-02-25T10:20:58Z</time>
      </trkpt>
      <trkpt lat="48.09712" lon="-3.59464">
        <ele>158.3</ele>
        <time>2025-02-25T10:20:59Z</time>
      </trkpt>
      <trkpt lat="48.09712" lon="-3.59462">
        <ele>158.4</ele>
        <time>2025-02-25T10:21:00Z</time>
      </trkpt>
      <trkpt lat="48.09713" lon="-3.59461">
        <ele>158.4</ele>
        <time>2025-02-25T10:21:01Z</time>
      </trkpt>
      <trkpt lat="48.09713" lon="-3.59459">
        <ele>158.5</ele>
        <time>2025-02-25T10:21:02Z</time>
      </trkpt>
      <trkpt lat="48.09714" lon="-3.59458">
        <ele>158.5</ele>
        <time>2025-02-25T10:21:03Z</time>
      </trkpt>
      <trkpt lat="48.09714" lon="-3.59456">
        <ele>158.6</ele>
        <time>2025-02-25T10:21:04Z</time>
      </trkpt>
      <trkpt lat="48.09714" lon="-3.59454">
        <ele>158.7</ele>
        <time>2025-02-25T10:21:05Z</time>
      </trkpt>
      <trkpt lat="48.09714" lon="-3.59451">
        <ele>158.8</ele>
        <time>2025-02-25T10:21:06Z</time>
      </trkpt>
      <trkpt lat="48.09714" lon="-3.59449">
        <ele>158.8</ele>
        <time>2025-02-25T10:21:07Z</time>
      </trkpt>
      <trkpt lat="48.09715" lon="-3.59447">
        <ele>158.9</ele>
        <time>2025-02-25T10:21:08Z</time>
      </trkpt>
      <trkpt lat="48.09715" lon="-3.59446">
        <ele>158.9</ele>
        <time>2025-02-25T10:21:09Z</time>
      </trkpt>
      <trkpt lat="48.09715" lon="-3.59444">
        <ele>159</ele>
        <time>2025-02-25T10:21:10Z</time>
      </trkpt>
      <trkpt lat="48.09715" lon="-3.59443">
        <ele>159.1</ele>
        <time>2025-02-25T10:21:11Z</time>
      </trkpt>
      <trkpt lat="48.09715" lon="-3.59443">
        <ele>159.1</ele>
        <time>2025-02-25T10:21:12Z</time>
      </trkpt>
      <trkpt lat="48.09715" lon="-3.59442">
        <ele>159.1</ele>
        <time>2025-02-25T10:21:13Z</time>
      </trkpt>
      <trkpt lat="48.09716" lon="-3.5944">
        <ele>159.2</ele>
        <time>2025-02-25T10:21:14Z</time>
      </trkpt>
      <trkpt lat="48.09717" lon="-3.5944">
        <ele>159.2</ele>
        <time>2025-02-25T10:21:15Z</time>
      </trkpt>
      <trkpt lat="48.09718" lon="-3.59439">
        <ele>159.2</ele>
        <time>2025-02-25T10:21:16Z</time>
      </trkpt>
      <trkpt lat="48.09718" lon="-3.59437">
        <ele>159.3</ele>
        <time>2025-02-25T10:21:17Z</time>
      </trkpt>
      <trkpt lat="48.09719" lon="-3.59437">
        <ele>159.3</ele>
        <time>2025-02-25T10:21:18Z</time>
      </trkpt>
      <trkpt lat="48.09719" lon="-3.59435">
        <ele>159.4</ele>
        <time>2025-02-25T10:21:19Z</time>
      </trkpt>
      <trkpt lat="48.09719" lon="-3.59434">
        <ele>159.4</ele>
        <time>2025-02-25T10:21:20Z</time>
      </trkpt>
      <trkpt lat="48.09719" lon="-3.59433">
        <ele>159.5</ele>
        <time>2025-02-25T10:21:21Z</time>
      </trkpt>
      <trkpt lat="48.09719" lon="-3.59431">
        <ele>159.5</ele>
        <time>2025-02-25T10:21:22Z</time>
      </trkpt>
      <trkpt lat="48.0972" lon="-3.59429">
        <ele>159.6</ele>
        <time>2025-02-25T10:21:23Z</time>
      </trkpt>
      <trkpt lat="48.0972" lon="-3.59428">
        <ele>159.6</ele>
        <time>2025-02-25T10:21:24Z</time>
      </trkpt>
      <trkpt lat="48.0972" lon="-3.59428">
        <ele>159.6</ele>
        <time>2025-02-25T10:21:25Z</time>
      </trkpt>
      <trkpt lat="48.09722" lon="-3.59426">
        <ele>159.7</ele>
        <time>2025-02-25T10:21:26Z</time>
      </trkpt>
      <trkpt lat="48.09721" lon="-3.59423">
        <ele>159.8</ele>
        <time>2025-02-25T10:21:27Z</time>
      </trkpt>
      <trkpt lat="48.09721" lon="-3.59422">
        <ele>159.8</ele>
        <time>2025-02-25T10:21:28Z</time>
      </trkpt>
      <trkpt lat="48.09721" lon="-3.59422">
        <ele>159.8</ele>
        <time>2025-02-25T10:21:29Z</time>
      </trkpt>
      <trkpt lat="48.0972" lon="-3.59421">
        <ele>159.9</ele>
        <time>2025-02-25T10:21:30Z</time>
      </trkpt>
      <trkpt lat="48.0972" lon="-3.59421">
        <ele>159.9</ele>
        <time>2025-02-25T10:21:31Z</time>
      </trkpt>
      <trkpt lat="48.0972" lon="-3.5942">
        <ele>160</ele>
        <time>2025-02-25T10:21:32Z</time>
      </trkpt>
      <trkpt lat="48.09722" lon="-3.59419">
        <ele>159.9</ele>
        <time>2025-02-25T10:21:33Z</time>
      </trkpt>
      <trkpt lat="48.09722" lon="-3.59417">
        <ele>160</ele>
        <time>2025-02-25T10:21:34Z</time>
      </trkpt>
      <trkpt lat="48.09723" lon="-3.59416">
        <ele>160.1</ele>
        <time>2025-02-25T10:21:35Z</time>
      </trkpt>
      <trkpt lat="48.09724" lon="-3.59415">
        <ele>160.1</ele>
        <time>2025-02-25T10:21:36Z</time>
      </trkpt>
      <trkpt lat="48.09724" lon="-3.59413">
        <ele>160.2</ele>
        <time>2025-02-25T10:21:37Z</time>
      </trkpt>
      <trkpt lat="48.09725" lon="-3.59411">
        <ele>160.3</ele>
        <time>2025-02-25T10:21:38Z</time>
      </trkpt>
      <trkpt lat="48.09725" lon="-3.5941">
        <ele>160.4</ele>
        <time>2025-02-25T10:21:39Z</time>
      </trkpt>
      <trkpt lat="48.09725" lon="-3.59408">
        <ele>160.4</ele>
        <time>2025-02-25T10:21:40Z</time>
      </trkpt>
      <trkpt lat="48.09725" lon="-3.59407">
        <ele>160.5</ele>
        <time>2025-02-25T10:21:41Z</time>
      </trkpt>
      <trkpt lat="48.09725" lon="-3.59406">
        <ele>160.5</ele>
        <time>2025-02-25T10:21:42Z</time>
      </trkpt>
      <trkpt lat="48.09726" lon="-3.59405">
        <ele>160.6</ele>
        <time>2025-02-25T10:21:43Z</time>
      </trkpt>
      <trkpt lat="48.09726" lon="-3.59403">
        <ele>160.7</ele>
        <time>2025-02-25T10:21:44Z</time>
      </trkpt>
      <trkpt lat="48.09727" lon="-3.59402">
        <ele>160.8</ele>
        <time>2025-02-25T10:21:45Z</time>
      </trkpt>
      <trkpt lat="48.09726" lon="-3.59401">
        <ele>160.8</ele>
        <time>2025-02-25T10:21:46Z</time>
      </trkpt>
      <trkpt lat="48.09726" lon="-3.594">
        <ele>160.8</ele>
        <time>2025-02-25T10:21:47Z</time>
      </trkpt>
      <trkpt lat="48.09726" lon="-3.59399">
        <ele>160.9</ele>
        <time>2025-02-25T10:21:48Z</time>
      </trkpt>
      <trkpt lat="48.09726" lon="-3.59397">
        <ele>160.9</ele>
        <time>2025-02-25T10:21:49Z</time>
      </trkpt>
      <trkpt lat="48.09727" lon="-3.59396">
        <ele>161</ele>
        <time>2025-02-25T10:21:50Z</time>
      </trkpt>
      <trkpt lat="48.09727" lon="-3.59393">
        <ele>161.2</ele>
        <time>2025-02-25T10:21:51Z</time>
      </trkpt>
      <trkpt lat="48.09727" lon="-3.59392">
        <ele>161.2</ele>
        <time>2025-02-25T10:21:52Z</time>
      </trkpt>
      <trkpt lat="48.09727" lon="-3.59391">
        <ele>161.3</ele>
        <time>2025-02-25T10:21:53Z</time>
      </trkpt>
      <trkpt lat="48.09727" lon="-3.5939">
        <ele>161.3</ele>
        <time>2025-02-25T10:21:54Z</time>
      </trkpt>
      <trkpt lat="48.09727" lon="-3.59389">
        <ele>161.3</ele>
        <time>2025-02-25T10:21:55Z</time>
      </trkpt>
      <trkpt lat="48.09727" lon="-3.59387">
        <ele>161.4</ele>
        <time>2025-02-25T10:21:56Z</time>
      </trkpt>
      <trkpt lat="48.09728" lon="-3.59386">
        <ele>161.5</ele>
        <time>2025-02-25T10:21:57Z</time>
      </trkpt>
      <trkpt lat="48.09728" lon="-3.59383">
        <ele>161.6</ele>
        <time>2025-02-25T10:21:58Z</time>
      </trkpt>
      <trkpt lat="48.09728" lon="-3.59381">
        <ele>161.7</ele>
        <time>2025-02-25T10:21:59Z</time>
      </trkpt>
      <trkpt lat="48.09728" lon="-3.5938">
        <ele>161.7</ele>
        <time>2025-02-25T10:22:00Z</time>
      </trkpt>
      <trkpt lat="48.09728" lon="-3.59378">
        <ele>161.8</ele>
        <time>2025-02-25T10:22:01Z</time>
      </trkpt>
      <trkpt lat="48.09727" lon="-3.59378">
        <ele>161.7</ele>
        <time>2025-02-25T10:22:02Z</time>
      </trkpt>
      <trkpt lat="48.09727" lon="-3.59377">
        <ele>161.8</ele>
        <time>2025-02-25T10:22:03Z</time>
      </trkpt>
      <trkpt lat="48.09728" lon="-3.59376">
        <ele>161.9</ele>
        <time>2025-02-25T10:22:04Z</time>
      </trkpt>
      <trkpt lat="48.09728" lon="-3.59375">
        <ele>161.9</ele>
        <time>2025-02-25T10:22:05Z</time>
      </trkpt>
      <trkpt lat="48.09728" lon="-3.59374">
        <ele>162</ele>
        <time>2025-02-25T10:22:06Z</time>
      </trkpt>
      <trkpt lat="48.09729" lon="-3.59372">
        <ele>162.1</ele>
        <time>2025-02-25T10:22:07Z</time>
      </trkpt>
      <trkpt lat="48.09729" lon="-3.5937">
        <ele>162.2</ele>
        <time>2025-02-25T10:22:08Z</time>
      </trkpt>
      <trkpt lat="48.0973" lon="-3.59368">
        <ele>162.3</ele>
        <time>2025-02-25T10:22:09Z</time>
      </trkpt>
      <trkpt lat="48.0973" lon="-3.59366">
        <ele>162.4</ele>
        <time>2025-02-25T10:22:10Z</time>
      </trkpt>
      <trkpt lat="48.09729" lon="-3.59365">
        <ele>162.3</ele>
        <time>2025-02-25T10:22:11Z</time>
      </trkpt>
      <trkpt lat="48.09729" lon="-3.59364">
        <ele>162.4</ele>
        <time>2025-02-25T10:22:12Z</time>
      </trkpt>
      <trkpt lat="48.09729" lon="-3.59362">
        <ele>162.5</ele>
        <time>2025-02-25T10:22:13Z</time>
      </trkpt>
      <trkpt lat="48.09729" lon="-3.5936">
        <ele>162.6</ele>
        <time>2025-02-25T10:22:14Z</time>
      </trkpt>
      <trkpt lat="48.09729" lon="-3.5936">
        <ele>162.6</ele>
        <time>2025-02-25T10:22:15Z</time>
      </trkpt>
      <trkpt lat="48.09729" lon="-3.59359">
        <ele>162.6</ele>
        <time>2025-02-25T10:22:16Z</time>
      </trkpt>
      <trkpt lat="48.09729" lon="-3.59358">
        <ele>162.7</ele>
        <time>2025-02-25T10:22:17Z</time>
      </trkpt>
      <trkpt lat="48.09729" lon="-3.59356">
        <ele>162.8</ele>
        <time>2025-02-25T10:22:18Z</time>
      </trkpt>
      <trkpt lat="48.0973" lon="-3.59354">
        <ele>163</ele>
        <time>2025-02-25T10:22:19Z</time>
      </trkpt>
      <trkpt lat="48.0973" lon="-3.59353">
        <ele>163.1</ele>
        <time>2025-02-25T10:22:20Z</time>
      </trkpt>
      <trkpt lat="48.09729" lon="-3.59351">
        <ele>163.1</ele>
        <time>2025-02-25T10:22:21Z</time>
      </trkpt>
      <trkpt lat="48.09729" lon="-3.5935">
        <ele>163.2</ele>
        <time>2025-02-25T10:22:22Z</time>
      </trkpt>
      <trkpt lat="48.09729" lon="-3.59348">
        <ele>163.3</ele>
        <time>2025-02-25T10:22:23Z</time>
      </trkpt>
      <trkpt lat="48.0973" lon="-3.59347">
        <ele>163.4</ele>
        <time>2025-02-25T10:22:24Z</time>
      </trkpt>
      <trkpt lat="48.0973" lon="-3.59346">
        <ele>163.5</ele>
        <time>2025-02-25T10:22:25Z</time>
      </trkpt>
      <trkpt lat="48.0973" lon="-3.59344">
        <ele>163.6</ele>
        <time>2025-02-25T10:22:26Z</time>
      </trkpt>
      <trkpt lat="48.09731" lon="-3.59343">
        <ele>163.7</ele>
        <time>2025-02-25T10:22:27Z</time>
      </trkpt>
      <trkpt lat="48.09731" lon="-3.59341">
        <ele>163.9</ele>
        <time>2025-02-25T10:22:28Z</time>
      </trkpt>
      <trkpt lat="48.09732" lon="-3.5934">
        <ele>164</ele>
        <time>2025-02-25T10:22:29Z</time>
      </trkpt>
      <trkpt lat="48.09732" lon="-3.59338">
        <ele>164.1</ele>
        <time>2025-02-25T10:22:30Z</time>
      </trkpt>
      <trkpt lat="48.09731" lon="-3.59337">
        <ele>164.1</ele>
        <time>2025-02-25T10:22:31Z</time>
      </trkpt>
      <trkpt lat="48.09732" lon="-3.59335">
        <ele>164.3</ele>
        <time>2025-02-25T10:22:32Z</time>
      </trkpt>
      <trkpt lat="48.09732" lon="-3.59334">
        <ele>164.3</ele>
        <time>2025-02-25T10:22:33Z</time>
      </trkpt>
      <trkpt lat="48.09733" lon="-3.59333">
        <ele>164.4</ele>
        <time>2025-02-25T10:22:34Z</time>
      </trkpt>
      <trkpt lat="48.09733" lon="-3.59331">
        <ele>164.5</ele>
        <time>2025-02-25T10:22:35Z</time>
      </trkpt>
      <trkpt lat="48.09733" lon="-3.5933">
        <ele>164.5</ele>
        <time>2025-02-25T10:22:36Z</time>
      </trkpt>
      <trkpt lat="48.09733" lon="-3.59328">
        <ele>164.6</ele>
        <time>2025-02-25T10:22:37Z</time>
      </trkpt>
      <trkpt lat="48.09733" lon="-3.59327">
        <ele>164.6</ele>
        <time>2025-02-25T10:22:38Z</time>
      </trkpt>
      <trkpt lat="48.09733" lon="-3.59325">
        <ele>164.7</ele>
        <time>2025-02-25T10:22:39Z</time>
      </trkpt>
      <trkpt lat="48.09734" lon="-3.59324">
        <ele>164.8</ele>
        <time>2025-02-25T10:22:40Z</time>
      </trkpt>
      <trkpt lat="48.09735" lon="-3.59322">
        <ele>164.9</ele>
        <time>2025-02-25T10:22:41Z</time>
      </trkpt>
      <trkpt lat="48.09735" lon="-3.59321">
        <ele>164.9</ele>
        <time>2025-02-25T10:22:42Z</time>
      </trkpt>
      <trkpt lat="48.09735" lon="-3.59319">
        <ele>165</ele>
        <time>2025-02-25T10:22:43Z</time>
      </trkpt>
      <trkpt lat="48.09735" lon="-3.59318">
        <ele>165</ele>
        <time>2025-02-25T10:22:44Z</time>
      </trkpt>
      <trkpt lat="48.09736" lon="-3.59316">
        <ele>165.1</ele>
        <time>2025-02-25T10:22:45Z</time>
      </trkpt>
      <trkpt lat="48.09737" lon="-3.59315">
        <ele>165.2</ele>
        <time>2025-02-25T10:22:46Z</time>
      </trkpt>
      <trkpt lat="48.09737" lon="-3.59313">
        <ele>165.3</ele>
        <time>2025-02-25T10:22:47Z</time>
      </trkpt>
      <trkpt lat="48.09737" lon="-3.59311">
        <ele>165.3</ele>
        <time>2025-02-25T10:22:48Z</time>
      </trkpt>
      <trkpt lat="48.09737" lon="-3.59309">
        <ele>165.4</ele>
        <time>2025-02-25T10:22:49Z</time>
      </trkpt>
      <trkpt lat="48.09738" lon="-3.59308">
        <ele>165.5</ele>
        <time>2025-02-25T10:22:50Z</time>
      </trkpt>
      <trkpt lat="48.09738" lon="-3.59307">
        <ele>165.5</ele>
        <time>2025-02-25T10:22:51Z</time>
      </trkpt>
      <trkpt lat="48.09738" lon="-3.59305">
        <ele>165.6</ele>
        <time>2025-02-25T10:22:52Z</time>
      </trkpt>
      <trkpt lat="48.09739" lon="-3.59304">
        <ele>165.6</ele>
        <time>2025-02-25T10:22:53Z</time>
      </trkpt>
      <trkpt lat="48.09739" lon="-3.59303">
        <ele>165.7</ele>
        <time>2025-02-25T10:22:54Z</time>
      </trkpt>
      <trkpt lat="48.0974" lon="-3.59302">
        <ele>165.7</ele>
        <time>2025-02-25T10:22:55Z</time>
      </trkpt>
      <trkpt lat="48.0974" lon="-3.59301">
        <ele>165.8</ele>
        <time>2025-02-25T10:22:56Z</time>
      </trkpt>
      <trkpt lat="48.09741" lon="-3.593">
        <ele>165.8</ele>
        <time>2025-02-25T10:22:57Z</time>
      </trkpt>
      <trkpt lat="48.09741" lon="-3.59298">
        <ele>165.9</ele>
        <time>2025-02-25T10:22:58Z</time>
      </trkpt>
      <trkpt lat="48.09741" lon="-3.59297">
        <ele>165.9</ele>
        <time>2025-02-25T10:22:59Z</time>
      </trkpt>
      <trkpt lat="48.09741" lon="-3.59297">
        <ele>165.9</ele>
        <time>2025-02-25T10:23:00Z</time>
      </trkpt>
      <trkpt lat="48.09741" lon="-3.59297">
        <ele>165.9</ele>
        <time>2025-02-25T10:23:01Z</time>
      </trkpt>
      <trkpt lat="48.09741" lon="-3.59297">
        <ele>165.9</ele>
        <time>2025-02-25T10:23:02Z</time>
      </trkpt>
      <trkpt lat="48.09741" lon="-3.59297">
        <ele>165.9</ele>
        <time>2025-02-25T10:23:03Z</time>
      </trkpt>
      <trkpt lat="48.09741" lon="-3.59296">
        <ele>165.9</ele>
        <time>2025-02-25T10:23:04Z</time>
      </trkpt>
      <trkpt lat="48.09742" lon="-3.59294">
        <ele>166</ele>
        <time>2025-02-25T10:23:05Z</time>
      </trkpt>
      <trkpt lat="48.09743" lon="-3.59292">
        <ele>166</ele>
        <time>2025-02-25T10:23:06Z</time>
      </trkpt>
      <trkpt lat="48.09743" lon="-3.59291">
        <ele>166</ele>
        <time>2025-02-25T10:23:07Z</time>
      </trkpt>
      <trkpt lat="48.09744" lon="-3.59289">
        <ele>166</ele>
        <time>2025-02-25T10:23:08Z</time>
      </trkpt>
      <trkpt lat="48.09745" lon="-3.59287">
        <ele>166.1</ele>
        <time>2025-02-25T10:23:09Z</time>
      </trkpt>
      <trkpt lat="48.09746" lon="-3.59284">
        <ele>166.1</ele>
        <time>2025-02-25T10:23:10Z</time>
      </trkpt>
      <trkpt lat="48.09746" lon="-3.59284">
        <ele>166.1</ele>
        <time>2025-02-25T10:23:11Z</time>
      </trkpt>
      <trkpt lat="48.09746" lon="-3.59284">
        <ele>166.1</ele>
        <time>2025-02-25T10:23:12Z</time>
      </trkpt>
      <trkpt lat="48.09746" lon="-3.59284">
        <ele>166.1</ele>
        <time>2025-02-25T10:23:13Z</time>
      </trkpt>
      <trkpt lat="48.09747" lon="-3.59282">
        <ele>166.1</ele>
        <time>2025-02-25T10:23:14Z</time>
      </trkpt>
      <trkpt lat="48.09747" lon="-3.59281">
        <ele>166.1</ele>
        <time>2025-02-25T10:23:15Z</time>
      </trkpt>
      <trkpt lat="48.09748" lon="-3.59279">
        <ele>166.1</ele>
        <time>2025-02-25T10:23:16Z</time>
      </trkpt>
      <trkpt lat="48.09748" lon="-3.59278">
        <ele>166.1</ele>
        <time>2025-02-25T10:23:17Z</time>
      </trkpt>
      <trkpt lat="48.09749" lon="-3.59277">
        <ele>166.1</ele>
        <time>2025-02-25T10:23:18Z</time>
      </trkpt>
      <trkpt lat="48.0975" lon="-3.59277">
        <ele>166</ele>
        <time>2025-02-25T10:23:19Z</time>
      </trkpt>
      <trkpt lat="48.0975" lon="-3.59277">
        <ele>166</ele>
        <time>2025-02-25T10:23:20Z</time>
      </trkpt>
      <trkpt lat="48.09751" lon="-3.59276">
        <ele>166.1</ele>
        <time>2025-02-25T10:23:21Z</time>
      </trkpt>
      <trkpt lat="48.09751" lon="-3.59275">
        <ele>166.2</ele>
        <time>2025-02-25T10:23:22Z</time>
      </trkpt>
      <trkpt lat="48.09751" lon="-3.59274">
        <ele>166.2</ele>
        <time>2025-02-25T10:23:23Z</time>
      </trkpt>
      <trkpt lat="48.09751" lon="-3.59273">
        <ele>166.2</ele>
        <time>2025-02-25T10:23:24Z</time>
      </trkpt>
      <trkpt lat="48.09752" lon="-3.59272">
        <ele>166.3</ele>
        <time>2025-02-25T10:23:25Z</time>
      </trkpt>
      <trkpt lat="48.09753" lon="-3.59271">
        <ele>166.4</ele>
        <time>2025-02-25T10:23:26Z</time>
      </trkpt>
      <trkpt lat="48.09754" lon="-3.5927">
        <ele>166.5</ele>
        <time>2025-02-25T10:23:27Z</time>
      </trkpt>
      <trkpt lat="48.09754" lon="-3.59269">
        <ele>166.6</ele>
        <time>2025-02-25T10:23:28Z</time>
      </trkpt>
      <trkpt lat="48.09754" lon="-3.59267">
        <ele>166.6</ele>
        <time>2025-02-25T10:23:29Z</time>
      </trkpt>
      <trkpt lat="48.09754" lon="-3.59265">
        <ele>166.7</ele>
        <time>2025-02-25T10:23:30Z</time>
      </trkpt>
      <trkpt lat="48.09754" lon="-3.59263">
        <ele>166.7</ele>
        <time>2025-02-25T10:23:31Z</time>
      </trkpt>
      <trkpt lat="48.09756" lon="-3.59263">
        <ele>166.8</ele>
        <time>2025-02-25T10:23:32Z</time>
      </trkpt>
      <trkpt lat="48.09756" lon="-3.59261">
        <ele>166.9</ele>
        <time>2025-02-25T10:23:33Z</time>
      </trkpt>
      <trkpt lat="48.09756" lon="-3.59258">
        <ele>167</ele>
        <time>2025-02-25T10:23:34Z</time>
      </trkpt>
      <trkpt lat="48.09757" lon="-3.59257">
        <ele>167.1</ele>
        <time>2025-02-25T10:23:35Z</time>
      </trkpt>
      <trkpt lat="48.09758" lon="-3.59257">
        <ele>167.1</ele>
        <time>2025-02-25T10:23:36Z</time>
      </trkpt>
      <trkpt lat="48.09758" lon="-3.59255">
        <ele>167.2</ele>
        <time>2025-02-25T10:23:37Z</time>
      </trkpt>
      <trkpt lat="48.09758" lon="-3.59254">
        <ele>167.2</ele>
        <time>2025-02-25T10:23:38Z</time>
      </trkpt>
      <trkpt lat="48.09759" lon="-3.59253">
        <ele>167.3</ele>
        <time>2025-02-25T10:23:39Z</time>
      </trkpt>
      <trkpt lat="48.09759" lon="-3.59252">
        <ele>167.3</ele>
        <time>2025-02-25T10:23:40Z</time>
      </trkpt>
      <trkpt lat="48.0976" lon="-3.59251">
        <ele>167.3</ele>
        <time>2025-02-25T10:23:41Z</time>
      </trkpt>
      <trkpt lat="48.0976" lon="-3.59251">
        <ele>167.3</ele>
        <time>2025-02-25T10:23:42Z</time>
      </trkpt>
      <trkpt lat="48.0976" lon="-3.59249">
        <ele>167.4</ele>
        <time>2025-02-25T10:23:43Z</time>
      </trkpt>
      <trkpt lat="48.09761" lon="-3.59248">
        <ele>167.5</ele>
        <time>2025-02-25T10:23:44Z</time>
      </trkpt>
      <trkpt lat="48.09762" lon="-3.59246">
        <ele>167.6</ele>
        <time>2025-02-25T10:23:45Z</time>
      </trkpt>
      <trkpt lat="48.09763" lon="-3.59245">
        <ele>167.6</ele>
        <time>2025-02-25T10:23:46Z</time>
      </trkpt>
      <trkpt lat="48.09764" lon="-3.59244">
        <ele>167.7</ele>
        <time>2025-02-25T10:23:47Z</time>
      </trkpt>
      <trkpt lat="48.09765" lon="-3.59243">
        <ele>167.8</ele>
        <time>2025-02-25T10:23:48Z</time>
      </trkpt>
      <trkpt lat="48.09766" lon="-3.59241">
        <ele>167.9</ele>
        <time>2025-02-25T10:23:49Z</time>
      </trkpt>
      <trkpt lat="48.09767" lon="-3.5924">
        <ele>168</ele>
        <time>2025-02-25T10:23:50Z</time>
      </trkpt>
      <trkpt lat="48.09767" lon="-3.59239">
        <ele>168</ele>
        <time>2025-02-25T10:23:51Z</time>
      </trkpt>
      <trkpt lat="48.09768" lon="-3.59237">
        <ele>168.1</ele>
        <time>2025-02-25T10:23:52Z</time>
      </trkpt>
      <trkpt lat="48.09769" lon="-3.59235">
        <ele>168.2</ele>
        <time>2025-02-25T10:23:53Z</time>
      </trkpt>
      <trkpt lat="48.09769" lon="-3.59233">
        <ele>168.3</ele>
        <time>2025-02-25T10:23:54Z</time>
      </trkpt>
      <trkpt lat="48.0977" lon="-3.59233">
        <ele>168.3</ele>
        <time>2025-02-25T10:23:55Z</time>
      </trkpt>
      <trkpt lat="48.0977" lon="-3.59233">
        <ele>168.3</ele>
        <time>2025-02-25T10:23:56Z</time>
      </trkpt>
      <trkpt lat="48.09771" lon="-3.59233">
        <ele>168.4</ele>
        <time>2025-02-25T10:23:57Z</time>
      </trkpt>
      <trkpt lat="48.09771" lon="-3.59233">
        <ele>168.4</ele>
        <time>2025-02-25T10:23:58Z</time>
      </trkpt>
      <trkpt lat="48.09772" lon="-3.59232">
        <ele>168.4</ele>
        <time>2025-02-25T10:23:59Z</time>
      </trkpt>
      <trkpt lat="48.09772" lon="-3.59232">
        <ele>168.4</ele>
        <time>2025-02-25T10:24:00Z</time>
      </trkpt>
      <trkpt lat="48.09773" lon="-3.59232">
        <ele>168.5</ele>
        <time>2025-02-25T10:24:01Z</time>
      </trkpt>
      <trkpt lat="48.09774" lon="-3.5923">
        <ele>168.6</ele>
        <time>2025-02-25T10:24:02Z</time>
      </trkpt>
      <trkpt lat="48.09774" lon="-3.59229">
        <ele>168.6</ele>
        <time>2025-02-25T10:24:03Z</time>
      </trkpt>
      <trkpt lat="48.09774" lon="-3.59228">
        <ele>168.7</ele>
        <time>2025-02-25T10:24:04Z</time>
      </trkpt>
      <trkpt lat="48.09775" lon="-3.59227">
        <ele>168.7</ele>
        <time>2025-02-25T10:24:05Z</time>
      </trkpt>
      <trkpt lat="48.09776" lon="-3.59226">
        <ele>168.8</ele>
        <time>2025-02-25T10:24:06Z</time>
      </trkpt>
      <trkpt lat="48.09776" lon="-3.59226">
        <ele>168.8</ele>
        <time>2025-02-25T10:24:07Z</time>
      </trkpt>
      <trkpt lat="48.09778" lon="-3.59225">
        <ele>168.9</ele>
        <time>2025-02-25T10:24:08Z</time>
      </trkpt>
      <trkpt lat="48.09779" lon="-3.59224">
        <ele>169</ele>
        <time>2025-02-25T10:24:09Z</time>
      </trkpt>
      <trkpt lat="48.09779" lon="-3.59223">
        <ele>169</ele>
        <time>2025-02-25T10:24:10Z</time>
      </trkpt>
      <trkpt lat="48.0978" lon="-3.59221">
        <ele>169.1</ele>
        <time>2025-02-25T10:24:11Z</time>
      </trkpt>
      <trkpt lat="48.09781" lon="-3.59221">
        <ele>169.2</ele>
        <time>2025-02-25T10:24:12Z</time>
      </trkpt>
      <trkpt lat="48.09781" lon="-3.5922">
        <ele>169.2</ele>
        <time>2025-02-25T10:24:13Z</time>
      </trkpt>
      <trkpt lat="48.09782" lon="-3.59219">
        <ele>169.3</ele>
        <time>2025-02-25T10:24:14Z</time>
      </trkpt>
      <trkpt lat="48.09782" lon="-3.59219">
        <ele>169.3</ele>
        <time>2025-02-25T10:24:15Z</time>
      </trkpt>
      <trkpt lat="48.09783" lon="-3.59218">
        <ele>169.3</ele>
        <time>2025-02-25T10:24:16Z</time>
      </trkpt>
      <trkpt lat="48.09784" lon="-3.59216">
        <ele>169.4</ele>
        <time>2025-02-25T10:24:17Z</time>
      </trkpt>
      <trkpt lat="48.09784" lon="-3.59215">
        <ele>169.5</ele>
        <time>2025-02-25T10:24:18Z</time>
      </trkpt>
      <trkpt lat="48.09784" lon="-3.59214">
        <ele>169.5</ele>
        <time>2025-02-25T10:24:19Z</time>
      </trkpt>
      <trkpt lat="48.09785" lon="-3.59214">
        <ele>169.6</ele>
        <time>2025-02-25T10:24:20Z</time>
      </trkpt>
      <trkpt lat="48.09785" lon="-3.59213">
        <ele>169.6</ele>
        <time>2025-02-25T10:24:21Z</time>
      </trkpt>
      <trkpt lat="48.09786" lon="-3.59212">
        <ele>169.7</ele>
        <time>2025-02-25T10:24:22Z</time>
      </trkpt>
      <trkpt lat="48.09786" lon="-3.59211">
        <ele>169.7</ele>
        <time>2025-02-25T10:24:23Z</time>
      </trkpt>
      <trkpt lat="48.09786" lon="-3.59209">
        <ele>169.8</ele>
        <time>2025-02-25T10:24:24Z</time>
      </trkpt>
      <trkpt lat="48.09786" lon="-3.59209">
        <ele>169.8</ele>
        <time>2025-02-25T10:24:25Z</time>
      </trkpt>
      <trkpt lat="48.09786" lon="-3.59208">
        <ele>169.8</ele>
        <time>2025-02-25T10:24:26Z</time>
      </trkpt>
      <trkpt lat="48.09786" lon="-3.59206">
        <ele>169.9</ele>
        <time>2025-02-25T10:24:27Z</time>
      </trkpt>
      <trkpt lat="48.09786" lon="-3.59203">
        <ele>170</ele>
        <time>2025-02-25T10:24:28Z</time>
      </trkpt>
      <trkpt lat="48.09786" lon="-3.59202">
        <ele>170</ele>
        <time>2025-02-25T10:24:29Z</time>
      </trkpt>
      <trkpt lat="48.09786" lon="-3.592">
        <ele>170.1</ele>
        <time>2025-02-25T10:24:30Z</time>
      </trkpt>
      <trkpt lat="48.09786" lon="-3.59199">
        <ele>170.1</ele>
        <time>2025-02-25T10:24:31Z</time>
      </trkpt>
      <trkpt lat="48.09786" lon="-3.59197">
        <ele>170.2</ele>
        <time>2025-02-25T10:24:32Z</time>
      </trkpt>
      <trkpt lat="48.09786" lon="-3.59195">
        <ele>170.3</ele>
        <time>2025-02-25T10:24:33Z</time>
      </trkpt>
      <trkpt lat="48.09786" lon="-3.59194">
        <ele>170.3</ele>
        <time>2025-02-25T10:24:34Z</time>
      </trkpt>
      <trkpt lat="48.09785" lon="-3.59193">
        <ele>170.3</ele>
        <time>2025-02-25T10:24:35Z</time>
      </trkpt>
      <trkpt lat="48.09785" lon="-3.59192">
        <ele>170.3</ele>
        <time>2025-02-25T10:24:36Z</time>
      </trkpt>
      <trkpt lat="48.09785" lon="-3.5919">
        <ele>170.4</ele>
        <time>2025-02-25T10:24:37Z</time>
      </trkpt>
      <trkpt lat="48.09784" lon="-3.59189">
        <ele>170.4</ele>
        <time>2025-02-25T10:24:38Z</time>
      </trkpt>
      <trkpt lat="48.09783" lon="-3.59188">
        <ele>170.4</ele>
        <time>2025-02-25T10:24:39Z</time>
      </trkpt>
      <trkpt lat="48.09783" lon="-3.59188">
        <ele>170.4</ele>
        <time>2025-02-25T10:24:40Z</time>
      </trkpt>
      <trkpt lat="48.09782" lon="-3.59188">
        <ele>170.3</ele>
        <time>2025-02-25T10:24:41Z</time>
      </trkpt>
      <trkpt lat="48.09781" lon="-3.59186">
        <ele>170.4</ele>
        <time>2025-02-25T10:24:42Z</time>
      </trkpt>
      <trkpt lat="48.09781" lon="-3.59184">
        <ele>170.4</ele>
        <time>2025-02-25T10:24:43Z</time>
      </trkpt>
      <trkpt lat="48.0978" lon="-3.59182">
        <ele>170.5</ele>
        <time>2025-02-25T10:24:44Z</time>
      </trkpt>
      <trkpt lat="48.0978" lon="-3.59181">
        <ele>170.5</ele>
        <time>2025-02-25T10:24:45Z</time>
      </trkpt>
      <trkpt lat="48.09779" lon="-3.59179">
        <ele>170.6</ele>
        <time>2025-02-25T10:24:46Z</time>
      </trkpt>
      <trkpt lat="48.09779" lon="-3.59178">
        <ele>170.6</ele>
        <time>2025-02-25T10:24:47Z</time>
      </trkpt>
      <trkpt lat="48.09779" lon="-3.59177">
        <ele>170.6</ele>
        <time>2025-02-25T10:24:48Z</time>
      </trkpt>
      <trkpt lat="48.09778" lon="-3.59175">
        <ele>170.7</ele>
        <time>2025-02-25T10:24:49Z</time>
      </trkpt>
      <trkpt lat="48.09777" lon="-3.59174">
        <ele>170.7</ele>
        <time>2025-02-25T10:24:50Z</time>
      </trkpt>
      <trkpt lat="48.09776" lon="-3.59174">
        <ele>170.7</ele>
        <time>2025-02-25T10:24:51Z</time>
      </trkpt>
      <trkpt lat="48.09776" lon="-3.59172">
        <ele>170.8</ele>
        <time>2025-02-25T10:24:52Z</time>
      </trkpt>
      <trkpt lat="48.09775" lon="-3.59171">
        <ele>170.8</ele>
        <time>2025-02-25T10:24:53Z</time>
      </trkpt>
      <trkpt lat="48.09775" lon="-3.5917">
        <ele>170.9</ele>
        <time>2025-02-25T10:24:54Z</time>
      </trkpt>
      <trkpt lat="48.09774" lon="-3.59169">
        <ele>170.9</ele>
        <time>2025-02-25T10:24:55Z</time>
      </trkpt>
      <trkpt lat="48.09773" lon="-3.59169">
        <ele>170.9</ele>
        <time>2025-02-25T10:24:56Z</time>
      </trkpt>
      <trkpt lat="48.09772" lon="-3.59168">
        <ele>171</ele>
        <time>2025-02-25T10:24:57Z</time>
      </trkpt>
      <trkpt lat="48.09771" lon="-3.59166">
        <ele>171</ele>
        <time>2025-02-25T10:24:58Z</time>
      </trkpt>
      <trkpt lat="48.09769" lon="-3.59165">
        <ele>171</ele>
        <time>2025-02-25T10:24:59Z</time>
      </trkpt>
      <trkpt lat="48.0977" lon="-3.59163">
        <ele>171</ele>
        <time>2025-02-25T10:25:00Z</time>
      </trkpt>
      <trkpt lat="48.09769" lon="-3.59163">
        <ele>171</ele>
        <time>2025-02-25T10:25:01Z</time>
      </trkpt>
      <trkpt lat="48.09768" lon="-3.59162">
        <ele>171</ele>
        <time>2025-02-25T10:25:02Z</time>
      </trkpt>
      <trkpt lat="48.09768" lon="-3.59162">
        <ele>171</ele>
        <time>2025-02-25T10:25:03Z</time>
      </trkpt>
      <trkpt lat="48.09767" lon="-3.59161">
        <ele>171</ele>
        <time>2025-02-25T10:25:04Z</time>
      </trkpt>
      <trkpt lat="48.09766" lon="-3.5916">
        <ele>171</ele>
        <time>2025-02-25T10:25:05Z</time>
      </trkpt>
      <trkpt lat="48.09765" lon="-3.59159">
        <ele>171</ele>
        <time>2025-02-25T10:25:06Z</time>
      </trkpt>
      <trkpt lat="48.09765" lon="-3.59157">
        <ele>171</ele>
        <time>2025-02-25T10:25:07Z</time>
      </trkpt>
      <trkpt lat="48.09765" lon="-3.59156">
        <ele>171</ele>
        <time>2025-02-25T10:25:08Z</time>
      </trkpt>
      <trkpt lat="48.09765" lon="-3.59155">
        <ele>171</ele>
        <time>2025-02-25T10:25:09Z</time>
      </trkpt>
      <trkpt lat="48.09765" lon="-3.59154">
        <ele>171</ele>
        <time>2025-02-25T10:25:10Z</time>
      </trkpt>
      <trkpt lat="48.09764" lon="-3.59152">
        <ele>171</ele>
        <time>2025-02-25T10:25:11Z</time>
      </trkpt>
      <trkpt lat="48.09764" lon="-3.59152">
        <ele>171</ele>
        <time>2025-02-25T10:25:12Z</time>
      </trkpt>
      <trkpt lat="48.09763" lon="-3.5915">
        <ele>171</ele>
        <time>2025-02-25T10:25:13Z</time>
      </trkpt>
      <trkpt lat="48.09762" lon="-3.59149">
        <ele>171</ele>
        <time>2025-02-25T10:25:14Z</time>
      </trkpt>
      <trkpt lat="48.09761" lon="-3.59148">
        <ele>171</ele>
        <time>2025-02-25T10:25:15Z</time>
      </trkpt>
      <trkpt lat="48.09761" lon="-3.59146">
        <ele>171</ele>
        <time>2025-02-25T10:25:16Z</time>
      </trkpt>
      <trkpt lat="48.0976" lon="-3.59144">
        <ele>171</ele>
        <time>2025-02-25T10:25:17Z</time>
      </trkpt>
      <trkpt lat="48.09759" lon="-3.59143">
        <ele>171</ele>
        <time>2025-02-25T10:25:18Z</time>
      </trkpt>
      <trkpt lat="48.09759" lon="-3.59141">
        <ele>171</ele>
        <time>2025-02-25T10:25:19Z</time>
      </trkpt>
      <trkpt lat="48.09759" lon="-3.59139">
        <ele>171</ele>
        <time>2025-02-25T10:25:20Z</time>
      </trkpt>
      <trkpt lat="48.09759" lon="-3.59138">
        <ele>171</ele>
        <time>2025-02-25T10:25:21Z</time>
      </trkpt>
      <trkpt lat="48.09759" lon="-3.59137">
        <ele>171</ele>
        <time>2025-02-25T10:25:22Z</time>
      </trkpt>
      <trkpt lat="48.09758" lon="-3.59135">
        <ele>171</ele>
        <time>2025-02-25T10:25:23Z</time>
      </trkpt>
      <trkpt lat="48.09758" lon="-3.59134">
        <ele>171.1</ele>
        <time>2025-02-25T10:25:24Z</time>
      </trkpt>
      <trkpt lat="48.09757" lon="-3.59133">
        <ele>171.1</ele>
        <time>2025-02-25T10:25:25Z</time>
      </trkpt>
      <trkpt lat="48.09757" lon="-3.59131">
        <ele>171.1</ele>
        <time>2025-02-25T10:25:26Z</time>
      </trkpt>
      <trkpt lat="48.09756" lon="-3.59129">
        <ele>171.1</ele>
        <time>2025-02-25T10:25:27Z</time>
      </trkpt>
      <trkpt lat="48.09756" lon="-3.59128">
        <ele>171.1</ele>
        <time>2025-02-25T10:25:28Z</time>
      </trkpt>
      <trkpt lat="48.09755" lon="-3.59126">
        <ele>171.1</ele>
        <time>2025-02-25T10:25:29Z</time>
      </trkpt>
      <trkpt lat="48.09755" lon="-3.59125">
        <ele>171.1</ele>
        <time>2025-02-25T10:25:30Z</time>
      </trkpt>
      <trkpt lat="48.09755" lon="-3.59126">
        <ele>171.1</ele>
        <time>2025-02-25T10:25:31Z</time>
      </trkpt>
      <trkpt lat="48.09755" lon="-3.59125">
        <ele>171.1</ele>
        <time>2025-02-25T10:25:32Z</time>
      </trkpt>
      <trkpt lat="48.09754" lon="-3.59124">
        <ele>171.1</ele>
        <time>2025-02-25T10:25:33Z</time>
      </trkpt>
      <trkpt lat="48.09754" lon="-3.59124">
        <ele>171.1</ele>
        <time>2025-02-25T10:25:34Z</time>
      </trkpt>
      <trkpt lat="48.09754" lon="-3.59124">
        <ele>171.1</ele>
        <time>2025-02-25T10:25:35Z</time>
      </trkpt>
      <trkpt lat="48.09754" lon="-3.59124">
        <ele>171.1</ele>
        <time>2025-02-25T10:25:36Z</time>
      </trkpt>
      <trkpt lat="48.09755" lon="-3.59124">
        <ele>171.1</ele>
        <time>2025-02-25T10:25:37Z</time>
      </trkpt>
      <trkpt lat="48.09755" lon="-3.59124">
        <ele>171.1</ele>
        <time>2025-02-25T10:25:38Z</time>
      </trkpt>
      <trkpt lat="48.09755" lon="-3.59124">
        <ele>171.1</ele>
        <time>2025-02-25T10:25:39Z</time>
      </trkpt>
      <trkpt lat="48.09755" lon="-3.59124">
        <ele>171.1</ele>
        <time>2025-02-25T10:25:40Z</time>
      </trkpt>
      <trkpt lat="48.09755" lon="-3.59124">
        <ele>171.1</ele>
        <time>2025-02-25T10:25:41Z</time>
      </trkpt>
      <trkpt lat="48.09754" lon="-3.59124">
        <ele>171.1</ele>
        <time>2025-02-25T10:25:42Z</time>
      </trkpt>
      <trkpt lat="48.09754" lon="-3.59123">
        <ele>171.1</ele>
        <time>2025-02-25T10:25:43Z</time>
      </trkpt>
      <trkpt lat="48.09754" lon="-3.59123">
        <ele>171.1</ele>
        <time>2025-02-25T10:25:44Z</time>
      </trkpt>
      <trkpt lat="48.09754" lon="-3.59123">
        <ele>171.1</ele>
        <time>2025-02-25T10:25:45Z</time>
      </trkpt>
      <trkpt lat="48.09754" lon="-3.59123">
        <ele>171.1</ele>
        <time>2025-02-25T10:25:46Z</time>
      </trkpt>
      <trkpt lat="48.09754" lon="-3.59123">
        <ele>171.1</ele>
        <time>2025-02-25T10:25:47Z</time>
      </trkpt>
      <trkpt lat="48.09754" lon="-3.59123">
        <ele>171.1</ele>
        <time>2025-02-25T10:25:48Z</time>
      </trkpt>
      <trkpt lat="48.09754" lon="-3.59123">
        <ele>171.1</ele>
        <time>2025-02-25T10:25:49Z</time>
      </trkpt>
      <trkpt lat="48.09754" lon="-3.59122">
        <ele>171.1</ele>
        <time>2025-02-25T10:25:50Z</time>
      </trkpt>
      <trkpt lat="48.09754" lon="-3.59122">
        <ele>171.1</ele>
        <time>2025-02-25T10:25:51Z</time>
      </trkpt>
      <trkpt lat="48.09752" lon="-3.59121">
        <ele>171</ele>
        <time>2025-02-25T10:25:52Z</time>
      </trkpt>
      <trkpt lat="48.09752" lon="-3.59121">
        <ele>171</ele>
        <time>2025-02-25T10:25:53Z</time>
      </trkpt>
      <trkpt lat="48.0975" lon="-3.5912">
        <ele>171</ele>
        <time>2025-02-25T10:25:54Z</time>
      </trkpt>
      <trkpt lat="48.0975" lon="-3.5912">
        <ele>171</ele>
        <time>2025-02-25T10:25:55Z</time>
      </trkpt>
      <trkpt lat="48.0975" lon="-3.5912">
        <ele>171</ele>
        <time>2025-02-25T10:25:56Z</time>
      </trkpt>
      <trkpt lat="48.0975" lon="-3.5912">
        <ele>171</ele>
        <time>2025-02-25T10:25:57Z</time>
      </trkpt>
      <trkpt lat="48.0975" lon="-3.5912">
        <ele>171</ele>
        <time>2025-02-25T10:25:58Z</time>
      </trkpt>
      <trkpt lat="48.0975" lon="-3.5912">
        <ele>171</ele>
        <time>2025-02-25T10:25:59Z</time>
      </trkpt>
      <trkpt lat="48.0975" lon="-3.5912">
        <ele>171</ele>
        <time>2025-02-25T10:26:00Z</time>
      </trkpt>
      <trkpt lat="48.0975" lon="-3.5912">
        <ele>171</ele>
        <time>2025-02-25T10:26:01Z</time>
      </trkpt>
      <trkpt lat="48.0975" lon="-3.5912">
        <ele>171</ele>
        <time>2025-02-25T10:26:02Z</time>
      </trkpt>
      <trkpt lat="48.0975" lon="-3.5912">
        <ele>171</ele>
        <time>2025-02-25T10:26:03Z</time>
      </trkpt>
      <trkpt lat="48.0975" lon="-3.5912">
        <ele>171</ele>
        <time>2025-02-25T10:26:04Z</time>
      </trkpt>
      <trkpt lat="48.0975" lon="-3.59119">
        <ele>171</ele>
        <time>2025-02-25T10:26:05Z</time>
      </trkpt>
      <trkpt lat="48.0975" lon="-3.59119">
        <ele>171</ele>
        <time>2025-02-25T10:26:06Z</time>
      </trkpt>
      <trkpt lat="48.0975" lon="-3.59118">
        <ele>171</ele>
        <time>2025-02-25T10:26:07Z</time>
      </trkpt>
      <trkpt lat="48.09749" lon="-3.59118">
        <ele>171</ele>
        <time>2025-02-25T10:26:08Z</time>
      </trkpt>
      <trkpt lat="48.09748" lon="-3.59116">
        <ele>171.1</ele>
        <time>2025-02-25T10:26:09Z</time>
      </trkpt>
      <trkpt lat="48.09747" lon="-3.59116">
        <ele>171.1</ele>
        <time>2025-02-25T10:26:10Z</time>
      </trkpt>
      <trkpt lat="48.09746" lon="-3.59115">
        <ele>171.1</ele>
        <time>2025-02-25T10:26:11Z</time>
      </trkpt>
      <trkpt lat="48.09746" lon="-3.59115">
        <ele>171.1</ele>
        <time>2025-02-25T10:26:12Z</time>
      </trkpt>
      <trkpt lat="48.09746" lon="-3.59114">
        <ele>171.1</ele>
        <time>2025-02-25T10:26:13Z</time>
      </trkpt>
      <trkpt lat="48.09745" lon="-3.59113">
        <ele>171.2</ele>
        <time>2025-02-25T10:26:14Z</time>
      </trkpt>
      <trkpt lat="48.09745" lon="-3.59112">
        <ele>171.2</ele>
        <time>2025-02-25T10:26:15Z</time>
      </trkpt>
      <trkpt lat="48.09744" lon="-3.59111">
        <ele>171.2</ele>
        <time>2025-02-25T10:26:16Z</time>
      </trkpt>
      <trkpt lat="48.09743" lon="-3.59111">
        <ele>171.3</ele>
        <time>2025-02-25T10:26:17Z</time>
      </trkpt>
      <trkpt lat="48.09742" lon="-3.5911">
        <ele>171.3</ele>
        <time>2025-02-25T10:26:18Z</time>
      </trkpt>
      <trkpt lat="48.09742" lon="-3.59109">
        <ele>171.3</ele>
        <time>2025-02-25T10:26:19Z</time>
      </trkpt>
      <trkpt lat="48.09741" lon="-3.59108">
        <ele>171.4</ele>
        <time>2025-02-25T10:26:20Z</time>
      </trkpt>
      <trkpt lat="48.0974" lon="-3.59107">
        <ele>171.5</ele>
        <time>2025-02-25T10:26:21Z</time>
      </trkpt>
      <trkpt lat="48.09739" lon="-3.59107">
        <ele>171.5</ele>
        <time>2025-02-25T10:26:22Z</time>
      </trkpt>
      <trkpt lat="48.09738" lon="-3.59106">
        <ele>171.5</ele>
        <time>2025-02-25T10:26:23Z</time>
      </trkpt>
      <trkpt lat="48.09737" lon="-3.59105">
        <ele>171.6</ele>
        <time>2025-02-25T10:26:24Z</time>
      </trkpt>
      <trkpt lat="48.09736" lon="-3.59104">
        <ele>171.6</ele>
        <time>2025-02-25T10:26:25Z</time>
      </trkpt>
      <trkpt lat="48.09735" lon="-3.59104">
        <ele>171.7</ele>
        <time>2025-02-25T10:26:26Z</time>
      </trkpt>
      <trkpt lat="48.09734" lon="-3.59103">
        <ele>171.7</ele>
        <time>2025-02-25T10:26:27Z</time>
      </trkpt>
      <trkpt lat="48.09732" lon="-3.59102">
        <ele>171.8</ele>
        <time>2025-02-25T10:26:28Z</time>
      </trkpt>
      <trkpt lat="48.09731" lon="-3.59101">
        <ele>171.8</ele>
        <time>2025-02-25T10:26:29Z</time>
      </trkpt>
      <trkpt lat="48.09731" lon="-3.591">
        <ele>171.8</ele>
        <time>2025-02-25T10:26:30Z</time>
      </trkpt>
      <trkpt lat="48.09729" lon="-3.59099">
        <ele>171.9</ele>
        <time>2025-02-25T10:26:31Z</time>
      </trkpt>
      <trkpt lat="48.09728" lon="-3.59098">
        <ele>171.9</ele>
        <time>2025-02-25T10:26:32Z</time>
      </trkpt>
      <trkpt lat="48.09727" lon="-3.59097">
        <ele>171.9</ele>
        <time>2025-02-25T10:26:33Z</time>
      </trkpt>
      <trkpt lat="48.09726" lon="-3.59097">
        <ele>171.9</ele>
        <time>2025-02-25T10:26:34Z</time>
      </trkpt>
      <trkpt lat="48.09725" lon="-3.59095">
        <ele>172</ele>
        <time>2025-02-25T10:26:35Z</time>
      </trkpt>
      <trkpt lat="48.09725" lon="-3.59094">
        <ele>172</ele>
        <time>2025-02-25T10:26:36Z</time>
      </trkpt>
      <trkpt lat="48.09724" lon="-3.59093">
        <ele>172</ele>
        <time>2025-02-25T10:26:37Z</time>
      </trkpt>
      <trkpt lat="48.09724" lon="-3.59092">
        <ele>172</ele>
        <time>2025-02-25T10:26:38Z</time>
      </trkpt>
      <trkpt lat="48.09723" lon="-3.59091">
        <ele>172</ele>
        <time>2025-02-25T10:26:39Z</time>
      </trkpt>
      <trkpt lat="48.09722" lon="-3.5909">
        <ele>172</ele>
        <time>2025-02-25T10:26:40Z</time>
      </trkpt>
      <trkpt lat="48.09721" lon="-3.59089">
        <ele>172.1</ele>
        <time>2025-02-25T10:26:41Z</time>
      </trkpt>
      <trkpt lat="48.09721" lon="-3.59088">
        <ele>172.1</ele>
        <time>2025-02-25T10:26:42Z</time>
      </trkpt>
      <trkpt lat="48.0972" lon="-3.59086">
        <ele>172.2</ele>
        <time>2025-02-25T10:26:43Z</time>
      </trkpt>
      <trkpt lat="48.09719" lon="-3.59085">
        <ele>172.2</ele>
        <time>2025-02-25T10:26:44Z</time>
      </trkpt>
      <trkpt lat="48.09718" lon="-3.59084">
        <ele>172.3</ele>
        <time>2025-02-25T10:26:45Z</time>
      </trkpt>
      <trkpt lat="48.09717" lon="-3.59083">
        <ele>172.4</ele>
        <time>2025-02-25T10:26:46Z</time>
      </trkpt>
      <trkpt lat="48.09716" lon="-3.59082">
        <ele>172.5</ele>
        <time>2025-02-25T10:26:47Z</time>
      </trkpt>
      <trkpt lat="48.09715" lon="-3.59082">
        <ele>172.6</ele>
        <time>2025-02-25T10:26:48Z</time>
      </trkpt>
      <trkpt lat="48.09713" lon="-3.59081">
        <ele>172.7</ele>
        <time>2025-02-25T10:26:49Z</time>
      </trkpt>
      <trkpt lat="48.09713" lon="-3.59079">
        <ele>172.8</ele>
        <time>2025-02-25T10:26:50Z</time>
      </trkpt>
      <trkpt lat="48.09712" lon="-3.59078">
        <ele>172.9</ele>
        <time>2025-02-25T10:26:51Z</time>
      </trkpt>
      <trkpt lat="48.09711" lon="-3.59078">
        <ele>172.9</ele>
        <time>2025-02-25T10:26:52Z</time>
      </trkpt>
      <trkpt lat="48.0971" lon="-3.59077">
        <ele>173</ele>
        <time>2025-02-25T10:26:53Z</time>
      </trkpt>
      <trkpt lat="48.09708" lon="-3.59076">
        <ele>173.2</ele>
        <time>2025-02-25T10:26:54Z</time>
      </trkpt>
      <trkpt lat="48.09708" lon="-3.59075">
        <ele>173.2</ele>
        <time>2025-02-25T10:26:55Z</time>
      </trkpt>
      <trkpt lat="48.09707" lon="-3.59074">
        <ele>173.2</ele>
        <time>2025-02-25T10:26:56Z</time>
      </trkpt>
      <trkpt lat="48.09706" lon="-3.59073">
        <ele>173.3</ele>
        <time>2025-02-25T10:26:57Z</time>
      </trkpt>
      <trkpt lat="48.09705" lon="-3.59072">
        <ele>173.4</ele>
        <time>2025-02-25T10:26:58Z</time>
      </trkpt>
      <trkpt lat="48.09704" lon="-3.59071">
        <ele>173.5</ele>
        <time>2025-02-25T10:26:59Z</time>
      </trkpt>
      <trkpt lat="48.09703" lon="-3.5907">
        <ele>173.5</ele>
        <time>2025-02-25T10:27:00Z</time>
      </trkpt>
      <trkpt lat="48.09702" lon="-3.59069">
        <ele>173.6</ele>
        <time>2025-02-25T10:27:01Z</time>
      </trkpt>
      <trkpt lat="48.09701" lon="-3.59069">
        <ele>173.6</ele>
        <time>2025-02-25T10:27:02Z</time>
      </trkpt>
      <trkpt lat="48.097" lon="-3.59068">
        <ele>173.7</ele>
        <time>2025-02-25T10:27:03Z</time>
      </trkpt>
      <trkpt lat="48.09699" lon="-3.59067">
        <ele>173.8</ele>
        <time>2025-02-25T10:27:04Z</time>
      </trkpt>
      <trkpt lat="48.09698" lon="-3.59065">
        <ele>173.8</ele>
        <time>2025-02-25T10:27:05Z</time>
      </trkpt>
      <trkpt lat="48.09698" lon="-3.59064">
        <ele>173.8</ele>
        <time>2025-02-25T10:27:06Z</time>
      </trkpt>
      <trkpt lat="48.09697" lon="-3.59063">
        <ele>173.9</ele>
        <time>2025-02-25T10:27:07Z</time>
      </trkpt>
      <trkpt lat="48.09696" lon="-3.59061">
        <ele>173.9</ele>
        <time>2025-02-25T10:27:08Z</time>
      </trkpt>
      <trkpt lat="48.09696" lon="-3.5906">
        <ele>173.9</ele>
        <time>2025-02-25T10:27:09Z</time>
      </trkpt>
      <trkpt lat="48.09696" lon="-3.59059">
        <ele>173.9</ele>
        <time>2025-02-25T10:27:10Z</time>
      </trkpt>
      <trkpt lat="48.09695" lon="-3.59057">
        <ele>174</ele>
        <time>2025-02-25T10:27:11Z</time>
      </trkpt>
      <trkpt lat="48.09695" lon="-3.59056">
        <ele>174</ele>
        <time>2025-02-25T10:27:12Z</time>
      </trkpt>
      <trkpt lat="48.09695" lon="-3.59055">
        <ele>174</ele>
        <time>2025-02-25T10:27:13Z</time>
      </trkpt>
      <trkpt lat="48.09694" lon="-3.59054">
        <ele>174</ele>
        <time>2025-02-25T10:27:14Z</time>
      </trkpt>
      <trkpt lat="48.09694" lon="-3.59053">
        <ele>174</ele>
        <time>2025-02-25T10:27:15Z</time>
      </trkpt>
      <trkpt lat="48.09694" lon="-3.59051">
        <ele>174</ele>
        <time>2025-02-25T10:27:16Z</time>
      </trkpt>
      <trkpt lat="48.09695" lon="-3.5905">
        <ele>174</ele>
        <time>2025-02-25T10:27:17Z</time>
      </trkpt>
      <trkpt lat="48.09695" lon="-3.59049">
        <ele>174</ele>
        <time>2025-02-25T10:27:18Z</time>
      </trkpt>
      <trkpt lat="48.09696" lon="-3.59049">
        <ele>173.9</ele>
        <time>2025-02-25T10:27:19Z</time>
      </trkpt>
      <trkpt lat="48.09697" lon="-3.59049">
        <ele>173.9</ele>
        <time>2025-02-25T10:27:20Z</time>
      </trkpt>
      <trkpt lat="48.09698" lon="-3.59049">
        <ele>173.9</ele>
        <time>2025-02-25T10:27:21Z</time>
      </trkpt>
      <trkpt lat="48.09698" lon="-3.59049">
        <ele>173.9</ele>
        <time>2025-02-25T10:27:22Z</time>
      </trkpt>
      <trkpt lat="48.09699" lon="-3.5905">
        <ele>173.8</ele>
        <time>2025-02-25T10:27:23Z</time>
      </trkpt>
      <trkpt lat="48.097" lon="-3.5905">
        <ele>173.8</ele>
        <time>2025-02-25T10:27:24Z</time>
      </trkpt>
      <trkpt lat="48.09701" lon="-3.59049">
        <ele>173.8</ele>
        <time>2025-02-25T10:27:25Z</time>
      </trkpt>
      <trkpt lat="48.09702" lon="-3.59049">
        <ele>173.7</ele>
        <time>2025-02-25T10:27:26Z</time>
      </trkpt>
      <trkpt lat="48.09703" lon="-3.5905">
        <ele>173.7</ele>
        <time>2025-02-25T10:27:27Z</time>
      </trkpt>
      <trkpt lat="48.09703" lon="-3.5905">
        <ele>173.7</ele>
        <time>2025-02-25T10:27:28Z</time>
      </trkpt>
      <trkpt lat="48.09704" lon="-3.59051">
        <ele>173.7</ele>
        <time>2025-02-25T10:27:29Z</time>
      </trkpt>
      <trkpt lat="48.09704" lon="-3.59051">
        <ele>173.7</ele>
        <time>2025-02-25T10:27:30Z</time>
      </trkpt>
      <trkpt lat="48.09703" lon="-3.59051">
        <ele>173.7</ele>
        <time>2025-02-25T10:27:31Z</time>
      </trkpt>
      <trkpt lat="48.09704" lon="-3.59051">
        <ele>173.7</ele>
        <time>2025-02-25T10:27:32Z</time>
      </trkpt>
      <trkpt lat="48.09704" lon="-3.59051">
        <ele>173.7</ele>
        <time>2025-02-25T10:27:33Z</time>
      </trkpt>
      <trkpt lat="48.09705" lon="-3.59051">
        <ele>173.6</ele>
        <time>2025-02-25T10:27:34Z</time>
      </trkpt>
      <trkpt lat="48.09705" lon="-3.59051">
        <ele>173.6</ele>
        <time>2025-02-25T10:27:35Z</time>
      </trkpt>
      <trkpt lat="48.09705" lon="-3.59051">
        <ele>173.6</ele>
        <time>2025-02-25T10:27:36Z</time>
      </trkpt>
      <trkpt lat="48.09705" lon="-3.59051">
        <ele>173.6</ele>
        <time>2025-02-25T10:27:37Z</time>
      </trkpt>
      <trkpt lat="48.09705" lon="-3.59051">
        <ele>173.6</ele>
        <time>2025-02-25T10:27:38Z</time>
      </trkpt>
      <trkpt lat="48.09705" lon="-3.59051">
        <ele>173.6</ele>
        <time>2025-02-25T10:27:39Z</time>
      </trkpt>
      <trkpt lat="48.09705" lon="-3.59051">
        <ele>173.6</ele>
        <time>2025-02-25T10:27:40Z</time>
      </trkpt>
      <trkpt lat="48.09705" lon="-3.59051">
        <ele>173.6</ele>
        <time>2025-02-25T10:27:41Z</time>
      </trkpt>
      <trkpt lat="48.09705" lon="-3.59051">
        <ele>173.6</ele>
        <time>2025-02-25T10:27:42Z</time>
      </trkpt>
      <trkpt lat="48.09706" lon="-3.59051">
        <ele>173.6</ele>
        <time>2025-02-25T10:27:43Z</time>
      </trkpt>
      <trkpt lat="48.09706" lon="-3.59051">
        <ele>173.6</ele>
        <time>2025-02-25T10:27:44Z</time>
      </trkpt>
      <trkpt lat="48.09707" lon="-3.59051">
        <ele>173.5</ele>
        <time>2025-02-25T10:27:45Z</time>
      </trkpt>
      <trkpt lat="48.09708" lon="-3.59051">
        <ele>173.5</ele>
        <time>2025-02-25T10:27:46Z</time>
      </trkpt>
      <trkpt lat="48.09708" lon="-3.59052">
        <ele>173.5</ele>
        <time>2025-02-25T10:27:47Z</time>
      </trkpt>
      <trkpt lat="48.09709" lon="-3.59052">
        <ele>173.5</ele>
        <time>2025-02-25T10:27:48Z</time>
      </trkpt>
      <trkpt lat="48.0971" lon="-3.59053">
        <ele>173.4</ele>
        <time>2025-02-25T10:27:49Z</time>
      </trkpt>
      <trkpt lat="48.0971" lon="-3.59053">
        <ele>173.4</ele>
        <time>2025-02-25T10:27:50Z</time>
      </trkpt>
      <trkpt lat="48.09711" lon="-3.59052">
        <ele>173.4</ele>
        <time>2025-02-25T10:27:51Z</time>
      </trkpt>
      <trkpt lat="48.09712" lon="-3.59053">
        <ele>173.4</ele>
        <time>2025-02-25T10:27:52Z</time>
      </trkpt>
      <trkpt lat="48.09712" lon="-3.59052">
        <ele>173.4</ele>
        <time>2025-02-25T10:27:53Z</time>
      </trkpt>
      <trkpt lat="48.09713" lon="-3.59052">
        <ele>173.3</ele>
        <time>2025-02-25T10:27:54Z</time>
      </trkpt>
      <trkpt lat="48.09713" lon="-3.59052">
        <ele>173.3</ele>
        <time>2025-02-25T10:27:55Z</time>
      </trkpt>
      <trkpt lat="48.09714" lon="-3.59052">
        <ele>173.3</ele>
        <time>2025-02-25T10:27:56Z</time>
      </trkpt>
      <trkpt lat="48.09715" lon="-3.59052">
        <ele>173.3</ele>
        <time>2025-02-25T10:27:57Z</time>
      </trkpt>
      <trkpt lat="48.09716" lon="-3.59052">
        <ele>173.2</ele>
        <time>2025-02-25T10:27:58Z</time>
      </trkpt>
      <trkpt lat="48.09716" lon="-3.59052">
        <ele>173.2</ele>
        <time>2025-02-25T10:27:59Z</time>
      </trkpt>
      <trkpt lat="48.09717" lon="-3.59052">
        <ele>173.2</ele>
        <time>2025-02-25T10:28:00Z</time>
      </trkpt>
      <trkpt lat="48.09718" lon="-3.59052">
        <ele>173.2</ele>
        <time>2025-02-25T10:28:01Z</time>
      </trkpt>
      <trkpt lat="48.09719" lon="-3.59052">
        <ele>173.1</ele>
        <time>2025-02-25T10:28:02Z</time>
      </trkpt>
      <trkpt lat="48.09719" lon="-3.59053">
        <ele>173.1</ele>
        <time>2025-02-25T10:28:03Z</time>
      </trkpt>
      <trkpt lat="48.0972" lon="-3.59053">
        <ele>173.1</ele>
        <time>2025-02-25T10:28:04Z</time>
      </trkpt>
      <trkpt lat="48.09721" lon="-3.59053">
        <ele>173</ele>
        <time>2025-02-25T10:28:05Z</time>
      </trkpt>
      <trkpt lat="48.09722" lon="-3.59053">
        <ele>173</ele>
        <time>2025-02-25T10:28:06Z</time>
      </trkpt>
      <trkpt lat="48.09723" lon="-3.59054">
        <ele>173</ele>
        <time>2025-02-25T10:28:07Z</time>
      </trkpt>
      <trkpt lat="48.09724" lon="-3.59054">
        <ele>173</ele>
        <time>2025-02-25T10:28:08Z</time>
      </trkpt>
      <trkpt lat="48.09725" lon="-3.59054">
        <ele>173</ele>
        <time>2025-02-25T10:28:09Z</time>
      </trkpt>
      <trkpt lat="48.09726" lon="-3.59054">
        <ele>173</ele>
        <time>2025-02-25T10:28:10Z</time>
      </trkpt>
      <trkpt lat="48.09726" lon="-3.59054">
        <ele>173</ele>
        <time>2025-02-25T10:28:11Z</time>
      </trkpt>
      <trkpt lat="48.09727" lon="-3.59054">
        <ele>173</ele>
        <time>2025-02-25T10:28:12Z</time>
      </trkpt>
      <trkpt lat="48.09728" lon="-3.59054">
        <ele>173</ele>
        <time>2025-02-25T10:28:13Z</time>
      </trkpt>
      <trkpt lat="48.0973" lon="-3.59054">
        <ele>173</ele>
        <time>2025-02-25T10:28:14Z</time>
      </trkpt>
      <trkpt lat="48.0973" lon="-3.59056">
        <ele>173</ele>
        <time>2025-02-25T10:28:15Z</time>
      </trkpt>
      <trkpt lat="48.09732" lon="-3.59056">
        <ele>173</ele>
        <time>2025-02-25T10:28:16Z</time>
      </trkpt>
      <trkpt lat="48.09733" lon="-3.59055">
        <ele>173</ele>
        <time>2025-02-25T10:28:17Z</time>
      </trkpt>
      <trkpt lat="48.09734" lon="-3.59056">
        <ele>173</ele>
        <time>2025-02-25T10:28:18Z</time>
      </trkpt>
      <trkpt lat="48.09736" lon="-3.59056">
        <ele>173</ele>
        <time>2025-02-25T10:28:19Z</time>
      </trkpt>
      <trkpt lat="48.09736" lon="-3.59056">
        <ele>173</ele>
        <time>2025-02-25T10:28:20Z</time>
      </trkpt>
      <trkpt lat="48.09737" lon="-3.59055">
        <ele>173</ele>
        <time>2025-02-25T10:28:21Z</time>
      </trkpt>
      <trkpt lat="48.09739" lon="-3.59055">
        <ele>173</ele>
        <time>2025-02-25T10:28:22Z</time>
      </trkpt>
      <trkpt lat="48.0974" lon="-3.59055">
        <ele>173</ele>
        <time>2025-02-25T10:28:23Z</time>
      </trkpt>
      <trkpt lat="48.09742" lon="-3.59055">
        <ele>173</ele>
        <time>2025-02-25T10:28:24Z</time>
      </trkpt>
      <trkpt lat="48.09743" lon="-3.59055">
        <ele>173</ele>
        <time>2025-02-25T10:28:25Z</time>
      </trkpt>
      <trkpt lat="48.09744" lon="-3.59055">
        <ele>173</ele>
        <time>2025-02-25T10:28:26Z</time>
      </trkpt>
      <trkpt lat="48.09745" lon="-3.59055">
        <ele>173</ele>
        <time>2025-02-25T10:28:27Z</time>
      </trkpt>
      <trkpt lat="48.09746" lon="-3.59055">
        <ele>173</ele>
        <time>2025-02-25T10:28:28Z</time>
      </trkpt>
      <trkpt lat="48.09748" lon="-3.59056">
        <ele>173</ele>
        <time>2025-02-25T10:28:29Z</time>
      </trkpt>
      <trkpt lat="48.09749" lon="-3.59056">
        <ele>173</ele>
        <time>2025-02-25T10:28:30Z</time>
      </trkpt>
      <trkpt lat="48.0975" lon="-3.59056">
        <ele>173</ele>
        <time>2025-02-25T10:28:31Z</time>
      </trkpt>
      <trkpt lat="48.09751" lon="-3.59056">
        <ele>173</ele>
        <time>2025-02-25T10:28:32Z</time>
      </trkpt>
      <trkpt lat="48.09752" lon="-3.59056">
        <ele>173</ele>
        <time>2025-02-25T10:28:33Z</time>
      </trkpt>
      <trkpt lat="48.09753" lon="-3.59056">
        <ele>173</ele>
        <time>2025-02-25T10:28:34Z</time>
      </trkpt>
      <trkpt lat="48.09754" lon="-3.59056">
        <ele>173</ele>
        <time>2025-02-25T10:28:35Z</time>
      </trkpt>
      <trkpt lat="48.09755" lon="-3.59056">
        <ele>173</ele>
        <time>2025-02-25T10:28:36Z</time>
      </trkpt>
      <trkpt lat="48.09756" lon="-3.59056">
        <ele>173</ele>
        <time>2025-02-25T10:28:37Z</time>
      </trkpt>
      <trkpt lat="48.09757" lon="-3.59056">
        <ele>173</ele>
        <time>2025-02-25T10:28:38Z</time>
      </trkpt>
      <trkpt lat="48.09759" lon="-3.59056">
        <ele>173</ele>
        <time>2025-02-25T10:28:39Z</time>
      </trkpt>
      <trkpt lat="48.0976" lon="-3.59057">
        <ele>172.9</ele>
        <time>2025-02-25T10:28:40Z</time>
      </trkpt>
      <trkpt lat="48.09761" lon="-3.59057">
        <ele>172.9</ele>
        <time>2025-02-25T10:28:41Z</time>
      </trkpt>
      <trkpt lat="48.09762" lon="-3.59057">
        <ele>172.9</ele>
        <time>2025-02-25T10:28:42Z</time>
      </trkpt>
      <trkpt lat="48.09764" lon="-3.59057">
        <ele>172.9</ele>
        <time>2025-02-25T10:28:43Z</time>
      </trkpt>
      <trkpt lat="48.09765" lon="-3.59057">
        <ele>172.9</ele>
        <time>2025-02-25T10:28:44Z</time>
      </trkpt>
      <trkpt lat="48.09766" lon="-3.59058">
        <ele>172.9</ele>
        <time>2025-02-25T10:28:45Z</time>
      </trkpt>
      <trkpt lat="48.09767" lon="-3.59058">
        <ele>172.9</ele>
        <time>2025-02-25T10:28:46Z</time>
      </trkpt>
      <trkpt lat="48.09768" lon="-3.59058">
        <ele>172.9</ele>
        <time>2025-02-25T10:28:47Z</time>
      </trkpt>
      <trkpt lat="48.09769" lon="-3.59058">
        <ele>172.9</ele>
        <time>2025-02-25T10:28:48Z</time>
      </trkpt>
      <trkpt lat="48.09771" lon="-3.59058">
        <ele>172.9</ele>
        <time>2025-02-25T10:28:49Z</time>
      </trkpt>
      <trkpt lat="48.09772" lon="-3.59058">
        <ele>172.9</ele>
        <time>2025-02-25T10:28:50Z</time>
      </trkpt>
      <trkpt lat="48.09773" lon="-3.59058">
        <ele>172.9</ele>
        <time>2025-02-25T10:28:51Z</time>
      </trkpt>
      <trkpt lat="48.09774" lon="-3.59058">
        <ele>172.9</ele>
        <time>2025-02-25T10:28:52Z</time>
      </trkpt>
      <trkpt lat="48.09775" lon="-3.59058">
        <ele>172.9</ele>
        <time>2025-02-25T10:28:53Z</time>
      </trkpt>
      <trkpt lat="48.09776" lon="-3.59058">
        <ele>172.9</ele>
        <time>2025-02-25T10:28:54Z</time>
      </trkpt>
      <trkpt lat="48.09778" lon="-3.59059">
        <ele>172.9</ele>
        <time>2025-02-25T10:28:55Z</time>
      </trkpt>
      <trkpt lat="48.09779" lon="-3.59059">
        <ele>172.9</ele>
        <time>2025-02-25T10:28:56Z</time>
      </trkpt>
      <trkpt lat="48.0978" lon="-3.59059">
        <ele>172.9</ele>
        <time>2025-02-25T10:28:57Z</time>
      </trkpt>
      <trkpt lat="48.09781" lon="-3.59059">
        <ele>172.9</ele>
        <time>2025-02-25T10:28:58Z</time>
      </trkpt>
      <trkpt lat="48.09782" lon="-3.59059">
        <ele>172.9</ele>
        <time>2025-02-25T10:28:59Z</time>
      </trkpt>
      <trkpt lat="48.09783" lon="-3.59059">
        <ele>172.9</ele>
        <time>2025-02-25T10:29:00Z</time>
      </trkpt>
      <trkpt lat="48.09785" lon="-3.5906">
        <ele>172.9</ele>
        <time>2025-02-25T10:29:01Z</time>
      </trkpt>
      <trkpt lat="48.09786" lon="-3.5906">
        <ele>172.9</ele>
        <time>2025-02-25T10:29:02Z</time>
      </trkpt>
      <trkpt lat="48.09787" lon="-3.59061">
        <ele>172.9</ele>
        <time>2025-02-25T10:29:03Z</time>
      </trkpt>
      <trkpt lat="48.09788" lon="-3.59061">
        <ele>172.9</ele>
        <time>2025-02-25T10:29:04Z</time>
      </trkpt>
      <trkpt lat="48.09789" lon="-3.59061">
        <ele>172.9</ele>
        <time>2025-02-25T10:29:05Z</time>
      </trkpt>
      <trkpt lat="48.09791" lon="-3.59061">
        <ele>172.9</ele>
        <time>2025-02-25T10:29:06Z</time>
      </trkpt>
      <trkpt lat="48.09792" lon="-3.5906">
        <ele>172.9</ele>
        <time>2025-02-25T10:29:07Z</time>
      </trkpt>
      <trkpt lat="48.09793" lon="-3.5906">
        <ele>172.9</ele>
        <time>2025-02-25T10:29:08Z</time>
      </trkpt>
      <trkpt lat="48.09794" lon="-3.5906">
        <ele>172.9</ele>
        <time>2025-02-25T10:29:09Z</time>
      </trkpt>
      <trkpt lat="48.09795" lon="-3.5906">
        <ele>172.9</ele>
        <time>2025-02-25T10:29:10Z</time>
      </trkpt>
      <trkpt lat="48.09796" lon="-3.59061">
        <ele>172.9</ele>
        <time>2025-02-25T10:29:11Z</time>
      </trkpt>
      <trkpt lat="48.09798" lon="-3.59061">
        <ele>172.9</ele>
        <time>2025-02-25T10:29:12Z</time>
      </trkpt>
      <trkpt lat="48.09799" lon="-3.59061">
        <ele>173</ele>
        <time>2025-02-25T10:29:13Z</time>
      </trkpt>
      <trkpt lat="48.098" lon="-3.59061">
        <ele>173</ele>
        <time>2025-02-25T10:29:14Z</time>
      </trkpt>
      <trkpt lat="48.09801" lon="-3.59061">
        <ele>173</ele>
        <time>2025-02-25T10:29:15Z</time>
      </trkpt>
      <trkpt lat="48.09802" lon="-3.5906">
        <ele>173</ele>
        <time>2025-02-25T10:29:16Z</time>
      </trkpt>
      <trkpt lat="48.09803" lon="-3.59061">
        <ele>173</ele>
        <time>2025-02-25T10:29:17Z</time>
      </trkpt>
      <trkpt lat="48.09804" lon="-3.59061">
        <ele>173</ele>
        <time>2025-02-25T10:29:18Z</time>
      </trkpt>
      <trkpt lat="48.09805" lon="-3.59061">
        <ele>173</ele>
        <time>2025-02-25T10:29:19Z</time>
      </trkpt>
      <trkpt lat="48.09806" lon="-3.59061">
        <ele>173</ele>
        <time>2025-02-25T10:29:20Z</time>
      </trkpt>
      <trkpt lat="48.09807" lon="-3.59061">
        <ele>173</ele>
        <time>2025-02-25T10:29:21Z</time>
      </trkpt>
      <trkpt lat="48.09808" lon="-3.59061">
        <ele>173</ele>
        <time>2025-02-25T10:29:22Z</time>
      </trkpt>
      <trkpt lat="48.0981" lon="-3.59061">
        <ele>173</ele>
        <time>2025-02-25T10:29:23Z</time>
      </trkpt>
      <trkpt lat="48.09811" lon="-3.59062">
        <ele>173</ele>
        <time>2025-02-25T10:29:24Z</time>
      </trkpt>
      <trkpt lat="48.09812" lon="-3.59062">
        <ele>173</ele>
        <time>2025-02-25T10:29:25Z</time>
      </trkpt>
      <trkpt lat="48.09813" lon="-3.59062">
        <ele>173</ele>
        <time>2025-02-25T10:29:26Z</time>
      </trkpt>
      <trkpt lat="48.09814" lon="-3.59062">
        <ele>173</ele>
        <time>2025-02-25T10:29:27Z</time>
      </trkpt>
      <trkpt lat="48.09815" lon="-3.59062">
        <ele>173</ele>
        <time>2025-02-25T10:29:28Z</time>
      </trkpt>
      <trkpt lat="48.09816" lon="-3.59062">
        <ele>173</ele>
        <time>2025-02-25T10:29:29Z</time>
      </trkpt>
      <trkpt lat="48.09817" lon="-3.59062">
        <ele>173</ele>
        <time>2025-02-25T10:29:30Z</time>
      </trkpt>
      <trkpt lat="48.09819" lon="-3.59062">
        <ele>173</ele>
        <time>2025-02-25T10:29:31Z</time>
      </trkpt>
      <trkpt lat="48.0982" lon="-3.59061">
        <ele>173</ele>
        <time>2025-02-25T10:29:32Z</time>
      </trkpt>
      <trkpt lat="48.09821" lon="-3.59061">
        <ele>173</ele>
        <time>2025-02-25T10:29:33Z</time>
      </trkpt>
      <trkpt lat="48.09822" lon="-3.59062">
        <ele>173</ele>
        <time>2025-02-25T10:29:34Z</time>
      </trkpt>
      <trkpt lat="48.09823" lon="-3.59062">
        <ele>173</ele>
        <time>2025-02-25T10:29:35Z</time>
      </trkpt>
      <trkpt lat="48.09825" lon="-3.59063">
        <ele>173</ele>
        <time>2025-02-25T10:29:36Z</time>
      </trkpt>
      <trkpt lat="48.09826" lon="-3.59063">
        <ele>173</ele>
        <time>2025-02-25T10:29:37Z</time>
      </trkpt>
      <trkpt lat="48.09827" lon="-3.59063">
        <ele>173</ele>
        <time>2025-02-25T10:29:38Z</time>
      </trkpt>
      <trkpt lat="48.09828" lon="-3.59063">
        <ele>173</ele>
        <time>2025-02-25T10:29:39Z</time>
      </trkpt>
      <trkpt lat="48.09829" lon="-3.59063">
        <ele>173</ele>
        <time>2025-02-25T10:29:40Z</time>
      </trkpt>
      <trkpt lat="48.0983" lon="-3.59063">
        <ele>173</ele>
        <time>2025-02-25T10:29:41Z</time>
      </trkpt>
      <trkpt lat="48.09831" lon="-3.59063">
        <ele>173</ele>
        <time>2025-02-25T10:29:42Z</time>
      </trkpt>
      <trkpt lat="48.09833" lon="-3.59063">
        <ele>173</ele>
        <time>2025-02-25T10:29:43Z</time>
      </trkpt>
      <trkpt lat="48.09834" lon="-3.59063">
        <ele>173</ele>
        <time>2025-02-25T10:29:44Z</time>
      </trkpt>
      <trkpt lat="48.09835" lon="-3.59063">
        <ele>173.1</ele>
        <time>2025-02-25T10:29:45Z</time>
      </trkpt>
      <trkpt lat="48.09836" lon="-3.59063">
        <ele>173.1</ele>
        <time>2025-02-25T10:29:46Z</time>
      </trkpt>
      <trkpt lat="48.09838" lon="-3.59064">
        <ele>173.2</ele>
        <time>2025-02-25T10:29:47Z</time>
      </trkpt>
      <trkpt lat="48.09839" lon="-3.59064">
        <ele>173.2</ele>
        <time>2025-02-25T10:29:48Z</time>
      </trkpt>
      <trkpt lat="48.0984" lon="-3.59065">
        <ele>173.2</ele>
        <time>2025-02-25T10:29:49Z</time>
      </trkpt>
      <trkpt lat="48.09841" lon="-3.59064">
        <ele>173.3</ele>
        <time>2025-02-25T10:29:50Z</time>
      </trkpt>
      <trkpt lat="48.09842" lon="-3.59064">
        <ele>173.3</ele>
        <time>2025-02-25T10:29:51Z</time>
      </trkpt>
      <trkpt lat="48.09843" lon="-3.59065">
        <ele>173.3</ele>
        <time>2025-02-25T10:29:52Z</time>
      </trkpt>
      <trkpt lat="48.09844" lon="-3.59065">
        <ele>173.4</ele>
        <time>2025-02-25T10:29:53Z</time>
      </trkpt>
      <trkpt lat="48.09845" lon="-3.59064">
        <ele>173.4</ele>
        <time>2025-02-25T10:29:54Z</time>
      </trkpt>
      <trkpt lat="48.09846" lon="-3.59064">
        <ele>173.5</ele>
        <time>2025-02-25T10:29:55Z</time>
      </trkpt>
      <trkpt lat="48.09848" lon="-3.59065">
        <ele>173.5</ele>
        <time>2025-02-25T10:29:56Z</time>
      </trkpt>
      <trkpt lat="48.09849" lon="-3.59065">
        <ele>173.6</ele>
        <time>2025-02-25T10:29:57Z</time>
      </trkpt>
      <trkpt lat="48.0985" lon="-3.59065">
        <ele>173.6</ele>
        <time>2025-02-25T10:29:58Z</time>
      </trkpt>
      <trkpt lat="48.09851" lon="-3.59065">
        <ele>173.6</ele>
        <time>2025-02-25T10:29:59Z</time>
      </trkpt>
      <trkpt lat="48.09852" lon="-3.59066">
        <ele>173.7</ele>
        <time>2025-02-25T10:30:00Z</time>
      </trkpt>
      <trkpt lat="48.09853" lon="-3.59066">
        <ele>173.7</ele>
        <time>2025-02-25T10:30:01Z</time>
      </trkpt>
      <trkpt lat="48.09854" lon="-3.59066">
        <ele>173.7</ele>
        <time>2025-02-25T10:30:02Z</time>
      </trkpt>
      <trkpt lat="48.09855" lon="-3.59066">
        <ele>173.8</ele>
        <time>2025-02-25T10:30:03Z</time>
      </trkpt>
      <trkpt lat="48.09857" lon="-3.59066">
        <ele>173.9</ele>
        <time>2025-02-25T10:30:04Z</time>
      </trkpt>
      <trkpt lat="48.09858" lon="-3.59066">
        <ele>173.9</ele>
        <time>2025-02-25T10:30:05Z</time>
      </trkpt>
      <trkpt lat="48.09859" lon="-3.59066">
        <ele>173.9</ele>
        <time>2025-02-25T10:30:06Z</time>
      </trkpt>
      <trkpt lat="48.0986" lon="-3.59067">
        <ele>174</ele>
        <time>2025-02-25T10:30:07Z</time>
      </trkpt>
      <trkpt lat="48.09861" lon="-3.59067">
        <ele>174</ele>
        <time>2025-02-25T10:30:08Z</time>
      </trkpt>
      <trkpt lat="48.09863" lon="-3.59067">
        <ele>174.1</ele>
        <time>2025-02-25T10:30:09Z</time>
      </trkpt>
      <trkpt lat="48.09863" lon="-3.59067">
        <ele>174.1</ele>
        <time>2025-02-25T10:30:10Z</time>
      </trkpt>
      <trkpt lat="48.09865" lon="-3.59068">
        <ele>174.2</ele>
        <time>2025-02-25T10:30:11Z</time>
      </trkpt>
      <trkpt lat="48.09866" lon="-3.59068">
        <ele>174.3</ele>
        <time>2025-02-25T10:30:12Z</time>
      </trkpt>
      <trkpt lat="48.09867" lon="-3.59069">
        <ele>174.3</ele>
        <time>2025-02-25T10:30:13Z</time>
      </trkpt>
      <trkpt lat="48.09868" lon="-3.59069">
        <ele>174.4</ele>
        <time>2025-02-25T10:30:14Z</time>
      </trkpt>
      <trkpt lat="48.09869" lon="-3.59069">
        <ele>174.4</ele>
        <time>2025-02-25T10:30:15Z</time>
      </trkpt>
      <trkpt lat="48.0987" lon="-3.5907">
        <ele>174.5</ele>
        <time>2025-02-25T10:30:16Z</time>
      </trkpt>
      <trkpt lat="48.09871" lon="-3.5907">
        <ele>174.5</ele>
        <time>2025-02-25T10:30:17Z</time>
      </trkpt>
      <trkpt lat="48.09872" lon="-3.5907">
        <ele>174.6</ele>
        <time>2025-02-25T10:30:18Z</time>
      </trkpt>
      <trkpt lat="48.09874" lon="-3.5907">
        <ele>174.7</ele>
        <time>2025-02-25T10:30:19Z</time>
      </trkpt>
      <trkpt lat="48.09875" lon="-3.59071">
        <ele>174.8</ele>
        <time>2025-02-25T10:30:20Z</time>
      </trkpt>
      <trkpt lat="48.09876" lon="-3.59071">
        <ele>174.8</ele>
        <time>2025-02-25T10:30:21Z</time>
      </trkpt>
      <trkpt lat="48.09877" lon="-3.59071">
        <ele>174.9</ele>
        <time>2025-02-25T10:30:22Z</time>
      </trkpt>
      <trkpt lat="48.09878" lon="-3.5907">
        <ele>174.9</ele>
        <time>2025-02-25T10:30:23Z</time>
      </trkpt>
      <trkpt lat="48.09879" lon="-3.5907">
        <ele>175</ele>
        <time>2025-02-25T10:30:24Z</time>
      </trkpt>
      <trkpt lat="48.09881" lon="-3.59071">
        <ele>175.1</ele>
        <time>2025-02-25T10:30:25Z</time>
      </trkpt>
      <trkpt lat="48.09882" lon="-3.59071">
        <ele>175.2</ele>
        <time>2025-02-25T10:30:26Z</time>
      </trkpt>
      <trkpt lat="48.09883" lon="-3.59073">
        <ele>175.3</ele>
        <time>2025-02-25T10:30:27Z</time>
      </trkpt>
      <trkpt lat="48.09884" lon="-3.59073">
        <ele>175.3</ele>
        <time>2025-02-25T10:30:28Z</time>
      </trkpt>
      <trkpt lat="48.09885" lon="-3.59074">
        <ele>175.4</ele>
        <time>2025-02-25T10:30:29Z</time>
      </trkpt>
      <trkpt lat="48.09886" lon="-3.59074">
        <ele>175.5</ele>
        <time>2025-02-25T10:30:30Z</time>
      </trkpt>
      <trkpt lat="48.09887" lon="-3.59075">
        <ele>175.6</ele>
        <time>2025-02-25T10:30:31Z</time>
      </trkpt>
      <trkpt lat="48.09888" lon="-3.59075">
        <ele>175.6</ele>
        <time>2025-02-25T10:30:32Z</time>
      </trkpt>
      <trkpt lat="48.09889" lon="-3.59076">
        <ele>175.7</ele>
        <time>2025-02-25T10:30:33Z</time>
      </trkpt>
      <trkpt lat="48.09891" lon="-3.59077">
        <ele>175.9</ele>
        <time>2025-02-25T10:30:34Z</time>
      </trkpt>
      <trkpt lat="48.09891" lon="-3.59078">
        <ele>176</ele>
        <time>2025-02-25T10:30:35Z</time>
      </trkpt>
      <trkpt lat="48.09893" lon="-3.59078">
        <ele>176.1</ele>
        <time>2025-02-25T10:30:36Z</time>
      </trkpt>
      <trkpt lat="48.09894" lon="-3.59078">
        <ele>176.2</ele>
        <time>2025-02-25T10:30:37Z</time>
      </trkpt>
      <trkpt lat="48.09895" lon="-3.59079">
        <ele>176.3</ele>
        <time>2025-02-25T10:30:38Z</time>
      </trkpt>
      <trkpt lat="48.09896" lon="-3.5908">
        <ele>176.4</ele>
        <time>2025-02-25T10:30:39Z</time>
      </trkpt>
      <trkpt lat="48.09897" lon="-3.5908">
        <ele>176.5</ele>
        <time>2025-02-25T10:30:40Z</time>
      </trkpt>
      <trkpt lat="48.09898" lon="-3.5908">
        <ele>176.5</ele>
        <time>2025-02-25T10:30:41Z</time>
      </trkpt>
      <trkpt lat="48.09899" lon="-3.59081">
        <ele>176.6</ele>
        <time>2025-02-25T10:30:42Z</time>
      </trkpt>
      <trkpt lat="48.099" lon="-3.59082">
        <ele>176.8</ele>
        <time>2025-02-25T10:30:43Z</time>
      </trkpt>
      <trkpt lat="48.09901" lon="-3.59082">
        <ele>176.8</ele>
        <time>2025-02-25T10:30:44Z</time>
      </trkpt>
      <trkpt lat="48.09902" lon="-3.59082">
        <ele>176.9</ele>
        <time>2025-02-25T10:30:45Z</time>
      </trkpt>
      <trkpt lat="48.09903" lon="-3.59084">
        <ele>177</ele>
        <time>2025-02-25T10:30:46Z</time>
      </trkpt>
      <trkpt lat="48.09904" lon="-3.59085">
        <ele>177.1</ele>
        <time>2025-02-25T10:30:47Z</time>
      </trkpt>
      <trkpt lat="48.09905" lon="-3.59086">
        <ele>177.1</ele>
        <time>2025-02-25T10:30:48Z</time>
      </trkpt>
      <trkpt lat="48.09906" lon="-3.59086">
        <ele>177.2</ele>
        <time>2025-02-25T10:30:49Z</time>
      </trkpt>
      <trkpt lat="48.09907" lon="-3.59086">
        <ele>177.2</ele>
        <time>2025-02-25T10:30:50Z</time>
      </trkpt>
      <trkpt lat="48.09908" lon="-3.59086">
        <ele>177.3</ele>
        <time>2025-02-25T10:30:51Z</time>
      </trkpt>
      <trkpt lat="48.09909" lon="-3.59086">
        <ele>177.4</ele>
        <time>2025-02-25T10:30:52Z</time>
      </trkpt>
      <trkpt lat="48.0991" lon="-3.59086">
        <ele>177.4</ele>
        <time>2025-02-25T10:30:53Z</time>
      </trkpt>
      <trkpt lat="48.09911" lon="-3.59087">
        <ele>177.5</ele>
        <time>2025-02-25T10:30:54Z</time>
      </trkpt>
      <trkpt lat="48.09913" lon="-3.59087">
        <ele>177.6</ele>
        <time>2025-02-25T10:30:55Z</time>
      </trkpt>
      <trkpt lat="48.09914" lon="-3.59088">
        <ele>177.7</ele>
        <time>2025-02-25T10:30:56Z</time>
      </trkpt>
      <trkpt lat="48.09915" lon="-3.59088">
        <ele>177.7</ele>
        <time>2025-02-25T10:30:57Z</time>
      </trkpt>
      <trkpt lat="48.09916" lon="-3.59089">
        <ele>177.8</ele>
        <time>2025-02-25T10:30:58Z</time>
      </trkpt>
      <trkpt lat="48.09917" lon="-3.59089">
        <ele>177.8</ele>
        <time>2025-02-25T10:30:59Z</time>
      </trkpt>
      <trkpt lat="48.09918" lon="-3.59089">
        <ele>177.9</ele>
        <time>2025-02-25T10:31:00Z</time>
      </trkpt>
      <trkpt lat="48.09919" lon="-3.5909">
        <ele>177.9</ele>
        <time>2025-02-25T10:31:01Z</time>
      </trkpt>
      <trkpt lat="48.0992" lon="-3.59089">
        <ele>177.9</ele>
        <time>2025-02-25T10:31:02Z</time>
      </trkpt>
      <trkpt lat="48.09921" lon="-3.59089">
        <ele>178</ele>
        <time>2025-02-25T10:31:03Z</time>
      </trkpt>
      <trkpt lat="48.09922" lon="-3.59089">
        <ele>178</ele>
        <time>2025-02-25T10:31:04Z</time>
      </trkpt>
      <trkpt lat="48.09923" lon="-3.5909">
        <ele>178</ele>
        <time>2025-02-25T10:31:05Z</time>
      </trkpt>
      <trkpt lat="48.09924" lon="-3.5909">
        <ele>178.1</ele>
        <time>2025-02-25T10:31:06Z</time>
      </trkpt>
      <trkpt lat="48.09925" lon="-3.5909">
        <ele>178.1</ele>
        <time>2025-02-25T10:31:07Z</time>
      </trkpt>
      <trkpt lat="48.09926" lon="-3.5909">
        <ele>178.2</ele>
        <time>2025-02-25T10:31:08Z</time>
      </trkpt>
      <trkpt lat="48.09927" lon="-3.5909">
        <ele>178.2</ele>
        <time>2025-02-25T10:31:09Z</time>
      </trkpt>
      <trkpt lat="48.09928" lon="-3.5909">
        <ele>178.3</ele>
        <time>2025-02-25T10:31:10Z</time>
      </trkpt>
      <trkpt lat="48.09929" lon="-3.59091">
        <ele>178.3</ele>
        <time>2025-02-25T10:31:11Z</time>
      </trkpt>
      <trkpt lat="48.0993" lon="-3.5909">
        <ele>178.4</ele>
        <time>2025-02-25T10:31:12Z</time>
      </trkpt>
      <trkpt lat="48.09931" lon="-3.59091">
        <ele>178.4</ele>
        <time>2025-02-25T10:31:13Z</time>
      </trkpt>
      <trkpt lat="48.09932" lon="-3.59091">
        <ele>178.4</ele>
        <time>2025-02-25T10:31:14Z</time>
      </trkpt>
      <trkpt lat="48.09933" lon="-3.59092">
        <ele>178.5</ele>
        <time>2025-02-25T10:31:15Z</time>
      </trkpt>
      <trkpt lat="48.09934" lon="-3.59092">
        <ele>178.5</ele>
        <time>2025-02-25T10:31:16Z</time>
      </trkpt>
      <trkpt lat="48.09935" lon="-3.59092">
        <ele>178.6</ele>
        <time>2025-02-25T10:31:17Z</time>
      </trkpt>
      <trkpt lat="48.09936" lon="-3.59092">
        <ele>178.6</ele>
        <time>2025-02-25T10:31:18Z</time>
      </trkpt>
      <trkpt lat="48.09938" lon="-3.59092">
        <ele>178.7</ele>
        <time>2025-02-25T10:31:19Z</time>
      </trkpt>
      <trkpt lat="48.09939" lon="-3.59092">
        <ele>178.7</ele>
        <time>2025-02-25T10:31:20Z</time>
      </trkpt>
      <trkpt lat="48.0994" lon="-3.59091">
        <ele>178.8</ele>
        <time>2025-02-25T10:31:21Z</time>
      </trkpt>
      <trkpt lat="48.09941" lon="-3.59091">
        <ele>178.8</ele>
        <time>2025-02-25T10:31:22Z</time>
      </trkpt>
      <trkpt lat="48.09942" lon="-3.59091">
        <ele>178.9</ele>
        <time>2025-02-25T10:31:23Z</time>
      </trkpt>
      <trkpt lat="48.09943" lon="-3.59091">
        <ele>178.9</ele>
        <time>2025-02-25T10:31:24Z</time>
      </trkpt>
      <trkpt lat="48.09944" lon="-3.59091">
        <ele>179</ele>
        <time>2025-02-25T10:31:25Z</time>
      </trkpt>
      <trkpt lat="48.09945" lon="-3.59091">
        <ele>179</ele>
        <time>2025-02-25T10:31:26Z</time>
      </trkpt>
      <trkpt lat="48.09946" lon="-3.59091">
        <ele>179.1</ele>
        <time>2025-02-25T10:31:27Z</time>
      </trkpt>
      <trkpt lat="48.09947" lon="-3.5909">
        <ele>179.2</ele>
        <time>2025-02-25T10:31:28Z</time>
      </trkpt>
      <trkpt lat="48.09948" lon="-3.5909">
        <ele>179.3</ele>
        <time>2025-02-25T10:31:29Z</time>
      </trkpt>
      <trkpt lat="48.0995" lon="-3.59089">
        <ele>179.4</ele>
        <time>2025-02-25T10:31:30Z</time>
      </trkpt>
      <trkpt lat="48.09951" lon="-3.59089">
        <ele>179.5</ele>
        <time>2025-02-25T10:31:31Z</time>
      </trkpt>
      <trkpt lat="48.09951" lon="-3.59089">
        <ele>179.5</ele>
        <time>2025-02-25T10:31:32Z</time>
      </trkpt>
      <trkpt lat="48.09952" lon="-3.59089">
        <ele>179.5</ele>
        <time>2025-02-25T10:31:33Z</time>
      </trkpt>
      <trkpt lat="48.09953" lon="-3.59089">
        <ele>179.6</ele>
        <time>2025-02-25T10:31:34Z</time>
      </trkpt>
      <trkpt lat="48.09955" lon="-3.59089">
        <ele>179.8</ele>
        <time>2025-02-25T10:31:35Z</time>
      </trkpt>
      <trkpt lat="48.09956" lon="-3.59088">
        <ele>179.8</ele>
        <time>2025-02-25T10:31:36Z</time>
      </trkpt>
      <trkpt lat="48.09957" lon="-3.59088">
        <ele>179.9</ele>
        <time>2025-02-25T10:31:37Z</time>
      </trkpt>
      <trkpt lat="48.09958" lon="-3.59087">
        <ele>180</ele>
        <time>2025-02-25T10:31:38Z</time>
      </trkpt>
      <trkpt lat="48.09959" lon="-3.59087">
        <ele>180</ele>
        <time>2025-02-25T10:31:39Z</time>
      </trkpt>
      <trkpt lat="48.0996" lon="-3.59087">
        <ele>180.1</ele>
        <time>2025-02-25T10:31:40Z</time>
      </trkpt>
      <trkpt lat="48.09961" lon="-3.59087">
        <ele>180.2</ele>
        <time>2025-02-25T10:31:41Z</time>
      </trkpt>
      <trkpt lat="48.09962" lon="-3.59086">
        <ele>180.3</ele>
        <time>2025-02-25T10:31:42Z</time>
      </trkpt>
      <trkpt lat="48.09963" lon="-3.59086">
        <ele>180.3</ele>
        <time>2025-02-25T10:31:43Z</time>
      </trkpt>
      <trkpt lat="48.09964" lon="-3.59085">
        <ele>180.4</ele>
        <time>2025-02-25T10:31:44Z</time>
      </trkpt>
      <trkpt lat="48.09966" lon="-3.59085">
        <ele>180.6</ele>
        <time>2025-02-25T10:31:45Z</time>
      </trkpt>
      <trkpt lat="48.09967" lon="-3.59085">
        <ele>180.6</ele>
        <time>2025-02-25T10:31:46Z</time>
      </trkpt>
      <trkpt lat="48.09968" lon="-3.59085">
        <ele>180.7</ele>
        <time>2025-02-25T10:31:47Z</time>
      </trkpt>
      <trkpt lat="48.09969" lon="-3.59085">
        <ele>180.8</ele>
        <time>2025-02-25T10:31:48Z</time>
      </trkpt>
      <trkpt lat="48.0997" lon="-3.59085">
        <ele>180.8</ele>
        <time>2025-02-25T10:31:49Z</time>
      </trkpt>
      <trkpt lat="48.09971" lon="-3.59084">
        <ele>180.9</ele>
        <time>2025-02-25T10:31:50Z</time>
      </trkpt>
      <trkpt lat="48.09972" lon="-3.59084">
        <ele>181</ele>
        <time>2025-02-25T10:31:51Z</time>
      </trkpt>
      <trkpt lat="48.09973" lon="-3.59084">
        <ele>181</ele>
        <time>2025-02-25T10:31:52Z</time>
      </trkpt>
      <trkpt lat="48.09974" lon="-3.59084">
        <ele>181.1</ele>
        <time>2025-02-25T10:31:53Z</time>
      </trkpt>
      <trkpt lat="48.09975" lon="-3.59084">
        <ele>181.1</ele>
        <time>2025-02-25T10:31:54Z</time>
      </trkpt>
      <trkpt lat="48.09976" lon="-3.59083">
        <ele>181.1</ele>
        <time>2025-02-25T10:31:55Z</time>
      </trkpt>
      <trkpt lat="48.09977" lon="-3.59083">
        <ele>181.2</ele>
        <time>2025-02-25T10:31:56Z</time>
      </trkpt>
      <trkpt lat="48.09978" lon="-3.59083">
        <ele>181.2</ele>
        <time>2025-02-25T10:31:57Z</time>
      </trkpt>
      <trkpt lat="48.09979" lon="-3.59083">
        <ele>181.2</ele>
        <time>2025-02-25T10:31:58Z</time>
      </trkpt>
      <trkpt lat="48.0998" lon="-3.59082">
        <ele>181.3</ele>
        <time>2025-02-25T10:31:59Z</time>
      </trkpt>
      <trkpt lat="48.09981" lon="-3.59081">
        <ele>181.3</ele>
        <time>2025-02-25T10:32:00Z</time>
      </trkpt>
      <trkpt lat="48.09982" lon="-3.59081">
        <ele>181.4</ele>
        <time>2025-02-25T10:32:01Z</time>
      </trkpt>
      <trkpt lat="48.09984" lon="-3.59081">
        <ele>181.5</ele>
        <time>2025-02-25T10:32:02Z</time>
      </trkpt>
      <trkpt lat="48.09985" lon="-3.59081">
        <ele>181.5</ele>
        <time>2025-02-25T10:32:03Z</time>
      </trkpt>
      <trkpt lat="48.09986" lon="-3.59081">
        <ele>181.5</ele>
        <time>2025-02-25T10:32:04Z</time>
      </trkpt>
      <trkpt lat="48.09987" lon="-3.59081">
        <ele>181.6</ele>
        <time>2025-02-25T10:32:05Z</time>
      </trkpt>
      <trkpt lat="48.09988" lon="-3.59081">
        <ele>181.6</ele>
        <time>2025-02-25T10:32:06Z</time>
      </trkpt>
      <trkpt lat="48.0999" lon="-3.59081">
        <ele>181.7</ele>
        <time>2025-02-25T10:32:07Z</time>
      </trkpt>
      <trkpt lat="48.09991" lon="-3.59081">
        <ele>181.7</ele>
        <time>2025-02-25T10:32:08Z</time>
      </trkpt>
      <trkpt lat="48.09992" lon="-3.59081">
        <ele>181.8</ele>
        <time>2025-02-25T10:32:09Z</time>
      </trkpt>
      <trkpt lat="48.09993" lon="-3.59081">
        <ele>181.8</ele>
        <time>2025-02-25T10:32:10Z</time>
      </trkpt>
      <trkpt lat="48.09994" lon="-3.59081">
        <ele>181.8</ele>
        <time>2025-02-25T10:32:11Z</time>
      </trkpt>
      <trkpt lat="48.09995" lon="-3.59081">
        <ele>181.9</ele>
        <time>2025-02-25T10:32:12Z</time>
      </trkpt>
      <trkpt lat="48.09997" lon="-3.5908">
        <ele>182</ele>
        <time>2025-02-25T10:32:13Z</time>
      </trkpt>
      <trkpt lat="48.09998" lon="-3.5908">
        <ele>182</ele>
        <time>2025-02-25T10:32:14Z</time>
      </trkpt>
      <trkpt lat="48.09999" lon="-3.5908">
        <ele>182.1</ele>
        <time>2025-02-25T10:32:15Z</time>
      </trkpt>
      <trkpt lat="48.1" lon="-3.5908">
        <ele>182.1</ele>
        <time>2025-02-25T10:32:16Z</time>
      </trkpt>
      <trkpt lat="48.10001" lon="-3.59079">
        <ele>182.2</ele>
        <time>2025-02-25T10:32:17Z</time>
      </trkpt>
      <trkpt lat="48.10003" lon="-3.59079">
        <ele>182.3</ele>
        <time>2025-02-25T10:32:18Z</time>
      </trkpt>
      <trkpt lat="48.10004" lon="-3.5908">
        <ele>182.3</ele>
        <time>2025-02-25T10:32:19Z</time>
      </trkpt>
      <trkpt lat="48.10005" lon="-3.5908">
        <ele>182.3</ele>
        <time>2025-02-25T10:32:20Z</time>
      </trkpt>
      <trkpt lat="48.10006" lon="-3.5908">
        <ele>182.3</ele>
        <time>2025-02-25T10:32:21Z</time>
      </trkpt>
      <trkpt lat="48.10007" lon="-3.5908">
        <ele>182.4</ele>
        <time>2025-02-25T10:32:22Z</time>
      </trkpt>
      <trkpt lat="48.10008" lon="-3.59079">
        <ele>182.4</ele>
        <time>2025-02-25T10:32:23Z</time>
      </trkpt>
      <trkpt lat="48.10009" lon="-3.59079">
        <ele>182.5</ele>
        <time>2025-02-25T10:32:24Z</time>
      </trkpt>
      <trkpt lat="48.1001" lon="-3.5908">
        <ele>182.5</ele>
        <time>2025-02-25T10:32:25Z</time>
      </trkpt>
      <trkpt lat="48.10011" lon="-3.5908">
        <ele>182.5</ele>
        <time>2025-02-25T10:32:26Z</time>
      </trkpt>
      <trkpt lat="48.10012" lon="-3.5908">
        <ele>182.6</ele>
        <time>2025-02-25T10:32:27Z</time>
      </trkpt>
      <trkpt lat="48.10013" lon="-3.5908">
        <ele>182.6</ele>
        <time>2025-02-25T10:32:28Z</time>
      </trkpt>
      <trkpt lat="48.10014" lon="-3.5908">
        <ele>182.6</ele>
        <time>2025-02-25T10:32:29Z</time>
      </trkpt>
      <trkpt lat="48.10016" lon="-3.5908">
        <ele>182.7</ele>
        <time>2025-02-25T10:32:30Z</time>
      </trkpt>
      <trkpt lat="48.10017" lon="-3.5908">
        <ele>182.7</ele>
        <time>2025-02-25T10:32:31Z</time>
      </trkpt>
      <trkpt lat="48.10018" lon="-3.59081">
        <ele>182.7</ele>
        <time>2025-02-25T10:32:32Z</time>
      </trkpt>
      <trkpt lat="48.10019" lon="-3.59081">
        <ele>182.8</ele>
        <time>2025-02-25T10:32:33Z</time>
      </trkpt>
      <trkpt lat="48.1002" lon="-3.5908">
        <ele>182.8</ele>
        <time>2025-02-25T10:32:34Z</time>
      </trkpt>
      <trkpt lat="48.10022" lon="-3.59081">
        <ele>182.9</ele>
        <time>2025-02-25T10:32:35Z</time>
      </trkpt>
      <trkpt lat="48.10023" lon="-3.59081">
        <ele>182.9</ele>
        <time>2025-02-25T10:32:36Z</time>
      </trkpt>
      <trkpt lat="48.10024" lon="-3.59081">
        <ele>182.9</ele>
        <time>2025-02-25T10:32:37Z</time>
      </trkpt>
      <trkpt lat="48.10025" lon="-3.5908">
        <ele>183</ele>
        <time>2025-02-25T10:32:38Z</time>
      </trkpt>
      <trkpt lat="48.10027" lon="-3.59081">
        <ele>183.1</ele>
        <time>2025-02-25T10:32:39Z</time>
      </trkpt>
      <trkpt lat="48.10028" lon="-3.59081">
        <ele>183.1</ele>
        <time>2025-02-25T10:32:40Z</time>
      </trkpt>
      <trkpt lat="48.10029" lon="-3.59081">
        <ele>183.2</ele>
        <time>2025-02-25T10:32:41Z</time>
      </trkpt>
      <trkpt lat="48.1003" lon="-3.59081">
        <ele>183.2</ele>
        <time>2025-02-25T10:32:42Z</time>
      </trkpt>
      <trkpt lat="48.10031" lon="-3.59082">
        <ele>183.3</ele>
        <time>2025-02-25T10:32:43Z</time>
      </trkpt>
      <trkpt lat="48.10033" lon="-3.59082">
        <ele>183.4</ele>
        <time>2025-02-25T10:32:44Z</time>
      </trkpt>
      <trkpt lat="48.10034" lon="-3.59082">
        <ele>183.5</ele>
        <time>2025-02-25T10:32:45Z</time>
      </trkpt>
      <trkpt lat="48.10035" lon="-3.59083">
        <ele>183.5</ele>
        <time>2025-02-25T10:32:46Z</time>
      </trkpt>
      <trkpt lat="48.10036" lon="-3.59083">
        <ele>183.6</ele>
        <time>2025-02-25T10:32:47Z</time>
      </trkpt>
      <trkpt lat="48.10037" lon="-3.59083">
        <ele>183.7</ele>
        <time>2025-02-25T10:32:48Z</time>
      </trkpt>
      <trkpt lat="48.10038" lon="-3.59083">
        <ele>183.7</ele>
        <time>2025-02-25T10:32:49Z</time>
      </trkpt>
      <trkpt lat="48.1004" lon="-3.59083">
        <ele>183.9</ele>
        <time>2025-02-25T10:32:50Z</time>
      </trkpt>
      <trkpt lat="48.10041" lon="-3.59083">
        <ele>184</ele>
        <time>2025-02-25T10:32:51Z</time>
      </trkpt>
      <trkpt lat="48.10042" lon="-3.59083">
        <ele>184</ele>
        <time>2025-02-25T10:32:52Z</time>
      </trkpt>
      <trkpt lat="48.10043" lon="-3.59084">
        <ele>184.1</ele>
        <time>2025-02-25T10:32:53Z</time>
      </trkpt>
      <trkpt lat="48.10044" lon="-3.59084">
        <ele>184.2</ele>
        <time>2025-02-25T10:32:54Z</time>
      </trkpt>
      <trkpt lat="48.10045" lon="-3.59084">
        <ele>184.2</ele>
        <time>2025-02-25T10:32:55Z</time>
      </trkpt>
      <trkpt lat="48.10046" lon="-3.59085">
        <ele>184.3</ele>
        <time>2025-02-25T10:32:56Z</time>
      </trkpt>
      <trkpt lat="48.10047" lon="-3.59085">
        <ele>184.3</ele>
        <time>2025-02-25T10:32:57Z</time>
      </trkpt>
      <trkpt lat="48.10048" lon="-3.59085">
        <ele>184.4</ele>
        <time>2025-02-25T10:32:58Z</time>
      </trkpt>
      <trkpt lat="48.1005" lon="-3.59085">
        <ele>184.6</ele>
        <time>2025-02-25T10:32:59Z</time>
      </trkpt>
      <trkpt lat="48.10051" lon="-3.59085">
        <ele>184.6</ele>
        <time>2025-02-25T10:33:00Z</time>
      </trkpt>
      <trkpt lat="48.10052" lon="-3.59085">
        <ele>184.7</ele>
        <time>2025-02-25T10:33:01Z</time>
      </trkpt>
      <trkpt lat="48.10053" lon="-3.59085">
        <ele>184.8</ele>
        <time>2025-02-25T10:33:02Z</time>
      </trkpt>
      <trkpt lat="48.10054" lon="-3.59085">
        <ele>184.8</ele>
        <time>2025-02-25T10:33:03Z</time>
      </trkpt>
      <trkpt lat="48.10055" lon="-3.59086">
        <ele>184.9</ele>
        <time>2025-02-25T10:33:04Z</time>
      </trkpt>
      <trkpt lat="48.10056" lon="-3.59086">
        <ele>184.9</ele>
        <time>2025-02-25T10:33:05Z</time>
      </trkpt>
      <trkpt lat="48.10057" lon="-3.59085">
        <ele>185</ele>
        <time>2025-02-25T10:33:06Z</time>
      </trkpt>
      <trkpt lat="48.10059" lon="-3.59085">
        <ele>185.1</ele>
        <time>2025-02-25T10:33:07Z</time>
      </trkpt>
      <trkpt lat="48.1006" lon="-3.59086">
        <ele>185.1</ele>
        <time>2025-02-25T10:33:08Z</time>
      </trkpt>
      <trkpt lat="48.10061" lon="-3.59086">
        <ele>185.1</ele>
        <time>2025-02-25T10:33:09Z</time>
      </trkpt>
      <trkpt lat="48.10062" lon="-3.59087">
        <ele>185.1</ele>
        <time>2025-02-25T10:33:10Z</time>
      </trkpt>
      <trkpt lat="48.10063" lon="-3.59087">
        <ele>185.1</ele>
        <time>2025-02-25T10:33:11Z</time>
      </trkpt>
      <trkpt lat="48.10064" lon="-3.59087">
        <ele>185.2</ele>
        <time>2025-02-25T10:33:12Z</time>
      </trkpt>
      <trkpt lat="48.10065" lon="-3.59087">
        <ele>185.2</ele>
        <time>2025-02-25T10:33:13Z</time>
      </trkpt>
      <trkpt lat="48.10067" lon="-3.59087">
        <ele>185.3</ele>
        <time>2025-02-25T10:33:14Z</time>
      </trkpt>
      <trkpt lat="48.10068" lon="-3.59087">
        <ele>185.3</ele>
        <time>2025-02-25T10:33:15Z</time>
      </trkpt>
      <trkpt lat="48.10069" lon="-3.59087">
        <ele>185.4</ele>
        <time>2025-02-25T10:33:16Z</time>
      </trkpt>
      <trkpt lat="48.1007" lon="-3.59088">
        <ele>185.4</ele>
        <time>2025-02-25T10:33:17Z</time>
      </trkpt>
      <trkpt lat="48.10071" lon="-3.59088">
        <ele>185.4</ele>
        <time>2025-02-25T10:33:18Z</time>
      </trkpt>
      <trkpt lat="48.10072" lon="-3.59088">
        <ele>185.4</ele>
        <time>2025-02-25T10:33:19Z</time>
      </trkpt>
      <trkpt lat="48.10074" lon="-3.59089">
        <ele>185.5</ele>
        <time>2025-02-25T10:33:20Z</time>
      </trkpt>
      <trkpt lat="48.10075" lon="-3.5909">
        <ele>185.5</ele>
        <time>2025-02-25T10:33:21Z</time>
      </trkpt>
      <trkpt lat="48.10076" lon="-3.5909">
        <ele>185.5</ele>
        <time>2025-02-25T10:33:22Z</time>
      </trkpt>
      <trkpt lat="48.10077" lon="-3.5909">
        <ele>185.5</ele>
        <time>2025-02-25T10:33:23Z</time>
      </trkpt>
      <trkpt lat="48.10078" lon="-3.5909">
        <ele>185.6</ele>
        <time>2025-02-25T10:33:24Z</time>
      </trkpt>
      <trkpt lat="48.1008" lon="-3.5909">
        <ele>185.6</ele>
        <time>2025-02-25T10:33:25Z</time>
      </trkpt>
      <trkpt lat="48.10081" lon="-3.59091">
        <ele>185.6</ele>
        <time>2025-02-25T10:33:26Z</time>
      </trkpt>
      <trkpt lat="48.10082" lon="-3.5909">
        <ele>185.7</ele>
        <time>2025-02-25T10:33:27Z</time>
      </trkpt>
      <trkpt lat="48.10083" lon="-3.5909">
        <ele>185.7</ele>
        <time>2025-02-25T10:33:28Z</time>
      </trkpt>
      <trkpt lat="48.10084" lon="-3.5909">
        <ele>185.8</ele>
        <time>2025-02-25T10:33:29Z</time>
      </trkpt>
      <trkpt lat="48.10085" lon="-3.5909">
        <ele>185.8</ele>
        <time>2025-02-25T10:33:30Z</time>
      </trkpt>
      <trkpt lat="48.10086" lon="-3.5909">
        <ele>185.8</ele>
        <time>2025-02-25T10:33:31Z</time>
      </trkpt>
      <trkpt lat="48.10087" lon="-3.59089">
        <ele>185.9</ele>
        <time>2025-02-25T10:33:32Z</time>
      </trkpt>
      <trkpt lat="48.10088" lon="-3.59089">
        <ele>185.9</ele>
        <time>2025-02-25T10:33:33Z</time>
      </trkpt>
      <trkpt lat="48.10089" lon="-3.59089">
        <ele>186</ele>
        <time>2025-02-25T10:33:34Z</time>
      </trkpt>
      <trkpt lat="48.1009" lon="-3.59089">
        <ele>186</ele>
        <time>2025-02-25T10:33:35Z</time>
      </trkpt>
      <trkpt lat="48.10091" lon="-3.59089">
        <ele>186</ele>
        <time>2025-02-25T10:33:36Z</time>
      </trkpt>
      <trkpt lat="48.10093" lon="-3.59089">
        <ele>186.1</ele>
        <time>2025-02-25T10:33:37Z</time>
      </trkpt>
      <trkpt lat="48.10094" lon="-3.59089">
        <ele>186.1</ele>
        <time>2025-02-25T10:33:38Z</time>
      </trkpt>
      <trkpt lat="48.10095" lon="-3.59089">
        <ele>186.1</ele>
        <time>2025-02-25T10:33:39Z</time>
      </trkpt>
      <trkpt lat="48.10096" lon="-3.59088">
        <ele>186.2</ele>
        <time>2025-02-25T10:33:40Z</time>
      </trkpt>
      <trkpt lat="48.10097" lon="-3.59088">
        <ele>186.2</ele>
        <time>2025-02-25T10:33:41Z</time>
      </trkpt>
      <trkpt lat="48.10098" lon="-3.59087">
        <ele>186.3</ele>
        <time>2025-02-25T10:33:42Z</time>
      </trkpt>
      <trkpt lat="48.10099" lon="-3.59087">
        <ele>186.4</ele>
        <time>2025-02-25T10:33:43Z</time>
      </trkpt>
      <trkpt lat="48.101" lon="-3.59087">
        <ele>186.4</ele>
        <time>2025-02-25T10:33:44Z</time>
      </trkpt>
      <trkpt lat="48.10102" lon="-3.59086">
        <ele>186.5</ele>
        <time>2025-02-25T10:33:45Z</time>
      </trkpt>
      <trkpt lat="48.10103" lon="-3.59086">
        <ele>186.5</ele>
        <time>2025-02-25T10:33:46Z</time>
      </trkpt>
      <trkpt lat="48.10104" lon="-3.59086">
        <ele>186.6</ele>
        <time>2025-02-25T10:33:47Z</time>
      </trkpt>
      <trkpt lat="48.10105" lon="-3.59085">
        <ele>186.7</ele>
        <time>2025-02-25T10:33:48Z</time>
      </trkpt>
      <trkpt lat="48.10106" lon="-3.59084">
        <ele>186.8</ele>
        <time>2025-02-25T10:33:49Z</time>
      </trkpt>
      <trkpt lat="48.10107" lon="-3.59084">
        <ele>186.8</ele>
        <time>2025-02-25T10:33:50Z</time>
      </trkpt>
      <trkpt lat="48.10108" lon="-3.59084">
        <ele>186.8</ele>
        <time>2025-02-25T10:33:51Z</time>
      </trkpt>
      <trkpt lat="48.10109" lon="-3.59083">
        <ele>186.9</ele>
        <time>2025-02-25T10:33:52Z</time>
      </trkpt>
      <trkpt lat="48.1011" lon="-3.59083">
        <ele>187</ele>
        <time>2025-02-25T10:33:53Z</time>
      </trkpt>
      <trkpt lat="48.10112" lon="-3.59082">
        <ele>187</ele>
        <time>2025-02-25T10:33:54Z</time>
      </trkpt>
      <trkpt lat="48.10113" lon="-3.59082">
        <ele>187.1</ele>
        <time>2025-02-25T10:33:55Z</time>
      </trkpt>
      <trkpt lat="48.10114" lon="-3.59081">
        <ele>187.1</ele>
        <time>2025-02-25T10:33:56Z</time>
      </trkpt>
      <trkpt lat="48.10115" lon="-3.5908">
        <ele>187.1</ele>
        <time>2025-02-25T10:33:57Z</time>
      </trkpt>
      <trkpt lat="48.10116" lon="-3.5908">
        <ele>187.1</ele>
        <time>2025-02-25T10:33:58Z</time>
      </trkpt>
      <trkpt lat="48.10117" lon="-3.59079">
        <ele>187.2</ele>
        <time>2025-02-25T10:33:59Z</time>
      </trkpt>
      <trkpt lat="48.10118" lon="-3.59079">
        <ele>187.2</ele>
        <time>2025-02-25T10:34:00Z</time>
      </trkpt>
      <trkpt lat="48.10119" lon="-3.59079">
        <ele>187.2</ele>
        <time>2025-02-25T10:34:01Z</time>
      </trkpt>
      <trkpt lat="48.10121" lon="-3.59079">
        <ele>187.2</ele>
        <time>2025-02-25T10:34:02Z</time>
      </trkpt>
      <trkpt lat="48.10122" lon="-3.59079">
        <ele>187.2</ele>
        <time>2025-02-25T10:34:03Z</time>
      </trkpt>
      <trkpt lat="48.10123" lon="-3.59078">
        <ele>187.3</ele>
        <time>2025-02-25T10:34:04Z</time>
      </trkpt>
      <trkpt lat="48.10124" lon="-3.59077">
        <ele>187.3</ele>
        <time>2025-02-25T10:34:05Z</time>
      </trkpt>
      <trkpt lat="48.10125" lon="-3.59076">
        <ele>187.4</ele>
        <time>2025-02-25T10:34:06Z</time>
      </trkpt>
      <trkpt lat="48.10127" lon="-3.59076">
        <ele>187.4</ele>
        <time>2025-02-25T10:34:07Z</time>
      </trkpt>
      <trkpt lat="48.10128" lon="-3.59076">
        <ele>187.4</ele>
        <time>2025-02-25T10:34:08Z</time>
      </trkpt>
      <trkpt lat="48.10128" lon="-3.59075">
        <ele>187.5</ele>
        <time>2025-02-25T10:34:09Z</time>
      </trkpt>
      <trkpt lat="48.10129" lon="-3.59075">
        <ele>187.5</ele>
        <time>2025-02-25T10:34:10Z</time>
      </trkpt>
      <trkpt lat="48.1013" lon="-3.59074">
        <ele>187.6</ele>
        <time>2025-02-25T10:34:11Z</time>
      </trkpt>
      <trkpt lat="48.10131" lon="-3.59073">
        <ele>187.6</ele>
        <time>2025-02-25T10:34:12Z</time>
      </trkpt>
      <trkpt lat="48.10132" lon="-3.59072">
        <ele>187.7</ele>
        <time>2025-02-25T10:34:13Z</time>
      </trkpt>
      <trkpt lat="48.10133" lon="-3.59072">
        <ele>187.7</ele>
        <time>2025-02-25T10:34:14Z</time>
      </trkpt>
      <trkpt lat="48.10134" lon="-3.59071">
        <ele>187.8</ele>
        <time>2025-02-25T10:34:15Z</time>
      </trkpt>
      <trkpt lat="48.10135" lon="-3.59071">
        <ele>187.8</ele>
        <time>2025-02-25T10:34:16Z</time>
      </trkpt>
      <trkpt lat="48.10137" lon="-3.59071">
        <ele>187.9</ele>
        <time>2025-02-25T10:34:17Z</time>
      </trkpt>
      <trkpt lat="48.10138" lon="-3.5907">
        <ele>187.9</ele>
        <time>2025-02-25T10:34:18Z</time>
      </trkpt>
      <trkpt lat="48.10138" lon="-3.59069">
        <ele>188</ele>
        <time>2025-02-25T10:34:19Z</time>
      </trkpt>
      <trkpt lat="48.1014" lon="-3.59069">
        <ele>188.1</ele>
        <time>2025-02-25T10:34:20Z</time>
      </trkpt>
      <trkpt lat="48.10141" lon="-3.59069">
        <ele>188.1</ele>
        <time>2025-02-25T10:34:21Z</time>
      </trkpt>
      <trkpt lat="48.10142" lon="-3.59068">
        <ele>188.2</ele>
        <time>2025-02-25T10:34:22Z</time>
      </trkpt>
      <trkpt lat="48.10143" lon="-3.59068">
        <ele>188.3</ele>
        <time>2025-02-25T10:34:23Z</time>
      </trkpt>
      <trkpt lat="48.10144" lon="-3.59068">
        <ele>188.3</ele>
        <time>2025-02-25T10:34:24Z</time>
      </trkpt>
      <trkpt lat="48.10145" lon="-3.59068">
        <ele>188.3</ele>
        <time>2025-02-25T10:34:25Z</time>
      </trkpt>
      <trkpt lat="48.10146" lon="-3.59067">
        <ele>188.4</ele>
        <time>2025-02-25T10:34:26Z</time>
      </trkpt>
      <trkpt lat="48.10147" lon="-3.59067">
        <ele>188.5</ele>
        <time>2025-02-25T10:34:27Z</time>
      </trkpt>
      <trkpt lat="48.10148" lon="-3.59067">
        <ele>188.5</ele>
        <time>2025-02-25T10:34:28Z</time>
      </trkpt>
      <trkpt lat="48.10149" lon="-3.59067">
        <ele>188.5</ele>
        <time>2025-02-25T10:34:29Z</time>
      </trkpt>
      <trkpt lat="48.1015" lon="-3.59067">
        <ele>188.6</ele>
        <time>2025-02-25T10:34:30Z</time>
      </trkpt>
      <trkpt lat="48.10152" lon="-3.59067">
        <ele>188.6</ele>
        <time>2025-02-25T10:34:31Z</time>
      </trkpt>
      <trkpt lat="48.10153" lon="-3.59066">
        <ele>188.8</ele>
        <time>2025-02-25T10:34:32Z</time>
      </trkpt>
      <trkpt lat="48.10154" lon="-3.59066">
        <ele>188.8</ele>
        <time>2025-02-25T10:34:33Z</time>
      </trkpt>
      <trkpt lat="48.10155" lon="-3.59066">
        <ele>188.8</ele>
        <time>2025-02-25T10:34:34Z</time>
      </trkpt>
      <trkpt lat="48.10156" lon="-3.59066">
        <ele>188.9</ele>
        <time>2025-02-25T10:34:35Z</time>
      </trkpt>
      <trkpt lat="48.10157" lon="-3.59066">
        <ele>188.9</ele>
        <time>2025-02-25T10:34:36Z</time>
      </trkpt>
      <trkpt lat="48.10159" lon="-3.59066">
        <ele>189</ele>
        <time>2025-02-25T10:34:37Z</time>
      </trkpt>
      <trkpt lat="48.1016" lon="-3.59066">
        <ele>189</ele>
        <time>2025-02-25T10:34:38Z</time>
      </trkpt>
      <trkpt lat="48.10161" lon="-3.59065">
        <ele>189.1</ele>
        <time>2025-02-25T10:34:39Z</time>
      </trkpt>
      <trkpt lat="48.10162" lon="-3.59065">
        <ele>189.2</ele>
        <time>2025-02-25T10:34:40Z</time>
      </trkpt>
      <trkpt lat="48.10163" lon="-3.59065">
        <ele>189.2</ele>
        <time>2025-02-25T10:34:41Z</time>
      </trkpt>
      <trkpt lat="48.10164" lon="-3.59065">
        <ele>189.2</ele>
        <time>2025-02-25T10:34:42Z</time>
      </trkpt>
      <trkpt lat="48.10165" lon="-3.59065">
        <ele>189.3</ele>
        <time>2025-02-25T10:34:43Z</time>
      </trkpt>
      <trkpt lat="48.10166" lon="-3.59066">
        <ele>189.2</ele>
        <time>2025-02-25T10:34:44Z</time>
      </trkpt>
      <trkpt lat="48.10168" lon="-3.59066">
        <ele>189.2</ele>
        <time>2025-02-25T10:34:45Z</time>
      </trkpt>
      <trkpt lat="48.10169" lon="-3.59066">
        <ele>189.2</ele>
        <time>2025-02-25T10:34:46Z</time>
      </trkpt>
      <trkpt lat="48.1017" lon="-3.59065">
        <ele>189.3</ele>
        <time>2025-02-25T10:34:47Z</time>
      </trkpt>
      <trkpt lat="48.10171" lon="-3.59066">
        <ele>189.2</ele>
        <time>2025-02-25T10:34:48Z</time>
      </trkpt>
      <trkpt lat="48.10173" lon="-3.59067">
        <ele>189.2</ele>
        <time>2025-02-25T10:34:49Z</time>
      </trkpt>
      <trkpt lat="48.10174" lon="-3.59067">
        <ele>189.2</ele>
        <time>2025-02-25T10:34:50Z</time>
      </trkpt>
      <trkpt lat="48.10175" lon="-3.59067">
        <ele>189.2</ele>
        <time>2025-02-25T10:34:51Z</time>
      </trkpt>
      <trkpt lat="48.10176" lon="-3.59068">
        <ele>189.1</ele>
        <time>2025-02-25T10:34:52Z</time>
      </trkpt>
      <trkpt lat="48.10178" lon="-3.59067">
        <ele>189.2</ele>
        <time>2025-02-25T10:34:53Z</time>
      </trkpt>
      <trkpt lat="48.10179" lon="-3.59067">
        <ele>189.2</ele>
        <time>2025-02-25T10:34:54Z</time>
      </trkpt>
      <trkpt lat="48.1018" lon="-3.59067">
        <ele>189.2</ele>
        <time>2025-02-25T10:34:55Z</time>
      </trkpt>
      <trkpt lat="48.10181" lon="-3.59068">
        <ele>189.1</ele>
        <time>2025-02-25T10:34:56Z</time>
      </trkpt>
      <trkpt lat="48.10182" lon="-3.59068">
        <ele>189.1</ele>
        <time>2025-02-25T10:34:57Z</time>
      </trkpt>
      <trkpt lat="48.10184" lon="-3.59069">
        <ele>189</ele>
        <time>2025-02-25T10:34:58Z</time>
      </trkpt>
      <trkpt lat="48.10185" lon="-3.59069">
        <ele>189</ele>
        <time>2025-02-25T10:34:59Z</time>
      </trkpt>
      <trkpt lat="48.10186" lon="-3.5907">
        <ele>189</ele>
        <time>2025-02-25T10:35:00Z</time>
      </trkpt>
      <trkpt lat="48.10187" lon="-3.5907">
        <ele>189</ele>
        <time>2025-02-25T10:35:01Z</time>
      </trkpt>
      <trkpt lat="48.10189" lon="-3.5907">
        <ele>189</ele>
        <time>2025-02-25T10:35:02Z</time>
      </trkpt>
      <trkpt lat="48.1019" lon="-3.5907">
        <ele>189</ele>
        <time>2025-02-25T10:35:03Z</time>
      </trkpt>
      <trkpt lat="48.10191" lon="-3.5907">
        <ele>189</ele>
        <time>2025-02-25T10:35:04Z</time>
      </trkpt>
      <trkpt lat="48.10192" lon="-3.59071">
        <ele>188.9</ele>
        <time>2025-02-25T10:35:05Z</time>
      </trkpt>
      <trkpt lat="48.10193" lon="-3.59072">
        <ele>188.8</ele>
        <time>2025-02-25T10:35:06Z</time>
      </trkpt>
      <trkpt lat="48.10194" lon="-3.59072">
        <ele>188.8</ele>
        <time>2025-02-25T10:35:07Z</time>
      </trkpt>
      <trkpt lat="48.10195" lon="-3.59073">
        <ele>188.7</ele>
        <time>2025-02-25T10:35:08Z</time>
      </trkpt>
      <trkpt lat="48.10197" lon="-3.59073">
        <ele>188.7</ele>
        <time>2025-02-25T10:35:09Z</time>
      </trkpt>
      <trkpt lat="48.10198" lon="-3.59072">
        <ele>188.8</ele>
        <time>2025-02-25T10:35:10Z</time>
      </trkpt>
      <trkpt lat="48.10199" lon="-3.59072">
        <ele>188.8</ele>
        <time>2025-02-25T10:35:11Z</time>
      </trkpt>
      <trkpt lat="48.102" lon="-3.59072">
        <ele>188.8</ele>
        <time>2025-02-25T10:35:12Z</time>
      </trkpt>
      <trkpt lat="48.10201" lon="-3.59073">
        <ele>188.7</ele>
        <time>2025-02-25T10:35:13Z</time>
      </trkpt>
      <trkpt lat="48.10202" lon="-3.59073">
        <ele>188.7</ele>
        <time>2025-02-25T10:35:14Z</time>
      </trkpt>
      <trkpt lat="48.10203" lon="-3.59074">
        <ele>188.7</ele>
        <time>2025-02-25T10:35:15Z</time>
      </trkpt>
      <trkpt lat="48.10204" lon="-3.59074">
        <ele>188.7</ele>
        <time>2025-02-25T10:35:16Z</time>
      </trkpt>
      <trkpt lat="48.10205" lon="-3.59074">
        <ele>188.7</ele>
        <time>2025-02-25T10:35:17Z</time>
      </trkpt>
      <trkpt lat="48.10206" lon="-3.59074">
        <ele>188.7</ele>
        <time>2025-02-25T10:35:18Z</time>
      </trkpt>
      <trkpt lat="48.10207" lon="-3.59074">
        <ele>188.7</ele>
        <time>2025-02-25T10:35:19Z</time>
      </trkpt>
      <trkpt lat="48.10209" lon="-3.59075">
        <ele>188.6</ele>
        <time>2025-02-25T10:35:20Z</time>
      </trkpt>
      <trkpt lat="48.1021" lon="-3.59075">
        <ele>188.6</ele>
        <time>2025-02-25T10:35:21Z</time>
      </trkpt>
      <trkpt lat="48.10211" lon="-3.59076">
        <ele>188.5</ele>
        <time>2025-02-25T10:35:22Z</time>
      </trkpt>
      <trkpt lat="48.10212" lon="-3.59076">
        <ele>188.5</ele>
        <time>2025-02-25T10:35:23Z</time>
      </trkpt>
      <trkpt lat="48.10213" lon="-3.59076">
        <ele>188.5</ele>
        <time>2025-02-25T10:35:24Z</time>
      </trkpt>
      <trkpt lat="48.10214" lon="-3.59076">
        <ele>188.5</ele>
        <time>2025-02-25T10:35:25Z</time>
      </trkpt>
      <trkpt lat="48.10216" lon="-3.59076">
        <ele>188.5</ele>
        <time>2025-02-25T10:35:26Z</time>
      </trkpt>
      <trkpt lat="48.10217" lon="-3.59077">
        <ele>188.5</ele>
        <time>2025-02-25T10:35:27Z</time>
      </trkpt>
      <trkpt lat="48.10218" lon="-3.59077">
        <ele>188.5</ele>
        <time>2025-02-25T10:35:28Z</time>
      </trkpt>
      <trkpt lat="48.10219" lon="-3.59077">
        <ele>188.5</ele>
        <time>2025-02-25T10:35:29Z</time>
      </trkpt>
      <trkpt lat="48.1022" lon="-3.59078">
        <ele>188.4</ele>
        <time>2025-02-25T10:35:30Z</time>
      </trkpt>
      <trkpt lat="48.10221" lon="-3.59078">
        <ele>188.4</ele>
        <time>2025-02-25T10:35:31Z</time>
      </trkpt>
      <trkpt lat="48.10222" lon="-3.59079">
        <ele>188.3</ele>
        <time>2025-02-25T10:35:32Z</time>
      </trkpt>
      <trkpt lat="48.10223" lon="-3.59079">
        <ele>188.3</ele>
        <time>2025-02-25T10:35:33Z</time>
      </trkpt>
      <trkpt lat="48.10224" lon="-3.59079">
        <ele>188.3</ele>
        <time>2025-02-25T10:35:34Z</time>
      </trkpt>
      <trkpt lat="48.10226" lon="-3.59079">
        <ele>188.3</ele>
        <time>2025-02-25T10:35:35Z</time>
      </trkpt>
      <trkpt lat="48.10227" lon="-3.5908">
        <ele>188.2</ele>
        <time>2025-02-25T10:35:36Z</time>
      </trkpt>
      <trkpt lat="48.10228" lon="-3.5908">
        <ele>188.2</ele>
        <time>2025-02-25T10:35:37Z</time>
      </trkpt>
      <trkpt lat="48.10229" lon="-3.59081">
        <ele>188.1</ele>
        <time>2025-02-25T10:35:38Z</time>
      </trkpt>
      <trkpt lat="48.1023" lon="-3.59082">
        <ele>188.1</ele>
        <time>2025-02-25T10:35:39Z</time>
      </trkpt>
      <trkpt lat="48.10232" lon="-3.59082">
        <ele>188.1</ele>
        <time>2025-02-25T10:35:40Z</time>
      </trkpt>
      <trkpt lat="48.10233" lon="-3.59082">
        <ele>188.1</ele>
        <time>2025-02-25T10:35:41Z</time>
      </trkpt>
      <trkpt lat="48.10234" lon="-3.59082">
        <ele>188.1</ele>
        <time>2025-02-25T10:35:42Z</time>
      </trkpt>
      <trkpt lat="48.10235" lon="-3.59082">
        <ele>188.1</ele>
        <time>2025-02-25T10:35:43Z</time>
      </trkpt>
      <trkpt lat="48.10237" lon="-3.59082">
        <ele>188.1</ele>
        <time>2025-02-25T10:35:44Z</time>
      </trkpt>
      <trkpt lat="48.10238" lon="-3.59083">
        <ele>188</ele>
        <time>2025-02-25T10:35:45Z</time>
      </trkpt>
      <trkpt lat="48.10239" lon="-3.59082">
        <ele>188.1</ele>
        <time>2025-02-25T10:35:46Z</time>
      </trkpt>
      <trkpt lat="48.1024" lon="-3.59082">
        <ele>188.1</ele>
        <time>2025-02-25T10:35:47Z</time>
      </trkpt>
      <trkpt lat="48.10242" lon="-3.59082">
        <ele>188.1</ele>
        <time>2025-02-25T10:35:48Z</time>
      </trkpt>
      <trkpt lat="48.10243" lon="-3.59082">
        <ele>188.1</ele>
        <time>2025-02-25T10:35:49Z</time>
      </trkpt>
      <trkpt lat="48.10244" lon="-3.59082">
        <ele>188.1</ele>
        <time>2025-02-25T10:35:50Z</time>
      </trkpt>
      <trkpt lat="48.10245" lon="-3.59082">
        <ele>188.1</ele>
        <time>2025-02-25T10:35:51Z</time>
      </trkpt>
      <trkpt lat="48.10246" lon="-3.59082">
        <ele>188.1</ele>
        <time>2025-02-25T10:35:52Z</time>
      </trkpt>
      <trkpt lat="48.10247" lon="-3.59082">
        <ele>188.1</ele>
        <time>2025-02-25T10:35:53Z</time>
      </trkpt>
      <trkpt lat="48.10248" lon="-3.59082">
        <ele>188.1</ele>
        <time>2025-02-25T10:35:54Z</time>
      </trkpt>
      <trkpt lat="48.10249" lon="-3.59082">
        <ele>188</ele>
        <time>2025-02-25T10:35:55Z</time>
      </trkpt>
      <trkpt lat="48.1025" lon="-3.59083">
        <ele>188</ele>
        <time>2025-02-25T10:35:56Z</time>
      </trkpt>
      <trkpt lat="48.10252" lon="-3.59083">
        <ele>187.9</ele>
        <time>2025-02-25T10:35:57Z</time>
      </trkpt>
      <trkpt lat="48.10253" lon="-3.59083">
        <ele>187.9</ele>
        <time>2025-02-25T10:35:58Z</time>
      </trkpt>
      <trkpt lat="48.10254" lon="-3.59083">
        <ele>187.9</ele>
        <time>2025-02-25T10:35:59Z</time>
      </trkpt>
      <trkpt lat="48.10255" lon="-3.59084">
        <ele>187.8</ele>
        <time>2025-02-25T10:36:00Z</time>
      </trkpt>
      <trkpt lat="48.10256" lon="-3.59084">
        <ele>187.8</ele>
        <time>2025-02-25T10:36:01Z</time>
      </trkpt>
      <trkpt lat="48.10257" lon="-3.59084">
        <ele>187.7</ele>
        <time>2025-02-25T10:36:02Z</time>
      </trkpt>
      <trkpt lat="48.10259" lon="-3.59085">
        <ele>187.6</ele>
        <time>2025-02-25T10:36:03Z</time>
      </trkpt>
      <trkpt lat="48.1026" lon="-3.59085">
        <ele>187.6</ele>
        <time>2025-02-25T10:36:04Z</time>
      </trkpt>
      <trkpt lat="48.10261" lon="-3.59085">
        <ele>187.5</ele>
        <time>2025-02-25T10:36:05Z</time>
      </trkpt>
      <trkpt lat="48.10262" lon="-3.59086">
        <ele>187.5</ele>
        <time>2025-02-25T10:36:06Z</time>
      </trkpt>
      <trkpt lat="48.10263" lon="-3.59086">
        <ele>187.4</ele>
        <time>2025-02-25T10:36:07Z</time>
      </trkpt>
      <trkpt lat="48.10265" lon="-3.59086">
        <ele>187.4</ele>
        <time>2025-02-25T10:36:08Z</time>
      </trkpt>
      <trkpt lat="48.10266" lon="-3.59086">
        <ele>187.3</ele>
        <time>2025-02-25T10:36:09Z</time>
      </trkpt>
      <trkpt lat="48.10267" lon="-3.59087">
        <ele>187.3</ele>
        <time>2025-02-25T10:36:10Z</time>
      </trkpt>
      <trkpt lat="48.10269" lon="-3.59087">
        <ele>187.2</ele>
        <time>2025-02-25T10:36:11Z</time>
      </trkpt>
      <trkpt lat="48.1027" lon="-3.59087">
        <ele>187.1</ele>
        <time>2025-02-25T10:36:12Z</time>
      </trkpt>
      <trkpt lat="48.10271" lon="-3.59087">
        <ele>187.1</ele>
        <time>2025-02-25T10:36:13Z</time>
      </trkpt>
      <trkpt lat="48.10272" lon="-3.59087">
        <ele>187.1</ele>
        <time>2025-02-25T10:36:14Z</time>
      </trkpt>
      <trkpt lat="48.10273" lon="-3.59088">
        <ele>187</ele>
        <time>2025-02-25T10:36:15Z</time>
      </trkpt>
      <trkpt lat="48.10275" lon="-3.59088">
        <ele>186.9</ele>
        <time>2025-02-25T10:36:16Z</time>
      </trkpt>
      <trkpt lat="48.10276" lon="-3.59089">
        <ele>186.9</ele>
        <time>2025-02-25T10:36:17Z</time>
      </trkpt>
      <trkpt lat="48.10277" lon="-3.5909">
        <ele>186.8</ele>
        <time>2025-02-25T10:36:18Z</time>
      </trkpt>
      <trkpt lat="48.10278" lon="-3.5909">
        <ele>186.7</ele>
        <time>2025-02-25T10:36:19Z</time>
      </trkpt>
      <trkpt lat="48.10279" lon="-3.5909">
        <ele>186.7</ele>
        <time>2025-02-25T10:36:20Z</time>
      </trkpt>
      <trkpt lat="48.1028" lon="-3.5909">
        <ele>186.6</ele>
        <time>2025-02-25T10:36:21Z</time>
      </trkpt>
      <trkpt lat="48.10281" lon="-3.5909">
        <ele>186.5</ele>
        <time>2025-02-25T10:36:22Z</time>
      </trkpt>
      <trkpt lat="48.10283" lon="-3.5909">
        <ele>186.4</ele>
        <time>2025-02-25T10:36:23Z</time>
      </trkpt>
      <trkpt lat="48.10284" lon="-3.5909">
        <ele>186.3</ele>
        <time>2025-02-25T10:36:24Z</time>
      </trkpt>
      <trkpt lat="48.10285" lon="-3.59091">
        <ele>186.2</ele>
        <time>2025-02-25T10:36:25Z</time>
      </trkpt>
      <trkpt lat="48.10286" lon="-3.59091">
        <ele>186.1</ele>
        <time>2025-02-25T10:36:26Z</time>
      </trkpt>
      <trkpt lat="48.10287" lon="-3.59091">
        <ele>186.1</ele>
        <time>2025-02-25T10:36:27Z</time>
      </trkpt>
      <trkpt lat="48.10289" lon="-3.59091">
        <ele>185.9</ele>
        <time>2025-02-25T10:36:28Z</time>
      </trkpt>
      <trkpt lat="48.1029" lon="-3.59091">
        <ele>185.8</ele>
        <time>2025-02-25T10:36:29Z</time>
      </trkpt>
      <trkpt lat="48.10291" lon="-3.5909">
        <ele>185.8</ele>
        <time>2025-02-25T10:36:30Z</time>
      </trkpt>
      <trkpt lat="48.10292" lon="-3.5909">
        <ele>185.7</ele>
        <time>2025-02-25T10:36:31Z</time>
      </trkpt>
      <trkpt lat="48.10294" lon="-3.59091">
        <ele>185.6</ele>
        <time>2025-02-25T10:36:32Z</time>
      </trkpt>
      <trkpt lat="48.10295" lon="-3.59092">
        <ele>185.4</ele>
        <time>2025-02-25T10:36:33Z</time>
      </trkpt>
      <trkpt lat="48.10296" lon="-3.59093">
        <ele>185.3</ele>
        <time>2025-02-25T10:36:34Z</time>
      </trkpt>
      <trkpt lat="48.10297" lon="-3.59093">
        <ele>185.3</ele>
        <time>2025-02-25T10:36:35Z</time>
      </trkpt>
      <trkpt lat="48.10298" lon="-3.59093">
        <ele>185.2</ele>
        <time>2025-02-25T10:36:36Z</time>
      </trkpt>
      <trkpt lat="48.10299" lon="-3.59093">
        <ele>185.1</ele>
        <time>2025-02-25T10:36:37Z</time>
      </trkpt>
      <trkpt lat="48.103" lon="-3.59093">
        <ele>185.1</ele>
        <time>2025-02-25T10:36:38Z</time>
      </trkpt>
      <trkpt lat="48.10301" lon="-3.59093">
        <ele>185</ele>
        <time>2025-02-25T10:36:39Z</time>
      </trkpt>
      <trkpt lat="48.10302" lon="-3.59094">
        <ele>184.9</ele>
        <time>2025-02-25T10:36:40Z</time>
      </trkpt>
      <trkpt lat="48.10303" lon="-3.59094">
        <ele>184.8</ele>
        <time>2025-02-25T10:36:41Z</time>
      </trkpt>
      <trkpt lat="48.10305" lon="-3.59095">
        <ele>184.6</ele>
        <time>2025-02-25T10:36:42Z</time>
      </trkpt>
      <trkpt lat="48.10305" lon="-3.59094">
        <ele>184.7</ele>
        <time>2025-02-25T10:36:43Z</time>
      </trkpt>
      <trkpt lat="48.10307" lon="-3.59095">
        <ele>184.4</ele>
        <time>2025-02-25T10:36:44Z</time>
      </trkpt>
      <trkpt lat="48.10308" lon="-3.59095">
        <ele>184.2</ele>
        <time>2025-02-25T10:36:45Z</time>
      </trkpt>
      <trkpt lat="48.10309" lon="-3.59096">
        <ele>184</ele>
        <time>2025-02-25T10:36:46Z</time>
      </trkpt>
      <trkpt lat="48.1031" lon="-3.59096">
        <ele>183.9</ele>
        <time>2025-02-25T10:36:47Z</time>
      </trkpt>
      <trkpt lat="48.10311" lon="-3.59096">
        <ele>183.8</ele>
        <time>2025-02-25T10:36:48Z</time>
      </trkpt>
      <trkpt lat="48.10312" lon="-3.59096">
        <ele>183.6</ele>
        <time>2025-02-25T10:36:49Z</time>
      </trkpt>
      <trkpt lat="48.10313" lon="-3.59097">
        <ele>183.4</ele>
        <time>2025-02-25T10:36:50Z</time>
      </trkpt>
      <trkpt lat="48.10315" lon="-3.59098">
        <ele>183.1</ele>
        <time>2025-02-25T10:36:51Z</time>
      </trkpt>
      <trkpt lat="48.10315" lon="-3.59098">
        <ele>183.1</ele>
        <time>2025-02-25T10:36:52Z</time>
      </trkpt>
      <trkpt lat="48.10316" lon="-3.59098">
        <ele>183</ele>
        <time>2025-02-25T10:36:53Z</time>
      </trkpt>
      <trkpt lat="48.10317" lon="-3.59098">
        <ele>182.8</ele>
        <time>2025-02-25T10:36:54Z</time>
      </trkpt>
      <trkpt lat="48.10318" lon="-3.59099">
        <ele>182.6</ele>
        <time>2025-02-25T10:36:55Z</time>
      </trkpt>
      <trkpt lat="48.10319" lon="-3.59099">
        <ele>182.5</ele>
        <time>2025-02-25T10:36:56Z</time>
      </trkpt>
      <trkpt lat="48.1032" lon="-3.59099">
        <ele>182.4</ele>
        <time>2025-02-25T10:36:57Z</time>
      </trkpt>
      <trkpt lat="48.10322" lon="-3.591">
        <ele>182</ele>
        <time>2025-02-25T10:36:58Z</time>
      </trkpt>
      <trkpt lat="48.10323" lon="-3.591">
        <ele>181.9</ele>
        <time>2025-02-25T10:36:59Z</time>
      </trkpt>
      <trkpt lat="48.10324" lon="-3.591">
        <ele>181.7</ele>
        <time>2025-02-25T10:37:00Z</time>
      </trkpt>
      <trkpt lat="48.10325" lon="-3.59101">
        <ele>181.6</ele>
        <time>2025-02-25T10:37:01Z</time>
      </trkpt>
      <trkpt lat="48.10326" lon="-3.59101">
        <ele>181.4</ele>
        <time>2025-02-25T10:37:02Z</time>
      </trkpt>
      <trkpt lat="48.10327" lon="-3.59101">
        <ele>181.3</ele>
        <time>2025-02-25T10:37:03Z</time>
      </trkpt>
      <trkpt lat="48.10328" lon="-3.59101">
        <ele>181.1</ele>
        <time>2025-02-25T10:37:04Z</time>
      </trkpt>
      <trkpt lat="48.10329" lon="-3.59101">
        <ele>181</ele>
        <time>2025-02-25T10:37:05Z</time>
      </trkpt>
      <trkpt lat="48.1033" lon="-3.59101">
        <ele>180.8</ele>
        <time>2025-02-25T10:37:06Z</time>
      </trkpt>
      <trkpt lat="48.10331" lon="-3.59101">
        <ele>180.7</ele>
        <time>2025-02-25T10:37:07Z</time>
      </trkpt>
      <trkpt lat="48.10332" lon="-3.59101">
        <ele>180.6</ele>
        <time>2025-02-25T10:37:08Z</time>
      </trkpt>
      <trkpt lat="48.10333" lon="-3.59102">
        <ele>180.4</ele>
        <time>2025-02-25T10:37:09Z</time>
      </trkpt>
      <trkpt lat="48.10335" lon="-3.59102">
        <ele>180.1</ele>
        <time>2025-02-25T10:37:10Z</time>
      </trkpt>
      <trkpt lat="48.10336" lon="-3.59102">
        <ele>180</ele>
        <time>2025-02-25T10:37:11Z</time>
      </trkpt>
      <trkpt lat="48.10337" lon="-3.59102">
        <ele>179.9</ele>
        <time>2025-02-25T10:37:12Z</time>
      </trkpt>
      <trkpt lat="48.10338" lon="-3.59102">
        <ele>179.8</ele>
        <time>2025-02-25T10:37:13Z</time>
      </trkpt>
      <trkpt lat="48.10339" lon="-3.59103">
        <ele>179.7</ele>
        <time>2025-02-25T10:37:14Z</time>
      </trkpt>
      <trkpt lat="48.1034" lon="-3.59102">
        <ele>179.6</ele>
        <time>2025-02-25T10:37:15Z</time>
      </trkpt>
      <trkpt lat="48.10341" lon="-3.59102">
        <ele>179.5</ele>
        <time>2025-02-25T10:37:16Z</time>
      </trkpt>
      <trkpt lat="48.10342" lon="-3.59102">
        <ele>179.4</ele>
        <time>2025-02-25T10:37:17Z</time>
      </trkpt>
      <trkpt lat="48.10343" lon="-3.59102">
        <ele>179.3</ele>
        <time>2025-02-25T10:37:18Z</time>
      </trkpt>
      <trkpt lat="48.10344" lon="-3.59103">
        <ele>179.1</ele>
        <time>2025-02-25T10:37:19Z</time>
      </trkpt>
      <trkpt lat="48.10345" lon="-3.59103">
        <ele>179</ele>
        <time>2025-02-25T10:37:20Z</time>
      </trkpt>
      <trkpt lat="48.10346" lon="-3.59103">
        <ele>178.9</ele>
        <time>2025-02-25T10:37:21Z</time>
      </trkpt>
      <trkpt lat="48.10347" lon="-3.59103">
        <ele>178.8</ele>
        <time>2025-02-25T10:37:22Z</time>
      </trkpt>
      <trkpt lat="48.10348" lon="-3.59103">
        <ele>178.7</ele>
        <time>2025-02-25T10:37:23Z</time>
      </trkpt>
      <trkpt lat="48.10349" lon="-3.59104">
        <ele>178.6</ele>
        <time>2025-02-25T10:37:24Z</time>
      </trkpt>
      <trkpt lat="48.1035" lon="-3.59105">
        <ele>178.4</ele>
        <time>2025-02-25T10:37:25Z</time>
      </trkpt>
      <trkpt lat="48.10351" lon="-3.59104">
        <ele>178.3</ele>
        <time>2025-02-25T10:37:26Z</time>
      </trkpt>
      <trkpt lat="48.10352" lon="-3.59104">
        <ele>178.2</ele>
        <time>2025-02-25T10:37:27Z</time>
      </trkpt>
      <trkpt lat="48.10353" lon="-3.59105">
        <ele>178.1</ele>
        <time>2025-02-25T10:37:28Z</time>
      </trkpt>
      <trkpt lat="48.10354" lon="-3.59105">
        <ele>178</ele>
        <time>2025-02-25T10:37:29Z</time>
      </trkpt>
      <trkpt lat="48.10356" lon="-3.59105">
        <ele>177.8</ele>
        <time>2025-02-25T10:37:30Z</time>
      </trkpt>
      <trkpt lat="48.10357" lon="-3.59106">
        <ele>177.6</ele>
        <time>2025-02-25T10:37:31Z</time>
      </trkpt>
      <trkpt lat="48.10358" lon="-3.59106">
        <ele>177.5</ele>
        <time>2025-02-25T10:37:32Z</time>
      </trkpt>
      <trkpt lat="48.10359" lon="-3.59106">
        <ele>177.4</ele>
        <time>2025-02-25T10:37:33Z</time>
      </trkpt>
      <trkpt lat="48.1036" lon="-3.59106">
        <ele>177.3</ele>
        <time>2025-02-25T10:37:34Z</time>
      </trkpt>
      <trkpt lat="48.10361" lon="-3.59106">
        <ele>177.2</ele>
        <time>2025-02-25T10:37:35Z</time>
      </trkpt>
      <trkpt lat="48.10362" lon="-3.59106">
        <ele>177.2</ele>
        <time>2025-02-25T10:37:36Z</time>
      </trkpt>
      <trkpt lat="48.10363" lon="-3.59107">
        <ele>177.1</ele>
        <time>2025-02-25T10:37:37Z</time>
      </trkpt>
      <trkpt lat="48.10364" lon="-3.59108">
        <ele>177</ele>
        <time>2025-02-25T10:37:38Z</time>
      </trkpt>
      <trkpt lat="48.10365" lon="-3.59108">
        <ele>177</ele>
        <time>2025-02-25T10:37:39Z</time>
      </trkpt>
      <trkpt lat="48.10366" lon="-3.59109">
        <ele>176.9</ele>
        <time>2025-02-25T10:37:40Z</time>
      </trkpt>
      <trkpt lat="48.10367" lon="-3.5911">
        <ele>176.8</ele>
        <time>2025-02-25T10:37:41Z</time>
      </trkpt>
      <trkpt lat="48.10368" lon="-3.59109">
        <ele>176.8</ele>
        <time>2025-02-25T10:37:42Z</time>
      </trkpt>
      <trkpt lat="48.10369" lon="-3.59109">
        <ele>176.8</ele>
        <time>2025-02-25T10:37:43Z</time>
      </trkpt>
      <trkpt lat="48.1037" lon="-3.59109">
        <ele>176.8</ele>
        <time>2025-02-25T10:37:44Z</time>
      </trkpt>
      <trkpt lat="48.10371" lon="-3.59109">
        <ele>176.7</ele>
        <time>2025-02-25T10:37:45Z</time>
      </trkpt>
      <trkpt lat="48.10372" lon="-3.5911">
        <ele>176.6</ele>
        <time>2025-02-25T10:37:46Z</time>
      </trkpt>
      <trkpt lat="48.10373" lon="-3.59109">
        <ele>176.6</ele>
        <time>2025-02-25T10:37:47Z</time>
      </trkpt>
      <trkpt lat="48.10375" lon="-3.5911">
        <ele>176.5</ele>
        <time>2025-02-25T10:37:48Z</time>
      </trkpt>
      <trkpt lat="48.10376" lon="-3.5911">
        <ele>176.5</ele>
        <time>2025-02-25T10:37:49Z</time>
      </trkpt>
      <trkpt lat="48.10377" lon="-3.5911">
        <ele>176.5</ele>
        <time>2025-02-25T10:37:50Z</time>
      </trkpt>
      <trkpt lat="48.10378" lon="-3.59111">
        <ele>176.4</ele>
        <time>2025-02-25T10:37:51Z</time>
      </trkpt>
      <trkpt lat="48.1038" lon="-3.59111">
        <ele>176.3</ele>
        <time>2025-02-25T10:37:52Z</time>
      </trkpt>
      <trkpt lat="48.10381" lon="-3.59112">
        <ele>176.2</ele>
        <time>2025-02-25T10:37:53Z</time>
      </trkpt>
      <trkpt lat="48.10382" lon="-3.59113">
        <ele>176.1</ele>
        <time>2025-02-25T10:37:54Z</time>
      </trkpt>
      <trkpt lat="48.10383" lon="-3.59113">
        <ele>176.1</ele>
        <time>2025-02-25T10:37:55Z</time>
      </trkpt>
      <trkpt lat="48.10384" lon="-3.59113">
        <ele>176</ele>
        <time>2025-02-25T10:37:56Z</time>
      </trkpt>
      <trkpt lat="48.10385" lon="-3.59114">
        <ele>175.9</ele>
        <time>2025-02-25T10:37:57Z</time>
      </trkpt>
      <trkpt lat="48.10386" lon="-3.59115">
        <ele>175.8</ele>
        <time>2025-02-25T10:37:58Z</time>
      </trkpt>
      <trkpt lat="48.10388" lon="-3.59116">
        <ele>175.7</ele>
        <time>2025-02-25T10:37:59Z</time>
      </trkpt>
      <trkpt lat="48.10389" lon="-3.59117">
        <ele>175.6</ele>
        <time>2025-02-25T10:38:00Z</time>
      </trkpt>
      <trkpt lat="48.1039" lon="-3.59117">
        <ele>175.5</ele>
        <time>2025-02-25T10:38:01Z</time>
      </trkpt>
      <trkpt lat="48.10391" lon="-3.59117">
        <ele>175.4</ele>
        <time>2025-02-25T10:38:02Z</time>
      </trkpt>
      <trkpt lat="48.10392" lon="-3.59118">
        <ele>175.3</ele>
        <time>2025-02-25T10:38:03Z</time>
      </trkpt>
      <trkpt lat="48.10394" lon="-3.59117">
        <ele>175.2</ele>
        <time>2025-02-25T10:38:04Z</time>
      </trkpt>
      <trkpt lat="48.10395" lon="-3.59117">
        <ele>175.2</ele>
        <time>2025-02-25T10:38:05Z</time>
      </trkpt>
      <trkpt lat="48.10396" lon="-3.59116">
        <ele>175.2</ele>
        <time>2025-02-25T10:38:06Z</time>
      </trkpt>
      <trkpt lat="48.10397" lon="-3.59116">
        <ele>175.1</ele>
        <time>2025-02-25T10:38:07Z</time>
      </trkpt>
      <trkpt lat="48.10398" lon="-3.59116">
        <ele>175</ele>
        <time>2025-02-25T10:38:08Z</time>
      </trkpt>
      <trkpt lat="48.10399" lon="-3.59116">
        <ele>175</ele>
        <time>2025-02-25T10:38:09Z</time>
      </trkpt>
      <trkpt lat="48.104" lon="-3.59116">
        <ele>174.9</ele>
        <time>2025-02-25T10:38:10Z</time>
      </trkpt>
      <trkpt lat="48.10401" lon="-3.59117">
        <ele>174.8</ele>
        <time>2025-02-25T10:38:11Z</time>
      </trkpt>
      <trkpt lat="48.10401" lon="-3.59117">
        <ele>174.8</ele>
        <time>2025-02-25T10:38:12Z</time>
      </trkpt>
      <trkpt lat="48.10402" lon="-3.59117">
        <ele>174.7</ele>
        <time>2025-02-25T10:38:13Z</time>
      </trkpt>
      <trkpt lat="48.10403" lon="-3.59117">
        <ele>174.7</ele>
        <time>2025-02-25T10:38:14Z</time>
      </trkpt>
      <trkpt lat="48.10404" lon="-3.59117">
        <ele>174.6</ele>
        <time>2025-02-25T10:38:15Z</time>
      </trkpt>
      <trkpt lat="48.10405" lon="-3.59118">
        <ele>174.5</ele>
        <time>2025-02-25T10:38:16Z</time>
      </trkpt>
      <trkpt lat="48.10406" lon="-3.59117">
        <ele>174.5</ele>
        <time>2025-02-25T10:38:17Z</time>
      </trkpt>
      <trkpt lat="48.10408" lon="-3.59118">
        <ele>174.3</ele>
        <time>2025-02-25T10:38:18Z</time>
      </trkpt>
      <trkpt lat="48.10409" lon="-3.59118">
        <ele>174.2</ele>
        <time>2025-02-25T10:38:19Z</time>
      </trkpt>
      <trkpt lat="48.1041" lon="-3.59118">
        <ele>174.2</ele>
        <time>2025-02-25T10:38:20Z</time>
      </trkpt>
      <trkpt lat="48.10411" lon="-3.59118">
        <ele>174.1</ele>
        <time>2025-02-25T10:38:21Z</time>
      </trkpt>
      <trkpt lat="48.10413" lon="-3.59118">
        <ele>174</ele>
        <time>2025-02-25T10:38:22Z</time>
      </trkpt>
      <trkpt lat="48.10414" lon="-3.59119">
        <ele>173.9</ele>
        <time>2025-02-25T10:38:23Z</time>
      </trkpt>
      <trkpt lat="48.10415" lon="-3.59119">
        <ele>173.8</ele>
        <time>2025-02-25T10:38:24Z</time>
      </trkpt>
      <trkpt lat="48.10416" lon="-3.5912">
        <ele>173.7</ele>
        <time>2025-02-25T10:38:25Z</time>
      </trkpt>
      <trkpt lat="48.10418" lon="-3.5912">
        <ele>173.6</ele>
        <time>2025-02-25T10:38:26Z</time>
      </trkpt>
      <trkpt lat="48.10419" lon="-3.59121">
        <ele>173.6</ele>
        <time>2025-02-25T10:38:27Z</time>
      </trkpt>
      <trkpt lat="48.1042" lon="-3.59121">
        <ele>173.5</ele>
        <time>2025-02-25T10:38:28Z</time>
      </trkpt>
      <trkpt lat="48.10421" lon="-3.59122">
        <ele>173.5</ele>
        <time>2025-02-25T10:38:29Z</time>
      </trkpt>
      <trkpt lat="48.10422" lon="-3.59123">
        <ele>173.4</ele>
        <time>2025-02-25T10:38:30Z</time>
      </trkpt>
      <trkpt lat="48.10423" lon="-3.59124">
        <ele>173.3</ele>
        <time>2025-02-25T10:38:31Z</time>
      </trkpt>
      <trkpt lat="48.10424" lon="-3.59125">
        <ele>173.2</ele>
        <time>2025-02-25T10:38:32Z</time>
      </trkpt>
      <trkpt lat="48.10425" lon="-3.59126">
        <ele>173.2</ele>
        <time>2025-02-25T10:38:33Z</time>
      </trkpt>
      <trkpt lat="48.10426" lon="-3.59125">
        <ele>173.2</ele>
        <time>2025-02-25T10:38:34Z</time>
      </trkpt>
      <trkpt lat="48.10427" lon="-3.59125">
        <ele>173.1</ele>
        <time>2025-02-25T10:38:35Z</time>
      </trkpt>
      <trkpt lat="48.10428" lon="-3.59126">
        <ele>173.1</ele>
        <time>2025-02-25T10:38:36Z</time>
      </trkpt>
      <trkpt lat="48.10429" lon="-3.59126">
        <ele>173</ele>
        <time>2025-02-25T10:38:37Z</time>
      </trkpt>
      <trkpt lat="48.1043" lon="-3.59127">
        <ele>172.9</ele>
        <time>2025-02-25T10:38:38Z</time>
      </trkpt>
      <trkpt lat="48.10431" lon="-3.59128">
        <ele>172.9</ele>
        <time>2025-02-25T10:38:39Z</time>
      </trkpt>
      <trkpt lat="48.10432" lon="-3.59129">
        <ele>172.8</ele>
        <time>2025-02-25T10:38:40Z</time>
      </trkpt>
      <trkpt lat="48.10433" lon="-3.59129">
        <ele>172.8</ele>
        <time>2025-02-25T10:38:41Z</time>
      </trkpt>
      <trkpt lat="48.10435" lon="-3.59129">
        <ele>172.7</ele>
        <time>2025-02-25T10:38:42Z</time>
      </trkpt>
      <trkpt lat="48.10436" lon="-3.59131">
        <ele>172.6</ele>
        <time>2025-02-25T10:38:43Z</time>
      </trkpt>
      <trkpt lat="48.10437" lon="-3.59131">
        <ele>172.6</ele>
        <time>2025-02-25T10:38:44Z</time>
      </trkpt>
      <trkpt lat="48.10438" lon="-3.59131">
        <ele>172.5</ele>
        <time>2025-02-25T10:38:45Z</time>
      </trkpt>
      <trkpt lat="48.10439" lon="-3.59132">
        <ele>172.4</ele>
        <time>2025-02-25T10:38:46Z</time>
      </trkpt>
      <trkpt lat="48.1044" lon="-3.59133">
        <ele>172.4</ele>
        <time>2025-02-25T10:38:47Z</time>
      </trkpt>
      <trkpt lat="48.10441" lon="-3.59133">
        <ele>172.3</ele>
        <time>2025-02-25T10:38:48Z</time>
      </trkpt>
      <trkpt lat="48.10442" lon="-3.59133">
        <ele>172.3</ele>
        <time>2025-02-25T10:38:49Z</time>
      </trkpt>
      <trkpt lat="48.10443" lon="-3.59133">
        <ele>172.3</ele>
        <time>2025-02-25T10:38:50Z</time>
      </trkpt>
      <trkpt lat="48.10444" lon="-3.59134">
        <ele>172.2</ele>
        <time>2025-02-25T10:38:51Z</time>
      </trkpt>
      <trkpt lat="48.10445" lon="-3.59134">
        <ele>172.2</ele>
        <time>2025-02-25T10:38:52Z</time>
      </trkpt>
      <trkpt lat="48.10445" lon="-3.59135">
        <ele>172.1</ele>
        <time>2025-02-25T10:38:53Z</time>
      </trkpt>
      <trkpt lat="48.10446" lon="-3.59135">
        <ele>172.1</ele>
        <time>2025-02-25T10:38:54Z</time>
      </trkpt>
      <trkpt lat="48.10447" lon="-3.59135">
        <ele>172.1</ele>
        <time>2025-02-25T10:38:55Z</time>
      </trkpt>
      <trkpt lat="48.10448" lon="-3.59135">
        <ele>172</ele>
        <time>2025-02-25T10:38:56Z</time>
      </trkpt>
      <trkpt lat="48.10449" lon="-3.59136">
        <ele>172</ele>
        <time>2025-02-25T10:38:57Z</time>
      </trkpt>
      <trkpt lat="48.10449" lon="-3.59138">
        <ele>171.9</ele>
        <time>2025-02-25T10:38:58Z</time>
      </trkpt>
      <trkpt lat="48.10451" lon="-3.59138">
        <ele>171.8</ele>
        <time>2025-02-25T10:38:59Z</time>
      </trkpt>
      <trkpt lat="48.10452" lon="-3.59138">
        <ele>171.8</ele>
        <time>2025-02-25T10:39:00Z</time>
      </trkpt>
      <trkpt lat="48.10453" lon="-3.59139">
        <ele>171.7</ele>
        <time>2025-02-25T10:39:01Z</time>
      </trkpt>
      <trkpt lat="48.10454" lon="-3.5914">
        <ele>171.6</ele>
        <time>2025-02-25T10:39:02Z</time>
      </trkpt>
      <trkpt lat="48.10455" lon="-3.59141">
        <ele>171.5</ele>
        <time>2025-02-25T10:39:03Z</time>
      </trkpt>
      <trkpt lat="48.10456" lon="-3.59142">
        <ele>171.5</ele>
        <time>2025-02-25T10:39:04Z</time>
      </trkpt>
      <trkpt lat="48.10458" lon="-3.59142">
        <ele>171.4</ele>
        <time>2025-02-25T10:39:05Z</time>
      </trkpt>
      <trkpt lat="48.10459" lon="-3.59143">
        <ele>171.3</ele>
        <time>2025-02-25T10:39:06Z</time>
      </trkpt>
      <trkpt lat="48.1046" lon="-3.59144">
        <ele>171.3</ele>
        <time>2025-02-25T10:39:07Z</time>
      </trkpt>
      <trkpt lat="48.1046" lon="-3.59145">
        <ele>171.2</ele>
        <time>2025-02-25T10:39:08Z</time>
      </trkpt>
      <trkpt lat="48.10461" lon="-3.59146">
        <ele>171.1</ele>
        <time>2025-02-25T10:39:09Z</time>
      </trkpt>
      <trkpt lat="48.10462" lon="-3.59147">
        <ele>171.1</ele>
        <time>2025-02-25T10:39:10Z</time>
      </trkpt>
      <trkpt lat="48.10463" lon="-3.59148">
        <ele>171</ele>
        <time>2025-02-25T10:39:11Z</time>
      </trkpt>
      <trkpt lat="48.10464" lon="-3.59148">
        <ele>171</ele>
        <time>2025-02-25T10:39:12Z</time>
      </trkpt>
      <trkpt lat="48.10465" lon="-3.59149">
        <ele>170.9</ele>
        <time>2025-02-25T10:39:13Z</time>
      </trkpt>
      <trkpt lat="48.10466" lon="-3.59151">
        <ele>170.8</ele>
        <time>2025-02-25T10:39:14Z</time>
      </trkpt>
      <trkpt lat="48.10467" lon="-3.59151">
        <ele>170.8</ele>
        <time>2025-02-25T10:39:15Z</time>
      </trkpt>
      <trkpt lat="48.10468" lon="-3.59151">
        <ele>170.7</ele>
        <time>2025-02-25T10:39:16Z</time>
      </trkpt>
      <trkpt lat="48.10469" lon="-3.59152">
        <ele>170.6</ele>
        <time>2025-02-25T10:39:17Z</time>
      </trkpt>
      <trkpt lat="48.1047" lon="-3.59152">
        <ele>170.6</ele>
        <time>2025-02-25T10:39:18Z</time>
      </trkpt>
      <trkpt lat="48.10471" lon="-3.59153">
        <ele>170.5</ele>
        <time>2025-02-25T10:39:19Z</time>
      </trkpt>
      <trkpt lat="48.10473" lon="-3.59153">
        <ele>170.5</ele>
        <time>2025-02-25T10:39:20Z</time>
      </trkpt>
      <trkpt lat="48.10474" lon="-3.59154">
        <ele>170.4</ele>
        <time>2025-02-25T10:39:21Z</time>
      </trkpt>
      <trkpt lat="48.10475" lon="-3.59155">
        <ele>170.3</ele>
        <time>2025-02-25T10:39:22Z</time>
      </trkpt>
      <trkpt lat="48.10476" lon="-3.59156">
        <ele>170.2</ele>
        <time>2025-02-25T10:39:23Z</time>
      </trkpt>
      <trkpt lat="48.10477" lon="-3.59156">
        <ele>170.2</ele>
        <time>2025-02-25T10:39:24Z</time>
      </trkpt>
      <trkpt lat="48.10478" lon="-3.59156">
        <ele>170.2</ele>
        <time>2025-02-25T10:39:25Z</time>
      </trkpt>
      <trkpt lat="48.10479" lon="-3.59157">
        <ele>170.1</ele>
        <time>2025-02-25T10:39:26Z</time>
      </trkpt>
      <trkpt lat="48.1048" lon="-3.59157">
        <ele>170.1</ele>
        <time>2025-02-25T10:39:27Z</time>
      </trkpt>
      <trkpt lat="48.10481" lon="-3.59157">
        <ele>170</ele>
        <time>2025-02-25T10:39:28Z</time>
      </trkpt>
      <trkpt lat="48.10481" lon="-3.59158">
        <ele>170</ele>
        <time>2025-02-25T10:39:29Z</time>
      </trkpt>
      <trkpt lat="48.10482" lon="-3.59159">
        <ele>169.9</ele>
        <time>2025-02-25T10:39:30Z</time>
      </trkpt>
      <trkpt lat="48.10484" lon="-3.5916">
        <ele>169.8</ele>
        <time>2025-02-25T10:39:31Z</time>
      </trkpt>
      <trkpt lat="48.10485" lon="-3.59161">
        <ele>169.7</ele>
        <time>2025-02-25T10:39:32Z</time>
      </trkpt>
      <trkpt lat="48.10486" lon="-3.59162">
        <ele>169.7</ele>
        <time>2025-02-25T10:39:33Z</time>
      </trkpt>
      <trkpt lat="48.10487" lon="-3.59162">
        <ele>169.6</ele>
        <time>2025-02-25T10:39:34Z</time>
      </trkpt>
      <trkpt lat="48.10489" lon="-3.59163">
        <ele>169.5</ele>
        <time>2025-02-25T10:39:35Z</time>
      </trkpt>
      <trkpt lat="48.1049" lon="-3.59163">
        <ele>169.5</ele>
        <time>2025-02-25T10:39:36Z</time>
      </trkpt>
      <trkpt lat="48.10491" lon="-3.59163">
        <ele>169.5</ele>
        <time>2025-02-25T10:39:37Z</time>
      </trkpt>
      <trkpt lat="48.10492" lon="-3.59163">
        <ele>169.4</ele>
        <time>2025-02-25T10:39:38Z</time>
      </trkpt>
      <trkpt lat="48.10493" lon="-3.59163">
        <ele>169.4</ele>
        <time>2025-02-25T10:39:39Z</time>
      </trkpt>
      <trkpt lat="48.10494" lon="-3.59163">
        <ele>169.3</ele>
        <time>2025-02-25T10:39:40Z</time>
      </trkpt>
      <trkpt lat="48.10495" lon="-3.59163">
        <ele>169.3</ele>
        <time>2025-02-25T10:39:41Z</time>
      </trkpt>
      <trkpt lat="48.10496" lon="-3.59163">
        <ele>169.3</ele>
        <time>2025-02-25T10:39:42Z</time>
      </trkpt>
      <trkpt lat="48.10497" lon="-3.59163">
        <ele>169.2</ele>
        <time>2025-02-25T10:39:43Z</time>
      </trkpt>
      <trkpt lat="48.10498" lon="-3.59163">
        <ele>169.2</ele>
        <time>2025-02-25T10:39:44Z</time>
      </trkpt>
      <trkpt lat="48.10499" lon="-3.59164">
        <ele>169.1</ele>
        <time>2025-02-25T10:39:45Z</time>
      </trkpt>
      <trkpt lat="48.105" lon="-3.59165">
        <ele>169.1</ele>
        <time>2025-02-25T10:39:46Z</time>
      </trkpt>
      <trkpt lat="48.10501" lon="-3.59165">
        <ele>169</ele>
        <time>2025-02-25T10:39:47Z</time>
      </trkpt>
      <trkpt lat="48.10502" lon="-3.59166">
        <ele>169</ele>
        <time>2025-02-25T10:39:48Z</time>
      </trkpt>
      <trkpt lat="48.10504" lon="-3.59166">
        <ele>168.9</ele>
        <time>2025-02-25T10:39:49Z</time>
      </trkpt>
      <trkpt lat="48.10504" lon="-3.59167">
        <ele>168.8</ele>
        <time>2025-02-25T10:39:50Z</time>
      </trkpt>
      <trkpt lat="48.10505" lon="-3.59169">
        <ele>168.7</ele>
        <time>2025-02-25T10:39:51Z</time>
      </trkpt>
      <trkpt lat="48.10506" lon="-3.59169">
        <ele>168.7</ele>
        <time>2025-02-25T10:39:52Z</time>
      </trkpt>
      <trkpt lat="48.10507" lon="-3.5917">
        <ele>168.6</ele>
        <time>2025-02-25T10:39:53Z</time>
      </trkpt>
      <trkpt lat="48.10508" lon="-3.59171">
        <ele>168.6</ele>
        <time>2025-02-25T10:39:54Z</time>
      </trkpt>
      <trkpt lat="48.10509" lon="-3.59172">
        <ele>168.5</ele>
        <time>2025-02-25T10:39:55Z</time>
      </trkpt>
      <trkpt lat="48.1051" lon="-3.59173">
        <ele>168.4</ele>
        <time>2025-02-25T10:39:56Z</time>
      </trkpt>
      <trkpt lat="48.10511" lon="-3.59173">
        <ele>168.4</ele>
        <time>2025-02-25T10:39:57Z</time>
      </trkpt>
      <trkpt lat="48.10512" lon="-3.59173">
        <ele>168.3</ele>
        <time>2025-02-25T10:39:58Z</time>
      </trkpt>
      <trkpt lat="48.10513" lon="-3.59173">
        <ele>168.3</ele>
        <time>2025-02-25T10:39:59Z</time>
      </trkpt>
      <trkpt lat="48.10514" lon="-3.59175">
        <ele>168.2</ele>
        <time>2025-02-25T10:40:00Z</time>
      </trkpt>
      <trkpt lat="48.10515" lon="-3.59175">
        <ele>168.2</ele>
        <time>2025-02-25T10:40:01Z</time>
      </trkpt>
      <trkpt lat="48.10517" lon="-3.59176">
        <ele>168.1</ele>
        <time>2025-02-25T10:40:02Z</time>
      </trkpt>
      <trkpt lat="48.10518" lon="-3.59176">
        <ele>168</ele>
        <time>2025-02-25T10:40:03Z</time>
      </trkpt>
      <trkpt lat="48.10519" lon="-3.59177">
        <ele>167.9</ele>
        <time>2025-02-25T10:40:04Z</time>
      </trkpt>
      <trkpt lat="48.1052" lon="-3.59178">
        <ele>167.9</ele>
        <time>2025-02-25T10:40:05Z</time>
      </trkpt>
      <trkpt lat="48.10521" lon="-3.59178">
        <ele>167.8</ele>
        <time>2025-02-25T10:40:06Z</time>
      </trkpt>
      <trkpt lat="48.10522" lon="-3.5918">
        <ele>167.7</ele>
        <time>2025-02-25T10:40:07Z</time>
      </trkpt>
      <trkpt lat="48.10523" lon="-3.59181">
        <ele>167.7</ele>
        <time>2025-02-25T10:40:08Z</time>
      </trkpt>
      <trkpt lat="48.10524" lon="-3.59182">
        <ele>167.6</ele>
        <time>2025-02-25T10:40:09Z</time>
      </trkpt>
      <trkpt lat="48.10525" lon="-3.59183">
        <ele>167.5</ele>
        <time>2025-02-25T10:40:10Z</time>
      </trkpt>
      <trkpt lat="48.10526" lon="-3.59183">
        <ele>167.5</ele>
        <time>2025-02-25T10:40:11Z</time>
      </trkpt>
      <trkpt lat="48.10527" lon="-3.59183">
        <ele>167.4</ele>
        <time>2025-02-25T10:40:12Z</time>
      </trkpt>
      <trkpt lat="48.10528" lon="-3.59183">
        <ele>167.4</ele>
        <time>2025-02-25T10:40:13Z</time>
      </trkpt>
      <trkpt lat="48.10529" lon="-3.59184">
        <ele>167.3</ele>
        <time>2025-02-25T10:40:14Z</time>
      </trkpt>
      <trkpt lat="48.1053" lon="-3.59184">
        <ele>167.3</ele>
        <time>2025-02-25T10:40:15Z</time>
      </trkpt>
      <trkpt lat="48.10531" lon="-3.59183">
        <ele>167.3</ele>
        <time>2025-02-25T10:40:16Z</time>
      </trkpt>
      <trkpt lat="48.10531" lon="-3.59184">
        <ele>167.3</ele>
        <time>2025-02-25T10:40:17Z</time>
      </trkpt>
      <trkpt lat="48.10532" lon="-3.59185">
        <ele>167.2</ele>
        <time>2025-02-25T10:40:18Z</time>
      </trkpt>
      <trkpt lat="48.10533" lon="-3.59186">
        <ele>167.1</ele>
        <time>2025-02-25T10:40:19Z</time>
      </trkpt>
      <trkpt lat="48.10535" lon="-3.59186">
        <ele>167</ele>
        <time>2025-02-25T10:40:20Z</time>
      </trkpt>
      <trkpt lat="48.10536" lon="-3.59187">
        <ele>167</ele>
        <time>2025-02-25T10:40:21Z</time>
      </trkpt>
      <trkpt lat="48.10536" lon="-3.59188">
        <ele>166.9</ele>
        <time>2025-02-25T10:40:22Z</time>
      </trkpt>
      <trkpt lat="48.10537" lon="-3.59188">
        <ele>166.9</ele>
        <time>2025-02-25T10:40:23Z</time>
      </trkpt>
      <trkpt lat="48.10538" lon="-3.59189">
        <ele>166.8</ele>
        <time>2025-02-25T10:40:24Z</time>
      </trkpt>
      <trkpt lat="48.10539" lon="-3.59189">
        <ele>166.8</ele>
        <time>2025-02-25T10:40:25Z</time>
      </trkpt>
      <trkpt lat="48.1054" lon="-3.5919">
        <ele>166.7</ele>
        <time>2025-02-25T10:40:26Z</time>
      </trkpt>
      <trkpt lat="48.1054" lon="-3.59192">
        <ele>166.6</ele>
        <time>2025-02-25T10:40:27Z</time>
      </trkpt>
      <trkpt lat="48.10542" lon="-3.59193">
        <ele>166.5</ele>
        <time>2025-02-25T10:40:28Z</time>
      </trkpt>
      <trkpt lat="48.10543" lon="-3.59193">
        <ele>166.5</ele>
        <time>2025-02-25T10:40:29Z</time>
      </trkpt>
      <trkpt lat="48.10544" lon="-3.59194">
        <ele>166.4</ele>
        <time>2025-02-25T10:40:30Z</time>
      </trkpt>
      <trkpt lat="48.10545" lon="-3.59195">
        <ele>166.4</ele>
        <time>2025-02-25T10:40:31Z</time>
      </trkpt>
      <trkpt lat="48.10546" lon="-3.59196">
        <ele>166.3</ele>
        <time>2025-02-25T10:40:32Z</time>
      </trkpt>
      <trkpt lat="48.10547" lon="-3.59197">
        <ele>166.3</ele>
        <time>2025-02-25T10:40:33Z</time>
      </trkpt>
      <trkpt lat="48.10548" lon="-3.59197">
        <ele>166.2</ele>
        <time>2025-02-25T10:40:34Z</time>
      </trkpt>
      <trkpt lat="48.10549" lon="-3.59197">
        <ele>166.2</ele>
        <time>2025-02-25T10:40:35Z</time>
      </trkpt>
      <trkpt lat="48.1055" lon="-3.59198">
        <ele>166.2</ele>
        <time>2025-02-25T10:40:36Z</time>
      </trkpt>
      <trkpt lat="48.10551" lon="-3.59198">
        <ele>166.1</ele>
        <time>2025-02-25T10:40:37Z</time>
      </trkpt>
      <trkpt lat="48.10552" lon="-3.59199">
        <ele>166.1</ele>
        <time>2025-02-25T10:40:38Z</time>
      </trkpt>
      <trkpt lat="48.10553" lon="-3.59199">
        <ele>166.1</ele>
        <time>2025-02-25T10:40:39Z</time>
      </trkpt>
      <trkpt lat="48.10554" lon="-3.592">
        <ele>166</ele>
        <time>2025-02-25T10:40:40Z</time>
      </trkpt>
      <trkpt lat="48.10555" lon="-3.59201">
        <ele>166</ele>
        <time>2025-02-25T10:40:41Z</time>
      </trkpt>
      <trkpt lat="48.10556" lon="-3.59202">
        <ele>166</ele>
        <time>2025-02-25T10:40:42Z</time>
      </trkpt>
      <trkpt lat="48.10556" lon="-3.59203">
        <ele>166</ele>
        <time>2025-02-25T10:40:43Z</time>
      </trkpt>
      <trkpt lat="48.10557" lon="-3.59204">
        <ele>166</ele>
        <time>2025-02-25T10:40:44Z</time>
      </trkpt>
      <trkpt lat="48.10559" lon="-3.59205">
        <ele>166</ele>
        <time>2025-02-25T10:40:45Z</time>
      </trkpt>
      <trkpt lat="48.1056" lon="-3.59205">
        <ele>165.9</ele>
        <time>2025-02-25T10:40:46Z</time>
      </trkpt>
      <trkpt lat="48.10561" lon="-3.59206">
        <ele>165.9</ele>
        <time>2025-02-25T10:40:47Z</time>
      </trkpt>
      <trkpt lat="48.10562" lon="-3.59208">
        <ele>165.9</ele>
        <time>2025-02-25T10:40:48Z</time>
      </trkpt>
      <trkpt lat="48.10563" lon="-3.59208">
        <ele>165.9</ele>
        <time>2025-02-25T10:40:49Z</time>
      </trkpt>
      <trkpt lat="48.10564" lon="-3.59209">
        <ele>165.8</ele>
        <time>2025-02-25T10:40:50Z</time>
      </trkpt>
      <trkpt lat="48.10565" lon="-3.5921">
        <ele>165.8</ele>
        <time>2025-02-25T10:40:51Z</time>
      </trkpt>
      <trkpt lat="48.10565" lon="-3.59212">
        <ele>165.8</ele>
        <time>2025-02-25T10:40:52Z</time>
      </trkpt>
      <trkpt lat="48.10566" lon="-3.59214">
        <ele>165.7</ele>
        <time>2025-02-25T10:40:53Z</time>
      </trkpt>
      <trkpt lat="48.10568" lon="-3.59214">
        <ele>165.7</ele>
        <time>2025-02-25T10:40:54Z</time>
      </trkpt>
      <trkpt lat="48.10569" lon="-3.59215">
        <ele>165.6</ele>
        <time>2025-02-25T10:40:55Z</time>
      </trkpt>
      <trkpt lat="48.10569" lon="-3.59217">
        <ele>165.6</ele>
        <time>2025-02-25T10:40:56Z</time>
      </trkpt>
      <trkpt lat="48.1057" lon="-3.59218">
        <ele>165.6</ele>
        <time>2025-02-25T10:40:57Z</time>
      </trkpt>
      <trkpt lat="48.10571" lon="-3.59219">
        <ele>165.5</ele>
        <time>2025-02-25T10:40:58Z</time>
      </trkpt>
      <trkpt lat="48.10571" lon="-3.59221">
        <ele>165.5</ele>
        <time>2025-02-25T10:40:59Z</time>
      </trkpt>
      <trkpt lat="48.10572" lon="-3.59223">
        <ele>165.4</ele>
        <time>2025-02-25T10:41:00Z</time>
      </trkpt>
      <trkpt lat="48.10573" lon="-3.59224">
        <ele>165.3</ele>
        <time>2025-02-25T10:41:01Z</time>
      </trkpt>
      <trkpt lat="48.10573" lon="-3.59226">
        <ele>165.3</ele>
        <time>2025-02-25T10:41:02Z</time>
      </trkpt>
      <trkpt lat="48.10574" lon="-3.59227">
        <ele>165.3</ele>
        <time>2025-02-25T10:41:03Z</time>
      </trkpt>
      <trkpt lat="48.10575" lon="-3.59229">
        <ele>165.2</ele>
        <time>2025-02-25T10:41:04Z</time>
      </trkpt>
      <trkpt lat="48.10576" lon="-3.5923">
        <ele>165.2</ele>
        <time>2025-02-25T10:41:05Z</time>
      </trkpt>
      <trkpt lat="48.10577" lon="-3.59231">
        <ele>165.2</ele>
        <time>2025-02-25T10:41:06Z</time>
      </trkpt>
      <trkpt lat="48.10577" lon="-3.59232">
        <ele>165.1</ele>
        <time>2025-02-25T10:41:07Z</time>
      </trkpt>
      <trkpt lat="48.10578" lon="-3.59233">
        <ele>165.1</ele>
        <time>2025-02-25T10:41:08Z</time>
      </trkpt>
      <trkpt lat="48.10579" lon="-3.59234">
        <ele>165.1</ele>
        <time>2025-02-25T10:41:09Z</time>
      </trkpt>
      <trkpt lat="48.1058" lon="-3.59235">
        <ele>165.1</ele>
        <time>2025-02-25T10:41:10Z</time>
      </trkpt>
      <trkpt lat="48.10581" lon="-3.59237">
        <ele>165</ele>
        <time>2025-02-25T10:41:11Z</time>
      </trkpt>
      <trkpt lat="48.10581" lon="-3.59238">
        <ele>165</ele>
        <time>2025-02-25T10:41:12Z</time>
      </trkpt>
      <trkpt lat="48.10582" lon="-3.59239">
        <ele>165</ele>
        <time>2025-02-25T10:41:13Z</time>
      </trkpt>
      <trkpt lat="48.10582" lon="-3.59241">
        <ele>165</ele>
        <time>2025-02-25T10:41:14Z</time>
      </trkpt>
      <trkpt lat="48.10583" lon="-3.59242">
        <ele>165</ele>
        <time>2025-02-25T10:41:15Z</time>
      </trkpt>
      <trkpt lat="48.10584" lon="-3.59244">
        <ele>165.1</ele>
        <time>2025-02-25T10:41:16Z</time>
      </trkpt>
      <trkpt lat="48.10584" lon="-3.59245">
        <ele>165.1</ele>
        <time>2025-02-25T10:41:17Z</time>
      </trkpt>
      <trkpt lat="48.10585" lon="-3.59246">
        <ele>165.2</ele>
        <time>2025-02-25T10:41:18Z</time>
      </trkpt>
      <trkpt lat="48.10585" lon="-3.59247">
        <ele>165.2</ele>
        <time>2025-02-25T10:41:19Z</time>
      </trkpt>
      <trkpt lat="48.10586" lon="-3.59248">
        <ele>165.3</ele>
        <time>2025-02-25T10:41:20Z</time>
      </trkpt>
      <trkpt lat="48.10587" lon="-3.5925">
        <ele>165.4</ele>
        <time>2025-02-25T10:41:21Z</time>
      </trkpt>
      <trkpt lat="48.10588" lon="-3.59251">
        <ele>165.5</ele>
        <time>2025-02-25T10:41:22Z</time>
      </trkpt>
      <trkpt lat="48.10588" lon="-3.59252">
        <ele>165.5</ele>
        <time>2025-02-25T10:41:23Z</time>
      </trkpt>
      <trkpt lat="48.10589" lon="-3.59253">
        <ele>165.6</ele>
        <time>2025-02-25T10:41:24Z</time>
      </trkpt>
      <trkpt lat="48.1059" lon="-3.59254">
        <ele>165.7</ele>
        <time>2025-02-25T10:41:25Z</time>
      </trkpt>
      <trkpt lat="48.10591" lon="-3.59255">
        <ele>165.8</ele>
        <time>2025-02-25T10:41:26Z</time>
      </trkpt>
      <trkpt lat="48.10592" lon="-3.59256">
        <ele>165.9</ele>
        <time>2025-02-25T10:41:27Z</time>
      </trkpt>
      <trkpt lat="48.10593" lon="-3.59257">
        <ele>166</ele>
        <time>2025-02-25T10:41:28Z</time>
      </trkpt>
      <trkpt lat="48.10593" lon="-3.59258">
        <ele>165.9</ele>
        <time>2025-02-25T10:41:29Z</time>
      </trkpt>
      <trkpt lat="48.10594" lon="-3.59259">
        <ele>166</ele>
        <time>2025-02-25T10:41:30Z</time>
      </trkpt>
      <trkpt lat="48.10595" lon="-3.5926">
        <ele>166.1</ele>
        <time>2025-02-25T10:41:31Z</time>
      </trkpt>
      <trkpt lat="48.10596" lon="-3.59261">
        <ele>166.2</ele>
        <time>2025-02-25T10:41:32Z</time>
      </trkpt>
      <trkpt lat="48.10597" lon="-3.59262">
        <ele>166.3</ele>
        <time>2025-02-25T10:41:33Z</time>
      </trkpt>
      <trkpt lat="48.10598" lon="-3.59263">
        <ele>166.3</ele>
        <time>2025-02-25T10:41:34Z</time>
      </trkpt>
      <trkpt lat="48.10598" lon="-3.59264">
        <ele>166.3</ele>
        <time>2025-02-25T10:41:35Z</time>
      </trkpt>
      <trkpt lat="48.10599" lon="-3.59265">
        <ele>166.4</ele>
        <time>2025-02-25T10:41:36Z</time>
      </trkpt>
      <trkpt lat="48.106" lon="-3.59266">
        <ele>166.5</ele>
        <time>2025-02-25T10:41:37Z</time>
      </trkpt>
      <trkpt lat="48.10601" lon="-3.59267">
        <ele>166.5</ele>
        <time>2025-02-25T10:41:38Z</time>
      </trkpt>
      <trkpt lat="48.10602" lon="-3.59268">
        <ele>166.6</ele>
        <time>2025-02-25T10:41:39Z</time>
      </trkpt>
      <trkpt lat="48.10603" lon="-3.59269">
        <ele>166.6</ele>
        <time>2025-02-25T10:41:40Z</time>
      </trkpt>
      <trkpt lat="48.10604" lon="-3.59269">
        <ele>166.7</ele>
        <time>2025-02-25T10:41:41Z</time>
      </trkpt>
      <trkpt lat="48.10605" lon="-3.5927">
        <ele>166.8</ele>
        <time>2025-02-25T10:41:42Z</time>
      </trkpt>
      <trkpt lat="48.10606" lon="-3.59272">
        <ele>166.8</ele>
        <time>2025-02-25T10:41:43Z</time>
      </trkpt>
      <trkpt lat="48.10607" lon="-3.59272">
        <ele>166.9</ele>
        <time>2025-02-25T10:41:44Z</time>
      </trkpt>
      <trkpt lat="48.10608" lon="-3.59273">
        <ele>166.9</ele>
        <time>2025-02-25T10:41:45Z</time>
      </trkpt>
      <trkpt lat="48.10609" lon="-3.59274">
        <ele>167</ele>
        <time>2025-02-25T10:41:46Z</time>
      </trkpt>
      <trkpt lat="48.10609" lon="-3.59274">
        <ele>167</ele>
        <time>2025-02-25T10:41:47Z</time>
      </trkpt>
      <trkpt lat="48.1061" lon="-3.59275">
        <ele>167</ele>
        <time>2025-02-25T10:41:48Z</time>
      </trkpt>
      <trkpt lat="48.10611" lon="-3.59275">
        <ele>167.1</ele>
        <time>2025-02-25T10:41:49Z</time>
      </trkpt>
      <trkpt lat="48.10612" lon="-3.59275">
        <ele>167.2</ele>
        <time>2025-02-25T10:41:50Z</time>
      </trkpt>
      <trkpt lat="48.10613" lon="-3.59276">
        <ele>167.3</ele>
        <time>2025-02-25T10:41:51Z</time>
      </trkpt>
      <trkpt lat="48.10614" lon="-3.59277">
        <ele>167.4</ele>
        <time>2025-02-25T10:41:52Z</time>
      </trkpt>
      <trkpt lat="48.10615" lon="-3.59277">
        <ele>167.6</ele>
        <time>2025-02-25T10:41:53Z</time>
      </trkpt>
      <trkpt lat="48.10616" lon="-3.59278">
        <ele>167.7</ele>
        <time>2025-02-25T10:41:54Z</time>
      </trkpt>
      <trkpt lat="48.10616" lon="-3.59278">
        <ele>167.7</ele>
        <time>2025-02-25T10:41:55Z</time>
      </trkpt>
      <trkpt lat="48.10617" lon="-3.59279">
        <ele>167.8</ele>
        <time>2025-02-25T10:41:56Z</time>
      </trkpt>
      <trkpt lat="48.10618" lon="-3.5928">
        <ele>167.9</ele>
        <time>2025-02-25T10:41:57Z</time>
      </trkpt>
      <trkpt lat="48.10619" lon="-3.5928">
        <ele>168.1</ele>
        <time>2025-02-25T10:41:58Z</time>
      </trkpt>
      <trkpt lat="48.1062" lon="-3.59281">
        <ele>168.2</ele>
        <time>2025-02-25T10:41:59Z</time>
      </trkpt>
      <trkpt lat="48.10621" lon="-3.59281">
        <ele>168.3</ele>
        <time>2025-02-25T10:42:00Z</time>
      </trkpt>
      <trkpt lat="48.10622" lon="-3.59282">
        <ele>168.4</ele>
        <time>2025-02-25T10:42:01Z</time>
      </trkpt>
      <trkpt lat="48.10623" lon="-3.59283">
        <ele>168.5</ele>
        <time>2025-02-25T10:42:02Z</time>
      </trkpt>
      <trkpt lat="48.10624" lon="-3.59283">
        <ele>168.7</ele>
        <time>2025-02-25T10:42:03Z</time>
      </trkpt>
      <trkpt lat="48.10625" lon="-3.59283">
        <ele>168.8</ele>
        <time>2025-02-25T10:42:04Z</time>
      </trkpt>
      <trkpt lat="48.10626" lon="-3.59283">
        <ele>169</ele>
        <time>2025-02-25T10:42:05Z</time>
      </trkpt>
      <trkpt lat="48.10626" lon="-3.59284">
        <ele>168.9</ele>
        <time>2025-02-25T10:42:06Z</time>
      </trkpt>
      <trkpt lat="48.10627" lon="-3.59285">
        <ele>169</ele>
        <time>2025-02-25T10:42:07Z</time>
      </trkpt>
      <trkpt lat="48.10628" lon="-3.59285">
        <ele>169.2</ele>
        <time>2025-02-25T10:42:08Z</time>
      </trkpt>
      <trkpt lat="48.10629" lon="-3.59285">
        <ele>169.3</ele>
        <time>2025-02-25T10:42:09Z</time>
      </trkpt>
      <trkpt lat="48.1063" lon="-3.59286">
        <ele>169.4</ele>
        <time>2025-02-25T10:42:10Z</time>
      </trkpt>
      <trkpt lat="48.10632" lon="-3.59287">
        <ele>169.7</ele>
        <time>2025-02-25T10:42:11Z</time>
      </trkpt>
      <trkpt lat="48.10633" lon="-3.59287">
        <ele>169.8</ele>
        <time>2025-02-25T10:42:12Z</time>
      </trkpt>
      <trkpt lat="48.10634" lon="-3.59288">
        <ele>169.9</ele>
        <time>2025-02-25T10:42:13Z</time>
      </trkpt>
      <trkpt lat="48.10635" lon="-3.59288">
        <ele>170.1</ele>
        <time>2025-02-25T10:42:14Z</time>
      </trkpt>
      <trkpt lat="48.10636" lon="-3.59289">
        <ele>170.2</ele>
        <time>2025-02-25T10:42:15Z</time>
      </trkpt>
      <trkpt lat="48.10637" lon="-3.59289">
        <ele>170.3</ele>
        <time>2025-02-25T10:42:16Z</time>
      </trkpt>
      <trkpt lat="48.10638" lon="-3.5929">
        <ele>170.4</ele>
        <time>2025-02-25T10:42:17Z</time>
      </trkpt>
      <trkpt lat="48.10639" lon="-3.5929">
        <ele>170.6</ele>
        <time>2025-02-25T10:42:18Z</time>
      </trkpt>
      <trkpt lat="48.10639" lon="-3.59291">
        <ele>170.5</ele>
        <time>2025-02-25T10:42:19Z</time>
      </trkpt>
      <trkpt lat="48.1064" lon="-3.59292">
        <ele>170.6</ele>
        <time>2025-02-25T10:42:20Z</time>
      </trkpt>
      <trkpt lat="48.10641" lon="-3.59293">
        <ele>170.6</ele>
        <time>2025-02-25T10:42:21Z</time>
      </trkpt>
      <trkpt lat="48.10642" lon="-3.59293">
        <ele>170.7</ele>
        <time>2025-02-25T10:42:22Z</time>
      </trkpt>
      <trkpt lat="48.10643" lon="-3.59293">
        <ele>170.8</ele>
        <time>2025-02-25T10:42:23Z</time>
      </trkpt>
      <trkpt lat="48.10644" lon="-3.59294">
        <ele>170.9</ele>
        <time>2025-02-25T10:42:24Z</time>
      </trkpt>
      <trkpt lat="48.10645" lon="-3.59294">
        <ele>171</ele>
        <time>2025-02-25T10:42:25Z</time>
      </trkpt>
      <trkpt lat="48.10646" lon="-3.59294">
        <ele>171.1</ele>
        <time>2025-02-25T10:42:26Z</time>
      </trkpt>
      <trkpt lat="48.10647" lon="-3.59296">
        <ele>171.1</ele>
        <time>2025-02-25T10:42:27Z</time>
      </trkpt>
      <trkpt lat="48.10648" lon="-3.59296">
        <ele>171.2</ele>
        <time>2025-02-25T10:42:28Z</time>
      </trkpt>
      <trkpt lat="48.10649" lon="-3.59297">
        <ele>171.3</ele>
        <time>2025-02-25T10:42:29Z</time>
      </trkpt>
      <trkpt lat="48.1065" lon="-3.59298">
        <ele>171.4</ele>
        <time>2025-02-25T10:42:30Z</time>
      </trkpt>
      <trkpt lat="48.10651" lon="-3.59298">
        <ele>171.5</ele>
        <time>2025-02-25T10:42:31Z</time>
      </trkpt>
      <trkpt lat="48.10652" lon="-3.59299">
        <ele>171.5</ele>
        <time>2025-02-25T10:42:32Z</time>
      </trkpt>
      <trkpt lat="48.10653" lon="-3.59299">
        <ele>171.6</ele>
        <time>2025-02-25T10:42:33Z</time>
      </trkpt>
      <trkpt lat="48.10654" lon="-3.593">
        <ele>171.7</ele>
        <time>2025-02-25T10:42:34Z</time>
      </trkpt>
      <trkpt lat="48.10655" lon="-3.593">
        <ele>171.8</ele>
        <time>2025-02-25T10:42:35Z</time>
      </trkpt>
      <trkpt lat="48.10656" lon="-3.593">
        <ele>171.9</ele>
        <time>2025-02-25T10:42:36Z</time>
      </trkpt>
      <trkpt lat="48.10657" lon="-3.593">
        <ele>172</ele>
        <time>2025-02-25T10:42:37Z</time>
      </trkpt>
      <trkpt lat="48.10658" lon="-3.59301">
        <ele>172.1</ele>
        <time>2025-02-25T10:42:38Z</time>
      </trkpt>
      <trkpt lat="48.10659" lon="-3.59302">
        <ele>172.2</ele>
        <time>2025-02-25T10:42:39Z</time>
      </trkpt>
      <trkpt lat="48.1066" lon="-3.59302">
        <ele>172.3</ele>
        <time>2025-02-25T10:42:40Z</time>
      </trkpt>
      <trkpt lat="48.10661" lon="-3.59302">
        <ele>172.4</ele>
        <time>2025-02-25T10:42:41Z</time>
      </trkpt>
      <trkpt lat="48.10662" lon="-3.59302">
        <ele>172.5</ele>
        <time>2025-02-25T10:42:42Z</time>
      </trkpt>
      <trkpt lat="48.10663" lon="-3.59302">
        <ele>172.6</ele>
        <time>2025-02-25T10:42:43Z</time>
      </trkpt>
      <trkpt lat="48.10664" lon="-3.59302">
        <ele>172.7</ele>
        <time>2025-02-25T10:42:44Z</time>
      </trkpt>
      <trkpt lat="48.10666" lon="-3.59302">
        <ele>172.9</ele>
        <time>2025-02-25T10:42:45Z</time>
      </trkpt>
      <trkpt lat="48.10667" lon="-3.59302">
        <ele>173</ele>
        <time>2025-02-25T10:42:46Z</time>
      </trkpt>
      <trkpt lat="48.10668" lon="-3.59302">
        <ele>173</ele>
        <time>2025-02-25T10:42:47Z</time>
      </trkpt>
      <trkpt lat="48.10669" lon="-3.59303">
        <ele>173</ele>
        <time>2025-02-25T10:42:48Z</time>
      </trkpt>
      <trkpt lat="48.1067" lon="-3.59302">
        <ele>173</ele>
        <time>2025-02-25T10:42:49Z</time>
      </trkpt>
      <trkpt lat="48.1067" lon="-3.59302">
        <ele>173</ele>
        <time>2025-02-25T10:42:50Z</time>
      </trkpt>
      <trkpt lat="48.10671" lon="-3.59303">
        <ele>173</ele>
        <time>2025-02-25T10:42:51Z</time>
      </trkpt>
      <trkpt lat="48.10672" lon="-3.59303">
        <ele>173</ele>
        <time>2025-02-25T10:42:52Z</time>
      </trkpt>
      <trkpt lat="48.10673" lon="-3.59303">
        <ele>173</ele>
        <time>2025-02-25T10:42:53Z</time>
      </trkpt>
      <trkpt lat="48.10674" lon="-3.59303">
        <ele>173</ele>
        <time>2025-02-25T10:42:54Z</time>
      </trkpt>
      <trkpt lat="48.10675" lon="-3.59302">
        <ele>173.1</ele>
        <time>2025-02-25T10:42:55Z</time>
      </trkpt>
      <trkpt lat="48.10676" lon="-3.59302">
        <ele>173.1</ele>
        <time>2025-02-25T10:42:56Z</time>
      </trkpt>
      <trkpt lat="48.10677" lon="-3.59302">
        <ele>173.1</ele>
        <time>2025-02-25T10:42:57Z</time>
      </trkpt>
      <trkpt lat="48.10678" lon="-3.59301">
        <ele>173.1</ele>
        <time>2025-02-25T10:42:58Z</time>
      </trkpt>
      <trkpt lat="48.10679" lon="-3.59301">
        <ele>173.1</ele>
        <time>2025-02-25T10:42:59Z</time>
      </trkpt>
      <trkpt lat="48.1068" lon="-3.593">
        <ele>173.2</ele>
        <time>2025-02-25T10:43:00Z</time>
      </trkpt>
      <trkpt lat="48.10681" lon="-3.593">
        <ele>173.2</ele>
        <time>2025-02-25T10:43:01Z</time>
      </trkpt>
      <trkpt lat="48.10682" lon="-3.593">
        <ele>173.2</ele>
        <time>2025-02-25T10:43:02Z</time>
      </trkpt>
      <trkpt lat="48.10683" lon="-3.59299">
        <ele>173.3</ele>
        <time>2025-02-25T10:43:03Z</time>
      </trkpt>
      <trkpt lat="48.10684" lon="-3.59299">
        <ele>173.3</ele>
        <time>2025-02-25T10:43:04Z</time>
      </trkpt>
      <trkpt lat="48.10685" lon="-3.59298">
        <ele>173.4</ele>
        <time>2025-02-25T10:43:05Z</time>
      </trkpt>
      <trkpt lat="48.10686" lon="-3.59298">
        <ele>173.4</ele>
        <time>2025-02-25T10:43:06Z</time>
      </trkpt>
      <trkpt lat="48.10687" lon="-3.59298">
        <ele>173.4</ele>
        <time>2025-02-25T10:43:07Z</time>
      </trkpt>
      <trkpt lat="48.10688" lon="-3.59297">
        <ele>173.5</ele>
        <time>2025-02-25T10:43:08Z</time>
      </trkpt>
      <trkpt lat="48.10689" lon="-3.59297">
        <ele>173.5</ele>
        <time>2025-02-25T10:43:09Z</time>
      </trkpt>
      <trkpt lat="48.1069" lon="-3.59296">
        <ele>173.6</ele>
        <time>2025-02-25T10:43:10Z</time>
      </trkpt>
      <trkpt lat="48.10691" lon="-3.59295">
        <ele>173.7</ele>
        <time>2025-02-25T10:43:11Z</time>
      </trkpt>
      <trkpt lat="48.10692" lon="-3.59295">
        <ele>173.7</ele>
        <time>2025-02-25T10:43:12Z</time>
      </trkpt>
      <trkpt lat="48.10693" lon="-3.59294">
        <ele>173.8</ele>
        <time>2025-02-25T10:43:13Z</time>
      </trkpt>
      <trkpt lat="48.10694" lon="-3.59293">
        <ele>173.9</ele>
        <time>2025-02-25T10:43:14Z</time>
      </trkpt>
      <trkpt lat="48.10694" lon="-3.59292">
        <ele>174</ele>
        <time>2025-02-25T10:43:15Z</time>
      </trkpt>
      <trkpt lat="48.10695" lon="-3.59291">
        <ele>174</ele>
        <time>2025-02-25T10:43:16Z</time>
      </trkpt>
      <trkpt lat="48.10696" lon="-3.5929">
        <ele>174</ele>
        <time>2025-02-25T10:43:17Z</time>
      </trkpt>
      <trkpt lat="48.10697" lon="-3.59289">
        <ele>174.1</ele>
        <time>2025-02-25T10:43:18Z</time>
      </trkpt>
      <trkpt lat="48.10698" lon="-3.59288">
        <ele>174.1</ele>
        <time>2025-02-25T10:43:19Z</time>
      </trkpt>
      <trkpt lat="48.10699" lon="-3.59287">
        <ele>174.1</ele>
        <time>2025-02-25T10:43:20Z</time>
      </trkpt>
      <trkpt lat="48.10699" lon="-3.59286">
        <ele>174.2</ele>
        <time>2025-02-25T10:43:21Z</time>
      </trkpt>
      <trkpt lat="48.107" lon="-3.59285">
        <ele>174.2</ele>
        <time>2025-02-25T10:43:22Z</time>
      </trkpt>
      <trkpt lat="48.10701" lon="-3.59284">
        <ele>174.3</ele>
        <time>2025-02-25T10:43:23Z</time>
      </trkpt>
      <trkpt lat="48.10701" lon="-3.59282">
        <ele>174.4</ele>
        <time>2025-02-25T10:43:24Z</time>
      </trkpt>
      <trkpt lat="48.10702" lon="-3.5928">
        <ele>174.5</ele>
        <time>2025-02-25T10:43:25Z</time>
      </trkpt>
      <trkpt lat="48.10702" lon="-3.59279">
        <ele>174.6</ele>
        <time>2025-02-25T10:43:26Z</time>
      </trkpt>
      <trkpt lat="48.10703" lon="-3.59277">
        <ele>174.7</ele>
        <time>2025-02-25T10:43:27Z</time>
      </trkpt>
      <trkpt lat="48.10704" lon="-3.59276">
        <ele>174.8</ele>
        <time>2025-02-25T10:43:28Z</time>
      </trkpt>
      <trkpt lat="48.10705" lon="-3.59274">
        <ele>174.9</ele>
        <time>2025-02-25T10:43:29Z</time>
      </trkpt>
      <trkpt lat="48.10706" lon="-3.59272">
        <ele>175</ele>
        <time>2025-02-25T10:43:30Z</time>
      </trkpt>
      <trkpt lat="48.10706" lon="-3.59271">
        <ele>175.1</ele>
        <time>2025-02-25T10:43:31Z</time>
      </trkpt>
      <trkpt lat="48.10707" lon="-3.59269">
        <ele>175.2</ele>
        <time>2025-02-25T10:43:32Z</time>
      </trkpt>
      <trkpt lat="48.10708" lon="-3.59268">
        <ele>175.2</ele>
        <time>2025-02-25T10:43:33Z</time>
      </trkpt>
      <trkpt lat="48.10708" lon="-3.59266">
        <ele>175.4</ele>
        <time>2025-02-25T10:43:34Z</time>
      </trkpt>
      <trkpt lat="48.10709" lon="-3.59265">
        <ele>175.4</ele>
        <time>2025-02-25T10:43:35Z</time>
      </trkpt>
      <trkpt lat="48.1071" lon="-3.59264">
        <ele>175.4</ele>
        <time>2025-02-25T10:43:36Z</time>
      </trkpt>
      <trkpt lat="48.10711" lon="-3.59263">
        <ele>175.5</ele>
        <time>2025-02-25T10:43:37Z</time>
      </trkpt>
      <trkpt lat="48.10712" lon="-3.59262">
        <ele>175.5</ele>
        <time>2025-02-25T10:43:38Z</time>
      </trkpt>
      <trkpt lat="48.10713" lon="-3.59261">
        <ele>175.5</ele>
        <time>2025-02-25T10:43:39Z</time>
      </trkpt>
      <trkpt lat="48.10713" lon="-3.59259">
        <ele>175.7</ele>
        <time>2025-02-25T10:43:40Z</time>
      </trkpt>
      <trkpt lat="48.10714" lon="-3.59258">
        <ele>175.7</ele>
        <time>2025-02-25T10:43:41Z</time>
      </trkpt>
      <trkpt lat="48.10714" lon="-3.59256">
        <ele>175.9</ele>
        <time>2025-02-25T10:43:42Z</time>
      </trkpt>
      <trkpt lat="48.10715" lon="-3.59255">
        <ele>175.9</ele>
        <time>2025-02-25T10:43:43Z</time>
      </trkpt>
      <trkpt lat="48.10716" lon="-3.59254">
        <ele>175.9</ele>
        <time>2025-02-25T10:43:44Z</time>
      </trkpt>
      <trkpt lat="48.10716" lon="-3.59253">
        <ele>176</ele>
        <time>2025-02-25T10:43:45Z</time>
      </trkpt>
      <trkpt lat="48.10716" lon="-3.59251">
        <ele>176.2</ele>
        <time>2025-02-25T10:43:46Z</time>
      </trkpt>
      <trkpt lat="48.10717" lon="-3.5925">
        <ele>176.2</ele>
        <time>2025-02-25T10:43:47Z</time>
      </trkpt>
      <trkpt lat="48.10718" lon="-3.59249">
        <ele>176.2</ele>
        <time>2025-02-25T10:43:48Z</time>
      </trkpt>
      <trkpt lat="48.10719" lon="-3.59248">
        <ele>176.2</ele>
        <time>2025-02-25T10:43:49Z</time>
      </trkpt>
      <trkpt lat="48.10719" lon="-3.59247">
        <ele>176.2</ele>
        <time>2025-02-25T10:43:50Z</time>
      </trkpt>
      <trkpt lat="48.1072" lon="-3.59245">
        <ele>176.3</ele>
        <time>2025-02-25T10:43:51Z</time>
      </trkpt>
      <trkpt lat="48.10721" lon="-3.59245">
        <ele>176.2</ele>
        <time>2025-02-25T10:43:52Z</time>
      </trkpt>
      <trkpt lat="48.10722" lon="-3.59244">
        <ele>176.2</ele>
        <time>2025-02-25T10:43:53Z</time>
      </trkpt>
      <trkpt lat="48.10723" lon="-3.59243">
        <ele>176.2</ele>
        <time>2025-02-25T10:43:54Z</time>
      </trkpt>
      <trkpt lat="48.10723" lon="-3.59242">
        <ele>176.2</ele>
        <time>2025-02-25T10:43:55Z</time>
      </trkpt>
      <trkpt lat="48.10724" lon="-3.5924">
        <ele>176.2</ele>
        <time>2025-02-25T10:43:56Z</time>
      </trkpt>
      <trkpt lat="48.10724" lon="-3.59239">
        <ele>176.3</ele>
        <time>2025-02-25T10:43:57Z</time>
      </trkpt>
      <trkpt lat="48.10725" lon="-3.59237">
        <ele>176.3</ele>
        <time>2025-02-25T10:43:58Z</time>
      </trkpt>
      <trkpt lat="48.10725" lon="-3.59236">
        <ele>176.4</ele>
        <time>2025-02-25T10:43:59Z</time>
      </trkpt>
      <trkpt lat="48.10725" lon="-3.59234">
        <ele>176.4</ele>
        <time>2025-02-25T10:44:00Z</time>
      </trkpt>
      <trkpt lat="48.10726" lon="-3.59233">
        <ele>176.5</ele>
        <time>2025-02-25T10:44:01Z</time>
      </trkpt>
      <trkpt lat="48.10727" lon="-3.59231">
        <ele>176.5</ele>
        <time>2025-02-25T10:44:02Z</time>
      </trkpt>
      <trkpt lat="48.10727" lon="-3.5923">
        <ele>176.6</ele>
        <time>2025-02-25T10:44:03Z</time>
      </trkpt>
      <trkpt lat="48.10728" lon="-3.59229">
        <ele>176.6</ele>
        <time>2025-02-25T10:44:04Z</time>
      </trkpt>
      <trkpt lat="48.10729" lon="-3.59228">
        <ele>176.6</ele>
        <time>2025-02-25T10:44:05Z</time>
      </trkpt>
      <trkpt lat="48.10729" lon="-3.59226">
        <ele>176.8</ele>
        <time>2025-02-25T10:44:06Z</time>
      </trkpt>
      <trkpt lat="48.1073" lon="-3.59224">
        <ele>176.9</ele>
        <time>2025-02-25T10:44:07Z</time>
      </trkpt>
      <trkpt lat="48.1073" lon="-3.59223">
        <ele>176.9</ele>
        <time>2025-02-25T10:44:08Z</time>
      </trkpt>
      <trkpt lat="48.1073" lon="-3.59221">
        <ele>177.1</ele>
        <time>2025-02-25T10:44:09Z</time>
      </trkpt>
      <trkpt lat="48.10729" lon="-3.5922">
        <ele>177.3</ele>
        <time>2025-02-25T10:44:10Z</time>
      </trkpt>
      <trkpt lat="48.10728" lon="-3.59218">
        <ele>177.5</ele>
        <time>2025-02-25T10:44:11Z</time>
      </trkpt>
      <trkpt lat="48.10728" lon="-3.59217">
        <ele>177.6</ele>
        <time>2025-02-25T10:44:12Z</time>
      </trkpt>
      <trkpt lat="48.10727" lon="-3.59216">
        <ele>177.7</ele>
        <time>2025-02-25T10:44:13Z</time>
      </trkpt>
      <trkpt lat="48.10727" lon="-3.59215">
        <ele>177.8</ele>
        <time>2025-02-25T10:44:14Z</time>
      </trkpt>
      <trkpt lat="48.10727" lon="-3.59214">
        <ele>177.9</ele>
        <time>2025-02-25T10:44:15Z</time>
      </trkpt>
      <trkpt lat="48.10724" lon="-3.59212">
        <ele>178.1</ele>
        <time>2025-02-25T10:44:16Z</time>
      </trkpt>
      <trkpt lat="48.10724" lon="-3.59213">
        <ele>178</ele>
        <time>2025-02-25T10:44:17Z</time>
      </trkpt>
      <trkpt lat="48.10724" lon="-3.59213">
        <ele>178</ele>
        <time>2025-02-25T10:44:18Z</time>
      </trkpt>
      <trkpt lat="48.10724" lon="-3.59213">
        <ele>178</ele>
        <time>2025-02-25T10:44:19Z</time>
      </trkpt>
      <trkpt lat="48.10724" lon="-3.59213">
        <ele>178</ele>
        <time>2025-02-25T10:44:20Z</time>
      </trkpt>
      <trkpt lat="48.10724" lon="-3.59212">
        <ele>178.1</ele>
        <time>2025-02-25T10:44:21Z</time>
      </trkpt>
      <trkpt lat="48.10722" lon="-3.5921">
        <ele>178.3</ele>
        <time>2025-02-25T10:44:22Z</time>
      </trkpt>
      <trkpt lat="48.10721" lon="-3.59209">
        <ele>178.4</ele>
        <time>2025-02-25T10:44:23Z</time>
      </trkpt>
      <trkpt lat="48.1072" lon="-3.59208">
        <ele>178.5</ele>
        <time>2025-02-25T10:44:24Z</time>
      </trkpt>
      <trkpt lat="48.1072" lon="-3.59207">
        <ele>178.6</ele>
        <time>2025-02-25T10:44:25Z</time>
      </trkpt>
      <trkpt lat="48.10719" lon="-3.59206">
        <ele>178.7</ele>
        <time>2025-02-25T10:44:26Z</time>
      </trkpt>
      <trkpt lat="48.10719" lon="-3.59205">
        <ele>178.8</ele>
        <time>2025-02-25T10:44:27Z</time>
      </trkpt>
      <trkpt lat="48.1072" lon="-3.59206">
        <ele>178.7</ele>
        <time>2025-02-25T10:44:28Z</time>
      </trkpt>
      <trkpt lat="48.1072" lon="-3.59205">
        <ele>178.8</ele>
        <time>2025-02-25T10:44:29Z</time>
      </trkpt>
      <trkpt lat="48.10719" lon="-3.59204">
        <ele>178.9</ele>
        <time>2025-02-25T10:44:30Z</time>
      </trkpt>
      <trkpt lat="48.10718" lon="-3.59203">
        <ele>178.9</ele>
        <time>2025-02-25T10:44:31Z</time>
      </trkpt>
      <trkpt lat="48.10716" lon="-3.59201">
        <ele>179</ele>
        <time>2025-02-25T10:44:32Z</time>
      </trkpt>
      <trkpt lat="48.10715" lon="-3.592">
        <ele>179</ele>
        <time>2025-02-25T10:44:33Z</time>
      </trkpt>
      <trkpt lat="48.10714" lon="-3.59199">
        <ele>179.1</ele>
        <time>2025-02-25T10:44:34Z</time>
      </trkpt>
      <trkpt lat="48.10713" lon="-3.59197">
        <ele>179.2</ele>
        <time>2025-02-25T10:44:35Z</time>
      </trkpt>
      <trkpt lat="48.10713" lon="-3.59196">
        <ele>179.2</ele>
        <time>2025-02-25T10:44:36Z</time>
      </trkpt>
      <trkpt lat="48.10713" lon="-3.59196">
        <ele>179.2</ele>
        <time>2025-02-25T10:44:37Z</time>
      </trkpt>
      <trkpt lat="48.10713" lon="-3.59195">
        <ele>179.3</ele>
        <time>2025-02-25T10:44:38Z</time>
      </trkpt>
      <trkpt lat="48.10713" lon="-3.59193">
        <ele>179.5</ele>
        <time>2025-02-25T10:44:39Z</time>
      </trkpt>
      <trkpt lat="48.10713" lon="-3.59192">
        <ele>179.6</ele>
        <time>2025-02-25T10:44:40Z</time>
      </trkpt>
      <trkpt lat="48.10713" lon="-3.5919">
        <ele>179.8</ele>
        <time>2025-02-25T10:44:41Z</time>
      </trkpt>
      <trkpt lat="48.10712" lon="-3.59189">
        <ele>179.8</ele>
        <time>2025-02-25T10:44:42Z</time>
      </trkpt>
      <trkpt lat="48.10712" lon="-3.59188">
        <ele>179.9</ele>
        <time>2025-02-25T10:44:43Z</time>
      </trkpt>
      <trkpt lat="48.10711" lon="-3.59186">
        <ele>180</ele>
        <time>2025-02-25T10:44:44Z</time>
      </trkpt>
      <trkpt lat="48.1071" lon="-3.59185">
        <ele>180</ele>
        <time>2025-02-25T10:44:45Z</time>
      </trkpt>
      <trkpt lat="48.1071" lon="-3.59183">
        <ele>180.2</ele>
        <time>2025-02-25T10:44:46Z</time>
      </trkpt>
      <trkpt lat="48.10709" lon="-3.59182">
        <ele>180.2</ele>
        <time>2025-02-25T10:44:47Z</time>
      </trkpt>
      <trkpt lat="48.10709" lon="-3.59182">
        <ele>180.2</ele>
        <time>2025-02-25T10:44:48Z</time>
      </trkpt>
      <trkpt lat="48.10708" lon="-3.59181">
        <ele>180.2</ele>
        <time>2025-02-25T10:44:49Z</time>
      </trkpt>
      <trkpt lat="48.10708" lon="-3.59179">
        <ele>180.4</ele>
        <time>2025-02-25T10:44:50Z</time>
      </trkpt>
      <trkpt lat="48.10708" lon="-3.59178">
        <ele>180.4</ele>
        <time>2025-02-25T10:44:51Z</time>
      </trkpt>
      <trkpt lat="48.10707" lon="-3.59177">
        <ele>180.4</ele>
        <time>2025-02-25T10:44:52Z</time>
      </trkpt>
      <trkpt lat="48.10707" lon="-3.59176">
        <ele>180.5</ele>
        <time>2025-02-25T10:44:53Z</time>
      </trkpt>
      <trkpt lat="48.10706" lon="-3.59174">
        <ele>180.6</ele>
        <time>2025-02-25T10:44:54Z</time>
      </trkpt>
      <trkpt lat="48.10706" lon="-3.59173">
        <ele>180.7</ele>
        <time>2025-02-25T10:44:55Z</time>
      </trkpt>
      <trkpt lat="48.10706" lon="-3.59172">
        <ele>180.8</ele>
        <time>2025-02-25T10:44:56Z</time>
      </trkpt>
      <trkpt lat="48.10706" lon="-3.5917">
        <ele>181</ele>
        <time>2025-02-25T10:44:57Z</time>
      </trkpt>
      <trkpt lat="48.10705" lon="-3.59168">
        <ele>181</ele>
        <time>2025-02-25T10:44:58Z</time>
      </trkpt>
      <trkpt lat="48.10705" lon="-3.59167">
        <ele>181.1</ele>
        <time>2025-02-25T10:44:59Z</time>
      </trkpt>
      <trkpt lat="48.10706" lon="-3.59165">
        <ele>181.3</ele>
        <time>2025-02-25T10:45:00Z</time>
      </trkpt>
      <trkpt lat="48.10707" lon="-3.59164">
        <ele>181.5</ele>
        <time>2025-02-25T10:45:01Z</time>
      </trkpt>
      <trkpt lat="48.10708" lon="-3.59164">
        <ele>181.6</ele>
        <time>2025-02-25T10:45:02Z</time>
      </trkpt>
      <trkpt lat="48.1071" lon="-3.59165">
        <ele>181.7</ele>
        <time>2025-02-25T10:45:03Z</time>
      </trkpt>
      <trkpt lat="48.10711" lon="-3.59165">
        <ele>181.8</ele>
        <time>2025-02-25T10:45:04Z</time>
      </trkpt>
      <trkpt lat="48.10712" lon="-3.59166">
        <ele>181.9</ele>
        <time>2025-02-25T10:45:05Z</time>
      </trkpt>
      <trkpt lat="48.10713" lon="-3.59167">
        <ele>182</ele>
        <time>2025-02-25T10:45:06Z</time>
      </trkpt>
      <trkpt lat="48.10714" lon="-3.59168">
        <ele>182</ele>
        <time>2025-02-25T10:45:07Z</time>
      </trkpt>
      <trkpt lat="48.10715" lon="-3.59169">
        <ele>182</ele>
        <time>2025-02-25T10:45:08Z</time>
      </trkpt>
      <trkpt lat="48.10716" lon="-3.59169">
        <ele>182.1</ele>
        <time>2025-02-25T10:45:09Z</time>
      </trkpt>
      <trkpt lat="48.10717" lon="-3.59169">
        <ele>182.2</ele>
        <time>2025-02-25T10:45:10Z</time>
      </trkpt>
      <trkpt lat="48.10717" lon="-3.5917">
        <ele>182.1</ele>
        <time>2025-02-25T10:45:11Z</time>
      </trkpt>
      <trkpt lat="48.10718" lon="-3.59171">
        <ele>182.1</ele>
        <time>2025-02-25T10:45:12Z</time>
      </trkpt>
      <trkpt lat="48.10719" lon="-3.59171">
        <ele>182.2</ele>
        <time>2025-02-25T10:45:13Z</time>
      </trkpt>
      <trkpt lat="48.10721" lon="-3.59171">
        <ele>182.4</ele>
        <time>2025-02-25T10:45:14Z</time>
      </trkpt>
      <trkpt lat="48.10722" lon="-3.59172">
        <ele>182.4</ele>
        <time>2025-02-25T10:45:15Z</time>
      </trkpt>
      <trkpt lat="48.10723" lon="-3.59172">
        <ele>182.5</ele>
        <time>2025-02-25T10:45:16Z</time>
      </trkpt>
      <trkpt lat="48.10724" lon="-3.59173">
        <ele>182.4</ele>
        <time>2025-02-25T10:45:17Z</time>
      </trkpt>
      <trkpt lat="48.10725" lon="-3.59173">
        <ele>182.4</ele>
        <time>2025-02-25T10:45:18Z</time>
      </trkpt>
      <trkpt lat="48.10725" lon="-3.59173">
        <ele>182.4</ele>
        <time>2025-02-25T10:45:19Z</time>
      </trkpt>
      <trkpt lat="48.10724" lon="-3.59173">
        <ele>182.4</ele>
        <time>2025-02-25T10:45:20Z</time>
      </trkpt>
      <trkpt lat="48.10724" lon="-3.59173">
        <ele>182.4</ele>
        <time>2025-02-25T10:45:21Z</time>
      </trkpt>
      <trkpt lat="48.10724" lon="-3.59173">
        <ele>182.4</ele>
        <time>2025-02-25T10:45:22Z</time>
      </trkpt>
      <trkpt lat="48.10724" lon="-3.59173">
        <ele>182.4</ele>
        <time>2025-02-25T10:45:23Z</time>
      </trkpt>
      <trkpt lat="48.10724" lon="-3.59173">
        <ele>182.4</ele>
        <time>2025-02-25T10:45:24Z</time>
      </trkpt>
      <trkpt lat="48.10725" lon="-3.59173">
        <ele>182.4</ele>
        <time>2025-02-25T10:45:25Z</time>
      </trkpt>
      <trkpt lat="48.10725" lon="-3.59173">
        <ele>182.4</ele>
        <time>2025-02-25T10:45:26Z</time>
      </trkpt>
      <trkpt lat="48.10725" lon="-3.59173">
        <ele>182.4</ele>
        <time>2025-02-25T10:45:27Z</time>
      </trkpt>
      <trkpt lat="48.10725" lon="-3.59173">
        <ele>182.4</ele>
        <time>2025-02-25T10:45:28Z</time>
      </trkpt>
      <trkpt lat="48.10726" lon="-3.59173">
        <ele>182.5</ele>
        <time>2025-02-25T10:45:29Z</time>
      </trkpt>
      <trkpt lat="48.10727" lon="-3.59173">
        <ele>182.5</ele>
        <time>2025-02-25T10:45:30Z</time>
      </trkpt>
      <trkpt lat="48.10726" lon="-3.59173">
        <ele>182.5</ele>
        <time>2025-02-25T10:45:31Z</time>
      </trkpt>
      <trkpt lat="48.10726" lon="-3.59173">
        <ele>182.5</ele>
        <time>2025-02-25T10:45:32Z</time>
      </trkpt>
      <trkpt lat="48.10726" lon="-3.59173">
        <ele>182.5</ele>
        <time>2025-02-25T10:45:33Z</time>
      </trkpt>
      <trkpt lat="48.10726" lon="-3.59174">
        <ele>182.3</ele>
        <time>2025-02-25T10:45:34Z</time>
      </trkpt>
      <trkpt lat="48.10726" lon="-3.59173">
        <ele>182.5</ele>
        <time>2025-02-25T10:45:35Z</time>
      </trkpt>
      <trkpt lat="48.10726" lon="-3.59173">
        <ele>182.5</ele>
        <time>2025-02-25T10:45:36Z</time>
      </trkpt>
      <trkpt lat="48.10726" lon="-3.59173">
        <ele>182.5</ele>
        <time>2025-02-25T10:45:37Z</time>
      </trkpt>
      <trkpt lat="48.10726" lon="-3.59173">
        <ele>182.5</ele>
        <time>2025-02-25T10:45:38Z</time>
      </trkpt>
      <trkpt lat="48.10726" lon="-3.59173">
        <ele>182.5</ele>
        <time>2025-02-25T10:45:39Z</time>
      </trkpt>
      <trkpt lat="48.10726" lon="-3.59173">
        <ele>182.5</ele>
        <time>2025-02-25T10:45:40Z</time>
      </trkpt>
      <trkpt lat="48.10726" lon="-3.59173">
        <ele>182.5</ele>
        <time>2025-02-25T10:45:41Z</time>
      </trkpt>
      <trkpt lat="48.10726" lon="-3.59173">
        <ele>182.5</ele>
        <time>2025-02-25T10:45:42Z</time>
      </trkpt>
      <trkpt lat="48.10726" lon="-3.59173">
        <ele>182.5</ele>
        <time>2025-02-25T10:45:43Z</time>
      </trkpt>
      <trkpt lat="48.10726" lon="-3.59173">
        <ele>182.5</ele>
        <time>2025-02-25T10:45:44Z</time>
      </trkpt>
      <trkpt lat="48.10726" lon="-3.59173">
        <ele>182.5</ele>
        <time>2025-02-25T10:45:45Z</time>
      </trkpt>
      <trkpt lat="48.10726" lon="-3.59173">
        <ele>182.5</ele>
        <time>2025-02-25T10:45:46Z</time>
      </trkpt>
      <trkpt lat="48.10726" lon="-3.59173">
        <ele>182.5</ele>
        <time>2025-02-25T10:45:47Z</time>
      </trkpt>
      <trkpt lat="48.10726" lon="-3.59173">
        <ele>182.5</ele>
        <time>2025-02-25T10:45:48Z</time>
      </trkpt>
      <trkpt lat="48.10726" lon="-3.59173">
        <ele>182.5</ele>
        <time>2025-02-25T10:45:49Z</time>
      </trkpt>
      <trkpt lat="48.10726" lon="-3.59173">
        <ele>182.5</ele>
        <time>2025-02-25T10:45:50Z</time>
      </trkpt>
      <trkpt lat="48.10726" lon="-3.59173">
        <ele>182.5</ele>
        <time>2025-02-25T10:45:51Z</time>
      </trkpt>
      <trkpt lat="48.10726" lon="-3.59173">
        <ele>182.5</ele>
        <time>2025-02-25T10:45:52Z</time>
      </trkpt>
      <trkpt lat="48.10726" lon="-3.59173">
        <ele>182.5</ele>
        <time>2025-02-25T10:45:53Z</time>
      </trkpt>
      <trkpt lat="48.10726" lon="-3.59173">
        <ele>182.5</ele>
        <time>2025-02-25T10:45:54Z</time>
      </trkpt>
      <trkpt lat="48.10726" lon="-3.59173">
        <ele>182.5</ele>
        <time>2025-02-25T10:45:55Z</time>
      </trkpt>
      <trkpt lat="48.10726" lon="-3.59173">
        <ele>182.5</ele>
        <time>2025-02-25T10:45:56Z</time>
      </trkpt>
      <trkpt lat="48.10726" lon="-3.59173">
        <ele>182.5</ele>
        <time>2025-02-25T10:45:57Z</time>
      </trkpt>
      <trkpt lat="48.10726" lon="-3.59173">
        <ele>182.5</ele>
        <time>2025-02-25T10:45:58Z</time>
      </trkpt>
      <trkpt lat="48.10726" lon="-3.59173">
        <ele>182.5</ele>
        <time>2025-02-25T10:45:59Z</time>
      </trkpt>
      <trkpt lat="48.10726" lon="-3.59173">
        <ele>182.5</ele>
        <time>2025-02-25T10:46:00Z</time>
      </trkpt>
      <trkpt lat="48.10726" lon="-3.59173">
        <ele>182.5</ele>
        <time>2025-02-25T10:46:01Z</time>
      </trkpt>
      <trkpt lat="48.10726" lon="-3.59173">
        <ele>182.5</ele>
        <time>2025-02-25T10:46:02Z</time>
      </trkpt>
      <trkpt lat="48.10726" lon="-3.59173">
        <ele>182.5</ele>
        <time>2025-02-25T10:46:03Z</time>
      </trkpt>
      <trkpt lat="48.10726" lon="-3.59173">
        <ele>182.5</ele>
        <time>2025-02-25T10:46:04Z</time>
      </trkpt>
      <trkpt lat="48.10726" lon="-3.59173">
        <ele>182.5</ele>
        <time>2025-02-25T10:46:05Z</time>
      </trkpt>
      <trkpt lat="48.10726" lon="-3.59173">
        <ele>182.5</ele>
        <time>2025-02-25T10:46:06Z</time>
      </trkpt>
      <trkpt lat="48.10726" lon="-3.59173">
        <ele>182.5</ele>
        <time>2025-02-25T10:46:07Z</time>
      </trkpt>
      <trkpt lat="48.10726" lon="-3.59173">
        <ele>182.5</ele>
        <time>2025-02-25T10:46:08Z</time>
      </trkpt>
      <trkpt lat="48.10726" lon="-3.59173">
        <ele>182.5</ele>
        <time>2025-02-25T10:46:09Z</time>
      </trkpt>
      <trkpt lat="48.10726" lon="-3.59173">
        <ele>182.5</ele>
        <time>2025-02-25T10:46:10Z</time>
      </trkpt>
      <trkpt lat="48.10726" lon="-3.59173">
        <ele>182.5</ele>
        <time>2025-02-25T10:46:11Z</time>
      </trkpt>
      <trkpt lat="48.10726" lon="-3.59173">
        <ele>182.5</ele>
        <time>2025-02-25T10:46:12Z</time>
      </trkpt>
      <trkpt lat="48.10726" lon="-3.59173">
        <ele>182.5</ele>
        <time>2025-02-25T10:46:13Z</time>
      </trkpt>
      <trkpt lat="48.10726" lon="-3.59173">
        <ele>182.5</ele>
        <time>2025-02-25T10:46:14Z</time>
      </trkpt>
      <trkpt lat="48.10726" lon="-3.59173">
        <ele>182.5</ele>
        <time>2025-02-25T10:46:15Z</time>
      </trkpt>
      <trkpt lat="48.10726" lon="-3.59172">
        <ele>182.6</ele>
        <time>2025-02-25T10:46:16Z</time>
      </trkpt>
      <trkpt lat="48.10725" lon="-3.59172">
        <ele>182.5</ele>
        <time>2025-02-25T10:46:17Z</time>
      </trkpt>
      <trkpt lat="48.10727" lon="-3.59171">
        <ele>182.7</ele>
        <time>2025-02-25T10:46:18Z</time>
      </trkpt>
      <trkpt lat="48.10728" lon="-3.59172">
        <ele>182.6</ele>
        <time>2025-02-25T10:46:19Z</time>
      </trkpt>
      <trkpt lat="48.10728" lon="-3.59172">
        <ele>182.6</ele>
        <time>2025-02-25T10:46:20Z</time>
      </trkpt>
      <trkpt lat="48.10727" lon="-3.59172">
        <ele>182.6</ele>
        <time>2025-02-25T10:46:21Z</time>
      </trkpt>
      <trkpt lat="48.10727" lon="-3.59172">
        <ele>182.6</ele>
        <time>2025-02-25T10:46:22Z</time>
      </trkpt>
      <trkpt lat="48.10727" lon="-3.59172">
        <ele>182.6</ele>
        <time>2025-02-25T10:46:23Z</time>
      </trkpt>
      <trkpt lat="48.10727" lon="-3.59172">
        <ele>182.6</ele>
        <time>2025-02-25T10:46:24Z</time>
      </trkpt>
      <trkpt lat="48.10727" lon="-3.59172">
        <ele>182.6</ele>
        <time>2025-02-25T10:46:25Z</time>
      </trkpt>
      <trkpt lat="48.10727" lon="-3.59172">
        <ele>182.6</ele>
        <time>2025-02-25T10:46:26Z</time>
      </trkpt>
      <trkpt lat="48.10727" lon="-3.59172">
        <ele>182.6</ele>
        <time>2025-02-25T10:46:27Z</time>
      </trkpt>
      <trkpt lat="48.10727" lon="-3.59172">
        <ele>182.6</ele>
        <time>2025-02-25T10:46:28Z</time>
      </trkpt>
      <trkpt lat="48.10727" lon="-3.59172">
        <ele>182.6</ele>
        <time>2025-02-25T10:46:29Z</time>
      </trkpt>
      <trkpt lat="48.10726" lon="-3.59171">
        <ele>182.7</ele>
        <time>2025-02-25T10:46:30Z</time>
      </trkpt>
      <trkpt lat="48.10726" lon="-3.5917">
        <ele>182.8</ele>
        <time>2025-02-25T10:46:31Z</time>
      </trkpt>
      <trkpt lat="48.10725" lon="-3.5917">
        <ele>182.7</ele>
        <time>2025-02-25T10:46:32Z</time>
      </trkpt>
      <trkpt lat="48.10725" lon="-3.5917">
        <ele>182.7</ele>
        <time>2025-02-25T10:46:33Z</time>
      </trkpt>
      <trkpt lat="48.10725" lon="-3.5917">
        <ele>182.7</ele>
        <time>2025-02-25T10:46:34Z</time>
      </trkpt>
      <trkpt lat="48.10725" lon="-3.5917">
        <ele>182.7</ele>
        <time>2025-02-25T10:46:35Z</time>
      </trkpt>
      <trkpt lat="48.10725" lon="-3.5917">
        <ele>182.7</ele>
        <time>2025-02-25T10:46:36Z</time>
      </trkpt>
      <trkpt lat="48.10725" lon="-3.5917">
        <ele>182.7</ele>
        <time>2025-02-25T10:46:37Z</time>
      </trkpt>
      <trkpt lat="48.10725" lon="-3.5917">
        <ele>182.7</ele>
        <time>2025-02-25T10:46:38Z</time>
      </trkpt>
      <trkpt lat="48.10725" lon="-3.5917">
        <ele>182.7</ele>
        <time>2025-02-25T10:46:39Z</time>
      </trkpt>
      <trkpt lat="48.10725" lon="-3.5917">
        <ele>182.7</ele>
        <time>2025-02-25T10:46:40Z</time>
      </trkpt>
      <trkpt lat="48.10725" lon="-3.5917">
        <ele>182.7</ele>
        <time>2025-02-25T10:46:41Z</time>
      </trkpt>
      <trkpt lat="48.10725" lon="-3.5917">
        <ele>182.7</ele>
        <time>2025-02-25T10:46:42Z</time>
      </trkpt>
      <trkpt lat="48.10725" lon="-3.59169">
        <ele>182.8</ele>
        <time>2025-02-25T10:46:43Z</time>
      </trkpt>
      <trkpt lat="48.10725" lon="-3.59169">
        <ele>182.8</ele>
        <time>2025-02-25T10:46:44Z</time>
      </trkpt>
      <trkpt lat="48.10725" lon="-3.59169">
        <ele>182.8</ele>
        <time>2025-02-25T10:46:45Z</time>
      </trkpt>
      <trkpt lat="48.10724" lon="-3.59169">
        <ele>182.8</ele>
        <time>2025-02-25T10:46:46Z</time>
      </trkpt>
      <trkpt lat="48.10724" lon="-3.59169">
        <ele>182.8</ele>
        <time>2025-02-25T10:46:47Z</time>
      </trkpt>
      <trkpt lat="48.10724" lon="-3.59169">
        <ele>182.8</ele>
        <time>2025-02-25T10:46:48Z</time>
      </trkpt>
      <trkpt lat="48.10723" lon="-3.59169">
        <ele>182.8</ele>
        <time>2025-02-25T10:46:49Z</time>
      </trkpt>
      <trkpt lat="48.10723" lon="-3.59169">
        <ele>182.8</ele>
        <time>2025-02-25T10:46:50Z</time>
      </trkpt>
      <trkpt lat="48.10723" lon="-3.59168">
        <ele>182.9</ele>
        <time>2025-02-25T10:46:51Z</time>
      </trkpt>
      <trkpt lat="48.10723" lon="-3.59168">
        <ele>182.9</ele>
        <time>2025-02-25T10:46:52Z</time>
      </trkpt>
      <trkpt lat="48.10723" lon="-3.59168">
        <ele>182.9</ele>
        <time>2025-02-25T10:46:53Z</time>
      </trkpt>
      <trkpt lat="48.10723" lon="-3.59168">
        <ele>182.9</ele>
        <time>2025-02-25T10:46:54Z</time>
      </trkpt>
      <trkpt lat="48.10723" lon="-3.59168">
        <ele>182.9</ele>
        <time>2025-02-25T10:46:55Z</time>
      </trkpt>
      <trkpt lat="48.10723" lon="-3.59168">
        <ele>182.9</ele>
        <time>2025-02-25T10:46:56Z</time>
      </trkpt>
      <trkpt lat="48.10723" lon="-3.59168">
        <ele>182.9</ele>
        <time>2025-02-25T10:46:57Z</time>
      </trkpt>
      <trkpt lat="48.10723" lon="-3.59168">
        <ele>182.9</ele>
        <time>2025-02-25T10:46:58Z</time>
      </trkpt>
      <trkpt lat="48.10723" lon="-3.59168">
        <ele>182.9</ele>
        <time>2025-02-25T10:46:59Z</time>
      </trkpt>
      <trkpt lat="48.10723" lon="-3.59168">
        <ele>182.9</ele>
        <time>2025-02-25T10:47:00Z</time>
      </trkpt>
      <trkpt lat="48.10723" lon="-3.59168">
        <ele>182.9</ele>
        <time>2025-02-25T10:47:01Z</time>
      </trkpt>
      <trkpt lat="48.10723" lon="-3.59168">
        <ele>182.9</ele>
        <time>2025-02-25T10:47:02Z</time>
      </trkpt>
      <trkpt lat="48.10722" lon="-3.59168">
        <ele>182.8</ele>
        <time>2025-02-25T10:47:03Z</time>
      </trkpt>
      <trkpt lat="48.10722" lon="-3.59169">
        <ele>182.7</ele>
        <time>2025-02-25T10:47:04Z</time>
      </trkpt>
      <trkpt lat="48.10721" lon="-3.59169">
        <ele>182.6</ele>
        <time>2025-02-25T10:47:05Z</time>
      </trkpt>
      <trkpt lat="48.1072" lon="-3.59169">
        <ele>182.5</ele>
        <time>2025-02-25T10:47:06Z</time>
      </trkpt>
      <trkpt lat="48.10719" lon="-3.59169">
        <ele>182.4</ele>
        <time>2025-02-25T10:47:07Z</time>
      </trkpt>
      <trkpt lat="48.10719" lon="-3.59168">
        <ele>182.5</ele>
        <time>2025-02-25T10:47:08Z</time>
      </trkpt>
      <trkpt lat="48.10718" lon="-3.59168">
        <ele>182.4</ele>
        <time>2025-02-25T10:47:09Z</time>
      </trkpt>
      <trkpt lat="48.10718" lon="-3.59167">
        <ele>182.5</ele>
        <time>2025-02-25T10:47:10Z</time>
      </trkpt>
      <trkpt lat="48.10717" lon="-3.59167">
        <ele>182.4</ele>
        <time>2025-02-25T10:47:11Z</time>
      </trkpt>
      <trkpt lat="48.10717" lon="-3.59166">
        <ele>182.5</ele>
        <time>2025-02-25T10:47:12Z</time>
      </trkpt>
      <trkpt lat="48.10716" lon="-3.59165">
        <ele>182.4</ele>
        <time>2025-02-25T10:47:13Z</time>
      </trkpt>
      <trkpt lat="48.10716" lon="-3.59164">
        <ele>182.4</ele>
        <time>2025-02-25T10:47:14Z</time>
      </trkpt>
      <trkpt lat="48.10715" lon="-3.59164">
        <ele>182.3</ele>
        <time>2025-02-25T10:47:15Z</time>
      </trkpt>
      <trkpt lat="48.10714" lon="-3.59163">
        <ele>182.2</ele>
        <time>2025-02-25T10:47:16Z</time>
      </trkpt>
      <trkpt lat="48.10713" lon="-3.59163">
        <ele>182.1</ele>
        <time>2025-02-25T10:47:17Z</time>
      </trkpt>
      <trkpt lat="48.10712" lon="-3.59164">
        <ele>182</ele>
        <time>2025-02-25T10:47:18Z</time>
      </trkpt>
      <trkpt lat="48.10712" lon="-3.59164">
        <ele>182</ele>
        <time>2025-02-25T10:47:19Z</time>
      </trkpt>
      <trkpt lat="48.10711" lon="-3.59164">
        <ele>181.9</ele>
        <time>2025-02-25T10:47:20Z</time>
      </trkpt>
      <trkpt lat="48.1071" lon="-3.59164">
        <ele>181.8</ele>
        <time>2025-02-25T10:47:21Z</time>
      </trkpt>
      <trkpt lat="48.10709" lon="-3.59164">
        <ele>181.7</ele>
        <time>2025-02-25T10:47:22Z</time>
      </trkpt>
      <trkpt lat="48.10709" lon="-3.59163">
        <ele>181.7</ele>
        <time>2025-02-25T10:47:23Z</time>
      </trkpt>
      <trkpt lat="48.10708" lon="-3.59163">
        <ele>181.6</ele>
        <time>2025-02-25T10:47:24Z</time>
      </trkpt>
      <trkpt lat="48.10707" lon="-3.59163">
        <ele>181.5</ele>
        <time>2025-02-25T10:47:25Z</time>
      </trkpt>
      <trkpt lat="48.10706" lon="-3.59161">
        <ele>181.5</ele>
        <time>2025-02-25T10:47:26Z</time>
      </trkpt>
      <trkpt lat="48.10705" lon="-3.5916">
        <ele>181.4</ele>
        <time>2025-02-25T10:47:27Z</time>
      </trkpt>
      <trkpt lat="48.10705" lon="-3.5916">
        <ele>181.4</ele>
        <time>2025-02-25T10:47:28Z</time>
      </trkpt>
      <trkpt lat="48.10704" lon="-3.59159">
        <ele>181.3</ele>
        <time>2025-02-25T10:47:29Z</time>
      </trkpt>
      <trkpt lat="48.10704" lon="-3.59158">
        <ele>181.3</ele>
        <time>2025-02-25T10:47:30Z</time>
      </trkpt>
      <trkpt lat="48.10703" lon="-3.59156">
        <ele>181.3</ele>
        <time>2025-02-25T10:47:31Z</time>
      </trkpt>
      <trkpt lat="48.10702" lon="-3.59155">
        <ele>181.2</ele>
        <time>2025-02-25T10:47:32Z</time>
      </trkpt>
      <trkpt lat="48.10701" lon="-3.59154">
        <ele>181.2</ele>
        <time>2025-02-25T10:47:33Z</time>
      </trkpt>
      <trkpt lat="48.10701" lon="-3.59153">
        <ele>181.2</ele>
        <time>2025-02-25T10:47:34Z</time>
      </trkpt>
      <trkpt lat="48.10701" lon="-3.59151">
        <ele>181.3</ele>
        <time>2025-02-25T10:47:35Z</time>
      </trkpt>
      <trkpt lat="48.107" lon="-3.5915">
        <ele>181.2</ele>
        <time>2025-02-25T10:47:36Z</time>
      </trkpt>
      <trkpt lat="48.107" lon="-3.59148">
        <ele>181.3</ele>
        <time>2025-02-25T10:47:37Z</time>
      </trkpt>
      <trkpt lat="48.10699" lon="-3.59147">
        <ele>181.2</ele>
        <time>2025-02-25T10:47:38Z</time>
      </trkpt>
      <trkpt lat="48.10698" lon="-3.59145">
        <ele>181.2</ele>
        <time>2025-02-25T10:47:39Z</time>
      </trkpt>
      <trkpt lat="48.10698" lon="-3.59144">
        <ele>181.2</ele>
        <time>2025-02-25T10:47:40Z</time>
      </trkpt>
      <trkpt lat="48.10697" lon="-3.59143">
        <ele>181.1</ele>
        <time>2025-02-25T10:47:41Z</time>
      </trkpt>
      <trkpt lat="48.10697" lon="-3.59141">
        <ele>181.2</ele>
        <time>2025-02-25T10:47:42Z</time>
      </trkpt>
      <trkpt lat="48.10697" lon="-3.5914">
        <ele>181.2</ele>
        <time>2025-02-25T10:47:43Z</time>
      </trkpt>
      <trkpt lat="48.10696" lon="-3.59138">
        <ele>181.2</ele>
        <time>2025-02-25T10:47:44Z</time>
      </trkpt>
      <trkpt lat="48.10696" lon="-3.59137">
        <ele>181.2</ele>
        <time>2025-02-25T10:47:45Z</time>
      </trkpt>
      <trkpt lat="48.10696" lon="-3.59135">
        <ele>181.2</ele>
        <time>2025-02-25T10:47:46Z</time>
      </trkpt>
      <trkpt lat="48.10695" lon="-3.59133">
        <ele>181.1</ele>
        <time>2025-02-25T10:47:47Z</time>
      </trkpt>
      <trkpt lat="48.10695" lon="-3.59131">
        <ele>181.1</ele>
        <time>2025-02-25T10:47:48Z</time>
      </trkpt>
      <trkpt lat="48.10695" lon="-3.5913">
        <ele>181.1</ele>
        <time>2025-02-25T10:47:49Z</time>
      </trkpt>
      <trkpt lat="48.10694" lon="-3.59128">
        <ele>180.9</ele>
        <time>2025-02-25T10:47:50Z</time>
      </trkpt>
      <trkpt lat="48.10694" lon="-3.59126">
        <ele>180.9</ele>
        <time>2025-02-25T10:47:51Z</time>
      </trkpt>
      <trkpt lat="48.10695" lon="-3.59124">
        <ele>181.1</ele>
        <time>2025-02-25T10:47:52Z</time>
      </trkpt>
      <trkpt lat="48.10694" lon="-3.59122">
        <ele>180.9</ele>
        <time>2025-02-25T10:47:53Z</time>
      </trkpt>
      <trkpt lat="48.10694" lon="-3.5912">
        <ele>180.9</ele>
        <time>2025-02-25T10:47:54Z</time>
      </trkpt>
      <trkpt lat="48.10694" lon="-3.59118">
        <ele>180.9</ele>
        <time>2025-02-25T10:47:55Z</time>
      </trkpt>
      <trkpt lat="48.10694" lon="-3.59116">
        <ele>180.9</ele>
        <time>2025-02-25T10:47:56Z</time>
      </trkpt>
      <trkpt lat="48.10693" lon="-3.59115">
        <ele>180.8</ele>
        <time>2025-02-25T10:47:57Z</time>
      </trkpt>
      <trkpt lat="48.10693" lon="-3.59113">
        <ele>180.8</ele>
        <time>2025-02-25T10:47:58Z</time>
      </trkpt>
      <trkpt lat="48.10693" lon="-3.59111">
        <ele>180.9</ele>
        <time>2025-02-25T10:47:59Z</time>
      </trkpt>
      <trkpt lat="48.10693" lon="-3.59109">
        <ele>181</ele>
        <time>2025-02-25T10:48:00Z</time>
      </trkpt>
      <trkpt lat="48.10693" lon="-3.59107">
        <ele>181.1</ele>
        <time>2025-02-25T10:48:01Z</time>
      </trkpt>
      <trkpt lat="48.10693" lon="-3.59106">
        <ele>181.2</ele>
        <time>2025-02-25T10:48:02Z</time>
      </trkpt>
      <trkpt lat="48.10693" lon="-3.59104">
        <ele>181.4</ele>
        <time>2025-02-25T10:48:03Z</time>
      </trkpt>
      <trkpt lat="48.10692" lon="-3.59101">
        <ele>181.5</ele>
        <time>2025-02-25T10:48:04Z</time>
      </trkpt>
      <trkpt lat="48.10692" lon="-3.591">
        <ele>181.5</ele>
        <time>2025-02-25T10:48:05Z</time>
      </trkpt>
      <trkpt lat="48.10692" lon="-3.59097">
        <ele>181.8</ele>
        <time>2025-02-25T10:48:06Z</time>
      </trkpt>
      <trkpt lat="48.10692" lon="-3.59095">
        <ele>181.9</ele>
        <time>2025-02-25T10:48:07Z</time>
      </trkpt>
      <trkpt lat="48.10692" lon="-3.59093">
        <ele>182</ele>
        <time>2025-02-25T10:48:08Z</time>
      </trkpt>
      <trkpt lat="48.10692" lon="-3.59092">
        <ele>182.1</ele>
        <time>2025-02-25T10:48:09Z</time>
      </trkpt>
      <trkpt lat="48.10692" lon="-3.5909">
        <ele>182.3</ele>
        <time>2025-02-25T10:48:10Z</time>
      </trkpt>
      <trkpt lat="48.10692" lon="-3.59089">
        <ele>182.3</ele>
        <time>2025-02-25T10:48:11Z</time>
      </trkpt>
      <trkpt lat="48.10692" lon="-3.59087">
        <ele>182.5</ele>
        <time>2025-02-25T10:48:12Z</time>
      </trkpt>
      <trkpt lat="48.10692" lon="-3.59085">
        <ele>182.6</ele>
        <time>2025-02-25T10:48:13Z</time>
      </trkpt>
      <trkpt lat="48.10692" lon="-3.59083">
        <ele>182.7</ele>
        <time>2025-02-25T10:48:14Z</time>
      </trkpt>
      <trkpt lat="48.10692" lon="-3.59082">
        <ele>182.8</ele>
        <time>2025-02-25T10:48:15Z</time>
      </trkpt>
      <trkpt lat="48.10692" lon="-3.59081">
        <ele>182.8</ele>
        <time>2025-02-25T10:48:16Z</time>
      </trkpt>
      <trkpt lat="48.10692" lon="-3.59079">
        <ele>182.9</ele>
        <time>2025-02-25T10:48:17Z</time>
      </trkpt>
      <trkpt lat="48.10692" lon="-3.59077">
        <ele>183</ele>
        <time>2025-02-25T10:48:18Z</time>
      </trkpt>
      <trkpt lat="48.10692" lon="-3.59076">
        <ele>183</ele>
        <time>2025-02-25T10:48:19Z</time>
      </trkpt>
      <trkpt lat="48.10693" lon="-3.59074">
        <ele>183.2</ele>
        <time>2025-02-25T10:48:20Z</time>
      </trkpt>
      <trkpt lat="48.10694" lon="-3.59073">
        <ele>183.3</ele>
        <time>2025-02-25T10:48:21Z</time>
      </trkpt>
      <trkpt lat="48.10695" lon="-3.59072">
        <ele>183.5</ele>
        <time>2025-02-25T10:48:22Z</time>
      </trkpt>
      <trkpt lat="48.10696" lon="-3.59072">
        <ele>183.6</ele>
        <time>2025-02-25T10:48:23Z</time>
      </trkpt>
      <trkpt lat="48.10697" lon="-3.59072">
        <ele>183.7</ele>
        <time>2025-02-25T10:48:24Z</time>
      </trkpt>
      <trkpt lat="48.10698" lon="-3.59071">
        <ele>183.9</ele>
        <time>2025-02-25T10:48:25Z</time>
      </trkpt>
      <trkpt lat="48.10699" lon="-3.59071">
        <ele>184</ele>
        <time>2025-02-25T10:48:26Z</time>
      </trkpt>
      <trkpt lat="48.107" lon="-3.59071">
        <ele>184.2</ele>
        <time>2025-02-25T10:48:27Z</time>
      </trkpt>
      <trkpt lat="48.10701" lon="-3.59071">
        <ele>184.3</ele>
        <time>2025-02-25T10:48:28Z</time>
      </trkpt>
      <trkpt lat="48.10702" lon="-3.59071">
        <ele>184.4</ele>
        <time>2025-02-25T10:48:29Z</time>
      </trkpt>
      <trkpt lat="48.10703" lon="-3.59071">
        <ele>184.5</ele>
        <time>2025-02-25T10:48:30Z</time>
      </trkpt>
      <trkpt lat="48.10704" lon="-3.59071">
        <ele>184.7</ele>
        <time>2025-02-25T10:48:31Z</time>
      </trkpt>
      <trkpt lat="48.10705" lon="-3.5907">
        <ele>184.8</ele>
        <time>2025-02-25T10:48:32Z</time>
      </trkpt>
      <trkpt lat="48.10705" lon="-3.5907">
        <ele>184.8</ele>
        <time>2025-02-25T10:48:33Z</time>
      </trkpt>
      <trkpt lat="48.10706" lon="-3.5907">
        <ele>184.9</ele>
        <time>2025-02-25T10:48:34Z</time>
      </trkpt>
      <trkpt lat="48.10706" lon="-3.59069">
        <ele>185</ele>
        <time>2025-02-25T10:48:35Z</time>
      </trkpt>
      <trkpt lat="48.10707" lon="-3.59069">
        <ele>185.1</ele>
        <time>2025-02-25T10:48:36Z</time>
      </trkpt>
      <trkpt lat="48.10707" lon="-3.59069">
        <ele>185.1</ele>
        <time>2025-02-25T10:48:37Z</time>
      </trkpt>
      <trkpt lat="48.10707" lon="-3.5907">
        <ele>185.1</ele>
        <time>2025-02-25T10:48:38Z</time>
      </trkpt>
      <trkpt lat="48.10707" lon="-3.5907">
        <ele>185.1</ele>
        <time>2025-02-25T10:48:39Z</time>
      </trkpt>
      <trkpt lat="48.10707" lon="-3.5907">
        <ele>185.1</ele>
        <time>2025-02-25T10:48:40Z</time>
      </trkpt>
      <trkpt lat="48.10708" lon="-3.5907">
        <ele>185.2</ele>
        <time>2025-02-25T10:48:41Z</time>
      </trkpt>
      <trkpt lat="48.10709" lon="-3.59069">
        <ele>185.3</ele>
        <time>2025-02-25T10:48:42Z</time>
      </trkpt>
      <trkpt lat="48.10709" lon="-3.59069">
        <ele>185.3</ele>
        <time>2025-02-25T10:48:43Z</time>
      </trkpt>
      <trkpt lat="48.10709" lon="-3.59069">
        <ele>185.3</ele>
        <time>2025-02-25T10:48:44Z</time>
      </trkpt>
      <trkpt lat="48.10709" lon="-3.59069">
        <ele>185.3</ele>
        <time>2025-02-25T10:48:45Z</time>
      </trkpt>
      <trkpt lat="48.10709" lon="-3.59069">
        <ele>185.3</ele>
        <time>2025-02-25T10:48:46Z</time>
      </trkpt>
      <trkpt lat="48.10709" lon="-3.59069">
        <ele>185.3</ele>
        <time>2025-02-25T10:48:47Z</time>
      </trkpt>
      <trkpt lat="48.10709" lon="-3.59069">
        <ele>185.3</ele>
        <time>2025-02-25T10:48:48Z</time>
      </trkpt>
      <trkpt lat="48.10709" lon="-3.59069">
        <ele>185.3</ele>
        <time>2025-02-25T10:48:49Z</time>
      </trkpt>
      <trkpt lat="48.10709" lon="-3.59069">
        <ele>185.3</ele>
        <time>2025-02-25T10:48:50Z</time>
      </trkpt>
      <trkpt lat="48.10709" lon="-3.59069">
        <ele>185.3</ele>
        <time>2025-02-25T10:48:51Z</time>
      </trkpt>
      <trkpt lat="48.10709" lon="-3.59069">
        <ele>185.3</ele>
        <time>2025-02-25T10:48:52Z</time>
      </trkpt>
      <trkpt lat="48.10708" lon="-3.59069">
        <ele>185.2</ele>
        <time>2025-02-25T10:48:53Z</time>
      </trkpt>
      <trkpt lat="48.10709" lon="-3.5907">
        <ele>185.3</ele>
        <time>2025-02-25T10:48:54Z</time>
      </trkpt>
      <trkpt lat="48.1071" lon="-3.5907">
        <ele>185.5</ele>
        <time>2025-02-25T10:48:55Z</time>
      </trkpt>
      <trkpt lat="48.10709" lon="-3.59071">
        <ele>185.3</ele>
        <time>2025-02-25T10:48:56Z</time>
      </trkpt>
      <trkpt lat="48.10709" lon="-3.59071">
        <ele>185.3</ele>
        <time>2025-02-25T10:48:57Z</time>
      </trkpt>
      <trkpt lat="48.10709" lon="-3.59071">
        <ele>185.3</ele>
        <time>2025-02-25T10:48:58Z</time>
      </trkpt>
      <trkpt lat="48.10709" lon="-3.59071">
        <ele>185.3</ele>
        <time>2025-02-25T10:48:59Z</time>
      </trkpt>
      <trkpt lat="48.10709" lon="-3.59071">
        <ele>185.3</ele>
        <time>2025-02-25T10:49:00Z</time>
      </trkpt>
      <trkpt lat="48.10709" lon="-3.59071">
        <ele>185.3</ele>
        <time>2025-02-25T10:49:01Z</time>
      </trkpt>
      <trkpt lat="48.10709" lon="-3.59071">
        <ele>185.3</ele>
        <time>2025-02-25T10:49:02Z</time>
      </trkpt>
      <trkpt lat="48.10709" lon="-3.59071">
        <ele>185.3</ele>
        <time>2025-02-25T10:49:03Z</time>
      </trkpt>
      <trkpt lat="48.10709" lon="-3.5907">
        <ele>185.3</ele>
        <time>2025-02-25T10:49:04Z</time>
      </trkpt>
      <trkpt lat="48.10709" lon="-3.5907">
        <ele>185.3</ele>
        <time>2025-02-25T10:49:05Z</time>
      </trkpt>
      <trkpt lat="48.10709" lon="-3.5907">
        <ele>185.3</ele>
        <time>2025-02-25T10:49:06Z</time>
      </trkpt>
      <trkpt lat="48.10709" lon="-3.5907">
        <ele>185.3</ele>
        <time>2025-02-25T10:49:07Z</time>
      </trkpt>
      <trkpt lat="48.10709" lon="-3.5907">
        <ele>185.3</ele>
        <time>2025-02-25T10:49:08Z</time>
      </trkpt>
      <trkpt lat="48.10709" lon="-3.5907">
        <ele>185.3</ele>
        <time>2025-02-25T10:49:09Z</time>
      </trkpt>
      <trkpt lat="48.10709" lon="-3.5907">
        <ele>185.3</ele>
        <time>2025-02-25T10:49:10Z</time>
      </trkpt>
      <trkpt lat="48.10709" lon="-3.5907">
        <ele>185.3</ele>
        <time>2025-02-25T10:49:11Z</time>
      </trkpt>
      <trkpt lat="48.10709" lon="-3.5907">
        <ele>185.3</ele>
        <time>2025-02-25T10:49:12Z</time>
      </trkpt>
      <trkpt lat="48.10709" lon="-3.5907">
        <ele>185.3</ele>
        <time>2025-02-25T10:49:13Z</time>
      </trkpt>
      <trkpt lat="48.10709" lon="-3.5907">
        <ele>185.3</ele>
        <time>2025-02-25T10:49:14Z</time>
      </trkpt>
      <trkpt lat="48.10709" lon="-3.5907">
        <ele>185.3</ele>
        <time>2025-02-25T10:49:15Z</time>
      </trkpt>
      <trkpt lat="48.10709" lon="-3.5907">
        <ele>185.3</ele>
        <time>2025-02-25T10:49:16Z</time>
      </trkpt>
      <trkpt lat="48.10709" lon="-3.59071">
        <ele>185.3</ele>
        <time>2025-02-25T10:49:17Z</time>
      </trkpt>
      <trkpt lat="48.10709" lon="-3.59071">
        <ele>185.3</ele>
        <time>2025-02-25T10:49:18Z</time>
      </trkpt>
      <trkpt lat="48.10709" lon="-3.59071">
        <ele>185.3</ele>
        <time>2025-02-25T10:49:19Z</time>
      </trkpt>
      <trkpt lat="48.10709" lon="-3.5907">
        <ele>185.3</ele>
        <time>2025-02-25T10:49:20Z</time>
      </trkpt>
      <trkpt lat="48.10709" lon="-3.5907">
        <ele>185.3</ele>
        <time>2025-02-25T10:49:21Z</time>
      </trkpt>
      <trkpt lat="48.10709" lon="-3.5907">
        <ele>185.3</ele>
        <time>2025-02-25T10:49:22Z</time>
      </trkpt>
      <trkpt lat="48.10709" lon="-3.5907">
        <ele>185.3</ele>
        <time>2025-02-25T10:49:23Z</time>
      </trkpt>
      <trkpt lat="48.10709" lon="-3.5907">
        <ele>185.3</ele>
        <time>2025-02-25T10:49:24Z</time>
      </trkpt>
      <trkpt lat="48.10708" lon="-3.5907">
        <ele>185.2</ele>
        <time>2025-02-25T10:49:25Z</time>
      </trkpt>
      <trkpt lat="48.10708" lon="-3.5907">
        <ele>185.2</ele>
        <time>2025-02-25T10:49:26Z</time>
      </trkpt>
      <trkpt lat="48.10708" lon="-3.5907">
        <ele>185.2</ele>
        <time>2025-02-25T10:49:27Z</time>
      </trkpt>
      <trkpt lat="48.10708" lon="-3.59069">
        <ele>185.2</ele>
        <time>2025-02-25T10:49:28Z</time>
      </trkpt>
      <trkpt lat="48.10708" lon="-3.59068">
        <ele>185.2</ele>
        <time>2025-02-25T10:49:29Z</time>
      </trkpt>
      <trkpt lat="48.10708" lon="-3.59067">
        <ele>185.3</ele>
        <time>2025-02-25T10:49:30Z</time>
      </trkpt>
      <trkpt lat="48.10709" lon="-3.59067">
        <ele>185.4</ele>
        <time>2025-02-25T10:49:31Z</time>
      </trkpt>
      <trkpt lat="48.1071" lon="-3.59066">
        <ele>185.5</ele>
        <time>2025-02-25T10:49:32Z</time>
      </trkpt>
      <trkpt lat="48.1071" lon="-3.59066">
        <ele>185.5</ele>
        <time>2025-02-25T10:49:33Z</time>
      </trkpt>
      <trkpt lat="48.1071" lon="-3.59066">
        <ele>185.5</ele>
        <time>2025-02-25T10:49:34Z</time>
      </trkpt>
      <trkpt lat="48.1071" lon="-3.59066">
        <ele>185.5</ele>
        <time>2025-02-25T10:49:35Z</time>
      </trkpt>
      <trkpt lat="48.1071" lon="-3.59066">
        <ele>185.5</ele>
        <time>2025-02-25T10:49:36Z</time>
      </trkpt>
      <trkpt lat="48.1071" lon="-3.59066">
        <ele>185.5</ele>
        <time>2025-02-25T10:49:37Z</time>
      </trkpt>
      <trkpt lat="48.1071" lon="-3.59066">
        <ele>185.5</ele>
        <time>2025-02-25T10:49:38Z</time>
      </trkpt>
      <trkpt lat="48.1071" lon="-3.59066">
        <ele>185.5</ele>
        <time>2025-02-25T10:49:39Z</time>
      </trkpt>
      <trkpt lat="48.1071" lon="-3.59066">
        <ele>185.5</ele>
        <time>2025-02-25T10:49:40Z</time>
      </trkpt>
      <trkpt lat="48.1071" lon="-3.59066">
        <ele>185.5</ele>
        <time>2025-02-25T10:49:41Z</time>
      </trkpt>
      <trkpt lat="48.1071" lon="-3.59066">
        <ele>185.5</ele>
        <time>2025-02-25T10:49:42Z</time>
      </trkpt>
      <trkpt lat="48.1071" lon="-3.59066">
        <ele>185.5</ele>
        <time>2025-02-25T10:49:43Z</time>
      </trkpt>
      <trkpt lat="48.1071" lon="-3.59066">
        <ele>185.5</ele>
        <time>2025-02-25T10:49:44Z</time>
      </trkpt>
      <trkpt lat="48.1071" lon="-3.59066">
        <ele>185.5</ele>
        <time>2025-02-25T10:49:45Z</time>
      </trkpt>
      <trkpt lat="48.1071" lon="-3.59066">
        <ele>185.5</ele>
        <time>2025-02-25T10:49:46Z</time>
      </trkpt>
      <trkpt lat="48.1071" lon="-3.59066">
        <ele>185.5</ele>
        <time>2025-02-25T10:49:47Z</time>
      </trkpt>
      <trkpt lat="48.1071" lon="-3.59066">
        <ele>185.5</ele>
        <time>2025-02-25T10:49:48Z</time>
      </trkpt>
      <trkpt lat="48.1071" lon="-3.59066">
        <ele>185.5</ele>
        <time>2025-02-25T10:49:49Z</time>
      </trkpt>
      <trkpt lat="48.1071" lon="-3.59066">
        <ele>185.5</ele>
        <time>2025-02-25T10:49:50Z</time>
      </trkpt>
      <trkpt lat="48.1071" lon="-3.59066">
        <ele>185.5</ele>
        <time>2025-02-25T10:49:51Z</time>
      </trkpt>
      <trkpt lat="48.1071" lon="-3.59066">
        <ele>185.5</ele>
        <time>2025-02-25T10:49:52Z</time>
      </trkpt>
      <trkpt lat="48.1071" lon="-3.59066">
        <ele>185.5</ele>
        <time>2025-02-25T10:49:53Z</time>
      </trkpt>
      <trkpt lat="48.1071" lon="-3.59066">
        <ele>185.5</ele>
        <time>2025-02-25T10:49:54Z</time>
      </trkpt>
      <trkpt lat="48.1071" lon="-3.59066">
        <ele>185.5</ele>
        <time>2025-02-25T10:49:55Z</time>
      </trkpt>
      <trkpt lat="48.1071" lon="-3.59066">
        <ele>185.5</ele>
        <time>2025-02-25T10:49:56Z</time>
      </trkpt>
      <trkpt lat="48.1071" lon="-3.59066">
        <ele>185.5</ele>
        <time>2025-02-25T10:49:57Z</time>
      </trkpt>
      <trkpt lat="48.1071" lon="-3.59066">
        <ele>185.5</ele>
        <time>2025-02-25T10:49:58Z</time>
      </trkpt>
      <trkpt lat="48.1071" lon="-3.59066">
        <ele>185.5</ele>
        <time>2025-02-25T10:49:59Z</time>
      </trkpt>
      <trkpt lat="48.1071" lon="-3.59066">
        <ele>185.5</ele>
        <time>2025-02-25T10:50:00Z</time>
      </trkpt>
      <trkpt lat="48.1071" lon="-3.59066">
        <ele>185.5</ele>
        <time>2025-02-25T10:50:01Z</time>
      </trkpt>
      <trkpt lat="48.1071" lon="-3.59066">
        <ele>185.5</ele>
        <time>2025-02-25T10:50:02Z</time>
      </trkpt>
      <trkpt lat="48.1071" lon="-3.59066">
        <ele>185.5</ele>
        <time>2025-02-25T10:50:03Z</time>
      </trkpt>
      <trkpt lat="48.1071" lon="-3.59066">
        <ele>185.5</ele>
        <time>2025-02-25T10:50:04Z</time>
      </trkpt>
      <trkpt lat="48.1071" lon="-3.59066">
        <ele>185.5</ele>
        <time>2025-02-25T10:50:05Z</time>
      </trkpt>
      <trkpt lat="48.1071" lon="-3.59066">
        <ele>185.5</ele>
        <time>2025-02-25T10:50:06Z</time>
      </trkpt>
      <trkpt lat="48.1071" lon="-3.59066">
        <ele>185.5</ele>
        <time>2025-02-25T10:50:07Z</time>
      </trkpt>
      <trkpt lat="48.1071" lon="-3.59066">
        <ele>185.5</ele>
        <time>2025-02-25T10:50:08Z</time>
      </trkpt>
      <trkpt lat="48.1071" lon="-3.59066">
        <ele>185.5</ele>
        <time>2025-02-25T10:50:09Z</time>
      </trkpt>
      <trkpt lat="48.1071" lon="-3.59066">
        <ele>185.5</ele>
        <time>2025-02-25T10:50:10Z</time>
      </trkpt>
      <trkpt lat="48.1071" lon="-3.59066">
        <ele>185.5</ele>
        <time>2025-02-25T10:50:11Z</time>
      </trkpt>
      <trkpt lat="48.1071" lon="-3.59066">
        <ele>185.5</ele>
        <time>2025-02-25T10:50:12Z</time>
      </trkpt>
      <trkpt lat="48.1071" lon="-3.59066">
        <ele>185.5</ele>
        <time>2025-02-25T10:50:13Z</time>
      </trkpt>
      <trkpt lat="48.1071" lon="-3.59066">
        <ele>185.5</ele>
        <time>2025-02-25T10:50:14Z</time>
      </trkpt>
      <trkpt lat="48.1071" lon="-3.59066">
        <ele>185.5</ele>
        <time>2025-02-25T10:50:15Z</time>
      </trkpt>
      <trkpt lat="48.1071" lon="-3.59066">
        <ele>185.5</ele>
        <time>2025-02-25T10:50:16Z</time>
      </trkpt>
      <trkpt lat="48.1071" lon="-3.59066">
        <ele>185.5</ele>
        <time>2025-02-25T10:50:17Z</time>
      </trkpt>
      <trkpt lat="48.1071" lon="-3.59066">
        <ele>185.5</ele>
        <time>2025-02-25T10:50:18Z</time>
      </trkpt>
      <trkpt lat="48.1071" lon="-3.59066">
        <ele>185.5</ele>
        <time>2025-02-25T10:50:19Z</time>
      </trkpt>
      <trkpt lat="48.1071" lon="-3.59066">
        <ele>185.5</ele>
        <time>2025-02-25T10:50:20Z</time>
      </trkpt>
      <trkpt lat="48.1071" lon="-3.59066">
        <ele>185.5</ele>
        <time>2025-02-25T10:50:21Z</time>
      </trkpt>
      <trkpt lat="48.1071" lon="-3.59066">
        <ele>185.5</ele>
        <time>2025-02-25T10:50:22Z</time>
      </trkpt>
      <trkpt lat="48.1071" lon="-3.59066">
        <ele>185.5</ele>
        <time>2025-02-25T10:50:23Z</time>
      </trkpt>
      <trkpt lat="48.1071" lon="-3.59066">
        <ele>185.5</ele>
        <time>2025-02-25T10:50:24Z</time>
      </trkpt>
      <trkpt lat="48.1071" lon="-3.59066">
        <ele>185.5</ele>
        <time>2025-02-25T10:50:25Z</time>
      </trkpt>
      <trkpt lat="48.1071" lon="-3.59066">
        <ele>185.5</ele>
        <time>2025-02-25T10:50:26Z</time>
      </trkpt>
      <trkpt lat="48.1071" lon="-3.59066">
        <ele>185.5</ele>
        <time>2025-02-25T10:50:27Z</time>
      </trkpt>
      <trkpt lat="48.1071" lon="-3.59066">
        <ele>185.5</ele>
        <time>2025-02-25T10:50:28Z</time>
      </trkpt>
      <trkpt lat="48.1071" lon="-3.59066">
        <ele>185.5</ele>
        <time>2025-02-25T10:50:29Z</time>
      </trkpt>
      <trkpt lat="48.1071" lon="-3.59066">
        <ele>185.5</ele>
        <time>2025-02-25T10:50:30Z</time>
      </trkpt>
      <trkpt lat="48.1071" lon="-3.59066">
        <ele>185.5</ele>
        <time>2025-02-25T10:50:31Z</time>
      </trkpt>
      <trkpt lat="48.1071" lon="-3.59066">
        <ele>185.5</ele>
        <time>2025-02-25T10:50:32Z</time>
      </trkpt>
      <trkpt lat="48.1071" lon="-3.59066">
        <ele>185.5</ele>
        <time>2025-02-25T10:50:33Z</time>
      </trkpt>
      <trkpt lat="48.1071" lon="-3.59066">
        <ele>185.5</ele>
        <time>2025-02-25T10:50:34Z</time>
      </trkpt>
      <trkpt lat="48.1071" lon="-3.59066">
        <ele>185.5</ele>
        <time>2025-02-25T10:50:35Z</time>
      </trkpt>
      <trkpt lat="48.1071" lon="-3.59066">
        <ele>185.5</ele>
        <time>2025-02-25T10:50:36Z</time>
      </trkpt>
      <trkpt lat="48.1071" lon="-3.59066">
        <ele>185.5</ele>
        <time>2025-02-25T10:50:37Z</time>
      </trkpt>
      <trkpt lat="48.1071" lon="-3.59066">
        <ele>185.5</ele>
        <time>2025-02-25T10:50:38Z</time>
      </trkpt>
      <trkpt lat="48.1071" lon="-3.59066">
        <ele>185.5</ele>
        <time>2025-02-25T10:50:39Z</time>
      </trkpt>
      <trkpt lat="48.1071" lon="-3.59066">
        <ele>185.5</ele>
        <time>2025-02-25T10:50:40Z</time>
      </trkpt>
      <trkpt lat="48.1071" lon="-3.59066">
        <ele>185.5</ele>
        <time>2025-02-25T10:50:41Z</time>
      </trkpt>
      <trkpt lat="48.1071" lon="-3.59066">
        <ele>185.5</ele>
        <time>2025-02-25T10:50:42Z</time>
      </trkpt>
      <trkpt lat="48.1071" lon="-3.59066">
        <ele>185.5</ele>
        <time>2025-02-25T10:50:43Z</time>
      </trkpt>
      <trkpt lat="48.1071" lon="-3.59066">
        <ele>185.5</ele>
        <time>2025-02-25T10:50:44Z</time>
      </trkpt>
      <trkpt lat="48.1071" lon="-3.59066">
        <ele>185.5</ele>
        <time>2025-02-25T10:50:45Z</time>
      </trkpt>
      <trkpt lat="48.1071" lon="-3.59066">
        <ele>185.5</ele>
        <time>2025-02-25T10:50:46Z</time>
      </trkpt>
      <trkpt lat="48.1071" lon="-3.59066">
        <ele>185.5</ele>
        <time>2025-02-25T10:50:47Z</time>
      </trkpt>
      <trkpt lat="48.1071" lon="-3.59066">
        <ele>185.5</ele>
        <time>2025-02-25T10:50:48Z</time>
      </trkpt>
      <trkpt lat="48.1071" lon="-3.59066">
        <ele>185.5</ele>
        <time>2025-02-25T10:50:49Z</time>
      </trkpt>
      <trkpt lat="48.1071" lon="-3.59066">
        <ele>185.5</ele>
        <time>2025-02-25T10:50:50Z</time>
      </trkpt>
      <trkpt lat="48.1071" lon="-3.59066">
        <ele>185.5</ele>
        <time>2025-02-25T10:50:51Z</time>
      </trkpt>
      <trkpt lat="48.1071" lon="-3.59066">
        <ele>185.5</ele>
        <time>2025-02-25T10:50:52Z</time>
      </trkpt>
      <trkpt lat="48.1071" lon="-3.59066">
        <ele>185.5</ele>
        <time>2025-02-25T10:50:53Z</time>
      </trkpt>
      <trkpt lat="48.1071" lon="-3.59066">
        <ele>185.5</ele>
        <time>2025-02-25T10:50:54Z</time>
      </trkpt>
      <trkpt lat="48.1071" lon="-3.59066">
        <ele>185.5</ele>
        <time>2025-02-25T10:50:55Z</time>
      </trkpt>
      <trkpt lat="48.1071" lon="-3.59066">
        <ele>185.5</ele>
        <time>2025-02-25T10:50:56Z</time>
      </trkpt>
      <trkpt lat="48.1071" lon="-3.59066">
        <ele>185.5</ele>
        <time>2025-02-25T10:50:57Z</time>
      </trkpt>
      <trkpt lat="48.1071" lon="-3.59066">
        <ele>185.5</ele>
        <time>2025-02-25T10:50:58Z</time>
      </trkpt>
      <trkpt lat="48.1071" lon="-3.59066">
        <ele>185.5</ele>
        <time>2025-02-25T10:50:59Z</time>
      </trkpt>
      <trkpt lat="48.1071" lon="-3.59066">
        <ele>185.5</ele>
        <time>2025-02-25T10:51:00Z</time>
      </trkpt>
      <trkpt lat="48.1071" lon="-3.59066">
        <ele>185.5</ele>
        <time>2025-02-25T10:51:01Z</time>
      </trkpt>
      <trkpt lat="48.1071" lon="-3.59066">
        <ele>185.5</ele>
        <time>2025-02-25T10:51:02Z</time>
      </trkpt>
      <trkpt lat="48.1071" lon="-3.59066">
        <ele>185.5</ele>
        <time>2025-02-25T10:51:03Z</time>
      </trkpt>
      <trkpt lat="48.1071" lon="-3.59066">
        <ele>185.5</ele>
        <time>2025-02-25T10:51:04Z</time>
      </trkpt>
      <trkpt lat="48.1071" lon="-3.59066">
        <ele>185.5</ele>
        <time>2025-02-25T10:51:05Z</time>
      </trkpt>
      <trkpt lat="48.1071" lon="-3.59066">
        <ele>185.5</ele>
        <time>2025-02-25T10:51:06Z</time>
      </trkpt>
      <trkpt lat="48.1071" lon="-3.59066">
        <ele>185.5</ele>
        <time>2025-02-25T10:51:07Z</time>
      </trkpt>
      <trkpt lat="48.1071" lon="-3.59066">
        <ele>185.5</ele>
        <time>2025-02-25T10:51:08Z</time>
      </trkpt>
      <trkpt lat="48.1071" lon="-3.59066">
        <ele>185.5</ele>
        <time>2025-02-25T10:51:09Z</time>
      </trkpt>
      <trkpt lat="48.1071" lon="-3.59066">
        <ele>185.5</ele>
        <time>2025-02-25T10:51:10Z</time>
      </trkpt>
      <trkpt lat="48.1071" lon="-3.59066">
        <ele>185.5</ele>
        <time>2025-02-25T10:51:11Z</time>
      </trkpt>
      <trkpt lat="48.1071" lon="-3.59066">
        <ele>185.5</ele>
        <time>2025-02-25T10:51:12Z</time>
      </trkpt>
      <trkpt lat="48.1071" lon="-3.59066">
        <ele>185.5</ele>
        <time>2025-02-25T10:51:13Z</time>
      </trkpt>
      <trkpt lat="48.1071" lon="-3.59066">
        <ele>185.5</ele>
        <time>2025-02-25T10:51:14Z</time>
      </trkpt>
      <trkpt lat="48.1071" lon="-3.59067">
        <ele>185.5</ele>
        <time>2025-02-25T10:51:15Z</time>
      </trkpt>
      <trkpt lat="48.1071" lon="-3.59067">
        <ele>185.5</ele>
        <time>2025-02-25T10:51:16Z</time>
      </trkpt>
      <trkpt lat="48.1071" lon="-3.59067">
        <ele>185.5</ele>
        <time>2025-02-25T10:51:17Z</time>
      </trkpt>
      <trkpt lat="48.1071" lon="-3.59067">
        <ele>185.5</ele>
        <time>2025-02-25T10:51:18Z</time>
      </trkpt>
      <trkpt lat="48.1071" lon="-3.59067">
        <ele>185.5</ele>
        <time>2025-02-25T10:51:19Z</time>
      </trkpt>
      <trkpt lat="48.1071" lon="-3.59067">
        <ele>185.5</ele>
        <time>2025-02-25T10:51:20Z</time>
      </trkpt>
      <trkpt lat="48.1071" lon="-3.59067">
        <ele>185.5</ele>
        <time>2025-02-25T10:51:21Z</time>
      </trkpt>
      <trkpt lat="48.1071" lon="-3.59067">
        <ele>185.5</ele>
        <time>2025-02-25T10:51:22Z</time>
      </trkpt>
      <trkpt lat="48.1071" lon="-3.59067">
        <ele>185.5</ele>
        <time>2025-02-25T10:51:23Z</time>
      </trkpt>
      <trkpt lat="48.1071" lon="-3.59067">
        <ele>185.5</ele>
        <time>2025-02-25T10:51:24Z</time>
      </trkpt>
      <trkpt lat="48.1071" lon="-3.59067">
        <ele>185.5</ele>
        <time>2025-02-25T10:51:25Z</time>
      </trkpt>
      <trkpt lat="48.1071" lon="-3.59067">
        <ele>185.5</ele>
        <time>2025-02-25T10:51:26Z</time>
      </trkpt>
      <trkpt lat="48.1071" lon="-3.59067">
        <ele>185.5</ele>
        <time>2025-02-25T10:51:27Z</time>
      </trkpt>
      <trkpt lat="48.1071" lon="-3.59067">
        <ele>185.5</ele>
        <time>2025-02-25T10:51:28Z</time>
      </trkpt>
      <trkpt lat="48.1071" lon="-3.59067">
        <ele>185.5</ele>
        <time>2025-02-25T10:51:29Z</time>
      </trkpt>
      <trkpt lat="48.1071" lon="-3.59067">
        <ele>185.5</ele>
        <time>2025-02-25T10:51:30Z</time>
      </trkpt>
      <trkpt lat="48.1071" lon="-3.59067">
        <ele>185.5</ele>
        <time>2025-02-25T10:51:31Z</time>
      </trkpt>
      <trkpt lat="48.1071" lon="-3.59067">
        <ele>185.5</ele>
        <time>2025-02-25T10:51:32Z</time>
      </trkpt>
      <trkpt lat="48.1071" lon="-3.59067">
        <ele>185.5</ele>
        <time>2025-02-25T10:51:33Z</time>
      </trkpt>
      <trkpt lat="48.1071" lon="-3.59067">
        <ele>185.5</ele>
        <time>2025-02-25T10:51:34Z</time>
      </trkpt>
      <trkpt lat="48.1071" lon="-3.59067">
        <ele>185.5</ele>
        <time>2025-02-25T10:51:35Z</time>
      </trkpt>
      <trkpt lat="48.1071" lon="-3.59067">
        <ele>185.5</ele>
        <time>2025-02-25T10:51:36Z</time>
      </trkpt>
      <trkpt lat="48.1071" lon="-3.59067">
        <ele>185.5</ele>
        <time>2025-02-25T10:51:37Z</time>
      </trkpt>
      <trkpt lat="48.1071" lon="-3.59067">
        <ele>185.5</ele>
        <time>2025-02-25T10:51:38Z</time>
      </trkpt>
      <trkpt lat="48.1071" lon="-3.59067">
        <ele>185.5</ele>
        <time>2025-02-25T10:51:39Z</time>
      </trkpt>
      <trkpt lat="48.1071" lon="-3.59067">
        <ele>185.5</ele>
        <time>2025-02-25T10:51:40Z</time>
      </trkpt>
      <trkpt lat="48.1071" lon="-3.59067">
        <ele>185.5</ele>
        <time>2025-02-25T10:51:41Z</time>
      </trkpt>
      <trkpt lat="48.1071" lon="-3.59067">
        <ele>185.5</ele>
        <time>2025-02-25T10:51:42Z</time>
      </trkpt>
      <trkpt lat="48.1071" lon="-3.59067">
        <ele>185.5</ele>
        <time>2025-02-25T10:51:43Z</time>
      </trkpt>
      <trkpt lat="48.1071" lon="-3.59067">
        <ele>185.5</ele>
        <time>2025-02-25T10:51:44Z</time>
      </trkpt>
      <trkpt lat="48.1071" lon="-3.59067">
        <ele>185.5</ele>
        <time>2025-02-25T10:51:45Z</time>
      </trkpt>
      <trkpt lat="48.1071" lon="-3.59067">
        <ele>185.5</ele>
        <time>2025-02-25T10:51:46Z</time>
      </trkpt>
      <trkpt lat="48.1071" lon="-3.59067">
        <ele>185.5</ele>
        <time>2025-02-25T10:51:47Z</time>
      </trkpt>
      <trkpt lat="48.1071" lon="-3.59067">
        <ele>185.5</ele>
        <time>2025-02-25T10:51:48Z</time>
      </trkpt>
      <trkpt lat="48.1071" lon="-3.59067">
        <ele>185.5</ele>
        <time>2025-02-25T10:51:49Z</time>
      </trkpt>
      <trkpt lat="48.1071" lon="-3.59067">
        <ele>185.5</ele>
        <time>2025-02-25T10:51:50Z</time>
      </trkpt>
      <trkpt lat="48.1071" lon="-3.59067">
        <ele>185.5</ele>
        <time>2025-02-25T10:51:51Z</time>
      </trkpt>
      <trkpt lat="48.1071" lon="-3.59067">
        <ele>185.5</ele>
        <time>2025-02-25T10:51:52Z</time>
      </trkpt>
      <trkpt lat="48.1071" lon="-3.59067">
        <ele>185.5</ele>
        <time>2025-02-25T10:51:53Z</time>
      </trkpt>
      <trkpt lat="48.1071" lon="-3.59067">
        <ele>185.5</ele>
        <time>2025-02-25T10:51:54Z</time>
      </trkpt>
      <trkpt lat="48.1071" lon="-3.59067">
        <ele>185.5</ele>
        <time>2025-02-25T10:51:55Z</time>
      </trkpt>
      <trkpt lat="48.1071" lon="-3.59067">
        <ele>185.5</ele>
        <time>2025-02-25T10:51:56Z</time>
      </trkpt>
      <trkpt lat="48.1071" lon="-3.59067">
        <ele>185.5</ele>
        <time>2025-02-25T10:51:57Z</time>
      </trkpt>
      <trkpt lat="48.1071" lon="-3.59067">
        <ele>185.5</ele>
        <time>2025-02-25T10:51:58Z</time>
      </trkpt>
      <trkpt lat="48.1071" lon="-3.59067">
        <ele>185.5</ele>
        <time>2025-02-25T10:51:59Z</time>
      </trkpt>
      <trkpt lat="48.1071" lon="-3.59067">
        <ele>185.5</ele>
        <time>2025-02-25T10:52:00Z</time>
      </trkpt>
      <trkpt lat="48.1071" lon="-3.59067">
        <ele>185.5</ele>
        <time>2025-02-25T10:52:01Z</time>
      </trkpt>
      <trkpt lat="48.1071" lon="-3.59067">
        <ele>185.5</ele>
        <time>2025-02-25T10:52:02Z</time>
      </trkpt>
      <trkpt lat="48.1071" lon="-3.59067">
        <ele>185.5</ele>
        <time>2025-02-25T10:52:03Z</time>
      </trkpt>
      <trkpt lat="48.1071" lon="-3.59067">
        <ele>185.5</ele>
        <time>2025-02-25T10:52:04Z</time>
      </trkpt>
      <trkpt lat="48.1071" lon="-3.59067">
        <ele>185.5</ele>
        <time>2025-02-25T10:52:05Z</time>
      </trkpt>
      <trkpt lat="48.1071" lon="-3.59067">
        <ele>185.5</ele>
        <time>2025-02-25T10:52:06Z</time>
      </trkpt>
      <trkpt lat="48.1071" lon="-3.59067">
        <ele>185.5</ele>
        <time>2025-02-25T10:52:07Z</time>
      </trkpt>
      <trkpt lat="48.1071" lon="-3.59067">
        <ele>185.5</ele>
        <time>2025-02-25T10:52:08Z</time>
      </trkpt>
      <trkpt lat="48.1071" lon="-3.59067">
        <ele>185.5</ele>
        <time>2025-02-25T10:52:09Z</time>
      </trkpt>
      <trkpt lat="48.1071" lon="-3.59067">
        <ele>185.5</ele>
        <time>2025-02-25T10:52:10Z</time>
      </trkpt>
      <trkpt lat="48.1071" lon="-3.59067">
        <ele>185.5</ele>
        <time>2025-02-25T10:52:11Z</time>
      </trkpt>
      <trkpt lat="48.1071" lon="-3.59067">
        <ele>185.5</ele>
        <time>2025-02-25T10:52:12Z</time>
      </trkpt>
      <trkpt lat="48.1071" lon="-3.59067">
        <ele>185.5</ele>
        <time>2025-02-25T10:52:13Z</time>
      </trkpt>
      <trkpt lat="48.1071" lon="-3.59067">
        <ele>185.5</ele>
        <time>2025-02-25T10:52:14Z</time>
      </trkpt>
      <trkpt lat="48.1071" lon="-3.59067">
        <ele>185.5</ele>
        <time>2025-02-25T10:52:15Z</time>
      </trkpt>
      <trkpt lat="48.1071" lon="-3.59067">
        <ele>185.5</ele>
        <time>2025-02-25T10:52:16Z</time>
      </trkpt>
      <trkpt lat="48.1071" lon="-3.59067">
        <ele>185.5</ele>
        <time>2025-02-25T10:52:17Z</time>
      </trkpt>
      <trkpt lat="48.1071" lon="-3.59067">
        <ele>185.5</ele>
        <time>2025-02-25T10:52:18Z</time>
      </trkpt>
      <trkpt lat="48.1071" lon="-3.59068">
        <ele>185.5</ele>
        <time>2025-02-25T10:52:19Z</time>
      </trkpt>
      <trkpt lat="48.1071" lon="-3.59068">
        <ele>185.5</ele>
        <time>2025-02-25T10:52:20Z</time>
      </trkpt>
      <trkpt lat="48.1071" lon="-3.59068">
        <ele>185.5</ele>
        <time>2025-02-25T10:52:21Z</time>
      </trkpt>
      <trkpt lat="48.1071" lon="-3.59068">
        <ele>185.5</ele>
        <time>2025-02-25T10:52:22Z</time>
      </trkpt>
      <trkpt lat="48.1071" lon="-3.59068">
        <ele>185.5</ele>
        <time>2025-02-25T10:52:23Z</time>
      </trkpt>
      <trkpt lat="48.1071" lon="-3.59068">
        <ele>185.5</ele>
        <time>2025-02-25T10:52:24Z</time>
      </trkpt>
      <trkpt lat="48.1071" lon="-3.59068">
        <ele>185.5</ele>
        <time>2025-02-25T10:52:25Z</time>
      </trkpt>
      <trkpt lat="48.1071" lon="-3.59068">
        <ele>185.5</ele>
        <time>2025-02-25T10:52:26Z</time>
      </trkpt>
      <trkpt lat="48.1071" lon="-3.59068">
        <ele>185.5</ele>
        <time>2025-02-25T10:52:27Z</time>
      </trkpt>
      <trkpt lat="48.1071" lon="-3.59068">
        <ele>185.5</ele>
        <time>2025-02-25T10:52:28Z</time>
      </trkpt>
      <trkpt lat="48.1071" lon="-3.59068">
        <ele>185.5</ele>
        <time>2025-02-25T10:52:29Z</time>
      </trkpt>
      <trkpt lat="48.1071" lon="-3.59068">
        <ele>185.5</ele>
        <time>2025-02-25T10:52:30Z</time>
      </trkpt>
      <trkpt lat="48.1071" lon="-3.59068">
        <ele>185.5</ele>
        <time>2025-02-25T10:52:31Z</time>
      </trkpt>
      <trkpt lat="48.1071" lon="-3.59068">
        <ele>185.5</ele>
        <time>2025-02-25T10:52:32Z</time>
      </trkpt>
      <trkpt lat="48.1071" lon="-3.59068">
        <ele>185.5</ele>
        <time>2025-02-25T10:52:33Z</time>
      </trkpt>
      <trkpt lat="48.1071" lon="-3.59068">
        <ele>185.5</ele>
        <time>2025-02-25T10:52:34Z</time>
      </trkpt>
      <trkpt lat="48.1071" lon="-3.59068">
        <ele>185.5</ele>
        <time>2025-02-25T10:52:35Z</time>
      </trkpt>
      <trkpt lat="48.10709" lon="-3.59068">
        <ele>185.4</ele>
        <time>2025-02-25T10:52:36Z</time>
      </trkpt>
      <trkpt lat="48.10709" lon="-3.59068">
        <ele>185.4</ele>
        <time>2025-02-25T10:52:37Z</time>
      </trkpt>
      <trkpt lat="48.10709" lon="-3.59068">
        <ele>185.4</ele>
        <time>2025-02-25T10:52:38Z</time>
      </trkpt>
      <trkpt lat="48.10708" lon="-3.59068">
        <ele>185.2</ele>
        <time>2025-02-25T10:52:39Z</time>
      </trkpt>
      <trkpt lat="48.10708" lon="-3.59067">
        <ele>185.3</ele>
        <time>2025-02-25T10:52:40Z</time>
      </trkpt>
      <trkpt lat="48.10708" lon="-3.59067">
        <ele>185.3</ele>
        <time>2025-02-25T10:52:41Z</time>
      </trkpt>
      <trkpt lat="48.10709" lon="-3.59066">
        <ele>185.4</ele>
        <time>2025-02-25T10:52:42Z</time>
      </trkpt>
      <trkpt lat="48.10709" lon="-3.59066">
        <ele>185.4</ele>
        <time>2025-02-25T10:52:43Z</time>
      </trkpt>
      <trkpt lat="48.1071" lon="-3.59066">
        <ele>185.5</ele>
        <time>2025-02-25T10:52:44Z</time>
      </trkpt>
      <trkpt lat="48.10709" lon="-3.59067">
        <ele>185.4</ele>
        <time>2025-02-25T10:52:45Z</time>
      </trkpt>
      <trkpt lat="48.10709" lon="-3.59067">
        <ele>185.4</ele>
        <time>2025-02-25T10:52:46Z</time>
      </trkpt>
      <trkpt lat="48.10709" lon="-3.59067">
        <ele>185.4</ele>
        <time>2025-02-25T10:52:47Z</time>
      </trkpt>
      <trkpt lat="48.10709" lon="-3.59067">
        <ele>185.4</ele>
        <time>2025-02-25T10:52:48Z</time>
      </trkpt>
      <trkpt lat="48.10709" lon="-3.59066">
        <ele>185.4</ele>
        <time>2025-02-25T10:52:49Z</time>
      </trkpt>
      <trkpt lat="48.10709" lon="-3.59066">
        <ele>185.4</ele>
        <time>2025-02-25T10:52:50Z</time>
      </trkpt>
      <trkpt lat="48.10709" lon="-3.59066">
        <ele>185.4</ele>
        <time>2025-02-25T10:52:51Z</time>
      </trkpt>
      <trkpt lat="48.10709" lon="-3.59067">
        <ele>185.4</ele>
        <time>2025-02-25T10:52:52Z</time>
      </trkpt>
      <trkpt lat="48.1071" lon="-3.59067">
        <ele>185.5</ele>
        <time>2025-02-25T10:52:53Z</time>
      </trkpt>
      <trkpt lat="48.1071" lon="-3.59066">
        <ele>185.5</ele>
        <time>2025-02-25T10:52:54Z</time>
      </trkpt>
      <trkpt lat="48.1071" lon="-3.59066">
        <ele>185.5</ele>
        <time>2025-02-25T10:52:55Z</time>
      </trkpt>
      <trkpt lat="48.1071" lon="-3.59066">
        <ele>185.5</ele>
        <time>2025-02-25T10:52:56Z</time>
      </trkpt>
      <trkpt lat="48.1071" lon="-3.59066">
        <ele>185.5</ele>
        <time>2025-02-25T10:52:57Z</time>
      </trkpt>
      <trkpt lat="48.1071" lon="-3.59066">
        <ele>185.5</ele>
        <time>2025-02-25T10:52:58Z</time>
      </trkpt>
      <trkpt lat="48.1071" lon="-3.59066">
        <ele>185.5</ele>
        <time>2025-02-25T10:52:59Z</time>
      </trkpt>
      <trkpt lat="48.1071" lon="-3.59067">
        <ele>185.5</ele>
        <time>2025-02-25T10:53:00Z</time>
      </trkpt>
      <trkpt lat="48.10709" lon="-3.59066">
        <ele>185.4</ele>
        <time>2025-02-25T10:53:01Z</time>
      </trkpt>
      <trkpt lat="48.10707" lon="-3.59065">
        <ele>185.2</ele>
        <time>2025-02-25T10:53:02Z</time>
      </trkpt>
      <trkpt lat="48.10707" lon="-3.59065">
        <ele>185.2</ele>
        <time>2025-02-25T10:53:03Z</time>
      </trkpt>
      <trkpt lat="48.10706" lon="-3.59065">
        <ele>185</ele>
        <time>2025-02-25T10:53:04Z</time>
      </trkpt>
      <trkpt lat="48.10706" lon="-3.59066">
        <ele>185</ele>
        <time>2025-02-25T10:53:05Z</time>
      </trkpt>
      <trkpt lat="48.10706" lon="-3.59066">
        <ele>185</ele>
        <time>2025-02-25T10:53:06Z</time>
      </trkpt>
      <trkpt lat="48.10706" lon="-3.59066">
        <ele>185</ele>
        <time>2025-02-25T10:53:07Z</time>
      </trkpt>
      <trkpt lat="48.10706" lon="-3.59066">
        <ele>185</ele>
        <time>2025-02-25T10:53:08Z</time>
      </trkpt>
      <trkpt lat="48.10706" lon="-3.59066">
        <ele>185</ele>
        <time>2025-02-25T10:53:09Z</time>
      </trkpt>
      <trkpt lat="48.10706" lon="-3.59066">
        <ele>185</ele>
        <time>2025-02-25T10:53:10Z</time>
      </trkpt>
      <trkpt lat="48.10706" lon="-3.59066">
        <ele>185</ele>
        <time>2025-02-25T10:53:11Z</time>
      </trkpt>
      <trkpt lat="48.10706" lon="-3.59066">
        <ele>185</ele>
        <time>2025-02-25T10:53:12Z</time>
      </trkpt>
      <trkpt lat="48.10706" lon="-3.59066">
        <ele>185</ele>
        <time>2025-02-25T10:53:13Z</time>
      </trkpt>
      <trkpt lat="48.10706" lon="-3.59066">
        <ele>185</ele>
        <time>2025-02-25T10:53:14Z</time>
      </trkpt>
      <trkpt lat="48.10706" lon="-3.59066">
        <ele>185</ele>
        <time>2025-02-25T10:53:15Z</time>
      </trkpt>
      <trkpt lat="48.10706" lon="-3.59066">
        <ele>185</ele>
        <time>2025-02-25T10:53:16Z</time>
      </trkpt>
      <trkpt lat="48.10706" lon="-3.59066">
        <ele>185</ele>
        <time>2025-02-25T10:53:17Z</time>
      </trkpt>
      <trkpt lat="48.10706" lon="-3.59066">
        <ele>185</ele>
        <time>2025-02-25T10:53:18Z</time>
      </trkpt>
      <trkpt lat="48.10706" lon="-3.59066">
        <ele>185</ele>
        <time>2025-02-25T10:53:19Z</time>
      </trkpt>
      <trkpt lat="48.10706" lon="-3.59066">
        <ele>185</ele>
        <time>2025-02-25T10:53:20Z</time>
      </trkpt>
      <trkpt lat="48.10706" lon="-3.59066">
        <ele>185</ele>
        <time>2025-02-25T10:53:21Z</time>
      </trkpt>
      <trkpt lat="48.10706" lon="-3.59066">
        <ele>185</ele>
        <time>2025-02-25T10:53:22Z</time>
      </trkpt>
      <trkpt lat="48.10706" lon="-3.59066">
        <ele>185</ele>
        <time>2025-02-25T10:53:23Z</time>
      </trkpt>
      <trkpt lat="48.10706" lon="-3.59066">
        <ele>185</ele>
        <time>2025-02-25T10:53:24Z</time>
      </trkpt>
      <trkpt lat="48.10706" lon="-3.59066">
        <ele>185</ele>
        <time>2025-02-25T10:53:25Z</time>
      </trkpt>
      <trkpt lat="48.10706" lon="-3.59066">
        <ele>185</ele>
        <time>2025-02-25T10:53:26Z</time>
      </trkpt>
      <trkpt lat="48.10706" lon="-3.59066">
        <ele>185</ele>
        <time>2025-02-25T10:53:27Z</time>
      </trkpt>
      <trkpt lat="48.10706" lon="-3.59066">
        <ele>185</ele>
        <time>2025-02-25T10:53:28Z</time>
      </trkpt>
      <trkpt lat="48.10706" lon="-3.59066">
        <ele>185</ele>
        <time>2025-02-25T10:53:29Z</time>
      </trkpt>
      <trkpt lat="48.10706" lon="-3.59066">
        <ele>185</ele>
        <time>2025-02-25T10:53:30Z</time>
      </trkpt>
      <trkpt lat="48.10706" lon="-3.59066">
        <ele>185</ele>
        <time>2025-02-25T10:53:31Z</time>
      </trkpt>
      <trkpt lat="48.10706" lon="-3.59066">
        <ele>185</ele>
        <time>2025-02-25T10:53:32Z</time>
      </trkpt>
      <trkpt lat="48.10706" lon="-3.59066">
        <ele>185</ele>
        <time>2025-02-25T10:53:33Z</time>
      </trkpt>
      <trkpt lat="48.10706" lon="-3.59066">
        <ele>185</ele>
        <time>2025-02-25T10:53:34Z</time>
      </trkpt>
      <trkpt lat="48.10706" lon="-3.59066">
        <ele>185</ele>
        <time>2025-02-25T10:53:35Z</time>
      </trkpt>
      <trkpt lat="48.10706" lon="-3.59066">
        <ele>185</ele>
        <time>2025-02-25T10:53:36Z</time>
      </trkpt>
      <trkpt lat="48.10706" lon="-3.59066">
        <ele>185</ele>
        <time>2025-02-25T10:53:37Z</time>
      </trkpt>
      <trkpt lat="48.10706" lon="-3.59066">
        <ele>185</ele>
        <time>2025-02-25T10:53:38Z</time>
      </trkpt>
      <trkpt lat="48.10706" lon="-3.59066">
        <ele>185</ele>
        <time>2025-02-25T10:53:39Z</time>
      </trkpt>
      <trkpt lat="48.10706" lon="-3.59066">
        <ele>185</ele>
        <time>2025-02-25T10:53:40Z</time>
      </trkpt>
      <trkpt lat="48.10706" lon="-3.59066">
        <ele>185</ele>
        <time>2025-02-25T10:53:41Z</time>
      </trkpt>
      <trkpt lat="48.10706" lon="-3.59066">
        <ele>185</ele>
        <time>2025-02-25T10:53:42Z</time>
      </trkpt>
      <trkpt lat="48.10706" lon="-3.59066">
        <ele>185</ele>
        <time>2025-02-25T10:53:43Z</time>
      </trkpt>
      <trkpt lat="48.10706" lon="-3.59066">
        <ele>185</ele>
        <time>2025-02-25T10:53:44Z</time>
      </trkpt>
      <trkpt lat="48.10706" lon="-3.59066">
        <ele>185</ele>
        <time>2025-02-25T10:53:45Z</time>
      </trkpt>
      <trkpt lat="48.10706" lon="-3.59066">
        <ele>185</ele>
        <time>2025-02-25T10:53:46Z</time>
      </trkpt>
      <trkpt lat="48.10706" lon="-3.59066">
        <ele>185</ele>
        <time>2025-02-25T10:53:47Z</time>
      </trkpt>
      <trkpt lat="48.10706" lon="-3.59066">
        <ele>185</ele>
        <time>2025-02-25T10:53:48Z</time>
      </trkpt>
      <trkpt lat="48.10706" lon="-3.59066">
        <ele>185</ele>
        <time>2025-02-25T10:53:49Z</time>
      </trkpt>
      <trkpt lat="48.10706" lon="-3.59066">
        <ele>185</ele>
        <time>2025-02-25T10:53:50Z</time>
      </trkpt>
      <trkpt lat="48.10706" lon="-3.59066">
        <ele>185</ele>
        <time>2025-02-25T10:53:51Z</time>
      </trkpt>
      <trkpt lat="48.10706" lon="-3.59066">
        <ele>185</ele>
        <time>2025-02-25T10:53:52Z</time>
      </trkpt>
      <trkpt lat="48.10706" lon="-3.59066">
        <ele>185</ele>
        <time>2025-02-25T10:53:53Z</time>
      </trkpt>
      <trkpt lat="48.10706" lon="-3.59066">
        <ele>185</ele>
        <time>2025-02-25T10:53:54Z</time>
      </trkpt>
      <trkpt lat="48.10706" lon="-3.59066">
        <ele>185</ele>
        <time>2025-02-25T10:53:55Z</time>
      </trkpt>
      <trkpt lat="48.10706" lon="-3.59066">
        <ele>185</ele>
        <time>2025-02-25T10:53:56Z</time>
      </trkpt>
      <trkpt lat="48.10706" lon="-3.59066">
        <ele>185</ele>
        <time>2025-02-25T10:53:57Z</time>
      </trkpt>
      <trkpt lat="48.10706" lon="-3.59066">
        <ele>185</ele>
        <time>2025-02-25T10:53:58Z</time>
      </trkpt>
      <trkpt lat="48.10706" lon="-3.59066">
        <ele>185</ele>
        <time>2025-02-25T10:53:59Z</time>
      </trkpt>
      <trkpt lat="48.10706" lon="-3.59066">
        <ele>185</ele>
        <time>2025-02-25T10:54:00Z</time>
      </trkpt>
      <trkpt lat="48.10706" lon="-3.59066">
        <ele>185</ele>
        <time>2025-02-25T10:54:01Z</time>
      </trkpt>
      <trkpt lat="48.10706" lon="-3.59066">
        <ele>185</ele>
        <time>2025-02-25T10:54:02Z</time>
      </trkpt>
      <trkpt lat="48.10706" lon="-3.59066">
        <ele>185</ele>
        <time>2025-02-25T10:54:03Z</time>
      </trkpt>
      <trkpt lat="48.10706" lon="-3.59066">
        <ele>185</ele>
        <time>2025-02-25T10:54:04Z</time>
      </trkpt>
      <trkpt lat="48.10706" lon="-3.59066">
        <ele>185</ele>
        <time>2025-02-25T10:54:05Z</time>
      </trkpt>
      <trkpt lat="48.10706" lon="-3.59066">
        <ele>185</ele>
        <time>2025-02-25T10:54:06Z</time>
      </trkpt>
      <trkpt lat="48.10706" lon="-3.59066">
        <ele>185</ele>
        <time>2025-02-25T10:54:07Z</time>
      </trkpt>
      <trkpt lat="48.10706" lon="-3.59066">
        <ele>185</ele>
        <time>2025-02-25T10:54:08Z</time>
      </trkpt>
      <trkpt lat="48.10706" lon="-3.59066">
        <ele>185</ele>
        <time>2025-02-25T10:54:09Z</time>
      </trkpt>
      <trkpt lat="48.10707" lon="-3.59066">
        <ele>185.1</ele>
        <time>2025-02-25T10:54:10Z</time>
      </trkpt>
      <trkpt lat="48.10707" lon="-3.59066">
        <ele>185.1</ele>
        <time>2025-02-25T10:54:11Z</time>
      </trkpt>
      <trkpt lat="48.10707" lon="-3.59066">
        <ele>185.1</ele>
        <time>2025-02-25T10:54:12Z</time>
      </trkpt>
      <trkpt lat="48.10707" lon="-3.59066">
        <ele>185.1</ele>
        <time>2025-02-25T10:54:13Z</time>
      </trkpt>
      <trkpt lat="48.10707" lon="-3.59066">
        <ele>185.1</ele>
        <time>2025-02-25T10:54:14Z</time>
      </trkpt>
      <trkpt lat="48.10707" lon="-3.59066">
        <ele>185.1</ele>
        <time>2025-02-25T10:54:15Z</time>
      </trkpt>
      <trkpt lat="48.10707" lon="-3.59066">
        <ele>185.1</ele>
        <time>2025-02-25T10:54:16Z</time>
      </trkpt>
      <trkpt lat="48.10707" lon="-3.59066">
        <ele>185.1</ele>
        <time>2025-02-25T10:54:17Z</time>
      </trkpt>
      <trkpt lat="48.10707" lon="-3.59066">
        <ele>185.1</ele>
        <time>2025-02-25T10:54:18Z</time>
      </trkpt>
      <trkpt lat="48.10707" lon="-3.59066">
        <ele>185.1</ele>
        <time>2025-02-25T10:54:19Z</time>
      </trkpt>
      <trkpt lat="48.10706" lon="-3.59066">
        <ele>185</ele>
        <time>2025-02-25T10:54:20Z</time>
      </trkpt>
      <trkpt lat="48.10706" lon="-3.59066">
        <ele>185</ele>
        <time>2025-02-25T10:54:21Z</time>
      </trkpt>
      <trkpt lat="48.10706" lon="-3.59066">
        <ele>185</ele>
        <time>2025-02-25T10:54:22Z</time>
      </trkpt>
      <trkpt lat="48.10706" lon="-3.59066">
        <ele>185</ele>
        <time>2025-02-25T10:54:23Z</time>
      </trkpt>
      <trkpt lat="48.10706" lon="-3.59066">
        <ele>185</ele>
        <time>2025-02-25T10:54:24Z</time>
      </trkpt>
      <trkpt lat="48.10706" lon="-3.59066">
        <ele>185</ele>
        <time>2025-02-25T10:54:25Z</time>
      </trkpt>
      <trkpt lat="48.10706" lon="-3.59066">
        <ele>185</ele>
        <time>2025-02-25T10:54:26Z</time>
      </trkpt>
      <trkpt lat="48.10706" lon="-3.59066">
        <ele>185</ele>
        <time>2025-02-25T10:54:27Z</time>
      </trkpt>
      <trkpt lat="48.10706" lon="-3.59066">
        <ele>185</ele>
        <time>2025-02-25T10:54:28Z</time>
      </trkpt>
      <trkpt lat="48.10706" lon="-3.59066">
        <ele>185</ele>
        <time>2025-02-25T10:54:29Z</time>
      </trkpt>
      <trkpt lat="48.10706" lon="-3.59066">
        <ele>185</ele>
        <time>2025-02-25T10:54:30Z</time>
      </trkpt>
      <trkpt lat="48.10706" lon="-3.59066">
        <ele>185</ele>
        <time>2025-02-25T10:54:31Z</time>
      </trkpt>
      <trkpt lat="48.10706" lon="-3.59066">
        <ele>185</ele>
        <time>2025-02-25T10:54:32Z</time>
      </trkpt>
      <trkpt lat="48.10706" lon="-3.59066">
        <ele>185</ele>
        <time>2025-02-25T10:54:33Z</time>
      </trkpt>
      <trkpt lat="48.10706" lon="-3.59066">
        <ele>185</ele>
        <time>2025-02-25T10:54:34Z</time>
      </trkpt>
      <trkpt lat="48.10706" lon="-3.59066">
        <ele>185</ele>
        <time>2025-02-25T10:54:35Z</time>
      </trkpt>
      <trkpt lat="48.10706" lon="-3.59066">
        <ele>185</ele>
        <time>2025-02-25T10:54:36Z</time>
      </trkpt>
      <trkpt lat="48.10706" lon="-3.59066">
        <ele>185</ele>
        <time>2025-02-25T10:54:37Z</time>
      </trkpt>
      <trkpt lat="48.10706" lon="-3.59066">
        <ele>185</ele>
        <time>2025-02-25T10:54:38Z</time>
      </trkpt>
      <trkpt lat="48.10706" lon="-3.59066">
        <ele>185</ele>
        <time>2025-02-25T10:54:39Z</time>
      </trkpt>
      <trkpt lat="48.10706" lon="-3.59067">
        <ele>185</ele>
        <time>2025-02-25T10:54:40Z</time>
      </trkpt>
      <trkpt lat="48.10707" lon="-3.59067">
        <ele>185.1</ele>
        <time>2025-02-25T10:54:41Z</time>
      </trkpt>
      <trkpt lat="48.10708" lon="-3.59067">
        <ele>185.3</ele>
        <time>2025-02-25T10:54:42Z</time>
      </trkpt>
      <trkpt lat="48.10709" lon="-3.59068">
        <ele>185.4</ele>
        <time>2025-02-25T10:54:43Z</time>
      </trkpt>
      <trkpt lat="48.10709" lon="-3.59068">
        <ele>185.4</ele>
        <time>2025-02-25T10:54:44Z</time>
      </trkpt>
      <trkpt lat="48.1071" lon="-3.59068">
        <ele>185.5</ele>
        <time>2025-02-25T10:54:45Z</time>
      </trkpt>
      <trkpt lat="48.1071" lon="-3.59068">
        <ele>185.5</ele>
        <time>2025-02-25T10:54:46Z</time>
      </trkpt>
      <trkpt lat="48.1071" lon="-3.59068">
        <ele>185.5</ele>
        <time>2025-02-25T10:54:47Z</time>
      </trkpt>
      <trkpt lat="48.1071" lon="-3.59068">
        <ele>185.5</ele>
        <time>2025-02-25T10:54:48Z</time>
      </trkpt>
      <trkpt lat="48.1071" lon="-3.59068">
        <ele>185.5</ele>
        <time>2025-02-25T10:54:49Z</time>
      </trkpt>
      <trkpt lat="48.1071" lon="-3.59068">
        <ele>185.5</ele>
        <time>2025-02-25T10:54:50Z</time>
      </trkpt>
      <trkpt lat="48.1071" lon="-3.59068">
        <ele>185.5</ele>
        <time>2025-02-25T10:54:51Z</time>
      </trkpt>
      <trkpt lat="48.1071" lon="-3.59068">
        <ele>185.5</ele>
        <time>2025-02-25T10:54:52Z</time>
      </trkpt>
      <trkpt lat="48.1071" lon="-3.59068">
        <ele>185.5</ele>
        <time>2025-02-25T10:54:53Z</time>
      </trkpt>
      <trkpt lat="48.1071" lon="-3.59069">
        <ele>185.5</ele>
        <time>2025-02-25T10:54:54Z</time>
      </trkpt>
      <trkpt lat="48.1071" lon="-3.59069">
        <ele>185.5</ele>
        <time>2025-02-25T10:54:55Z</time>
      </trkpt>
      <trkpt lat="48.1071" lon="-3.59069">
        <ele>185.5</ele>
        <time>2025-02-25T10:54:56Z</time>
      </trkpt>
      <trkpt lat="48.1071" lon="-3.59069">
        <ele>185.5</ele>
        <time>2025-02-25T10:54:57Z</time>
      </trkpt>
      <trkpt lat="48.1071" lon="-3.59069">
        <ele>185.5</ele>
        <time>2025-02-25T10:54:58Z</time>
      </trkpt>
      <trkpt lat="48.1071" lon="-3.59069">
        <ele>185.5</ele>
        <time>2025-02-25T10:54:59Z</time>
      </trkpt>
      <trkpt lat="48.1071" lon="-3.59069">
        <ele>185.5</ele>
        <time>2025-02-25T10:55:00Z</time>
      </trkpt>
      <trkpt lat="48.1071" lon="-3.59069">
        <ele>185.5</ele>
        <time>2025-02-25T10:55:01Z</time>
      </trkpt>
      <trkpt lat="48.1071" lon="-3.59069">
        <ele>185.5</ele>
        <time>2025-02-25T10:55:02Z</time>
      </trkpt>
      <trkpt lat="48.1071" lon="-3.59069">
        <ele>185.5</ele>
        <time>2025-02-25T10:55:03Z</time>
      </trkpt>
      <trkpt lat="48.1071" lon="-3.59069">
        <ele>185.5</ele>
        <time>2025-02-25T10:55:04Z</time>
      </trkpt>
      <trkpt lat="48.1071" lon="-3.59069">
        <ele>185.5</ele>
        <time>2025-02-25T10:55:05Z</time>
      </trkpt>
      <trkpt lat="48.1071" lon="-3.59069">
        <ele>185.5</ele>
        <time>2025-02-25T10:55:06Z</time>
      </trkpt>
      <trkpt lat="48.1071" lon="-3.59069">
        <ele>185.5</ele>
        <time>2025-02-25T10:55:07Z</time>
      </trkpt>
      <trkpt lat="48.10709" lon="-3.5907">
        <ele>185.3</ele>
        <time>2025-02-25T10:55:08Z</time>
      </trkpt>
      <trkpt lat="48.10708" lon="-3.5907">
        <ele>185.2</ele>
        <time>2025-02-25T10:55:09Z</time>
      </trkpt>
      <trkpt lat="48.10708" lon="-3.5907">
        <ele>185.2</ele>
        <time>2025-02-25T10:55:10Z</time>
      </trkpt>
      <trkpt lat="48.10708" lon="-3.5907">
        <ele>185.2</ele>
        <time>2025-02-25T10:55:11Z</time>
      </trkpt>
      <trkpt lat="48.10708" lon="-3.59069">
        <ele>185.2</ele>
        <time>2025-02-25T10:55:12Z</time>
      </trkpt>
      <trkpt lat="48.10708" lon="-3.59069">
        <ele>185.2</ele>
        <time>2025-02-25T10:55:13Z</time>
      </trkpt>
      <trkpt lat="48.10708" lon="-3.59069">
        <ele>185.2</ele>
        <time>2025-02-25T10:55:14Z</time>
      </trkpt>
      <trkpt lat="48.10708" lon="-3.59069">
        <ele>185.2</ele>
        <time>2025-02-25T10:55:15Z</time>
      </trkpt>
      <trkpt lat="48.10708" lon="-3.59069">
        <ele>185.2</ele>
        <time>2025-02-25T10:55:16Z</time>
      </trkpt>
      <trkpt lat="48.10708" lon="-3.59069">
        <ele>185.2</ele>
        <time>2025-02-25T10:55:17Z</time>
      </trkpt>
      <trkpt lat="48.10708" lon="-3.59069">
        <ele>185.2</ele>
        <time>2025-02-25T10:55:18Z</time>
      </trkpt>
      <trkpt lat="48.10708" lon="-3.59069">
        <ele>185.2</ele>
        <time>2025-02-25T10:55:19Z</time>
      </trkpt>
      <trkpt lat="48.10708" lon="-3.59069">
        <ele>185.2</ele>
        <time>2025-02-25T10:55:20Z</time>
      </trkpt>
      <trkpt lat="48.10708" lon="-3.59069">
        <ele>185.2</ele>
        <time>2025-02-25T10:55:21Z</time>
      </trkpt>
      <trkpt lat="48.10707" lon="-3.59069">
        <ele>185.1</ele>
        <time>2025-02-25T10:55:22Z</time>
      </trkpt>
      <trkpt lat="48.10707" lon="-3.59069">
        <ele>185.1</ele>
        <time>2025-02-25T10:55:23Z</time>
      </trkpt>
      <trkpt lat="48.10708" lon="-3.59069">
        <ele>185.2</ele>
        <time>2025-02-25T10:55:24Z</time>
      </trkpt>
      <trkpt lat="48.10707" lon="-3.59069">
        <ele>185.1</ele>
        <time>2025-02-25T10:55:25Z</time>
      </trkpt>
      <trkpt lat="48.10707" lon="-3.5907">
        <ele>185.1</ele>
        <time>2025-02-25T10:55:26Z</time>
      </trkpt>
      <trkpt lat="48.10706" lon="-3.5907">
        <ele>184.9</ele>
        <time>2025-02-25T10:55:27Z</time>
      </trkpt>
      <trkpt lat="48.10705" lon="-3.5907">
        <ele>184.8</ele>
        <time>2025-02-25T10:55:28Z</time>
      </trkpt>
      <trkpt lat="48.10704" lon="-3.59071">
        <ele>184.7</ele>
        <time>2025-02-25T10:55:29Z</time>
      </trkpt>
      <trkpt lat="48.10703" lon="-3.59072">
        <ele>184.5</ele>
        <time>2025-02-25T10:55:30Z</time>
      </trkpt>
      <trkpt lat="48.10703" lon="-3.59072">
        <ele>184.5</ele>
        <time>2025-02-25T10:55:31Z</time>
      </trkpt>
      <trkpt lat="48.10702" lon="-3.59073">
        <ele>184.4</ele>
        <time>2025-02-25T10:55:32Z</time>
      </trkpt>
      <trkpt lat="48.10701" lon="-3.59074">
        <ele>184.2</ele>
        <time>2025-02-25T10:55:33Z</time>
      </trkpt>
      <trkpt lat="48.10701" lon="-3.59075">
        <ele>184.2</ele>
        <time>2025-02-25T10:55:34Z</time>
      </trkpt>
      <trkpt lat="48.10701" lon="-3.59075">
        <ele>184.2</ele>
        <time>2025-02-25T10:55:35Z</time>
      </trkpt>
      <trkpt lat="48.10701" lon="-3.59075">
        <ele>184.2</ele>
        <time>2025-02-25T10:55:36Z</time>
      </trkpt>
      <trkpt lat="48.10701" lon="-3.59075">
        <ele>184.2</ele>
        <time>2025-02-25T10:55:37Z</time>
      </trkpt>
      <trkpt lat="48.10701" lon="-3.59075">
        <ele>184.2</ele>
        <time>2025-02-25T10:55:38Z</time>
      </trkpt>
      <trkpt lat="48.10701" lon="-3.59075">
        <ele>184.2</ele>
        <time>2025-02-25T10:55:39Z</time>
      </trkpt>
      <trkpt lat="48.10701" lon="-3.59075">
        <ele>184.2</ele>
        <time>2025-02-25T10:55:40Z</time>
      </trkpt>
      <trkpt lat="48.10701" lon="-3.59075">
        <ele>184.2</ele>
        <time>2025-02-25T10:55:41Z</time>
      </trkpt>
      <trkpt lat="48.10701" lon="-3.59075">
        <ele>184.2</ele>
        <time>2025-02-25T10:55:42Z</time>
      </trkpt>
      <trkpt lat="48.10701" lon="-3.59075">
        <ele>184.2</ele>
        <time>2025-02-25T10:55:43Z</time>
      </trkpt>
      <trkpt lat="48.10701" lon="-3.59075">
        <ele>184.2</ele>
        <time>2025-02-25T10:55:44Z</time>
      </trkpt>
      <trkpt lat="48.10701" lon="-3.59075">
        <ele>184.2</ele>
        <time>2025-02-25T10:55:45Z</time>
      </trkpt>
      <trkpt lat="48.10701" lon="-3.59075">
        <ele>184.2</ele>
        <time>2025-02-25T10:55:46Z</time>
      </trkpt>
      <trkpt lat="48.10701" lon="-3.59075">
        <ele>184.2</ele>
        <time>2025-02-25T10:55:47Z</time>
      </trkpt>
      <trkpt lat="48.10701" lon="-3.59075">
        <ele>184.2</ele>
        <time>2025-02-25T10:55:48Z</time>
      </trkpt>
      <trkpt lat="48.10701" lon="-3.59075">
        <ele>184.2</ele>
        <time>2025-02-25T10:55:49Z</time>
      </trkpt>
      <trkpt lat="48.10701" lon="-3.59075">
        <ele>184.2</ele>
        <time>2025-02-25T10:55:50Z</time>
      </trkpt>
      <trkpt lat="48.10701" lon="-3.59075">
        <ele>184.2</ele>
        <time>2025-02-25T10:55:51Z</time>
      </trkpt>
      <trkpt lat="48.10701" lon="-3.59075">
        <ele>184.2</ele>
        <time>2025-02-25T10:55:52Z</time>
      </trkpt>
      <trkpt lat="48.10701" lon="-3.59075">
        <ele>184.2</ele>
        <time>2025-02-25T10:55:53Z</time>
      </trkpt>
      <trkpt lat="48.10701" lon="-3.59075">
        <ele>184.2</ele>
        <time>2025-02-25T10:55:54Z</time>
      </trkpt>
      <trkpt lat="48.10701" lon="-3.59075">
        <ele>184.2</ele>
        <time>2025-02-25T10:55:55Z</time>
      </trkpt>
      <trkpt lat="48.10701" lon="-3.59075">
        <ele>184.2</ele>
        <time>2025-02-25T10:55:56Z</time>
      </trkpt>
      <trkpt lat="48.10701" lon="-3.59075">
        <ele>184.2</ele>
        <time>2025-02-25T10:55:57Z</time>
      </trkpt>
      <trkpt lat="48.10701" lon="-3.59075">
        <ele>184.2</ele>
        <time>2025-02-25T10:55:58Z</time>
      </trkpt>
      <trkpt lat="48.10701" lon="-3.59075">
        <ele>184.2</ele>
        <time>2025-02-25T10:55:59Z</time>
      </trkpt>
      <trkpt lat="48.10701" lon="-3.59075">
        <ele>184.2</ele>
        <time>2025-02-25T10:56:00Z</time>
      </trkpt>
      <trkpt lat="48.10701" lon="-3.59075">
        <ele>184.2</ele>
        <time>2025-02-25T10:56:01Z</time>
      </trkpt>
      <trkpt lat="48.10701" lon="-3.59075">
        <ele>184.2</ele>
        <time>2025-02-25T10:56:02Z</time>
      </trkpt>
      <trkpt lat="48.10701" lon="-3.59075">
        <ele>184.2</ele>
        <time>2025-02-25T10:56:03Z</time>
      </trkpt>
      <trkpt lat="48.10701" lon="-3.59075">
        <ele>184.2</ele>
        <time>2025-02-25T10:56:04Z</time>
      </trkpt>
      <trkpt lat="48.10701" lon="-3.59075">
        <ele>184.2</ele>
        <time>2025-02-25T10:56:05Z</time>
      </trkpt>
      <trkpt lat="48.10701" lon="-3.59075">
        <ele>184.2</ele>
        <time>2025-02-25T10:56:06Z</time>
      </trkpt>
      <trkpt lat="48.10701" lon="-3.59075">
        <ele>184.2</ele>
        <time>2025-02-25T10:56:07Z</time>
      </trkpt>
      <trkpt lat="48.10701" lon="-3.59075">
        <ele>184.2</ele>
        <time>2025-02-25T10:56:08Z</time>
      </trkpt>
      <trkpt lat="48.10701" lon="-3.59075">
        <ele>184.2</ele>
        <time>2025-02-25T10:56:09Z</time>
      </trkpt>
      <trkpt lat="48.10701" lon="-3.59075">
        <ele>184.2</ele>
        <time>2025-02-25T10:56:10Z</time>
      </trkpt>
      <trkpt lat="48.10701" lon="-3.59075">
        <ele>184.2</ele>
        <time>2025-02-25T10:56:11Z</time>
      </trkpt>
      <trkpt lat="48.10701" lon="-3.59075">
        <ele>184.2</ele>
        <time>2025-02-25T10:56:12Z</time>
      </trkpt>
      <trkpt lat="48.10701" lon="-3.59075">
        <ele>184.2</ele>
        <time>2025-02-25T10:56:13Z</time>
      </trkpt>
      <trkpt lat="48.107" lon="-3.59075">
        <ele>184</ele>
        <time>2025-02-25T10:56:14Z</time>
      </trkpt>
      <trkpt lat="48.107" lon="-3.59076">
        <ele>184</ele>
        <time>2025-02-25T10:56:15Z</time>
      </trkpt>
      <trkpt lat="48.107" lon="-3.59076">
        <ele>184</ele>
        <time>2025-02-25T10:56:16Z</time>
      </trkpt>
      <trkpt lat="48.10699" lon="-3.59077">
        <ele>183.8</ele>
        <time>2025-02-25T10:56:17Z</time>
      </trkpt>
      <trkpt lat="48.10698" lon="-3.59078">
        <ele>183.7</ele>
        <time>2025-02-25T10:56:18Z</time>
      </trkpt>
      <trkpt lat="48.10697" lon="-3.59079">
        <ele>183.5</ele>
        <time>2025-02-25T10:56:19Z</time>
      </trkpt>
      <trkpt lat="48.10697" lon="-3.5908">
        <ele>183.5</ele>
        <time>2025-02-25T10:56:20Z</time>
      </trkpt>
      <trkpt lat="48.10696" lon="-3.59081">
        <ele>183.3</ele>
        <time>2025-02-25T10:56:21Z</time>
      </trkpt>
      <trkpt lat="48.10696" lon="-3.59082">
        <ele>183.3</ele>
        <time>2025-02-25T10:56:22Z</time>
      </trkpt>
      <trkpt lat="48.10696" lon="-3.59083">
        <ele>183.2</ele>
        <time>2025-02-25T10:56:23Z</time>
      </trkpt>
      <trkpt lat="48.10696" lon="-3.59085">
        <ele>183.1</ele>
        <time>2025-02-25T10:56:24Z</time>
      </trkpt>
      <trkpt lat="48.10696" lon="-3.59087">
        <ele>183</ele>
        <time>2025-02-25T10:56:25Z</time>
      </trkpt>
      <trkpt lat="48.10696" lon="-3.59089">
        <ele>182.8</ele>
        <time>2025-02-25T10:56:26Z</time>
      </trkpt>
      <trkpt lat="48.10696" lon="-3.5909">
        <ele>182.8</ele>
        <time>2025-02-25T10:56:27Z</time>
      </trkpt>
      <trkpt lat="48.10697" lon="-3.59092">
        <ele>182.8</ele>
        <time>2025-02-25T10:56:28Z</time>
      </trkpt>
      <trkpt lat="48.10697" lon="-3.59094">
        <ele>182.6</ele>
        <time>2025-02-25T10:56:29Z</time>
      </trkpt>
      <trkpt lat="48.10697" lon="-3.59096">
        <ele>182.5</ele>
        <time>2025-02-25T10:56:30Z</time>
      </trkpt>
      <trkpt lat="48.10697" lon="-3.59098">
        <ele>182.4</ele>
        <time>2025-02-25T10:56:31Z</time>
      </trkpt>
      <trkpt lat="48.10697" lon="-3.591">
        <ele>182.2</ele>
        <time>2025-02-25T10:56:32Z</time>
      </trkpt>
      <trkpt lat="48.10696" lon="-3.59102">
        <ele>181.9</ele>
        <time>2025-02-25T10:56:33Z</time>
      </trkpt>
      <trkpt lat="48.10696" lon="-3.59103">
        <ele>181.8</ele>
        <time>2025-02-25T10:56:34Z</time>
      </trkpt>
      <trkpt lat="48.10697" lon="-3.59104">
        <ele>181.9</ele>
        <time>2025-02-25T10:56:35Z</time>
      </trkpt>
      <trkpt lat="48.10697" lon="-3.59105">
        <ele>181.9</ele>
        <time>2025-02-25T10:56:36Z</time>
      </trkpt>
      <trkpt lat="48.10697" lon="-3.59106">
        <ele>181.8</ele>
        <time>2025-02-25T10:56:37Z</time>
      </trkpt>
      <trkpt lat="48.10697" lon="-3.59108">
        <ele>181.7</ele>
        <time>2025-02-25T10:56:38Z</time>
      </trkpt>
      <trkpt lat="48.10697" lon="-3.59111">
        <ele>181.5</ele>
        <time>2025-02-25T10:56:39Z</time>
      </trkpt>
      <trkpt lat="48.10697" lon="-3.59113">
        <ele>181.4</ele>
        <time>2025-02-25T10:56:40Z</time>
      </trkpt>
      <trkpt lat="48.10697" lon="-3.59114">
        <ele>181.4</ele>
        <time>2025-02-25T10:56:41Z</time>
      </trkpt>
      <trkpt lat="48.10697" lon="-3.59116">
        <ele>181.4</ele>
        <time>2025-02-25T10:56:42Z</time>
      </trkpt>
      <trkpt lat="48.10697" lon="-3.59117">
        <ele>181.4</ele>
        <time>2025-02-25T10:56:43Z</time>
      </trkpt>
      <trkpt lat="48.10697" lon="-3.59118">
        <ele>181.4</ele>
        <time>2025-02-25T10:56:44Z</time>
      </trkpt>
      <trkpt lat="48.10697" lon="-3.59119">
        <ele>181.4</ele>
        <time>2025-02-25T10:56:45Z</time>
      </trkpt>
      <trkpt lat="48.10697" lon="-3.5912">
        <ele>181.4</ele>
        <time>2025-02-25T10:56:46Z</time>
      </trkpt>
      <trkpt lat="48.10697" lon="-3.59122">
        <ele>181.4</ele>
        <time>2025-02-25T10:56:47Z</time>
      </trkpt>
      <trkpt lat="48.10697" lon="-3.59123">
        <ele>181.4</ele>
        <time>2025-02-25T10:56:48Z</time>
      </trkpt>
      <trkpt lat="48.10697" lon="-3.59125">
        <ele>181.4</ele>
        <time>2025-02-25T10:56:49Z</time>
      </trkpt>
      <trkpt lat="48.10697" lon="-3.59126">
        <ele>181.4</ele>
        <time>2025-02-25T10:56:50Z</time>
      </trkpt>
      <trkpt lat="48.10697" lon="-3.59128">
        <ele>181.3</ele>
        <time>2025-02-25T10:56:51Z</time>
      </trkpt>
      <trkpt lat="48.10698" lon="-3.5913">
        <ele>181.5</ele>
        <time>2025-02-25T10:56:52Z</time>
      </trkpt>
      <trkpt lat="48.10698" lon="-3.59131">
        <ele>181.5</ele>
        <time>2025-02-25T10:56:53Z</time>
      </trkpt>
      <trkpt lat="48.10698" lon="-3.59133">
        <ele>181.4</ele>
        <time>2025-02-25T10:56:54Z</time>
      </trkpt>
      <trkpt lat="48.10698" lon="-3.59135">
        <ele>181.4</ele>
        <time>2025-02-25T10:56:55Z</time>
      </trkpt>
      <trkpt lat="48.10698" lon="-3.59136">
        <ele>181.4</ele>
        <time>2025-02-25T10:56:56Z</time>
      </trkpt>
      <trkpt lat="48.10698" lon="-3.59137">
        <ele>181.4</ele>
        <time>2025-02-25T10:56:57Z</time>
      </trkpt>
      <trkpt lat="48.10699" lon="-3.59139">
        <ele>181.5</ele>
        <time>2025-02-25T10:56:58Z</time>
      </trkpt>
      <trkpt lat="48.10699" lon="-3.5914">
        <ele>181.5</ele>
        <time>2025-02-25T10:56:59Z</time>
      </trkpt>
      <trkpt lat="48.107" lon="-3.59142">
        <ele>181.5</ele>
        <time>2025-02-25T10:57:00Z</time>
      </trkpt>
      <trkpt lat="48.107" lon="-3.59143">
        <ele>181.5</ele>
        <time>2025-02-25T10:57:01Z</time>
      </trkpt>
      <trkpt lat="48.10699" lon="-3.59145">
        <ele>181.3</ele>
        <time>2025-02-25T10:57:02Z</time>
      </trkpt>
      <trkpt lat="48.10699" lon="-3.59147">
        <ele>181.2</ele>
        <time>2025-02-25T10:57:03Z</time>
      </trkpt>
      <trkpt lat="48.107" lon="-3.59148">
        <ele>181.3</ele>
        <time>2025-02-25T10:57:04Z</time>
      </trkpt>
      <trkpt lat="48.107" lon="-3.5915">
        <ele>181.2</ele>
        <time>2025-02-25T10:57:05Z</time>
      </trkpt>
      <trkpt lat="48.107" lon="-3.59152">
        <ele>181.1</ele>
        <time>2025-02-25T10:57:06Z</time>
      </trkpt>
      <trkpt lat="48.10701" lon="-3.59153">
        <ele>181.2</ele>
        <time>2025-02-25T10:57:07Z</time>
      </trkpt>
      <trkpt lat="48.10702" lon="-3.59155">
        <ele>181.2</ele>
        <time>2025-02-25T10:57:08Z</time>
      </trkpt>
      <trkpt lat="48.10702" lon="-3.59156">
        <ele>181.2</ele>
        <time>2025-02-25T10:57:09Z</time>
      </trkpt>
      <trkpt lat="48.10703" lon="-3.59158">
        <ele>181.2</ele>
        <time>2025-02-25T10:57:10Z</time>
      </trkpt>
      <trkpt lat="48.10703" lon="-3.5916">
        <ele>181.2</ele>
        <time>2025-02-25T10:57:11Z</time>
      </trkpt>
      <trkpt lat="48.10704" lon="-3.59161">
        <ele>181.2</ele>
        <time>2025-02-25T10:57:12Z</time>
      </trkpt>
      <trkpt lat="48.10704" lon="-3.59163">
        <ele>181.2</ele>
        <time>2025-02-25T10:57:13Z</time>
      </trkpt>
      <trkpt lat="48.10705" lon="-3.59163">
        <ele>181.3</ele>
        <time>2025-02-25T10:57:14Z</time>
      </trkpt>
      <trkpt lat="48.10706" lon="-3.59165">
        <ele>181.3</ele>
        <time>2025-02-25T10:57:15Z</time>
      </trkpt>
      <trkpt lat="48.10706" lon="-3.59166">
        <ele>181.3</ele>
        <time>2025-02-25T10:57:16Z</time>
      </trkpt>
      <trkpt lat="48.10707" lon="-3.59167">
        <ele>181.3</ele>
        <time>2025-02-25T10:57:17Z</time>
      </trkpt>
      <trkpt lat="48.10709" lon="-3.59168">
        <ele>181.5</ele>
        <time>2025-02-25T10:57:18Z</time>
      </trkpt>
      <trkpt lat="48.1071" lon="-3.59168">
        <ele>181.6</ele>
        <time>2025-02-25T10:57:19Z</time>
      </trkpt>
      <trkpt lat="48.1071" lon="-3.59169">
        <ele>181.5</ele>
        <time>2025-02-25T10:57:20Z</time>
      </trkpt>
      <trkpt lat="48.10711" lon="-3.5917">
        <ele>181.5</ele>
        <time>2025-02-25T10:57:21Z</time>
      </trkpt>
      <trkpt lat="48.10712" lon="-3.5917">
        <ele>181.6</ele>
        <time>2025-02-25T10:57:22Z</time>
      </trkpt>
      <trkpt lat="48.10713" lon="-3.59169">
        <ele>181.8</ele>
        <time>2025-02-25T10:57:23Z</time>
      </trkpt>
      <trkpt lat="48.10714" lon="-3.59169">
        <ele>181.9</ele>
        <time>2025-02-25T10:57:24Z</time>
      </trkpt>
      <trkpt lat="48.10714" lon="-3.59169">
        <ele>181.9</ele>
        <time>2025-02-25T10:57:25Z</time>
      </trkpt>
      <trkpt lat="48.10715" lon="-3.59169">
        <ele>182</ele>
        <time>2025-02-25T10:57:26Z</time>
      </trkpt>
      <trkpt lat="48.10716" lon="-3.59169">
        <ele>182.1</ele>
        <time>2025-02-25T10:57:27Z</time>
      </trkpt>
      <trkpt lat="48.10717" lon="-3.59169">
        <ele>182.2</ele>
        <time>2025-02-25T10:57:28Z</time>
      </trkpt>
      <trkpt lat="48.10718" lon="-3.59169">
        <ele>182.3</ele>
        <time>2025-02-25T10:57:29Z</time>
      </trkpt>
      <trkpt lat="48.10719" lon="-3.59169">
        <ele>182.4</ele>
        <time>2025-02-25T10:57:30Z</time>
      </trkpt>
      <trkpt lat="48.1072" lon="-3.59169">
        <ele>182.5</ele>
        <time>2025-02-25T10:57:31Z</time>
      </trkpt>
      <trkpt lat="48.1072" lon="-3.5917">
        <ele>182.4</ele>
        <time>2025-02-25T10:57:32Z</time>
      </trkpt>
      <trkpt lat="48.10721" lon="-3.5917">
        <ele>182.5</ele>
        <time>2025-02-25T10:57:33Z</time>
      </trkpt>
      <trkpt lat="48.10722" lon="-3.5917">
        <ele>182.6</ele>
        <time>2025-02-25T10:57:34Z</time>
      </trkpt>
      <trkpt lat="48.10723" lon="-3.5917">
        <ele>182.7</ele>
        <time>2025-02-25T10:57:35Z</time>
      </trkpt>
      <trkpt lat="48.10723" lon="-3.59171">
        <ele>182.6</ele>
        <time>2025-02-25T10:57:36Z</time>
      </trkpt>
      <trkpt lat="48.10724" lon="-3.59171">
        <ele>182.6</ele>
        <time>2025-02-25T10:57:37Z</time>
      </trkpt>
      <trkpt lat="48.10725" lon="-3.59171">
        <ele>182.6</ele>
        <time>2025-02-25T10:57:38Z</time>
      </trkpt>
      <trkpt lat="48.10725" lon="-3.59172">
        <ele>182.5</ele>
        <time>2025-02-25T10:57:39Z</time>
      </trkpt>
      <trkpt lat="48.10726" lon="-3.59172">
        <ele>182.6</ele>
        <time>2025-02-25T10:57:40Z</time>
      </trkpt>
      <trkpt lat="48.10726" lon="-3.59173">
        <ele>182.5</ele>
        <time>2025-02-25T10:57:41Z</time>
      </trkpt>
      <trkpt lat="48.10727" lon="-3.59173">
        <ele>182.5</ele>
        <time>2025-02-25T10:57:42Z</time>
      </trkpt>
      <trkpt lat="48.10728" lon="-3.59174">
        <ele>182.4</ele>
        <time>2025-02-25T10:57:43Z</time>
      </trkpt>
      <trkpt lat="48.10728" lon="-3.59175">
        <ele>182.3</ele>
        <time>2025-02-25T10:57:44Z</time>
      </trkpt>
      <trkpt lat="48.10728" lon="-3.59176">
        <ele>182.2</ele>
        <time>2025-02-25T10:57:45Z</time>
      </trkpt>
      <trkpt lat="48.10729" lon="-3.59177">
        <ele>182.1</ele>
        <time>2025-02-25T10:57:46Z</time>
      </trkpt>
      <trkpt lat="48.10729" lon="-3.59179">
        <ele>181.9</ele>
        <time>2025-02-25T10:57:47Z</time>
      </trkpt>
      <trkpt lat="48.1073" lon="-3.5918">
        <ele>181.8</ele>
        <time>2025-02-25T10:57:48Z</time>
      </trkpt>
      <trkpt lat="48.1073" lon="-3.59181">
        <ele>181.7</ele>
        <time>2025-02-25T10:57:49Z</time>
      </trkpt>
      <trkpt lat="48.1073" lon="-3.59182">
        <ele>181.6</ele>
        <time>2025-02-25T10:57:50Z</time>
      </trkpt>
      <trkpt lat="48.10731" lon="-3.59183">
        <ele>181.6</ele>
        <time>2025-02-25T10:57:51Z</time>
      </trkpt>
      <trkpt lat="48.1073" lon="-3.59185">
        <ele>181.3</ele>
        <time>2025-02-25T10:57:52Z</time>
      </trkpt>
      <trkpt lat="48.1073" lon="-3.59186">
        <ele>181.2</ele>
        <time>2025-02-25T10:57:53Z</time>
      </trkpt>
      <trkpt lat="48.10731" lon="-3.59187">
        <ele>181.1</ele>
        <time>2025-02-25T10:57:54Z</time>
      </trkpt>
      <trkpt lat="48.10731" lon="-3.59187">
        <ele>181.1</ele>
        <time>2025-02-25T10:57:55Z</time>
      </trkpt>
      <trkpt lat="48.10731" lon="-3.59187">
        <ele>181.1</ele>
        <time>2025-02-25T10:57:56Z</time>
      </trkpt>
      <trkpt lat="48.10732" lon="-3.59187">
        <ele>181.2</ele>
        <time>2025-02-25T10:57:57Z</time>
      </trkpt>
      <trkpt lat="48.10732" lon="-3.59188">
        <ele>181</ele>
        <time>2025-02-25T10:57:58Z</time>
      </trkpt>
      <trkpt lat="48.10732" lon="-3.59187">
        <ele>181.2</ele>
        <time>2025-02-25T10:57:59Z</time>
      </trkpt>
      <trkpt lat="48.10732" lon="-3.59187">
        <ele>181.2</ele>
        <time>2025-02-25T10:58:00Z</time>
      </trkpt>
      <trkpt lat="48.10732" lon="-3.59187">
        <ele>181.2</ele>
        <time>2025-02-25T10:58:01Z</time>
      </trkpt>
      <trkpt lat="48.10732" lon="-3.59187">
        <ele>181.2</ele>
        <time>2025-02-25T10:58:02Z</time>
      </trkpt>
      <trkpt lat="48.10732" lon="-3.59187">
        <ele>181.2</ele>
        <time>2025-02-25T10:58:03Z</time>
      </trkpt>
      <trkpt lat="48.10732" lon="-3.59187">
        <ele>181.2</ele>
        <time>2025-02-25T10:58:04Z</time>
      </trkpt>
      <trkpt lat="48.10732" lon="-3.59187">
        <ele>181.2</ele>
        <time>2025-02-25T10:58:05Z</time>
      </trkpt>
      <trkpt lat="48.10732" lon="-3.59187">
        <ele>181.2</ele>
        <time>2025-02-25T10:58:06Z</time>
      </trkpt>
      <trkpt lat="48.10732" lon="-3.59187">
        <ele>181.2</ele>
        <time>2025-02-25T10:58:07Z</time>
      </trkpt>
      <trkpt lat="48.10732" lon="-3.59187">
        <ele>181.2</ele>
        <time>2025-02-25T10:58:08Z</time>
      </trkpt>
      <trkpt lat="48.10732" lon="-3.59187">
        <ele>181.2</ele>
        <time>2025-02-25T10:58:09Z</time>
      </trkpt>
      <trkpt lat="48.10732" lon="-3.59187">
        <ele>181.2</ele>
        <time>2025-02-25T10:58:10Z</time>
      </trkpt>
      <trkpt lat="48.10732" lon="-3.59187">
        <ele>181.2</ele>
        <time>2025-02-25T10:58:11Z</time>
      </trkpt>
      <trkpt lat="48.10732" lon="-3.59187">
        <ele>181.2</ele>
        <time>2025-02-25T10:58:12Z</time>
      </trkpt>
      <trkpt lat="48.10732" lon="-3.59187">
        <ele>181.2</ele>
        <time>2025-02-25T10:58:13Z</time>
      </trkpt>
      <trkpt lat="48.10732" lon="-3.59187">
        <ele>181.2</ele>
        <time>2025-02-25T10:58:14Z</time>
      </trkpt>
      <trkpt lat="48.10732" lon="-3.59187">
        <ele>181.2</ele>
        <time>2025-02-25T10:58:15Z</time>
      </trkpt>
      <trkpt lat="48.10732" lon="-3.59187">
        <ele>181.2</ele>
        <time>2025-02-25T10:58:16Z</time>
      </trkpt>
      <trkpt lat="48.10732" lon="-3.59187">
        <ele>181.2</ele>
        <time>2025-02-25T10:58:17Z</time>
      </trkpt>
      <trkpt lat="48.10732" lon="-3.59187">
        <ele>181.2</ele>
        <time>2025-02-25T10:58:18Z</time>
      </trkpt>
      <trkpt lat="48.10731" lon="-3.59187">
        <ele>181.1</ele>
        <time>2025-02-25T10:58:19Z</time>
      </trkpt>
      <trkpt lat="48.10731" lon="-3.59187">
        <ele>181.1</ele>
        <time>2025-02-25T10:58:20Z</time>
      </trkpt>
      <trkpt lat="48.10731" lon="-3.59187">
        <ele>181.1</ele>
        <time>2025-02-25T10:58:21Z</time>
      </trkpt>
      <trkpt lat="48.10731" lon="-3.59187">
        <ele>181.1</ele>
        <time>2025-02-25T10:58:22Z</time>
      </trkpt>
      <trkpt lat="48.10731" lon="-3.59187">
        <ele>181.1</ele>
        <time>2025-02-25T10:58:23Z</time>
      </trkpt>
      <trkpt lat="48.10731" lon="-3.59187">
        <ele>181.1</ele>
        <time>2025-02-25T10:58:24Z</time>
      </trkpt>
      <trkpt lat="48.10731" lon="-3.59187">
        <ele>181.1</ele>
        <time>2025-02-25T10:58:25Z</time>
      </trkpt>
      <trkpt lat="48.10731" lon="-3.59187">
        <ele>181.1</ele>
        <time>2025-02-25T10:58:26Z</time>
      </trkpt>
      <trkpt lat="48.10731" lon="-3.59187">
        <ele>181.1</ele>
        <time>2025-02-25T10:58:27Z</time>
      </trkpt>
      <trkpt lat="48.10731" lon="-3.59186">
        <ele>181.2</ele>
        <time>2025-02-25T10:58:28Z</time>
      </trkpt>
      <trkpt lat="48.10731" lon="-3.59186">
        <ele>181.2</ele>
        <time>2025-02-25T10:58:29Z</time>
      </trkpt>
      <trkpt lat="48.10731" lon="-3.59186">
        <ele>181.2</ele>
        <time>2025-02-25T10:58:30Z</time>
      </trkpt>
      <trkpt lat="48.10731" lon="-3.59186">
        <ele>181.2</ele>
        <time>2025-02-25T10:58:31Z</time>
      </trkpt>
      <trkpt lat="48.10731" lon="-3.59186">
        <ele>181.2</ele>
        <time>2025-02-25T10:58:32Z</time>
      </trkpt>
      <trkpt lat="48.10731" lon="-3.59186">
        <ele>181.2</ele>
        <time>2025-02-25T10:58:33Z</time>
      </trkpt>
      <trkpt lat="48.10731" lon="-3.59186">
        <ele>181.2</ele>
        <time>2025-02-25T10:58:34Z</time>
      </trkpt>
      <trkpt lat="48.10731" lon="-3.59186">
        <ele>181.2</ele>
        <time>2025-02-25T10:58:35Z</time>
      </trkpt>
      <trkpt lat="48.10731" lon="-3.59186">
        <ele>181.2</ele>
        <time>2025-02-25T10:58:36Z</time>
      </trkpt>
      <trkpt lat="48.1073" lon="-3.59186">
        <ele>181.2</ele>
        <time>2025-02-25T10:58:37Z</time>
      </trkpt>
      <trkpt lat="48.1073" lon="-3.59186">
        <ele>181.2</ele>
        <time>2025-02-25T10:58:38Z</time>
      </trkpt>
      <trkpt lat="48.1073" lon="-3.59186">
        <ele>181.2</ele>
        <time>2025-02-25T10:58:39Z</time>
      </trkpt>
      <trkpt lat="48.1073" lon="-3.59186">
        <ele>181.2</ele>
        <time>2025-02-25T10:58:40Z</time>
      </trkpt>
      <trkpt lat="48.1073" lon="-3.59186">
        <ele>181.2</ele>
        <time>2025-02-25T10:58:41Z</time>
      </trkpt>
      <trkpt lat="48.1073" lon="-3.59186">
        <ele>181.2</ele>
        <time>2025-02-25T10:58:42Z</time>
      </trkpt>
      <trkpt lat="48.1073" lon="-3.59186">
        <ele>181.2</ele>
        <time>2025-02-25T10:58:43Z</time>
      </trkpt>
      <trkpt lat="48.1073" lon="-3.59186">
        <ele>181.2</ele>
        <time>2025-02-25T10:58:44Z</time>
      </trkpt>
      <trkpt lat="48.1073" lon="-3.59186">
        <ele>181.2</ele>
        <time>2025-02-25T10:58:45Z</time>
      </trkpt>
      <trkpt lat="48.1073" lon="-3.59186">
        <ele>181.2</ele>
        <time>2025-02-25T10:58:46Z</time>
      </trkpt>
      <trkpt lat="48.1073" lon="-3.59186">
        <ele>181.2</ele>
        <time>2025-02-25T10:58:47Z</time>
      </trkpt>
      <trkpt lat="48.1073" lon="-3.59186">
        <ele>181.2</ele>
        <time>2025-02-25T10:58:48Z</time>
      </trkpt>
      <trkpt lat="48.1073" lon="-3.59186">
        <ele>181.2</ele>
        <time>2025-02-25T10:58:49Z</time>
      </trkpt>
      <trkpt lat="48.1073" lon="-3.59186">
        <ele>181.2</ele>
        <time>2025-02-25T10:58:50Z</time>
      </trkpt>
      <trkpt lat="48.1073" lon="-3.59186">
        <ele>181.2</ele>
        <time>2025-02-25T10:58:51Z</time>
      </trkpt>
      <trkpt lat="48.1073" lon="-3.59186">
        <ele>181.2</ele>
        <time>2025-02-25T10:58:52Z</time>
      </trkpt>
      <trkpt lat="48.1073" lon="-3.59187">
        <ele>181.1</ele>
        <time>2025-02-25T10:58:53Z</time>
      </trkpt>
      <trkpt lat="48.1073" lon="-3.59186">
        <ele>181.2</ele>
        <time>2025-02-25T10:58:54Z</time>
      </trkpt>
      <trkpt lat="48.1073" lon="-3.59186">
        <ele>181.2</ele>
        <time>2025-02-25T10:58:55Z</time>
      </trkpt>
      <trkpt lat="48.1073" lon="-3.59186">
        <ele>181.2</ele>
        <time>2025-02-25T10:58:56Z</time>
      </trkpt>
      <trkpt lat="48.1073" lon="-3.59186">
        <ele>181.2</ele>
        <time>2025-02-25T10:58:57Z</time>
      </trkpt>
      <trkpt lat="48.1073" lon="-3.59186">
        <ele>181.2</ele>
        <time>2025-02-25T10:58:58Z</time>
      </trkpt>
      <trkpt lat="48.1073" lon="-3.59187">
        <ele>181.1</ele>
        <time>2025-02-25T10:58:59Z</time>
      </trkpt>
      <trkpt lat="48.1073" lon="-3.59186">
        <ele>181.2</ele>
        <time>2025-02-25T10:59:00Z</time>
      </trkpt>
      <trkpt lat="48.1073" lon="-3.59187">
        <ele>181.1</ele>
        <time>2025-02-25T10:59:01Z</time>
      </trkpt>
      <trkpt lat="48.1073" lon="-3.59186">
        <ele>181.2</ele>
        <time>2025-02-25T10:59:02Z</time>
      </trkpt>
      <trkpt lat="48.10729" lon="-3.59186">
        <ele>181.2</ele>
        <time>2025-02-25T10:59:03Z</time>
      </trkpt>
      <trkpt lat="48.10729" lon="-3.59186">
        <ele>181.2</ele>
        <time>2025-02-25T10:59:04Z</time>
      </trkpt>
      <trkpt lat="48.10729" lon="-3.59186">
        <ele>181.2</ele>
        <time>2025-02-25T10:59:05Z</time>
      </trkpt>
      <trkpt lat="48.10729" lon="-3.59186">
        <ele>181.2</ele>
        <time>2025-02-25T10:59:06Z</time>
      </trkpt>
      <trkpt lat="48.10729" lon="-3.59186">
        <ele>181.2</ele>
        <time>2025-02-25T10:59:07Z</time>
      </trkpt>
      <trkpt lat="48.1073" lon="-3.59186">
        <ele>181.2</ele>
        <time>2025-02-25T10:59:08Z</time>
      </trkpt>
      <trkpt lat="48.1073" lon="-3.59186">
        <ele>181.2</ele>
        <time>2025-02-25T10:59:09Z</time>
      </trkpt>
      <trkpt lat="48.1073" lon="-3.59186">
        <ele>181.2</ele>
        <time>2025-02-25T10:59:10Z</time>
      </trkpt>
      <trkpt lat="48.10729" lon="-3.59186">
        <ele>181.2</ele>
        <time>2025-02-25T10:59:11Z</time>
      </trkpt>
      <trkpt lat="48.10729" lon="-3.59186">
        <ele>181.2</ele>
        <time>2025-02-25T10:59:12Z</time>
      </trkpt>
      <trkpt lat="48.10729" lon="-3.59186">
        <ele>181.2</ele>
        <time>2025-02-25T10:59:13Z</time>
      </trkpt>
      <trkpt lat="48.10729" lon="-3.59186">
        <ele>181.2</ele>
        <time>2025-02-25T10:59:14Z</time>
      </trkpt>
      <trkpt lat="48.10729" lon="-3.59186">
        <ele>181.2</ele>
        <time>2025-02-25T10:59:15Z</time>
      </trkpt>
      <trkpt lat="48.10729" lon="-3.59186">
        <ele>181.2</ele>
        <time>2025-02-25T10:59:16Z</time>
      </trkpt>
      <trkpt lat="48.10729" lon="-3.59186">
        <ele>181.2</ele>
        <time>2025-02-25T10:59:17Z</time>
      </trkpt>
      <trkpt lat="48.10729" lon="-3.59186">
        <ele>181.2</ele>
        <time>2025-02-25T10:59:18Z</time>
      </trkpt>
      <trkpt lat="48.10729" lon="-3.59186">
        <ele>181.2</ele>
        <time>2025-02-25T10:59:19Z</time>
      </trkpt>
      <trkpt lat="48.10729" lon="-3.59186">
        <ele>181.2</ele>
        <time>2025-02-25T10:59:20Z</time>
      </trkpt>
      <trkpt lat="48.10729" lon="-3.59186">
        <ele>181.2</ele>
        <time>2025-02-25T10:59:21Z</time>
      </trkpt>
      <trkpt lat="48.10729" lon="-3.59186">
        <ele>181.2</ele>
        <time>2025-02-25T10:59:22Z</time>
      </trkpt>
      <trkpt lat="48.10729" lon="-3.59186">
        <ele>181.2</ele>
        <time>2025-02-25T10:59:23Z</time>
      </trkpt>
      <trkpt lat="48.10729" lon="-3.59186">
        <ele>181.2</ele>
        <time>2025-02-25T10:59:24Z</time>
      </trkpt>
      <trkpt lat="48.10729" lon="-3.59186">
        <ele>181.2</ele>
        <time>2025-02-25T10:59:25Z</time>
      </trkpt>
      <trkpt lat="48.10729" lon="-3.59186">
        <ele>181.2</ele>
        <time>2025-02-25T10:59:26Z</time>
      </trkpt>
      <trkpt lat="48.10729" lon="-3.59186">
        <ele>181.2</ele>
        <time>2025-02-25T10:59:27Z</time>
      </trkpt>
      <trkpt lat="48.10729" lon="-3.59185">
        <ele>181.3</ele>
        <time>2025-02-25T10:59:28Z</time>
      </trkpt>
      <trkpt lat="48.10729" lon="-3.59185">
        <ele>181.3</ele>
        <time>2025-02-25T10:59:29Z</time>
      </trkpt>
      <trkpt lat="48.10729" lon="-3.59185">
        <ele>181.3</ele>
        <time>2025-02-25T10:59:30Z</time>
      </trkpt>
      <trkpt lat="48.10729" lon="-3.59185">
        <ele>181.3</ele>
        <time>2025-02-25T10:59:31Z</time>
      </trkpt>
      <trkpt lat="48.10729" lon="-3.59185">
        <ele>181.3</ele>
        <time>2025-02-25T10:59:32Z</time>
      </trkpt>
      <trkpt lat="48.10729" lon="-3.59185">
        <ele>181.3</ele>
        <time>2025-02-25T10:59:33Z</time>
      </trkpt>
      <trkpt lat="48.10729" lon="-3.59185">
        <ele>181.3</ele>
        <time>2025-02-25T10:59:34Z</time>
      </trkpt>
      <trkpt lat="48.10729" lon="-3.59185">
        <ele>181.3</ele>
        <time>2025-02-25T10:59:35Z</time>
      </trkpt>
      <trkpt lat="48.10729" lon="-3.59185">
        <ele>181.3</ele>
        <time>2025-02-25T10:59:36Z</time>
      </trkpt>
      <trkpt lat="48.10729" lon="-3.59185">
        <ele>181.3</ele>
        <time>2025-02-25T10:59:37Z</time>
      </trkpt>
      <trkpt lat="48.10728" lon="-3.59185">
        <ele>181.2</ele>
        <time>2025-02-25T10:59:38Z</time>
      </trkpt>
      <trkpt lat="48.10728" lon="-3.59185">
        <ele>181.2</ele>
        <time>2025-02-25T10:59:39Z</time>
      </trkpt>
      <trkpt lat="48.10728" lon="-3.59185">
        <ele>181.2</ele>
        <time>2025-02-25T10:59:40Z</time>
      </trkpt>
      <trkpt lat="48.10728" lon="-3.59185">
        <ele>181.2</ele>
        <time>2025-02-25T10:59:41Z</time>
      </trkpt>
      <trkpt lat="48.10728" lon="-3.59185">
        <ele>181.2</ele>
        <time>2025-02-25T10:59:42Z</time>
      </trkpt>
      <trkpt lat="48.10728" lon="-3.59185">
        <ele>181.2</ele>
        <time>2025-02-25T10:59:43Z</time>
      </trkpt>
      <trkpt lat="48.10728" lon="-3.59185">
        <ele>181.2</ele>
        <time>2025-02-25T10:59:44Z</time>
      </trkpt>
      <trkpt lat="48.10728" lon="-3.59185">
        <ele>181.2</ele>
        <time>2025-02-25T10:59:45Z</time>
      </trkpt>
      <trkpt lat="48.10728" lon="-3.59185">
        <ele>181.2</ele>
        <time>2025-02-25T10:59:46Z</time>
      </trkpt>
      <trkpt lat="48.10728" lon="-3.59185">
        <ele>181.2</ele>
        <time>2025-02-25T10:59:47Z</time>
      </trkpt>
      <trkpt lat="48.10728" lon="-3.59185">
        <ele>181.2</ele>
        <time>2025-02-25T10:59:48Z</time>
      </trkpt>
      <trkpt lat="48.10728" lon="-3.59185">
        <ele>181.2</ele>
        <time>2025-02-25T10:59:49Z</time>
      </trkpt>
      <trkpt lat="48.10728" lon="-3.59185">
        <ele>181.2</ele>
        <time>2025-02-25T10:59:50Z</time>
      </trkpt>
      <trkpt lat="48.10728" lon="-3.59185">
        <ele>181.2</ele>
        <time>2025-02-25T10:59:51Z</time>
      </trkpt>
      <trkpt lat="48.10728" lon="-3.59185">
        <ele>181.2</ele>
        <time>2025-02-25T10:59:52Z</time>
      </trkpt>
      <trkpt lat="48.10728" lon="-3.59185">
        <ele>181.2</ele>
        <time>2025-02-25T10:59:53Z</time>
      </trkpt>
      <trkpt lat="48.10728" lon="-3.59185">
        <ele>181.2</ele>
        <time>2025-02-25T10:59:54Z</time>
      </trkpt>
      <trkpt lat="48.10727" lon="-3.59184">
        <ele>181.3</ele>
        <time>2025-02-25T10:59:55Z</time>
      </trkpt>
      <trkpt lat="48.10727" lon="-3.59184">
        <ele>181.3</ele>
        <time>2025-02-25T10:59:56Z</time>
      </trkpt>
      <trkpt lat="48.10727" lon="-3.59184">
        <ele>181.3</ele>
        <time>2025-02-25T10:59:57Z</time>
      </trkpt>
      <trkpt lat="48.10727" lon="-3.59184">
        <ele>181.3</ele>
        <time>2025-02-25T10:59:58Z</time>
      </trkpt>
      <trkpt lat="48.10727" lon="-3.59184">
        <ele>181.3</ele>
        <time>2025-02-25T10:59:59Z</time>
      </trkpt>
      <trkpt lat="48.10727" lon="-3.59184">
        <ele>181.3</ele>
        <time>2025-02-25T11:00:00Z</time>
      </trkpt>
      <trkpt lat="48.10727" lon="-3.59184">
        <ele>181.3</ele>
        <time>2025-02-25T11:00:01Z</time>
      </trkpt>
      <trkpt lat="48.10728" lon="-3.59184">
        <ele>181.3</ele>
        <time>2025-02-25T11:00:02Z</time>
      </trkpt>
      <trkpt lat="48.10728" lon="-3.59184">
        <ele>181.3</ele>
        <time>2025-02-25T11:00:03Z</time>
      </trkpt>
      <trkpt lat="48.10728" lon="-3.59184">
        <ele>181.3</ele>
        <time>2025-02-25T11:00:04Z</time>
      </trkpt>
      <trkpt lat="48.10728" lon="-3.59184">
        <ele>181.3</ele>
        <time>2025-02-25T11:00:05Z</time>
      </trkpt>
      <trkpt lat="48.10728" lon="-3.59184">
        <ele>181.3</ele>
        <time>2025-02-25T11:00:06Z</time>
      </trkpt>
      <trkpt lat="48.10728" lon="-3.59184">
        <ele>181.3</ele>
        <time>2025-02-25T11:00:07Z</time>
      </trkpt>
      <trkpt lat="48.10728" lon="-3.59184">
        <ele>181.3</ele>
        <time>2025-02-25T11:00:08Z</time>
      </trkpt>
      <trkpt lat="48.10728" lon="-3.59184">
        <ele>181.3</ele>
        <time>2025-02-25T11:00:09Z</time>
      </trkpt>
      <trkpt lat="48.10728" lon="-3.59184">
        <ele>181.3</ele>
        <time>2025-02-25T11:00:10Z</time>
      </trkpt>
      <trkpt lat="48.10728" lon="-3.59184">
        <ele>181.3</ele>
        <time>2025-02-25T11:00:11Z</time>
      </trkpt>
      <trkpt lat="48.10728" lon="-3.59184">
        <ele>181.3</ele>
        <time>2025-02-25T11:00:12Z</time>
      </trkpt>
      <trkpt lat="48.10728" lon="-3.59184">
        <ele>181.3</ele>
        <time>2025-02-25T11:00:13Z</time>
      </trkpt>
      <trkpt lat="48.10728" lon="-3.59184">
        <ele>181.3</ele>
        <time>2025-02-25T11:00:14Z</time>
      </trkpt>
      <trkpt lat="48.10728" lon="-3.59184">
        <ele>181.3</ele>
        <time>2025-02-25T11:00:15Z</time>
      </trkpt>
      <trkpt lat="48.10728" lon="-3.59184">
        <ele>181.3</ele>
        <time>2025-02-25T11:00:16Z</time>
      </trkpt>
      <trkpt lat="48.10728" lon="-3.59184">
        <ele>181.3</ele>
        <time>2025-02-25T11:00:17Z</time>
      </trkpt>
      <trkpt lat="48.10728" lon="-3.59184">
        <ele>181.3</ele>
        <time>2025-02-25T11:00:18Z</time>
      </trkpt>
      <trkpt lat="48.10728" lon="-3.59184">
        <ele>181.3</ele>
        <time>2025-02-25T11:00:19Z</time>
      </trkpt>
      <trkpt lat="48.10728" lon="-3.59184">
        <ele>181.3</ele>
        <time>2025-02-25T11:00:20Z</time>
      </trkpt>
      <trkpt lat="48.10728" lon="-3.59184">
        <ele>181.3</ele>
        <time>2025-02-25T11:00:21Z</time>
      </trkpt>
      <trkpt lat="48.10728" lon="-3.59184">
        <ele>181.3</ele>
        <time>2025-02-25T11:00:22Z</time>
      </trkpt>
      <trkpt lat="48.10728" lon="-3.59184">
        <ele>181.3</ele>
        <time>2025-02-25T11:00:23Z</time>
      </trkpt>
      <trkpt lat="48.10728" lon="-3.59184">
        <ele>181.3</ele>
        <time>2025-02-25T11:00:24Z</time>
      </trkpt>
      <trkpt lat="48.10728" lon="-3.59184">
        <ele>181.3</ele>
        <time>2025-02-25T11:00:25Z</time>
      </trkpt>
      <trkpt lat="48.10728" lon="-3.59184">
        <ele>181.3</ele>
        <time>2025-02-25T11:00:26Z</time>
      </trkpt>
      <trkpt lat="48.10728" lon="-3.59184">
        <ele>181.3</ele>
        <time>2025-02-25T11:00:27Z</time>
      </trkpt>
      <trkpt lat="48.10728" lon="-3.59184">
        <ele>181.3</ele>
        <time>2025-02-25T11:00:28Z</time>
      </trkpt>
      <trkpt lat="48.10728" lon="-3.59184">
        <ele>181.3</ele>
        <time>2025-02-25T11:00:29Z</time>
      </trkpt>
      <trkpt lat="48.10728" lon="-3.59184">
        <ele>181.3</ele>
        <time>2025-02-25T11:00:30Z</time>
      </trkpt>
      <trkpt lat="48.10728" lon="-3.59184">
        <ele>181.3</ele>
        <time>2025-02-25T11:00:31Z</time>
      </trkpt>
      <trkpt lat="48.10728" lon="-3.59184">
        <ele>181.3</ele>
        <time>2025-02-25T11:00:32Z</time>
      </trkpt>
      <trkpt lat="48.10727" lon="-3.59184">
        <ele>181.3</ele>
        <time>2025-02-25T11:00:33Z</time>
      </trkpt>
      <trkpt lat="48.10727" lon="-3.59184">
        <ele>181.3</ele>
        <time>2025-02-25T11:00:34Z</time>
      </trkpt>
      <trkpt lat="48.10727" lon="-3.59184">
        <ele>181.3</ele>
        <time>2025-02-25T11:00:35Z</time>
      </trkpt>
      <trkpt lat="48.10727" lon="-3.59184">
        <ele>181.3</ele>
        <time>2025-02-25T11:00:36Z</time>
      </trkpt>
      <trkpt lat="48.10727" lon="-3.59184">
        <ele>181.3</ele>
        <time>2025-02-25T11:00:37Z</time>
      </trkpt>
      <trkpt lat="48.10727" lon="-3.59184">
        <ele>181.3</ele>
        <time>2025-02-25T11:00:38Z</time>
      </trkpt>
      <trkpt lat="48.10727" lon="-3.59184">
        <ele>181.3</ele>
        <time>2025-02-25T11:00:39Z</time>
      </trkpt>
      <trkpt lat="48.10727" lon="-3.59184">
        <ele>181.3</ele>
        <time>2025-02-25T11:00:40Z</time>
      </trkpt>
      <trkpt lat="48.10727" lon="-3.59184">
        <ele>181.3</ele>
        <time>2025-02-25T11:00:41Z</time>
      </trkpt>
      <trkpt lat="48.10727" lon="-3.59184">
        <ele>181.3</ele>
        <time>2025-02-25T11:00:42Z</time>
      </trkpt>
      <trkpt lat="48.10727" lon="-3.59184">
        <ele>181.3</ele>
        <time>2025-02-25T11:00:43Z</time>
      </trkpt>
      <trkpt lat="48.10727" lon="-3.59184">
        <ele>181.3</ele>
        <time>2025-02-25T11:00:44Z</time>
      </trkpt>
      <trkpt lat="48.10727" lon="-3.59184">
        <ele>181.3</ele>
        <time>2025-02-25T11:00:45Z</time>
      </trkpt>
      <trkpt lat="48.10727" lon="-3.59184">
        <ele>181.3</ele>
        <time>2025-02-25T11:00:46Z</time>
      </trkpt>
      <trkpt lat="48.10727" lon="-3.59184">
        <ele>181.3</ele>
        <time>2025-02-25T11:00:47Z</time>
      </trkpt>
      <trkpt lat="48.10727" lon="-3.59184">
        <ele>181.3</ele>
        <time>2025-02-25T11:00:48Z</time>
      </trkpt>
      <trkpt lat="48.10727" lon="-3.59184">
        <ele>181.3</ele>
        <time>2025-02-25T11:00:49Z</time>
      </trkpt>
      <trkpt lat="48.10727" lon="-3.59184">
        <ele>181.3</ele>
        <time>2025-02-25T11:00:50Z</time>
      </trkpt>
      <trkpt lat="48.10727" lon="-3.59184">
        <ele>181.3</ele>
        <time>2025-02-25T11:00:51Z</time>
      </trkpt>
      <trkpt lat="48.10727" lon="-3.59185">
        <ele>181.2</ele>
        <time>2025-02-25T11:00:52Z</time>
      </trkpt>
      <trkpt lat="48.10727" lon="-3.59185">
        <ele>181.2</ele>
        <time>2025-02-25T11:00:53Z</time>
      </trkpt>
      <trkpt lat="48.10727" lon="-3.59185">
        <ele>181.2</ele>
        <time>2025-02-25T11:00:54Z</time>
      </trkpt>
      <trkpt lat="48.10727" lon="-3.59185">
        <ele>181.2</ele>
        <time>2025-02-25T11:00:55Z</time>
      </trkpt>
      <trkpt lat="48.10727" lon="-3.59185">
        <ele>181.2</ele>
        <time>2025-02-25T11:00:56Z</time>
      </trkpt>
      <trkpt lat="48.10727" lon="-3.59185">
        <ele>181.2</ele>
        <time>2025-02-25T11:00:57Z</time>
      </trkpt>
      <trkpt lat="48.10727" lon="-3.59185">
        <ele>181.2</ele>
        <time>2025-02-25T11:00:58Z</time>
      </trkpt>
      <trkpt lat="48.10727" lon="-3.59185">
        <ele>181.2</ele>
        <time>2025-02-25T11:00:59Z</time>
      </trkpt>
      <trkpt lat="48.10727" lon="-3.59185">
        <ele>181.2</ele>
        <time>2025-02-25T11:01:00Z</time>
      </trkpt>
      <trkpt lat="48.10727" lon="-3.59185">
        <ele>181.2</ele>
        <time>2025-02-25T11:01:01Z</time>
      </trkpt>
      <trkpt lat="48.10727" lon="-3.59185">
        <ele>181.2</ele>
        <time>2025-02-25T11:01:02Z</time>
      </trkpt>
      <trkpt lat="48.10727" lon="-3.59185">
        <ele>181.2</ele>
        <time>2025-02-25T11:01:03Z</time>
      </trkpt>
      <trkpt lat="48.10727" lon="-3.59185">
        <ele>181.2</ele>
        <time>2025-02-25T11:01:04Z</time>
      </trkpt>
      <trkpt lat="48.10727" lon="-3.59185">
        <ele>181.2</ele>
        <time>2025-02-25T11:01:05Z</time>
      </trkpt>
      <trkpt lat="48.10727" lon="-3.59185">
        <ele>181.2</ele>
        <time>2025-02-25T11:01:06Z</time>
      </trkpt>
      <trkpt lat="48.10727" lon="-3.59185">
        <ele>181.2</ele>
        <time>2025-02-25T11:01:07Z</time>
      </trkpt>
      <trkpt lat="48.10727" lon="-3.59184">
        <ele>181.3</ele>
        <time>2025-02-25T11:01:08Z</time>
      </trkpt>
      <trkpt lat="48.10727" lon="-3.59184">
        <ele>181.3</ele>
        <time>2025-02-25T11:01:09Z</time>
      </trkpt>
      <trkpt lat="48.10727" lon="-3.59184">
        <ele>181.3</ele>
        <time>2025-02-25T11:01:10Z</time>
      </trkpt>
      <trkpt lat="48.10727" lon="-3.59184">
        <ele>181.3</ele>
        <time>2025-02-25T11:01:11Z</time>
      </trkpt>
      <trkpt lat="48.10727" lon="-3.59184">
        <ele>181.3</ele>
        <time>2025-02-25T11:01:12Z</time>
      </trkpt>
      <trkpt lat="48.10727" lon="-3.59184">
        <ele>181.3</ele>
        <time>2025-02-25T11:01:13Z</time>
      </trkpt>
      <trkpt lat="48.10727" lon="-3.59184">
        <ele>181.3</ele>
        <time>2025-02-25T11:01:14Z</time>
      </trkpt>
      <trkpt lat="48.10727" lon="-3.59184">
        <ele>181.3</ele>
        <time>2025-02-25T11:01:15Z</time>
      </trkpt>
      <trkpt lat="48.10727" lon="-3.59184">
        <ele>181.3</ele>
        <time>2025-02-25T11:01:16Z</time>
      </trkpt>
      <trkpt lat="48.10727" lon="-3.59184">
        <ele>181.3</ele>
        <time>2025-02-25T11:01:17Z</time>
      </trkpt>
      <trkpt lat="48.10727" lon="-3.59184">
        <ele>181.3</ele>
        <time>2025-02-25T11:01:18Z</time>
      </trkpt>
      <trkpt lat="48.10727" lon="-3.59184">
        <ele>181.3</ele>
        <time>2025-02-25T11:01:19Z</time>
      </trkpt>
      <trkpt lat="48.10727" lon="-3.59184">
        <ele>181.3</ele>
        <time>2025-02-25T11:01:20Z</time>
      </trkpt>
      <trkpt lat="48.10727" lon="-3.59184">
        <ele>181.3</ele>
        <time>2025-02-25T11:01:21Z</time>
      </trkpt>
      <trkpt lat="48.10727" lon="-3.59184">
        <ele>181.3</ele>
        <time>2025-02-25T11:01:22Z</time>
      </trkpt>
      <trkpt lat="48.10727" lon="-3.59184">
        <ele>181.3</ele>
        <time>2025-02-25T11:01:23Z</time>
      </trkpt>
      <trkpt lat="48.10727" lon="-3.59184">
        <ele>181.3</ele>
        <time>2025-02-25T11:01:24Z</time>
      </trkpt>
      <trkpt lat="48.10727" lon="-3.59184">
        <ele>181.3</ele>
        <time>2025-02-25T11:01:25Z</time>
      </trkpt>
      <trkpt lat="48.10727" lon="-3.59184">
        <ele>181.3</ele>
        <time>2025-02-25T11:01:26Z</time>
      </trkpt>
      <trkpt lat="48.10727" lon="-3.59184">
        <ele>181.3</ele>
        <time>2025-02-25T11:01:27Z</time>
      </trkpt>
      <trkpt lat="48.10727" lon="-3.59184">
        <ele>181.3</ele>
        <time>2025-02-25T11:01:28Z</time>
      </trkpt>
      <trkpt lat="48.10727" lon="-3.59184">
        <ele>181.3</ele>
        <time>2025-02-25T11:01:29Z</time>
      </trkpt>
      <trkpt lat="48.10727" lon="-3.59184">
        <ele>181.3</ele>
        <time>2025-02-25T11:01:30Z</time>
      </trkpt>
      <trkpt lat="48.10727" lon="-3.59184">
        <ele>181.3</ele>
        <time>2025-02-25T11:01:31Z</time>
      </trkpt>
      <trkpt lat="48.10727" lon="-3.59185">
        <ele>181.2</ele>
        <time>2025-02-25T11:01:32Z</time>
      </trkpt>
      <trkpt lat="48.10727" lon="-3.59185">
        <ele>181.2</ele>
        <time>2025-02-25T11:01:33Z</time>
      </trkpt>
      <trkpt lat="48.10727" lon="-3.59185">
        <ele>181.2</ele>
        <time>2025-02-25T11:01:34Z</time>
      </trkpt>
      <trkpt lat="48.10727" lon="-3.59185">
        <ele>181.2</ele>
        <time>2025-02-25T11:01:35Z</time>
      </trkpt>
      <trkpt lat="48.10727" lon="-3.59185">
        <ele>181.2</ele>
        <time>2025-02-25T11:01:36Z</time>
      </trkpt>
      <trkpt lat="48.10727" lon="-3.59185">
        <ele>181.2</ele>
        <time>2025-02-25T11:01:37Z</time>
      </trkpt>
      <trkpt lat="48.10727" lon="-3.59185">
        <ele>181.2</ele>
        <time>2025-02-25T11:01:38Z</time>
      </trkpt>
      <trkpt lat="48.10727" lon="-3.59185">
        <ele>181.2</ele>
        <time>2025-02-25T11:01:39Z</time>
      </trkpt>
      <trkpt lat="48.10727" lon="-3.59185">
        <ele>181.2</ele>
        <time>2025-02-25T11:01:40Z</time>
      </trkpt>
      <trkpt lat="48.10727" lon="-3.59185">
        <ele>181.2</ele>
        <time>2025-02-25T11:01:41Z</time>
      </trkpt>
      <trkpt lat="48.10727" lon="-3.59185">
        <ele>181.2</ele>
        <time>2025-02-25T11:01:42Z</time>
      </trkpt>
      <trkpt lat="48.10727" lon="-3.59185">
        <ele>181.2</ele>
        <time>2025-02-25T11:01:43Z</time>
      </trkpt>
      <trkpt lat="48.10727" lon="-3.59185">
        <ele>181.2</ele>
        <time>2025-02-25T11:01:44Z</time>
      </trkpt>
      <trkpt lat="48.10727" lon="-3.59185">
        <ele>181.2</ele>
        <time>2025-02-25T11:01:45Z</time>
      </trkpt>
      <trkpt lat="48.10727" lon="-3.59185">
        <ele>181.2</ele>
        <time>2025-02-25T11:01:46Z</time>
      </trkpt>
      <trkpt lat="48.10727" lon="-3.59185">
        <ele>181.2</ele>
        <time>2025-02-25T11:01:47Z</time>
      </trkpt>
      <trkpt lat="48.10727" lon="-3.59185">
        <ele>181.2</ele>
        <time>2025-02-25T11:01:48Z</time>
      </trkpt>
      <trkpt lat="48.10727" lon="-3.59185">
        <ele>181.2</ele>
        <time>2025-02-25T11:01:49Z</time>
      </trkpt>
      <trkpt lat="48.10727" lon="-3.59185">
        <ele>181.2</ele>
        <time>2025-02-25T11:01:50Z</time>
      </trkpt>
      <trkpt lat="48.10727" lon="-3.59185">
        <ele>181.2</ele>
        <time>2025-02-25T11:01:51Z</time>
      </trkpt>
      <trkpt lat="48.10727" lon="-3.59185">
        <ele>181.2</ele>
        <time>2025-02-25T11:01:52Z</time>
      </trkpt>
      <trkpt lat="48.10727" lon="-3.59185">
        <ele>181.2</ele>
        <time>2025-02-25T11:01:53Z</time>
      </trkpt>
      <trkpt lat="48.10727" lon="-3.59185">
        <ele>181.2</ele>
        <time>2025-02-25T11:01:54Z</time>
      </trkpt>
      <trkpt lat="48.10727" lon="-3.59185">
        <ele>181.2</ele>
        <time>2025-02-25T11:01:55Z</time>
      </trkpt>
      <trkpt lat="48.10727" lon="-3.59185">
        <ele>181.2</ele>
        <time>2025-02-25T11:01:56Z</time>
      </trkpt>
      <trkpt lat="48.10727" lon="-3.59185">
        <ele>181.2</ele>
        <time>2025-02-25T11:01:57Z</time>
      </trkpt>
      <trkpt lat="48.10727" lon="-3.59185">
        <ele>181.2</ele>
        <time>2025-02-25T11:01:58Z</time>
      </trkpt>
      <trkpt lat="48.10727" lon="-3.59185">
        <ele>181.2</ele>
        <time>2025-02-25T11:01:59Z</time>
      </trkpt>
      <trkpt lat="48.10727" lon="-3.59185">
        <ele>181.2</ele>
        <time>2025-02-25T11:02:00Z</time>
      </trkpt>
      <trkpt lat="48.10727" lon="-3.59185">
        <ele>181.2</ele>
        <time>2025-02-25T11:02:01Z</time>
      </trkpt>
      <trkpt lat="48.10727" lon="-3.59185">
        <ele>181.2</ele>
        <time>2025-02-25T11:02:02Z</time>
      </trkpt>
      <trkpt lat="48.10727" lon="-3.59185">
        <ele>181.2</ele>
        <time>2025-02-25T11:02:03Z</time>
      </trkpt>
      <trkpt lat="48.10727" lon="-3.59185">
        <ele>181.2</ele>
        <time>2025-02-25T11:02:04Z</time>
      </trkpt>
      <trkpt lat="48.10727" lon="-3.59185">
        <ele>181.2</ele>
        <time>2025-02-25T11:02:05Z</time>
      </trkpt>
      <trkpt lat="48.10727" lon="-3.59185">
        <ele>181.2</ele>
        <time>2025-02-25T11:02:06Z</time>
      </trkpt>
      <trkpt lat="48.10727" lon="-3.59185">
        <ele>181.2</ele>
        <time>2025-02-25T11:02:07Z</time>
      </trkpt>
      <trkpt lat="48.10727" lon="-3.59185">
        <ele>181.2</ele>
        <time>2025-02-25T11:02:08Z</time>
      </trkpt>
      <trkpt lat="48.10727" lon="-3.59185">
        <ele>181.2</ele>
        <time>2025-02-25T11:02:09Z</time>
      </trkpt>
      <trkpt lat="48.10727" lon="-3.59185">
        <ele>181.2</ele>
        <time>2025-02-25T11:02:10Z</time>
      </trkpt>
      <trkpt lat="48.10727" lon="-3.59185">
        <ele>181.2</ele>
        <time>2025-02-25T11:02:11Z</time>
      </trkpt>
      <trkpt lat="48.10727" lon="-3.59185">
        <ele>181.2</ele>
        <time>2025-02-25T11:02:12Z</time>
      </trkpt>
      <trkpt lat="48.10727" lon="-3.59185">
        <ele>181.2</ele>
        <time>2025-02-25T11:02:13Z</time>
      </trkpt>
      <trkpt lat="48.10727" lon="-3.59185">
        <ele>181.2</ele>
        <time>2025-02-25T11:02:14Z</time>
      </trkpt>
      <trkpt lat="48.10727" lon="-3.59185">
        <ele>181.2</ele>
        <time>2025-02-25T11:02:15Z</time>
      </trkpt>
      <trkpt lat="48.10727" lon="-3.59185">
        <ele>181.2</ele>
        <time>2025-02-25T11:02:16Z</time>
      </trkpt>
      <trkpt lat="48.10727" lon="-3.59185">
        <ele>181.2</ele>
        <time>2025-02-25T11:02:17Z</time>
      </trkpt>
      <trkpt lat="48.10727" lon="-3.59185">
        <ele>181.2</ele>
        <time>2025-02-25T11:02:18Z</time>
      </trkpt>
      <trkpt lat="48.10727" lon="-3.59185">
        <ele>181.2</ele>
        <time>2025-02-25T11:02:19Z</time>
      </trkpt>
      <trkpt lat="48.10727" lon="-3.59185">
        <ele>181.2</ele>
        <time>2025-02-25T11:02:20Z</time>
      </trkpt>
      <trkpt lat="48.10727" lon="-3.59185">
        <ele>181.2</ele>
        <time>2025-02-25T11:02:21Z</time>
      </trkpt>
      <trkpt lat="48.10727" lon="-3.59185">
        <ele>181.2</ele>
        <time>2025-02-25T11:02:22Z</time>
      </trkpt>
      <trkpt lat="48.10727" lon="-3.59185">
        <ele>181.2</ele>
        <time>2025-02-25T11:02:23Z</time>
      </trkpt>
      <trkpt lat="48.10727" lon="-3.59185">
        <ele>181.2</ele>
        <time>2025-02-25T11:02:24Z</time>
      </trkpt>
      <trkpt lat="48.10727" lon="-3.59185">
        <ele>181.2</ele>
        <time>2025-02-25T11:02:25Z</time>
      </trkpt>
      <trkpt lat="48.10727" lon="-3.59185">
        <ele>181.2</ele>
        <time>2025-02-25T11:02:26Z</time>
      </trkpt>
      <trkpt lat="48.10727" lon="-3.59185">
        <ele>181.2</ele>
        <time>2025-02-25T11:02:27Z</time>
      </trkpt>
      <trkpt lat="48.10727" lon="-3.59185">
        <ele>181.2</ele>
        <time>2025-02-25T11:02:28Z</time>
      </trkpt>
      <trkpt lat="48.10727" lon="-3.59185">
        <ele>181.2</ele>
        <time>2025-02-25T11:02:29Z</time>
      </trkpt>
      <trkpt lat="48.10727" lon="-3.59185">
        <ele>181.2</ele>
        <time>2025-02-25T11:02:30Z</time>
      </trkpt>
      <trkpt lat="48.10727" lon="-3.59185">
        <ele>181.2</ele>
        <time>2025-02-25T11:02:31Z</time>
      </trkpt>
      <trkpt lat="48.10727" lon="-3.59185">
        <ele>181.2</ele>
        <time>2025-02-25T11:02:32Z</time>
      </trkpt>
      <trkpt lat="48.10727" lon="-3.59185">
        <ele>181.2</ele>
        <time>2025-02-25T11:02:33Z</time>
      </trkpt>
      <trkpt lat="48.10727" lon="-3.59185">
        <ele>181.2</ele>
        <time>2025-02-25T11:02:34Z</time>
      </trkpt>
      <trkpt lat="48.10727" lon="-3.59185">
        <ele>181.2</ele>
        <time>2025-02-25T11:02:35Z</time>
      </trkpt>
      <trkpt lat="48.10727" lon="-3.59185">
        <ele>181.2</ele>
        <time>2025-02-25T11:02:36Z</time>
      </trkpt>
      <trkpt lat="48.10727" lon="-3.59185">
        <ele>181.2</ele>
        <time>2025-02-25T11:02:37Z</time>
      </trkpt>
      <trkpt lat="48.10727" lon="-3.59185">
        <ele>181.2</ele>
        <time>2025-02-25T11:02:38Z</time>
      </trkpt>
      <trkpt lat="48.10727" lon="-3.59185">
        <ele>181.2</ele>
        <time>2025-02-25T11:02:39Z</time>
      </trkpt>
      <trkpt lat="48.10727" lon="-3.59185">
        <ele>181.2</ele>
        <time>2025-02-25T11:02:40Z</time>
      </trkpt>
      <trkpt lat="48.10727" lon="-3.59185">
        <ele>181.2</ele>
        <time>2025-02-25T11:02:41Z</time>
      </trkpt>
      <trkpt lat="48.10727" lon="-3.59185">
        <ele>181.2</ele>
        <time>2025-02-25T11:02:42Z</time>
      </trkpt>
      <trkpt lat="48.10727" lon="-3.59185">
        <ele>181.2</ele>
        <time>2025-02-25T11:02:43Z</time>
      </trkpt>
      <trkpt lat="48.10727" lon="-3.59185">
        <ele>181.2</ele>
        <time>2025-02-25T11:02:44Z</time>
      </trkpt>
      <trkpt lat="48.10727" lon="-3.59185">
        <ele>181.2</ele>
        <time>2025-02-25T11:02:45Z</time>
      </trkpt>
      <trkpt lat="48.10727" lon="-3.59185">
        <ele>181.2</ele>
        <time>2025-02-25T11:02:46Z</time>
      </trkpt>
      <trkpt lat="48.10727" lon="-3.59185">
        <ele>181.2</ele>
        <time>2025-02-25T11:02:47Z</time>
      </trkpt>
      <trkpt lat="48.10727" lon="-3.59185">
        <ele>181.2</ele>
        <time>2025-02-25T11:02:48Z</time>
      </trkpt>
      <trkpt lat="48.10727" lon="-3.59185">
        <ele>181.2</ele>
        <time>2025-02-25T11:02:49Z</time>
      </trkpt>
      <trkpt lat="48.10727" lon="-3.59185">
        <ele>181.2</ele>
        <time>2025-02-25T11:02:50Z</time>
      </trkpt>
      <trkpt lat="48.10727" lon="-3.59185">
        <ele>181.2</ele>
        <time>2025-02-25T11:02:51Z</time>
      </trkpt>
      <trkpt lat="48.10727" lon="-3.59185">
        <ele>181.2</ele>
        <time>2025-02-25T11:02:52Z</time>
      </trkpt>
      <trkpt lat="48.10727" lon="-3.59185">
        <ele>181.2</ele>
        <time>2025-02-25T11:02:53Z</time>
      </trkpt>
      <trkpt lat="48.10727" lon="-3.59185">
        <ele>181.2</ele>
        <time>2025-02-25T11:02:54Z</time>
      </trkpt>
      <trkpt lat="48.10727" lon="-3.59185">
        <ele>181.2</ele>
        <time>2025-02-25T11:02:55Z</time>
      </trkpt>
      <trkpt lat="48.10727" lon="-3.59185">
        <ele>181.2</ele>
        <time>2025-02-25T11:02:56Z</time>
      </trkpt>
      <trkpt lat="48.10727" lon="-3.59185">
        <ele>181.2</ele>
        <time>2025-02-25T11:02:57Z</time>
      </trkpt>
      <trkpt lat="48.10727" lon="-3.59185">
        <ele>181.2</ele>
        <time>2025-02-25T11:02:58Z</time>
      </trkpt>
      <trkpt lat="48.10727" lon="-3.59185">
        <ele>181.2</ele>
        <time>2025-02-25T11:02:59Z</time>
      </trkpt>
      <trkpt lat="48.10727" lon="-3.59185">
        <ele>181.2</ele>
        <time>2025-02-25T11:03:00Z</time>
      </trkpt>
      <trkpt lat="48.10727" lon="-3.59185">
        <ele>181.2</ele>
        <time>2025-02-25T11:03:01Z</time>
      </trkpt>
      <trkpt lat="48.10727" lon="-3.59185">
        <ele>181.2</ele>
        <time>2025-02-25T11:03:02Z</time>
      </trkpt>
      <trkpt lat="48.10727" lon="-3.59185">
        <ele>181.2</ele>
        <time>2025-02-25T11:03:03Z</time>
      </trkpt>
      <trkpt lat="48.10727" lon="-3.59185">
        <ele>181.2</ele>
        <time>2025-02-25T11:03:04Z</time>
      </trkpt>
      <trkpt lat="48.10727" lon="-3.59185">
        <ele>181.2</ele>
        <time>2025-02-25T11:03:05Z</time>
      </trkpt>
      <trkpt lat="48.10727" lon="-3.59185">
        <ele>181.2</ele>
        <time>2025-02-25T11:03:06Z</time>
      </trkpt>
      <trkpt lat="48.10727" lon="-3.59185">
        <ele>181.2</ele>
        <time>2025-02-25T11:03:07Z</time>
      </trkpt>
      <trkpt lat="48.10727" lon="-3.59185">
        <ele>181.2</ele>
        <time>2025-02-25T11:03:08Z</time>
      </trkpt>
      <trkpt lat="48.10727" lon="-3.59185">
        <ele>181.2</ele>
        <time>2025-02-25T11:03:09Z</time>
      </trkpt>
      <trkpt lat="48.10727" lon="-3.59185">
        <ele>181.2</ele>
        <time>2025-02-25T11:03:10Z</time>
      </trkpt>
      <trkpt lat="48.10727" lon="-3.59185">
        <ele>181.2</ele>
        <time>2025-02-25T11:03:11Z</time>
      </trkpt>
      <trkpt lat="48.10727" lon="-3.59185">
        <ele>181.2</ele>
        <time>2025-02-25T11:03:12Z</time>
      </trkpt>
      <trkpt lat="48.10727" lon="-3.59185">
        <ele>181.2</ele>
        <time>2025-02-25T11:03:13Z</time>
      </trkpt>
      <trkpt lat="48.10727" lon="-3.59185">
        <ele>181.2</ele>
        <time>2025-02-25T11:03:14Z</time>
      </trkpt>
      <trkpt lat="48.10727" lon="-3.59185">
        <ele>181.2</ele>
        <time>2025-02-25T11:03:15Z</time>
      </trkpt>
      <trkpt lat="48.10727" lon="-3.59185">
        <ele>181.2</ele>
        <time>2025-02-25T11:03:16Z</time>
      </trkpt>
      <trkpt lat="48.10727" lon="-3.59185">
        <ele>181.2</ele>
        <time>2025-02-25T11:03:17Z</time>
      </trkpt>
      <trkpt lat="48.10727" lon="-3.59185">
        <ele>181.2</ele>
        <time>2025-02-25T11:03:18Z</time>
      </trkpt>
      <trkpt lat="48.10727" lon="-3.59185">
        <ele>181.2</ele>
        <time>2025-02-25T11:03:19Z</time>
      </trkpt>
      <trkpt lat="48.10727" lon="-3.59185">
        <ele>181.2</ele>
        <time>2025-02-25T11:03:20Z</time>
      </trkpt>
      <trkpt lat="48.10727" lon="-3.59185">
        <ele>181.2</ele>
        <time>2025-02-25T11:03:21Z</time>
      </trkpt>
      <trkpt lat="48.10727" lon="-3.59185">
        <ele>181.2</ele>
        <time>2025-02-25T11:03:22Z</time>
      </trkpt>
      <trkpt lat="48.10727" lon="-3.59185">
        <ele>181.2</ele>
        <time>2025-02-25T11:03:23Z</time>
      </trkpt>
      <trkpt lat="48.10727" lon="-3.59185">
        <ele>181.2</ele>
        <time>2025-02-25T11:03:24Z</time>
      </trkpt>
      <trkpt lat="48.10727" lon="-3.59185">
        <ele>181.2</ele>
        <time>2025-02-25T11:03:25Z</time>
      </trkpt>
      <trkpt lat="48.10727" lon="-3.59185">
        <ele>181.2</ele>
        <time>2025-02-25T11:03:26Z</time>
      </trkpt>
      <trkpt lat="48.10727" lon="-3.59185">
        <ele>181.2</ele>
        <time>2025-02-25T11:03:27Z</time>
      </trkpt>
      <trkpt lat="48.10727" lon="-3.59185">
        <ele>181.2</ele>
        <time>2025-02-25T11:03:28Z</time>
      </trkpt>
      <trkpt lat="48.10727" lon="-3.59185">
        <ele>181.2</ele>
        <time>2025-02-25T11:03:29Z</time>
      </trkpt>
      <trkpt lat="48.10727" lon="-3.59185">
        <ele>181.2</ele>
        <time>2025-02-25T11:03:30Z</time>
      </trkpt>
      <trkpt lat="48.10727" lon="-3.59185">
        <ele>181.2</ele>
        <time>2025-02-25T11:03:31Z</time>
      </trkpt>
      <trkpt lat="48.10727" lon="-3.59185">
        <ele>181.2</ele>
        <time>2025-02-25T11:03:32Z</time>
      </trkpt>
      <trkpt lat="48.10727" lon="-3.59185">
        <ele>181.2</ele>
        <time>2025-02-25T11:03:33Z</time>
      </trkpt>
      <trkpt lat="48.10727" lon="-3.59185">
        <ele>181.2</ele>
        <time>2025-02-25T11:03:34Z</time>
      </trkpt>
      <trkpt lat="48.10727" lon="-3.59185">
        <ele>181.2</ele>
        <time>2025-02-25T11:03:35Z</time>
      </trkpt>
      <trkpt lat="48.10727" lon="-3.59185">
        <ele>181.2</ele>
        <time>2025-02-25T11:03:36Z</time>
      </trkpt>
      <trkpt lat="48.10727" lon="-3.59185">
        <ele>181.2</ele>
        <time>2025-02-25T11:03:37Z</time>
      </trkpt>
      <trkpt lat="48.10727" lon="-3.59185">
        <ele>181.2</ele>
        <time>2025-02-25T11:03:38Z</time>
      </trkpt>
      <trkpt lat="48.10727" lon="-3.59185">
        <ele>181.2</ele>
        <time>2025-02-25T11:03:39Z</time>
      </trkpt>
      <trkpt lat="48.10727" lon="-3.59185">
        <ele>181.2</ele>
        <time>2025-02-25T11:03:40Z</time>
      </trkpt>
      <trkpt lat="48.10727" lon="-3.59185">
        <ele>181.2</ele>
        <time>2025-02-25T11:03:41Z</time>
      </trkpt>
      <trkpt lat="48.10727" lon="-3.59185">
        <ele>181.2</ele>
        <time>2025-02-25T11:03:42Z</time>
      </trkpt>
      <trkpt lat="48.10727" lon="-3.59185">
        <ele>181.2</ele>
        <time>2025-02-25T11:03:43Z</time>
      </trkpt>
      <trkpt lat="48.10727" lon="-3.59185">
        <ele>181.2</ele>
        <time>2025-02-25T11:03:44Z</time>
      </trkpt>
      <trkpt lat="48.10727" lon="-3.59185">
        <ele>181.2</ele>
        <time>2025-02-25T11:03:45Z</time>
      </trkpt>
      <trkpt lat="48.10727" lon="-3.59185">
        <ele>181.2</ele>
        <time>2025-02-25T11:03:46Z</time>
      </trkpt>
      <trkpt lat="48.10727" lon="-3.59185">
        <ele>181.2</ele>
        <time>2025-02-25T11:03:47Z</time>
      </trkpt>
      <trkpt lat="48.10727" lon="-3.59185">
        <ele>181.2</ele>
        <time>2025-02-25T11:03:48Z</time>
      </trkpt>
      <trkpt lat="48.10727" lon="-3.59185">
        <ele>181.2</ele>
        <time>2025-02-25T11:03:49Z</time>
      </trkpt>
      <trkpt lat="48.10727" lon="-3.59185">
        <ele>181.2</ele>
        <time>2025-02-25T11:03:50Z</time>
      </trkpt>
      <trkpt lat="48.10727" lon="-3.59185">
        <ele>181.2</ele>
        <time>2025-02-25T11:03:51Z</time>
      </trkpt>
      <trkpt lat="48.10727" lon="-3.59185">
        <ele>181.2</ele>
        <time>2025-02-25T11:03:52Z</time>
      </trkpt>
      <trkpt lat="48.10727" lon="-3.59185">
        <ele>181.2</ele>
        <time>2025-02-25T11:03:53Z</time>
      </trkpt>
      <trkpt lat="48.10727" lon="-3.59185">
        <ele>181.2</ele>
        <time>2025-02-25T11:03:54Z</time>
      </trkpt>
      <trkpt lat="48.10727" lon="-3.59185">
        <ele>181.2</ele>
        <time>2025-02-25T11:03:55Z</time>
      </trkpt>
      <trkpt lat="48.10727" lon="-3.59185">
        <ele>181.2</ele>
        <time>2025-02-25T11:03:56Z</time>
      </trkpt>
      <trkpt lat="48.10727" lon="-3.59185">
        <ele>181.2</ele>
        <time>2025-02-25T11:03:57Z</time>
      </trkpt>
      <trkpt lat="48.10727" lon="-3.59185">
        <ele>181.2</ele>
        <time>2025-02-25T11:03:58Z</time>
      </trkpt>
      <trkpt lat="48.10727" lon="-3.59185">
        <ele>181.2</ele>
        <time>2025-02-25T11:03:59Z</time>
      </trkpt>
      <trkpt lat="48.10727" lon="-3.59185">
        <ele>181.2</ele>
        <time>2025-02-25T11:04:00Z</time>
      </trkpt>
      <trkpt lat="48.10727" lon="-3.59185">
        <ele>181.2</ele>
        <time>2025-02-25T11:04:01Z</time>
      </trkpt>
      <trkpt lat="48.10727" lon="-3.59185">
        <ele>181.2</ele>
        <time>2025-02-25T11:04:02Z</time>
      </trkpt>
      <trkpt lat="48.10727" lon="-3.59185">
        <ele>181.2</ele>
        <time>2025-02-25T11:04:03Z</time>
      </trkpt>
      <trkpt lat="48.10727" lon="-3.59185">
        <ele>181.2</ele>
        <time>2025-02-25T11:04:04Z</time>
      </trkpt>
      <trkpt lat="48.10727" lon="-3.59185">
        <ele>181.2</ele>
        <time>2025-02-25T11:04:05Z</time>
      </trkpt>
      <trkpt lat="48.10727" lon="-3.59185">
        <ele>181.2</ele>
        <time>2025-02-25T11:04:06Z</time>
      </trkpt>
      <trkpt lat="48.10727" lon="-3.59185">
        <ele>181.2</ele>
        <time>2025-02-25T11:04:07Z</time>
      </trkpt>
      <trkpt lat="48.10727" lon="-3.59185">
        <ele>181.2</ele>
        <time>2025-02-25T11:04:08Z</time>
      </trkpt>
      <trkpt lat="48.10727" lon="-3.59185">
        <ele>181.2</ele>
        <time>2025-02-25T11:04:09Z</time>
      </trkpt>
      <trkpt lat="48.10727" lon="-3.59185">
        <ele>181.2</ele>
        <time>2025-02-25T11:04:10Z</time>
      </trkpt>
      <trkpt lat="48.10727" lon="-3.59185">
        <ele>181.2</ele>
        <time>2025-02-25T11:04:11Z</time>
      </trkpt>
      <trkpt lat="48.10727" lon="-3.59185">
        <ele>181.2</ele>
        <time>2025-02-25T11:04:12Z</time>
      </trkpt>
      <trkpt lat="48.10727" lon="-3.59185">
        <ele>181.2</ele>
        <time>2025-02-25T11:04:13Z</time>
      </trkpt>
      <trkpt lat="48.10727" lon="-3.59185">
        <ele>181.2</ele>
        <time>2025-02-25T11:04:14Z</time>
      </trkpt>
      <trkpt lat="48.10727" lon="-3.59185">
        <ele>181.2</ele>
        <time>2025-02-25T11:04:15Z</time>
      </trkpt>
      <trkpt lat="48.10727" lon="-3.59185">
        <ele>181.2</ele>
        <time>2025-02-25T11:04:16Z</time>
      </trkpt>
      <trkpt lat="48.10727" lon="-3.59185">
        <ele>181.2</ele>
        <time>2025-02-25T11:04:17Z</time>
      </trkpt>
      <trkpt lat="48.10727" lon="-3.59185">
        <ele>181.2</ele>
        <time>2025-02-25T11:04:18Z</time>
      </trkpt>
      <trkpt lat="48.10727" lon="-3.59185">
        <ele>181.2</ele>
        <time>2025-02-25T11:04:19Z</time>
      </trkpt>
      <trkpt lat="48.10727" lon="-3.59185">
        <ele>181.2</ele>
        <time>2025-02-25T11:04:20Z</time>
      </trkpt>
      <trkpt lat="48.10727" lon="-3.59185">
        <ele>181.2</ele>
        <time>2025-02-25T11:04:21Z</time>
      </trkpt>
      <trkpt lat="48.10727" lon="-3.59185">
        <ele>181.2</ele>
        <time>2025-02-25T11:04:22Z</time>
      </trkpt>
      <trkpt lat="48.10727" lon="-3.59185">
        <ele>181.2</ele>
        <time>2025-02-25T11:04:23Z</time>
      </trkpt>
      <trkpt lat="48.10727" lon="-3.59185">
        <ele>181.2</ele>
        <time>2025-02-25T11:04:24Z</time>
      </trkpt>
      <trkpt lat="48.10727" lon="-3.59185">
        <ele>181.2</ele>
        <time>2025-02-25T11:04:25Z</time>
      </trkpt>
      <trkpt lat="48.10727" lon="-3.59185">
        <ele>181.2</ele>
        <time>2025-02-25T11:04:26Z</time>
      </trkpt>
      <trkpt lat="48.10727" lon="-3.59185">
        <ele>181.2</ele>
        <time>2025-02-25T11:04:27Z</time>
      </trkpt>
      <trkpt lat="48.10727" lon="-3.59185">
        <ele>181.2</ele>
        <time>2025-02-25T11:04:28Z</time>
      </trkpt>
      <trkpt lat="48.10727" lon="-3.59185">
        <ele>181.2</ele>
        <time>2025-02-25T11:04:29Z</time>
      </trkpt>
      <trkpt lat="48.10727" lon="-3.59185">
        <ele>181.2</ele>
        <time>2025-02-25T11:04:30Z</time>
      </trkpt>
      <trkpt lat="48.10727" lon="-3.59185">
        <ele>181.2</ele>
        <time>2025-02-25T11:04:31Z</time>
      </trkpt>
      <trkpt lat="48.10727" lon="-3.59185">
        <ele>181.2</ele>
        <time>2025-02-25T11:04:32Z</time>
      </trkpt>
      <trkpt lat="48.10727" lon="-3.59185">
        <ele>181.2</ele>
        <time>2025-02-25T11:04:33Z</time>
      </trkpt>
      <trkpt lat="48.10727" lon="-3.59185">
        <ele>181.2</ele>
        <time>2025-02-25T11:04:34Z</time>
      </trkpt>
      <trkpt lat="48.10727" lon="-3.59185">
        <ele>181.2</ele>
        <time>2025-02-25T11:04:35Z</time>
      </trkpt>
      <trkpt lat="48.10727" lon="-3.59185">
        <ele>181.2</ele>
        <time>2025-02-25T11:04:36Z</time>
      </trkpt>
      <trkpt lat="48.10727" lon="-3.59185">
        <ele>181.2</ele>
        <time>2025-02-25T11:04:37Z</time>
      </trkpt>
      <trkpt lat="48.10727" lon="-3.59185">
        <ele>181.2</ele>
        <time>2025-02-25T11:04:38Z</time>
      </trkpt>
      <trkpt lat="48.10727" lon="-3.59185">
        <ele>181.2</ele>
        <time>2025-02-25T11:04:39Z</time>
      </trkpt>
      <trkpt lat="48.10727" lon="-3.59185">
        <ele>181.2</ele>
        <time>2025-02-25T11:04:40Z</time>
      </trkpt>
      <trkpt lat="48.10727" lon="-3.59185">
        <ele>181.2</ele>
        <time>2025-02-25T11:04:41Z</time>
      </trkpt>
      <trkpt lat="48.10727" lon="-3.59185">
        <ele>181.2</ele>
        <time>2025-02-25T11:04:42Z</time>
      </trkpt>
      <trkpt lat="48.10727" lon="-3.59185">
        <ele>181.2</ele>
        <time>2025-02-25T11:04:43Z</time>
      </trkpt>
      <trkpt lat="48.10727" lon="-3.59185">
        <ele>181.2</ele>
        <time>2025-02-25T11:04:44Z</time>
      </trkpt>
      <trkpt lat="48.10727" lon="-3.59185">
        <ele>181.2</ele>
        <time>2025-02-25T11:04:45Z</time>
      </trkpt>
      <trkpt lat="48.10727" lon="-3.59185">
        <ele>181.2</ele>
        <time>2025-02-25T11:04:46Z</time>
      </trkpt>
      <trkpt lat="48.10727" lon="-3.59185">
        <ele>181.2</ele>
        <time>2025-02-25T11:04:47Z</time>
      </trkpt>
      <trkpt lat="48.10727" lon="-3.59185">
        <ele>181.2</ele>
        <time>2025-02-25T11:04:48Z</time>
      </trkpt>
      <trkpt lat="48.10727" lon="-3.59185">
        <ele>181.2</ele>
        <time>2025-02-25T11:04:49Z</time>
      </trkpt>
      <trkpt lat="48.10727" lon="-3.59185">
        <ele>181.2</ele>
        <time>2025-02-25T11:04:50Z</time>
      </trkpt>
      <trkpt lat="48.10727" lon="-3.59185">
        <ele>181.2</ele>
        <time>2025-02-25T11:04:51Z</time>
      </trkpt>
      <trkpt lat="48.10727" lon="-3.59185">
        <ele>181.2</ele>
        <time>2025-02-25T11:04:52Z</time>
      </trkpt>
      <trkpt lat="48.10727" lon="-3.59185">
        <ele>181.2</ele>
        <time>2025-02-25T11:04:53Z</time>
      </trkpt>
      <trkpt lat="48.10727" lon="-3.59185">
        <ele>181.2</ele>
        <time>2025-02-25T11:04:54Z</time>
      </trkpt>
      <trkpt lat="48.10727" lon="-3.59185">
        <ele>181.2</ele>
        <time>2025-02-25T11:04:55Z</time>
      </trkpt>
      <trkpt lat="48.10727" lon="-3.59185">
        <ele>181.2</ele>
        <time>2025-02-25T11:04:56Z</time>
      </trkpt>
      <trkpt lat="48.10727" lon="-3.59185">
        <ele>181.2</ele>
        <time>2025-02-25T11:04:57Z</time>
      </trkpt>
      <trkpt lat="48.10727" lon="-3.59185">
        <ele>181.2</ele>
        <time>2025-02-25T11:04:58Z</time>
      </trkpt>
      <trkpt lat="48.10727" lon="-3.59185">
        <ele>181.2</ele>
        <time>2025-02-25T11:04:59Z</time>
      </trkpt>
      <trkpt lat="48.10727" lon="-3.59185">
        <ele>181.2</ele>
        <time>2025-02-25T11:05:00Z</time>
      </trkpt>
      <trkpt lat="48.10727" lon="-3.59185">
        <ele>181.2</ele>
        <time>2025-02-25T11:05:01Z</time>
      </trkpt>
      <trkpt lat="48.10727" lon="-3.59185">
        <ele>181.2</ele>
        <time>2025-02-25T11:05:02Z</time>
      </trkpt>
      <trkpt lat="48.10727" lon="-3.59185">
        <ele>181.2</ele>
        <time>2025-02-25T11:05:03Z</time>
      </trkpt>
      <trkpt lat="48.10727" lon="-3.59185">
        <ele>181.2</ele>
        <time>2025-02-25T11:05:04Z</time>
      </trkpt>
      <trkpt lat="48.10727" lon="-3.59185">
        <ele>181.2</ele>
        <time>2025-02-25T11:05:05Z</time>
      </trkpt>
      <trkpt lat="48.10727" lon="-3.59185">
        <ele>181.2</ele>
        <time>2025-02-25T11:05:06Z</time>
      </trkpt>
      <trkpt lat="48.10727" lon="-3.59185">
        <ele>181.2</ele>
        <time>2025-02-25T11:05:07Z</time>
      </trkpt>
      <trkpt lat="48.10727" lon="-3.59185">
        <ele>181.2</ele>
        <time>2025-02-25T11:05:08Z</time>
      </trkpt>
      <trkpt lat="48.10727" lon="-3.59185">
        <ele>181.2</ele>
        <time>2025-02-25T11:05:09Z</time>
      </trkpt>
      <trkpt lat="48.10727" lon="-3.59185">
        <ele>181.2</ele>
        <time>2025-02-25T11:05:10Z</time>
      </trkpt>
      <trkpt lat="48.10727" lon="-3.59185">
        <ele>181.2</ele>
        <time>2025-02-25T11:05:11Z</time>
      </trkpt>
      <trkpt lat="48.10727" lon="-3.59185">
        <ele>181.2</ele>
        <time>2025-02-25T11:05:12Z</time>
      </trkpt>
      <trkpt lat="48.10727" lon="-3.59185">
        <ele>181.2</ele>
        <time>2025-02-25T11:05:13Z</time>
      </trkpt>
      <trkpt lat="48.10727" lon="-3.59185">
        <ele>181.2</ele>
        <time>2025-02-25T11:05:14Z</time>
      </trkpt>
      <trkpt lat="48.10727" lon="-3.59185">
        <ele>181.2</ele>
        <time>2025-02-25T11:05:15Z</time>
      </trkpt>
      <trkpt lat="48.10727" lon="-3.59185">
        <ele>181.2</ele>
        <time>2025-02-25T11:05:16Z</time>
      </trkpt>
      <trkpt lat="48.10727" lon="-3.59185">
        <ele>181.2</ele>
        <time>2025-02-25T11:05:17Z</time>
      </trkpt>
      <trkpt lat="48.10727" lon="-3.59185">
        <ele>181.2</ele>
        <time>2025-02-25T11:05:18Z</time>
      </trkpt>
      <trkpt lat="48.10727" lon="-3.59185">
        <ele>181.2</ele>
        <time>2025-02-25T11:05:19Z</time>
      </trkpt>
      <trkpt lat="48.10727" lon="-3.59185">
        <ele>181.2</ele>
        <time>2025-02-25T11:05:20Z</time>
      </trkpt>
      <trkpt lat="48.10727" lon="-3.59185">
        <ele>181.2</ele>
        <time>2025-02-25T11:05:21Z</time>
      </trkpt>
      <trkpt lat="48.10727" lon="-3.59185">
        <ele>181.2</ele>
        <time>2025-02-25T11:05:22Z</time>
      </trkpt>
      <trkpt lat="48.10727" lon="-3.59185">
        <ele>181.2</ele>
        <time>2025-02-25T11:05:23Z</time>
      </trkpt>
      <trkpt lat="48.10727" lon="-3.59185">
        <ele>181.2</ele>
        <time>2025-02-25T11:05:24Z</time>
      </trkpt>
      <trkpt lat="48.10727" lon="-3.59185">
        <ele>181.2</ele>
        <time>2025-02-25T11:05:25Z</time>
      </trkpt>
      <trkpt lat="48.10727" lon="-3.59185">
        <ele>181.2</ele>
        <time>2025-02-25T11:05:26Z</time>
      </trkpt>
      <trkpt lat="48.10727" lon="-3.59185">
        <ele>181.2</ele>
        <time>2025-02-25T11:05:27Z</time>
      </trkpt>
      <trkpt lat="48.10727" lon="-3.59185">
        <ele>181.2</ele>
        <time>2025-02-25T11:05:28Z</time>
      </trkpt>
      <trkpt lat="48.10727" lon="-3.59185">
        <ele>181.2</ele>
        <time>2025-02-25T11:05:29Z</time>
      </trkpt>
      <trkpt lat="48.10727" lon="-3.59185">
        <ele>181.2</ele>
        <time>2025-02-25T11:05:30Z</time>
      </trkpt>
      <trkpt lat="48.10727" lon="-3.59185">
        <ele>181.2</ele>
        <time>2025-02-25T11:05:31Z</time>
      </trkpt>
      <trkpt lat="48.10727" lon="-3.59185">
        <ele>181.2</ele>
        <time>2025-02-25T11:05:32Z</time>
      </trkpt>
      <trkpt lat="48.10727" lon="-3.59185">
        <ele>181.2</ele>
        <time>2025-02-25T11:05:33Z</time>
      </trkpt>
      <trkpt lat="48.10727" lon="-3.59185">
        <ele>181.2</ele>
        <time>2025-02-25T11:05:34Z</time>
      </trkpt>
      <trkpt lat="48.10727" lon="-3.59185">
        <ele>181.2</ele>
        <time>2025-02-25T11:05:35Z</time>
      </trkpt>
      <trkpt lat="48.10727" lon="-3.59185">
        <ele>181.2</ele>
        <time>2025-02-25T11:05:36Z</time>
      </trkpt>
      <trkpt lat="48.10727" lon="-3.59185">
        <ele>181.2</ele>
        <time>2025-02-25T11:05:37Z</time>
      </trkpt>
      <trkpt lat="48.10727" lon="-3.59185">
        <ele>181.2</ele>
        <time>2025-02-25T11:05:38Z</time>
      </trkpt>
      <trkpt lat="48.10727" lon="-3.59185">
        <ele>181.2</ele>
        <time>2025-02-25T11:05:39Z</time>
      </trkpt>
      <trkpt lat="48.10727" lon="-3.59185">
        <ele>181.2</ele>
        <time>2025-02-25T11:05:40Z</time>
      </trkpt>
      <trkpt lat="48.10727" lon="-3.59185">
        <ele>181.2</ele>
        <time>2025-02-25T11:05:41Z</time>
      </trkpt>
      <trkpt lat="48.10727" lon="-3.59185">
        <ele>181.2</ele>
        <time>2025-02-25T11:05:42Z</time>
      </trkpt>
      <trkpt lat="48.10727" lon="-3.59185">
        <ele>181.2</ele>
        <time>2025-02-25T11:05:43Z</time>
      </trkpt>
      <trkpt lat="48.10727" lon="-3.59185">
        <ele>181.2</ele>
        <time>2025-02-25T11:05:44Z</time>
      </trkpt>
      <trkpt lat="48.10727" lon="-3.59185">
        <ele>181.2</ele>
        <time>2025-02-25T11:05:45Z</time>
      </trkpt>
      <trkpt lat="48.10727" lon="-3.59185">
        <ele>181.2</ele>
        <time>2025-02-25T11:05:46Z</time>
      </trkpt>
      <trkpt lat="48.10727" lon="-3.59185">
        <ele>181.2</ele>
        <time>2025-02-25T11:05:47Z</time>
      </trkpt>
      <trkpt lat="48.10727" lon="-3.59185">
        <ele>181.2</ele>
        <time>2025-02-25T11:05:48Z</time>
      </trkpt>
      <trkpt lat="48.10727" lon="-3.59185">
        <ele>181.2</ele>
        <time>2025-02-25T11:05:49Z</time>
      </trkpt>
      <trkpt lat="48.10727" lon="-3.59185">
        <ele>181.2</ele>
        <time>2025-02-25T11:05:50Z</time>
      </trkpt>
      <trkpt lat="48.10727" lon="-3.59185">
        <ele>181.2</ele>
        <time>2025-02-25T11:05:51Z</time>
      </trkpt>
      <trkpt lat="48.10727" lon="-3.59185">
        <ele>181.2</ele>
        <time>2025-02-25T11:05:52Z</time>
      </trkpt>
      <trkpt lat="48.10727" lon="-3.59185">
        <ele>181.2</ele>
        <time>2025-02-25T11:05:53Z</time>
      </trkpt>
      <trkpt lat="48.10727" lon="-3.59185">
        <ele>181.2</ele>
        <time>2025-02-25T11:05:54Z</time>
      </trkpt>
      <trkpt lat="48.10727" lon="-3.59185">
        <ele>181.2</ele>
        <time>2025-02-25T11:05:55Z</time>
      </trkpt>
      <trkpt lat="48.10727" lon="-3.59185">
        <ele>181.2</ele>
        <time>2025-02-25T11:05:56Z</time>
      </trkpt>
      <trkpt lat="48.10727" lon="-3.59185">
        <ele>181.2</ele>
        <time>2025-02-25T11:05:57Z</time>
      </trkpt>
      <trkpt lat="48.10727" lon="-3.59185">
        <ele>181.2</ele>
        <time>2025-02-25T11:05:58Z</time>
      </trkpt>
      <trkpt lat="48.10727" lon="-3.59185">
        <ele>181.2</ele>
        <time>2025-02-25T11:05:59Z</time>
      </trkpt>
      <trkpt lat="48.10727" lon="-3.59185">
        <ele>181.2</ele>
        <time>2025-02-25T11:06:00Z</time>
      </trkpt>
      <trkpt lat="48.10727" lon="-3.59185">
        <ele>181.2</ele>
        <time>2025-02-25T11:06:01Z</time>
      </trkpt>
      <trkpt lat="48.10727" lon="-3.59185">
        <ele>181.2</ele>
        <time>2025-02-25T11:06:02Z</time>
      </trkpt>
      <trkpt lat="48.10727" lon="-3.59185">
        <ele>181.2</ele>
        <time>2025-02-25T11:06:03Z</time>
      </trkpt>
      <trkpt lat="48.10727" lon="-3.59185">
        <ele>181.2</ele>
        <time>2025-02-25T11:06:04Z</time>
      </trkpt>
      <trkpt lat="48.10727" lon="-3.59185">
        <ele>181.2</ele>
        <time>2025-02-25T11:06:05Z</time>
      </trkpt>
      <trkpt lat="48.10727" lon="-3.59185">
        <ele>181.2</ele>
        <time>2025-02-25T11:06:06Z</time>
      </trkpt>
      <trkpt lat="48.10727" lon="-3.59185">
        <ele>181.2</ele>
        <time>2025-02-25T11:06:07Z</time>
      </trkpt>
      <trkpt lat="48.10727" lon="-3.59185">
        <ele>181.2</ele>
        <time>2025-02-25T11:06:08Z</time>
      </trkpt>
      <trkpt lat="48.10727" lon="-3.59185">
        <ele>181.2</ele>
        <time>2025-02-25T11:06:09Z</time>
      </trkpt>
      <trkpt lat="48.10727" lon="-3.59185">
        <ele>181.2</ele>
        <time>2025-02-25T11:06:10Z</time>
      </trkpt>
      <trkpt lat="48.10727" lon="-3.59185">
        <ele>181.2</ele>
        <time>2025-02-25T11:06:11Z</time>
      </trkpt>
      <trkpt lat="48.10727" lon="-3.59185">
        <ele>181.2</ele>
        <time>2025-02-25T11:06:12Z</time>
      </trkpt>
      <trkpt lat="48.10727" lon="-3.59185">
        <ele>181.2</ele>
        <time>2025-02-25T11:06:13Z</time>
      </trkpt>
      <trkpt lat="48.10727" lon="-3.59185">
        <ele>181.2</ele>
        <time>2025-02-25T11:06:14Z</time>
      </trkpt>
      <trkpt lat="48.10727" lon="-3.59185">
        <ele>181.2</ele>
        <time>2025-02-25T11:06:15Z</time>
      </trkpt>
      <trkpt lat="48.10727" lon="-3.59185">
        <ele>181.2</ele>
        <time>2025-02-25T11:06:16Z</time>
      </trkpt>
      <trkpt lat="48.10727" lon="-3.59185">
        <ele>181.2</ele>
        <time>2025-02-25T11:06:17Z</time>
      </trkpt>
      <trkpt lat="48.10727" lon="-3.59185">
        <ele>181.2</ele>
        <time>2025-02-25T11:06:18Z</time>
      </trkpt>
      <trkpt lat="48.10727" lon="-3.59185">
        <ele>181.2</ele>
        <time>2025-02-25T11:06:19Z</time>
      </trkpt>
      <trkpt lat="48.10727" lon="-3.59185">
        <ele>181.2</ele>
        <time>2025-02-25T11:06:20Z</time>
      </trkpt>
      <trkpt lat="48.10727" lon="-3.59185">
        <ele>181.2</ele>
        <time>2025-02-25T11:06:21Z</time>
      </trkpt>
      <trkpt lat="48.10727" lon="-3.59185">
        <ele>181.2</ele>
        <time>2025-02-25T11:06:22Z</time>
      </trkpt>
      <trkpt lat="48.10727" lon="-3.59185">
        <ele>181.2</ele>
        <time>2025-02-25T11:06:23Z</time>
      </trkpt>
      <trkpt lat="48.10727" lon="-3.59185">
        <ele>181.2</ele>
        <time>2025-02-25T11:06:24Z</time>
      </trkpt>
      <trkpt lat="48.10727" lon="-3.59185">
        <ele>181.2</ele>
        <time>2025-02-25T11:06:25Z</time>
      </trkpt>
      <trkpt lat="48.10727" lon="-3.59185">
        <ele>181.2</ele>
        <time>2025-02-25T11:06:26Z</time>
      </trkpt>
      <trkpt lat="48.10727" lon="-3.59185">
        <ele>181.2</ele>
        <time>2025-02-25T11:06:27Z</time>
      </trkpt>
      <trkpt lat="48.10727" lon="-3.59185">
        <ele>181.2</ele>
        <time>2025-02-25T11:06:28Z</time>
      </trkpt>
      <trkpt lat="48.10727" lon="-3.59185">
        <ele>181.2</ele>
        <time>2025-02-25T11:06:29Z</time>
      </trkpt>
      <trkpt lat="48.10727" lon="-3.59185">
        <ele>181.2</ele>
        <time>2025-02-25T11:06:30Z</time>
      </trkpt>
      <trkpt lat="48.10727" lon="-3.59185">
        <ele>181.2</ele>
        <time>2025-02-25T11:06:31Z</time>
      </trkpt>
      <trkpt lat="48.10727" lon="-3.59185">
        <ele>181.2</ele>
        <time>2025-02-25T11:06:32Z</time>
      </trkpt>
      <trkpt lat="48.10727" lon="-3.59185">
        <ele>181.2</ele>
        <time>2025-02-25T11:06:33Z</time>
      </trkpt>
      <trkpt lat="48.10727" lon="-3.59185">
        <ele>181.2</ele>
        <time>2025-02-25T11:06:34Z</time>
      </trkpt>
      <trkpt lat="48.10727" lon="-3.59185">
        <ele>181.2</ele>
        <time>2025-02-25T11:06:35Z</time>
      </trkpt>
      <trkpt lat="48.10727" lon="-3.59185">
        <ele>181.2</ele>
        <time>2025-02-25T11:06:36Z</time>
      </trkpt>
      <trkpt lat="48.10727" lon="-3.59185">
        <ele>181.2</ele>
        <time>2025-02-25T11:06:37Z</time>
      </trkpt>
      <trkpt lat="48.10727" lon="-3.59185">
        <ele>181.2</ele>
        <time>2025-02-25T11:06:38Z</time>
      </trkpt>
      <trkpt lat="48.10727" lon="-3.59185">
        <ele>181.2</ele>
        <time>2025-02-25T11:06:39Z</time>
      </trkpt>
      <trkpt lat="48.10727" lon="-3.59185">
        <ele>181.2</ele>
        <time>2025-02-25T11:06:40Z</time>
      </trkpt>
      <trkpt lat="48.10727" lon="-3.59185">
        <ele>181.2</ele>
        <time>2025-02-25T11:06:41Z</time>
      </trkpt>
      <trkpt lat="48.10727" lon="-3.59185">
        <ele>181.2</ele>
        <time>2025-02-25T11:06:42Z</time>
      </trkpt>
      <trkpt lat="48.10727" lon="-3.59185">
        <ele>181.2</ele>
        <time>2025-02-25T11:06:43Z</time>
      </trkpt>
      <trkpt lat="48.10727" lon="-3.59185">
        <ele>181.2</ele>
        <time>2025-02-25T11:06:44Z</time>
      </trkpt>
      <trkpt lat="48.10727" lon="-3.59185">
        <ele>181.2</ele>
        <time>2025-02-25T11:06:45Z</time>
      </trkpt>
      <trkpt lat="48.10727" lon="-3.59185">
        <ele>181.2</ele>
        <time>2025-02-25T11:06:46Z</time>
      </trkpt>
      <trkpt lat="48.10727" lon="-3.59185">
        <ele>181.2</ele>
        <time>2025-02-25T11:06:47Z</time>
      </trkpt>
      <trkpt lat="48.10727" lon="-3.59185">
        <ele>181.2</ele>
        <time>2025-02-25T11:06:48Z</time>
      </trkpt>
      <trkpt lat="48.10727" lon="-3.59185">
        <ele>181.2</ele>
        <time>2025-02-25T11:06:49Z</time>
      </trkpt>
      <trkpt lat="48.10727" lon="-3.59185">
        <ele>181.2</ele>
        <time>2025-02-25T11:06:50Z</time>
      </trkpt>
      <trkpt lat="48.10727" lon="-3.59185">
        <ele>181.2</ele>
        <time>2025-02-25T11:06:51Z</time>
      </trkpt>
      <trkpt lat="48.10727" lon="-3.59185">
        <ele>181.2</ele>
        <time>2025-02-25T11:06:52Z</time>
      </trkpt>
      <trkpt lat="48.10727" lon="-3.59185">
        <ele>181.2</ele>
        <time>2025-02-25T11:06:53Z</time>
      </trkpt>
      <trkpt lat="48.10727" lon="-3.59185">
        <ele>181.2</ele>
        <time>2025-02-25T11:06:54Z</time>
      </trkpt>
      <trkpt lat="48.10727" lon="-3.59185">
        <ele>181.2</ele>
        <time>2025-02-25T11:06:55Z</time>
      </trkpt>
      <trkpt lat="48.10727" lon="-3.59185">
        <ele>181.2</ele>
        <time>2025-02-25T11:06:56Z</time>
      </trkpt>
      <trkpt lat="48.10727" lon="-3.59185">
        <ele>181.2</ele>
        <time>2025-02-25T11:06:57Z</time>
      </trkpt>
      <trkpt lat="48.10727" lon="-3.59185">
        <ele>181.2</ele>
        <time>2025-02-25T11:06:58Z</time>
      </trkpt>
      <trkpt lat="48.10727" lon="-3.59185">
        <ele>181.2</ele>
        <time>2025-02-25T11:06:59Z</time>
      </trkpt>
      <trkpt lat="48.10727" lon="-3.59185">
        <ele>181.2</ele>
        <time>2025-02-25T11:07:00Z</time>
      </trkpt>
      <trkpt lat="48.10727" lon="-3.59185">
        <ele>181.2</ele>
        <time>2025-02-25T11:07:01Z</time>
      </trkpt>
      <trkpt lat="48.10727" lon="-3.59185">
        <ele>181.2</ele>
        <time>2025-02-25T11:07:02Z</time>
      </trkpt>
      <trkpt lat="48.10727" lon="-3.59185">
        <ele>181.2</ele>
        <time>2025-02-25T11:07:03Z</time>
      </trkpt>
      <trkpt lat="48.10727" lon="-3.59185">
        <ele>181.2</ele>
        <time>2025-02-25T11:07:04Z</time>
      </trkpt>
      <trkpt lat="48.10727" lon="-3.59185">
        <ele>181.2</ele>
        <time>2025-02-25T11:07:05Z</time>
      </trkpt>
      <trkpt lat="48.10727" lon="-3.59185">
        <ele>181.2</ele>
        <time>2025-02-25T11:07:06Z</time>
      </trkpt>
      <trkpt lat="48.10727" lon="-3.59185">
        <ele>181.2</ele>
        <time>2025-02-25T11:07:07Z</time>
      </trkpt>
      <trkpt lat="48.10727" lon="-3.59185">
        <ele>181.2</ele>
        <time>2025-02-25T11:07:08Z</time>
      </trkpt>
      <trkpt lat="48.10727" lon="-3.59185">
        <ele>181.2</ele>
        <time>2025-02-25T11:07:09Z</time>
      </trkpt>
      <trkpt lat="48.10727" lon="-3.59185">
        <ele>181.2</ele>
        <time>2025-02-25T11:07:10Z</time>
      </trkpt>
      <trkpt lat="48.10727" lon="-3.59185">
        <ele>181.2</ele>
        <time>2025-02-25T11:07:11Z</time>
      </trkpt>
      <trkpt lat="48.10727" lon="-3.59185">
        <ele>181.2</ele>
        <time>2025-02-25T11:07:12Z</time>
      </trkpt>
      <trkpt lat="48.10727" lon="-3.59185">
        <ele>181.2</ele>
        <time>2025-02-25T11:07:13Z</time>
      </trkpt>
      <trkpt lat="48.10727" lon="-3.59185">
        <ele>181.2</ele>
        <time>2025-02-25T11:07:14Z</time>
      </trkpt>
      <trkpt lat="48.10727" lon="-3.59185">
        <ele>181.2</ele>
        <time>2025-02-25T11:07:15Z</time>
      </trkpt>
      <trkpt lat="48.10727" lon="-3.59185">
        <ele>181.2</ele>
        <time>2025-02-25T11:07:16Z</time>
      </trkpt>
      <trkpt lat="48.10727" lon="-3.59185">
        <ele>181.2</ele>
        <time>2025-02-25T11:07:17Z</time>
      </trkpt>
      <trkpt lat="48.10727" lon="-3.59185">
        <ele>181.2</ele>
        <time>2025-02-25T11:07:18Z</time>
      </trkpt>
      <trkpt lat="48.10727" lon="-3.59185">
        <ele>181.2</ele>
        <time>2025-02-25T11:07:19Z</time>
      </trkpt>
      <trkpt lat="48.10727" lon="-3.59185">
        <ele>181.2</ele>
        <time>2025-02-25T11:07:20Z</time>
      </trkpt>
      <trkpt lat="48.10727" lon="-3.59185">
        <ele>181.2</ele>
        <time>2025-02-25T11:07:21Z</time>
      </trkpt>
      <trkpt lat="48.10727" lon="-3.59185">
        <ele>181.2</ele>
        <time>2025-02-25T11:07:22Z</time>
      </trkpt>
      <trkpt lat="48.10727" lon="-3.59185">
        <ele>181.2</ele>
        <time>2025-02-25T11:07:23Z</time>
      </trkpt>
      <trkpt lat="48.10727" lon="-3.59185">
        <ele>181.2</ele>
        <time>2025-02-25T11:07:24Z</time>
      </trkpt>
      <trkpt lat="48.10727" lon="-3.59185">
        <ele>181.2</ele>
        <time>2025-02-25T11:07:25Z</time>
      </trkpt>
      <trkpt lat="48.10727" lon="-3.59185">
        <ele>181.2</ele>
        <time>2025-02-25T11:07:26Z</time>
      </trkpt>
      <trkpt lat="48.10727" lon="-3.59185">
        <ele>181.2</ele>
        <time>2025-02-25T11:07:27Z</time>
      </trkpt>
      <trkpt lat="48.10727" lon="-3.59185">
        <ele>181.2</ele>
        <time>2025-02-25T11:07:28Z</time>
      </trkpt>
      <trkpt lat="48.10727" lon="-3.59185">
        <ele>181.2</ele>
        <time>2025-02-25T11:07:29Z</time>
      </trkpt>
      <trkpt lat="48.10727" lon="-3.59185">
        <ele>181.2</ele>
        <time>2025-02-25T11:07:30Z</time>
      </trkpt>
      <trkpt lat="48.10727" lon="-3.59185">
        <ele>181.2</ele>
        <time>2025-02-25T11:07:31Z</time>
      </trkpt>
      <trkpt lat="48.10727" lon="-3.59185">
        <ele>181.2</ele>
        <time>2025-02-25T11:07:32Z</time>
      </trkpt>
      <trkpt lat="48.10727" lon="-3.59185">
        <ele>181.2</ele>
        <time>2025-02-25T11:07:33Z</time>
      </trkpt>
      <trkpt lat="48.10727" lon="-3.59185">
        <ele>181.2</ele>
        <time>2025-02-25T11:07:34Z</time>
      </trkpt>
      <trkpt lat="48.10727" lon="-3.59185">
        <ele>181.2</ele>
        <time>2025-02-25T11:07:35Z</time>
      </trkpt>
      <trkpt lat="48.10727" lon="-3.59185">
        <ele>181.2</ele>
        <time>2025-02-25T11:07:36Z</time>
      </trkpt>
      <trkpt lat="48.10727" lon="-3.59185">
        <ele>181.2</ele>
        <time>2025-02-25T11:07:37Z</time>
      </trkpt>
      <trkpt lat="48.10727" lon="-3.59185">
        <ele>181.2</ele>
        <time>2025-02-25T11:07:38Z</time>
      </trkpt>
      <trkpt lat="48.10727" lon="-3.59185">
        <ele>181.2</ele>
        <time>2025-02-25T11:07:39Z</time>
      </trkpt>
      <trkpt lat="48.10727" lon="-3.59185">
        <ele>181.2</ele>
        <time>2025-02-25T11:07:40Z</time>
      </trkpt>
      <trkpt lat="48.10727" lon="-3.59185">
        <ele>181.2</ele>
        <time>2025-02-25T11:07:41Z</time>
      </trkpt>
      <trkpt lat="48.10727" lon="-3.59185">
        <ele>181.2</ele>
        <time>2025-02-25T11:07:42Z</time>
      </trkpt>
      <trkpt lat="48.10727" lon="-3.59185">
        <ele>181.2</ele>
        <time>2025-02-25T11:07:43Z</time>
      </trkpt>
      <trkpt lat="48.10727" lon="-3.59185">
        <ele>181.2</ele>
        <time>2025-02-25T11:07:44Z</time>
      </trkpt>
      <trkpt lat="48.10727" lon="-3.59185">
        <ele>181.2</ele>
        <time>2025-02-25T11:07:45Z</time>
      </trkpt>
      <trkpt lat="48.10727" lon="-3.59185">
        <ele>181.2</ele>
        <time>2025-02-25T11:07:46Z</time>
      </trkpt>
      <trkpt lat="48.10727" lon="-3.59185">
        <ele>181.2</ele>
        <time>2025-02-25T11:07:47Z</time>
      </trkpt>
      <trkpt lat="48.10727" lon="-3.59185">
        <ele>181.2</ele>
        <time>2025-02-25T11:07:48Z</time>
      </trkpt>
      <trkpt lat="48.10727" lon="-3.59185">
        <ele>181.2</ele>
        <time>2025-02-25T11:07:49Z</time>
      </trkpt>
      <trkpt lat="48.10727" lon="-3.59185">
        <ele>181.2</ele>
        <time>2025-02-25T11:07:50Z</time>
      </trkpt>
      <trkpt lat="48.10727" lon="-3.59185">
        <ele>181.2</ele>
        <time>2025-02-25T11:07:51Z</time>
      </trkpt>
      <trkpt lat="48.10727" lon="-3.59185">
        <ele>181.2</ele>
        <time>2025-02-25T11:07:52Z</time>
      </trkpt>
      <trkpt lat="48.10727" lon="-3.59185">
        <ele>181.2</ele>
        <time>2025-02-25T11:07:53Z</time>
      </trkpt>
      <trkpt lat="48.10727" lon="-3.59185">
        <ele>181.2</ele>
        <time>2025-02-25T11:07:54Z</time>
      </trkpt>
      <trkpt lat="48.10727" lon="-3.59185">
        <ele>181.2</ele>
        <time>2025-02-25T11:07:55Z</time>
      </trkpt>
      <trkpt lat="48.10727" lon="-3.59185">
        <ele>181.2</ele>
        <time>2025-02-25T11:07:56Z</time>
      </trkpt>
      <trkpt lat="48.10727" lon="-3.59185">
        <ele>181.2</ele>
        <time>2025-02-25T11:07:57Z</time>
      </trkpt>
      <trkpt lat="48.10727" lon="-3.59185">
        <ele>181.2</ele>
        <time>2025-02-25T11:07:58Z</time>
      </trkpt>
      <trkpt lat="48.10727" lon="-3.59185">
        <ele>181.2</ele>
        <time>2025-02-25T11:07:59Z</time>
      </trkpt>
      <trkpt lat="48.10727" lon="-3.59185">
        <ele>181.2</ele>
        <time>2025-02-25T11:08:00Z</time>
      </trkpt>
      <trkpt lat="48.10727" lon="-3.59185">
        <ele>181.2</ele>
        <time>2025-02-25T11:08:01Z</time>
      </trkpt>
      <trkpt lat="48.10727" lon="-3.59185">
        <ele>181.2</ele>
        <time>2025-02-25T11:08:02Z</time>
      </trkpt>
      <trkpt lat="48.10727" lon="-3.59185">
        <ele>181.2</ele>
        <time>2025-02-25T11:08:03Z</time>
      </trkpt>
      <trkpt lat="48.10727" lon="-3.59185">
        <ele>181.2</ele>
        <time>2025-02-25T11:08:04Z</time>
      </trkpt>
      <trkpt lat="48.10727" lon="-3.59185">
        <ele>181.2</ele>
        <time>2025-02-25T11:08:05Z</time>
      </trkpt>
      <trkpt lat="48.10727" lon="-3.59185">
        <ele>181.2</ele>
        <time>2025-02-25T11:08:06Z</time>
      </trkpt>
      <trkpt lat="48.10727" lon="-3.59185">
        <ele>181.2</ele>
        <time>2025-02-25T11:08:07Z</time>
      </trkpt>
      <trkpt lat="48.10727" lon="-3.59185">
        <ele>181.2</ele>
        <time>2025-02-25T11:08:08Z</time>
      </trkpt>
      <trkpt lat="48.10727" lon="-3.59185">
        <ele>181.2</ele>
        <time>2025-02-25T11:08:09Z</time>
      </trkpt>
      <trkpt lat="48.10727" lon="-3.59185">
        <ele>181.2</ele>
        <time>2025-02-25T11:08:10Z</time>
      </trkpt>
      <trkpt lat="48.10727" lon="-3.59185">
        <ele>181.2</ele>
        <time>2025-02-25T11:08:11Z</time>
      </trkpt>
      <trkpt lat="48.10727" lon="-3.59185">
        <ele>181.2</ele>
        <time>2025-02-25T11:08:12Z</time>
      </trkpt>
      <trkpt lat="48.10727" lon="-3.59185">
        <ele>181.2</ele>
        <time>2025-02-25T11:08:13Z</time>
      </trkpt>
      <trkpt lat="48.10727" lon="-3.59185">
        <ele>181.2</ele>
        <time>2025-02-25T11:08:14Z</time>
      </trkpt>
      <trkpt lat="48.10727" lon="-3.59185">
        <ele>181.2</ele>
        <time>2025-02-25T11:08:15Z</time>
      </trkpt>
      <trkpt lat="48.10727" lon="-3.59185">
        <ele>181.2</ele>
        <time>2025-02-25T11:08:16Z</time>
      </trkpt>
      <trkpt lat="48.10727" lon="-3.59185">
        <ele>181.2</ele>
        <time>2025-02-25T11:08:17Z</time>
      </trkpt>
      <trkpt lat="48.10727" lon="-3.59185">
        <ele>181.2</ele>
        <time>2025-02-25T11:08:18Z</time>
      </trkpt>
      <trkpt lat="48.10727" lon="-3.59185">
        <ele>181.2</ele>
        <time>2025-02-25T11:08:19Z</time>
      </trkpt>
      <trkpt lat="48.10727" lon="-3.59185">
        <ele>181.2</ele>
        <time>2025-02-25T11:08:20Z</time>
      </trkpt>
      <trkpt lat="48.10727" lon="-3.59185">
        <ele>181.2</ele>
        <time>2025-02-25T11:08:21Z</time>
      </trkpt>
      <trkpt lat="48.10727" lon="-3.59185">
        <ele>181.2</ele>
        <time>2025-02-25T11:08:22Z</time>
      </trkpt>
      <trkpt lat="48.10727" lon="-3.59185">
        <ele>181.2</ele>
        <time>2025-02-25T11:08:23Z</time>
      </trkpt>
      <trkpt lat="48.10727" lon="-3.59185">
        <ele>181.2</ele>
        <time>2025-02-25T11:08:24Z</time>
      </trkpt>
      <trkpt lat="48.10727" lon="-3.59185">
        <ele>181.2</ele>
        <time>2025-02-25T11:08:25Z</time>
      </trkpt>
      <trkpt lat="48.10727" lon="-3.59185">
        <ele>181.2</ele>
        <time>2025-02-25T11:08:26Z</time>
      </trkpt>
      <trkpt lat="48.10727" lon="-3.59185">
        <ele>181.2</ele>
        <time>2025-02-25T11:08:27Z</time>
      </trkpt>
      <trkpt lat="48.10727" lon="-3.59185">
        <ele>181.2</ele>
        <time>2025-02-25T11:08:28Z</time>
      </trkpt>
      <trkpt lat="48.10727" lon="-3.59185">
        <ele>181.2</ele>
        <time>2025-02-25T11:08:29Z</time>
      </trkpt>
      <trkpt lat="48.10727" lon="-3.59185">
        <ele>181.2</ele>
        <time>2025-02-25T11:08:30Z</time>
      </trkpt>
      <trkpt lat="48.10727" lon="-3.59185">
        <ele>181.2</ele>
        <time>2025-02-25T11:08:31Z</time>
      </trkpt>
      <trkpt lat="48.10727" lon="-3.59185">
        <ele>181.2</ele>
        <time>2025-02-25T11:08:32Z</time>
      </trkpt>
      <trkpt lat="48.10727" lon="-3.59185">
        <ele>181.2</ele>
        <time>2025-02-25T11:08:33Z</time>
      </trkpt>
      <trkpt lat="48.10727" lon="-3.59185">
        <ele>181.2</ele>
        <time>2025-02-25T11:08:34Z</time>
      </trkpt>
      <trkpt lat="48.10727" lon="-3.59185">
        <ele>181.2</ele>
        <time>2025-02-25T11:08:35Z</time>
      </trkpt>
      <trkpt lat="48.10727" lon="-3.59185">
        <ele>181.2</ele>
        <time>2025-02-25T11:08:36Z</time>
      </trkpt>
      <trkpt lat="48.10727" lon="-3.59185">
        <ele>181.2</ele>
        <time>2025-02-25T11:08:37Z</time>
      </trkpt>
      <trkpt lat="48.10727" lon="-3.59185">
        <ele>181.2</ele>
        <time>2025-02-25T11:08:38Z</time>
      </trkpt>
      <trkpt lat="48.10727" lon="-3.59185">
        <ele>181.2</ele>
        <time>2025-02-25T11:08:39Z</time>
      </trkpt>
      <trkpt lat="48.10727" lon="-3.59185">
        <ele>181.2</ele>
        <time>2025-02-25T11:08:40Z</time>
      </trkpt>
      <trkpt lat="48.10727" lon="-3.59185">
        <ele>181.2</ele>
        <time>2025-02-25T11:08:41Z</time>
      </trkpt>
      <trkpt lat="48.10727" lon="-3.59185">
        <ele>181.2</ele>
        <time>2025-02-25T11:08:42Z</time>
      </trkpt>
      <trkpt lat="48.10727" lon="-3.59185">
        <ele>181.2</ele>
        <time>2025-02-25T11:08:43Z</time>
      </trkpt>
      <trkpt lat="48.10727" lon="-3.59185">
        <ele>181.2</ele>
        <time>2025-02-25T11:08:44Z</time>
      </trkpt>
      <trkpt lat="48.10727" lon="-3.59185">
        <ele>181.2</ele>
        <time>2025-02-25T11:08:45Z</time>
      </trkpt>
      <trkpt lat="48.10727" lon="-3.59185">
        <ele>181.2</ele>
        <time>2025-02-25T11:08:46Z</time>
      </trkpt>
      <trkpt lat="48.10727" lon="-3.59185">
        <ele>181.2</ele>
        <time>2025-02-25T11:08:47Z</time>
      </trkpt>
      <trkpt lat="48.10727" lon="-3.59185">
        <ele>181.2</ele>
        <time>2025-02-25T11:08:48Z</time>
      </trkpt>
      <trkpt lat="48.10727" lon="-3.59185">
        <ele>181.2</ele>
        <time>2025-02-25T11:08:49Z</time>
      </trkpt>
      <trkpt lat="48.10727" lon="-3.59185">
        <ele>181.2</ele>
        <time>2025-02-25T11:08:50Z</time>
      </trkpt>
      <trkpt lat="48.10727" lon="-3.59185">
        <ele>181.2</ele>
        <time>2025-02-25T11:08:51Z</time>
      </trkpt>
      <trkpt lat="48.10727" lon="-3.59185">
        <ele>181.2</ele>
        <time>2025-02-25T11:08:52Z</time>
      </trkpt>
      <trkpt lat="48.10727" lon="-3.59185">
        <ele>181.2</ele>
        <time>2025-02-25T11:08:53Z</time>
      </trkpt>
      <trkpt lat="48.10727" lon="-3.59185">
        <ele>181.2</ele>
        <time>2025-02-25T11:08:54Z</time>
      </trkpt>
      <trkpt lat="48.10727" lon="-3.59185">
        <ele>181.2</ele>
        <time>2025-02-25T11:08:55Z</time>
      </trkpt>
      <trkpt lat="48.10727" lon="-3.59185">
        <ele>181.2</ele>
        <time>2025-02-25T11:08:56Z</time>
      </trkpt>
      <trkpt lat="48.10727" lon="-3.59185">
        <ele>181.2</ele>
        <time>2025-02-25T11:08:57Z</time>
      </trkpt>
      <trkpt lat="48.10727" lon="-3.59185">
        <ele>181.2</ele>
        <time>2025-02-25T11:08:58Z</time>
      </trkpt>
      <trkpt lat="48.10727" lon="-3.59185">
        <ele>181.2</ele>
        <time>2025-02-25T11:08:59Z</time>
      </trkpt>
      <trkpt lat="48.10727" lon="-3.59185">
        <ele>181.2</ele>
        <time>2025-02-25T11:09:00Z</time>
      </trkpt>
      <trkpt lat="48.10727" lon="-3.59185">
        <ele>181.2</ele>
        <time>2025-02-25T11:09:01Z</time>
      </trkpt>
      <trkpt lat="48.10727" lon="-3.59185">
        <ele>181.2</ele>
        <time>2025-02-25T11:09:02Z</time>
      </trkpt>
      <trkpt lat="48.10727" lon="-3.59185">
        <ele>181.2</ele>
        <time>2025-02-25T11:09:03Z</time>
      </trkpt>
      <trkpt lat="48.10727" lon="-3.59185">
        <ele>181.2</ele>
        <time>2025-02-25T11:09:04Z</time>
      </trkpt>
      <trkpt lat="48.10727" lon="-3.59185">
        <ele>181.2</ele>
        <time>2025-02-25T11:09:05Z</time>
      </trkpt>
      <trkpt lat="48.10727" lon="-3.59185">
        <ele>181.2</ele>
        <time>2025-02-25T11:09:06Z</time>
      </trkpt>
      <trkpt lat="48.10727" lon="-3.59185">
        <ele>181.2</ele>
        <time>2025-02-25T11:09:07Z</time>
      </trkpt>
      <trkpt lat="48.10727" lon="-3.59185">
        <ele>181.2</ele>
        <time>2025-02-25T11:09:08Z</time>
      </trkpt>
      <trkpt lat="48.10727" lon="-3.59185">
        <ele>181.2</ele>
        <time>2025-02-25T11:09:09Z</time>
      </trkpt>
      <trkpt lat="48.10727" lon="-3.59185">
        <ele>181.2</ele>
        <time>2025-02-25T11:09:10Z</time>
      </trkpt>
      <trkpt lat="48.10727" lon="-3.59185">
        <ele>181.2</ele>
        <time>2025-02-25T11:09:11Z</time>
      </trkpt>
      <trkpt lat="48.10727" lon="-3.59185">
        <ele>181.2</ele>
        <time>2025-02-25T11:09:12Z</time>
      </trkpt>
      <trkpt lat="48.10727" lon="-3.59185">
        <ele>181.2</ele>
        <time>2025-02-25T11:09:13Z</time>
      </trkpt>
      <trkpt lat="48.10727" lon="-3.59185">
        <ele>181.2</ele>
        <time>2025-02-25T11:09:14Z</time>
      </trkpt>
      <trkpt lat="48.10727" lon="-3.59185">
        <ele>181.2</ele>
        <time>2025-02-25T11:09:15Z</time>
      </trkpt>
      <trkpt lat="48.10727" lon="-3.59185">
        <ele>181.2</ele>
        <time>2025-02-25T11:09:16Z</time>
      </trkpt>
      <trkpt lat="48.10727" lon="-3.59185">
        <ele>181.2</ele>
        <time>2025-02-25T11:09:17Z</time>
      </trkpt>
      <trkpt lat="48.10727" lon="-3.59185">
        <ele>181.2</ele>
        <time>2025-02-25T11:09:18Z</time>
      </trkpt>
      <trkpt lat="48.10727" lon="-3.59185">
        <ele>181.2</ele>
        <time>2025-02-25T11:09:19Z</time>
      </trkpt>
      <trkpt lat="48.10727" lon="-3.59185">
        <ele>181.2</ele>
        <time>2025-02-25T11:09:20Z</time>
      </trkpt>
      <trkpt lat="48.10727" lon="-3.59185">
        <ele>181.2</ele>
        <time>2025-02-25T11:09:21Z</time>
      </trkpt>
      <trkpt lat="48.10727" lon="-3.59185">
        <ele>181.2</ele>
        <time>2025-02-25T11:09:22Z</time>
      </trkpt>
      <trkpt lat="48.10727" lon="-3.59185">
        <ele>181.2</ele>
        <time>2025-02-25T11:09:23Z</time>
      </trkpt>
      <trkpt lat="48.10727" lon="-3.59185">
        <ele>181.2</ele>
        <time>2025-02-25T11:09:24Z</time>
      </trkpt>
      <trkpt lat="48.10727" lon="-3.59185">
        <ele>181.2</ele>
        <time>2025-02-25T11:09:25Z</time>
      </trkpt>
      <trkpt lat="48.10727" lon="-3.59185">
        <ele>181.2</ele>
        <time>2025-02-25T11:09:26Z</time>
      </trkpt>
      <trkpt lat="48.10727" lon="-3.59185">
        <ele>181.2</ele>
        <time>2025-02-25T11:09:27Z</time>
      </trkpt>
      <trkpt lat="48.10727" lon="-3.59185">
        <ele>181.2</ele>
        <time>2025-02-25T11:09:28Z</time>
      </trkpt>
      <trkpt lat="48.10727" lon="-3.59185">
        <ele>181.2</ele>
        <time>2025-02-25T11:09:29Z</time>
      </trkpt>
      <trkpt lat="48.10727" lon="-3.59185">
        <ele>181.2</ele>
        <time>2025-02-25T11:09:30Z</time>
      </trkpt>
      <trkpt lat="48.10727" lon="-3.59185">
        <ele>181.2</ele>
        <time>2025-02-25T11:09:31Z</time>
      </trkpt>
      <trkpt lat="48.10727" lon="-3.59185">
        <ele>181.2</ele>
        <time>2025-02-25T11:09:32Z</time>
      </trkpt>
      <trkpt lat="48.10727" lon="-3.59185">
        <ele>181.2</ele>
        <time>2025-02-25T11:09:33Z</time>
      </trkpt>
      <trkpt lat="48.10727" lon="-3.59185">
        <ele>181.2</ele>
        <time>2025-02-25T11:09:34Z</time>
      </trkpt>
      <trkpt lat="48.10727" lon="-3.59185">
        <ele>181.2</ele>
        <time>2025-02-25T11:09:35Z</time>
      </trkpt>
      <trkpt lat="48.10727" lon="-3.59185">
        <ele>181.2</ele>
        <time>2025-02-25T11:09:36Z</time>
      </trkpt>
      <trkpt lat="48.10727" lon="-3.59185">
        <ele>181.2</ele>
        <time>2025-02-25T11:09:37Z</time>
      </trkpt>
      <trkpt lat="48.10727" lon="-3.59185">
        <ele>181.2</ele>
        <time>2025-02-25T11:09:38Z</time>
      </trkpt>
      <trkpt lat="48.10727" lon="-3.59185">
        <ele>181.2</ele>
        <time>2025-02-25T11:09:39Z</time>
      </trkpt>
      <trkpt lat="48.10727" lon="-3.59185">
        <ele>181.2</ele>
        <time>2025-02-25T11:09:40Z</time>
      </trkpt>
      <trkpt lat="48.10727" lon="-3.59185">
        <ele>181.2</ele>
        <time>2025-02-25T11:09:41Z</time>
      </trkpt>
      <trkpt lat="48.10727" lon="-3.59185">
        <ele>181.2</ele>
        <time>2025-02-25T11:09:42Z</time>
      </trkpt>
      <trkpt lat="48.10727" lon="-3.59184">
        <ele>181.3</ele>
        <time>2025-02-25T11:09:43Z</time>
      </trkpt>
      <trkpt lat="48.10727" lon="-3.59184">
        <ele>181.3</ele>
        <time>2025-02-25T11:09:44Z</time>
      </trkpt>
      <trkpt lat="48.10727" lon="-3.59185">
        <ele>181.2</ele>
        <time>2025-02-25T11:09:45Z</time>
      </trkpt>
      <trkpt lat="48.10727" lon="-3.59185">
        <ele>181.2</ele>
        <time>2025-02-25T11:09:46Z</time>
      </trkpt>
      <trkpt lat="48.10727" lon="-3.59185">
        <ele>181.2</ele>
        <time>2025-02-25T11:09:47Z</time>
      </trkpt>
      <trkpt lat="48.10727" lon="-3.59185">
        <ele>181.2</ele>
        <time>2025-02-25T11:09:48Z</time>
      </trkpt>
      <trkpt lat="48.10727" lon="-3.59185">
        <ele>181.2</ele>
        <time>2025-02-25T11:09:49Z</time>
      </trkpt>
      <trkpt lat="48.10727" lon="-3.59185">
        <ele>181.2</ele>
        <time>2025-02-25T11:09:50Z</time>
      </trkpt>
      <trkpt lat="48.10727" lon="-3.59184">
        <ele>181.3</ele>
        <time>2025-02-25T11:09:51Z</time>
      </trkpt>
      <trkpt lat="48.10727" lon="-3.59184">
        <ele>181.3</ele>
        <time>2025-02-25T11:09:52Z</time>
      </trkpt>
      <trkpt lat="48.10727" lon="-3.59184">
        <ele>181.3</ele>
        <time>2025-02-25T11:09:53Z</time>
      </trkpt>
      <trkpt lat="48.10727" lon="-3.59184">
        <ele>181.3</ele>
        <time>2025-02-25T11:09:54Z</time>
      </trkpt>
      <trkpt lat="48.10727" lon="-3.59184">
        <ele>181.3</ele>
        <time>2025-02-25T11:09:55Z</time>
      </trkpt>
      <trkpt lat="48.10727" lon="-3.59184">
        <ele>181.3</ele>
        <time>2025-02-25T11:09:56Z</time>
      </trkpt>
      <trkpt lat="48.10727" lon="-3.59184">
        <ele>181.3</ele>
        <time>2025-02-25T11:09:57Z</time>
      </trkpt>
      <trkpt lat="48.10727" lon="-3.59184">
        <ele>181.3</ele>
        <time>2025-02-25T11:09:58Z</time>
      </trkpt>
      <trkpt lat="48.10727" lon="-3.59184">
        <ele>181.3</ele>
        <time>2025-02-25T11:09:59Z</time>
      </trkpt>
      <trkpt lat="48.10727" lon="-3.59184">
        <ele>181.3</ele>
        <time>2025-02-25T11:10:00Z</time>
      </trkpt>
      <trkpt lat="48.10727" lon="-3.59184">
        <ele>181.3</ele>
        <time>2025-02-25T11:10:01Z</time>
      </trkpt>
      <trkpt lat="48.10727" lon="-3.59184">
        <ele>181.3</ele>
        <time>2025-02-25T11:10:02Z</time>
      </trkpt>
      <trkpt lat="48.10727" lon="-3.59184">
        <ele>181.3</ele>
        <time>2025-02-25T11:10:03Z</time>
      </trkpt>
      <trkpt lat="48.10727" lon="-3.59184">
        <ele>181.3</ele>
        <time>2025-02-25T11:10:04Z</time>
      </trkpt>
      <trkpt lat="48.10727" lon="-3.59184">
        <ele>181.3</ele>
        <time>2025-02-25T11:10:05Z</time>
      </trkpt>
      <trkpt lat="48.10727" lon="-3.59184">
        <ele>181.3</ele>
        <time>2025-02-25T11:10:06Z</time>
      </trkpt>
      <trkpt lat="48.10727" lon="-3.59184">
        <ele>181.3</ele>
        <time>2025-02-25T11:10:07Z</time>
      </trkpt>
      <trkpt lat="48.10727" lon="-3.59184">
        <ele>181.3</ele>
        <time>2025-02-25T11:10:08Z</time>
      </trkpt>
      <trkpt lat="48.10727" lon="-3.59184">
        <ele>181.3</ele>
        <time>2025-02-25T11:10:09Z</time>
      </trkpt>
      <trkpt lat="48.10727" lon="-3.59184">
        <ele>181.3</ele>
        <time>2025-02-25T11:10:10Z</time>
      </trkpt>
      <trkpt lat="48.10727" lon="-3.59184">
        <ele>181.3</ele>
        <time>2025-02-25T11:10:11Z</time>
      </trkpt>
      <trkpt lat="48.10727" lon="-3.59184">
        <ele>181.3</ele>
        <time>2025-02-25T11:10:12Z</time>
      </trkpt>
      <trkpt lat="48.10727" lon="-3.59184">
        <ele>181.3</ele>
        <time>2025-02-25T11:10:13Z</time>
      </trkpt>
      <trkpt lat="48.10727" lon="-3.59184">
        <ele>181.3</ele>
        <time>2025-02-25T11:10:14Z</time>
      </trkpt>
      <trkpt lat="48.10727" lon="-3.59184">
        <ele>181.3</ele>
        <time>2025-02-25T11:10:15Z</time>
      </trkpt>
      <trkpt lat="48.10727" lon="-3.59184">
        <ele>181.3</ele>
        <time>2025-02-25T11:10:16Z</time>
      </trkpt>
      <trkpt lat="48.10727" lon="-3.59184">
        <ele>181.3</ele>
        <time>2025-02-25T11:10:17Z</time>
      </trkpt>
      <trkpt lat="48.10727" lon="-3.59184">
        <ele>181.3</ele>
        <time>2025-02-25T11:10:18Z</time>
      </trkpt>
      <trkpt lat="48.10727" lon="-3.59184">
        <ele>181.3</ele>
        <time>2025-02-25T11:10:19Z</time>
      </trkpt>
      <trkpt lat="48.10727" lon="-3.59184">
        <ele>181.3</ele>
        <time>2025-02-25T11:10:20Z</time>
      </trkpt>
      <trkpt lat="48.10727" lon="-3.59184">
        <ele>181.3</ele>
        <time>2025-02-25T11:10:21Z</time>
      </trkpt>
      <trkpt lat="48.10727" lon="-3.59184">
        <ele>181.3</ele>
        <time>2025-02-25T11:10:22Z</time>
      </trkpt>
      <trkpt lat="48.10727" lon="-3.59184">
        <ele>181.3</ele>
        <time>2025-02-25T11:10:23Z</time>
      </trkpt>
      <trkpt lat="48.10727" lon="-3.59184">
        <ele>181.3</ele>
        <time>2025-02-25T11:10:24Z</time>
      </trkpt>
      <trkpt lat="48.10727" lon="-3.59184">
        <ele>181.3</ele>
        <time>2025-02-25T11:10:25Z</time>
      </trkpt>
      <trkpt lat="48.10727" lon="-3.59184">
        <ele>181.3</ele>
        <time>2025-02-25T11:10:26Z</time>
      </trkpt>
      <trkpt lat="48.10727" lon="-3.59184">
        <ele>181.3</ele>
        <time>2025-02-25T11:10:27Z</time>
      </trkpt>
      <trkpt lat="48.10726" lon="-3.59184">
        <ele>181.3</ele>
        <time>2025-02-25T11:10:28Z</time>
      </trkpt>
      <trkpt lat="48.10726" lon="-3.59184">
        <ele>181.3</ele>
        <time>2025-02-25T11:10:29Z</time>
      </trkpt>
      <trkpt lat="48.10727" lon="-3.59184">
        <ele>181.3</ele>
        <time>2025-02-25T11:10:30Z</time>
      </trkpt>
      <trkpt lat="48.10727" lon="-3.59184">
        <ele>181.3</ele>
        <time>2025-02-25T11:10:31Z</time>
      </trkpt>
      <trkpt lat="48.10727" lon="-3.59184">
        <ele>181.3</ele>
        <time>2025-02-25T11:10:32Z</time>
      </trkpt>
      <trkpt lat="48.10727" lon="-3.59184">
        <ele>181.3</ele>
        <time>2025-02-25T11:10:33Z</time>
      </trkpt>
      <trkpt lat="48.10727" lon="-3.59184">
        <ele>181.3</ele>
        <time>2025-02-25T11:10:34Z</time>
      </trkpt>
      <trkpt lat="48.10728" lon="-3.59186">
        <ele>181.1</ele>
        <time>2025-02-25T11:10:35Z</time>
      </trkpt>
      <trkpt lat="48.10729" lon="-3.59187">
        <ele>181</ele>
        <time>2025-02-25T11:10:36Z</time>
      </trkpt>
      <trkpt lat="48.10728" lon="-3.59189">
        <ele>180.8</ele>
        <time>2025-02-25T11:10:37Z</time>
      </trkpt>
      <trkpt lat="48.10729" lon="-3.5919">
        <ele>180.7</ele>
        <time>2025-02-25T11:10:38Z</time>
      </trkpt>
      <trkpt lat="48.10729" lon="-3.59191">
        <ele>180.6</ele>
        <time>2025-02-25T11:10:39Z</time>
      </trkpt>
      <trkpt lat="48.10729" lon="-3.5919">
        <ele>180.7</ele>
        <time>2025-02-25T11:10:40Z</time>
      </trkpt>
      <trkpt lat="48.10729" lon="-3.59189">
        <ele>180.8</ele>
        <time>2025-02-25T11:10:41Z</time>
      </trkpt>
      <trkpt lat="48.10729" lon="-3.59189">
        <ele>180.8</ele>
        <time>2025-02-25T11:10:42Z</time>
      </trkpt>
      <trkpt lat="48.10729" lon="-3.59189">
        <ele>180.8</ele>
        <time>2025-02-25T11:10:43Z</time>
      </trkpt>
      <trkpt lat="48.10729" lon="-3.59189">
        <ele>180.8</ele>
        <time>2025-02-25T11:10:44Z</time>
      </trkpt>
      <trkpt lat="48.10729" lon="-3.59189">
        <ele>180.8</ele>
        <time>2025-02-25T11:10:45Z</time>
      </trkpt>
      <trkpt lat="48.10729" lon="-3.59189">
        <ele>180.8</ele>
        <time>2025-02-25T11:10:46Z</time>
      </trkpt>
      <trkpt lat="48.10729" lon="-3.59189">
        <ele>180.8</ele>
        <time>2025-02-25T11:10:47Z</time>
      </trkpt>
      <trkpt lat="48.10729" lon="-3.59189">
        <ele>180.8</ele>
        <time>2025-02-25T11:10:48Z</time>
      </trkpt>
      <trkpt lat="48.10729" lon="-3.59189">
        <ele>180.8</ele>
        <time>2025-02-25T11:10:49Z</time>
      </trkpt>
      <trkpt lat="48.10729" lon="-3.59189">
        <ele>180.8</ele>
        <time>2025-02-25T11:10:50Z</time>
      </trkpt>
      <trkpt lat="48.10729" lon="-3.59189">
        <ele>180.8</ele>
        <time>2025-02-25T11:10:51Z</time>
      </trkpt>
      <trkpt lat="48.10729" lon="-3.59189">
        <ele>180.8</ele>
        <time>2025-02-25T11:10:52Z</time>
      </trkpt>
      <trkpt lat="48.10729" lon="-3.59189">
        <ele>180.8</ele>
        <time>2025-02-25T11:10:53Z</time>
      </trkpt>
      <trkpt lat="48.10729" lon="-3.59189">
        <ele>180.8</ele>
        <time>2025-02-25T11:10:54Z</time>
      </trkpt>
      <trkpt lat="48.10729" lon="-3.59189">
        <ele>180.8</ele>
        <time>2025-02-25T11:10:55Z</time>
      </trkpt>
      <trkpt lat="48.10729" lon="-3.59189">
        <ele>180.8</ele>
        <time>2025-02-25T11:10:56Z</time>
      </trkpt>
      <trkpt lat="48.10729" lon="-3.59189">
        <ele>180.8</ele>
        <time>2025-02-25T11:10:57Z</time>
      </trkpt>
      <trkpt lat="48.10729" lon="-3.59189">
        <ele>180.8</ele>
        <time>2025-02-25T11:10:58Z</time>
      </trkpt>
      <trkpt lat="48.10729" lon="-3.59189">
        <ele>180.8</ele>
        <time>2025-02-25T11:10:59Z</time>
      </trkpt>
      <trkpt lat="48.10729" lon="-3.59189">
        <ele>180.8</ele>
        <time>2025-02-25T11:11:00Z</time>
      </trkpt>
      <trkpt lat="48.10729" lon="-3.59189">
        <ele>180.8</ele>
        <time>2025-02-25T11:11:01Z</time>
      </trkpt>
      <trkpt lat="48.10729" lon="-3.59189">
        <ele>180.8</ele>
        <time>2025-02-25T11:11:02Z</time>
      </trkpt>
      <trkpt lat="48.10729" lon="-3.59189">
        <ele>180.8</ele>
        <time>2025-02-25T11:11:03Z</time>
      </trkpt>
      <trkpt lat="48.10729" lon="-3.59189">
        <ele>180.8</ele>
        <time>2025-02-25T11:11:04Z</time>
      </trkpt>
      <trkpt lat="48.10729" lon="-3.59189">
        <ele>180.8</ele>
        <time>2025-02-25T11:11:05Z</time>
      </trkpt>
      <trkpt lat="48.10729" lon="-3.59189">
        <ele>180.8</ele>
        <time>2025-02-25T11:11:06Z</time>
      </trkpt>
      <trkpt lat="48.10729" lon="-3.59189">
        <ele>180.8</ele>
        <time>2025-02-25T11:11:07Z</time>
      </trkpt>
      <trkpt lat="48.10729" lon="-3.59189">
        <ele>180.8</ele>
        <time>2025-02-25T11:11:08Z</time>
      </trkpt>
      <trkpt lat="48.10729" lon="-3.59189">
        <ele>180.8</ele>
        <time>2025-02-25T11:11:09Z</time>
      </trkpt>
      <trkpt lat="48.10729" lon="-3.59189">
        <ele>180.8</ele>
        <time>2025-02-25T11:11:10Z</time>
      </trkpt>
      <trkpt lat="48.10729" lon="-3.59189">
        <ele>180.8</ele>
        <time>2025-02-25T11:11:11Z</time>
      </trkpt>
      <trkpt lat="48.10729" lon="-3.59189">
        <ele>180.8</ele>
        <time>2025-02-25T11:11:12Z</time>
      </trkpt>
      <trkpt lat="48.10729" lon="-3.59189">
        <ele>180.8</ele>
        <time>2025-02-25T11:11:13Z</time>
      </trkpt>
      <trkpt lat="48.10729" lon="-3.59189">
        <ele>180.8</ele>
        <time>2025-02-25T11:11:14Z</time>
      </trkpt>
      <trkpt lat="48.10729" lon="-3.59189">
        <ele>180.8</ele>
        <time>2025-02-25T11:11:15Z</time>
      </trkpt>
      <trkpt lat="48.10729" lon="-3.59189">
        <ele>180.8</ele>
        <time>2025-02-25T11:11:16Z</time>
      </trkpt>
      <trkpt lat="48.10729" lon="-3.59189">
        <ele>180.8</ele>
        <time>2025-02-25T11:11:17Z</time>
      </trkpt>
      <trkpt lat="48.10729" lon="-3.59189">
        <ele>180.8</ele>
        <time>2025-02-25T11:11:18Z</time>
      </trkpt>
      <trkpt lat="48.10729" lon="-3.59189">
        <ele>180.8</ele>
        <time>2025-02-25T11:11:19Z</time>
      </trkpt>
      <trkpt lat="48.10729" lon="-3.59189">
        <ele>180.8</ele>
        <time>2025-02-25T11:11:20Z</time>
      </trkpt>
      <trkpt lat="48.10729" lon="-3.59189">
        <ele>180.8</ele>
        <time>2025-02-25T11:11:21Z</time>
      </trkpt>
      <trkpt lat="48.10729" lon="-3.59189">
        <ele>180.8</ele>
        <time>2025-02-25T11:11:22Z</time>
      </trkpt>
      <trkpt lat="48.10729" lon="-3.59189">
        <ele>180.8</ele>
        <time>2025-02-25T11:11:23Z</time>
      </trkpt>
      <trkpt lat="48.10729" lon="-3.59189">
        <ele>180.8</ele>
        <time>2025-02-25T11:11:24Z</time>
      </trkpt>
      <trkpt lat="48.10729" lon="-3.59189">
        <ele>180.8</ele>
        <time>2025-02-25T11:11:25Z</time>
      </trkpt>
      <trkpt lat="48.10729" lon="-3.59189">
        <ele>180.8</ele>
        <time>2025-02-25T11:11:26Z</time>
      </trkpt>
      <trkpt lat="48.10729" lon="-3.59189">
        <ele>180.8</ele>
        <time>2025-02-25T11:11:27Z</time>
      </trkpt>
      <trkpt lat="48.10729" lon="-3.59189">
        <ele>180.8</ele>
        <time>2025-02-25T11:11:28Z</time>
      </trkpt>
      <trkpt lat="48.10729" lon="-3.59189">
        <ele>180.8</ele>
        <time>2025-02-25T11:11:29Z</time>
      </trkpt>
      <trkpt lat="48.10729" lon="-3.59189">
        <ele>180.8</ele>
        <time>2025-02-25T11:11:30Z</time>
      </trkpt>
      <trkpt lat="48.10729" lon="-3.59189">
        <ele>180.8</ele>
        <time>2025-02-25T11:11:31Z</time>
      </trkpt>
      <trkpt lat="48.10729" lon="-3.59189">
        <ele>180.8</ele>
        <time>2025-02-25T11:11:32Z</time>
      </trkpt>
      <trkpt lat="48.10729" lon="-3.59189">
        <ele>180.8</ele>
        <time>2025-02-25T11:11:33Z</time>
      </trkpt>
      <trkpt lat="48.10729" lon="-3.59189">
        <ele>180.8</ele>
        <time>2025-02-25T11:11:34Z</time>
      </trkpt>
      <trkpt lat="48.10729" lon="-3.59189">
        <ele>180.8</ele>
        <time>2025-02-25T11:11:35Z</time>
      </trkpt>
      <trkpt lat="48.10729" lon="-3.59189">
        <ele>180.8</ele>
        <time>2025-02-25T11:11:36Z</time>
      </trkpt>
      <trkpt lat="48.10729" lon="-3.59189">
        <ele>180.8</ele>
        <time>2025-02-25T11:11:37Z</time>
      </trkpt>
      <trkpt lat="48.10729" lon="-3.59189">
        <ele>180.8</ele>
        <time>2025-02-25T11:11:38Z</time>
      </trkpt>
      <trkpt lat="48.10729" lon="-3.59189">
        <ele>180.8</ele>
        <time>2025-02-25T11:11:39Z</time>
      </trkpt>
      <trkpt lat="48.10729" lon="-3.59189">
        <ele>180.8</ele>
        <time>2025-02-25T11:11:40Z</time>
      </trkpt>
      <trkpt lat="48.10729" lon="-3.59189">
        <ele>180.8</ele>
        <time>2025-02-25T11:11:41Z</time>
      </trkpt>
      <trkpt lat="48.10729" lon="-3.59189">
        <ele>180.8</ele>
        <time>2025-02-25T11:11:42Z</time>
      </trkpt>
      <trkpt lat="48.10729" lon="-3.59189">
        <ele>180.8</ele>
        <time>2025-02-25T11:11:43Z</time>
      </trkpt>
      <trkpt lat="48.10729" lon="-3.59189">
        <ele>180.8</ele>
        <time>2025-02-25T11:11:44Z</time>
      </trkpt>
      <trkpt lat="48.10729" lon="-3.59189">
        <ele>180.8</ele>
        <time>2025-02-25T11:11:45Z</time>
      </trkpt>
      <trkpt lat="48.10729" lon="-3.59189">
        <ele>180.8</ele>
        <time>2025-02-25T11:11:46Z</time>
      </trkpt>
      <trkpt lat="48.10729" lon="-3.59189">
        <ele>180.8</ele>
        <time>2025-02-25T11:11:47Z</time>
      </trkpt>
      <trkpt lat="48.10729" lon="-3.59189">
        <ele>180.8</ele>
        <time>2025-02-25T11:11:48Z</time>
      </trkpt>
      <trkpt lat="48.10729" lon="-3.59189">
        <ele>180.8</ele>
        <time>2025-02-25T11:11:49Z</time>
      </trkpt>
      <trkpt lat="48.10729" lon="-3.59189">
        <ele>180.8</ele>
        <time>2025-02-25T11:11:50Z</time>
      </trkpt>
      <trkpt lat="48.10729" lon="-3.59189">
        <ele>180.8</ele>
        <time>2025-02-25T11:11:51Z</time>
      </trkpt>
      <trkpt lat="48.10729" lon="-3.59189">
        <ele>180.8</ele>
        <time>2025-02-25T11:11:52Z</time>
      </trkpt>
      <trkpt lat="48.10729" lon="-3.59189">
        <ele>180.8</ele>
        <time>2025-02-25T11:11:53Z</time>
      </trkpt>
      <trkpt lat="48.10729" lon="-3.59189">
        <ele>180.8</ele>
        <time>2025-02-25T11:11:54Z</time>
      </trkpt>
      <trkpt lat="48.10729" lon="-3.59189">
        <ele>180.8</ele>
        <time>2025-02-25T11:11:55Z</time>
      </trkpt>
      <trkpt lat="48.10729" lon="-3.59189">
        <ele>180.8</ele>
        <time>2025-02-25T11:11:56Z</time>
      </trkpt>
      <trkpt lat="48.10729" lon="-3.59189">
        <ele>180.8</ele>
        <time>2025-02-25T11:11:57Z</time>
      </trkpt>
      <trkpt lat="48.10729" lon="-3.59189">
        <ele>180.8</ele>
        <time>2025-02-25T11:11:58Z</time>
      </trkpt>
      <trkpt lat="48.10729" lon="-3.59189">
        <ele>180.8</ele>
        <time>2025-02-25T11:11:59Z</time>
      </trkpt>
      <trkpt lat="48.10729" lon="-3.59188">
        <ele>180.9</ele>
        <time>2025-02-25T11:12:00Z</time>
      </trkpt>
      <trkpt lat="48.10729" lon="-3.59188">
        <ele>180.9</ele>
        <time>2025-02-25T11:12:01Z</time>
      </trkpt>
      <trkpt lat="48.10729" lon="-3.59188">
        <ele>180.9</ele>
        <time>2025-02-25T11:12:02Z</time>
      </trkpt>
      <trkpt lat="48.10729" lon="-3.59188">
        <ele>180.9</ele>
        <time>2025-02-25T11:12:03Z</time>
      </trkpt>
      <trkpt lat="48.10729" lon="-3.59188">
        <ele>180.9</ele>
        <time>2025-02-25T11:12:04Z</time>
      </trkpt>
      <trkpt lat="48.10729" lon="-3.59188">
        <ele>180.9</ele>
        <time>2025-02-25T11:12:05Z</time>
      </trkpt>
      <trkpt lat="48.10729" lon="-3.59188">
        <ele>180.9</ele>
        <time>2025-02-25T11:12:06Z</time>
      </trkpt>
      <trkpt lat="48.10729" lon="-3.59188">
        <ele>180.9</ele>
        <time>2025-02-25T11:12:07Z</time>
      </trkpt>
      <trkpt lat="48.10729" lon="-3.59188">
        <ele>180.9</ele>
        <time>2025-02-25T11:12:08Z</time>
      </trkpt>
      <trkpt lat="48.10729" lon="-3.59188">
        <ele>180.9</ele>
        <time>2025-02-25T11:12:09Z</time>
      </trkpt>
      <trkpt lat="48.10729" lon="-3.59188">
        <ele>180.9</ele>
        <time>2025-02-25T11:12:10Z</time>
      </trkpt>
      <trkpt lat="48.10729" lon="-3.59188">
        <ele>180.9</ele>
        <time>2025-02-25T11:12:11Z</time>
      </trkpt>
      <trkpt lat="48.10729" lon="-3.59188">
        <ele>180.9</ele>
        <time>2025-02-25T11:12:12Z</time>
      </trkpt>
      <trkpt lat="48.10729" lon="-3.59188">
        <ele>180.9</ele>
        <time>2025-02-25T11:12:13Z</time>
      </trkpt>
      <trkpt lat="48.10729" lon="-3.59188">
        <ele>180.9</ele>
        <time>2025-02-25T11:12:14Z</time>
      </trkpt>
      <trkpt lat="48.10729" lon="-3.59188">
        <ele>180.9</ele>
        <time>2025-02-25T11:12:15Z</time>
      </trkpt>
      <trkpt lat="48.10729" lon="-3.59188">
        <ele>180.9</ele>
        <time>2025-02-25T11:12:16Z</time>
      </trkpt>
      <trkpt lat="48.10729" lon="-3.59188">
        <ele>180.9</ele>
        <time>2025-02-25T11:12:17Z</time>
      </trkpt>
      <trkpt lat="48.10729" lon="-3.59188">
        <ele>180.9</ele>
        <time>2025-02-25T11:12:18Z</time>
      </trkpt>
      <trkpt lat="48.10729" lon="-3.59188">
        <ele>180.9</ele>
        <time>2025-02-25T11:12:19Z</time>
      </trkpt>
      <trkpt lat="48.10729" lon="-3.59188">
        <ele>180.9</ele>
        <time>2025-02-25T11:12:20Z</time>
      </trkpt>
      <trkpt lat="48.10729" lon="-3.59188">
        <ele>180.9</ele>
        <time>2025-02-25T11:12:21Z</time>
      </trkpt>
      <trkpt lat="48.10729" lon="-3.59188">
        <ele>180.9</ele>
        <time>2025-02-25T11:12:22Z</time>
      </trkpt>
      <trkpt lat="48.10729" lon="-3.59188">
        <ele>180.9</ele>
        <time>2025-02-25T11:12:23Z</time>
      </trkpt>
      <trkpt lat="48.10729" lon="-3.59188">
        <ele>180.9</ele>
        <time>2025-02-25T11:12:24Z</time>
      </trkpt>
      <trkpt lat="48.10729" lon="-3.59188">
        <ele>180.9</ele>
        <time>2025-02-25T11:12:25Z</time>
      </trkpt>
      <trkpt lat="48.10729" lon="-3.59188">
        <ele>180.9</ele>
        <time>2025-02-25T11:12:26Z</time>
      </trkpt>
      <trkpt lat="48.10729" lon="-3.59188">
        <ele>180.9</ele>
        <time>2025-02-25T11:12:27Z</time>
      </trkpt>
      <trkpt lat="48.10729" lon="-3.59188">
        <ele>180.9</ele>
        <time>2025-02-25T11:12:28Z</time>
      </trkpt>
      <trkpt lat="48.10729" lon="-3.59188">
        <ele>180.9</ele>
        <time>2025-02-25T11:12:29Z</time>
      </trkpt>
      <trkpt lat="48.10729" lon="-3.59188">
        <ele>180.9</ele>
        <time>2025-02-25T11:12:30Z</time>
      </trkpt>
      <trkpt lat="48.10729" lon="-3.59188">
        <ele>180.9</ele>
        <time>2025-02-25T11:12:31Z</time>
      </trkpt>
      <trkpt lat="48.10729" lon="-3.59188">
        <ele>180.9</ele>
        <time>2025-02-25T11:12:32.702Z</time>
      </trkpt>
      <trkpt lat="48.10729" lon="-3.59188">
        <ele>180.9</ele>
        <time>2025-02-25T11:12:33.705Z</time>
      </trkpt>
      <trkpt lat="48.10729" lon="-3.59188">
        <ele>180.9</ele>
        <time>2025-02-25T11:12:34.710Z</time>
      </trkpt>
      <trkpt lat="48.10729" lon="-3.59188">
        <ele>180.9</ele>
        <time>2025-02-25T11:12:35.713Z</time>
      </trkpt>
      <trkpt lat="48.10729" lon="-3.59188">
        <ele>180.9</ele>
        <time>2025-02-25T11:12:36.716Z</time>
      </trkpt>
      <trkpt lat="48.10729" lon="-3.59188">
        <ele>180.9</ele>
        <time>2025-02-25T11:12:37.720Z</time>
      </trkpt>
      <trkpt lat="48.10729" lon="-3.59188">
        <ele>180.9</ele>
        <time>2025-02-25T11:12:38.724Z</time>
      </trkpt>
      <trkpt lat="48.10729" lon="-3.59188">
        <ele>180.9</ele>
        <time>2025-02-25T11:12:39.728Z</time>
      </trkpt>
      <trkpt lat="48.10729" lon="-3.59188">
        <ele>180.9</ele>
        <time>2025-02-25T11:12:40.732Z</time>
      </trkpt>
      <trkpt lat="48.10729" lon="-3.59188">
        <ele>180.9</ele>
        <time>2025-02-25T11:12:41.736Z</time>
      </trkpt>
      <trkpt lat="48.10729" lon="-3.59188">
        <ele>180.9</ele>
        <time>2025-02-25T11:12:42.737Z</time>
      </trkpt>
      <trkpt lat="48.10729" lon="-3.59188">
        <ele>180.9</ele>
        <time>2025-02-25T11:12:43.742Z</time>
      </trkpt>
      <trkpt lat="48.10729" lon="-3.59188">
        <ele>180.9</ele>
        <time>2025-02-25T11:12:44.746Z</time>
      </trkpt>
      <trkpt lat="48.10729" lon="-3.59188">
        <ele>180.9</ele>
        <time>2025-02-25T11:12:45.749Z</time>
      </trkpt>
      <trkpt lat="48.10729" lon="-3.59188">
        <ele>180.9</ele>
        <time>2025-02-25T11:12:46.753Z</time>
      </trkpt>
      <trkpt lat="48.10729" lon="-3.59188">
        <ele>180.9</ele>
        <time>2025-02-25T11:12:47.758Z</time>
      </trkpt>
      <trkpt lat="48.10729" lon="-3.59188">
        <ele>180.9</ele>
        <time>2025-02-25T11:12:48.762Z</time>
      </trkpt>
      <trkpt lat="48.10729" lon="-3.59188">
        <ele>180.9</ele>
        <time>2025-02-25T11:12:49.765Z</time>
      </trkpt>
      <trkpt lat="48.10729" lon="-3.59188">
        <ele>180.9</ele>
        <time>2025-02-25T11:12:50.769Z</time>
      </trkpt>
      <trkpt lat="48.10729" lon="-3.59188">
        <ele>180.9</ele>
        <time>2025-02-25T11:12:51.774Z</time>
      </trkpt>
      <trkpt lat="48.10729" lon="-3.59188">
        <ele>180.9</ele>
        <time>2025-02-25T11:12:52.778Z</time>
      </trkpt>
      <trkpt lat="48.10729" lon="-3.59188">
        <ele>180.9</ele>
        <time>2025-02-25T11:12:53.781Z</time>
      </trkpt>
      <trkpt lat="48.10729" lon="-3.59188">
        <ele>180.9</ele>
        <time>2025-02-25T11:12:54.785Z</time>
      </trkpt>
      <trkpt lat="48.10729" lon="-3.59188">
        <ele>180.9</ele>
        <time>2025-02-25T11:12:55.787Z</time>
      </trkpt>
      <trkpt lat="48.10729" lon="-3.59188">
        <ele>180.9</ele>
        <time>2025-02-25T11:12:56.789Z</time>
      </trkpt>
      <trkpt lat="48.10729" lon="-3.59188">
        <ele>180.9</ele>
        <time>2025-02-25T11:12:57.793Z</time>
      </trkpt>
      <trkpt lat="48.10729" lon="-3.59188">
        <ele>180.9</ele>
        <time>2025-02-25T11:12:58.797Z</time>
      </trkpt>
      <trkpt lat="48.10729" lon="-3.59188">
        <ele>180.9</ele>
        <time>2025-02-25T11:12:59.801Z</time>
      </trkpt>
      <trkpt lat="48.10729" lon="-3.59188">
        <ele>180.9</ele>
        <time>2025-02-25T11:13:00.804Z</time>
      </trkpt>
      <trkpt lat="48.10729" lon="-3.59188">
        <ele>180.9</ele>
        <time>2025-02-25T11:13:01.808Z</time>
      </trkpt>
      <trkpt lat="48.10729" lon="-3.59188">
        <ele>180.9</ele>
        <time>2025-02-25T11:13:02.812Z</time>
      </trkpt>
      <trkpt lat="48.10729" lon="-3.59188">
        <ele>180.9</ele>
        <time>2025-02-25T11:13:03.817Z</time>
      </trkpt>
      <trkpt lat="48.10729" lon="-3.59188">
        <ele>180.9</ele>
        <time>2025-02-25T11:13:04.820Z</time>
      </trkpt>
      <trkpt lat="48.10729" lon="-3.59188">
        <ele>180.9</ele>
        <time>2025-02-25T11:13:05.824Z</time>
      </trkpt>
      <trkpt lat="48.10729" lon="-3.59188">
        <ele>180.9</ele>
        <time>2025-02-25T11:13:06.826Z</time>
      </trkpt>
      <trkpt lat="48.10729" lon="-3.59188">
        <ele>180.9</ele>
        <time>2025-02-25T11:13:07.828Z</time>
      </trkpt>
      <trkpt lat="48.10729" lon="-3.59188">
        <ele>180.9</ele>
        <time>2025-02-25T11:13:08.832Z</time>
      </trkpt>
      <trkpt lat="48.10729" lon="-3.59188">
        <ele>180.9</ele>
        <time>2025-02-25T11:13:09.834Z</time>
      </trkpt>
      <trkpt lat="48.10729" lon="-3.59188">
        <ele>180.9</ele>
        <time>2025-02-25T11:13:10.837Z</time>
      </trkpt>
      <trkpt lat="48.10729" lon="-3.59188">
        <ele>180.9</ele>
        <time>2025-02-25T11:13:11.842Z</time>
      </trkpt>
      <trkpt lat="48.10729" lon="-3.59188">
        <ele>180.9</ele>
        <time>2025-02-25T11:13:12.845Z</time>
      </trkpt>
      <trkpt lat="48.10729" lon="-3.59188">
        <ele>180.9</ele>
        <time>2025-02-25T11:13:13.850Z</time>
      </trkpt>
      <trkpt lat="48.10729" lon="-3.59188">
        <ele>180.9</ele>
        <time>2025-02-25T11:13:14.853Z</time>
      </trkpt>
      <trkpt lat="48.10729" lon="-3.59188">
        <ele>180.9</ele>
        <time>2025-02-25T11:13:15.857Z</time>
      </trkpt>
      <trkpt lat="48.10729" lon="-3.59188">
        <ele>180.9</ele>
        <time>2025-02-25T11:13:16.860Z</time>
      </trkpt>
      <trkpt lat="48.10729" lon="-3.59188">
        <ele>180.9</ele>
        <time>2025-02-25T11:13:17.864Z</time>
      </trkpt>
      <trkpt lat="48.10729" lon="-3.59188">
        <ele>180.9</ele>
        <time>2025-02-25T11:13:18.868Z</time>
      </trkpt>
      <trkpt lat="48.10729" lon="-3.59188">
        <ele>180.9</ele>
        <time>2025-02-25T11:13:19.873Z</time>
      </trkpt>
      <trkpt lat="48.10729" lon="-3.59188">
        <ele>180.9</ele>
        <time>2025-02-25T11:13:20.874Z</time>
      </trkpt>
      <trkpt lat="48.10729" lon="-3.59188">
        <ele>180.9</ele>
        <time>2025-02-25T11:13:21.878Z</time>
      </trkpt>
      <trkpt lat="48.10729" lon="-3.59188">
        <ele>180.9</ele>
        <time>2025-02-25T11:13:22.882Z</time>
      </trkpt>
      <trkpt lat="48.10729" lon="-3.59188">
        <ele>180.9</ele>
        <time>2025-02-25T11:13:23.886Z</time>
      </trkpt>
      <trkpt lat="48.10729" lon="-3.59188">
        <ele>180.9</ele>
        <time>2025-02-25T11:13:24.889Z</time>
      </trkpt>
      <trkpt lat="48.10729" lon="-3.59188">
        <ele>180.9</ele>
        <time>2025-02-25T11:13:25.893Z</time>
      </trkpt>
      <trkpt lat="48.10729" lon="-3.59188">
        <ele>180.9</ele>
        <time>2025-02-25T11:13:26.898Z</time>
      </trkpt>
      <trkpt lat="48.10729" lon="-3.59188">
        <ele>180.9</ele>
        <time>2025-02-25T11:13:27.901Z</time>
      </trkpt>
      <trkpt lat="48.10729" lon="-3.59188">
        <ele>180.9</ele>
        <time>2025-02-25T11:13:28.905Z</time>
      </trkpt>
      <trkpt lat="48.10729" lon="-3.59188">
        <ele>180.9</ele>
        <time>2025-02-25T11:13:29.909Z</time>
      </trkpt>
      <trkpt lat="48.10729" lon="-3.59188">
        <ele>180.9</ele>
        <time>2025-02-25T11:13:30.914Z</time>
      </trkpt>
      <trkpt lat="48.10729" lon="-3.59188">
        <ele>180.9</ele>
        <time>2025-02-25T11:13:31.917Z</time>
      </trkpt>
      <trkpt lat="48.10729" lon="-3.59188">
        <ele>180.9</ele>
        <time>2025-02-25T11:13:32.921Z</time>
      </trkpt>
      <trkpt lat="48.10729" lon="-3.59188">
        <ele>180.9</ele>
        <time>2025-02-25T11:13:33.924Z</time>
      </trkpt>
      <trkpt lat="48.10729" lon="-3.59188">
        <ele>180.9</ele>
        <time>2025-02-25T11:13:34.927Z</time>
      </trkpt>
      <trkpt lat="48.10729" lon="-3.59188">
        <ele>180.9</ele>
        <time>2025-02-25T11:13:35.932Z</time>
      </trkpt>
      <trkpt lat="48.10729" lon="-3.59188">
        <ele>180.9</ele>
        <time>2025-02-25T11:13:36.935Z</time>
      </trkpt>
      <trkpt lat="48.10729" lon="-3.59188">
        <ele>180.9</ele>
        <time>2025-02-25T11:13:37.937Z</time>
      </trkpt>
      <trkpt lat="48.10729" lon="-3.59188">
        <ele>180.9</ele>
        <time>2025-02-25T11:13:38.939Z</time>
      </trkpt>
      <trkpt lat="48.10729" lon="-3.59188">
        <ele>180.9</ele>
        <time>2025-02-25T11:13:39.941Z</time>
      </trkpt>
      <trkpt lat="48.10729" lon="-3.59188">
        <ele>180.9</ele>
        <time>2025-02-25T11:13:40.944Z</time>
      </trkpt>
      <trkpt lat="48.10729" lon="-3.59188">
        <ele>180.9</ele>
        <time>2025-02-25T11:13:41.948Z</time>
      </trkpt>
      <trkpt lat="48.10729" lon="-3.59188">
        <ele>180.9</ele>
        <time>2025-02-25T11:13:42.952Z</time>
      </trkpt>
      <trkpt lat="48.10729" lon="-3.59188">
        <ele>180.9</ele>
        <time>2025-02-25T11:13:43.956Z</time>
      </trkpt>
      <trkpt lat="48.10729" lon="-3.59188">
        <ele>180.9</ele>
        <time>2025-02-25T11:13:44.959Z</time>
      </trkpt>
      <trkpt lat="48.10729" lon="-3.59188">
        <ele>180.9</ele>
        <time>2025-02-25T11:13:45.961Z</time>
      </trkpt>
      <trkpt lat="48.10729" lon="-3.59188">
        <ele>180.9</ele>
        <time>2025-02-25T11:13:46.964Z</time>
      </trkpt>
      <trkpt lat="48.10729" lon="-3.59188">
        <ele>180.9</ele>
        <time>2025-02-25T11:13:47.968Z</time>
      </trkpt>
      <trkpt lat="48.10729" lon="-3.59188">
        <ele>180.9</ele>
        <time>2025-02-25T11:13:48.973Z</time>
      </trkpt>
      <trkpt lat="48.10729" lon="-3.59188">
        <ele>180.9</ele>
        <time>2025-02-25T11:13:49.976Z</time>
      </trkpt>
      <trkpt lat="48.10729" lon="-3.59188">
        <ele>180.9</ele>
        <time>2025-02-25T11:13:50.980Z</time>
      </trkpt>
      <trkpt lat="48.10729" lon="-3.59188">
        <ele>180.9</ele>
        <time>2025-02-25T11:13:51.982Z</time>
      </trkpt>
      <trkpt lat="48.10729" lon="-3.59188">
        <ele>180.9</ele>
        <time>2025-02-25T11:13:52.986Z</time>
      </trkpt>
      <trkpt lat="48.10729" lon="-3.59188">
        <ele>180.9</ele>
        <time>2025-02-25T11:13:53.990Z</time>
      </trkpt>
      <trkpt lat="48.10729" lon="-3.59188">
        <ele>180.9</ele>
        <time>2025-02-25T11:13:54.993Z</time>
      </trkpt>
      <trkpt lat="48.10729" lon="-3.59188">
        <ele>180.9</ele>
        <time>2025-02-25T11:13:55.997Z</time>
      </trkpt>
      <trkpt lat="48.10729" lon="-3.59188">
        <ele>180.9</ele>
        <time>2025-02-25T11:13:56.999Z</time>
      </trkpt>
      <trkpt lat="48.10729" lon="-3.59188">
        <ele>180.9</ele>
        <time>2025-02-25T11:13:58.003Z</time>
      </trkpt>
      <trkpt lat="48.10729" lon="-3.59188">
        <ele>180.9</ele>
        <time>2025-02-25T11:13:59.007Z</time>
      </trkpt>
      <trkpt lat="48.10729" lon="-3.59188">
        <ele>180.9</ele>
        <time>2025-02-25T11:14:00.011Z</time>
      </trkpt>
      <trkpt lat="48.10729" lon="-3.59188">
        <ele>180.9</ele>
        <time>2025-02-25T11:14:01.014Z</time>
      </trkpt>
      <trkpt lat="48.10729" lon="-3.59188">
        <ele>180.9</ele>
        <time>2025-02-25T11:14:02.018Z</time>
      </trkpt>
      <trkpt lat="48.10729" lon="-3.59188">
        <ele>180.9</ele>
        <time>2025-02-25T11:14:03.021Z</time>
      </trkpt>
      <trkpt lat="48.10729" lon="-3.59188">
        <ele>180.9</ele>
        <time>2025-02-25T11:14:04.023Z</time>
      </trkpt>
      <trkpt lat="48.10729" lon="-3.59188">
        <ele>180.9</ele>
        <time>2025-02-25T11:14:05.027Z</time>
      </trkpt>
      <trkpt lat="48.10729" lon="-3.59188">
        <ele>180.9</ele>
        <time>2025-02-25T11:14:06.028Z</time>
      </trkpt>
      <trkpt lat="48.10729" lon="-3.59188">
        <ele>180.9</ele>
        <time>2025-02-25T11:14:07.032Z</time>
      </trkpt>
      <trkpt lat="48.10729" lon="-3.59188">
        <ele>180.9</ele>
        <time>2025-02-25T11:14:08.036Z</time>
      </trkpt>
      <trkpt lat="48.10729" lon="-3.59188">
        <ele>180.9</ele>
        <time>2025-02-25T11:14:09.041Z</time>
      </trkpt>
      <trkpt lat="48.10729" lon="-3.59188">
        <ele>180.9</ele>
        <time>2025-02-25T11:14:10.044Z</time>
      </trkpt>
      <trkpt lat="48.10729" lon="-3.59188">
        <ele>180.9</ele>
        <time>2025-02-25T11:14:11.048Z</time>
      </trkpt>
      <trkpt lat="48.10729" lon="-3.59188">
        <ele>180.9</ele>
        <time>2025-02-25T11:14:12.052Z</time>
      </trkpt>
      <trkpt lat="48.10729" lon="-3.59188">
        <ele>180.9</ele>
        <time>2025-02-25T11:14:13.054Z</time>
      </trkpt>
      <trkpt lat="48.10729" lon="-3.59188">
        <ele>180.9</ele>
        <time>2025-02-25T11:14:14.057Z</time>
      </trkpt>
      <trkpt lat="48.10729" lon="-3.59188">
        <ele>180.9</ele>
        <time>2025-02-25T11:14:15.060Z</time>
      </trkpt>
      <trkpt lat="48.10729" lon="-3.59188">
        <ele>180.9</ele>
        <time>2025-02-25T11:14:16.062Z</time>
      </trkpt>
      <trkpt lat="48.10729" lon="-3.59188">
        <ele>180.9</ele>
        <time>2025-02-25T11:14:17.064Z</time>
      </trkpt>
      <trkpt lat="48.10729" lon="-3.59188">
        <ele>180.9</ele>
        <time>2025-02-25T11:14:18.066Z</time>
      </trkpt>
      <trkpt lat="48.10729" lon="-3.59188">
        <ele>180.9</ele>
        <time>2025-02-25T11:14:19.071Z</time>
      </trkpt>
      <trkpt lat="48.10729" lon="-3.59188">
        <ele>180.9</ele>
        <time>2025-02-25T11:14:20.074Z</time>
      </trkpt>
      <trkpt lat="48.10729" lon="-3.59188">
        <ele>180.9</ele>
        <time>2025-02-25T11:14:21.077Z</time>
      </trkpt>
      <trkpt lat="48.10729" lon="-3.59188">
        <ele>180.9</ele>
        <time>2025-02-25T11:14:22.080Z</time>
      </trkpt>
      <trkpt lat="48.10729" lon="-3.59188">
        <ele>180.9</ele>
        <time>2025-02-25T11:14:23.081Z</time>
      </trkpt>
      <trkpt lat="48.10729" lon="-3.59188">
        <ele>180.9</ele>
        <time>2025-02-25T11:14:24.084Z</time>
      </trkpt>
      <trkpt lat="48.10729" lon="-3.59188">
        <ele>180.9</ele>
        <time>2025-02-25T11:14:25.088Z</time>
      </trkpt>
      <trkpt lat="48.10729" lon="-3.59188">
        <ele>180.9</ele>
        <time>2025-02-25T11:14:26.093Z</time>
      </trkpt>
      <trkpt lat="48.10729" lon="-3.59188">
        <ele>180.9</ele>
        <time>2025-02-25T11:14:27.096Z</time>
      </trkpt>
      <trkpt lat="48.10729" lon="-3.59188">
        <ele>180.9</ele>
        <time>2025-02-25T11:14:28.100Z</time>
      </trkpt>
      <trkpt lat="48.10729" lon="-3.59188">
        <ele>180.9</ele>
        <time>2025-02-25T11:14:29.104Z</time>
      </trkpt>
      <trkpt lat="48.10729" lon="-3.59188">
        <ele>180.9</ele>
        <time>2025-02-25T11:14:30.108Z</time>
      </trkpt>
      <trkpt lat="48.10729" lon="-3.59188">
        <ele>180.9</ele>
        <time>2025-02-25T11:14:31.112Z</time>
      </trkpt>
      <trkpt lat="48.10729" lon="-3.59188">
        <ele>180.9</ele>
        <time>2025-02-25T11:14:32.114Z</time>
      </trkpt>
      <trkpt lat="48.10729" lon="-3.59188">
        <ele>180.9</ele>
        <time>2025-02-25T11:14:33.118Z</time>
      </trkpt>
      <trkpt lat="48.10729" lon="-3.59188">
        <ele>180.9</ele>
        <time>2025-02-25T11:14:34.123Z</time>
      </trkpt>
      <trkpt lat="48.10729" lon="-3.59188">
        <ele>180.9</ele>
        <time>2025-02-25T11:14:35.126Z</time>
      </trkpt>
      <trkpt lat="48.10729" lon="-3.59188">
        <ele>180.9</ele>
        <time>2025-02-25T11:14:36.130Z</time>
      </trkpt>
      <trkpt lat="48.10729" lon="-3.59188">
        <ele>180.9</ele>
        <time>2025-02-25T11:14:37.134Z</time>
      </trkpt>
      <trkpt lat="48.10729" lon="-3.59188">
        <ele>180.9</ele>
        <time>2025-02-25T11:14:38.138Z</time>
      </trkpt>
      <trkpt lat="48.10729" lon="-3.59188">
        <ele>180.9</ele>
        <time>2025-02-25T11:14:39.142Z</time>
      </trkpt>
      <trkpt lat="48.10729" lon="-3.59188">
        <ele>180.9</ele>
        <time>2025-02-25T11:14:40.147Z</time>
      </trkpt>
      <trkpt lat="48.10729" lon="-3.59188">
        <ele>180.9</ele>
        <time>2025-02-25T11:14:41.150Z</time>
      </trkpt>
      <trkpt lat="48.10729" lon="-3.59188">
        <ele>180.9</ele>
        <time>2025-02-25T11:14:42.152Z</time>
      </trkpt>
      <trkpt lat="48.10729" lon="-3.59188">
        <ele>180.9</ele>
        <time>2025-02-25T11:14:43.154Z</time>
      </trkpt>
      <trkpt lat="48.10729" lon="-3.59188">
        <ele>180.9</ele>
        <time>2025-02-25T11:14:44.158Z</time>
      </trkpt>
      <trkpt lat="48.10729" lon="-3.59188">
        <ele>180.9</ele>
        <time>2025-02-25T11:14:45.160Z</time>
      </trkpt>
      <trkpt lat="48.10729" lon="-3.59188">
        <ele>180.9</ele>
        <time>2025-02-25T11:14:46.162Z</time>
      </trkpt>
      <trkpt lat="48.10729" lon="-3.59188">
        <ele>180.9</ele>
        <time>2025-02-25T11:14:47.164Z</time>
      </trkpt>
      <trkpt lat="48.10729" lon="-3.59188">
        <ele>180.9</ele>
        <time>2025-02-25T11:14:48.168Z</time>
      </trkpt>
      <trkpt lat="48.10729" lon="-3.59188">
        <ele>180.9</ele>
        <time>2025-02-25T11:14:49.172Z</time>
      </trkpt>
      <trkpt lat="48.10729" lon="-3.59188">
        <ele>180.9</ele>
        <time>2025-02-25T11:14:50.176Z</time>
      </trkpt>
      <trkpt lat="48.10729" lon="-3.59188">
        <ele>180.9</ele>
        <time>2025-02-25T11:14:51.181Z</time>
      </trkpt>
      <trkpt lat="48.10729" lon="-3.59188">
        <ele>180.9</ele>
        <time>2025-02-25T11:14:52.184Z</time>
      </trkpt>
      <trkpt lat="48.10729" lon="-3.59188">
        <ele>180.9</ele>
        <time>2025-02-25T11:14:53.186Z</time>
      </trkpt>
      <trkpt lat="48.10729" lon="-3.59188">
        <ele>180.9</ele>
        <time>2025-02-25T11:14:54.189Z</time>
      </trkpt>
      <trkpt lat="48.10729" lon="-3.59188">
        <ele>180.9</ele>
        <time>2025-02-25T11:14:55.191Z</time>
      </trkpt>
      <trkpt lat="48.10729" lon="-3.59188">
        <ele>180.9</ele>
        <time>2025-02-25T11:14:56.193Z</time>
      </trkpt>
      <trkpt lat="48.10729" lon="-3.59188">
        <ele>180.9</ele>
        <time>2025-02-25T11:14:57.196Z</time>
      </trkpt>
      <trkpt lat="48.10729" lon="-3.59188">
        <ele>180.9</ele>
        <time>2025-02-25T11:14:58.201Z</time>
      </trkpt>
      <trkpt lat="48.10729" lon="-3.59188">
        <ele>180.9</ele>
        <time>2025-02-25T11:14:59.204Z</time>
      </trkpt>
      <trkpt lat="48.10729" lon="-3.59188">
        <ele>180.9</ele>
        <time>2025-02-25T11:15:00.208Z</time>
      </trkpt>
      <trkpt lat="48.10729" lon="-3.59188">
        <ele>180.9</ele>
        <time>2025-02-25T11:15:01.212Z</time>
      </trkpt>
      <trkpt lat="48.10729" lon="-3.59188">
        <ele>180.9</ele>
        <time>2025-02-25T11:15:02.214Z</time>
      </trkpt>
      <trkpt lat="48.10729" lon="-3.59188">
        <ele>180.9</ele>
        <time>2025-02-25T11:15:03.216Z</time>
      </trkpt>
      <trkpt lat="48.10729" lon="-3.59188">
        <ele>180.9</ele>
        <time>2025-02-25T11:15:04.220Z</time>
      </trkpt>
      <trkpt lat="48.10729" lon="-3.59188">
        <ele>180.9</ele>
        <time>2025-02-25T11:15:05.224Z</time>
      </trkpt>
      <trkpt lat="48.10729" lon="-3.59188">
        <ele>180.9</ele>
        <time>2025-02-25T11:15:06.228Z</time>
      </trkpt>
      <trkpt lat="48.10729" lon="-3.59188">
        <ele>180.9</ele>
        <time>2025-02-25T11:15:07.231Z</time>
      </trkpt>
      <trkpt lat="48.10729" lon="-3.59188">
        <ele>180.9</ele>
        <time>2025-02-25T11:15:08.235Z</time>
      </trkpt>
      <trkpt lat="48.10729" lon="-3.59188">
        <ele>180.9</ele>
        <time>2025-02-25T11:15:09.239Z</time>
      </trkpt>
      <trkpt lat="48.10729" lon="-3.59188">
        <ele>180.9</ele>
        <time>2025-02-25T11:15:10.243Z</time>
      </trkpt>
      <trkpt lat="48.10729" lon="-3.59188">
        <ele>180.9</ele>
        <time>2025-02-25T11:15:11.246Z</time>
      </trkpt>
      <trkpt lat="48.10729" lon="-3.59188">
        <ele>180.9</ele>
        <time>2025-02-25T11:15:12.249Z</time>
      </trkpt>
      <trkpt lat="48.10729" lon="-3.59188">
        <ele>180.9</ele>
        <time>2025-02-25T11:15:13.252Z</time>
      </trkpt>
      <trkpt lat="48.10729" lon="-3.59188">
        <ele>180.9</ele>
        <time>2025-02-25T11:15:14.257Z</time>
      </trkpt>
      <trkpt lat="48.10729" lon="-3.59188">
        <ele>180.9</ele>
        <time>2025-02-25T11:15:15.260Z</time>
      </trkpt>
      <trkpt lat="48.10729" lon="-3.59188">
        <ele>180.9</ele>
        <time>2025-02-25T11:15:16.264Z</time>
      </trkpt>
      <trkpt lat="48.10729" lon="-3.59188">
        <ele>180.9</ele>
        <time>2025-02-25T11:15:17.268Z</time>
      </trkpt>
      <trkpt lat="48.10729" lon="-3.59188">
        <ele>180.9</ele>
        <time>2025-02-25T11:15:18.272Z</time>
      </trkpt>
      <trkpt lat="48.10729" lon="-3.59188">
        <ele>180.9</ele>
        <time>2025-02-25T11:15:19.276Z</time>
      </trkpt>
      <trkpt lat="48.10729" lon="-3.59188">
        <ele>180.9</ele>
        <time>2025-02-25T11:15:20.281Z</time>
      </trkpt>
      <trkpt lat="48.10729" lon="-3.59188">
        <ele>180.9</ele>
        <time>2025-02-25T11:15:21.284Z</time>
      </trkpt>
      <trkpt lat="48.10729" lon="-3.59188">
        <ele>180.9</ele>
        <time>2025-02-25T11:15:22.288Z</time>
      </trkpt>
      <trkpt lat="48.10729" lon="-3.59188">
        <ele>180.9</ele>
        <time>2025-02-25T11:15:23.293Z</time>
      </trkpt>
      <trkpt lat="48.10729" lon="-3.59188">
        <ele>180.9</ele>
        <time>2025-02-25T11:15:24.295Z</time>
      </trkpt>
      <trkpt lat="48.10729" lon="-3.59188">
        <ele>180.9</ele>
        <time>2025-02-25T11:15:25.299Z</time>
      </trkpt>
      <trkpt lat="48.10729" lon="-3.59188">
        <ele>180.9</ele>
        <time>2025-02-25T11:15:26.302Z</time>
      </trkpt>
      <trkpt lat="48.10729" lon="-3.59188">
        <ele>180.9</ele>
        <time>2025-02-25T11:15:27.305Z</time>
      </trkpt>
      <trkpt lat="48.10729" lon="-3.59188">
        <ele>180.9</ele>
        <time>2025-02-25T11:15:28.309Z</time>
      </trkpt>
      <trkpt lat="48.10729" lon="-3.59188">
        <ele>180.9</ele>
        <time>2025-02-25T11:15:29.313Z</time>
      </trkpt>
      <trkpt lat="48.10729" lon="-3.59188">
        <ele>180.9</ele>
        <time>2025-02-25T11:15:30.318Z</time>
      </trkpt>
      <trkpt lat="48.10729" lon="-3.59188">
        <ele>180.9</ele>
        <time>2025-02-25T11:15:31.322Z</time>
      </trkpt>
      <trkpt lat="48.10729" lon="-3.59188">
        <ele>180.9</ele>
        <time>2025-02-25T11:15:32.325Z</time>
      </trkpt>
      <trkpt lat="48.10729" lon="-3.59188">
        <ele>180.9</ele>
        <time>2025-02-25T11:15:33.328Z</time>
      </trkpt>
      <trkpt lat="48.10729" lon="-3.59188">
        <ele>180.9</ele>
        <time>2025-02-25T11:15:34.332Z</time>
      </trkpt>
      <trkpt lat="48.10729" lon="-3.59188">
        <ele>180.9</ele>
        <time>2025-02-25T11:15:35.337Z</time>
      </trkpt>
      <trkpt lat="48.10729" lon="-3.59188">
        <ele>180.9</ele>
        <time>2025-02-25T11:15:36.340Z</time>
      </trkpt>
      <trkpt lat="48.10729" lon="-3.59188">
        <ele>180.9</ele>
        <time>2025-02-25T11:15:37.342Z</time>
      </trkpt>
      <trkpt lat="48.10729" lon="-3.59188">
        <ele>180.9</ele>
        <time>2025-02-25T11:15:38.346Z</time>
      </trkpt>
      <trkpt lat="48.10729" lon="-3.59188">
        <ele>180.9</ele>
        <time>2025-02-25T11:15:39.350Z</time>
      </trkpt>
      <trkpt lat="48.10729" lon="-3.59188">
        <ele>180.9</ele>
        <time>2025-02-25T11:15:40.354Z</time>
      </trkpt>
      <trkpt lat="48.10729" lon="-3.59188">
        <ele>180.9</ele>
        <time>2025-02-25T11:15:41.358Z</time>
      </trkpt>
      <trkpt lat="48.10729" lon="-3.59188">
        <ele>180.9</ele>
        <time>2025-02-25T11:15:42.362Z</time>
      </trkpt>
      <trkpt lat="48.10729" lon="-3.59188">
        <ele>180.9</ele>
        <time>2025-02-25T11:15:43.365Z</time>
      </trkpt>
      <trkpt lat="48.10729" lon="-3.59188">
        <ele>180.9</ele>
        <time>2025-02-25T11:15:44.367Z</time>
      </trkpt>
      <trkpt lat="48.10729" lon="-3.59188">
        <ele>180.9</ele>
        <time>2025-02-25T11:15:45.371Z</time>
      </trkpt>
      <trkpt lat="48.10729" lon="-3.59188">
        <ele>180.9</ele>
        <time>2025-02-25T11:15:46.373Z</time>
      </trkpt>
      <trkpt lat="48.10729" lon="-3.59188">
        <ele>180.9</ele>
        <time>2025-02-25T11:15:47.375Z</time>
      </trkpt>
      <trkpt lat="48.10729" lon="-3.59188">
        <ele>180.9</ele>
        <time>2025-02-25T11:15:48.379Z</time>
      </trkpt>
      <trkpt lat="48.10729" lon="-3.59188">
        <ele>180.9</ele>
        <time>2025-02-25T11:15:49.380Z</time>
      </trkpt>
      <trkpt lat="48.10729" lon="-3.59188">
        <ele>180.9</ele>
        <time>2025-02-25T11:15:50.382Z</time>
      </trkpt>
      <trkpt lat="48.10729" lon="-3.59188">
        <ele>180.9</ele>
        <time>2025-02-25T11:15:51.385Z</time>
      </trkpt>
      <trkpt lat="48.10729" lon="-3.59188">
        <ele>180.9</ele>
        <time>2025-02-25T11:15:52.388Z</time>
      </trkpt>
      <trkpt lat="48.10729" lon="-3.59188">
        <ele>180.9</ele>
        <time>2025-02-25T11:15:53.391Z</time>
      </trkpt>
      <trkpt lat="48.10729" lon="-3.59188">
        <ele>180.9</ele>
        <time>2025-02-25T11:15:54.394Z</time>
      </trkpt>
      <trkpt lat="48.10729" lon="-3.59188">
        <ele>180.9</ele>
        <time>2025-02-25T11:15:55.395Z</time>
      </trkpt>
      <trkpt lat="48.10729" lon="-3.59188">
        <ele>180.9</ele>
        <time>2025-02-25T11:15:56.399Z</time>
      </trkpt>
      <trkpt lat="48.10729" lon="-3.59188">
        <ele>180.9</ele>
        <time>2025-02-25T11:15:57.403Z</time>
      </trkpt>
      <trkpt lat="48.10729" lon="-3.59188">
        <ele>180.9</ele>
        <time>2025-02-25T11:15:58.405Z</time>
      </trkpt>
      <trkpt lat="48.10729" lon="-3.59188">
        <ele>180.9</ele>
        <time>2025-02-25T11:15:59.408Z</time>
      </trkpt>
      <trkpt lat="48.10729" lon="-3.59188">
        <ele>180.9</ele>
        <time>2025-02-25T11:16:00.413Z</time>
      </trkpt>
      <trkpt lat="48.10729" lon="-3.59188">
        <ele>180.9</ele>
        <time>2025-02-25T11:16:01.417Z</time>
      </trkpt>
      <trkpt lat="48.10729" lon="-3.59188">
        <ele>180.9</ele>
        <time>2025-02-25T11:16:02.420Z</time>
      </trkpt>
      <trkpt lat="48.10729" lon="-3.59188">
        <ele>180.9</ele>
        <time>2025-02-25T11:16:03.425Z</time>
      </trkpt>
      <trkpt lat="48.10729" lon="-3.59188">
        <ele>180.9</ele>
        <time>2025-02-25T11:16:04.428Z</time>
      </trkpt>
      <trkpt lat="48.10729" lon="-3.59188">
        <ele>180.9</ele>
        <time>2025-02-25T11:16:05.432Z</time>
      </trkpt>
      <trkpt lat="48.10729" lon="-3.59188">
        <ele>180.9</ele>
        <time>2025-02-25T11:16:06.435Z</time>
      </trkpt>
      <trkpt lat="48.10729" lon="-3.59188">
        <ele>180.9</ele>
        <time>2025-02-25T11:16:07.440Z</time>
      </trkpt>
      <trkpt lat="48.10729" lon="-3.59188">
        <ele>180.9</ele>
        <time>2025-02-25T11:16:08.443Z</time>
      </trkpt>
      <trkpt lat="48.10729" lon="-3.59188">
        <ele>180.9</ele>
        <time>2025-02-25T11:16:09.447Z</time>
      </trkpt>
      <trkpt lat="48.10729" lon="-3.59188">
        <ele>180.9</ele>
        <time>2025-02-25T11:16:10.452Z</time>
      </trkpt>
      <trkpt lat="48.10729" lon="-3.59188">
        <ele>180.9</ele>
        <time>2025-02-25T11:16:11.455Z</time>
      </trkpt>
      <trkpt lat="48.10729" lon="-3.59188">
        <ele>180.9</ele>
        <time>2025-02-25T11:16:12.458Z</time>
      </trkpt>
      <trkpt lat="48.10729" lon="-3.59188">
        <ele>180.9</ele>
        <time>2025-02-25T11:16:13.462Z</time>
      </trkpt>
      <trkpt lat="48.10729" lon="-3.59188">
        <ele>180.9</ele>
        <time>2025-02-25T11:16:14.464Z</time>
      </trkpt>
      <trkpt lat="48.10729" lon="-3.59188">
        <ele>180.9</ele>
        <time>2025-02-25T11:16:15.467Z</time>
      </trkpt>
      <trkpt lat="48.10729" lon="-3.59188">
        <ele>180.9</ele>
        <time>2025-02-25T11:16:16.470Z</time>
      </trkpt>
      <trkpt lat="48.10729" lon="-3.59188">
        <ele>180.9</ele>
        <time>2025-02-25T11:16:17.474Z</time>
      </trkpt>
      <trkpt lat="48.10729" lon="-3.59188">
        <ele>180.9</ele>
        <time>2025-02-25T11:16:18.478Z</time>
      </trkpt>
      <trkpt lat="48.10729" lon="-3.59188">
        <ele>180.9</ele>
        <time>2025-02-25T11:16:19.482Z</time>
      </trkpt>
      <trkpt lat="48.10729" lon="-3.59188">
        <ele>180.9</ele>
        <time>2025-02-25T11:16:20.486Z</time>
      </trkpt>
      <trkpt lat="48.10729" lon="-3.59188">
        <ele>180.9</ele>
        <time>2025-02-25T11:16:21.489Z</time>
      </trkpt>
      <trkpt lat="48.10729" lon="-3.59188">
        <ele>180.9</ele>
        <time>2025-02-25T11:16:22.494Z</time>
      </trkpt>
      <trkpt lat="48.10729" lon="-3.59188">
        <ele>180.9</ele>
        <time>2025-02-25T11:16:23.498Z</time>
      </trkpt>
      <trkpt lat="48.10729" lon="-3.59188">
        <ele>180.9</ele>
        <time>2025-02-25T11:16:24.500Z</time>
      </trkpt>
      <trkpt lat="48.10729" lon="-3.59188">
        <ele>180.9</ele>
        <time>2025-02-25T11:16:25.503Z</time>
      </trkpt>
      <trkpt lat="48.10729" lon="-3.59188">
        <ele>180.9</ele>
        <time>2025-02-25T11:16:26.507Z</time>
      </trkpt>
      <trkpt lat="48.10729" lon="-3.59188">
        <ele>180.9</ele>
        <time>2025-02-25T11:16:27.511Z</time>
      </trkpt>
      <trkpt lat="48.10729" lon="-3.59188">
        <ele>180.9</ele>
        <time>2025-02-25T11:16:28.514Z</time>
      </trkpt>
      <trkpt lat="48.10729" lon="-3.59188">
        <ele>180.9</ele>
        <time>2025-02-25T11:16:29.517Z</time>
      </trkpt>
      <trkpt lat="48.10729" lon="-3.59188">
        <ele>180.9</ele>
        <time>2025-02-25T11:16:30.520Z</time>
      </trkpt>
      <trkpt lat="48.10729" lon="-3.59188">
        <ele>180.9</ele>
        <time>2025-02-25T11:16:31.524Z</time>
      </trkpt>
      <trkpt lat="48.10729" lon="-3.59188">
        <ele>180.9</ele>
        <time>2025-02-25T11:16:32.528Z</time>
      </trkpt>
      <trkpt lat="48.10729" lon="-3.59188">
        <ele>180.9</ele>
        <time>2025-02-25T11:16:33.533Z</time>
      </trkpt>
      <trkpt lat="48.10729" lon="-3.59188">
        <ele>180.9</ele>
        <time>2025-02-25T11:16:34.536Z</time>
      </trkpt>
      <trkpt lat="48.10729" lon="-3.59188">
        <ele>180.9</ele>
        <time>2025-02-25T11:16:35.537Z</time>
      </trkpt>
      <trkpt lat="48.10729" lon="-3.59188">
        <ele>180.9</ele>
        <time>2025-02-25T11:16:36.540Z</time>
      </trkpt>
      <trkpt lat="48.10729" lon="-3.59188">
        <ele>180.9</ele>
        <time>2025-02-25T11:16:37.544Z</time>
      </trkpt>
      <trkpt lat="48.10729" lon="-3.59188">
        <ele>180.9</ele>
        <time>2025-02-25T11:16:38.548Z</time>
      </trkpt>
      <trkpt lat="48.10729" lon="-3.59188">
        <ele>180.9</ele>
        <time>2025-02-25T11:16:39.552Z</time>
      </trkpt>
      <trkpt lat="48.10729" lon="-3.59188">
        <ele>180.9</ele>
        <time>2025-02-25T11:16:40.556Z</time>
      </trkpt>
      <trkpt lat="48.10729" lon="-3.59188">
        <ele>180.9</ele>
        <time>2025-02-25T11:16:41.560Z</time>
      </trkpt>
      <trkpt lat="48.10729" lon="-3.59188">
        <ele>180.9</ele>
        <time>2025-02-25T11:16:42.564Z</time>
      </trkpt>
      <trkpt lat="48.10729" lon="-3.59188">
        <ele>180.9</ele>
        <time>2025-02-25T11:16:43.568Z</time>
      </trkpt>
      <trkpt lat="48.10729" lon="-3.59188">
        <ele>180.9</ele>
        <time>2025-02-25T11:16:44.570Z</time>
      </trkpt>
      <trkpt lat="48.10729" lon="-3.59188">
        <ele>180.9</ele>
        <time>2025-02-25T11:16:45.572Z</time>
      </trkpt>
      <trkpt lat="48.10729" lon="-3.59188">
        <ele>180.9</ele>
        <time>2025-02-25T11:16:46.574Z</time>
      </trkpt>
      <trkpt lat="48.10729" lon="-3.59188">
        <ele>180.9</ele>
        <time>2025-02-25T11:16:47.576Z</time>
      </trkpt>
      <trkpt lat="48.10729" lon="-3.59188">
        <ele>180.9</ele>
        <time>2025-02-25T11:16:48.580Z</time>
      </trkpt>
      <trkpt lat="48.10729" lon="-3.59188">
        <ele>180.9</ele>
        <time>2025-02-25T11:16:49.584Z</time>
      </trkpt>
      <trkpt lat="48.10729" lon="-3.59188">
        <ele>180.9</ele>
        <time>2025-02-25T11:16:50.588Z</time>
      </trkpt>
      <trkpt lat="48.10729" lon="-3.59188">
        <ele>180.9</ele>
        <time>2025-02-25T11:16:51.592Z</time>
      </trkpt>
      <trkpt lat="48.10729" lon="-3.59188">
        <ele>180.9</ele>
        <time>2025-02-25T11:16:52.596Z</time>
      </trkpt>
      <trkpt lat="48.10729" lon="-3.59188">
        <ele>180.9</ele>
        <time>2025-02-25T11:16:53.600Z</time>
      </trkpt>
      <trkpt lat="48.10729" lon="-3.59188">
        <ele>180.9</ele>
        <time>2025-02-25T11:16:54.604Z</time>
      </trkpt>
      <trkpt lat="48.10729" lon="-3.59188">
        <ele>180.9</ele>
        <time>2025-02-25T11:16:55.608Z</time>
      </trkpt>
      <trkpt lat="48.10729" lon="-3.59188">
        <ele>180.9</ele>
        <time>2025-02-25T11:16:56.612Z</time>
      </trkpt>
      <trkpt lat="48.10729" lon="-3.59188">
        <ele>180.9</ele>
        <time>2025-02-25T11:16:57.616Z</time>
      </trkpt>
      <trkpt lat="48.10729" lon="-3.59188">
        <ele>180.9</ele>
        <time>2025-02-25T11:16:58.620Z</time>
      </trkpt>
      <trkpt lat="48.10729" lon="-3.59188">
        <ele>180.9</ele>
        <time>2025-02-25T11:16:59.622Z</time>
      </trkpt>
      <trkpt lat="48.10729" lon="-3.59188">
        <ele>180.9</ele>
        <time>2025-02-25T11:17:00.625Z</time>
      </trkpt>
      <trkpt lat="48.10729" lon="-3.59188">
        <ele>180.9</ele>
        <time>2025-02-25T11:17:01.629Z</time>
      </trkpt>
      <trkpt lat="48.10729" lon="-3.59188">
        <ele>180.9</ele>
        <time>2025-02-25T11:17:02.634Z</time>
      </trkpt>
      <trkpt lat="48.10729" lon="-3.59188">
        <ele>180.9</ele>
        <time>2025-02-25T11:17:03.637Z</time>
      </trkpt>
      <trkpt lat="48.10729" lon="-3.59188">
        <ele>180.9</ele>
        <time>2025-02-25T11:17:04.641Z</time>
      </trkpt>
      <trkpt lat="48.10729" lon="-3.59188">
        <ele>180.9</ele>
        <time>2025-02-25T11:17:05.645Z</time>
      </trkpt>
      <trkpt lat="48.10729" lon="-3.59188">
        <ele>180.9</ele>
        <time>2025-02-25T11:17:06.649Z</time>
      </trkpt>
      <trkpt lat="48.10729" lon="-3.59188">
        <ele>180.9</ele>
        <time>2025-02-25T11:17:07.653Z</time>
      </trkpt>
      <trkpt lat="48.10729" lon="-3.59188">
        <ele>180.9</ele>
        <time>2025-02-25T11:17:08.658Z</time>
      </trkpt>
      <trkpt lat="48.10729" lon="-3.59188">
        <ele>180.9</ele>
        <time>2025-02-25T11:17:09.661Z</time>
      </trkpt>
      <trkpt lat="48.10729" lon="-3.59188">
        <ele>180.9</ele>
        <time>2025-02-25T11:17:10.664Z</time>
      </trkpt>
      <trkpt lat="48.10729" lon="-3.59188">
        <ele>180.9</ele>
        <time>2025-02-25T11:17:11.668Z</time>
      </trkpt>
      <trkpt lat="48.10729" lon="-3.59188">
        <ele>180.9</ele>
        <time>2025-02-25T11:17:12.670Z</time>
      </trkpt>
      <trkpt lat="48.10729" lon="-3.59188">
        <ele>180.9</ele>
        <time>2025-02-25T11:17:13.672Z</time>
      </trkpt>
      <trkpt lat="48.10729" lon="-3.59188">
        <ele>180.9</ele>
        <time>2025-02-25T11:17:14.675Z</time>
      </trkpt>
      <trkpt lat="48.10729" lon="-3.59188">
        <ele>180.9</ele>
        <time>2025-02-25T11:17:15.680Z</time>
      </trkpt>
      <trkpt lat="48.10729" lon="-3.59188">
        <ele>180.9</ele>
        <time>2025-02-25T11:17:16.683Z</time>
      </trkpt>
      <trkpt lat="48.10729" lon="-3.59188">
        <ele>180.9</ele>
        <time>2025-02-25T11:17:17.687Z</time>
      </trkpt>
      <trkpt lat="48.10729" lon="-3.59188">
        <ele>180.9</ele>
        <time>2025-02-25T11:17:18.690Z</time>
      </trkpt>
      <trkpt lat="48.10729" lon="-3.59188">
        <ele>180.9</ele>
        <time>2025-02-25T11:17:19.694Z</time>
      </trkpt>
      <trkpt lat="48.10729" lon="-3.59188">
        <ele>180.9</ele>
        <time>2025-02-25T11:17:20.698Z</time>
      </trkpt>
      <trkpt lat="48.10729" lon="-3.59188">
        <ele>180.9</ele>
        <time>2025-02-25T11:17:21.702Z</time>
      </trkpt>
      <trkpt lat="48.10729" lon="-3.59188">
        <ele>180.9</ele>
        <time>2025-02-25T11:17:22.706Z</time>
      </trkpt>
      <trkpt lat="48.10729" lon="-3.59188">
        <ele>180.9</ele>
        <time>2025-02-25T11:17:23.710Z</time>
      </trkpt>
      <trkpt lat="48.10729" lon="-3.59188">
        <ele>180.9</ele>
        <time>2025-02-25T11:17:24.711Z</time>
      </trkpt>
      <trkpt lat="48.10729" lon="-3.59188">
        <ele>180.9</ele>
        <time>2025-02-25T11:17:25.713Z</time>
      </trkpt>
      <trkpt lat="48.10729" lon="-3.59188">
        <ele>180.9</ele>
        <time>2025-02-25T11:17:26.717Z</time>
      </trkpt>
      <trkpt lat="48.10729" lon="-3.59188">
        <ele>180.9</ele>
        <time>2025-02-25T11:17:27.721Z</time>
      </trkpt>
      <trkpt lat="48.10729" lon="-3.59188">
        <ele>180.9</ele>
        <time>2025-02-25T11:17:28.724Z</time>
      </trkpt>
      <trkpt lat="48.10729" lon="-3.59188">
        <ele>180.9</ele>
        <time>2025-02-25T11:17:29.728Z</time>
      </trkpt>
      <trkpt lat="48.10729" lon="-3.59188">
        <ele>180.9</ele>
        <time>2025-02-25T11:17:30.732Z</time>
      </trkpt>
      <trkpt lat="48.10729" lon="-3.59188">
        <ele>180.9</ele>
        <time>2025-02-25T11:17:31.734Z</time>
      </trkpt>
      <trkpt lat="48.10729" lon="-3.59188">
        <ele>180.9</ele>
        <time>2025-02-25T11:17:32.738Z</time>
      </trkpt>
      <trkpt lat="48.10729" lon="-3.59188">
        <ele>180.9</ele>
        <time>2025-02-25T11:17:33.741Z</time>
      </trkpt>
      <trkpt lat="48.10729" lon="-3.59188">
        <ele>180.9</ele>
        <time>2025-02-25T11:17:34.746Z</time>
      </trkpt>
      <trkpt lat="48.10729" lon="-3.59188">
        <ele>180.9</ele>
        <time>2025-02-25T11:17:35.749Z</time>
      </trkpt>
      <trkpt lat="48.10729" lon="-3.59188">
        <ele>180.9</ele>
        <time>2025-02-25T11:17:36.753Z</time>
      </trkpt>
      <trkpt lat="48.10729" lon="-3.59188">
        <ele>180.9</ele>
        <time>2025-02-25T11:17:37.757Z</time>
      </trkpt>
      <trkpt lat="48.10729" lon="-3.59188">
        <ele>180.9</ele>
        <time>2025-02-25T11:17:38.761Z</time>
      </trkpt>
      <trkpt lat="48.10729" lon="-3.59188">
        <ele>180.9</ele>
        <time>2025-02-25T11:17:39.765Z</time>
      </trkpt>
      <trkpt lat="48.10729" lon="-3.59188">
        <ele>180.9</ele>
        <time>2025-02-25T11:17:40.769Z</time>
      </trkpt>
      <trkpt lat="48.10729" lon="-3.59188">
        <ele>180.9</ele>
        <time>2025-02-25T11:17:41.773Z</time>
      </trkpt>
      <trkpt lat="48.10729" lon="-3.59188">
        <ele>180.9</ele>
        <time>2025-02-25T11:17:42.776Z</time>
      </trkpt>
      <trkpt lat="48.10729" lon="-3.59188">
        <ele>180.9</ele>
        <time>2025-02-25T11:17:43.779Z</time>
      </trkpt>
      <trkpt lat="48.10729" lon="-3.59188">
        <ele>180.9</ele>
        <time>2025-02-25T11:17:44.781Z</time>
      </trkpt>
      <trkpt lat="48.10729" lon="-3.59188">
        <ele>180.9</ele>
        <time>2025-02-25T11:17:45.784Z</time>
      </trkpt>
      <trkpt lat="48.10729" lon="-3.59188">
        <ele>180.9</ele>
        <time>2025-02-25T11:17:46.787Z</time>
      </trkpt>
      <trkpt lat="48.10729" lon="-3.59188">
        <ele>180.9</ele>
        <time>2025-02-25T11:17:47.791Z</time>
      </trkpt>
      <trkpt lat="48.10729" lon="-3.59188">
        <ele>180.9</ele>
        <time>2025-02-25T11:17:48.795Z</time>
      </trkpt>
      <trkpt lat="48.10729" lon="-3.59188">
        <ele>180.9</ele>
        <time>2025-02-25T11:17:49.799Z</time>
      </trkpt>
      <trkpt lat="48.10729" lon="-3.59188">
        <ele>180.9</ele>
        <time>2025-02-25T11:17:50.803Z</time>
      </trkpt>
      <trkpt lat="48.10729" lon="-3.59188">
        <ele>180.9</ele>
        <time>2025-02-25T11:17:51.807Z</time>
      </trkpt>
      <trkpt lat="48.10729" lon="-3.59188">
        <ele>180.9</ele>
        <time>2025-02-25T11:17:52.811Z</time>
      </trkpt>
      <trkpt lat="48.10729" lon="-3.59188">
        <ele>180.9</ele>
        <time>2025-02-25T11:17:53.814Z</time>
      </trkpt>
      <trkpt lat="48.10729" lon="-3.59188">
        <ele>180.9</ele>
        <time>2025-02-25T11:17:54.818Z</time>
      </trkpt>
      <trkpt lat="48.10729" lon="-3.59188">
        <ele>180.9</ele>
        <time>2025-02-25T11:17:55.822Z</time>
      </trkpt>
      <trkpt lat="48.10729" lon="-3.59188">
        <ele>180.9</ele>
        <time>2025-02-25T11:17:56.825Z</time>
      </trkpt>
      <trkpt lat="48.10729" lon="-3.59188">
        <ele>180.9</ele>
        <time>2025-02-25T11:17:57.830Z</time>
      </trkpt>
      <trkpt lat="48.10729" lon="-3.59188">
        <ele>180.9</ele>
        <time>2025-02-25T11:17:58.833Z</time>
      </trkpt>
      <trkpt lat="48.10729" lon="-3.59188">
        <ele>180.9</ele>
        <time>2025-02-25T11:17:59.838Z</time>
      </trkpt>
      <trkpt lat="48.10729" lon="-3.59188">
        <ele>180.9</ele>
        <time>2025-02-25T11:18:00.841Z</time>
      </trkpt>
      <trkpt lat="48.10729" lon="-3.59188">
        <ele>180.9</ele>
        <time>2025-02-25T11:18:01.844Z</time>
      </trkpt>
      <trkpt lat="48.10729" lon="-3.59188">
        <ele>180.9</ele>
        <time>2025-02-25T11:18:02.850Z</time>
      </trkpt>
      <trkpt lat="48.10729" lon="-3.59188">
        <ele>180.9</ele>
        <time>2025-02-25T11:18:03.853Z</time>
      </trkpt>
      <trkpt lat="48.10729" lon="-3.59188">
        <ele>180.9</ele>
        <time>2025-02-25T11:18:04.856Z</time>
      </trkpt>
      <trkpt lat="48.10729" lon="-3.59188">
        <ele>180.9</ele>
        <time>2025-02-25T11:18:05.860Z</time>
      </trkpt>
      <trkpt lat="48.10729" lon="-3.59188">
        <ele>180.9</ele>
        <time>2025-02-25T11:18:06.864Z</time>
      </trkpt>
      <trkpt lat="48.10729" lon="-3.59188">
        <ele>180.9</ele>
        <time>2025-02-25T11:18:07.868Z</time>
      </trkpt>
      <trkpt lat="48.10729" lon="-3.59188">
        <ele>180.9</ele>
        <time>2025-02-25T11:18:08.872Z</time>
      </trkpt>
      <trkpt lat="48.10729" lon="-3.59188">
        <ele>180.9</ele>
        <time>2025-02-25T11:18:09.875Z</time>
      </trkpt>
      <trkpt lat="48.10729" lon="-3.59188">
        <ele>180.9</ele>
        <time>2025-02-25T11:18:10.880Z</time>
      </trkpt>
      <trkpt lat="48.10729" lon="-3.59188">
        <ele>180.9</ele>
        <time>2025-02-25T11:18:11.883Z</time>
      </trkpt>
      <trkpt lat="48.10729" lon="-3.59188">
        <ele>180.9</ele>
        <time>2025-02-25T11:18:12.887Z</time>
      </trkpt>
      <trkpt lat="48.10729" lon="-3.59188">
        <ele>180.9</ele>
        <time>2025-02-25T11:18:13.891Z</time>
      </trkpt>
      <trkpt lat="48.10729" lon="-3.59188">
        <ele>180.9</ele>
        <time>2025-02-25T11:18:14.895Z</time>
      </trkpt>
      <trkpt lat="48.10729" lon="-3.59188">
        <ele>180.9</ele>
        <time>2025-02-25T11:18:15.897Z</time>
      </trkpt>
      <trkpt lat="48.10729" lon="-3.59188">
        <ele>180.9</ele>
        <time>2025-02-25T11:18:16.901Z</time>
      </trkpt>
      <trkpt lat="48.10729" lon="-3.59188">
        <ele>180.9</ele>
        <time>2025-02-25T11:18:17.906Z</time>
      </trkpt>
      <trkpt lat="48.10729" lon="-3.59188">
        <ele>180.9</ele>
        <time>2025-02-25T11:18:18.909Z</time>
      </trkpt>
      <trkpt lat="48.10729" lon="-3.59188">
        <ele>180.9</ele>
        <time>2025-02-25T11:18:19.911Z</time>
      </trkpt>
      <trkpt lat="48.10729" lon="-3.59188">
        <ele>180.9</ele>
        <time>2025-02-25T11:18:20.914Z</time>
      </trkpt>
      <trkpt lat="48.10729" lon="-3.59188">
        <ele>180.9</ele>
        <time>2025-02-25T11:18:21.918Z</time>
      </trkpt>
      <trkpt lat="48.10729" lon="-3.59188">
        <ele>180.9</ele>
        <time>2025-02-25T11:18:22.922Z</time>
      </trkpt>
      <trkpt lat="48.10729" lon="-3.59188">
        <ele>180.9</ele>
        <time>2025-02-25T11:18:23.926Z</time>
      </trkpt>
      <trkpt lat="48.10729" lon="-3.59188">
        <ele>180.9</ele>
        <time>2025-02-25T11:18:24.931Z</time>
      </trkpt>
      <trkpt lat="48.10729" lon="-3.59188">
        <ele>180.9</ele>
        <time>2025-02-25T11:18:25.934Z</time>
      </trkpt>
      <trkpt lat="48.10729" lon="-3.59188">
        <ele>180.9</ele>
        <time>2025-02-25T11:18:26.938Z</time>
      </trkpt>
      <trkpt lat="48.10729" lon="-3.59188">
        <ele>180.9</ele>
        <time>2025-02-25T11:18:27.942Z</time>
      </trkpt>
      <trkpt lat="48.10729" lon="-3.59188">
        <ele>180.9</ele>
        <time>2025-02-25T11:18:28.945Z</time>
      </trkpt>
      <trkpt lat="48.10729" lon="-3.59188">
        <ele>180.9</ele>
        <time>2025-02-25T11:18:29.950Z</time>
      </trkpt>
      <trkpt lat="48.10729" lon="-3.59188">
        <ele>180.9</ele>
        <time>2025-02-25T11:18:30.954Z</time>
      </trkpt>
      <trkpt lat="48.10729" lon="-3.59188">
        <ele>180.9</ele>
        <time>2025-02-25T11:18:31.957Z</time>
      </trkpt>
      <trkpt lat="48.10729" lon="-3.59188">
        <ele>180.9</ele>
        <time>2025-02-25T11:18:32.961Z</time>
      </trkpt>
      <trkpt lat="48.10729" lon="-3.59188">
        <ele>180.9</ele>
        <time>2025-02-25T11:18:33.964Z</time>
      </trkpt>
      <trkpt lat="48.10729" lon="-3.59188">
        <ele>180.9</ele>
        <time>2025-02-25T11:18:34.967Z</time>
      </trkpt>
      <trkpt lat="48.10729" lon="-3.59188">
        <ele>180.9</ele>
        <time>2025-02-25T11:18:35.969Z</time>
      </trkpt>
      <trkpt lat="48.10729" lon="-3.59188">
        <ele>180.9</ele>
        <time>2025-02-25T11:18:36.974Z</time>
      </trkpt>
      <trkpt lat="48.10729" lon="-3.59188">
        <ele>180.9</ele>
        <time>2025-02-25T11:18:37.977Z</time>
      </trkpt>
      <trkpt lat="48.10729" lon="-3.59188">
        <ele>180.9</ele>
        <time>2025-02-25T11:18:38.980Z</time>
      </trkpt>
      <trkpt lat="48.10729" lon="-3.59188">
        <ele>180.9</ele>
        <time>2025-02-25T11:18:39.984Z</time>
      </trkpt>
      <trkpt lat="48.10729" lon="-3.59188">
        <ele>180.9</ele>
        <time>2025-02-25T11:18:40.988Z</time>
      </trkpt>
      <trkpt lat="48.10729" lon="-3.59188">
        <ele>180.9</ele>
        <time>2025-02-25T11:18:41.993Z</time>
      </trkpt>
      <trkpt lat="48.10729" lon="-3.59188">
        <ele>180.9</ele>
        <time>2025-02-25T11:18:42.996Z</time>
      </trkpt>
      <trkpt lat="48.10729" lon="-3.59188">
        <ele>180.9</ele>
        <time>2025-02-25T11:18:44.001Z</time>
      </trkpt>
      <trkpt lat="48.10729" lon="-3.59188">
        <ele>180.9</ele>
        <time>2025-02-25T11:18:45.002Z</time>
      </trkpt>
      <trkpt lat="48.10729" lon="-3.59188">
        <ele>180.9</ele>
        <time>2025-02-25T11:18:46.005Z</time>
      </trkpt>
      <trkpt lat="48.10729" lon="-3.59188">
        <ele>180.9</ele>
        <time>2025-02-25T11:18:47.010Z</time>
      </trkpt>
      <trkpt lat="48.10729" lon="-3.59188">
        <ele>180.9</ele>
        <time>2025-02-25T11:18:48.013Z</time>
      </trkpt>
      <trkpt lat="48.10729" lon="-3.59188">
        <ele>180.9</ele>
        <time>2025-02-25T11:18:49.018Z</time>
      </trkpt>
      <trkpt lat="48.10729" lon="-3.59188">
        <ele>180.9</ele>
        <time>2025-02-25T11:18:50.021Z</time>
      </trkpt>
      <trkpt lat="48.10729" lon="-3.59188">
        <ele>180.9</ele>
        <time>2025-02-25T11:18:51.025Z</time>
      </trkpt>
      <trkpt lat="48.10729" lon="-3.59188">
        <ele>180.9</ele>
        <time>2025-02-25T11:18:52.029Z</time>
      </trkpt>
      <trkpt lat="48.10729" lon="-3.59188">
        <ele>180.9</ele>
        <time>2025-02-25T11:18:53.030Z</time>
      </trkpt>
      <trkpt lat="48.10729" lon="-3.59188">
        <ele>180.9</ele>
        <time>2025-02-25T11:18:54.034Z</time>
      </trkpt>
      <trkpt lat="48.10729" lon="-3.59188">
        <ele>180.9</ele>
        <time>2025-02-25T11:18:55.036Z</time>
      </trkpt>
      <trkpt lat="48.10729" lon="-3.59188">
        <ele>180.9</ele>
        <time>2025-02-25T11:18:56.039Z</time>
      </trkpt>
      <trkpt lat="48.10729" lon="-3.59188">
        <ele>180.9</ele>
        <time>2025-02-25T11:18:57.042Z</time>
      </trkpt>
      <trkpt lat="48.10729" lon="-3.59188">
        <ele>180.9</ele>
        <time>2025-02-25T11:18:58.046Z</time>
      </trkpt>
      <trkpt lat="48.10729" lon="-3.59188">
        <ele>180.9</ele>
        <time>2025-02-25T11:18:59.050Z</time>
      </trkpt>
      <trkpt lat="48.10729" lon="-3.59188">
        <ele>180.9</ele>
        <time>2025-02-25T11:19:00.053Z</time>
      </trkpt>
      <trkpt lat="48.10729" lon="-3.59188">
        <ele>180.9</ele>
        <time>2025-02-25T11:19:01.057Z</time>
      </trkpt>
      <trkpt lat="48.10729" lon="-3.59188">
        <ele>180.9</ele>
        <time>2025-02-25T11:19:02.061Z</time>
      </trkpt>
      <trkpt lat="48.10729" lon="-3.59188">
        <ele>180.9</ele>
        <time>2025-02-25T11:19:03.065Z</time>
      </trkpt>
      <trkpt lat="48.10729" lon="-3.59188">
        <ele>180.9</ele>
        <time>2025-02-25T11:19:04.069Z</time>
      </trkpt>
      <trkpt lat="48.10729" lon="-3.59188">
        <ele>180.9</ele>
        <time>2025-02-25T11:19:05.073Z</time>
      </trkpt>
      <trkpt lat="48.10729" lon="-3.59188">
        <ele>180.9</ele>
        <time>2025-02-25T11:19:06.077Z</time>
      </trkpt>
      <trkpt lat="48.10729" lon="-3.59188">
        <ele>180.9</ele>
        <time>2025-02-25T11:19:07.081Z</time>
      </trkpt>
      <trkpt lat="48.10729" lon="-3.59188">
        <ele>180.9</ele>
        <time>2025-02-25T11:19:08.084Z</time>
      </trkpt>
      <trkpt lat="48.10729" lon="-3.59188">
        <ele>180.9</ele>
        <time>2025-02-25T11:19:09.088Z</time>
      </trkpt>
      <trkpt lat="48.10729" lon="-3.59188">
        <ele>180.9</ele>
        <time>2025-02-25T11:19:10.092Z</time>
      </trkpt>
      <trkpt lat="48.10729" lon="-3.59188">
        <ele>180.9</ele>
        <time>2025-02-25T11:19:11.096Z</time>
      </trkpt>
      <trkpt lat="48.10729" lon="-3.59188">
        <ele>180.9</ele>
        <time>2025-02-25T11:19:12.100Z</time>
      </trkpt>
      <trkpt lat="48.10729" lon="-3.59188">
        <ele>180.9</ele>
        <time>2025-02-25T11:19:13.104Z</time>
      </trkpt>
      <trkpt lat="48.10729" lon="-3.59188">
        <ele>180.9</ele>
        <time>2025-02-25T11:19:14.108Z</time>
      </trkpt>
      <trkpt lat="48.10729" lon="-3.59188">
        <ele>180.9</ele>
        <time>2025-02-25T11:19:15.110Z</time>
      </trkpt>
      <trkpt lat="48.10729" lon="-3.59188">
        <ele>180.9</ele>
        <time>2025-02-25T11:19:16.114Z</time>
      </trkpt>
      <trkpt lat="48.10729" lon="-3.59188">
        <ele>180.9</ele>
        <time>2025-02-25T11:19:17.116Z</time>
      </trkpt>
      <trkpt lat="48.10729" lon="-3.59188">
        <ele>180.9</ele>
        <time>2025-02-25T11:19:18.119Z</time>
      </trkpt>
      <trkpt lat="48.10729" lon="-3.59188">
        <ele>180.9</ele>
        <time>2025-02-25T11:19:19.122Z</time>
      </trkpt>
      <trkpt lat="48.10729" lon="-3.59188">
        <ele>180.9</ele>
        <time>2025-02-25T11:19:20.127Z</time>
      </trkpt>
      <trkpt lat="48.10729" lon="-3.59188">
        <ele>180.9</ele>
        <time>2025-02-25T11:19:21.130Z</time>
      </trkpt>
      <trkpt lat="48.10729" lon="-3.59188">
        <ele>180.9</ele>
        <time>2025-02-25T11:19:22.134Z</time>
      </trkpt>
      <trkpt lat="48.10729" lon="-3.59188">
        <ele>180.9</ele>
        <time>2025-02-25T11:19:23.138Z</time>
      </trkpt>
      <trkpt lat="48.10729" lon="-3.59188">
        <ele>180.9</ele>
        <time>2025-02-25T11:19:24.142Z</time>
      </trkpt>
      <trkpt lat="48.10729" lon="-3.59188">
        <ele>180.9</ele>
        <time>2025-02-25T11:19:25.146Z</time>
      </trkpt>
      <trkpt lat="48.10729" lon="-3.59188">
        <ele>180.9</ele>
        <time>2025-02-25T11:19:26.150Z</time>
      </trkpt>
      <trkpt lat="48.10729" lon="-3.59188">
        <ele>180.9</ele>
        <time>2025-02-25T11:19:27.153Z</time>
      </trkpt>
      <trkpt lat="48.10729" lon="-3.59188">
        <ele>180.9</ele>
        <time>2025-02-25T11:19:28.157Z</time>
      </trkpt>
      <trkpt lat="48.10729" lon="-3.59188">
        <ele>180.9</ele>
        <time>2025-02-25T11:19:29.162Z</time>
      </trkpt>
      <trkpt lat="48.10729" lon="-3.59188">
        <ele>180.9</ele>
        <time>2025-02-25T11:19:30.166Z</time>
      </trkpt>
      <trkpt lat="48.10729" lon="-3.59188">
        <ele>180.9</ele>
        <time>2025-02-25T11:19:31.169Z</time>
      </trkpt>
      <trkpt lat="48.10729" lon="-3.59188">
        <ele>180.9</ele>
        <time>2025-02-25T11:19:32.174Z</time>
      </trkpt>
      <trkpt lat="48.10729" lon="-3.59188">
        <ele>180.9</ele>
        <time>2025-02-25T11:19:33.177Z</time>
      </trkpt>
      <trkpt lat="48.10729" lon="-3.59188">
        <ele>180.9</ele>
        <time>2025-02-25T11:19:34.180Z</time>
      </trkpt>
      <trkpt lat="48.10729" lon="-3.59188">
        <ele>180.9</ele>
        <time>2025-02-25T11:19:35.183Z</time>
      </trkpt>
      <trkpt lat="48.10729" lon="-3.59188">
        <ele>180.9</ele>
        <time>2025-02-25T11:19:36.186Z</time>
      </trkpt>
      <trkpt lat="48.10729" lon="-3.59188">
        <ele>180.9</ele>
        <time>2025-02-25T11:19:37.191Z</time>
      </trkpt>
      <trkpt lat="48.10729" lon="-3.59188">
        <ele>180.9</ele>
        <time>2025-02-25T11:19:38.194Z</time>
      </trkpt>
      <trkpt lat="48.10729" lon="-3.59188">
        <ele>180.9</ele>
        <time>2025-02-25T11:19:39.198Z</time>
      </trkpt>
      <trkpt lat="48.10729" lon="-3.59188">
        <ele>180.9</ele>
        <time>2025-02-25T11:19:40.202Z</time>
      </trkpt>
      <trkpt lat="48.10729" lon="-3.59188">
        <ele>180.9</ele>
        <time>2025-02-25T11:19:41.206Z</time>
      </trkpt>
      <trkpt lat="48.10729" lon="-3.59188">
        <ele>180.9</ele>
        <time>2025-02-25T11:19:42.209Z</time>
      </trkpt>
      <trkpt lat="48.10729" lon="-3.59188">
        <ele>180.9</ele>
        <time>2025-02-25T11:19:43.211Z</time>
      </trkpt>
      <trkpt lat="48.10729" lon="-3.59188">
        <ele>180.9</ele>
        <time>2025-02-25T11:19:44.214Z</time>
      </trkpt>
      <trkpt lat="48.10729" lon="-3.59188">
        <ele>180.9</ele>
        <time>2025-02-25T11:19:45.216Z</time>
      </trkpt>
      <trkpt lat="48.10729" lon="-3.59188">
        <ele>180.9</ele>
        <time>2025-02-25T11:19:46.220Z</time>
      </trkpt>
      <trkpt lat="48.10729" lon="-3.59188">
        <ele>180.9</ele>
        <time>2025-02-25T11:19:47.225Z</time>
      </trkpt>
      <trkpt lat="48.10729" lon="-3.59188">
        <ele>180.9</ele>
        <time>2025-02-25T11:19:48.228Z</time>
      </trkpt>
      <trkpt lat="48.10729" lon="-3.59188">
        <ele>180.9</ele>
        <time>2025-02-25T11:19:49.232Z</time>
      </trkpt>
      <trkpt lat="48.10729" lon="-3.59188">
        <ele>180.9</ele>
        <time>2025-02-25T11:19:50.236Z</time>
      </trkpt>
      <trkpt lat="48.10729" lon="-3.59188">
        <ele>180.9</ele>
        <time>2025-02-25T11:19:51.240Z</time>
      </trkpt>
      <trkpt lat="48.10729" lon="-3.59188">
        <ele>180.9</ele>
        <time>2025-02-25T11:19:52.245Z</time>
      </trkpt>
      <trkpt lat="48.10729" lon="-3.59188">
        <ele>180.9</ele>
        <time>2025-02-25T11:19:53.248Z</time>
      </trkpt>
      <trkpt lat="48.10729" lon="-3.59188">
        <ele>180.9</ele>
        <time>2025-02-25T11:19:54.250Z</time>
      </trkpt>
      <trkpt lat="48.10729" lon="-3.59188">
        <ele>180.9</ele>
        <time>2025-02-25T11:19:55.254Z</time>
      </trkpt>
      <trkpt lat="48.10729" lon="-3.59188">
        <ele>180.9</ele>
        <time>2025-02-25T11:19:56.258Z</time>
      </trkpt>
      <trkpt lat="48.10729" lon="-3.59188">
        <ele>180.9</ele>
        <time>2025-02-25T11:19:57.263Z</time>
      </trkpt>
      <trkpt lat="48.10729" lon="-3.59188">
        <ele>180.9</ele>
        <time>2025-02-25T11:19:58.266Z</time>
      </trkpt>
      <trkpt lat="48.10729" lon="-3.59188">
        <ele>180.9</ele>
        <time>2025-02-25T11:19:59.270Z</time>
      </trkpt>
      <trkpt lat="48.10729" lon="-3.59188">
        <ele>180.9</ele>
        <time>2025-02-25T11:20:00.274Z</time>
      </trkpt>
      <trkpt lat="48.10729" lon="-3.59188">
        <ele>180.9</ele>
        <time>2025-02-25T11:20:01.278Z</time>
      </trkpt>
      <trkpt lat="48.10729" lon="-3.59188">
        <ele>180.9</ele>
        <time>2025-02-25T11:20:02.282Z</time>
      </trkpt>
      <trkpt lat="48.10729" lon="-3.59188">
        <ele>180.9</ele>
        <time>2025-02-25T11:20:03.286Z</time>
      </trkpt>
      <trkpt lat="48.10729" lon="-3.59188">
        <ele>180.9</ele>
        <time>2025-02-25T11:20:04.290Z</time>
      </trkpt>
      <trkpt lat="48.10729" lon="-3.59188">
        <ele>180.9</ele>
        <time>2025-02-25T11:20:05.295Z</time>
      </trkpt>
      <trkpt lat="48.10729" lon="-3.59188">
        <ele>180.9</ele>
        <time>2025-02-25T11:20:06.298Z</time>
      </trkpt>
      <trkpt lat="48.10729" lon="-3.59188">
        <ele>180.9</ele>
        <time>2025-02-25T11:20:07.302Z</time>
      </trkpt>
      <trkpt lat="48.10729" lon="-3.59188">
        <ele>180.9</ele>
        <time>2025-02-25T11:20:08.306Z</time>
      </trkpt>
      <trkpt lat="48.10729" lon="-3.59188">
        <ele>180.9</ele>
        <time>2025-02-25T11:20:09.309Z</time>
      </trkpt>
      <trkpt lat="48.10729" lon="-3.59188">
        <ele>180.9</ele>
        <time>2025-02-25T11:20:10.313Z</time>
      </trkpt>
      <trkpt lat="48.10729" lon="-3.59188">
        <ele>180.9</ele>
        <time>2025-02-25T11:20:11.316Z</time>
      </trkpt>
      <trkpt lat="48.10729" lon="-3.59188">
        <ele>180.9</ele>
        <time>2025-02-25T11:20:12.320Z</time>
      </trkpt>
      <trkpt lat="48.10729" lon="-3.59188">
        <ele>180.9</ele>
        <time>2025-02-25T11:20:13.324Z</time>
      </trkpt>
      <trkpt lat="48.10729" lon="-3.59188">
        <ele>180.9</ele>
        <time>2025-02-25T11:20:14.328Z</time>
      </trkpt>
      <trkpt lat="48.10729" lon="-3.59188">
        <ele>180.9</ele>
        <time>2025-02-25T11:20:15.332Z</time>
      </trkpt>
      <trkpt lat="48.10729" lon="-3.59188">
        <ele>180.9</ele>
        <time>2025-02-25T11:20:16.336Z</time>
      </trkpt>
      <trkpt lat="48.10729" lon="-3.59188">
        <ele>180.9</ele>
        <time>2025-02-25T11:20:17.341Z</time>
      </trkpt>
      <trkpt lat="48.10729" lon="-3.59188">
        <ele>180.9</ele>
        <time>2025-02-25T11:20:18.345Z</time>
      </trkpt>
      <trkpt lat="48.10729" lon="-3.59188">
        <ele>180.9</ele>
        <time>2025-02-25T11:20:19.349Z</time>
      </trkpt>
      <trkpt lat="48.10729" lon="-3.59188">
        <ele>180.9</ele>
        <time>2025-02-25T11:20:20.353Z</time>
      </trkpt>
      <trkpt lat="48.10729" lon="-3.59188">
        <ele>180.9</ele>
        <time>2025-02-25T11:20:21.357Z</time>
      </trkpt>
      <trkpt lat="48.10729" lon="-3.59188">
        <ele>180.9</ele>
        <time>2025-02-25T11:20:22.362Z</time>
      </trkpt>
      <trkpt lat="48.10729" lon="-3.59188">
        <ele>180.9</ele>
        <time>2025-02-25T11:20:23.361Z</time>
      </trkpt>
      <trkpt lat="48.10729" lon="-3.59188">
        <ele>180.9</ele>
        <time>2025-02-25T11:20:24.363Z</time>
      </trkpt>
      <trkpt lat="48.10729" lon="-3.59188">
        <ele>180.9</ele>
        <time>2025-02-25T11:20:25.366Z</time>
      </trkpt>
      <trkpt lat="48.10729" lon="-3.59188">
        <ele>180.9</ele>
        <time>2025-02-25T11:20:26.370Z</time>
      </trkpt>
      <trkpt lat="48.10729" lon="-3.59188">
        <ele>180.9</ele>
        <time>2025-02-25T11:20:27.373Z</time>
      </trkpt>
      <trkpt lat="48.10729" lon="-3.59188">
        <ele>180.9</ele>
        <time>2025-02-25T11:20:28.377Z</time>
      </trkpt>
      <trkpt lat="48.10729" lon="-3.59188">
        <ele>180.9</ele>
        <time>2025-02-25T11:20:29.378Z</time>
      </trkpt>
      <trkpt lat="48.10729" lon="-3.59188">
        <ele>180.9</ele>
        <time>2025-02-25T11:20:30.380Z</time>
      </trkpt>
      <trkpt lat="48.10729" lon="-3.59188">
        <ele>180.9</ele>
        <time>2025-02-25T11:20:31.384Z</time>
      </trkpt>
      <trkpt lat="48.10729" lon="-3.59188">
        <ele>180.9</ele>
        <time>2025-02-25T11:20:32.387Z</time>
      </trkpt>
      <trkpt lat="48.10729" lon="-3.59188">
        <ele>180.9</ele>
        <time>2025-02-25T11:20:33.388Z</time>
      </trkpt>
      <trkpt lat="48.10729" lon="-3.59188">
        <ele>180.9</ele>
        <time>2025-02-25T11:20:34.389Z</time>
      </trkpt>
      <trkpt lat="48.10729" lon="-3.59188">
        <ele>180.9</ele>
        <time>2025-02-25T11:20:35.391Z</time>
      </trkpt>
      <trkpt lat="48.10729" lon="-3.59188">
        <ele>180.9</ele>
        <time>2025-02-25T11:20:36.395Z</time>
      </trkpt>
      <trkpt lat="48.10729" lon="-3.59188">
        <ele>180.9</ele>
        <time>2025-02-25T11:20:37.398Z</time>
      </trkpt>
      <trkpt lat="48.10729" lon="-3.59188">
        <ele>180.9</ele>
        <time>2025-02-25T11:20:38.400Z</time>
      </trkpt>
      <trkpt lat="48.10729" lon="-3.59188">
        <ele>180.9</ele>
        <time>2025-02-25T11:20:39.404Z</time>
      </trkpt>
      <trkpt lat="48.10729" lon="-3.59188">
        <ele>180.9</ele>
        <time>2025-02-25T11:20:40.408Z</time>
      </trkpt>
      <trkpt lat="48.10729" lon="-3.59188">
        <ele>180.9</ele>
        <time>2025-02-25T11:20:41.413Z</time>
      </trkpt>
      <trkpt lat="48.10729" lon="-3.59188">
        <ele>180.9</ele>
        <time>2025-02-25T11:20:42.416Z</time>
      </trkpt>
      <trkpt lat="48.10729" lon="-3.59188">
        <ele>180.9</ele>
        <time>2025-02-25T11:20:43.418Z</time>
      </trkpt>
      <trkpt lat="48.10729" lon="-3.59188">
        <ele>180.9</ele>
        <time>2025-02-25T11:20:44.422Z</time>
      </trkpt>
      <trkpt lat="48.10729" lon="-3.59188">
        <ele>180.9</ele>
        <time>2025-02-25T11:20:45.424Z</time>
      </trkpt>
      <trkpt lat="48.10729" lon="-3.59188">
        <ele>180.9</ele>
        <time>2025-02-25T11:20:46.428Z</time>
      </trkpt>
      <trkpt lat="48.10729" lon="-3.59188">
        <ele>180.9</ele>
        <time>2025-02-25T11:20:47.431Z</time>
      </trkpt>
      <trkpt lat="48.10729" lon="-3.59188">
        <ele>180.9</ele>
        <time>2025-02-25T11:20:48.435Z</time>
      </trkpt>
      <trkpt lat="48.10729" lon="-3.59188">
        <ele>180.9</ele>
        <time>2025-02-25T11:20:49.438Z</time>
      </trkpt>
      <trkpt lat="48.10729" lon="-3.59188">
        <ele>180.9</ele>
        <time>2025-02-25T11:20:50.442Z</time>
      </trkpt>
      <trkpt lat="48.10729" lon="-3.59188">
        <ele>180.9</ele>
        <time>2025-02-25T11:20:51.446Z</time>
      </trkpt>
      <trkpt lat="48.10729" lon="-3.59188">
        <ele>180.9</ele>
        <time>2025-02-25T11:20:52.450Z</time>
      </trkpt>
      <trkpt lat="48.10729" lon="-3.59188">
        <ele>180.9</ele>
        <time>2025-02-25T11:20:53.452Z</time>
      </trkpt>
      <trkpt lat="48.10729" lon="-3.59188">
        <ele>180.9</ele>
        <time>2025-02-25T11:20:54.454Z</time>
      </trkpt>
      <trkpt lat="48.10729" lon="-3.59188">
        <ele>180.9</ele>
        <time>2025-02-25T11:20:55.458Z</time>
      </trkpt>
      <trkpt lat="48.10729" lon="-3.59188">
        <ele>180.9</ele>
        <time>2025-02-25T11:20:56.462Z</time>
      </trkpt>
      <trkpt lat="48.10729" lon="-3.59188">
        <ele>180.9</ele>
        <time>2025-02-25T11:20:57.465Z</time>
      </trkpt>
      <trkpt lat="48.10729" lon="-3.59188">
        <ele>180.9</ele>
        <time>2025-02-25T11:20:58.467Z</time>
      </trkpt>
      <trkpt lat="48.10729" lon="-3.59188">
        <ele>180.9</ele>
        <time>2025-02-25T11:20:59.470Z</time>
      </trkpt>
      <trkpt lat="48.10729" lon="-3.59188">
        <ele>180.9</ele>
        <time>2025-02-25T11:21:00.474Z</time>
      </trkpt>
      <trkpt lat="48.10729" lon="-3.59188">
        <ele>180.9</ele>
        <time>2025-02-25T11:21:01.478Z</time>
      </trkpt>
      <trkpt lat="48.10729" lon="-3.59188">
        <ele>180.9</ele>
        <time>2025-02-25T11:21:02.482Z</time>
      </trkpt>
      <trkpt lat="48.10729" lon="-3.59188">
        <ele>180.9</ele>
        <time>2025-02-25T11:21:03.486Z</time>
      </trkpt>
      <trkpt lat="48.10729" lon="-3.59188">
        <ele>180.9</ele>
        <time>2025-02-25T11:21:04.488Z</time>
      </trkpt>
      <trkpt lat="48.10729" lon="-3.59188">
        <ele>180.9</ele>
        <time>2025-02-25T11:21:05.491Z</time>
      </trkpt>
      <trkpt lat="48.10729" lon="-3.59188">
        <ele>180.9</ele>
        <time>2025-02-25T11:21:06.494Z</time>
      </trkpt>
      <trkpt lat="48.10729" lon="-3.59188">
        <ele>180.9</ele>
        <time>2025-02-25T11:21:07.498Z</time>
      </trkpt>
      <trkpt lat="48.10729" lon="-3.59188">
        <ele>180.9</ele>
        <time>2025-02-25T11:21:08.502Z</time>
      </trkpt>
      <trkpt lat="48.10729" lon="-3.59188">
        <ele>180.9</ele>
        <time>2025-02-25T11:21:09.507Z</time>
      </trkpt>
      <trkpt lat="48.10729" lon="-3.59188">
        <ele>180.9</ele>
        <time>2025-02-25T11:21:10.510Z</time>
      </trkpt>
      <trkpt lat="48.10729" lon="-3.59188">
        <ele>180.9</ele>
        <time>2025-02-25T11:21:11.514Z</time>
      </trkpt>
      <trkpt lat="48.10729" lon="-3.59188">
        <ele>180.9</ele>
        <time>2025-02-25T11:21:12.518Z</time>
      </trkpt>
      <trkpt lat="48.10729" lon="-3.59188">
        <ele>180.9</ele>
        <time>2025-02-25T11:21:13.522Z</time>
      </trkpt>
      <trkpt lat="48.10729" lon="-3.59188">
        <ele>180.9</ele>
        <time>2025-02-25T11:21:14.524Z</time>
      </trkpt>
      <trkpt lat="48.10729" lon="-3.59188">
        <ele>180.9</ele>
        <time>2025-02-25T11:21:15.525Z</time>
      </trkpt>
      <trkpt lat="48.10729" lon="-3.59188">
        <ele>180.9</ele>
        <time>2025-02-25T11:21:16.526Z</time>
      </trkpt>
      <trkpt lat="48.10729" lon="-3.59188">
        <ele>180.9</ele>
        <time>2025-02-25T11:21:17.530Z</time>
      </trkpt>
      <trkpt lat="48.10729" lon="-3.59188">
        <ele>180.9</ele>
        <time>2025-02-25T11:21:18.533Z</time>
      </trkpt>
      <trkpt lat="48.10729" lon="-3.59188">
        <ele>180.9</ele>
        <time>2025-02-25T11:21:19.536Z</time>
      </trkpt>
      <trkpt lat="48.10729" lon="-3.59188">
        <ele>180.9</ele>
        <time>2025-02-25T11:21:20.541Z</time>
      </trkpt>
      <trkpt lat="48.10729" lon="-3.59188">
        <ele>180.9</ele>
        <time>2025-02-25T11:21:21.544Z</time>
      </trkpt>
      <trkpt lat="48.10729" lon="-3.59188">
        <ele>180.9</ele>
        <time>2025-02-25T11:21:22.547Z</time>
      </trkpt>
      <trkpt lat="48.10729" lon="-3.59188">
        <ele>180.9</ele>
        <time>2025-02-25T11:21:23.551Z</time>
      </trkpt>
      <trkpt lat="48.10729" lon="-3.59188">
        <ele>180.9</ele>
        <time>2025-02-25T11:21:24.555Z</time>
      </trkpt>
      <trkpt lat="48.10729" lon="-3.59188">
        <ele>180.9</ele>
        <time>2025-02-25T11:21:25.557Z</time>
      </trkpt>
      <trkpt lat="48.10729" lon="-3.59188">
        <ele>180.9</ele>
        <time>2025-02-25T11:21:26.561Z</time>
      </trkpt>
      <trkpt lat="48.10729" lon="-3.59188">
        <ele>180.9</ele>
        <time>2025-02-25T11:21:27.566Z</time>
      </trkpt>
      <trkpt lat="48.10729" lon="-3.59188">
        <ele>180.9</ele>
        <time>2025-02-25T11:21:28.569Z</time>
      </trkpt>
      <trkpt lat="48.10729" lon="-3.59188">
        <ele>180.9</ele>
        <time>2025-02-25T11:21:29.570Z</time>
      </trkpt>
      <trkpt lat="48.10729" lon="-3.59188">
        <ele>180.9</ele>
        <time>2025-02-25T11:21:30.572Z</time>
      </trkpt>
      <trkpt lat="48.10729" lon="-3.59188">
        <ele>180.9</ele>
        <time>2025-02-25T11:21:31.574Z</time>
      </trkpt>
      <trkpt lat="48.10729" lon="-3.59188">
        <ele>180.9</ele>
        <time>2025-02-25T11:21:32.576Z</time>
      </trkpt>
      <trkpt lat="48.10729" lon="-3.59188">
        <ele>180.9</ele>
        <time>2025-02-25T11:21:33.577Z</time>
      </trkpt>
      <trkpt lat="48.10729" lon="-3.59188">
        <ele>180.9</ele>
        <time>2025-02-25T11:21:34.581Z</time>
      </trkpt>
      <trkpt lat="48.10729" lon="-3.59188">
        <ele>180.9</ele>
        <time>2025-02-25T11:21:35.585Z</time>
      </trkpt>
      <trkpt lat="48.10729" lon="-3.59188">
        <ele>180.9</ele>
        <time>2025-02-25T11:21:36.588Z</time>
      </trkpt>
      <trkpt lat="48.10729" lon="-3.59188">
        <ele>180.9</ele>
        <time>2025-02-25T11:21:37.593Z</time>
      </trkpt>
      <trkpt lat="48.10729" lon="-3.59188">
        <ele>180.9</ele>
        <time>2025-02-25T11:21:38.596Z</time>
      </trkpt>
      <trkpt lat="48.10729" lon="-3.59188">
        <ele>180.9</ele>
        <time>2025-02-25T11:21:39.600Z</time>
      </trkpt>
      <trkpt lat="48.10729" lon="-3.59188">
        <ele>180.9</ele>
        <time>2025-02-25T11:21:40.604Z</time>
      </trkpt>
      <trkpt lat="48.10729" lon="-3.59188">
        <ele>180.9</ele>
        <time>2025-02-25T11:21:41.606Z</time>
      </trkpt>
      <trkpt lat="48.10729" lon="-3.59188">
        <ele>180.9</ele>
        <time>2025-02-25T11:21:42.608Z</time>
      </trkpt>
      <trkpt lat="48.10729" lon="-3.59188">
        <ele>180.9</ele>
        <time>2025-02-25T11:21:43.612Z</time>
      </trkpt>
      <trkpt lat="48.10729" lon="-3.59188">
        <ele>180.9</ele>
        <time>2025-02-25T11:21:44.616Z</time>
      </trkpt>
      <trkpt lat="48.10729" lon="-3.59188">
        <ele>180.9</ele>
        <time>2025-02-25T11:21:45.620Z</time>
      </trkpt>
      <trkpt lat="48.10729" lon="-3.59188">
        <ele>180.9</ele>
        <time>2025-02-25T11:21:46.624Z</time>
      </trkpt>
      <trkpt lat="48.10729" lon="-3.59188">
        <ele>180.9</ele>
        <time>2025-02-25T11:21:47.628Z</time>
      </trkpt>
      <trkpt lat="48.10729" lon="-3.59188">
        <ele>180.9</ele>
        <time>2025-02-25T11:21:48.631Z</time>
      </trkpt>
      <trkpt lat="48.10729" lon="-3.59188">
        <ele>180.9</ele>
        <time>2025-02-25T11:21:49.635Z</time>
      </trkpt>
      <trkpt lat="48.10729" lon="-3.59188">
        <ele>180.9</ele>
        <time>2025-02-25T11:21:50.638Z</time>
      </trkpt>
      <trkpt lat="48.10729" lon="-3.59188">
        <ele>180.9</ele>
        <time>2025-02-25T11:21:51.643Z</time>
      </trkpt>
      <trkpt lat="48.10729" lon="-3.59188">
        <ele>180.9</ele>
        <time>2025-02-25T11:21:52.646Z</time>
      </trkpt>
      <trkpt lat="48.10729" lon="-3.59188">
        <ele>180.9</ele>
        <time>2025-02-25T11:21:53.650Z</time>
      </trkpt>
      <trkpt lat="48.10729" lon="-3.59188">
        <ele>180.9</ele>
        <time>2025-02-25T11:21:54.654Z</time>
      </trkpt>
      <trkpt lat="48.10729" lon="-3.59188">
        <ele>180.9</ele>
        <time>2025-02-25T11:21:55.658Z</time>
      </trkpt>
      <trkpt lat="48.10729" lon="-3.59188">
        <ele>180.9</ele>
        <time>2025-02-25T11:21:56.661Z</time>
      </trkpt>
      <trkpt lat="48.10729" lon="-3.59188">
        <ele>180.9</ele>
        <time>2025-02-25T11:21:57.665Z</time>
      </trkpt>
      <trkpt lat="48.10729" lon="-3.59188">
        <ele>180.9</ele>
        <time>2025-02-25T11:21:58.669Z</time>
      </trkpt>
      <trkpt lat="48.10729" lon="-3.59188">
        <ele>180.9</ele>
        <time>2025-02-25T11:21:59.673Z</time>
      </trkpt>
      <trkpt lat="48.10729" lon="-3.59188">
        <ele>180.9</ele>
        <time>2025-02-25T11:22:00.677Z</time>
      </trkpt>
      <trkpt lat="48.10729" lon="-3.59188">
        <ele>180.9</ele>
        <time>2025-02-25T11:22:01.681Z</time>
      </trkpt>
      <trkpt lat="48.10729" lon="-3.59188">
        <ele>180.9</ele>
        <time>2025-02-25T11:22:02.685Z</time>
      </trkpt>
      <trkpt lat="48.10729" lon="-3.59188">
        <ele>180.9</ele>
        <time>2025-02-25T11:22:03.689Z</time>
      </trkpt>
      <trkpt lat="48.10729" lon="-3.59188">
        <ele>180.9</ele>
        <time>2025-02-25T11:22:04.693Z</time>
      </trkpt>
      <trkpt lat="48.10729" lon="-3.59188">
        <ele>180.9</ele>
        <time>2025-02-25T11:22:05.698Z</time>
      </trkpt>
      <trkpt lat="48.10729" lon="-3.59188">
        <ele>180.9</ele>
        <time>2025-02-25T11:22:06.701Z</time>
      </trkpt>
      <trkpt lat="48.10729" lon="-3.59188">
        <ele>180.9</ele>
        <time>2025-02-25T11:22:07.706Z</time>
      </trkpt>
      <trkpt lat="48.10729" lon="-3.59188">
        <ele>180.9</ele>
        <time>2025-02-25T11:22:08.707Z</time>
      </trkpt>
      <trkpt lat="48.10729" lon="-3.59188">
        <ele>180.9</ele>
        <time>2025-02-25T11:22:09.709Z</time>
      </trkpt>
      <trkpt lat="48.10729" lon="-3.59188">
        <ele>180.9</ele>
        <time>2025-02-25T11:22:10.712Z</time>
      </trkpt>
      <trkpt lat="48.10729" lon="-3.59188">
        <ele>180.9</ele>
        <time>2025-02-25T11:22:11.715Z</time>
      </trkpt>
      <trkpt lat="48.10729" lon="-3.59188">
        <ele>180.9</ele>
        <time>2025-02-25T11:22:12.719Z</time>
      </trkpt>
      <trkpt lat="48.10729" lon="-3.59188">
        <ele>180.9</ele>
        <time>2025-02-25T11:22:13.723Z</time>
      </trkpt>
      <trkpt lat="48.10729" lon="-3.59188">
        <ele>180.9</ele>
        <time>2025-02-25T11:22:14.728Z</time>
      </trkpt>
      <trkpt lat="48.10729" lon="-3.59188">
        <ele>180.9</ele>
        <time>2025-02-25T11:22:15.732Z</time>
      </trkpt>
      <trkpt lat="48.10729" lon="-3.59188">
        <ele>180.9</ele>
        <time>2025-02-25T11:22:16.735Z</time>
      </trkpt>
      <trkpt lat="48.10729" lon="-3.59188">
        <ele>180.9</ele>
        <time>2025-02-25T11:22:17.736Z</time>
      </trkpt>
      <trkpt lat="48.10729" lon="-3.59188">
        <ele>180.9</ele>
        <time>2025-02-25T11:22:18.740Z</time>
      </trkpt>
      <trkpt lat="48.10729" lon="-3.59188">
        <ele>180.9</ele>
        <time>2025-02-25T11:22:19.744Z</time>
      </trkpt>
      <trkpt lat="48.10729" lon="-3.59188">
        <ele>180.9</ele>
        <time>2025-02-25T11:22:20.748Z</time>
      </trkpt>
      <trkpt lat="48.10729" lon="-3.59188">
        <ele>180.9</ele>
        <time>2025-02-25T11:22:21.753Z</time>
      </trkpt>
      <trkpt lat="48.10729" lon="-3.59188">
        <ele>180.9</ele>
        <time>2025-02-25T11:22:22.755Z</time>
      </trkpt>
      <trkpt lat="48.10729" lon="-3.59188">
        <ele>180.9</ele>
        <time>2025-02-25T11:22:23.756Z</time>
      </trkpt>
      <trkpt lat="48.10729" lon="-3.59188">
        <ele>180.9</ele>
        <time>2025-02-25T11:22:24.760Z</time>
      </trkpt>
      <trkpt lat="48.10729" lon="-3.59188">
        <ele>180.9</ele>
        <time>2025-02-25T11:22:25.764Z</time>
      </trkpt>
      <trkpt lat="48.10729" lon="-3.59188">
        <ele>180.9</ele>
        <time>2025-02-25T11:22:26.769Z</time>
      </trkpt>
      <trkpt lat="48.10729" lon="-3.59188">
        <ele>180.9</ele>
        <time>2025-02-25T11:22:27.772Z</time>
      </trkpt>
      <trkpt lat="48.10729" lon="-3.59188">
        <ele>180.9</ele>
        <time>2025-02-25T11:22:28.774Z</time>
      </trkpt>
      <trkpt lat="48.10729" lon="-3.59188">
        <ele>180.9</ele>
        <time>2025-02-25T11:22:29.778Z</time>
      </trkpt>
      <trkpt lat="48.10729" lon="-3.59188">
        <ele>180.9</ele>
        <time>2025-02-25T11:22:30.782Z</time>
      </trkpt>
      <trkpt lat="48.10729" lon="-3.59188">
        <ele>180.9</ele>
        <time>2025-02-25T11:22:31.786Z</time>
      </trkpt>
      <trkpt lat="48.10729" lon="-3.59188">
        <ele>180.9</ele>
        <time>2025-02-25T11:22:32.789Z</time>
      </trkpt>
      <trkpt lat="48.10729" lon="-3.59188">
        <ele>180.9</ele>
        <time>2025-02-25T11:22:33.792Z</time>
      </trkpt>
      <trkpt lat="48.10729" lon="-3.59188">
        <ele>180.9</ele>
        <time>2025-02-25T11:22:34.793Z</time>
      </trkpt>
      <trkpt lat="48.10729" lon="-3.59188">
        <ele>180.9</ele>
        <time>2025-02-25T11:22:35.797Z</time>
      </trkpt>
      <trkpt lat="48.10729" lon="-3.59188">
        <ele>180.9</ele>
        <time>2025-02-25T11:22:36.801Z</time>
      </trkpt>
      <trkpt lat="48.10729" lon="-3.59188">
        <ele>180.9</ele>
        <time>2025-02-25T11:22:37.806Z</time>
      </trkpt>
      <trkpt lat="48.10729" lon="-3.59188">
        <ele>180.9</ele>
        <time>2025-02-25T11:22:38.809Z</time>
      </trkpt>
      <trkpt lat="48.10729" lon="-3.59188">
        <ele>180.9</ele>
        <time>2025-02-25T11:22:39.813Z</time>
      </trkpt>
      <trkpt lat="48.10729" lon="-3.59188">
        <ele>180.9</ele>
        <time>2025-02-25T11:22:40.816Z</time>
      </trkpt>
      <trkpt lat="48.10729" lon="-3.59188">
        <ele>180.9</ele>
        <time>2025-02-25T11:22:41.820Z</time>
      </trkpt>
      <trkpt lat="48.10729" lon="-3.59188">
        <ele>180.9</ele>
        <time>2025-02-25T11:22:42.824Z</time>
      </trkpt>
      <trkpt lat="48.10729" lon="-3.59188">
        <ele>180.9</ele>
        <time>2025-02-25T11:22:43.827Z</time>
      </trkpt>
      <trkpt lat="48.10729" lon="-3.59188">
        <ele>180.9</ele>
        <time>2025-02-25T11:22:44.830Z</time>
      </trkpt>
      <trkpt lat="48.10729" lon="-3.59188">
        <ele>180.9</ele>
        <time>2025-02-25T11:22:45.834Z</time>
      </trkpt>
      <trkpt lat="48.10729" lon="-3.59188">
        <ele>180.9</ele>
        <time>2025-02-25T11:22:46.838Z</time>
      </trkpt>
      <trkpt lat="48.10729" lon="-3.59188">
        <ele>180.9</ele>
        <time>2025-02-25T11:22:47.842Z</time>
      </trkpt>
      <trkpt lat="48.10729" lon="-3.59188">
        <ele>180.9</ele>
        <time>2025-02-25T11:22:48.845Z</time>
      </trkpt>
      <trkpt lat="48.10729" lon="-3.59188">
        <ele>180.9</ele>
        <time>2025-02-25T11:22:49.848Z</time>
      </trkpt>
      <trkpt lat="48.10729" lon="-3.59188">
        <ele>180.9</ele>
        <time>2025-02-25T11:22:50.850Z</time>
      </trkpt>
      <trkpt lat="48.10729" lon="-3.59188">
        <ele>180.9</ele>
        <time>2025-02-25T11:22:51.854Z</time>
      </trkpt>
      <trkpt lat="48.10729" lon="-3.59188">
        <ele>180.9</ele>
        <time>2025-02-25T11:22:52.858Z</time>
      </trkpt>
      <trkpt lat="48.10729" lon="-3.59188">
        <ele>180.9</ele>
        <time>2025-02-25T11:22:53.863Z</time>
      </trkpt>
      <trkpt lat="48.10729" lon="-3.59188">
        <ele>180.9</ele>
        <time>2025-02-25T11:22:54.866Z</time>
      </trkpt>
      <trkpt lat="48.10729" lon="-3.59188">
        <ele>180.9</ele>
        <time>2025-02-25T11:22:55.870Z</time>
      </trkpt>
      <trkpt lat="48.10729" lon="-3.59188">
        <ele>180.9</ele>
        <time>2025-02-25T11:22:56.874Z</time>
      </trkpt>
      <trkpt lat="48.10729" lon="-3.59188">
        <ele>180.9</ele>
        <time>2025-02-25T11:22:57.877Z</time>
      </trkpt>
      <trkpt lat="48.10729" lon="-3.59188">
        <ele>180.9</ele>
        <time>2025-02-25T11:22:58.879Z</time>
      </trkpt>
      <trkpt lat="48.10729" lon="-3.59188">
        <ele>180.9</ele>
        <time>2025-02-25T11:22:59.881Z</time>
      </trkpt>
      <trkpt lat="48.10729" lon="-3.59188">
        <ele>180.9</ele>
        <time>2025-02-25T11:23:00.883Z</time>
      </trkpt>
      <trkpt lat="48.10729" lon="-3.59188">
        <ele>180.9</ele>
        <time>2025-02-25T11:23:01.886Z</time>
      </trkpt>
      <trkpt lat="48.10729" lon="-3.59188">
        <ele>180.9</ele>
        <time>2025-02-25T11:23:02.890Z</time>
      </trkpt>
      <trkpt lat="48.10729" lon="-3.59188">
        <ele>180.9</ele>
        <time>2025-02-25T11:23:03.894Z</time>
      </trkpt>
      <trkpt lat="48.10729" lon="-3.59188">
        <ele>180.9</ele>
        <time>2025-02-25T11:23:04.898Z</time>
      </trkpt>
      <trkpt lat="48.10729" lon="-3.59188">
        <ele>180.9</ele>
        <time>2025-02-25T11:23:05.902Z</time>
      </trkpt>
      <trkpt lat="48.10729" lon="-3.59188">
        <ele>180.9</ele>
        <time>2025-02-25T11:23:06.906Z</time>
      </trkpt>
      <trkpt lat="48.10729" lon="-3.59188">
        <ele>180.9</ele>
        <time>2025-02-25T11:23:07.908Z</time>
      </trkpt>
      <trkpt lat="48.10729" lon="-3.59188">
        <ele>180.9</ele>
        <time>2025-02-25T11:23:08.910Z</time>
      </trkpt>
      <trkpt lat="48.10729" lon="-3.59188">
        <ele>180.9</ele>
        <time>2025-02-25T11:23:09.912Z</time>
      </trkpt>
      <trkpt lat="48.10729" lon="-3.59188">
        <ele>180.9</ele>
        <time>2025-02-25T11:23:10.916Z</time>
      </trkpt>
      <trkpt lat="48.10729" lon="-3.59188">
        <ele>180.9</ele>
        <time>2025-02-25T11:23:11.920Z</time>
      </trkpt>
      <trkpt lat="48.10729" lon="-3.59188">
        <ele>180.9</ele>
        <time>2025-02-25T11:23:12.924Z</time>
      </trkpt>
      <trkpt lat="48.10729" lon="-3.59188">
        <ele>180.9</ele>
        <time>2025-02-25T11:23:13.928Z</time>
      </trkpt>
      <trkpt lat="48.10729" lon="-3.59188">
        <ele>180.9</ele>
        <time>2025-02-25T11:23:14.932Z</time>
      </trkpt>
      <trkpt lat="48.10729" lon="-3.59188">
        <ele>180.9</ele>
        <time>2025-02-25T11:23:15.936Z</time>
      </trkpt>
      <trkpt lat="48.10729" lon="-3.59188">
        <ele>180.9</ele>
        <time>2025-02-25T11:23:16.940Z</time>
      </trkpt>
      <trkpt lat="48.10729" lon="-3.59188">
        <ele>180.9</ele>
        <time>2025-02-25T11:23:17.944Z</time>
      </trkpt>
      <trkpt lat="48.10729" lon="-3.59188">
        <ele>180.9</ele>
        <time>2025-02-25T11:23:18.948Z</time>
      </trkpt>
      <trkpt lat="48.10729" lon="-3.59188">
        <ele>180.9</ele>
        <time>2025-02-25T11:23:19.953Z</time>
      </trkpt>
      <trkpt lat="48.10729" lon="-3.59188">
        <ele>180.9</ele>
        <time>2025-02-25T11:23:20.954Z</time>
      </trkpt>
      <trkpt lat="48.10729" lon="-3.59188">
        <ele>180.9</ele>
        <time>2025-02-25T11:23:21.958Z</time>
      </trkpt>
      <trkpt lat="48.10729" lon="-3.59188">
        <ele>180.9</ele>
        <time>2025-02-25T11:23:22.963Z</time>
      </trkpt>
      <trkpt lat="48.10729" lon="-3.59188">
        <ele>180.9</ele>
        <time>2025-02-25T11:23:23.967Z</time>
      </trkpt>
      <trkpt lat="48.10729" lon="-3.59188">
        <ele>180.9</ele>
        <time>2025-02-25T11:23:24.970Z</time>
      </trkpt>
      <trkpt lat="48.10729" lon="-3.59188">
        <ele>180.9</ele>
        <time>2025-02-25T11:23:25.972Z</time>
      </trkpt>
      <trkpt lat="48.10729" lon="-3.59188">
        <ele>180.9</ele>
        <time>2025-02-25T11:23:26.976Z</time>
      </trkpt>
      <trkpt lat="48.10729" lon="-3.59188">
        <ele>180.9</ele>
        <time>2025-02-25T11:23:27.980Z</time>
      </trkpt>
      <trkpt lat="48.10729" lon="-3.59188">
        <ele>180.9</ele>
        <time>2025-02-25T11:23:28.984Z</time>
      </trkpt>
      <trkpt lat="48.10729" lon="-3.59188">
        <ele>180.9</ele>
        <time>2025-02-25T11:23:29.987Z</time>
      </trkpt>
      <trkpt lat="48.10729" lon="-3.59188">
        <ele>180.9</ele>
        <time>2025-02-25T11:23:30.992Z</time>
      </trkpt>
      <trkpt lat="48.10729" lon="-3.59188">
        <ele>180.9</ele>
        <time>2025-02-25T11:23:31.995Z</time>
      </trkpt>
      <trkpt lat="48.10729" lon="-3.59188">
        <ele>180.9</ele>
        <time>2025-02-25T11:23:33Z</time>
      </trkpt>
      <trkpt lat="48.10729" lon="-3.59188">
        <ele>180.9</ele>
        <time>2025-02-25T11:23:34.003Z</time>
      </trkpt>
      <trkpt lat="48.10729" lon="-3.59188">
        <ele>180.9</ele>
        <time>2025-02-25T11:23:35.007Z</time>
      </trkpt>
      <trkpt lat="48.10729" lon="-3.59188">
        <ele>180.9</ele>
        <time>2025-02-25T11:23:36.011Z</time>
      </trkpt>
      <trkpt lat="48.10729" lon="-3.59188">
        <ele>180.9</ele>
        <time>2025-02-25T11:23:37.015Z</time>
      </trkpt>
      <trkpt lat="48.10729" lon="-3.59188">
        <ele>180.9</ele>
        <time>2025-02-25T11:23:38.019Z</time>
      </trkpt>
      <trkpt lat="48.10729" lon="-3.59188">
        <ele>180.9</ele>
        <time>2025-02-25T11:23:39.023Z</time>
      </trkpt>
      <trkpt lat="48.10729" lon="-3.59188">
        <ele>180.9</ele>
        <time>2025-02-25T11:23:40.027Z</time>
      </trkpt>
      <trkpt lat="48.10729" lon="-3.59188">
        <ele>180.9</ele>
        <time>2025-02-25T11:23:41.031Z</time>
      </trkpt>
      <trkpt lat="48.10729" lon="-3.59188">
        <ele>180.9</ele>
        <time>2025-02-25T11:23:42.032Z</time>
      </trkpt>
      <trkpt lat="48.10729" lon="-3.59188">
        <ele>180.9</ele>
        <time>2025-02-25T11:23:43.033Z</time>
      </trkpt>
      <trkpt lat="48.10729" lon="-3.59188">
        <ele>180.9</ele>
        <time>2025-02-25T11:23:44.037Z</time>
      </trkpt>
      <trkpt lat="48.10729" lon="-3.59188">
        <ele>180.9</ele>
        <time>2025-02-25T11:23:45.041Z</time>
      </trkpt>
      <trkpt lat="48.10729" lon="-3.59188">
        <ele>180.9</ele>
        <time>2025-02-25T11:23:46.045Z</time>
      </trkpt>
      <trkpt lat="48.10729" lon="-3.59188">
        <ele>180.9</ele>
        <time>2025-02-25T11:23:47.047Z</time>
      </trkpt>
      <trkpt lat="48.10729" lon="-3.59188">
        <ele>180.9</ele>
        <time>2025-02-25T11:23:48.051Z</time>
      </trkpt>
      <trkpt lat="48.10729" lon="-3.59188">
        <ele>180.9</ele>
        <time>2025-02-25T11:23:49.055Z</time>
      </trkpt>
      <trkpt lat="48.10729" lon="-3.59188">
        <ele>180.9</ele>
        <time>2025-02-25T11:23:50.060Z</time>
      </trkpt>
      <trkpt lat="48.10729" lon="-3.59188">
        <ele>180.9</ele>
        <time>2025-02-25T11:23:51.062Z</time>
      </trkpt>
      <trkpt lat="48.10729" lon="-3.59188">
        <ele>180.9</ele>
        <time>2025-02-25T11:23:52.064Z</time>
      </trkpt>
      <trkpt lat="48.10729" lon="-3.59188">
        <ele>180.9</ele>
        <time>2025-02-25T11:23:53.067Z</time>
      </trkpt>
      <trkpt lat="48.10729" lon="-3.59188">
        <ele>180.9</ele>
        <time>2025-02-25T11:23:54.071Z</time>
      </trkpt>
      <trkpt lat="48.10729" lon="-3.59188">
        <ele>180.9</ele>
        <time>2025-02-25T11:23:55.075Z</time>
      </trkpt>
      <trkpt lat="48.10729" lon="-3.59188">
        <ele>180.9</ele>
        <time>2025-02-25T11:23:56.077Z</time>
      </trkpt>
      <trkpt lat="48.10729" lon="-3.59188">
        <ele>180.9</ele>
        <time>2025-02-25T11:23:57.081Z</time>
      </trkpt>
      <trkpt lat="48.10729" lon="-3.59188">
        <ele>180.9</ele>
        <time>2025-02-25T11:23:58.086Z</time>
      </trkpt>
      <trkpt lat="48.10729" lon="-3.59188">
        <ele>180.9</ele>
        <time>2025-02-25T11:23:59.089Z</time>
      </trkpt>
      <trkpt lat="48.10729" lon="-3.59188">
        <ele>180.9</ele>
        <time>2025-02-25T11:24:00.091Z</time>
      </trkpt>
      <trkpt lat="48.10729" lon="-3.59188">
        <ele>180.9</ele>
        <time>2025-02-25T11:24:01.094Z</time>
      </trkpt>
      <trkpt lat="48.10729" lon="-3.59188">
        <ele>180.9</ele>
        <time>2025-02-25T11:24:02.098Z</time>
      </trkpt>
      <trkpt lat="48.10729" lon="-3.59188">
        <ele>180.9</ele>
        <time>2025-02-25T11:24:03.102Z</time>
      </trkpt>
      <trkpt lat="48.10729" lon="-3.59188">
        <ele>180.9</ele>
        <time>2025-02-25T11:24:04.107Z</time>
      </trkpt>
      <trkpt lat="48.10729" lon="-3.59188">
        <ele>180.9</ele>
        <time>2025-02-25T11:24:05.110Z</time>
      </trkpt>
      <trkpt lat="48.10729" lon="-3.59188">
        <ele>180.9</ele>
        <time>2025-02-25T11:24:06.114Z</time>
      </trkpt>
      <trkpt lat="48.10729" lon="-3.59188">
        <ele>180.9</ele>
        <time>2025-02-25T11:24:07.119Z</time>
      </trkpt>
      <trkpt lat="48.10729" lon="-3.59188">
        <ele>180.9</ele>
        <time>2025-02-25T11:24:08.122Z</time>
      </trkpt>
      <trkpt lat="48.10729" lon="-3.59188">
        <ele>180.9</ele>
        <time>2025-02-25T11:24:09.126Z</time>
      </trkpt>
      <trkpt lat="48.10729" lon="-3.59188">
        <ele>180.9</ele>
        <time>2025-02-25T11:24:10.130Z</time>
      </trkpt>
      <trkpt lat="48.10729" lon="-3.59188">
        <ele>180.9</ele>
        <time>2025-02-25T11:24:11.134Z</time>
      </trkpt>
      <trkpt lat="48.10729" lon="-3.59188">
        <ele>180.9</ele>
        <time>2025-02-25T11:24:12.139Z</time>
      </trkpt>
      <trkpt lat="48.10729" lon="-3.59188">
        <ele>180.9</ele>
        <time>2025-02-25T11:24:13.142Z</time>
      </trkpt>
      <trkpt lat="48.10729" lon="-3.59188">
        <ele>180.9</ele>
        <time>2025-02-25T11:24:14.146Z</time>
      </trkpt>
      <trkpt lat="48.10729" lon="-3.59188">
        <ele>180.9</ele>
        <time>2025-02-25T11:24:15.150Z</time>
      </trkpt>
      <trkpt lat="48.10729" lon="-3.59188">
        <ele>180.9</ele>
        <time>2025-02-25T11:24:16.153Z</time>
      </trkpt>
      <trkpt lat="48.10729" lon="-3.59188">
        <ele>180.9</ele>
        <time>2025-02-25T11:24:17.157Z</time>
      </trkpt>
      <trkpt lat="48.10729" lon="-3.59188">
        <ele>180.9</ele>
        <time>2025-02-25T11:24:18.161Z</time>
      </trkpt>
      <trkpt lat="48.10729" lon="-3.59188">
        <ele>180.9</ele>
        <time>2025-02-25T11:24:19.164Z</time>
      </trkpt>
      <trkpt lat="48.10729" lon="-3.59188">
        <ele>180.9</ele>
        <time>2025-02-25T11:24:20.168Z</time>
      </trkpt>
      <trkpt lat="48.10729" lon="-3.59188">
        <ele>180.9</ele>
        <time>2025-02-25T11:24:21.172Z</time>
      </trkpt>
      <trkpt lat="48.10729" lon="-3.59188">
        <ele>180.9</ele>
        <time>2025-02-25T11:24:22.176Z</time>
      </trkpt>
      <trkpt lat="48.10729" lon="-3.59188">
        <ele>180.9</ele>
        <time>2025-02-25T11:24:23.179Z</time>
      </trkpt>
      <trkpt lat="48.10729" lon="-3.59188">
        <ele>180.9</ele>
        <time>2025-02-25T11:24:24.183Z</time>
      </trkpt>
      <trkpt lat="48.10729" lon="-3.59188">
        <ele>180.9</ele>
        <time>2025-02-25T11:24:25.187Z</time>
      </trkpt>
      <trkpt lat="48.10729" lon="-3.59188">
        <ele>180.9</ele>
        <time>2025-02-25T11:24:26.189Z</time>
      </trkpt>
      <trkpt lat="48.10729" lon="-3.59188">
        <ele>180.9</ele>
        <time>2025-02-25T11:24:27.192Z</time>
      </trkpt>
      <trkpt lat="48.10729" lon="-3.59188">
        <ele>180.9</ele>
        <time>2025-02-25T11:24:28.196Z</time>
      </trkpt>
      <trkpt lat="48.10729" lon="-3.59188">
        <ele>180.9</ele>
        <time>2025-02-25T11:24:29.200Z</time>
      </trkpt>
      <trkpt lat="48.10729" lon="-3.59188">
        <ele>180.9</ele>
        <time>2025-02-25T11:24:30.204Z</time>
      </trkpt>
      <trkpt lat="48.10729" lon="-3.59188">
        <ele>180.9</ele>
        <time>2025-02-25T11:24:31.208Z</time>
      </trkpt>
      <trkpt lat="48.10729" lon="-3.59188">
        <ele>180.9</ele>
        <time>2025-02-25T11:24:32.209Z</time>
      </trkpt>
      <trkpt lat="48.10729" lon="-3.59188">
        <ele>180.9</ele>
        <time>2025-02-25T11:24:33.213Z</time>
      </trkpt>
      <trkpt lat="48.10729" lon="-3.59188">
        <ele>180.9</ele>
        <time>2025-02-25T11:24:34.217Z</time>
      </trkpt>
      <trkpt lat="48.10729" lon="-3.59188">
        <ele>180.9</ele>
        <time>2025-02-25T11:24:35.221Z</time>
      </trkpt>
      <trkpt lat="48.10729" lon="-3.59188">
        <ele>180.9</ele>
        <time>2025-02-25T11:24:36.225Z</time>
      </trkpt>
      <trkpt lat="48.10729" lon="-3.59188">
        <ele>180.9</ele>
        <time>2025-02-25T11:24:37.228Z</time>
      </trkpt>
      <trkpt lat="48.10729" lon="-3.59188">
        <ele>180.9</ele>
        <time>2025-02-25T11:24:38.232Z</time>
      </trkpt>
      <trkpt lat="48.10729" lon="-3.59188">
        <ele>180.9</ele>
        <time>2025-02-25T11:24:39.237Z</time>
      </trkpt>
      <trkpt lat="48.10729" lon="-3.59188">
        <ele>180.9</ele>
        <time>2025-02-25T11:24:40.240Z</time>
      </trkpt>
      <trkpt lat="48.10729" lon="-3.59188">
        <ele>180.9</ele>
        <time>2025-02-25T11:24:41.244Z</time>
      </trkpt>
      <trkpt lat="48.10729" lon="-3.59188">
        <ele>180.9</ele>
        <time>2025-02-25T11:24:42.248Z</time>
      </trkpt>
      <trkpt lat="48.10729" lon="-3.59188">
        <ele>180.9</ele>
        <time>2025-02-25T11:24:43.250Z</time>
      </trkpt>
      <trkpt lat="48.10729" lon="-3.59188">
        <ele>180.9</ele>
        <time>2025-02-25T11:24:44.254Z</time>
      </trkpt>
      <trkpt lat="48.10729" lon="-3.59188">
        <ele>180.9</ele>
        <time>2025-02-25T11:24:45.256Z</time>
      </trkpt>
      <trkpt lat="48.10729" lon="-3.59188">
        <ele>180.9</ele>
        <time>2025-02-25T11:24:46.257Z</time>
      </trkpt>
      <trkpt lat="48.10729" lon="-3.59188">
        <ele>180.9</ele>
        <time>2025-02-25T11:24:47.261Z</time>
      </trkpt>
      <trkpt lat="48.10729" lon="-3.59188">
        <ele>180.9</ele>
        <time>2025-02-25T11:24:48.264Z</time>
      </trkpt>
      <trkpt lat="48.10729" lon="-3.59188">
        <ele>180.9</ele>
        <time>2025-02-25T11:24:49.268Z</time>
      </trkpt>
      <trkpt lat="48.10729" lon="-3.59188">
        <ele>180.9</ele>
        <time>2025-02-25T11:24:50.272Z</time>
      </trkpt>
      <trkpt lat="48.10729" lon="-3.59188">
        <ele>180.9</ele>
        <time>2025-02-25T11:24:51.274Z</time>
      </trkpt>
      <trkpt lat="48.10729" lon="-3.59188">
        <ele>180.9</ele>
        <time>2025-02-25T11:24:52.278Z</time>
      </trkpt>
      <trkpt lat="48.10729" lon="-3.59188">
        <ele>180.9</ele>
        <time>2025-02-25T11:24:53.281Z</time>
      </trkpt>
      <trkpt lat="48.10729" lon="-3.59188">
        <ele>180.9</ele>
        <time>2025-02-25T11:24:54.285Z</time>
      </trkpt>
      <trkpt lat="48.10729" lon="-3.59188">
        <ele>180.9</ele>
        <time>2025-02-25T11:24:55.287Z</time>
      </trkpt>
      <trkpt lat="48.10729" lon="-3.59188">
        <ele>180.9</ele>
        <time>2025-02-25T11:24:56.290Z</time>
      </trkpt>
      <trkpt lat="48.10729" lon="-3.59188">
        <ele>180.9</ele>
        <time>2025-02-25T11:24:57.291Z</time>
      </trkpt>
      <trkpt lat="48.10729" lon="-3.59188">
        <ele>180.9</ele>
        <time>2025-02-25T11:24:58.295Z</time>
      </trkpt>
      <trkpt lat="48.10729" lon="-3.59188">
        <ele>180.9</ele>
        <time>2025-02-25T11:24:59.299Z</time>
      </trkpt>
      <trkpt lat="48.10729" lon="-3.59188">
        <ele>180.9</ele>
        <time>2025-02-25T11:25:00.303Z</time>
      </trkpt>
      <trkpt lat="48.10729" lon="-3.59188">
        <ele>180.9</ele>
        <time>2025-02-25T11:25:01.307Z</time>
      </trkpt>
      <trkpt lat="48.10729" lon="-3.59188">
        <ele>180.9</ele>
        <time>2025-02-25T11:25:02.311Z</time>
      </trkpt>
      <trkpt lat="48.10729" lon="-3.59188">
        <ele>180.9</ele>
        <time>2025-02-25T11:25:03.315Z</time>
      </trkpt>
      <trkpt lat="48.10729" lon="-3.59188">
        <ele>180.9</ele>
        <time>2025-02-25T11:25:04.320Z</time>
      </trkpt>
      <trkpt lat="48.10729" lon="-3.59188">
        <ele>180.9</ele>
        <time>2025-02-25T11:25:05.323Z</time>
      </trkpt>
      <trkpt lat="48.10729" lon="-3.59188">
        <ele>180.9</ele>
        <time>2025-02-25T11:25:06.327Z</time>
      </trkpt>
      <trkpt lat="48.10729" lon="-3.59188">
        <ele>180.9</ele>
        <time>2025-02-25T11:25:07.331Z</time>
      </trkpt>
      <trkpt lat="48.10729" lon="-3.59188">
        <ele>180.9</ele>
        <time>2025-02-25T11:25:08.334Z</time>
      </trkpt>
      <trkpt lat="48.10729" lon="-3.59188">
        <ele>180.9</ele>
        <time>2025-02-25T11:25:09.339Z</time>
      </trkpt>
      <trkpt lat="48.10729" lon="-3.59188">
        <ele>180.9</ele>
        <time>2025-02-25T11:25:10.342Z</time>
      </trkpt>
      <trkpt lat="48.10729" lon="-3.59188">
        <ele>180.9</ele>
        <time>2025-02-25T11:25:11.345Z</time>
      </trkpt>
      <trkpt lat="48.10729" lon="-3.59188">
        <ele>180.9</ele>
        <time>2025-02-25T11:25:12.349Z</time>
      </trkpt>
      <trkpt lat="48.10729" lon="-3.59188">
        <ele>180.9</ele>
        <time>2025-02-25T11:25:13.354Z</time>
      </trkpt>
      <trkpt lat="48.10729" lon="-3.59188">
        <ele>180.9</ele>
        <time>2025-02-25T11:25:14.357Z</time>
      </trkpt>
      <trkpt lat="48.10729" lon="-3.59188">
        <ele>180.9</ele>
        <time>2025-02-25T11:25:15.361Z</time>
      </trkpt>
      <trkpt lat="48.10729" lon="-3.59188">
        <ele>180.9</ele>
        <time>2025-02-25T11:25:16.365Z</time>
      </trkpt>
      <trkpt lat="48.10729" lon="-3.59188">
        <ele>180.9</ele>
        <time>2025-02-25T11:25:17.369Z</time>
      </trkpt>
      <trkpt lat="48.10729" lon="-3.59188">
        <ele>180.9</ele>
        <time>2025-02-25T11:25:18.374Z</time>
      </trkpt>
      <trkpt lat="48.10729" lon="-3.59188">
        <ele>180.9</ele>
        <time>2025-02-25T11:25:19.377Z</time>
      </trkpt>
      <trkpt lat="48.10729" lon="-3.59188">
        <ele>180.9</ele>
        <time>2025-02-25T11:25:20.380Z</time>
      </trkpt>
      <trkpt lat="48.10719" lon="-3.59195">
        <ele>179.7</ele>
        <time>2025-02-25T11:25:25.029Z</time>
      </trkpt>
      <trkpt lat="48.10725" lon="-3.59192">
        <ele>180.4</ele>
        <time>2025-02-25T11:25:25.590Z</time>
      </trkpt>
      <trkpt lat="48.10725" lon="-3.59192">
        <ele>180.4</ele>
        <time>2025-02-25T11:25:27.039Z</time>
      </trkpt>
      <trkpt lat="48.10725" lon="-3.59193">
        <ele>180.3</ele>
        <time>2025-02-25T11:25:28Z</time>
      </trkpt>
      <trkpt lat="48.10724" lon="-3.59193">
        <ele>180.2</ele>
        <time>2025-02-25T11:25:29Z</time>
      </trkpt>
      <trkpt lat="48.10724" lon="-3.59192">
        <ele>180.3</ele>
        <time>2025-02-25T11:25:30Z</time>
      </trkpt>
      <trkpt lat="48.10724" lon="-3.59192">
        <ele>180.3</ele>
        <time>2025-02-25T11:25:31Z</time>
      </trkpt>
      <trkpt lat="48.10724" lon="-3.59192">
        <ele>180.3</ele>
        <time>2025-02-25T11:25:32Z</time>
      </trkpt>
      <trkpt lat="48.10724" lon="-3.59192">
        <ele>180.3</ele>
        <time>2025-02-25T11:25:33Z</time>
      </trkpt>
      <trkpt lat="48.10724" lon="-3.59192">
        <ele>180.3</ele>
        <time>2025-02-25T11:25:34Z</time>
      </trkpt>
      <trkpt lat="48.10725" lon="-3.59191">
        <ele>180.5</ele>
        <time>2025-02-25T11:25:35Z</time>
      </trkpt>
      <trkpt lat="48.10725" lon="-3.59192">
        <ele>180.4</ele>
        <time>2025-02-25T11:25:36Z</time>
      </trkpt>
      <trkpt lat="48.10724" lon="-3.59192">
        <ele>180.3</ele>
        <time>2025-02-25T11:25:37Z</time>
      </trkpt>
      <trkpt lat="48.10724" lon="-3.59192">
        <ele>180.3</ele>
        <time>2025-02-25T11:25:38Z</time>
      </trkpt>
      <trkpt lat="48.10724" lon="-3.59192">
        <ele>180.3</ele>
        <time>2025-02-25T11:25:39Z</time>
      </trkpt>
      <trkpt lat="48.10724" lon="-3.59192">
        <ele>180.3</ele>
        <time>2025-02-25T11:25:40Z</time>
      </trkpt>
      <trkpt lat="48.10724" lon="-3.59192">
        <ele>180.3</ele>
        <time>2025-02-25T11:25:41Z</time>
      </trkpt>
      <trkpt lat="48.10724" lon="-3.59192">
        <ele>180.3</ele>
        <time>2025-02-25T11:25:42Z</time>
      </trkpt>
      <trkpt lat="48.10724" lon="-3.59192">
        <ele>180.3</ele>
        <time>2025-02-25T11:25:43Z</time>
      </trkpt>
      <trkpt lat="48.10724" lon="-3.59192">
        <ele>180.3</ele>
        <time>2025-02-25T11:25:44Z</time>
      </trkpt>
      <trkpt lat="48.10724" lon="-3.59192">
        <ele>180.3</ele>
        <time>2025-02-25T11:25:45Z</time>
      </trkpt>
      <trkpt lat="48.10725" lon="-3.59191">
        <ele>180.5</ele>
        <time>2025-02-25T11:25:46Z</time>
      </trkpt>
      <trkpt lat="48.10725" lon="-3.59191">
        <ele>180.5</ele>
        <time>2025-02-25T11:25:47Z</time>
      </trkpt>
      <trkpt lat="48.10725" lon="-3.59191">
        <ele>180.5</ele>
        <time>2025-02-25T11:25:48Z</time>
      </trkpt>
      <trkpt lat="48.10725" lon="-3.5919">
        <ele>180.6</ele>
        <time>2025-02-25T11:25:49Z</time>
      </trkpt>
      <trkpt lat="48.10725" lon="-3.59191">
        <ele>180.5</ele>
        <time>2025-02-25T11:25:50Z</time>
      </trkpt>
      <trkpt lat="48.10725" lon="-3.5919">
        <ele>180.6</ele>
        <time>2025-02-25T11:25:51Z</time>
      </trkpt>
      <trkpt lat="48.10725" lon="-3.59191">
        <ele>180.5</ele>
        <time>2025-02-25T11:25:52Z</time>
      </trkpt>
      <trkpt lat="48.10725" lon="-3.5919">
        <ele>180.6</ele>
        <time>2025-02-25T11:25:53Z</time>
      </trkpt>
      <trkpt lat="48.10726" lon="-3.59189">
        <ele>180.7</ele>
        <time>2025-02-25T11:25:54Z</time>
      </trkpt>
      <trkpt lat="48.10726" lon="-3.59189">
        <ele>180.7</ele>
        <time>2025-02-25T11:25:55Z</time>
      </trkpt>
      <trkpt lat="48.10726" lon="-3.5919">
        <ele>180.6</ele>
        <time>2025-02-25T11:25:56Z</time>
      </trkpt>
      <trkpt lat="48.10726" lon="-3.5919">
        <ele>180.6</ele>
        <time>2025-02-25T11:25:57Z</time>
      </trkpt>
      <trkpt lat="48.10726" lon="-3.5919">
        <ele>180.6</ele>
        <time>2025-02-25T11:25:58Z</time>
      </trkpt>
      <trkpt lat="48.10726" lon="-3.5919">
        <ele>180.6</ele>
        <time>2025-02-25T11:25:59Z</time>
      </trkpt>
      <trkpt lat="48.10726" lon="-3.5919">
        <ele>180.6</ele>
        <time>2025-02-25T11:26:00Z</time>
      </trkpt>
      <trkpt lat="48.10725" lon="-3.5919">
        <ele>180.6</ele>
        <time>2025-02-25T11:26:01Z</time>
      </trkpt>
      <trkpt lat="48.10725" lon="-3.5919">
        <ele>180.6</ele>
        <time>2025-02-25T11:26:02Z</time>
      </trkpt>
      <trkpt lat="48.10725" lon="-3.5919">
        <ele>180.6</ele>
        <time>2025-02-25T11:26:03Z</time>
      </trkpt>
      <trkpt lat="48.10726" lon="-3.59189">
        <ele>180.7</ele>
        <time>2025-02-25T11:26:04Z</time>
      </trkpt>
      <trkpt lat="48.10726" lon="-3.59189">
        <ele>180.7</ele>
        <time>2025-02-25T11:26:05Z</time>
      </trkpt>
      <trkpt lat="48.10726" lon="-3.5919">
        <ele>180.6</ele>
        <time>2025-02-25T11:26:06Z</time>
      </trkpt>
      <trkpt lat="48.10726" lon="-3.5919">
        <ele>180.6</ele>
        <time>2025-02-25T11:26:07Z</time>
      </trkpt>
      <trkpt lat="48.10726" lon="-3.59189">
        <ele>180.7</ele>
        <time>2025-02-25T11:26:08Z</time>
      </trkpt>
      <trkpt lat="48.10726" lon="-3.59189">
        <ele>180.7</ele>
        <time>2025-02-25T11:26:09Z</time>
      </trkpt>
      <trkpt lat="48.10725" lon="-3.5919">
        <ele>180.6</ele>
        <time>2025-02-25T11:26:10Z</time>
      </trkpt>
      <trkpt lat="48.10725" lon="-3.5919">
        <ele>180.6</ele>
        <time>2025-02-25T11:26:11Z</time>
      </trkpt>
      <trkpt lat="48.10725" lon="-3.5919">
        <ele>180.6</ele>
        <time>2025-02-25T11:26:12Z</time>
      </trkpt>
      <trkpt lat="48.10725" lon="-3.5919">
        <ele>180.6</ele>
        <time>2025-02-25T11:26:13Z</time>
      </trkpt>
      <trkpt lat="48.10725" lon="-3.59191">
        <ele>180.5</ele>
        <time>2025-02-25T11:26:14Z</time>
      </trkpt>
      <trkpt lat="48.10725" lon="-3.59191">
        <ele>180.5</ele>
        <time>2025-02-25T11:26:15Z</time>
      </trkpt>
      <trkpt lat="48.10725" lon="-3.5919">
        <ele>180.6</ele>
        <time>2025-02-25T11:26:16Z</time>
      </trkpt>
      <trkpt lat="48.10725" lon="-3.59189">
        <ele>180.7</ele>
        <time>2025-02-25T11:26:17Z</time>
      </trkpt>
      <trkpt lat="48.10726" lon="-3.59189">
        <ele>180.7</ele>
        <time>2025-02-25T11:26:18Z</time>
      </trkpt>
      <trkpt lat="48.10726" lon="-3.59189">
        <ele>180.7</ele>
        <time>2025-02-25T11:26:19Z</time>
      </trkpt>
      <trkpt lat="48.10726" lon="-3.59188">
        <ele>180.8</ele>
        <time>2025-02-25T11:26:20Z</time>
      </trkpt>
      <trkpt lat="48.10725" lon="-3.59188">
        <ele>180.8</ele>
        <time>2025-02-25T11:26:21Z</time>
      </trkpt>
      <trkpt lat="48.10726" lon="-3.59187">
        <ele>180.9</ele>
        <time>2025-02-25T11:26:22Z</time>
      </trkpt>
      <trkpt lat="48.10726" lon="-3.59186">
        <ele>181</ele>
        <time>2025-02-25T11:26:23Z</time>
      </trkpt>
      <trkpt lat="48.10726" lon="-3.59186">
        <ele>181</ele>
        <time>2025-02-25T11:26:24Z</time>
      </trkpt>
      <trkpt lat="48.10726" lon="-3.59186">
        <ele>181</ele>
        <time>2025-02-25T11:26:25Z</time>
      </trkpt>
      <trkpt lat="48.10726" lon="-3.59186">
        <ele>181</ele>
        <time>2025-02-25T11:26:26Z</time>
      </trkpt>
      <trkpt lat="48.10726" lon="-3.59187">
        <ele>180.9</ele>
        <time>2025-02-25T11:26:27Z</time>
      </trkpt>
      <trkpt lat="48.10725" lon="-3.59186">
        <ele>181</ele>
        <time>2025-02-25T11:26:28Z</time>
      </trkpt>
      <trkpt lat="48.10725" lon="-3.59186">
        <ele>181</ele>
        <time>2025-02-25T11:26:29Z</time>
      </trkpt>
      <trkpt lat="48.10725" lon="-3.59186">
        <ele>181</ele>
        <time>2025-02-25T11:26:30Z</time>
      </trkpt>
      <trkpt lat="48.10726" lon="-3.59186">
        <ele>181</ele>
        <time>2025-02-25T11:26:31Z</time>
      </trkpt>
      <trkpt lat="48.10726" lon="-3.59186">
        <ele>181</ele>
        <time>2025-02-25T11:26:32Z</time>
      </trkpt>
      <trkpt lat="48.10726" lon="-3.59186">
        <ele>181</ele>
        <time>2025-02-25T11:26:33Z</time>
      </trkpt>
      <trkpt lat="48.10726" lon="-3.59187">
        <ele>180.9</ele>
        <time>2025-02-25T11:26:34Z</time>
      </trkpt>
      <trkpt lat="48.10726" lon="-3.59187">
        <ele>180.9</ele>
        <time>2025-02-25T11:26:35Z</time>
      </trkpt>
      <trkpt lat="48.10726" lon="-3.59188">
        <ele>180.8</ele>
        <time>2025-02-25T11:26:36Z</time>
      </trkpt>
      <trkpt lat="48.10726" lon="-3.59187">
        <ele>180.9</ele>
        <time>2025-02-25T11:26:37Z</time>
      </trkpt>
      <trkpt lat="48.10726" lon="-3.59188">
        <ele>180.8</ele>
        <time>2025-02-25T11:26:38Z</time>
      </trkpt>
      <trkpt lat="48.10726" lon="-3.59188">
        <ele>180.8</ele>
        <time>2025-02-25T11:26:39Z</time>
      </trkpt>
      <trkpt lat="48.10726" lon="-3.59188">
        <ele>180.8</ele>
        <time>2025-02-25T11:26:40Z</time>
      </trkpt>
      <trkpt lat="48.10726" lon="-3.59187">
        <ele>180.9</ele>
        <time>2025-02-25T11:26:41Z</time>
      </trkpt>
      <trkpt lat="48.10726" lon="-3.59187">
        <ele>180.9</ele>
        <time>2025-02-25T11:26:42Z</time>
      </trkpt>
      <trkpt lat="48.10726" lon="-3.59187">
        <ele>180.9</ele>
        <time>2025-02-25T11:26:43Z</time>
      </trkpt>
      <trkpt lat="48.10727" lon="-3.59187">
        <ele>181</ele>
        <time>2025-02-25T11:26:44Z</time>
      </trkpt>
      <trkpt lat="48.10728" lon="-3.59186">
        <ele>181.1</ele>
        <time>2025-02-25T11:26:45Z</time>
      </trkpt>
      <trkpt lat="48.10728" lon="-3.59186">
        <ele>181.1</ele>
        <time>2025-02-25T11:26:46Z</time>
      </trkpt>
      <trkpt lat="48.10728" lon="-3.59186">
        <ele>181.1</ele>
        <time>2025-02-25T11:26:47Z</time>
      </trkpt>
      <trkpt lat="48.10728" lon="-3.59187">
        <ele>181</ele>
        <time>2025-02-25T11:26:48Z</time>
      </trkpt>
      <trkpt lat="48.10728" lon="-3.59187">
        <ele>181</ele>
        <time>2025-02-25T11:26:49Z</time>
      </trkpt>
      <trkpt lat="48.10728" lon="-3.59187">
        <ele>181</ele>
        <time>2025-02-25T11:26:50Z</time>
      </trkpt>
      <trkpt lat="48.10727" lon="-3.59187">
        <ele>181</ele>
        <time>2025-02-25T11:26:51Z</time>
      </trkpt>
      <trkpt lat="48.10727" lon="-3.59187">
        <ele>181</ele>
        <time>2025-02-25T11:26:52Z</time>
      </trkpt>
      <trkpt lat="48.10727" lon="-3.59187">
        <ele>181</ele>
        <time>2025-02-25T11:26:53Z</time>
      </trkpt>
      <trkpt lat="48.10727" lon="-3.59187">
        <ele>181</ele>
        <time>2025-02-25T11:26:54Z</time>
      </trkpt>
      <trkpt lat="48.10727" lon="-3.59186">
        <ele>181.1</ele>
        <time>2025-02-25T11:26:55Z</time>
      </trkpt>
      <trkpt lat="48.10727" lon="-3.59186">
        <ele>181.1</ele>
        <time>2025-02-25T11:26:56Z</time>
      </trkpt>
      <trkpt lat="48.10727" lon="-3.59186">
        <ele>181.1</ele>
        <time>2025-02-25T11:26:57Z</time>
      </trkpt>
      <trkpt lat="48.10727" lon="-3.59186">
        <ele>181.1</ele>
        <time>2025-02-25T11:26:58Z</time>
      </trkpt>
      <trkpt lat="48.10727" lon="-3.59186">
        <ele>181.1</ele>
        <time>2025-02-25T11:26:59Z</time>
      </trkpt>
      <trkpt lat="48.10728" lon="-3.59185">
        <ele>181.2</ele>
        <time>2025-02-25T11:27:00Z</time>
      </trkpt>
      <trkpt lat="48.10728" lon="-3.59185">
        <ele>181.2</ele>
        <time>2025-02-25T11:27:01Z</time>
      </trkpt>
      <trkpt lat="48.10729" lon="-3.59185">
        <ele>181.3</ele>
        <time>2025-02-25T11:27:02Z</time>
      </trkpt>
      <trkpt lat="48.10729" lon="-3.59184">
        <ele>181.4</ele>
        <time>2025-02-25T11:27:03Z</time>
      </trkpt>
      <trkpt lat="48.1073" lon="-3.59184">
        <ele>181.4</ele>
        <time>2025-02-25T11:27:04Z</time>
      </trkpt>
      <trkpt lat="48.10729" lon="-3.59183">
        <ele>181.5</ele>
        <time>2025-02-25T11:27:05Z</time>
      </trkpt>
      <trkpt lat="48.1073" lon="-3.59183">
        <ele>181.5</ele>
        <time>2025-02-25T11:27:06Z</time>
      </trkpt>
      <trkpt lat="48.10729" lon="-3.59184">
        <ele>181.4</ele>
        <time>2025-02-25T11:27:07Z</time>
      </trkpt>
      <trkpt lat="48.10728" lon="-3.59184">
        <ele>181.3</ele>
        <time>2025-02-25T11:27:08Z</time>
      </trkpt>
      <trkpt lat="48.10728" lon="-3.59184">
        <ele>181.3</ele>
        <time>2025-02-25T11:27:09Z</time>
      </trkpt>
      <trkpt lat="48.10729" lon="-3.59185">
        <ele>181.3</ele>
        <time>2025-02-25T11:27:10Z</time>
      </trkpt>
      <trkpt lat="48.10728" lon="-3.59185">
        <ele>181.2</ele>
        <time>2025-02-25T11:27:11Z</time>
      </trkpt>
      <trkpt lat="48.10728" lon="-3.59184">
        <ele>181.3</ele>
        <time>2025-02-25T11:27:12Z</time>
      </trkpt>
      <trkpt lat="48.10728" lon="-3.59184">
        <ele>181.3</ele>
        <time>2025-02-25T11:27:13Z</time>
      </trkpt>
      <trkpt lat="48.10728" lon="-3.59185">
        <ele>181.2</ele>
        <time>2025-02-25T11:27:14Z</time>
      </trkpt>
      <trkpt lat="48.10727" lon="-3.59185">
        <ele>181.2</ele>
        <time>2025-02-25T11:27:15Z</time>
      </trkpt>
      <trkpt lat="48.10727" lon="-3.59185">
        <ele>181.2</ele>
        <time>2025-02-25T11:27:16Z</time>
      </trkpt>
      <trkpt lat="48.10728" lon="-3.59186">
        <ele>181.1</ele>
        <time>2025-02-25T11:27:17Z</time>
      </trkpt>
      <trkpt lat="48.10728" lon="-3.59187">
        <ele>181</ele>
        <time>2025-02-25T11:27:18Z</time>
      </trkpt>
      <trkpt lat="48.10728" lon="-3.59187">
        <ele>181</ele>
        <time>2025-02-25T11:27:19Z</time>
      </trkpt>
      <trkpt lat="48.10728" lon="-3.59187">
        <ele>181</ele>
        <time>2025-02-25T11:27:20Z</time>
      </trkpt>
      <trkpt lat="48.10728" lon="-3.59187">
        <ele>181</ele>
        <time>2025-02-25T11:27:21Z</time>
      </trkpt>
      <trkpt lat="48.10728" lon="-3.59187">
        <ele>181</ele>
        <time>2025-02-25T11:27:22Z</time>
      </trkpt>
      <trkpt lat="48.10728" lon="-3.59187">
        <ele>181</ele>
        <time>2025-02-25T11:27:23Z</time>
      </trkpt>
      <trkpt lat="48.10729" lon="-3.59187">
        <ele>181</ele>
        <time>2025-02-25T11:27:24Z</time>
      </trkpt>
      <trkpt lat="48.10729" lon="-3.59187">
        <ele>181</ele>
        <time>2025-02-25T11:27:25Z</time>
      </trkpt>
      <trkpt lat="48.10729" lon="-3.59187">
        <ele>181</ele>
        <time>2025-02-25T11:27:26Z</time>
      </trkpt>
      <trkpt lat="48.10729" lon="-3.59187">
        <ele>181</ele>
        <time>2025-02-25T11:27:27Z</time>
      </trkpt>
      <trkpt lat="48.10729" lon="-3.59187">
        <ele>181</ele>
        <time>2025-02-25T11:27:28Z</time>
      </trkpt>
      <trkpt lat="48.10729" lon="-3.59187">
        <ele>181</ele>
        <time>2025-02-25T11:27:29Z</time>
      </trkpt>
      <trkpt lat="48.10728" lon="-3.59187">
        <ele>181</ele>
        <time>2025-02-25T11:27:30Z</time>
      </trkpt>
      <trkpt lat="48.10728" lon="-3.59187">
        <ele>181</ele>
        <time>2025-02-25T11:27:31Z</time>
      </trkpt>
      <trkpt lat="48.10728" lon="-3.59186">
        <ele>181.1</ele>
        <time>2025-02-25T11:27:32Z</time>
      </trkpt>
      <trkpt lat="48.10729" lon="-3.59186">
        <ele>181.2</ele>
        <time>2025-02-25T11:27:33Z</time>
      </trkpt>
      <trkpt lat="48.10729" lon="-3.59186">
        <ele>181.2</ele>
        <time>2025-02-25T11:27:34Z</time>
      </trkpt>
      <trkpt lat="48.10729" lon="-3.59186">
        <ele>181.2</ele>
        <time>2025-02-25T11:27:35Z</time>
      </trkpt>
      <trkpt lat="48.10729" lon="-3.59186">
        <ele>181.2</ele>
        <time>2025-02-25T11:27:36Z</time>
      </trkpt>
      <trkpt lat="48.10729" lon="-3.59186">
        <ele>181.2</ele>
        <time>2025-02-25T11:27:37Z</time>
      </trkpt>
      <trkpt lat="48.10728" lon="-3.59185">
        <ele>181.2</ele>
        <time>2025-02-25T11:27:38Z</time>
      </trkpt>
      <trkpt lat="48.10728" lon="-3.59185">
        <ele>181.2</ele>
        <time>2025-02-25T11:27:39Z</time>
      </trkpt>
      <trkpt lat="48.10729" lon="-3.59185">
        <ele>181.3</ele>
        <time>2025-02-25T11:27:40Z</time>
      </trkpt>
      <trkpt lat="48.10729" lon="-3.59185">
        <ele>181.3</ele>
        <time>2025-02-25T11:27:41Z</time>
      </trkpt>
      <trkpt lat="48.10729" lon="-3.59184">
        <ele>181.4</ele>
        <time>2025-02-25T11:27:42Z</time>
      </trkpt>
      <trkpt lat="48.10729" lon="-3.59184">
        <ele>181.4</ele>
        <time>2025-02-25T11:27:43Z</time>
      </trkpt>
      <trkpt lat="48.1073" lon="-3.59183">
        <ele>181.5</ele>
        <time>2025-02-25T11:27:44Z</time>
      </trkpt>
      <trkpt lat="48.10729" lon="-3.59183">
        <ele>181.5</ele>
        <time>2025-02-25T11:27:45Z</time>
      </trkpt>
      <trkpt lat="48.10729" lon="-3.59183">
        <ele>181.5</ele>
        <time>2025-02-25T11:27:46Z</time>
      </trkpt>
      <trkpt lat="48.10729" lon="-3.59183">
        <ele>181.5</ele>
        <time>2025-02-25T11:27:47Z</time>
      </trkpt>
      <trkpt lat="48.10729" lon="-3.59183">
        <ele>181.5</ele>
        <time>2025-02-25T11:27:48Z</time>
      </trkpt>
      <trkpt lat="48.10729" lon="-3.59183">
        <ele>181.5</ele>
        <time>2025-02-25T11:27:49Z</time>
      </trkpt>
      <trkpt lat="48.10729" lon="-3.59184">
        <ele>181.4</ele>
        <time>2025-02-25T11:27:50Z</time>
      </trkpt>
      <trkpt lat="48.10729" lon="-3.59184">
        <ele>181.4</ele>
        <time>2025-02-25T11:27:51Z</time>
      </trkpt>
      <trkpt lat="48.10729" lon="-3.59184">
        <ele>181.4</ele>
        <time>2025-02-25T11:27:52Z</time>
      </trkpt>
      <trkpt lat="48.10729" lon="-3.59184">
        <ele>181.4</ele>
        <time>2025-02-25T11:27:53Z</time>
      </trkpt>
      <trkpt lat="48.10729" lon="-3.59184">
        <ele>181.4</ele>
        <time>2025-02-25T11:27:54Z</time>
      </trkpt>
      <trkpt lat="48.10729" lon="-3.59184">
        <ele>181.4</ele>
        <time>2025-02-25T11:27:55Z</time>
      </trkpt>
      <trkpt lat="48.10729" lon="-3.59183">
        <ele>181.5</ele>
        <time>2025-02-25T11:27:56Z</time>
      </trkpt>
      <trkpt lat="48.10729" lon="-3.59183">
        <ele>181.5</ele>
        <time>2025-02-25T11:27:57Z</time>
      </trkpt>
      <trkpt lat="48.10729" lon="-3.59183">
        <ele>181.5</ele>
        <time>2025-02-25T11:27:58Z</time>
      </trkpt>
      <trkpt lat="48.10728" lon="-3.59183">
        <ele>181.4</ele>
        <time>2025-02-25T11:27:59Z</time>
      </trkpt>
      <trkpt lat="48.10728" lon="-3.59183">
        <ele>181.4</ele>
        <time>2025-02-25T11:28:00Z</time>
      </trkpt>
      <trkpt lat="48.10728" lon="-3.59183">
        <ele>181.4</ele>
        <time>2025-02-25T11:28:01Z</time>
      </trkpt>
      <trkpt lat="48.10728" lon="-3.59183">
        <ele>181.4</ele>
        <time>2025-02-25T11:28:02Z</time>
      </trkpt>
      <trkpt lat="48.10728" lon="-3.59183">
        <ele>181.4</ele>
        <time>2025-02-25T11:28:03Z</time>
      </trkpt>
      <trkpt lat="48.10728" lon="-3.59183">
        <ele>181.4</ele>
        <time>2025-02-25T11:28:04Z</time>
      </trkpt>
      <trkpt lat="48.10728" lon="-3.59183">
        <ele>181.4</ele>
        <time>2025-02-25T11:28:05Z</time>
      </trkpt>
      <trkpt lat="48.10728" lon="-3.59183">
        <ele>181.4</ele>
        <time>2025-02-25T11:28:06Z</time>
      </trkpt>
      <trkpt lat="48.10728" lon="-3.59183">
        <ele>181.4</ele>
        <time>2025-02-25T11:28:07Z</time>
      </trkpt>
      <trkpt lat="48.10728" lon="-3.59183">
        <ele>181.4</ele>
        <time>2025-02-25T11:28:08Z</time>
      </trkpt>
      <trkpt lat="48.10728" lon="-3.59183">
        <ele>181.4</ele>
        <time>2025-02-25T11:28:09Z</time>
      </trkpt>
      <trkpt lat="48.10728" lon="-3.59183">
        <ele>181.4</ele>
        <time>2025-02-25T11:28:10Z</time>
      </trkpt>
      <trkpt lat="48.10728" lon="-3.59183">
        <ele>181.4</ele>
        <time>2025-02-25T11:28:11Z</time>
      </trkpt>
      <trkpt lat="48.10728" lon="-3.59183">
        <ele>181.4</ele>
        <time>2025-02-25T11:28:12Z</time>
      </trkpt>
      <trkpt lat="48.10728" lon="-3.59183">
        <ele>181.4</ele>
        <time>2025-02-25T11:28:13Z</time>
      </trkpt>
      <trkpt lat="48.10728" lon="-3.59183">
        <ele>181.4</ele>
        <time>2025-02-25T11:28:14Z</time>
      </trkpt>
      <trkpt lat="48.10728" lon="-3.59183">
        <ele>181.4</ele>
        <time>2025-02-25T11:28:15Z</time>
      </trkpt>
      <trkpt lat="48.10728" lon="-3.59183">
        <ele>181.4</ele>
        <time>2025-02-25T11:28:16Z</time>
      </trkpt>
      <trkpt lat="48.10728" lon="-3.59183">
        <ele>181.4</ele>
        <time>2025-02-25T11:28:17Z</time>
      </trkpt>
      <trkpt lat="48.10728" lon="-3.59183">
        <ele>181.4</ele>
        <time>2025-02-25T11:28:18Z</time>
      </trkpt>
      <trkpt lat="48.10728" lon="-3.59183">
        <ele>181.4</ele>
        <time>2025-02-25T11:28:19Z</time>
      </trkpt>
      <trkpt lat="48.10728" lon="-3.59183">
        <ele>181.4</ele>
        <time>2025-02-25T11:28:20Z</time>
      </trkpt>
      <trkpt lat="48.10728" lon="-3.59183">
        <ele>181.4</ele>
        <time>2025-02-25T11:28:21Z</time>
      </trkpt>
      <trkpt lat="48.10728" lon="-3.59183">
        <ele>181.4</ele>
        <time>2025-02-25T11:28:22Z</time>
      </trkpt>
      <trkpt lat="48.10728" lon="-3.59183">
        <ele>181.4</ele>
        <time>2025-02-25T11:28:23Z</time>
      </trkpt>
      <trkpt lat="48.10728" lon="-3.59183">
        <ele>181.4</ele>
        <time>2025-02-25T11:28:24Z</time>
      </trkpt>
      <trkpt lat="48.10728" lon="-3.59183">
        <ele>181.4</ele>
        <time>2025-02-25T11:28:25Z</time>
      </trkpt>
      <trkpt lat="48.10728" lon="-3.59183">
        <ele>181.4</ele>
        <time>2025-02-25T11:28:26Z</time>
      </trkpt>
      <trkpt lat="48.10728" lon="-3.59183">
        <ele>181.4</ele>
        <time>2025-02-25T11:28:27Z</time>
      </trkpt>
      <trkpt lat="48.10728" lon="-3.59183">
        <ele>181.4</ele>
        <time>2025-02-25T11:28:28Z</time>
      </trkpt>
      <trkpt lat="48.10728" lon="-3.59183">
        <ele>181.4</ele>
        <time>2025-02-25T11:28:29Z</time>
      </trkpt>
      <trkpt lat="48.10728" lon="-3.59183">
        <ele>181.4</ele>
        <time>2025-02-25T11:28:30Z</time>
      </trkpt>
      <trkpt lat="48.10728" lon="-3.59183">
        <ele>181.4</ele>
        <time>2025-02-25T11:28:31Z</time>
      </trkpt>
      <trkpt lat="48.10728" lon="-3.59183">
        <ele>181.4</ele>
        <time>2025-02-25T11:28:32Z</time>
      </trkpt>
      <trkpt lat="48.10728" lon="-3.59183">
        <ele>181.4</ele>
        <time>2025-02-25T11:28:33Z</time>
      </trkpt>
      <trkpt lat="48.10728" lon="-3.59183">
        <ele>181.4</ele>
        <time>2025-02-25T11:28:34Z</time>
      </trkpt>
      <trkpt lat="48.10728" lon="-3.59183">
        <ele>181.4</ele>
        <time>2025-02-25T11:28:35Z</time>
      </trkpt>
      <trkpt lat="48.10728" lon="-3.59183">
        <ele>181.4</ele>
        <time>2025-02-25T11:28:36Z</time>
      </trkpt>
      <trkpt lat="48.10729" lon="-3.59184">
        <ele>181.4</ele>
        <time>2025-02-25T11:28:37Z</time>
      </trkpt>
      <trkpt lat="48.10728" lon="-3.59184">
        <ele>181.3</ele>
        <time>2025-02-25T11:28:38Z</time>
      </trkpt>
      <trkpt lat="48.10728" lon="-3.59185">
        <ele>181.2</ele>
        <time>2025-02-25T11:28:39Z</time>
      </trkpt>
      <trkpt lat="48.10728" lon="-3.59185">
        <ele>181.2</ele>
        <time>2025-02-25T11:28:40Z</time>
      </trkpt>
      <trkpt lat="48.10728" lon="-3.59184">
        <ele>181.3</ele>
        <time>2025-02-25T11:28:41Z</time>
      </trkpt>
      <trkpt lat="48.10728" lon="-3.59183">
        <ele>181.4</ele>
        <time>2025-02-25T11:28:42Z</time>
      </trkpt>
      <trkpt lat="48.10728" lon="-3.59183">
        <ele>181.4</ele>
        <time>2025-02-25T11:28:43Z</time>
      </trkpt>
      <trkpt lat="48.10727" lon="-3.59183">
        <ele>181.4</ele>
        <time>2025-02-25T11:28:44Z</time>
      </trkpt>
      <trkpt lat="48.10728" lon="-3.59183">
        <ele>181.4</ele>
        <time>2025-02-25T11:28:45Z</time>
      </trkpt>
      <trkpt lat="48.10728" lon="-3.59183">
        <ele>181.4</ele>
        <time>2025-02-25T11:28:46Z</time>
      </trkpt>
      <trkpt lat="48.10728" lon="-3.59183">
        <ele>181.4</ele>
        <time>2025-02-25T11:28:47Z</time>
      </trkpt>
      <trkpt lat="48.10727" lon="-3.59183">
        <ele>181.4</ele>
        <time>2025-02-25T11:28:48Z</time>
      </trkpt>
      <trkpt lat="48.10727" lon="-3.59183">
        <ele>181.4</ele>
        <time>2025-02-25T11:28:49Z</time>
      </trkpt>
      <trkpt lat="48.10727" lon="-3.59183">
        <ele>181.4</ele>
        <time>2025-02-25T11:28:50Z</time>
      </trkpt>
      <trkpt lat="48.10727" lon="-3.59183">
        <ele>181.4</ele>
        <time>2025-02-25T11:28:51Z</time>
      </trkpt>
      <trkpt lat="48.10727" lon="-3.59183">
        <ele>181.4</ele>
        <time>2025-02-25T11:28:52Z</time>
      </trkpt>
      <trkpt lat="48.10727" lon="-3.59183">
        <ele>181.4</ele>
        <time>2025-02-25T11:28:53Z</time>
      </trkpt>
      <trkpt lat="48.10727" lon="-3.59183">
        <ele>181.4</ele>
        <time>2025-02-25T11:28:54Z</time>
      </trkpt>
      <trkpt lat="48.10727" lon="-3.59183">
        <ele>181.4</ele>
        <time>2025-02-25T11:28:55Z</time>
      </trkpt>
      <trkpt lat="48.10727" lon="-3.59183">
        <ele>181.4</ele>
        <time>2025-02-25T11:28:56Z</time>
      </trkpt>
      <trkpt lat="48.10727" lon="-3.59183">
        <ele>181.4</ele>
        <time>2025-02-25T11:28:57Z</time>
      </trkpt>
      <trkpt lat="48.10727" lon="-3.59183">
        <ele>181.4</ele>
        <time>2025-02-25T11:28:58Z</time>
      </trkpt>
      <trkpt lat="48.10727" lon="-3.59183">
        <ele>181.4</ele>
        <time>2025-02-25T11:28:59Z</time>
      </trkpt>
      <trkpt lat="48.10727" lon="-3.59183">
        <ele>181.4</ele>
        <time>2025-02-25T11:29:00Z</time>
      </trkpt>
      <trkpt lat="48.10727" lon="-3.59183">
        <ele>181.4</ele>
        <time>2025-02-25T11:29:01Z</time>
      </trkpt>
      <trkpt lat="48.10727" lon="-3.59183">
        <ele>181.4</ele>
        <time>2025-02-25T11:29:02Z</time>
      </trkpt>
      <trkpt lat="48.10727" lon="-3.59183">
        <ele>181.4</ele>
        <time>2025-02-25T11:29:03Z</time>
      </trkpt>
      <trkpt lat="48.10727" lon="-3.59183">
        <ele>181.4</ele>
        <time>2025-02-25T11:29:04Z</time>
      </trkpt>
      <trkpt lat="48.10727" lon="-3.59183">
        <ele>181.4</ele>
        <time>2025-02-25T11:29:05Z</time>
      </trkpt>
      <trkpt lat="48.10727" lon="-3.59183">
        <ele>181.4</ele>
        <time>2025-02-25T11:29:06Z</time>
      </trkpt>
      <trkpt lat="48.10727" lon="-3.59183">
        <ele>181.4</ele>
        <time>2025-02-25T11:29:07Z</time>
      </trkpt>
      <trkpt lat="48.10727" lon="-3.59183">
        <ele>181.4</ele>
        <time>2025-02-25T11:29:08Z</time>
      </trkpt>
      <trkpt lat="48.10727" lon="-3.59183">
        <ele>181.4</ele>
        <time>2025-02-25T11:29:09Z</time>
      </trkpt>
      <trkpt lat="48.10727" lon="-3.59183">
        <ele>181.4</ele>
        <time>2025-02-25T11:29:10Z</time>
      </trkpt>
      <trkpt lat="48.10727" lon="-3.59183">
        <ele>181.4</ele>
        <time>2025-02-25T11:29:11Z</time>
      </trkpt>
      <trkpt lat="48.10727" lon="-3.59183">
        <ele>181.4</ele>
        <time>2025-02-25T11:29:12Z</time>
      </trkpt>
      <trkpt lat="48.10727" lon="-3.59183">
        <ele>181.4</ele>
        <time>2025-02-25T11:29:13Z</time>
      </trkpt>
      <trkpt lat="48.10727" lon="-3.59183">
        <ele>181.4</ele>
        <time>2025-02-25T11:29:14Z</time>
      </trkpt>
      <trkpt lat="48.10727" lon="-3.59183">
        <ele>181.4</ele>
        <time>2025-02-25T11:29:15Z</time>
      </trkpt>
      <trkpt lat="48.10727" lon="-3.59182">
        <ele>181.5</ele>
        <time>2025-02-25T11:29:16Z</time>
      </trkpt>
      <trkpt lat="48.10726" lon="-3.59182">
        <ele>181.5</ele>
        <time>2025-02-25T11:29:17Z</time>
      </trkpt>
      <trkpt lat="48.10726" lon="-3.59181">
        <ele>181.6</ele>
        <time>2025-02-25T11:29:18Z</time>
      </trkpt>
      <trkpt lat="48.10726" lon="-3.5918">
        <ele>181.7</ele>
        <time>2025-02-25T11:29:19Z</time>
      </trkpt>
      <trkpt lat="48.10725" lon="-3.59179">
        <ele>181.8</ele>
        <time>2025-02-25T11:29:20Z</time>
      </trkpt>
      <trkpt lat="48.10724" lon="-3.59177">
        <ele>181.9</ele>
        <time>2025-02-25T11:29:21Z</time>
      </trkpt>
      <trkpt lat="48.10723" lon="-3.59175">
        <ele>182.1</ele>
        <time>2025-02-25T11:29:22Z</time>
      </trkpt>
      <trkpt lat="48.10723" lon="-3.59174">
        <ele>182.2</ele>
        <time>2025-02-25T11:29:23Z</time>
      </trkpt>
      <trkpt lat="48.10722" lon="-3.59173">
        <ele>182.3</ele>
        <time>2025-02-25T11:29:24Z</time>
      </trkpt>
      <trkpt lat="48.10722" lon="-3.59172">
        <ele>182.4</ele>
        <time>2025-02-25T11:29:25Z</time>
      </trkpt>
      <trkpt lat="48.10721" lon="-3.59171">
        <ele>182.4</ele>
        <time>2025-02-25T11:29:26Z</time>
      </trkpt>
      <trkpt lat="48.10721" lon="-3.59171">
        <ele>182.4</ele>
        <time>2025-02-25T11:29:27Z</time>
      </trkpt>
      <trkpt lat="48.1072" lon="-3.5917">
        <ele>182.4</ele>
        <time>2025-02-25T11:29:28Z</time>
      </trkpt>
      <trkpt lat="48.10719" lon="-3.59169">
        <ele>182.4</ele>
        <time>2025-02-25T11:29:29Z</time>
      </trkpt>
      <trkpt lat="48.10718" lon="-3.59169">
        <ele>182.3</ele>
        <time>2025-02-25T11:29:30Z</time>
      </trkpt>
      <trkpt lat="48.10717" lon="-3.59169">
        <ele>182.2</ele>
        <time>2025-02-25T11:29:31Z</time>
      </trkpt>
      <trkpt lat="48.10716" lon="-3.59169">
        <ele>182.1</ele>
        <time>2025-02-25T11:29:32Z</time>
      </trkpt>
      <trkpt lat="48.10715" lon="-3.59169">
        <ele>182</ele>
        <time>2025-02-25T11:29:33Z</time>
      </trkpt>
      <trkpt lat="48.10715" lon="-3.59169">
        <ele>182</ele>
        <time>2025-02-25T11:29:34Z</time>
      </trkpt>
      <trkpt lat="48.10714" lon="-3.59168">
        <ele>182</ele>
        <time>2025-02-25T11:29:35Z</time>
      </trkpt>
      <trkpt lat="48.10714" lon="-3.59168">
        <ele>182</ele>
        <time>2025-02-25T11:29:36Z</time>
      </trkpt>
      <trkpt lat="48.10713" lon="-3.59167">
        <ele>182</ele>
        <time>2025-02-25T11:29:37Z</time>
      </trkpt>
      <trkpt lat="48.10712" lon="-3.59166">
        <ele>181.9</ele>
        <time>2025-02-25T11:29:38Z</time>
      </trkpt>
      <trkpt lat="48.10711" lon="-3.59165">
        <ele>181.8</ele>
        <time>2025-02-25T11:29:39Z</time>
      </trkpt>
      <trkpt lat="48.1071" lon="-3.59164">
        <ele>181.8</ele>
        <time>2025-02-25T11:29:40Z</time>
      </trkpt>
      <trkpt lat="48.1071" lon="-3.59164">
        <ele>181.8</ele>
        <time>2025-02-25T11:29:41Z</time>
      </trkpt>
      <trkpt lat="48.10709" lon="-3.59164">
        <ele>181.7</ele>
        <time>2025-02-25T11:29:42Z</time>
      </trkpt>
      <trkpt lat="48.10708" lon="-3.59165">
        <ele>181.5</ele>
        <time>2025-02-25T11:29:43Z</time>
      </trkpt>
      <trkpt lat="48.10708" lon="-3.59166">
        <ele>181.5</ele>
        <time>2025-02-25T11:29:44Z</time>
      </trkpt>
      <trkpt lat="48.10708" lon="-3.59168">
        <ele>181.3</ele>
        <time>2025-02-25T11:29:45Z</time>
      </trkpt>
      <trkpt lat="48.10709" lon="-3.59169">
        <ele>181.4</ele>
        <time>2025-02-25T11:29:46Z</time>
      </trkpt>
      <trkpt lat="48.1071" lon="-3.5917">
        <ele>181.4</ele>
        <time>2025-02-25T11:29:47Z</time>
      </trkpt>
      <trkpt lat="48.1071" lon="-3.59171">
        <ele>181.3</ele>
        <time>2025-02-25T11:29:48Z</time>
      </trkpt>
      <trkpt lat="48.10711" lon="-3.59172">
        <ele>181.3</ele>
        <time>2025-02-25T11:29:49Z</time>
      </trkpt>
      <trkpt lat="48.10712" lon="-3.59173">
        <ele>181.3</ele>
        <time>2025-02-25T11:29:50Z</time>
      </trkpt>
      <trkpt lat="48.10712" lon="-3.59173">
        <ele>181.3</ele>
        <time>2025-02-25T11:29:51Z</time>
      </trkpt>
      <trkpt lat="48.10713" lon="-3.59175">
        <ele>181.2</ele>
        <time>2025-02-25T11:29:52Z</time>
      </trkpt>
      <trkpt lat="48.10713" lon="-3.59176">
        <ele>181.1</ele>
        <time>2025-02-25T11:29:53Z</time>
      </trkpt>
      <trkpt lat="48.10714" lon="-3.59177">
        <ele>181.1</ele>
        <time>2025-02-25T11:29:54Z</time>
      </trkpt>
      <trkpt lat="48.10714" lon="-3.59178">
        <ele>181</ele>
        <time>2025-02-25T11:29:55Z</time>
      </trkpt>
      <trkpt lat="48.10715" lon="-3.59179">
        <ele>181</ele>
        <time>2025-02-25T11:29:56Z</time>
      </trkpt>
      <trkpt lat="48.10716" lon="-3.59181">
        <ele>180.9</ele>
        <time>2025-02-25T11:29:57Z</time>
      </trkpt>
      <trkpt lat="48.10716" lon="-3.59182">
        <ele>180.8</ele>
        <time>2025-02-25T11:29:58Z</time>
      </trkpt>
      <trkpt lat="48.10717" lon="-3.59184">
        <ele>180.7</ele>
        <time>2025-02-25T11:29:59Z</time>
      </trkpt>
      <trkpt lat="48.10718" lon="-3.59185">
        <ele>180.7</ele>
        <time>2025-02-25T11:30:00Z</time>
      </trkpt>
      <trkpt lat="48.10718" lon="-3.59187">
        <ele>180.5</ele>
        <time>2025-02-25T11:30:01Z</time>
      </trkpt>
      <trkpt lat="48.10719" lon="-3.59188">
        <ele>180.4</ele>
        <time>2025-02-25T11:30:02Z</time>
      </trkpt>
      <trkpt lat="48.1072" lon="-3.5919">
        <ele>180.3</ele>
        <time>2025-02-25T11:30:03Z</time>
      </trkpt>
      <trkpt lat="48.10721" lon="-3.59191">
        <ele>180.3</ele>
        <time>2025-02-25T11:30:04Z</time>
      </trkpt>
      <trkpt lat="48.10721" lon="-3.59193">
        <ele>180.1</ele>
        <time>2025-02-25T11:30:05Z</time>
      </trkpt>
      <trkpt lat="48.10722" lon="-3.59194">
        <ele>180</ele>
        <time>2025-02-25T11:30:06Z</time>
      </trkpt>
      <trkpt lat="48.10723" lon="-3.59196">
        <ele>179.9</ele>
        <time>2025-02-25T11:30:07Z</time>
      </trkpt>
      <trkpt lat="48.10723" lon="-3.59197">
        <ele>179.7</ele>
        <time>2025-02-25T11:30:08Z</time>
      </trkpt>
      <trkpt lat="48.10724" lon="-3.59198">
        <ele>179.7</ele>
        <time>2025-02-25T11:30:09Z</time>
      </trkpt>
      <trkpt lat="48.10725" lon="-3.592">
        <ele>179.5</ele>
        <time>2025-02-25T11:30:10Z</time>
      </trkpt>
      <trkpt lat="48.10725" lon="-3.59201">
        <ele>179.4</ele>
        <time>2025-02-25T11:30:11Z</time>
      </trkpt>
      <trkpt lat="48.10726" lon="-3.59202">
        <ele>179.3</ele>
        <time>2025-02-25T11:30:12Z</time>
      </trkpt>
      <trkpt lat="48.10726" lon="-3.59204">
        <ele>179.1</ele>
        <time>2025-02-25T11:30:13Z</time>
      </trkpt>
      <trkpt lat="48.10727" lon="-3.59205">
        <ele>179</ele>
        <time>2025-02-25T11:30:14Z</time>
      </trkpt>
      <trkpt lat="48.10728" lon="-3.59207">
        <ele>178.8</ele>
        <time>2025-02-25T11:30:15Z</time>
      </trkpt>
      <trkpt lat="48.10729" lon="-3.59208">
        <ele>178.7</ele>
        <time>2025-02-25T11:30:16Z</time>
      </trkpt>
      <trkpt lat="48.10729" lon="-3.5921">
        <ele>178.4</ele>
        <time>2025-02-25T11:30:17Z</time>
      </trkpt>
      <trkpt lat="48.1073" lon="-3.59211">
        <ele>178.3</ele>
        <time>2025-02-25T11:30:18Z</time>
      </trkpt>
      <trkpt lat="48.10731" lon="-3.59212">
        <ele>178.2</ele>
        <time>2025-02-25T11:30:19Z</time>
      </trkpt>
      <trkpt lat="48.10732" lon="-3.59213">
        <ele>178.1</ele>
        <time>2025-02-25T11:30:20Z</time>
      </trkpt>
      <trkpt lat="48.10733" lon="-3.59214">
        <ele>178</ele>
        <time>2025-02-25T11:30:21Z</time>
      </trkpt>
      <trkpt lat="48.10734" lon="-3.59214">
        <ele>178</ele>
        <time>2025-02-25T11:30:22Z</time>
      </trkpt>
      <trkpt lat="48.10736" lon="-3.59214">
        <ele>178</ele>
        <time>2025-02-25T11:30:23Z</time>
      </trkpt>
      <trkpt lat="48.10737" lon="-3.59214">
        <ele>178</ele>
        <time>2025-02-25T11:30:24Z</time>
      </trkpt>
      <trkpt lat="48.10738" lon="-3.59215">
        <ele>177.9</ele>
        <time>2025-02-25T11:30:25Z</time>
      </trkpt>
      <trkpt lat="48.10739" lon="-3.59215">
        <ele>177.9</ele>
        <time>2025-02-25T11:30:26Z</time>
      </trkpt>
      <trkpt lat="48.1074" lon="-3.59216">
        <ele>177.8</ele>
        <time>2025-02-25T11:30:27Z</time>
      </trkpt>
      <trkpt lat="48.10741" lon="-3.59216">
        <ele>177.8</ele>
        <time>2025-02-25T11:30:28Z</time>
      </trkpt>
      <trkpt lat="48.10742" lon="-3.59215">
        <ele>178</ele>
        <time>2025-02-25T11:30:29Z</time>
      </trkpt>
      <trkpt lat="48.10742" lon="-3.59215">
        <ele>178</ele>
        <time>2025-02-25T11:30:30Z</time>
      </trkpt>
      <trkpt lat="48.10743" lon="-3.59212">
        <ele>178.4</ele>
        <time>2025-02-25T11:30:31Z</time>
      </trkpt>
      <trkpt lat="48.10743" lon="-3.59211">
        <ele>178.5</ele>
        <time>2025-02-25T11:30:32Z</time>
      </trkpt>
      <trkpt lat="48.10745" lon="-3.59211">
        <ele>178.5</ele>
        <time>2025-02-25T11:30:33Z</time>
      </trkpt>
      <trkpt lat="48.10746" lon="-3.59211">
        <ele>178.6</ele>
        <time>2025-02-25T11:30:34Z</time>
      </trkpt>
      <trkpt lat="48.10747" lon="-3.59211">
        <ele>178.6</ele>
        <time>2025-02-25T11:30:35Z</time>
      </trkpt>
      <trkpt lat="48.10748" lon="-3.5921">
        <ele>178.7</ele>
        <time>2025-02-25T11:30:36Z</time>
      </trkpt>
      <trkpt lat="48.10749" lon="-3.59209">
        <ele>178.9</ele>
        <time>2025-02-25T11:30:37Z</time>
      </trkpt>
      <trkpt lat="48.10749" lon="-3.59208">
        <ele>179</ele>
        <time>2025-02-25T11:30:38Z</time>
      </trkpt>
      <trkpt lat="48.1075" lon="-3.59208">
        <ele>179</ele>
        <time>2025-02-25T11:30:39Z</time>
      </trkpt>
      <trkpt lat="48.10752" lon="-3.59208">
        <ele>178.8</ele>
        <time>2025-02-25T11:30:40Z</time>
      </trkpt>
      <trkpt lat="48.10753" lon="-3.59207">
        <ele>178.9</ele>
        <time>2025-02-25T11:30:41Z</time>
      </trkpt>
      <trkpt lat="48.10754" lon="-3.59207">
        <ele>178.8</ele>
        <time>2025-02-25T11:30:42Z</time>
      </trkpt>
      <trkpt lat="48.10755" lon="-3.59207">
        <ele>178.7</ele>
        <time>2025-02-25T11:30:43Z</time>
      </trkpt>
      <trkpt lat="48.10756" lon="-3.59206">
        <ele>178.7</ele>
        <time>2025-02-25T11:30:44Z</time>
      </trkpt>
      <trkpt lat="48.10757" lon="-3.59205">
        <ele>178.8</ele>
        <time>2025-02-25T11:30:45Z</time>
      </trkpt>
      <trkpt lat="48.10758" lon="-3.59205">
        <ele>178.7</ele>
        <time>2025-02-25T11:30:46Z</time>
      </trkpt>
      <trkpt lat="48.10759" lon="-3.59204">
        <ele>178.8</ele>
        <time>2025-02-25T11:30:47Z</time>
      </trkpt>
      <trkpt lat="48.1076" lon="-3.59204">
        <ele>178.7</ele>
        <time>2025-02-25T11:30:48Z</time>
      </trkpt>
      <trkpt lat="48.10761" lon="-3.59203">
        <ele>178.7</ele>
        <time>2025-02-25T11:30:49Z</time>
      </trkpt>
      <trkpt lat="48.10761" lon="-3.59202">
        <ele>178.9</ele>
        <time>2025-02-25T11:30:50Z</time>
      </trkpt>
      <trkpt lat="48.10762" lon="-3.59202">
        <ele>178.8</ele>
        <time>2025-02-25T11:30:51Z</time>
      </trkpt>
      <trkpt lat="48.10763" lon="-3.59201">
        <ele>178.9</ele>
        <time>2025-02-25T11:30:52Z</time>
      </trkpt>
      <trkpt lat="48.10764" lon="-3.59201">
        <ele>178.8</ele>
        <time>2025-02-25T11:30:53Z</time>
      </trkpt>
      <trkpt lat="48.10765" lon="-3.592">
        <ele>178.9</ele>
        <time>2025-02-25T11:30:54Z</time>
      </trkpt>
      <trkpt lat="48.10766" lon="-3.59199">
        <ele>179</ele>
        <time>2025-02-25T11:30:55Z</time>
      </trkpt>
      <trkpt lat="48.10767" lon="-3.59198">
        <ele>179.1</ele>
        <time>2025-02-25T11:30:56Z</time>
      </trkpt>
      <trkpt lat="48.10768" lon="-3.59197">
        <ele>179.2</ele>
        <time>2025-02-25T11:30:57Z</time>
      </trkpt>
      <trkpt lat="48.10769" lon="-3.59196">
        <ele>179.3</ele>
        <time>2025-02-25T11:30:58Z</time>
      </trkpt>
      <trkpt lat="48.1077" lon="-3.59195">
        <ele>179.5</ele>
        <time>2025-02-25T11:30:59Z</time>
      </trkpt>
      <trkpt lat="48.10771" lon="-3.59195">
        <ele>179.4</ele>
        <time>2025-02-25T11:31:00Z</time>
      </trkpt>
      <trkpt lat="48.10772" lon="-3.59194">
        <ele>179.5</ele>
        <time>2025-02-25T11:31:01Z</time>
      </trkpt>
      <trkpt lat="48.10773" lon="-3.59194">
        <ele>179.4</ele>
        <time>2025-02-25T11:31:02Z</time>
      </trkpt>
      <trkpt lat="48.10774" lon="-3.59193">
        <ele>179.5</ele>
        <time>2025-02-25T11:31:03Z</time>
      </trkpt>
      <trkpt lat="48.10775" lon="-3.59193">
        <ele>179.4</ele>
        <time>2025-02-25T11:31:04Z</time>
      </trkpt>
      <trkpt lat="48.10776" lon="-3.59193">
        <ele>179.4</ele>
        <time>2025-02-25T11:31:05Z</time>
      </trkpt>
      <trkpt lat="48.10777" lon="-3.59192">
        <ele>179.5</ele>
        <time>2025-02-25T11:31:06Z</time>
      </trkpt>
      <trkpt lat="48.10778" lon="-3.59192">
        <ele>179.4</ele>
        <time>2025-02-25T11:31:07Z</time>
      </trkpt>
      <trkpt lat="48.1078" lon="-3.59191">
        <ele>179.2</ele>
        <time>2025-02-25T11:31:08Z</time>
      </trkpt>
      <trkpt lat="48.10781" lon="-3.5919">
        <ele>179.2</ele>
        <time>2025-02-25T11:31:09Z</time>
      </trkpt>
      <trkpt lat="48.10782" lon="-3.59189">
        <ele>179.2</ele>
        <time>2025-02-25T11:31:10Z</time>
      </trkpt>
      <trkpt lat="48.10783" lon="-3.59189">
        <ele>179</ele>
        <time>2025-02-25T11:31:11Z</time>
      </trkpt>
      <trkpt lat="48.10784" lon="-3.59188">
        <ele>179</ele>
        <time>2025-02-25T11:31:12Z</time>
      </trkpt>
      <trkpt lat="48.10785" lon="-3.59188">
        <ele>178.9</ele>
        <time>2025-02-25T11:31:13Z</time>
      </trkpt>
      <trkpt lat="48.10786" lon="-3.59187">
        <ele>178.9</ele>
        <time>2025-02-25T11:31:14Z</time>
      </trkpt>
      <trkpt lat="48.10787" lon="-3.59187">
        <ele>178.7</ele>
        <time>2025-02-25T11:31:15Z</time>
      </trkpt>
      <trkpt lat="48.10788" lon="-3.59186">
        <ele>178.7</ele>
        <time>2025-02-25T11:31:16Z</time>
      </trkpt>
      <trkpt lat="48.10789" lon="-3.59186">
        <ele>178.5</ele>
        <time>2025-02-25T11:31:17Z</time>
      </trkpt>
      <trkpt lat="48.1079" lon="-3.59186">
        <ele>178.3</ele>
        <time>2025-02-25T11:31:18Z</time>
      </trkpt>
      <trkpt lat="48.10791" lon="-3.59186">
        <ele>178.1</ele>
        <time>2025-02-25T11:31:19Z</time>
      </trkpt>
      <trkpt lat="48.10792" lon="-3.59186">
        <ele>178</ele>
        <time>2025-02-25T11:31:20Z</time>
      </trkpt>
      <trkpt lat="48.10794" lon="-3.59186">
        <ele>177.6</ele>
        <time>2025-02-25T11:31:21Z</time>
      </trkpt>
      <trkpt lat="48.10794" lon="-3.59185">
        <ele>177.8</ele>
        <time>2025-02-25T11:31:22Z</time>
      </trkpt>
      <trkpt lat="48.10795" lon="-3.59184">
        <ele>177.8</ele>
        <time>2025-02-25T11:31:23Z</time>
      </trkpt>
      <trkpt lat="48.10796" lon="-3.59183">
        <ele>177.8</ele>
        <time>2025-02-25T11:31:24Z</time>
      </trkpt>
      <trkpt lat="48.10797" lon="-3.59183">
        <ele>177.6</ele>
        <time>2025-02-25T11:31:25Z</time>
      </trkpt>
      <trkpt lat="48.10799" lon="-3.59183">
        <ele>177.2</ele>
        <time>2025-02-25T11:31:26Z</time>
      </trkpt>
      <trkpt lat="48.108" lon="-3.59183">
        <ele>177.1</ele>
        <time>2025-02-25T11:31:27Z</time>
      </trkpt>
      <trkpt lat="48.10801" lon="-3.59183">
        <ele>176.9</ele>
        <time>2025-02-25T11:31:28Z</time>
      </trkpt>
      <trkpt lat="48.10802" lon="-3.59183">
        <ele>176.7</ele>
        <time>2025-02-25T11:31:29Z</time>
      </trkpt>
      <trkpt lat="48.10803" lon="-3.59183">
        <ele>176.5</ele>
        <time>2025-02-25T11:31:30Z</time>
      </trkpt>
      <trkpt lat="48.10803" lon="-3.59182">
        <ele>176.7</ele>
        <time>2025-02-25T11:31:31Z</time>
      </trkpt>
      <trkpt lat="48.10804" lon="-3.59182">
        <ele>176.5</ele>
        <time>2025-02-25T11:31:32Z</time>
      </trkpt>
      <trkpt lat="48.10806" lon="-3.59182">
        <ele>176.2</ele>
        <time>2025-02-25T11:31:33Z</time>
      </trkpt>
      <trkpt lat="48.10807" lon="-3.59183">
        <ele>176</ele>
        <time>2025-02-25T11:31:34Z</time>
      </trkpt>
      <trkpt lat="48.10809" lon="-3.59182">
        <ele>176</ele>
        <time>2025-02-25T11:31:35Z</time>
      </trkpt>
      <trkpt lat="48.1081" lon="-3.59182">
        <ele>176</ele>
        <time>2025-02-25T11:31:36Z</time>
      </trkpt>
      <trkpt lat="48.10811" lon="-3.59181">
        <ele>176</ele>
        <time>2025-02-25T11:31:37Z</time>
      </trkpt>
      <trkpt lat="48.10812" lon="-3.59181">
        <ele>176</ele>
        <time>2025-02-25T11:31:38Z</time>
      </trkpt>
      <trkpt lat="48.10813" lon="-3.59181">
        <ele>175.9</ele>
        <time>2025-02-25T11:31:39Z</time>
      </trkpt>
      <trkpt lat="48.10814" lon="-3.59181">
        <ele>175.8</ele>
        <time>2025-02-25T11:31:40Z</time>
      </trkpt>
      <trkpt lat="48.10815" lon="-3.5918">
        <ele>175.9</ele>
        <time>2025-02-25T11:31:41Z</time>
      </trkpt>
      <trkpt lat="48.10816" lon="-3.5918">
        <ele>175.8</ele>
        <time>2025-02-25T11:31:42Z</time>
      </trkpt>
      <trkpt lat="48.10817" lon="-3.5918">
        <ele>175.7</ele>
        <time>2025-02-25T11:31:43Z</time>
      </trkpt>
      <trkpt lat="48.10818" lon="-3.5918">
        <ele>175.7</ele>
        <time>2025-02-25T11:31:44Z</time>
      </trkpt>
      <trkpt lat="48.10819" lon="-3.5918">
        <ele>175.6</ele>
        <time>2025-02-25T11:31:45Z</time>
      </trkpt>
      <trkpt lat="48.1082" lon="-3.5918">
        <ele>175.5</ele>
        <time>2025-02-25T11:31:46Z</time>
      </trkpt>
      <trkpt lat="48.10821" lon="-3.5918">
        <ele>175.4</ele>
        <time>2025-02-25T11:31:47Z</time>
      </trkpt>
      <trkpt lat="48.10822" lon="-3.5918">
        <ele>175.4</ele>
        <time>2025-02-25T11:31:48Z</time>
      </trkpt>
      <trkpt lat="48.10823" lon="-3.59179">
        <ele>175.4</ele>
        <time>2025-02-25T11:31:49Z</time>
      </trkpt>
      <trkpt lat="48.10824" lon="-3.59178">
        <ele>175.4</ele>
        <time>2025-02-25T11:31:50Z</time>
      </trkpt>
      <trkpt lat="48.10825" lon="-3.59178">
        <ele>175.3</ele>
        <time>2025-02-25T11:31:51Z</time>
      </trkpt>
      <trkpt lat="48.10826" lon="-3.59179">
        <ele>175.1</ele>
        <time>2025-02-25T11:31:52Z</time>
      </trkpt>
      <trkpt lat="48.10827" lon="-3.59179">
        <ele>175.1</ele>
        <time>2025-02-25T11:31:53Z</time>
      </trkpt>
      <trkpt lat="48.10828" lon="-3.5918">
        <ele>174.9</ele>
        <time>2025-02-25T11:31:54Z</time>
      </trkpt>
      <trkpt lat="48.10829" lon="-3.59179">
        <ele>174.9</ele>
        <time>2025-02-25T11:31:55Z</time>
      </trkpt>
      <trkpt lat="48.1083" lon="-3.59179">
        <ele>174.8</ele>
        <time>2025-02-25T11:31:56Z</time>
      </trkpt>
      <trkpt lat="48.10831" lon="-3.59179">
        <ele>174.7</ele>
        <time>2025-02-25T11:31:57Z</time>
      </trkpt>
      <trkpt lat="48.10832" lon="-3.59179">
        <ele>174.7</ele>
        <time>2025-02-25T11:31:58Z</time>
      </trkpt>
      <trkpt lat="48.10833" lon="-3.5918">
        <ele>174.5</ele>
        <time>2025-02-25T11:31:59Z</time>
      </trkpt>
      <trkpt lat="48.10834" lon="-3.5918">
        <ele>174.5</ele>
        <time>2025-02-25T11:32:00Z</time>
      </trkpt>
      <trkpt lat="48.10835" lon="-3.5918">
        <ele>174.6</ele>
        <time>2025-02-25T11:32:01Z</time>
      </trkpt>
      <trkpt lat="48.10836" lon="-3.5918">
        <ele>174.6</ele>
        <time>2025-02-25T11:32:02Z</time>
      </trkpt>
      <trkpt lat="48.10837" lon="-3.59181">
        <ele>174.5</ele>
        <time>2025-02-25T11:32:03Z</time>
      </trkpt>
      <trkpt lat="48.10839" lon="-3.59181">
        <ele>174.6</ele>
        <time>2025-02-25T11:32:04Z</time>
      </trkpt>
      <trkpt lat="48.1084" lon="-3.59181">
        <ele>174.6</ele>
        <time>2025-02-25T11:32:05Z</time>
      </trkpt>
      <trkpt lat="48.10841" lon="-3.59182">
        <ele>174.6</ele>
        <time>2025-02-25T11:32:06Z</time>
      </trkpt>
      <trkpt lat="48.10842" lon="-3.59182">
        <ele>174.6</ele>
        <time>2025-02-25T11:32:07Z</time>
      </trkpt>
      <trkpt lat="48.10843" lon="-3.59182">
        <ele>174.6</ele>
        <time>2025-02-25T11:32:08Z</time>
      </trkpt>
      <trkpt lat="48.10844" lon="-3.59183">
        <ele>174.6</ele>
        <time>2025-02-25T11:32:09Z</time>
      </trkpt>
      <trkpt lat="48.10846" lon="-3.59183">
        <ele>174.6</ele>
        <time>2025-02-25T11:32:10Z</time>
      </trkpt>
      <trkpt lat="48.10847" lon="-3.59183">
        <ele>174.6</ele>
        <time>2025-02-25T11:32:11Z</time>
      </trkpt>
      <trkpt lat="48.10848" lon="-3.59183">
        <ele>174.6</ele>
        <time>2025-02-25T11:32:12Z</time>
      </trkpt>
      <trkpt lat="48.10849" lon="-3.59184">
        <ele>174.6</ele>
        <time>2025-02-25T11:32:13Z</time>
      </trkpt>
      <trkpt lat="48.1085" lon="-3.59184">
        <ele>174.6</ele>
        <time>2025-02-25T11:32:14Z</time>
      </trkpt>
      <trkpt lat="48.10851" lon="-3.59185">
        <ele>174.6</ele>
        <time>2025-02-25T11:32:15Z</time>
      </trkpt>
      <trkpt lat="48.10852" lon="-3.59185">
        <ele>174.6</ele>
        <time>2025-02-25T11:32:16Z</time>
      </trkpt>
      <trkpt lat="48.10853" lon="-3.59185">
        <ele>174.6</ele>
        <time>2025-02-25T11:32:17Z</time>
      </trkpt>
      <trkpt lat="48.10855" lon="-3.59185">
        <ele>174.6</ele>
        <time>2025-02-25T11:32:18Z</time>
      </trkpt>
      <trkpt lat="48.10856" lon="-3.59187">
        <ele>174.5</ele>
        <time>2025-02-25T11:32:19Z</time>
      </trkpt>
      <trkpt lat="48.10856" lon="-3.59188">
        <ele>174.4</ele>
        <time>2025-02-25T11:32:20Z</time>
      </trkpt>
      <trkpt lat="48.10857" lon="-3.59189">
        <ele>174.4</ele>
        <time>2025-02-25T11:32:21Z</time>
      </trkpt>
      <trkpt lat="48.10859" lon="-3.59188">
        <ele>174.4</ele>
        <time>2025-02-25T11:32:22Z</time>
      </trkpt>
      <trkpt lat="48.1086" lon="-3.59188">
        <ele>174.5</ele>
        <time>2025-02-25T11:32:23Z</time>
      </trkpt>
      <trkpt lat="48.10861" lon="-3.59188">
        <ele>174.5</ele>
        <time>2025-02-25T11:32:24Z</time>
      </trkpt>
      <trkpt lat="48.10862" lon="-3.59188">
        <ele>174.5</ele>
        <time>2025-02-25T11:32:25Z</time>
      </trkpt>
      <trkpt lat="48.10863" lon="-3.59188">
        <ele>174.6</ele>
        <time>2025-02-25T11:32:26Z</time>
      </trkpt>
      <trkpt lat="48.10864" lon="-3.59189">
        <ele>174.6</ele>
        <time>2025-02-25T11:32:27Z</time>
      </trkpt>
      <trkpt lat="48.10865" lon="-3.5919">
        <ele>174.6</ele>
        <time>2025-02-25T11:32:28Z</time>
      </trkpt>
      <trkpt lat="48.10866" lon="-3.5919">
        <ele>174.6</ele>
        <time>2025-02-25T11:32:29Z</time>
      </trkpt>
      <trkpt lat="48.10867" lon="-3.59191">
        <ele>174.6</ele>
        <time>2025-02-25T11:32:30Z</time>
      </trkpt>
      <trkpt lat="48.10868" lon="-3.59191">
        <ele>174.7</ele>
        <time>2025-02-25T11:32:31Z</time>
      </trkpt>
      <trkpt lat="48.10869" lon="-3.59191">
        <ele>174.7</ele>
        <time>2025-02-25T11:32:32Z</time>
      </trkpt>
      <trkpt lat="48.1087" lon="-3.59192">
        <ele>174.8</ele>
        <time>2025-02-25T11:32:33Z</time>
      </trkpt>
      <trkpt lat="48.10871" lon="-3.59192">
        <ele>174.8</ele>
        <time>2025-02-25T11:32:34Z</time>
      </trkpt>
      <trkpt lat="48.10872" lon="-3.59193">
        <ele>174.8</ele>
        <time>2025-02-25T11:32:35Z</time>
      </trkpt>
      <trkpt lat="48.10873" lon="-3.59193">
        <ele>174.9</ele>
        <time>2025-02-25T11:32:36Z</time>
      </trkpt>
      <trkpt lat="48.10874" lon="-3.59194">
        <ele>174.9</ele>
        <time>2025-02-25T11:32:37Z</time>
      </trkpt>
      <trkpt lat="48.10875" lon="-3.59194">
        <ele>175</ele>
        <time>2025-02-25T11:32:38Z</time>
      </trkpt>
      <trkpt lat="48.10876" lon="-3.59195">
        <ele>175.1</ele>
        <time>2025-02-25T11:32:39Z</time>
      </trkpt>
      <trkpt lat="48.10877" lon="-3.59195">
        <ele>175.1</ele>
        <time>2025-02-25T11:32:40Z</time>
      </trkpt>
      <trkpt lat="48.10878" lon="-3.59195">
        <ele>175.2</ele>
        <time>2025-02-25T11:32:41Z</time>
      </trkpt>
      <trkpt lat="48.10879" lon="-3.59196">
        <ele>175.3</ele>
        <time>2025-02-25T11:32:42Z</time>
      </trkpt>
      <trkpt lat="48.1088" lon="-3.59196">
        <ele>175.4</ele>
        <time>2025-02-25T11:32:43Z</time>
      </trkpt>
      <trkpt lat="48.10881" lon="-3.59197">
        <ele>175.4</ele>
        <time>2025-02-25T11:32:44Z</time>
      </trkpt>
      <trkpt lat="48.10882" lon="-3.59198">
        <ele>175.5</ele>
        <time>2025-02-25T11:32:45Z</time>
      </trkpt>
      <trkpt lat="48.10883" lon="-3.59198">
        <ele>175.6</ele>
        <time>2025-02-25T11:32:46Z</time>
      </trkpt>
      <trkpt lat="48.10884" lon="-3.59198">
        <ele>175.6</ele>
        <time>2025-02-25T11:32:47Z</time>
      </trkpt>
      <trkpt lat="48.10885" lon="-3.59198">
        <ele>175.7</ele>
        <time>2025-02-25T11:32:48Z</time>
      </trkpt>
      <trkpt lat="48.10885" lon="-3.59199">
        <ele>175.7</ele>
        <time>2025-02-25T11:32:49Z</time>
      </trkpt>
      <trkpt lat="48.10886" lon="-3.592">
        <ele>175.8</ele>
        <time>2025-02-25T11:32:50Z</time>
      </trkpt>
      <trkpt lat="48.10887" lon="-3.592">
        <ele>175.9</ele>
        <time>2025-02-25T11:32:51Z</time>
      </trkpt>
      <trkpt lat="48.10888" lon="-3.59201">
        <ele>175.9</ele>
        <time>2025-02-25T11:32:52Z</time>
      </trkpt>
      <trkpt lat="48.10889" lon="-3.59201">
        <ele>176</ele>
        <time>2025-02-25T11:32:53Z</time>
      </trkpt>
      <trkpt lat="48.1089" lon="-3.59202">
        <ele>176.1</ele>
        <time>2025-02-25T11:32:54Z</time>
      </trkpt>
      <trkpt lat="48.10891" lon="-3.59202">
        <ele>176.1</ele>
        <time>2025-02-25T11:32:55Z</time>
      </trkpt>
      <trkpt lat="48.10893" lon="-3.59203">
        <ele>176.2</ele>
        <time>2025-02-25T11:32:56Z</time>
      </trkpt>
      <trkpt lat="48.10894" lon="-3.59203">
        <ele>176.2</ele>
        <time>2025-02-25T11:32:57Z</time>
      </trkpt>
      <trkpt lat="48.10895" lon="-3.59203">
        <ele>176.3</ele>
        <time>2025-02-25T11:32:58Z</time>
      </trkpt>
      <trkpt lat="48.10896" lon="-3.59204">
        <ele>176.3</ele>
        <time>2025-02-25T11:32:59Z</time>
      </trkpt>
      <trkpt lat="48.10896" lon="-3.59204">
        <ele>176.3</ele>
        <time>2025-02-25T11:33:00Z</time>
      </trkpt>
      <trkpt lat="48.10897" lon="-3.59205">
        <ele>176.4</ele>
        <time>2025-02-25T11:33:01Z</time>
      </trkpt>
      <trkpt lat="48.10898" lon="-3.59205">
        <ele>176.5</ele>
        <time>2025-02-25T11:33:02Z</time>
      </trkpt>
      <trkpt lat="48.10899" lon="-3.59206">
        <ele>176.5</ele>
        <time>2025-02-25T11:33:03Z</time>
      </trkpt>
      <trkpt lat="48.109" lon="-3.59206">
        <ele>176.6</ele>
        <time>2025-02-25T11:33:04Z</time>
      </trkpt>
      <trkpt lat="48.10901" lon="-3.59206">
        <ele>176.6</ele>
        <time>2025-02-25T11:33:05Z</time>
      </trkpt>
      <trkpt lat="48.10902" lon="-3.59206">
        <ele>176.7</ele>
        <time>2025-02-25T11:33:06Z</time>
      </trkpt>
      <trkpt lat="48.10903" lon="-3.59207">
        <ele>176.7</ele>
        <time>2025-02-25T11:33:07Z</time>
      </trkpt>
      <trkpt lat="48.10904" lon="-3.59207">
        <ele>176.8</ele>
        <time>2025-02-25T11:33:08Z</time>
      </trkpt>
      <trkpt lat="48.10905" lon="-3.59208">
        <ele>176.9</ele>
        <time>2025-02-25T11:33:09Z</time>
      </trkpt>
      <trkpt lat="48.10907" lon="-3.59208">
        <ele>177</ele>
        <time>2025-02-25T11:33:10Z</time>
      </trkpt>
      <trkpt lat="48.10908" lon="-3.59209">
        <ele>177</ele>
        <time>2025-02-25T11:33:11Z</time>
      </trkpt>
      <trkpt lat="48.10909" lon="-3.5921">
        <ele>177.1</ele>
        <time>2025-02-25T11:33:12Z</time>
      </trkpt>
      <trkpt lat="48.1091" lon="-3.5921">
        <ele>177.2</ele>
        <time>2025-02-25T11:33:13Z</time>
      </trkpt>
      <trkpt lat="48.10911" lon="-3.59212">
        <ele>177.3</ele>
        <time>2025-02-25T11:33:14Z</time>
      </trkpt>
      <trkpt lat="48.10912" lon="-3.59212">
        <ele>177.4</ele>
        <time>2025-02-25T11:33:15Z</time>
      </trkpt>
      <trkpt lat="48.10913" lon="-3.59213">
        <ele>177.4</ele>
        <time>2025-02-25T11:33:16Z</time>
      </trkpt>
      <trkpt lat="48.10913" lon="-3.59213">
        <ele>177.4</ele>
        <time>2025-02-25T11:33:17Z</time>
      </trkpt>
      <trkpt lat="48.10915" lon="-3.59213">
        <ele>177.6</ele>
        <time>2025-02-25T11:33:18Z</time>
      </trkpt>
      <trkpt lat="48.10916" lon="-3.59213">
        <ele>177.6</ele>
        <time>2025-02-25T11:33:19Z</time>
      </trkpt>
      <trkpt lat="48.10917" lon="-3.59213">
        <ele>177.7</ele>
        <time>2025-02-25T11:33:20Z</time>
      </trkpt>
      <trkpt lat="48.10918" lon="-3.59213">
        <ele>177.7</ele>
        <time>2025-02-25T11:33:21Z</time>
      </trkpt>
      <trkpt lat="48.10919" lon="-3.59214">
        <ele>177.8</ele>
        <time>2025-02-25T11:33:22Z</time>
      </trkpt>
      <trkpt lat="48.1092" lon="-3.59214">
        <ele>177.8</ele>
        <time>2025-02-25T11:33:23Z</time>
      </trkpt>
      <trkpt lat="48.10921" lon="-3.59214">
        <ele>177.9</ele>
        <time>2025-02-25T11:33:24Z</time>
      </trkpt>
      <trkpt lat="48.10922" lon="-3.59214">
        <ele>177.9</ele>
        <time>2025-02-25T11:33:25Z</time>
      </trkpt>
      <trkpt lat="48.10923" lon="-3.59215">
        <ele>178</ele>
        <time>2025-02-25T11:33:26Z</time>
      </trkpt>
      <trkpt lat="48.10924" lon="-3.59216">
        <ele>178</ele>
        <time>2025-02-25T11:33:27Z</time>
      </trkpt>
      <trkpt lat="48.10925" lon="-3.59216">
        <ele>178.1</ele>
        <time>2025-02-25T11:33:28Z</time>
      </trkpt>
      <trkpt lat="48.10926" lon="-3.59216">
        <ele>178.1</ele>
        <time>2025-02-25T11:33:29Z</time>
      </trkpt>
      <trkpt lat="48.10928" lon="-3.59216">
        <ele>178.2</ele>
        <time>2025-02-25T11:33:30Z</time>
      </trkpt>
      <trkpt lat="48.10929" lon="-3.59216">
        <ele>178.2</ele>
        <time>2025-02-25T11:33:31Z</time>
      </trkpt>
      <trkpt lat="48.1093" lon="-3.59217">
        <ele>178.3</ele>
        <time>2025-02-25T11:33:32Z</time>
      </trkpt>
      <trkpt lat="48.1093" lon="-3.59218">
        <ele>178.3</ele>
        <time>2025-02-25T11:33:33Z</time>
      </trkpt>
      <trkpt lat="48.10931" lon="-3.59218">
        <ele>178.4</ele>
        <time>2025-02-25T11:33:34Z</time>
      </trkpt>
      <trkpt lat="48.10932" lon="-3.59219">
        <ele>178.4</ele>
        <time>2025-02-25T11:33:35Z</time>
      </trkpt>
      <trkpt lat="48.10933" lon="-3.59219">
        <ele>178.5</ele>
        <time>2025-02-25T11:33:36Z</time>
      </trkpt>
      <trkpt lat="48.10934" lon="-3.59219">
        <ele>178.5</ele>
        <time>2025-02-25T11:33:37Z</time>
      </trkpt>
      <trkpt lat="48.10935" lon="-3.59219">
        <ele>178.5</ele>
        <time>2025-02-25T11:33:38Z</time>
      </trkpt>
      <trkpt lat="48.10936" lon="-3.59221">
        <ele>178.7</ele>
        <time>2025-02-25T11:33:39Z</time>
      </trkpt>
      <trkpt lat="48.10937" lon="-3.59222">
        <ele>178.7</ele>
        <time>2025-02-25T11:33:40Z</time>
      </trkpt>
      <trkpt lat="48.10938" lon="-3.59223">
        <ele>178.8</ele>
        <time>2025-02-25T11:33:41Z</time>
      </trkpt>
      <trkpt lat="48.10939" lon="-3.59224">
        <ele>178.9</ele>
        <time>2025-02-25T11:33:42Z</time>
      </trkpt>
      <trkpt lat="48.1094" lon="-3.59224">
        <ele>178.9</ele>
        <time>2025-02-25T11:33:43Z</time>
      </trkpt>
      <trkpt lat="48.10941" lon="-3.59224">
        <ele>178.9</ele>
        <time>2025-02-25T11:33:44Z</time>
      </trkpt>
      <trkpt lat="48.10942" lon="-3.59225">
        <ele>179</ele>
        <time>2025-02-25T11:33:45Z</time>
      </trkpt>
      <trkpt lat="48.10943" lon="-3.59225">
        <ele>179</ele>
        <time>2025-02-25T11:33:46Z</time>
      </trkpt>
      <trkpt lat="48.10944" lon="-3.59226">
        <ele>179.1</ele>
        <time>2025-02-25T11:33:47Z</time>
      </trkpt>
      <trkpt lat="48.10945" lon="-3.59227">
        <ele>179.2</ele>
        <time>2025-02-25T11:33:48Z</time>
      </trkpt>
      <trkpt lat="48.10946" lon="-3.59227">
        <ele>179.3</ele>
        <time>2025-02-25T11:33:49Z</time>
      </trkpt>
      <trkpt lat="48.10946" lon="-3.59228">
        <ele>179.3</ele>
        <time>2025-02-25T11:33:50Z</time>
      </trkpt>
      <trkpt lat="48.10948" lon="-3.59229">
        <ele>179.5</ele>
        <time>2025-02-25T11:33:51Z</time>
      </trkpt>
      <trkpt lat="48.10949" lon="-3.59229">
        <ele>179.6</ele>
        <time>2025-02-25T11:33:52Z</time>
      </trkpt>
      <trkpt lat="48.1095" lon="-3.59229">
        <ele>179.6</ele>
        <time>2025-02-25T11:33:53Z</time>
      </trkpt>
      <trkpt lat="48.10951" lon="-3.5923">
        <ele>179.8</ele>
        <time>2025-02-25T11:33:54Z</time>
      </trkpt>
      <trkpt lat="48.10952" lon="-3.5923">
        <ele>179.8</ele>
        <time>2025-02-25T11:33:55Z</time>
      </trkpt>
      <trkpt lat="48.10953" lon="-3.59231">
        <ele>179.9</ele>
        <time>2025-02-25T11:33:56Z</time>
      </trkpt>
      <trkpt lat="48.10953" lon="-3.59231">
        <ele>179.9</ele>
        <time>2025-02-25T11:33:57Z</time>
      </trkpt>
      <trkpt lat="48.10955" lon="-3.59232">
        <ele>180.1</ele>
        <time>2025-02-25T11:33:58Z</time>
      </trkpt>
      <trkpt lat="48.10956" lon="-3.59231">
        <ele>180.1</ele>
        <time>2025-02-25T11:33:59Z</time>
      </trkpt>
      <trkpt lat="48.10957" lon="-3.59231">
        <ele>180.2</ele>
        <time>2025-02-25T11:34:00Z</time>
      </trkpt>
      <trkpt lat="48.10958" lon="-3.59231">
        <ele>180.3</ele>
        <time>2025-02-25T11:34:01Z</time>
      </trkpt>
      <trkpt lat="48.10959" lon="-3.59232">
        <ele>180.4</ele>
        <time>2025-02-25T11:34:02Z</time>
      </trkpt>
      <trkpt lat="48.1096" lon="-3.59232">
        <ele>180.5</ele>
        <time>2025-02-25T11:34:03Z</time>
      </trkpt>
      <trkpt lat="48.10961" lon="-3.59232">
        <ele>180.5</ele>
        <time>2025-02-25T11:34:04Z</time>
      </trkpt>
      <trkpt lat="48.10962" lon="-3.59232">
        <ele>180.6</ele>
        <time>2025-02-25T11:34:05Z</time>
      </trkpt>
      <trkpt lat="48.10963" lon="-3.59233">
        <ele>180.7</ele>
        <time>2025-02-25T11:34:06Z</time>
      </trkpt>
      <trkpt lat="48.10964" lon="-3.59233">
        <ele>180.8</ele>
        <time>2025-02-25T11:34:07Z</time>
      </trkpt>
      <trkpt lat="48.10965" lon="-3.59234">
        <ele>180.9</ele>
        <time>2025-02-25T11:34:08Z</time>
      </trkpt>
      <trkpt lat="48.10966" lon="-3.59234">
        <ele>181</ele>
        <time>2025-02-25T11:34:09Z</time>
      </trkpt>
      <trkpt lat="48.10967" lon="-3.59235">
        <ele>181.1</ele>
        <time>2025-02-25T11:34:10Z</time>
      </trkpt>
      <trkpt lat="48.10968" lon="-3.59235">
        <ele>181.2</ele>
        <time>2025-02-25T11:34:11Z</time>
      </trkpt>
      <trkpt lat="48.10969" lon="-3.59236">
        <ele>181.3</ele>
        <time>2025-02-25T11:34:12Z</time>
      </trkpt>
      <trkpt lat="48.1097" lon="-3.59236">
        <ele>181.3</ele>
        <time>2025-02-25T11:34:13Z</time>
      </trkpt>
      <trkpt lat="48.10971" lon="-3.59237">
        <ele>181.4</ele>
        <time>2025-02-25T11:34:14Z</time>
      </trkpt>
      <trkpt lat="48.10972" lon="-3.59238">
        <ele>181.6</ele>
        <time>2025-02-25T11:34:15Z</time>
      </trkpt>
      <trkpt lat="48.10973" lon="-3.59238">
        <ele>181.6</ele>
        <time>2025-02-25T11:34:16Z</time>
      </trkpt>
      <trkpt lat="48.10974" lon="-3.59238">
        <ele>181.7</ele>
        <time>2025-02-25T11:34:17Z</time>
      </trkpt>
      <trkpt lat="48.10975" lon="-3.59239">
        <ele>181.8</ele>
        <time>2025-02-25T11:34:18Z</time>
      </trkpt>
      <trkpt lat="48.10976" lon="-3.59239">
        <ele>181.9</ele>
        <time>2025-02-25T11:34:19Z</time>
      </trkpt>
      <trkpt lat="48.10977" lon="-3.5924">
        <ele>182</ele>
        <time>2025-02-25T11:34:20Z</time>
      </trkpt>
      <trkpt lat="48.10978" lon="-3.5924">
        <ele>182.1</ele>
        <time>2025-02-25T11:34:21Z</time>
      </trkpt>
      <trkpt lat="48.10979" lon="-3.59241">
        <ele>182.2</ele>
        <time>2025-02-25T11:34:22Z</time>
      </trkpt>
      <trkpt lat="48.1098" lon="-3.59241">
        <ele>182.2</ele>
        <time>2025-02-25T11:34:23Z</time>
      </trkpt>
      <trkpt lat="48.10981" lon="-3.59241">
        <ele>182.3</ele>
        <time>2025-02-25T11:34:24Z</time>
      </trkpt>
      <trkpt lat="48.10982" lon="-3.59242">
        <ele>182.4</ele>
        <time>2025-02-25T11:34:25Z</time>
      </trkpt>
      <trkpt lat="48.10983" lon="-3.59243">
        <ele>182.5</ele>
        <time>2025-02-25T11:34:26Z</time>
      </trkpt>
      <trkpt lat="48.10984" lon="-3.59243">
        <ele>182.6</ele>
        <time>2025-02-25T11:34:27Z</time>
      </trkpt>
      <trkpt lat="48.10984" lon="-3.59244">
        <ele>182.6</ele>
        <time>2025-02-25T11:34:28Z</time>
      </trkpt>
      <trkpt lat="48.10985" lon="-3.59245">
        <ele>182.7</ele>
        <time>2025-02-25T11:34:29Z</time>
      </trkpt>
      <trkpt lat="48.10986" lon="-3.59245">
        <ele>182.8</ele>
        <time>2025-02-25T11:34:30Z</time>
      </trkpt>
      <trkpt lat="48.10987" lon="-3.59246">
        <ele>182.9</ele>
        <time>2025-02-25T11:34:31Z</time>
      </trkpt>
      <trkpt lat="48.10988" lon="-3.59247">
        <ele>183</ele>
        <time>2025-02-25T11:34:32Z</time>
      </trkpt>
      <trkpt lat="48.10989" lon="-3.59247">
        <ele>183.1</ele>
        <time>2025-02-25T11:34:33Z</time>
      </trkpt>
      <trkpt lat="48.1099" lon="-3.59247">
        <ele>183.2</ele>
        <time>2025-02-25T11:34:34Z</time>
      </trkpt>
      <trkpt lat="48.10991" lon="-3.59246">
        <ele>183.2</ele>
        <time>2025-02-25T11:34:35Z</time>
      </trkpt>
      <trkpt lat="48.10992" lon="-3.59244">
        <ele>183.2</ele>
        <time>2025-02-25T11:34:36Z</time>
      </trkpt>
      <trkpt lat="48.10992" lon="-3.59241">
        <ele>183.1</ele>
        <time>2025-02-25T11:34:37Z</time>
      </trkpt>
      <trkpt lat="48.10992" lon="-3.59239">
        <ele>183</ele>
        <time>2025-02-25T11:34:38Z</time>
      </trkpt>
      <trkpt lat="48.10992" lon="-3.59238">
        <ele>183</ele>
        <time>2025-02-25T11:34:39Z</time>
      </trkpt>
      <trkpt lat="48.10993" lon="-3.59236">
        <ele>183</ele>
        <time>2025-02-25T11:34:40Z</time>
      </trkpt>
      <trkpt lat="48.10993" lon="-3.59234">
        <ele>182.9</ele>
        <time>2025-02-25T11:34:41Z</time>
      </trkpt>
      <trkpt lat="48.10993" lon="-3.59232">
        <ele>182.8</ele>
        <time>2025-02-25T11:34:42Z</time>
      </trkpt>
      <trkpt lat="48.10993" lon="-3.59231">
        <ele>182.8</ele>
        <time>2025-02-25T11:34:43Z</time>
      </trkpt>
      <trkpt lat="48.10994" lon="-3.59229">
        <ele>182.8</ele>
        <time>2025-02-25T11:34:44Z</time>
      </trkpt>
      <trkpt lat="48.10995" lon="-3.59228">
        <ele>182.8</ele>
        <time>2025-02-25T11:34:45Z</time>
      </trkpt>
      <trkpt lat="48.10995" lon="-3.59226">
        <ele>182.8</ele>
        <time>2025-02-25T11:34:46Z</time>
      </trkpt>
      <trkpt lat="48.10995" lon="-3.59224">
        <ele>182.7</ele>
        <time>2025-02-25T11:34:47Z</time>
      </trkpt>
      <trkpt lat="48.10996" lon="-3.59223">
        <ele>182.7</ele>
        <time>2025-02-25T11:34:48Z</time>
      </trkpt>
      <trkpt lat="48.10996" lon="-3.59222">
        <ele>182.7</ele>
        <time>2025-02-25T11:34:49Z</time>
      </trkpt>
      <trkpt lat="48.10996" lon="-3.5922">
        <ele>182.6</ele>
        <time>2025-02-25T11:34:50Z</time>
      </trkpt>
      <trkpt lat="48.10996" lon="-3.59218">
        <ele>182.6</ele>
        <time>2025-02-25T11:34:51Z</time>
      </trkpt>
      <trkpt lat="48.10995" lon="-3.59217">
        <ele>182.5</ele>
        <time>2025-02-25T11:34:52Z</time>
      </trkpt>
      <trkpt lat="48.10995" lon="-3.59215">
        <ele>182.4</ele>
        <time>2025-02-25T11:34:53Z</time>
      </trkpt>
      <trkpt lat="48.10995" lon="-3.59214">
        <ele>182.3</ele>
        <time>2025-02-25T11:34:54Z</time>
      </trkpt>
      <trkpt lat="48.10996" lon="-3.59212">
        <ele>182.3</ele>
        <time>2025-02-25T11:34:55Z</time>
      </trkpt>
      <trkpt lat="48.10996" lon="-3.59211">
        <ele>182.3</ele>
        <time>2025-02-25T11:34:56Z</time>
      </trkpt>
      <trkpt lat="48.10997" lon="-3.5921">
        <ele>182.3</ele>
        <time>2025-02-25T11:34:57Z</time>
      </trkpt>
      <trkpt lat="48.10997" lon="-3.59208">
        <ele>182.3</ele>
        <time>2025-02-25T11:34:58Z</time>
      </trkpt>
      <trkpt lat="48.10997" lon="-3.59206">
        <ele>182.2</ele>
        <time>2025-02-25T11:34:59Z</time>
      </trkpt>
      <trkpt lat="48.10998" lon="-3.59204">
        <ele>182.2</ele>
        <time>2025-02-25T11:35:00Z</time>
      </trkpt>
      <trkpt lat="48.10999" lon="-3.59203">
        <ele>182.2</ele>
        <time>2025-02-25T11:35:01Z</time>
      </trkpt>
      <trkpt lat="48.10999" lon="-3.59201">
        <ele>182.2</ele>
        <time>2025-02-25T11:35:02Z</time>
      </trkpt>
      <trkpt lat="48.10999" lon="-3.59199">
        <ele>182.1</ele>
        <time>2025-02-25T11:35:03Z</time>
      </trkpt>
      <trkpt lat="48.10999" lon="-3.59198">
        <ele>182.1</ele>
        <time>2025-02-25T11:35:04Z</time>
      </trkpt>
      <trkpt lat="48.10999" lon="-3.59196">
        <ele>182</ele>
        <time>2025-02-25T11:35:05Z</time>
      </trkpt>
      <trkpt lat="48.10999" lon="-3.59194">
        <ele>181.9</ele>
        <time>2025-02-25T11:35:06Z</time>
      </trkpt>
      <trkpt lat="48.10999" lon="-3.59192">
        <ele>181.8</ele>
        <time>2025-02-25T11:35:07Z</time>
      </trkpt>
      <trkpt lat="48.11" lon="-3.5919">
        <ele>181.8</ele>
        <time>2025-02-25T11:35:08Z</time>
      </trkpt>
      <trkpt lat="48.11" lon="-3.59189">
        <ele>181.8</ele>
        <time>2025-02-25T11:35:09Z</time>
      </trkpt>
      <trkpt lat="48.11" lon="-3.59187">
        <ele>181.7</ele>
        <time>2025-02-25T11:35:10Z</time>
      </trkpt>
      <trkpt lat="48.11" lon="-3.59185">
        <ele>181.7</ele>
        <time>2025-02-25T11:35:11Z</time>
      </trkpt>
      <trkpt lat="48.11001" lon="-3.59184">
        <ele>181.7</ele>
        <time>2025-02-25T11:35:12Z</time>
      </trkpt>
      <trkpt lat="48.11002" lon="-3.59183">
        <ele>181.7</ele>
        <time>2025-02-25T11:35:13Z</time>
      </trkpt>
      <trkpt lat="48.11003" lon="-3.59183">
        <ele>181.8</ele>
        <time>2025-02-25T11:35:14Z</time>
      </trkpt>
      <trkpt lat="48.11003" lon="-3.5918">
        <ele>181.7</ele>
        <time>2025-02-25T11:35:15Z</time>
      </trkpt>
      <trkpt lat="48.11004" lon="-3.59179">
        <ele>181.7</ele>
        <time>2025-02-25T11:35:16Z</time>
      </trkpt>
      <trkpt lat="48.11004" lon="-3.59178">
        <ele>181.7</ele>
        <time>2025-02-25T11:35:17Z</time>
      </trkpt>
      <trkpt lat="48.11005" lon="-3.59177">
        <ele>181.7</ele>
        <time>2025-02-25T11:35:18Z</time>
      </trkpt>
      <trkpt lat="48.11006" lon="-3.59176">
        <ele>181.8</ele>
        <time>2025-02-25T11:35:19Z</time>
      </trkpt>
      <trkpt lat="48.11006" lon="-3.59175">
        <ele>181.7</ele>
        <time>2025-02-25T11:35:20Z</time>
      </trkpt>
      <trkpt lat="48.11007" lon="-3.59174">
        <ele>181.8</ele>
        <time>2025-02-25T11:35:21Z</time>
      </trkpt>
      <trkpt lat="48.11007" lon="-3.59172">
        <ele>181.7</ele>
        <time>2025-02-25T11:35:22Z</time>
      </trkpt>
      <trkpt lat="48.11007" lon="-3.59171">
        <ele>181.7</ele>
        <time>2025-02-25T11:35:23Z</time>
      </trkpt>
      <trkpt lat="48.11008" lon="-3.5917">
        <ele>181.7</ele>
        <time>2025-02-25T11:35:24Z</time>
      </trkpt>
      <trkpt lat="48.11008" lon="-3.59169">
        <ele>181.7</ele>
        <time>2025-02-25T11:35:25Z</time>
      </trkpt>
      <trkpt lat="48.11009" lon="-3.59168">
        <ele>181.7</ele>
        <time>2025-02-25T11:35:26Z</time>
      </trkpt>
      <trkpt lat="48.11009" lon="-3.59167">
        <ele>181.7</ele>
        <time>2025-02-25T11:35:27Z</time>
      </trkpt>
      <trkpt lat="48.1101" lon="-3.59165">
        <ele>181.7</ele>
        <time>2025-02-25T11:35:28Z</time>
      </trkpt>
      <trkpt lat="48.11011" lon="-3.59165">
        <ele>181.8</ele>
        <time>2025-02-25T11:35:29Z</time>
      </trkpt>
      <trkpt lat="48.11012" lon="-3.59164">
        <ele>181.9</ele>
        <time>2025-02-25T11:35:30Z</time>
      </trkpt>
      <trkpt lat="48.11012" lon="-3.59163">
        <ele>181.9</ele>
        <time>2025-02-25T11:35:31Z</time>
      </trkpt>
      <trkpt lat="48.11012" lon="-3.59161">
        <ele>181.9</ele>
        <time>2025-02-25T11:35:32Z</time>
      </trkpt>
      <trkpt lat="48.11012" lon="-3.59159">
        <ele>181.9</ele>
        <time>2025-02-25T11:35:33Z</time>
      </trkpt>
      <trkpt lat="48.11012" lon="-3.59158">
        <ele>181.9</ele>
        <time>2025-02-25T11:35:34Z</time>
      </trkpt>
      <trkpt lat="48.11012" lon="-3.59156">
        <ele>181.9</ele>
        <time>2025-02-25T11:35:35Z</time>
      </trkpt>
      <trkpt lat="48.11013" lon="-3.59155">
        <ele>181.9</ele>
        <time>2025-02-25T11:35:36Z</time>
      </trkpt>
      <trkpt lat="48.11012" lon="-3.59154">
        <ele>181.9</ele>
        <time>2025-02-25T11:35:37Z</time>
      </trkpt>
      <trkpt lat="48.11012" lon="-3.59154">
        <ele>181.9</ele>
        <time>2025-02-25T11:35:38Z</time>
      </trkpt>
      <trkpt lat="48.11011" lon="-3.59153">
        <ele>181.8</ele>
        <time>2025-02-25T11:35:39Z</time>
      </trkpt>
      <trkpt lat="48.11011" lon="-3.59153">
        <ele>181.8</ele>
        <time>2025-02-25T11:35:40Z</time>
      </trkpt>
      <trkpt lat="48.11011" lon="-3.59153">
        <ele>181.8</ele>
        <time>2025-02-25T11:35:41Z</time>
      </trkpt>
      <trkpt lat="48.11011" lon="-3.59153">
        <ele>181.8</ele>
        <time>2025-02-25T11:35:42Z</time>
      </trkpt>
      <trkpt lat="48.11011" lon="-3.59153">
        <ele>181.8</ele>
        <time>2025-02-25T11:35:43Z</time>
      </trkpt>
      <trkpt lat="48.11012" lon="-3.59154">
        <ele>181.9</ele>
        <time>2025-02-25T11:35:44Z</time>
      </trkpt>
      <trkpt lat="48.11012" lon="-3.59154">
        <ele>181.9</ele>
        <time>2025-02-25T11:35:45Z</time>
      </trkpt>
      <trkpt lat="48.11012" lon="-3.59151">
        <ele>181.9</ele>
        <time>2025-02-25T11:35:46Z</time>
      </trkpt>
      <trkpt lat="48.11013" lon="-3.59149">
        <ele>181.9</ele>
        <time>2025-02-25T11:35:47Z</time>
      </trkpt>
      <trkpt lat="48.11012" lon="-3.59148">
        <ele>181.9</ele>
        <time>2025-02-25T11:35:48Z</time>
      </trkpt>
      <trkpt lat="48.11013" lon="-3.59146">
        <ele>181.9</ele>
        <time>2025-02-25T11:35:49Z</time>
      </trkpt>
      <trkpt lat="48.11013" lon="-3.59147">
        <ele>181.9</ele>
        <time>2025-02-25T11:35:50Z</time>
      </trkpt>
      <trkpt lat="48.11013" lon="-3.59145">
        <ele>181.9</ele>
        <time>2025-02-25T11:35:51Z</time>
      </trkpt>
      <trkpt lat="48.11013" lon="-3.59145">
        <ele>181.9</ele>
        <time>2025-02-25T11:35:52Z</time>
      </trkpt>
      <trkpt lat="48.11013" lon="-3.59144">
        <ele>181.9</ele>
        <time>2025-02-25T11:35:53Z</time>
      </trkpt>
      <trkpt lat="48.11012" lon="-3.59144">
        <ele>181.9</ele>
        <time>2025-02-25T11:35:54Z</time>
      </trkpt>
      <trkpt lat="48.11012" lon="-3.59143">
        <ele>181.9</ele>
        <time>2025-02-25T11:35:55Z</time>
      </trkpt>
      <trkpt lat="48.11012" lon="-3.59143">
        <ele>181.9</ele>
        <time>2025-02-25T11:35:56Z</time>
      </trkpt>
      <trkpt lat="48.11013" lon="-3.59141">
        <ele>181.9</ele>
        <time>2025-02-25T11:35:57Z</time>
      </trkpt>
      <trkpt lat="48.11013" lon="-3.5914">
        <ele>181.9</ele>
        <time>2025-02-25T11:35:58Z</time>
      </trkpt>
      <trkpt lat="48.11014" lon="-3.59138">
        <ele>182</ele>
        <time>2025-02-25T11:35:59Z</time>
      </trkpt>
      <trkpt lat="48.11015" lon="-3.59137">
        <ele>182.1</ele>
        <time>2025-02-25T11:36:00Z</time>
      </trkpt>
      <trkpt lat="48.11016" lon="-3.59136">
        <ele>182.3</ele>
        <time>2025-02-25T11:36:01Z</time>
      </trkpt>
      <trkpt lat="48.11016" lon="-3.59135">
        <ele>182.3</ele>
        <time>2025-02-25T11:36:02Z</time>
      </trkpt>
      <trkpt lat="48.11017" lon="-3.59134">
        <ele>182.4</ele>
        <time>2025-02-25T11:36:03Z</time>
      </trkpt>
      <trkpt lat="48.11018" lon="-3.59133">
        <ele>182.5</ele>
        <time>2025-02-25T11:36:04Z</time>
      </trkpt>
      <trkpt lat="48.11018" lon="-3.59132">
        <ele>182.5</ele>
        <time>2025-02-25T11:36:05Z</time>
      </trkpt>
      <trkpt lat="48.11019" lon="-3.59132">
        <ele>182.6</ele>
        <time>2025-02-25T11:36:06Z</time>
      </trkpt>
      <trkpt lat="48.11019" lon="-3.59131">
        <ele>182.7</ele>
        <time>2025-02-25T11:36:07Z</time>
      </trkpt>
      <trkpt lat="48.1102" lon="-3.5913">
        <ele>182.8</ele>
        <time>2025-02-25T11:36:08Z</time>
      </trkpt>
      <trkpt lat="48.1102" lon="-3.59128">
        <ele>182.8</ele>
        <time>2025-02-25T11:36:09Z</time>
      </trkpt>
      <trkpt lat="48.11022" lon="-3.59127">
        <ele>183</ele>
        <time>2025-02-25T11:36:10Z</time>
      </trkpt>
      <trkpt lat="48.11023" lon="-3.59124">
        <ele>183.2</ele>
        <time>2025-02-25T11:36:11Z</time>
      </trkpt>
      <trkpt lat="48.11022" lon="-3.59122">
        <ele>183.2</ele>
        <time>2025-02-25T11:36:12Z</time>
      </trkpt>
      <trkpt lat="48.11022" lon="-3.59123">
        <ele>183.2</ele>
        <time>2025-02-25T11:36:13Z</time>
      </trkpt>
      <trkpt lat="48.11023" lon="-3.59123">
        <ele>183.2</ele>
        <time>2025-02-25T11:36:14Z</time>
      </trkpt>
      <trkpt lat="48.11023" lon="-3.59121">
        <ele>183.3</ele>
        <time>2025-02-25T11:36:15Z</time>
      </trkpt>
      <trkpt lat="48.11023" lon="-3.59119">
        <ele>183.4</ele>
        <time>2025-02-25T11:36:16Z</time>
      </trkpt>
      <trkpt lat="48.11024" lon="-3.59118">
        <ele>183.5</ele>
        <time>2025-02-25T11:36:17Z</time>
      </trkpt>
      <trkpt lat="48.11024" lon="-3.59117">
        <ele>183.5</ele>
        <time>2025-02-25T11:36:18Z</time>
      </trkpt>
      <trkpt lat="48.11024" lon="-3.59116">
        <ele>183.6</ele>
        <time>2025-02-25T11:36:19Z</time>
      </trkpt>
      <trkpt lat="48.11023" lon="-3.59115">
        <ele>183.5</ele>
        <time>2025-02-25T11:36:20Z</time>
      </trkpt>
      <trkpt lat="48.11023" lon="-3.59115">
        <ele>183.5</ele>
        <time>2025-02-25T11:36:21Z</time>
      </trkpt>
      <trkpt lat="48.11023" lon="-3.59115">
        <ele>183.5</ele>
        <time>2025-02-25T11:36:22Z</time>
      </trkpt>
      <trkpt lat="48.11023" lon="-3.59115">
        <ele>183.5</ele>
        <time>2025-02-25T11:36:23Z</time>
      </trkpt>
      <trkpt lat="48.11023" lon="-3.59115">
        <ele>183.5</ele>
        <time>2025-02-25T11:36:24Z</time>
      </trkpt>
      <trkpt lat="48.11023" lon="-3.59115">
        <ele>183.5</ele>
        <time>2025-02-25T11:36:25Z</time>
      </trkpt>
      <trkpt lat="48.11023" lon="-3.59114">
        <ele>183.6</ele>
        <time>2025-02-25T11:36:26Z</time>
      </trkpt>
      <trkpt lat="48.11023" lon="-3.59112">
        <ele>183.6</ele>
        <time>2025-02-25T11:36:27Z</time>
      </trkpt>
      <trkpt lat="48.11024" lon="-3.59111">
        <ele>183.7</ele>
        <time>2025-02-25T11:36:28Z</time>
      </trkpt>
      <trkpt lat="48.11024" lon="-3.5911">
        <ele>183.8</ele>
        <time>2025-02-25T11:36:29Z</time>
      </trkpt>
      <trkpt lat="48.11025" lon="-3.59109">
        <ele>183.9</ele>
        <time>2025-02-25T11:36:30Z</time>
      </trkpt>
      <trkpt lat="48.11025" lon="-3.59108">
        <ele>183.9</ele>
        <time>2025-02-25T11:36:31Z</time>
      </trkpt>
      <trkpt lat="48.11025" lon="-3.59108">
        <ele>183.9</ele>
        <time>2025-02-25T11:36:32Z</time>
      </trkpt>
      <trkpt lat="48.11026" lon="-3.59106">
        <ele>184.1</ele>
        <time>2025-02-25T11:36:33Z</time>
      </trkpt>
      <trkpt lat="48.11026" lon="-3.59105">
        <ele>184.1</ele>
        <time>2025-02-25T11:36:34Z</time>
      </trkpt>
      <trkpt lat="48.11027" lon="-3.59105">
        <ele>184.2</ele>
        <time>2025-02-25T11:36:35Z</time>
      </trkpt>
      <trkpt lat="48.11028" lon="-3.59103">
        <ele>184.3</ele>
        <time>2025-02-25T11:36:36Z</time>
      </trkpt>
      <trkpt lat="48.11028" lon="-3.59102">
        <ele>184.3</ele>
        <time>2025-02-25T11:36:37Z</time>
      </trkpt>
      <trkpt lat="48.11028" lon="-3.59102">
        <ele>184.3</ele>
        <time>2025-02-25T11:36:38Z</time>
      </trkpt>
      <trkpt lat="48.11029" lon="-3.59101">
        <ele>184.4</ele>
        <time>2025-02-25T11:36:39Z</time>
      </trkpt>
      <trkpt lat="48.11029" lon="-3.591">
        <ele>184.5</ele>
        <time>2025-02-25T11:36:40Z</time>
      </trkpt>
      <trkpt lat="48.11029" lon="-3.59098">
        <ele>184.5</ele>
        <time>2025-02-25T11:36:41Z</time>
      </trkpt>
      <trkpt lat="48.1103" lon="-3.59097">
        <ele>184.6</ele>
        <time>2025-02-25T11:36:42Z</time>
      </trkpt>
      <trkpt lat="48.1103" lon="-3.59097">
        <ele>184.6</ele>
        <time>2025-02-25T11:36:43Z</time>
      </trkpt>
      <trkpt lat="48.11031" lon="-3.59096">
        <ele>184.7</ele>
        <time>2025-02-25T11:36:44Z</time>
      </trkpt>
      <trkpt lat="48.11031" lon="-3.59095">
        <ele>184.8</ele>
        <time>2025-02-25T11:36:45Z</time>
      </trkpt>
      <trkpt lat="48.11032" lon="-3.59094">
        <ele>184.9</ele>
        <time>2025-02-25T11:36:46Z</time>
      </trkpt>
      <trkpt lat="48.11032" lon="-3.59093">
        <ele>184.9</ele>
        <time>2025-02-25T11:36:47Z</time>
      </trkpt>
      <trkpt lat="48.11032" lon="-3.59093">
        <ele>184.9</ele>
        <time>2025-02-25T11:36:48Z</time>
      </trkpt>
      <trkpt lat="48.11033" lon="-3.59092">
        <ele>185</ele>
        <time>2025-02-25T11:36:49Z</time>
      </trkpt>
      <trkpt lat="48.11034" lon="-3.5909">
        <ele>185.2</ele>
        <time>2025-02-25T11:36:50Z</time>
      </trkpt>
      <trkpt lat="48.11034" lon="-3.59088">
        <ele>185.2</ele>
        <time>2025-02-25T11:36:51Z</time>
      </trkpt>
      <trkpt lat="48.11035" lon="-3.59086">
        <ele>185.4</ele>
        <time>2025-02-25T11:36:52Z</time>
      </trkpt>
      <trkpt lat="48.11035" lon="-3.59084">
        <ele>185.5</ele>
        <time>2025-02-25T11:36:53Z</time>
      </trkpt>
      <trkpt lat="48.11035" lon="-3.59082">
        <ele>185.6</ele>
        <time>2025-02-25T11:36:54Z</time>
      </trkpt>
      <trkpt lat="48.11036" lon="-3.59081">
        <ele>185.7</ele>
        <time>2025-02-25T11:36:55Z</time>
      </trkpt>
      <trkpt lat="48.11036" lon="-3.59079">
        <ele>185.7</ele>
        <time>2025-02-25T11:36:56Z</time>
      </trkpt>
      <trkpt lat="48.11037" lon="-3.59078">
        <ele>185.9</ele>
        <time>2025-02-25T11:36:57Z</time>
      </trkpt>
      <trkpt lat="48.11037" lon="-3.59076">
        <ele>185.9</ele>
        <time>2025-02-25T11:36:58Z</time>
      </trkpt>
      <trkpt lat="48.11037" lon="-3.59075">
        <ele>186</ele>
        <time>2025-02-25T11:36:59Z</time>
      </trkpt>
      <trkpt lat="48.11038" lon="-3.59073">
        <ele>186.1</ele>
        <time>2025-02-25T11:37:00Z</time>
      </trkpt>
      <trkpt lat="48.11038" lon="-3.59072">
        <ele>186.1</ele>
        <time>2025-02-25T11:37:01Z</time>
      </trkpt>
      <trkpt lat="48.11039" lon="-3.59071">
        <ele>186.3</ele>
        <time>2025-02-25T11:37:02Z</time>
      </trkpt>
      <trkpt lat="48.1104" lon="-3.5907">
        <ele>186.4</ele>
        <time>2025-02-25T11:37:03Z</time>
      </trkpt>
      <trkpt lat="48.1104" lon="-3.59068">
        <ele>186.4</ele>
        <time>2025-02-25T11:37:04Z</time>
      </trkpt>
      <trkpt lat="48.1104" lon="-3.59066">
        <ele>186.5</ele>
        <time>2025-02-25T11:37:05Z</time>
      </trkpt>
      <trkpt lat="48.1104" lon="-3.59065">
        <ele>186.5</ele>
        <time>2025-02-25T11:37:06Z</time>
      </trkpt>
      <trkpt lat="48.11041" lon="-3.59063">
        <ele>186.7</ele>
        <time>2025-02-25T11:37:07Z</time>
      </trkpt>
      <trkpt lat="48.11041" lon="-3.59062">
        <ele>186.7</ele>
        <time>2025-02-25T11:37:08Z</time>
      </trkpt>
      <trkpt lat="48.11041" lon="-3.5906">
        <ele>186.8</ele>
        <time>2025-02-25T11:37:09Z</time>
      </trkpt>
      <trkpt lat="48.11042" lon="-3.59059">
        <ele>186.9</ele>
        <time>2025-02-25T11:37:10Z</time>
      </trkpt>
      <trkpt lat="48.11043" lon="-3.59057">
        <ele>187</ele>
        <time>2025-02-25T11:37:11Z</time>
      </trkpt>
      <trkpt lat="48.11043" lon="-3.59056">
        <ele>187.1</ele>
        <time>2025-02-25T11:37:12Z</time>
      </trkpt>
      <trkpt lat="48.11043" lon="-3.59054">
        <ele>187.2</ele>
        <time>2025-02-25T11:37:13Z</time>
      </trkpt>
      <trkpt lat="48.11044" lon="-3.59053">
        <ele>187.3</ele>
        <time>2025-02-25T11:37:14Z</time>
      </trkpt>
      <trkpt lat="48.11044" lon="-3.59051">
        <ele>187.3</ele>
        <time>2025-02-25T11:37:15Z</time>
      </trkpt>
      <trkpt lat="48.11045" lon="-3.59049">
        <ele>187.5</ele>
        <time>2025-02-25T11:37:16Z</time>
      </trkpt>
      <trkpt lat="48.11044" lon="-3.59047">
        <ele>187.5</ele>
        <time>2025-02-25T11:37:17Z</time>
      </trkpt>
      <trkpt lat="48.11044" lon="-3.59046">
        <ele>187.5</ele>
        <time>2025-02-25T11:37:18Z</time>
      </trkpt>
      <trkpt lat="48.11045" lon="-3.59045">
        <ele>187.6</ele>
        <time>2025-02-25T11:37:19Z</time>
      </trkpt>
      <trkpt lat="48.11046" lon="-3.59043">
        <ele>187.8</ele>
        <time>2025-02-25T11:37:20Z</time>
      </trkpt>
      <trkpt lat="48.11046" lon="-3.59041">
        <ele>187.8</ele>
        <time>2025-02-25T11:37:21Z</time>
      </trkpt>
      <trkpt lat="48.11047" lon="-3.59039">
        <ele>188</ele>
        <time>2025-02-25T11:37:22Z</time>
      </trkpt>
      <trkpt lat="48.11047" lon="-3.59037">
        <ele>188.1</ele>
        <time>2025-02-25T11:37:23Z</time>
      </trkpt>
      <trkpt lat="48.11048" lon="-3.59036">
        <ele>188.2</ele>
        <time>2025-02-25T11:37:24Z</time>
      </trkpt>
      <trkpt lat="48.11049" lon="-3.59034">
        <ele>188.3</ele>
        <time>2025-02-25T11:37:25Z</time>
      </trkpt>
      <trkpt lat="48.11049" lon="-3.59032">
        <ele>188.4</ele>
        <time>2025-02-25T11:37:26Z</time>
      </trkpt>
      <trkpt lat="48.11049" lon="-3.59031">
        <ele>188.4</ele>
        <time>2025-02-25T11:37:27Z</time>
      </trkpt>
      <trkpt lat="48.11049" lon="-3.59029">
        <ele>188.5</ele>
        <time>2025-02-25T11:37:28Z</time>
      </trkpt>
      <trkpt lat="48.1105" lon="-3.59028">
        <ele>188.6</ele>
        <time>2025-02-25T11:37:29Z</time>
      </trkpt>
      <trkpt lat="48.1105" lon="-3.59027">
        <ele>188.6</ele>
        <time>2025-02-25T11:37:30Z</time>
      </trkpt>
      <trkpt lat="48.1105" lon="-3.59025">
        <ele>188.7</ele>
        <time>2025-02-25T11:37:31Z</time>
      </trkpt>
      <trkpt lat="48.1105" lon="-3.59024">
        <ele>188.7</ele>
        <time>2025-02-25T11:37:32Z</time>
      </trkpt>
      <trkpt lat="48.11051" lon="-3.59023">
        <ele>188.8</ele>
        <time>2025-02-25T11:37:33Z</time>
      </trkpt>
      <trkpt lat="48.11051" lon="-3.59022">
        <ele>188.9</ele>
        <time>2025-02-25T11:37:34Z</time>
      </trkpt>
      <trkpt lat="48.11051" lon="-3.59021">
        <ele>188.9</ele>
        <time>2025-02-25T11:37:35Z</time>
      </trkpt>
      <trkpt lat="48.11052" lon="-3.59021">
        <ele>189</ele>
        <time>2025-02-25T11:37:36Z</time>
      </trkpt>
      <trkpt lat="48.11053" lon="-3.59021">
        <ele>189.1</ele>
        <time>2025-02-25T11:37:37Z</time>
      </trkpt>
      <trkpt lat="48.11054" lon="-3.5902">
        <ele>189.2</ele>
        <time>2025-02-25T11:37:38Z</time>
      </trkpt>
      <trkpt lat="48.11054" lon="-3.59018">
        <ele>189.2</ele>
        <time>2025-02-25T11:37:39Z</time>
      </trkpt>
      <trkpt lat="48.11054" lon="-3.59017">
        <ele>189.3</ele>
        <time>2025-02-25T11:37:40Z</time>
      </trkpt>
      <trkpt lat="48.11054" lon="-3.59015">
        <ele>189.3</ele>
        <time>2025-02-25T11:37:41Z</time>
      </trkpt>
      <trkpt lat="48.11055" lon="-3.59014">
        <ele>189.5</ele>
        <time>2025-02-25T11:37:42Z</time>
      </trkpt>
      <trkpt lat="48.11055" lon="-3.59012">
        <ele>189.5</ele>
        <time>2025-02-25T11:37:43Z</time>
      </trkpt>
      <trkpt lat="48.11055" lon="-3.59011">
        <ele>189.6</ele>
        <time>2025-02-25T11:37:44Z</time>
      </trkpt>
      <trkpt lat="48.11056" lon="-3.5901">
        <ele>189.7</ele>
        <time>2025-02-25T11:37:45Z</time>
      </trkpt>
      <trkpt lat="48.11057" lon="-3.59009">
        <ele>189.8</ele>
        <time>2025-02-25T11:37:46Z</time>
      </trkpt>
      <trkpt lat="48.11057" lon="-3.59008">
        <ele>189.8</ele>
        <time>2025-02-25T11:37:47Z</time>
      </trkpt>
      <trkpt lat="48.11057" lon="-3.59007">
        <ele>189.9</ele>
        <time>2025-02-25T11:37:48Z</time>
      </trkpt>
      <trkpt lat="48.11057" lon="-3.59006">
        <ele>189.9</ele>
        <time>2025-02-25T11:37:49Z</time>
      </trkpt>
      <trkpt lat="48.11058" lon="-3.59004">
        <ele>190</ele>
        <time>2025-02-25T11:37:50Z</time>
      </trkpt>
      <trkpt lat="48.11058" lon="-3.59003">
        <ele>190.1</ele>
        <time>2025-02-25T11:37:51Z</time>
      </trkpt>
      <trkpt lat="48.11059" lon="-3.59002">
        <ele>190.2</ele>
        <time>2025-02-25T11:37:52Z</time>
      </trkpt>
      <trkpt lat="48.11059" lon="-3.58999">
        <ele>190.3</ele>
        <time>2025-02-25T11:37:53Z</time>
      </trkpt>
      <trkpt lat="48.11058" lon="-3.58998">
        <ele>190.3</ele>
        <time>2025-02-25T11:37:54Z</time>
      </trkpt>
      <trkpt lat="48.11059" lon="-3.58997">
        <ele>190.4</ele>
        <time>2025-02-25T11:37:55Z</time>
      </trkpt>
      <trkpt lat="48.11059" lon="-3.58996">
        <ele>190.4</ele>
        <time>2025-02-25T11:37:56Z</time>
      </trkpt>
      <trkpt lat="48.1106" lon="-3.58995">
        <ele>190.5</ele>
        <time>2025-02-25T11:37:57Z</time>
      </trkpt>
      <trkpt lat="48.11061" lon="-3.58994">
        <ele>190.7</ele>
        <time>2025-02-25T11:37:58Z</time>
      </trkpt>
      <trkpt lat="48.11062" lon="-3.58994">
        <ele>190.7</ele>
        <time>2025-02-25T11:37:59Z</time>
      </trkpt>
      <trkpt lat="48.11062" lon="-3.58993">
        <ele>190.8</ele>
        <time>2025-02-25T11:38:00Z</time>
      </trkpt>
      <trkpt lat="48.11063" lon="-3.58991">
        <ele>190.9</ele>
        <time>2025-02-25T11:38:01Z</time>
      </trkpt>
      <trkpt lat="48.11063" lon="-3.58991">
        <ele>190.9</ele>
        <time>2025-02-25T11:38:02Z</time>
      </trkpt>
      <trkpt lat="48.11063" lon="-3.58989">
        <ele>191</ele>
        <time>2025-02-25T11:38:03Z</time>
      </trkpt>
      <trkpt lat="48.11063" lon="-3.58986">
        <ele>191.2</ele>
        <time>2025-02-25T11:38:04Z</time>
      </trkpt>
      <trkpt lat="48.11063" lon="-3.58985">
        <ele>191.2</ele>
        <time>2025-02-25T11:38:05Z</time>
      </trkpt>
      <trkpt lat="48.11063" lon="-3.58983">
        <ele>191.3</ele>
        <time>2025-02-25T11:38:06Z</time>
      </trkpt>
      <trkpt lat="48.11064" lon="-3.58982">
        <ele>191.5</ele>
        <time>2025-02-25T11:38:07Z</time>
      </trkpt>
      <trkpt lat="48.11064" lon="-3.58979">
        <ele>191.6</ele>
        <time>2025-02-25T11:38:08Z</time>
      </trkpt>
      <trkpt lat="48.11064" lon="-3.58977">
        <ele>191.7</ele>
        <time>2025-02-25T11:38:09Z</time>
      </trkpt>
      <trkpt lat="48.11064" lon="-3.58975">
        <ele>191.8</ele>
        <time>2025-02-25T11:38:10Z</time>
      </trkpt>
      <trkpt lat="48.11063" lon="-3.58975">
        <ele>191.7</ele>
        <time>2025-02-25T11:38:11Z</time>
      </trkpt>
      <trkpt lat="48.11063" lon="-3.58973">
        <ele>191.8</ele>
        <time>2025-02-25T11:38:12Z</time>
      </trkpt>
      <trkpt lat="48.11063" lon="-3.58971">
        <ele>191.9</ele>
        <time>2025-02-25T11:38:13Z</time>
      </trkpt>
      <trkpt lat="48.11063" lon="-3.58968">
        <ele>192.1</ele>
        <time>2025-02-25T11:38:14Z</time>
      </trkpt>
      <trkpt lat="48.11062" lon="-3.58966">
        <ele>192.1</ele>
        <time>2025-02-25T11:38:15Z</time>
      </trkpt>
      <trkpt lat="48.11062" lon="-3.58964">
        <ele>192.2</ele>
        <time>2025-02-25T11:38:16Z</time>
      </trkpt>
      <trkpt lat="48.11063" lon="-3.58962">
        <ele>192.4</ele>
        <time>2025-02-25T11:38:17Z</time>
      </trkpt>
      <trkpt lat="48.11063" lon="-3.58961">
        <ele>192.5</ele>
        <time>2025-02-25T11:38:18Z</time>
      </trkpt>
      <trkpt lat="48.11065" lon="-3.5896">
        <ele>192.8</ele>
        <time>2025-02-25T11:38:19Z</time>
      </trkpt>
      <trkpt lat="48.11066" lon="-3.58959">
        <ele>192.9</ele>
        <time>2025-02-25T11:38:20Z</time>
      </trkpt>
      <trkpt lat="48.11066" lon="-3.58958">
        <ele>193</ele>
        <time>2025-02-25T11:38:21Z</time>
      </trkpt>
      <trkpt lat="48.11067" lon="-3.58957">
        <ele>193.1</ele>
        <time>2025-02-25T11:38:22Z</time>
      </trkpt>
      <trkpt lat="48.11067" lon="-3.58956">
        <ele>193.2</ele>
        <time>2025-02-25T11:38:23Z</time>
      </trkpt>
      <trkpt lat="48.11068" lon="-3.58955">
        <ele>193.3</ele>
        <time>2025-02-25T11:38:24Z</time>
      </trkpt>
      <trkpt lat="48.11069" lon="-3.58956">
        <ele>193.3</ele>
        <time>2025-02-25T11:38:25Z</time>
      </trkpt>
      <trkpt lat="48.1107" lon="-3.58955">
        <ele>193.5</ele>
        <time>2025-02-25T11:38:26Z</time>
      </trkpt>
      <trkpt lat="48.1107" lon="-3.58953">
        <ele>193.6</ele>
        <time>2025-02-25T11:38:27Z</time>
      </trkpt>
      <trkpt lat="48.1107" lon="-3.58952">
        <ele>193.6</ele>
        <time>2025-02-25T11:38:28Z</time>
      </trkpt>
      <trkpt lat="48.11071" lon="-3.5895">
        <ele>193.8</ele>
        <time>2025-02-25T11:38:29Z</time>
      </trkpt>
      <trkpt lat="48.11071" lon="-3.58949">
        <ele>193.9</ele>
        <time>2025-02-25T11:38:30Z</time>
      </trkpt>
      <trkpt lat="48.11071" lon="-3.58946">
        <ele>194</ele>
        <time>2025-02-25T11:38:31Z</time>
      </trkpt>
      <trkpt lat="48.11073" lon="-3.58945">
        <ele>194.2</ele>
        <time>2025-02-25T11:38:32Z</time>
      </trkpt>
      <trkpt lat="48.11073" lon="-3.58944">
        <ele>194.3</ele>
        <time>2025-02-25T11:38:33Z</time>
      </trkpt>
      <trkpt lat="48.11074" lon="-3.58942">
        <ele>194.5</ele>
        <time>2025-02-25T11:38:34Z</time>
      </trkpt>
      <trkpt lat="48.11074" lon="-3.5894">
        <ele>194.6</ele>
        <time>2025-02-25T11:38:35Z</time>
      </trkpt>
      <trkpt lat="48.11075" lon="-3.58939">
        <ele>194.8</ele>
        <time>2025-02-25T11:38:36Z</time>
      </trkpt>
      <trkpt lat="48.11076" lon="-3.58939">
        <ele>194.9</ele>
        <time>2025-02-25T11:38:37Z</time>
      </trkpt>
      <trkpt lat="48.11077" lon="-3.58938">
        <ele>195</ele>
        <time>2025-02-25T11:38:38Z</time>
      </trkpt>
      <trkpt lat="48.11078" lon="-3.58937">
        <ele>195.2</ele>
        <time>2025-02-25T11:38:39Z</time>
      </trkpt>
      <trkpt lat="48.11079" lon="-3.58937">
        <ele>195.2</ele>
        <time>2025-02-25T11:38:40Z</time>
      </trkpt>
      <trkpt lat="48.11079" lon="-3.58935">
        <ele>195.4</ele>
        <time>2025-02-25T11:38:41Z</time>
      </trkpt>
      <trkpt lat="48.1108" lon="-3.58934">
        <ele>195.5</ele>
        <time>2025-02-25T11:38:42Z</time>
      </trkpt>
      <trkpt lat="48.1108" lon="-3.58933">
        <ele>195.6</ele>
        <time>2025-02-25T11:38:43Z</time>
      </trkpt>
      <trkpt lat="48.11081" lon="-3.58931">
        <ele>195.8</ele>
        <time>2025-02-25T11:38:44Z</time>
      </trkpt>
      <trkpt lat="48.11082" lon="-3.58929">
        <ele>196</ele>
        <time>2025-02-25T11:38:45Z</time>
      </trkpt>
      <trkpt lat="48.11083" lon="-3.58928">
        <ele>196.2</ele>
        <time>2025-02-25T11:38:46Z</time>
      </trkpt>
      <trkpt lat="48.11084" lon="-3.58927">
        <ele>196.3</ele>
        <time>2025-02-25T11:38:47Z</time>
      </trkpt>
      <trkpt lat="48.11084" lon="-3.58926">
        <ele>196.4</ele>
        <time>2025-02-25T11:38:48Z</time>
      </trkpt>
      <trkpt lat="48.11085" lon="-3.58926">
        <ele>196.4</ele>
        <time>2025-02-25T11:38:49Z</time>
      </trkpt>
      <trkpt lat="48.11086" lon="-3.58924">
        <ele>196.7</ele>
        <time>2025-02-25T11:38:50Z</time>
      </trkpt>
      <trkpt lat="48.11086" lon="-3.58923">
        <ele>196.7</ele>
        <time>2025-02-25T11:38:51Z</time>
      </trkpt>
      <trkpt lat="48.11086" lon="-3.58922">
        <ele>196.8</ele>
        <time>2025-02-25T11:38:52Z</time>
      </trkpt>
      <trkpt lat="48.11087" lon="-3.58921">
        <ele>197</ele>
        <time>2025-02-25T11:38:53Z</time>
      </trkpt>
      <trkpt lat="48.11088" lon="-3.5892">
        <ele>197.1</ele>
        <time>2025-02-25T11:38:54Z</time>
      </trkpt>
      <trkpt lat="48.11089" lon="-3.5892">
        <ele>197.2</ele>
        <time>2025-02-25T11:38:55Z</time>
      </trkpt>
      <trkpt lat="48.11089" lon="-3.58919">
        <ele>197.2</ele>
        <time>2025-02-25T11:38:56Z</time>
      </trkpt>
      <trkpt lat="48.1109" lon="-3.58919">
        <ele>197.3</ele>
        <time>2025-02-25T11:38:57Z</time>
      </trkpt>
      <trkpt lat="48.11091" lon="-3.58917">
        <ele>197.5</ele>
        <time>2025-02-25T11:38:58Z</time>
      </trkpt>
      <trkpt lat="48.11091" lon="-3.58915">
        <ele>197.7</ele>
        <time>2025-02-25T11:38:59Z</time>
      </trkpt>
      <trkpt lat="48.11092" lon="-3.58913">
        <ele>197.9</ele>
        <time>2025-02-25T11:39:00Z</time>
      </trkpt>
      <trkpt lat="48.11092" lon="-3.58912">
        <ele>198</ele>
        <time>2025-02-25T11:39:01Z</time>
      </trkpt>
      <trkpt lat="48.11093" lon="-3.58911">
        <ele>198.1</ele>
        <time>2025-02-25T11:39:02Z</time>
      </trkpt>
      <trkpt lat="48.11093" lon="-3.58911">
        <ele>198.1</ele>
        <time>2025-02-25T11:39:03Z</time>
      </trkpt>
      <trkpt lat="48.11094" lon="-3.5891">
        <ele>198.2</ele>
        <time>2025-02-25T11:39:04Z</time>
      </trkpt>
      <trkpt lat="48.11095" lon="-3.58909">
        <ele>198.4</ele>
        <time>2025-02-25T11:39:05Z</time>
      </trkpt>
      <trkpt lat="48.11095" lon="-3.58908">
        <ele>198.5</ele>
        <time>2025-02-25T11:39:06Z</time>
      </trkpt>
      <trkpt lat="48.11096" lon="-3.58907">
        <ele>198.6</ele>
        <time>2025-02-25T11:39:07Z</time>
      </trkpt>
      <trkpt lat="48.11097" lon="-3.58906">
        <ele>198.8</ele>
        <time>2025-02-25T11:39:08Z</time>
      </trkpt>
      <trkpt lat="48.11097" lon="-3.58905">
        <ele>198.8</ele>
        <time>2025-02-25T11:39:09Z</time>
      </trkpt>
      <trkpt lat="48.11098" lon="-3.58904">
        <ele>199</ele>
        <time>2025-02-25T11:39:10Z</time>
      </trkpt>
      <trkpt lat="48.11099" lon="-3.58904">
        <ele>199</ele>
        <time>2025-02-25T11:39:11Z</time>
      </trkpt>
      <trkpt lat="48.11099" lon="-3.58903">
        <ele>199.1</ele>
        <time>2025-02-25T11:39:12Z</time>
      </trkpt>
      <trkpt lat="48.111" lon="-3.58902">
        <ele>199.3</ele>
        <time>2025-02-25T11:39:13Z</time>
      </trkpt>
      <trkpt lat="48.111" lon="-3.58901">
        <ele>199.3</ele>
        <time>2025-02-25T11:39:14Z</time>
      </trkpt>
      <trkpt lat="48.11101" lon="-3.589">
        <ele>199.5</ele>
        <time>2025-02-25T11:39:15Z</time>
      </trkpt>
      <trkpt lat="48.11102" lon="-3.589">
        <ele>199.5</ele>
        <time>2025-02-25T11:39:16Z</time>
      </trkpt>
      <trkpt lat="48.11103" lon="-3.58897">
        <ele>199.8</ele>
        <time>2025-02-25T11:39:17Z</time>
      </trkpt>
      <trkpt lat="48.11105" lon="-3.58897">
        <ele>200</ele>
        <time>2025-02-25T11:39:18Z</time>
      </trkpt>
      <trkpt lat="48.11105" lon="-3.58897">
        <ele>200</ele>
        <time>2025-02-25T11:39:19Z</time>
      </trkpt>
      <trkpt lat="48.11106" lon="-3.58897">
        <ele>200</ele>
        <time>2025-02-25T11:39:20Z</time>
      </trkpt>
      <trkpt lat="48.11107" lon="-3.58896">
        <ele>200.2</ele>
        <time>2025-02-25T11:39:21Z</time>
      </trkpt>
      <trkpt lat="48.11107" lon="-3.58895">
        <ele>200.3</ele>
        <time>2025-02-25T11:39:22Z</time>
      </trkpt>
      <trkpt lat="48.11108" lon="-3.58894">
        <ele>200.4</ele>
        <time>2025-02-25T11:39:23Z</time>
      </trkpt>
      <trkpt lat="48.11108" lon="-3.58893">
        <ele>200.5</ele>
        <time>2025-02-25T11:39:24Z</time>
      </trkpt>
      <trkpt lat="48.11109" lon="-3.58892">
        <ele>200.6</ele>
        <time>2025-02-25T11:39:25Z</time>
      </trkpt>
      <trkpt lat="48.1111" lon="-3.58891">
        <ele>200.8</ele>
        <time>2025-02-25T11:39:26Z</time>
      </trkpt>
      <trkpt lat="48.11111" lon="-3.58891">
        <ele>200.8</ele>
        <time>2025-02-25T11:39:27Z</time>
      </trkpt>
      <trkpt lat="48.11112" lon="-3.58889">
        <ele>201</ele>
        <time>2025-02-25T11:39:28Z</time>
      </trkpt>
      <trkpt lat="48.11112" lon="-3.58888">
        <ele>201.1</ele>
        <time>2025-02-25T11:39:29Z</time>
      </trkpt>
      <trkpt lat="48.11113" lon="-3.58887">
        <ele>201.2</ele>
        <time>2025-02-25T11:39:30Z</time>
      </trkpt>
      <trkpt lat="48.11114" lon="-3.58886">
        <ele>201.3</ele>
        <time>2025-02-25T11:39:31Z</time>
      </trkpt>
      <trkpt lat="48.11115" lon="-3.58884">
        <ele>201.5</ele>
        <time>2025-02-25T11:39:32Z</time>
      </trkpt>
      <trkpt lat="48.11116" lon="-3.58883">
        <ele>201.6</ele>
        <time>2025-02-25T11:39:33Z</time>
      </trkpt>
      <trkpt lat="48.11117" lon="-3.58883">
        <ele>201.6</ele>
        <time>2025-02-25T11:39:34Z</time>
      </trkpt>
      <trkpt lat="48.11118" lon="-3.58882">
        <ele>201.7</ele>
        <time>2025-02-25T11:39:35Z</time>
      </trkpt>
      <trkpt lat="48.11119" lon="-3.58882">
        <ele>201.8</ele>
        <time>2025-02-25T11:39:36Z</time>
      </trkpt>
      <trkpt lat="48.11119" lon="-3.5888">
        <ele>201.9</ele>
        <time>2025-02-25T11:39:37Z</time>
      </trkpt>
      <trkpt lat="48.11119" lon="-3.58879">
        <ele>202</ele>
        <time>2025-02-25T11:39:38Z</time>
      </trkpt>
      <trkpt lat="48.1112" lon="-3.58878">
        <ele>202.1</ele>
        <time>2025-02-25T11:39:39Z</time>
      </trkpt>
      <trkpt lat="48.1112" lon="-3.58877">
        <ele>202.2</ele>
        <time>2025-02-25T11:39:40Z</time>
      </trkpt>
      <trkpt lat="48.11121" lon="-3.58876">
        <ele>202.3</ele>
        <time>2025-02-25T11:39:41Z</time>
      </trkpt>
      <trkpt lat="48.11121" lon="-3.58875">
        <ele>202.4</ele>
        <time>2025-02-25T11:39:42Z</time>
      </trkpt>
      <trkpt lat="48.11122" lon="-3.58873">
        <ele>202.5</ele>
        <time>2025-02-25T11:39:43Z</time>
      </trkpt>
      <trkpt lat="48.11122" lon="-3.58872">
        <ele>202.6</ele>
        <time>2025-02-25T11:39:44Z</time>
      </trkpt>
      <trkpt lat="48.11123" lon="-3.58871">
        <ele>202.7</ele>
        <time>2025-02-25T11:39:45Z</time>
      </trkpt>
      <trkpt lat="48.11124" lon="-3.58869">
        <ele>202.9</ele>
        <time>2025-02-25T11:39:46Z</time>
      </trkpt>
      <trkpt lat="48.11124" lon="-3.58868">
        <ele>203</ele>
        <time>2025-02-25T11:39:47Z</time>
      </trkpt>
      <trkpt lat="48.11124" lon="-3.58867">
        <ele>203</ele>
        <time>2025-02-25T11:39:48Z</time>
      </trkpt>
      <trkpt lat="48.11125" lon="-3.58866">
        <ele>203.1</ele>
        <time>2025-02-25T11:39:49Z</time>
      </trkpt>
      <trkpt lat="48.11126" lon="-3.58865">
        <ele>203.3</ele>
        <time>2025-02-25T11:39:50Z</time>
      </trkpt>
      <trkpt lat="48.11127" lon="-3.58865">
        <ele>203.3</ele>
        <time>2025-02-25T11:39:51Z</time>
      </trkpt>
      <trkpt lat="48.11128" lon="-3.58865">
        <ele>203.3</ele>
        <time>2025-02-25T11:39:52Z</time>
      </trkpt>
      <trkpt lat="48.11128" lon="-3.58864">
        <ele>203.4</ele>
        <time>2025-02-25T11:39:53Z</time>
      </trkpt>
      <trkpt lat="48.11129" lon="-3.58862">
        <ele>203.6</ele>
        <time>2025-02-25T11:39:54Z</time>
      </trkpt>
      <trkpt lat="48.11129" lon="-3.58861">
        <ele>203.7</ele>
        <time>2025-02-25T11:39:55Z</time>
      </trkpt>
      <trkpt lat="48.1113" lon="-3.58859">
        <ele>203.8</ele>
        <time>2025-02-25T11:39:56Z</time>
      </trkpt>
      <trkpt lat="48.1113" lon="-3.58857">
        <ele>204</ele>
        <time>2025-02-25T11:39:57Z</time>
      </trkpt>
      <trkpt lat="48.1113" lon="-3.58857">
        <ele>204</ele>
        <time>2025-02-25T11:39:58Z</time>
      </trkpt>
      <trkpt lat="48.1113" lon="-3.58855">
        <ele>204.1</ele>
        <time>2025-02-25T11:39:59Z</time>
      </trkpt>
      <trkpt lat="48.1113" lon="-3.58854">
        <ele>204.2</ele>
        <time>2025-02-25T11:40:00Z</time>
      </trkpt>
      <trkpt lat="48.11131" lon="-3.58852">
        <ele>204.4</ele>
        <time>2025-02-25T11:40:01Z</time>
      </trkpt>
      <trkpt lat="48.11131" lon="-3.58851">
        <ele>204.4</ele>
        <time>2025-02-25T11:40:02Z</time>
      </trkpt>
      <trkpt lat="48.11132" lon="-3.58849">
        <ele>204.6</ele>
        <time>2025-02-25T11:40:03Z</time>
      </trkpt>
      <trkpt lat="48.11133" lon="-3.58849">
        <ele>204.7</ele>
        <time>2025-02-25T11:40:04Z</time>
      </trkpt>
      <trkpt lat="48.11134" lon="-3.58847">
        <ele>204.8</ele>
        <time>2025-02-25T11:40:05Z</time>
      </trkpt>
      <trkpt lat="48.11134" lon="-3.58847">
        <ele>204.8</ele>
        <time>2025-02-25T11:40:06Z</time>
      </trkpt>
      <trkpt lat="48.11135" lon="-3.58846">
        <ele>204.9</ele>
        <time>2025-02-25T11:40:07Z</time>
      </trkpt>
      <trkpt lat="48.11135" lon="-3.58845">
        <ele>205</ele>
        <time>2025-02-25T11:40:08Z</time>
      </trkpt>
      <trkpt lat="48.11135" lon="-3.58844">
        <ele>205.1</ele>
        <time>2025-02-25T11:40:09Z</time>
      </trkpt>
      <trkpt lat="48.11136" lon="-3.58843">
        <ele>205.2</ele>
        <time>2025-02-25T11:40:10Z</time>
      </trkpt>
      <trkpt lat="48.11137" lon="-3.58841">
        <ele>205.4</ele>
        <time>2025-02-25T11:40:11Z</time>
      </trkpt>
      <trkpt lat="48.11137" lon="-3.5884">
        <ele>205.5</ele>
        <time>2025-02-25T11:40:12Z</time>
      </trkpt>
      <trkpt lat="48.11137" lon="-3.58839">
        <ele>205.5</ele>
        <time>2025-02-25T11:40:13Z</time>
      </trkpt>
      <trkpt lat="48.11138" lon="-3.58838">
        <ele>205.6</ele>
        <time>2025-02-25T11:40:14Z</time>
      </trkpt>
      <trkpt lat="48.11138" lon="-3.58838">
        <ele>205.6</ele>
        <time>2025-02-25T11:40:15Z</time>
      </trkpt>
      <trkpt lat="48.11138" lon="-3.58837">
        <ele>205.7</ele>
        <time>2025-02-25T11:40:16Z</time>
      </trkpt>
      <trkpt lat="48.11139" lon="-3.58836">
        <ele>205.8</ele>
        <time>2025-02-25T11:40:17Z</time>
      </trkpt>
      <trkpt lat="48.1114" lon="-3.58834">
        <ele>206</ele>
        <time>2025-02-25T11:40:18Z</time>
      </trkpt>
      <trkpt lat="48.1114" lon="-3.58835">
        <ele>205.9</ele>
        <time>2025-02-25T11:40:19Z</time>
      </trkpt>
      <trkpt lat="48.1114" lon="-3.58834">
        <ele>206</ele>
        <time>2025-02-25T11:40:20Z</time>
      </trkpt>
      <trkpt lat="48.11141" lon="-3.58833">
        <ele>206.1</ele>
        <time>2025-02-25T11:40:21Z</time>
      </trkpt>
      <trkpt lat="48.11141" lon="-3.58831">
        <ele>206.2</ele>
        <time>2025-02-25T11:40:22Z</time>
      </trkpt>
      <trkpt lat="48.11141" lon="-3.58831">
        <ele>206.2</ele>
        <time>2025-02-25T11:40:23Z</time>
      </trkpt>
      <trkpt lat="48.11141" lon="-3.5883">
        <ele>206.3</ele>
        <time>2025-02-25T11:40:24Z</time>
      </trkpt>
      <trkpt lat="48.11142" lon="-3.5883">
        <ele>206.3</ele>
        <time>2025-02-25T11:40:25Z</time>
      </trkpt>
      <trkpt lat="48.11142" lon="-3.58828">
        <ele>206.5</ele>
        <time>2025-02-25T11:40:26Z</time>
      </trkpt>
      <trkpt lat="48.11142" lon="-3.58827">
        <ele>206.5</ele>
        <time>2025-02-25T11:40:27Z</time>
      </trkpt>
      <trkpt lat="48.11143" lon="-3.58825">
        <ele>206.7</ele>
        <time>2025-02-25T11:40:28Z</time>
      </trkpt>
      <trkpt lat="48.11143" lon="-3.58823">
        <ele>206.8</ele>
        <time>2025-02-25T11:40:29Z</time>
      </trkpt>
      <trkpt lat="48.11144" lon="-3.58823">
        <ele>206.9</ele>
        <time>2025-02-25T11:40:30Z</time>
      </trkpt>
      <trkpt lat="48.11145" lon="-3.58822">
        <ele>206.9</ele>
        <time>2025-02-25T11:40:31Z</time>
      </trkpt>
      <trkpt lat="48.11146" lon="-3.58821">
        <ele>207</ele>
        <time>2025-02-25T11:40:32Z</time>
      </trkpt>
      <trkpt lat="48.11148" lon="-3.5882">
        <ele>207.1</ele>
        <time>2025-02-25T11:40:33Z</time>
      </trkpt>
      <trkpt lat="48.11148" lon="-3.58818">
        <ele>207.3</ele>
        <time>2025-02-25T11:40:34Z</time>
      </trkpt>
      <trkpt lat="48.11148" lon="-3.58818">
        <ele>207.3</ele>
        <time>2025-02-25T11:40:35Z</time>
      </trkpt>
      <trkpt lat="48.11149" lon="-3.58818">
        <ele>207.3</ele>
        <time>2025-02-25T11:40:36Z</time>
      </trkpt>
      <trkpt lat="48.1115" lon="-3.58817">
        <ele>207.3</ele>
        <time>2025-02-25T11:40:37Z</time>
      </trkpt>
      <trkpt lat="48.1115" lon="-3.58817">
        <ele>207.3</ele>
        <time>2025-02-25T11:40:38Z</time>
      </trkpt>
      <trkpt lat="48.1115" lon="-3.58816">
        <ele>207.4</ele>
        <time>2025-02-25T11:40:39Z</time>
      </trkpt>
      <trkpt lat="48.1115" lon="-3.58815">
        <ele>207.5</ele>
        <time>2025-02-25T11:40:40Z</time>
      </trkpt>
      <trkpt lat="48.11151" lon="-3.58815">
        <ele>207.5</ele>
        <time>2025-02-25T11:40:41Z</time>
      </trkpt>
      <trkpt lat="48.11151" lon="-3.58814">
        <ele>207.5</ele>
        <time>2025-02-25T11:40:42Z</time>
      </trkpt>
      <trkpt lat="48.11151" lon="-3.58814">
        <ele>207.5</ele>
        <time>2025-02-25T11:40:43Z</time>
      </trkpt>
      <trkpt lat="48.11152" lon="-3.58813">
        <ele>207.6</ele>
        <time>2025-02-25T11:40:44Z</time>
      </trkpt>
      <trkpt lat="48.11152" lon="-3.58811">
        <ele>207.7</ele>
        <time>2025-02-25T11:40:45Z</time>
      </trkpt>
      <trkpt lat="48.11152" lon="-3.5881">
        <ele>207.8</ele>
        <time>2025-02-25T11:40:46Z</time>
      </trkpt>
      <trkpt lat="48.11152" lon="-3.58809">
        <ele>207.8</ele>
        <time>2025-02-25T11:40:47Z</time>
      </trkpt>
      <trkpt lat="48.11152" lon="-3.58807">
        <ele>207.9</ele>
        <time>2025-02-25T11:40:48Z</time>
      </trkpt>
      <trkpt lat="48.11152" lon="-3.58806">
        <ele>208</ele>
        <time>2025-02-25T11:40:49Z</time>
      </trkpt>
      <trkpt lat="48.11153" lon="-3.58805">
        <ele>208</ele>
        <time>2025-02-25T11:40:50Z</time>
      </trkpt>
      <trkpt lat="48.11154" lon="-3.58804">
        <ele>208.1</ele>
        <time>2025-02-25T11:40:51Z</time>
      </trkpt>
      <trkpt lat="48.11154" lon="-3.58803">
        <ele>208.1</ele>
        <time>2025-02-25T11:40:52Z</time>
      </trkpt>
      <trkpt lat="48.11155" lon="-3.58801">
        <ele>208.3</ele>
        <time>2025-02-25T11:40:53Z</time>
      </trkpt>
      <trkpt lat="48.11155" lon="-3.588">
        <ele>208.3</ele>
        <time>2025-02-25T11:40:54Z</time>
      </trkpt>
      <trkpt lat="48.11155" lon="-3.58798">
        <ele>208.4</ele>
        <time>2025-02-25T11:40:55Z</time>
      </trkpt>
      <trkpt lat="48.11156" lon="-3.58796">
        <ele>208.6</ele>
        <time>2025-02-25T11:40:56Z</time>
      </trkpt>
      <trkpt lat="48.11156" lon="-3.58795">
        <ele>208.6</ele>
        <time>2025-02-25T11:40:57Z</time>
      </trkpt>
      <trkpt lat="48.11156" lon="-3.58793">
        <ele>208.7</ele>
        <time>2025-02-25T11:40:58Z</time>
      </trkpt>
      <trkpt lat="48.11156" lon="-3.58792">
        <ele>208.8</ele>
        <time>2025-02-25T11:40:59Z</time>
      </trkpt>
      <trkpt lat="48.11157" lon="-3.58791">
        <ele>208.9</ele>
        <time>2025-02-25T11:41:00Z</time>
      </trkpt>
      <trkpt lat="48.11157" lon="-3.58789">
        <ele>209</ele>
        <time>2025-02-25T11:41:01Z</time>
      </trkpt>
      <trkpt lat="48.11157" lon="-3.58788">
        <ele>209</ele>
        <time>2025-02-25T11:41:02Z</time>
      </trkpt>
      <trkpt lat="48.11158" lon="-3.58787">
        <ele>209.1</ele>
        <time>2025-02-25T11:41:03Z</time>
      </trkpt>
      <trkpt lat="48.11158" lon="-3.58786">
        <ele>209.2</ele>
        <time>2025-02-25T11:41:04Z</time>
      </trkpt>
      <trkpt lat="48.11159" lon="-3.58785">
        <ele>209.3</ele>
        <time>2025-02-25T11:41:05Z</time>
      </trkpt>
      <trkpt lat="48.11159" lon="-3.58784">
        <ele>209.3</ele>
        <time>2025-02-25T11:41:06Z</time>
      </trkpt>
      <trkpt lat="48.11159" lon="-3.58782">
        <ele>209.5</ele>
        <time>2025-02-25T11:41:07Z</time>
      </trkpt>
      <trkpt lat="48.1116" lon="-3.58781">
        <ele>209.6</ele>
        <time>2025-02-25T11:41:08Z</time>
      </trkpt>
      <trkpt lat="48.1116" lon="-3.58779">
        <ele>209.7</ele>
        <time>2025-02-25T11:41:09Z</time>
      </trkpt>
      <trkpt lat="48.11162" lon="-3.58778">
        <ele>209.8</ele>
        <time>2025-02-25T11:41:10Z</time>
      </trkpt>
      <trkpt lat="48.11162" lon="-3.58778">
        <ele>209.8</ele>
        <time>2025-02-25T11:41:11Z</time>
      </trkpt>
      <trkpt lat="48.11163" lon="-3.58778">
        <ele>209.9</ele>
        <time>2025-02-25T11:41:12Z</time>
      </trkpt>
      <trkpt lat="48.11163" lon="-3.58776">
        <ele>210</ele>
        <time>2025-02-25T11:41:13Z</time>
      </trkpt>
      <trkpt lat="48.11163" lon="-3.58775">
        <ele>210.1</ele>
        <time>2025-02-25T11:41:14Z</time>
      </trkpt>
      <trkpt lat="48.11163" lon="-3.58774">
        <ele>210.1</ele>
        <time>2025-02-25T11:41:15Z</time>
      </trkpt>
      <trkpt lat="48.11163" lon="-3.58773">
        <ele>210.2</ele>
        <time>2025-02-25T11:41:16Z</time>
      </trkpt>
      <trkpt lat="48.11163" lon="-3.58772">
        <ele>210.3</ele>
        <time>2025-02-25T11:41:17Z</time>
      </trkpt>
      <trkpt lat="48.11163" lon="-3.5877">
        <ele>210.4</ele>
        <time>2025-02-25T11:41:18Z</time>
      </trkpt>
      <trkpt lat="48.11163" lon="-3.58769">
        <ele>210.5</ele>
        <time>2025-02-25T11:41:19Z</time>
      </trkpt>
      <trkpt lat="48.11164" lon="-3.58768">
        <ele>210.6</ele>
        <time>2025-02-25T11:41:20Z</time>
      </trkpt>
      <trkpt lat="48.11164" lon="-3.58767">
        <ele>210.6</ele>
        <time>2025-02-25T11:41:21Z</time>
      </trkpt>
      <trkpt lat="48.11164" lon="-3.58766">
        <ele>210.7</ele>
        <time>2025-02-25T11:41:22Z</time>
      </trkpt>
      <trkpt lat="48.11165" lon="-3.58764">
        <ele>210.9</ele>
        <time>2025-02-25T11:41:23Z</time>
      </trkpt>
      <trkpt lat="48.11165" lon="-3.58762">
        <ele>211</ele>
        <time>2025-02-25T11:41:24Z</time>
      </trkpt>
      <trkpt lat="48.11165" lon="-3.5876">
        <ele>211.2</ele>
        <time>2025-02-25T11:41:25Z</time>
      </trkpt>
      <trkpt lat="48.11165" lon="-3.58758">
        <ele>211.3</ele>
        <time>2025-02-25T11:41:26Z</time>
      </trkpt>
      <trkpt lat="48.11166" lon="-3.58756">
        <ele>211.5</ele>
        <time>2025-02-25T11:41:27Z</time>
      </trkpt>
      <trkpt lat="48.11166" lon="-3.58754">
        <ele>211.7</ele>
        <time>2025-02-25T11:41:28Z</time>
      </trkpt>
      <trkpt lat="48.11166" lon="-3.58752">
        <ele>211.8</ele>
        <time>2025-02-25T11:41:29Z</time>
      </trkpt>
      <trkpt lat="48.11167" lon="-3.58751">
        <ele>211.9</ele>
        <time>2025-02-25T11:41:30Z</time>
      </trkpt>
      <trkpt lat="48.11168" lon="-3.5875">
        <ele>212</ele>
        <time>2025-02-25T11:41:31Z</time>
      </trkpt>
      <trkpt lat="48.11168" lon="-3.58748">
        <ele>212</ele>
        <time>2025-02-25T11:41:32Z</time>
      </trkpt>
      <trkpt lat="48.11169" lon="-3.58747">
        <ele>212</ele>
        <time>2025-02-25T11:41:33Z</time>
      </trkpt>
      <trkpt lat="48.11169" lon="-3.58746">
        <ele>212.1</ele>
        <time>2025-02-25T11:41:34Z</time>
      </trkpt>
      <trkpt lat="48.11169" lon="-3.58745">
        <ele>212.1</ele>
        <time>2025-02-25T11:41:35Z</time>
      </trkpt>
      <trkpt lat="48.1117" lon="-3.58743">
        <ele>212.1</ele>
        <time>2025-02-25T11:41:36Z</time>
      </trkpt>
      <trkpt lat="48.1117" lon="-3.58742">
        <ele>212.2</ele>
        <time>2025-02-25T11:41:37Z</time>
      </trkpt>
      <trkpt lat="48.11171" lon="-3.58741">
        <ele>212.2</ele>
        <time>2025-02-25T11:41:38Z</time>
      </trkpt>
      <trkpt lat="48.11171" lon="-3.5874">
        <ele>212.2</ele>
        <time>2025-02-25T11:41:39Z</time>
      </trkpt>
      <trkpt lat="48.11172" lon="-3.58739">
        <ele>212.2</ele>
        <time>2025-02-25T11:41:40Z</time>
      </trkpt>
      <trkpt lat="48.11172" lon="-3.58737">
        <ele>212.3</ele>
        <time>2025-02-25T11:41:41Z</time>
      </trkpt>
      <trkpt lat="48.11172" lon="-3.58736">
        <ele>212.3</ele>
        <time>2025-02-25T11:41:42Z</time>
      </trkpt>
      <trkpt lat="48.11173" lon="-3.58734">
        <ele>212.3</ele>
        <time>2025-02-25T11:41:43Z</time>
      </trkpt>
      <trkpt lat="48.11174" lon="-3.58733">
        <ele>212.3</ele>
        <time>2025-02-25T11:41:44Z</time>
      </trkpt>
      <trkpt lat="48.11174" lon="-3.58731">
        <ele>212.4</ele>
        <time>2025-02-25T11:41:45Z</time>
      </trkpt>
      <trkpt lat="48.11175" lon="-3.5873">
        <ele>212.4</ele>
        <time>2025-02-25T11:41:46Z</time>
      </trkpt>
      <trkpt lat="48.11176" lon="-3.58728">
        <ele>212.5</ele>
        <time>2025-02-25T11:41:47Z</time>
      </trkpt>
      <trkpt lat="48.11176" lon="-3.58726">
        <ele>212.5</ele>
        <time>2025-02-25T11:41:48Z</time>
      </trkpt>
      <trkpt lat="48.11177" lon="-3.58725">
        <ele>212.5</ele>
        <time>2025-02-25T11:41:49Z</time>
      </trkpt>
      <trkpt lat="48.11177" lon="-3.58724">
        <ele>212.6</ele>
        <time>2025-02-25T11:41:50Z</time>
      </trkpt>
      <trkpt lat="48.11177" lon="-3.58722">
        <ele>212.6</ele>
        <time>2025-02-25T11:41:51Z</time>
      </trkpt>
      <trkpt lat="48.11178" lon="-3.58721">
        <ele>212.6</ele>
        <time>2025-02-25T11:41:52Z</time>
      </trkpt>
      <trkpt lat="48.11179" lon="-3.5872">
        <ele>212.6</ele>
        <time>2025-02-25T11:41:53Z</time>
      </trkpt>
      <trkpt lat="48.11179" lon="-3.58718">
        <ele>212.6</ele>
        <time>2025-02-25T11:41:54Z</time>
      </trkpt>
      <trkpt lat="48.11179" lon="-3.58717">
        <ele>212.6</ele>
        <time>2025-02-25T11:41:55Z</time>
      </trkpt>
      <trkpt lat="48.11179" lon="-3.58715">
        <ele>212.7</ele>
        <time>2025-02-25T11:41:56Z</time>
      </trkpt>
      <trkpt lat="48.1118" lon="-3.58713">
        <ele>212.7</ele>
        <time>2025-02-25T11:41:57Z</time>
      </trkpt>
      <trkpt lat="48.1118" lon="-3.58712">
        <ele>212.7</ele>
        <time>2025-02-25T11:41:58Z</time>
      </trkpt>
      <trkpt lat="48.11181" lon="-3.5871">
        <ele>212.7</ele>
        <time>2025-02-25T11:41:59Z</time>
      </trkpt>
      <trkpt lat="48.11181" lon="-3.58708">
        <ele>212.7</ele>
        <time>2025-02-25T11:42:00Z</time>
      </trkpt>
      <trkpt lat="48.11181" lon="-3.58706">
        <ele>212.8</ele>
        <time>2025-02-25T11:42:01Z</time>
      </trkpt>
      <trkpt lat="48.11181" lon="-3.58705">
        <ele>212.8</ele>
        <time>2025-02-25T11:42:02Z</time>
      </trkpt>
      <trkpt lat="48.11182" lon="-3.58703">
        <ele>212.8</ele>
        <time>2025-02-25T11:42:03Z</time>
      </trkpt>
      <trkpt lat="48.11182" lon="-3.58701">
        <ele>212.9</ele>
        <time>2025-02-25T11:42:04Z</time>
      </trkpt>
      <trkpt lat="48.11182" lon="-3.587">
        <ele>212.9</ele>
        <time>2025-02-25T11:42:05Z</time>
      </trkpt>
      <trkpt lat="48.11183" lon="-3.58698">
        <ele>212.9</ele>
        <time>2025-02-25T11:42:06Z</time>
      </trkpt>
      <trkpt lat="48.11183" lon="-3.58697">
        <ele>212.9</ele>
        <time>2025-02-25T11:42:07Z</time>
      </trkpt>
      <trkpt lat="48.11183" lon="-3.58695">
        <ele>213</ele>
        <time>2025-02-25T11:42:08Z</time>
      </trkpt>
      <trkpt lat="48.11184" lon="-3.58694">
        <ele>213</ele>
        <time>2025-02-25T11:42:09Z</time>
      </trkpt>
      <trkpt lat="48.11184" lon="-3.58692">
        <ele>213.1</ele>
        <time>2025-02-25T11:42:10Z</time>
      </trkpt>
      <trkpt lat="48.11184" lon="-3.5869">
        <ele>213.2</ele>
        <time>2025-02-25T11:42:11Z</time>
      </trkpt>
      <trkpt lat="48.11185" lon="-3.58689">
        <ele>213.2</ele>
        <time>2025-02-25T11:42:12Z</time>
      </trkpt>
      <trkpt lat="48.11185" lon="-3.58687">
        <ele>213.3</ele>
        <time>2025-02-25T11:42:13Z</time>
      </trkpt>
      <trkpt lat="48.11185" lon="-3.58685">
        <ele>213.3</ele>
        <time>2025-02-25T11:42:14Z</time>
      </trkpt>
      <trkpt lat="48.11185" lon="-3.58683">
        <ele>213.4</ele>
        <time>2025-02-25T11:42:15Z</time>
      </trkpt>
      <trkpt lat="48.11186" lon="-3.58681">
        <ele>213.5</ele>
        <time>2025-02-25T11:42:16Z</time>
      </trkpt>
      <trkpt lat="48.11186" lon="-3.58679">
        <ele>213.6</ele>
        <time>2025-02-25T11:42:17Z</time>
      </trkpt>
      <trkpt lat="48.11186" lon="-3.58677">
        <ele>213.6</ele>
        <time>2025-02-25T11:42:18Z</time>
      </trkpt>
      <trkpt lat="48.11187" lon="-3.58675">
        <ele>213.7</ele>
        <time>2025-02-25T11:42:19Z</time>
      </trkpt>
      <trkpt lat="48.11187" lon="-3.58673">
        <ele>213.8</ele>
        <time>2025-02-25T11:42:20Z</time>
      </trkpt>
      <trkpt lat="48.11187" lon="-3.58672">
        <ele>213.8</ele>
        <time>2025-02-25T11:42:21Z</time>
      </trkpt>
      <trkpt lat="48.11187" lon="-3.5867">
        <ele>213.9</ele>
        <time>2025-02-25T11:42:22Z</time>
      </trkpt>
      <trkpt lat="48.11188" lon="-3.58669">
        <ele>213.9</ele>
        <time>2025-02-25T11:42:23Z</time>
      </trkpt>
      <trkpt lat="48.11189" lon="-3.58667">
        <ele>214</ele>
        <time>2025-02-25T11:42:24Z</time>
      </trkpt>
      <trkpt lat="48.11189" lon="-3.58666">
        <ele>214</ele>
        <time>2025-02-25T11:42:25Z</time>
      </trkpt>
      <trkpt lat="48.1119" lon="-3.58664">
        <ele>214</ele>
        <time>2025-02-25T11:42:26Z</time>
      </trkpt>
      <trkpt lat="48.11191" lon="-3.58663">
        <ele>214</ele>
        <time>2025-02-25T11:42:27Z</time>
      </trkpt>
      <trkpt lat="48.11191" lon="-3.58661">
        <ele>214</ele>
        <time>2025-02-25T11:42:28Z</time>
      </trkpt>
      <trkpt lat="48.11191" lon="-3.58659">
        <ele>214</ele>
        <time>2025-02-25T11:42:29Z</time>
      </trkpt>
      <trkpt lat="48.11191" lon="-3.58657">
        <ele>214</ele>
        <time>2025-02-25T11:42:30Z</time>
      </trkpt>
      <trkpt lat="48.11192" lon="-3.58656">
        <ele>214</ele>
        <time>2025-02-25T11:42:31Z</time>
      </trkpt>
      <trkpt lat="48.11193" lon="-3.58655">
        <ele>214</ele>
        <time>2025-02-25T11:42:32Z</time>
      </trkpt>
      <trkpt lat="48.11193" lon="-3.58653">
        <ele>214</ele>
        <time>2025-02-25T11:42:33Z</time>
      </trkpt>
      <trkpt lat="48.11194" lon="-3.58651">
        <ele>214</ele>
        <time>2025-02-25T11:42:34Z</time>
      </trkpt>
      <trkpt lat="48.11194" lon="-3.58648">
        <ele>214</ele>
        <time>2025-02-25T11:42:35Z</time>
      </trkpt>
      <trkpt lat="48.11194" lon="-3.58646">
        <ele>214</ele>
        <time>2025-02-25T11:42:36Z</time>
      </trkpt>
      <trkpt lat="48.11194" lon="-3.58644">
        <ele>214</ele>
        <time>2025-02-25T11:42:37Z</time>
      </trkpt>
      <trkpt lat="48.11195" lon="-3.58643">
        <ele>214</ele>
        <time>2025-02-25T11:42:38Z</time>
      </trkpt>
      <trkpt lat="48.11195" lon="-3.58641">
        <ele>214</ele>
        <time>2025-02-25T11:42:39Z</time>
      </trkpt>
      <trkpt lat="48.11196" lon="-3.5864">
        <ele>213.9</ele>
        <time>2025-02-25T11:42:40Z</time>
      </trkpt>
      <trkpt lat="48.11196" lon="-3.58638">
        <ele>213.9</ele>
        <time>2025-02-25T11:42:41Z</time>
      </trkpt>
      <trkpt lat="48.11196" lon="-3.58637">
        <ele>213.9</ele>
        <time>2025-02-25T11:42:42Z</time>
      </trkpt>
      <trkpt lat="48.11197" lon="-3.58635">
        <ele>213.9</ele>
        <time>2025-02-25T11:42:43Z</time>
      </trkpt>
      <trkpt lat="48.11198" lon="-3.58634">
        <ele>213.9</ele>
        <time>2025-02-25T11:42:44Z</time>
      </trkpt>
      <trkpt lat="48.11198" lon="-3.58632">
        <ele>213.9</ele>
        <time>2025-02-25T11:42:45Z</time>
      </trkpt>
      <trkpt lat="48.11199" lon="-3.58631">
        <ele>213.8</ele>
        <time>2025-02-25T11:42:46Z</time>
      </trkpt>
      <trkpt lat="48.11199" lon="-3.5863">
        <ele>213.8</ele>
        <time>2025-02-25T11:42:47Z</time>
      </trkpt>
      <trkpt lat="48.112" lon="-3.58628">
        <ele>213.8</ele>
        <time>2025-02-25T11:42:48Z</time>
      </trkpt>
      <trkpt lat="48.11201" lon="-3.58627">
        <ele>213.8</ele>
        <time>2025-02-25T11:42:49Z</time>
      </trkpt>
      <trkpt lat="48.11201" lon="-3.58626">
        <ele>213.8</ele>
        <time>2025-02-25T11:42:50Z</time>
      </trkpt>
      <trkpt lat="48.11202" lon="-3.58625">
        <ele>213.7</ele>
        <time>2025-02-25T11:42:51Z</time>
      </trkpt>
      <trkpt lat="48.11203" lon="-3.58623">
        <ele>213.7</ele>
        <time>2025-02-25T11:42:52Z</time>
      </trkpt>
      <trkpt lat="48.11203" lon="-3.58622">
        <ele>213.7</ele>
        <time>2025-02-25T11:42:53Z</time>
      </trkpt>
      <trkpt lat="48.11204" lon="-3.5862">
        <ele>213.7</ele>
        <time>2025-02-25T11:42:54Z</time>
      </trkpt>
      <trkpt lat="48.11204" lon="-3.58618">
        <ele>213.7</ele>
        <time>2025-02-25T11:42:55Z</time>
      </trkpt>
      <trkpt lat="48.11205" lon="-3.58616">
        <ele>213.6</ele>
        <time>2025-02-25T11:42:56Z</time>
      </trkpt>
      <trkpt lat="48.11206" lon="-3.58615">
        <ele>213.6</ele>
        <time>2025-02-25T11:42:57Z</time>
      </trkpt>
      <trkpt lat="48.11207" lon="-3.58614">
        <ele>213.5</ele>
        <time>2025-02-25T11:42:58Z</time>
      </trkpt>
      <trkpt lat="48.11207" lon="-3.58613">
        <ele>213.5</ele>
        <time>2025-02-25T11:42:59Z</time>
      </trkpt>
      <trkpt lat="48.11208" lon="-3.58612">
        <ele>213.5</ele>
        <time>2025-02-25T11:43:00Z</time>
      </trkpt>
      <trkpt lat="48.11208" lon="-3.5861">
        <ele>213.5</ele>
        <time>2025-02-25T11:43:01Z</time>
      </trkpt>
      <trkpt lat="48.1121" lon="-3.58609">
        <ele>213.5</ele>
        <time>2025-02-25T11:43:02Z</time>
      </trkpt>
      <trkpt lat="48.11211" lon="-3.58608">
        <ele>213.5</ele>
        <time>2025-02-25T11:43:03Z</time>
      </trkpt>
      <trkpt lat="48.11211" lon="-3.58607">
        <ele>213.5</ele>
        <time>2025-02-25T11:43:04Z</time>
      </trkpt>
      <trkpt lat="48.11212" lon="-3.58606">
        <ele>213.5</ele>
        <time>2025-02-25T11:43:05Z</time>
      </trkpt>
      <trkpt lat="48.11213" lon="-3.58605">
        <ele>213.5</ele>
        <time>2025-02-25T11:43:06Z</time>
      </trkpt>
      <trkpt lat="48.11215" lon="-3.58605">
        <ele>213.4</ele>
        <time>2025-02-25T11:43:07Z</time>
      </trkpt>
      <trkpt lat="48.11215" lon="-3.58604">
        <ele>213.4</ele>
        <time>2025-02-25T11:43:08Z</time>
      </trkpt>
      <trkpt lat="48.11216" lon="-3.58602">
        <ele>213.5</ele>
        <time>2025-02-25T11:43:09Z</time>
      </trkpt>
      <trkpt lat="48.11217" lon="-3.58602">
        <ele>213.5</ele>
        <time>2025-02-25T11:43:10Z</time>
      </trkpt>
      <trkpt lat="48.11218" lon="-3.58601">
        <ele>213.5</ele>
        <time>2025-02-25T11:43:11Z</time>
      </trkpt>
      <trkpt lat="48.11219" lon="-3.586">
        <ele>213.5</ele>
        <time>2025-02-25T11:43:12Z</time>
      </trkpt>
      <trkpt lat="48.1122" lon="-3.58599">
        <ele>213.5</ele>
        <time>2025-02-25T11:43:13Z</time>
      </trkpt>
      <trkpt lat="48.11222" lon="-3.58599">
        <ele>213.4</ele>
        <time>2025-02-25T11:43:14Z</time>
      </trkpt>
      <trkpt lat="48.11223" lon="-3.58598">
        <ele>213.4</ele>
        <time>2025-02-25T11:43:15Z</time>
      </trkpt>
      <trkpt lat="48.11224" lon="-3.58598">
        <ele>213.3</ele>
        <time>2025-02-25T11:43:16Z</time>
      </trkpt>
      <trkpt lat="48.11225" lon="-3.58597">
        <ele>213.2</ele>
        <time>2025-02-25T11:43:17Z</time>
      </trkpt>
      <trkpt lat="48.11226" lon="-3.58596">
        <ele>213.1</ele>
        <time>2025-02-25T11:43:18Z</time>
      </trkpt>
      <trkpt lat="48.11227" lon="-3.58595">
        <ele>213.1</ele>
        <time>2025-02-25T11:43:19Z</time>
      </trkpt>
      <trkpt lat="48.11227" lon="-3.58594">
        <ele>213.1</ele>
        <time>2025-02-25T11:43:20Z</time>
      </trkpt>
      <trkpt lat="48.11228" lon="-3.58593">
        <ele>213</ele>
        <time>2025-02-25T11:43:21Z</time>
      </trkpt>
      <trkpt lat="48.11229" lon="-3.58591">
        <ele>213</ele>
        <time>2025-02-25T11:43:22Z</time>
      </trkpt>
      <trkpt lat="48.1123" lon="-3.58591">
        <ele>212.9</ele>
        <time>2025-02-25T11:43:23Z</time>
      </trkpt>
      <trkpt lat="48.11232" lon="-3.58591">
        <ele>212.7</ele>
        <time>2025-02-25T11:43:24Z</time>
      </trkpt>
      <trkpt lat="48.11233" lon="-3.5859">
        <ele>212.6</ele>
        <time>2025-02-25T11:43:25Z</time>
      </trkpt>
      <trkpt lat="48.11234" lon="-3.58589">
        <ele>212.5</ele>
        <time>2025-02-25T11:43:26Z</time>
      </trkpt>
      <trkpt lat="48.11235" lon="-3.58588">
        <ele>212.5</ele>
        <time>2025-02-25T11:43:27Z</time>
      </trkpt>
      <trkpt lat="48.11236" lon="-3.58587">
        <ele>212.4</ele>
        <time>2025-02-25T11:43:28Z</time>
      </trkpt>
      <trkpt lat="48.11237" lon="-3.58586">
        <ele>212.3</ele>
        <time>2025-02-25T11:43:29Z</time>
      </trkpt>
      <trkpt lat="48.11238" lon="-3.58585">
        <ele>212.2</ele>
        <time>2025-02-25T11:43:30Z</time>
      </trkpt>
      <trkpt lat="48.11239" lon="-3.58583">
        <ele>212.2</ele>
        <time>2025-02-25T11:43:31Z</time>
      </trkpt>
      <trkpt lat="48.11239" lon="-3.58582">
        <ele>212.2</ele>
        <time>2025-02-25T11:43:32Z</time>
      </trkpt>
      <trkpt lat="48.1124" lon="-3.5858">
        <ele>212.2</ele>
        <time>2025-02-25T11:43:33Z</time>
      </trkpt>
      <trkpt lat="48.11241" lon="-3.5858">
        <ele>212.1</ele>
        <time>2025-02-25T11:43:34Z</time>
      </trkpt>
      <trkpt lat="48.11242" lon="-3.58579">
        <ele>212.1</ele>
        <time>2025-02-25T11:43:35Z</time>
      </trkpt>
      <trkpt lat="48.11242" lon="-3.58577">
        <ele>212.2</ele>
        <time>2025-02-25T11:43:36Z</time>
      </trkpt>
      <trkpt lat="48.11242" lon="-3.58575">
        <ele>212.3</ele>
        <time>2025-02-25T11:43:37Z</time>
      </trkpt>
      <trkpt lat="48.11242" lon="-3.58573">
        <ele>212.4</ele>
        <time>2025-02-25T11:43:38Z</time>
      </trkpt>
      <trkpt lat="48.11242" lon="-3.58571">
        <ele>212.5</ele>
        <time>2025-02-25T11:43:39Z</time>
      </trkpt>
      <trkpt lat="48.11242" lon="-3.5857">
        <ele>212.5</ele>
        <time>2025-02-25T11:43:40Z</time>
      </trkpt>
      <trkpt lat="48.11242" lon="-3.58568">
        <ele>212.7</ele>
        <time>2025-02-25T11:43:41Z</time>
      </trkpt>
      <trkpt lat="48.11243" lon="-3.58567">
        <ele>212.6</ele>
        <time>2025-02-25T11:43:42Z</time>
      </trkpt>
      <trkpt lat="48.11243" lon="-3.58565">
        <ele>212.7</ele>
        <time>2025-02-25T11:43:43Z</time>
      </trkpt>
      <trkpt lat="48.11243" lon="-3.58563">
        <ele>212.9</ele>
        <time>2025-02-25T11:43:44Z</time>
      </trkpt>
      <trkpt lat="48.11243" lon="-3.58562">
        <ele>212.9</ele>
        <time>2025-02-25T11:43:45Z</time>
      </trkpt>
      <trkpt lat="48.11244" lon="-3.5856">
        <ele>213</ele>
        <time>2025-02-25T11:43:46Z</time>
      </trkpt>
      <trkpt lat="48.11244" lon="-3.58558">
        <ele>213.1</ele>
        <time>2025-02-25T11:43:47Z</time>
      </trkpt>
      <trkpt lat="48.11244" lon="-3.58557">
        <ele>213.1</ele>
        <time>2025-02-25T11:43:48Z</time>
      </trkpt>
      <trkpt lat="48.11245" lon="-3.58556">
        <ele>213.2</ele>
        <time>2025-02-25T11:43:49Z</time>
      </trkpt>
      <trkpt lat="48.11245" lon="-3.58555">
        <ele>213.2</ele>
        <time>2025-02-25T11:43:50Z</time>
      </trkpt>
      <trkpt lat="48.11245" lon="-3.58553">
        <ele>213.3</ele>
        <time>2025-02-25T11:43:51Z</time>
      </trkpt>
      <trkpt lat="48.11246" lon="-3.58552">
        <ele>213.3</ele>
        <time>2025-02-25T11:43:52Z</time>
      </trkpt>
      <trkpt lat="48.11247" lon="-3.5855">
        <ele>213.3</ele>
        <time>2025-02-25T11:43:53Z</time>
      </trkpt>
      <trkpt lat="48.11247" lon="-3.58549">
        <ele>213.3</ele>
        <time>2025-02-25T11:43:54Z</time>
      </trkpt>
      <trkpt lat="48.11247" lon="-3.58547">
        <ele>213.4</ele>
        <time>2025-02-25T11:43:55Z</time>
      </trkpt>
      <trkpt lat="48.11248" lon="-3.58546">
        <ele>213.4</ele>
        <time>2025-02-25T11:43:56Z</time>
      </trkpt>
      <trkpt lat="48.11248" lon="-3.58544">
        <ele>213.5</ele>
        <time>2025-02-25T11:43:57Z</time>
      </trkpt>
      <trkpt lat="48.11248" lon="-3.58543">
        <ele>213.5</ele>
        <time>2025-02-25T11:43:58Z</time>
      </trkpt>
      <trkpt lat="48.11249" lon="-3.58541">
        <ele>213.5</ele>
        <time>2025-02-25T11:43:59Z</time>
      </trkpt>
      <trkpt lat="48.11249" lon="-3.5854">
        <ele>213.6</ele>
        <time>2025-02-25T11:44:00Z</time>
      </trkpt>
      <trkpt lat="48.11249" lon="-3.58538">
        <ele>213.6</ele>
        <time>2025-02-25T11:44:01Z</time>
      </trkpt>
      <trkpt lat="48.11249" lon="-3.58537">
        <ele>213.7</ele>
        <time>2025-02-25T11:44:02Z</time>
      </trkpt>
      <trkpt lat="48.1125" lon="-3.58535">
        <ele>213.7</ele>
        <time>2025-02-25T11:44:03Z</time>
      </trkpt>
      <trkpt lat="48.1125" lon="-3.58534">
        <ele>213.8</ele>
        <time>2025-02-25T11:44:04Z</time>
      </trkpt>
      <trkpt lat="48.1125" lon="-3.58533">
        <ele>213.8</ele>
        <time>2025-02-25T11:44:05Z</time>
      </trkpt>
      <trkpt lat="48.11251" lon="-3.58531">
        <ele>213.7</ele>
        <time>2025-02-25T11:44:06Z</time>
      </trkpt>
      <trkpt lat="48.11251" lon="-3.58529">
        <ele>213.8</ele>
        <time>2025-02-25T11:44:07Z</time>
      </trkpt>
      <trkpt lat="48.11251" lon="-3.58528">
        <ele>213.8</ele>
        <time>2025-02-25T11:44:08Z</time>
      </trkpt>
      <trkpt lat="48.11252" lon="-3.58527">
        <ele>213.7</ele>
        <time>2025-02-25T11:44:09Z</time>
      </trkpt>
      <trkpt lat="48.11252" lon="-3.58525">
        <ele>213.8</ele>
        <time>2025-02-25T11:44:10Z</time>
      </trkpt>
      <trkpt lat="48.11252" lon="-3.58523">
        <ele>213.9</ele>
        <time>2025-02-25T11:44:11Z</time>
      </trkpt>
      <trkpt lat="48.11252" lon="-3.58521">
        <ele>214</ele>
        <time>2025-02-25T11:44:12Z</time>
      </trkpt>
      <trkpt lat="48.11252" lon="-3.5852">
        <ele>214</ele>
        <time>2025-02-25T11:44:13Z</time>
      </trkpt>
      <trkpt lat="48.11253" lon="-3.58519">
        <ele>214</ele>
        <time>2025-02-25T11:44:14Z</time>
      </trkpt>
      <trkpt lat="48.11254" lon="-3.58518">
        <ele>213.9</ele>
        <time>2025-02-25T11:44:15Z</time>
      </trkpt>
      <trkpt lat="48.11254" lon="-3.58517">
        <ele>213.9</ele>
        <time>2025-02-25T11:44:16Z</time>
      </trkpt>
      <trkpt lat="48.11254" lon="-3.58515">
        <ele>214</ele>
        <time>2025-02-25T11:44:17Z</time>
      </trkpt>
      <trkpt lat="48.11255" lon="-3.58513">
        <ele>214</ele>
        <time>2025-02-25T11:44:18Z</time>
      </trkpt>
      <trkpt lat="48.11255" lon="-3.58512">
        <ele>214.1</ele>
        <time>2025-02-25T11:44:19Z</time>
      </trkpt>
      <trkpt lat="48.11256" lon="-3.5851">
        <ele>214.1</ele>
        <time>2025-02-25T11:44:20Z</time>
      </trkpt>
      <trkpt lat="48.11255" lon="-3.58508">
        <ele>214.2</ele>
        <time>2025-02-25T11:44:21Z</time>
      </trkpt>
      <trkpt lat="48.11256" lon="-3.58507">
        <ele>214.2</ele>
        <time>2025-02-25T11:44:22Z</time>
      </trkpt>
      <trkpt lat="48.11256" lon="-3.58505">
        <ele>214.3</ele>
        <time>2025-02-25T11:44:23Z</time>
      </trkpt>
      <trkpt lat="48.11257" lon="-3.58504">
        <ele>214.3</ele>
        <time>2025-02-25T11:44:24Z</time>
      </trkpt>
      <trkpt lat="48.11258" lon="-3.58502">
        <ele>214.3</ele>
        <time>2025-02-25T11:44:25Z</time>
      </trkpt>
      <trkpt lat="48.11259" lon="-3.58501">
        <ele>214.3</ele>
        <time>2025-02-25T11:44:26Z</time>
      </trkpt>
      <trkpt lat="48.1126" lon="-3.585">
        <ele>214.3</ele>
        <time>2025-02-25T11:44:27Z</time>
      </trkpt>
      <trkpt lat="48.11261" lon="-3.585">
        <ele>214.2</ele>
        <time>2025-02-25T11:44:28Z</time>
      </trkpt>
      <trkpt lat="48.11262" lon="-3.58498">
        <ele>214.2</ele>
        <time>2025-02-25T11:44:29Z</time>
      </trkpt>
      <trkpt lat="48.11263" lon="-3.58497">
        <ele>214.1</ele>
        <time>2025-02-25T11:44:30Z</time>
      </trkpt>
      <trkpt lat="48.11264" lon="-3.58495">
        <ele>214.1</ele>
        <time>2025-02-25T11:44:31Z</time>
      </trkpt>
      <trkpt lat="48.11264" lon="-3.58493">
        <ele>214.1</ele>
        <time>2025-02-25T11:44:32Z</time>
      </trkpt>
      <trkpt lat="48.11264" lon="-3.58492">
        <ele>214.1</ele>
        <time>2025-02-25T11:44:33Z</time>
      </trkpt>
      <trkpt lat="48.11265" lon="-3.5849">
        <ele>214.1</ele>
        <time>2025-02-25T11:44:34Z</time>
      </trkpt>
      <trkpt lat="48.11265" lon="-3.58489">
        <ele>214.1</ele>
        <time>2025-02-25T11:44:35Z</time>
      </trkpt>
      <trkpt lat="48.11266" lon="-3.58487">
        <ele>214.1</ele>
        <time>2025-02-25T11:44:36Z</time>
      </trkpt>
      <trkpt lat="48.11266" lon="-3.58486">
        <ele>214.1</ele>
        <time>2025-02-25T11:44:37Z</time>
      </trkpt>
      <trkpt lat="48.11266" lon="-3.58484">
        <ele>214.2</ele>
        <time>2025-02-25T11:44:38Z</time>
      </trkpt>
      <trkpt lat="48.11267" lon="-3.58482">
        <ele>214.2</ele>
        <time>2025-02-25T11:44:39Z</time>
      </trkpt>
      <trkpt lat="48.11267" lon="-3.58481">
        <ele>214.2</ele>
        <time>2025-02-25T11:44:40Z</time>
      </trkpt>
      <trkpt lat="48.11267" lon="-3.58479">
        <ele>214.2</ele>
        <time>2025-02-25T11:44:41Z</time>
      </trkpt>
      <trkpt lat="48.11267" lon="-3.58477">
        <ele>214.3</ele>
        <time>2025-02-25T11:44:42Z</time>
      </trkpt>
      <trkpt lat="48.11267" lon="-3.58476">
        <ele>214.3</ele>
        <time>2025-02-25T11:44:43Z</time>
      </trkpt>
      <trkpt lat="48.11267" lon="-3.58474">
        <ele>214.3</ele>
        <time>2025-02-25T11:44:44Z</time>
      </trkpt>
      <trkpt lat="48.11268" lon="-3.58473">
        <ele>214.3</ele>
        <time>2025-02-25T11:44:45Z</time>
      </trkpt>
      <trkpt lat="48.11269" lon="-3.58472">
        <ele>214.3</ele>
        <time>2025-02-25T11:44:46Z</time>
      </trkpt>
      <trkpt lat="48.11269" lon="-3.58471">
        <ele>214.4</ele>
        <time>2025-02-25T11:44:47Z</time>
      </trkpt>
      <trkpt lat="48.1127" lon="-3.5847">
        <ele>214.4</ele>
        <time>2025-02-25T11:44:48Z</time>
      </trkpt>
      <trkpt lat="48.11271" lon="-3.58468">
        <ele>214.4</ele>
        <time>2025-02-25T11:44:49Z</time>
      </trkpt>
      <trkpt lat="48.11271" lon="-3.58466">
        <ele>214.5</ele>
        <time>2025-02-25T11:44:50Z</time>
      </trkpt>
      <trkpt lat="48.11272" lon="-3.58464">
        <ele>214.5</ele>
        <time>2025-02-25T11:44:51Z</time>
      </trkpt>
      <trkpt lat="48.11272" lon="-3.58463">
        <ele>214.5</ele>
        <time>2025-02-25T11:44:52Z</time>
      </trkpt>
      <trkpt lat="48.11272" lon="-3.58461">
        <ele>214.6</ele>
        <time>2025-02-25T11:44:53Z</time>
      </trkpt>
      <trkpt lat="48.11272" lon="-3.58459">
        <ele>214.7</ele>
        <time>2025-02-25T11:44:54Z</time>
      </trkpt>
      <trkpt lat="48.11273" lon="-3.58458">
        <ele>214.7</ele>
        <time>2025-02-25T11:44:55Z</time>
      </trkpt>
      <trkpt lat="48.11274" lon="-3.58457">
        <ele>214.7</ele>
        <time>2025-02-25T11:44:56Z</time>
      </trkpt>
      <trkpt lat="48.11274" lon="-3.58456">
        <ele>214.7</ele>
        <time>2025-02-25T11:44:57Z</time>
      </trkpt>
      <trkpt lat="48.11275" lon="-3.58455">
        <ele>214.7</ele>
        <time>2025-02-25T11:44:58Z</time>
      </trkpt>
      <trkpt lat="48.11276" lon="-3.58454">
        <ele>214.7</ele>
        <time>2025-02-25T11:44:59Z</time>
      </trkpt>
      <trkpt lat="48.11277" lon="-3.58452">
        <ele>214.8</ele>
        <time>2025-02-25T11:45:00Z</time>
      </trkpt>
      <trkpt lat="48.11277" lon="-3.5845">
        <ele>214.8</ele>
        <time>2025-02-25T11:45:01Z</time>
      </trkpt>
      <trkpt lat="48.11277" lon="-3.58449">
        <ele>214.9</ele>
        <time>2025-02-25T11:45:02Z</time>
      </trkpt>
      <trkpt lat="48.11278" lon="-3.58448">
        <ele>214.9</ele>
        <time>2025-02-25T11:45:03Z</time>
      </trkpt>
      <trkpt lat="48.11278" lon="-3.58447">
        <ele>214.9</ele>
        <time>2025-02-25T11:45:04Z</time>
      </trkpt>
      <trkpt lat="48.11279" lon="-3.58445">
        <ele>214.9</ele>
        <time>2025-02-25T11:45:05Z</time>
      </trkpt>
      <trkpt lat="48.11279" lon="-3.58443">
        <ele>215</ele>
        <time>2025-02-25T11:45:06Z</time>
      </trkpt>
      <trkpt lat="48.11279" lon="-3.58442">
        <ele>215.1</ele>
        <time>2025-02-25T11:45:07Z</time>
      </trkpt>
      <trkpt lat="48.1128" lon="-3.5844">
        <ele>215.2</ele>
        <time>2025-02-25T11:45:08Z</time>
      </trkpt>
      <trkpt lat="48.1128" lon="-3.58439">
        <ele>215.2</ele>
        <time>2025-02-25T11:45:09Z</time>
      </trkpt>
      <trkpt lat="48.11281" lon="-3.58437">
        <ele>215.3</ele>
        <time>2025-02-25T11:45:10Z</time>
      </trkpt>
      <trkpt lat="48.11281" lon="-3.58435">
        <ele>215.4</ele>
        <time>2025-02-25T11:45:11Z</time>
      </trkpt>
      <trkpt lat="48.11281" lon="-3.58433">
        <ele>215.6</ele>
        <time>2025-02-25T11:45:12Z</time>
      </trkpt>
      <trkpt lat="48.1128" lon="-3.58432">
        <ele>215.7</ele>
        <time>2025-02-25T11:45:13Z</time>
      </trkpt>
      <trkpt lat="48.11281" lon="-3.5843">
        <ele>215.8</ele>
        <time>2025-02-25T11:45:14Z</time>
      </trkpt>
      <trkpt lat="48.11281" lon="-3.58428">
        <ele>216</ele>
        <time>2025-02-25T11:45:15Z</time>
      </trkpt>
      <trkpt lat="48.11281" lon="-3.58426">
        <ele>216.1</ele>
        <time>2025-02-25T11:45:16Z</time>
      </trkpt>
      <trkpt lat="48.11282" lon="-3.58425">
        <ele>216.1</ele>
        <time>2025-02-25T11:45:17Z</time>
      </trkpt>
      <trkpt lat="48.11282" lon="-3.58423">
        <ele>216.2</ele>
        <time>2025-02-25T11:45:18Z</time>
      </trkpt>
      <trkpt lat="48.11283" lon="-3.58422">
        <ele>216.2</ele>
        <time>2025-02-25T11:45:19Z</time>
      </trkpt>
      <trkpt lat="48.11284" lon="-3.58421">
        <ele>216.2</ele>
        <time>2025-02-25T11:45:20Z</time>
      </trkpt>
      <trkpt lat="48.11284" lon="-3.58419">
        <ele>216.4</ele>
        <time>2025-02-25T11:45:21Z</time>
      </trkpt>
      <trkpt lat="48.11284" lon="-3.58417">
        <ele>216.5</ele>
        <time>2025-02-25T11:45:22Z</time>
      </trkpt>
      <trkpt lat="48.11285" lon="-3.58415">
        <ele>216.5</ele>
        <time>2025-02-25T11:45:23Z</time>
      </trkpt>
      <trkpt lat="48.11285" lon="-3.58413">
        <ele>216.5</ele>
        <time>2025-02-25T11:45:24Z</time>
      </trkpt>
      <trkpt lat="48.11286" lon="-3.58412">
        <ele>216.5</ele>
        <time>2025-02-25T11:45:25Z</time>
      </trkpt>
      <trkpt lat="48.11286" lon="-3.5841">
        <ele>216.5</ele>
        <time>2025-02-25T11:45:26Z</time>
      </trkpt>
      <trkpt lat="48.11288" lon="-3.5841">
        <ele>216.4</ele>
        <time>2025-02-25T11:45:27Z</time>
      </trkpt>
      <trkpt lat="48.11289" lon="-3.58409">
        <ele>216.3</ele>
        <time>2025-02-25T11:45:28Z</time>
      </trkpt>
      <trkpt lat="48.1129" lon="-3.58408">
        <ele>216.3</ele>
        <time>2025-02-25T11:45:29Z</time>
      </trkpt>
      <trkpt lat="48.11291" lon="-3.58407">
        <ele>216.2</ele>
        <time>2025-02-25T11:45:30Z</time>
      </trkpt>
      <trkpt lat="48.11291" lon="-3.58406">
        <ele>216.2</ele>
        <time>2025-02-25T11:45:31Z</time>
      </trkpt>
      <trkpt lat="48.11292" lon="-3.58404">
        <ele>216.2</ele>
        <time>2025-02-25T11:45:32Z</time>
      </trkpt>
      <trkpt lat="48.11293" lon="-3.58402">
        <ele>216.2</ele>
        <time>2025-02-25T11:45:33Z</time>
      </trkpt>
      <trkpt lat="48.11293" lon="-3.58401">
        <ele>216.2</ele>
        <time>2025-02-25T11:45:34Z</time>
      </trkpt>
      <trkpt lat="48.11294" lon="-3.58399">
        <ele>216.2</ele>
        <time>2025-02-25T11:45:35Z</time>
      </trkpt>
      <trkpt lat="48.11294" lon="-3.58397">
        <ele>216.2</ele>
        <time>2025-02-25T11:45:36Z</time>
      </trkpt>
      <trkpt lat="48.11294" lon="-3.58396">
        <ele>216.3</ele>
        <time>2025-02-25T11:45:37Z</time>
      </trkpt>
      <trkpt lat="48.11295" lon="-3.58394">
        <ele>216.3</ele>
        <time>2025-02-25T11:45:38Z</time>
      </trkpt>
      <trkpt lat="48.11296" lon="-3.58393">
        <ele>216.2</ele>
        <time>2025-02-25T11:45:39Z</time>
      </trkpt>
      <trkpt lat="48.11297" lon="-3.58391">
        <ele>216.3</ele>
        <time>2025-02-25T11:45:40Z</time>
      </trkpt>
      <trkpt lat="48.11297" lon="-3.5839">
        <ele>216.3</ele>
        <time>2025-02-25T11:45:41Z</time>
      </trkpt>
      <trkpt lat="48.11299" lon="-3.58389">
        <ele>216.2</ele>
        <time>2025-02-25T11:45:42Z</time>
      </trkpt>
      <trkpt lat="48.113" lon="-3.58388">
        <ele>216.2</ele>
        <time>2025-02-25T11:45:43Z</time>
      </trkpt>
      <trkpt lat="48.113" lon="-3.58387">
        <ele>216.3</ele>
        <time>2025-02-25T11:45:44Z</time>
      </trkpt>
      <trkpt lat="48.11301" lon="-3.58385">
        <ele>216.3</ele>
        <time>2025-02-25T11:45:45Z</time>
      </trkpt>
      <trkpt lat="48.11301" lon="-3.58383">
        <ele>216.4</ele>
        <time>2025-02-25T11:45:46Z</time>
      </trkpt>
      <trkpt lat="48.11301" lon="-3.58381">
        <ele>216.4</ele>
        <time>2025-02-25T11:45:47Z</time>
      </trkpt>
      <trkpt lat="48.11302" lon="-3.58379">
        <ele>216.5</ele>
        <time>2025-02-25T11:45:48Z</time>
      </trkpt>
      <trkpt lat="48.11302" lon="-3.58377">
        <ele>216.6</ele>
        <time>2025-02-25T11:45:49Z</time>
      </trkpt>
      <trkpt lat="48.11303" lon="-3.58376">
        <ele>216.6</ele>
        <time>2025-02-25T11:45:50Z</time>
      </trkpt>
      <trkpt lat="48.11303" lon="-3.58373">
        <ele>216.7</ele>
        <time>2025-02-25T11:45:51Z</time>
      </trkpt>
      <trkpt lat="48.11303" lon="-3.58371">
        <ele>216.7</ele>
        <time>2025-02-25T11:45:52Z</time>
      </trkpt>
      <trkpt lat="48.11304" lon="-3.5837">
        <ele>216.7</ele>
        <time>2025-02-25T11:45:53Z</time>
      </trkpt>
      <trkpt lat="48.11304" lon="-3.58368">
        <ele>216.8</ele>
        <time>2025-02-25T11:45:54Z</time>
      </trkpt>
      <trkpt lat="48.11304" lon="-3.58366">
        <ele>216.9</ele>
        <time>2025-02-25T11:45:55Z</time>
      </trkpt>
      <trkpt lat="48.11304" lon="-3.58364">
        <ele>217</ele>
        <time>2025-02-25T11:45:56Z</time>
      </trkpt>
      <trkpt lat="48.11304" lon="-3.58363">
        <ele>217</ele>
        <time>2025-02-25T11:45:57Z</time>
      </trkpt>
      <trkpt lat="48.11305" lon="-3.58362">
        <ele>217</ele>
        <time>2025-02-25T11:45:58Z</time>
      </trkpt>
      <trkpt lat="48.11304" lon="-3.58363">
        <ele>217</ele>
        <time>2025-02-25T11:45:59Z</time>
      </trkpt>
      <trkpt lat="48.11304" lon="-3.58363">
        <ele>217</ele>
        <time>2025-02-25T11:46:00Z</time>
      </trkpt>
      <trkpt lat="48.11304" lon="-3.58363">
        <ele>217</ele>
        <time>2025-02-25T11:46:01Z</time>
      </trkpt>
      <trkpt lat="48.11304" lon="-3.58363">
        <ele>217</ele>
        <time>2025-02-25T11:46:02Z</time>
      </trkpt>
      <trkpt lat="48.11304" lon="-3.58363">
        <ele>217</ele>
        <time>2025-02-25T11:46:03Z</time>
      </trkpt>
      <trkpt lat="48.11304" lon="-3.58363">
        <ele>217</ele>
        <time>2025-02-25T11:46:04Z</time>
      </trkpt>
      <trkpt lat="48.11304" lon="-3.58363">
        <ele>217</ele>
        <time>2025-02-25T11:46:05Z</time>
      </trkpt>
      <trkpt lat="48.11304" lon="-3.58363">
        <ele>217</ele>
        <time>2025-02-25T11:46:06Z</time>
      </trkpt>
      <trkpt lat="48.11304" lon="-3.58363">
        <ele>217</ele>
        <time>2025-02-25T11:46:07Z</time>
      </trkpt>
      <trkpt lat="48.11304" lon="-3.58363">
        <ele>217</ele>
        <time>2025-02-25T11:46:08Z</time>
      </trkpt>
      <trkpt lat="48.11304" lon="-3.58363">
        <ele>217</ele>
        <time>2025-02-25T11:46:09Z</time>
      </trkpt>
      <trkpt lat="48.11304" lon="-3.58363">
        <ele>217</ele>
        <time>2025-02-25T11:46:10Z</time>
      </trkpt>
      <trkpt lat="48.11303" lon="-3.58362">
        <ele>217.1</ele>
        <time>2025-02-25T11:46:11Z</time>
      </trkpt>
      <trkpt lat="48.11302" lon="-3.58361">
        <ele>217.1</ele>
        <time>2025-02-25T11:46:12Z</time>
      </trkpt>
      <trkpt lat="48.11302" lon="-3.58361">
        <ele>217.1</ele>
        <time>2025-02-25T11:46:13Z</time>
      </trkpt>
      <trkpt lat="48.11301" lon="-3.5836">
        <ele>217.2</ele>
        <time>2025-02-25T11:46:14Z</time>
      </trkpt>
      <trkpt lat="48.11301" lon="-3.58359">
        <ele>217.2</ele>
        <time>2025-02-25T11:46:15Z</time>
      </trkpt>
      <trkpt lat="48.113" lon="-3.58358">
        <ele>217.3</ele>
        <time>2025-02-25T11:46:16Z</time>
      </trkpt>
      <trkpt lat="48.11299" lon="-3.58357">
        <ele>217.4</ele>
        <time>2025-02-25T11:46:17Z</time>
      </trkpt>
      <trkpt lat="48.11299" lon="-3.58357">
        <ele>217.4</ele>
        <time>2025-02-25T11:46:18Z</time>
      </trkpt>
      <trkpt lat="48.11298" lon="-3.58356">
        <ele>217.5</ele>
        <time>2025-02-25T11:46:19Z</time>
      </trkpt>
      <trkpt lat="48.11298" lon="-3.58355">
        <ele>217.5</ele>
        <time>2025-02-25T11:46:20Z</time>
      </trkpt>
      <trkpt lat="48.11298" lon="-3.58354">
        <ele>217.5</ele>
        <time>2025-02-25T11:46:21Z</time>
      </trkpt>
      <trkpt lat="48.11298" lon="-3.58353">
        <ele>217.6</ele>
        <time>2025-02-25T11:46:22Z</time>
      </trkpt>
      <trkpt lat="48.11297" lon="-3.58353">
        <ele>217.6</ele>
        <time>2025-02-25T11:46:23Z</time>
      </trkpt>
      <trkpt lat="48.11296" lon="-3.58353">
        <ele>217.6</ele>
        <time>2025-02-25T11:46:24Z</time>
      </trkpt>
      <trkpt lat="48.11296" lon="-3.58352">
        <ele>217.7</ele>
        <time>2025-02-25T11:46:25Z</time>
      </trkpt>
      <trkpt lat="48.11296" lon="-3.58351">
        <ele>217.7</ele>
        <time>2025-02-25T11:46:26Z</time>
      </trkpt>
      <trkpt lat="48.11295" lon="-3.58351">
        <ele>217.7</ele>
        <time>2025-02-25T11:46:27Z</time>
      </trkpt>
      <trkpt lat="48.11295" lon="-3.5835">
        <ele>217.8</ele>
        <time>2025-02-25T11:46:28Z</time>
      </trkpt>
      <trkpt lat="48.11294" lon="-3.58349">
        <ele>217.9</ele>
        <time>2025-02-25T11:46:29Z</time>
      </trkpt>
      <trkpt lat="48.11294" lon="-3.58348">
        <ele>217.9</ele>
        <time>2025-02-25T11:46:30Z</time>
      </trkpt>
      <trkpt lat="48.11293" lon="-3.58346">
        <ele>218</ele>
        <time>2025-02-25T11:46:31Z</time>
      </trkpt>
      <trkpt lat="48.11293" lon="-3.58346">
        <ele>218</ele>
        <time>2025-02-25T11:46:32Z</time>
      </trkpt>
      <trkpt lat="48.11293" lon="-3.58345">
        <ele>218</ele>
        <time>2025-02-25T11:46:33Z</time>
      </trkpt>
      <trkpt lat="48.11292" lon="-3.58344">
        <ele>218.1</ele>
        <time>2025-02-25T11:46:34Z</time>
      </trkpt>
      <trkpt lat="48.11291" lon="-3.58344">
        <ele>218.1</ele>
        <time>2025-02-25T11:46:35Z</time>
      </trkpt>
      <trkpt lat="48.1129" lon="-3.58343">
        <ele>218.2</ele>
        <time>2025-02-25T11:46:36Z</time>
      </trkpt>
      <trkpt lat="48.1129" lon="-3.58342">
        <ele>218.2</ele>
        <time>2025-02-25T11:46:37Z</time>
      </trkpt>
      <trkpt lat="48.11289" lon="-3.58342">
        <ele>218.3</ele>
        <time>2025-02-25T11:46:38Z</time>
      </trkpt>
      <trkpt lat="48.11289" lon="-3.58341">
        <ele>218.3</ele>
        <time>2025-02-25T11:46:39Z</time>
      </trkpt>
      <trkpt lat="48.11288" lon="-3.58341">
        <ele>218.4</ele>
        <time>2025-02-25T11:46:40Z</time>
      </trkpt>
      <trkpt lat="48.11287" lon="-3.5834">
        <ele>218.4</ele>
        <time>2025-02-25T11:46:41Z</time>
      </trkpt>
      <trkpt lat="48.11287" lon="-3.5834">
        <ele>218.4</ele>
        <time>2025-02-25T11:46:42Z</time>
      </trkpt>
      <trkpt lat="48.11286" lon="-3.5834">
        <ele>218.5</ele>
        <time>2025-02-25T11:46:43Z</time>
      </trkpt>
      <trkpt lat="48.11285" lon="-3.58339">
        <ele>218.5</ele>
        <time>2025-02-25T11:46:44Z</time>
      </trkpt>
      <trkpt lat="48.11285" lon="-3.58339">
        <ele>218.5</ele>
        <time>2025-02-25T11:46:45Z</time>
      </trkpt>
      <trkpt lat="48.11284" lon="-3.58338">
        <ele>218.6</ele>
        <time>2025-02-25T11:46:46Z</time>
      </trkpt>
      <trkpt lat="48.11283" lon="-3.58338">
        <ele>218.6</ele>
        <time>2025-02-25T11:46:47Z</time>
      </trkpt>
      <trkpt lat="48.11282" lon="-3.58337">
        <ele>218.7</ele>
        <time>2025-02-25T11:46:48Z</time>
      </trkpt>
      <trkpt lat="48.11281" lon="-3.58337">
        <ele>218.8</ele>
        <time>2025-02-25T11:46:49Z</time>
      </trkpt>
      <trkpt lat="48.1128" lon="-3.58336">
        <ele>218.8</ele>
        <time>2025-02-25T11:46:50Z</time>
      </trkpt>
      <trkpt lat="48.11279" lon="-3.58335">
        <ele>218.9</ele>
        <time>2025-02-25T11:46:51Z</time>
      </trkpt>
      <trkpt lat="48.11278" lon="-3.58335">
        <ele>218.9</ele>
        <time>2025-02-25T11:46:52Z</time>
      </trkpt>
      <trkpt lat="48.11277" lon="-3.58335">
        <ele>218.9</ele>
        <time>2025-02-25T11:46:53Z</time>
      </trkpt>
      <trkpt lat="48.11276" lon="-3.58334">
        <ele>219</ele>
        <time>2025-02-25T11:46:54Z</time>
      </trkpt>
      <trkpt lat="48.11276" lon="-3.58334">
        <ele>219</ele>
        <time>2025-02-25T11:46:55Z</time>
      </trkpt>
      <trkpt lat="48.11275" lon="-3.58333">
        <ele>219</ele>
        <time>2025-02-25T11:46:56Z</time>
      </trkpt>
      <trkpt lat="48.11275" lon="-3.58333">
        <ele>219</ele>
        <time>2025-02-25T11:46:57Z</time>
      </trkpt>
      <trkpt lat="48.11274" lon="-3.58332">
        <ele>219</ele>
        <time>2025-02-25T11:46:58Z</time>
      </trkpt>
      <trkpt lat="48.11274" lon="-3.58331">
        <ele>219</ele>
        <time>2025-02-25T11:46:59Z</time>
      </trkpt>
      <trkpt lat="48.11273" lon="-3.5833">
        <ele>219</ele>
        <time>2025-02-25T11:47:00Z</time>
      </trkpt>
      <trkpt lat="48.11272" lon="-3.58329">
        <ele>219</ele>
        <time>2025-02-25T11:47:01Z</time>
      </trkpt>
      <trkpt lat="48.11271" lon="-3.58329">
        <ele>219</ele>
        <time>2025-02-25T11:47:02Z</time>
      </trkpt>
      <trkpt lat="48.1127" lon="-3.58328">
        <ele>219</ele>
        <time>2025-02-25T11:47:03Z</time>
      </trkpt>
      <trkpt lat="48.11269" lon="-3.58328">
        <ele>219</ele>
        <time>2025-02-25T11:47:04Z</time>
      </trkpt>
      <trkpt lat="48.11268" lon="-3.58327">
        <ele>219</ele>
        <time>2025-02-25T11:47:05Z</time>
      </trkpt>
      <trkpt lat="48.11267" lon="-3.58326">
        <ele>219</ele>
        <time>2025-02-25T11:47:06Z</time>
      </trkpt>
      <trkpt lat="48.11265" lon="-3.58325">
        <ele>219</ele>
        <time>2025-02-25T11:47:07Z</time>
      </trkpt>
      <trkpt lat="48.11264" lon="-3.58325">
        <ele>219</ele>
        <time>2025-02-25T11:47:08Z</time>
      </trkpt>
      <trkpt lat="48.11263" lon="-3.58325">
        <ele>219</ele>
        <time>2025-02-25T11:47:09Z</time>
      </trkpt>
      <trkpt lat="48.11262" lon="-3.58324">
        <ele>219</ele>
        <time>2025-02-25T11:47:10Z</time>
      </trkpt>
      <trkpt lat="48.11261" lon="-3.58322">
        <ele>219</ele>
        <time>2025-02-25T11:47:11Z</time>
      </trkpt>
      <trkpt lat="48.1126" lon="-3.58321">
        <ele>219</ele>
        <time>2025-02-25T11:47:12Z</time>
      </trkpt>
      <trkpt lat="48.11259" lon="-3.5832">
        <ele>219</ele>
        <time>2025-02-25T11:47:13Z</time>
      </trkpt>
      <trkpt lat="48.11257" lon="-3.58319">
        <ele>219</ele>
        <time>2025-02-25T11:47:14Z</time>
      </trkpt>
      <trkpt lat="48.11256" lon="-3.58319">
        <ele>219</ele>
        <time>2025-02-25T11:47:15Z</time>
      </trkpt>
      <trkpt lat="48.11255" lon="-3.58318">
        <ele>219</ele>
        <time>2025-02-25T11:47:16Z</time>
      </trkpt>
      <trkpt lat="48.11254" lon="-3.58317">
        <ele>219</ele>
        <time>2025-02-25T11:47:17Z</time>
      </trkpt>
      <trkpt lat="48.11253" lon="-3.58317">
        <ele>219</ele>
        <time>2025-02-25T11:47:18Z</time>
      </trkpt>
      <trkpt lat="48.11251" lon="-3.58316">
        <ele>219</ele>
        <time>2025-02-25T11:47:19Z</time>
      </trkpt>
      <trkpt lat="48.11249" lon="-3.58315">
        <ele>219</ele>
        <time>2025-02-25T11:47:20Z</time>
      </trkpt>
      <trkpt lat="48.11248" lon="-3.58314">
        <ele>219</ele>
        <time>2025-02-25T11:47:21Z</time>
      </trkpt>
      <trkpt lat="48.11247" lon="-3.58313">
        <ele>219</ele>
        <time>2025-02-25T11:47:22Z</time>
      </trkpt>
      <trkpt lat="48.11246" lon="-3.58312">
        <ele>219</ele>
        <time>2025-02-25T11:47:23Z</time>
      </trkpt>
      <trkpt lat="48.11245" lon="-3.58311">
        <ele>219</ele>
        <time>2025-02-25T11:47:24Z</time>
      </trkpt>
      <trkpt lat="48.11243" lon="-3.5831">
        <ele>219</ele>
        <time>2025-02-25T11:47:25Z</time>
      </trkpt>
      <trkpt lat="48.11242" lon="-3.58309">
        <ele>219</ele>
        <time>2025-02-25T11:47:26Z</time>
      </trkpt>
      <trkpt lat="48.11241" lon="-3.58309">
        <ele>219</ele>
        <time>2025-02-25T11:47:27Z</time>
      </trkpt>
      <trkpt lat="48.1124" lon="-3.58308">
        <ele>219</ele>
        <time>2025-02-25T11:47:28Z</time>
      </trkpt>
      <trkpt lat="48.11239" lon="-3.58307">
        <ele>219</ele>
        <time>2025-02-25T11:47:29Z</time>
      </trkpt>
      <trkpt lat="48.11237" lon="-3.58306">
        <ele>219</ele>
        <time>2025-02-25T11:47:30Z</time>
      </trkpt>
      <trkpt lat="48.11236" lon="-3.58306">
        <ele>219</ele>
        <time>2025-02-25T11:47:31Z</time>
      </trkpt>
      <trkpt lat="48.11235" lon="-3.58305">
        <ele>219</ele>
        <time>2025-02-25T11:47:32Z</time>
      </trkpt>
      <trkpt lat="48.11233" lon="-3.58305">
        <ele>219</ele>
        <time>2025-02-25T11:47:33Z</time>
      </trkpt>
      <trkpt lat="48.11232" lon="-3.58303">
        <ele>219</ele>
        <time>2025-02-25T11:47:34Z</time>
      </trkpt>
      <trkpt lat="48.11232" lon="-3.58302">
        <ele>219</ele>
        <time>2025-02-25T11:47:35Z</time>
      </trkpt>
      <trkpt lat="48.1123" lon="-3.58301">
        <ele>219</ele>
        <time>2025-02-25T11:47:36Z</time>
      </trkpt>
      <trkpt lat="48.11229" lon="-3.583">
        <ele>219</ele>
        <time>2025-02-25T11:47:37Z</time>
      </trkpt>
      <trkpt lat="48.11228" lon="-3.58299">
        <ele>219</ele>
        <time>2025-02-25T11:47:38Z</time>
      </trkpt>
      <trkpt lat="48.11227" lon="-3.58299">
        <ele>219</ele>
        <time>2025-02-25T11:47:39Z</time>
      </trkpt>
      <trkpt lat="48.11227" lon="-3.58299">
        <ele>219</ele>
        <time>2025-02-25T11:47:40Z</time>
      </trkpt>
      <trkpt lat="48.11226" lon="-3.58298">
        <ele>219</ele>
        <time>2025-02-25T11:47:41Z</time>
      </trkpt>
      <trkpt lat="48.11225" lon="-3.58297">
        <ele>219</ele>
        <time>2025-02-25T11:47:42Z</time>
      </trkpt>
      <trkpt lat="48.11224" lon="-3.58297">
        <ele>219</ele>
        <time>2025-02-25T11:47:43Z</time>
      </trkpt>
      <trkpt lat="48.11222" lon="-3.58296">
        <ele>219</ele>
        <time>2025-02-25T11:47:44Z</time>
      </trkpt>
      <trkpt lat="48.11221" lon="-3.58295">
        <ele>219</ele>
        <time>2025-02-25T11:47:45Z</time>
      </trkpt>
      <trkpt lat="48.1122" lon="-3.58294">
        <ele>218.9</ele>
        <time>2025-02-25T11:47:46Z</time>
      </trkpt>
      <trkpt lat="48.11219" lon="-3.58293">
        <ele>218.9</ele>
        <time>2025-02-25T11:47:47Z</time>
      </trkpt>
      <trkpt lat="48.11218" lon="-3.58294">
        <ele>218.8</ele>
        <time>2025-02-25T11:47:48Z</time>
      </trkpt>
      <trkpt lat="48.11217" lon="-3.58293">
        <ele>218.8</ele>
        <time>2025-02-25T11:47:49Z</time>
      </trkpt>
      <trkpt lat="48.11216" lon="-3.58293">
        <ele>218.8</ele>
        <time>2025-02-25T11:47:50Z</time>
      </trkpt>
      <trkpt lat="48.11214" lon="-3.58292">
        <ele>218.7</ele>
        <time>2025-02-25T11:47:51Z</time>
      </trkpt>
      <trkpt lat="48.11213" lon="-3.58292">
        <ele>218.7</ele>
        <time>2025-02-25T11:47:52Z</time>
      </trkpt>
      <trkpt lat="48.11212" lon="-3.58291">
        <ele>218.6</ele>
        <time>2025-02-25T11:47:53Z</time>
      </trkpt>
      <trkpt lat="48.11211" lon="-3.5829">
        <ele>218.6</ele>
        <time>2025-02-25T11:47:54Z</time>
      </trkpt>
      <trkpt lat="48.1121" lon="-3.5829">
        <ele>218.6</ele>
        <time>2025-02-25T11:47:55Z</time>
      </trkpt>
      <trkpt lat="48.1121" lon="-3.58289">
        <ele>218.6</ele>
        <time>2025-02-25T11:47:56Z</time>
      </trkpt>
      <trkpt lat="48.11209" lon="-3.58288">
        <ele>218.5</ele>
        <time>2025-02-25T11:47:57Z</time>
      </trkpt>
      <trkpt lat="48.11209" lon="-3.58287">
        <ele>218.5</ele>
        <time>2025-02-25T11:47:58Z</time>
      </trkpt>
      <trkpt lat="48.11207" lon="-3.58286">
        <ele>218.5</ele>
        <time>2025-02-25T11:47:59Z</time>
      </trkpt>
      <trkpt lat="48.11207" lon="-3.58285">
        <ele>218.5</ele>
        <time>2025-02-25T11:48:00Z</time>
      </trkpt>
      <trkpt lat="48.11206" lon="-3.58285">
        <ele>218.4</ele>
        <time>2025-02-25T11:48:01Z</time>
      </trkpt>
      <trkpt lat="48.11205" lon="-3.58284">
        <ele>218.4</ele>
        <time>2025-02-25T11:48:02Z</time>
      </trkpt>
      <trkpt lat="48.11204" lon="-3.58283">
        <ele>218.3</ele>
        <time>2025-02-25T11:48:03Z</time>
      </trkpt>
      <trkpt lat="48.11202" lon="-3.58282">
        <ele>218.3</ele>
        <time>2025-02-25T11:48:04Z</time>
      </trkpt>
      <trkpt lat="48.11202" lon="-3.5828">
        <ele>218.3</ele>
        <time>2025-02-25T11:48:05Z</time>
      </trkpt>
      <trkpt lat="48.112" lon="-3.58279">
        <ele>218.2</ele>
        <time>2025-02-25T11:48:06Z</time>
      </trkpt>
      <trkpt lat="48.11199" lon="-3.58279">
        <ele>218.2</ele>
        <time>2025-02-25T11:48:07Z</time>
      </trkpt>
      <trkpt lat="48.11199" lon="-3.58277">
        <ele>218.1</ele>
        <time>2025-02-25T11:48:08Z</time>
      </trkpt>
      <trkpt lat="48.11198" lon="-3.58276">
        <ele>218.1</ele>
        <time>2025-02-25T11:48:09Z</time>
      </trkpt>
      <trkpt lat="48.11197" lon="-3.58276">
        <ele>218</ele>
        <time>2025-02-25T11:48:10Z</time>
      </trkpt>
      <trkpt lat="48.11196" lon="-3.58275">
        <ele>218</ele>
        <time>2025-02-25T11:48:11Z</time>
      </trkpt>
      <trkpt lat="48.11195" lon="-3.58274">
        <ele>217.9</ele>
        <time>2025-02-25T11:48:12Z</time>
      </trkpt>
      <trkpt lat="48.11195" lon="-3.58272">
        <ele>217.8</ele>
        <time>2025-02-25T11:48:13Z</time>
      </trkpt>
      <trkpt lat="48.11194" lon="-3.58272">
        <ele>217.8</ele>
        <time>2025-02-25T11:48:14Z</time>
      </trkpt>
      <trkpt lat="48.11193" lon="-3.58271">
        <ele>217.7</ele>
        <time>2025-02-25T11:48:15Z</time>
      </trkpt>
      <trkpt lat="48.11192" lon="-3.5827">
        <ele>217.6</ele>
        <time>2025-02-25T11:48:16Z</time>
      </trkpt>
      <trkpt lat="48.11191" lon="-3.5827">
        <ele>217.5</ele>
        <time>2025-02-25T11:48:17Z</time>
      </trkpt>
      <trkpt lat="48.1119" lon="-3.58268">
        <ele>217.4</ele>
        <time>2025-02-25T11:48:18Z</time>
      </trkpt>
      <trkpt lat="48.11189" lon="-3.58267">
        <ele>217.3</ele>
        <time>2025-02-25T11:48:19Z</time>
      </trkpt>
      <trkpt lat="48.11189" lon="-3.58266">
        <ele>217.3</ele>
        <time>2025-02-25T11:48:20Z</time>
      </trkpt>
      <trkpt lat="48.11188" lon="-3.58266">
        <ele>217.2</ele>
        <time>2025-02-25T11:48:21Z</time>
      </trkpt>
      <trkpt lat="48.11187" lon="-3.58265">
        <ele>217.1</ele>
        <time>2025-02-25T11:48:22Z</time>
      </trkpt>
      <trkpt lat="48.11186" lon="-3.58264">
        <ele>217</ele>
        <time>2025-02-25T11:48:23Z</time>
      </trkpt>
      <trkpt lat="48.11184" lon="-3.58263">
        <ele>216.9</ele>
        <time>2025-02-25T11:48:24Z</time>
      </trkpt>
      <trkpt lat="48.11183" lon="-3.58263">
        <ele>216.9</ele>
        <time>2025-02-25T11:48:25Z</time>
      </trkpt>
      <trkpt lat="48.11182" lon="-3.58262">
        <ele>216.8</ele>
        <time>2025-02-25T11:48:26Z</time>
      </trkpt>
      <trkpt lat="48.1118" lon="-3.58263">
        <ele>216.7</ele>
        <time>2025-02-25T11:48:27Z</time>
      </trkpt>
      <trkpt lat="48.11179" lon="-3.58264">
        <ele>216.7</ele>
        <time>2025-02-25T11:48:28Z</time>
      </trkpt>
      <trkpt lat="48.11178" lon="-3.58263">
        <ele>216.6</ele>
        <time>2025-02-25T11:48:29Z</time>
      </trkpt>
      <trkpt lat="48.11177" lon="-3.58262">
        <ele>216.5</ele>
        <time>2025-02-25T11:48:30Z</time>
      </trkpt>
      <trkpt lat="48.11176" lon="-3.58261">
        <ele>216.5</ele>
        <time>2025-02-25T11:48:31Z</time>
      </trkpt>
      <trkpt lat="48.11175" lon="-3.5826">
        <ele>216.4</ele>
        <time>2025-02-25T11:48:32Z</time>
      </trkpt>
      <trkpt lat="48.11174" lon="-3.58259">
        <ele>216.3</ele>
        <time>2025-02-25T11:48:33Z</time>
      </trkpt>
      <trkpt lat="48.11173" lon="-3.58258">
        <ele>216.3</ele>
        <time>2025-02-25T11:48:34Z</time>
      </trkpt>
      <trkpt lat="48.11172" lon="-3.58257">
        <ele>216.2</ele>
        <time>2025-02-25T11:48:35Z</time>
      </trkpt>
      <trkpt lat="48.11171" lon="-3.58256">
        <ele>216.2</ele>
        <time>2025-02-25T11:48:36Z</time>
      </trkpt>
      <trkpt lat="48.1117" lon="-3.58255">
        <ele>216.1</ele>
        <time>2025-02-25T11:48:37Z</time>
      </trkpt>
      <trkpt lat="48.1117" lon="-3.58253">
        <ele>216.1</ele>
        <time>2025-02-25T11:48:38Z</time>
      </trkpt>
      <trkpt lat="48.11169" lon="-3.58252">
        <ele>216.1</ele>
        <time>2025-02-25T11:48:39Z</time>
      </trkpt>
      <trkpt lat="48.11167" lon="-3.58252">
        <ele>216</ele>
        <time>2025-02-25T11:48:40Z</time>
      </trkpt>
      <trkpt lat="48.11166" lon="-3.58251">
        <ele>216</ele>
        <time>2025-02-25T11:48:41Z</time>
      </trkpt>
      <trkpt lat="48.11165" lon="-3.58251">
        <ele>215.9</ele>
        <time>2025-02-25T11:48:42Z</time>
      </trkpt>
      <trkpt lat="48.11164" lon="-3.58251">
        <ele>215.9</ele>
        <time>2025-02-25T11:48:43Z</time>
      </trkpt>
      <trkpt lat="48.11164" lon="-3.58251">
        <ele>215.9</ele>
        <time>2025-02-25T11:48:44Z</time>
      </trkpt>
      <trkpt lat="48.11163" lon="-3.5825">
        <ele>215.9</ele>
        <time>2025-02-25T11:48:45Z</time>
      </trkpt>
      <trkpt lat="48.11161" lon="-3.58249">
        <ele>215.8</ele>
        <time>2025-02-25T11:48:46Z</time>
      </trkpt>
      <trkpt lat="48.1116" lon="-3.58248">
        <ele>215.8</ele>
        <time>2025-02-25T11:48:47Z</time>
      </trkpt>
      <trkpt lat="48.11159" lon="-3.58248">
        <ele>215.7</ele>
        <time>2025-02-25T11:48:48Z</time>
      </trkpt>
      <trkpt lat="48.11158" lon="-3.58248">
        <ele>215.7</ele>
        <time>2025-02-25T11:48:49Z</time>
      </trkpt>
      <trkpt lat="48.11157" lon="-3.58247">
        <ele>215.7</ele>
        <time>2025-02-25T11:48:50Z</time>
      </trkpt>
      <trkpt lat="48.11156" lon="-3.58246">
        <ele>215.6</ele>
        <time>2025-02-25T11:48:51Z</time>
      </trkpt>
      <trkpt lat="48.11155" lon="-3.58245">
        <ele>215.6</ele>
        <time>2025-02-25T11:48:52Z</time>
      </trkpt>
      <trkpt lat="48.11154" lon="-3.58245">
        <ele>215.5</ele>
        <time>2025-02-25T11:48:53Z</time>
      </trkpt>
      <trkpt lat="48.11153" lon="-3.58244">
        <ele>215.5</ele>
        <time>2025-02-25T11:48:54Z</time>
      </trkpt>
      <trkpt lat="48.11152" lon="-3.58242">
        <ele>215.5</ele>
        <time>2025-02-25T11:48:55Z</time>
      </trkpt>
      <trkpt lat="48.11152" lon="-3.58241">
        <ele>215.5</ele>
        <time>2025-02-25T11:48:56Z</time>
      </trkpt>
      <trkpt lat="48.11152" lon="-3.58239">
        <ele>215.5</ele>
        <time>2025-02-25T11:48:57Z</time>
      </trkpt>
      <trkpt lat="48.1115" lon="-3.58237">
        <ele>215.4</ele>
        <time>2025-02-25T11:48:58Z</time>
      </trkpt>
      <trkpt lat="48.11148" lon="-3.58237">
        <ele>215.3</ele>
        <time>2025-02-25T11:48:59Z</time>
      </trkpt>
      <trkpt lat="48.11147" lon="-3.58236">
        <ele>215.3</ele>
        <time>2025-02-25T11:49:00Z</time>
      </trkpt>
      <trkpt lat="48.11146" lon="-3.58235">
        <ele>215.3</ele>
        <time>2025-02-25T11:49:01Z</time>
      </trkpt>
      <trkpt lat="48.11145" lon="-3.58235">
        <ele>215.2</ele>
        <time>2025-02-25T11:49:02Z</time>
      </trkpt>
      <trkpt lat="48.11144" lon="-3.58235">
        <ele>215.2</ele>
        <time>2025-02-25T11:49:03Z</time>
      </trkpt>
      <trkpt lat="48.11143" lon="-3.58234">
        <ele>215.1</ele>
        <time>2025-02-25T11:49:04Z</time>
      </trkpt>
      <trkpt lat="48.11142" lon="-3.58233">
        <ele>215.1</ele>
        <time>2025-02-25T11:49:05Z</time>
      </trkpt>
      <trkpt lat="48.11141" lon="-3.58231">
        <ele>215.1</ele>
        <time>2025-02-25T11:49:06Z</time>
      </trkpt>
      <trkpt lat="48.1114" lon="-3.5823">
        <ele>215</ele>
        <time>2025-02-25T11:49:07Z</time>
      </trkpt>
      <trkpt lat="48.11139" lon="-3.5823">
        <ele>215</ele>
        <time>2025-02-25T11:49:08Z</time>
      </trkpt>
      <trkpt lat="48.11138" lon="-3.5823">
        <ele>214.9</ele>
        <time>2025-02-25T11:49:09Z</time>
      </trkpt>
      <trkpt lat="48.11137" lon="-3.5823">
        <ele>214.9</ele>
        <time>2025-02-25T11:49:10Z</time>
      </trkpt>
      <trkpt lat="48.11136" lon="-3.5823">
        <ele>214.8</ele>
        <time>2025-02-25T11:49:11Z</time>
      </trkpt>
      <trkpt lat="48.11135" lon="-3.5823">
        <ele>214.8</ele>
        <time>2025-02-25T11:49:12Z</time>
      </trkpt>
      <trkpt lat="48.11134" lon="-3.5823">
        <ele>214.7</ele>
        <time>2025-02-25T11:49:13Z</time>
      </trkpt>
      <trkpt lat="48.11133" lon="-3.58229">
        <ele>214.6</ele>
        <time>2025-02-25T11:49:14Z</time>
      </trkpt>
      <trkpt lat="48.11132" lon="-3.58229">
        <ele>214.6</ele>
        <time>2025-02-25T11:49:15Z</time>
      </trkpt>
      <trkpt lat="48.11131" lon="-3.58228">
        <ele>214.5</ele>
        <time>2025-02-25T11:49:16Z</time>
      </trkpt>
      <trkpt lat="48.11129" lon="-3.58228">
        <ele>214.4</ele>
        <time>2025-02-25T11:49:17Z</time>
      </trkpt>
      <trkpt lat="48.11128" lon="-3.58227">
        <ele>214.3</ele>
        <time>2025-02-25T11:49:18Z</time>
      </trkpt>
      <trkpt lat="48.11128" lon="-3.58226">
        <ele>214.3</ele>
        <time>2025-02-25T11:49:19Z</time>
      </trkpt>
      <trkpt lat="48.11126" lon="-3.58225">
        <ele>214.1</ele>
        <time>2025-02-25T11:49:20Z</time>
      </trkpt>
      <trkpt lat="48.11125" lon="-3.58225">
        <ele>214</ele>
        <time>2025-02-25T11:49:21Z</time>
      </trkpt>
      <trkpt lat="48.11124" lon="-3.58225">
        <ele>214</ele>
        <time>2025-02-25T11:49:22Z</time>
      </trkpt>
      <trkpt lat="48.11123" lon="-3.58225">
        <ele>213.9</ele>
        <time>2025-02-25T11:49:23Z</time>
      </trkpt>
      <trkpt lat="48.11122" lon="-3.58224">
        <ele>213.8</ele>
        <time>2025-02-25T11:49:24Z</time>
      </trkpt>
      <trkpt lat="48.11121" lon="-3.58224">
        <ele>213.8</ele>
        <time>2025-02-25T11:49:25Z</time>
      </trkpt>
      <trkpt lat="48.1112" lon="-3.58223">
        <ele>213.7</ele>
        <time>2025-02-25T11:49:26Z</time>
      </trkpt>
      <trkpt lat="48.11119" lon="-3.58222">
        <ele>213.6</ele>
        <time>2025-02-25T11:49:27Z</time>
      </trkpt>
      <trkpt lat="48.11118" lon="-3.58222">
        <ele>213.5</ele>
        <time>2025-02-25T11:49:28Z</time>
      </trkpt>
      <trkpt lat="48.11117" lon="-3.58222">
        <ele>213.4</ele>
        <time>2025-02-25T11:49:29Z</time>
      </trkpt>
      <trkpt lat="48.11116" lon="-3.58221">
        <ele>213.3</ele>
        <time>2025-02-25T11:49:30Z</time>
      </trkpt>
      <trkpt lat="48.11115" lon="-3.58221">
        <ele>213.3</ele>
        <time>2025-02-25T11:49:31Z</time>
      </trkpt>
      <trkpt lat="48.11114" lon="-3.5822">
        <ele>213.2</ele>
        <time>2025-02-25T11:49:32Z</time>
      </trkpt>
      <trkpt lat="48.11113" lon="-3.58219">
        <ele>213.1</ele>
        <time>2025-02-25T11:49:33Z</time>
      </trkpt>
      <trkpt lat="48.11112" lon="-3.58219">
        <ele>213.1</ele>
        <time>2025-02-25T11:49:34Z</time>
      </trkpt>
      <trkpt lat="48.11111" lon="-3.58218">
        <ele>213</ele>
        <time>2025-02-25T11:49:35Z</time>
      </trkpt>
      <trkpt lat="48.1111" lon="-3.58218">
        <ele>212.9</ele>
        <time>2025-02-25T11:49:36Z</time>
      </trkpt>
      <trkpt lat="48.11109" lon="-3.58218">
        <ele>212.9</ele>
        <time>2025-02-25T11:49:37Z</time>
      </trkpt>
      <trkpt lat="48.11108" lon="-3.58217">
        <ele>212.8</ele>
        <time>2025-02-25T11:49:38Z</time>
      </trkpt>
      <trkpt lat="48.11107" lon="-3.58216">
        <ele>212.7</ele>
        <time>2025-02-25T11:49:39Z</time>
      </trkpt>
      <trkpt lat="48.11106" lon="-3.58215">
        <ele>212.7</ele>
        <time>2025-02-25T11:49:40Z</time>
      </trkpt>
      <trkpt lat="48.11105" lon="-3.58215">
        <ele>212.6</ele>
        <time>2025-02-25T11:49:41Z</time>
      </trkpt>
      <trkpt lat="48.11103" lon="-3.58215">
        <ele>212.5</ele>
        <time>2025-02-25T11:49:42Z</time>
      </trkpt>
      <trkpt lat="48.11102" lon="-3.58215">
        <ele>212.4</ele>
        <time>2025-02-25T11:49:43Z</time>
      </trkpt>
      <trkpt lat="48.11101" lon="-3.58215">
        <ele>212.4</ele>
        <time>2025-02-25T11:49:44Z</time>
      </trkpt>
      <trkpt lat="48.111" lon="-3.58214">
        <ele>212.3</ele>
        <time>2025-02-25T11:49:45Z</time>
      </trkpt>
      <trkpt lat="48.11099" lon="-3.58214">
        <ele>212.3</ele>
        <time>2025-02-25T11:49:46Z</time>
      </trkpt>
      <trkpt lat="48.11098" lon="-3.58214">
        <ele>212.2</ele>
        <time>2025-02-25T11:49:47Z</time>
      </trkpt>
      <trkpt lat="48.11096" lon="-3.58213">
        <ele>212.1</ele>
        <time>2025-02-25T11:49:48Z</time>
      </trkpt>
      <trkpt lat="48.11095" lon="-3.58213">
        <ele>212</ele>
        <time>2025-02-25T11:49:49Z</time>
      </trkpt>
      <trkpt lat="48.11094" lon="-3.58213">
        <ele>212</ele>
        <time>2025-02-25T11:49:50Z</time>
      </trkpt>
      <trkpt lat="48.11093" lon="-3.58213">
        <ele>211.9</ele>
        <time>2025-02-25T11:49:51Z</time>
      </trkpt>
      <trkpt lat="48.11091" lon="-3.58213">
        <ele>211.8</ele>
        <time>2025-02-25T11:49:52Z</time>
      </trkpt>
      <trkpt lat="48.1109" lon="-3.58212">
        <ele>211.8</ele>
        <time>2025-02-25T11:49:53Z</time>
      </trkpt>
      <trkpt lat="48.11088" lon="-3.58211">
        <ele>211.7</ele>
        <time>2025-02-25T11:49:54Z</time>
      </trkpt>
      <trkpt lat="48.11087" lon="-3.58211">
        <ele>211.6</ele>
        <time>2025-02-25T11:49:55Z</time>
      </trkpt>
      <trkpt lat="48.11086" lon="-3.58211">
        <ele>211.6</ele>
        <time>2025-02-25T11:49:56Z</time>
      </trkpt>
      <trkpt lat="48.11085" lon="-3.58211">
        <ele>211.5</ele>
        <time>2025-02-25T11:49:57Z</time>
      </trkpt>
      <trkpt lat="48.11084" lon="-3.5821">
        <ele>211.5</ele>
        <time>2025-02-25T11:49:58Z</time>
      </trkpt>
      <trkpt lat="48.11083" lon="-3.58211">
        <ele>211.4</ele>
        <time>2025-02-25T11:49:59Z</time>
      </trkpt>
      <trkpt lat="48.11082" lon="-3.58211">
        <ele>211.3</ele>
        <time>2025-02-25T11:50:00Z</time>
      </trkpt>
      <trkpt lat="48.11081" lon="-3.58211">
        <ele>211.2</ele>
        <time>2025-02-25T11:50:01Z</time>
      </trkpt>
      <trkpt lat="48.1108" lon="-3.5821">
        <ele>211.2</ele>
        <time>2025-02-25T11:50:02Z</time>
      </trkpt>
      <trkpt lat="48.11079" lon="-3.58209">
        <ele>211.2</ele>
        <time>2025-02-25T11:50:03Z</time>
      </trkpt>
      <trkpt lat="48.11078" lon="-3.58209">
        <ele>211.1</ele>
        <time>2025-02-25T11:50:04Z</time>
      </trkpt>
      <trkpt lat="48.11077" lon="-3.58208">
        <ele>211.1</ele>
        <time>2025-02-25T11:50:05Z</time>
      </trkpt>
      <trkpt lat="48.11076" lon="-3.58208">
        <ele>211</ele>
        <time>2025-02-25T11:50:06Z</time>
      </trkpt>
      <trkpt lat="48.11075" lon="-3.58207">
        <ele>210.9</ele>
        <time>2025-02-25T11:50:07Z</time>
      </trkpt>
      <trkpt lat="48.11074" lon="-3.58207">
        <ele>210.9</ele>
        <time>2025-02-25T11:50:08Z</time>
      </trkpt>
      <trkpt lat="48.11073" lon="-3.58208">
        <ele>210.8</ele>
        <time>2025-02-25T11:50:09Z</time>
      </trkpt>
      <trkpt lat="48.11071" lon="-3.58208">
        <ele>210.6</ele>
        <time>2025-02-25T11:50:10Z</time>
      </trkpt>
      <trkpt lat="48.1107" lon="-3.58207">
        <ele>210.6</ele>
        <time>2025-02-25T11:50:11Z</time>
      </trkpt>
      <trkpt lat="48.11069" lon="-3.58207">
        <ele>210.5</ele>
        <time>2025-02-25T11:50:12Z</time>
      </trkpt>
      <trkpt lat="48.11068" lon="-3.58207">
        <ele>210.4</ele>
        <time>2025-02-25T11:50:13Z</time>
      </trkpt>
      <trkpt lat="48.11067" lon="-3.58207">
        <ele>210.4</ele>
        <time>2025-02-25T11:50:14Z</time>
      </trkpt>
      <trkpt lat="48.11066" lon="-3.58207">
        <ele>210.3</ele>
        <time>2025-02-25T11:50:15Z</time>
      </trkpt>
      <trkpt lat="48.11065" lon="-3.58208">
        <ele>210.2</ele>
        <time>2025-02-25T11:50:16Z</time>
      </trkpt>
      <trkpt lat="48.11064" lon="-3.58207">
        <ele>210.2</ele>
        <time>2025-02-25T11:50:17Z</time>
      </trkpt>
      <trkpt lat="48.11063" lon="-3.58207">
        <ele>210.1</ele>
        <time>2025-02-25T11:50:18Z</time>
      </trkpt>
      <trkpt lat="48.11062" lon="-3.58207">
        <ele>210</ele>
        <time>2025-02-25T11:50:19Z</time>
      </trkpt>
      <trkpt lat="48.11061" lon="-3.58207">
        <ele>209.9</ele>
        <time>2025-02-25T11:50:20Z</time>
      </trkpt>
      <trkpt lat="48.11059" lon="-3.58207">
        <ele>209.8</ele>
        <time>2025-02-25T11:50:21Z</time>
      </trkpt>
      <trkpt lat="48.11058" lon="-3.58206">
        <ele>209.8</ele>
        <time>2025-02-25T11:50:22Z</time>
      </trkpt>
      <trkpt lat="48.11057" lon="-3.58206">
        <ele>209.7</ele>
        <time>2025-02-25T11:50:23Z</time>
      </trkpt>
      <trkpt lat="48.11056" lon="-3.58206">
        <ele>209.6</ele>
        <time>2025-02-25T11:50:24Z</time>
      </trkpt>
      <trkpt lat="48.11055" lon="-3.58206">
        <ele>209.6</ele>
        <time>2025-02-25T11:50:25Z</time>
      </trkpt>
      <trkpt lat="48.11053" lon="-3.58207">
        <ele>209.4</ele>
        <time>2025-02-25T11:50:26Z</time>
      </trkpt>
      <trkpt lat="48.11052" lon="-3.58206">
        <ele>209.4</ele>
        <time>2025-02-25T11:50:27Z</time>
      </trkpt>
      <trkpt lat="48.11051" lon="-3.58206">
        <ele>209.3</ele>
        <time>2025-02-25T11:50:28Z</time>
      </trkpt>
      <trkpt lat="48.1105" lon="-3.58205">
        <ele>209.3</ele>
        <time>2025-02-25T11:50:29Z</time>
      </trkpt>
      <trkpt lat="48.11048" lon="-3.58205">
        <ele>209.2</ele>
        <time>2025-02-25T11:50:30Z</time>
      </trkpt>
      <trkpt lat="48.11047" lon="-3.58205">
        <ele>209.1</ele>
        <time>2025-02-25T11:50:31Z</time>
      </trkpt>
      <trkpt lat="48.11046" lon="-3.58205">
        <ele>209.1</ele>
        <time>2025-02-25T11:50:32Z</time>
      </trkpt>
      <trkpt lat="48.11045" lon="-3.58205">
        <ele>209</ele>
        <time>2025-02-25T11:50:33Z</time>
      </trkpt>
      <trkpt lat="48.11044" lon="-3.58205">
        <ele>208.9</ele>
        <time>2025-02-25T11:50:34Z</time>
      </trkpt>
      <trkpt lat="48.11043" lon="-3.58205">
        <ele>208.9</ele>
        <time>2025-02-25T11:50:35Z</time>
      </trkpt>
      <trkpt lat="48.11041" lon="-3.58206">
        <ele>208.8</ele>
        <time>2025-02-25T11:50:36Z</time>
      </trkpt>
      <trkpt lat="48.1104" lon="-3.58205">
        <ele>208.7</ele>
        <time>2025-02-25T11:50:37Z</time>
      </trkpt>
      <trkpt lat="48.11039" lon="-3.58206">
        <ele>208.6</ele>
        <time>2025-02-25T11:50:38Z</time>
      </trkpt>
      <trkpt lat="48.11037" lon="-3.58206">
        <ele>208.5</ele>
        <time>2025-02-25T11:50:39Z</time>
      </trkpt>
      <trkpt lat="48.11036" lon="-3.58206">
        <ele>208.5</ele>
        <time>2025-02-25T11:50:40Z</time>
      </trkpt>
      <trkpt lat="48.11035" lon="-3.58206">
        <ele>208.4</ele>
        <time>2025-02-25T11:50:41Z</time>
      </trkpt>
      <trkpt lat="48.11034" lon="-3.58206">
        <ele>208.4</ele>
        <time>2025-02-25T11:50:42Z</time>
      </trkpt>
      <trkpt lat="48.11033" lon="-3.58205">
        <ele>208.3</ele>
        <time>2025-02-25T11:50:43Z</time>
      </trkpt>
      <trkpt lat="48.11031" lon="-3.58205">
        <ele>208.2</ele>
        <time>2025-02-25T11:50:44Z</time>
      </trkpt>
      <trkpt lat="48.1103" lon="-3.58206">
        <ele>208.1</ele>
        <time>2025-02-25T11:50:45Z</time>
      </trkpt>
      <trkpt lat="48.11029" lon="-3.58206">
        <ele>208.1</ele>
        <time>2025-02-25T11:50:46Z</time>
      </trkpt>
      <trkpt lat="48.11028" lon="-3.58207">
        <ele>208</ele>
        <time>2025-02-25T11:50:47Z</time>
      </trkpt>
      <trkpt lat="48.11026" lon="-3.58207">
        <ele>207.9</ele>
        <time>2025-02-25T11:50:48Z</time>
      </trkpt>
      <trkpt lat="48.11025" lon="-3.58206">
        <ele>207.8</ele>
        <time>2025-02-25T11:50:49Z</time>
      </trkpt>
      <trkpt lat="48.11024" lon="-3.58206">
        <ele>207.7</ele>
        <time>2025-02-25T11:50:50Z</time>
      </trkpt>
      <trkpt lat="48.11023" lon="-3.58207">
        <ele>207.7</ele>
        <time>2025-02-25T11:50:51Z</time>
      </trkpt>
      <trkpt lat="48.11022" lon="-3.58206">
        <ele>207.6</ele>
        <time>2025-02-25T11:50:52Z</time>
      </trkpt>
      <trkpt lat="48.1102" lon="-3.58206">
        <ele>207.4</ele>
        <time>2025-02-25T11:50:53Z</time>
      </trkpt>
      <trkpt lat="48.11019" lon="-3.58206">
        <ele>207.4</ele>
        <time>2025-02-25T11:50:54Z</time>
      </trkpt>
      <trkpt lat="48.11018" lon="-3.58206">
        <ele>207.3</ele>
        <time>2025-02-25T11:50:55Z</time>
      </trkpt>
      <trkpt lat="48.11017" lon="-3.58206">
        <ele>207.2</ele>
        <time>2025-02-25T11:50:56Z</time>
      </trkpt>
      <trkpt lat="48.11016" lon="-3.58206">
        <ele>207.2</ele>
        <time>2025-02-25T11:50:57Z</time>
      </trkpt>
      <trkpt lat="48.11015" lon="-3.58206">
        <ele>207.1</ele>
        <time>2025-02-25T11:50:58Z</time>
      </trkpt>
      <trkpt lat="48.11014" lon="-3.58207">
        <ele>207</ele>
        <time>2025-02-25T11:50:59Z</time>
      </trkpt>
      <trkpt lat="48.11013" lon="-3.58206">
        <ele>206.9</ele>
        <time>2025-02-25T11:51:00Z</time>
      </trkpt>
      <trkpt lat="48.11012" lon="-3.58205">
        <ele>206.9</ele>
        <time>2025-02-25T11:51:01Z</time>
      </trkpt>
      <trkpt lat="48.1101" lon="-3.58206">
        <ele>206.7</ele>
        <time>2025-02-25T11:51:02Z</time>
      </trkpt>
      <trkpt lat="48.11009" lon="-3.58206">
        <ele>206.6</ele>
        <time>2025-02-25T11:51:03Z</time>
      </trkpt>
      <trkpt lat="48.11008" lon="-3.58206">
        <ele>206.6</ele>
        <time>2025-02-25T11:51:04Z</time>
      </trkpt>
      <trkpt lat="48.11007" lon="-3.58206">
        <ele>206.5</ele>
        <time>2025-02-25T11:51:05Z</time>
      </trkpt>
      <trkpt lat="48.11006" lon="-3.58206">
        <ele>206.4</ele>
        <time>2025-02-25T11:51:06Z</time>
      </trkpt>
      <trkpt lat="48.11005" lon="-3.58207">
        <ele>206.4</ele>
        <time>2025-02-25T11:51:07Z</time>
      </trkpt>
      <trkpt lat="48.11004" lon="-3.58207">
        <ele>206.3</ele>
        <time>2025-02-25T11:51:08Z</time>
      </trkpt>
      <trkpt lat="48.11003" lon="-3.58207">
        <ele>206.2</ele>
        <time>2025-02-25T11:51:09Z</time>
      </trkpt>
      <trkpt lat="48.11001" lon="-3.58207">
        <ele>206.1</ele>
        <time>2025-02-25T11:51:10Z</time>
      </trkpt>
      <trkpt lat="48.11" lon="-3.58207">
        <ele>206</ele>
        <time>2025-02-25T11:51:11Z</time>
      </trkpt>
      <trkpt lat="48.10999" lon="-3.58207">
        <ele>205.9</ele>
        <time>2025-02-25T11:51:12Z</time>
      </trkpt>
      <trkpt lat="48.10998" lon="-3.58207">
        <ele>205.9</ele>
        <time>2025-02-25T11:51:13Z</time>
      </trkpt>
      <trkpt lat="48.10997" lon="-3.58207">
        <ele>205.8</ele>
        <time>2025-02-25T11:51:14Z</time>
      </trkpt>
      <trkpt lat="48.10995" lon="-3.58207">
        <ele>205.7</ele>
        <time>2025-02-25T11:51:15Z</time>
      </trkpt>
      <trkpt lat="48.10994" lon="-3.58206">
        <ele>205.7</ele>
        <time>2025-02-25T11:51:16Z</time>
      </trkpt>
      <trkpt lat="48.10993" lon="-3.58205">
        <ele>205.6</ele>
        <time>2025-02-25T11:51:17Z</time>
      </trkpt>
      <trkpt lat="48.10992" lon="-3.58206">
        <ele>205.5</ele>
        <time>2025-02-25T11:51:18Z</time>
      </trkpt>
      <trkpt lat="48.10991" lon="-3.58206">
        <ele>205.5</ele>
        <time>2025-02-25T11:51:19Z</time>
      </trkpt>
      <trkpt lat="48.1099" lon="-3.58206">
        <ele>205.4</ele>
        <time>2025-02-25T11:51:20Z</time>
      </trkpt>
      <trkpt lat="48.10989" lon="-3.58206">
        <ele>205.4</ele>
        <time>2025-02-25T11:51:21Z</time>
      </trkpt>
      <trkpt lat="48.10987" lon="-3.58206">
        <ele>205.3</ele>
        <time>2025-02-25T11:51:22Z</time>
      </trkpt>
      <trkpt lat="48.10986" lon="-3.58206">
        <ele>205.2</ele>
        <time>2025-02-25T11:51:23Z</time>
      </trkpt>
      <trkpt lat="48.10985" lon="-3.58206">
        <ele>205.1</ele>
        <time>2025-02-25T11:51:24Z</time>
      </trkpt>
      <trkpt lat="48.10984" lon="-3.58206">
        <ele>205.1</ele>
        <time>2025-02-25T11:51:25Z</time>
      </trkpt>
      <trkpt lat="48.10983" lon="-3.58205">
        <ele>205</ele>
        <time>2025-02-25T11:51:26Z</time>
      </trkpt>
      <trkpt lat="48.10982" lon="-3.58205">
        <ele>205</ele>
        <time>2025-02-25T11:51:27Z</time>
      </trkpt>
      <trkpt lat="48.10981" lon="-3.58204">
        <ele>204.9</ele>
        <time>2025-02-25T11:51:28Z</time>
      </trkpt>
      <trkpt lat="48.1098" lon="-3.58205">
        <ele>204.8</ele>
        <time>2025-02-25T11:51:29Z</time>
      </trkpt>
      <trkpt lat="48.10979" lon="-3.58205">
        <ele>204.8</ele>
        <time>2025-02-25T11:51:30Z</time>
      </trkpt>
      <trkpt lat="48.10978" lon="-3.58205">
        <ele>204.7</ele>
        <time>2025-02-25T11:51:31Z</time>
      </trkpt>
      <trkpt lat="48.10976" lon="-3.58204">
        <ele>204.6</ele>
        <time>2025-02-25T11:51:32Z</time>
      </trkpt>
      <trkpt lat="48.10975" lon="-3.58205">
        <ele>204.5</ele>
        <time>2025-02-25T11:51:33Z</time>
      </trkpt>
      <trkpt lat="48.10974" lon="-3.58205">
        <ele>204.5</ele>
        <time>2025-02-25T11:51:34Z</time>
      </trkpt>
      <trkpt lat="48.10973" lon="-3.58205">
        <ele>204.4</ele>
        <time>2025-02-25T11:51:35Z</time>
      </trkpt>
      <trkpt lat="48.10972" lon="-3.58204">
        <ele>204.3</ele>
        <time>2025-02-25T11:51:36Z</time>
      </trkpt>
      <trkpt lat="48.10971" lon="-3.58204">
        <ele>204.3</ele>
        <time>2025-02-25T11:51:37Z</time>
      </trkpt>
      <trkpt lat="48.1097" lon="-3.58203">
        <ele>204.2</ele>
        <time>2025-02-25T11:51:38Z</time>
      </trkpt>
      <trkpt lat="48.10969" lon="-3.58203">
        <ele>204.1</ele>
        <time>2025-02-25T11:51:39Z</time>
      </trkpt>
      <trkpt lat="48.10968" lon="-3.58202">
        <ele>204</ele>
        <time>2025-02-25T11:51:40Z</time>
      </trkpt>
      <trkpt lat="48.10967" lon="-3.58201">
        <ele>203.9</ele>
        <time>2025-02-25T11:51:41Z</time>
      </trkpt>
      <trkpt lat="48.10966" lon="-3.58201">
        <ele>203.8</ele>
        <time>2025-02-25T11:51:42Z</time>
      </trkpt>
      <trkpt lat="48.10964" lon="-3.58201">
        <ele>203.7</ele>
        <time>2025-02-25T11:51:43Z</time>
      </trkpt>
      <trkpt lat="48.10963" lon="-3.582">
        <ele>203.6</ele>
        <time>2025-02-25T11:51:44Z</time>
      </trkpt>
      <trkpt lat="48.10962" lon="-3.58199">
        <ele>203.5</ele>
        <time>2025-02-25T11:51:45Z</time>
      </trkpt>
      <trkpt lat="48.10961" lon="-3.58197">
        <ele>203.3</ele>
        <time>2025-02-25T11:51:46Z</time>
      </trkpt>
      <trkpt lat="48.1096" lon="-3.58196">
        <ele>203.2</ele>
        <time>2025-02-25T11:51:47Z</time>
      </trkpt>
      <trkpt lat="48.10959" lon="-3.58195">
        <ele>203.1</ele>
        <time>2025-02-25T11:51:48Z</time>
      </trkpt>
      <trkpt lat="48.10958" lon="-3.58195">
        <ele>203</ele>
        <time>2025-02-25T11:51:49Z</time>
      </trkpt>
      <trkpt lat="48.10957" lon="-3.58194">
        <ele>202.9</ele>
        <time>2025-02-25T11:51:50Z</time>
      </trkpt>
      <trkpt lat="48.10956" lon="-3.58193">
        <ele>202.8</ele>
        <time>2025-02-25T11:51:51Z</time>
      </trkpt>
      <trkpt lat="48.10955" lon="-3.58193">
        <ele>202.7</ele>
        <time>2025-02-25T11:51:52Z</time>
      </trkpt>
      <trkpt lat="48.10954" lon="-3.58192">
        <ele>202.6</ele>
        <time>2025-02-25T11:51:53Z</time>
      </trkpt>
      <trkpt lat="48.10953" lon="-3.58191">
        <ele>202.5</ele>
        <time>2025-02-25T11:51:54Z</time>
      </trkpt>
      <trkpt lat="48.10952" lon="-3.5819">
        <ele>202.4</ele>
        <time>2025-02-25T11:51:55Z</time>
      </trkpt>
      <trkpt lat="48.10951" lon="-3.58188">
        <ele>202.3</ele>
        <time>2025-02-25T11:51:56Z</time>
      </trkpt>
      <trkpt lat="48.1095" lon="-3.58188">
        <ele>202.2</ele>
        <time>2025-02-25T11:51:57Z</time>
      </trkpt>
      <trkpt lat="48.10949" lon="-3.58187">
        <ele>202.1</ele>
        <time>2025-02-25T11:51:58Z</time>
      </trkpt>
      <trkpt lat="48.10948" lon="-3.58186">
        <ele>202</ele>
        <time>2025-02-25T11:51:59Z</time>
      </trkpt>
      <trkpt lat="48.10948" lon="-3.58184">
        <ele>201.9</ele>
        <time>2025-02-25T11:52:00Z</time>
      </trkpt>
      <trkpt lat="48.10947" lon="-3.58183">
        <ele>201.8</ele>
        <time>2025-02-25T11:52:01Z</time>
      </trkpt>
      <trkpt lat="48.10946" lon="-3.58182">
        <ele>201.7</ele>
        <time>2025-02-25T11:52:02Z</time>
      </trkpt>
      <trkpt lat="48.10945" lon="-3.5818">
        <ele>201.5</ele>
        <time>2025-02-25T11:52:03Z</time>
      </trkpt>
      <trkpt lat="48.10945" lon="-3.58179">
        <ele>201.5</ele>
        <time>2025-02-25T11:52:04Z</time>
      </trkpt>
      <trkpt lat="48.10944" lon="-3.58177">
        <ele>201.4</ele>
        <time>2025-02-25T11:52:05Z</time>
      </trkpt>
      <trkpt lat="48.10943" lon="-3.58176">
        <ele>201.3</ele>
        <time>2025-02-25T11:52:06Z</time>
      </trkpt>
      <trkpt lat="48.10942" lon="-3.58175">
        <ele>201.2</ele>
        <time>2025-02-25T11:52:07Z</time>
      </trkpt>
      <trkpt lat="48.10942" lon="-3.58175">
        <ele>201.2</ele>
        <time>2025-02-25T11:52:08Z</time>
      </trkpt>
      <trkpt lat="48.10941" lon="-3.58174">
        <ele>201.1</ele>
        <time>2025-02-25T11:52:09Z</time>
      </trkpt>
      <trkpt lat="48.10939" lon="-3.58174">
        <ele>201.1</ele>
        <time>2025-02-25T11:52:10Z</time>
      </trkpt>
      <trkpt lat="48.10938" lon="-3.58173">
        <ele>201</ele>
        <time>2025-02-25T11:52:11Z</time>
      </trkpt>
      <trkpt lat="48.10937" lon="-3.58173">
        <ele>201</ele>
        <time>2025-02-25T11:52:12Z</time>
      </trkpt>
      <trkpt lat="48.10936" lon="-3.58172">
        <ele>200.9</ele>
        <time>2025-02-25T11:52:13Z</time>
      </trkpt>
      <trkpt lat="48.10935" lon="-3.58172">
        <ele>200.9</ele>
        <time>2025-02-25T11:52:14Z</time>
      </trkpt>
      <trkpt lat="48.10934" lon="-3.58172">
        <ele>200.8</ele>
        <time>2025-02-25T11:52:15Z</time>
      </trkpt>
      <trkpt lat="48.10933" lon="-3.58172">
        <ele>200.8</ele>
        <time>2025-02-25T11:52:16Z</time>
      </trkpt>
      <trkpt lat="48.10932" lon="-3.58172">
        <ele>200.7</ele>
        <time>2025-02-25T11:52:17Z</time>
      </trkpt>
      <trkpt lat="48.10931" lon="-3.58172">
        <ele>200.7</ele>
        <time>2025-02-25T11:52:18Z</time>
      </trkpt>
      <trkpt lat="48.10929" lon="-3.58171">
        <ele>200.6</ele>
        <time>2025-02-25T11:52:19Z</time>
      </trkpt>
      <trkpt lat="48.10928" lon="-3.58171">
        <ele>200.6</ele>
        <time>2025-02-25T11:52:20Z</time>
      </trkpt>
      <trkpt lat="48.10927" lon="-3.58171">
        <ele>200.5</ele>
        <time>2025-02-25T11:52:21Z</time>
      </trkpt>
      <trkpt lat="48.10926" lon="-3.5817">
        <ele>200.5</ele>
        <time>2025-02-25T11:52:22Z</time>
      </trkpt>
      <trkpt lat="48.10925" lon="-3.58169">
        <ele>200.4</ele>
        <time>2025-02-25T11:52:23Z</time>
      </trkpt>
      <trkpt lat="48.10924" lon="-3.58168">
        <ele>200.3</ele>
        <time>2025-02-25T11:52:24Z</time>
      </trkpt>
      <trkpt lat="48.10923" lon="-3.58168">
        <ele>200.3</ele>
        <time>2025-02-25T11:52:25Z</time>
      </trkpt>
      <trkpt lat="48.10922" lon="-3.58168">
        <ele>200.2</ele>
        <time>2025-02-25T11:52:26Z</time>
      </trkpt>
      <trkpt lat="48.10921" lon="-3.58168">
        <ele>200.2</ele>
        <time>2025-02-25T11:52:27Z</time>
      </trkpt>
      <trkpt lat="48.1092" lon="-3.58168">
        <ele>200.2</ele>
        <time>2025-02-25T11:52:28Z</time>
      </trkpt>
      <trkpt lat="48.10919" lon="-3.58167">
        <ele>200.1</ele>
        <time>2025-02-25T11:52:29Z</time>
      </trkpt>
      <trkpt lat="48.10918" lon="-3.58167">
        <ele>200.1</ele>
        <time>2025-02-25T11:52:30Z</time>
      </trkpt>
      <trkpt lat="48.10917" lon="-3.58167">
        <ele>200</ele>
        <time>2025-02-25T11:52:31Z</time>
      </trkpt>
      <trkpt lat="48.10916" lon="-3.58167">
        <ele>200</ele>
        <time>2025-02-25T11:52:32Z</time>
      </trkpt>
      <trkpt lat="48.10915" lon="-3.58167">
        <ele>200</ele>
        <time>2025-02-25T11:52:33Z</time>
      </trkpt>
      <trkpt lat="48.10913" lon="-3.58166">
        <ele>199.8</ele>
        <time>2025-02-25T11:52:34Z</time>
      </trkpt>
      <trkpt lat="48.10912" lon="-3.58166">
        <ele>199.8</ele>
        <time>2025-02-25T11:52:35Z</time>
      </trkpt>
      <trkpt lat="48.10911" lon="-3.58165">
        <ele>199.7</ele>
        <time>2025-02-25T11:52:36Z</time>
      </trkpt>
      <trkpt lat="48.1091" lon="-3.58165">
        <ele>199.7</ele>
        <time>2025-02-25T11:52:37Z</time>
      </trkpt>
      <trkpt lat="48.10909" lon="-3.58165">
        <ele>199.7</ele>
        <time>2025-02-25T11:52:38Z</time>
      </trkpt>
      <trkpt lat="48.10908" lon="-3.58165">
        <ele>199.6</ele>
        <time>2025-02-25T11:52:39Z</time>
      </trkpt>
      <trkpt lat="48.10907" lon="-3.58164">
        <ele>199.6</ele>
        <time>2025-02-25T11:52:40Z</time>
      </trkpt>
      <trkpt lat="48.10906" lon="-3.58164">
        <ele>199.5</ele>
        <time>2025-02-25T11:52:41Z</time>
      </trkpt>
      <trkpt lat="48.10904" lon="-3.58163">
        <ele>199.4</ele>
        <time>2025-02-25T11:52:42Z</time>
      </trkpt>
      <trkpt lat="48.10903" lon="-3.58163">
        <ele>199.4</ele>
        <time>2025-02-25T11:52:43Z</time>
      </trkpt>
      <trkpt lat="48.10902" lon="-3.58162">
        <ele>199.3</ele>
        <time>2025-02-25T11:52:44Z</time>
      </trkpt>
      <trkpt lat="48.10901" lon="-3.58162">
        <ele>199.3</ele>
        <time>2025-02-25T11:52:45Z</time>
      </trkpt>
      <trkpt lat="48.109" lon="-3.58162">
        <ele>199.2</ele>
        <time>2025-02-25T11:52:46Z</time>
      </trkpt>
      <trkpt lat="48.10899" lon="-3.58162">
        <ele>199.2</ele>
        <time>2025-02-25T11:52:47Z</time>
      </trkpt>
      <trkpt lat="48.10898" lon="-3.58161">
        <ele>199.1</ele>
        <time>2025-02-25T11:52:48Z</time>
      </trkpt>
      <trkpt lat="48.10897" lon="-3.58161">
        <ele>199.1</ele>
        <time>2025-02-25T11:52:49Z</time>
      </trkpt>
      <trkpt lat="48.10896" lon="-3.58161">
        <ele>199.1</ele>
        <time>2025-02-25T11:52:50Z</time>
      </trkpt>
      <trkpt lat="48.10895" lon="-3.5816">
        <ele>199</ele>
        <time>2025-02-25T11:52:51Z</time>
      </trkpt>
      <trkpt lat="48.10894" lon="-3.58159">
        <ele>198.9</ele>
        <time>2025-02-25T11:52:52Z</time>
      </trkpt>
      <trkpt lat="48.10893" lon="-3.58159">
        <ele>198.9</ele>
        <time>2025-02-25T11:52:53Z</time>
      </trkpt>
      <trkpt lat="48.10892" lon="-3.58159">
        <ele>198.8</ele>
        <time>2025-02-25T11:52:54Z</time>
      </trkpt>
      <trkpt lat="48.10891" lon="-3.58158">
        <ele>198.8</ele>
        <time>2025-02-25T11:52:55Z</time>
      </trkpt>
      <trkpt lat="48.1089" lon="-3.58157">
        <ele>198.7</ele>
        <time>2025-02-25T11:52:56Z</time>
      </trkpt>
      <trkpt lat="48.10888" lon="-3.58157">
        <ele>198.7</ele>
        <time>2025-02-25T11:52:57Z</time>
      </trkpt>
      <trkpt lat="48.10887" lon="-3.58157">
        <ele>198.7</ele>
        <time>2025-02-25T11:52:58Z</time>
      </trkpt>
      <trkpt lat="48.10886" lon="-3.58156">
        <ele>198.6</ele>
        <time>2025-02-25T11:52:59Z</time>
      </trkpt>
      <trkpt lat="48.10885" lon="-3.58156">
        <ele>198.6</ele>
        <time>2025-02-25T11:53:00Z</time>
      </trkpt>
      <trkpt lat="48.10884" lon="-3.58156">
        <ele>198.6</ele>
        <time>2025-02-25T11:53:01Z</time>
      </trkpt>
      <trkpt lat="48.10883" lon="-3.58155">
        <ele>198.6</ele>
        <time>2025-02-25T11:53:02Z</time>
      </trkpt>
      <trkpt lat="48.10882" lon="-3.58154">
        <ele>198.5</ele>
        <time>2025-02-25T11:53:03Z</time>
      </trkpt>
      <trkpt lat="48.10881" lon="-3.58154">
        <ele>198.5</ele>
        <time>2025-02-25T11:53:04Z</time>
      </trkpt>
      <trkpt lat="48.1088" lon="-3.58154">
        <ele>198.5</ele>
        <time>2025-02-25T11:53:05Z</time>
      </trkpt>
      <trkpt lat="48.10879" lon="-3.58153">
        <ele>198.5</ele>
        <time>2025-02-25T11:53:06Z</time>
      </trkpt>
      <trkpt lat="48.10877" lon="-3.58152">
        <ele>198.5</ele>
        <time>2025-02-25T11:53:07Z</time>
      </trkpt>
      <trkpt lat="48.10876" lon="-3.58152">
        <ele>198.5</ele>
        <time>2025-02-25T11:53:08Z</time>
      </trkpt>
      <trkpt lat="48.10875" lon="-3.58152">
        <ele>198.5</ele>
        <time>2025-02-25T11:53:09Z</time>
      </trkpt>
      <trkpt lat="48.10874" lon="-3.58151">
        <ele>198.4</ele>
        <time>2025-02-25T11:53:10Z</time>
      </trkpt>
      <trkpt lat="48.10873" lon="-3.58151">
        <ele>198.4</ele>
        <time>2025-02-25T11:53:11Z</time>
      </trkpt>
      <trkpt lat="48.10872" lon="-3.5815">
        <ele>198.4</ele>
        <time>2025-02-25T11:53:12Z</time>
      </trkpt>
      <trkpt lat="48.10871" lon="-3.5815">
        <ele>198.4</ele>
        <time>2025-02-25T11:53:13Z</time>
      </trkpt>
      <trkpt lat="48.1087" lon="-3.58149">
        <ele>198.4</ele>
        <time>2025-02-25T11:53:14Z</time>
      </trkpt>
      <trkpt lat="48.10869" lon="-3.58149">
        <ele>198.4</ele>
        <time>2025-02-25T11:53:15Z</time>
      </trkpt>
      <trkpt lat="48.10868" lon="-3.58148">
        <ele>198.3</ele>
        <time>2025-02-25T11:53:16Z</time>
      </trkpt>
      <trkpt lat="48.10867" lon="-3.58147">
        <ele>198.3</ele>
        <time>2025-02-25T11:53:17Z</time>
      </trkpt>
      <trkpt lat="48.10866" lon="-3.58147">
        <ele>198.3</ele>
        <time>2025-02-25T11:53:18Z</time>
      </trkpt>
      <trkpt lat="48.10865" lon="-3.58146">
        <ele>198.3</ele>
        <time>2025-02-25T11:53:19Z</time>
      </trkpt>
      <trkpt lat="48.10864" lon="-3.58145">
        <ele>198.2</ele>
        <time>2025-02-25T11:53:20Z</time>
      </trkpt>
      <trkpt lat="48.10863" lon="-3.58145">
        <ele>198.2</ele>
        <time>2025-02-25T11:53:21Z</time>
      </trkpt>
      <trkpt lat="48.10862" lon="-3.58144">
        <ele>198.2</ele>
        <time>2025-02-25T11:53:22Z</time>
      </trkpt>
      <trkpt lat="48.10861" lon="-3.58143">
        <ele>198.1</ele>
        <time>2025-02-25T11:53:23Z</time>
      </trkpt>
      <trkpt lat="48.1086" lon="-3.58142">
        <ele>198.1</ele>
        <time>2025-02-25T11:53:24Z</time>
      </trkpt>
      <trkpt lat="48.10859" lon="-3.58141">
        <ele>198.1</ele>
        <time>2025-02-25T11:53:25Z</time>
      </trkpt>
      <trkpt lat="48.10858" lon="-3.5814">
        <ele>198</ele>
        <time>2025-02-25T11:53:26Z</time>
      </trkpt>
      <trkpt lat="48.10857" lon="-3.58139">
        <ele>198</ele>
        <time>2025-02-25T11:53:27Z</time>
      </trkpt>
      <trkpt lat="48.10856" lon="-3.58138">
        <ele>198</ele>
        <time>2025-02-25T11:53:28Z</time>
      </trkpt>
      <trkpt lat="48.10855" lon="-3.58138">
        <ele>198</ele>
        <time>2025-02-25T11:53:29Z</time>
      </trkpt>
      <trkpt lat="48.10854" lon="-3.58137">
        <ele>197.9</ele>
        <time>2025-02-25T11:53:30Z</time>
      </trkpt>
      <trkpt lat="48.10853" lon="-3.58136">
        <ele>197.9</ele>
        <time>2025-02-25T11:53:31Z</time>
      </trkpt>
      <trkpt lat="48.10852" lon="-3.58136">
        <ele>197.9</ele>
        <time>2025-02-25T11:53:32Z</time>
      </trkpt>
      <trkpt lat="48.10851" lon="-3.58135">
        <ele>197.9</ele>
        <time>2025-02-25T11:53:33Z</time>
      </trkpt>
      <trkpt lat="48.1085" lon="-3.58134">
        <ele>197.8</ele>
        <time>2025-02-25T11:53:34Z</time>
      </trkpt>
      <trkpt lat="48.10849" lon="-3.58133">
        <ele>197.8</ele>
        <time>2025-02-25T11:53:35Z</time>
      </trkpt>
      <trkpt lat="48.10848" lon="-3.58132">
        <ele>197.8</ele>
        <time>2025-02-25T11:53:36Z</time>
      </trkpt>
      <trkpt lat="48.10847" lon="-3.5813">
        <ele>197.7</ele>
        <time>2025-02-25T11:53:37Z</time>
      </trkpt>
      <trkpt lat="48.10846" lon="-3.58129">
        <ele>197.6</ele>
        <time>2025-02-25T11:53:38Z</time>
      </trkpt>
      <trkpt lat="48.10845" lon="-3.58128">
        <ele>197.6</ele>
        <time>2025-02-25T11:53:39Z</time>
      </trkpt>
      <trkpt lat="48.10844" lon="-3.58127">
        <ele>197.6</ele>
        <time>2025-02-25T11:53:40Z</time>
      </trkpt>
      <trkpt lat="48.10843" lon="-3.58126">
        <ele>197.5</ele>
        <time>2025-02-25T11:53:41Z</time>
      </trkpt>
      <trkpt lat="48.10842" lon="-3.58125">
        <ele>197.5</ele>
        <time>2025-02-25T11:53:42Z</time>
      </trkpt>
      <trkpt lat="48.10841" lon="-3.58124">
        <ele>197.5</ele>
        <time>2025-02-25T11:53:43Z</time>
      </trkpt>
      <trkpt lat="48.1084" lon="-3.58123">
        <ele>197.4</ele>
        <time>2025-02-25T11:53:44Z</time>
      </trkpt>
      <trkpt lat="48.1084" lon="-3.58122">
        <ele>197.4</ele>
        <time>2025-02-25T11:53:45Z</time>
      </trkpt>
      <trkpt lat="48.10839" lon="-3.58121">
        <ele>197.4</ele>
        <time>2025-02-25T11:53:46Z</time>
      </trkpt>
      <trkpt lat="48.10838" lon="-3.58119">
        <ele>197.3</ele>
        <time>2025-02-25T11:53:47Z</time>
      </trkpt>
      <trkpt lat="48.10837" lon="-3.58118">
        <ele>197.2</ele>
        <time>2025-02-25T11:53:48Z</time>
      </trkpt>
      <trkpt lat="48.10837" lon="-3.58116">
        <ele>197.2</ele>
        <time>2025-02-25T11:53:49Z</time>
      </trkpt>
      <trkpt lat="48.10836" lon="-3.58114">
        <ele>197.1</ele>
        <time>2025-02-25T11:53:50Z</time>
      </trkpt>
      <trkpt lat="48.10835" lon="-3.58113">
        <ele>197.1</ele>
        <time>2025-02-25T11:53:51Z</time>
      </trkpt>
      <trkpt lat="48.10835" lon="-3.58111">
        <ele>197</ele>
        <time>2025-02-25T11:53:52Z</time>
      </trkpt>
      <trkpt lat="48.10835" lon="-3.58109">
        <ele>196.8</ele>
        <time>2025-02-25T11:53:53Z</time>
      </trkpt>
      <trkpt lat="48.10834" lon="-3.58108">
        <ele>196.8</ele>
        <time>2025-02-25T11:53:54Z</time>
      </trkpt>
      <trkpt lat="48.10833" lon="-3.58107">
        <ele>196.7</ele>
        <time>2025-02-25T11:53:55Z</time>
      </trkpt>
      <trkpt lat="48.10832" lon="-3.58105">
        <ele>196.6</ele>
        <time>2025-02-25T11:53:56Z</time>
      </trkpt>
      <trkpt lat="48.10832" lon="-3.58103">
        <ele>196.4</ele>
        <time>2025-02-25T11:53:57Z</time>
      </trkpt>
      <trkpt lat="48.10832" lon="-3.58102">
        <ele>196.4</ele>
        <time>2025-02-25T11:53:58Z</time>
      </trkpt>
      <trkpt lat="48.10831" lon="-3.581">
        <ele>196.2</ele>
        <time>2025-02-25T11:53:59Z</time>
      </trkpt>
      <trkpt lat="48.1083" lon="-3.58098">
        <ele>196.1</ele>
        <time>2025-02-25T11:54:00Z</time>
      </trkpt>
      <trkpt lat="48.1083" lon="-3.58097">
        <ele>196</ele>
        <time>2025-02-25T11:54:01Z</time>
      </trkpt>
      <trkpt lat="48.10829" lon="-3.58095">
        <ele>195.9</ele>
        <time>2025-02-25T11:54:02Z</time>
      </trkpt>
      <trkpt lat="48.10828" lon="-3.58094">
        <ele>195.9</ele>
        <time>2025-02-25T11:54:03Z</time>
      </trkpt>
      <trkpt lat="48.10828" lon="-3.58092">
        <ele>195.8</ele>
        <time>2025-02-25T11:54:04Z</time>
      </trkpt>
      <trkpt lat="48.10828" lon="-3.5809">
        <ele>195.6</ele>
        <time>2025-02-25T11:54:05Z</time>
      </trkpt>
      <trkpt lat="48.10827" lon="-3.58089">
        <ele>195.6</ele>
        <time>2025-02-25T11:54:06Z</time>
      </trkpt>
      <trkpt lat="48.10827" lon="-3.58087">
        <ele>195.5</ele>
        <time>2025-02-25T11:54:07Z</time>
      </trkpt>
      <trkpt lat="48.10826" lon="-3.58085">
        <ele>195.4</ele>
        <time>2025-02-25T11:54:08Z</time>
      </trkpt>
      <trkpt lat="48.10826" lon="-3.58084">
        <ele>195.3</ele>
        <time>2025-02-25T11:54:09Z</time>
      </trkpt>
      <trkpt lat="48.10825" lon="-3.58082">
        <ele>195.2</ele>
        <time>2025-02-25T11:54:10Z</time>
      </trkpt>
      <trkpt lat="48.10825" lon="-3.58081">
        <ele>195.1</ele>
        <time>2025-02-25T11:54:11Z</time>
      </trkpt>
      <trkpt lat="48.10824" lon="-3.58079">
        <ele>195</ele>
        <time>2025-02-25T11:54:12Z</time>
      </trkpt>
      <trkpt lat="48.10824" lon="-3.58078">
        <ele>195</ele>
        <time>2025-02-25T11:54:13Z</time>
      </trkpt>
      <trkpt lat="48.10823" lon="-3.58076">
        <ele>194.8</ele>
        <time>2025-02-25T11:54:14Z</time>
      </trkpt>
      <trkpt lat="48.10822" lon="-3.58074">
        <ele>194.7</ele>
        <time>2025-02-25T11:54:15Z</time>
      </trkpt>
      <trkpt lat="48.10822" lon="-3.58073">
        <ele>194.7</ele>
        <time>2025-02-25T11:54:16Z</time>
      </trkpt>
      <trkpt lat="48.10821" lon="-3.58071">
        <ele>194.6</ele>
        <time>2025-02-25T11:54:17Z</time>
      </trkpt>
      <trkpt lat="48.10821" lon="-3.5807">
        <ele>194.5</ele>
        <time>2025-02-25T11:54:18Z</time>
      </trkpt>
      <trkpt lat="48.1082" lon="-3.58068">
        <ele>194.4</ele>
        <time>2025-02-25T11:54:19Z</time>
      </trkpt>
      <trkpt lat="48.10819" lon="-3.58067">
        <ele>194.3</ele>
        <time>2025-02-25T11:54:20Z</time>
      </trkpt>
      <trkpt lat="48.10818" lon="-3.58065">
        <ele>194.2</ele>
        <time>2025-02-25T11:54:21Z</time>
      </trkpt>
      <trkpt lat="48.10818" lon="-3.58063">
        <ele>194.1</ele>
        <time>2025-02-25T11:54:22Z</time>
      </trkpt>
      <trkpt lat="48.10818" lon="-3.58062">
        <ele>194</ele>
        <time>2025-02-25T11:54:23Z</time>
      </trkpt>
      <trkpt lat="48.10817" lon="-3.5806">
        <ele>193.9</ele>
        <time>2025-02-25T11:54:24Z</time>
      </trkpt>
      <trkpt lat="48.10817" lon="-3.58059">
        <ele>193.8</ele>
        <time>2025-02-25T11:54:25Z</time>
      </trkpt>
      <trkpt lat="48.10816" lon="-3.58057">
        <ele>193.7</ele>
        <time>2025-02-25T11:54:26Z</time>
      </trkpt>
      <trkpt lat="48.10816" lon="-3.58056">
        <ele>193.7</ele>
        <time>2025-02-25T11:54:27Z</time>
      </trkpt>
      <trkpt lat="48.10815" lon="-3.58055">
        <ele>193.6</ele>
        <time>2025-02-25T11:54:28Z</time>
      </trkpt>
      <trkpt lat="48.10815" lon="-3.58053">
        <ele>193.5</ele>
        <time>2025-02-25T11:54:29Z</time>
      </trkpt>
      <trkpt lat="48.10815" lon="-3.58051">
        <ele>193.4</ele>
        <time>2025-02-25T11:54:30Z</time>
      </trkpt>
      <trkpt lat="48.10815" lon="-3.5805">
        <ele>193.3</ele>
        <time>2025-02-25T11:54:31Z</time>
      </trkpt>
      <trkpt lat="48.10814" lon="-3.58048">
        <ele>193.3</ele>
        <time>2025-02-25T11:54:32Z</time>
      </trkpt>
      <trkpt lat="48.10814" lon="-3.58046">
        <ele>193.1</ele>
        <time>2025-02-25T11:54:33Z</time>
      </trkpt>
      <trkpt lat="48.10814" lon="-3.58044">
        <ele>193</ele>
        <time>2025-02-25T11:54:34Z</time>
      </trkpt>
      <trkpt lat="48.10814" lon="-3.58043">
        <ele>193</ele>
        <time>2025-02-25T11:54:35Z</time>
      </trkpt>
      <trkpt lat="48.10813" lon="-3.58041">
        <ele>192.9</ele>
        <time>2025-02-25T11:54:36Z</time>
      </trkpt>
      <trkpt lat="48.10812" lon="-3.5804">
        <ele>192.9</ele>
        <time>2025-02-25T11:54:37Z</time>
      </trkpt>
      <trkpt lat="48.10811" lon="-3.58039">
        <ele>193</ele>
        <time>2025-02-25T11:54:38Z</time>
      </trkpt>
      <trkpt lat="48.1081" lon="-3.58037">
        <ele>193</ele>
        <time>2025-02-25T11:54:39Z</time>
      </trkpt>
      <trkpt lat="48.10809" lon="-3.58036">
        <ele>193</ele>
        <time>2025-02-25T11:54:40Z</time>
      </trkpt>
      <trkpt lat="48.10808" lon="-3.58035">
        <ele>193</ele>
        <time>2025-02-25T11:54:41Z</time>
      </trkpt>
      <trkpt lat="48.10807" lon="-3.58035">
        <ele>193.1</ele>
        <time>2025-02-25T11:54:42Z</time>
      </trkpt>
      <trkpt lat="48.10806" lon="-3.58035">
        <ele>193.2</ele>
        <time>2025-02-25T11:54:43Z</time>
      </trkpt>
      <trkpt lat="48.10805" lon="-3.58034">
        <ele>193.2</ele>
        <time>2025-02-25T11:54:44Z</time>
      </trkpt>
      <trkpt lat="48.10804" lon="-3.58034">
        <ele>193.3</ele>
        <time>2025-02-25T11:54:45Z</time>
      </trkpt>
      <trkpt lat="48.10803" lon="-3.58033">
        <ele>193.3</ele>
        <time>2025-02-25T11:54:46Z</time>
      </trkpt>
      <trkpt lat="48.10802" lon="-3.58033">
        <ele>193.3</ele>
        <time>2025-02-25T11:54:47Z</time>
      </trkpt>
      <trkpt lat="48.10801" lon="-3.58032">
        <ele>193.3</ele>
        <time>2025-02-25T11:54:48Z</time>
      </trkpt>
      <trkpt lat="48.108" lon="-3.58031">
        <ele>193.3</ele>
        <time>2025-02-25T11:54:49Z</time>
      </trkpt>
      <trkpt lat="48.10799" lon="-3.58031">
        <ele>193.4</ele>
        <time>2025-02-25T11:54:50Z</time>
      </trkpt>
      <trkpt lat="48.10798" lon="-3.5803">
        <ele>193.4</ele>
        <time>2025-02-25T11:54:51Z</time>
      </trkpt>
      <trkpt lat="48.10797" lon="-3.58031">
        <ele>193.4</ele>
        <time>2025-02-25T11:54:52Z</time>
      </trkpt>
      <trkpt lat="48.10796" lon="-3.58031">
        <ele>193.5</ele>
        <time>2025-02-25T11:54:53Z</time>
      </trkpt>
      <trkpt lat="48.10795" lon="-3.5803">
        <ele>193.5</ele>
        <time>2025-02-25T11:54:54Z</time>
      </trkpt>
      <trkpt lat="48.10794" lon="-3.58029">
        <ele>193.5</ele>
        <time>2025-02-25T11:54:55Z</time>
      </trkpt>
      <trkpt lat="48.10793" lon="-3.58029">
        <ele>193.5</ele>
        <time>2025-02-25T11:54:56Z</time>
      </trkpt>
      <trkpt lat="48.10792" lon="-3.58029">
        <ele>193.5</ele>
        <time>2025-02-25T11:54:57Z</time>
      </trkpt>
      <trkpt lat="48.10791" lon="-3.58028">
        <ele>193.5</ele>
        <time>2025-02-25T11:54:58Z</time>
      </trkpt>
      <trkpt lat="48.10789" lon="-3.58028">
        <ele>193.6</ele>
        <time>2025-02-25T11:54:59Z</time>
      </trkpt>
      <trkpt lat="48.10788" lon="-3.58027">
        <ele>193.6</ele>
        <time>2025-02-25T11:55:00Z</time>
      </trkpt>
      <trkpt lat="48.10787" lon="-3.58026">
        <ele>193.6</ele>
        <time>2025-02-25T11:55:01Z</time>
      </trkpt>
      <trkpt lat="48.10786" lon="-3.58025">
        <ele>193.6</ele>
        <time>2025-02-25T11:55:02Z</time>
      </trkpt>
      <trkpt lat="48.10785" lon="-3.58025">
        <ele>193.7</ele>
        <time>2025-02-25T11:55:03Z</time>
      </trkpt>
      <trkpt lat="48.10784" lon="-3.58024">
        <ele>193.7</ele>
        <time>2025-02-25T11:55:04Z</time>
      </trkpt>
      <trkpt lat="48.10783" lon="-3.58024">
        <ele>193.8</ele>
        <time>2025-02-25T11:55:05Z</time>
      </trkpt>
      <trkpt lat="48.10782" lon="-3.58024">
        <ele>193.8</ele>
        <time>2025-02-25T11:55:06Z</time>
      </trkpt>
      <trkpt lat="48.1078" lon="-3.58023">
        <ele>193.9</ele>
        <time>2025-02-25T11:55:07Z</time>
      </trkpt>
      <trkpt lat="48.10779" lon="-3.58022">
        <ele>193.9</ele>
        <time>2025-02-25T11:55:08Z</time>
      </trkpt>
      <trkpt lat="48.10778" lon="-3.58022">
        <ele>194</ele>
        <time>2025-02-25T11:55:09Z</time>
      </trkpt>
      <trkpt lat="48.10777" lon="-3.58022">
        <ele>194.1</ele>
        <time>2025-02-25T11:55:10Z</time>
      </trkpt>
      <trkpt lat="48.10776" lon="-3.58021">
        <ele>194.1</ele>
        <time>2025-02-25T11:55:11Z</time>
      </trkpt>
      <trkpt lat="48.10775" lon="-3.58021">
        <ele>194.2</ele>
        <time>2025-02-25T11:55:12Z</time>
      </trkpt>
      <trkpt lat="48.10774" lon="-3.58021">
        <ele>194.2</ele>
        <time>2025-02-25T11:55:13Z</time>
      </trkpt>
      <trkpt lat="48.10773" lon="-3.58021">
        <ele>194.3</ele>
        <time>2025-02-25T11:55:14Z</time>
      </trkpt>
      <trkpt lat="48.10772" lon="-3.58021">
        <ele>194.4</ele>
        <time>2025-02-25T11:55:15Z</time>
      </trkpt>
      <trkpt lat="48.10771" lon="-3.58021">
        <ele>194.4</ele>
        <time>2025-02-25T11:55:16Z</time>
      </trkpt>
      <trkpt lat="48.10769" lon="-3.58021">
        <ele>194.6</ele>
        <time>2025-02-25T11:55:17Z</time>
      </trkpt>
      <trkpt lat="48.10768" lon="-3.5802">
        <ele>194.6</ele>
        <time>2025-02-25T11:55:18Z</time>
      </trkpt>
      <trkpt lat="48.10767" lon="-3.5802">
        <ele>194.7</ele>
        <time>2025-02-25T11:55:19Z</time>
      </trkpt>
      <trkpt lat="48.10766" lon="-3.5802">
        <ele>194.7</ele>
        <time>2025-02-25T11:55:20Z</time>
      </trkpt>
      <trkpt lat="48.10765" lon="-3.5802">
        <ele>194.8</ele>
        <time>2025-02-25T11:55:21Z</time>
      </trkpt>
      <trkpt lat="48.10764" lon="-3.5802">
        <ele>194.9</ele>
        <time>2025-02-25T11:55:22Z</time>
      </trkpt>
      <trkpt lat="48.10763" lon="-3.5802">
        <ele>194.9</ele>
        <time>2025-02-25T11:55:23Z</time>
      </trkpt>
      <trkpt lat="48.10761" lon="-3.5802">
        <ele>195</ele>
        <time>2025-02-25T11:55:24Z</time>
      </trkpt>
      <trkpt lat="48.1076" lon="-3.58019">
        <ele>195.1</ele>
        <time>2025-02-25T11:55:25Z</time>
      </trkpt>
      <trkpt lat="48.10759" lon="-3.58019">
        <ele>195.1</ele>
        <time>2025-02-25T11:55:26Z</time>
      </trkpt>
      <trkpt lat="48.10758" lon="-3.58019">
        <ele>195.2</ele>
        <time>2025-02-25T11:55:27Z</time>
      </trkpt>
      <trkpt lat="48.10757" lon="-3.58017">
        <ele>195.2</ele>
        <time>2025-02-25T11:55:28Z</time>
      </trkpt>
      <trkpt lat="48.10756" lon="-3.58016">
        <ele>195.2</ele>
        <time>2025-02-25T11:55:29Z</time>
      </trkpt>
      <trkpt lat="48.10756" lon="-3.58015">
        <ele>195.2</ele>
        <time>2025-02-25T11:55:30Z</time>
      </trkpt>
      <trkpt lat="48.10755" lon="-3.58014">
        <ele>195.2</ele>
        <time>2025-02-25T11:55:31Z</time>
      </trkpt>
      <trkpt lat="48.10754" lon="-3.58013">
        <ele>195.3</ele>
        <time>2025-02-25T11:55:32Z</time>
      </trkpt>
      <trkpt lat="48.10753" lon="-3.58012">
        <ele>195.3</ele>
        <time>2025-02-25T11:55:33Z</time>
      </trkpt>
      <trkpt lat="48.10752" lon="-3.58011">
        <ele>195.3</ele>
        <time>2025-02-25T11:55:34Z</time>
      </trkpt>
      <trkpt lat="48.10751" lon="-3.5801">
        <ele>195.3</ele>
        <time>2025-02-25T11:55:35Z</time>
      </trkpt>
      <trkpt lat="48.1075" lon="-3.5801">
        <ele>195.4</ele>
        <time>2025-02-25T11:55:36Z</time>
      </trkpt>
      <trkpt lat="48.10749" lon="-3.58009">
        <ele>195.4</ele>
        <time>2025-02-25T11:55:37Z</time>
      </trkpt>
      <trkpt lat="48.10748" lon="-3.58009">
        <ele>195.4</ele>
        <time>2025-02-25T11:55:38Z</time>
      </trkpt>
      <trkpt lat="48.10747" lon="-3.58008">
        <ele>195.4</ele>
        <time>2025-02-25T11:55:39Z</time>
      </trkpt>
      <trkpt lat="48.10746" lon="-3.58007">
        <ele>195.4</ele>
        <time>2025-02-25T11:55:40Z</time>
      </trkpt>
      <trkpt lat="48.10746" lon="-3.58006">
        <ele>195.4</ele>
        <time>2025-02-25T11:55:41Z</time>
      </trkpt>
      <trkpt lat="48.10745" lon="-3.58005">
        <ele>195.4</ele>
        <time>2025-02-25T11:55:42Z</time>
      </trkpt>
      <trkpt lat="48.10744" lon="-3.58005">
        <ele>195.4</ele>
        <time>2025-02-25T11:55:43Z</time>
      </trkpt>
      <trkpt lat="48.10743" lon="-3.58004">
        <ele>195.4</ele>
        <time>2025-02-25T11:55:44Z</time>
      </trkpt>
      <trkpt lat="48.10742" lon="-3.58003">
        <ele>195.4</ele>
        <time>2025-02-25T11:55:45Z</time>
      </trkpt>
      <trkpt lat="48.10741" lon="-3.58002">
        <ele>195.4</ele>
        <time>2025-02-25T11:55:46Z</time>
      </trkpt>
      <trkpt lat="48.1074" lon="-3.58001">
        <ele>195.4</ele>
        <time>2025-02-25T11:55:47Z</time>
      </trkpt>
      <trkpt lat="48.1074" lon="-3.58">
        <ele>195.4</ele>
        <time>2025-02-25T11:55:48Z</time>
      </trkpt>
      <trkpt lat="48.10739" lon="-3.57999">
        <ele>195.3</ele>
        <time>2025-02-25T11:55:49Z</time>
      </trkpt>
      <trkpt lat="48.10738" lon="-3.57998">
        <ele>195.3</ele>
        <time>2025-02-25T11:55:50Z</time>
      </trkpt>
      <trkpt lat="48.10737" lon="-3.57997">
        <ele>195.3</ele>
        <time>2025-02-25T11:55:51Z</time>
      </trkpt>
      <trkpt lat="48.10737" lon="-3.57995">
        <ele>195.2</ele>
        <time>2025-02-25T11:55:52Z</time>
      </trkpt>
      <trkpt lat="48.10737" lon="-3.57993">
        <ele>195.1</ele>
        <time>2025-02-25T11:55:53Z</time>
      </trkpt>
      <trkpt lat="48.10735" lon="-3.57994">
        <ele>195.2</ele>
        <time>2025-02-25T11:55:54Z</time>
      </trkpt>
      <trkpt lat="48.10734" lon="-3.57993">
        <ele>195.2</ele>
        <time>2025-02-25T11:55:55Z</time>
      </trkpt>
      <trkpt lat="48.10733" lon="-3.57993">
        <ele>195.2</ele>
        <time>2025-02-25T11:55:56Z</time>
      </trkpt>
      <trkpt lat="48.10731" lon="-3.57993">
        <ele>195.3</ele>
        <time>2025-02-25T11:55:57Z</time>
      </trkpt>
      <trkpt lat="48.1073" lon="-3.57992">
        <ele>195.2</ele>
        <time>2025-02-25T11:55:58Z</time>
      </trkpt>
      <trkpt lat="48.10729" lon="-3.57991">
        <ele>195.2</ele>
        <time>2025-02-25T11:55:59Z</time>
      </trkpt>
      <trkpt lat="48.10728" lon="-3.5799">
        <ele>195.1</ele>
        <time>2025-02-25T11:56:00Z</time>
      </trkpt>
      <trkpt lat="48.10727" lon="-3.57989">
        <ele>195.1</ele>
        <time>2025-02-25T11:56:01Z</time>
      </trkpt>
      <trkpt lat="48.10726" lon="-3.57988">
        <ele>195.1</ele>
        <time>2025-02-25T11:56:02Z</time>
      </trkpt>
      <trkpt lat="48.10724" lon="-3.57988">
        <ele>195.1</ele>
        <time>2025-02-25T11:56:03Z</time>
      </trkpt>
      <trkpt lat="48.10723" lon="-3.57987">
        <ele>195</ele>
        <time>2025-02-25T11:56:04Z</time>
      </trkpt>
      <trkpt lat="48.10722" lon="-3.57985">
        <ele>194.9</ele>
        <time>2025-02-25T11:56:05Z</time>
      </trkpt>
      <trkpt lat="48.10721" lon="-3.57984">
        <ele>194.9</ele>
        <time>2025-02-25T11:56:06Z</time>
      </trkpt>
      <trkpt lat="48.1072" lon="-3.57983">
        <ele>194.8</ele>
        <time>2025-02-25T11:56:07Z</time>
      </trkpt>
      <trkpt lat="48.10719" lon="-3.57982">
        <ele>194.8</ele>
        <time>2025-02-25T11:56:08Z</time>
      </trkpt>
      <trkpt lat="48.10718" lon="-3.57981">
        <ele>194.7</ele>
        <time>2025-02-25T11:56:09Z</time>
      </trkpt>
      <trkpt lat="48.10717" lon="-3.5798">
        <ele>194.7</ele>
        <time>2025-02-25T11:56:10Z</time>
      </trkpt>
      <trkpt lat="48.10716" lon="-3.57979">
        <ele>194.7</ele>
        <time>2025-02-25T11:56:11Z</time>
      </trkpt>
      <trkpt lat="48.10715" lon="-3.57978">
        <ele>194.6</ele>
        <time>2025-02-25T11:56:12Z</time>
      </trkpt>
      <trkpt lat="48.10714" lon="-3.57977">
        <ele>194.6</ele>
        <time>2025-02-25T11:56:13Z</time>
      </trkpt>
      <trkpt lat="48.10712" lon="-3.57975">
        <ele>194.5</ele>
        <time>2025-02-25T11:56:14Z</time>
      </trkpt>
      <trkpt lat="48.10711" lon="-3.57974">
        <ele>194.5</ele>
        <time>2025-02-25T11:56:15Z</time>
      </trkpt>
      <trkpt lat="48.1071" lon="-3.57973">
        <ele>194.5</ele>
        <time>2025-02-25T11:56:16Z</time>
      </trkpt>
      <trkpt lat="48.10709" lon="-3.57972">
        <ele>194.5</ele>
        <time>2025-02-25T11:56:17Z</time>
      </trkpt>
      <trkpt lat="48.10708" lon="-3.57971">
        <ele>194.5</ele>
        <time>2025-02-25T11:56:18Z</time>
      </trkpt>
      <trkpt lat="48.10707" lon="-3.57971">
        <ele>194.5</ele>
        <time>2025-02-25T11:56:19Z</time>
      </trkpt>
      <trkpt lat="48.10706" lon="-3.5797">
        <ele>194.5</ele>
        <time>2025-02-25T11:56:20Z</time>
      </trkpt>
      <trkpt lat="48.10705" lon="-3.57968">
        <ele>194.5</ele>
        <time>2025-02-25T11:56:21Z</time>
      </trkpt>
      <trkpt lat="48.10704" lon="-3.57967">
        <ele>194.5</ele>
        <time>2025-02-25T11:56:22Z</time>
      </trkpt>
      <trkpt lat="48.10703" lon="-3.57966">
        <ele>194.5</ele>
        <time>2025-02-25T11:56:23Z</time>
      </trkpt>
      <trkpt lat="48.10703" lon="-3.57966">
        <ele>194.5</ele>
        <time>2025-02-25T11:56:24Z</time>
      </trkpt>
      <trkpt lat="48.10702" lon="-3.57965">
        <ele>194.5</ele>
        <time>2025-02-25T11:56:25Z</time>
      </trkpt>
      <trkpt lat="48.10701" lon="-3.57964">
        <ele>194.5</ele>
        <time>2025-02-25T11:56:26Z</time>
      </trkpt>
      <trkpt lat="48.107" lon="-3.57963">
        <ele>194.5</ele>
        <time>2025-02-25T11:56:27Z</time>
      </trkpt>
      <trkpt lat="48.10699" lon="-3.57962">
        <ele>194.5</ele>
        <time>2025-02-25T11:56:28Z</time>
      </trkpt>
      <trkpt lat="48.10698" lon="-3.57961">
        <ele>194.5</ele>
        <time>2025-02-25T11:56:29Z</time>
      </trkpt>
      <trkpt lat="48.10697" lon="-3.5796">
        <ele>194.5</ele>
        <time>2025-02-25T11:56:30Z</time>
      </trkpt>
      <trkpt lat="48.10696" lon="-3.57959">
        <ele>194.5</ele>
        <time>2025-02-25T11:56:31Z</time>
      </trkpt>
      <trkpt lat="48.10695" lon="-3.57958">
        <ele>194.5</ele>
        <time>2025-02-25T11:56:32Z</time>
      </trkpt>
      <trkpt lat="48.10694" lon="-3.57957">
        <ele>194.5</ele>
        <time>2025-02-25T11:56:33Z</time>
      </trkpt>
      <trkpt lat="48.10693" lon="-3.57955">
        <ele>194.4</ele>
        <time>2025-02-25T11:56:34Z</time>
      </trkpt>
      <trkpt lat="48.10692" lon="-3.57955">
        <ele>194.4</ele>
        <time>2025-02-25T11:56:35Z</time>
      </trkpt>
      <trkpt lat="48.10691" lon="-3.57954">
        <ele>194.4</ele>
        <time>2025-02-25T11:56:36Z</time>
      </trkpt>
      <trkpt lat="48.1069" lon="-3.57953">
        <ele>194.4</ele>
        <time>2025-02-25T11:56:37Z</time>
      </trkpt>
      <trkpt lat="48.10689" lon="-3.57952">
        <ele>194.4</ele>
        <time>2025-02-25T11:56:38Z</time>
      </trkpt>
      <trkpt lat="48.10688" lon="-3.57951">
        <ele>194.4</ele>
        <time>2025-02-25T11:56:39Z</time>
      </trkpt>
      <trkpt lat="48.10687" lon="-3.5795">
        <ele>194.4</ele>
        <time>2025-02-25T11:56:40Z</time>
      </trkpt>
      <trkpt lat="48.10686" lon="-3.57949">
        <ele>194.4</ele>
        <time>2025-02-25T11:56:41Z</time>
      </trkpt>
      <trkpt lat="48.10685" lon="-3.57948">
        <ele>194.4</ele>
        <time>2025-02-25T11:56:42Z</time>
      </trkpt>
      <trkpt lat="48.10684" lon="-3.57947">
        <ele>194.4</ele>
        <time>2025-02-25T11:56:43Z</time>
      </trkpt>
      <trkpt lat="48.10683" lon="-3.57946">
        <ele>194.4</ele>
        <time>2025-02-25T11:56:44Z</time>
      </trkpt>
      <trkpt lat="48.10682" lon="-3.57945">
        <ele>194.5</ele>
        <time>2025-02-25T11:56:45Z</time>
      </trkpt>
      <trkpt lat="48.10681" lon="-3.57944">
        <ele>194.5</ele>
        <time>2025-02-25T11:56:46Z</time>
      </trkpt>
      <trkpt lat="48.1068" lon="-3.57943">
        <ele>194.5</ele>
        <time>2025-02-25T11:56:47Z</time>
      </trkpt>
      <trkpt lat="48.10679" lon="-3.57942">
        <ele>194.5</ele>
        <time>2025-02-25T11:56:48Z</time>
      </trkpt>
      <trkpt lat="48.10678" lon="-3.5794">
        <ele>194.4</ele>
        <time>2025-02-25T11:56:49Z</time>
      </trkpt>
      <trkpt lat="48.10677" lon="-3.57939">
        <ele>194.4</ele>
        <time>2025-02-25T11:56:50Z</time>
      </trkpt>
      <trkpt lat="48.10677" lon="-3.57938">
        <ele>194.4</ele>
        <time>2025-02-25T11:56:51Z</time>
      </trkpt>
      <trkpt lat="48.10676" lon="-3.57937">
        <ele>194.4</ele>
        <time>2025-02-25T11:56:52Z</time>
      </trkpt>
      <trkpt lat="48.10675" lon="-3.57936">
        <ele>194.4</ele>
        <time>2025-02-25T11:56:53Z</time>
      </trkpt>
      <trkpt lat="48.10674" lon="-3.57936">
        <ele>194.4</ele>
        <time>2025-02-25T11:56:54Z</time>
      </trkpt>
      <trkpt lat="48.10672" lon="-3.57935">
        <ele>194.5</ele>
        <time>2025-02-25T11:56:55Z</time>
      </trkpt>
      <trkpt lat="48.10672" lon="-3.57933">
        <ele>194.4</ele>
        <time>2025-02-25T11:56:56Z</time>
      </trkpt>
      <trkpt lat="48.1067" lon="-3.57932">
        <ele>194.4</ele>
        <time>2025-02-25T11:56:57Z</time>
      </trkpt>
      <trkpt lat="48.10669" lon="-3.57931">
        <ele>194.4</ele>
        <time>2025-02-25T11:56:58Z</time>
      </trkpt>
      <trkpt lat="48.10668" lon="-3.5793">
        <ele>194.4</ele>
        <time>2025-02-25T11:56:59Z</time>
      </trkpt>
      <trkpt lat="48.10667" lon="-3.57929">
        <ele>194.4</ele>
        <time>2025-02-25T11:57:00Z</time>
      </trkpt>
      <trkpt lat="48.10667" lon="-3.57928">
        <ele>194.4</ele>
        <time>2025-02-25T11:57:01Z</time>
      </trkpt>
      <trkpt lat="48.10665" lon="-3.57927">
        <ele>194.3</ele>
        <time>2025-02-25T11:57:02Z</time>
      </trkpt>
      <trkpt lat="48.10665" lon="-3.57926">
        <ele>194.3</ele>
        <time>2025-02-25T11:57:03Z</time>
      </trkpt>
      <trkpt lat="48.10663" lon="-3.57925">
        <ele>194.3</ele>
        <time>2025-02-25T11:57:04Z</time>
      </trkpt>
      <trkpt lat="48.10662" lon="-3.57924">
        <ele>194.2</ele>
        <time>2025-02-25T11:57:05Z</time>
      </trkpt>
      <trkpt lat="48.10661" lon="-3.57923">
        <ele>194.2</ele>
        <time>2025-02-25T11:57:06Z</time>
      </trkpt>
      <trkpt lat="48.1066" lon="-3.57922">
        <ele>194.1</ele>
        <time>2025-02-25T11:57:07Z</time>
      </trkpt>
      <trkpt lat="48.10659" lon="-3.57921">
        <ele>194.1</ele>
        <time>2025-02-25T11:57:08Z</time>
      </trkpt>
      <trkpt lat="48.10658" lon="-3.5792">
        <ele>194.1</ele>
        <time>2025-02-25T11:57:09Z</time>
      </trkpt>
      <trkpt lat="48.10657" lon="-3.5792">
        <ele>194.1</ele>
        <time>2025-02-25T11:57:10Z</time>
      </trkpt>
      <trkpt lat="48.10656" lon="-3.57919">
        <ele>194.1</ele>
        <time>2025-02-25T11:57:11Z</time>
      </trkpt>
      <trkpt lat="48.10655" lon="-3.57919">
        <ele>194</ele>
        <time>2025-02-25T11:57:12Z</time>
      </trkpt>
      <trkpt lat="48.10654" lon="-3.57918">
        <ele>194</ele>
        <time>2025-02-25T11:57:13Z</time>
      </trkpt>
      <trkpt lat="48.10653" lon="-3.57916">
        <ele>194</ele>
        <time>2025-02-25T11:57:14Z</time>
      </trkpt>
      <trkpt lat="48.10652" lon="-3.57915">
        <ele>193.9</ele>
        <time>2025-02-25T11:57:15Z</time>
      </trkpt>
      <trkpt lat="48.10651" lon="-3.57914">
        <ele>193.9</ele>
        <time>2025-02-25T11:57:16Z</time>
      </trkpt>
      <trkpt lat="48.1065" lon="-3.57913">
        <ele>193.9</ele>
        <time>2025-02-25T11:57:17Z</time>
      </trkpt>
      <trkpt lat="48.10649" lon="-3.57912">
        <ele>193.8</ele>
        <time>2025-02-25T11:57:18Z</time>
      </trkpt>
      <trkpt lat="48.10648" lon="-3.57912">
        <ele>193.8</ele>
        <time>2025-02-25T11:57:19Z</time>
      </trkpt>
      <trkpt lat="48.10646" lon="-3.57911">
        <ele>193.8</ele>
        <time>2025-02-25T11:57:20Z</time>
      </trkpt>
      <trkpt lat="48.10645" lon="-3.5791">
        <ele>193.8</ele>
        <time>2025-02-25T11:57:21Z</time>
      </trkpt>
      <trkpt lat="48.10644" lon="-3.57909">
        <ele>193.7</ele>
        <time>2025-02-25T11:57:22Z</time>
      </trkpt>
      <trkpt lat="48.10643" lon="-3.57908">
        <ele>193.7</ele>
        <time>2025-02-25T11:57:23Z</time>
      </trkpt>
      <trkpt lat="48.10642" lon="-3.57907">
        <ele>193.7</ele>
        <time>2025-02-25T11:57:24Z</time>
      </trkpt>
      <trkpt lat="48.10641" lon="-3.57906">
        <ele>193.6</ele>
        <time>2025-02-25T11:57:25Z</time>
      </trkpt>
      <trkpt lat="48.1064" lon="-3.57906">
        <ele>193.6</ele>
        <time>2025-02-25T11:57:26Z</time>
      </trkpt>
      <trkpt lat="48.10639" lon="-3.57905">
        <ele>193.6</ele>
        <time>2025-02-25T11:57:27Z</time>
      </trkpt>
      <trkpt lat="48.10638" lon="-3.57904">
        <ele>193.5</ele>
        <time>2025-02-25T11:57:28Z</time>
      </trkpt>
      <trkpt lat="48.10637" lon="-3.57903">
        <ele>193.5</ele>
        <time>2025-02-25T11:57:29Z</time>
      </trkpt>
      <trkpt lat="48.10636" lon="-3.57902">
        <ele>193.4</ele>
        <time>2025-02-25T11:57:30Z</time>
      </trkpt>
      <trkpt lat="48.10635" lon="-3.57901">
        <ele>193.4</ele>
        <time>2025-02-25T11:57:31Z</time>
      </trkpt>
      <trkpt lat="48.10634" lon="-3.579">
        <ele>193.3</ele>
        <time>2025-02-25T11:57:32Z</time>
      </trkpt>
      <trkpt lat="48.10633" lon="-3.57899">
        <ele>193.3</ele>
        <time>2025-02-25T11:57:33Z</time>
      </trkpt>
      <trkpt lat="48.10632" lon="-3.57899">
        <ele>193.3</ele>
        <time>2025-02-25T11:57:34Z</time>
      </trkpt>
      <trkpt lat="48.1063" lon="-3.57898">
        <ele>193.2</ele>
        <time>2025-02-25T11:57:35Z</time>
      </trkpt>
      <trkpt lat="48.10629" lon="-3.57897">
        <ele>193.2</ele>
        <time>2025-02-25T11:57:36Z</time>
      </trkpt>
      <trkpt lat="48.10628" lon="-3.57897">
        <ele>193.2</ele>
        <time>2025-02-25T11:57:37Z</time>
      </trkpt>
      <trkpt lat="48.10627" lon="-3.57896">
        <ele>193.1</ele>
        <time>2025-02-25T11:57:38Z</time>
      </trkpt>
      <trkpt lat="48.10626" lon="-3.57895">
        <ele>193.1</ele>
        <time>2025-02-25T11:57:39Z</time>
      </trkpt>
      <trkpt lat="48.10625" lon="-3.57894">
        <ele>193.1</ele>
        <time>2025-02-25T11:57:40Z</time>
      </trkpt>
      <trkpt lat="48.10624" lon="-3.57893">
        <ele>193.1</ele>
        <time>2025-02-25T11:57:41Z</time>
      </trkpt>
      <trkpt lat="48.10622" lon="-3.57893">
        <ele>193.1</ele>
        <time>2025-02-25T11:57:42Z</time>
      </trkpt>
      <trkpt lat="48.10621" lon="-3.57893">
        <ele>193.1</ele>
        <time>2025-02-25T11:57:43Z</time>
      </trkpt>
      <trkpt lat="48.1062" lon="-3.57892">
        <ele>193</ele>
        <time>2025-02-25T11:57:44Z</time>
      </trkpt>
      <trkpt lat="48.10619" lon="-3.57892">
        <ele>193</ele>
        <time>2025-02-25T11:57:45Z</time>
      </trkpt>
      <trkpt lat="48.10618" lon="-3.57892">
        <ele>193</ele>
        <time>2025-02-25T11:57:46Z</time>
      </trkpt>
      <trkpt lat="48.10617" lon="-3.57891">
        <ele>193</ele>
        <time>2025-02-25T11:57:47Z</time>
      </trkpt>
      <trkpt lat="48.10615" lon="-3.57891">
        <ele>193</ele>
        <time>2025-02-25T11:57:48Z</time>
      </trkpt>
      <trkpt lat="48.10614" lon="-3.5789">
        <ele>193</ele>
        <time>2025-02-25T11:57:49Z</time>
      </trkpt>
      <trkpt lat="48.10613" lon="-3.5789">
        <ele>193</ele>
        <time>2025-02-25T11:57:50Z</time>
      </trkpt>
      <trkpt lat="48.10612" lon="-3.57891">
        <ele>193</ele>
        <time>2025-02-25T11:57:51Z</time>
      </trkpt>
      <trkpt lat="48.1061" lon="-3.5789">
        <ele>193</ele>
        <time>2025-02-25T11:57:52Z</time>
      </trkpt>
      <trkpt lat="48.10609" lon="-3.5789">
        <ele>192.9</ele>
        <time>2025-02-25T11:57:53Z</time>
      </trkpt>
      <trkpt lat="48.10608" lon="-3.57889">
        <ele>192.9</ele>
        <time>2025-02-25T11:57:54Z</time>
      </trkpt>
      <trkpt lat="48.10607" lon="-3.57889">
        <ele>192.9</ele>
        <time>2025-02-25T11:57:55Z</time>
      </trkpt>
      <trkpt lat="48.10606" lon="-3.57889">
        <ele>192.8</ele>
        <time>2025-02-25T11:57:56Z</time>
      </trkpt>
      <trkpt lat="48.10605" lon="-3.57888">
        <ele>192.8</ele>
        <time>2025-02-25T11:57:57Z</time>
      </trkpt>
      <trkpt lat="48.10604" lon="-3.57887">
        <ele>192.7</ele>
        <time>2025-02-25T11:57:58Z</time>
      </trkpt>
      <trkpt lat="48.10602" lon="-3.57887">
        <ele>192.7</ele>
        <time>2025-02-25T11:57:59Z</time>
      </trkpt>
      <trkpt lat="48.10601" lon="-3.57886">
        <ele>192.6</ele>
        <time>2025-02-25T11:58:00Z</time>
      </trkpt>
      <trkpt lat="48.106" lon="-3.57886">
        <ele>192.6</ele>
        <time>2025-02-25T11:58:01Z</time>
      </trkpt>
      <trkpt lat="48.10599" lon="-3.57885">
        <ele>192.6</ele>
        <time>2025-02-25T11:58:02Z</time>
      </trkpt>
      <trkpt lat="48.10598" lon="-3.57885">
        <ele>192.5</ele>
        <time>2025-02-25T11:58:03Z</time>
      </trkpt>
      <trkpt lat="48.10597" lon="-3.57884">
        <ele>192.5</ele>
        <time>2025-02-25T11:58:04Z</time>
      </trkpt>
      <trkpt lat="48.10596" lon="-3.57883">
        <ele>192.5</ele>
        <time>2025-02-25T11:58:05Z</time>
      </trkpt>
      <trkpt lat="48.10595" lon="-3.57882">
        <ele>192.4</ele>
        <time>2025-02-25T11:58:06Z</time>
      </trkpt>
      <trkpt lat="48.10593" lon="-3.57882">
        <ele>192.3</ele>
        <time>2025-02-25T11:58:07Z</time>
      </trkpt>
      <trkpt lat="48.10592" lon="-3.57883">
        <ele>192.3</ele>
        <time>2025-02-25T11:58:08Z</time>
      </trkpt>
      <trkpt lat="48.10591" lon="-3.57883">
        <ele>192.3</ele>
        <time>2025-02-25T11:58:09Z</time>
      </trkpt>
      <trkpt lat="48.1059" lon="-3.57882">
        <ele>192.2</ele>
        <time>2025-02-25T11:58:10Z</time>
      </trkpt>
      <trkpt lat="48.10588" lon="-3.57882">
        <ele>192.2</ele>
        <time>2025-02-25T11:58:11Z</time>
      </trkpt>
      <trkpt lat="48.10587" lon="-3.57883">
        <ele>192.1</ele>
        <time>2025-02-25T11:58:12Z</time>
      </trkpt>
      <trkpt lat="48.10586" lon="-3.57882">
        <ele>192.1</ele>
        <time>2025-02-25T11:58:13Z</time>
      </trkpt>
      <trkpt lat="48.10585" lon="-3.57882">
        <ele>192.1</ele>
        <time>2025-02-25T11:58:14Z</time>
      </trkpt>
      <trkpt lat="48.10584" lon="-3.57881">
        <ele>192</ele>
        <time>2025-02-25T11:58:15Z</time>
      </trkpt>
      <trkpt lat="48.10582" lon="-3.57881">
        <ele>192</ele>
        <time>2025-02-25T11:58:16Z</time>
      </trkpt>
      <trkpt lat="48.10581" lon="-3.5788">
        <ele>191.9</ele>
        <time>2025-02-25T11:58:17Z</time>
      </trkpt>
      <trkpt lat="48.1058" lon="-3.57879">
        <ele>191.9</ele>
        <time>2025-02-25T11:58:18Z</time>
      </trkpt>
      <trkpt lat="48.10579" lon="-3.57879">
        <ele>191.8</ele>
        <time>2025-02-25T11:58:19Z</time>
      </trkpt>
      <trkpt lat="48.10578" lon="-3.57879">
        <ele>191.8</ele>
        <time>2025-02-25T11:58:20Z</time>
      </trkpt>
      <trkpt lat="48.10576" lon="-3.57878">
        <ele>191.7</ele>
        <time>2025-02-25T11:58:21Z</time>
      </trkpt>
      <trkpt lat="48.10575" lon="-3.57877">
        <ele>191.7</ele>
        <time>2025-02-25T11:58:22Z</time>
      </trkpt>
      <trkpt lat="48.10574" lon="-3.57877">
        <ele>191.7</ele>
        <time>2025-02-25T11:58:23Z</time>
      </trkpt>
      <trkpt lat="48.10573" lon="-3.57877">
        <ele>191.6</ele>
        <time>2025-02-25T11:58:24Z</time>
      </trkpt>
      <trkpt lat="48.10572" lon="-3.57877">
        <ele>191.6</ele>
        <time>2025-02-25T11:58:25Z</time>
      </trkpt>
      <trkpt lat="48.1057" lon="-3.57877">
        <ele>191.5</ele>
        <time>2025-02-25T11:58:26Z</time>
      </trkpt>
      <trkpt lat="48.10569" lon="-3.57877">
        <ele>191.5</ele>
        <time>2025-02-25T11:58:27Z</time>
      </trkpt>
      <trkpt lat="48.10568" lon="-3.57877">
        <ele>191.4</ele>
        <time>2025-02-25T11:58:28Z</time>
      </trkpt>
      <trkpt lat="48.10567" lon="-3.57877">
        <ele>191.4</ele>
        <time>2025-02-25T11:58:29Z</time>
      </trkpt>
      <trkpt lat="48.10565" lon="-3.57877">
        <ele>191.3</ele>
        <time>2025-02-25T11:58:30Z</time>
      </trkpt>
      <trkpt lat="48.10564" lon="-3.57876">
        <ele>191.3</ele>
        <time>2025-02-25T11:58:31Z</time>
      </trkpt>
      <trkpt lat="48.10563" lon="-3.57875">
        <ele>191.3</ele>
        <time>2025-02-25T11:58:32Z</time>
      </trkpt>
      <trkpt lat="48.10562" lon="-3.57875">
        <ele>191.2</ele>
        <time>2025-02-25T11:58:33Z</time>
      </trkpt>
      <trkpt lat="48.10561" lon="-3.57874">
        <ele>191.2</ele>
        <time>2025-02-25T11:58:34Z</time>
      </trkpt>
      <trkpt lat="48.1056" lon="-3.57874">
        <ele>191.2</ele>
        <time>2025-02-25T11:58:35Z</time>
      </trkpt>
      <trkpt lat="48.10559" lon="-3.57873">
        <ele>191.1</ele>
        <time>2025-02-25T11:58:36Z</time>
      </trkpt>
      <trkpt lat="48.10557" lon="-3.57873">
        <ele>191.1</ele>
        <time>2025-02-25T11:58:37Z</time>
      </trkpt>
      <trkpt lat="48.10556" lon="-3.57872">
        <ele>191</ele>
        <time>2025-02-25T11:58:38Z</time>
      </trkpt>
      <trkpt lat="48.10555" lon="-3.57872">
        <ele>191</ele>
        <time>2025-02-25T11:58:39Z</time>
      </trkpt>
      <trkpt lat="48.10554" lon="-3.57871">
        <ele>190.9</ele>
        <time>2025-02-25T11:58:40Z</time>
      </trkpt>
      <trkpt lat="48.10553" lon="-3.57871">
        <ele>190.8</ele>
        <time>2025-02-25T11:58:41Z</time>
      </trkpt>
      <trkpt lat="48.10552" lon="-3.5787">
        <ele>190.7</ele>
        <time>2025-02-25T11:58:42Z</time>
      </trkpt>
      <trkpt lat="48.10551" lon="-3.5787">
        <ele>190.6</ele>
        <time>2025-02-25T11:58:43Z</time>
      </trkpt>
      <trkpt lat="48.1055" lon="-3.5787">
        <ele>190.5</ele>
        <time>2025-02-25T11:58:44Z</time>
      </trkpt>
      <trkpt lat="48.10549" lon="-3.57869">
        <ele>190.5</ele>
        <time>2025-02-25T11:58:45Z</time>
      </trkpt>
      <trkpt lat="48.10547" lon="-3.57869">
        <ele>190.3</ele>
        <time>2025-02-25T11:58:46Z</time>
      </trkpt>
      <trkpt lat="48.10546" lon="-3.57869">
        <ele>190.2</ele>
        <time>2025-02-25T11:58:47Z</time>
      </trkpt>
      <trkpt lat="48.10545" lon="-3.57868">
        <ele>190.1</ele>
        <time>2025-02-25T11:58:48Z</time>
      </trkpt>
      <trkpt lat="48.10544" lon="-3.57868">
        <ele>190.1</ele>
        <time>2025-02-25T11:58:49Z</time>
      </trkpt>
      <trkpt lat="48.10543" lon="-3.57868">
        <ele>190</ele>
        <time>2025-02-25T11:58:50Z</time>
      </trkpt>
      <trkpt lat="48.10542" lon="-3.57868">
        <ele>189.9</ele>
        <time>2025-02-25T11:58:51Z</time>
      </trkpt>
      <trkpt lat="48.10541" lon="-3.57867">
        <ele>189.8</ele>
        <time>2025-02-25T11:58:52Z</time>
      </trkpt>
      <trkpt lat="48.1054" lon="-3.57867">
        <ele>189.8</ele>
        <time>2025-02-25T11:58:53Z</time>
      </trkpt>
      <trkpt lat="48.10539" lon="-3.57866">
        <ele>189.7</ele>
        <time>2025-02-25T11:58:54Z</time>
      </trkpt>
      <trkpt lat="48.10538" lon="-3.57866">
        <ele>189.6</ele>
        <time>2025-02-25T11:58:55Z</time>
      </trkpt>
      <trkpt lat="48.10536" lon="-3.57866">
        <ele>189.5</ele>
        <time>2025-02-25T11:58:56Z</time>
      </trkpt>
      <trkpt lat="48.10535" lon="-3.57865">
        <ele>189.4</ele>
        <time>2025-02-25T11:58:57Z</time>
      </trkpt>
      <trkpt lat="48.10534" lon="-3.57865">
        <ele>189.3</ele>
        <time>2025-02-25T11:58:58Z</time>
      </trkpt>
      <trkpt lat="48.10533" lon="-3.57865">
        <ele>189.3</ele>
        <time>2025-02-25T11:58:59Z</time>
      </trkpt>
      <trkpt lat="48.10532" lon="-3.57865">
        <ele>189.2</ele>
        <time>2025-02-25T11:59:00Z</time>
      </trkpt>
      <trkpt lat="48.10531" lon="-3.57865">
        <ele>189.1</ele>
        <time>2025-02-25T11:59:01Z</time>
      </trkpt>
      <trkpt lat="48.1053" lon="-3.57865">
        <ele>189</ele>
        <time>2025-02-25T11:59:02Z</time>
      </trkpt>
      <trkpt lat="48.10529" lon="-3.57864">
        <ele>189</ele>
        <time>2025-02-25T11:59:03Z</time>
      </trkpt>
      <trkpt lat="48.10528" lon="-3.57863">
        <ele>188.9</ele>
        <time>2025-02-25T11:59:04Z</time>
      </trkpt>
      <trkpt lat="48.10526" lon="-3.57863">
        <ele>188.7</ele>
        <time>2025-02-25T11:59:05Z</time>
      </trkpt>
      <trkpt lat="48.10525" lon="-3.57863">
        <ele>188.6</ele>
        <time>2025-02-25T11:59:06Z</time>
      </trkpt>
      <trkpt lat="48.10524" lon="-3.57863">
        <ele>188.5</ele>
        <time>2025-02-25T11:59:07Z</time>
      </trkpt>
      <trkpt lat="48.10523" lon="-3.57863">
        <ele>188.4</ele>
        <time>2025-02-25T11:59:08Z</time>
      </trkpt>
      <trkpt lat="48.10522" lon="-3.57863">
        <ele>188.3</ele>
        <time>2025-02-25T11:59:09Z</time>
      </trkpt>
      <trkpt lat="48.10521" lon="-3.57863">
        <ele>188.2</ele>
        <time>2025-02-25T11:59:10Z</time>
      </trkpt>
      <trkpt lat="48.1052" lon="-3.57862">
        <ele>188.1</ele>
        <time>2025-02-25T11:59:11Z</time>
      </trkpt>
      <trkpt lat="48.10519" lon="-3.57862">
        <ele>188</ele>
        <time>2025-02-25T11:59:12Z</time>
      </trkpt>
      <trkpt lat="48.10517" lon="-3.57862">
        <ele>187.8</ele>
        <time>2025-02-25T11:59:13Z</time>
      </trkpt>
      <trkpt lat="48.10516" lon="-3.57862">
        <ele>187.7</ele>
        <time>2025-02-25T11:59:14Z</time>
      </trkpt>
      <trkpt lat="48.10515" lon="-3.57862">
        <ele>187.6</ele>
        <time>2025-02-25T11:59:15Z</time>
      </trkpt>
      <trkpt lat="48.10514" lon="-3.57862">
        <ele>187.5</ele>
        <time>2025-02-25T11:59:16Z</time>
      </trkpt>
      <trkpt lat="48.10513" lon="-3.57862">
        <ele>187.4</ele>
        <time>2025-02-25T11:59:17Z</time>
      </trkpt>
      <trkpt lat="48.10511" lon="-3.57862">
        <ele>187.2</ele>
        <time>2025-02-25T11:59:18Z</time>
      </trkpt>
      <trkpt lat="48.10511" lon="-3.57862">
        <ele>187.2</ele>
        <time>2025-02-25T11:59:19Z</time>
      </trkpt>
      <trkpt lat="48.10509" lon="-3.57861">
        <ele>187</ele>
        <time>2025-02-25T11:59:20Z</time>
      </trkpt>
      <trkpt lat="48.10508" lon="-3.57861">
        <ele>186.9</ele>
        <time>2025-02-25T11:59:21Z</time>
      </trkpt>
      <trkpt lat="48.10507" lon="-3.57861">
        <ele>186.8</ele>
        <time>2025-02-25T11:59:22Z</time>
      </trkpt>
      <trkpt lat="48.10506" lon="-3.57861">
        <ele>186.6</ele>
        <time>2025-02-25T11:59:23Z</time>
      </trkpt>
      <trkpt lat="48.10505" lon="-3.57861">
        <ele>186.5</ele>
        <time>2025-02-25T11:59:24Z</time>
      </trkpt>
      <trkpt lat="48.10504" lon="-3.5786">
        <ele>186.4</ele>
        <time>2025-02-25T11:59:25Z</time>
      </trkpt>
      <trkpt lat="48.10502" lon="-3.5786">
        <ele>186.2</ele>
        <time>2025-02-25T11:59:26Z</time>
      </trkpt>
      <trkpt lat="48.10501" lon="-3.57859">
        <ele>186.1</ele>
        <time>2025-02-25T11:59:27Z</time>
      </trkpt>
      <trkpt lat="48.105" lon="-3.57859">
        <ele>186</ele>
        <time>2025-02-25T11:59:28Z</time>
      </trkpt>
      <trkpt lat="48.10499" lon="-3.5786">
        <ele>185.9</ele>
        <time>2025-02-25T11:59:29Z</time>
      </trkpt>
      <trkpt lat="48.10498" lon="-3.57859">
        <ele>185.8</ele>
        <time>2025-02-25T11:59:30Z</time>
      </trkpt>
      <trkpt lat="48.10497" lon="-3.57859">
        <ele>185.7</ele>
        <time>2025-02-25T11:59:31Z</time>
      </trkpt>
      <trkpt lat="48.10496" lon="-3.57858">
        <ele>185.6</ele>
        <time>2025-02-25T11:59:32Z</time>
      </trkpt>
      <trkpt lat="48.10495" lon="-3.57858">
        <ele>185.5</ele>
        <time>2025-02-25T11:59:33Z</time>
      </trkpt>
      <trkpt lat="48.10494" lon="-3.57857">
        <ele>185.4</ele>
        <time>2025-02-25T11:59:34Z</time>
      </trkpt>
      <trkpt lat="48.10493" lon="-3.57857">
        <ele>185.3</ele>
        <time>2025-02-25T11:59:35Z</time>
      </trkpt>
      <trkpt lat="48.10492" lon="-3.57857">
        <ele>185.2</ele>
        <time>2025-02-25T11:59:36Z</time>
      </trkpt>
      <trkpt lat="48.10491" lon="-3.57856">
        <ele>185.1</ele>
        <time>2025-02-25T11:59:37Z</time>
      </trkpt>
      <trkpt lat="48.1049" lon="-3.57856">
        <ele>185</ele>
        <time>2025-02-25T11:59:38Z</time>
      </trkpt>
      <trkpt lat="48.10489" lon="-3.57855">
        <ele>184.9</ele>
        <time>2025-02-25T11:59:39Z</time>
      </trkpt>
      <trkpt lat="48.10488" lon="-3.57855">
        <ele>184.8</ele>
        <time>2025-02-25T11:59:40Z</time>
      </trkpt>
      <trkpt lat="48.10486" lon="-3.57854">
        <ele>184.6</ele>
        <time>2025-02-25T11:59:41Z</time>
      </trkpt>
      <trkpt lat="48.10485" lon="-3.57854">
        <ele>184.5</ele>
        <time>2025-02-25T11:59:42Z</time>
      </trkpt>
      <trkpt lat="48.10484" lon="-3.57854">
        <ele>184.4</ele>
        <time>2025-02-25T11:59:43Z</time>
      </trkpt>
      <trkpt lat="48.10482" lon="-3.57854">
        <ele>184.2</ele>
        <time>2025-02-25T11:59:44Z</time>
      </trkpt>
      <trkpt lat="48.10481" lon="-3.57854">
        <ele>184.1</ele>
        <time>2025-02-25T11:59:45Z</time>
      </trkpt>
      <trkpt lat="48.1048" lon="-3.57854">
        <ele>184</ele>
        <time>2025-02-25T11:59:46Z</time>
      </trkpt>
      <trkpt lat="48.10479" lon="-3.57854">
        <ele>183.9</ele>
        <time>2025-02-25T11:59:47Z</time>
      </trkpt>
      <trkpt lat="48.10478" lon="-3.57854">
        <ele>183.8</ele>
        <time>2025-02-25T11:59:48Z</time>
      </trkpt>
      <trkpt lat="48.10477" lon="-3.57854">
        <ele>183.7</ele>
        <time>2025-02-25T11:59:49Z</time>
      </trkpt>
      <trkpt lat="48.10476" lon="-3.57854">
        <ele>183.6</ele>
        <time>2025-02-25T11:59:50Z</time>
      </trkpt>
      <trkpt lat="48.10475" lon="-3.57853">
        <ele>183.6</ele>
        <time>2025-02-25T11:59:51Z</time>
      </trkpt>
      <trkpt lat="48.10473" lon="-3.57854">
        <ele>183.3</ele>
        <time>2025-02-25T11:59:52Z</time>
      </trkpt>
      <trkpt lat="48.10472" lon="-3.57854">
        <ele>183.2</ele>
        <time>2025-02-25T11:59:53Z</time>
      </trkpt>
      <trkpt lat="48.10471" lon="-3.57854">
        <ele>183.2</ele>
        <time>2025-02-25T11:59:54Z</time>
      </trkpt>
      <trkpt lat="48.1047" lon="-3.57853">
        <ele>183.1</ele>
        <time>2025-02-25T11:59:55Z</time>
      </trkpt>
      <trkpt lat="48.10469" lon="-3.57853">
        <ele>183</ele>
        <time>2025-02-25T11:59:56Z</time>
      </trkpt>
      <trkpt lat="48.10468" lon="-3.57853">
        <ele>182.9</ele>
        <time>2025-02-25T11:59:57Z</time>
      </trkpt>
      <trkpt lat="48.10467" lon="-3.57853">
        <ele>182.9</ele>
        <time>2025-02-25T11:59:58Z</time>
      </trkpt>
      <trkpt lat="48.10466" lon="-3.57853">
        <ele>182.8</ele>
        <time>2025-02-25T11:59:59Z</time>
      </trkpt>
      <trkpt lat="48.10465" lon="-3.57853">
        <ele>182.7</ele>
        <time>2025-02-25T12:00:00Z</time>
      </trkpt>
      <trkpt lat="48.10463" lon="-3.57853">
        <ele>182.5</ele>
        <time>2025-02-25T12:00:01Z</time>
      </trkpt>
      <trkpt lat="48.10462" lon="-3.57852">
        <ele>182.5</ele>
        <time>2025-02-25T12:00:02Z</time>
      </trkpt>
      <trkpt lat="48.10461" lon="-3.57852">
        <ele>182.4</ele>
        <time>2025-02-25T12:00:03Z</time>
      </trkpt>
      <trkpt lat="48.1046" lon="-3.57852">
        <ele>182.3</ele>
        <time>2025-02-25T12:00:04Z</time>
      </trkpt>
      <trkpt lat="48.10459" lon="-3.57851">
        <ele>182.2</ele>
        <time>2025-02-25T12:00:05Z</time>
      </trkpt>
      <trkpt lat="48.10457" lon="-3.57852">
        <ele>182.1</ele>
        <time>2025-02-25T12:00:06Z</time>
      </trkpt>
      <trkpt lat="48.10456" lon="-3.57852">
        <ele>182</ele>
        <time>2025-02-25T12:00:07Z</time>
      </trkpt>
      <trkpt lat="48.10455" lon="-3.57852">
        <ele>181.9</ele>
        <time>2025-02-25T12:00:08Z</time>
      </trkpt>
      <trkpt lat="48.10454" lon="-3.57851">
        <ele>181.8</ele>
        <time>2025-02-25T12:00:09Z</time>
      </trkpt>
      <trkpt lat="48.10452" lon="-3.5785">
        <ele>181.7</ele>
        <time>2025-02-25T12:00:10Z</time>
      </trkpt>
      <trkpt lat="48.10451" lon="-3.5785">
        <ele>181.6</ele>
        <time>2025-02-25T12:00:11Z</time>
      </trkpt>
      <trkpt lat="48.1045" lon="-3.57849">
        <ele>181.5</ele>
        <time>2025-02-25T12:00:12Z</time>
      </trkpt>
      <trkpt lat="48.10449" lon="-3.57849">
        <ele>181.4</ele>
        <time>2025-02-25T12:00:13Z</time>
      </trkpt>
      <trkpt lat="48.10448" lon="-3.57848">
        <ele>181.3</ele>
        <time>2025-02-25T12:00:14Z</time>
      </trkpt>
      <trkpt lat="48.10447" lon="-3.57847">
        <ele>181.2</ele>
        <time>2025-02-25T12:00:15Z</time>
      </trkpt>
      <trkpt lat="48.10446" lon="-3.57848">
        <ele>181.1</ele>
        <time>2025-02-25T12:00:16Z</time>
      </trkpt>
      <trkpt lat="48.10444" lon="-3.57848">
        <ele>181</ele>
        <time>2025-02-25T12:00:17Z</time>
      </trkpt>
      <trkpt lat="48.10443" lon="-3.57849">
        <ele>180.9</ele>
        <time>2025-02-25T12:00:18Z</time>
      </trkpt>
      <trkpt lat="48.10442" lon="-3.57849">
        <ele>180.8</ele>
        <time>2025-02-25T12:00:19Z</time>
      </trkpt>
      <trkpt lat="48.10441" lon="-3.57848">
        <ele>180.8</ele>
        <time>2025-02-25T12:00:20Z</time>
      </trkpt>
      <trkpt lat="48.1044" lon="-3.57848">
        <ele>180.7</ele>
        <time>2025-02-25T12:00:21Z</time>
      </trkpt>
      <trkpt lat="48.10439" lon="-3.57848">
        <ele>180.6</ele>
        <time>2025-02-25T12:00:22Z</time>
      </trkpt>
      <trkpt lat="48.10437" lon="-3.57848">
        <ele>180.5</ele>
        <time>2025-02-25T12:00:23Z</time>
      </trkpt>
      <trkpt lat="48.10436" lon="-3.57848">
        <ele>180.4</ele>
        <time>2025-02-25T12:00:24Z</time>
      </trkpt>
      <trkpt lat="48.10435" lon="-3.57847">
        <ele>180.3</ele>
        <time>2025-02-25T12:00:25Z</time>
      </trkpt>
      <trkpt lat="48.10434" lon="-3.57846">
        <ele>180.2</ele>
        <time>2025-02-25T12:00:26Z</time>
      </trkpt>
      <trkpt lat="48.10433" lon="-3.57846">
        <ele>180.2</ele>
        <time>2025-02-25T12:00:27Z</time>
      </trkpt>
      <trkpt lat="48.10432" lon="-3.57846">
        <ele>180.1</ele>
        <time>2025-02-25T12:00:28Z</time>
      </trkpt>
      <trkpt lat="48.10431" lon="-3.57846">
        <ele>180</ele>
        <time>2025-02-25T12:00:29Z</time>
      </trkpt>
      <trkpt lat="48.1043" lon="-3.57846">
        <ele>180</ele>
        <time>2025-02-25T12:00:30Z</time>
      </trkpt>
      <trkpt lat="48.10428" lon="-3.57845">
        <ele>179.8</ele>
        <time>2025-02-25T12:00:31Z</time>
      </trkpt>
      <trkpt lat="48.10427" lon="-3.57844">
        <ele>179.7</ele>
        <time>2025-02-25T12:00:32Z</time>
      </trkpt>
      <trkpt lat="48.10426" lon="-3.57844">
        <ele>179.7</ele>
        <time>2025-02-25T12:00:33Z</time>
      </trkpt>
      <trkpt lat="48.10425" lon="-3.57844">
        <ele>179.6</ele>
        <time>2025-02-25T12:00:34Z</time>
      </trkpt>
      <trkpt lat="48.10424" lon="-3.57844">
        <ele>179.5</ele>
        <time>2025-02-25T12:00:35Z</time>
      </trkpt>
      <trkpt lat="48.10422" lon="-3.57843">
        <ele>179.4</ele>
        <time>2025-02-25T12:00:36Z</time>
      </trkpt>
      <trkpt lat="48.10421" lon="-3.57844">
        <ele>179.3</ele>
        <time>2025-02-25T12:00:37Z</time>
      </trkpt>
      <trkpt lat="48.1042" lon="-3.57844">
        <ele>179.2</ele>
        <time>2025-02-25T12:00:38Z</time>
      </trkpt>
      <trkpt lat="48.10419" lon="-3.57844">
        <ele>179.2</ele>
        <time>2025-02-25T12:00:39Z</time>
      </trkpt>
      <trkpt lat="48.10418" lon="-3.57843">
        <ele>179.1</ele>
        <time>2025-02-25T12:00:40Z</time>
      </trkpt>
      <trkpt lat="48.10417" lon="-3.57842">
        <ele>179</ele>
        <time>2025-02-25T12:00:41Z</time>
      </trkpt>
      <trkpt lat="48.10416" lon="-3.57842">
        <ele>179</ele>
        <time>2025-02-25T12:00:42Z</time>
      </trkpt>
      <trkpt lat="48.10415" lon="-3.57842">
        <ele>178.9</ele>
        <time>2025-02-25T12:00:43Z</time>
      </trkpt>
      <trkpt lat="48.10413" lon="-3.57842">
        <ele>178.7</ele>
        <time>2025-02-25T12:00:44Z</time>
      </trkpt>
      <trkpt lat="48.10412" lon="-3.57842">
        <ele>178.7</ele>
        <time>2025-02-25T12:00:45Z</time>
      </trkpt>
      <trkpt lat="48.10411" lon="-3.57842">
        <ele>178.6</ele>
        <time>2025-02-25T12:00:46Z</time>
      </trkpt>
      <trkpt lat="48.1041" lon="-3.57842">
        <ele>178.5</ele>
        <time>2025-02-25T12:00:47Z</time>
      </trkpt>
      <trkpt lat="48.10409" lon="-3.57842">
        <ele>178.4</ele>
        <time>2025-02-25T12:00:48Z</time>
      </trkpt>
      <trkpt lat="48.10407" lon="-3.57842">
        <ele>178.3</ele>
        <time>2025-02-25T12:00:49Z</time>
      </trkpt>
      <trkpt lat="48.10406" lon="-3.57841">
        <ele>178.2</ele>
        <time>2025-02-25T12:00:50Z</time>
      </trkpt>
      <trkpt lat="48.10406" lon="-3.57841">
        <ele>178.2</ele>
        <time>2025-02-25T12:00:51Z</time>
      </trkpt>
      <trkpt lat="48.10405" lon="-3.5784">
        <ele>178.2</ele>
        <time>2025-02-25T12:00:52Z</time>
      </trkpt>
      <trkpt lat="48.10403" lon="-3.5784">
        <ele>178</ele>
        <time>2025-02-25T12:00:53Z</time>
      </trkpt>
      <trkpt lat="48.10402" lon="-3.5784">
        <ele>177.9</ele>
        <time>2025-02-25T12:00:54Z</time>
      </trkpt>
      <trkpt lat="48.10401" lon="-3.5784">
        <ele>177.9</ele>
        <time>2025-02-25T12:00:55Z</time>
      </trkpt>
      <trkpt lat="48.104" lon="-3.5784">
        <ele>177.8</ele>
        <time>2025-02-25T12:00:56Z</time>
      </trkpt>
      <trkpt lat="48.10399" lon="-3.57839">
        <ele>177.7</ele>
        <time>2025-02-25T12:00:57Z</time>
      </trkpt>
      <trkpt lat="48.10398" lon="-3.57839">
        <ele>177.7</ele>
        <time>2025-02-25T12:00:58Z</time>
      </trkpt>
      <trkpt lat="48.10397" lon="-3.57839">
        <ele>177.6</ele>
        <time>2025-02-25T12:00:59Z</time>
      </trkpt>
      <trkpt lat="48.10396" lon="-3.57839">
        <ele>177.5</ele>
        <time>2025-02-25T12:01:00Z</time>
      </trkpt>
      <trkpt lat="48.10395" lon="-3.57838">
        <ele>177.4</ele>
        <time>2025-02-25T12:01:01Z</time>
      </trkpt>
      <trkpt lat="48.10394" lon="-3.57838">
        <ele>177.4</ele>
        <time>2025-02-25T12:01:02Z</time>
      </trkpt>
      <trkpt lat="48.10393" lon="-3.57838">
        <ele>177.3</ele>
        <time>2025-02-25T12:01:03Z</time>
      </trkpt>
      <trkpt lat="48.10392" lon="-3.57838">
        <ele>177.2</ele>
        <time>2025-02-25T12:01:04Z</time>
      </trkpt>
      <trkpt lat="48.1039" lon="-3.57837">
        <ele>177.1</ele>
        <time>2025-02-25T12:01:05Z</time>
      </trkpt>
      <trkpt lat="48.10389" lon="-3.57837">
        <ele>177</ele>
        <time>2025-02-25T12:01:06Z</time>
      </trkpt>
      <trkpt lat="48.10388" lon="-3.57837">
        <ele>176.9</ele>
        <time>2025-02-25T12:01:07Z</time>
      </trkpt>
      <trkpt lat="48.10387" lon="-3.57836">
        <ele>176.9</ele>
        <time>2025-02-25T12:01:08Z</time>
      </trkpt>
      <trkpt lat="48.10386" lon="-3.57836">
        <ele>176.8</ele>
        <time>2025-02-25T12:01:09Z</time>
      </trkpt>
      <trkpt lat="48.10384" lon="-3.57836">
        <ele>176.6</ele>
        <time>2025-02-25T12:01:10Z</time>
      </trkpt>
      <trkpt lat="48.10383" lon="-3.57836">
        <ele>176.6</ele>
        <time>2025-02-25T12:01:11Z</time>
      </trkpt>
      <trkpt lat="48.10382" lon="-3.57836">
        <ele>176.5</ele>
        <time>2025-02-25T12:01:12Z</time>
      </trkpt>
      <trkpt lat="48.10381" lon="-3.57836">
        <ele>176.4</ele>
        <time>2025-02-25T12:01:13Z</time>
      </trkpt>
      <trkpt lat="48.1038" lon="-3.57835">
        <ele>176.3</ele>
        <time>2025-02-25T12:01:14Z</time>
      </trkpt>
      <trkpt lat="48.10379" lon="-3.57835">
        <ele>176.3</ele>
        <time>2025-02-25T12:01:15Z</time>
      </trkpt>
      <trkpt lat="48.10378" lon="-3.57834">
        <ele>176.2</ele>
        <time>2025-02-25T12:01:16Z</time>
      </trkpt>
      <trkpt lat="48.10377" lon="-3.57834">
        <ele>176.1</ele>
        <time>2025-02-25T12:01:17Z</time>
      </trkpt>
      <trkpt lat="48.10375" lon="-3.57834">
        <ele>176</ele>
        <time>2025-02-25T12:01:18Z</time>
      </trkpt>
      <trkpt lat="48.10374" lon="-3.57835">
        <ele>175.9</ele>
        <time>2025-02-25T12:01:19Z</time>
      </trkpt>
      <trkpt lat="48.10373" lon="-3.57835">
        <ele>175.8</ele>
        <time>2025-02-25T12:01:20Z</time>
      </trkpt>
      <trkpt lat="48.10372" lon="-3.57834">
        <ele>175.8</ele>
        <time>2025-02-25T12:01:21Z</time>
      </trkpt>
      <trkpt lat="48.10371" lon="-3.57833">
        <ele>175.7</ele>
        <time>2025-02-25T12:01:22Z</time>
      </trkpt>
      <trkpt lat="48.1037" lon="-3.57833">
        <ele>175.7</ele>
        <time>2025-02-25T12:01:23Z</time>
      </trkpt>
      <trkpt lat="48.10369" lon="-3.57833">
        <ele>175.6</ele>
        <time>2025-02-25T12:01:24Z</time>
      </trkpt>
      <trkpt lat="48.10368" lon="-3.57832">
        <ele>175.5</ele>
        <time>2025-02-25T12:01:25Z</time>
      </trkpt>
      <trkpt lat="48.10366" lon="-3.57832">
        <ele>175.4</ele>
        <time>2025-02-25T12:01:26Z</time>
      </trkpt>
      <trkpt lat="48.10365" lon="-3.57832">
        <ele>175.3</ele>
        <time>2025-02-25T12:01:27Z</time>
      </trkpt>
      <trkpt lat="48.10364" lon="-3.57832">
        <ele>175.3</ele>
        <time>2025-02-25T12:01:28Z</time>
      </trkpt>
      <trkpt lat="48.10363" lon="-3.57832">
        <ele>175.2</ele>
        <time>2025-02-25T12:01:29Z</time>
      </trkpt>
      <trkpt lat="48.10362" lon="-3.57832">
        <ele>175.1</ele>
        <time>2025-02-25T12:01:30Z</time>
      </trkpt>
      <trkpt lat="48.10361" lon="-3.57831">
        <ele>175.1</ele>
        <time>2025-02-25T12:01:31Z</time>
      </trkpt>
      <trkpt lat="48.1036" lon="-3.57831">
        <ele>175</ele>
        <time>2025-02-25T12:01:32Z</time>
      </trkpt>
      <trkpt lat="48.10359" lon="-3.5783">
        <ele>175</ele>
        <time>2025-02-25T12:01:33Z</time>
      </trkpt>
      <trkpt lat="48.10358" lon="-3.5783">
        <ele>174.9</ele>
        <time>2025-02-25T12:01:34Z</time>
      </trkpt>
      <trkpt lat="48.10357" lon="-3.5783">
        <ele>174.8</ele>
        <time>2025-02-25T12:01:35Z</time>
      </trkpt>
      <trkpt lat="48.10356" lon="-3.5783">
        <ele>174.7</ele>
        <time>2025-02-25T12:01:36Z</time>
      </trkpt>
      <trkpt lat="48.10354" lon="-3.5783">
        <ele>174.6</ele>
        <time>2025-02-25T12:01:37Z</time>
      </trkpt>
      <trkpt lat="48.10353" lon="-3.57829">
        <ele>174.5</ele>
        <time>2025-02-25T12:01:38Z</time>
      </trkpt>
      <trkpt lat="48.10352" lon="-3.57829">
        <ele>174.4</ele>
        <time>2025-02-25T12:01:39Z</time>
      </trkpt>
      <trkpt lat="48.10351" lon="-3.57829">
        <ele>174.4</ele>
        <time>2025-02-25T12:01:40Z</time>
      </trkpt>
      <trkpt lat="48.10349" lon="-3.57828">
        <ele>174.2</ele>
        <time>2025-02-25T12:01:41Z</time>
      </trkpt>
      <trkpt lat="48.10348" lon="-3.57828">
        <ele>174.2</ele>
        <time>2025-02-25T12:01:42Z</time>
      </trkpt>
      <trkpt lat="48.10347" lon="-3.57827">
        <ele>174.1</ele>
        <time>2025-02-25T12:01:43Z</time>
      </trkpt>
      <trkpt lat="48.10346" lon="-3.57828">
        <ele>174</ele>
        <time>2025-02-25T12:01:44Z</time>
      </trkpt>
      <trkpt lat="48.10345" lon="-3.57828">
        <ele>173.9</ele>
        <time>2025-02-25T12:01:45Z</time>
      </trkpt>
      <trkpt lat="48.10344" lon="-3.57827">
        <ele>173.9</ele>
        <time>2025-02-25T12:01:46Z</time>
      </trkpt>
      <trkpt lat="48.10343" lon="-3.57826">
        <ele>173.8</ele>
        <time>2025-02-25T12:01:47Z</time>
      </trkpt>
      <trkpt lat="48.10342" lon="-3.57826">
        <ele>173.7</ele>
        <time>2025-02-25T12:01:48Z</time>
      </trkpt>
      <trkpt lat="48.10341" lon="-3.57826">
        <ele>173.6</ele>
        <time>2025-02-25T12:01:49Z</time>
      </trkpt>
      <trkpt lat="48.1034" lon="-3.57826">
        <ele>173.5</ele>
        <time>2025-02-25T12:01:50Z</time>
      </trkpt>
      <trkpt lat="48.10338" lon="-3.57826">
        <ele>173.4</ele>
        <time>2025-02-25T12:01:51Z</time>
      </trkpt>
      <trkpt lat="48.10337" lon="-3.57826">
        <ele>173.3</ele>
        <time>2025-02-25T12:01:52Z</time>
      </trkpt>
      <trkpt lat="48.10336" lon="-3.57826">
        <ele>173.2</ele>
        <time>2025-02-25T12:01:53Z</time>
      </trkpt>
      <trkpt lat="48.10335" lon="-3.57825">
        <ele>173.1</ele>
        <time>2025-02-25T12:01:54Z</time>
      </trkpt>
      <trkpt lat="48.10334" lon="-3.57825">
        <ele>173.1</ele>
        <time>2025-02-25T12:01:55Z</time>
      </trkpt>
      <trkpt lat="48.10332" lon="-3.57826">
        <ele>172.9</ele>
        <time>2025-02-25T12:01:56Z</time>
      </trkpt>
      <trkpt lat="48.10331" lon="-3.57825">
        <ele>172.9</ele>
        <time>2025-02-25T12:01:57Z</time>
      </trkpt>
      <trkpt lat="48.1033" lon="-3.57826">
        <ele>172.8</ele>
        <time>2025-02-25T12:01:58Z</time>
      </trkpt>
      <trkpt lat="48.10329" lon="-3.57826">
        <ele>172.7</ele>
        <time>2025-02-25T12:01:59Z</time>
      </trkpt>
      <trkpt lat="48.10328" lon="-3.57824">
        <ele>172.7</ele>
        <time>2025-02-25T12:02:00Z</time>
      </trkpt>
      <trkpt lat="48.10327" lon="-3.57824">
        <ele>172.6</ele>
        <time>2025-02-25T12:02:01Z</time>
      </trkpt>
      <trkpt lat="48.10326" lon="-3.57824">
        <ele>172.6</ele>
        <time>2025-02-25T12:02:02Z</time>
      </trkpt>
      <trkpt lat="48.10325" lon="-3.57824">
        <ele>172.5</ele>
        <time>2025-02-25T12:02:03Z</time>
      </trkpt>
      <trkpt lat="48.10323" lon="-3.57824">
        <ele>172.4</ele>
        <time>2025-02-25T12:02:04Z</time>
      </trkpt>
      <trkpt lat="48.10322" lon="-3.57823">
        <ele>172.3</ele>
        <time>2025-02-25T12:02:05Z</time>
      </trkpt>
      <trkpt lat="48.10321" lon="-3.57823">
        <ele>172.3</ele>
        <time>2025-02-25T12:02:06Z</time>
      </trkpt>
      <trkpt lat="48.1032" lon="-3.57823">
        <ele>172.2</ele>
        <time>2025-02-25T12:02:07Z</time>
      </trkpt>
      <trkpt lat="48.10319" lon="-3.57823">
        <ele>172.2</ele>
        <time>2025-02-25T12:02:08Z</time>
      </trkpt>
      <trkpt lat="48.10318" lon="-3.57822">
        <ele>172.1</ele>
        <time>2025-02-25T12:02:09Z</time>
      </trkpt>
      <trkpt lat="48.10316" lon="-3.57822">
        <ele>172</ele>
        <time>2025-02-25T12:02:10Z</time>
      </trkpt>
      <trkpt lat="48.10315" lon="-3.57822">
        <ele>171.9</ele>
        <time>2025-02-25T12:02:11Z</time>
      </trkpt>
      <trkpt lat="48.10314" lon="-3.57822">
        <ele>171.9</ele>
        <time>2025-02-25T12:02:12Z</time>
      </trkpt>
      <trkpt lat="48.10313" lon="-3.57822">
        <ele>171.8</ele>
        <time>2025-02-25T12:02:13Z</time>
      </trkpt>
      <trkpt lat="48.10312" lon="-3.57821">
        <ele>171.8</ele>
        <time>2025-02-25T12:02:14Z</time>
      </trkpt>
      <trkpt lat="48.10311" lon="-3.57821">
        <ele>171.7</ele>
        <time>2025-02-25T12:02:15Z</time>
      </trkpt>
      <trkpt lat="48.1031" lon="-3.57821">
        <ele>171.7</ele>
        <time>2025-02-25T12:02:16Z</time>
      </trkpt>
      <trkpt lat="48.10309" lon="-3.57821">
        <ele>171.6</ele>
        <time>2025-02-25T12:02:17Z</time>
      </trkpt>
      <trkpt lat="48.10308" lon="-3.57821">
        <ele>171.6</ele>
        <time>2025-02-25T12:02:18Z</time>
      </trkpt>
      <trkpt lat="48.10306" lon="-3.5782">
        <ele>171.5</ele>
        <time>2025-02-25T12:02:19Z</time>
      </trkpt>
      <trkpt lat="48.10305" lon="-3.5782">
        <ele>171.4</ele>
        <time>2025-02-25T12:02:20Z</time>
      </trkpt>
      <trkpt lat="48.10304" lon="-3.5782">
        <ele>171.4</ele>
        <time>2025-02-25T12:02:21Z</time>
      </trkpt>
      <trkpt lat="48.10302" lon="-3.5782">
        <ele>171.2</ele>
        <time>2025-02-25T12:02:22Z</time>
      </trkpt>
      <trkpt lat="48.10301" lon="-3.5782">
        <ele>171.2</ele>
        <time>2025-02-25T12:02:23Z</time>
      </trkpt>
      <trkpt lat="48.103" lon="-3.57819">
        <ele>171.1</ele>
        <time>2025-02-25T12:02:24Z</time>
      </trkpt>
      <trkpt lat="48.10299" lon="-3.57819">
        <ele>171</ele>
        <time>2025-02-25T12:02:25Z</time>
      </trkpt>
      <trkpt lat="48.10298" lon="-3.57819">
        <ele>171</ele>
        <time>2025-02-25T12:02:26Z</time>
      </trkpt>
      <trkpt lat="48.10296" lon="-3.57818">
        <ele>170.9</ele>
        <time>2025-02-25T12:02:27Z</time>
      </trkpt>
      <trkpt lat="48.10295" lon="-3.57818">
        <ele>170.8</ele>
        <time>2025-02-25T12:02:28Z</time>
      </trkpt>
      <trkpt lat="48.10294" lon="-3.57817">
        <ele>170.8</ele>
        <time>2025-02-25T12:02:29Z</time>
      </trkpt>
      <trkpt lat="48.10293" lon="-3.57817">
        <ele>170.7</ele>
        <time>2025-02-25T12:02:30Z</time>
      </trkpt>
      <trkpt lat="48.10292" lon="-3.57818">
        <ele>170.6</ele>
        <time>2025-02-25T12:02:31Z</time>
      </trkpt>
      <trkpt lat="48.1029" lon="-3.57818">
        <ele>170.4</ele>
        <time>2025-02-25T12:02:32Z</time>
      </trkpt>
      <trkpt lat="48.10289" lon="-3.57817">
        <ele>170.4</ele>
        <time>2025-02-25T12:02:33Z</time>
      </trkpt>
      <trkpt lat="48.10288" lon="-3.57817">
        <ele>170.3</ele>
        <time>2025-02-25T12:02:34Z</time>
      </trkpt>
      <trkpt lat="48.10287" lon="-3.57817">
        <ele>170.3</ele>
        <time>2025-02-25T12:02:35Z</time>
      </trkpt>
      <trkpt lat="48.10286" lon="-3.57816">
        <ele>170.2</ele>
        <time>2025-02-25T12:02:36Z</time>
      </trkpt>
      <trkpt lat="48.10285" lon="-3.57816">
        <ele>170.1</ele>
        <time>2025-02-25T12:02:37Z</time>
      </trkpt>
      <trkpt lat="48.10283" lon="-3.57816">
        <ele>170</ele>
        <time>2025-02-25T12:02:38Z</time>
      </trkpt>
      <trkpt lat="48.10282" lon="-3.57816">
        <ele>169.9</ele>
        <time>2025-02-25T12:02:39Z</time>
      </trkpt>
      <trkpt lat="48.10281" lon="-3.57816">
        <ele>169.9</ele>
        <time>2025-02-25T12:02:40Z</time>
      </trkpt>
      <trkpt lat="48.1028" lon="-3.57816">
        <ele>169.8</ele>
        <time>2025-02-25T12:02:41Z</time>
      </trkpt>
      <trkpt lat="48.10279" lon="-3.57816">
        <ele>169.7</ele>
        <time>2025-02-25T12:02:42Z</time>
      </trkpt>
      <trkpt lat="48.10278" lon="-3.57815">
        <ele>169.7</ele>
        <time>2025-02-25T12:02:43Z</time>
      </trkpt>
      <trkpt lat="48.10277" lon="-3.57815">
        <ele>169.6</ele>
        <time>2025-02-25T12:02:44Z</time>
      </trkpt>
      <trkpt lat="48.10275" lon="-3.57815">
        <ele>169.5</ele>
        <time>2025-02-25T12:02:45Z</time>
      </trkpt>
      <trkpt lat="48.10274" lon="-3.57815">
        <ele>169.4</ele>
        <time>2025-02-25T12:02:46Z</time>
      </trkpt>
      <trkpt lat="48.10273" lon="-3.57814">
        <ele>169.4</ele>
        <time>2025-02-25T12:02:47Z</time>
      </trkpt>
      <trkpt lat="48.10272" lon="-3.57815">
        <ele>169.3</ele>
        <time>2025-02-25T12:02:48Z</time>
      </trkpt>
      <trkpt lat="48.10271" lon="-3.57815">
        <ele>169.3</ele>
        <time>2025-02-25T12:02:49Z</time>
      </trkpt>
      <trkpt lat="48.1027" lon="-3.57815">
        <ele>169.2</ele>
        <time>2025-02-25T12:02:50Z</time>
      </trkpt>
      <trkpt lat="48.10268" lon="-3.57815">
        <ele>169.1</ele>
        <time>2025-02-25T12:02:51Z</time>
      </trkpt>
      <trkpt lat="48.10267" lon="-3.57814">
        <ele>169</ele>
        <time>2025-02-25T12:02:52Z</time>
      </trkpt>
      <trkpt lat="48.10266" lon="-3.57814">
        <ele>169</ele>
        <time>2025-02-25T12:02:53Z</time>
      </trkpt>
      <trkpt lat="48.10265" lon="-3.57814">
        <ele>168.9</ele>
        <time>2025-02-25T12:02:54Z</time>
      </trkpt>
      <trkpt lat="48.10264" lon="-3.57812">
        <ele>168.9</ele>
        <time>2025-02-25T12:02:55Z</time>
      </trkpt>
      <trkpt lat="48.10262" lon="-3.57812">
        <ele>168.8</ele>
        <time>2025-02-25T12:02:56Z</time>
      </trkpt>
      <trkpt lat="48.10261" lon="-3.57813">
        <ele>168.7</ele>
        <time>2025-02-25T12:02:57Z</time>
      </trkpt>
      <trkpt lat="48.1026" lon="-3.57813">
        <ele>168.6</ele>
        <time>2025-02-25T12:02:58Z</time>
      </trkpt>
      <trkpt lat="48.10259" lon="-3.57813">
        <ele>168.6</ele>
        <time>2025-02-25T12:02:59Z</time>
      </trkpt>
      <trkpt lat="48.10257" lon="-3.57812">
        <ele>168.4</ele>
        <time>2025-02-25T12:03:00Z</time>
      </trkpt>
      <trkpt lat="48.10256" lon="-3.57812">
        <ele>168.4</ele>
        <time>2025-02-25T12:03:01Z</time>
      </trkpt>
      <trkpt lat="48.10255" lon="-3.57812">
        <ele>168.3</ele>
        <time>2025-02-25T12:03:02Z</time>
      </trkpt>
      <trkpt lat="48.10254" lon="-3.57811">
        <ele>168.3</ele>
        <time>2025-02-25T12:03:03Z</time>
      </trkpt>
      <trkpt lat="48.10253" lon="-3.57811">
        <ele>168.2</ele>
        <time>2025-02-25T12:03:04Z</time>
      </trkpt>
      <trkpt lat="48.10252" lon="-3.57812">
        <ele>168.1</ele>
        <time>2025-02-25T12:03:05Z</time>
      </trkpt>
      <trkpt lat="48.1025" lon="-3.57812">
        <ele>168</ele>
        <time>2025-02-25T12:03:06Z</time>
      </trkpt>
      <trkpt lat="48.10249" lon="-3.57812">
        <ele>167.9</ele>
        <time>2025-02-25T12:03:07Z</time>
      </trkpt>
      <trkpt lat="48.10248" lon="-3.57811">
        <ele>167.9</ele>
        <time>2025-02-25T12:03:08Z</time>
      </trkpt>
      <trkpt lat="48.10247" lon="-3.57811">
        <ele>167.8</ele>
        <time>2025-02-25T12:03:09Z</time>
      </trkpt>
      <trkpt lat="48.10246" lon="-3.5781">
        <ele>167.7</ele>
        <time>2025-02-25T12:03:10Z</time>
      </trkpt>
      <trkpt lat="48.10244" lon="-3.5781">
        <ele>167.6</ele>
        <time>2025-02-25T12:03:11Z</time>
      </trkpt>
      <trkpt lat="48.10243" lon="-3.5781">
        <ele>167.5</ele>
        <time>2025-02-25T12:03:12Z</time>
      </trkpt>
      <trkpt lat="48.10242" lon="-3.5781">
        <ele>167.4</ele>
        <time>2025-02-25T12:03:13Z</time>
      </trkpt>
      <trkpt lat="48.10241" lon="-3.57811">
        <ele>167.4</ele>
        <time>2025-02-25T12:03:14Z</time>
      </trkpt>
      <trkpt lat="48.1024" lon="-3.57811">
        <ele>167.3</ele>
        <time>2025-02-25T12:03:15Z</time>
      </trkpt>
      <trkpt lat="48.10239" lon="-3.57811">
        <ele>167.2</ele>
        <time>2025-02-25T12:03:16Z</time>
      </trkpt>
      <trkpt lat="48.10238" lon="-3.57811">
        <ele>167.1</ele>
        <time>2025-02-25T12:03:17Z</time>
      </trkpt>
      <trkpt lat="48.10237" lon="-3.57811">
        <ele>167.1</ele>
        <time>2025-02-25T12:03:18Z</time>
      </trkpt>
      <trkpt lat="48.10236" lon="-3.57811">
        <ele>167</ele>
        <time>2025-02-25T12:03:19Z</time>
      </trkpt>
      <trkpt lat="48.10235" lon="-3.5781">
        <ele>166.9</ele>
        <time>2025-02-25T12:03:20Z</time>
      </trkpt>
      <trkpt lat="48.10233" lon="-3.5781">
        <ele>166.8</ele>
        <time>2025-02-25T12:03:21Z</time>
      </trkpt>
      <trkpt lat="48.10232" lon="-3.5781">
        <ele>166.7</ele>
        <time>2025-02-25T12:03:22Z</time>
      </trkpt>
      <trkpt lat="48.10231" lon="-3.5781">
        <ele>166.6</ele>
        <time>2025-02-25T12:03:23Z</time>
      </trkpt>
      <trkpt lat="48.1023" lon="-3.5781">
        <ele>166.6</ele>
        <time>2025-02-25T12:03:24Z</time>
      </trkpt>
      <trkpt lat="48.10229" lon="-3.5781">
        <ele>166.5</ele>
        <time>2025-02-25T12:03:25Z</time>
      </trkpt>
      <trkpt lat="48.10228" lon="-3.5781">
        <ele>166.4</ele>
        <time>2025-02-25T12:03:26Z</time>
      </trkpt>
      <trkpt lat="48.10227" lon="-3.5781">
        <ele>166.3</ele>
        <time>2025-02-25T12:03:27Z</time>
      </trkpt>
      <trkpt lat="48.10226" lon="-3.5781">
        <ele>166.3</ele>
        <time>2025-02-25T12:03:28Z</time>
      </trkpt>
      <trkpt lat="48.10225" lon="-3.57809">
        <ele>166.2</ele>
        <time>2025-02-25T12:03:29Z</time>
      </trkpt>
      <trkpt lat="48.10224" lon="-3.57809">
        <ele>166.1</ele>
        <time>2025-02-25T12:03:30Z</time>
      </trkpt>
      <trkpt lat="48.10222" lon="-3.5781">
        <ele>166</ele>
        <time>2025-02-25T12:03:31Z</time>
      </trkpt>
      <trkpt lat="48.10221" lon="-3.5781">
        <ele>165.9</ele>
        <time>2025-02-25T12:03:32Z</time>
      </trkpt>
      <trkpt lat="48.1022" lon="-3.5781">
        <ele>165.8</ele>
        <time>2025-02-25T12:03:33Z</time>
      </trkpt>
      <trkpt lat="48.10219" lon="-3.5781">
        <ele>165.8</ele>
        <time>2025-02-25T12:03:34Z</time>
      </trkpt>
      <trkpt lat="48.10218" lon="-3.5781">
        <ele>165.7</ele>
        <time>2025-02-25T12:03:35Z</time>
      </trkpt>
      <trkpt lat="48.10217" lon="-3.57811">
        <ele>165.6</ele>
        <time>2025-02-25T12:03:36Z</time>
      </trkpt>
      <trkpt lat="48.10216" lon="-3.57812">
        <ele>165.6</ele>
        <time>2025-02-25T12:03:37Z</time>
      </trkpt>
      <trkpt lat="48.10215" lon="-3.57812">
        <ele>165.5</ele>
        <time>2025-02-25T12:03:38Z</time>
      </trkpt>
      <trkpt lat="48.10214" lon="-3.57813">
        <ele>165.4</ele>
        <time>2025-02-25T12:03:39Z</time>
      </trkpt>
      <trkpt lat="48.10213" lon="-3.57814">
        <ele>165.3</ele>
        <time>2025-02-25T12:03:40Z</time>
      </trkpt>
      <trkpt lat="48.10211" lon="-3.57815">
        <ele>165.2</ele>
        <time>2025-02-25T12:03:41Z</time>
      </trkpt>
      <trkpt lat="48.1021" lon="-3.57816">
        <ele>165.1</ele>
        <time>2025-02-25T12:03:42Z</time>
      </trkpt>
      <trkpt lat="48.10209" lon="-3.57816">
        <ele>165</ele>
        <time>2025-02-25T12:03:43Z</time>
      </trkpt>
      <trkpt lat="48.10208" lon="-3.57817">
        <ele>165</ele>
        <time>2025-02-25T12:03:44Z</time>
      </trkpt>
      <trkpt lat="48.10207" lon="-3.57818">
        <ele>164.9</ele>
        <time>2025-02-25T12:03:45Z</time>
      </trkpt>
      <trkpt lat="48.10206" lon="-3.57818">
        <ele>164.8</ele>
        <time>2025-02-25T12:03:46Z</time>
      </trkpt>
      <trkpt lat="48.10205" lon="-3.57819">
        <ele>164.8</ele>
        <time>2025-02-25T12:03:47Z</time>
      </trkpt>
      <trkpt lat="48.10204" lon="-3.5782">
        <ele>164.7</ele>
        <time>2025-02-25T12:03:48Z</time>
      </trkpt>
      <trkpt lat="48.10203" lon="-3.57821">
        <ele>164.6</ele>
        <time>2025-02-25T12:03:49Z</time>
      </trkpt>
      <trkpt lat="48.10202" lon="-3.57822">
        <ele>164.5</ele>
        <time>2025-02-25T12:03:50Z</time>
      </trkpt>
      <trkpt lat="48.10201" lon="-3.57822">
        <ele>164.5</ele>
        <time>2025-02-25T12:03:51Z</time>
      </trkpt>
      <trkpt lat="48.102" lon="-3.57823">
        <ele>164.4</ele>
        <time>2025-02-25T12:03:52Z</time>
      </trkpt>
      <trkpt lat="48.10199" lon="-3.57823">
        <ele>164.3</ele>
        <time>2025-02-25T12:03:53Z</time>
      </trkpt>
      <trkpt lat="48.10198" lon="-3.57824">
        <ele>164.3</ele>
        <time>2025-02-25T12:03:54Z</time>
      </trkpt>
      <trkpt lat="48.10197" lon="-3.57824">
        <ele>164.2</ele>
        <time>2025-02-25T12:03:55Z</time>
      </trkpt>
      <trkpt lat="48.10196" lon="-3.57825">
        <ele>164.1</ele>
        <time>2025-02-25T12:03:56Z</time>
      </trkpt>
      <trkpt lat="48.10195" lon="-3.57827">
        <ele>164</ele>
        <time>2025-02-25T12:03:57Z</time>
      </trkpt>
      <trkpt lat="48.10195" lon="-3.57828">
        <ele>164</ele>
        <time>2025-02-25T12:03:58Z</time>
      </trkpt>
      <trkpt lat="48.10193" lon="-3.57828">
        <ele>163.9</ele>
        <time>2025-02-25T12:03:59Z</time>
      </trkpt>
      <trkpt lat="48.10193" lon="-3.57829">
        <ele>163.9</ele>
        <time>2025-02-25T12:04:00Z</time>
      </trkpt>
      <trkpt lat="48.10192" lon="-3.5783">
        <ele>163.8</ele>
        <time>2025-02-25T12:04:01Z</time>
      </trkpt>
      <trkpt lat="48.10191" lon="-3.57831">
        <ele>163.8</ele>
        <time>2025-02-25T12:04:02Z</time>
      </trkpt>
      <trkpt lat="48.1019" lon="-3.57831">
        <ele>163.7</ele>
        <time>2025-02-25T12:04:03Z</time>
      </trkpt>
      <trkpt lat="48.10189" lon="-3.57832">
        <ele>163.6</ele>
        <time>2025-02-25T12:04:04Z</time>
      </trkpt>
      <trkpt lat="48.10188" lon="-3.57834">
        <ele>163.5</ele>
        <time>2025-02-25T12:04:05Z</time>
      </trkpt>
      <trkpt lat="48.10187" lon="-3.57836">
        <ele>163.4</ele>
        <time>2025-02-25T12:04:06Z</time>
      </trkpt>
      <trkpt lat="48.10186" lon="-3.57837">
        <ele>163.3</ele>
        <time>2025-02-25T12:04:07Z</time>
      </trkpt>
      <trkpt lat="48.10185" lon="-3.57838">
        <ele>163.2</ele>
        <time>2025-02-25T12:04:08Z</time>
      </trkpt>
      <trkpt lat="48.10185" lon="-3.57838">
        <ele>163.2</ele>
        <time>2025-02-25T12:04:09Z</time>
      </trkpt>
      <trkpt lat="48.10184" lon="-3.57839">
        <ele>163.1</ele>
        <time>2025-02-25T12:04:10Z</time>
      </trkpt>
      <trkpt lat="48.10183" lon="-3.5784">
        <ele>163</ele>
        <time>2025-02-25T12:04:11Z</time>
      </trkpt>
      <trkpt lat="48.10182" lon="-3.5784">
        <ele>163</ele>
        <time>2025-02-25T12:04:12Z</time>
      </trkpt>
      <trkpt lat="48.10181" lon="-3.57841">
        <ele>162.9</ele>
        <time>2025-02-25T12:04:13Z</time>
      </trkpt>
      <trkpt lat="48.1018" lon="-3.57843">
        <ele>162.8</ele>
        <time>2025-02-25T12:04:14Z</time>
      </trkpt>
      <trkpt lat="48.1018" lon="-3.57844">
        <ele>162.8</ele>
        <time>2025-02-25T12:04:15Z</time>
      </trkpt>
      <trkpt lat="48.10179" lon="-3.57845">
        <ele>162.7</ele>
        <time>2025-02-25T12:04:16Z</time>
      </trkpt>
      <trkpt lat="48.10178" lon="-3.57846">
        <ele>162.6</ele>
        <time>2025-02-25T12:04:17Z</time>
      </trkpt>
      <trkpt lat="48.10177" lon="-3.57847">
        <ele>162.6</ele>
        <time>2025-02-25T12:04:18Z</time>
      </trkpt>
      <trkpt lat="48.10177" lon="-3.57849">
        <ele>162.5</ele>
        <time>2025-02-25T12:04:19Z</time>
      </trkpt>
      <trkpt lat="48.10176" lon="-3.5785">
        <ele>162.5</ele>
        <time>2025-02-25T12:04:20Z</time>
      </trkpt>
      <trkpt lat="48.10175" lon="-3.57851">
        <ele>162.4</ele>
        <time>2025-02-25T12:04:21Z</time>
      </trkpt>
      <trkpt lat="48.10174" lon="-3.57852">
        <ele>162.4</ele>
        <time>2025-02-25T12:04:22Z</time>
      </trkpt>
      <trkpt lat="48.10173" lon="-3.57853">
        <ele>162.3</ele>
        <time>2025-02-25T12:04:23Z</time>
      </trkpt>
      <trkpt lat="48.10172" lon="-3.57855">
        <ele>162.2</ele>
        <time>2025-02-25T12:04:24Z</time>
      </trkpt>
      <trkpt lat="48.10171" lon="-3.57855">
        <ele>162.2</ele>
        <time>2025-02-25T12:04:25Z</time>
      </trkpt>
      <trkpt lat="48.1017" lon="-3.57856">
        <ele>162.1</ele>
        <time>2025-02-25T12:04:26Z</time>
      </trkpt>
      <trkpt lat="48.10169" lon="-3.57857">
        <ele>162.1</ele>
        <time>2025-02-25T12:04:27Z</time>
      </trkpt>
      <trkpt lat="48.10169" lon="-3.57857">
        <ele>162.1</ele>
        <time>2025-02-25T12:04:28Z</time>
      </trkpt>
      <trkpt lat="48.10169" lon="-3.57857">
        <ele>162.1</ele>
        <time>2025-02-25T12:04:29Z</time>
      </trkpt>
      <trkpt lat="48.10169" lon="-3.57857">
        <ele>162.1</ele>
        <time>2025-02-25T12:04:30Z</time>
      </trkpt>
      <trkpt lat="48.10169" lon="-3.57857">
        <ele>162.1</ele>
        <time>2025-02-25T12:04:31Z</time>
      </trkpt>
      <trkpt lat="48.10169" lon="-3.57857">
        <ele>162.1</ele>
        <time>2025-02-25T12:04:32Z</time>
      </trkpt>
      <trkpt lat="48.10169" lon="-3.57857">
        <ele>162.1</ele>
        <time>2025-02-25T12:04:33Z</time>
      </trkpt>
      <trkpt lat="48.10168" lon="-3.57856">
        <ele>162.1</ele>
        <time>2025-02-25T12:04:34Z</time>
      </trkpt>
      <trkpt lat="48.10168" lon="-3.57856">
        <ele>162.1</ele>
        <time>2025-02-25T12:04:35Z</time>
      </trkpt>
      <trkpt lat="48.10167" lon="-3.57857">
        <ele>162</ele>
        <time>2025-02-25T12:04:36Z</time>
      </trkpt>
      <trkpt lat="48.10165" lon="-3.57857">
        <ele>161.9</ele>
        <time>2025-02-25T12:04:37Z</time>
      </trkpt>
      <trkpt lat="48.10164" lon="-3.57856">
        <ele>161.8</ele>
        <time>2025-02-25T12:04:38Z</time>
      </trkpt>
      <trkpt lat="48.10164" lon="-3.57856">
        <ele>161.8</ele>
        <time>2025-02-25T12:04:39Z</time>
      </trkpt>
      <trkpt lat="48.10164" lon="-3.57856">
        <ele>161.8</ele>
        <time>2025-02-25T12:04:40Z</time>
      </trkpt>
      <trkpt lat="48.10164" lon="-3.57856">
        <ele>161.8</ele>
        <time>2025-02-25T12:04:41Z</time>
      </trkpt>
      <trkpt lat="48.10164" lon="-3.57856">
        <ele>161.8</ele>
        <time>2025-02-25T12:04:42Z</time>
      </trkpt>
      <trkpt lat="48.10164" lon="-3.57856">
        <ele>161.8</ele>
        <time>2025-02-25T12:04:43Z</time>
      </trkpt>
      <trkpt lat="48.10164" lon="-3.57857">
        <ele>161.8</ele>
        <time>2025-02-25T12:04:44Z</time>
      </trkpt>
      <trkpt lat="48.10164" lon="-3.57857">
        <ele>161.8</ele>
        <time>2025-02-25T12:04:45Z</time>
      </trkpt>
      <trkpt lat="48.10165" lon="-3.57855">
        <ele>161.9</ele>
        <time>2025-02-25T12:04:46Z</time>
      </trkpt>
      <trkpt lat="48.10165" lon="-3.57855">
        <ele>161.9</ele>
        <time>2025-02-25T12:04:47Z</time>
      </trkpt>
      <trkpt lat="48.10166" lon="-3.57855">
        <ele>162</ele>
        <time>2025-02-25T12:04:48Z</time>
      </trkpt>
      <trkpt lat="48.10165" lon="-3.57852">
        <ele>161.9</ele>
        <time>2025-02-25T12:04:49Z</time>
      </trkpt>
      <trkpt lat="48.10165" lon="-3.5785">
        <ele>161.9</ele>
        <time>2025-02-25T12:04:50Z</time>
      </trkpt>
      <trkpt lat="48.10166" lon="-3.57849">
        <ele>162</ele>
        <time>2025-02-25T12:04:51Z</time>
      </trkpt>
      <trkpt lat="48.10166" lon="-3.57847">
        <ele>162</ele>
        <time>2025-02-25T12:04:52Z</time>
      </trkpt>
      <trkpt lat="48.10166" lon="-3.57845">
        <ele>162</ele>
        <time>2025-02-25T12:04:53Z</time>
      </trkpt>
      <trkpt lat="48.10166" lon="-3.57843">
        <ele>162</ele>
        <time>2025-02-25T12:04:54Z</time>
      </trkpt>
      <trkpt lat="48.10166" lon="-3.57841">
        <ele>162</ele>
        <time>2025-02-25T12:04:55Z</time>
      </trkpt>
      <trkpt lat="48.10165" lon="-3.57839">
        <ele>161.9</ele>
        <time>2025-02-25T12:04:56Z</time>
      </trkpt>
      <trkpt lat="48.10165" lon="-3.57838">
        <ele>161.9</ele>
        <time>2025-02-25T12:04:57Z</time>
      </trkpt>
      <trkpt lat="48.10164" lon="-3.57837">
        <ele>161.8</ele>
        <time>2025-02-25T12:04:58Z</time>
      </trkpt>
      <trkpt lat="48.10164" lon="-3.57836">
        <ele>161.8</ele>
        <time>2025-02-25T12:04:59Z</time>
      </trkpt>
      <trkpt lat="48.10163" lon="-3.57835">
        <ele>161.7</ele>
        <time>2025-02-25T12:05:00Z</time>
      </trkpt>
      <trkpt lat="48.10163" lon="-3.57835">
        <ele>161.7</ele>
        <time>2025-02-25T12:05:01Z</time>
      </trkpt>
      <trkpt lat="48.10163" lon="-3.57834">
        <ele>161.7</ele>
        <time>2025-02-25T12:05:02Z</time>
      </trkpt>
      <trkpt lat="48.10163" lon="-3.57833">
        <ele>161.7</ele>
        <time>2025-02-25T12:05:03Z</time>
      </trkpt>
      <trkpt lat="48.10163" lon="-3.57832">
        <ele>161.8</ele>
        <time>2025-02-25T12:05:04Z</time>
      </trkpt>
      <trkpt lat="48.10163" lon="-3.57831">
        <ele>161.8</ele>
        <time>2025-02-25T12:05:05Z</time>
      </trkpt>
      <trkpt lat="48.10163" lon="-3.5783">
        <ele>161.9</ele>
        <time>2025-02-25T12:05:06Z</time>
      </trkpt>
      <trkpt lat="48.10163" lon="-3.57829">
        <ele>161.9</ele>
        <time>2025-02-25T12:05:07Z</time>
      </trkpt>
      <trkpt lat="48.10163" lon="-3.57828">
        <ele>161.9</ele>
        <time>2025-02-25T12:05:08Z</time>
      </trkpt>
      <trkpt lat="48.10163" lon="-3.57827">
        <ele>162</ele>
        <time>2025-02-25T12:05:09Z</time>
      </trkpt>
      <trkpt lat="48.10163" lon="-3.57826">
        <ele>162</ele>
        <time>2025-02-25T12:05:10Z</time>
      </trkpt>
      <trkpt lat="48.10163" lon="-3.57825">
        <ele>162</ele>
        <time>2025-02-25T12:05:11Z</time>
      </trkpt>
      <trkpt lat="48.10163" lon="-3.57824">
        <ele>162.1</ele>
        <time>2025-02-25T12:05:12Z</time>
      </trkpt>
      <trkpt lat="48.10163" lon="-3.57823">
        <ele>162.1</ele>
        <time>2025-02-25T12:05:13Z</time>
      </trkpt>
      <trkpt lat="48.10163" lon="-3.57822">
        <ele>162.1</ele>
        <time>2025-02-25T12:05:14Z</time>
      </trkpt>
      <trkpt lat="48.10163" lon="-3.57821">
        <ele>162.2</ele>
        <time>2025-02-25T12:05:15Z</time>
      </trkpt>
      <trkpt lat="48.10163" lon="-3.5782">
        <ele>162.2</ele>
        <time>2025-02-25T12:05:16Z</time>
      </trkpt>
      <trkpt lat="48.10164" lon="-3.57819">
        <ele>162.3</ele>
        <time>2025-02-25T12:05:17Z</time>
      </trkpt>
      <trkpt lat="48.10164" lon="-3.57817">
        <ele>162.4</ele>
        <time>2025-02-25T12:05:18Z</time>
      </trkpt>
      <trkpt lat="48.10164" lon="-3.57816">
        <ele>162.4</ele>
        <time>2025-02-25T12:05:19Z</time>
      </trkpt>
      <trkpt lat="48.10165" lon="-3.57815">
        <ele>162.5</ele>
        <time>2025-02-25T12:05:20Z</time>
      </trkpt>
      <trkpt lat="48.10165" lon="-3.57814">
        <ele>162.6</ele>
        <time>2025-02-25T12:05:21Z</time>
      </trkpt>
      <trkpt lat="48.10165" lon="-3.57812">
        <ele>162.6</ele>
        <time>2025-02-25T12:05:22Z</time>
      </trkpt>
      <trkpt lat="48.10165" lon="-3.57811">
        <ele>162.7</ele>
        <time>2025-02-25T12:05:23Z</time>
      </trkpt>
      <trkpt lat="48.10166" lon="-3.5781">
        <ele>162.8</ele>
        <time>2025-02-25T12:05:24Z</time>
      </trkpt>
      <trkpt lat="48.10166" lon="-3.57808">
        <ele>162.9</ele>
        <time>2025-02-25T12:05:25Z</time>
      </trkpt>
      <trkpt lat="48.10166" lon="-3.57807">
        <ele>162.9</ele>
        <time>2025-02-25T12:05:26Z</time>
      </trkpt>
      <trkpt lat="48.10167" lon="-3.57806">
        <ele>163</ele>
        <time>2025-02-25T12:05:27Z</time>
      </trkpt>
      <trkpt lat="48.10167" lon="-3.57805">
        <ele>163</ele>
        <time>2025-02-25T12:05:28Z</time>
      </trkpt>
      <trkpt lat="48.10167" lon="-3.57804">
        <ele>163</ele>
        <time>2025-02-25T12:05:29Z</time>
      </trkpt>
      <trkpt lat="48.10167" lon="-3.57802">
        <ele>163</ele>
        <time>2025-02-25T12:05:30Z</time>
      </trkpt>
      <trkpt lat="48.10167" lon="-3.57801">
        <ele>163</ele>
        <time>2025-02-25T12:05:31Z</time>
      </trkpt>
      <trkpt lat="48.10167" lon="-3.57799">
        <ele>163</ele>
        <time>2025-02-25T12:05:32Z</time>
      </trkpt>
      <trkpt lat="48.10167" lon="-3.57798">
        <ele>163</ele>
        <time>2025-02-25T12:05:33Z</time>
      </trkpt>
      <trkpt lat="48.10167" lon="-3.57797">
        <ele>163</ele>
        <time>2025-02-25T12:05:34Z</time>
      </trkpt>
      <trkpt lat="48.10168" lon="-3.57796">
        <ele>163.1</ele>
        <time>2025-02-25T12:05:35Z</time>
      </trkpt>
      <trkpt lat="48.10168" lon="-3.57795">
        <ele>163.1</ele>
        <time>2025-02-25T12:05:36Z</time>
      </trkpt>
      <trkpt lat="48.10168" lon="-3.57793">
        <ele>163.1</ele>
        <time>2025-02-25T12:05:37Z</time>
      </trkpt>
      <trkpt lat="48.10168" lon="-3.57792">
        <ele>163.1</ele>
        <time>2025-02-25T12:05:38Z</time>
      </trkpt>
      <trkpt lat="48.10167" lon="-3.5779">
        <ele>163</ele>
        <time>2025-02-25T12:05:39Z</time>
      </trkpt>
      <trkpt lat="48.10167" lon="-3.57789">
        <ele>163</ele>
        <time>2025-02-25T12:05:40Z</time>
      </trkpt>
      <trkpt lat="48.10167" lon="-3.5779">
        <ele>163</ele>
        <time>2025-02-25T12:05:41Z</time>
      </trkpt>
      <trkpt lat="48.10167" lon="-3.57789">
        <ele>163</ele>
        <time>2025-02-25T12:05:42Z</time>
      </trkpt>
      <trkpt lat="48.10167" lon="-3.57788">
        <ele>163</ele>
        <time>2025-02-25T12:05:43Z</time>
      </trkpt>
      <trkpt lat="48.10166" lon="-3.57787">
        <ele>163</ele>
        <time>2025-02-25T12:05:44Z</time>
      </trkpt>
      <trkpt lat="48.10165" lon="-3.57786">
        <ele>162.9</ele>
        <time>2025-02-25T12:05:45Z</time>
      </trkpt>
      <trkpt lat="48.10165" lon="-3.57786">
        <ele>162.9</ele>
        <time>2025-02-25T12:05:46Z</time>
      </trkpt>
      <trkpt lat="48.10164" lon="-3.57785">
        <ele>162.8</ele>
        <time>2025-02-25T12:05:47Z</time>
      </trkpt>
      <trkpt lat="48.10163" lon="-3.57786">
        <ele>162.7</ele>
        <time>2025-02-25T12:05:48Z</time>
      </trkpt>
      <trkpt lat="48.10162" lon="-3.57786">
        <ele>162.7</ele>
        <time>2025-02-25T12:05:49Z</time>
      </trkpt>
      <trkpt lat="48.10161" lon="-3.57786">
        <ele>162.6</ele>
        <time>2025-02-25T12:05:50Z</time>
      </trkpt>
      <trkpt lat="48.1016" lon="-3.57786">
        <ele>162.5</ele>
        <time>2025-02-25T12:05:51Z</time>
      </trkpt>
      <trkpt lat="48.10159" lon="-3.57786">
        <ele>162.4</ele>
        <time>2025-02-25T12:05:52Z</time>
      </trkpt>
      <trkpt lat="48.10158" lon="-3.57786">
        <ele>162.4</ele>
        <time>2025-02-25T12:05:53Z</time>
      </trkpt>
      <trkpt lat="48.10157" lon="-3.57785">
        <ele>162.3</ele>
        <time>2025-02-25T12:05:54Z</time>
      </trkpt>
      <trkpt lat="48.10157" lon="-3.57786">
        <ele>162.3</ele>
        <time>2025-02-25T12:05:55Z</time>
      </trkpt>
      <trkpt lat="48.10156" lon="-3.57785">
        <ele>162.2</ele>
        <time>2025-02-25T12:05:56Z</time>
      </trkpt>
      <trkpt lat="48.10155" lon="-3.57786">
        <ele>162.2</ele>
        <time>2025-02-25T12:05:57Z</time>
      </trkpt>
      <trkpt lat="48.10154" lon="-3.57786">
        <ele>162.1</ele>
        <time>2025-02-25T12:05:58Z</time>
      </trkpt>
      <trkpt lat="48.10155" lon="-3.57786">
        <ele>162.2</ele>
        <time>2025-02-25T12:05:59Z</time>
      </trkpt>
      <trkpt lat="48.10154" lon="-3.57786">
        <ele>162.1</ele>
        <time>2025-02-25T12:06:00Z</time>
      </trkpt>
      <trkpt lat="48.10153" lon="-3.57787">
        <ele>162</ele>
        <time>2025-02-25T12:06:01Z</time>
      </trkpt>
      <trkpt lat="48.10154" lon="-3.57787">
        <ele>162.1</ele>
        <time>2025-02-25T12:06:02Z</time>
      </trkpt>
      <trkpt lat="48.10155" lon="-3.57787">
        <ele>162.2</ele>
        <time>2025-02-25T12:06:03Z</time>
      </trkpt>
      <trkpt lat="48.10155" lon="-3.57787">
        <ele>162.2</ele>
        <time>2025-02-25T12:06:04Z</time>
      </trkpt>
      <trkpt lat="48.10155" lon="-3.57787">
        <ele>162.2</ele>
        <time>2025-02-25T12:06:05Z</time>
      </trkpt>
      <trkpt lat="48.10155" lon="-3.57787">
        <ele>162.2</ele>
        <time>2025-02-25T12:06:06Z</time>
      </trkpt>
      <trkpt lat="48.10154" lon="-3.57787">
        <ele>162.1</ele>
        <time>2025-02-25T12:06:07Z</time>
      </trkpt>
      <trkpt lat="48.10154" lon="-3.57787">
        <ele>162.1</ele>
        <time>2025-02-25T12:06:08Z</time>
      </trkpt>
      <trkpt lat="48.10154" lon="-3.57787">
        <ele>162.1</ele>
        <time>2025-02-25T12:06:09Z</time>
      </trkpt>
      <trkpt lat="48.10154" lon="-3.57787">
        <ele>162.1</ele>
        <time>2025-02-25T12:06:10Z</time>
      </trkpt>
      <trkpt lat="48.10154" lon="-3.57787">
        <ele>162.1</ele>
        <time>2025-02-25T12:06:11Z</time>
      </trkpt>
      <trkpt lat="48.10154" lon="-3.57787">
        <ele>162.1</ele>
        <time>2025-02-25T12:06:12Z</time>
      </trkpt>
      <trkpt lat="48.10154" lon="-3.57787">
        <ele>162.1</ele>
        <time>2025-02-25T12:06:13Z</time>
      </trkpt>
      <trkpt lat="48.10154" lon="-3.57787">
        <ele>162.1</ele>
        <time>2025-02-25T12:06:14Z</time>
      </trkpt>
      <trkpt lat="48.10154" lon="-3.57787">
        <ele>162.1</ele>
        <time>2025-02-25T12:06:15Z</time>
      </trkpt>
      <trkpt lat="48.10154" lon="-3.57787">
        <ele>162.1</ele>
        <time>2025-02-25T12:06:16Z</time>
      </trkpt>
      <trkpt lat="48.10154" lon="-3.57787">
        <ele>162.1</ele>
        <time>2025-02-25T12:06:17Z</time>
      </trkpt>
      <trkpt lat="48.10154" lon="-3.57787">
        <ele>162.1</ele>
        <time>2025-02-25T12:06:18Z</time>
      </trkpt>
      <trkpt lat="48.10154" lon="-3.57787">
        <ele>162.1</ele>
        <time>2025-02-25T12:06:19Z</time>
      </trkpt>
      <trkpt lat="48.10154" lon="-3.57787">
        <ele>162.1</ele>
        <time>2025-02-25T12:06:20Z</time>
      </trkpt>
      <trkpt lat="48.10154" lon="-3.57787">
        <ele>162.1</ele>
        <time>2025-02-25T12:06:21Z</time>
      </trkpt>
      <trkpt lat="48.10154" lon="-3.57788">
        <ele>162.1</ele>
        <time>2025-02-25T12:06:22Z</time>
      </trkpt>
      <trkpt lat="48.10154" lon="-3.57788">
        <ele>162.1</ele>
        <time>2025-02-25T12:06:23Z</time>
      </trkpt>
      <trkpt lat="48.10154" lon="-3.57788">
        <ele>162.1</ele>
        <time>2025-02-25T12:06:24Z</time>
      </trkpt>
      <trkpt lat="48.10154" lon="-3.57788">
        <ele>162.1</ele>
        <time>2025-02-25T12:06:25Z</time>
      </trkpt>
      <trkpt lat="48.10154" lon="-3.57788">
        <ele>162.1</ele>
        <time>2025-02-25T12:06:26Z</time>
      </trkpt>
      <trkpt lat="48.10154" lon="-3.57788">
        <ele>162.1</ele>
        <time>2025-02-25T12:06:27Z</time>
      </trkpt>
      <trkpt lat="48.10154" lon="-3.57788">
        <ele>162.1</ele>
        <time>2025-02-25T12:06:28Z</time>
      </trkpt>
      <trkpt lat="48.10154" lon="-3.57788">
        <ele>162.1</ele>
        <time>2025-02-25T12:06:29Z</time>
      </trkpt>
      <trkpt lat="48.10154" lon="-3.57788">
        <ele>162.1</ele>
        <time>2025-02-25T12:06:30Z</time>
      </trkpt>
      <trkpt lat="48.10154" lon="-3.57788">
        <ele>162.1</ele>
        <time>2025-02-25T12:06:31Z</time>
      </trkpt>
      <trkpt lat="48.10154" lon="-3.57788">
        <ele>162.1</ele>
        <time>2025-02-25T12:06:32Z</time>
      </trkpt>
      <trkpt lat="48.10154" lon="-3.57788">
        <ele>162.1</ele>
        <time>2025-02-25T12:06:33Z</time>
      </trkpt>
      <trkpt lat="48.10154" lon="-3.57788">
        <ele>162.1</ele>
        <time>2025-02-25T12:06:34Z</time>
      </trkpt>
      <trkpt lat="48.10154" lon="-3.57788">
        <ele>162.1</ele>
        <time>2025-02-25T12:06:35Z</time>
      </trkpt>
      <trkpt lat="48.10154" lon="-3.57788">
        <ele>162.1</ele>
        <time>2025-02-25T12:06:36Z</time>
      </trkpt>
      <trkpt lat="48.10154" lon="-3.57788">
        <ele>162.1</ele>
        <time>2025-02-25T12:06:37Z</time>
      </trkpt>
      <trkpt lat="48.10154" lon="-3.57788">
        <ele>162.1</ele>
        <time>2025-02-25T12:06:38Z</time>
      </trkpt>
      <trkpt lat="48.10154" lon="-3.57788">
        <ele>162.1</ele>
        <time>2025-02-25T12:06:39Z</time>
      </trkpt>
      <trkpt lat="48.10154" lon="-3.57788">
        <ele>162.1</ele>
        <time>2025-02-25T12:06:40Z</time>
      </trkpt>
      <trkpt lat="48.10154" lon="-3.57788">
        <ele>162.1</ele>
        <time>2025-02-25T12:06:41Z</time>
      </trkpt>
      <trkpt lat="48.10154" lon="-3.57788">
        <ele>162.1</ele>
        <time>2025-02-25T12:06:42Z</time>
      </trkpt>
      <trkpt lat="48.10153" lon="-3.57787">
        <ele>162</ele>
        <time>2025-02-25T12:06:43Z</time>
      </trkpt>
      <trkpt lat="48.10153" lon="-3.57787">
        <ele>162</ele>
        <time>2025-02-25T12:06:44Z</time>
      </trkpt>
      <trkpt lat="48.10153" lon="-3.57787">
        <ele>162</ele>
        <time>2025-02-25T12:06:45Z</time>
      </trkpt>
      <trkpt lat="48.10154" lon="-3.57787">
        <ele>162.1</ele>
        <time>2025-02-25T12:06:46Z</time>
      </trkpt>
      <trkpt lat="48.10153" lon="-3.57787">
        <ele>162</ele>
        <time>2025-02-25T12:06:47Z</time>
      </trkpt>
      <trkpt lat="48.10153" lon="-3.57787">
        <ele>162</ele>
        <time>2025-02-25T12:06:48Z</time>
      </trkpt>
      <trkpt lat="48.10153" lon="-3.57787">
        <ele>162</ele>
        <time>2025-02-25T12:06:49Z</time>
      </trkpt>
      <trkpt lat="48.10153" lon="-3.57787">
        <ele>162</ele>
        <time>2025-02-25T12:06:50Z</time>
      </trkpt>
      <trkpt lat="48.10153" lon="-3.57787">
        <ele>162</ele>
        <time>2025-02-25T12:06:51Z</time>
      </trkpt>
      <trkpt lat="48.10153" lon="-3.57787">
        <ele>162</ele>
        <time>2025-02-25T12:06:52Z</time>
      </trkpt>
      <trkpt lat="48.10153" lon="-3.57786">
        <ele>162</ele>
        <time>2025-02-25T12:06:53Z</time>
      </trkpt>
      <trkpt lat="48.10153" lon="-3.57787">
        <ele>162</ele>
        <time>2025-02-25T12:06:54Z</time>
      </trkpt>
      <trkpt lat="48.10153" lon="-3.57787">
        <ele>162</ele>
        <time>2025-02-25T12:06:55Z</time>
      </trkpt>
      <trkpt lat="48.10153" lon="-3.57787">
        <ele>162</ele>
        <time>2025-02-25T12:06:56Z</time>
      </trkpt>
      <trkpt lat="48.10153" lon="-3.57787">
        <ele>162</ele>
        <time>2025-02-25T12:06:57Z</time>
      </trkpt>
      <trkpt lat="48.10153" lon="-3.57787">
        <ele>162</ele>
        <time>2025-02-25T12:06:58Z</time>
      </trkpt>
      <trkpt lat="48.10153" lon="-3.57787">
        <ele>162</ele>
        <time>2025-02-25T12:06:59Z</time>
      </trkpt>
      <trkpt lat="48.10153" lon="-3.57787">
        <ele>162</ele>
        <time>2025-02-25T12:07:00Z</time>
      </trkpt>
      <trkpt lat="48.10154" lon="-3.57786">
        <ele>162.1</ele>
        <time>2025-02-25T12:07:01Z</time>
      </trkpt>
      <trkpt lat="48.10154" lon="-3.57786">
        <ele>162.1</ele>
        <time>2025-02-25T12:07:02Z</time>
      </trkpt>
      <trkpt lat="48.10155" lon="-3.57786">
        <ele>162.2</ele>
        <time>2025-02-25T12:07:03Z</time>
      </trkpt>
      <trkpt lat="48.10155" lon="-3.57786">
        <ele>162.2</ele>
        <time>2025-02-25T12:07:04Z</time>
      </trkpt>
      <trkpt lat="48.10156" lon="-3.57786">
        <ele>162.2</ele>
        <time>2025-02-25T12:07:05Z</time>
      </trkpt>
      <trkpt lat="48.10156" lon="-3.57788">
        <ele>162.2</ele>
        <time>2025-02-25T12:07:06Z</time>
      </trkpt>
      <trkpt lat="48.10158" lon="-3.57788">
        <ele>162.4</ele>
        <time>2025-02-25T12:07:07Z</time>
      </trkpt>
      <trkpt lat="48.10158" lon="-3.57787">
        <ele>162.4</ele>
        <time>2025-02-25T12:07:08Z</time>
      </trkpt>
      <trkpt lat="48.10159" lon="-3.57786">
        <ele>162.4</ele>
        <time>2025-02-25T12:07:09Z</time>
      </trkpt>
      <trkpt lat="48.10159" lon="-3.57786">
        <ele>162.4</ele>
        <time>2025-02-25T12:07:10Z</time>
      </trkpt>
      <trkpt lat="48.10159" lon="-3.57786">
        <ele>162.4</ele>
        <time>2025-02-25T12:07:11Z</time>
      </trkpt>
      <trkpt lat="48.10159" lon="-3.57786">
        <ele>162.4</ele>
        <time>2025-02-25T12:07:12Z</time>
      </trkpt>
      <trkpt lat="48.10159" lon="-3.57785">
        <ele>162.4</ele>
        <time>2025-02-25T12:07:13Z</time>
      </trkpt>
      <trkpt lat="48.10159" lon="-3.57784">
        <ele>162.4</ele>
        <time>2025-02-25T12:07:14Z</time>
      </trkpt>
      <trkpt lat="48.10159" lon="-3.57785">
        <ele>162.4</ele>
        <time>2025-02-25T12:07:15Z</time>
      </trkpt>
      <trkpt lat="48.10159" lon="-3.57784">
        <ele>162.4</ele>
        <time>2025-02-25T12:07:16Z</time>
      </trkpt>
      <trkpt lat="48.10159" lon="-3.57782">
        <ele>162.4</ele>
        <time>2025-02-25T12:07:17Z</time>
      </trkpt>
      <trkpt lat="48.1016" lon="-3.57781">
        <ele>162.5</ele>
        <time>2025-02-25T12:07:18Z</time>
      </trkpt>
      <trkpt lat="48.1016" lon="-3.57779">
        <ele>162.5</ele>
        <time>2025-02-25T12:07:19Z</time>
      </trkpt>
      <trkpt lat="48.1016" lon="-3.57777">
        <ele>162.5</ele>
        <time>2025-02-25T12:07:20Z</time>
      </trkpt>
      <trkpt lat="48.10159" lon="-3.57775">
        <ele>162.5</ele>
        <time>2025-02-25T12:07:21Z</time>
      </trkpt>
      <trkpt lat="48.10159" lon="-3.57773">
        <ele>162.5</ele>
        <time>2025-02-25T12:07:22Z</time>
      </trkpt>
      <trkpt lat="48.10159" lon="-3.57773">
        <ele>162.5</ele>
        <time>2025-02-25T12:07:23Z</time>
      </trkpt>
      <trkpt lat="48.10159" lon="-3.57772">
        <ele>162.5</ele>
        <time>2025-02-25T12:07:24Z</time>
      </trkpt>
      <trkpt lat="48.10159" lon="-3.5777">
        <ele>162.5</ele>
        <time>2025-02-25T12:07:25Z</time>
      </trkpt>
      <trkpt lat="48.10159" lon="-3.57769">
        <ele>162.5</ele>
        <time>2025-02-25T12:07:26Z</time>
      </trkpt>
      <trkpt lat="48.10158" lon="-3.57769">
        <ele>162.5</ele>
        <time>2025-02-25T12:07:27Z</time>
      </trkpt>
      <trkpt lat="48.10159" lon="-3.5777">
        <ele>162.5</ele>
        <time>2025-02-25T12:07:28Z</time>
      </trkpt>
      <trkpt lat="48.10159" lon="-3.5777">
        <ele>162.5</ele>
        <time>2025-02-25T12:07:29Z</time>
      </trkpt>
      <trkpt lat="48.10159" lon="-3.57771">
        <ele>162.5</ele>
        <time>2025-02-25T12:07:30Z</time>
      </trkpt>
      <trkpt lat="48.10159" lon="-3.57771">
        <ele>162.5</ele>
        <time>2025-02-25T12:07:31Z</time>
      </trkpt>
      <trkpt lat="48.10159" lon="-3.57771">
        <ele>162.5</ele>
        <time>2025-02-25T12:07:32Z</time>
      </trkpt>
      <trkpt lat="48.10159" lon="-3.57771">
        <ele>162.5</ele>
        <time>2025-02-25T12:07:33Z</time>
      </trkpt>
      <trkpt lat="48.10159" lon="-3.57771">
        <ele>162.5</ele>
        <time>2025-02-25T12:07:34Z</time>
      </trkpt>
      <trkpt lat="48.10159" lon="-3.57771">
        <ele>162.5</ele>
        <time>2025-02-25T12:07:35Z</time>
      </trkpt>
      <trkpt lat="48.10159" lon="-3.57771">
        <ele>162.5</ele>
        <time>2025-02-25T12:07:36Z</time>
      </trkpt>
      <trkpt lat="48.10159" lon="-3.57771">
        <ele>162.5</ele>
        <time>2025-02-25T12:07:37Z</time>
      </trkpt>
      <trkpt lat="48.10159" lon="-3.57771">
        <ele>162.5</ele>
        <time>2025-02-25T12:07:38Z</time>
      </trkpt>
      <trkpt lat="48.10159" lon="-3.57771">
        <ele>162.5</ele>
        <time>2025-02-25T12:07:39Z</time>
      </trkpt>
      <trkpt lat="48.10159" lon="-3.5777">
        <ele>162.5</ele>
        <time>2025-02-25T12:07:40Z</time>
      </trkpt>
      <trkpt lat="48.10159" lon="-3.57769">
        <ele>162.5</ele>
        <time>2025-02-25T12:07:41Z</time>
      </trkpt>
      <trkpt lat="48.10158" lon="-3.57767">
        <ele>162.5</ele>
        <time>2025-02-25T12:07:42Z</time>
      </trkpt>
      <trkpt lat="48.10158" lon="-3.57765">
        <ele>162.5</ele>
        <time>2025-02-25T12:07:43Z</time>
      </trkpt>
      <trkpt lat="48.10158" lon="-3.57764">
        <ele>162.5</ele>
        <time>2025-02-25T12:07:44Z</time>
      </trkpt>
      <trkpt lat="48.10158" lon="-3.57763">
        <ele>162.5</ele>
        <time>2025-02-25T12:07:45Z</time>
      </trkpt>
      <trkpt lat="48.10158" lon="-3.57762">
        <ele>162.6</ele>
        <time>2025-02-25T12:07:46Z</time>
      </trkpt>
      <trkpt lat="48.10158" lon="-3.5776">
        <ele>162.6</ele>
        <time>2025-02-25T12:07:47Z</time>
      </trkpt>
      <trkpt lat="48.10158" lon="-3.57759">
        <ele>162.6</ele>
        <time>2025-02-25T12:07:48Z</time>
      </trkpt>
      <trkpt lat="48.10159" lon="-3.57758">
        <ele>162.6</ele>
        <time>2025-02-25T12:07:49Z</time>
      </trkpt>
      <trkpt lat="48.10159" lon="-3.57757">
        <ele>162.7</ele>
        <time>2025-02-25T12:07:50Z</time>
      </trkpt>
      <trkpt lat="48.10159" lon="-3.57756">
        <ele>162.7</ele>
        <time>2025-02-25T12:07:51Z</time>
      </trkpt>
      <trkpt lat="48.10159" lon="-3.57755">
        <ele>162.7</ele>
        <time>2025-02-25T12:07:52Z</time>
      </trkpt>
      <trkpt lat="48.1016" lon="-3.57753">
        <ele>162.7</ele>
        <time>2025-02-25T12:07:53Z</time>
      </trkpt>
      <trkpt lat="48.1016" lon="-3.57753">
        <ele>162.7</ele>
        <time>2025-02-25T12:07:54Z</time>
      </trkpt>
      <trkpt lat="48.10161" lon="-3.57752">
        <ele>162.8</ele>
        <time>2025-02-25T12:07:55Z</time>
      </trkpt>
      <trkpt lat="48.10161" lon="-3.57751">
        <ele>162.8</ele>
        <time>2025-02-25T12:07:56Z</time>
      </trkpt>
      <trkpt lat="48.10161" lon="-3.5775">
        <ele>162.8</ele>
        <time>2025-02-25T12:07:57Z</time>
      </trkpt>
      <trkpt lat="48.10162" lon="-3.57749">
        <ele>162.8</ele>
        <time>2025-02-25T12:07:58Z</time>
      </trkpt>
      <trkpt lat="48.10162" lon="-3.57748">
        <ele>162.8</ele>
        <time>2025-02-25T12:07:59Z</time>
      </trkpt>
      <trkpt lat="48.10163" lon="-3.57748">
        <ele>162.9</ele>
        <time>2025-02-25T12:08:00Z</time>
      </trkpt>
      <trkpt lat="48.10163" lon="-3.57746">
        <ele>162.9</ele>
        <time>2025-02-25T12:08:01Z</time>
      </trkpt>
      <trkpt lat="48.10163" lon="-3.57745">
        <ele>162.9</ele>
        <time>2025-02-25T12:08:02Z</time>
      </trkpt>
      <trkpt lat="48.10163" lon="-3.57745">
        <ele>162.9</ele>
        <time>2025-02-25T12:08:03Z</time>
      </trkpt>
      <trkpt lat="48.10164" lon="-3.57744">
        <ele>162.9</ele>
        <time>2025-02-25T12:08:04Z</time>
      </trkpt>
      <trkpt lat="48.10165" lon="-3.57743">
        <ele>162.9</ele>
        <time>2025-02-25T12:08:05Z</time>
      </trkpt>
      <trkpt lat="48.10165" lon="-3.57742">
        <ele>162.9</ele>
        <time>2025-02-25T12:08:06Z</time>
      </trkpt>
      <trkpt lat="48.10166" lon="-3.57741">
        <ele>163</ele>
        <time>2025-02-25T12:08:07Z</time>
      </trkpt>
      <trkpt lat="48.10166" lon="-3.5774">
        <ele>163</ele>
        <time>2025-02-25T12:08:08Z</time>
      </trkpt>
      <trkpt lat="48.10166" lon="-3.57739">
        <ele>163</ele>
        <time>2025-02-25T12:08:09Z</time>
      </trkpt>
      <trkpt lat="48.10167" lon="-3.57738">
        <ele>163</ele>
        <time>2025-02-25T12:08:10Z</time>
      </trkpt>
      <trkpt lat="48.10167" lon="-3.57736">
        <ele>163</ele>
        <time>2025-02-25T12:08:11Z</time>
      </trkpt>
      <trkpt lat="48.10167" lon="-3.57735">
        <ele>163</ele>
        <time>2025-02-25T12:08:12Z</time>
      </trkpt>
      <trkpt lat="48.10168" lon="-3.57733">
        <ele>163.1</ele>
        <time>2025-02-25T12:08:13Z</time>
      </trkpt>
      <trkpt lat="48.10168" lon="-3.57732">
        <ele>163.1</ele>
        <time>2025-02-25T12:08:14Z</time>
      </trkpt>
      <trkpt lat="48.10169" lon="-3.5773">
        <ele>163.2</ele>
        <time>2025-02-25T12:08:15Z</time>
      </trkpt>
      <trkpt lat="48.10169" lon="-3.57729">
        <ele>163.2</ele>
        <time>2025-02-25T12:08:16Z</time>
      </trkpt>
      <trkpt lat="48.1017" lon="-3.57727">
        <ele>163.2</ele>
        <time>2025-02-25T12:08:17Z</time>
      </trkpt>
      <trkpt lat="48.1017" lon="-3.57726">
        <ele>163.2</ele>
        <time>2025-02-25T12:08:18Z</time>
      </trkpt>
      <trkpt lat="48.10171" lon="-3.57725">
        <ele>163.3</ele>
        <time>2025-02-25T12:08:19Z</time>
      </trkpt>
      <trkpt lat="48.10172" lon="-3.57724">
        <ele>163.4</ele>
        <time>2025-02-25T12:08:20Z</time>
      </trkpt>
      <trkpt lat="48.10172" lon="-3.57722">
        <ele>163.4</ele>
        <time>2025-02-25T12:08:21Z</time>
      </trkpt>
      <trkpt lat="48.10173" lon="-3.5772">
        <ele>163.4</ele>
        <time>2025-02-25T12:08:22Z</time>
      </trkpt>
      <trkpt lat="48.10173" lon="-3.57719">
        <ele>163.4</ele>
        <time>2025-02-25T12:08:23Z</time>
      </trkpt>
      <trkpt lat="48.10173" lon="-3.57718">
        <ele>163.4</ele>
        <time>2025-02-25T12:08:24Z</time>
      </trkpt>
      <trkpt lat="48.10174" lon="-3.57717">
        <ele>163.5</ele>
        <time>2025-02-25T12:08:25Z</time>
      </trkpt>
      <trkpt lat="48.10174" lon="-3.57715">
        <ele>163.5</ele>
        <time>2025-02-25T12:08:26Z</time>
      </trkpt>
      <trkpt lat="48.10175" lon="-3.57714">
        <ele>163.5</ele>
        <time>2025-02-25T12:08:27Z</time>
      </trkpt>
      <trkpt lat="48.10175" lon="-3.57712">
        <ele>163.5</ele>
        <time>2025-02-25T12:08:28Z</time>
      </trkpt>
      <trkpt lat="48.10175" lon="-3.5771">
        <ele>163.5</ele>
        <time>2025-02-25T12:08:29Z</time>
      </trkpt>
      <trkpt lat="48.10176" lon="-3.57708">
        <ele>163.5</ele>
        <time>2025-02-25T12:08:30Z</time>
      </trkpt>
      <trkpt lat="48.10175" lon="-3.57711">
        <ele>163.5</ele>
        <time>2025-02-25T12:08:31Z</time>
      </trkpt>
      <trkpt lat="48.10175" lon="-3.5771">
        <ele>163.5</ele>
        <time>2025-02-25T12:08:32Z</time>
      </trkpt>
      <trkpt lat="48.10175" lon="-3.57709">
        <ele>163.5</ele>
        <time>2025-02-25T12:08:33Z</time>
      </trkpt>
      <trkpt lat="48.10175" lon="-3.57708">
        <ele>163.4</ele>
        <time>2025-02-25T12:08:34Z</time>
      </trkpt>
      <trkpt lat="48.10175" lon="-3.57707">
        <ele>163.4</ele>
        <time>2025-02-25T12:08:35Z</time>
      </trkpt>
      <trkpt lat="48.10175" lon="-3.57705">
        <ele>163.4</ele>
        <time>2025-02-25T12:08:36Z</time>
      </trkpt>
      <trkpt lat="48.10176" lon="-3.57704">
        <ele>163.5</ele>
        <time>2025-02-25T12:08:37Z</time>
      </trkpt>
      <trkpt lat="48.10176" lon="-3.57702">
        <ele>163.4</ele>
        <time>2025-02-25T12:08:38Z</time>
      </trkpt>
      <trkpt lat="48.10176" lon="-3.577">
        <ele>163.4</ele>
        <time>2025-02-25T12:08:39Z</time>
      </trkpt>
      <trkpt lat="48.10176" lon="-3.57699">
        <ele>163.4</ele>
        <time>2025-02-25T12:08:40Z</time>
      </trkpt>
      <trkpt lat="48.10176" lon="-3.57697">
        <ele>163.4</ele>
        <time>2025-02-25T12:08:41Z</time>
      </trkpt>
      <trkpt lat="48.10177" lon="-3.57695">
        <ele>163.4</ele>
        <time>2025-02-25T12:08:42Z</time>
      </trkpt>
      <trkpt lat="48.10177" lon="-3.57693">
        <ele>163.3</ele>
        <time>2025-02-25T12:08:43Z</time>
      </trkpt>
      <trkpt lat="48.10177" lon="-3.57692">
        <ele>163.3</ele>
        <time>2025-02-25T12:08:44Z</time>
      </trkpt>
      <trkpt lat="48.10177" lon="-3.5769">
        <ele>163.2</ele>
        <time>2025-02-25T12:08:45Z</time>
      </trkpt>
      <trkpt lat="48.10177" lon="-3.57689">
        <ele>163.2</ele>
        <time>2025-02-25T12:08:46Z</time>
      </trkpt>
      <trkpt lat="48.10177" lon="-3.57687">
        <ele>163.1</ele>
        <time>2025-02-25T12:08:47Z</time>
      </trkpt>
      <trkpt lat="48.10177" lon="-3.57685">
        <ele>163</ele>
        <time>2025-02-25T12:08:48Z</time>
      </trkpt>
      <trkpt lat="48.10176" lon="-3.57684">
        <ele>163</ele>
        <time>2025-02-25T12:08:49Z</time>
      </trkpt>
      <trkpt lat="48.10176" lon="-3.57682">
        <ele>162.9</ele>
        <time>2025-02-25T12:08:50Z</time>
      </trkpt>
      <trkpt lat="48.10176" lon="-3.5768">
        <ele>162.8</ele>
        <time>2025-02-25T12:08:51Z</time>
      </trkpt>
      <trkpt lat="48.10175" lon="-3.57678">
        <ele>162.7</ele>
        <time>2025-02-25T12:08:52Z</time>
      </trkpt>
      <trkpt lat="48.10175" lon="-3.57677">
        <ele>162.7</ele>
        <time>2025-02-25T12:08:53Z</time>
      </trkpt>
      <trkpt lat="48.10175" lon="-3.57675">
        <ele>162.6</ele>
        <time>2025-02-25T12:08:54Z</time>
      </trkpt>
      <trkpt lat="48.10175" lon="-3.57673">
        <ele>162.5</ele>
        <time>2025-02-25T12:08:55Z</time>
      </trkpt>
      <trkpt lat="48.10174" lon="-3.57671">
        <ele>162.4</ele>
        <time>2025-02-25T12:08:56Z</time>
      </trkpt>
      <trkpt lat="48.10174" lon="-3.57669">
        <ele>162.3</ele>
        <time>2025-02-25T12:08:57Z</time>
      </trkpt>
      <trkpt lat="48.10174" lon="-3.57667">
        <ele>162.3</ele>
        <time>2025-02-25T12:08:58Z</time>
      </trkpt>
      <trkpt lat="48.10174" lon="-3.57665">
        <ele>162.2</ele>
        <time>2025-02-25T12:08:59Z</time>
      </trkpt>
      <trkpt lat="48.10174" lon="-3.57663">
        <ele>162.1</ele>
        <time>2025-02-25T12:09:00Z</time>
      </trkpt>
      <trkpt lat="48.10174" lon="-3.57662">
        <ele>162.1</ele>
        <time>2025-02-25T12:09:01Z</time>
      </trkpt>
      <trkpt lat="48.10173" lon="-3.5766">
        <ele>161.9</ele>
        <time>2025-02-25T12:09:02Z</time>
      </trkpt>
      <trkpt lat="48.10173" lon="-3.57658">
        <ele>161.8</ele>
        <time>2025-02-25T12:09:03Z</time>
      </trkpt>
      <trkpt lat="48.10172" lon="-3.57657">
        <ele>161.8</ele>
        <time>2025-02-25T12:09:04Z</time>
      </trkpt>
      <trkpt lat="48.10172" lon="-3.57655">
        <ele>161.7</ele>
        <time>2025-02-25T12:09:05Z</time>
      </trkpt>
      <trkpt lat="48.10171" lon="-3.57653">
        <ele>161.6</ele>
        <time>2025-02-25T12:09:06Z</time>
      </trkpt>
      <trkpt lat="48.1017" lon="-3.57652">
        <ele>161.5</ele>
        <time>2025-02-25T12:09:07Z</time>
      </trkpt>
      <trkpt lat="48.10169" lon="-3.5765">
        <ele>161.4</ele>
        <time>2025-02-25T12:09:08Z</time>
      </trkpt>
      <trkpt lat="48.10168" lon="-3.57649">
        <ele>161.4</ele>
        <time>2025-02-25T12:09:09Z</time>
      </trkpt>
      <trkpt lat="48.10167" lon="-3.57647">
        <ele>161.3</ele>
        <time>2025-02-25T12:09:10Z</time>
      </trkpt>
      <trkpt lat="48.10167" lon="-3.57646">
        <ele>161.3</ele>
        <time>2025-02-25T12:09:11Z</time>
      </trkpt>
      <trkpt lat="48.10166" lon="-3.57644">
        <ele>161.2</ele>
        <time>2025-02-25T12:09:12Z</time>
      </trkpt>
      <trkpt lat="48.10165" lon="-3.57644">
        <ele>161.1</ele>
        <time>2025-02-25T12:09:13Z</time>
      </trkpt>
      <trkpt lat="48.10163" lon="-3.57643">
        <ele>161</ele>
        <time>2025-02-25T12:09:14Z</time>
      </trkpt>
      <trkpt lat="48.10163" lon="-3.57641">
        <ele>160.9</ele>
        <time>2025-02-25T12:09:15Z</time>
      </trkpt>
      <trkpt lat="48.10162" lon="-3.5764">
        <ele>160.9</ele>
        <time>2025-02-25T12:09:16Z</time>
      </trkpt>
      <trkpt lat="48.10161" lon="-3.57638">
        <ele>160.7</ele>
        <time>2025-02-25T12:09:17Z</time>
      </trkpt>
      <trkpt lat="48.10161" lon="-3.57637">
        <ele>160.6</ele>
        <time>2025-02-25T12:09:18Z</time>
      </trkpt>
      <trkpt lat="48.1016" lon="-3.57635">
        <ele>160.3</ele>
        <time>2025-02-25T12:09:19Z</time>
      </trkpt>
      <trkpt lat="48.10159" lon="-3.57634">
        <ele>160.2</ele>
        <time>2025-02-25T12:09:20Z</time>
      </trkpt>
      <trkpt lat="48.10158" lon="-3.57634">
        <ele>160.2</ele>
        <time>2025-02-25T12:09:21Z</time>
      </trkpt>
      <trkpt lat="48.10157" lon="-3.57633">
        <ele>160</ele>
        <time>2025-02-25T12:09:22Z</time>
      </trkpt>
      <trkpt lat="48.10155" lon="-3.57632">
        <ele>159.8</ele>
        <time>2025-02-25T12:09:23Z</time>
      </trkpt>
      <trkpt lat="48.10155" lon="-3.5763">
        <ele>159.6</ele>
        <time>2025-02-25T12:09:24Z</time>
      </trkpt>
      <trkpt lat="48.10154" lon="-3.57629">
        <ele>159.5</ele>
        <time>2025-02-25T12:09:25Z</time>
      </trkpt>
      <trkpt lat="48.10153" lon="-3.57627">
        <ele>159.2</ele>
        <time>2025-02-25T12:09:26Z</time>
      </trkpt>
      <trkpt lat="48.10153" lon="-3.57625">
        <ele>159</ele>
        <time>2025-02-25T12:09:27Z</time>
      </trkpt>
      <trkpt lat="48.10153" lon="-3.57623">
        <ele>158.8</ele>
        <time>2025-02-25T12:09:28Z</time>
      </trkpt>
      <trkpt lat="48.10152" lon="-3.57622">
        <ele>158.6</ele>
        <time>2025-02-25T12:09:29Z</time>
      </trkpt>
      <trkpt lat="48.10152" lon="-3.5762">
        <ele>158.4</ele>
        <time>2025-02-25T12:09:30Z</time>
      </trkpt>
      <trkpt lat="48.10152" lon="-3.57618">
        <ele>158.2</ele>
        <time>2025-02-25T12:09:31Z</time>
      </trkpt>
      <trkpt lat="48.10152" lon="-3.57617">
        <ele>158.1</ele>
        <time>2025-02-25T12:09:32Z</time>
      </trkpt>
      <trkpt lat="48.10151" lon="-3.57615">
        <ele>157.9</ele>
        <time>2025-02-25T12:09:33Z</time>
      </trkpt>
      <trkpt lat="48.1015" lon="-3.57614">
        <ele>157.7</ele>
        <time>2025-02-25T12:09:34Z</time>
      </trkpt>
      <trkpt lat="48.10149" lon="-3.57612">
        <ele>157.5</ele>
        <time>2025-02-25T12:09:35Z</time>
      </trkpt>
      <trkpt lat="48.10148" lon="-3.57611">
        <ele>157.3</ele>
        <time>2025-02-25T12:09:36Z</time>
      </trkpt>
      <trkpt lat="48.10147" lon="-3.5761">
        <ele>157.2</ele>
        <time>2025-02-25T12:09:37Z</time>
      </trkpt>
      <trkpt lat="48.10147" lon="-3.57609">
        <ele>157</ele>
        <time>2025-02-25T12:09:38Z</time>
      </trkpt>
      <trkpt lat="48.10146" lon="-3.57608">
        <ele>156.9</ele>
        <time>2025-02-25T12:09:39Z</time>
      </trkpt>
      <trkpt lat="48.10145" lon="-3.57607">
        <ele>156.7</ele>
        <time>2025-02-25T12:09:40Z</time>
      </trkpt>
      <trkpt lat="48.10144" lon="-3.57605">
        <ele>156.5</ele>
        <time>2025-02-25T12:09:41Z</time>
      </trkpt>
      <trkpt lat="48.10143" lon="-3.57604">
        <ele>156.3</ele>
        <time>2025-02-25T12:09:42Z</time>
      </trkpt>
      <trkpt lat="48.10142" lon="-3.57603">
        <ele>156.2</ele>
        <time>2025-02-25T12:09:43Z</time>
      </trkpt>
      <trkpt lat="48.1014" lon="-3.57603">
        <ele>156.2</ele>
        <time>2025-02-25T12:09:44Z</time>
      </trkpt>
      <trkpt lat="48.10139" lon="-3.57602">
        <ele>156</ele>
        <time>2025-02-25T12:09:45Z</time>
      </trkpt>
      <trkpt lat="48.10139" lon="-3.57599">
        <ele>155.7</ele>
        <time>2025-02-25T12:09:46Z</time>
      </trkpt>
      <trkpt lat="48.10138" lon="-3.57597">
        <ele>155.4</ele>
        <time>2025-02-25T12:09:47Z</time>
      </trkpt>
      <trkpt lat="48.10138" lon="-3.57594">
        <ele>155.1</ele>
        <time>2025-02-25T12:09:48Z</time>
      </trkpt>
      <trkpt lat="48.10137" lon="-3.57593">
        <ele>155</ele>
        <time>2025-02-25T12:09:49Z</time>
      </trkpt>
      <trkpt lat="48.10136" lon="-3.57591">
        <ele>154.7</ele>
        <time>2025-02-25T12:09:50Z</time>
      </trkpt>
      <trkpt lat="48.10134" lon="-3.5759">
        <ele>154.5</ele>
        <time>2025-02-25T12:09:51Z</time>
      </trkpt>
      <trkpt lat="48.10133" lon="-3.5759">
        <ele>154.5</ele>
        <time>2025-02-25T12:09:52Z</time>
      </trkpt>
      <trkpt lat="48.10132" lon="-3.57589">
        <ele>154.4</ele>
        <time>2025-02-25T12:09:53Z</time>
      </trkpt>
      <trkpt lat="48.10132" lon="-3.57588">
        <ele>154.3</ele>
        <time>2025-02-25T12:09:54Z</time>
      </trkpt>
      <trkpt lat="48.10131" lon="-3.57587">
        <ele>154.1</ele>
        <time>2025-02-25T12:09:55Z</time>
      </trkpt>
      <trkpt lat="48.10131" lon="-3.57586">
        <ele>154</ele>
        <time>2025-02-25T12:09:56Z</time>
      </trkpt>
      <trkpt lat="48.1013" lon="-3.57586">
        <ele>154</ele>
        <time>2025-02-25T12:09:57Z</time>
      </trkpt>
      <trkpt lat="48.1013" lon="-3.57586">
        <ele>154</ele>
        <time>2025-02-25T12:09:58Z</time>
      </trkpt>
      <trkpt lat="48.1013" lon="-3.57586">
        <ele>154</ele>
        <time>2025-02-25T12:09:59Z</time>
      </trkpt>
      <trkpt lat="48.10131" lon="-3.57588">
        <ele>154.2</ele>
        <time>2025-02-25T12:10:00Z</time>
      </trkpt>
      <trkpt lat="48.10131" lon="-3.57588">
        <ele>154.2</ele>
        <time>2025-02-25T12:10:01Z</time>
      </trkpt>
      <trkpt lat="48.10131" lon="-3.57589">
        <ele>154.3</ele>
        <time>2025-02-25T12:10:02Z</time>
      </trkpt>
      <trkpt lat="48.10132" lon="-3.5759">
        <ele>154.5</ele>
        <time>2025-02-25T12:10:03Z</time>
      </trkpt>
      <trkpt lat="48.10133" lon="-3.5759">
        <ele>154.5</ele>
        <time>2025-02-25T12:10:04Z</time>
      </trkpt>
      <trkpt lat="48.10133" lon="-3.57591">
        <ele>154.6</ele>
        <time>2025-02-25T12:10:05Z</time>
      </trkpt>
      <trkpt lat="48.10133" lon="-3.57591">
        <ele>154.6</ele>
        <time>2025-02-25T12:10:06Z</time>
      </trkpt>
      <trkpt lat="48.10133" lon="-3.57591">
        <ele>154.6</ele>
        <time>2025-02-25T12:10:07Z</time>
      </trkpt>
      <trkpt lat="48.10133" lon="-3.57592">
        <ele>154.7</ele>
        <time>2025-02-25T12:10:08Z</time>
      </trkpt>
      <trkpt lat="48.10133" lon="-3.57593">
        <ele>154.8</ele>
        <time>2025-02-25T12:10:09Z</time>
      </trkpt>
      <trkpt lat="48.10134" lon="-3.57594">
        <ele>155</ele>
        <time>2025-02-25T12:10:10Z</time>
      </trkpt>
      <trkpt lat="48.10134" lon="-3.57594">
        <ele>155</ele>
        <time>2025-02-25T12:10:11Z</time>
      </trkpt>
      <trkpt lat="48.10134" lon="-3.57594">
        <ele>155</ele>
        <time>2025-02-25T12:10:12Z</time>
      </trkpt>
      <trkpt lat="48.10134" lon="-3.57594">
        <ele>155</ele>
        <time>2025-02-25T12:10:13Z</time>
      </trkpt>
      <trkpt lat="48.10134" lon="-3.57594">
        <ele>155</ele>
        <time>2025-02-25T12:10:14Z</time>
      </trkpt>
      <trkpt lat="48.10134" lon="-3.57594">
        <ele>155</ele>
        <time>2025-02-25T12:10:15Z</time>
      </trkpt>
      <trkpt lat="48.10134" lon="-3.57594">
        <ele>155</ele>
        <time>2025-02-25T12:10:16Z</time>
      </trkpt>
      <trkpt lat="48.10134" lon="-3.57594">
        <ele>155</ele>
        <time>2025-02-25T12:10:17Z</time>
      </trkpt>
      <trkpt lat="48.10134" lon="-3.57594">
        <ele>155</ele>
        <time>2025-02-25T12:10:18Z</time>
      </trkpt>
      <trkpt lat="48.10134" lon="-3.57594">
        <ele>155</ele>
        <time>2025-02-25T12:10:19Z</time>
      </trkpt>
      <trkpt lat="48.10134" lon="-3.57594">
        <ele>155</ele>
        <time>2025-02-25T12:10:20Z</time>
      </trkpt>
      <trkpt lat="48.10134" lon="-3.57594">
        <ele>155</ele>
        <time>2025-02-25T12:10:21Z</time>
      </trkpt>
      <trkpt lat="48.10134" lon="-3.57594">
        <ele>155</ele>
        <time>2025-02-25T12:10:22Z</time>
      </trkpt>
      <trkpt lat="48.10134" lon="-3.57594">
        <ele>155</ele>
        <time>2025-02-25T12:10:23Z</time>
      </trkpt>
      <trkpt lat="48.10134" lon="-3.57594">
        <ele>155</ele>
        <time>2025-02-25T12:10:24Z</time>
      </trkpt>
      <trkpt lat="48.10134" lon="-3.57594">
        <ele>155</ele>
        <time>2025-02-25T12:10:25Z</time>
      </trkpt>
      <trkpt lat="48.10134" lon="-3.57594">
        <ele>155</ele>
        <time>2025-02-25T12:10:26Z</time>
      </trkpt>
      <trkpt lat="48.10134" lon="-3.57594">
        <ele>155</ele>
        <time>2025-02-25T12:10:27Z</time>
      </trkpt>
      <trkpt lat="48.10134" lon="-3.57595">
        <ele>155.1</ele>
        <time>2025-02-25T12:10:28Z</time>
      </trkpt>
      <trkpt lat="48.10134" lon="-3.57595">
        <ele>155.1</ele>
        <time>2025-02-25T12:10:29Z</time>
      </trkpt>
      <trkpt lat="48.10135" lon="-3.57595">
        <ele>155.1</ele>
        <time>2025-02-25T12:10:30Z</time>
      </trkpt>
      <trkpt lat="48.10136" lon="-3.57595">
        <ele>155.2</ele>
        <time>2025-02-25T12:10:31Z</time>
      </trkpt>
      <trkpt lat="48.10136" lon="-3.57595">
        <ele>155.2</ele>
        <time>2025-02-25T12:10:32Z</time>
      </trkpt>
      <trkpt lat="48.10136" lon="-3.57596">
        <ele>155.3</ele>
        <time>2025-02-25T12:10:33Z</time>
      </trkpt>
      <trkpt lat="48.10136" lon="-3.57596">
        <ele>155.3</ele>
        <time>2025-02-25T12:10:34Z</time>
      </trkpt>
      <trkpt lat="48.10136" lon="-3.57596">
        <ele>155.3</ele>
        <time>2025-02-25T12:10:35Z</time>
      </trkpt>
      <trkpt lat="48.10135" lon="-3.57595">
        <ele>155.1</ele>
        <time>2025-02-25T12:10:36Z</time>
      </trkpt>
      <trkpt lat="48.10133" lon="-3.57594">
        <ele>154.9</ele>
        <time>2025-02-25T12:10:37Z</time>
      </trkpt>
      <trkpt lat="48.10133" lon="-3.57593">
        <ele>154.8</ele>
        <time>2025-02-25T12:10:38Z</time>
      </trkpt>
      <trkpt lat="48.10132" lon="-3.5759">
        <ele>154.5</ele>
        <time>2025-02-25T12:10:39Z</time>
      </trkpt>
      <trkpt lat="48.10131" lon="-3.57588">
        <ele>154.2</ele>
        <time>2025-02-25T12:10:40Z</time>
      </trkpt>
      <trkpt lat="48.10131" lon="-3.57588">
        <ele>154.2</ele>
        <time>2025-02-25T12:10:41Z</time>
      </trkpt>
      <trkpt lat="48.10131" lon="-3.57587">
        <ele>154.1</ele>
        <time>2025-02-25T12:10:42Z</time>
      </trkpt>
      <trkpt lat="48.10131" lon="-3.57586">
        <ele>154</ele>
        <time>2025-02-25T12:10:43Z</time>
      </trkpt>
      <trkpt lat="48.10132" lon="-3.57583">
        <ele>153.7</ele>
        <time>2025-02-25T12:10:44Z</time>
      </trkpt>
      <trkpt lat="48.10131" lon="-3.57581">
        <ele>153.4</ele>
        <time>2025-02-25T12:10:45Z</time>
      </trkpt>
      <trkpt lat="48.1013" lon="-3.57579">
        <ele>153.2</ele>
        <time>2025-02-25T12:10:46Z</time>
      </trkpt>
      <trkpt lat="48.1013" lon="-3.57577">
        <ele>152.9</ele>
        <time>2025-02-25T12:10:47Z</time>
      </trkpt>
      <trkpt lat="48.10129" lon="-3.57576">
        <ele>152.8</ele>
        <time>2025-02-25T12:10:48Z</time>
      </trkpt>
      <trkpt lat="48.10128" lon="-3.57574">
        <ele>152.5</ele>
        <time>2025-02-25T12:10:49Z</time>
      </trkpt>
      <trkpt lat="48.10128" lon="-3.57572">
        <ele>152.3</ele>
        <time>2025-02-25T12:10:50Z</time>
      </trkpt>
      <trkpt lat="48.10127" lon="-3.5757">
        <ele>152.1</ele>
        <time>2025-02-25T12:10:51Z</time>
      </trkpt>
      <trkpt lat="48.10126" lon="-3.57569">
        <ele>152</ele>
        <time>2025-02-25T12:10:52Z</time>
      </trkpt>
      <trkpt lat="48.10126" lon="-3.57567">
        <ele>151.7</ele>
        <time>2025-02-25T12:10:53Z</time>
      </trkpt>
      <trkpt lat="48.10125" lon="-3.57565">
        <ele>151.5</ele>
        <time>2025-02-25T12:10:54Z</time>
      </trkpt>
      <trkpt lat="48.10125" lon="-3.57563">
        <ele>151.3</ele>
        <time>2025-02-25T12:10:55Z</time>
      </trkpt>
      <trkpt lat="48.10125" lon="-3.57562">
        <ele>151.2</ele>
        <time>2025-02-25T12:10:56Z</time>
      </trkpt>
      <trkpt lat="48.10125" lon="-3.5756">
        <ele>151</ele>
        <time>2025-02-25T12:10:57Z</time>
      </trkpt>
      <trkpt lat="48.10125" lon="-3.57557">
        <ele>150.7</ele>
        <time>2025-02-25T12:10:58Z</time>
      </trkpt>
      <trkpt lat="48.10124" lon="-3.57555">
        <ele>150.5</ele>
        <time>2025-02-25T12:10:59Z</time>
      </trkpt>
      <trkpt lat="48.10124" lon="-3.57553">
        <ele>150.2</ele>
        <time>2025-02-25T12:11:00Z</time>
      </trkpt>
      <trkpt lat="48.10124" lon="-3.57551">
        <ele>150</ele>
        <time>2025-02-25T12:11:01Z</time>
      </trkpt>
      <trkpt lat="48.10123" lon="-3.5755">
        <ele>149.9</ele>
        <time>2025-02-25T12:11:02Z</time>
      </trkpt>
      <trkpt lat="48.10123" lon="-3.57548">
        <ele>149.6</ele>
        <time>2025-02-25T12:11:03Z</time>
      </trkpt>
      <trkpt lat="48.10123" lon="-3.57546">
        <ele>149.4</ele>
        <time>2025-02-25T12:11:04Z</time>
      </trkpt>
      <trkpt lat="48.10123" lon="-3.57545">
        <ele>149.3</ele>
        <time>2025-02-25T12:11:05Z</time>
      </trkpt>
      <trkpt lat="48.10123" lon="-3.57543">
        <ele>149</ele>
        <time>2025-02-25T12:11:06Z</time>
      </trkpt>
      <trkpt lat="48.10122" lon="-3.5754">
        <ele>148.7</ele>
        <time>2025-02-25T12:11:07Z</time>
      </trkpt>
      <trkpt lat="48.10122" lon="-3.57538">
        <ele>148.5</ele>
        <time>2025-02-25T12:11:08Z</time>
      </trkpt>
      <trkpt lat="48.10121" lon="-3.57537">
        <ele>148.4</ele>
        <time>2025-02-25T12:11:09Z</time>
      </trkpt>
      <trkpt lat="48.10121" lon="-3.57535">
        <ele>148.2</ele>
        <time>2025-02-25T12:11:10Z</time>
      </trkpt>
      <trkpt lat="48.1012" lon="-3.57533">
        <ele>148</ele>
        <time>2025-02-25T12:11:11Z</time>
      </trkpt>
      <trkpt lat="48.1012" lon="-3.57532">
        <ele>147.9</ele>
        <time>2025-02-25T12:11:12Z</time>
      </trkpt>
      <trkpt lat="48.1012" lon="-3.5753">
        <ele>147.6</ele>
        <time>2025-02-25T12:11:13Z</time>
      </trkpt>
      <trkpt lat="48.1012" lon="-3.57528">
        <ele>147.4</ele>
        <time>2025-02-25T12:11:14Z</time>
      </trkpt>
      <trkpt lat="48.10119" lon="-3.57527">
        <ele>147.3</ele>
        <time>2025-02-25T12:11:15Z</time>
      </trkpt>
      <trkpt lat="48.10119" lon="-3.57525">
        <ele>147.1</ele>
        <time>2025-02-25T12:11:16Z</time>
      </trkpt>
      <trkpt lat="48.1012" lon="-3.57526">
        <ele>147.1</ele>
        <time>2025-02-25T12:11:17Z</time>
      </trkpt>
      <trkpt lat="48.10119" lon="-3.57525">
        <ele>147.1</ele>
        <time>2025-02-25T12:11:18Z</time>
      </trkpt>
      <trkpt lat="48.10119" lon="-3.57524">
        <ele>146.9</ele>
        <time>2025-02-25T12:11:19Z</time>
      </trkpt>
      <trkpt lat="48.10119" lon="-3.57522">
        <ele>146.7</ele>
        <time>2025-02-25T12:11:20Z</time>
      </trkpt>
      <trkpt lat="48.10118" lon="-3.57521">
        <ele>146.6</ele>
        <time>2025-02-25T12:11:21Z</time>
      </trkpt>
      <trkpt lat="48.10118" lon="-3.5752">
        <ele>146.5</ele>
        <time>2025-02-25T12:11:22Z</time>
      </trkpt>
      <trkpt lat="48.10117" lon="-3.57519">
        <ele>146.4</ele>
        <time>2025-02-25T12:11:23Z</time>
      </trkpt>
      <trkpt lat="48.10116" lon="-3.57517">
        <ele>146.2</ele>
        <time>2025-02-25T12:11:24Z</time>
      </trkpt>
      <trkpt lat="48.10115" lon="-3.57515">
        <ele>145.9</ele>
        <time>2025-02-25T12:11:25Z</time>
      </trkpt>
      <trkpt lat="48.10115" lon="-3.57513">
        <ele>145.7</ele>
        <time>2025-02-25T12:11:26Z</time>
      </trkpt>
      <trkpt lat="48.10114" lon="-3.57511">
        <ele>145.4</ele>
        <time>2025-02-25T12:11:27Z</time>
      </trkpt>
      <trkpt lat="48.10114" lon="-3.57509">
        <ele>145.2</ele>
        <time>2025-02-25T12:11:28Z</time>
      </trkpt>
      <trkpt lat="48.10114" lon="-3.57508">
        <ele>145</ele>
        <time>2025-02-25T12:11:29Z</time>
      </trkpt>
      <trkpt lat="48.10113" lon="-3.57507">
        <ele>144.9</ele>
        <time>2025-02-25T12:11:30Z</time>
      </trkpt>
      <trkpt lat="48.10113" lon="-3.57505">
        <ele>144.6</ele>
        <time>2025-02-25T12:11:31Z</time>
      </trkpt>
      <trkpt lat="48.10112" lon="-3.57504">
        <ele>144.5</ele>
        <time>2025-02-25T12:11:32Z</time>
      </trkpt>
      <trkpt lat="48.10112" lon="-3.57503">
        <ele>144.4</ele>
        <time>2025-02-25T12:11:33Z</time>
      </trkpt>
      <trkpt lat="48.10111" lon="-3.57502">
        <ele>144.3</ele>
        <time>2025-02-25T12:11:34Z</time>
      </trkpt>
      <trkpt lat="48.10111" lon="-3.57501">
        <ele>144.2</ele>
        <time>2025-02-25T12:11:35Z</time>
      </trkpt>
      <trkpt lat="48.1011" lon="-3.575">
        <ele>144.1</ele>
        <time>2025-02-25T12:11:36Z</time>
      </trkpt>
      <trkpt lat="48.10109" lon="-3.57499">
        <ele>144.1</ele>
        <time>2025-02-25T12:11:37Z</time>
      </trkpt>
      <trkpt lat="48.10109" lon="-3.57497">
        <ele>143.8</ele>
        <time>2025-02-25T12:11:38Z</time>
      </trkpt>
      <trkpt lat="48.10109" lon="-3.57495">
        <ele>143.5</ele>
        <time>2025-02-25T12:11:39Z</time>
      </trkpt>
      <trkpt lat="48.10108" lon="-3.57494">
        <ele>143.5</ele>
        <time>2025-02-25T12:11:40Z</time>
      </trkpt>
      <trkpt lat="48.10108" lon="-3.57492">
        <ele>143.2</ele>
        <time>2025-02-25T12:11:41Z</time>
      </trkpt>
      <trkpt lat="48.10108" lon="-3.57491">
        <ele>143.1</ele>
        <time>2025-02-25T12:11:42Z</time>
      </trkpt>
      <trkpt lat="48.10108" lon="-3.57489">
        <ele>142.8</ele>
        <time>2025-02-25T12:11:43Z</time>
      </trkpt>
      <trkpt lat="48.10107" lon="-3.57488">
        <ele>142.8</ele>
        <time>2025-02-25T12:11:44Z</time>
      </trkpt>
      <trkpt lat="48.10107" lon="-3.57486">
        <ele>142.5</ele>
        <time>2025-02-25T12:11:45Z</time>
      </trkpt>
      <trkpt lat="48.10106" lon="-3.57484">
        <ele>142.4</ele>
        <time>2025-02-25T12:11:46Z</time>
      </trkpt>
      <trkpt lat="48.10106" lon="-3.57483">
        <ele>142.2</ele>
        <time>2025-02-25T12:11:47Z</time>
      </trkpt>
      <trkpt lat="48.10105" lon="-3.57482">
        <ele>142.2</ele>
        <time>2025-02-25T12:11:48Z</time>
      </trkpt>
      <trkpt lat="48.10104" lon="-3.5748">
        <ele>142.1</ele>
        <time>2025-02-25T12:11:49Z</time>
      </trkpt>
      <trkpt lat="48.10104" lon="-3.57477">
        <ele>141.7</ele>
        <time>2025-02-25T12:11:50Z</time>
      </trkpt>
      <trkpt lat="48.10103" lon="-3.57475">
        <ele>141.5</ele>
        <time>2025-02-25T12:11:51Z</time>
      </trkpt>
      <trkpt lat="48.10102" lon="-3.57473">
        <ele>141.4</ele>
        <time>2025-02-25T12:11:52Z</time>
      </trkpt>
      <trkpt lat="48.10101" lon="-3.57471">
        <ele>141.4</ele>
        <time>2025-02-25T12:11:53Z</time>
      </trkpt>
      <trkpt lat="48.101" lon="-3.57468">
        <ele>141.2</ele>
        <time>2025-02-25T12:11:54Z</time>
      </trkpt>
      <trkpt lat="48.101" lon="-3.57466">
        <ele>141.1</ele>
        <time>2025-02-25T12:11:55Z</time>
      </trkpt>
      <trkpt lat="48.10099" lon="-3.57465">
        <ele>141.1</ele>
        <time>2025-02-25T12:11:56Z</time>
      </trkpt>
      <trkpt lat="48.10098" lon="-3.57462">
        <ele>141</ele>
        <time>2025-02-25T12:11:57Z</time>
      </trkpt>
      <trkpt lat="48.10098" lon="-3.5746">
        <ele>140.8</ele>
        <time>2025-02-25T12:11:58Z</time>
      </trkpt>
      <trkpt lat="48.10097" lon="-3.57459">
        <ele>140.8</ele>
        <time>2025-02-25T12:11:59Z</time>
      </trkpt>
      <trkpt lat="48.10097" lon="-3.57457">
        <ele>140.7</ele>
        <time>2025-02-25T12:12:00Z</time>
      </trkpt>
      <trkpt lat="48.10096" lon="-3.57455">
        <ele>140.6</ele>
        <time>2025-02-25T12:12:01Z</time>
      </trkpt>
      <trkpt lat="48.10096" lon="-3.57454">
        <ele>140.5</ele>
        <time>2025-02-25T12:12:02Z</time>
      </trkpt>
      <trkpt lat="48.10095" lon="-3.57453">
        <ele>140.5</ele>
        <time>2025-02-25T12:12:03Z</time>
      </trkpt>
      <trkpt lat="48.10095" lon="-3.57451">
        <ele>140.3</ele>
        <time>2025-02-25T12:12:04Z</time>
      </trkpt>
      <trkpt lat="48.10094" lon="-3.5745">
        <ele>140.4</ele>
        <time>2025-02-25T12:12:05Z</time>
      </trkpt>
      <trkpt lat="48.10094" lon="-3.57448">
        <ele>140.2</ele>
        <time>2025-02-25T12:12:06Z</time>
      </trkpt>
      <trkpt lat="48.10093" lon="-3.57446">
        <ele>140.1</ele>
        <time>2025-02-25T12:12:07Z</time>
      </trkpt>
      <trkpt lat="48.10092" lon="-3.57445">
        <ele>140.1</ele>
        <time>2025-02-25T12:12:08Z</time>
      </trkpt>
      <trkpt lat="48.10092" lon="-3.57444">
        <ele>140</ele>
        <time>2025-02-25T12:12:09Z</time>
      </trkpt>
      <trkpt lat="48.10091" lon="-3.57442">
        <ele>139.8</ele>
        <time>2025-02-25T12:12:10Z</time>
      </trkpt>
      <trkpt lat="48.1009" lon="-3.57441">
        <ele>139.7</ele>
        <time>2025-02-25T12:12:11Z</time>
      </trkpt>
      <trkpt lat="48.1009" lon="-3.5744">
        <ele>139.6</ele>
        <time>2025-02-25T12:12:12Z</time>
      </trkpt>
      <trkpt lat="48.10089" lon="-3.57439">
        <ele>139.5</ele>
        <time>2025-02-25T12:12:13Z</time>
      </trkpt>
      <trkpt lat="48.10089" lon="-3.57437">
        <ele>139.2</ele>
        <time>2025-02-25T12:12:14Z</time>
      </trkpt>
      <trkpt lat="48.10088" lon="-3.57435">
        <ele>138.9</ele>
        <time>2025-02-25T12:12:15Z</time>
      </trkpt>
      <trkpt lat="48.10087" lon="-3.57433">
        <ele>138.7</ele>
        <time>2025-02-25T12:12:16Z</time>
      </trkpt>
      <trkpt lat="48.10087" lon="-3.57432">
        <ele>138.5</ele>
        <time>2025-02-25T12:12:17Z</time>
      </trkpt>
      <trkpt lat="48.10086" lon="-3.57431">
        <ele>138.4</ele>
        <time>2025-02-25T12:12:18Z</time>
      </trkpt>
      <trkpt lat="48.10085" lon="-3.5743">
        <ele>138.3</ele>
        <time>2025-02-25T12:12:19Z</time>
      </trkpt>
      <trkpt lat="48.10085" lon="-3.57429">
        <ele>138.1</ele>
        <time>2025-02-25T12:12:20Z</time>
      </trkpt>
      <trkpt lat="48.10084" lon="-3.57427">
        <ele>137.8</ele>
        <time>2025-02-25T12:12:21Z</time>
      </trkpt>
      <trkpt lat="48.10084" lon="-3.57426">
        <ele>137.6</ele>
        <time>2025-02-25T12:12:22Z</time>
      </trkpt>
      <trkpt lat="48.10083" lon="-3.57424">
        <ele>137.3</ele>
        <time>2025-02-25T12:12:23Z</time>
      </trkpt>
      <trkpt lat="48.10083" lon="-3.57423">
        <ele>137.1</ele>
        <time>2025-02-25T12:12:24Z</time>
      </trkpt>
      <trkpt lat="48.10082" lon="-3.57422">
        <ele>136.9</ele>
        <time>2025-02-25T12:12:25Z</time>
      </trkpt>
      <trkpt lat="48.10082" lon="-3.57421">
        <ele>136.7</ele>
        <time>2025-02-25T12:12:26Z</time>
      </trkpt>
      <trkpt lat="48.10081" lon="-3.5742">
        <ele>136.5</ele>
        <time>2025-02-25T12:12:27Z</time>
      </trkpt>
      <trkpt lat="48.1008" lon="-3.57418">
        <ele>136.1</ele>
        <time>2025-02-25T12:12:28Z</time>
      </trkpt>
      <trkpt lat="48.10079" lon="-3.57416">
        <ele>135.7</ele>
        <time>2025-02-25T12:12:29Z</time>
      </trkpt>
      <trkpt lat="48.10079" lon="-3.57414">
        <ele>135.4</ele>
        <time>2025-02-25T12:12:30Z</time>
      </trkpt>
      <trkpt lat="48.10078" lon="-3.57412">
        <ele>135</ele>
        <time>2025-02-25T12:12:31Z</time>
      </trkpt>
      <trkpt lat="48.10078" lon="-3.57411">
        <ele>134.8</ele>
        <time>2025-02-25T12:12:32Z</time>
      </trkpt>
      <trkpt lat="48.10077" lon="-3.5741">
        <ele>134.6</ele>
        <time>2025-02-25T12:12:33Z</time>
      </trkpt>
      <trkpt lat="48.10077" lon="-3.57409">
        <ele>134.4</ele>
        <time>2025-02-25T12:12:34Z</time>
      </trkpt>
      <trkpt lat="48.10076" lon="-3.57408">
        <ele>134.2</ele>
        <time>2025-02-25T12:12:35Z</time>
      </trkpt>
      <trkpt lat="48.10075" lon="-3.57407">
        <ele>134</ele>
        <time>2025-02-25T12:12:36Z</time>
      </trkpt>
      <trkpt lat="48.10075" lon="-3.57406">
        <ele>133.8</ele>
        <time>2025-02-25T12:12:37Z</time>
      </trkpt>
      <trkpt lat="48.10075" lon="-3.57404">
        <ele>133.4</ele>
        <time>2025-02-25T12:12:38Z</time>
      </trkpt>
      <trkpt lat="48.10074" lon="-3.57403">
        <ele>133.2</ele>
        <time>2025-02-25T12:12:39Z</time>
      </trkpt>
      <trkpt lat="48.10073" lon="-3.57403">
        <ele>133.2</ele>
        <time>2025-02-25T12:12:40Z</time>
      </trkpt>
      <trkpt lat="48.10073" lon="-3.57401">
        <ele>132.8</ele>
        <time>2025-02-25T12:12:41Z</time>
      </trkpt>
      <trkpt lat="48.10072" lon="-3.574">
        <ele>132.6</ele>
        <time>2025-02-25T12:12:42Z</time>
      </trkpt>
      <trkpt lat="48.10072" lon="-3.57399">
        <ele>132.4</ele>
        <time>2025-02-25T12:12:43Z</time>
      </trkpt>
      <trkpt lat="48.10071" lon="-3.57398">
        <ele>132.2</ele>
        <time>2025-02-25T12:12:44Z</time>
      </trkpt>
      <trkpt lat="48.10071" lon="-3.57397">
        <ele>132</ele>
        <time>2025-02-25T12:12:45Z</time>
      </trkpt>
      <trkpt lat="48.1007" lon="-3.57395">
        <ele>131.6</ele>
        <time>2025-02-25T12:12:46Z</time>
      </trkpt>
      <trkpt lat="48.1007" lon="-3.57394">
        <ele>131.4</ele>
        <time>2025-02-25T12:12:47Z</time>
      </trkpt>
      <trkpt lat="48.10069" lon="-3.57393">
        <ele>131.2</ele>
        <time>2025-02-25T12:12:48Z</time>
      </trkpt>
      <trkpt lat="48.10069" lon="-3.57391">
        <ele>130.9</ele>
        <time>2025-02-25T12:12:49Z</time>
      </trkpt>
      <trkpt lat="48.10068" lon="-3.5739">
        <ele>130.6</ele>
        <time>2025-02-25T12:12:50Z</time>
      </trkpt>
      <trkpt lat="48.10068" lon="-3.57389">
        <ele>130.5</ele>
        <time>2025-02-25T12:12:51Z</time>
      </trkpt>
      <trkpt lat="48.10067" lon="-3.57388">
        <ele>130.4</ele>
        <time>2025-02-25T12:12:52Z</time>
      </trkpt>
      <trkpt lat="48.10066" lon="-3.57388">
        <ele>130.4</ele>
        <time>2025-02-25T12:12:53Z</time>
      </trkpt>
      <trkpt lat="48.10065" lon="-3.57386">
        <ele>130.3</ele>
        <time>2025-02-25T12:12:54Z</time>
      </trkpt>
      <trkpt lat="48.10064" lon="-3.57385">
        <ele>130.3</ele>
        <time>2025-02-25T12:12:55Z</time>
      </trkpt>
      <trkpt lat="48.10063" lon="-3.57384">
        <ele>130.2</ele>
        <time>2025-02-25T12:12:56Z</time>
      </trkpt>
      <trkpt lat="48.10062" lon="-3.57383">
        <ele>130.2</ele>
        <time>2025-02-25T12:12:57Z</time>
      </trkpt>
      <trkpt lat="48.10063" lon="-3.57381">
        <ele>130.2</ele>
        <time>2025-02-25T12:12:58Z</time>
      </trkpt>
      <trkpt lat="48.10062" lon="-3.5738">
        <ele>130.2</ele>
        <time>2025-02-25T12:12:59Z</time>
      </trkpt>
      <trkpt lat="48.10062" lon="-3.57379">
        <ele>130.1</ele>
        <time>2025-02-25T12:13:00Z</time>
      </trkpt>
      <trkpt lat="48.10061" lon="-3.57377">
        <ele>130.1</ele>
        <time>2025-02-25T12:13:01Z</time>
      </trkpt>
      <trkpt lat="48.1006" lon="-3.57377">
        <ele>130.1</ele>
        <time>2025-02-25T12:13:02Z</time>
      </trkpt>
      <trkpt lat="48.10059" lon="-3.57376">
        <ele>130.1</ele>
        <time>2025-02-25T12:13:03Z</time>
      </trkpt>
      <trkpt lat="48.10058" lon="-3.57375">
        <ele>130</ele>
        <time>2025-02-25T12:13:04Z</time>
      </trkpt>
      <trkpt lat="48.10057" lon="-3.57374">
        <ele>130</ele>
        <time>2025-02-25T12:13:05Z</time>
      </trkpt>
      <trkpt lat="48.10056" lon="-3.57373">
        <ele>130</ele>
        <time>2025-02-25T12:13:06Z</time>
      </trkpt>
      <trkpt lat="48.10055" lon="-3.57371">
        <ele>130</ele>
        <time>2025-02-25T12:13:07Z</time>
      </trkpt>
      <trkpt lat="48.10054" lon="-3.5737">
        <ele>130</ele>
        <time>2025-02-25T12:13:08Z</time>
      </trkpt>
      <trkpt lat="48.10053" lon="-3.57369">
        <ele>130</ele>
        <time>2025-02-25T12:13:09Z</time>
      </trkpt>
      <trkpt lat="48.10052" lon="-3.57368">
        <ele>130</ele>
        <time>2025-02-25T12:13:10Z</time>
      </trkpt>
      <trkpt lat="48.10051" lon="-3.57367">
        <ele>130</ele>
        <time>2025-02-25T12:13:11Z</time>
      </trkpt>
      <trkpt lat="48.1005" lon="-3.57366">
        <ele>130</ele>
        <time>2025-02-25T12:13:12Z</time>
      </trkpt>
      <trkpt lat="48.10049" lon="-3.57365">
        <ele>130</ele>
        <time>2025-02-25T12:13:13Z</time>
      </trkpt>
      <trkpt lat="48.10048" lon="-3.57364">
        <ele>130</ele>
        <time>2025-02-25T12:13:14Z</time>
      </trkpt>
      <trkpt lat="48.10047" lon="-3.57364">
        <ele>130</ele>
        <time>2025-02-25T12:13:15Z</time>
      </trkpt>
      <trkpt lat="48.10045" lon="-3.57363">
        <ele>130</ele>
        <time>2025-02-25T12:13:16Z</time>
      </trkpt>
      <trkpt lat="48.10045" lon="-3.57361">
        <ele>130</ele>
        <time>2025-02-25T12:13:17Z</time>
      </trkpt>
      <trkpt lat="48.10043" lon="-3.57361">
        <ele>130</ele>
        <time>2025-02-25T12:13:18Z</time>
      </trkpt>
      <trkpt lat="48.10042" lon="-3.5736">
        <ele>130.1</ele>
        <time>2025-02-25T12:13:19Z</time>
      </trkpt>
      <trkpt lat="48.10041" lon="-3.57359">
        <ele>130.2</ele>
        <time>2025-02-25T12:13:20Z</time>
      </trkpt>
      <trkpt lat="48.1004" lon="-3.57358">
        <ele>130.3</ele>
        <time>2025-02-25T12:13:21Z</time>
      </trkpt>
      <trkpt lat="48.1004" lon="-3.57357">
        <ele>130.4</ele>
        <time>2025-02-25T12:13:22Z</time>
      </trkpt>
      <trkpt lat="48.10039" lon="-3.57356">
        <ele>130.6</ele>
        <time>2025-02-25T12:13:23Z</time>
      </trkpt>
      <trkpt lat="48.10038" lon="-3.57354">
        <ele>130.8</ele>
        <time>2025-02-25T12:13:24Z</time>
      </trkpt>
      <trkpt lat="48.10038" lon="-3.57353">
        <ele>130.9</ele>
        <time>2025-02-25T12:13:25Z</time>
      </trkpt>
      <trkpt lat="48.10035" lon="-3.57354">
        <ele>130.8</ele>
        <time>2025-02-25T12:13:26Z</time>
      </trkpt>
      <trkpt lat="48.10035" lon="-3.57356">
        <ele>130.6</ele>
        <time>2025-02-25T12:13:27Z</time>
      </trkpt>
      <trkpt lat="48.10034" lon="-3.57356">
        <ele>130.6</ele>
        <time>2025-02-25T12:13:28Z</time>
      </trkpt>
      <trkpt lat="48.10033" lon="-3.57356">
        <ele>130.6</ele>
        <time>2025-02-25T12:13:29Z</time>
      </trkpt>
      <trkpt lat="48.10032" lon="-3.57355">
        <ele>130.7</ele>
        <time>2025-02-25T12:13:30Z</time>
      </trkpt>
      <trkpt lat="48.10031" lon="-3.57354">
        <ele>130.8</ele>
        <time>2025-02-25T12:13:31Z</time>
      </trkpt>
      <trkpt lat="48.1003" lon="-3.57353">
        <ele>130.9</ele>
        <time>2025-02-25T12:13:32Z</time>
      </trkpt>
      <trkpt lat="48.10029" lon="-3.57352">
        <ele>131</ele>
        <time>2025-02-25T12:13:33Z</time>
      </trkpt>
      <trkpt lat="48.10029" lon="-3.5735">
        <ele>131.2</ele>
        <time>2025-02-25T12:13:34Z</time>
      </trkpt>
      <trkpt lat="48.10028" lon="-3.57349">
        <ele>131.3</ele>
        <time>2025-02-25T12:13:35Z</time>
      </trkpt>
      <trkpt lat="48.10028" lon="-3.57347">
        <ele>131.5</ele>
        <time>2025-02-25T12:13:36Z</time>
      </trkpt>
      <trkpt lat="48.10027" lon="-3.57346">
        <ele>131.6</ele>
        <time>2025-02-25T12:13:37Z</time>
      </trkpt>
      <trkpt lat="48.10027" lon="-3.57345">
        <ele>131.7</ele>
        <time>2025-02-25T12:13:38Z</time>
      </trkpt>
      <trkpt lat="48.10026" lon="-3.57343">
        <ele>132</ele>
        <time>2025-02-25T12:13:39Z</time>
      </trkpt>
      <trkpt lat="48.10025" lon="-3.57343">
        <ele>132</ele>
        <time>2025-02-25T12:13:40Z</time>
      </trkpt>
      <trkpt lat="48.10024" lon="-3.57342">
        <ele>132.1</ele>
        <time>2025-02-25T12:13:41Z</time>
      </trkpt>
      <trkpt lat="48.10024" lon="-3.57341">
        <ele>132.2</ele>
        <time>2025-02-25T12:13:42Z</time>
      </trkpt>
      <trkpt lat="48.10023" lon="-3.57341">
        <ele>132.2</ele>
        <time>2025-02-25T12:13:43Z</time>
      </trkpt>
      <trkpt lat="48.10022" lon="-3.5734">
        <ele>132.4</ele>
        <time>2025-02-25T12:13:44Z</time>
      </trkpt>
      <trkpt lat="48.10021" lon="-3.57339">
        <ele>132.5</ele>
        <time>2025-02-25T12:13:45Z</time>
      </trkpt>
      <trkpt lat="48.1002" lon="-3.57339">
        <ele>132.6</ele>
        <time>2025-02-25T12:13:46Z</time>
      </trkpt>
      <trkpt lat="48.10019" lon="-3.57339">
        <ele>132.6</ele>
        <time>2025-02-25T12:13:47Z</time>
      </trkpt>
      <trkpt lat="48.10019" lon="-3.57338">
        <ele>132.7</ele>
        <time>2025-02-25T12:13:48Z</time>
      </trkpt>
      <trkpt lat="48.10018" lon="-3.57338">
        <ele>132.7</ele>
        <time>2025-02-25T12:13:49Z</time>
      </trkpt>
      <trkpt lat="48.10017" lon="-3.57338">
        <ele>132.8</ele>
        <time>2025-02-25T12:13:50Z</time>
      </trkpt>
      <trkpt lat="48.10016" lon="-3.57337">
        <ele>132.9</ele>
        <time>2025-02-25T12:13:51Z</time>
      </trkpt>
      <trkpt lat="48.10016" lon="-3.57336">
        <ele>133.1</ele>
        <time>2025-02-25T12:13:52Z</time>
      </trkpt>
      <trkpt lat="48.10014" lon="-3.57336">
        <ele>133.1</ele>
        <time>2025-02-25T12:13:53Z</time>
      </trkpt>
      <trkpt lat="48.10013" lon="-3.57337">
        <ele>133</ele>
        <time>2025-02-25T12:13:54Z</time>
      </trkpt>
      <trkpt lat="48.10012" lon="-3.57337">
        <ele>133</ele>
        <time>2025-02-25T12:13:55Z</time>
      </trkpt>
      <trkpt lat="48.10011" lon="-3.57337">
        <ele>133</ele>
        <time>2025-02-25T12:13:56Z</time>
      </trkpt>
      <trkpt lat="48.1001" lon="-3.57336">
        <ele>133.2</ele>
        <time>2025-02-25T12:13:57Z</time>
      </trkpt>
      <trkpt lat="48.10009" lon="-3.57335">
        <ele>133.4</ele>
        <time>2025-02-25T12:13:58Z</time>
      </trkpt>
      <trkpt lat="48.10009" lon="-3.57334">
        <ele>133.6</ele>
        <time>2025-02-25T12:13:59Z</time>
      </trkpt>
      <trkpt lat="48.10007" lon="-3.57334">
        <ele>133.6</ele>
        <time>2025-02-25T12:14:00Z</time>
      </trkpt>
      <trkpt lat="48.10006" lon="-3.57334">
        <ele>133.7</ele>
        <time>2025-02-25T12:14:01Z</time>
      </trkpt>
      <trkpt lat="48.10004" lon="-3.57334">
        <ele>133.7</ele>
        <time>2025-02-25T12:14:02Z</time>
      </trkpt>
      <trkpt lat="48.10003" lon="-3.57334">
        <ele>133.8</ele>
        <time>2025-02-25T12:14:03Z</time>
      </trkpt>
      <trkpt lat="48.10002" lon="-3.57335">
        <ele>133.6</ele>
        <time>2025-02-25T12:14:04Z</time>
      </trkpt>
      <trkpt lat="48.10002" lon="-3.57336">
        <ele>133.5</ele>
        <time>2025-02-25T12:14:05Z</time>
      </trkpt>
      <trkpt lat="48.1" lon="-3.57335">
        <ele>133.7</ele>
        <time>2025-02-25T12:14:06Z</time>
      </trkpt>
      <trkpt lat="48.09999" lon="-3.57335">
        <ele>133.7</ele>
        <time>2025-02-25T12:14:07Z</time>
      </trkpt>
      <trkpt lat="48.09998" lon="-3.57334">
        <ele>133.9</ele>
        <time>2025-02-25T12:14:08Z</time>
      </trkpt>
      <trkpt lat="48.09997" lon="-3.57334">
        <ele>133.9</ele>
        <time>2025-02-25T12:14:09Z</time>
      </trkpt>
      <trkpt lat="48.09996" lon="-3.57334">
        <ele>133.9</ele>
        <time>2025-02-25T12:14:10Z</time>
      </trkpt>
      <trkpt lat="48.09995" lon="-3.57334">
        <ele>133.9</ele>
        <time>2025-02-25T12:14:11Z</time>
      </trkpt>
      <trkpt lat="48.09993" lon="-3.57333">
        <ele>134</ele>
        <time>2025-02-25T12:14:12Z</time>
      </trkpt>
      <trkpt lat="48.09992" lon="-3.57333">
        <ele>134</ele>
        <time>2025-02-25T12:14:13Z</time>
      </trkpt>
      <trkpt lat="48.09991" lon="-3.57333">
        <ele>134</ele>
        <time>2025-02-25T12:14:14Z</time>
      </trkpt>
      <trkpt lat="48.0999" lon="-3.57332">
        <ele>134.2</ele>
        <time>2025-02-25T12:14:15Z</time>
      </trkpt>
      <trkpt lat="48.09989" lon="-3.57332">
        <ele>134.2</ele>
        <time>2025-02-25T12:14:16Z</time>
      </trkpt>
      <trkpt lat="48.09988" lon="-3.57332">
        <ele>134.2</ele>
        <time>2025-02-25T12:14:17Z</time>
      </trkpt>
      <trkpt lat="48.09986" lon="-3.57332">
        <ele>134.2</ele>
        <time>2025-02-25T12:14:18Z</time>
      </trkpt>
      <trkpt lat="48.09986" lon="-3.57333">
        <ele>134</ele>
        <time>2025-02-25T12:14:19Z</time>
      </trkpt>
      <trkpt lat="48.09984" lon="-3.57333">
        <ele>134</ele>
        <time>2025-02-25T12:14:20Z</time>
      </trkpt>
      <trkpt lat="48.09983" lon="-3.57333">
        <ele>134</ele>
        <time>2025-02-25T12:14:21Z</time>
      </trkpt>
      <trkpt lat="48.09982" lon="-3.57334">
        <ele>133.9</ele>
        <time>2025-02-25T12:14:22Z</time>
      </trkpt>
      <trkpt lat="48.09981" lon="-3.57334">
        <ele>133.9</ele>
        <time>2025-02-25T12:14:23Z</time>
      </trkpt>
      <trkpt lat="48.0998" lon="-3.57333">
        <ele>134</ele>
        <time>2025-02-25T12:14:24Z</time>
      </trkpt>
      <trkpt lat="48.09979" lon="-3.57334">
        <ele>133.9</ele>
        <time>2025-02-25T12:14:25Z</time>
      </trkpt>
      <trkpt lat="48.09978" lon="-3.57333">
        <ele>134</ele>
        <time>2025-02-25T12:14:26Z</time>
      </trkpt>
      <trkpt lat="48.09977" lon="-3.57333">
        <ele>134</ele>
        <time>2025-02-25T12:14:27Z</time>
      </trkpt>
      <trkpt lat="48.09976" lon="-3.57333">
        <ele>134</ele>
        <time>2025-02-25T12:14:28Z</time>
      </trkpt>
      <trkpt lat="48.09974" lon="-3.57333">
        <ele>134</ele>
        <time>2025-02-25T12:14:29Z</time>
      </trkpt>
      <trkpt lat="48.09973" lon="-3.57333">
        <ele>134</ele>
        <time>2025-02-25T12:14:30Z</time>
      </trkpt>
      <trkpt lat="48.09972" lon="-3.57333">
        <ele>134</ele>
        <time>2025-02-25T12:14:31Z</time>
      </trkpt>
      <trkpt lat="48.09971" lon="-3.57333">
        <ele>134</ele>
        <time>2025-02-25T12:14:32Z</time>
      </trkpt>
      <trkpt lat="48.0997" lon="-3.57332">
        <ele>134.1</ele>
        <time>2025-02-25T12:14:33Z</time>
      </trkpt>
      <trkpt lat="48.09969" lon="-3.57331">
        <ele>134.2</ele>
        <time>2025-02-25T12:14:34Z</time>
      </trkpt>
      <trkpt lat="48.09968" lon="-3.57331">
        <ele>134.2</ele>
        <time>2025-02-25T12:14:35Z</time>
      </trkpt>
      <trkpt lat="48.09967" lon="-3.57331">
        <ele>134.2</ele>
        <time>2025-02-25T12:14:36Z</time>
      </trkpt>
      <trkpt lat="48.09966" lon="-3.57332">
        <ele>134.1</ele>
        <time>2025-02-25T12:14:37Z</time>
      </trkpt>
      <trkpt lat="48.09965" lon="-3.57332">
        <ele>134.1</ele>
        <time>2025-02-25T12:14:38Z</time>
      </trkpt>
      <trkpt lat="48.09964" lon="-3.57331">
        <ele>134.2</ele>
        <time>2025-02-25T12:14:39Z</time>
      </trkpt>
      <trkpt lat="48.09963" lon="-3.57329">
        <ele>134.4</ele>
        <time>2025-02-25T12:14:40Z</time>
      </trkpt>
      <trkpt lat="48.09962" lon="-3.57329">
        <ele>134.4</ele>
        <time>2025-02-25T12:14:41Z</time>
      </trkpt>
      <trkpt lat="48.09961" lon="-3.57328">
        <ele>134.5</ele>
        <time>2025-02-25T12:14:42Z</time>
      </trkpt>
      <trkpt lat="48.0996" lon="-3.57328">
        <ele>134.5</ele>
        <time>2025-02-25T12:14:43Z</time>
      </trkpt>
      <trkpt lat="48.09959" lon="-3.57327">
        <ele>134.6</ele>
        <time>2025-02-25T12:14:44Z</time>
      </trkpt>
      <trkpt lat="48.09958" lon="-3.57327">
        <ele>134.6</ele>
        <time>2025-02-25T12:14:45Z</time>
      </trkpt>
      <trkpt lat="48.09957" lon="-3.57326">
        <ele>134.6</ele>
        <time>2025-02-25T12:14:46Z</time>
      </trkpt>
      <trkpt lat="48.09956" lon="-3.57326">
        <ele>134.6</ele>
        <time>2025-02-25T12:14:47Z</time>
      </trkpt>
      <trkpt lat="48.09955" lon="-3.57326">
        <ele>134.6</ele>
        <time>2025-02-25T12:14:48Z</time>
      </trkpt>
      <trkpt lat="48.09953" lon="-3.57325">
        <ele>134.7</ele>
        <time>2025-02-25T12:14:49Z</time>
      </trkpt>
      <trkpt lat="48.09952" lon="-3.57325">
        <ele>134.7</ele>
        <time>2025-02-25T12:14:50Z</time>
      </trkpt>
      <trkpt lat="48.09951" lon="-3.57325">
        <ele>134.7</ele>
        <time>2025-02-25T12:14:51Z</time>
      </trkpt>
      <trkpt lat="48.0995" lon="-3.57324">
        <ele>134.7</ele>
        <time>2025-02-25T12:14:52Z</time>
      </trkpt>
      <trkpt lat="48.09949" lon="-3.57323">
        <ele>134.8</ele>
        <time>2025-02-25T12:14:53Z</time>
      </trkpt>
      <trkpt lat="48.09948" lon="-3.57322">
        <ele>134.9</ele>
        <time>2025-02-25T12:14:54Z</time>
      </trkpt>
      <trkpt lat="48.09947" lon="-3.57322">
        <ele>134.9</ele>
        <time>2025-02-25T12:14:55Z</time>
      </trkpt>
      <trkpt lat="48.09946" lon="-3.57321">
        <ele>134.9</ele>
        <time>2025-02-25T12:14:56Z</time>
      </trkpt>
      <trkpt lat="48.09945" lon="-3.5732">
        <ele>135</ele>
        <time>2025-02-25T12:14:57Z</time>
      </trkpt>
      <trkpt lat="48.09944" lon="-3.57319">
        <ele>135</ele>
        <time>2025-02-25T12:14:58Z</time>
      </trkpt>
      <trkpt lat="48.09943" lon="-3.57318">
        <ele>135.1</ele>
        <time>2025-02-25T12:14:59Z</time>
      </trkpt>
      <trkpt lat="48.09942" lon="-3.57318">
        <ele>135.1</ele>
        <time>2025-02-25T12:15:00Z</time>
      </trkpt>
      <trkpt lat="48.09941" lon="-3.57318">
        <ele>135</ele>
        <time>2025-02-25T12:15:01Z</time>
      </trkpt>
      <trkpt lat="48.0994" lon="-3.57318">
        <ele>135</ele>
        <time>2025-02-25T12:15:02Z</time>
      </trkpt>
      <trkpt lat="48.09939" lon="-3.57317">
        <ele>135.1</ele>
        <time>2025-02-25T12:15:03Z</time>
      </trkpt>
      <trkpt lat="48.09938" lon="-3.57318">
        <ele>135</ele>
        <time>2025-02-25T12:15:04Z</time>
      </trkpt>
      <trkpt lat="48.09937" lon="-3.57319">
        <ele>134.9</ele>
        <time>2025-02-25T12:15:05Z</time>
      </trkpt>
      <trkpt lat="48.09936" lon="-3.57318">
        <ele>135</ele>
        <time>2025-02-25T12:15:06Z</time>
      </trkpt>
      <trkpt lat="48.09935" lon="-3.57319">
        <ele>134.9</ele>
        <time>2025-02-25T12:15:07Z</time>
      </trkpt>
      <trkpt lat="48.09934" lon="-3.57317">
        <ele>135</ele>
        <time>2025-02-25T12:15:08Z</time>
      </trkpt>
      <trkpt lat="48.09933" lon="-3.57317">
        <ele>135</ele>
        <time>2025-02-25T12:15:09Z</time>
      </trkpt>
      <trkpt lat="48.09932" lon="-3.57316">
        <ele>135.1</ele>
        <time>2025-02-25T12:15:10Z</time>
      </trkpt>
      <trkpt lat="48.09931" lon="-3.57316">
        <ele>135.1</ele>
        <time>2025-02-25T12:15:11Z</time>
      </trkpt>
      <trkpt lat="48.0993" lon="-3.57315">
        <ele>135.1</ele>
        <time>2025-02-25T12:15:12Z</time>
      </trkpt>
      <trkpt lat="48.09929" lon="-3.57315">
        <ele>135.1</ele>
        <time>2025-02-25T12:15:13Z</time>
      </trkpt>
      <trkpt lat="48.09929" lon="-3.57314">
        <ele>135.2</ele>
        <time>2025-02-25T12:15:14Z</time>
      </trkpt>
      <trkpt lat="48.09928" lon="-3.57313">
        <ele>135.3</ele>
        <time>2025-02-25T12:15:15Z</time>
      </trkpt>
      <trkpt lat="48.09927" lon="-3.57313">
        <ele>135.3</ele>
        <time>2025-02-25T12:15:16Z</time>
      </trkpt>
      <trkpt lat="48.09927" lon="-3.57312">
        <ele>135.4</ele>
        <time>2025-02-25T12:15:17Z</time>
      </trkpt>
      <trkpt lat="48.09926" lon="-3.57312">
        <ele>135.4</ele>
        <time>2025-02-25T12:15:18Z</time>
      </trkpt>
      <trkpt lat="48.09925" lon="-3.57311">
        <ele>135.5</ele>
        <time>2025-02-25T12:15:19Z</time>
      </trkpt>
      <trkpt lat="48.09924" lon="-3.57311">
        <ele>135.5</ele>
        <time>2025-02-25T12:15:20Z</time>
      </trkpt>
      <trkpt lat="48.09923" lon="-3.57311">
        <ele>135.5</ele>
        <time>2025-02-25T12:15:21Z</time>
      </trkpt>
      <trkpt lat="48.09922" lon="-3.5731">
        <ele>135.6</ele>
        <time>2025-02-25T12:15:22Z</time>
      </trkpt>
      <trkpt lat="48.09921" lon="-3.5731">
        <ele>135.5</ele>
        <time>2025-02-25T12:15:23Z</time>
      </trkpt>
      <trkpt lat="48.09921" lon="-3.57309">
        <ele>135.6</ele>
        <time>2025-02-25T12:15:24Z</time>
      </trkpt>
      <trkpt lat="48.0992" lon="-3.57309">
        <ele>135.6</ele>
        <time>2025-02-25T12:15:25Z</time>
      </trkpt>
      <trkpt lat="48.09919" lon="-3.57308">
        <ele>135.7</ele>
        <time>2025-02-25T12:15:26Z</time>
      </trkpt>
      <trkpt lat="48.09919" lon="-3.57307">
        <ele>135.8</ele>
        <time>2025-02-25T12:15:27Z</time>
      </trkpt>
      <trkpt lat="48.09918" lon="-3.57307">
        <ele>135.8</ele>
        <time>2025-02-25T12:15:28Z</time>
      </trkpt>
      <trkpt lat="48.09917" lon="-3.57307">
        <ele>135.8</ele>
        <time>2025-02-25T12:15:29Z</time>
      </trkpt>
      <trkpt lat="48.09916" lon="-3.57307">
        <ele>135.8</ele>
        <time>2025-02-25T12:15:30Z</time>
      </trkpt>
      <trkpt lat="48.09915" lon="-3.57308">
        <ele>135.6</ele>
        <time>2025-02-25T12:15:31Z</time>
      </trkpt>
      <trkpt lat="48.09914" lon="-3.57307">
        <ele>135.7</ele>
        <time>2025-02-25T12:15:32Z</time>
      </trkpt>
      <trkpt lat="48.09913" lon="-3.57306">
        <ele>135.7</ele>
        <time>2025-02-25T12:15:33Z</time>
      </trkpt>
      <trkpt lat="48.09913" lon="-3.57306">
        <ele>135.7</ele>
        <time>2025-02-25T12:15:34Z</time>
      </trkpt>
      <trkpt lat="48.09912" lon="-3.57304">
        <ele>135.8</ele>
        <time>2025-02-25T12:15:35Z</time>
      </trkpt>
      <trkpt lat="48.09912" lon="-3.57303">
        <ele>135.8</ele>
        <time>2025-02-25T12:15:36Z</time>
      </trkpt>
      <trkpt lat="48.09911" lon="-3.57301">
        <ele>135.9</ele>
        <time>2025-02-25T12:15:37Z</time>
      </trkpt>
      <trkpt lat="48.0991" lon="-3.573">
        <ele>135.9</ele>
        <time>2025-02-25T12:15:38Z</time>
      </trkpt>
      <trkpt lat="48.09909" lon="-3.573">
        <ele>135.8</ele>
        <time>2025-02-25T12:15:39Z</time>
      </trkpt>
      <trkpt lat="48.09908" lon="-3.573">
        <ele>135.8</ele>
        <time>2025-02-25T12:15:40Z</time>
      </trkpt>
      <trkpt lat="48.09907" lon="-3.573">
        <ele>135.7</ele>
        <time>2025-02-25T12:15:41Z</time>
      </trkpt>
      <trkpt lat="48.09906" lon="-3.573">
        <ele>135.6</ele>
        <time>2025-02-25T12:15:42Z</time>
      </trkpt>
      <trkpt lat="48.09906" lon="-3.57299">
        <ele>135.7</ele>
        <time>2025-02-25T12:15:43Z</time>
      </trkpt>
      <trkpt lat="48.09904" lon="-3.57298">
        <ele>135.6</ele>
        <time>2025-02-25T12:15:44Z</time>
      </trkpt>
      <trkpt lat="48.09903" lon="-3.57297">
        <ele>135.6</ele>
        <time>2025-02-25T12:15:45Z</time>
      </trkpt>
      <trkpt lat="48.09903" lon="-3.57295">
        <ele>135.8</ele>
        <time>2025-02-25T12:15:46Z</time>
      </trkpt>
      <trkpt lat="48.09902" lon="-3.57293">
        <ele>135.8</ele>
        <time>2025-02-25T12:15:47Z</time>
      </trkpt>
      <trkpt lat="48.09901" lon="-3.57292">
        <ele>135.8</ele>
        <time>2025-02-25T12:15:48Z</time>
      </trkpt>
      <trkpt lat="48.09901" lon="-3.57291">
        <ele>135.9</ele>
        <time>2025-02-25T12:15:49Z</time>
      </trkpt>
      <trkpt lat="48.099" lon="-3.5729">
        <ele>135.9</ele>
        <time>2025-02-25T12:15:50Z</time>
      </trkpt>
      <trkpt lat="48.09899" lon="-3.57289">
        <ele>135.9</ele>
        <time>2025-02-25T12:15:51Z</time>
      </trkpt>
      <trkpt lat="48.09898" lon="-3.57289">
        <ele>135.8</ele>
        <time>2025-02-25T12:15:52Z</time>
      </trkpt>
      <trkpt lat="48.09897" lon="-3.57289">
        <ele>135.8</ele>
        <time>2025-02-25T12:15:53Z</time>
      </trkpt>
      <trkpt lat="48.09896" lon="-3.57288">
        <ele>135.8</ele>
        <time>2025-02-25T12:15:54Z</time>
      </trkpt>
      <trkpt lat="48.09896" lon="-3.57287">
        <ele>135.8</ele>
        <time>2025-02-25T12:15:55Z</time>
      </trkpt>
      <trkpt lat="48.09894" lon="-3.57286">
        <ele>135.8</ele>
        <time>2025-02-25T12:15:56Z</time>
      </trkpt>
      <trkpt lat="48.09893" lon="-3.57285">
        <ele>135.8</ele>
        <time>2025-02-25T12:15:57Z</time>
      </trkpt>
      <trkpt lat="48.09892" lon="-3.57284">
        <ele>135.8</ele>
        <time>2025-02-25T12:15:58Z</time>
      </trkpt>
      <trkpt lat="48.09892" lon="-3.57283">
        <ele>135.8</ele>
        <time>2025-02-25T12:15:59Z</time>
      </trkpt>
      <trkpt lat="48.09891" lon="-3.57283">
        <ele>135.8</ele>
        <time>2025-02-25T12:16:00Z</time>
      </trkpt>
      <trkpt lat="48.0989" lon="-3.57282">
        <ele>135.8</ele>
        <time>2025-02-25T12:16:01Z</time>
      </trkpt>
      <trkpt lat="48.09889" lon="-3.57282">
        <ele>135.7</ele>
        <time>2025-02-25T12:16:02Z</time>
      </trkpt>
      <trkpt lat="48.09888" lon="-3.57281">
        <ele>135.6</ele>
        <time>2025-02-25T12:16:03Z</time>
      </trkpt>
      <trkpt lat="48.09887" lon="-3.5728">
        <ele>135.6</ele>
        <time>2025-02-25T12:16:04Z</time>
      </trkpt>
      <trkpt lat="48.09886" lon="-3.5728">
        <ele>135.4</ele>
        <time>2025-02-25T12:16:05Z</time>
      </trkpt>
      <trkpt lat="48.09885" lon="-3.57278">
        <ele>135.4</ele>
        <time>2025-02-25T12:16:06Z</time>
      </trkpt>
      <trkpt lat="48.09884" lon="-3.57277">
        <ele>135.3</ele>
        <time>2025-02-25T12:16:07Z</time>
      </trkpt>
      <trkpt lat="48.09883" lon="-3.57276">
        <ele>135.2</ele>
        <time>2025-02-25T12:16:08Z</time>
      </trkpt>
      <trkpt lat="48.09882" lon="-3.57276">
        <ele>135.1</ele>
        <time>2025-02-25T12:16:09Z</time>
      </trkpt>
      <trkpt lat="48.09881" lon="-3.57275">
        <ele>135</ele>
        <time>2025-02-25T12:16:10Z</time>
      </trkpt>
      <trkpt lat="48.0988" lon="-3.57274">
        <ele>134.9</ele>
        <time>2025-02-25T12:16:11Z</time>
      </trkpt>
      <trkpt lat="48.09879" lon="-3.57274">
        <ele>134.7</ele>
        <time>2025-02-25T12:16:12Z</time>
      </trkpt>
      <trkpt lat="48.09878" lon="-3.57272">
        <ele>134.6</ele>
        <time>2025-02-25T12:16:13Z</time>
      </trkpt>
      <trkpt lat="48.09878" lon="-3.57271">
        <ele>134.7</ele>
        <time>2025-02-25T12:16:14Z</time>
      </trkpt>
      <trkpt lat="48.09877" lon="-3.5727">
        <ele>134.6</ele>
        <time>2025-02-25T12:16:15Z</time>
      </trkpt>
      <trkpt lat="48.09876" lon="-3.57269">
        <ele>134.5</ele>
        <time>2025-02-25T12:16:16Z</time>
      </trkpt>
      <trkpt lat="48.09876" lon="-3.57267">
        <ele>134.5</ele>
        <time>2025-02-25T12:16:17Z</time>
      </trkpt>
      <trkpt lat="48.09875" lon="-3.57266">
        <ele>134.4</ele>
        <time>2025-02-25T12:16:18Z</time>
      </trkpt>
      <trkpt lat="48.09874" lon="-3.57265">
        <ele>134.3</ele>
        <time>2025-02-25T12:16:19Z</time>
      </trkpt>
      <trkpt lat="48.09874" lon="-3.57264">
        <ele>134.4</ele>
        <time>2025-02-25T12:16:20Z</time>
      </trkpt>
      <trkpt lat="48.09873" lon="-3.57263">
        <ele>134.2</ele>
        <time>2025-02-25T12:16:21Z</time>
      </trkpt>
      <trkpt lat="48.09872" lon="-3.57262">
        <ele>134.1</ele>
        <time>2025-02-25T12:16:22Z</time>
      </trkpt>
      <trkpt lat="48.09871" lon="-3.5726">
        <ele>134.1</ele>
        <time>2025-02-25T12:16:23Z</time>
      </trkpt>
      <trkpt lat="48.0987" lon="-3.57258">
        <ele>134</ele>
        <time>2025-02-25T12:16:24Z</time>
      </trkpt>
      <trkpt lat="48.09869" lon="-3.57257">
        <ele>133.9</ele>
        <time>2025-02-25T12:16:25Z</time>
      </trkpt>
      <trkpt lat="48.09868" lon="-3.57255">
        <ele>133.8</ele>
        <time>2025-02-25T12:16:26Z</time>
      </trkpt>
      <trkpt lat="48.09867" lon="-3.57253">
        <ele>133.7</ele>
        <time>2025-02-25T12:16:27Z</time>
      </trkpt>
      <trkpt lat="48.09866" lon="-3.57252">
        <ele>133.6</ele>
        <time>2025-02-25T12:16:28Z</time>
      </trkpt>
      <trkpt lat="48.09865" lon="-3.5725">
        <ele>133.6</ele>
        <time>2025-02-25T12:16:29Z</time>
      </trkpt>
      <trkpt lat="48.09864" lon="-3.57249">
        <ele>133.4</ele>
        <time>2025-02-25T12:16:30Z</time>
      </trkpt>
      <trkpt lat="48.09863" lon="-3.57247">
        <ele>133.3</ele>
        <time>2025-02-25T12:16:31Z</time>
      </trkpt>
      <trkpt lat="48.09863" lon="-3.57245">
        <ele>133.3</ele>
        <time>2025-02-25T12:16:32Z</time>
      </trkpt>
      <trkpt lat="48.09863" lon="-3.57243">
        <ele>133.3</ele>
        <time>2025-02-25T12:16:33Z</time>
      </trkpt>
      <trkpt lat="48.09863" lon="-3.5724">
        <ele>133.3</ele>
        <time>2025-02-25T12:16:34Z</time>
      </trkpt>
      <trkpt lat="48.09863" lon="-3.57238">
        <ele>133.3</ele>
        <time>2025-02-25T12:16:35Z</time>
      </trkpt>
      <trkpt lat="48.09862" lon="-3.57236">
        <ele>133.1</ele>
        <time>2025-02-25T12:16:36Z</time>
      </trkpt>
      <trkpt lat="48.09862" lon="-3.57234">
        <ele>133.1</ele>
        <time>2025-02-25T12:16:37Z</time>
      </trkpt>
      <trkpt lat="48.09862" lon="-3.57233">
        <ele>133.1</ele>
        <time>2025-02-25T12:16:38Z</time>
      </trkpt>
      <trkpt lat="48.09862" lon="-3.57231">
        <ele>133.1</ele>
        <time>2025-02-25T12:16:39Z</time>
      </trkpt>
      <trkpt lat="48.09861" lon="-3.57229">
        <ele>133</ele>
        <time>2025-02-25T12:16:40Z</time>
      </trkpt>
      <trkpt lat="48.09861" lon="-3.57228">
        <ele>133</ele>
        <time>2025-02-25T12:16:41Z</time>
      </trkpt>
      <trkpt lat="48.09861" lon="-3.57227">
        <ele>133</ele>
        <time>2025-02-25T12:16:42Z</time>
      </trkpt>
      <trkpt lat="48.09861" lon="-3.57225">
        <ele>133</ele>
        <time>2025-02-25T12:16:43Z</time>
      </trkpt>
      <trkpt lat="48.0986" lon="-3.57224">
        <ele>133.2</ele>
        <time>2025-02-25T12:16:44Z</time>
      </trkpt>
      <trkpt lat="48.0986" lon="-3.57222">
        <ele>133.2</ele>
        <time>2025-02-25T12:16:45Z</time>
      </trkpt>
      <trkpt lat="48.09859" lon="-3.5722">
        <ele>133.4</ele>
        <time>2025-02-25T12:16:46Z</time>
      </trkpt>
      <trkpt lat="48.09858" lon="-3.5722">
        <ele>133.6</ele>
        <time>2025-02-25T12:16:47Z</time>
      </trkpt>
      <trkpt lat="48.09857" lon="-3.5722">
        <ele>133.7</ele>
        <time>2025-02-25T12:16:48Z</time>
      </trkpt>
      <trkpt lat="48.09857" lon="-3.5722">
        <ele>133.7</ele>
        <time>2025-02-25T12:16:49Z</time>
      </trkpt>
      <trkpt lat="48.09855" lon="-3.57221">
        <ele>133.9</ele>
        <time>2025-02-25T12:16:50Z</time>
      </trkpt>
      <trkpt lat="48.09854" lon="-3.57221">
        <ele>134.1</ele>
        <time>2025-02-25T12:16:51Z</time>
      </trkpt>
      <trkpt lat="48.09854" lon="-3.5722">
        <ele>134.1</ele>
        <time>2025-02-25T12:16:52Z</time>
      </trkpt>
      <trkpt lat="48.09853" lon="-3.57221">
        <ele>134.2</ele>
        <time>2025-02-25T12:16:53Z</time>
      </trkpt>
      <trkpt lat="48.09854" lon="-3.57223">
        <ele>134</ele>
        <time>2025-02-25T12:16:54Z</time>
      </trkpt>
      <trkpt lat="48.09854" lon="-3.57223">
        <ele>134</ele>
        <time>2025-02-25T12:16:55Z</time>
      </trkpt>
      <trkpt lat="48.09854" lon="-3.57223">
        <ele>134</ele>
        <time>2025-02-25T12:16:56Z</time>
      </trkpt>
      <trkpt lat="48.09854" lon="-3.57223">
        <ele>134</ele>
        <time>2025-02-25T12:16:57Z</time>
      </trkpt>
      <trkpt lat="48.09854" lon="-3.57223">
        <ele>134</ele>
        <time>2025-02-25T12:16:58Z</time>
      </trkpt>
      <trkpt lat="48.09854" lon="-3.57223">
        <ele>134</ele>
        <time>2025-02-25T12:16:59Z</time>
      </trkpt>
      <trkpt lat="48.09854" lon="-3.57223">
        <ele>134</ele>
        <time>2025-02-25T12:17:00Z</time>
      </trkpt>
      <trkpt lat="48.09854" lon="-3.57223">
        <ele>134</ele>
        <time>2025-02-25T12:17:01Z</time>
      </trkpt>
      <trkpt lat="48.09854" lon="-3.57222">
        <ele>134</ele>
        <time>2025-02-25T12:17:02Z</time>
      </trkpt>
      <trkpt lat="48.09854" lon="-3.57223">
        <ele>134</ele>
        <time>2025-02-25T12:17:03Z</time>
      </trkpt>
      <trkpt lat="48.09854" lon="-3.57223">
        <ele>134</ele>
        <time>2025-02-25T12:17:04Z</time>
      </trkpt>
      <trkpt lat="48.09854" lon="-3.57223">
        <ele>134</ele>
        <time>2025-02-25T12:17:05Z</time>
      </trkpt>
      <trkpt lat="48.09854" lon="-3.57223">
        <ele>134</ele>
        <time>2025-02-25T12:17:06Z</time>
      </trkpt>
      <trkpt lat="48.09854" lon="-3.57223">
        <ele>134</ele>
        <time>2025-02-25T12:17:07Z</time>
      </trkpt>
      <trkpt lat="48.09855" lon="-3.57223">
        <ele>133.9</ele>
        <time>2025-02-25T12:17:08Z</time>
      </trkpt>
      <trkpt lat="48.09854" lon="-3.57222">
        <ele>134</ele>
        <time>2025-02-25T12:17:09Z</time>
      </trkpt>
      <trkpt lat="48.09854" lon="-3.5722">
        <ele>134.1</ele>
        <time>2025-02-25T12:17:10Z</time>
      </trkpt>
      <trkpt lat="48.09853" lon="-3.57219">
        <ele>134.3</ele>
        <time>2025-02-25T12:17:11Z</time>
      </trkpt>
      <trkpt lat="48.09853" lon="-3.57218">
        <ele>134.3</ele>
        <time>2025-02-25T12:17:12Z</time>
      </trkpt>
      <trkpt lat="48.09852" lon="-3.57219">
        <ele>134.4</ele>
        <time>2025-02-25T12:17:13Z</time>
      </trkpt>
      <trkpt lat="48.09852" lon="-3.57221">
        <ele>134.4</ele>
        <time>2025-02-25T12:17:14Z</time>
      </trkpt>
      <trkpt lat="48.09853" lon="-3.57222">
        <ele>134.2</ele>
        <time>2025-02-25T12:17:15Z</time>
      </trkpt>
      <trkpt lat="48.09853" lon="-3.57223">
        <ele>134.2</ele>
        <time>2025-02-25T12:17:16Z</time>
      </trkpt>
      <trkpt lat="48.09853" lon="-3.57223">
        <ele>134.2</ele>
        <time>2025-02-25T12:17:17Z</time>
      </trkpt>
      <trkpt lat="48.09854" lon="-3.57223">
        <ele>134</ele>
        <time>2025-02-25T12:17:18Z</time>
      </trkpt>
      <trkpt lat="48.09855" lon="-3.57223">
        <ele>133.9</ele>
        <time>2025-02-25T12:17:19Z</time>
      </trkpt>
      <trkpt lat="48.09856" lon="-3.57223">
        <ele>133.7</ele>
        <time>2025-02-25T12:17:20Z</time>
      </trkpt>
      <trkpt lat="48.09856" lon="-3.57223">
        <ele>133.7</ele>
        <time>2025-02-25T12:17:21Z</time>
      </trkpt>
      <trkpt lat="48.09857" lon="-3.57223">
        <ele>133.6</ele>
        <time>2025-02-25T12:17:22Z</time>
      </trkpt>
      <trkpt lat="48.09857" lon="-3.57223">
        <ele>133.6</ele>
        <time>2025-02-25T12:17:23Z</time>
      </trkpt>
      <trkpt lat="48.09857" lon="-3.57223">
        <ele>133.6</ele>
        <time>2025-02-25T12:17:24Z</time>
      </trkpt>
      <trkpt lat="48.09857" lon="-3.57223">
        <ele>133.6</ele>
        <time>2025-02-25T12:17:25Z</time>
      </trkpt>
      <trkpt lat="48.09857" lon="-3.57223">
        <ele>133.6</ele>
        <time>2025-02-25T12:17:26Z</time>
      </trkpt>
      <trkpt lat="48.09857" lon="-3.57223">
        <ele>133.6</ele>
        <time>2025-02-25T12:17:27Z</time>
      </trkpt>
      <trkpt lat="48.09857" lon="-3.57223">
        <ele>133.6</ele>
        <time>2025-02-25T12:17:28Z</time>
      </trkpt>
      <trkpt lat="48.09857" lon="-3.57223">
        <ele>133.6</ele>
        <time>2025-02-25T12:17:29Z</time>
      </trkpt>
      <trkpt lat="48.09857" lon="-3.57223">
        <ele>133.6</ele>
        <time>2025-02-25T12:17:30Z</time>
      </trkpt>
      <trkpt lat="48.09857" lon="-3.57223">
        <ele>133.6</ele>
        <time>2025-02-25T12:17:31Z</time>
      </trkpt>
      <trkpt lat="48.09857" lon="-3.57223">
        <ele>133.6</ele>
        <time>2025-02-25T12:17:32Z</time>
      </trkpt>
      <trkpt lat="48.09858" lon="-3.57223">
        <ele>133.4</ele>
        <time>2025-02-25T12:17:33Z</time>
      </trkpt>
      <trkpt lat="48.09858" lon="-3.57223">
        <ele>133.4</ele>
        <time>2025-02-25T12:17:34Z</time>
      </trkpt>
      <trkpt lat="48.09858" lon="-3.57222">
        <ele>133.5</ele>
        <time>2025-02-25T12:17:35Z</time>
      </trkpt>
      <trkpt lat="48.09859" lon="-3.5722">
        <ele>133.4</ele>
        <time>2025-02-25T12:17:36Z</time>
      </trkpt>
      <trkpt lat="48.09859" lon="-3.5722">
        <ele>133.4</ele>
        <time>2025-02-25T12:17:37Z</time>
      </trkpt>
      <trkpt lat="48.0986" lon="-3.57219">
        <ele>133.4</ele>
        <time>2025-02-25T12:17:38Z</time>
      </trkpt>
      <trkpt lat="48.0986" lon="-3.57218">
        <ele>133.4</ele>
        <time>2025-02-25T12:17:39Z</time>
      </trkpt>
      <trkpt lat="48.09859" lon="-3.57218">
        <ele>133.6</ele>
        <time>2025-02-25T12:17:40Z</time>
      </trkpt>
      <trkpt lat="48.09859" lon="-3.57218">
        <ele>133.6</ele>
        <time>2025-02-25T12:17:41Z</time>
      </trkpt>
      <trkpt lat="48.09859" lon="-3.57219">
        <ele>133.5</ele>
        <time>2025-02-25T12:17:42Z</time>
      </trkpt>
      <trkpt lat="48.09859" lon="-3.57219">
        <ele>133.5</ele>
        <time>2025-02-25T12:17:43Z</time>
      </trkpt>
      <trkpt lat="48.09859" lon="-3.57219">
        <ele>133.5</ele>
        <time>2025-02-25T12:17:44Z</time>
      </trkpt>
      <trkpt lat="48.09859" lon="-3.57219">
        <ele>133.5</ele>
        <time>2025-02-25T12:17:45Z</time>
      </trkpt>
      <trkpt lat="48.09859" lon="-3.57219">
        <ele>133.5</ele>
        <time>2025-02-25T12:17:46Z</time>
      </trkpt>
      <trkpt lat="48.09858" lon="-3.57219">
        <ele>133.6</ele>
        <time>2025-02-25T12:17:47Z</time>
      </trkpt>
      <trkpt lat="48.09857" lon="-3.5722">
        <ele>133.7</ele>
        <time>2025-02-25T12:17:48Z</time>
      </trkpt>
      <trkpt lat="48.09854" lon="-3.5722">
        <ele>134.1</ele>
        <time>2025-02-25T12:17:49Z</time>
      </trkpt>
      <trkpt lat="48.09854" lon="-3.57219">
        <ele>134.2</ele>
        <time>2025-02-25T12:17:50Z</time>
      </trkpt>
      <trkpt lat="48.09854" lon="-3.57218">
        <ele>134.2</ele>
        <time>2025-02-25T12:17:51Z</time>
      </trkpt>
      <trkpt lat="48.09854" lon="-3.57218">
        <ele>134.2</ele>
        <time>2025-02-25T12:17:52Z</time>
      </trkpt>
      <trkpt lat="48.09854" lon="-3.57218">
        <ele>134.2</ele>
        <time>2025-02-25T12:17:53Z</time>
      </trkpt>
      <trkpt lat="48.09854" lon="-3.57218">
        <ele>134.2</ele>
        <time>2025-02-25T12:17:54Z</time>
      </trkpt>
      <trkpt lat="48.09853" lon="-3.57218">
        <ele>134.3</ele>
        <time>2025-02-25T12:17:55Z</time>
      </trkpt>
      <trkpt lat="48.09853" lon="-3.57218">
        <ele>134.3</ele>
        <time>2025-02-25T12:17:56Z</time>
      </trkpt>
      <trkpt lat="48.09853" lon="-3.57218">
        <ele>134.3</ele>
        <time>2025-02-25T12:17:57Z</time>
      </trkpt>
      <trkpt lat="48.09853" lon="-3.57218">
        <ele>134.3</ele>
        <time>2025-02-25T12:17:58Z</time>
      </trkpt>
      <trkpt lat="48.09853" lon="-3.57218">
        <ele>134.3</ele>
        <time>2025-02-25T12:17:59Z</time>
      </trkpt>
      <trkpt lat="48.09853" lon="-3.57218">
        <ele>134.3</ele>
        <time>2025-02-25T12:18:00Z</time>
      </trkpt>
      <trkpt lat="48.09853" lon="-3.57218">
        <ele>134.3</ele>
        <time>2025-02-25T12:18:01Z</time>
      </trkpt>
      <trkpt lat="48.09853" lon="-3.57218">
        <ele>134.3</ele>
        <time>2025-02-25T12:18:02Z</time>
      </trkpt>
      <trkpt lat="48.09853" lon="-3.57218">
        <ele>134.3</ele>
        <time>2025-02-25T12:18:03Z</time>
      </trkpt>
      <trkpt lat="48.09853" lon="-3.57218">
        <ele>134.3</ele>
        <time>2025-02-25T12:18:04Z</time>
      </trkpt>
      <trkpt lat="48.09853" lon="-3.57218">
        <ele>134.3</ele>
        <time>2025-02-25T12:18:05Z</time>
      </trkpt>
      <trkpt lat="48.09853" lon="-3.57218">
        <ele>134.3</ele>
        <time>2025-02-25T12:18:06Z</time>
      </trkpt>
      <trkpt lat="48.09853" lon="-3.57217">
        <ele>134.4</ele>
        <time>2025-02-25T12:18:07Z</time>
      </trkpt>
      <trkpt lat="48.09853" lon="-3.57217">
        <ele>134.4</ele>
        <time>2025-02-25T12:18:08Z</time>
      </trkpt>
      <trkpt lat="48.09853" lon="-3.57217">
        <ele>134.4</ele>
        <time>2025-02-25T12:18:09Z</time>
      </trkpt>
      <trkpt lat="48.09853" lon="-3.57217">
        <ele>134.4</ele>
        <time>2025-02-25T12:18:10Z</time>
      </trkpt>
      <trkpt lat="48.09853" lon="-3.57217">
        <ele>134.4</ele>
        <time>2025-02-25T12:18:11Z</time>
      </trkpt>
      <trkpt lat="48.09853" lon="-3.57217">
        <ele>134.4</ele>
        <time>2025-02-25T12:18:12Z</time>
      </trkpt>
      <trkpt lat="48.09853" lon="-3.57217">
        <ele>134.4</ele>
        <time>2025-02-25T12:18:13Z</time>
      </trkpt>
      <trkpt lat="48.09853" lon="-3.57217">
        <ele>134.4</ele>
        <time>2025-02-25T12:18:14Z</time>
      </trkpt>
      <trkpt lat="48.09853" lon="-3.57217">
        <ele>134.4</ele>
        <time>2025-02-25T12:18:15Z</time>
      </trkpt>
      <trkpt lat="48.09853" lon="-3.57217">
        <ele>134.4</ele>
        <time>2025-02-25T12:18:16Z</time>
      </trkpt>
      <trkpt lat="48.09853" lon="-3.57217">
        <ele>134.4</ele>
        <time>2025-02-25T12:18:17Z</time>
      </trkpt>
      <trkpt lat="48.09853" lon="-3.57217">
        <ele>134.4</ele>
        <time>2025-02-25T12:18:18Z</time>
      </trkpt>
      <trkpt lat="48.09853" lon="-3.57217">
        <ele>134.4</ele>
        <time>2025-02-25T12:18:19Z</time>
      </trkpt>
      <trkpt lat="48.09853" lon="-3.57217">
        <ele>134.4</ele>
        <time>2025-02-25T12:18:20Z</time>
      </trkpt>
      <trkpt lat="48.09853" lon="-3.57217">
        <ele>134.4</ele>
        <time>2025-02-25T12:18:21Z</time>
      </trkpt>
      <trkpt lat="48.09853" lon="-3.57217">
        <ele>134.4</ele>
        <time>2025-02-25T12:18:22Z</time>
      </trkpt>
      <trkpt lat="48.09853" lon="-3.57217">
        <ele>134.4</ele>
        <time>2025-02-25T12:18:23Z</time>
      </trkpt>
      <trkpt lat="48.09853" lon="-3.57217">
        <ele>134.4</ele>
        <time>2025-02-25T12:18:24Z</time>
      </trkpt>
      <trkpt lat="48.09853" lon="-3.57217">
        <ele>134.4</ele>
        <time>2025-02-25T12:18:25Z</time>
      </trkpt>
      <trkpt lat="48.09853" lon="-3.57217">
        <ele>134.4</ele>
        <time>2025-02-25T12:18:26Z</time>
      </trkpt>
      <trkpt lat="48.09853" lon="-3.57217">
        <ele>134.4</ele>
        <time>2025-02-25T12:18:27Z</time>
      </trkpt>
      <trkpt lat="48.09853" lon="-3.57217">
        <ele>134.4</ele>
        <time>2025-02-25T12:18:28Z</time>
      </trkpt>
      <trkpt lat="48.09853" lon="-3.57217">
        <ele>134.4</ele>
        <time>2025-02-25T12:18:29Z</time>
      </trkpt>
      <trkpt lat="48.09853" lon="-3.57217">
        <ele>134.4</ele>
        <time>2025-02-25T12:18:30Z</time>
      </trkpt>
      <trkpt lat="48.09853" lon="-3.57217">
        <ele>134.4</ele>
        <time>2025-02-25T12:18:31Z</time>
      </trkpt>
      <trkpt lat="48.09853" lon="-3.57217">
        <ele>134.4</ele>
        <time>2025-02-25T12:18:32Z</time>
      </trkpt>
      <trkpt lat="48.09854" lon="-3.57216">
        <ele>134.3</ele>
        <time>2025-02-25T12:18:33Z</time>
      </trkpt>
      <trkpt lat="48.09854" lon="-3.57216">
        <ele>134.3</ele>
        <time>2025-02-25T12:18:34Z</time>
      </trkpt>
      <trkpt lat="48.09854" lon="-3.57216">
        <ele>134.3</ele>
        <time>2025-02-25T12:18:35Z</time>
      </trkpt>
      <trkpt lat="48.09854" lon="-3.57216">
        <ele>134.3</ele>
        <time>2025-02-25T12:18:36Z</time>
      </trkpt>
      <trkpt lat="48.09854" lon="-3.57216">
        <ele>134.3</ele>
        <time>2025-02-25T12:18:37Z</time>
      </trkpt>
      <trkpt lat="48.09854" lon="-3.57216">
        <ele>134.3</ele>
        <time>2025-02-25T12:18:38Z</time>
      </trkpt>
      <trkpt lat="48.09854" lon="-3.57216">
        <ele>134.3</ele>
        <time>2025-02-25T12:18:39Z</time>
      </trkpt>
      <trkpt lat="48.09854" lon="-3.57216">
        <ele>134.3</ele>
        <time>2025-02-25T12:18:40Z</time>
      </trkpt>
      <trkpt lat="48.09854" lon="-3.57216">
        <ele>134.3</ele>
        <time>2025-02-25T12:18:41Z</time>
      </trkpt>
      <trkpt lat="48.09854" lon="-3.57215">
        <ele>134.3</ele>
        <time>2025-02-25T12:18:42Z</time>
      </trkpt>
      <trkpt lat="48.09854" lon="-3.57215">
        <ele>134.3</ele>
        <time>2025-02-25T12:18:43Z</time>
      </trkpt>
      <trkpt lat="48.09852" lon="-3.57213">
        <ele>134.6</ele>
        <time>2025-02-25T12:18:44Z</time>
      </trkpt>
      <trkpt lat="48.09852" lon="-3.57212">
        <ele>134.7</ele>
        <time>2025-02-25T12:18:45Z</time>
      </trkpt>
      <trkpt lat="48.09852" lon="-3.57211">
        <ele>134.7</ele>
        <time>2025-02-25T12:18:46Z</time>
      </trkpt>
      <trkpt lat="48.09852" lon="-3.5721">
        <ele>134.8</ele>
        <time>2025-02-25T12:18:47Z</time>
      </trkpt>
      <trkpt lat="48.09852" lon="-3.5721">
        <ele>134.8</ele>
        <time>2025-02-25T12:18:48Z</time>
      </trkpt>
      <trkpt lat="48.09853" lon="-3.5721">
        <ele>134.7</ele>
        <time>2025-02-25T12:18:49Z</time>
      </trkpt>
      <trkpt lat="48.09853" lon="-3.57211">
        <ele>134.6</ele>
        <time>2025-02-25T12:18:50Z</time>
      </trkpt>
      <trkpt lat="48.09853" lon="-3.57212">
        <ele>134.6</ele>
        <time>2025-02-25T12:18:51Z</time>
      </trkpt>
      <trkpt lat="48.09853" lon="-3.57212">
        <ele>134.6</ele>
        <time>2025-02-25T12:18:52Z</time>
      </trkpt>
      <trkpt lat="48.09853" lon="-3.57212">
        <ele>134.6</ele>
        <time>2025-02-25T12:18:53Z</time>
      </trkpt>
      <trkpt lat="48.09853" lon="-3.57212">
        <ele>134.6</ele>
        <time>2025-02-25T12:18:54Z</time>
      </trkpt>
      <trkpt lat="48.09853" lon="-3.57212">
        <ele>134.6</ele>
        <time>2025-02-25T12:18:55Z</time>
      </trkpt>
      <trkpt lat="48.09853" lon="-3.57212">
        <ele>134.6</ele>
        <time>2025-02-25T12:18:56Z</time>
      </trkpt>
      <trkpt lat="48.09853" lon="-3.57212">
        <ele>134.6</ele>
        <time>2025-02-25T12:18:57Z</time>
      </trkpt>
      <trkpt lat="48.09853" lon="-3.57212">
        <ele>134.6</ele>
        <time>2025-02-25T12:18:58Z</time>
      </trkpt>
      <trkpt lat="48.09853" lon="-3.57212">
        <ele>134.6</ele>
        <time>2025-02-25T12:18:59Z</time>
      </trkpt>
      <trkpt lat="48.09853" lon="-3.57212">
        <ele>134.6</ele>
        <time>2025-02-25T12:19:00Z</time>
      </trkpt>
      <trkpt lat="48.09853" lon="-3.57213">
        <ele>134.5</ele>
        <time>2025-02-25T12:19:01Z</time>
      </trkpt>
      <trkpt lat="48.09852" lon="-3.57214">
        <ele>134.6</ele>
        <time>2025-02-25T12:19:02Z</time>
      </trkpt>
      <trkpt lat="48.09851" lon="-3.57212">
        <ele>134.8</ele>
        <time>2025-02-25T12:19:03Z</time>
      </trkpt>
      <trkpt lat="48.09851" lon="-3.57211">
        <ele>134.8</ele>
        <time>2025-02-25T12:19:04Z</time>
      </trkpt>
      <trkpt lat="48.09851" lon="-3.5721">
        <ele>134.9</ele>
        <time>2025-02-25T12:19:05Z</time>
      </trkpt>
      <trkpt lat="48.09851" lon="-3.57209">
        <ele>134.9</ele>
        <time>2025-02-25T12:19:06Z</time>
      </trkpt>
      <trkpt lat="48.09851" lon="-3.57208">
        <ele>134.9</ele>
        <time>2025-02-25T12:19:07Z</time>
      </trkpt>
      <trkpt lat="48.0985" lon="-3.57208">
        <ele>135</ele>
        <time>2025-02-25T12:19:08Z</time>
      </trkpt>
      <trkpt lat="48.0985" lon="-3.57207">
        <ele>135</ele>
        <time>2025-02-25T12:19:09Z</time>
      </trkpt>
      <trkpt lat="48.09849" lon="-3.57207">
        <ele>135.1</ele>
        <time>2025-02-25T12:19:10Z</time>
      </trkpt>
      <trkpt lat="48.09849" lon="-3.57207">
        <ele>135.1</ele>
        <time>2025-02-25T12:19:11Z</time>
      </trkpt>
      <trkpt lat="48.09848" lon="-3.57207">
        <ele>135.2</ele>
        <time>2025-02-25T12:19:12Z</time>
      </trkpt>
      <trkpt lat="48.09848" lon="-3.57206">
        <ele>135.2</ele>
        <time>2025-02-25T12:19:13Z</time>
      </trkpt>
      <trkpt lat="48.09847" lon="-3.57205">
        <ele>135.3</ele>
        <time>2025-02-25T12:19:14Z</time>
      </trkpt>
      <trkpt lat="48.09847" lon="-3.57204">
        <ele>135.3</ele>
        <time>2025-02-25T12:19:15Z</time>
      </trkpt>
      <trkpt lat="48.09846" lon="-3.57205">
        <ele>135.4</ele>
        <time>2025-02-25T12:19:16Z</time>
      </trkpt>
      <trkpt lat="48.09845" lon="-3.57203">
        <ele>135.5</ele>
        <time>2025-02-25T12:19:17Z</time>
      </trkpt>
      <trkpt lat="48.09844" lon="-3.57203">
        <ele>135.6</ele>
        <time>2025-02-25T12:19:18Z</time>
      </trkpt>
      <trkpt lat="48.09844" lon="-3.57203">
        <ele>135.6</ele>
        <time>2025-02-25T12:19:19Z</time>
      </trkpt>
      <trkpt lat="48.09842" lon="-3.57202">
        <ele>135.7</ele>
        <time>2025-02-25T12:19:20Z</time>
      </trkpt>
      <trkpt lat="48.09842" lon="-3.57202">
        <ele>135.7</ele>
        <time>2025-02-25T12:19:21Z</time>
      </trkpt>
      <trkpt lat="48.0984" lon="-3.57202">
        <ele>135.8</ele>
        <time>2025-02-25T12:19:22Z</time>
      </trkpt>
      <trkpt lat="48.0984" lon="-3.57201">
        <ele>135.8</ele>
        <time>2025-02-25T12:19:23Z</time>
      </trkpt>
      <trkpt lat="48.09839" lon="-3.57202">
        <ele>135.9</ele>
        <time>2025-02-25T12:19:24Z</time>
      </trkpt>
      <trkpt lat="48.09838" lon="-3.572">
        <ele>135.9</ele>
        <time>2025-02-25T12:19:25Z</time>
      </trkpt>
      <trkpt lat="48.09838" lon="-3.572">
        <ele>135.9</ele>
        <time>2025-02-25T12:19:26Z</time>
      </trkpt>
      <trkpt lat="48.09837" lon="-3.572">
        <ele>136</ele>
        <time>2025-02-25T12:19:27Z</time>
      </trkpt>
      <trkpt lat="48.09836" lon="-3.572">
        <ele>136</ele>
        <time>2025-02-25T12:19:28Z</time>
      </trkpt>
      <trkpt lat="48.09835" lon="-3.572">
        <ele>136.1</ele>
        <time>2025-02-25T12:19:29Z</time>
      </trkpt>
      <trkpt lat="48.09834" lon="-3.57199">
        <ele>136.1</ele>
        <time>2025-02-25T12:19:30Z</time>
      </trkpt>
      <trkpt lat="48.09833" lon="-3.57199">
        <ele>136.3</ele>
        <time>2025-02-25T12:19:31Z</time>
      </trkpt>
      <trkpt lat="48.09831" lon="-3.57199">
        <ele>136.9</ele>
        <time>2025-02-25T12:19:32Z</time>
      </trkpt>
      <trkpt lat="48.09831" lon="-3.57197">
        <ele>136.8</ele>
        <time>2025-02-25T12:19:33Z</time>
      </trkpt>
      <trkpt lat="48.0983" lon="-3.57197">
        <ele>137.1</ele>
        <time>2025-02-25T12:19:34Z</time>
      </trkpt>
      <trkpt lat="48.09828" lon="-3.57197">
        <ele>137.8</ele>
        <time>2025-02-25T12:19:35Z</time>
      </trkpt>
      <trkpt lat="48.09827" lon="-3.57196">
        <ele>138.1</ele>
        <time>2025-02-25T12:19:36Z</time>
      </trkpt>
      <trkpt lat="48.09827" lon="-3.57195">
        <ele>138.1</ele>
        <time>2025-02-25T12:19:37Z</time>
      </trkpt>
      <trkpt lat="48.09826" lon="-3.57194">
        <ele>138.4</ele>
        <time>2025-02-25T12:19:38Z</time>
      </trkpt>
      <trkpt lat="48.09825" lon="-3.57193">
        <ele>138.7</ele>
        <time>2025-02-25T12:19:39Z</time>
      </trkpt>
      <trkpt lat="48.09824" lon="-3.57192">
        <ele>139.1</ele>
        <time>2025-02-25T12:19:40Z</time>
      </trkpt>
      <trkpt lat="48.09823" lon="-3.57192">
        <ele>139.4</ele>
        <time>2025-02-25T12:19:41Z</time>
      </trkpt>
      <trkpt lat="48.09823" lon="-3.57191">
        <ele>139.4</ele>
        <time>2025-02-25T12:19:42Z</time>
      </trkpt>
      <trkpt lat="48.09822" lon="-3.57191">
        <ele>139.7</ele>
        <time>2025-02-25T12:19:43Z</time>
      </trkpt>
      <trkpt lat="48.0982" lon="-3.57191">
        <ele>140.4</ele>
        <time>2025-02-25T12:19:44Z</time>
      </trkpt>
      <trkpt lat="48.0982" lon="-3.5719">
        <ele>140.4</ele>
        <time>2025-02-25T12:19:45Z</time>
      </trkpt>
      <trkpt lat="48.09819" lon="-3.5719">
        <ele>140.7</ele>
        <time>2025-02-25T12:19:46Z</time>
      </trkpt>
      <trkpt lat="48.09818" lon="-3.57189">
        <ele>141.1</ele>
        <time>2025-02-25T12:19:47Z</time>
      </trkpt>
      <trkpt lat="48.09817" lon="-3.57189">
        <ele>141.4</ele>
        <time>2025-02-25T12:19:48Z</time>
      </trkpt>
      <trkpt lat="48.09817" lon="-3.57188">
        <ele>141.4</ele>
        <time>2025-02-25T12:19:49Z</time>
      </trkpt>
      <trkpt lat="48.09817" lon="-3.57187">
        <ele>141.4</ele>
        <time>2025-02-25T12:19:50Z</time>
      </trkpt>
      <trkpt lat="48.09816" lon="-3.57186">
        <ele>141.7</ele>
        <time>2025-02-25T12:19:51Z</time>
      </trkpt>
      <trkpt lat="48.09815" lon="-3.57186">
        <ele>142</ele>
        <time>2025-02-25T12:19:52Z</time>
      </trkpt>
      <trkpt lat="48.09813" lon="-3.57186">
        <ele>142.7</ele>
        <time>2025-02-25T12:19:53Z</time>
      </trkpt>
      <trkpt lat="48.09812" lon="-3.57186">
        <ele>143</ele>
        <time>2025-02-25T12:19:54Z</time>
      </trkpt>
      <trkpt lat="48.09812" lon="-3.57185">
        <ele>143</ele>
        <time>2025-02-25T12:19:55Z</time>
      </trkpt>
      <trkpt lat="48.09811" lon="-3.57185">
        <ele>143.3</ele>
        <time>2025-02-25T12:19:56Z</time>
      </trkpt>
      <trkpt lat="48.0981" lon="-3.57184">
        <ele>143.6</ele>
        <time>2025-02-25T12:19:57Z</time>
      </trkpt>
      <trkpt lat="48.09809" lon="-3.57184">
        <ele>143.9</ele>
        <time>2025-02-25T12:19:58Z</time>
      </trkpt>
      <trkpt lat="48.09808" lon="-3.57184">
        <ele>144.2</ele>
        <time>2025-02-25T12:19:59Z</time>
      </trkpt>
      <trkpt lat="48.09808" lon="-3.57183">
        <ele>144.2</ele>
        <time>2025-02-25T12:20:00Z</time>
      </trkpt>
      <trkpt lat="48.09807" lon="-3.57183">
        <ele>144.6</ele>
        <time>2025-02-25T12:20:01Z</time>
      </trkpt>
      <trkpt lat="48.09807" lon="-3.57182">
        <ele>144.6</ele>
        <time>2025-02-25T12:20:02Z</time>
      </trkpt>
      <trkpt lat="48.09806" lon="-3.57182">
        <ele>144.9</ele>
        <time>2025-02-25T12:20:03Z</time>
      </trkpt>
      <trkpt lat="48.09805" lon="-3.57181">
        <ele>145.1</ele>
        <time>2025-02-25T12:20:04Z</time>
      </trkpt>
      <trkpt lat="48.09805" lon="-3.57181">
        <ele>145.1</ele>
        <time>2025-02-25T12:20:05Z</time>
      </trkpt>
      <trkpt lat="48.09804" lon="-3.5718">
        <ele>145.4</ele>
        <time>2025-02-25T12:20:06Z</time>
      </trkpt>
      <trkpt lat="48.09804" lon="-3.5718">
        <ele>145.4</ele>
        <time>2025-02-25T12:20:07Z</time>
      </trkpt>
      <trkpt lat="48.09803" lon="-3.57179">
        <ele>145.7</ele>
        <time>2025-02-25T12:20:08Z</time>
      </trkpt>
      <trkpt lat="48.09803" lon="-3.57178">
        <ele>145.7</ele>
        <time>2025-02-25T12:20:09Z</time>
      </trkpt>
      <trkpt lat="48.09803" lon="-3.57178">
        <ele>145.7</ele>
        <time>2025-02-25T12:20:10Z</time>
      </trkpt>
      <trkpt lat="48.09802" lon="-3.57177">
        <ele>146</ele>
        <time>2025-02-25T12:20:11Z</time>
      </trkpt>
      <trkpt lat="48.09801" lon="-3.57176">
        <ele>146.3</ele>
        <time>2025-02-25T12:20:12Z</time>
      </trkpt>
      <trkpt lat="48.09801" lon="-3.57175">
        <ele>146.3</ele>
        <time>2025-02-25T12:20:13Z</time>
      </trkpt>
      <trkpt lat="48.09801" lon="-3.57174">
        <ele>146.3</ele>
        <time>2025-02-25T12:20:14Z</time>
      </trkpt>
      <trkpt lat="48.09801" lon="-3.57173">
        <ele>146.3</ele>
        <time>2025-02-25T12:20:15Z</time>
      </trkpt>
      <trkpt lat="48.098" lon="-3.57172">
        <ele>146.6</ele>
        <time>2025-02-25T12:20:16Z</time>
      </trkpt>
      <trkpt lat="48.09799" lon="-3.57172">
        <ele>146.8</ele>
        <time>2025-02-25T12:20:17Z</time>
      </trkpt>
      <trkpt lat="48.09798" lon="-3.57171">
        <ele>147.1</ele>
        <time>2025-02-25T12:20:18Z</time>
      </trkpt>
      <trkpt lat="48.09798" lon="-3.57169">
        <ele>147.2</ele>
        <time>2025-02-25T12:20:19Z</time>
      </trkpt>
      <trkpt lat="48.09798" lon="-3.57168">
        <ele>147.2</ele>
        <time>2025-02-25T12:20:20Z</time>
      </trkpt>
      <trkpt lat="48.09798" lon="-3.57168">
        <ele>147.2</ele>
        <time>2025-02-25T12:20:21Z</time>
      </trkpt>
      <trkpt lat="48.09798" lon="-3.57167">
        <ele>147.2</ele>
        <time>2025-02-25T12:20:22Z</time>
      </trkpt>
      <trkpt lat="48.09797" lon="-3.57166">
        <ele>147.4</ele>
        <time>2025-02-25T12:20:23Z</time>
      </trkpt>
      <trkpt lat="48.09796" lon="-3.57165">
        <ele>147.7</ele>
        <time>2025-02-25T12:20:24Z</time>
      </trkpt>
      <trkpt lat="48.09796" lon="-3.57164">
        <ele>147.7</ele>
        <time>2025-02-25T12:20:25Z</time>
      </trkpt>
      <trkpt lat="48.09795" lon="-3.57163">
        <ele>148</ele>
        <time>2025-02-25T12:20:26Z</time>
      </trkpt>
      <trkpt lat="48.09794" lon="-3.57163">
        <ele>148.3</ele>
        <time>2025-02-25T12:20:27Z</time>
      </trkpt>
      <trkpt lat="48.09793" lon="-3.57161">
        <ele>148.5</ele>
        <time>2025-02-25T12:20:28Z</time>
      </trkpt>
      <trkpt lat="48.09793" lon="-3.5716">
        <ele>148.5</ele>
        <time>2025-02-25T12:20:29Z</time>
      </trkpt>
      <trkpt lat="48.09793" lon="-3.57159">
        <ele>148.5</ele>
        <time>2025-02-25T12:20:30Z</time>
      </trkpt>
      <trkpt lat="48.09792" lon="-3.57158">
        <ele>148.7</ele>
        <time>2025-02-25T12:20:31Z</time>
      </trkpt>
      <trkpt lat="48.09791" lon="-3.57157">
        <ele>149</ele>
        <time>2025-02-25T12:20:32Z</time>
      </trkpt>
      <trkpt lat="48.09791" lon="-3.57155">
        <ele>149</ele>
        <time>2025-02-25T12:20:33Z</time>
      </trkpt>
      <trkpt lat="48.09791" lon="-3.57154">
        <ele>149</ele>
        <time>2025-02-25T12:20:34Z</time>
      </trkpt>
      <trkpt lat="48.0979" lon="-3.57153">
        <ele>149.3</ele>
        <time>2025-02-25T12:20:35Z</time>
      </trkpt>
      <trkpt lat="48.09789" lon="-3.57153">
        <ele>149.6</ele>
        <time>2025-02-25T12:20:36Z</time>
      </trkpt>
      <trkpt lat="48.09789" lon="-3.57152">
        <ele>149.6</ele>
        <time>2025-02-25T12:20:37Z</time>
      </trkpt>
      <trkpt lat="48.09788" lon="-3.57152">
        <ele>149.9</ele>
        <time>2025-02-25T12:20:38Z</time>
      </trkpt>
      <trkpt lat="48.09787" lon="-3.57151">
        <ele>150.2</ele>
        <time>2025-02-25T12:20:39Z</time>
      </trkpt>
      <trkpt lat="48.09786" lon="-3.5715">
        <ele>150.5</ele>
        <time>2025-02-25T12:20:40Z</time>
      </trkpt>
      <trkpt lat="48.09786" lon="-3.5715">
        <ele>150.5</ele>
        <time>2025-02-25T12:20:41Z</time>
      </trkpt>
      <trkpt lat="48.09785" lon="-3.57149">
        <ele>150.8</ele>
        <time>2025-02-25T12:20:42Z</time>
      </trkpt>
      <trkpt lat="48.09784" lon="-3.57148">
        <ele>151.1</ele>
        <time>2025-02-25T12:20:43Z</time>
      </trkpt>
      <trkpt lat="48.09784" lon="-3.57147">
        <ele>151</ele>
        <time>2025-02-25T12:20:44Z</time>
      </trkpt>
      <trkpt lat="48.09783" lon="-3.57146">
        <ele>151.4</ele>
        <time>2025-02-25T12:20:45Z</time>
      </trkpt>
      <trkpt lat="48.09783" lon="-3.57146">
        <ele>151.4</ele>
        <time>2025-02-25T12:20:46Z</time>
      </trkpt>
      <trkpt lat="48.09782" lon="-3.57145">
        <ele>151.7</ele>
        <time>2025-02-25T12:20:47Z</time>
      </trkpt>
      <trkpt lat="48.09781" lon="-3.57144">
        <ele>152</ele>
        <time>2025-02-25T12:20:48Z</time>
      </trkpt>
      <trkpt lat="48.0978" lon="-3.57144">
        <ele>152.3</ele>
        <time>2025-02-25T12:20:49Z</time>
      </trkpt>
      <trkpt lat="48.0978" lon="-3.57142">
        <ele>152.3</ele>
        <time>2025-02-25T12:20:50Z</time>
      </trkpt>
      <trkpt lat="48.09779" lon="-3.57142">
        <ele>152.6</ele>
        <time>2025-02-25T12:20:51Z</time>
      </trkpt>
      <trkpt lat="48.09778" lon="-3.57141">
        <ele>152.9</ele>
        <time>2025-02-25T12:20:52Z</time>
      </trkpt>
      <trkpt lat="48.09777" lon="-3.57141">
        <ele>153.1</ele>
        <time>2025-02-25T12:20:53Z</time>
      </trkpt>
      <trkpt lat="48.09776" lon="-3.57141">
        <ele>153.3</ele>
        <time>2025-02-25T12:20:54Z</time>
      </trkpt>
      <trkpt lat="48.09776" lon="-3.5714">
        <ele>153.3</ele>
        <time>2025-02-25T12:20:55Z</time>
      </trkpt>
      <trkpt lat="48.09775" lon="-3.5714">
        <ele>153.5</ele>
        <time>2025-02-25T12:20:56Z</time>
      </trkpt>
      <trkpt lat="48.09774" lon="-3.57139">
        <ele>153.7</ele>
        <time>2025-02-25T12:20:57Z</time>
      </trkpt>
      <trkpt lat="48.09773" lon="-3.57139">
        <ele>153.9</ele>
        <time>2025-02-25T12:20:58Z</time>
      </trkpt>
      <trkpt lat="48.09772" lon="-3.57139">
        <ele>154</ele>
        <time>2025-02-25T12:20:59Z</time>
      </trkpt>
      <trkpt lat="48.09771" lon="-3.57138">
        <ele>154.2</ele>
        <time>2025-02-25T12:21:00Z</time>
      </trkpt>
      <trkpt lat="48.0977" lon="-3.57137">
        <ele>154.4</ele>
        <time>2025-02-25T12:21:01Z</time>
      </trkpt>
      <trkpt lat="48.0977" lon="-3.57137">
        <ele>154.4</ele>
        <time>2025-02-25T12:21:02Z</time>
      </trkpt>
      <trkpt lat="48.0977" lon="-3.57136">
        <ele>154.4</ele>
        <time>2025-02-25T12:21:03Z</time>
      </trkpt>
      <trkpt lat="48.09769" lon="-3.57136">
        <ele>154.6</ele>
        <time>2025-02-25T12:21:04Z</time>
      </trkpt>
      <trkpt lat="48.09768" lon="-3.57136">
        <ele>154.8</ele>
        <time>2025-02-25T12:21:05Z</time>
      </trkpt>
      <trkpt lat="48.09768" lon="-3.57136">
        <ele>154.8</ele>
        <time>2025-02-25T12:21:06Z</time>
      </trkpt>
      <trkpt lat="48.09766" lon="-3.57136">
        <ele>155.2</ele>
        <time>2025-02-25T12:21:07Z</time>
      </trkpt>
      <trkpt lat="48.09765" lon="-3.57135">
        <ele>155.4</ele>
        <time>2025-02-25T12:21:08Z</time>
      </trkpt>
      <trkpt lat="48.09765" lon="-3.57134">
        <ele>155.4</ele>
        <time>2025-02-25T12:21:09Z</time>
      </trkpt>
      <trkpt lat="48.09764" lon="-3.57133">
        <ele>155.6</ele>
        <time>2025-02-25T12:21:10Z</time>
      </trkpt>
      <trkpt lat="48.09763" lon="-3.57132">
        <ele>155.8</ele>
        <time>2025-02-25T12:21:11Z</time>
      </trkpt>
      <trkpt lat="48.09763" lon="-3.57132">
        <ele>155.8</ele>
        <time>2025-02-25T12:21:12Z</time>
      </trkpt>
      <trkpt lat="48.09762" lon="-3.5713">
        <ele>156</ele>
        <time>2025-02-25T12:21:13Z</time>
      </trkpt>
      <trkpt lat="48.09762" lon="-3.57129">
        <ele>156</ele>
        <time>2025-02-25T12:21:14Z</time>
      </trkpt>
      <trkpt lat="48.09762" lon="-3.57128">
        <ele>156.1</ele>
        <time>2025-02-25T12:21:15Z</time>
      </trkpt>
      <trkpt lat="48.09762" lon="-3.57127">
        <ele>156.1</ele>
        <time>2025-02-25T12:21:16Z</time>
      </trkpt>
      <trkpt lat="48.09761" lon="-3.57126">
        <ele>156.3</ele>
        <time>2025-02-25T12:21:17Z</time>
      </trkpt>
      <trkpt lat="48.09761" lon="-3.57126">
        <ele>156.3</ele>
        <time>2025-02-25T12:21:18Z</time>
      </trkpt>
      <trkpt lat="48.09761" lon="-3.57125">
        <ele>156.3</ele>
        <time>2025-02-25T12:21:19Z</time>
      </trkpt>
      <trkpt lat="48.09761" lon="-3.57125">
        <ele>156.3</ele>
        <time>2025-02-25T12:21:20Z</time>
      </trkpt>
      <trkpt lat="48.09761" lon="-3.57125">
        <ele>156.3</ele>
        <time>2025-02-25T12:21:21Z</time>
      </trkpt>
      <trkpt lat="48.09761" lon="-3.57125">
        <ele>156.3</ele>
        <time>2025-02-25T12:21:22Z</time>
      </trkpt>
      <trkpt lat="48.09761" lon="-3.57124">
        <ele>156.3</ele>
        <time>2025-02-25T12:21:23Z</time>
      </trkpt>
      <trkpt lat="48.09761" lon="-3.57123">
        <ele>156.4</ele>
        <time>2025-02-25T12:21:24Z</time>
      </trkpt>
      <trkpt lat="48.09761" lon="-3.57123">
        <ele>156.4</ele>
        <time>2025-02-25T12:21:25Z</time>
      </trkpt>
      <trkpt lat="48.0976" lon="-3.57122">
        <ele>156.6</ele>
        <time>2025-02-25T12:21:26Z</time>
      </trkpt>
      <trkpt lat="48.0976" lon="-3.57121">
        <ele>156.6</ele>
        <time>2025-02-25T12:21:27Z</time>
      </trkpt>
      <trkpt lat="48.09759" lon="-3.5712">
        <ele>156.8</ele>
        <time>2025-02-25T12:21:28Z</time>
      </trkpt>
      <trkpt lat="48.0976" lon="-3.57118">
        <ele>156.7</ele>
        <time>2025-02-25T12:21:29Z</time>
      </trkpt>
      <trkpt lat="48.0976" lon="-3.57117">
        <ele>156.7</ele>
        <time>2025-02-25T12:21:30Z</time>
      </trkpt>
      <trkpt lat="48.09761" lon="-3.57116">
        <ele>156.5</ele>
        <time>2025-02-25T12:21:31Z</time>
      </trkpt>
      <trkpt lat="48.09761" lon="-3.57115">
        <ele>156.5</ele>
        <time>2025-02-25T12:21:32Z</time>
      </trkpt>
      <trkpt lat="48.09762" lon="-3.57114">
        <ele>156.3</ele>
        <time>2025-02-25T12:21:33Z</time>
      </trkpt>
      <trkpt lat="48.09763" lon="-3.57113">
        <ele>156.2</ele>
        <time>2025-02-25T12:21:34Z</time>
      </trkpt>
      <trkpt lat="48.09763" lon="-3.57112">
        <ele>156.2</ele>
        <time>2025-02-25T12:21:35Z</time>
      </trkpt>
      <trkpt lat="48.09764" lon="-3.57111">
        <ele>156</ele>
        <time>2025-02-25T12:21:36Z</time>
      </trkpt>
      <trkpt lat="48.09765" lon="-3.5711">
        <ele>155.8</ele>
        <time>2025-02-25T12:21:37Z</time>
      </trkpt>
      <trkpt lat="48.09765" lon="-3.57108">
        <ele>155.8</ele>
        <time>2025-02-25T12:21:38Z</time>
      </trkpt>
      <trkpt lat="48.09765" lon="-3.57107">
        <ele>155.8</ele>
        <time>2025-02-25T12:21:39Z</time>
      </trkpt>
      <trkpt lat="48.09766" lon="-3.57107">
        <ele>155.6</ele>
        <time>2025-02-25T12:21:40Z</time>
      </trkpt>
      <trkpt lat="48.09767" lon="-3.57106">
        <ele>155.4</ele>
        <time>2025-02-25T12:21:41Z</time>
      </trkpt>
      <trkpt lat="48.09767" lon="-3.57105">
        <ele>155.4</ele>
        <time>2025-02-25T12:21:42Z</time>
      </trkpt>
      <trkpt lat="48.09767" lon="-3.57103">
        <ele>155.4</ele>
        <time>2025-02-25T12:21:43Z</time>
      </trkpt>
      <trkpt lat="48.09768" lon="-3.57102">
        <ele>155.2</ele>
        <time>2025-02-25T12:21:44Z</time>
      </trkpt>
      <trkpt lat="48.09768" lon="-3.571">
        <ele>155.3</ele>
        <time>2025-02-25T12:21:45Z</time>
      </trkpt>
      <trkpt lat="48.09768" lon="-3.57099">
        <ele>155.3</ele>
        <time>2025-02-25T12:21:46Z</time>
      </trkpt>
      <trkpt lat="48.09769" lon="-3.57098">
        <ele>155</ele>
        <time>2025-02-25T12:21:47Z</time>
      </trkpt>
      <trkpt lat="48.0977" lon="-3.57096">
        <ele>154.8</ele>
        <time>2025-02-25T12:21:48Z</time>
      </trkpt>
      <trkpt lat="48.0977" lon="-3.57095">
        <ele>154.8</ele>
        <time>2025-02-25T12:21:49Z</time>
      </trkpt>
      <trkpt lat="48.09771" lon="-3.57094">
        <ele>154.6</ele>
        <time>2025-02-25T12:21:50Z</time>
      </trkpt>
      <trkpt lat="48.09772" lon="-3.57092">
        <ele>154.4</ele>
        <time>2025-02-25T12:21:51Z</time>
      </trkpt>
      <trkpt lat="48.09772" lon="-3.57091">
        <ele>154.4</ele>
        <time>2025-02-25T12:21:52Z</time>
      </trkpt>
      <trkpt lat="48.09773" lon="-3.57089">
        <ele>154.2</ele>
        <time>2025-02-25T12:21:53Z</time>
      </trkpt>
      <trkpt lat="48.09773" lon="-3.57088">
        <ele>154.2</ele>
        <time>2025-02-25T12:21:54Z</time>
      </trkpt>
      <trkpt lat="48.09774" lon="-3.57087">
        <ele>153.9</ele>
        <time>2025-02-25T12:21:55Z</time>
      </trkpt>
      <trkpt lat="48.09774" lon="-3.57086">
        <ele>153.9</ele>
        <time>2025-02-25T12:21:56Z</time>
      </trkpt>
      <trkpt lat="48.09775" lon="-3.57084">
        <ele>153.7</ele>
        <time>2025-02-25T12:21:57Z</time>
      </trkpt>
      <trkpt lat="48.09774" lon="-3.57083">
        <ele>154</ele>
        <time>2025-02-25T12:21:58Z</time>
      </trkpt>
      <trkpt lat="48.09775" lon="-3.57081">
        <ele>153.8</ele>
        <time>2025-02-25T12:21:59Z</time>
      </trkpt>
      <trkpt lat="48.09776" lon="-3.5708">
        <ele>153.6</ele>
        <time>2025-02-25T12:22:00Z</time>
      </trkpt>
      <trkpt lat="48.09776" lon="-3.57079">
        <ele>153.6</ele>
        <time>2025-02-25T12:22:01Z</time>
      </trkpt>
      <trkpt lat="48.09777" lon="-3.57078">
        <ele>153.4</ele>
        <time>2025-02-25T12:22:02Z</time>
      </trkpt>
      <trkpt lat="48.09777" lon="-3.57076">
        <ele>153.5</ele>
        <time>2025-02-25T12:22:03Z</time>
      </trkpt>
      <trkpt lat="48.09778" lon="-3.57075">
        <ele>153.2</ele>
        <time>2025-02-25T12:22:04Z</time>
      </trkpt>
      <trkpt lat="48.09778" lon="-3.57073">
        <ele>153.3</ele>
        <time>2025-02-25T12:22:05Z</time>
      </trkpt>
      <trkpt lat="48.09778" lon="-3.57072">
        <ele>153.3</ele>
        <time>2025-02-25T12:22:06Z</time>
      </trkpt>
      <trkpt lat="48.09779" lon="-3.5707">
        <ele>153.1</ele>
        <time>2025-02-25T12:22:07Z</time>
      </trkpt>
      <trkpt lat="48.09779" lon="-3.57069">
        <ele>153.2</ele>
        <time>2025-02-25T12:22:08Z</time>
      </trkpt>
      <trkpt lat="48.09779" lon="-3.57067">
        <ele>153.2</ele>
        <time>2025-02-25T12:22:09Z</time>
      </trkpt>
      <trkpt lat="48.09779" lon="-3.57066">
        <ele>153.3</ele>
        <time>2025-02-25T12:22:10Z</time>
      </trkpt>
      <trkpt lat="48.0978" lon="-3.57064">
        <ele>153.1</ele>
        <time>2025-02-25T12:22:11Z</time>
      </trkpt>
      <trkpt lat="48.0978" lon="-3.57063">
        <ele>153.1</ele>
        <time>2025-02-25T12:22:12Z</time>
      </trkpt>
      <trkpt lat="48.0978" lon="-3.57062">
        <ele>153.1</ele>
        <time>2025-02-25T12:22:13Z</time>
      </trkpt>
      <trkpt lat="48.09781" lon="-3.57061">
        <ele>152.9</ele>
        <time>2025-02-25T12:22:14Z</time>
      </trkpt>
      <trkpt lat="48.09781" lon="-3.5706">
        <ele>152.9</ele>
        <time>2025-02-25T12:22:15Z</time>
      </trkpt>
      <trkpt lat="48.09782" lon="-3.57058">
        <ele>152.7</ele>
        <time>2025-02-25T12:22:16Z</time>
      </trkpt>
      <trkpt lat="48.09782" lon="-3.57057">
        <ele>152.7</ele>
        <time>2025-02-25T12:22:17Z</time>
      </trkpt>
      <trkpt lat="48.09783" lon="-3.57055">
        <ele>152.5</ele>
        <time>2025-02-25T12:22:18Z</time>
      </trkpt>
      <trkpt lat="48.09784" lon="-3.57054">
        <ele>152.2</ele>
        <time>2025-02-25T12:22:19Z</time>
      </trkpt>
      <trkpt lat="48.09784" lon="-3.57052">
        <ele>152.2</ele>
        <time>2025-02-25T12:22:20Z</time>
      </trkpt>
      <trkpt lat="48.09785" lon="-3.5705">
        <ele>152</ele>
        <time>2025-02-25T12:22:21Z</time>
      </trkpt>
      <trkpt lat="48.09785" lon="-3.57049">
        <ele>152</ele>
        <time>2025-02-25T12:22:22Z</time>
      </trkpt>
      <trkpt lat="48.09786" lon="-3.57047">
        <ele>151.7</ele>
        <time>2025-02-25T12:22:23Z</time>
      </trkpt>
      <trkpt lat="48.09787" lon="-3.57046">
        <ele>151.5</ele>
        <time>2025-02-25T12:22:24Z</time>
      </trkpt>
      <trkpt lat="48.09787" lon="-3.57044">
        <ele>151.5</ele>
        <time>2025-02-25T12:22:25Z</time>
      </trkpt>
      <trkpt lat="48.09788" lon="-3.57043">
        <ele>151.2</ele>
        <time>2025-02-25T12:22:26Z</time>
      </trkpt>
      <trkpt lat="48.09789" lon="-3.57041">
        <ele>151</ele>
        <time>2025-02-25T12:22:27Z</time>
      </trkpt>
      <trkpt lat="48.09789" lon="-3.5704">
        <ele>151</ele>
        <time>2025-02-25T12:22:28Z</time>
      </trkpt>
      <trkpt lat="48.0979" lon="-3.57038">
        <ele>150.8</ele>
        <time>2025-02-25T12:22:29Z</time>
      </trkpt>
      <trkpt lat="48.0979" lon="-3.57036">
        <ele>150.8</ele>
        <time>2025-02-25T12:22:30Z</time>
      </trkpt>
      <trkpt lat="48.09791" lon="-3.57034">
        <ele>150.6</ele>
        <time>2025-02-25T12:22:31Z</time>
      </trkpt>
      <trkpt lat="48.09791" lon="-3.57033">
        <ele>150.6</ele>
        <time>2025-02-25T12:22:32Z</time>
      </trkpt>
      <trkpt lat="48.09792" lon="-3.57031">
        <ele>150.4</ele>
        <time>2025-02-25T12:22:33Z</time>
      </trkpt>
      <trkpt lat="48.09792" lon="-3.57029">
        <ele>150.4</ele>
        <time>2025-02-25T12:22:34Z</time>
      </trkpt>
      <trkpt lat="48.09792" lon="-3.57028">
        <ele>150.4</ele>
        <time>2025-02-25T12:22:35Z</time>
      </trkpt>
      <trkpt lat="48.09793" lon="-3.57026">
        <ele>150.3</ele>
        <time>2025-02-25T12:22:36Z</time>
      </trkpt>
      <trkpt lat="48.09793" lon="-3.57025">
        <ele>150.4</ele>
        <time>2025-02-25T12:22:37Z</time>
      </trkpt>
      <trkpt lat="48.09794" lon="-3.57024">
        <ele>150.2</ele>
        <time>2025-02-25T12:22:38Z</time>
      </trkpt>
      <trkpt lat="48.09794" lon="-3.57023">
        <ele>150.3</ele>
        <time>2025-02-25T12:22:39Z</time>
      </trkpt>
      <trkpt lat="48.09795" lon="-3.57021">
        <ele>150.1</ele>
        <time>2025-02-25T12:22:40Z</time>
      </trkpt>
      <trkpt lat="48.09796" lon="-3.5702">
        <ele>150</ele>
        <time>2025-02-25T12:22:41Z</time>
      </trkpt>
      <trkpt lat="48.09796" lon="-3.57019">
        <ele>150</ele>
        <time>2025-02-25T12:22:42Z</time>
      </trkpt>
      <trkpt lat="48.09797" lon="-3.57018">
        <ele>149.9</ele>
        <time>2025-02-25T12:22:43Z</time>
      </trkpt>
      <trkpt lat="48.09797" lon="-3.57017">
        <ele>149.9</ele>
        <time>2025-02-25T12:22:44Z</time>
      </trkpt>
      <trkpt lat="48.09798" lon="-3.57016">
        <ele>149.8</ele>
        <time>2025-02-25T12:22:45Z</time>
      </trkpt>
      <trkpt lat="48.09799" lon="-3.57014">
        <ele>149.6</ele>
        <time>2025-02-25T12:22:46Z</time>
      </trkpt>
      <trkpt lat="48.09799" lon="-3.57012">
        <ele>149.8</ele>
        <time>2025-02-25T12:22:47Z</time>
      </trkpt>
      <trkpt lat="48.098" lon="-3.57011">
        <ele>149.6</ele>
        <time>2025-02-25T12:22:48Z</time>
      </trkpt>
      <trkpt lat="48.09801" lon="-3.5701">
        <ele>149.4</ele>
        <time>2025-02-25T12:22:49Z</time>
      </trkpt>
      <trkpt lat="48.09801" lon="-3.57009">
        <ele>149.5</ele>
        <time>2025-02-25T12:22:50Z</time>
      </trkpt>
      <trkpt lat="48.09802" lon="-3.57008">
        <ele>149.3</ele>
        <time>2025-02-25T12:22:51Z</time>
      </trkpt>
      <trkpt lat="48.09802" lon="-3.57006">
        <ele>149.5</ele>
        <time>2025-02-25T12:22:52Z</time>
      </trkpt>
      <trkpt lat="48.09803" lon="-3.57004">
        <ele>149.4</ele>
        <time>2025-02-25T12:22:53Z</time>
      </trkpt>
      <trkpt lat="48.09803" lon="-3.57003">
        <ele>149.4</ele>
        <time>2025-02-25T12:22:54Z</time>
      </trkpt>
      <trkpt lat="48.09803" lon="-3.57001">
        <ele>149.6</ele>
        <time>2025-02-25T12:22:55Z</time>
      </trkpt>
      <trkpt lat="48.09806" lon="-3.56999">
        <ele>149.1</ele>
        <time>2025-02-25T12:22:56Z</time>
      </trkpt>
      <trkpt lat="48.09807" lon="-3.56999">
        <ele>149</ele>
        <time>2025-02-25T12:22:57Z</time>
      </trkpt>
      <trkpt lat="48.0981" lon="-3.57">
        <ele>148.5</ele>
        <time>2025-02-25T12:22:58Z</time>
      </trkpt>
      <trkpt lat="48.0981" lon="-3.57">
        <ele>148.5</ele>
        <time>2025-02-25T12:22:59Z</time>
      </trkpt>
      <trkpt lat="48.0981" lon="-3.56998">
        <ele>148.7</ele>
        <time>2025-02-25T12:23:00Z</time>
      </trkpt>
      <trkpt lat="48.09809" lon="-3.56996">
        <ele>149</ele>
        <time>2025-02-25T12:23:01Z</time>
      </trkpt>
      <trkpt lat="48.09809" lon="-3.56993">
        <ele>149.4</ele>
        <time>2025-02-25T12:23:02Z</time>
      </trkpt>
      <trkpt lat="48.09809" lon="-3.5699">
        <ele>149.7</ele>
        <time>2025-02-25T12:23:03Z</time>
      </trkpt>
      <trkpt lat="48.0981" lon="-3.56987">
        <ele>149.8</ele>
        <time>2025-02-25T12:23:04Z</time>
      </trkpt>
      <trkpt lat="48.09811" lon="-3.56986">
        <ele>149.8</ele>
        <time>2025-02-25T12:23:05Z</time>
      </trkpt>
      <trkpt lat="48.09811" lon="-3.56984">
        <ele>150</ele>
        <time>2025-02-25T12:23:06Z</time>
      </trkpt>
      <trkpt lat="48.09812" lon="-3.56983">
        <ele>150</ele>
        <time>2025-02-25T12:23:07Z</time>
      </trkpt>
      <trkpt lat="48.09813" lon="-3.56982">
        <ele>150</ele>
        <time>2025-02-25T12:23:08Z</time>
      </trkpt>
      <trkpt lat="48.09813" lon="-3.56981">
        <ele>150.1</ele>
        <time>2025-02-25T12:23:09Z</time>
      </trkpt>
      <trkpt lat="48.09813" lon="-3.5698">
        <ele>150.2</ele>
        <time>2025-02-25T12:23:10Z</time>
      </trkpt>
      <trkpt lat="48.09813" lon="-3.56979">
        <ele>150.3</ele>
        <time>2025-02-25T12:23:11Z</time>
      </trkpt>
      <trkpt lat="48.09813" lon="-3.56978">
        <ele>150.4</ele>
        <time>2025-02-25T12:23:12Z</time>
      </trkpt>
      <trkpt lat="48.09814" lon="-3.56976">
        <ele>150.4</ele>
        <time>2025-02-25T12:23:13Z</time>
      </trkpt>
      <trkpt lat="48.09814" lon="-3.56975">
        <ele>150.5</ele>
        <time>2025-02-25T12:23:14Z</time>
      </trkpt>
      <trkpt lat="48.09814" lon="-3.56973">
        <ele>150.7</ele>
        <time>2025-02-25T12:23:15Z</time>
      </trkpt>
      <trkpt lat="48.09815" lon="-3.56971">
        <ele>150.8</ele>
        <time>2025-02-25T12:23:16Z</time>
      </trkpt>
      <trkpt lat="48.09815" lon="-3.56969">
        <ele>150.9</ele>
        <time>2025-02-25T12:23:17Z</time>
      </trkpt>
      <trkpt lat="48.09815" lon="-3.56968">
        <ele>151</ele>
        <time>2025-02-25T12:23:18Z</time>
      </trkpt>
      <trkpt lat="48.09815" lon="-3.56966">
        <ele>151.2</ele>
        <time>2025-02-25T12:23:19Z</time>
      </trkpt>
      <trkpt lat="48.09815" lon="-3.56964">
        <ele>151.4</ele>
        <time>2025-02-25T12:23:20Z</time>
      </trkpt>
      <trkpt lat="48.09815" lon="-3.56962">
        <ele>151.6</ele>
        <time>2025-02-25T12:23:21Z</time>
      </trkpt>
      <trkpt lat="48.09815" lon="-3.5696">
        <ele>151.8</ele>
        <time>2025-02-25T12:23:22Z</time>
      </trkpt>
      <trkpt lat="48.09816" lon="-3.56959">
        <ele>151.7</ele>
        <time>2025-02-25T12:23:23Z</time>
      </trkpt>
      <trkpt lat="48.09816" lon="-3.56957">
        <ele>151.9</ele>
        <time>2025-02-25T12:23:24Z</time>
      </trkpt>
      <trkpt lat="48.09816" lon="-3.56956">
        <ele>152</ele>
        <time>2025-02-25T12:23:25Z</time>
      </trkpt>
      <trkpt lat="48.09817" lon="-3.56954">
        <ele>152</ele>
        <time>2025-02-25T12:23:26Z</time>
      </trkpt>
      <trkpt lat="48.09817" lon="-3.56952">
        <ele>152.2</ele>
        <time>2025-02-25T12:23:27Z</time>
      </trkpt>
      <trkpt lat="48.09817" lon="-3.56951">
        <ele>152.3</ele>
        <time>2025-02-25T12:23:28Z</time>
      </trkpt>
      <trkpt lat="48.09817" lon="-3.5695">
        <ele>152.4</ele>
        <time>2025-02-25T12:23:29Z</time>
      </trkpt>
      <trkpt lat="48.09817" lon="-3.56948">
        <ele>152.6</ele>
        <time>2025-02-25T12:23:30Z</time>
      </trkpt>
      <trkpt lat="48.09818" lon="-3.56946">
        <ele>152.6</ele>
        <time>2025-02-25T12:23:31Z</time>
      </trkpt>
      <trkpt lat="48.09819" lon="-3.56945">
        <ele>152.5</ele>
        <time>2025-02-25T12:23:32Z</time>
      </trkpt>
      <trkpt lat="48.0982" lon="-3.56944">
        <ele>152.5</ele>
        <time>2025-02-25T12:23:33Z</time>
      </trkpt>
      <trkpt lat="48.09821" lon="-3.56943">
        <ele>152.4</ele>
        <time>2025-02-25T12:23:34Z</time>
      </trkpt>
      <trkpt lat="48.09821" lon="-3.56941">
        <ele>152.6</ele>
        <time>2025-02-25T12:23:35Z</time>
      </trkpt>
      <trkpt lat="48.09822" lon="-3.5694">
        <ele>152.6</ele>
        <time>2025-02-25T12:23:36Z</time>
      </trkpt>
      <trkpt lat="48.09822" lon="-3.56939">
        <ele>152.7</ele>
        <time>2025-02-25T12:23:37Z</time>
      </trkpt>
      <trkpt lat="48.09823" lon="-3.56937">
        <ele>152.8</ele>
        <time>2025-02-25T12:23:38Z</time>
      </trkpt>
      <trkpt lat="48.09823" lon="-3.56935">
        <ele>153</ele>
        <time>2025-02-25T12:23:39Z</time>
      </trkpt>
      <trkpt lat="48.09823" lon="-3.56934">
        <ele>153.1</ele>
        <time>2025-02-25T12:23:40Z</time>
      </trkpt>
      <trkpt lat="48.09824" lon="-3.56932">
        <ele>153.2</ele>
        <time>2025-02-25T12:23:41Z</time>
      </trkpt>
      <trkpt lat="48.09824" lon="-3.56931">
        <ele>153.3</ele>
        <time>2025-02-25T12:23:42Z</time>
      </trkpt>
      <trkpt lat="48.09825" lon="-3.5693">
        <ele>153.2</ele>
        <time>2025-02-25T12:23:43Z</time>
      </trkpt>
      <trkpt lat="48.09825" lon="-3.56929">
        <ele>153.3</ele>
        <time>2025-02-25T12:23:44Z</time>
      </trkpt>
      <trkpt lat="48.09826" lon="-3.56929">
        <ele>153.1</ele>
        <time>2025-02-25T12:23:45Z</time>
      </trkpt>
      <trkpt lat="48.09827" lon="-3.56928">
        <ele>153.1</ele>
        <time>2025-02-25T12:23:46Z</time>
      </trkpt>
      <trkpt lat="48.09827" lon="-3.56927">
        <ele>153.2</ele>
        <time>2025-02-25T12:23:47Z</time>
      </trkpt>
      <trkpt lat="48.09827" lon="-3.56926">
        <ele>153.3</ele>
        <time>2025-02-25T12:23:48Z</time>
      </trkpt>
      <trkpt lat="48.09828" lon="-3.56924">
        <ele>153.3</ele>
        <time>2025-02-25T12:23:49Z</time>
      </trkpt>
      <trkpt lat="48.09828" lon="-3.56923">
        <ele>153.4</ele>
        <time>2025-02-25T12:23:50Z</time>
      </trkpt>
      <trkpt lat="48.09828" lon="-3.56922">
        <ele>153.5</ele>
        <time>2025-02-25T12:23:51Z</time>
      </trkpt>
      <trkpt lat="48.09828" lon="-3.56921">
        <ele>153.7</ele>
        <time>2025-02-25T12:23:52Z</time>
      </trkpt>
      <trkpt lat="48.09829" lon="-3.5692">
        <ele>153.6</ele>
        <time>2025-02-25T12:23:53Z</time>
      </trkpt>
      <trkpt lat="48.0983" lon="-3.56919">
        <ele>153.5</ele>
        <time>2025-02-25T12:23:54Z</time>
      </trkpt>
      <trkpt lat="48.0983" lon="-3.56918">
        <ele>153.6</ele>
        <time>2025-02-25T12:23:55Z</time>
      </trkpt>
      <trkpt lat="48.09831" lon="-3.56916">
        <ele>153.6</ele>
        <time>2025-02-25T12:23:56Z</time>
      </trkpt>
      <trkpt lat="48.09831" lon="-3.56914">
        <ele>153.7</ele>
        <time>2025-02-25T12:23:57Z</time>
      </trkpt>
      <trkpt lat="48.09831" lon="-3.56912">
        <ele>153.9</ele>
        <time>2025-02-25T12:23:58Z</time>
      </trkpt>
      <trkpt lat="48.09831" lon="-3.5691">
        <ele>154</ele>
        <time>2025-02-25T12:23:59Z</time>
      </trkpt>
      <trkpt lat="48.09832" lon="-3.56909">
        <ele>153.9</ele>
        <time>2025-02-25T12:24:00Z</time>
      </trkpt>
      <trkpt lat="48.09833" lon="-3.56908">
        <ele>153.7</ele>
        <time>2025-02-25T12:24:01Z</time>
      </trkpt>
      <trkpt lat="48.09833" lon="-3.56907">
        <ele>153.8</ele>
        <time>2025-02-25T12:24:02Z</time>
      </trkpt>
      <trkpt lat="48.09834" lon="-3.56906">
        <ele>153.7</ele>
        <time>2025-02-25T12:24:03Z</time>
      </trkpt>
      <trkpt lat="48.09834" lon="-3.56905">
        <ele>153.8</ele>
        <time>2025-02-25T12:24:04Z</time>
      </trkpt>
      <trkpt lat="48.09834" lon="-3.56904">
        <ele>153.8</ele>
        <time>2025-02-25T12:24:05Z</time>
      </trkpt>
      <trkpt lat="48.09834" lon="-3.56902">
        <ele>154</ele>
        <time>2025-02-25T12:24:06Z</time>
      </trkpt>
      <trkpt lat="48.09834" lon="-3.56901">
        <ele>154.1</ele>
        <time>2025-02-25T12:24:07Z</time>
      </trkpt>
      <trkpt lat="48.09834" lon="-3.569">
        <ele>154.1</ele>
        <time>2025-02-25T12:24:08Z</time>
      </trkpt>
      <trkpt lat="48.09834" lon="-3.56898">
        <ele>154.3</ele>
        <time>2025-02-25T12:24:09Z</time>
      </trkpt>
      <trkpt lat="48.09835" lon="-3.56897">
        <ele>154.2</ele>
        <time>2025-02-25T12:24:10Z</time>
      </trkpt>
      <trkpt lat="48.09835" lon="-3.56895">
        <ele>154.4</ele>
        <time>2025-02-25T12:24:11Z</time>
      </trkpt>
      <trkpt lat="48.09835" lon="-3.56894">
        <ele>154.5</ele>
        <time>2025-02-25T12:24:12Z</time>
      </trkpt>
      <trkpt lat="48.09835" lon="-3.56892">
        <ele>154.6</ele>
        <time>2025-02-25T12:24:13Z</time>
      </trkpt>
      <trkpt lat="48.09835" lon="-3.5689">
        <ele>154.7</ele>
        <time>2025-02-25T12:24:14Z</time>
      </trkpt>
      <trkpt lat="48.09835" lon="-3.56888">
        <ele>154.9</ele>
        <time>2025-02-25T12:24:15Z</time>
      </trkpt>
      <trkpt lat="48.09835" lon="-3.56887">
        <ele>155</ele>
        <time>2025-02-25T12:24:16Z</time>
      </trkpt>
      <trkpt lat="48.09835" lon="-3.56885">
        <ele>155.1</ele>
        <time>2025-02-25T12:24:17Z</time>
      </trkpt>
      <trkpt lat="48.09835" lon="-3.56883">
        <ele>155.2</ele>
        <time>2025-02-25T12:24:18Z</time>
      </trkpt>
      <trkpt lat="48.09835" lon="-3.56882">
        <ele>155.3</ele>
        <time>2025-02-25T12:24:19Z</time>
      </trkpt>
      <trkpt lat="48.09834" lon="-3.56879">
        <ele>155.6</ele>
        <time>2025-02-25T12:24:20Z</time>
      </trkpt>
      <trkpt lat="48.09834" lon="-3.56878">
        <ele>155.7</ele>
        <time>2025-02-25T12:24:21Z</time>
      </trkpt>
      <trkpt lat="48.09834" lon="-3.56876">
        <ele>155.9</ele>
        <time>2025-02-25T12:24:22Z</time>
      </trkpt>
      <trkpt lat="48.09833" lon="-3.56873">
        <ele>156.2</ele>
        <time>2025-02-25T12:24:23Z</time>
      </trkpt>
      <trkpt lat="48.09833" lon="-3.56871">
        <ele>156.4</ele>
        <time>2025-02-25T12:24:24Z</time>
      </trkpt>
      <trkpt lat="48.09833" lon="-3.56869">
        <ele>156.5</ele>
        <time>2025-02-25T12:24:25Z</time>
      </trkpt>
      <trkpt lat="48.09832" lon="-3.56867">
        <ele>156.9</ele>
        <time>2025-02-25T12:24:26Z</time>
      </trkpt>
      <trkpt lat="48.09832" lon="-3.56865">
        <ele>157</ele>
        <time>2025-02-25T12:24:27Z</time>
      </trkpt>
      <trkpt lat="48.09832" lon="-3.56863">
        <ele>157.2</ele>
        <time>2025-02-25T12:24:28Z</time>
      </trkpt>
      <trkpt lat="48.09832" lon="-3.56862">
        <ele>157.2</ele>
        <time>2025-02-25T12:24:29Z</time>
      </trkpt>
      <trkpt lat="48.09832" lon="-3.5686">
        <ele>157.3</ele>
        <time>2025-02-25T12:24:30Z</time>
      </trkpt>
      <trkpt lat="48.09832" lon="-3.56859">
        <ele>157.4</ele>
        <time>2025-02-25T12:24:31Z</time>
      </trkpt>
      <trkpt lat="48.09832" lon="-3.56858">
        <ele>157.4</ele>
        <time>2025-02-25T12:24:32Z</time>
      </trkpt>
      <trkpt lat="48.09833" lon="-3.56856">
        <ele>157.3</ele>
        <time>2025-02-25T12:24:33Z</time>
      </trkpt>
      <trkpt lat="48.09832" lon="-3.56855">
        <ele>157.5</ele>
        <time>2025-02-25T12:24:34Z</time>
      </trkpt>
      <trkpt lat="48.09833" lon="-3.56853">
        <ele>157.4</ele>
        <time>2025-02-25T12:24:35Z</time>
      </trkpt>
      <trkpt lat="48.09833" lon="-3.56852">
        <ele>157.4</ele>
        <time>2025-02-25T12:24:36Z</time>
      </trkpt>
      <trkpt lat="48.09833" lon="-3.56851">
        <ele>157.4</ele>
        <time>2025-02-25T12:24:37Z</time>
      </trkpt>
      <trkpt lat="48.09833" lon="-3.5685">
        <ele>157.5</ele>
        <time>2025-02-25T12:24:38Z</time>
      </trkpt>
      <trkpt lat="48.09834" lon="-3.56848">
        <ele>157.4</ele>
        <time>2025-02-25T12:24:39Z</time>
      </trkpt>
      <trkpt lat="48.09834" lon="-3.56846">
        <ele>157.5</ele>
        <time>2025-02-25T12:24:40Z</time>
      </trkpt>
      <trkpt lat="48.09834" lon="-3.56844">
        <ele>157.6</ele>
        <time>2025-02-25T12:24:41Z</time>
      </trkpt>
      <trkpt lat="48.09834" lon="-3.56842">
        <ele>157.6</ele>
        <time>2025-02-25T12:24:42Z</time>
      </trkpt>
      <trkpt lat="48.09834" lon="-3.5684">
        <ele>157.7</ele>
        <time>2025-02-25T12:24:43Z</time>
      </trkpt>
      <trkpt lat="48.09834" lon="-3.56838">
        <ele>157.8</ele>
        <time>2025-02-25T12:24:44Z</time>
      </trkpt>
      <trkpt lat="48.09834" lon="-3.56837">
        <ele>157.8</ele>
        <time>2025-02-25T12:24:45Z</time>
      </trkpt>
      <trkpt lat="48.09835" lon="-3.56834">
        <ele>157.9</ele>
        <time>2025-02-25T12:24:46Z</time>
      </trkpt>
      <trkpt lat="48.09835" lon="-3.56834">
        <ele>157.9</ele>
        <time>2025-02-25T12:24:47Z</time>
      </trkpt>
      <trkpt lat="48.09835" lon="-3.56833">
        <ele>158</ele>
        <time>2025-02-25T12:24:48Z</time>
      </trkpt>
      <trkpt lat="48.09836" lon="-3.56831">
        <ele>158.1</ele>
        <time>2025-02-25T12:24:49Z</time>
      </trkpt>
      <trkpt lat="48.09835" lon="-3.5683">
        <ele>158.3</ele>
        <time>2025-02-25T12:24:50Z</time>
      </trkpt>
      <trkpt lat="48.09835" lon="-3.56828">
        <ele>158.5</ele>
        <time>2025-02-25T12:24:51Z</time>
      </trkpt>
      <trkpt lat="48.09836" lon="-3.56827">
        <ele>158.6</ele>
        <time>2025-02-25T12:24:52Z</time>
      </trkpt>
      <trkpt lat="48.09835" lon="-3.56826">
        <ele>158.7</ele>
        <time>2025-02-25T12:24:53Z</time>
      </trkpt>
      <trkpt lat="48.09835" lon="-3.56824">
        <ele>158.9</ele>
        <time>2025-02-25T12:24:54Z</time>
      </trkpt>
      <trkpt lat="48.09835" lon="-3.56822">
        <ele>159.1</ele>
        <time>2025-02-25T12:24:55Z</time>
      </trkpt>
      <trkpt lat="48.09836" lon="-3.56821">
        <ele>159.2</ele>
        <time>2025-02-25T12:24:56Z</time>
      </trkpt>
      <trkpt lat="48.09835" lon="-3.5682">
        <ele>159.4</ele>
        <time>2025-02-25T12:24:57Z</time>
      </trkpt>
      <trkpt lat="48.09836" lon="-3.56819">
        <ele>159.4</ele>
        <time>2025-02-25T12:24:58Z</time>
      </trkpt>
      <trkpt lat="48.09835" lon="-3.56817">
        <ele>159.7</ele>
        <time>2025-02-25T12:24:59Z</time>
      </trkpt>
      <trkpt lat="48.09836" lon="-3.56816">
        <ele>159.7</ele>
        <time>2025-02-25T12:25:00Z</time>
      </trkpt>
      <trkpt lat="48.09836" lon="-3.56814">
        <ele>159.9</ele>
        <time>2025-02-25T12:25:01Z</time>
      </trkpt>
      <trkpt lat="48.09836" lon="-3.56813">
        <ele>160</ele>
        <time>2025-02-25T12:25:02Z</time>
      </trkpt>
      <trkpt lat="48.09836" lon="-3.56811">
        <ele>160.2</ele>
        <time>2025-02-25T12:25:03Z</time>
      </trkpt>
      <trkpt lat="48.09836" lon="-3.56809">
        <ele>160.4</ele>
        <time>2025-02-25T12:25:04Z</time>
      </trkpt>
      <trkpt lat="48.09837" lon="-3.56808">
        <ele>160.5</ele>
        <time>2025-02-25T12:25:05Z</time>
      </trkpt>
      <trkpt lat="48.09837" lon="-3.56806">
        <ele>160.7</ele>
        <time>2025-02-25T12:25:06Z</time>
      </trkpt>
      <trkpt lat="48.09837" lon="-3.56805">
        <ele>160.8</ele>
        <time>2025-02-25T12:25:07Z</time>
      </trkpt>
      <trkpt lat="48.09837" lon="-3.56803">
        <ele>161</ele>
        <time>2025-02-25T12:25:08Z</time>
      </trkpt>
      <trkpt lat="48.09837" lon="-3.56802">
        <ele>161.1</ele>
        <time>2025-02-25T12:25:09Z</time>
      </trkpt>
      <trkpt lat="48.09837" lon="-3.56801">
        <ele>161.2</ele>
        <time>2025-02-25T12:25:10Z</time>
      </trkpt>
      <trkpt lat="48.09838" lon="-3.568">
        <ele>161.2</ele>
        <time>2025-02-25T12:25:11Z</time>
      </trkpt>
      <trkpt lat="48.09839" lon="-3.56798">
        <ele>161.4</ele>
        <time>2025-02-25T12:25:12Z</time>
      </trkpt>
      <trkpt lat="48.09839" lon="-3.56798">
        <ele>161.4</ele>
        <time>2025-02-25T12:25:13Z</time>
      </trkpt>
      <trkpt lat="48.09839" lon="-3.56796">
        <ele>161.6</ele>
        <time>2025-02-25T12:25:14Z</time>
      </trkpt>
      <trkpt lat="48.0984" lon="-3.56795">
        <ele>161.6</ele>
        <time>2025-02-25T12:25:15Z</time>
      </trkpt>
      <trkpt lat="48.0984" lon="-3.56793">
        <ele>161.8</ele>
        <time>2025-02-25T12:25:16Z</time>
      </trkpt>
      <trkpt lat="48.0984" lon="-3.56791">
        <ele>162</ele>
        <time>2025-02-25T12:25:17Z</time>
      </trkpt>
      <trkpt lat="48.0984" lon="-3.5679">
        <ele>162.1</ele>
        <time>2025-02-25T12:25:18Z</time>
      </trkpt>
      <trkpt lat="48.0984" lon="-3.5679">
        <ele>162.1</ele>
        <time>2025-02-25T12:25:19Z</time>
      </trkpt>
      <trkpt lat="48.09841" lon="-3.56789">
        <ele>162.1</ele>
        <time>2025-02-25T12:25:20Z</time>
      </trkpt>
      <trkpt lat="48.09841" lon="-3.56787">
        <ele>162.3</ele>
        <time>2025-02-25T12:25:21Z</time>
      </trkpt>
      <trkpt lat="48.09841" lon="-3.56786">
        <ele>162.4</ele>
        <time>2025-02-25T12:25:22Z</time>
      </trkpt>
      <trkpt lat="48.09841" lon="-3.56785">
        <ele>162.5</ele>
        <time>2025-02-25T12:25:23Z</time>
      </trkpt>
      <trkpt lat="48.09842" lon="-3.56784">
        <ele>162.5</ele>
        <time>2025-02-25T12:25:24Z</time>
      </trkpt>
      <trkpt lat="48.09842" lon="-3.56783">
        <ele>162.6</ele>
        <time>2025-02-25T12:25:25Z</time>
      </trkpt>
      <trkpt lat="48.09842" lon="-3.56781">
        <ele>162.8</ele>
        <time>2025-02-25T12:25:26Z</time>
      </trkpt>
      <trkpt lat="48.09843" lon="-3.5678">
        <ele>162.7</ele>
        <time>2025-02-25T12:25:27Z</time>
      </trkpt>
      <trkpt lat="48.09843" lon="-3.56779">
        <ele>162.8</ele>
        <time>2025-02-25T12:25:28Z</time>
      </trkpt>
      <trkpt lat="48.09844" lon="-3.56778">
        <ele>162.8</ele>
        <time>2025-02-25T12:25:29Z</time>
      </trkpt>
      <trkpt lat="48.09844" lon="-3.56777">
        <ele>162.9</ele>
        <time>2025-02-25T12:25:30Z</time>
      </trkpt>
      <trkpt lat="48.09844" lon="-3.56776">
        <ele>163</ele>
        <time>2025-02-25T12:25:31Z</time>
      </trkpt>
      <trkpt lat="48.09844" lon="-3.56775">
        <ele>163.1</ele>
        <time>2025-02-25T12:25:32Z</time>
      </trkpt>
      <trkpt lat="48.09845" lon="-3.56774">
        <ele>163</ele>
        <time>2025-02-25T12:25:33Z</time>
      </trkpt>
      <trkpt lat="48.09845" lon="-3.56773">
        <ele>163.1</ele>
        <time>2025-02-25T12:25:34Z</time>
      </trkpt>
      <trkpt lat="48.09846" lon="-3.56771">
        <ele>163.1</ele>
        <time>2025-02-25T12:25:35Z</time>
      </trkpt>
      <trkpt lat="48.09846" lon="-3.5677">
        <ele>163.2</ele>
        <time>2025-02-25T12:25:36Z</time>
      </trkpt>
      <trkpt lat="48.09847" lon="-3.56769">
        <ele>163.2</ele>
        <time>2025-02-25T12:25:37Z</time>
      </trkpt>
      <trkpt lat="48.09847" lon="-3.56767">
        <ele>163.3</ele>
        <time>2025-02-25T12:25:38Z</time>
      </trkpt>
      <trkpt lat="48.09848" lon="-3.56765">
        <ele>163.3</ele>
        <time>2025-02-25T12:25:39Z</time>
      </trkpt>
      <trkpt lat="48.09848" lon="-3.56764">
        <ele>163.4</ele>
        <time>2025-02-25T12:25:40Z</time>
      </trkpt>
      <trkpt lat="48.09847" lon="-3.56762">
        <ele>163.7</ele>
        <time>2025-02-25T12:25:41Z</time>
      </trkpt>
      <trkpt lat="48.09847" lon="-3.5676">
        <ele>163.8</ele>
        <time>2025-02-25T12:25:42Z</time>
      </trkpt>
      <trkpt lat="48.09846" lon="-3.56759">
        <ele>164</ele>
        <time>2025-02-25T12:25:43Z</time>
      </trkpt>
      <trkpt lat="48.09847" lon="-3.56757">
        <ele>164</ele>
        <time>2025-02-25T12:25:44Z</time>
      </trkpt>
      <trkpt lat="48.09847" lon="-3.56755">
        <ele>164.2</ele>
        <time>2025-02-25T12:25:45Z</time>
      </trkpt>
      <trkpt lat="48.09847" lon="-3.56754">
        <ele>164.2</ele>
        <time>2025-02-25T12:25:46Z</time>
      </trkpt>
      <trkpt lat="48.09847" lon="-3.56752">
        <ele>164.4</ele>
        <time>2025-02-25T12:25:47Z</time>
      </trkpt>
      <trkpt lat="48.09848" lon="-3.5675">
        <ele>164.4</ele>
        <time>2025-02-25T12:25:48Z</time>
      </trkpt>
      <trkpt lat="48.09848" lon="-3.56749">
        <ele>164.4</ele>
        <time>2025-02-25T12:25:49Z</time>
      </trkpt>
      <trkpt lat="48.09848" lon="-3.56747">
        <ele>164.6</ele>
        <time>2025-02-25T12:25:50Z</time>
      </trkpt>
      <trkpt lat="48.09849" lon="-3.56746">
        <ele>164.5</ele>
        <time>2025-02-25T12:25:51Z</time>
      </trkpt>
      <trkpt lat="48.09849" lon="-3.56744">
        <ele>164.6</ele>
        <time>2025-02-25T12:25:52Z</time>
      </trkpt>
      <trkpt lat="48.09849" lon="-3.56742">
        <ele>164.8</ele>
        <time>2025-02-25T12:25:53Z</time>
      </trkpt>
      <trkpt lat="48.09849" lon="-3.5674">
        <ele>164.9</ele>
        <time>2025-02-25T12:25:54Z</time>
      </trkpt>
      <trkpt lat="48.09849" lon="-3.56738">
        <ele>165</ele>
        <time>2025-02-25T12:25:55Z</time>
      </trkpt>
      <trkpt lat="48.09849" lon="-3.56736">
        <ele>165.2</ele>
        <time>2025-02-25T12:25:56Z</time>
      </trkpt>
      <trkpt lat="48.09849" lon="-3.56735">
        <ele>165.3</ele>
        <time>2025-02-25T12:25:57Z</time>
      </trkpt>
      <trkpt lat="48.0985" lon="-3.56733">
        <ele>165.2</ele>
        <time>2025-02-25T12:25:58Z</time>
      </trkpt>
      <trkpt lat="48.0985" lon="-3.56732">
        <ele>165.3</ele>
        <time>2025-02-25T12:25:59Z</time>
      </trkpt>
      <trkpt lat="48.0985" lon="-3.5673">
        <ele>165.4</ele>
        <time>2025-02-25T12:26:00Z</time>
      </trkpt>
      <trkpt lat="48.09851" lon="-3.56728">
        <ele>165.4</ele>
        <time>2025-02-25T12:26:01Z</time>
      </trkpt>
      <trkpt lat="48.09851" lon="-3.56726">
        <ele>165.5</ele>
        <time>2025-02-25T12:26:02Z</time>
      </trkpt>
      <trkpt lat="48.09851" lon="-3.56724">
        <ele>165.7</ele>
        <time>2025-02-25T12:26:03Z</time>
      </trkpt>
      <trkpt lat="48.09851" lon="-3.56722">
        <ele>165.8</ele>
        <time>2025-02-25T12:26:04Z</time>
      </trkpt>
      <trkpt lat="48.09852" lon="-3.56721">
        <ele>165.7</ele>
        <time>2025-02-25T12:26:05Z</time>
      </trkpt>
      <trkpt lat="48.09852" lon="-3.56719">
        <ele>165.8</ele>
        <time>2025-02-25T12:26:06Z</time>
      </trkpt>
      <trkpt lat="48.09851" lon="-3.56718">
        <ele>166</ele>
        <time>2025-02-25T12:26:07Z</time>
      </trkpt>
      <trkpt lat="48.09851" lon="-3.56716">
        <ele>166.1</ele>
        <time>2025-02-25T12:26:08Z</time>
      </trkpt>
      <trkpt lat="48.09852" lon="-3.56714">
        <ele>166</ele>
        <time>2025-02-25T12:26:09Z</time>
      </trkpt>
      <trkpt lat="48.09852" lon="-3.56712">
        <ele>166.1</ele>
        <time>2025-02-25T12:26:10Z</time>
      </trkpt>
      <trkpt lat="48.09853" lon="-3.5671">
        <ele>166</ele>
        <time>2025-02-25T12:26:11Z</time>
      </trkpt>
      <trkpt lat="48.09854" lon="-3.56709">
        <ele>165.9</ele>
        <time>2025-02-25T12:26:12Z</time>
      </trkpt>
      <trkpt lat="48.09854" lon="-3.56707">
        <ele>166</ele>
        <time>2025-02-25T12:26:13Z</time>
      </trkpt>
      <trkpt lat="48.09854" lon="-3.56705">
        <ele>166.1</ele>
        <time>2025-02-25T12:26:14Z</time>
      </trkpt>
      <trkpt lat="48.09854" lon="-3.56703">
        <ele>166.1</ele>
        <time>2025-02-25T12:26:15Z</time>
      </trkpt>
      <trkpt lat="48.09854" lon="-3.56701">
        <ele>166.2</ele>
        <time>2025-02-25T12:26:16Z</time>
      </trkpt>
      <trkpt lat="48.09855" lon="-3.56699">
        <ele>166.1</ele>
        <time>2025-02-25T12:26:17Z</time>
      </trkpt>
      <trkpt lat="48.09855" lon="-3.56697">
        <ele>166.2</ele>
        <time>2025-02-25T12:26:18Z</time>
      </trkpt>
      <trkpt lat="48.09856" lon="-3.56695">
        <ele>166.1</ele>
        <time>2025-02-25T12:26:19Z</time>
      </trkpt>
      <trkpt lat="48.09856" lon="-3.56693">
        <ele>166.2</ele>
        <time>2025-02-25T12:26:20Z</time>
      </trkpt>
      <trkpt lat="48.09856" lon="-3.56691">
        <ele>166.3</ele>
        <time>2025-02-25T12:26:21Z</time>
      </trkpt>
      <trkpt lat="48.09857" lon="-3.5669">
        <ele>166.1</ele>
        <time>2025-02-25T12:26:22Z</time>
      </trkpt>
      <trkpt lat="48.09857" lon="-3.56688">
        <ele>166.2</ele>
        <time>2025-02-25T12:26:23Z</time>
      </trkpt>
      <trkpt lat="48.09857" lon="-3.56686">
        <ele>166.2</ele>
        <time>2025-02-25T12:26:24Z</time>
      </trkpt>
      <trkpt lat="48.09857" lon="-3.56684">
        <ele>166.3</ele>
        <time>2025-02-25T12:26:25Z</time>
      </trkpt>
      <trkpt lat="48.09857" lon="-3.56683">
        <ele>166.4</ele>
        <time>2025-02-25T12:26:26Z</time>
      </trkpt>
      <trkpt lat="48.09858" lon="-3.56681">
        <ele>166.2</ele>
        <time>2025-02-25T12:26:27Z</time>
      </trkpt>
      <trkpt lat="48.09858" lon="-3.56679">
        <ele>166.3</ele>
        <time>2025-02-25T12:26:28Z</time>
      </trkpt>
      <trkpt lat="48.09858" lon="-3.56677">
        <ele>166.4</ele>
        <time>2025-02-25T12:26:29Z</time>
      </trkpt>
      <trkpt lat="48.09859" lon="-3.56675">
        <ele>166.2</ele>
        <time>2025-02-25T12:26:30Z</time>
      </trkpt>
      <trkpt lat="48.0986" lon="-3.56674">
        <ele>166</ele>
        <time>2025-02-25T12:26:31Z</time>
      </trkpt>
      <trkpt lat="48.0986" lon="-3.56672">
        <ele>166.1</ele>
        <time>2025-02-25T12:26:32Z</time>
      </trkpt>
      <trkpt lat="48.0986" lon="-3.5667">
        <ele>166.2</ele>
        <time>2025-02-25T12:26:33Z</time>
      </trkpt>
      <trkpt lat="48.0986" lon="-3.56669">
        <ele>166.2</ele>
        <time>2025-02-25T12:26:34Z</time>
      </trkpt>
      <trkpt lat="48.0986" lon="-3.56667">
        <ele>166.3</ele>
        <time>2025-02-25T12:26:35Z</time>
      </trkpt>
      <trkpt lat="48.0986" lon="-3.56666">
        <ele>166.3</ele>
        <time>2025-02-25T12:26:36Z</time>
      </trkpt>
      <trkpt lat="48.09861" lon="-3.56664">
        <ele>166.1</ele>
        <time>2025-02-25T12:26:37Z</time>
      </trkpt>
      <trkpt lat="48.09861" lon="-3.56663">
        <ele>166.2</ele>
        <time>2025-02-25T12:26:38Z</time>
      </trkpt>
      <trkpt lat="48.09861" lon="-3.56661">
        <ele>166.2</ele>
        <time>2025-02-25T12:26:39Z</time>
      </trkpt>
      <trkpt lat="48.09861" lon="-3.56659">
        <ele>166.3</ele>
        <time>2025-02-25T12:26:40Z</time>
      </trkpt>
      <trkpt lat="48.09861" lon="-3.56658">
        <ele>166.3</ele>
        <time>2025-02-25T12:26:41Z</time>
      </trkpt>
      <trkpt lat="48.09861" lon="-3.56656">
        <ele>166.4</ele>
        <time>2025-02-25T12:26:42Z</time>
      </trkpt>
      <trkpt lat="48.0986" lon="-3.56654">
        <ele>166.7</ele>
        <time>2025-02-25T12:26:43Z</time>
      </trkpt>
      <trkpt lat="48.0986" lon="-3.56653">
        <ele>166.8</ele>
        <time>2025-02-25T12:26:44Z</time>
      </trkpt>
      <trkpt lat="48.09859" lon="-3.56652">
        <ele>167</ele>
        <time>2025-02-25T12:26:45Z</time>
      </trkpt>
      <trkpt lat="48.09859" lon="-3.5665">
        <ele>167.1</ele>
        <time>2025-02-25T12:26:46Z</time>
      </trkpt>
      <trkpt lat="48.0986" lon="-3.56648">
        <ele>166.9</ele>
        <time>2025-02-25T12:26:47Z</time>
      </trkpt>
      <trkpt lat="48.0986" lon="-3.56647">
        <ele>167</ele>
        <time>2025-02-25T12:26:48Z</time>
      </trkpt>
      <trkpt lat="48.09859" lon="-3.56645">
        <ele>167.3</ele>
        <time>2025-02-25T12:26:49Z</time>
      </trkpt>
      <trkpt lat="48.0986" lon="-3.56644">
        <ele>167.1</ele>
        <time>2025-02-25T12:26:50Z</time>
      </trkpt>
      <trkpt lat="48.0986" lon="-3.56642">
        <ele>167.1</ele>
        <time>2025-02-25T12:26:51Z</time>
      </trkpt>
      <trkpt lat="48.0986" lon="-3.56641">
        <ele>167.2</ele>
        <time>2025-02-25T12:26:52Z</time>
      </trkpt>
      <trkpt lat="48.09861" lon="-3.56639">
        <ele>167</ele>
        <time>2025-02-25T12:26:53Z</time>
      </trkpt>
      <trkpt lat="48.09861" lon="-3.56637">
        <ele>167.1</ele>
        <time>2025-02-25T12:26:54Z</time>
      </trkpt>
      <trkpt lat="48.09861" lon="-3.56636">
        <ele>167.1</ele>
        <time>2025-02-25T12:26:55Z</time>
      </trkpt>
      <trkpt lat="48.09861" lon="-3.56634">
        <ele>167.2</ele>
        <time>2025-02-25T12:26:56Z</time>
      </trkpt>
      <trkpt lat="48.09861" lon="-3.56632">
        <ele>167.3</ele>
        <time>2025-02-25T12:26:57Z</time>
      </trkpt>
      <trkpt lat="48.09861" lon="-3.5663">
        <ele>167.3</ele>
        <time>2025-02-25T12:26:58Z</time>
      </trkpt>
      <trkpt lat="48.09861" lon="-3.56629">
        <ele>167.4</ele>
        <time>2025-02-25T12:26:59Z</time>
      </trkpt>
      <trkpt lat="48.0986" lon="-3.56627">
        <ele>167.7</ele>
        <time>2025-02-25T12:27:00Z</time>
      </trkpt>
      <trkpt lat="48.09861" lon="-3.56626">
        <ele>167.5</ele>
        <time>2025-02-25T12:27:01Z</time>
      </trkpt>
      <trkpt lat="48.0986" lon="-3.56624">
        <ele>167.8</ele>
        <time>2025-02-25T12:27:02Z</time>
      </trkpt>
      <trkpt lat="48.0986" lon="-3.56622">
        <ele>167.8</ele>
        <time>2025-02-25T12:27:03Z</time>
      </trkpt>
      <trkpt lat="48.09861" lon="-3.56621">
        <ele>167.7</ele>
        <time>2025-02-25T12:27:04Z</time>
      </trkpt>
      <trkpt lat="48.09861" lon="-3.56619">
        <ele>167.7</ele>
        <time>2025-02-25T12:27:05Z</time>
      </trkpt>
      <trkpt lat="48.09861" lon="-3.56618">
        <ele>167.8</ele>
        <time>2025-02-25T12:27:06Z</time>
      </trkpt>
      <trkpt lat="48.09861" lon="-3.56616">
        <ele>167.8</ele>
        <time>2025-02-25T12:27:07Z</time>
      </trkpt>
      <trkpt lat="48.09861" lon="-3.56614">
        <ele>167.9</ele>
        <time>2025-02-25T12:27:08Z</time>
      </trkpt>
      <trkpt lat="48.09861" lon="-3.56612">
        <ele>168</ele>
        <time>2025-02-25T12:27:09Z</time>
      </trkpt>
      <trkpt lat="48.09861" lon="-3.5661">
        <ele>168.1</ele>
        <time>2025-02-25T12:27:10Z</time>
      </trkpt>
      <trkpt lat="48.09861" lon="-3.56609">
        <ele>168.1</ele>
        <time>2025-02-25T12:27:11Z</time>
      </trkpt>
      <trkpt lat="48.09861" lon="-3.56607">
        <ele>168.2</ele>
        <time>2025-02-25T12:27:12Z</time>
      </trkpt>
      <trkpt lat="48.09862" lon="-3.56606">
        <ele>168.2</ele>
        <time>2025-02-25T12:27:13Z</time>
      </trkpt>
      <trkpt lat="48.09862" lon="-3.56604">
        <ele>168.2</ele>
        <time>2025-02-25T12:27:14Z</time>
      </trkpt>
      <trkpt lat="48.09862" lon="-3.56603">
        <ele>168.3</ele>
        <time>2025-02-25T12:27:15Z</time>
      </trkpt>
      <trkpt lat="48.09862" lon="-3.56601">
        <ele>168.3</ele>
        <time>2025-02-25T12:27:16Z</time>
      </trkpt>
      <trkpt lat="48.09862" lon="-3.566">
        <ele>168.4</ele>
        <time>2025-02-25T12:27:17Z</time>
      </trkpt>
      <trkpt lat="48.09862" lon="-3.56598">
        <ele>168.5</ele>
        <time>2025-02-25T12:27:18Z</time>
      </trkpt>
      <trkpt lat="48.09862" lon="-3.56596">
        <ele>168.5</ele>
        <time>2025-02-25T12:27:19Z</time>
      </trkpt>
      <trkpt lat="48.09862" lon="-3.56595">
        <ele>168.6</ele>
        <time>2025-02-25T12:27:20Z</time>
      </trkpt>
      <trkpt lat="48.09862" lon="-3.56593">
        <ele>168.6</ele>
        <time>2025-02-25T12:27:21Z</time>
      </trkpt>
      <trkpt lat="48.09862" lon="-3.56592">
        <ele>168.7</ele>
        <time>2025-02-25T12:27:22Z</time>
      </trkpt>
      <trkpt lat="48.09861" lon="-3.5659">
        <ele>168.8</ele>
        <time>2025-02-25T12:27:23Z</time>
      </trkpt>
      <trkpt lat="48.09861" lon="-3.56589">
        <ele>168.8</ele>
        <time>2025-02-25T12:27:24Z</time>
      </trkpt>
      <trkpt lat="48.09861" lon="-3.56587">
        <ele>168.9</ele>
        <time>2025-02-25T12:27:25Z</time>
      </trkpt>
      <trkpt lat="48.0986" lon="-3.56586">
        <ele>169.1</ele>
        <time>2025-02-25T12:27:26Z</time>
      </trkpt>
      <trkpt lat="48.0986" lon="-3.56585">
        <ele>169.1</ele>
        <time>2025-02-25T12:27:27Z</time>
      </trkpt>
      <trkpt lat="48.0986" lon="-3.56583">
        <ele>169.2</ele>
        <time>2025-02-25T12:27:28Z</time>
      </trkpt>
      <trkpt lat="48.09859" lon="-3.56582">
        <ele>169.5</ele>
        <time>2025-02-25T12:27:29Z</time>
      </trkpt>
      <trkpt lat="48.09859" lon="-3.5658">
        <ele>169.6</ele>
        <time>2025-02-25T12:27:30Z</time>
      </trkpt>
      <trkpt lat="48.09859" lon="-3.56579">
        <ele>169.7</ele>
        <time>2025-02-25T12:27:31Z</time>
      </trkpt>
      <trkpt lat="48.09859" lon="-3.56577">
        <ele>169.8</ele>
        <time>2025-02-25T12:27:32Z</time>
      </trkpt>
      <trkpt lat="48.09859" lon="-3.56576">
        <ele>169.9</ele>
        <time>2025-02-25T12:27:33Z</time>
      </trkpt>
      <trkpt lat="48.0986" lon="-3.56574">
        <ele>169.9</ele>
        <time>2025-02-25T12:27:34Z</time>
      </trkpt>
      <trkpt lat="48.0986" lon="-3.56573">
        <ele>169.9</ele>
        <time>2025-02-25T12:27:35Z</time>
      </trkpt>
      <trkpt lat="48.0986" lon="-3.56572">
        <ele>170</ele>
        <time>2025-02-25T12:27:36Z</time>
      </trkpt>
      <trkpt lat="48.0986" lon="-3.5657">
        <ele>170.1</ele>
        <time>2025-02-25T12:27:37Z</time>
      </trkpt>
      <trkpt lat="48.0986" lon="-3.56569">
        <ele>170.2</ele>
        <time>2025-02-25T12:27:38Z</time>
      </trkpt>
      <trkpt lat="48.0986" lon="-3.56567">
        <ele>170.4</ele>
        <time>2025-02-25T12:27:39Z</time>
      </trkpt>
      <trkpt lat="48.09859" lon="-3.56566">
        <ele>170.6</ele>
        <time>2025-02-25T12:27:40Z</time>
      </trkpt>
      <trkpt lat="48.0986" lon="-3.56564">
        <ele>170.6</ele>
        <time>2025-02-25T12:27:41Z</time>
      </trkpt>
      <trkpt lat="48.0986" lon="-3.56563">
        <ele>170.6</ele>
        <time>2025-02-25T12:27:42Z</time>
      </trkpt>
      <trkpt lat="48.0986" lon="-3.56561">
        <ele>170.8</ele>
        <time>2025-02-25T12:27:43Z</time>
      </trkpt>
      <trkpt lat="48.0986" lon="-3.5656">
        <ele>170.8</ele>
        <time>2025-02-25T12:27:44Z</time>
      </trkpt>
      <trkpt lat="48.09859" lon="-3.56559">
        <ele>171.1</ele>
        <time>2025-02-25T12:27:45Z</time>
      </trkpt>
      <trkpt lat="48.09859" lon="-3.56557">
        <ele>171.2</ele>
        <time>2025-02-25T12:27:46Z</time>
      </trkpt>
      <trkpt lat="48.09859" lon="-3.56556">
        <ele>171.3</ele>
        <time>2025-02-25T12:27:47Z</time>
      </trkpt>
      <trkpt lat="48.09859" lon="-3.56555">
        <ele>171.4</ele>
        <time>2025-02-25T12:27:48Z</time>
      </trkpt>
      <trkpt lat="48.09859" lon="-3.56554">
        <ele>171.5</ele>
        <time>2025-02-25T12:27:49Z</time>
      </trkpt>
      <trkpt lat="48.09859" lon="-3.56552">
        <ele>171.7</ele>
        <time>2025-02-25T12:27:50Z</time>
      </trkpt>
      <trkpt lat="48.09858" lon="-3.56551">
        <ele>171.9</ele>
        <time>2025-02-25T12:27:51Z</time>
      </trkpt>
      <trkpt lat="48.09858" lon="-3.5655">
        <ele>172</ele>
        <time>2025-02-25T12:27:52Z</time>
      </trkpt>
      <trkpt lat="48.09858" lon="-3.56548">
        <ele>172.2</ele>
        <time>2025-02-25T12:27:53Z</time>
      </trkpt>
      <trkpt lat="48.09858" lon="-3.56547">
        <ele>172.3</ele>
        <time>2025-02-25T12:27:54Z</time>
      </trkpt>
      <trkpt lat="48.09859" lon="-3.56545">
        <ele>172.4</ele>
        <time>2025-02-25T12:27:55Z</time>
      </trkpt>
      <trkpt lat="48.09859" lon="-3.56544">
        <ele>172.5</ele>
        <time>2025-02-25T12:27:56Z</time>
      </trkpt>
      <trkpt lat="48.09859" lon="-3.56542">
        <ele>172.7</ele>
        <time>2025-02-25T12:27:57Z</time>
      </trkpt>
      <trkpt lat="48.09859" lon="-3.5654">
        <ele>172.9</ele>
        <time>2025-02-25T12:27:58Z</time>
      </trkpt>
      <trkpt lat="48.09859" lon="-3.56539">
        <ele>173</ele>
        <time>2025-02-25T12:27:59Z</time>
      </trkpt>
      <trkpt lat="48.09859" lon="-3.56538">
        <ele>173.1</ele>
        <time>2025-02-25T12:28:00Z</time>
      </trkpt>
      <trkpt lat="48.09859" lon="-3.56536">
        <ele>173.3</ele>
        <time>2025-02-25T12:28:01Z</time>
      </trkpt>
      <trkpt lat="48.09859" lon="-3.56535">
        <ele>173.4</ele>
        <time>2025-02-25T12:28:02Z</time>
      </trkpt>
      <trkpt lat="48.0986" lon="-3.56533">
        <ele>173.5</ele>
        <time>2025-02-25T12:28:03Z</time>
      </trkpt>
      <trkpt lat="48.0986" lon="-3.56532">
        <ele>173.6</ele>
        <time>2025-02-25T12:28:04Z</time>
      </trkpt>
      <trkpt lat="48.0986" lon="-3.56531">
        <ele>173.7</ele>
        <time>2025-02-25T12:28:05Z</time>
      </trkpt>
      <trkpt lat="48.0986" lon="-3.56529">
        <ele>174</ele>
        <time>2025-02-25T12:28:06Z</time>
      </trkpt>
      <trkpt lat="48.0986" lon="-3.56528">
        <ele>174.1</ele>
        <time>2025-02-25T12:28:07Z</time>
      </trkpt>
      <trkpt lat="48.09859" lon="-3.56526">
        <ele>174.2</ele>
        <time>2025-02-25T12:28:08Z</time>
      </trkpt>
      <trkpt lat="48.09859" lon="-3.56525">
        <ele>174.3</ele>
        <time>2025-02-25T12:28:09Z</time>
      </trkpt>
      <trkpt lat="48.09859" lon="-3.56523">
        <ele>174.3</ele>
        <time>2025-02-25T12:28:10Z</time>
      </trkpt>
      <trkpt lat="48.09859" lon="-3.56522">
        <ele>174.4</ele>
        <time>2025-02-25T12:28:11Z</time>
      </trkpt>
      <trkpt lat="48.09859" lon="-3.56521">
        <ele>174.4</ele>
        <time>2025-02-25T12:28:12Z</time>
      </trkpt>
      <trkpt lat="48.09858" lon="-3.56519">
        <ele>174.5</ele>
        <time>2025-02-25T12:28:13Z</time>
      </trkpt>
      <trkpt lat="48.09858" lon="-3.56518">
        <ele>174.6</ele>
        <time>2025-02-25T12:28:14Z</time>
      </trkpt>
      <trkpt lat="48.09859" lon="-3.56517">
        <ele>174.5</ele>
        <time>2025-02-25T12:28:15Z</time>
      </trkpt>
      <trkpt lat="48.09859" lon="-3.56515">
        <ele>174.6</ele>
        <time>2025-02-25T12:28:16Z</time>
      </trkpt>
      <trkpt lat="48.09859" lon="-3.56514">
        <ele>174.6</ele>
        <time>2025-02-25T12:28:17Z</time>
      </trkpt>
      <trkpt lat="48.09859" lon="-3.56513">
        <ele>174.7</ele>
        <time>2025-02-25T12:28:18Z</time>
      </trkpt>
      <trkpt lat="48.09859" lon="-3.56512">
        <ele>174.7</ele>
        <time>2025-02-25T12:28:19Z</time>
      </trkpt>
      <trkpt lat="48.0986" lon="-3.56511">
        <ele>174.7</ele>
        <time>2025-02-25T12:28:20Z</time>
      </trkpt>
      <trkpt lat="48.0986" lon="-3.56509">
        <ele>174.8</ele>
        <time>2025-02-25T12:28:21Z</time>
      </trkpt>
      <trkpt lat="48.0986" lon="-3.56508">
        <ele>174.8</ele>
        <time>2025-02-25T12:28:22Z</time>
      </trkpt>
      <trkpt lat="48.0986" lon="-3.56507">
        <ele>174.8</ele>
        <time>2025-02-25T12:28:23Z</time>
      </trkpt>
      <trkpt lat="48.0986" lon="-3.56505">
        <ele>174.9</ele>
        <time>2025-02-25T12:28:24Z</time>
      </trkpt>
      <trkpt lat="48.0986" lon="-3.56504">
        <ele>174.9</ele>
        <time>2025-02-25T12:28:25Z</time>
      </trkpt>
      <trkpt lat="48.0986" lon="-3.56502">
        <ele>175</ele>
        <time>2025-02-25T12:28:26Z</time>
      </trkpt>
      <trkpt lat="48.0986" lon="-3.56501">
        <ele>175</ele>
        <time>2025-02-25T12:28:27Z</time>
      </trkpt>
      <trkpt lat="48.0986" lon="-3.56499">
        <ele>175.1</ele>
        <time>2025-02-25T12:28:28Z</time>
      </trkpt>
      <trkpt lat="48.0986" lon="-3.56498">
        <ele>175.1</ele>
        <time>2025-02-25T12:28:29Z</time>
      </trkpt>
      <trkpt lat="48.09861" lon="-3.56497">
        <ele>175.1</ele>
        <time>2025-02-25T12:28:30Z</time>
      </trkpt>
      <trkpt lat="48.09861" lon="-3.56495">
        <ele>175.2</ele>
        <time>2025-02-25T12:28:31Z</time>
      </trkpt>
      <trkpt lat="48.0986" lon="-3.56494">
        <ele>175.3</ele>
        <time>2025-02-25T12:28:32Z</time>
      </trkpt>
      <trkpt lat="48.09861" lon="-3.56493">
        <ele>175.3</ele>
        <time>2025-02-25T12:28:33Z</time>
      </trkpt>
      <trkpt lat="48.09861" lon="-3.56491">
        <ele>175.3</ele>
        <time>2025-02-25T12:28:34Z</time>
      </trkpt>
      <trkpt lat="48.09861" lon="-3.5649">
        <ele>175.4</ele>
        <time>2025-02-25T12:28:35Z</time>
      </trkpt>
      <trkpt lat="48.09862" lon="-3.56489">
        <ele>175.4</ele>
        <time>2025-02-25T12:28:36Z</time>
      </trkpt>
      <trkpt lat="48.09861" lon="-3.56488">
        <ele>175.4</ele>
        <time>2025-02-25T12:28:37Z</time>
      </trkpt>
      <trkpt lat="48.09861" lon="-3.56486">
        <ele>175.5</ele>
        <time>2025-02-25T12:28:38Z</time>
      </trkpt>
      <trkpt lat="48.09861" lon="-3.56485">
        <ele>175.5</ele>
        <time>2025-02-25T12:28:39Z</time>
      </trkpt>
      <trkpt lat="48.09861" lon="-3.56484">
        <ele>175.6</ele>
        <time>2025-02-25T12:28:40Z</time>
      </trkpt>
      <trkpt lat="48.09862" lon="-3.56483">
        <ele>175.6</ele>
        <time>2025-02-25T12:28:41Z</time>
      </trkpt>
      <trkpt lat="48.09862" lon="-3.56482">
        <ele>175.6</ele>
        <time>2025-02-25T12:28:42Z</time>
      </trkpt>
      <trkpt lat="48.09863" lon="-3.56481">
        <ele>175.7</ele>
        <time>2025-02-25T12:28:43Z</time>
      </trkpt>
      <trkpt lat="48.09863" lon="-3.5648">
        <ele>175.7</ele>
        <time>2025-02-25T12:28:44Z</time>
      </trkpt>
      <trkpt lat="48.09863" lon="-3.56478">
        <ele>175.8</ele>
        <time>2025-02-25T12:28:45Z</time>
      </trkpt>
      <trkpt lat="48.09863" lon="-3.56477">
        <ele>175.8</ele>
        <time>2025-02-25T12:28:46Z</time>
      </trkpt>
      <trkpt lat="48.09863" lon="-3.56476">
        <ele>175.9</ele>
        <time>2025-02-25T12:28:47Z</time>
      </trkpt>
      <trkpt lat="48.09863" lon="-3.56475">
        <ele>175.9</ele>
        <time>2025-02-25T12:28:48Z</time>
      </trkpt>
      <trkpt lat="48.09862" lon="-3.56473">
        <ele>176</ele>
        <time>2025-02-25T12:28:49Z</time>
      </trkpt>
      <trkpt lat="48.09862" lon="-3.56472">
        <ele>176</ele>
        <time>2025-02-25T12:28:50Z</time>
      </trkpt>
      <trkpt lat="48.09862" lon="-3.56471">
        <ele>176</ele>
        <time>2025-02-25T12:28:51Z</time>
      </trkpt>
      <trkpt lat="48.09862" lon="-3.5647">
        <ele>176.1</ele>
        <time>2025-02-25T12:28:52Z</time>
      </trkpt>
      <trkpt lat="48.09862" lon="-3.56468">
        <ele>176.2</ele>
        <time>2025-02-25T12:28:53Z</time>
      </trkpt>
      <trkpt lat="48.09862" lon="-3.56467">
        <ele>176.2</ele>
        <time>2025-02-25T12:28:54Z</time>
      </trkpt>
      <trkpt lat="48.09862" lon="-3.56466">
        <ele>176.2</ele>
        <time>2025-02-25T12:28:55Z</time>
      </trkpt>
      <trkpt lat="48.09862" lon="-3.56464">
        <ele>176.3</ele>
        <time>2025-02-25T12:28:56Z</time>
      </trkpt>
      <trkpt lat="48.09862" lon="-3.56463">
        <ele>176.3</ele>
        <time>2025-02-25T12:28:57Z</time>
      </trkpt>
      <trkpt lat="48.09862" lon="-3.56461">
        <ele>176.4</ele>
        <time>2025-02-25T12:28:58Z</time>
      </trkpt>
      <trkpt lat="48.09862" lon="-3.5646">
        <ele>176.4</ele>
        <time>2025-02-25T12:28:59Z</time>
      </trkpt>
      <trkpt lat="48.09862" lon="-3.56459">
        <ele>176.5</ele>
        <time>2025-02-25T12:29:00Z</time>
      </trkpt>
      <trkpt lat="48.09862" lon="-3.56457">
        <ele>176.5</ele>
        <time>2025-02-25T12:29:01Z</time>
      </trkpt>
      <trkpt lat="48.09862" lon="-3.56456">
        <ele>176.6</ele>
        <time>2025-02-25T12:29:02Z</time>
      </trkpt>
      <trkpt lat="48.09862" lon="-3.56455">
        <ele>176.6</ele>
        <time>2025-02-25T12:29:03Z</time>
      </trkpt>
      <trkpt lat="48.09862" lon="-3.56453">
        <ele>176.7</ele>
        <time>2025-02-25T12:29:04Z</time>
      </trkpt>
      <trkpt lat="48.09863" lon="-3.56452">
        <ele>176.7</ele>
        <time>2025-02-25T12:29:05Z</time>
      </trkpt>
      <trkpt lat="48.09863" lon="-3.56451">
        <ele>176.8</ele>
        <time>2025-02-25T12:29:06Z</time>
      </trkpt>
      <trkpt lat="48.09863" lon="-3.56449">
        <ele>176.8</ele>
        <time>2025-02-25T12:29:07Z</time>
      </trkpt>
      <trkpt lat="48.09863" lon="-3.56448">
        <ele>176.9</ele>
        <time>2025-02-25T12:29:08Z</time>
      </trkpt>
      <trkpt lat="48.09863" lon="-3.56447">
        <ele>176.9</ele>
        <time>2025-02-25T12:29:09Z</time>
      </trkpt>
      <trkpt lat="48.09864" lon="-3.56445">
        <ele>177</ele>
        <time>2025-02-25T12:29:10Z</time>
      </trkpt>
      <trkpt lat="48.09863" lon="-3.56444">
        <ele>177</ele>
        <time>2025-02-25T12:29:11Z</time>
      </trkpt>
      <trkpt lat="48.09863" lon="-3.56442">
        <ele>177.1</ele>
        <time>2025-02-25T12:29:12Z</time>
      </trkpt>
      <trkpt lat="48.09864" lon="-3.56441">
        <ele>177.1</ele>
        <time>2025-02-25T12:29:13Z</time>
      </trkpt>
      <trkpt lat="48.09864" lon="-3.56439">
        <ele>177.2</ele>
        <time>2025-02-25T12:29:14Z</time>
      </trkpt>
      <trkpt lat="48.09865" lon="-3.56438">
        <ele>177.2</ele>
        <time>2025-02-25T12:29:15Z</time>
      </trkpt>
      <trkpt lat="48.09865" lon="-3.56436">
        <ele>177.3</ele>
        <time>2025-02-25T12:29:16Z</time>
      </trkpt>
      <trkpt lat="48.09864" lon="-3.56435">
        <ele>177.3</ele>
        <time>2025-02-25T12:29:17Z</time>
      </trkpt>
      <trkpt lat="48.09864" lon="-3.56433">
        <ele>177.4</ele>
        <time>2025-02-25T12:29:18Z</time>
      </trkpt>
      <trkpt lat="48.09864" lon="-3.56431">
        <ele>177.5</ele>
        <time>2025-02-25T12:29:19Z</time>
      </trkpt>
      <trkpt lat="48.09864" lon="-3.5643">
        <ele>177.5</ele>
        <time>2025-02-25T12:29:20Z</time>
      </trkpt>
      <trkpt lat="48.09864" lon="-3.56428">
        <ele>177.6</ele>
        <time>2025-02-25T12:29:21Z</time>
      </trkpt>
      <trkpt lat="48.09864" lon="-3.56426">
        <ele>177.7</ele>
        <time>2025-02-25T12:29:22Z</time>
      </trkpt>
      <trkpt lat="48.09865" lon="-3.56425">
        <ele>177.7</ele>
        <time>2025-02-25T12:29:23Z</time>
      </trkpt>
      <trkpt lat="48.09865" lon="-3.56423">
        <ele>177.8</ele>
        <time>2025-02-25T12:29:24Z</time>
      </trkpt>
      <trkpt lat="48.09865" lon="-3.56421">
        <ele>177.8</ele>
        <time>2025-02-25T12:29:25Z</time>
      </trkpt>
      <trkpt lat="48.09865" lon="-3.5642">
        <ele>177.9</ele>
        <time>2025-02-25T12:29:26Z</time>
      </trkpt>
      <trkpt lat="48.09864" lon="-3.56418">
        <ele>178</ele>
        <time>2025-02-25T12:29:27Z</time>
      </trkpt>
      <trkpt lat="48.09865" lon="-3.56417">
        <ele>178</ele>
        <time>2025-02-25T12:29:28Z</time>
      </trkpt>
      <trkpt lat="48.09865" lon="-3.56415">
        <ele>178</ele>
        <time>2025-02-25T12:29:29Z</time>
      </trkpt>
      <trkpt lat="48.09865" lon="-3.56414">
        <ele>178</ele>
        <time>2025-02-25T12:29:30Z</time>
      </trkpt>
      <trkpt lat="48.09865" lon="-3.56412">
        <ele>178</ele>
        <time>2025-02-25T12:29:31Z</time>
      </trkpt>
      <trkpt lat="48.09865" lon="-3.5641">
        <ele>178</ele>
        <time>2025-02-25T12:29:32Z</time>
      </trkpt>
      <trkpt lat="48.09865" lon="-3.56408">
        <ele>178</ele>
        <time>2025-02-25T12:29:33Z</time>
      </trkpt>
      <trkpt lat="48.09865" lon="-3.56407">
        <ele>178</ele>
        <time>2025-02-25T12:29:34Z</time>
      </trkpt>
      <trkpt lat="48.09866" lon="-3.56405">
        <ele>178</ele>
        <time>2025-02-25T12:29:35Z</time>
      </trkpt>
      <trkpt lat="48.09866" lon="-3.56403">
        <ele>178</ele>
        <time>2025-02-25T12:29:36Z</time>
      </trkpt>
      <trkpt lat="48.09866" lon="-3.56401">
        <ele>178</ele>
        <time>2025-02-25T12:29:37Z</time>
      </trkpt>
      <trkpt lat="48.09866" lon="-3.564">
        <ele>178</ele>
        <time>2025-02-25T12:29:38Z</time>
      </trkpt>
      <trkpt lat="48.09866" lon="-3.56398">
        <ele>178</ele>
        <time>2025-02-25T12:29:39Z</time>
      </trkpt>
      <trkpt lat="48.09866" lon="-3.56396">
        <ele>178</ele>
        <time>2025-02-25T12:29:40Z</time>
      </trkpt>
      <trkpt lat="48.09866" lon="-3.56394">
        <ele>178</ele>
        <time>2025-02-25T12:29:41Z</time>
      </trkpt>
      <trkpt lat="48.09866" lon="-3.56392">
        <ele>178</ele>
        <time>2025-02-25T12:29:42Z</time>
      </trkpt>
      <trkpt lat="48.09866" lon="-3.5639">
        <ele>178</ele>
        <time>2025-02-25T12:29:43Z</time>
      </trkpt>
      <trkpt lat="48.09866" lon="-3.56388">
        <ele>178</ele>
        <time>2025-02-25T12:29:44Z</time>
      </trkpt>
      <trkpt lat="48.09866" lon="-3.56386">
        <ele>177.9</ele>
        <time>2025-02-25T12:29:45Z</time>
      </trkpt>
      <trkpt lat="48.09866" lon="-3.56385">
        <ele>177.9</ele>
        <time>2025-02-25T12:29:46Z</time>
      </trkpt>
      <trkpt lat="48.09866" lon="-3.56383">
        <ele>177.8</ele>
        <time>2025-02-25T12:29:47Z</time>
      </trkpt>
      <trkpt lat="48.09866" lon="-3.56381">
        <ele>177.7</ele>
        <time>2025-02-25T12:29:48Z</time>
      </trkpt>
      <trkpt lat="48.09865" lon="-3.56379">
        <ele>177.6</ele>
        <time>2025-02-25T12:29:49Z</time>
      </trkpt>
      <trkpt lat="48.09865" lon="-3.56377">
        <ele>177.6</ele>
        <time>2025-02-25T12:29:50Z</time>
      </trkpt>
      <trkpt lat="48.09865" lon="-3.56375">
        <ele>177.5</ele>
        <time>2025-02-25T12:29:51Z</time>
      </trkpt>
      <trkpt lat="48.09865" lon="-3.56373">
        <ele>177.4</ele>
        <time>2025-02-25T12:29:52Z</time>
      </trkpt>
      <trkpt lat="48.09865" lon="-3.56371">
        <ele>177.4</ele>
        <time>2025-02-25T12:29:53Z</time>
      </trkpt>
      <trkpt lat="48.09865" lon="-3.56369">
        <ele>177.3</ele>
        <time>2025-02-25T12:29:54Z</time>
      </trkpt>
      <trkpt lat="48.09864" lon="-3.56367">
        <ele>177.2</ele>
        <time>2025-02-25T12:29:55Z</time>
      </trkpt>
      <trkpt lat="48.09864" lon="-3.56366">
        <ele>177.2</ele>
        <time>2025-02-25T12:29:56Z</time>
      </trkpt>
      <trkpt lat="48.09864" lon="-3.56364">
        <ele>177.1</ele>
        <time>2025-02-25T12:29:57Z</time>
      </trkpt>
      <trkpt lat="48.09864" lon="-3.56362">
        <ele>177</ele>
        <time>2025-02-25T12:29:58Z</time>
      </trkpt>
      <trkpt lat="48.09864" lon="-3.5636">
        <ele>177</ele>
        <time>2025-02-25T12:29:59Z</time>
      </trkpt>
      <trkpt lat="48.09864" lon="-3.56358">
        <ele>176.9</ele>
        <time>2025-02-25T12:30:00Z</time>
      </trkpt>
      <trkpt lat="48.09864" lon="-3.56356">
        <ele>176.8</ele>
        <time>2025-02-25T12:30:01Z</time>
      </trkpt>
      <trkpt lat="48.09864" lon="-3.56354">
        <ele>176.7</ele>
        <time>2025-02-25T12:30:02Z</time>
      </trkpt>
      <trkpt lat="48.09864" lon="-3.56353">
        <ele>176.7</ele>
        <time>2025-02-25T12:30:03Z</time>
      </trkpt>
      <trkpt lat="48.09863" lon="-3.56351">
        <ele>176.6</ele>
        <time>2025-02-25T12:30:04Z</time>
      </trkpt>
      <trkpt lat="48.09863" lon="-3.56349">
        <ele>176.6</ele>
        <time>2025-02-25T12:30:05Z</time>
      </trkpt>
      <trkpt lat="48.09864" lon="-3.56347">
        <ele>176.5</ele>
        <time>2025-02-25T12:30:06Z</time>
      </trkpt>
      <trkpt lat="48.09864" lon="-3.56346">
        <ele>176.5</ele>
        <time>2025-02-25T12:30:07Z</time>
      </trkpt>
      <trkpt lat="48.09863" lon="-3.56344">
        <ele>176.4</ele>
        <time>2025-02-25T12:30:08Z</time>
      </trkpt>
      <trkpt lat="48.09863" lon="-3.56342">
        <ele>176.3</ele>
        <time>2025-02-25T12:30:09Z</time>
      </trkpt>
      <trkpt lat="48.09863" lon="-3.56341">
        <ele>176.3</ele>
        <time>2025-02-25T12:30:10Z</time>
      </trkpt>
      <trkpt lat="48.09863" lon="-3.56339">
        <ele>176.2</ele>
        <time>2025-02-25T12:30:11Z</time>
      </trkpt>
      <trkpt lat="48.09862" lon="-3.56338">
        <ele>176.2</ele>
        <time>2025-02-25T12:30:12Z</time>
      </trkpt>
      <trkpt lat="48.09862" lon="-3.56337">
        <ele>176.1</ele>
        <time>2025-02-25T12:30:13Z</time>
      </trkpt>
      <trkpt lat="48.09861" lon="-3.56336">
        <ele>176.1</ele>
        <time>2025-02-25T12:30:14Z</time>
      </trkpt>
      <trkpt lat="48.09861" lon="-3.56335">
        <ele>176.1</ele>
        <time>2025-02-25T12:30:15Z</time>
      </trkpt>
      <trkpt lat="48.09861" lon="-3.56333">
        <ele>176</ele>
        <time>2025-02-25T12:30:16Z</time>
      </trkpt>
      <trkpt lat="48.0986" lon="-3.56332">
        <ele>175.9</ele>
        <time>2025-02-25T12:30:17Z</time>
      </trkpt>
      <trkpt lat="48.0986" lon="-3.5633">
        <ele>175.8</ele>
        <time>2025-02-25T12:30:18Z</time>
      </trkpt>
      <trkpt lat="48.0986" lon="-3.56329">
        <ele>175.7</ele>
        <time>2025-02-25T12:30:19Z</time>
      </trkpt>
      <trkpt lat="48.09859" lon="-3.56327">
        <ele>175.6</ele>
        <time>2025-02-25T12:30:20Z</time>
      </trkpt>
      <trkpt lat="48.09859" lon="-3.56326">
        <ele>175.5</ele>
        <time>2025-02-25T12:30:21Z</time>
      </trkpt>
      <trkpt lat="48.09859" lon="-3.56324">
        <ele>175.4</ele>
        <time>2025-02-25T12:30:22Z</time>
      </trkpt>
      <trkpt lat="48.09859" lon="-3.56322">
        <ele>175.2</ele>
        <time>2025-02-25T12:30:23Z</time>
      </trkpt>
      <trkpt lat="48.09858" lon="-3.56321">
        <ele>175.2</ele>
        <time>2025-02-25T12:30:24Z</time>
      </trkpt>
      <trkpt lat="48.09858" lon="-3.56319">
        <ele>175</ele>
        <time>2025-02-25T12:30:25Z</time>
      </trkpt>
      <trkpt lat="48.09858" lon="-3.56317">
        <ele>174.9</ele>
        <time>2025-02-25T12:30:26Z</time>
      </trkpt>
      <trkpt lat="48.09858" lon="-3.56316">
        <ele>174.8</ele>
        <time>2025-02-25T12:30:27Z</time>
      </trkpt>
      <trkpt lat="48.09858" lon="-3.56314">
        <ele>174.7</ele>
        <time>2025-02-25T12:30:28Z</time>
      </trkpt>
      <trkpt lat="48.09858" lon="-3.56313">
        <ele>174.6</ele>
        <time>2025-02-25T12:30:29Z</time>
      </trkpt>
      <trkpt lat="48.09857" lon="-3.56311">
        <ele>174.5</ele>
        <time>2025-02-25T12:30:30Z</time>
      </trkpt>
      <trkpt lat="48.09857" lon="-3.56309">
        <ele>174.4</ele>
        <time>2025-02-25T12:30:31Z</time>
      </trkpt>
      <trkpt lat="48.09856" lon="-3.56308">
        <ele>174.3</ele>
        <time>2025-02-25T12:30:32Z</time>
      </trkpt>
      <trkpt lat="48.09856" lon="-3.56306">
        <ele>174.2</ele>
        <time>2025-02-25T12:30:33Z</time>
      </trkpt>
      <trkpt lat="48.09856" lon="-3.56305">
        <ele>174.1</ele>
        <time>2025-02-25T12:30:34Z</time>
      </trkpt>
      <trkpt lat="48.09856" lon="-3.56303">
        <ele>173.9</ele>
        <time>2025-02-25T12:30:35Z</time>
      </trkpt>
      <trkpt lat="48.09856" lon="-3.56302">
        <ele>173.8</ele>
        <time>2025-02-25T12:30:36Z</time>
      </trkpt>
      <trkpt lat="48.09856" lon="-3.563">
        <ele>173.7</ele>
        <time>2025-02-25T12:30:37Z</time>
      </trkpt>
      <trkpt lat="48.09855" lon="-3.56298">
        <ele>173.5</ele>
        <time>2025-02-25T12:30:38Z</time>
      </trkpt>
      <trkpt lat="48.09855" lon="-3.56297">
        <ele>173.4</ele>
        <time>2025-02-25T12:30:39Z</time>
      </trkpt>
      <trkpt lat="48.09855" lon="-3.56295">
        <ele>173.2</ele>
        <time>2025-02-25T12:30:40Z</time>
      </trkpt>
      <trkpt lat="48.09854" lon="-3.56293">
        <ele>173.1</ele>
        <time>2025-02-25T12:30:41Z</time>
      </trkpt>
      <trkpt lat="48.09854" lon="-3.56292">
        <ele>173</ele>
        <time>2025-02-25T12:30:42Z</time>
      </trkpt>
      <trkpt lat="48.09854" lon="-3.5629">
        <ele>172.9</ele>
        <time>2025-02-25T12:30:43Z</time>
      </trkpt>
      <trkpt lat="48.09853" lon="-3.56289">
        <ele>172.9</ele>
        <time>2025-02-25T12:30:44Z</time>
      </trkpt>
      <trkpt lat="48.09853" lon="-3.56288">
        <ele>172.8</ele>
        <time>2025-02-25T12:30:45Z</time>
      </trkpt>
      <trkpt lat="48.09853" lon="-3.56286">
        <ele>172.6</ele>
        <time>2025-02-25T12:30:46Z</time>
      </trkpt>
      <trkpt lat="48.09853" lon="-3.56285">
        <ele>172.5</ele>
        <time>2025-02-25T12:30:47Z</time>
      </trkpt>
      <trkpt lat="48.09852" lon="-3.56283">
        <ele>172.4</ele>
        <time>2025-02-25T12:30:48Z</time>
      </trkpt>
      <trkpt lat="48.09852" lon="-3.56282">
        <ele>172.3</ele>
        <time>2025-02-25T12:30:49Z</time>
      </trkpt>
      <trkpt lat="48.09851" lon="-3.56281">
        <ele>172.4</ele>
        <time>2025-02-25T12:30:50Z</time>
      </trkpt>
      <trkpt lat="48.09851" lon="-3.56279">
        <ele>172.2</ele>
        <time>2025-02-25T12:30:51Z</time>
      </trkpt>
      <trkpt lat="48.09851" lon="-3.56277">
        <ele>172</ele>
        <time>2025-02-25T12:30:52Z</time>
      </trkpt>
      <trkpt lat="48.09851" lon="-3.56276">
        <ele>172</ele>
        <time>2025-02-25T12:30:53Z</time>
      </trkpt>
      <trkpt lat="48.0985" lon="-3.56274">
        <ele>171.9</ele>
        <time>2025-02-25T12:30:54Z</time>
      </trkpt>
      <trkpt lat="48.0985" lon="-3.56273">
        <ele>171.9</ele>
        <time>2025-02-25T12:30:55Z</time>
      </trkpt>
      <trkpt lat="48.0985" lon="-3.56272">
        <ele>171.8</ele>
        <time>2025-02-25T12:30:56Z</time>
      </trkpt>
      <trkpt lat="48.0985" lon="-3.5627">
        <ele>171.6</ele>
        <time>2025-02-25T12:30:57Z</time>
      </trkpt>
      <trkpt lat="48.09849" lon="-3.56268">
        <ele>171.6</ele>
        <time>2025-02-25T12:30:58Z</time>
      </trkpt>
      <trkpt lat="48.09849" lon="-3.56267">
        <ele>171.5</ele>
        <time>2025-02-25T12:30:59Z</time>
      </trkpt>
      <trkpt lat="48.09849" lon="-3.56265">
        <ele>171.4</ele>
        <time>2025-02-25T12:31:00Z</time>
      </trkpt>
      <trkpt lat="48.09849" lon="-3.56263">
        <ele>171.2</ele>
        <time>2025-02-25T12:31:01Z</time>
      </trkpt>
      <trkpt lat="48.09849" lon="-3.56262">
        <ele>171.2</ele>
        <time>2025-02-25T12:31:02Z</time>
      </trkpt>
      <trkpt lat="48.09848" lon="-3.5626">
        <ele>171.1</ele>
        <time>2025-02-25T12:31:03Z</time>
      </trkpt>
      <trkpt lat="48.09848" lon="-3.56259">
        <ele>171.1</ele>
        <time>2025-02-25T12:31:04Z</time>
      </trkpt>
      <trkpt lat="48.09848" lon="-3.56257">
        <ele>170.9</ele>
        <time>2025-02-25T12:31:05Z</time>
      </trkpt>
      <trkpt lat="48.09847" lon="-3.56255">
        <ele>170.9</ele>
        <time>2025-02-25T12:31:06Z</time>
      </trkpt>
      <trkpt lat="48.09847" lon="-3.56253">
        <ele>170.7</ele>
        <time>2025-02-25T12:31:07Z</time>
      </trkpt>
      <trkpt lat="48.09847" lon="-3.56251">
        <ele>170.6</ele>
        <time>2025-02-25T12:31:08Z</time>
      </trkpt>
      <trkpt lat="48.09847" lon="-3.56249">
        <ele>170.5</ele>
        <time>2025-02-25T12:31:09Z</time>
      </trkpt>
      <trkpt lat="48.09847" lon="-3.56247">
        <ele>170.4</ele>
        <time>2025-02-25T12:31:10Z</time>
      </trkpt>
      <trkpt lat="48.09847" lon="-3.56246">
        <ele>170.3</ele>
        <time>2025-02-25T12:31:11Z</time>
      </trkpt>
      <trkpt lat="48.09847" lon="-3.56244">
        <ele>170.2</ele>
        <time>2025-02-25T12:31:12Z</time>
      </trkpt>
      <trkpt lat="48.09847" lon="-3.56242">
        <ele>170.1</ele>
        <time>2025-02-25T12:31:13Z</time>
      </trkpt>
      <trkpt lat="48.09847" lon="-3.56241">
        <ele>170</ele>
        <time>2025-02-25T12:31:14Z</time>
      </trkpt>
      <trkpt lat="48.09847" lon="-3.56239">
        <ele>169.9</ele>
        <time>2025-02-25T12:31:15Z</time>
      </trkpt>
      <trkpt lat="48.09847" lon="-3.56237">
        <ele>169.8</ele>
        <time>2025-02-25T12:31:16Z</time>
      </trkpt>
      <trkpt lat="48.09847" lon="-3.56235">
        <ele>169.7</ele>
        <time>2025-02-25T12:31:17Z</time>
      </trkpt>
      <trkpt lat="48.09847" lon="-3.56234">
        <ele>169.7</ele>
        <time>2025-02-25T12:31:18Z</time>
      </trkpt>
      <trkpt lat="48.09847" lon="-3.56232">
        <ele>169.6</ele>
        <time>2025-02-25T12:31:19Z</time>
      </trkpt>
      <trkpt lat="48.09847" lon="-3.5623">
        <ele>169.4</ele>
        <time>2025-02-25T12:31:20Z</time>
      </trkpt>
      <trkpt lat="48.09848" lon="-3.56228">
        <ele>169.2</ele>
        <time>2025-02-25T12:31:21Z</time>
      </trkpt>
      <trkpt lat="48.09847" lon="-3.56226">
        <ele>169.2</ele>
        <time>2025-02-25T12:31:22Z</time>
      </trkpt>
      <trkpt lat="48.09848" lon="-3.56225">
        <ele>169</ele>
        <time>2025-02-25T12:31:23Z</time>
      </trkpt>
      <trkpt lat="48.09849" lon="-3.56223">
        <ele>168.8</ele>
        <time>2025-02-25T12:31:24Z</time>
      </trkpt>
      <trkpt lat="48.09849" lon="-3.56221">
        <ele>168.7</ele>
        <time>2025-02-25T12:31:25Z</time>
      </trkpt>
      <trkpt lat="48.09849" lon="-3.5622">
        <ele>168.7</ele>
        <time>2025-02-25T12:31:26Z</time>
      </trkpt>
      <trkpt lat="48.09849" lon="-3.56218">
        <ele>168.6</ele>
        <time>2025-02-25T12:31:27Z</time>
      </trkpt>
      <trkpt lat="48.09849" lon="-3.56216">
        <ele>168.5</ele>
        <time>2025-02-25T12:31:28Z</time>
      </trkpt>
      <trkpt lat="48.0985" lon="-3.56215">
        <ele>168.3</ele>
        <time>2025-02-25T12:31:29Z</time>
      </trkpt>
      <trkpt lat="48.09849" lon="-3.56214">
        <ele>168.4</ele>
        <time>2025-02-25T12:31:30Z</time>
      </trkpt>
      <trkpt lat="48.09849" lon="-3.56212">
        <ele>168.4</ele>
        <time>2025-02-25T12:31:31Z</time>
      </trkpt>
      <trkpt lat="48.0985" lon="-3.5621">
        <ele>168.2</ele>
        <time>2025-02-25T12:31:32Z</time>
      </trkpt>
      <trkpt lat="48.0985" lon="-3.56209">
        <ele>168.1</ele>
        <time>2025-02-25T12:31:33Z</time>
      </trkpt>
      <trkpt lat="48.0985" lon="-3.56207">
        <ele>168.1</ele>
        <time>2025-02-25T12:31:34Z</time>
      </trkpt>
      <trkpt lat="48.0985" lon="-3.56205">
        <ele>168</ele>
        <time>2025-02-25T12:31:35Z</time>
      </trkpt>
      <trkpt lat="48.0985" lon="-3.56203">
        <ele>167.9</ele>
        <time>2025-02-25T12:31:36Z</time>
      </trkpt>
      <trkpt lat="48.0985" lon="-3.56202">
        <ele>167.9</ele>
        <time>2025-02-25T12:31:37Z</time>
      </trkpt>
      <trkpt lat="48.0985" lon="-3.562">
        <ele>167.8</ele>
        <time>2025-02-25T12:31:38Z</time>
      </trkpt>
      <trkpt lat="48.09849" lon="-3.56199">
        <ele>167.9</ele>
        <time>2025-02-25T12:31:39Z</time>
      </trkpt>
      <trkpt lat="48.09849" lon="-3.56197">
        <ele>167.8</ele>
        <time>2025-02-25T12:31:40Z</time>
      </trkpt>
      <trkpt lat="48.09849" lon="-3.56195">
        <ele>167.8</ele>
        <time>2025-02-25T12:31:41Z</time>
      </trkpt>
      <trkpt lat="48.09849" lon="-3.56194">
        <ele>167.7</ele>
        <time>2025-02-25T12:31:42Z</time>
      </trkpt>
      <trkpt lat="48.09849" lon="-3.56192">
        <ele>167.7</ele>
        <time>2025-02-25T12:31:43Z</time>
      </trkpt>
      <trkpt lat="48.09849" lon="-3.5619">
        <ele>167.7</ele>
        <time>2025-02-25T12:31:44Z</time>
      </trkpt>
      <trkpt lat="48.09849" lon="-3.56188">
        <ele>167.6</ele>
        <time>2025-02-25T12:31:45Z</time>
      </trkpt>
      <trkpt lat="48.09849" lon="-3.56187">
        <ele>167.6</ele>
        <time>2025-02-25T12:31:46Z</time>
      </trkpt>
      <trkpt lat="48.09848" lon="-3.56185">
        <ele>167.7</ele>
        <time>2025-02-25T12:31:47Z</time>
      </trkpt>
      <trkpt lat="48.09848" lon="-3.56183">
        <ele>167.7</ele>
        <time>2025-02-25T12:31:48Z</time>
      </trkpt>
      <trkpt lat="48.09848" lon="-3.56181">
        <ele>167.7</ele>
        <time>2025-02-25T12:31:49Z</time>
      </trkpt>
      <trkpt lat="48.09848" lon="-3.5618">
        <ele>167.6</ele>
        <time>2025-02-25T12:31:50Z</time>
      </trkpt>
      <trkpt lat="48.09848" lon="-3.56178">
        <ele>167.6</ele>
        <time>2025-02-25T12:31:51Z</time>
      </trkpt>
      <trkpt lat="48.09848" lon="-3.56176">
        <ele>167.6</ele>
        <time>2025-02-25T12:31:52Z</time>
      </trkpt>
      <trkpt lat="48.09848" lon="-3.56174">
        <ele>167.5</ele>
        <time>2025-02-25T12:31:53Z</time>
      </trkpt>
      <trkpt lat="48.09848" lon="-3.56173">
        <ele>167.5</ele>
        <time>2025-02-25T12:31:54Z</time>
      </trkpt>
      <trkpt lat="48.09848" lon="-3.56171">
        <ele>167.5</ele>
        <time>2025-02-25T12:31:55Z</time>
      </trkpt>
      <trkpt lat="48.09847" lon="-3.56169">
        <ele>167.6</ele>
        <time>2025-02-25T12:31:56Z</time>
      </trkpt>
      <trkpt lat="48.09847" lon="-3.56167">
        <ele>167.5</ele>
        <time>2025-02-25T12:31:57Z</time>
      </trkpt>
      <trkpt lat="48.09848" lon="-3.56165">
        <ele>167.4</ele>
        <time>2025-02-25T12:31:58Z</time>
      </trkpt>
      <trkpt lat="48.09848" lon="-3.56163">
        <ele>167.3</ele>
        <time>2025-02-25T12:31:59Z</time>
      </trkpt>
      <trkpt lat="48.09847" lon="-3.56162">
        <ele>167.4</ele>
        <time>2025-02-25T12:32:00Z</time>
      </trkpt>
      <trkpt lat="48.09846" lon="-3.5616">
        <ele>167.5</ele>
        <time>2025-02-25T12:32:01Z</time>
      </trkpt>
      <trkpt lat="48.09846" lon="-3.56158">
        <ele>167.5</ele>
        <time>2025-02-25T12:32:02Z</time>
      </trkpt>
      <trkpt lat="48.09846" lon="-3.56157">
        <ele>167.5</ele>
        <time>2025-02-25T12:32:03Z</time>
      </trkpt>
      <trkpt lat="48.09845" lon="-3.56155">
        <ele>167.6</ele>
        <time>2025-02-25T12:32:04Z</time>
      </trkpt>
      <trkpt lat="48.09845" lon="-3.56154">
        <ele>167.5</ele>
        <time>2025-02-25T12:32:05Z</time>
      </trkpt>
      <trkpt lat="48.09845" lon="-3.56153">
        <ele>167.5</ele>
        <time>2025-02-25T12:32:06Z</time>
      </trkpt>
      <trkpt lat="48.09845" lon="-3.56151">
        <ele>167.5</ele>
        <time>2025-02-25T12:32:07Z</time>
      </trkpt>
      <trkpt lat="48.09845" lon="-3.5615">
        <ele>167.5</ele>
        <time>2025-02-25T12:32:08Z</time>
      </trkpt>
      <trkpt lat="48.09845" lon="-3.56148">
        <ele>167.5</ele>
        <time>2025-02-25T12:32:09Z</time>
      </trkpt>
      <trkpt lat="48.09844" lon="-3.56147">
        <ele>167.6</ele>
        <time>2025-02-25T12:32:10Z</time>
      </trkpt>
      <trkpt lat="48.09844" lon="-3.56145">
        <ele>167.5</ele>
        <time>2025-02-25T12:32:11Z</time>
      </trkpt>
      <trkpt lat="48.09844" lon="-3.56143">
        <ele>167.5</ele>
        <time>2025-02-25T12:32:12Z</time>
      </trkpt>
      <trkpt lat="48.09844" lon="-3.56142">
        <ele>167.5</ele>
        <time>2025-02-25T12:32:13Z</time>
      </trkpt>
      <trkpt lat="48.09845" lon="-3.5614">
        <ele>167.3</ele>
        <time>2025-02-25T12:32:14Z</time>
      </trkpt>
      <trkpt lat="48.09844" lon="-3.56139">
        <ele>167.5</ele>
        <time>2025-02-25T12:32:15Z</time>
      </trkpt>
      <trkpt lat="48.09845" lon="-3.56137">
        <ele>167.3</ele>
        <time>2025-02-25T12:32:16Z</time>
      </trkpt>
      <trkpt lat="48.09845" lon="-3.56136">
        <ele>167.2</ele>
        <time>2025-02-25T12:32:17Z</time>
      </trkpt>
      <trkpt lat="48.09845" lon="-3.56135">
        <ele>167.2</ele>
        <time>2025-02-25T12:32:18Z</time>
      </trkpt>
      <trkpt lat="48.09846" lon="-3.56133">
        <ele>167</ele>
        <time>2025-02-25T12:32:19Z</time>
      </trkpt>
      <trkpt lat="48.09846" lon="-3.56132">
        <ele>166.9</ele>
        <time>2025-02-25T12:32:20Z</time>
      </trkpt>
      <trkpt lat="48.09846" lon="-3.5613">
        <ele>166.9</ele>
        <time>2025-02-25T12:32:21Z</time>
      </trkpt>
      <trkpt lat="48.09846" lon="-3.56129">
        <ele>166.8</ele>
        <time>2025-02-25T12:32:22Z</time>
      </trkpt>
      <trkpt lat="48.09846" lon="-3.56127">
        <ele>166.7</ele>
        <time>2025-02-25T12:32:23Z</time>
      </trkpt>
      <trkpt lat="48.09847" lon="-3.56126">
        <ele>166.6</ele>
        <time>2025-02-25T12:32:24Z</time>
      </trkpt>
      <trkpt lat="48.09847" lon="-3.56124">
        <ele>166.5</ele>
        <time>2025-02-25T12:32:25Z</time>
      </trkpt>
      <trkpt lat="48.09847" lon="-3.56122">
        <ele>166.4</ele>
        <time>2025-02-25T12:32:26Z</time>
      </trkpt>
      <trkpt lat="48.09847" lon="-3.5612">
        <ele>166.4</ele>
        <time>2025-02-25T12:32:27Z</time>
      </trkpt>
      <trkpt lat="48.09847" lon="-3.56119">
        <ele>166.3</ele>
        <time>2025-02-25T12:32:28Z</time>
      </trkpt>
      <trkpt lat="48.09848" lon="-3.56117">
        <ele>166.1</ele>
        <time>2025-02-25T12:32:29Z</time>
      </trkpt>
      <trkpt lat="48.09848" lon="-3.56116">
        <ele>166.1</ele>
        <time>2025-02-25T12:32:30Z</time>
      </trkpt>
      <trkpt lat="48.09848" lon="-3.56114">
        <ele>166</ele>
        <time>2025-02-25T12:32:31Z</time>
      </trkpt>
      <trkpt lat="48.09848" lon="-3.56113">
        <ele>166</ele>
        <time>2025-02-25T12:32:32Z</time>
      </trkpt>
      <trkpt lat="48.09848" lon="-3.56112">
        <ele>165.9</ele>
        <time>2025-02-25T12:32:33Z</time>
      </trkpt>
      <trkpt lat="48.09848" lon="-3.5611">
        <ele>165.9</ele>
        <time>2025-02-25T12:32:34Z</time>
      </trkpt>
      <trkpt lat="48.09848" lon="-3.56109">
        <ele>165.9</ele>
        <time>2025-02-25T12:32:35Z</time>
      </trkpt>
      <trkpt lat="48.09849" lon="-3.56107">
        <ele>165.7</ele>
        <time>2025-02-25T12:32:36Z</time>
      </trkpt>
      <trkpt lat="48.09849" lon="-3.56105">
        <ele>165.6</ele>
        <time>2025-02-25T12:32:37Z</time>
      </trkpt>
      <trkpt lat="48.09849" lon="-3.56104">
        <ele>165.6</ele>
        <time>2025-02-25T12:32:38Z</time>
      </trkpt>
      <trkpt lat="48.09849" lon="-3.56102">
        <ele>165.6</ele>
        <time>2025-02-25T12:32:39Z</time>
      </trkpt>
      <trkpt lat="48.0985" lon="-3.561">
        <ele>165.4</ele>
        <time>2025-02-25T12:32:40Z</time>
      </trkpt>
      <trkpt lat="48.0985" lon="-3.56099">
        <ele>165.4</ele>
        <time>2025-02-25T12:32:41Z</time>
      </trkpt>
      <trkpt lat="48.09849" lon="-3.56097">
        <ele>165.5</ele>
        <time>2025-02-25T12:32:42Z</time>
      </trkpt>
      <trkpt lat="48.09849" lon="-3.56096">
        <ele>165.5</ele>
        <time>2025-02-25T12:32:43Z</time>
      </trkpt>
      <trkpt lat="48.0985" lon="-3.56094">
        <ele>165.4</ele>
        <time>2025-02-25T12:32:44Z</time>
      </trkpt>
      <trkpt lat="48.09851" lon="-3.56093">
        <ele>165.2</ele>
        <time>2025-02-25T12:32:45Z</time>
      </trkpt>
      <trkpt lat="48.09852" lon="-3.56091">
        <ele>165.1</ele>
        <time>2025-02-25T12:32:46Z</time>
      </trkpt>
      <trkpt lat="48.09851" lon="-3.56089">
        <ele>165.2</ele>
        <time>2025-02-25T12:32:47Z</time>
      </trkpt>
      <trkpt lat="48.09852" lon="-3.56087">
        <ele>165</ele>
        <time>2025-02-25T12:32:48Z</time>
      </trkpt>
      <trkpt lat="48.09852" lon="-3.56086">
        <ele>165</ele>
        <time>2025-02-25T12:32:49Z</time>
      </trkpt>
      <trkpt lat="48.09852" lon="-3.56084">
        <ele>165</ele>
        <time>2025-02-25T12:32:50Z</time>
      </trkpt>
      <trkpt lat="48.09852" lon="-3.56082">
        <ele>164.9</ele>
        <time>2025-02-25T12:32:51Z</time>
      </trkpt>
      <trkpt lat="48.09853" lon="-3.56081">
        <ele>164.8</ele>
        <time>2025-02-25T12:32:52Z</time>
      </trkpt>
      <trkpt lat="48.09853" lon="-3.56079">
        <ele>164.7</ele>
        <time>2025-02-25T12:32:53Z</time>
      </trkpt>
      <trkpt lat="48.09853" lon="-3.56078">
        <ele>164.7</ele>
        <time>2025-02-25T12:32:54Z</time>
      </trkpt>
      <trkpt lat="48.09853" lon="-3.56077">
        <ele>164.6</ele>
        <time>2025-02-25T12:32:55Z</time>
      </trkpt>
      <trkpt lat="48.09853" lon="-3.56075">
        <ele>164.6</ele>
        <time>2025-02-25T12:32:56Z</time>
      </trkpt>
      <trkpt lat="48.09853" lon="-3.56074">
        <ele>164.5</ele>
        <time>2025-02-25T12:32:57Z</time>
      </trkpt>
      <trkpt lat="48.09852" lon="-3.56073">
        <ele>164.6</ele>
        <time>2025-02-25T12:32:58Z</time>
      </trkpt>
      <trkpt lat="48.09852" lon="-3.56071">
        <ele>164.5</ele>
        <time>2025-02-25T12:32:59Z</time>
      </trkpt>
      <trkpt lat="48.09853" lon="-3.5607">
        <ele>164.4</ele>
        <time>2025-02-25T12:33:00Z</time>
      </trkpt>
      <trkpt lat="48.09853" lon="-3.56068">
        <ele>164.3</ele>
        <time>2025-02-25T12:33:01Z</time>
      </trkpt>
      <trkpt lat="48.09854" lon="-3.56067">
        <ele>164.2</ele>
        <time>2025-02-25T12:33:02Z</time>
      </trkpt>
      <trkpt lat="48.09854" lon="-3.56066">
        <ele>164.1</ele>
        <time>2025-02-25T12:33:03Z</time>
      </trkpt>
      <trkpt lat="48.09854" lon="-3.56064">
        <ele>164.1</ele>
        <time>2025-02-25T12:33:04Z</time>
      </trkpt>
      <trkpt lat="48.09854" lon="-3.56062">
        <ele>164</ele>
        <time>2025-02-25T12:33:05Z</time>
      </trkpt>
      <trkpt lat="48.09854" lon="-3.56061">
        <ele>164</ele>
        <time>2025-02-25T12:33:06Z</time>
      </trkpt>
      <trkpt lat="48.09854" lon="-3.56059">
        <ele>163.9</ele>
        <time>2025-02-25T12:33:07Z</time>
      </trkpt>
      <trkpt lat="48.09855" lon="-3.56057">
        <ele>163.7</ele>
        <time>2025-02-25T12:33:08Z</time>
      </trkpt>
      <trkpt lat="48.09855" lon="-3.56055">
        <ele>163.6</ele>
        <time>2025-02-25T12:33:09Z</time>
      </trkpt>
      <trkpt lat="48.09855" lon="-3.56053">
        <ele>163.6</ele>
        <time>2025-02-25T12:33:10Z</time>
      </trkpt>
      <trkpt lat="48.09855" lon="-3.56052">
        <ele>163.6</ele>
        <time>2025-02-25T12:33:11Z</time>
      </trkpt>
      <trkpt lat="48.09856" lon="-3.5605">
        <ele>163.4</ele>
        <time>2025-02-25T12:33:12Z</time>
      </trkpt>
      <trkpt lat="48.09856" lon="-3.56049">
        <ele>163.4</ele>
        <time>2025-02-25T12:33:13Z</time>
      </trkpt>
      <trkpt lat="48.09856" lon="-3.56047">
        <ele>163.3</ele>
        <time>2025-02-25T12:33:14Z</time>
      </trkpt>
      <trkpt lat="48.09856" lon="-3.56046">
        <ele>163.3</ele>
        <time>2025-02-25T12:33:15Z</time>
      </trkpt>
      <trkpt lat="48.09856" lon="-3.56045">
        <ele>163.2</ele>
        <time>2025-02-25T12:33:16Z</time>
      </trkpt>
      <trkpt lat="48.09856" lon="-3.56043">
        <ele>163.2</ele>
        <time>2025-02-25T12:33:17Z</time>
      </trkpt>
      <trkpt lat="48.09856" lon="-3.56041">
        <ele>163.1</ele>
        <time>2025-02-25T12:33:18Z</time>
      </trkpt>
      <trkpt lat="48.09856" lon="-3.56039">
        <ele>163.1</ele>
        <time>2025-02-25T12:33:19Z</time>
      </trkpt>
      <trkpt lat="48.09857" lon="-3.56038">
        <ele>162.9</ele>
        <time>2025-02-25T12:33:20Z</time>
      </trkpt>
      <trkpt lat="48.09857" lon="-3.56036">
        <ele>162.8</ele>
        <time>2025-02-25T12:33:21Z</time>
      </trkpt>
      <trkpt lat="48.09858" lon="-3.56035">
        <ele>162.7</ele>
        <time>2025-02-25T12:33:22Z</time>
      </trkpt>
      <trkpt lat="48.09858" lon="-3.56033">
        <ele>162.6</ele>
        <time>2025-02-25T12:33:23Z</time>
      </trkpt>
      <trkpt lat="48.09858" lon="-3.56032">
        <ele>162.6</ele>
        <time>2025-02-25T12:33:24Z</time>
      </trkpt>
      <trkpt lat="48.09858" lon="-3.5603">
        <ele>162.5</ele>
        <time>2025-02-25T12:33:25Z</time>
      </trkpt>
      <trkpt lat="48.09859" lon="-3.56029">
        <ele>162.3</ele>
        <time>2025-02-25T12:33:26Z</time>
      </trkpt>
      <trkpt lat="48.09859" lon="-3.56027">
        <ele>162.3</ele>
        <time>2025-02-25T12:33:27Z</time>
      </trkpt>
      <trkpt lat="48.09859" lon="-3.56025">
        <ele>162.2</ele>
        <time>2025-02-25T12:33:28Z</time>
      </trkpt>
      <trkpt lat="48.09859" lon="-3.56024">
        <ele>162.2</ele>
        <time>2025-02-25T12:33:29Z</time>
      </trkpt>
      <trkpt lat="48.09859" lon="-3.56022">
        <ele>162.1</ele>
        <time>2025-02-25T12:33:30Z</time>
      </trkpt>
      <trkpt lat="48.0986" lon="-3.56021">
        <ele>161.9</ele>
        <time>2025-02-25T12:33:31Z</time>
      </trkpt>
      <trkpt lat="48.0986" lon="-3.56019">
        <ele>161.8</ele>
        <time>2025-02-25T12:33:32Z</time>
      </trkpt>
      <trkpt lat="48.09861" lon="-3.56018">
        <ele>161.7</ele>
        <time>2025-02-25T12:33:33Z</time>
      </trkpt>
      <trkpt lat="48.09862" lon="-3.56017">
        <ele>161.5</ele>
        <time>2025-02-25T12:33:34Z</time>
      </trkpt>
      <trkpt lat="48.09862" lon="-3.56016">
        <ele>161.4</ele>
        <time>2025-02-25T12:33:35Z</time>
      </trkpt>
      <trkpt lat="48.09863" lon="-3.56015">
        <ele>161.2</ele>
        <time>2025-02-25T12:33:36Z</time>
      </trkpt>
      <trkpt lat="48.09863" lon="-3.56013">
        <ele>161.2</ele>
        <time>2025-02-25T12:33:37Z</time>
      </trkpt>
      <trkpt lat="48.09864" lon="-3.56012">
        <ele>161</ele>
        <time>2025-02-25T12:33:38Z</time>
      </trkpt>
      <trkpt lat="48.09865" lon="-3.56011">
        <ele>160.8</ele>
        <time>2025-02-25T12:33:39Z</time>
      </trkpt>
      <trkpt lat="48.09866" lon="-3.5601">
        <ele>160.5</ele>
        <time>2025-02-25T12:33:40Z</time>
      </trkpt>
      <trkpt lat="48.09866" lon="-3.56009">
        <ele>160.5</ele>
        <time>2025-02-25T12:33:41Z</time>
      </trkpt>
      <trkpt lat="48.09867" lon="-3.56008">
        <ele>160.3</ele>
        <time>2025-02-25T12:33:42Z</time>
      </trkpt>
      <trkpt lat="48.09868" lon="-3.56007">
        <ele>160.1</ele>
        <time>2025-02-25T12:33:43Z</time>
      </trkpt>
      <trkpt lat="48.09868" lon="-3.56006">
        <ele>160</ele>
        <time>2025-02-25T12:33:44Z</time>
      </trkpt>
      <trkpt lat="48.09869" lon="-3.56005">
        <ele>159.8</ele>
        <time>2025-02-25T12:33:45Z</time>
      </trkpt>
      <trkpt lat="48.09869" lon="-3.56004">
        <ele>159.8</ele>
        <time>2025-02-25T12:33:46Z</time>
      </trkpt>
      <trkpt lat="48.0987" lon="-3.56003">
        <ele>159.5</ele>
        <time>2025-02-25T12:33:47Z</time>
      </trkpt>
      <trkpt lat="48.09871" lon="-3.56002">
        <ele>159.3</ele>
        <time>2025-02-25T12:33:48Z</time>
      </trkpt>
      <trkpt lat="48.09871" lon="-3.56001">
        <ele>159.3</ele>
        <time>2025-02-25T12:33:49Z</time>
      </trkpt>
      <trkpt lat="48.09871" lon="-3.55999">
        <ele>159.3</ele>
        <time>2025-02-25T12:33:50Z</time>
      </trkpt>
      <trkpt lat="48.09871" lon="-3.55998">
        <ele>159.3</ele>
        <time>2025-02-25T12:33:51Z</time>
      </trkpt>
      <trkpt lat="48.09872" lon="-3.55997">
        <ele>159.3</ele>
        <time>2025-02-25T12:33:52Z</time>
      </trkpt>
      <trkpt lat="48.09872" lon="-3.55996">
        <ele>159.3</ele>
        <time>2025-02-25T12:33:53Z</time>
      </trkpt>
      <trkpt lat="48.09872" lon="-3.55995">
        <ele>159.4</ele>
        <time>2025-02-25T12:33:54Z</time>
      </trkpt>
      <trkpt lat="48.09873" lon="-3.55994">
        <ele>159.3</ele>
        <time>2025-02-25T12:33:55Z</time>
      </trkpt>
      <trkpt lat="48.09874" lon="-3.55992">
        <ele>159.3</ele>
        <time>2025-02-25T12:33:56Z</time>
      </trkpt>
      <trkpt lat="48.09874" lon="-3.55991">
        <ele>159.4</ele>
        <time>2025-02-25T12:33:57Z</time>
      </trkpt>
      <trkpt lat="48.09875" lon="-3.55989">
        <ele>159.5</ele>
        <time>2025-02-25T12:33:58Z</time>
      </trkpt>
      <trkpt lat="48.09875" lon="-3.55988">
        <ele>159.6</ele>
        <time>2025-02-25T12:33:59Z</time>
      </trkpt>
      <trkpt lat="48.09875" lon="-3.55986">
        <ele>159.8</ele>
        <time>2025-02-25T12:34:00Z</time>
      </trkpt>
      <trkpt lat="48.09875" lon="-3.55984">
        <ele>159.9</ele>
        <time>2025-02-25T12:34:01Z</time>
      </trkpt>
      <trkpt lat="48.09876" lon="-3.55982">
        <ele>160.1</ele>
        <time>2025-02-25T12:34:02Z</time>
      </trkpt>
      <trkpt lat="48.09876" lon="-3.5598">
        <ele>160.2</ele>
        <time>2025-02-25T12:34:03Z</time>
      </trkpt>
      <trkpt lat="48.09877" lon="-3.55977">
        <ele>160.5</ele>
        <time>2025-02-25T12:34:04Z</time>
      </trkpt>
      <trkpt lat="48.09877" lon="-3.55976">
        <ele>160.6</ele>
        <time>2025-02-25T12:34:05Z</time>
      </trkpt>
      <trkpt lat="48.09877" lon="-3.55974">
        <ele>160.8</ele>
        <time>2025-02-25T12:34:06Z</time>
      </trkpt>
      <trkpt lat="48.09878" lon="-3.55972">
        <ele>161</ele>
        <time>2025-02-25T12:34:07Z</time>
      </trkpt>
      <trkpt lat="48.09878" lon="-3.55971">
        <ele>160.8</ele>
        <time>2025-02-25T12:34:08Z</time>
      </trkpt>
      <trkpt lat="48.09878" lon="-3.55969">
        <ele>160.6</ele>
        <time>2025-02-25T12:34:09Z</time>
      </trkpt>
      <trkpt lat="48.09878" lon="-3.55967">
        <ele>160.4</ele>
        <time>2025-02-25T12:34:10Z</time>
      </trkpt>
      <trkpt lat="48.09878" lon="-3.55966">
        <ele>160.2</ele>
        <time>2025-02-25T12:34:11Z</time>
      </trkpt>
      <trkpt lat="48.09878" lon="-3.55964">
        <ele>160</ele>
        <time>2025-02-25T12:34:12Z</time>
      </trkpt>
      <trkpt lat="48.09878" lon="-3.55962">
        <ele>159.7</ele>
        <time>2025-02-25T12:34:13Z</time>
      </trkpt>
      <trkpt lat="48.09879" lon="-3.5596">
        <ele>159.4</ele>
        <time>2025-02-25T12:34:14Z</time>
      </trkpt>
      <trkpt lat="48.09879" lon="-3.55958">
        <ele>159.2</ele>
        <time>2025-02-25T12:34:15Z</time>
      </trkpt>
      <trkpt lat="48.09879" lon="-3.55956">
        <ele>158.9</ele>
        <time>2025-02-25T12:34:16Z</time>
      </trkpt>
      <trkpt lat="48.09878" lon="-3.55954">
        <ele>158.7</ele>
        <time>2025-02-25T12:34:17Z</time>
      </trkpt>
      <trkpt lat="48.09878" lon="-3.55953">
        <ele>158.6</ele>
        <time>2025-02-25T12:34:18Z</time>
      </trkpt>
      <trkpt lat="48.09878" lon="-3.55951">
        <ele>158.4</ele>
        <time>2025-02-25T12:34:19Z</time>
      </trkpt>
      <trkpt lat="48.09878" lon="-3.55949">
        <ele>158.1</ele>
        <time>2025-02-25T12:34:20Z</time>
      </trkpt>
      <trkpt lat="48.09878" lon="-3.55947">
        <ele>157.9</ele>
        <time>2025-02-25T12:34:21Z</time>
      </trkpt>
      <trkpt lat="48.09878" lon="-3.55945">
        <ele>157.6</ele>
        <time>2025-02-25T12:34:22Z</time>
      </trkpt>
      <trkpt lat="48.09878" lon="-3.55944">
        <ele>157.5</ele>
        <time>2025-02-25T12:34:23Z</time>
      </trkpt>
      <trkpt lat="48.09878" lon="-3.55942">
        <ele>157.3</ele>
        <time>2025-02-25T12:34:24Z</time>
      </trkpt>
      <trkpt lat="48.09878" lon="-3.5594">
        <ele>157.1</ele>
        <time>2025-02-25T12:34:25Z</time>
      </trkpt>
      <trkpt lat="48.09878" lon="-3.55938">
        <ele>156.8</ele>
        <time>2025-02-25T12:34:26Z</time>
      </trkpt>
      <trkpt lat="48.09878" lon="-3.55936">
        <ele>156.6</ele>
        <time>2025-02-25T12:34:27Z</time>
      </trkpt>
      <trkpt lat="48.09879" lon="-3.55934">
        <ele>156.3</ele>
        <time>2025-02-25T12:34:28Z</time>
      </trkpt>
      <trkpt lat="48.09879" lon="-3.55932">
        <ele>156</ele>
        <time>2025-02-25T12:34:29Z</time>
      </trkpt>
      <trkpt lat="48.0988" lon="-3.5593">
        <ele>155.7</ele>
        <time>2025-02-25T12:34:30Z</time>
      </trkpt>
      <trkpt lat="48.0988" lon="-3.55928">
        <ele>155.5</ele>
        <time>2025-02-25T12:34:31Z</time>
      </trkpt>
      <trkpt lat="48.09881" lon="-3.55926">
        <ele>155.2</ele>
        <time>2025-02-25T12:34:32Z</time>
      </trkpt>
      <trkpt lat="48.09881" lon="-3.55924">
        <ele>155</ele>
        <time>2025-02-25T12:34:33Z</time>
      </trkpt>
      <trkpt lat="48.09881" lon="-3.55923">
        <ele>154.9</ele>
        <time>2025-02-25T12:34:34Z</time>
      </trkpt>
      <trkpt lat="48.09881" lon="-3.55922">
        <ele>154.8</ele>
        <time>2025-02-25T12:34:35Z</time>
      </trkpt>
      <trkpt lat="48.09882" lon="-3.55921">
        <ele>154.7</ele>
        <time>2025-02-25T12:34:36Z</time>
      </trkpt>
      <trkpt lat="48.09882" lon="-3.55919">
        <ele>154.5</ele>
        <time>2025-02-25T12:34:37Z</time>
      </trkpt>
      <trkpt lat="48.09882" lon="-3.55918">
        <ele>154.4</ele>
        <time>2025-02-25T12:34:38Z</time>
      </trkpt>
      <trkpt lat="48.09882" lon="-3.55917">
        <ele>154.3</ele>
        <time>2025-02-25T12:34:39Z</time>
      </trkpt>
      <trkpt lat="48.09882" lon="-3.55916">
        <ele>154.2</ele>
        <time>2025-02-25T12:34:40Z</time>
      </trkpt>
      <trkpt lat="48.09882" lon="-3.55915">
        <ele>154.1</ele>
        <time>2025-02-25T12:34:41Z</time>
      </trkpt>
      <trkpt lat="48.09882" lon="-3.55914">
        <ele>154</ele>
        <time>2025-02-25T12:34:42Z</time>
      </trkpt>
      <trkpt lat="48.09881" lon="-3.55913">
        <ele>153.9</ele>
        <time>2025-02-25T12:34:43Z</time>
      </trkpt>
      <trkpt lat="48.09881" lon="-3.55912">
        <ele>153.8</ele>
        <time>2025-02-25T12:34:44Z</time>
      </trkpt>
      <trkpt lat="48.09881" lon="-3.55911">
        <ele>153.7</ele>
        <time>2025-02-25T12:34:45Z</time>
      </trkpt>
      <trkpt lat="48.09881" lon="-3.55909">
        <ele>153.5</ele>
        <time>2025-02-25T12:34:46Z</time>
      </trkpt>
      <trkpt lat="48.09881" lon="-3.55908">
        <ele>153.4</ele>
        <time>2025-02-25T12:34:47Z</time>
      </trkpt>
      <trkpt lat="48.09881" lon="-3.55907">
        <ele>153.3</ele>
        <time>2025-02-25T12:34:48Z</time>
      </trkpt>
      <trkpt lat="48.0988" lon="-3.55905">
        <ele>153.2</ele>
        <time>2025-02-25T12:34:49Z</time>
      </trkpt>
      <trkpt lat="48.0988" lon="-3.55905">
        <ele>153.2</ele>
        <time>2025-02-25T12:34:50Z</time>
      </trkpt>
      <trkpt lat="48.0988" lon="-3.55903">
        <ele>153</ele>
        <time>2025-02-25T12:34:51Z</time>
      </trkpt>
      <trkpt lat="48.09881" lon="-3.55902">
        <ele>152.8</ele>
        <time>2025-02-25T12:34:52Z</time>
      </trkpt>
      <trkpt lat="48.09881" lon="-3.55901">
        <ele>152.8</ele>
        <time>2025-02-25T12:34:53Z</time>
      </trkpt>
      <trkpt lat="48.09881" lon="-3.559">
        <ele>152.7</ele>
        <time>2025-02-25T12:34:54Z</time>
      </trkpt>
      <trkpt lat="48.09881" lon="-3.55899">
        <ele>152.6</ele>
        <time>2025-02-25T12:34:55Z</time>
      </trkpt>
      <trkpt lat="48.09881" lon="-3.55898">
        <ele>152.5</ele>
        <time>2025-02-25T12:34:56Z</time>
      </trkpt>
      <trkpt lat="48.09881" lon="-3.55897">
        <ele>152.4</ele>
        <time>2025-02-25T12:34:57Z</time>
      </trkpt>
      <trkpt lat="48.09881" lon="-3.55896">
        <ele>152.3</ele>
        <time>2025-02-25T12:34:58Z</time>
      </trkpt>
      <trkpt lat="48.09881" lon="-3.55895">
        <ele>152.2</ele>
        <time>2025-02-25T12:34:59Z</time>
      </trkpt>
      <trkpt lat="48.09881" lon="-3.55893">
        <ele>152</ele>
        <time>2025-02-25T12:35:00Z</time>
      </trkpt>
      <trkpt lat="48.0988" lon="-3.55892">
        <ele>151.9</ele>
        <time>2025-02-25T12:35:01Z</time>
      </trkpt>
      <trkpt lat="48.0988" lon="-3.55891">
        <ele>151.8</ele>
        <time>2025-02-25T12:35:02Z</time>
      </trkpt>
      <trkpt lat="48.0988" lon="-3.55889">
        <ele>151.7</ele>
        <time>2025-02-25T12:35:03Z</time>
      </trkpt>
      <trkpt lat="48.0988" lon="-3.55888">
        <ele>151.5</ele>
        <time>2025-02-25T12:35:04Z</time>
      </trkpt>
      <trkpt lat="48.0988" lon="-3.55887">
        <ele>151.4</ele>
        <time>2025-02-25T12:35:05Z</time>
      </trkpt>
      <trkpt lat="48.0988" lon="-3.55885">
        <ele>151.2</ele>
        <time>2025-02-25T12:35:06Z</time>
      </trkpt>
      <trkpt lat="48.0988" lon="-3.55884">
        <ele>151.1</ele>
        <time>2025-02-25T12:35:07Z</time>
      </trkpt>
      <trkpt lat="48.0988" lon="-3.55882">
        <ele>150.9</ele>
        <time>2025-02-25T12:35:08Z</time>
      </trkpt>
      <trkpt lat="48.0988" lon="-3.5588">
        <ele>150.7</ele>
        <time>2025-02-25T12:35:09Z</time>
      </trkpt>
      <trkpt lat="48.0988" lon="-3.55879">
        <ele>150.6</ele>
        <time>2025-02-25T12:35:10Z</time>
      </trkpt>
      <trkpt lat="48.09879" lon="-3.55877">
        <ele>150.4</ele>
        <time>2025-02-25T12:35:11Z</time>
      </trkpt>
      <trkpt lat="48.09879" lon="-3.55875">
        <ele>150.2</ele>
        <time>2025-02-25T12:35:12Z</time>
      </trkpt>
      <trkpt lat="48.0988" lon="-3.55874">
        <ele>150</ele>
        <time>2025-02-25T12:35:13Z</time>
      </trkpt>
      <trkpt lat="48.09879" lon="-3.55872">
        <ele>149.9</ele>
        <time>2025-02-25T12:35:14Z</time>
      </trkpt>
      <trkpt lat="48.09879" lon="-3.55871">
        <ele>149.8</ele>
        <time>2025-02-25T12:35:15Z</time>
      </trkpt>
      <trkpt lat="48.09879" lon="-3.5587">
        <ele>149.7</ele>
        <time>2025-02-25T12:35:16Z</time>
      </trkpt>
      <trkpt lat="48.09879" lon="-3.55868">
        <ele>149.5</ele>
        <time>2025-02-25T12:35:17Z</time>
      </trkpt>
      <trkpt lat="48.09879" lon="-3.55867">
        <ele>149.3</ele>
        <time>2025-02-25T12:35:18Z</time>
      </trkpt>
      <trkpt lat="48.09878" lon="-3.55866">
        <ele>149.3</ele>
        <time>2025-02-25T12:35:19Z</time>
      </trkpt>
      <trkpt lat="48.09878" lon="-3.55864">
        <ele>149.1</ele>
        <time>2025-02-25T12:35:20Z</time>
      </trkpt>
      <trkpt lat="48.09877" lon="-3.55863">
        <ele>149.1</ele>
        <time>2025-02-25T12:35:21Z</time>
      </trkpt>
      <trkpt lat="48.09877" lon="-3.55862">
        <ele>149</ele>
        <time>2025-02-25T12:35:22Z</time>
      </trkpt>
      <trkpt lat="48.09878" lon="-3.55861">
        <ele>148.8</ele>
        <time>2025-02-25T12:35:23Z</time>
      </trkpt>
      <trkpt lat="48.09878" lon="-3.5586">
        <ele>148.7</ele>
        <time>2025-02-25T12:35:24Z</time>
      </trkpt>
      <trkpt lat="48.09878" lon="-3.55859">
        <ele>148.7</ele>
        <time>2025-02-25T12:35:25Z</time>
      </trkpt>
      <trkpt lat="48.09877" lon="-3.55858">
        <ele>148.7</ele>
        <time>2025-02-25T12:35:26Z</time>
      </trkpt>
      <trkpt lat="48.09877" lon="-3.55858">
        <ele>148.7</ele>
        <time>2025-02-25T12:35:27Z</time>
      </trkpt>
      <trkpt lat="48.09877" lon="-3.55858">
        <ele>148.7</ele>
        <time>2025-02-25T12:35:28Z</time>
      </trkpt>
      <trkpt lat="48.09877" lon="-3.55858">
        <ele>148.7</ele>
        <time>2025-02-25T12:35:29Z</time>
      </trkpt>
      <trkpt lat="48.09877" lon="-3.55858">
        <ele>148.7</ele>
        <time>2025-02-25T12:35:30Z</time>
      </trkpt>
      <trkpt lat="48.09878" lon="-3.55856">
        <ele>148.6</ele>
        <time>2025-02-25T12:35:31Z</time>
      </trkpt>
      <trkpt lat="48.09878" lon="-3.55856">
        <ele>148.6</ele>
        <time>2025-02-25T12:35:32Z</time>
      </trkpt>
      <trkpt lat="48.09878" lon="-3.55857">
        <ele>148.6</ele>
        <time>2025-02-25T12:35:33Z</time>
      </trkpt>
      <trkpt lat="48.09879" lon="-3.55857">
        <ele>148.6</ele>
        <time>2025-02-25T12:35:34Z</time>
      </trkpt>
      <trkpt lat="48.09879" lon="-3.55857">
        <ele>148.6</ele>
        <time>2025-02-25T12:35:35Z</time>
      </trkpt>
      <trkpt lat="48.09881" lon="-3.55857">
        <ele>148.4</ele>
        <time>2025-02-25T12:35:36Z</time>
      </trkpt>
      <trkpt lat="48.09882" lon="-3.55857">
        <ele>148.4</ele>
        <time>2025-02-25T12:35:37Z</time>
      </trkpt>
      <trkpt lat="48.09883" lon="-3.55857">
        <ele>148.3</ele>
        <time>2025-02-25T12:35:38Z</time>
      </trkpt>
      <trkpt lat="48.09884" lon="-3.55857">
        <ele>148.3</ele>
        <time>2025-02-25T12:35:39Z</time>
      </trkpt>
      <trkpt lat="48.09885" lon="-3.55857">
        <ele>148.2</ele>
        <time>2025-02-25T12:35:40Z</time>
      </trkpt>
      <trkpt lat="48.09887" lon="-3.55858">
        <ele>148.1</ele>
        <time>2025-02-25T12:35:41Z</time>
      </trkpt>
      <trkpt lat="48.09888" lon="-3.55858">
        <ele>148.1</ele>
        <time>2025-02-25T12:35:42Z</time>
      </trkpt>
      <trkpt lat="48.09889" lon="-3.55858">
        <ele>148</ele>
        <time>2025-02-25T12:35:43Z</time>
      </trkpt>
      <trkpt lat="48.0989" lon="-3.55859">
        <ele>148</ele>
        <time>2025-02-25T12:35:44Z</time>
      </trkpt>
      <trkpt lat="48.09891" lon="-3.55859">
        <ele>148.1</ele>
        <time>2025-02-25T12:35:45Z</time>
      </trkpt>
      <trkpt lat="48.09892" lon="-3.5586">
        <ele>148.1</ele>
        <time>2025-02-25T12:35:46Z</time>
      </trkpt>
      <trkpt lat="48.09892" lon="-3.55861">
        <ele>148.1</ele>
        <time>2025-02-25T12:35:47Z</time>
      </trkpt>
      <trkpt lat="48.09893" lon="-3.55861">
        <ele>148.1</ele>
        <time>2025-02-25T12:35:48Z</time>
      </trkpt>
      <trkpt lat="48.09894" lon="-3.55861">
        <ele>148.2</ele>
        <time>2025-02-25T12:35:49Z</time>
      </trkpt>
      <trkpt lat="48.09895" lon="-3.55861">
        <ele>148.2</ele>
        <time>2025-02-25T12:35:50Z</time>
      </trkpt>
      <trkpt lat="48.09896" lon="-3.55861">
        <ele>148.3</ele>
        <time>2025-02-25T12:35:51Z</time>
      </trkpt>
      <trkpt lat="48.09897" lon="-3.55861">
        <ele>148.3</ele>
        <time>2025-02-25T12:35:52Z</time>
      </trkpt>
      <trkpt lat="48.09898" lon="-3.55861">
        <ele>148.3</ele>
        <time>2025-02-25T12:35:53Z</time>
      </trkpt>
      <trkpt lat="48.09899" lon="-3.55861">
        <ele>148.4</ele>
        <time>2025-02-25T12:35:54Z</time>
      </trkpt>
      <trkpt lat="48.099" lon="-3.55861">
        <ele>148.4</ele>
        <time>2025-02-25T12:35:55Z</time>
      </trkpt>
      <trkpt lat="48.09902" lon="-3.55861">
        <ele>148.5</ele>
        <time>2025-02-25T12:35:56Z</time>
      </trkpt>
      <trkpt lat="48.09903" lon="-3.5586">
        <ele>148.5</ele>
        <time>2025-02-25T12:35:57Z</time>
      </trkpt>
      <trkpt lat="48.09904" lon="-3.55861">
        <ele>148.5</ele>
        <time>2025-02-25T12:35:58Z</time>
      </trkpt>
      <trkpt lat="48.09905" lon="-3.55862">
        <ele>148.7</ele>
        <time>2025-02-25T12:35:59Z</time>
      </trkpt>
      <trkpt lat="48.09905" lon="-3.55862">
        <ele>148.7</ele>
        <time>2025-02-25T12:36:00Z</time>
      </trkpt>
      <trkpt lat="48.09906" lon="-3.55862">
        <ele>148.7</ele>
        <time>2025-02-25T12:36:01Z</time>
      </trkpt>
      <trkpt lat="48.09907" lon="-3.55862">
        <ele>148.7</ele>
        <time>2025-02-25T12:36:02Z</time>
      </trkpt>
      <trkpt lat="48.09908" lon="-3.55863">
        <ele>148.8</ele>
        <time>2025-02-25T12:36:03Z</time>
      </trkpt>
      <trkpt lat="48.09909" lon="-3.55862">
        <ele>148.8</ele>
        <time>2025-02-25T12:36:04Z</time>
      </trkpt>
      <trkpt lat="48.0991" lon="-3.55863">
        <ele>148.9</ele>
        <time>2025-02-25T12:36:05Z</time>
      </trkpt>
      <trkpt lat="48.09911" lon="-3.55862">
        <ele>148.9</ele>
        <time>2025-02-25T12:36:06Z</time>
      </trkpt>
      <trkpt lat="48.09912" lon="-3.55863">
        <ele>149</ele>
        <time>2025-02-25T12:36:07Z</time>
      </trkpt>
      <trkpt lat="48.09914" lon="-3.55862">
        <ele>149</ele>
        <time>2025-02-25T12:36:08Z</time>
      </trkpt>
      <trkpt lat="48.09915" lon="-3.55861">
        <ele>148.9</ele>
        <time>2025-02-25T12:36:09Z</time>
      </trkpt>
      <trkpt lat="48.09916" lon="-3.55862">
        <ele>149</ele>
        <time>2025-02-25T12:36:10Z</time>
      </trkpt>
      <trkpt lat="48.09917" lon="-3.55862">
        <ele>149.1</ele>
        <time>2025-02-25T12:36:11Z</time>
      </trkpt>
      <trkpt lat="48.09918" lon="-3.55862">
        <ele>149.1</ele>
        <time>2025-02-25T12:36:12Z</time>
      </trkpt>
      <trkpt lat="48.09919" lon="-3.55862">
        <ele>149.1</ele>
        <time>2025-02-25T12:36:13Z</time>
      </trkpt>
      <trkpt lat="48.0992" lon="-3.55862">
        <ele>149.2</ele>
        <time>2025-02-25T12:36:14Z</time>
      </trkpt>
      <trkpt lat="48.09921" lon="-3.55861">
        <ele>149.2</ele>
        <time>2025-02-25T12:36:15Z</time>
      </trkpt>
      <trkpt lat="48.09923" lon="-3.55862">
        <ele>149.3</ele>
        <time>2025-02-25T12:36:16Z</time>
      </trkpt>
      <trkpt lat="48.09923" lon="-3.55863">
        <ele>149.4</ele>
        <time>2025-02-25T12:36:17Z</time>
      </trkpt>
      <trkpt lat="48.09925" lon="-3.55862">
        <ele>149.4</ele>
        <time>2025-02-25T12:36:18Z</time>
      </trkpt>
      <trkpt lat="48.09926" lon="-3.55862">
        <ele>149.4</ele>
        <time>2025-02-25T12:36:19Z</time>
      </trkpt>
      <trkpt lat="48.09927" lon="-3.55862">
        <ele>149.4</ele>
        <time>2025-02-25T12:36:20Z</time>
      </trkpt>
      <trkpt lat="48.09928" lon="-3.55861">
        <ele>149.4</ele>
        <time>2025-02-25T12:36:21Z</time>
      </trkpt>
      <trkpt lat="48.09929" lon="-3.55862">
        <ele>149.5</ele>
        <time>2025-02-25T12:36:22Z</time>
      </trkpt>
      <trkpt lat="48.0993" lon="-3.55862">
        <ele>149.5</ele>
        <time>2025-02-25T12:36:23Z</time>
      </trkpt>
      <trkpt lat="48.09931" lon="-3.55862">
        <ele>149.6</ele>
        <time>2025-02-25T12:36:24Z</time>
      </trkpt>
      <trkpt lat="48.09933" lon="-3.55861">
        <ele>149.6</ele>
        <time>2025-02-25T12:36:25Z</time>
      </trkpt>
      <trkpt lat="48.09934" lon="-3.55861">
        <ele>149.6</ele>
        <time>2025-02-25T12:36:26Z</time>
      </trkpt>
      <trkpt lat="48.09936" lon="-3.55861">
        <ele>149.7</ele>
        <time>2025-02-25T12:36:27Z</time>
      </trkpt>
      <trkpt lat="48.09937" lon="-3.55861">
        <ele>149.7</ele>
        <time>2025-02-25T12:36:28Z</time>
      </trkpt>
      <trkpt lat="48.09938" lon="-3.55861">
        <ele>149.8</ele>
        <time>2025-02-25T12:36:29Z</time>
      </trkpt>
      <trkpt lat="48.0994" lon="-3.5586">
        <ele>149.9</ele>
        <time>2025-02-25T12:36:30Z</time>
      </trkpt>
      <trkpt lat="48.09941" lon="-3.55861">
        <ele>149.9</ele>
        <time>2025-02-25T12:36:31Z</time>
      </trkpt>
      <trkpt lat="48.09942" lon="-3.55861">
        <ele>149.9</ele>
        <time>2025-02-25T12:36:32Z</time>
      </trkpt>
      <trkpt lat="48.09943" lon="-3.55861">
        <ele>150</ele>
        <time>2025-02-25T12:36:33Z</time>
      </trkpt>
      <trkpt lat="48.09945" lon="-3.55862">
        <ele>150.1</ele>
        <time>2025-02-25T12:36:34Z</time>
      </trkpt>
      <trkpt lat="48.09946" lon="-3.55862">
        <ele>150.1</ele>
        <time>2025-02-25T12:36:35Z</time>
      </trkpt>
      <trkpt lat="48.09947" lon="-3.55861">
        <ele>150</ele>
        <time>2025-02-25T12:36:36Z</time>
      </trkpt>
      <trkpt lat="48.09948" lon="-3.55862">
        <ele>150.1</ele>
        <time>2025-02-25T12:36:37Z</time>
      </trkpt>
      <trkpt lat="48.0995" lon="-3.55861">
        <ele>150</ele>
        <time>2025-02-25T12:36:38Z</time>
      </trkpt>
      <trkpt lat="48.09951" lon="-3.55861">
        <ele>150</ele>
        <time>2025-02-25T12:36:39Z</time>
      </trkpt>
      <trkpt lat="48.09952" lon="-3.55861">
        <ele>150</ele>
        <time>2025-02-25T12:36:40Z</time>
      </trkpt>
      <trkpt lat="48.09953" lon="-3.55861">
        <ele>150</ele>
        <time>2025-02-25T12:36:41Z</time>
      </trkpt>
      <trkpt lat="48.09954" lon="-3.55861">
        <ele>150</ele>
        <time>2025-02-25T12:36:42Z</time>
      </trkpt>
      <trkpt lat="48.09956" lon="-3.55861">
        <ele>150</ele>
        <time>2025-02-25T12:36:43Z</time>
      </trkpt>
      <trkpt lat="48.09957" lon="-3.55861">
        <ele>150</ele>
        <time>2025-02-25T12:36:44Z</time>
      </trkpt>
      <trkpt lat="48.09958" lon="-3.55861">
        <ele>150</ele>
        <time>2025-02-25T12:36:45Z</time>
      </trkpt>
      <trkpt lat="48.0996" lon="-3.55861">
        <ele>150</ele>
        <time>2025-02-25T12:36:46Z</time>
      </trkpt>
      <trkpt lat="48.09961" lon="-3.55861">
        <ele>150</ele>
        <time>2025-02-25T12:36:47Z</time>
      </trkpt>
      <trkpt lat="48.09962" lon="-3.55861">
        <ele>150</ele>
        <time>2025-02-25T12:36:48Z</time>
      </trkpt>
      <trkpt lat="48.09963" lon="-3.5586">
        <ele>150</ele>
        <time>2025-02-25T12:36:49Z</time>
      </trkpt>
      <trkpt lat="48.09964" lon="-3.55859">
        <ele>150.1</ele>
        <time>2025-02-25T12:36:50Z</time>
      </trkpt>
      <trkpt lat="48.09966" lon="-3.55859">
        <ele>150.1</ele>
        <time>2025-02-25T12:36:51Z</time>
      </trkpt>
      <trkpt lat="48.09967" lon="-3.55859">
        <ele>150.1</ele>
        <time>2025-02-25T12:36:52Z</time>
      </trkpt>
      <trkpt lat="48.09968" lon="-3.55859">
        <ele>150.1</ele>
        <time>2025-02-25T12:36:53Z</time>
      </trkpt>
      <trkpt lat="48.09969" lon="-3.55858">
        <ele>150.1</ele>
        <time>2025-02-25T12:36:54Z</time>
      </trkpt>
      <trkpt lat="48.0997" lon="-3.55858">
        <ele>150.1</ele>
        <time>2025-02-25T12:36:55Z</time>
      </trkpt>
      <trkpt lat="48.09971" lon="-3.55859">
        <ele>150.1</ele>
        <time>2025-02-25T12:36:56Z</time>
      </trkpt>
      <trkpt lat="48.09973" lon="-3.55859">
        <ele>150.1</ele>
        <time>2025-02-25T12:36:57Z</time>
      </trkpt>
      <trkpt lat="48.09974" lon="-3.55859">
        <ele>150.1</ele>
        <time>2025-02-25T12:36:58Z</time>
      </trkpt>
      <trkpt lat="48.09975" lon="-3.55859">
        <ele>150.1</ele>
        <time>2025-02-25T12:36:59Z</time>
      </trkpt>
      <trkpt lat="48.09976" lon="-3.5586">
        <ele>150</ele>
        <time>2025-02-25T12:37:00Z</time>
      </trkpt>
      <trkpt lat="48.09977" lon="-3.5586">
        <ele>150</ele>
        <time>2025-02-25T12:37:01Z</time>
      </trkpt>
      <trkpt lat="48.09978" lon="-3.5586">
        <ele>150</ele>
        <time>2025-02-25T12:37:02Z</time>
      </trkpt>
      <trkpt lat="48.09979" lon="-3.5586">
        <ele>150</ele>
        <time>2025-02-25T12:37:03Z</time>
      </trkpt>
      <trkpt lat="48.0998" lon="-3.5586">
        <ele>150</ele>
        <time>2025-02-25T12:37:04Z</time>
      </trkpt>
      <trkpt lat="48.09981" lon="-3.55859">
        <ele>150.1</ele>
        <time>2025-02-25T12:37:05Z</time>
      </trkpt>
      <trkpt lat="48.09982" lon="-3.55859">
        <ele>150.1</ele>
        <time>2025-02-25T12:37:06Z</time>
      </trkpt>
      <trkpt lat="48.09983" lon="-3.55859">
        <ele>150.1</ele>
        <time>2025-02-25T12:37:07Z</time>
      </trkpt>
      <trkpt lat="48.09984" lon="-3.55858">
        <ele>150.1</ele>
        <time>2025-02-25T12:37:08Z</time>
      </trkpt>
      <trkpt lat="48.09986" lon="-3.55858">
        <ele>150.1</ele>
        <time>2025-02-25T12:37:09Z</time>
      </trkpt>
      <trkpt lat="48.09987" lon="-3.55858">
        <ele>150.1</ele>
        <time>2025-02-25T12:37:10Z</time>
      </trkpt>
      <trkpt lat="48.09988" lon="-3.55858">
        <ele>150.1</ele>
        <time>2025-02-25T12:37:11Z</time>
      </trkpt>
      <trkpt lat="48.09989" lon="-3.55858">
        <ele>150.1</ele>
        <time>2025-02-25T12:37:12Z</time>
      </trkpt>
      <trkpt lat="48.09991" lon="-3.55857">
        <ele>150.1</ele>
        <time>2025-02-25T12:37:13Z</time>
      </trkpt>
      <trkpt lat="48.09992" lon="-3.55858">
        <ele>150.1</ele>
        <time>2025-02-25T12:37:14Z</time>
      </trkpt>
      <trkpt lat="48.09993" lon="-3.55858">
        <ele>150.1</ele>
        <time>2025-02-25T12:37:15Z</time>
      </trkpt>
      <trkpt lat="48.09994" lon="-3.55858">
        <ele>150.1</ele>
        <time>2025-02-25T12:37:16Z</time>
      </trkpt>
      <trkpt lat="48.09995" lon="-3.55857">
        <ele>150.1</ele>
        <time>2025-02-25T12:37:17Z</time>
      </trkpt>
      <trkpt lat="48.09996" lon="-3.55858">
        <ele>150.1</ele>
        <time>2025-02-25T12:37:18Z</time>
      </trkpt>
      <trkpt lat="48.09998" lon="-3.55858">
        <ele>150.1</ele>
        <time>2025-02-25T12:37:19Z</time>
      </trkpt>
      <trkpt lat="48.09999" lon="-3.55858">
        <ele>150.1</ele>
        <time>2025-02-25T12:37:20Z</time>
      </trkpt>
      <trkpt lat="48.1" lon="-3.55857">
        <ele>150.1</ele>
        <time>2025-02-25T12:37:21Z</time>
      </trkpt>
      <trkpt lat="48.10001" lon="-3.55857">
        <ele>150.2</ele>
        <time>2025-02-25T12:37:22Z</time>
      </trkpt>
      <trkpt lat="48.10003" lon="-3.55857">
        <ele>150.2</ele>
        <time>2025-02-25T12:37:23Z</time>
      </trkpt>
      <trkpt lat="48.10004" lon="-3.55858">
        <ele>150.2</ele>
        <time>2025-02-25T12:37:24Z</time>
      </trkpt>
      <trkpt lat="48.10005" lon="-3.55858">
        <ele>150.3</ele>
        <time>2025-02-25T12:37:25Z</time>
      </trkpt>
      <trkpt lat="48.10006" lon="-3.55859">
        <ele>150.3</ele>
        <time>2025-02-25T12:37:26Z</time>
      </trkpt>
      <trkpt lat="48.10008" lon="-3.55859">
        <ele>150.3</ele>
        <time>2025-02-25T12:37:27Z</time>
      </trkpt>
      <trkpt lat="48.10009" lon="-3.55859">
        <ele>150.4</ele>
        <time>2025-02-25T12:37:28Z</time>
      </trkpt>
      <trkpt lat="48.1001" lon="-3.55858">
        <ele>150.4</ele>
        <time>2025-02-25T12:37:29Z</time>
      </trkpt>
      <trkpt lat="48.10011" lon="-3.55857">
        <ele>150.5</ele>
        <time>2025-02-25T12:37:30Z</time>
      </trkpt>
      <trkpt lat="48.10013" lon="-3.55858">
        <ele>150.5</ele>
        <time>2025-02-25T12:37:31Z</time>
      </trkpt>
      <trkpt lat="48.10014" lon="-3.55858">
        <ele>150.6</ele>
        <time>2025-02-25T12:37:32Z</time>
      </trkpt>
      <trkpt lat="48.10015" lon="-3.55857">
        <ele>150.6</ele>
        <time>2025-02-25T12:37:33Z</time>
      </trkpt>
      <trkpt lat="48.10016" lon="-3.55856">
        <ele>150.7</ele>
        <time>2025-02-25T12:37:34Z</time>
      </trkpt>
      <trkpt lat="48.10017" lon="-3.55855">
        <ele>150.7</ele>
        <time>2025-02-25T12:37:35Z</time>
      </trkpt>
      <trkpt lat="48.10018" lon="-3.55854">
        <ele>150.7</ele>
        <time>2025-02-25T12:37:36Z</time>
      </trkpt>
      <trkpt lat="48.10019" lon="-3.55854">
        <ele>150.8</ele>
        <time>2025-02-25T12:37:37Z</time>
      </trkpt>
      <trkpt lat="48.1002" lon="-3.55854">
        <ele>150.8</ele>
        <time>2025-02-25T12:37:38Z</time>
      </trkpt>
      <trkpt lat="48.10022" lon="-3.55854">
        <ele>150.8</ele>
        <time>2025-02-25T12:37:39Z</time>
      </trkpt>
      <trkpt lat="48.10023" lon="-3.55855">
        <ele>150.9</ele>
        <time>2025-02-25T12:37:40Z</time>
      </trkpt>
      <trkpt lat="48.10024" lon="-3.55855">
        <ele>150.9</ele>
        <time>2025-02-25T12:37:41Z</time>
      </trkpt>
      <trkpt lat="48.10025" lon="-3.55855">
        <ele>150.9</ele>
        <time>2025-02-25T12:37:42Z</time>
      </trkpt>
      <trkpt lat="48.10026" lon="-3.55855">
        <ele>151</ele>
        <time>2025-02-25T12:37:43Z</time>
      </trkpt>
      <trkpt lat="48.10026" lon="-3.55854">
        <ele>151</ele>
        <time>2025-02-25T12:37:44Z</time>
      </trkpt>
      <trkpt lat="48.10027" lon="-3.55854">
        <ele>151</ele>
        <time>2025-02-25T12:37:45Z</time>
      </trkpt>
      <trkpt lat="48.10028" lon="-3.55854">
        <ele>151</ele>
        <time>2025-02-25T12:37:46Z</time>
      </trkpt>
      <trkpt lat="48.10029" lon="-3.55854">
        <ele>151</ele>
        <time>2025-02-25T12:37:47Z</time>
      </trkpt>
      <trkpt lat="48.1003" lon="-3.55854">
        <ele>151.1</ele>
        <time>2025-02-25T12:37:48Z</time>
      </trkpt>
      <trkpt lat="48.10031" lon="-3.55853">
        <ele>151.1</ele>
        <time>2025-02-25T12:37:49Z</time>
      </trkpt>
      <trkpt lat="48.10032" lon="-3.55853">
        <ele>151.2</ele>
        <time>2025-02-25T12:37:50Z</time>
      </trkpt>
      <trkpt lat="48.10033" lon="-3.55852">
        <ele>151.2</ele>
        <time>2025-02-25T12:37:51Z</time>
      </trkpt>
      <trkpt lat="48.10034" lon="-3.55852">
        <ele>151.2</ele>
        <time>2025-02-25T12:37:52Z</time>
      </trkpt>
      <trkpt lat="48.10035" lon="-3.55851">
        <ele>151.3</ele>
        <time>2025-02-25T12:37:53Z</time>
      </trkpt>
      <trkpt lat="48.10037" lon="-3.55851">
        <ele>151.3</ele>
        <time>2025-02-25T12:37:54Z</time>
      </trkpt>
      <trkpt lat="48.10038" lon="-3.55851">
        <ele>151.4</ele>
        <time>2025-02-25T12:37:55Z</time>
      </trkpt>
      <trkpt lat="48.10039" lon="-3.55851">
        <ele>151.4</ele>
        <time>2025-02-25T12:37:56Z</time>
      </trkpt>
      <trkpt lat="48.1004" lon="-3.55851">
        <ele>151.4</ele>
        <time>2025-02-25T12:37:57Z</time>
      </trkpt>
      <trkpt lat="48.10041" lon="-3.55852">
        <ele>151.5</ele>
        <time>2025-02-25T12:37:58Z</time>
      </trkpt>
      <trkpt lat="48.10042" lon="-3.55852">
        <ele>151.5</ele>
        <time>2025-02-25T12:37:59Z</time>
      </trkpt>
      <trkpt lat="48.10043" lon="-3.55851">
        <ele>151.5</ele>
        <time>2025-02-25T12:38:00Z</time>
      </trkpt>
      <trkpt lat="48.10044" lon="-3.55851">
        <ele>151.6</ele>
        <time>2025-02-25T12:38:01Z</time>
      </trkpt>
      <trkpt lat="48.10045" lon="-3.5585">
        <ele>151.6</ele>
        <time>2025-02-25T12:38:02Z</time>
      </trkpt>
      <trkpt lat="48.10046" lon="-3.5585">
        <ele>151.7</ele>
        <time>2025-02-25T12:38:03Z</time>
      </trkpt>
      <trkpt lat="48.10047" lon="-3.55849">
        <ele>151.7</ele>
        <time>2025-02-25T12:38:04Z</time>
      </trkpt>
      <trkpt lat="48.10048" lon="-3.55849">
        <ele>151.7</ele>
        <time>2025-02-25T12:38:05Z</time>
      </trkpt>
      <trkpt lat="48.10049" lon="-3.55848">
        <ele>151.8</ele>
        <time>2025-02-25T12:38:06Z</time>
      </trkpt>
      <trkpt lat="48.1005" lon="-3.55848">
        <ele>151.8</ele>
        <time>2025-02-25T12:38:07Z</time>
      </trkpt>
      <trkpt lat="48.10051" lon="-3.55847">
        <ele>151.8</ele>
        <time>2025-02-25T12:38:08Z</time>
      </trkpt>
      <trkpt lat="48.10053" lon="-3.55847">
        <ele>151.9</ele>
        <time>2025-02-25T12:38:09Z</time>
      </trkpt>
      <trkpt lat="48.10054" lon="-3.55847">
        <ele>151.9</ele>
        <time>2025-02-25T12:38:10Z</time>
      </trkpt>
      <trkpt lat="48.10055" lon="-3.55847">
        <ele>152</ele>
        <time>2025-02-25T12:38:11Z</time>
      </trkpt>
      <trkpt lat="48.10056" lon="-3.55847">
        <ele>152</ele>
        <time>2025-02-25T12:38:12Z</time>
      </trkpt>
      <trkpt lat="48.10057" lon="-3.55848">
        <ele>152.1</ele>
        <time>2025-02-25T12:38:13Z</time>
      </trkpt>
      <trkpt lat="48.10058" lon="-3.55847">
        <ele>152.1</ele>
        <time>2025-02-25T12:38:14Z</time>
      </trkpt>
      <trkpt lat="48.10059" lon="-3.55846">
        <ele>152.1</ele>
        <time>2025-02-25T12:38:15Z</time>
      </trkpt>
      <trkpt lat="48.1006" lon="-3.55846">
        <ele>152.2</ele>
        <time>2025-02-25T12:38:16Z</time>
      </trkpt>
      <trkpt lat="48.10062" lon="-3.55845">
        <ele>152.2</ele>
        <time>2025-02-25T12:38:17Z</time>
      </trkpt>
      <trkpt lat="48.10063" lon="-3.55845">
        <ele>152.3</ele>
        <time>2025-02-25T12:38:18Z</time>
      </trkpt>
      <trkpt lat="48.10064" lon="-3.55845">
        <ele>152.3</ele>
        <time>2025-02-25T12:38:19Z</time>
      </trkpt>
      <trkpt lat="48.10065" lon="-3.55845">
        <ele>152.3</ele>
        <time>2025-02-25T12:38:20Z</time>
      </trkpt>
      <trkpt lat="48.10066" lon="-3.55844">
        <ele>152.4</ele>
        <time>2025-02-25T12:38:21Z</time>
      </trkpt>
      <trkpt lat="48.10067" lon="-3.55844">
        <ele>152.4</ele>
        <time>2025-02-25T12:38:22Z</time>
      </trkpt>
      <trkpt lat="48.10068" lon="-3.55843">
        <ele>152.4</ele>
        <time>2025-02-25T12:38:23Z</time>
      </trkpt>
      <trkpt lat="48.10069" lon="-3.55842">
        <ele>152.5</ele>
        <time>2025-02-25T12:38:24Z</time>
      </trkpt>
      <trkpt lat="48.1007" lon="-3.55841">
        <ele>152.5</ele>
        <time>2025-02-25T12:38:25Z</time>
      </trkpt>
      <trkpt lat="48.10071" lon="-3.5584">
        <ele>152.6</ele>
        <time>2025-02-25T12:38:26Z</time>
      </trkpt>
      <trkpt lat="48.10072" lon="-3.55839">
        <ele>152.6</ele>
        <time>2025-02-25T12:38:27Z</time>
      </trkpt>
      <trkpt lat="48.10073" lon="-3.55839">
        <ele>152.6</ele>
        <time>2025-02-25T12:38:28Z</time>
      </trkpt>
      <trkpt lat="48.10074" lon="-3.55837">
        <ele>152.7</ele>
        <time>2025-02-25T12:38:29Z</time>
      </trkpt>
      <trkpt lat="48.10075" lon="-3.55836">
        <ele>152.7</ele>
        <time>2025-02-25T12:38:30Z</time>
      </trkpt>
      <trkpt lat="48.10076" lon="-3.55835">
        <ele>152.7</ele>
        <time>2025-02-25T12:38:31Z</time>
      </trkpt>
      <trkpt lat="48.10077" lon="-3.55834">
        <ele>152.8</ele>
        <time>2025-02-25T12:38:32Z</time>
      </trkpt>
      <trkpt lat="48.10078" lon="-3.55833">
        <ele>152.8</ele>
        <time>2025-02-25T12:38:33Z</time>
      </trkpt>
      <trkpt lat="48.10079" lon="-3.55832">
        <ele>152.9</ele>
        <time>2025-02-25T12:38:34Z</time>
      </trkpt>
      <trkpt lat="48.1008" lon="-3.55832">
        <ele>152.9</ele>
        <time>2025-02-25T12:38:35Z</time>
      </trkpt>
      <trkpt lat="48.10081" lon="-3.55831">
        <ele>153</ele>
        <time>2025-02-25T12:38:36Z</time>
      </trkpt>
      <trkpt lat="48.10082" lon="-3.55831">
        <ele>153</ele>
        <time>2025-02-25T12:38:37Z</time>
      </trkpt>
      <trkpt lat="48.10083" lon="-3.55831">
        <ele>153</ele>
        <time>2025-02-25T12:38:38Z</time>
      </trkpt>
      <trkpt lat="48.10084" lon="-3.55829">
        <ele>153</ele>
        <time>2025-02-25T12:38:39Z</time>
      </trkpt>
      <trkpt lat="48.10085" lon="-3.55829">
        <ele>153.1</ele>
        <time>2025-02-25T12:38:40Z</time>
      </trkpt>
      <trkpt lat="48.10086" lon="-3.55828">
        <ele>153.1</ele>
        <time>2025-02-25T12:38:41Z</time>
      </trkpt>
      <trkpt lat="48.10087" lon="-3.55827">
        <ele>153.1</ele>
        <time>2025-02-25T12:38:42Z</time>
      </trkpt>
      <trkpt lat="48.10087" lon="-3.55826">
        <ele>153.1</ele>
        <time>2025-02-25T12:38:43Z</time>
      </trkpt>
      <trkpt lat="48.10088" lon="-3.55824">
        <ele>153.1</ele>
        <time>2025-02-25T12:38:44Z</time>
      </trkpt>
      <trkpt lat="48.10088" lon="-3.55823">
        <ele>153.1</ele>
        <time>2025-02-25T12:38:45Z</time>
      </trkpt>
      <trkpt lat="48.10089" lon="-3.55822">
        <ele>153.1</ele>
        <time>2025-02-25T12:38:46Z</time>
      </trkpt>
      <trkpt lat="48.1009" lon="-3.55821">
        <ele>153.1</ele>
        <time>2025-02-25T12:38:47Z</time>
      </trkpt>
      <trkpt lat="48.10091" lon="-3.5582">
        <ele>153.1</ele>
        <time>2025-02-25T12:38:48Z</time>
      </trkpt>
      <trkpt lat="48.10092" lon="-3.55819">
        <ele>153.2</ele>
        <time>2025-02-25T12:38:49Z</time>
      </trkpt>
      <trkpt lat="48.10093" lon="-3.55818">
        <ele>153.2</ele>
        <time>2025-02-25T12:38:50Z</time>
      </trkpt>
      <trkpt lat="48.10094" lon="-3.55817">
        <ele>153.2</ele>
        <time>2025-02-25T12:38:51Z</time>
      </trkpt>
      <trkpt lat="48.10096" lon="-3.55817">
        <ele>153.2</ele>
        <time>2025-02-25T12:38:52Z</time>
      </trkpt>
      <trkpt lat="48.10097" lon="-3.55817">
        <ele>153.2</ele>
        <time>2025-02-25T12:38:53Z</time>
      </trkpt>
      <trkpt lat="48.10098" lon="-3.55814">
        <ele>153.2</ele>
        <time>2025-02-25T12:38:54Z</time>
      </trkpt>
      <trkpt lat="48.10098" lon="-3.55813">
        <ele>153.1</ele>
        <time>2025-02-25T12:38:55Z</time>
      </trkpt>
      <trkpt lat="48.10099" lon="-3.55813">
        <ele>153.2</ele>
        <time>2025-02-25T12:38:56Z</time>
      </trkpt>
      <trkpt lat="48.101" lon="-3.55812">
        <ele>153.1</ele>
        <time>2025-02-25T12:38:57Z</time>
      </trkpt>
      <trkpt lat="48.10101" lon="-3.55811">
        <ele>153.1</ele>
        <time>2025-02-25T12:38:58Z</time>
      </trkpt>
      <trkpt lat="48.10102" lon="-3.5581">
        <ele>153.1</ele>
        <time>2025-02-25T12:38:59Z</time>
      </trkpt>
      <trkpt lat="48.10103" lon="-3.55811">
        <ele>153.1</ele>
        <time>2025-02-25T12:39:00Z</time>
      </trkpt>
      <trkpt lat="48.10103" lon="-3.55811">
        <ele>153.1</ele>
        <time>2025-02-25T12:39:01Z</time>
      </trkpt>
      <trkpt lat="48.10103" lon="-3.55811">
        <ele>153.1</ele>
        <time>2025-02-25T12:39:02Z</time>
      </trkpt>
      <trkpt lat="48.10103" lon="-3.55812">
        <ele>153.2</ele>
        <time>2025-02-25T12:39:03Z</time>
      </trkpt>
      <trkpt lat="48.10103" lon="-3.55811">
        <ele>153.1</ele>
        <time>2025-02-25T12:39:04Z</time>
      </trkpt>
      <trkpt lat="48.10104" lon="-3.55811">
        <ele>153.1</ele>
        <time>2025-02-25T12:39:05Z</time>
      </trkpt>
      <trkpt lat="48.10105" lon="-3.5581">
        <ele>153.1</ele>
        <time>2025-02-25T12:39:06Z</time>
      </trkpt>
      <trkpt lat="48.10105" lon="-3.55809">
        <ele>153.1</ele>
        <time>2025-02-25T12:39:07Z</time>
      </trkpt>
      <trkpt lat="48.10106" lon="-3.55808">
        <ele>153.1</ele>
        <time>2025-02-25T12:39:08Z</time>
      </trkpt>
      <trkpt lat="48.10107" lon="-3.55808">
        <ele>153.1</ele>
        <time>2025-02-25T12:39:09Z</time>
      </trkpt>
      <trkpt lat="48.10108" lon="-3.55808">
        <ele>153.1</ele>
        <time>2025-02-25T12:39:10Z</time>
      </trkpt>
      <trkpt lat="48.10109" lon="-3.55808">
        <ele>153.1</ele>
        <time>2025-02-25T12:39:11Z</time>
      </trkpt>
      <trkpt lat="48.1011" lon="-3.55807">
        <ele>153</ele>
        <time>2025-02-25T12:39:12Z</time>
      </trkpt>
      <trkpt lat="48.1011" lon="-3.55805">
        <ele>153</ele>
        <time>2025-02-25T12:39:13Z</time>
      </trkpt>
      <trkpt lat="48.1011" lon="-3.55803">
        <ele>153</ele>
        <time>2025-02-25T12:39:14Z</time>
      </trkpt>
      <trkpt lat="48.1011" lon="-3.55801">
        <ele>153</ele>
        <time>2025-02-25T12:39:15Z</time>
      </trkpt>
      <trkpt lat="48.10111" lon="-3.558">
        <ele>153</ele>
        <time>2025-02-25T12:39:16Z</time>
      </trkpt>
      <trkpt lat="48.10112" lon="-3.55798">
        <ele>153.1</ele>
        <time>2025-02-25T12:39:17Z</time>
      </trkpt>
      <trkpt lat="48.10113" lon="-3.55798">
        <ele>153.2</ele>
        <time>2025-02-25T12:39:18Z</time>
      </trkpt>
      <trkpt lat="48.10114" lon="-3.55797">
        <ele>153.2</ele>
        <time>2025-02-25T12:39:19Z</time>
      </trkpt>
      <trkpt lat="48.10114" lon="-3.55796">
        <ele>153.2</ele>
        <time>2025-02-25T12:39:20Z</time>
      </trkpt>
      <trkpt lat="48.10115" lon="-3.55795">
        <ele>153.3</ele>
        <time>2025-02-25T12:39:21Z</time>
      </trkpt>
      <trkpt lat="48.10116" lon="-3.55794">
        <ele>153.4</ele>
        <time>2025-02-25T12:39:22Z</time>
      </trkpt>
      <trkpt lat="48.10117" lon="-3.55794">
        <ele>153.5</ele>
        <time>2025-02-25T12:39:23Z</time>
      </trkpt>
      <trkpt lat="48.10118" lon="-3.55792">
        <ele>153.5</ele>
        <time>2025-02-25T12:39:24Z</time>
      </trkpt>
      <trkpt lat="48.10118" lon="-3.55791">
        <ele>153.5</ele>
        <time>2025-02-25T12:39:25Z</time>
      </trkpt>
      <trkpt lat="48.10119" lon="-3.5579">
        <ele>153.5</ele>
        <time>2025-02-25T12:39:26Z</time>
      </trkpt>
      <trkpt lat="48.1012" lon="-3.55789">
        <ele>153.6</ele>
        <time>2025-02-25T12:39:27Z</time>
      </trkpt>
      <trkpt lat="48.10121" lon="-3.55787">
        <ele>153.6</ele>
        <time>2025-02-25T12:39:28Z</time>
      </trkpt>
      <trkpt lat="48.10122" lon="-3.55786">
        <ele>153.6</ele>
        <time>2025-02-25T12:39:29Z</time>
      </trkpt>
      <trkpt lat="48.10123" lon="-3.55785">
        <ele>153.7</ele>
        <time>2025-02-25T12:39:30Z</time>
      </trkpt>
      <trkpt lat="48.10124" lon="-3.55783">
        <ele>153.6</ele>
        <time>2025-02-25T12:39:31Z</time>
      </trkpt>
      <trkpt lat="48.10125" lon="-3.55781">
        <ele>153.6</ele>
        <time>2025-02-25T12:39:32Z</time>
      </trkpt>
      <trkpt lat="48.10126" lon="-3.55779">
        <ele>153.6</ele>
        <time>2025-02-25T12:39:33Z</time>
      </trkpt>
      <trkpt lat="48.10127" lon="-3.55778">
        <ele>153.6</ele>
        <time>2025-02-25T12:39:34Z</time>
      </trkpt>
      <trkpt lat="48.10128" lon="-3.55776">
        <ele>153.7</ele>
        <time>2025-02-25T12:39:35Z</time>
      </trkpt>
      <trkpt lat="48.10128" lon="-3.55775">
        <ele>153.8</ele>
        <time>2025-02-25T12:39:36Z</time>
      </trkpt>
      <trkpt lat="48.10129" lon="-3.55773">
        <ele>153.9</ele>
        <time>2025-02-25T12:39:37Z</time>
      </trkpt>
      <trkpt lat="48.10128" lon="-3.55771">
        <ele>154</ele>
        <time>2025-02-25T12:39:38Z</time>
      </trkpt>
      <trkpt lat="48.10129" lon="-3.55769">
        <ele>154.2</ele>
        <time>2025-02-25T12:39:39Z</time>
      </trkpt>
      <trkpt lat="48.10129" lon="-3.55768">
        <ele>154.2</ele>
        <time>2025-02-25T12:39:40Z</time>
      </trkpt>
      <trkpt lat="48.1013" lon="-3.55767">
        <ele>154.3</ele>
        <time>2025-02-25T12:39:41Z</time>
      </trkpt>
      <trkpt lat="48.10131" lon="-3.55765">
        <ele>154.4</ele>
        <time>2025-02-25T12:39:42Z</time>
      </trkpt>
      <trkpt lat="48.10131" lon="-3.55764">
        <ele>154.5</ele>
        <time>2025-02-25T12:39:43Z</time>
      </trkpt>
      <trkpt lat="48.10131" lon="-3.55763">
        <ele>154.6</ele>
        <time>2025-02-25T12:39:44Z</time>
      </trkpt>
      <trkpt lat="48.10131" lon="-3.55762">
        <ele>154.6</ele>
        <time>2025-02-25T12:39:45Z</time>
      </trkpt>
      <trkpt lat="48.10131" lon="-3.55761">
        <ele>154.7</ele>
        <time>2025-02-25T12:39:46Z</time>
      </trkpt>
      <trkpt lat="48.10132" lon="-3.55759">
        <ele>154.8</ele>
        <time>2025-02-25T12:39:47Z</time>
      </trkpt>
      <trkpt lat="48.10132" lon="-3.55757">
        <ele>154.9</ele>
        <time>2025-02-25T12:39:48Z</time>
      </trkpt>
      <trkpt lat="48.10132" lon="-3.55756">
        <ele>154.9</ele>
        <time>2025-02-25T12:39:49Z</time>
      </trkpt>
      <trkpt lat="48.10133" lon="-3.55754">
        <ele>155</ele>
        <time>2025-02-25T12:39:50Z</time>
      </trkpt>
      <trkpt lat="48.10133" lon="-3.55754">
        <ele>155</ele>
        <time>2025-02-25T12:39:51Z</time>
      </trkpt>
      <trkpt lat="48.10134" lon="-3.55753">
        <ele>155</ele>
        <time>2025-02-25T12:39:52Z</time>
      </trkpt>
      <trkpt lat="48.10134" lon="-3.55753">
        <ele>155</ele>
        <time>2025-02-25T12:39:53Z</time>
      </trkpt>
      <trkpt lat="48.10134" lon="-3.55753">
        <ele>155</ele>
        <time>2025-02-25T12:39:54Z</time>
      </trkpt>
      <trkpt lat="48.10134" lon="-3.55753">
        <ele>155</ele>
        <time>2025-02-25T12:39:55Z</time>
      </trkpt>
      <trkpt lat="48.10134" lon="-3.55753">
        <ele>155</ele>
        <time>2025-02-25T12:39:56Z</time>
      </trkpt>
      <trkpt lat="48.10134" lon="-3.55753">
        <ele>155</ele>
        <time>2025-02-25T12:39:57Z</time>
      </trkpt>
      <trkpt lat="48.10134" lon="-3.55753">
        <ele>155</ele>
        <time>2025-02-25T12:39:58Z</time>
      </trkpt>
      <trkpt lat="48.10134" lon="-3.55753">
        <ele>155</ele>
        <time>2025-02-25T12:39:59Z</time>
      </trkpt>
      <trkpt lat="48.10134" lon="-3.55753">
        <ele>155</ele>
        <time>2025-02-25T12:40:00Z</time>
      </trkpt>
      <trkpt lat="48.10134" lon="-3.55753">
        <ele>155</ele>
        <time>2025-02-25T12:40:01Z</time>
      </trkpt>
      <trkpt lat="48.10134" lon="-3.55753">
        <ele>155</ele>
        <time>2025-02-25T12:40:02Z</time>
      </trkpt>
      <trkpt lat="48.10134" lon="-3.55753">
        <ele>155</ele>
        <time>2025-02-25T12:40:03Z</time>
      </trkpt>
      <trkpt lat="48.10134" lon="-3.55753">
        <ele>155</ele>
        <time>2025-02-25T12:40:04Z</time>
      </trkpt>
      <trkpt lat="48.10134" lon="-3.55753">
        <ele>155</ele>
        <time>2025-02-25T12:40:05Z</time>
      </trkpt>
      <trkpt lat="48.10134" lon="-3.55753">
        <ele>155</ele>
        <time>2025-02-25T12:40:06Z</time>
      </trkpt>
      <trkpt lat="48.10134" lon="-3.55753">
        <ele>155</ele>
        <time>2025-02-25T12:40:07Z</time>
      </trkpt>
      <trkpt lat="48.10134" lon="-3.55753">
        <ele>155</ele>
        <time>2025-02-25T12:40:08Z</time>
      </trkpt>
      <trkpt lat="48.10134" lon="-3.55752">
        <ele>155.1</ele>
        <time>2025-02-25T12:40:09Z</time>
      </trkpt>
      <trkpt lat="48.10134" lon="-3.55752">
        <ele>155.1</ele>
        <time>2025-02-25T12:40:10Z</time>
      </trkpt>
      <trkpt lat="48.10133" lon="-3.5575">
        <ele>155.2</ele>
        <time>2025-02-25T12:40:11Z</time>
      </trkpt>
      <trkpt lat="48.10132" lon="-3.5575">
        <ele>155.2</ele>
        <time>2025-02-25T12:40:12Z</time>
      </trkpt>
      <trkpt lat="48.10132" lon="-3.5575">
        <ele>155.2</ele>
        <time>2025-02-25T12:40:13Z</time>
      </trkpt>
      <trkpt lat="48.10132" lon="-3.55749">
        <ele>155.3</ele>
        <time>2025-02-25T12:40:14Z</time>
      </trkpt>
      <trkpt lat="48.10131" lon="-3.55748">
        <ele>155.5</ele>
        <time>2025-02-25T12:40:15Z</time>
      </trkpt>
      <trkpt lat="48.10131" lon="-3.55749">
        <ele>155.4</ele>
        <time>2025-02-25T12:40:16Z</time>
      </trkpt>
      <trkpt lat="48.10131" lon="-3.55749">
        <ele>155.4</ele>
        <time>2025-02-25T12:40:17Z</time>
      </trkpt>
      <trkpt lat="48.10131" lon="-3.55749">
        <ele>155.4</ele>
        <time>2025-02-25T12:40:18Z</time>
      </trkpt>
      <trkpt lat="48.10132" lon="-3.55749">
        <ele>155.3</ele>
        <time>2025-02-25T12:40:19Z</time>
      </trkpt>
      <trkpt lat="48.10132" lon="-3.55748">
        <ele>155.4</ele>
        <time>2025-02-25T12:40:20Z</time>
      </trkpt>
      <trkpt lat="48.10132" lon="-3.55747">
        <ele>155.5</ele>
        <time>2025-02-25T12:40:21Z</time>
      </trkpt>
      <trkpt lat="48.10132" lon="-3.55745">
        <ele>155.7</ele>
        <time>2025-02-25T12:40:22Z</time>
      </trkpt>
      <trkpt lat="48.10132" lon="-3.55745">
        <ele>155.7</ele>
        <time>2025-02-25T12:40:23Z</time>
      </trkpt>
      <trkpt lat="48.10132" lon="-3.55745">
        <ele>155.7</ele>
        <time>2025-02-25T12:40:24Z</time>
      </trkpt>
      <trkpt lat="48.10133" lon="-3.55746">
        <ele>155.6</ele>
        <time>2025-02-25T12:40:25Z</time>
      </trkpt>
      <trkpt lat="48.10133" lon="-3.55746">
        <ele>155.6</ele>
        <time>2025-02-25T12:40:26Z</time>
      </trkpt>
      <trkpt lat="48.10133" lon="-3.55746">
        <ele>155.6</ele>
        <time>2025-02-25T12:40:27Z</time>
      </trkpt>
      <trkpt lat="48.10133" lon="-3.55745">
        <ele>155.7</ele>
        <time>2025-02-25T12:40:28Z</time>
      </trkpt>
      <trkpt lat="48.10133" lon="-3.55745">
        <ele>155.7</ele>
        <time>2025-02-25T12:40:29Z</time>
      </trkpt>
      <trkpt lat="48.10133" lon="-3.55744">
        <ele>155.8</ele>
        <time>2025-02-25T12:40:30Z</time>
      </trkpt>
      <trkpt lat="48.10133" lon="-3.55741">
        <ele>156.1</ele>
        <time>2025-02-25T12:40:31Z</time>
      </trkpt>
      <trkpt lat="48.10132" lon="-3.5574">
        <ele>156.2</ele>
        <time>2025-02-25T12:40:32Z</time>
      </trkpt>
      <trkpt lat="48.10131" lon="-3.55739">
        <ele>156.4</ele>
        <time>2025-02-25T12:40:33Z</time>
      </trkpt>
      <trkpt lat="48.10131" lon="-3.55739">
        <ele>156.4</ele>
        <time>2025-02-25T12:40:34Z</time>
      </trkpt>
      <trkpt lat="48.1013" lon="-3.55736">
        <ele>156.8</ele>
        <time>2025-02-25T12:40:35Z</time>
      </trkpt>
      <trkpt lat="48.1013" lon="-3.55734">
        <ele>157</ele>
        <time>2025-02-25T12:40:36Z</time>
      </trkpt>
      <trkpt lat="48.1013" lon="-3.55733">
        <ele>157.1</ele>
        <time>2025-02-25T12:40:37Z</time>
      </trkpt>
      <trkpt lat="48.1013" lon="-3.55732">
        <ele>157.2</ele>
        <time>2025-02-25T12:40:38Z</time>
      </trkpt>
      <trkpt lat="48.10131" lon="-3.55731">
        <ele>157.2</ele>
        <time>2025-02-25T12:40:39Z</time>
      </trkpt>
      <trkpt lat="48.10131" lon="-3.55729">
        <ele>157.4</ele>
        <time>2025-02-25T12:40:40Z</time>
      </trkpt>
      <trkpt lat="48.10131" lon="-3.55728">
        <ele>157.5</ele>
        <time>2025-02-25T12:40:41Z</time>
      </trkpt>
      <trkpt lat="48.10131" lon="-3.55727">
        <ele>157.6</ele>
        <time>2025-02-25T12:40:42Z</time>
      </trkpt>
      <trkpt lat="48.10131" lon="-3.55727">
        <ele>157.6</ele>
        <time>2025-02-25T12:40:43Z</time>
      </trkpt>
      <trkpt lat="48.10131" lon="-3.55727">
        <ele>157.6</ele>
        <time>2025-02-25T12:40:44Z</time>
      </trkpt>
      <trkpt lat="48.10131" lon="-3.55726">
        <ele>157.7</ele>
        <time>2025-02-25T12:40:45Z</time>
      </trkpt>
      <trkpt lat="48.10132" lon="-3.55724">
        <ele>157.8</ele>
        <time>2025-02-25T12:40:46Z</time>
      </trkpt>
      <trkpt lat="48.10132" lon="-3.55724">
        <ele>157.8</ele>
        <time>2025-02-25T12:40:47Z</time>
      </trkpt>
      <trkpt lat="48.10133" lon="-3.55723">
        <ele>157.8</ele>
        <time>2025-02-25T12:40:48Z</time>
      </trkpt>
      <trkpt lat="48.10134" lon="-3.55723">
        <ele>157.6</ele>
        <time>2025-02-25T12:40:49Z</time>
      </trkpt>
      <trkpt lat="48.10134" lon="-3.55722">
        <ele>157.7</ele>
        <time>2025-02-25T12:40:50Z</time>
      </trkpt>
      <trkpt lat="48.10134" lon="-3.55721">
        <ele>157.9</ele>
        <time>2025-02-25T12:40:51Z</time>
      </trkpt>
      <trkpt lat="48.10135" lon="-3.5572">
        <ele>157.9</ele>
        <time>2025-02-25T12:40:52Z</time>
      </trkpt>
      <trkpt lat="48.10135" lon="-3.55719">
        <ele>158</ele>
        <time>2025-02-25T12:40:53Z</time>
      </trkpt>
      <trkpt lat="48.10135" lon="-3.55717">
        <ele>158.3</ele>
        <time>2025-02-25T12:40:54Z</time>
      </trkpt>
      <trkpt lat="48.10136" lon="-3.55716">
        <ele>158.3</ele>
        <time>2025-02-25T12:40:55Z</time>
      </trkpt>
      <trkpt lat="48.10136" lon="-3.55715">
        <ele>158.5</ele>
        <time>2025-02-25T12:40:56Z</time>
      </trkpt>
      <trkpt lat="48.10136" lon="-3.55714">
        <ele>158.6</ele>
        <time>2025-02-25T12:40:57Z</time>
      </trkpt>
      <trkpt lat="48.10137" lon="-3.55713">
        <ele>158.6</ele>
        <time>2025-02-25T12:40:58Z</time>
      </trkpt>
      <trkpt lat="48.10137" lon="-3.55711">
        <ele>158.9</ele>
        <time>2025-02-25T12:40:59Z</time>
      </trkpt>
      <trkpt lat="48.10138" lon="-3.5571">
        <ele>158.9</ele>
        <time>2025-02-25T12:41:00Z</time>
      </trkpt>
      <trkpt lat="48.10139" lon="-3.55708">
        <ele>159</ele>
        <time>2025-02-25T12:41:01Z</time>
      </trkpt>
      <trkpt lat="48.10139" lon="-3.55707">
        <ele>159.2</ele>
        <time>2025-02-25T12:41:02Z</time>
      </trkpt>
      <trkpt lat="48.1014" lon="-3.55706">
        <ele>159.4</ele>
        <time>2025-02-25T12:41:03Z</time>
      </trkpt>
      <trkpt lat="48.1014" lon="-3.55705">
        <ele>159.5</ele>
        <time>2025-02-25T12:41:04Z</time>
      </trkpt>
      <trkpt lat="48.10141" lon="-3.55704">
        <ele>159.7</ele>
        <time>2025-02-25T12:41:05Z</time>
      </trkpt>
      <trkpt lat="48.10141" lon="-3.55702">
        <ele>159.9</ele>
        <time>2025-02-25T12:41:06Z</time>
      </trkpt>
      <trkpt lat="48.10141" lon="-3.55701">
        <ele>160.1</ele>
        <time>2025-02-25T12:41:07Z</time>
      </trkpt>
      <trkpt lat="48.10141" lon="-3.557">
        <ele>160.2</ele>
        <time>2025-02-25T12:41:08Z</time>
      </trkpt>
      <trkpt lat="48.10141" lon="-3.55699">
        <ele>160.4</ele>
        <time>2025-02-25T12:41:09Z</time>
      </trkpt>
      <trkpt lat="48.10141" lon="-3.55697">
        <ele>160.6</ele>
        <time>2025-02-25T12:41:10Z</time>
      </trkpt>
      <trkpt lat="48.10141" lon="-3.55696">
        <ele>160.8</ele>
        <time>2025-02-25T12:41:11Z</time>
      </trkpt>
      <trkpt lat="48.10142" lon="-3.55694">
        <ele>161</ele>
        <time>2025-02-25T12:41:12Z</time>
      </trkpt>
      <trkpt lat="48.10141" lon="-3.55694">
        <ele>161</ele>
        <time>2025-02-25T12:41:13Z</time>
      </trkpt>
      <trkpt lat="48.1014" lon="-3.55693">
        <ele>161.2</ele>
        <time>2025-02-25T12:41:14Z</time>
      </trkpt>
      <trkpt lat="48.10141" lon="-3.55693">
        <ele>161.2</ele>
        <time>2025-02-25T12:41:15Z</time>
      </trkpt>
      <trkpt lat="48.10141" lon="-3.55691">
        <ele>161.4</ele>
        <time>2025-02-25T12:41:16Z</time>
      </trkpt>
      <trkpt lat="48.10141" lon="-3.55689">
        <ele>161.6</ele>
        <time>2025-02-25T12:41:17Z</time>
      </trkpt>
      <trkpt lat="48.10141" lon="-3.55688">
        <ele>161.7</ele>
        <time>2025-02-25T12:41:18Z</time>
      </trkpt>
      <trkpt lat="48.10141" lon="-3.55686">
        <ele>161.9</ele>
        <time>2025-02-25T12:41:19Z</time>
      </trkpt>
      <trkpt lat="48.10141" lon="-3.55685">
        <ele>162</ele>
        <time>2025-02-25T12:41:20Z</time>
      </trkpt>
      <trkpt lat="48.10141" lon="-3.55684">
        <ele>162.1</ele>
        <time>2025-02-25T12:41:21Z</time>
      </trkpt>
      <trkpt lat="48.10142" lon="-3.55682">
        <ele>162.3</ele>
        <time>2025-02-25T12:41:22Z</time>
      </trkpt>
      <trkpt lat="48.10142" lon="-3.55681">
        <ele>162.4</ele>
        <time>2025-02-25T12:41:23Z</time>
      </trkpt>
      <trkpt lat="48.10143" lon="-3.5568">
        <ele>162.5</ele>
        <time>2025-02-25T12:41:24Z</time>
      </trkpt>
      <trkpt lat="48.10144" lon="-3.55679">
        <ele>162.6</ele>
        <time>2025-02-25T12:41:25Z</time>
      </trkpt>
      <trkpt lat="48.10144" lon="-3.55677">
        <ele>162.8</ele>
        <time>2025-02-25T12:41:26Z</time>
      </trkpt>
      <trkpt lat="48.10144" lon="-3.55676">
        <ele>162.9</ele>
        <time>2025-02-25T12:41:27Z</time>
      </trkpt>
      <trkpt lat="48.10144" lon="-3.55674">
        <ele>163.1</ele>
        <time>2025-02-25T12:41:28Z</time>
      </trkpt>
      <trkpt lat="48.10144" lon="-3.55673">
        <ele>163.2</ele>
        <time>2025-02-25T12:41:29Z</time>
      </trkpt>
      <trkpt lat="48.10144" lon="-3.55671">
        <ele>163.4</ele>
        <time>2025-02-25T12:41:30Z</time>
      </trkpt>
      <trkpt lat="48.10143" lon="-3.55669">
        <ele>163.6</ele>
        <time>2025-02-25T12:41:31Z</time>
      </trkpt>
      <trkpt lat="48.10143" lon="-3.55668">
        <ele>163.7</ele>
        <time>2025-02-25T12:41:32Z</time>
      </trkpt>
      <trkpt lat="48.10142" lon="-3.55667">
        <ele>163.9</ele>
        <time>2025-02-25T12:41:33Z</time>
      </trkpt>
      <trkpt lat="48.10142" lon="-3.55665">
        <ele>164.1</ele>
        <time>2025-02-25T12:41:34Z</time>
      </trkpt>
      <trkpt lat="48.10142" lon="-3.55664">
        <ele>164.2</ele>
        <time>2025-02-25T12:41:35Z</time>
      </trkpt>
      <trkpt lat="48.10142" lon="-3.55663">
        <ele>164.3</ele>
        <time>2025-02-25T12:41:36Z</time>
      </trkpt>
      <trkpt lat="48.10142" lon="-3.55662">
        <ele>164.4</ele>
        <time>2025-02-25T12:41:37Z</time>
      </trkpt>
      <trkpt lat="48.10142" lon="-3.55661">
        <ele>164.5</ele>
        <time>2025-02-25T12:41:38Z</time>
      </trkpt>
      <trkpt lat="48.10142" lon="-3.5566">
        <ele>164.6</ele>
        <time>2025-02-25T12:41:39Z</time>
      </trkpt>
      <trkpt lat="48.10142" lon="-3.55659">
        <ele>164.7</ele>
        <time>2025-02-25T12:41:40Z</time>
      </trkpt>
      <trkpt lat="48.10142" lon="-3.55658">
        <ele>164.8</ele>
        <time>2025-02-25T12:41:41Z</time>
      </trkpt>
      <trkpt lat="48.10142" lon="-3.55657">
        <ele>164.9</ele>
        <time>2025-02-25T12:41:42Z</time>
      </trkpt>
      <trkpt lat="48.10142" lon="-3.55656">
        <ele>165</ele>
        <time>2025-02-25T12:41:43Z</time>
      </trkpt>
      <trkpt lat="48.10141" lon="-3.55656">
        <ele>165</ele>
        <time>2025-02-25T12:41:44Z</time>
      </trkpt>
      <trkpt lat="48.10141" lon="-3.55655">
        <ele>165.1</ele>
        <time>2025-02-25T12:41:45Z</time>
      </trkpt>
      <trkpt lat="48.10141" lon="-3.55654">
        <ele>165.2</ele>
        <time>2025-02-25T12:41:46Z</time>
      </trkpt>
      <trkpt lat="48.10142" lon="-3.55652">
        <ele>165.4</ele>
        <time>2025-02-25T12:41:47Z</time>
      </trkpt>
      <trkpt lat="48.10142" lon="-3.55651">
        <ele>165.5</ele>
        <time>2025-02-25T12:41:48Z</time>
      </trkpt>
      <trkpt lat="48.10142" lon="-3.55649">
        <ele>165.7</ele>
        <time>2025-02-25T12:41:49Z</time>
      </trkpt>
      <trkpt lat="48.10143" lon="-3.55648">
        <ele>165.7</ele>
        <time>2025-02-25T12:41:50Z</time>
      </trkpt>
      <trkpt lat="48.10143" lon="-3.55646">
        <ele>165.9</ele>
        <time>2025-02-25T12:41:51Z</time>
      </trkpt>
      <trkpt lat="48.10143" lon="-3.55645">
        <ele>166</ele>
        <time>2025-02-25T12:41:52Z</time>
      </trkpt>
      <trkpt lat="48.10143" lon="-3.55644">
        <ele>166.1</ele>
        <time>2025-02-25T12:41:53Z</time>
      </trkpt>
      <trkpt lat="48.10144" lon="-3.55643">
        <ele>166.1</ele>
        <time>2025-02-25T12:41:54Z</time>
      </trkpt>
      <trkpt lat="48.10144" lon="-3.55641">
        <ele>166.2</ele>
        <time>2025-02-25T12:41:55Z</time>
      </trkpt>
      <trkpt lat="48.10144" lon="-3.5564">
        <ele>166.3</ele>
        <time>2025-02-25T12:41:56Z</time>
      </trkpt>
      <trkpt lat="48.10145" lon="-3.55639">
        <ele>166.3</ele>
        <time>2025-02-25T12:41:57Z</time>
      </trkpt>
      <trkpt lat="48.10145" lon="-3.55638">
        <ele>166.4</ele>
        <time>2025-02-25T12:41:58Z</time>
      </trkpt>
      <trkpt lat="48.10145" lon="-3.55636">
        <ele>166.6</ele>
        <time>2025-02-25T12:41:59Z</time>
      </trkpt>
      <trkpt lat="48.10144" lon="-3.55635">
        <ele>166.8</ele>
        <time>2025-02-25T12:42:00Z</time>
      </trkpt>
      <trkpt lat="48.10144" lon="-3.55634">
        <ele>166.9</ele>
        <time>2025-02-25T12:42:01Z</time>
      </trkpt>
      <trkpt lat="48.10144" lon="-3.55633">
        <ele>167</ele>
        <time>2025-02-25T12:42:02Z</time>
      </trkpt>
      <trkpt lat="48.10144" lon="-3.55631">
        <ele>167.1</ele>
        <time>2025-02-25T12:42:03Z</time>
      </trkpt>
      <trkpt lat="48.10144" lon="-3.5563">
        <ele>167.2</ele>
        <time>2025-02-25T12:42:04Z</time>
      </trkpt>
      <trkpt lat="48.10144" lon="-3.55628">
        <ele>167.4</ele>
        <time>2025-02-25T12:42:05Z</time>
      </trkpt>
      <trkpt lat="48.10144" lon="-3.55627">
        <ele>167.5</ele>
        <time>2025-02-25T12:42:06Z</time>
      </trkpt>
      <trkpt lat="48.10145" lon="-3.55625">
        <ele>167.5</ele>
        <time>2025-02-25T12:42:07Z</time>
      </trkpt>
      <trkpt lat="48.10145" lon="-3.55624">
        <ele>167.6</ele>
        <time>2025-02-25T12:42:08Z</time>
      </trkpt>
      <trkpt lat="48.10145" lon="-3.55622">
        <ele>167.8</ele>
        <time>2025-02-25T12:42:09Z</time>
      </trkpt>
      <trkpt lat="48.10146" lon="-3.5562">
        <ele>167.7</ele>
        <time>2025-02-25T12:42:10Z</time>
      </trkpt>
      <trkpt lat="48.10146" lon="-3.55619">
        <ele>167.8</ele>
        <time>2025-02-25T12:42:11Z</time>
      </trkpt>
      <trkpt lat="48.10146" lon="-3.55618">
        <ele>167.9</ele>
        <time>2025-02-25T12:42:12Z</time>
      </trkpt>
      <trkpt lat="48.10146" lon="-3.55616">
        <ele>168.1</ele>
        <time>2025-02-25T12:42:13Z</time>
      </trkpt>
      <trkpt lat="48.10146" lon="-3.55615">
        <ele>168.2</ele>
        <time>2025-02-25T12:42:14Z</time>
      </trkpt>
      <trkpt lat="48.10147" lon="-3.55614">
        <ele>168</ele>
        <time>2025-02-25T12:42:15Z</time>
      </trkpt>
      <trkpt lat="48.10148" lon="-3.55614">
        <ele>167.8</ele>
        <time>2025-02-25T12:42:16Z</time>
      </trkpt>
      <trkpt lat="48.10148" lon="-3.55612">
        <ele>168</ele>
        <time>2025-02-25T12:42:17Z</time>
      </trkpt>
      <trkpt lat="48.10149" lon="-3.55611">
        <ele>167.8</ele>
        <time>2025-02-25T12:42:18Z</time>
      </trkpt>
      <trkpt lat="48.10148" lon="-3.55609">
        <ele>168.2</ele>
        <time>2025-02-25T12:42:19Z</time>
      </trkpt>
      <trkpt lat="48.10148" lon="-3.55608">
        <ele>168.3</ele>
        <time>2025-02-25T12:42:20Z</time>
      </trkpt>
      <trkpt lat="48.10149" lon="-3.55606">
        <ele>168.2</ele>
        <time>2025-02-25T12:42:21Z</time>
      </trkpt>
      <trkpt lat="48.10149" lon="-3.55605">
        <ele>168.3</ele>
        <time>2025-02-25T12:42:22Z</time>
      </trkpt>
      <trkpt lat="48.1015" lon="-3.55604">
        <ele>168.1</ele>
        <time>2025-02-25T12:42:23Z</time>
      </trkpt>
      <trkpt lat="48.1015" lon="-3.55604">
        <ele>168.1</ele>
        <time>2025-02-25T12:42:24Z</time>
      </trkpt>
      <trkpt lat="48.1015" lon="-3.55603">
        <ele>168.2</ele>
        <time>2025-02-25T12:42:25Z</time>
      </trkpt>
      <trkpt lat="48.1015" lon="-3.55602">
        <ele>168.3</ele>
        <time>2025-02-25T12:42:26Z</time>
      </trkpt>
      <trkpt lat="48.10151" lon="-3.55601">
        <ele>168.1</ele>
        <time>2025-02-25T12:42:27Z</time>
      </trkpt>
      <trkpt lat="48.10152" lon="-3.556">
        <ele>168</ele>
        <time>2025-02-25T12:42:28Z</time>
      </trkpt>
      <trkpt lat="48.10153" lon="-3.55599">
        <ele>167.8</ele>
        <time>2025-02-25T12:42:29Z</time>
      </trkpt>
      <trkpt lat="48.10153" lon="-3.55598">
        <ele>167.9</ele>
        <time>2025-02-25T12:42:30Z</time>
      </trkpt>
      <trkpt lat="48.10153" lon="-3.55597">
        <ele>168</ele>
        <time>2025-02-25T12:42:31Z</time>
      </trkpt>
      <trkpt lat="48.10153" lon="-3.55595">
        <ele>168.1</ele>
        <time>2025-02-25T12:42:32Z</time>
      </trkpt>
      <trkpt lat="48.10153" lon="-3.55594">
        <ele>168.2</ele>
        <time>2025-02-25T12:42:33Z</time>
      </trkpt>
      <trkpt lat="48.10154" lon="-3.55593">
        <ele>168</ele>
        <time>2025-02-25T12:42:34Z</time>
      </trkpt>
      <trkpt lat="48.10154" lon="-3.55592">
        <ele>168.1</ele>
        <time>2025-02-25T12:42:35Z</time>
      </trkpt>
      <trkpt lat="48.10154" lon="-3.5559">
        <ele>168.3</ele>
        <time>2025-02-25T12:42:36Z</time>
      </trkpt>
      <trkpt lat="48.10155" lon="-3.5559">
        <ele>168</ele>
        <time>2025-02-25T12:42:37Z</time>
      </trkpt>
      <trkpt lat="48.10155" lon="-3.55588">
        <ele>168.2</ele>
        <time>2025-02-25T12:42:38Z</time>
      </trkpt>
      <trkpt lat="48.10157" lon="-3.55588">
        <ele>167.8</ele>
        <time>2025-02-25T12:42:39Z</time>
      </trkpt>
      <trkpt lat="48.10157" lon="-3.55586">
        <ele>167.9</ele>
        <time>2025-02-25T12:42:40Z</time>
      </trkpt>
      <trkpt lat="48.10157" lon="-3.55584">
        <ele>168</ele>
        <time>2025-02-25T12:42:41Z</time>
      </trkpt>
      <trkpt lat="48.10158" lon="-3.55583">
        <ele>167.9</ele>
        <time>2025-02-25T12:42:42Z</time>
      </trkpt>
      <trkpt lat="48.10158" lon="-3.55581">
        <ele>168.1</ele>
        <time>2025-02-25T12:42:43Z</time>
      </trkpt>
      <trkpt lat="48.10158" lon="-3.5558">
        <ele>168.1</ele>
        <time>2025-02-25T12:42:44Z</time>
      </trkpt>
      <trkpt lat="48.10159" lon="-3.55578">
        <ele>168.1</ele>
        <time>2025-02-25T12:42:45Z</time>
      </trkpt>
      <trkpt lat="48.10159" lon="-3.55577">
        <ele>168.2</ele>
        <time>2025-02-25T12:42:46Z</time>
      </trkpt>
      <trkpt lat="48.1016" lon="-3.55576">
        <ele>168</ele>
        <time>2025-02-25T12:42:47Z</time>
      </trkpt>
      <trkpt lat="48.1016" lon="-3.55574">
        <ele>168.2</ele>
        <time>2025-02-25T12:42:48Z</time>
      </trkpt>
      <trkpt lat="48.1016" lon="-3.55573">
        <ele>168.3</ele>
        <time>2025-02-25T12:42:49Z</time>
      </trkpt>
      <trkpt lat="48.1016" lon="-3.55571">
        <ele>168.4</ele>
        <time>2025-02-25T12:42:50Z</time>
      </trkpt>
      <trkpt lat="48.10161" lon="-3.5557">
        <ele>168.3</ele>
        <time>2025-02-25T12:42:51Z</time>
      </trkpt>
      <trkpt lat="48.10161" lon="-3.55569">
        <ele>168.4</ele>
        <time>2025-02-25T12:42:52Z</time>
      </trkpt>
      <trkpt lat="48.10162" lon="-3.55567">
        <ele>168.3</ele>
        <time>2025-02-25T12:42:53Z</time>
      </trkpt>
      <trkpt lat="48.10162" lon="-3.55566">
        <ele>168.4</ele>
        <time>2025-02-25T12:42:54Z</time>
      </trkpt>
      <trkpt lat="48.10163" lon="-3.55564">
        <ele>168.3</ele>
        <time>2025-02-25T12:42:55Z</time>
      </trkpt>
      <trkpt lat="48.10163" lon="-3.55563">
        <ele>168.4</ele>
        <time>2025-02-25T12:42:56Z</time>
      </trkpt>
      <trkpt lat="48.10163" lon="-3.55561">
        <ele>168.5</ele>
        <time>2025-02-25T12:42:57Z</time>
      </trkpt>
      <trkpt lat="48.10163" lon="-3.55559">
        <ele>168.7</ele>
        <time>2025-02-25T12:42:58Z</time>
      </trkpt>
      <trkpt lat="48.10164" lon="-3.55558">
        <ele>168.5</ele>
        <time>2025-02-25T12:42:59Z</time>
      </trkpt>
      <trkpt lat="48.10164" lon="-3.55556">
        <ele>168.6</ele>
        <time>2025-02-25T12:43:00Z</time>
      </trkpt>
      <trkpt lat="48.10164" lon="-3.55555">
        <ele>168.7</ele>
        <time>2025-02-25T12:43:01Z</time>
      </trkpt>
      <trkpt lat="48.10164" lon="-3.55554">
        <ele>168.8</ele>
        <time>2025-02-25T12:43:02Z</time>
      </trkpt>
      <trkpt lat="48.10165" lon="-3.55553">
        <ele>168.7</ele>
        <time>2025-02-25T12:43:03Z</time>
      </trkpt>
      <trkpt lat="48.10164" lon="-3.55552">
        <ele>169</ele>
        <time>2025-02-25T12:43:04Z</time>
      </trkpt>
      <trkpt lat="48.10164" lon="-3.55551">
        <ele>169.1</ele>
        <time>2025-02-25T12:43:05Z</time>
      </trkpt>
      <trkpt lat="48.10165" lon="-3.55549">
        <ele>169.1</ele>
        <time>2025-02-25T12:43:06Z</time>
      </trkpt>
      <trkpt lat="48.10165" lon="-3.55548">
        <ele>169.2</ele>
        <time>2025-02-25T12:43:07Z</time>
      </trkpt>
      <trkpt lat="48.10165" lon="-3.55546">
        <ele>169.4</ele>
        <time>2025-02-25T12:43:08Z</time>
      </trkpt>
      <trkpt lat="48.10165" lon="-3.55545">
        <ele>169.5</ele>
        <time>2025-02-25T12:43:09Z</time>
      </trkpt>
      <trkpt lat="48.10165" lon="-3.55544">
        <ele>169.6</ele>
        <time>2025-02-25T12:43:10Z</time>
      </trkpt>
      <trkpt lat="48.10166" lon="-3.55543">
        <ele>169.5</ele>
        <time>2025-02-25T12:43:11Z</time>
      </trkpt>
      <trkpt lat="48.10167" lon="-3.55543">
        <ele>169.4</ele>
        <time>2025-02-25T12:43:12Z</time>
      </trkpt>
      <trkpt lat="48.10167" lon="-3.55542">
        <ele>169.5</ele>
        <time>2025-02-25T12:43:13Z</time>
      </trkpt>
      <trkpt lat="48.10168" lon="-3.55541">
        <ele>169.6</ele>
        <time>2025-02-25T12:43:14Z</time>
      </trkpt>
      <trkpt lat="48.10168" lon="-3.5554">
        <ele>169.7</ele>
        <time>2025-02-25T12:43:15Z</time>
      </trkpt>
      <trkpt lat="48.10168" lon="-3.55538">
        <ele>169.9</ele>
        <time>2025-02-25T12:43:16Z</time>
      </trkpt>
      <trkpt lat="48.10169" lon="-3.55537">
        <ele>170.1</ele>
        <time>2025-02-25T12:43:17Z</time>
      </trkpt>
      <trkpt lat="48.10169" lon="-3.55536">
        <ele>170.2</ele>
        <time>2025-02-25T12:43:18Z</time>
      </trkpt>
      <trkpt lat="48.10169" lon="-3.55535">
        <ele>170.3</ele>
        <time>2025-02-25T12:43:19Z</time>
      </trkpt>
      <trkpt lat="48.1017" lon="-3.55533">
        <ele>170.5</ele>
        <time>2025-02-25T12:43:20Z</time>
      </trkpt>
      <trkpt lat="48.1017" lon="-3.55532">
        <ele>170.6</ele>
        <time>2025-02-25T12:43:21Z</time>
      </trkpt>
      <trkpt lat="48.10171" lon="-3.55531">
        <ele>170.7</ele>
        <time>2025-02-25T12:43:22Z</time>
      </trkpt>
      <trkpt lat="48.10171" lon="-3.5553">
        <ele>170.8</ele>
        <time>2025-02-25T12:43:23Z</time>
      </trkpt>
      <trkpt lat="48.10172" lon="-3.55529">
        <ele>170.9</ele>
        <time>2025-02-25T12:43:24Z</time>
      </trkpt>
      <trkpt lat="48.10173" lon="-3.55527">
        <ele>171.1</ele>
        <time>2025-02-25T12:43:25Z</time>
      </trkpt>
      <trkpt lat="48.10174" lon="-3.55526">
        <ele>171.1</ele>
        <time>2025-02-25T12:43:26Z</time>
      </trkpt>
      <trkpt lat="48.10174" lon="-3.55523">
        <ele>171.3</ele>
        <time>2025-02-25T12:43:27Z</time>
      </trkpt>
      <trkpt lat="48.10175" lon="-3.55522">
        <ele>171.4</ele>
        <time>2025-02-25T12:43:28Z</time>
      </trkpt>
      <trkpt lat="48.10176" lon="-3.55521">
        <ele>171.4</ele>
        <time>2025-02-25T12:43:29Z</time>
      </trkpt>
      <trkpt lat="48.10176" lon="-3.5552">
        <ele>171.5</ele>
        <time>2025-02-25T12:43:30Z</time>
      </trkpt>
      <trkpt lat="48.10176" lon="-3.55519">
        <ele>171.5</ele>
        <time>2025-02-25T12:43:31Z</time>
      </trkpt>
      <trkpt lat="48.10176" lon="-3.55518">
        <ele>171.6</ele>
        <time>2025-02-25T12:43:32Z</time>
      </trkpt>
      <trkpt lat="48.10176" lon="-3.55517">
        <ele>171.6</ele>
        <time>2025-02-25T12:43:33Z</time>
      </trkpt>
      <trkpt lat="48.10176" lon="-3.55515">
        <ele>171.8</ele>
        <time>2025-02-25T12:43:34Z</time>
      </trkpt>
      <trkpt lat="48.10177" lon="-3.55514">
        <ele>171.7</ele>
        <time>2025-02-25T12:43:35Z</time>
      </trkpt>
      <trkpt lat="48.10177" lon="-3.55512">
        <ele>171.9</ele>
        <time>2025-02-25T12:43:36Z</time>
      </trkpt>
      <trkpt lat="48.10178" lon="-3.55511">
        <ele>171.8</ele>
        <time>2025-02-25T12:43:37Z</time>
      </trkpt>
      <trkpt lat="48.10178" lon="-3.55509">
        <ele>171.9</ele>
        <time>2025-02-25T12:43:38Z</time>
      </trkpt>
      <trkpt lat="48.10178" lon="-3.55507">
        <ele>172</ele>
        <time>2025-02-25T12:43:39Z</time>
      </trkpt>
      <trkpt lat="48.10179" lon="-3.55506">
        <ele>172</ele>
        <time>2025-02-25T12:43:40Z</time>
      </trkpt>
      <trkpt lat="48.1018" lon="-3.55505">
        <ele>171.9</ele>
        <time>2025-02-25T12:43:41Z</time>
      </trkpt>
      <trkpt lat="48.1018" lon="-3.55505">
        <ele>171.9</ele>
        <time>2025-02-25T12:43:42Z</time>
      </trkpt>
      <trkpt lat="48.10181" lon="-3.55503">
        <ele>171.8</ele>
        <time>2025-02-25T12:43:43Z</time>
      </trkpt>
      <trkpt lat="48.10181" lon="-3.55501">
        <ele>171.9</ele>
        <time>2025-02-25T12:43:44Z</time>
      </trkpt>
      <trkpt lat="48.10182" lon="-3.555">
        <ele>171.8</ele>
        <time>2025-02-25T12:43:45Z</time>
      </trkpt>
      <trkpt lat="48.10182" lon="-3.555">
        <ele>171.8</ele>
        <time>2025-02-25T12:43:46Z</time>
      </trkpt>
      <trkpt lat="48.10183" lon="-3.555">
        <ele>171.6</ele>
        <time>2025-02-25T12:43:47Z</time>
      </trkpt>
      <trkpt lat="48.10183" lon="-3.55499">
        <ele>171.7</ele>
        <time>2025-02-25T12:43:48Z</time>
      </trkpt>
      <trkpt lat="48.10182" lon="-3.55498">
        <ele>172</ele>
        <time>2025-02-25T12:43:49Z</time>
      </trkpt>
      <trkpt lat="48.10183" lon="-3.55497">
        <ele>171.9</ele>
        <time>2025-02-25T12:43:50Z</time>
      </trkpt>
      <trkpt lat="48.10184" lon="-3.55496">
        <ele>171.8</ele>
        <time>2025-02-25T12:43:51Z</time>
      </trkpt>
      <trkpt lat="48.10184" lon="-3.55495">
        <ele>171.9</ele>
        <time>2025-02-25T12:43:52Z</time>
      </trkpt>
      <trkpt lat="48.10184" lon="-3.55493">
        <ele>172.1</ele>
        <time>2025-02-25T12:43:53Z</time>
      </trkpt>
      <trkpt lat="48.10184" lon="-3.55491">
        <ele>172.3</ele>
        <time>2025-02-25T12:43:54Z</time>
      </trkpt>
      <trkpt lat="48.10184" lon="-3.5549">
        <ele>172.4</ele>
        <time>2025-02-25T12:43:55Z</time>
      </trkpt>
      <trkpt lat="48.10185" lon="-3.55488">
        <ele>172.4</ele>
        <time>2025-02-25T12:43:56Z</time>
      </trkpt>
      <trkpt lat="48.10186" lon="-3.55488">
        <ele>172.2</ele>
        <time>2025-02-25T12:43:57Z</time>
      </trkpt>
      <trkpt lat="48.10186" lon="-3.55488">
        <ele>172.2</ele>
        <time>2025-02-25T12:43:58Z</time>
      </trkpt>
      <trkpt lat="48.10186" lon="-3.55487">
        <ele>172.3</ele>
        <time>2025-02-25T12:43:59Z</time>
      </trkpt>
      <trkpt lat="48.10186" lon="-3.55486">
        <ele>172.4</ele>
        <time>2025-02-25T12:44:00Z</time>
      </trkpt>
      <trkpt lat="48.10187" lon="-3.55484">
        <ele>172.4</ele>
        <time>2025-02-25T12:44:01Z</time>
      </trkpt>
      <trkpt lat="48.10187" lon="-3.55483">
        <ele>172.5</ele>
        <time>2025-02-25T12:44:02Z</time>
      </trkpt>
      <trkpt lat="48.10187" lon="-3.55482">
        <ele>172.5</ele>
        <time>2025-02-25T12:44:03Z</time>
      </trkpt>
      <trkpt lat="48.10187" lon="-3.5548">
        <ele>172.7</ele>
        <time>2025-02-25T12:44:04Z</time>
      </trkpt>
      <trkpt lat="48.10188" lon="-3.55479">
        <ele>172.6</ele>
        <time>2025-02-25T12:44:05Z</time>
      </trkpt>
      <trkpt lat="48.10189" lon="-3.55477">
        <ele>172.6</ele>
        <time>2025-02-25T12:44:06Z</time>
      </trkpt>
      <trkpt lat="48.10189" lon="-3.55475">
        <ele>172.8</ele>
        <time>2025-02-25T12:44:07Z</time>
      </trkpt>
      <trkpt lat="48.1019" lon="-3.55474">
        <ele>172.7</ele>
        <time>2025-02-25T12:44:08Z</time>
      </trkpt>
      <trkpt lat="48.10191" lon="-3.55473">
        <ele>172.6</ele>
        <time>2025-02-25T12:44:09Z</time>
      </trkpt>
      <trkpt lat="48.10191" lon="-3.55471">
        <ele>172.8</ele>
        <time>2025-02-25T12:44:10Z</time>
      </trkpt>
      <trkpt lat="48.10191" lon="-3.5547">
        <ele>172.9</ele>
        <time>2025-02-25T12:44:11Z</time>
      </trkpt>
      <trkpt lat="48.10191" lon="-3.55469">
        <ele>173</ele>
        <time>2025-02-25T12:44:12Z</time>
      </trkpt>
      <trkpt lat="48.10191" lon="-3.55467">
        <ele>173.2</ele>
        <time>2025-02-25T12:44:13Z</time>
      </trkpt>
      <trkpt lat="48.10192" lon="-3.55467">
        <ele>173</ele>
        <time>2025-02-25T12:44:14Z</time>
      </trkpt>
      <trkpt lat="48.10192" lon="-3.55466">
        <ele>173.1</ele>
        <time>2025-02-25T12:44:15Z</time>
      </trkpt>
      <trkpt lat="48.10193" lon="-3.55466">
        <ele>172.9</ele>
        <time>2025-02-25T12:44:16Z</time>
      </trkpt>
      <trkpt lat="48.10194" lon="-3.55465">
        <ele>172.9</ele>
        <time>2025-02-25T12:44:17Z</time>
      </trkpt>
      <trkpt lat="48.10194" lon="-3.55463">
        <ele>173.1</ele>
        <time>2025-02-25T12:44:18Z</time>
      </trkpt>
      <trkpt lat="48.10195" lon="-3.55461">
        <ele>173.3</ele>
        <time>2025-02-25T12:44:19Z</time>
      </trkpt>
      <trkpt lat="48.10194" lon="-3.55459">
        <ele>173.5</ele>
        <time>2025-02-25T12:44:20Z</time>
      </trkpt>
      <trkpt lat="48.10194" lon="-3.55458">
        <ele>173.6</ele>
        <time>2025-02-25T12:44:21Z</time>
      </trkpt>
      <trkpt lat="48.10195" lon="-3.55456">
        <ele>173.8</ele>
        <time>2025-02-25T12:44:22Z</time>
      </trkpt>
      <trkpt lat="48.10194" lon="-3.55455">
        <ele>173.9</ele>
        <time>2025-02-25T12:44:23Z</time>
      </trkpt>
      <trkpt lat="48.10194" lon="-3.55453">
        <ele>174.2</ele>
        <time>2025-02-25T12:44:24Z</time>
      </trkpt>
      <trkpt lat="48.10195" lon="-3.55451">
        <ele>174.3</ele>
        <time>2025-02-25T12:44:25Z</time>
      </trkpt>
      <trkpt lat="48.10195" lon="-3.5545">
        <ele>174.4</ele>
        <time>2025-02-25T12:44:26Z</time>
      </trkpt>
      <trkpt lat="48.10195" lon="-3.55448">
        <ele>174.6</ele>
        <time>2025-02-25T12:44:27Z</time>
      </trkpt>
      <trkpt lat="48.10195" lon="-3.55447">
        <ele>174.7</ele>
        <time>2025-02-25T12:44:28Z</time>
      </trkpt>
      <trkpt lat="48.10195" lon="-3.55446">
        <ele>174.9</ele>
        <time>2025-02-25T12:44:29Z</time>
      </trkpt>
      <trkpt lat="48.10195" lon="-3.55443">
        <ele>175.3</ele>
        <time>2025-02-25T12:44:30Z</time>
      </trkpt>
      <trkpt lat="48.10197" lon="-3.55442">
        <ele>175.5</ele>
        <time>2025-02-25T12:44:31Z</time>
      </trkpt>
      <trkpt lat="48.10198" lon="-3.55442">
        <ele>175.5</ele>
        <time>2025-02-25T12:44:32Z</time>
      </trkpt>
      <trkpt lat="48.10199" lon="-3.5544">
        <ele>175.9</ele>
        <time>2025-02-25T12:44:33Z</time>
      </trkpt>
      <trkpt lat="48.10199" lon="-3.55439">
        <ele>176</ele>
        <time>2025-02-25T12:44:34Z</time>
      </trkpt>
      <trkpt lat="48.10199" lon="-3.55438">
        <ele>176.2</ele>
        <time>2025-02-25T12:44:35Z</time>
      </trkpt>
      <trkpt lat="48.10199" lon="-3.55436">
        <ele>176.5</ele>
        <time>2025-02-25T12:44:36Z</time>
      </trkpt>
      <trkpt lat="48.10201" lon="-3.55434">
        <ele>176.8</ele>
        <time>2025-02-25T12:44:37Z</time>
      </trkpt>
      <trkpt lat="48.10201" lon="-3.55433">
        <ele>177</ele>
        <time>2025-02-25T12:44:38Z</time>
      </trkpt>
      <trkpt lat="48.10202" lon="-3.55433">
        <ele>177</ele>
        <time>2025-02-25T12:44:39Z</time>
      </trkpt>
      <trkpt lat="48.10202" lon="-3.55431">
        <ele>177.3</ele>
        <time>2025-02-25T12:44:40Z</time>
      </trkpt>
      <trkpt lat="48.10202" lon="-3.5543">
        <ele>177.4</ele>
        <time>2025-02-25T12:44:41Z</time>
      </trkpt>
      <trkpt lat="48.10202" lon="-3.55429">
        <ele>177.6</ele>
        <time>2025-02-25T12:44:42Z</time>
      </trkpt>
      <trkpt lat="48.10203" lon="-3.55428">
        <ele>177.7</ele>
        <time>2025-02-25T12:44:43Z</time>
      </trkpt>
      <trkpt lat="48.10203" lon="-3.55426">
        <ele>178</ele>
        <time>2025-02-25T12:44:44Z</time>
      </trkpt>
      <trkpt lat="48.10204" lon="-3.55425">
        <ele>178.1</ele>
        <time>2025-02-25T12:44:45Z</time>
      </trkpt>
      <trkpt lat="48.10205" lon="-3.55424">
        <ele>178.2</ele>
        <time>2025-02-25T12:44:46Z</time>
      </trkpt>
      <trkpt lat="48.10205" lon="-3.55423">
        <ele>178.4</ele>
        <time>2025-02-25T12:44:47Z</time>
      </trkpt>
      <trkpt lat="48.10206" lon="-3.55421">
        <ele>178.6</ele>
        <time>2025-02-25T12:44:48Z</time>
      </trkpt>
      <trkpt lat="48.10206" lon="-3.55419">
        <ele>178.9</ele>
        <time>2025-02-25T12:44:49Z</time>
      </trkpt>
      <trkpt lat="48.10207" lon="-3.55418">
        <ele>178.9</ele>
        <time>2025-02-25T12:44:50Z</time>
      </trkpt>
      <trkpt lat="48.10207" lon="-3.55417">
        <ele>179.1</ele>
        <time>2025-02-25T12:44:51Z</time>
      </trkpt>
      <trkpt lat="48.10208" lon="-3.55415">
        <ele>179.3</ele>
        <time>2025-02-25T12:44:52Z</time>
      </trkpt>
      <trkpt lat="48.10208" lon="-3.55414">
        <ele>179.4</ele>
        <time>2025-02-25T12:44:53Z</time>
      </trkpt>
      <trkpt lat="48.10208" lon="-3.55413">
        <ele>179.6</ele>
        <time>2025-02-25T12:44:54Z</time>
      </trkpt>
      <trkpt lat="48.10209" lon="-3.55412">
        <ele>179.6</ele>
        <time>2025-02-25T12:44:55Z</time>
      </trkpt>
      <trkpt lat="48.10209" lon="-3.5541">
        <ele>179.9</ele>
        <time>2025-02-25T12:44:56Z</time>
      </trkpt>
      <trkpt lat="48.10209" lon="-3.55409">
        <ele>180.1</ele>
        <time>2025-02-25T12:44:57Z</time>
      </trkpt>
      <trkpt lat="48.1021" lon="-3.55408">
        <ele>180.1</ele>
        <time>2025-02-25T12:44:58Z</time>
      </trkpt>
      <trkpt lat="48.1021" lon="-3.55406">
        <ele>180.4</ele>
        <time>2025-02-25T12:44:59Z</time>
      </trkpt>
      <trkpt lat="48.10211" lon="-3.55405">
        <ele>180.5</ele>
        <time>2025-02-25T12:45:00Z</time>
      </trkpt>
      <trkpt lat="48.10211" lon="-3.55404">
        <ele>180.6</ele>
        <time>2025-02-25T12:45:01Z</time>
      </trkpt>
      <trkpt lat="48.10212" lon="-3.55402">
        <ele>180.8</ele>
        <time>2025-02-25T12:45:02Z</time>
      </trkpt>
      <trkpt lat="48.10212" lon="-3.55401">
        <ele>181</ele>
        <time>2025-02-25T12:45:03Z</time>
      </trkpt>
      <trkpt lat="48.10213" lon="-3.55399">
        <ele>181.2</ele>
        <time>2025-02-25T12:45:04Z</time>
      </trkpt>
      <trkpt lat="48.10213" lon="-3.55398">
        <ele>181.4</ele>
        <time>2025-02-25T12:45:05Z</time>
      </trkpt>
      <trkpt lat="48.10213" lon="-3.55397">
        <ele>181.5</ele>
        <time>2025-02-25T12:45:06Z</time>
      </trkpt>
      <trkpt lat="48.10213" lon="-3.55395">
        <ele>181.8</ele>
        <time>2025-02-25T12:45:07Z</time>
      </trkpt>
      <trkpt lat="48.10214" lon="-3.55394">
        <ele>181.9</ele>
        <time>2025-02-25T12:45:08Z</time>
      </trkpt>
      <trkpt lat="48.10214" lon="-3.55394">
        <ele>181.9</ele>
        <time>2025-02-25T12:45:09Z</time>
      </trkpt>
      <trkpt lat="48.10215" lon="-3.55392">
        <ele>182.1</ele>
        <time>2025-02-25T12:45:10Z</time>
      </trkpt>
      <trkpt lat="48.10215" lon="-3.55391">
        <ele>182.2</ele>
        <time>2025-02-25T12:45:11Z</time>
      </trkpt>
      <trkpt lat="48.10215" lon="-3.5539">
        <ele>182.4</ele>
        <time>2025-02-25T12:45:12Z</time>
      </trkpt>
      <trkpt lat="48.10215" lon="-3.55389">
        <ele>182.5</ele>
        <time>2025-02-25T12:45:13Z</time>
      </trkpt>
      <trkpt lat="48.10216" lon="-3.55388">
        <ele>182.6</ele>
        <time>2025-02-25T12:45:14Z</time>
      </trkpt>
      <trkpt lat="48.10216" lon="-3.55387">
        <ele>182.7</ele>
        <time>2025-02-25T12:45:15Z</time>
      </trkpt>
      <trkpt lat="48.10216" lon="-3.55386">
        <ele>182.8</ele>
        <time>2025-02-25T12:45:16Z</time>
      </trkpt>
      <trkpt lat="48.10216" lon="-3.55385">
        <ele>182.9</ele>
        <time>2025-02-25T12:45:17Z</time>
      </trkpt>
      <trkpt lat="48.10216" lon="-3.55384">
        <ele>183.1</ele>
        <time>2025-02-25T12:45:18Z</time>
      </trkpt>
      <trkpt lat="48.10215" lon="-3.55383">
        <ele>183.3</ele>
        <time>2025-02-25T12:45:19Z</time>
      </trkpt>
      <trkpt lat="48.10215" lon="-3.55381">
        <ele>183.5</ele>
        <time>2025-02-25T12:45:20Z</time>
      </trkpt>
      <trkpt lat="48.10216" lon="-3.5538">
        <ele>183.6</ele>
        <time>2025-02-25T12:45:21Z</time>
      </trkpt>
      <trkpt lat="48.10216" lon="-3.55379">
        <ele>183.7</ele>
        <time>2025-02-25T12:45:22Z</time>
      </trkpt>
      <trkpt lat="48.10215" lon="-3.55378">
        <ele>183.9</ele>
        <time>2025-02-25T12:45:23Z</time>
      </trkpt>
      <trkpt lat="48.10216" lon="-3.55377">
        <ele>184</ele>
        <time>2025-02-25T12:45:24Z</time>
      </trkpt>
      <trkpt lat="48.10216" lon="-3.55376">
        <ele>184.1</ele>
        <time>2025-02-25T12:45:25Z</time>
      </trkpt>
      <trkpt lat="48.10217" lon="-3.55375">
        <ele>184.2</ele>
        <time>2025-02-25T12:45:26Z</time>
      </trkpt>
      <trkpt lat="48.10217" lon="-3.55374">
        <ele>184.3</ele>
        <time>2025-02-25T12:45:27Z</time>
      </trkpt>
      <trkpt lat="48.10217" lon="-3.55373">
        <ele>184.4</ele>
        <time>2025-02-25T12:45:28Z</time>
      </trkpt>
      <trkpt lat="48.10217" lon="-3.55373">
        <ele>184.4</ele>
        <time>2025-02-25T12:45:29Z</time>
      </trkpt>
      <trkpt lat="48.10217" lon="-3.55372">
        <ele>184.6</ele>
        <time>2025-02-25T12:45:30Z</time>
      </trkpt>
      <trkpt lat="48.10217" lon="-3.55371">
        <ele>184.7</ele>
        <time>2025-02-25T12:45:31Z</time>
      </trkpt>
      <trkpt lat="48.10217" lon="-3.5537">
        <ele>184.8</ele>
        <time>2025-02-25T12:45:32Z</time>
      </trkpt>
      <trkpt lat="48.10217" lon="-3.55369">
        <ele>185</ele>
        <time>2025-02-25T12:45:33Z</time>
      </trkpt>
      <trkpt lat="48.10218" lon="-3.55368">
        <ele>185.1</ele>
        <time>2025-02-25T12:45:34Z</time>
      </trkpt>
      <trkpt lat="48.10218" lon="-3.55367">
        <ele>185.2</ele>
        <time>2025-02-25T12:45:35Z</time>
      </trkpt>
      <trkpt lat="48.10218" lon="-3.55366">
        <ele>185.3</ele>
        <time>2025-02-25T12:45:36Z</time>
      </trkpt>
      <trkpt lat="48.10219" lon="-3.55365">
        <ele>185.5</ele>
        <time>2025-02-25T12:45:37Z</time>
      </trkpt>
      <trkpt lat="48.10219" lon="-3.55364">
        <ele>185.6</ele>
        <time>2025-02-25T12:45:38Z</time>
      </trkpt>
      <trkpt lat="48.10219" lon="-3.55363">
        <ele>185.7</ele>
        <time>2025-02-25T12:45:39Z</time>
      </trkpt>
      <trkpt lat="48.10219" lon="-3.55362">
        <ele>185.9</ele>
        <time>2025-02-25T12:45:40Z</time>
      </trkpt>
      <trkpt lat="48.1022" lon="-3.55361">
        <ele>186</ele>
        <time>2025-02-25T12:45:41Z</time>
      </trkpt>
      <trkpt lat="48.1022" lon="-3.5536">
        <ele>186.1</ele>
        <time>2025-02-25T12:45:42Z</time>
      </trkpt>
      <trkpt lat="48.10219" lon="-3.55358">
        <ele>186.2</ele>
        <time>2025-02-25T12:45:43Z</time>
      </trkpt>
      <trkpt lat="48.10219" lon="-3.55357">
        <ele>186.3</ele>
        <time>2025-02-25T12:45:44Z</time>
      </trkpt>
      <trkpt lat="48.1022" lon="-3.55356">
        <ele>186.4</ele>
        <time>2025-02-25T12:45:45Z</time>
      </trkpt>
      <trkpt lat="48.10221" lon="-3.55355">
        <ele>186.4</ele>
        <time>2025-02-25T12:45:46Z</time>
      </trkpt>
      <trkpt lat="48.10221" lon="-3.55354">
        <ele>186.5</ele>
        <time>2025-02-25T12:45:47Z</time>
      </trkpt>
      <trkpt lat="48.10221" lon="-3.55354">
        <ele>186.5</ele>
        <time>2025-02-25T12:45:48Z</time>
      </trkpt>
      <trkpt lat="48.10222" lon="-3.55353">
        <ele>186.6</ele>
        <time>2025-02-25T12:45:49Z</time>
      </trkpt>
      <trkpt lat="48.10222" lon="-3.55352">
        <ele>186.7</ele>
        <time>2025-02-25T12:45:50Z</time>
      </trkpt>
      <trkpt lat="48.10222" lon="-3.55351">
        <ele>186.7</ele>
        <time>2025-02-25T12:45:51Z</time>
      </trkpt>
      <trkpt lat="48.10223" lon="-3.5535">
        <ele>186.8</ele>
        <time>2025-02-25T12:45:52Z</time>
      </trkpt>
      <trkpt lat="48.10223" lon="-3.55349">
        <ele>186.9</ele>
        <time>2025-02-25T12:45:53Z</time>
      </trkpt>
      <trkpt lat="48.10223" lon="-3.55348">
        <ele>187</ele>
        <time>2025-02-25T12:45:54Z</time>
      </trkpt>
      <trkpt lat="48.10223" lon="-3.55347">
        <ele>187</ele>
        <time>2025-02-25T12:45:55Z</time>
      </trkpt>
      <trkpt lat="48.10223" lon="-3.55346">
        <ele>187.1</ele>
        <time>2025-02-25T12:45:56Z</time>
      </trkpt>
      <trkpt lat="48.10224" lon="-3.55345">
        <ele>187.2</ele>
        <time>2025-02-25T12:45:57Z</time>
      </trkpt>
      <trkpt lat="48.10224" lon="-3.55344">
        <ele>187.3</ele>
        <time>2025-02-25T12:45:58Z</time>
      </trkpt>
      <trkpt lat="48.10225" lon="-3.55343">
        <ele>187.4</ele>
        <time>2025-02-25T12:45:59Z</time>
      </trkpt>
      <trkpt lat="48.10225" lon="-3.55341">
        <ele>187.5</ele>
        <time>2025-02-25T12:46:00Z</time>
      </trkpt>
      <trkpt lat="48.10225" lon="-3.5534">
        <ele>187.6</ele>
        <time>2025-02-25T12:46:01Z</time>
      </trkpt>
      <trkpt lat="48.10224" lon="-3.55339">
        <ele>187.7</ele>
        <time>2025-02-25T12:46:02Z</time>
      </trkpt>
      <trkpt lat="48.10225" lon="-3.55338">
        <ele>187.8</ele>
        <time>2025-02-25T12:46:03Z</time>
      </trkpt>
      <trkpt lat="48.10224" lon="-3.55336">
        <ele>187.9</ele>
        <time>2025-02-25T12:46:04Z</time>
      </trkpt>
      <trkpt lat="48.10224" lon="-3.55335">
        <ele>187.9</ele>
        <time>2025-02-25T12:46:05Z</time>
      </trkpt>
      <trkpt lat="48.10224" lon="-3.55334">
        <ele>188</ele>
        <time>2025-02-25T12:46:06Z</time>
      </trkpt>
      <trkpt lat="48.10224" lon="-3.55333">
        <ele>188.1</ele>
        <time>2025-02-25T12:46:07Z</time>
      </trkpt>
      <trkpt lat="48.10223" lon="-3.55332">
        <ele>188.1</ele>
        <time>2025-02-25T12:46:08Z</time>
      </trkpt>
      <trkpt lat="48.10223" lon="-3.55331">
        <ele>188.1</ele>
        <time>2025-02-25T12:46:09Z</time>
      </trkpt>
      <trkpt lat="48.10224" lon="-3.5533">
        <ele>188.2</ele>
        <time>2025-02-25T12:46:10Z</time>
      </trkpt>
      <trkpt lat="48.10225" lon="-3.55328">
        <ele>188.3</ele>
        <time>2025-02-25T12:46:11Z</time>
      </trkpt>
      <trkpt lat="48.10225" lon="-3.55327">
        <ele>188.3</ele>
        <time>2025-02-25T12:46:12Z</time>
      </trkpt>
      <trkpt lat="48.10225" lon="-3.55325">
        <ele>188.4</ele>
        <time>2025-02-25T12:46:13Z</time>
      </trkpt>
      <trkpt lat="48.10225" lon="-3.55323">
        <ele>188.5</ele>
        <time>2025-02-25T12:46:14Z</time>
      </trkpt>
      <trkpt lat="48.10225" lon="-3.55322">
        <ele>188.5</ele>
        <time>2025-02-25T12:46:15Z</time>
      </trkpt>
      <trkpt lat="48.10226" lon="-3.55321">
        <ele>188.6</ele>
        <time>2025-02-25T12:46:16Z</time>
      </trkpt>
      <trkpt lat="48.10226" lon="-3.5532">
        <ele>188.6</ele>
        <time>2025-02-25T12:46:17Z</time>
      </trkpt>
      <trkpt lat="48.10226" lon="-3.55318">
        <ele>188.7</ele>
        <time>2025-02-25T12:46:18Z</time>
      </trkpt>
      <trkpt lat="48.10227" lon="-3.55317">
        <ele>188.8</ele>
        <time>2025-02-25T12:46:19Z</time>
      </trkpt>
      <trkpt lat="48.10227" lon="-3.55316">
        <ele>188.8</ele>
        <time>2025-02-25T12:46:20Z</time>
      </trkpt>
      <trkpt lat="48.10227" lon="-3.55315">
        <ele>188.8</ele>
        <time>2025-02-25T12:46:21Z</time>
      </trkpt>
      <trkpt lat="48.10227" lon="-3.55314">
        <ele>188.9</ele>
        <time>2025-02-25T12:46:22Z</time>
      </trkpt>
      <trkpt lat="48.10227" lon="-3.55312">
        <ele>188.9</ele>
        <time>2025-02-25T12:46:23Z</time>
      </trkpt>
      <trkpt lat="48.10228" lon="-3.5531">
        <ele>189</ele>
        <time>2025-02-25T12:46:24Z</time>
      </trkpt>
      <trkpt lat="48.10228" lon="-3.55309">
        <ele>189.1</ele>
        <time>2025-02-25T12:46:25Z</time>
      </trkpt>
      <trkpt lat="48.10229" lon="-3.55308">
        <ele>189.2</ele>
        <time>2025-02-25T12:46:26Z</time>
      </trkpt>
      <trkpt lat="48.10228" lon="-3.55306">
        <ele>189.2</ele>
        <time>2025-02-25T12:46:27Z</time>
      </trkpt>
      <trkpt lat="48.10228" lon="-3.55304">
        <ele>189.3</ele>
        <time>2025-02-25T12:46:28Z</time>
      </trkpt>
      <trkpt lat="48.10228" lon="-3.55302">
        <ele>189.3</ele>
        <time>2025-02-25T12:46:29Z</time>
      </trkpt>
      <trkpt lat="48.10228" lon="-3.55301">
        <ele>189.4</ele>
        <time>2025-02-25T12:46:30Z</time>
      </trkpt>
      <trkpt lat="48.10228" lon="-3.553">
        <ele>189.4</ele>
        <time>2025-02-25T12:46:31Z</time>
      </trkpt>
      <trkpt lat="48.10228" lon="-3.55298">
        <ele>189.5</ele>
        <time>2025-02-25T12:46:32Z</time>
      </trkpt>
      <trkpt lat="48.10228" lon="-3.55297">
        <ele>189.5</ele>
        <time>2025-02-25T12:46:33Z</time>
      </trkpt>
      <trkpt lat="48.10229" lon="-3.55296">
        <ele>189.6</ele>
        <time>2025-02-25T12:46:34Z</time>
      </trkpt>
      <trkpt lat="48.10229" lon="-3.55294">
        <ele>189.7</ele>
        <time>2025-02-25T12:46:35Z</time>
      </trkpt>
      <trkpt lat="48.10229" lon="-3.55292">
        <ele>189.7</ele>
        <time>2025-02-25T12:46:36Z</time>
      </trkpt>
      <trkpt lat="48.10229" lon="-3.55291">
        <ele>189.8</ele>
        <time>2025-02-25T12:46:37Z</time>
      </trkpt>
      <trkpt lat="48.10229" lon="-3.55289">
        <ele>189.8</ele>
        <time>2025-02-25T12:46:38Z</time>
      </trkpt>
      <trkpt lat="48.10228" lon="-3.55287">
        <ele>189.9</ele>
        <time>2025-02-25T12:46:39Z</time>
      </trkpt>
      <trkpt lat="48.10229" lon="-3.55285">
        <ele>190</ele>
        <time>2025-02-25T12:46:40Z</time>
      </trkpt>
      <trkpt lat="48.10229" lon="-3.55284">
        <ele>190</ele>
        <time>2025-02-25T12:46:41Z</time>
      </trkpt>
      <trkpt lat="48.10229" lon="-3.55282">
        <ele>190.1</ele>
        <time>2025-02-25T12:46:42Z</time>
      </trkpt>
      <trkpt lat="48.1023" lon="-3.55281">
        <ele>190.2</ele>
        <time>2025-02-25T12:46:43Z</time>
      </trkpt>
      <trkpt lat="48.1023" lon="-3.55279">
        <ele>190.2</ele>
        <time>2025-02-25T12:46:44Z</time>
      </trkpt>
      <trkpt lat="48.1023" lon="-3.55278">
        <ele>190.3</ele>
        <time>2025-02-25T12:46:45Z</time>
      </trkpt>
      <trkpt lat="48.1023" lon="-3.55276">
        <ele>190.3</ele>
        <time>2025-02-25T12:46:46Z</time>
      </trkpt>
      <trkpt lat="48.1023" lon="-3.55275">
        <ele>190.3</ele>
        <time>2025-02-25T12:46:47Z</time>
      </trkpt>
      <trkpt lat="48.1023" lon="-3.55273">
        <ele>190.3</ele>
        <time>2025-02-25T12:46:48Z</time>
      </trkpt>
      <trkpt lat="48.1023" lon="-3.55272">
        <ele>190.3</ele>
        <time>2025-02-25T12:46:49Z</time>
      </trkpt>
      <trkpt lat="48.10231" lon="-3.5527">
        <ele>190.3</ele>
        <time>2025-02-25T12:46:50Z</time>
      </trkpt>
      <trkpt lat="48.10231" lon="-3.55269">
        <ele>190.3</ele>
        <time>2025-02-25T12:46:51Z</time>
      </trkpt>
      <trkpt lat="48.10231" lon="-3.55268">
        <ele>190.3</ele>
        <time>2025-02-25T12:46:52Z</time>
      </trkpt>
      <trkpt lat="48.10231" lon="-3.55266">
        <ele>190.3</ele>
        <time>2025-02-25T12:46:53Z</time>
      </trkpt>
      <trkpt lat="48.10231" lon="-3.55265">
        <ele>190.3</ele>
        <time>2025-02-25T12:46:54Z</time>
      </trkpt>
      <trkpt lat="48.10232" lon="-3.55264">
        <ele>190.4</ele>
        <time>2025-02-25T12:46:55Z</time>
      </trkpt>
      <trkpt lat="48.10232" lon="-3.55262">
        <ele>190.4</ele>
        <time>2025-02-25T12:46:56Z</time>
      </trkpt>
      <trkpt lat="48.10232" lon="-3.55261">
        <ele>190.4</ele>
        <time>2025-02-25T12:46:57Z</time>
      </trkpt>
      <trkpt lat="48.10232" lon="-3.5526">
        <ele>190.4</ele>
        <time>2025-02-25T12:46:58Z</time>
      </trkpt>
      <trkpt lat="48.10233" lon="-3.55258">
        <ele>190.4</ele>
        <time>2025-02-25T12:46:59Z</time>
      </trkpt>
      <trkpt lat="48.10234" lon="-3.55258">
        <ele>190.4</ele>
        <time>2025-02-25T12:47:00Z</time>
      </trkpt>
      <trkpt lat="48.10234" lon="-3.55256">
        <ele>190.4</ele>
        <time>2025-02-25T12:47:01Z</time>
      </trkpt>
      <trkpt lat="48.10234" lon="-3.55255">
        <ele>190.4</ele>
        <time>2025-02-25T12:47:02Z</time>
      </trkpt>
      <trkpt lat="48.10235" lon="-3.55253">
        <ele>190.5</ele>
        <time>2025-02-25T12:47:03Z</time>
      </trkpt>
      <trkpt lat="48.10236" lon="-3.55252">
        <ele>190.5</ele>
        <time>2025-02-25T12:47:04Z</time>
      </trkpt>
      <trkpt lat="48.10236" lon="-3.55251">
        <ele>190.5</ele>
        <time>2025-02-25T12:47:05Z</time>
      </trkpt>
      <trkpt lat="48.10237" lon="-3.5525">
        <ele>190.5</ele>
        <time>2025-02-25T12:47:06Z</time>
      </trkpt>
      <trkpt lat="48.10238" lon="-3.55249">
        <ele>190.6</ele>
        <time>2025-02-25T12:47:07Z</time>
      </trkpt>
      <trkpt lat="48.10239" lon="-3.55246">
        <ele>190.7</ele>
        <time>2025-02-25T12:47:08Z</time>
      </trkpt>
      <trkpt lat="48.1024" lon="-3.55244">
        <ele>190.7</ele>
        <time>2025-02-25T12:47:09Z</time>
      </trkpt>
      <trkpt lat="48.1024" lon="-3.55243">
        <ele>190.7</ele>
        <time>2025-02-25T12:47:10Z</time>
      </trkpt>
      <trkpt lat="48.10241" lon="-3.55241">
        <ele>190.8</ele>
        <time>2025-02-25T12:47:11Z</time>
      </trkpt>
      <trkpt lat="48.10242" lon="-3.5524">
        <ele>190.8</ele>
        <time>2025-02-25T12:47:12Z</time>
      </trkpt>
      <trkpt lat="48.10243" lon="-3.55238">
        <ele>190.9</ele>
        <time>2025-02-25T12:47:13Z</time>
      </trkpt>
      <trkpt lat="48.10244" lon="-3.55236">
        <ele>190.9</ele>
        <time>2025-02-25T12:47:14Z</time>
      </trkpt>
      <trkpt lat="48.10245" lon="-3.55235">
        <ele>190.9</ele>
        <time>2025-02-25T12:47:15Z</time>
      </trkpt>
      <trkpt lat="48.10246" lon="-3.55233">
        <ele>190.9</ele>
        <time>2025-02-25T12:47:16Z</time>
      </trkpt>
      <trkpt lat="48.10247" lon="-3.55231">
        <ele>191</ele>
        <time>2025-02-25T12:47:17Z</time>
      </trkpt>
      <trkpt lat="48.10247" lon="-3.5523">
        <ele>191</ele>
        <time>2025-02-25T12:47:18Z</time>
      </trkpt>
      <trkpt lat="48.10248" lon="-3.55229">
        <ele>191</ele>
        <time>2025-02-25T12:47:19Z</time>
      </trkpt>
      <trkpt lat="48.10249" lon="-3.55228">
        <ele>191</ele>
        <time>2025-02-25T12:47:20Z</time>
      </trkpt>
      <trkpt lat="48.10249" lon="-3.55226">
        <ele>191</ele>
        <time>2025-02-25T12:47:21Z</time>
      </trkpt>
      <trkpt lat="48.1025" lon="-3.55225">
        <ele>191</ele>
        <time>2025-02-25T12:47:22Z</time>
      </trkpt>
      <trkpt lat="48.1025" lon="-3.55224">
        <ele>191</ele>
        <time>2025-02-25T12:47:23Z</time>
      </trkpt>
      <trkpt lat="48.10251" lon="-3.55222">
        <ele>191.1</ele>
        <time>2025-02-25T12:47:24Z</time>
      </trkpt>
      <trkpt lat="48.10252" lon="-3.55221">
        <ele>191.2</ele>
        <time>2025-02-25T12:47:25Z</time>
      </trkpt>
      <trkpt lat="48.10252" lon="-3.5522">
        <ele>191.2</ele>
        <time>2025-02-25T12:47:26Z</time>
      </trkpt>
      <trkpt lat="48.10253" lon="-3.55219">
        <ele>191.3</ele>
        <time>2025-02-25T12:47:27Z</time>
      </trkpt>
      <trkpt lat="48.10254" lon="-3.55219">
        <ele>191.4</ele>
        <time>2025-02-25T12:47:28Z</time>
      </trkpt>
      <trkpt lat="48.10255" lon="-3.55219">
        <ele>191.5</ele>
        <time>2025-02-25T12:47:29Z</time>
      </trkpt>
      <trkpt lat="48.10256" lon="-3.55219">
        <ele>191.5</ele>
        <time>2025-02-25T12:47:30Z</time>
      </trkpt>
      <trkpt lat="48.10257" lon="-3.55218">
        <ele>191.6</ele>
        <time>2025-02-25T12:47:31Z</time>
      </trkpt>
      <trkpt lat="48.10258" lon="-3.55218">
        <ele>191.7</ele>
        <time>2025-02-25T12:47:32Z</time>
      </trkpt>
      <trkpt lat="48.10259" lon="-3.55218">
        <ele>191.8</ele>
        <time>2025-02-25T12:47:33Z</time>
      </trkpt>
      <trkpt lat="48.1026" lon="-3.55217">
        <ele>191.8</ele>
        <time>2025-02-25T12:47:34Z</time>
      </trkpt>
      <trkpt lat="48.10261" lon="-3.55217">
        <ele>191.9</ele>
        <time>2025-02-25T12:47:35Z</time>
      </trkpt>
      <trkpt lat="48.10263" lon="-3.55217">
        <ele>192</ele>
        <time>2025-02-25T12:47:36Z</time>
      </trkpt>
      <trkpt lat="48.10264" lon="-3.55217">
        <ele>192.1</ele>
        <time>2025-02-25T12:47:37Z</time>
      </trkpt>
      <trkpt lat="48.10265" lon="-3.55216">
        <ele>192.2</ele>
        <time>2025-02-25T12:47:38Z</time>
      </trkpt>
      <trkpt lat="48.10266" lon="-3.55215">
        <ele>192.3</ele>
        <time>2025-02-25T12:47:39Z</time>
      </trkpt>
      <trkpt lat="48.10267" lon="-3.55215">
        <ele>192.3</ele>
        <time>2025-02-25T12:47:40Z</time>
      </trkpt>
      <trkpt lat="48.10268" lon="-3.55214">
        <ele>192.4</ele>
        <time>2025-02-25T12:47:41Z</time>
      </trkpt>
      <trkpt lat="48.10268" lon="-3.55214">
        <ele>192.4</ele>
        <time>2025-02-25T12:47:42Z</time>
      </trkpt>
      <trkpt lat="48.10269" lon="-3.55213">
        <ele>192.5</ele>
        <time>2025-02-25T12:47:43Z</time>
      </trkpt>
      <trkpt lat="48.10271" lon="-3.55213">
        <ele>192.6</ele>
        <time>2025-02-25T12:47:44Z</time>
      </trkpt>
      <trkpt lat="48.10272" lon="-3.55212">
        <ele>192.7</ele>
        <time>2025-02-25T12:47:45Z</time>
      </trkpt>
      <trkpt lat="48.10273" lon="-3.55212">
        <ele>192.7</ele>
        <time>2025-02-25T12:47:46Z</time>
      </trkpt>
      <trkpt lat="48.10274" lon="-3.55212">
        <ele>192.8</ele>
        <time>2025-02-25T12:47:47Z</time>
      </trkpt>
      <trkpt lat="48.10275" lon="-3.55211">
        <ele>192.8</ele>
        <time>2025-02-25T12:47:48Z</time>
      </trkpt>
      <trkpt lat="48.10277" lon="-3.55212">
        <ele>193</ele>
        <time>2025-02-25T12:47:49Z</time>
      </trkpt>
      <trkpt lat="48.10278" lon="-3.55211">
        <ele>193</ele>
        <time>2025-02-25T12:47:50Z</time>
      </trkpt>
      <trkpt lat="48.10279" lon="-3.55212">
        <ele>193</ele>
        <time>2025-02-25T12:47:51Z</time>
      </trkpt>
      <trkpt lat="48.1028" lon="-3.55212">
        <ele>193.1</ele>
        <time>2025-02-25T12:47:52Z</time>
      </trkpt>
      <trkpt lat="48.10281" lon="-3.55212">
        <ele>193.1</ele>
        <time>2025-02-25T12:47:53Z</time>
      </trkpt>
      <trkpt lat="48.10282" lon="-3.55212">
        <ele>193.2</ele>
        <time>2025-02-25T12:47:54Z</time>
      </trkpt>
      <trkpt lat="48.10283" lon="-3.55212">
        <ele>193.2</ele>
        <time>2025-02-25T12:47:55Z</time>
      </trkpt>
      <trkpt lat="48.10284" lon="-3.55212">
        <ele>193.2</ele>
        <time>2025-02-25T12:47:56Z</time>
      </trkpt>
      <trkpt lat="48.10285" lon="-3.55212">
        <ele>193.3</ele>
        <time>2025-02-25T12:47:57Z</time>
      </trkpt>
      <trkpt lat="48.10286" lon="-3.55212">
        <ele>193.3</ele>
        <time>2025-02-25T12:47:58Z</time>
      </trkpt>
      <trkpt lat="48.10287" lon="-3.55211">
        <ele>193.3</ele>
        <time>2025-02-25T12:47:59Z</time>
      </trkpt>
      <trkpt lat="48.10289" lon="-3.55211">
        <ele>193.4</ele>
        <time>2025-02-25T12:48:00Z</time>
      </trkpt>
      <trkpt lat="48.1029" lon="-3.55211">
        <ele>193.4</ele>
        <time>2025-02-25T12:48:01Z</time>
      </trkpt>
      <trkpt lat="48.10291" lon="-3.55211">
        <ele>193.5</ele>
        <time>2025-02-25T12:48:02Z</time>
      </trkpt>
      <trkpt lat="48.10292" lon="-3.55211">
        <ele>193.5</ele>
        <time>2025-02-25T12:48:03Z</time>
      </trkpt>
      <trkpt lat="48.10294" lon="-3.55211">
        <ele>193.6</ele>
        <time>2025-02-25T12:48:04Z</time>
      </trkpt>
      <trkpt lat="48.10295" lon="-3.55211">
        <ele>193.6</ele>
        <time>2025-02-25T12:48:05Z</time>
      </trkpt>
      <trkpt lat="48.10296" lon="-3.55211">
        <ele>193.7</ele>
        <time>2025-02-25T12:48:06Z</time>
      </trkpt>
      <trkpt lat="48.10297" lon="-3.55211">
        <ele>193.7</ele>
        <time>2025-02-25T12:48:07Z</time>
      </trkpt>
      <trkpt lat="48.10298" lon="-3.5521">
        <ele>193.7</ele>
        <time>2025-02-25T12:48:08Z</time>
      </trkpt>
      <trkpt lat="48.103" lon="-3.5521">
        <ele>193.8</ele>
        <time>2025-02-25T12:48:09Z</time>
      </trkpt>
      <trkpt lat="48.10301" lon="-3.5521">
        <ele>193.8</ele>
        <time>2025-02-25T12:48:10Z</time>
      </trkpt>
      <trkpt lat="48.10302" lon="-3.5521">
        <ele>193.9</ele>
        <time>2025-02-25T12:48:11Z</time>
      </trkpt>
      <trkpt lat="48.10303" lon="-3.5521">
        <ele>193.9</ele>
        <time>2025-02-25T12:48:12Z</time>
      </trkpt>
      <trkpt lat="48.10304" lon="-3.5521">
        <ele>193.9</ele>
        <time>2025-02-25T12:48:13Z</time>
      </trkpt>
      <trkpt lat="48.10305" lon="-3.5521">
        <ele>194</ele>
        <time>2025-02-25T12:48:14Z</time>
      </trkpt>
      <trkpt lat="48.10306" lon="-3.5521">
        <ele>194</ele>
        <time>2025-02-25T12:48:15Z</time>
      </trkpt>
      <trkpt lat="48.10308" lon="-3.5521">
        <ele>194.2</ele>
        <time>2025-02-25T12:48:16Z</time>
      </trkpt>
      <trkpt lat="48.10309" lon="-3.55209">
        <ele>194.3</ele>
        <time>2025-02-25T12:48:17Z</time>
      </trkpt>
      <trkpt lat="48.1031" lon="-3.55209">
        <ele>194.4</ele>
        <time>2025-02-25T12:48:18Z</time>
      </trkpt>
      <trkpt lat="48.10311" lon="-3.55209">
        <ele>194.5</ele>
        <time>2025-02-25T12:48:19Z</time>
      </trkpt>
      <trkpt lat="48.10313" lon="-3.55209">
        <ele>194.7</ele>
        <time>2025-02-25T12:48:20Z</time>
      </trkpt>
      <trkpt lat="48.10314" lon="-3.5521">
        <ele>194.8</ele>
        <time>2025-02-25T12:48:21Z</time>
      </trkpt>
      <trkpt lat="48.10315" lon="-3.55211">
        <ele>194.9</ele>
        <time>2025-02-25T12:48:22Z</time>
      </trkpt>
      <trkpt lat="48.10316" lon="-3.55211">
        <ele>195</ele>
        <time>2025-02-25T12:48:23Z</time>
      </trkpt>
      <trkpt lat="48.10317" lon="-3.55211">
        <ele>195.1</ele>
        <time>2025-02-25T12:48:24Z</time>
      </trkpt>
      <trkpt lat="48.10319" lon="-3.55211">
        <ele>195.3</ele>
        <time>2025-02-25T12:48:25Z</time>
      </trkpt>
      <trkpt lat="48.1032" lon="-3.55211">
        <ele>195.3</ele>
        <time>2025-02-25T12:48:26Z</time>
      </trkpt>
      <trkpt lat="48.10321" lon="-3.55211">
        <ele>195.4</ele>
        <time>2025-02-25T12:48:27Z</time>
      </trkpt>
      <trkpt lat="48.10322" lon="-3.5521">
        <ele>195.5</ele>
        <time>2025-02-25T12:48:28Z</time>
      </trkpt>
      <trkpt lat="48.10323" lon="-3.5521">
        <ele>195.6</ele>
        <time>2025-02-25T12:48:29Z</time>
      </trkpt>
      <trkpt lat="48.10324" lon="-3.5521">
        <ele>195.7</ele>
        <time>2025-02-25T12:48:30Z</time>
      </trkpt>
      <trkpt lat="48.10325" lon="-3.5521">
        <ele>195.8</ele>
        <time>2025-02-25T12:48:31Z</time>
      </trkpt>
      <trkpt lat="48.10326" lon="-3.55209">
        <ele>195.9</ele>
        <time>2025-02-25T12:48:32Z</time>
      </trkpt>
      <trkpt lat="48.10327" lon="-3.55209">
        <ele>195.9</ele>
        <time>2025-02-25T12:48:33Z</time>
      </trkpt>
      <trkpt lat="48.10328" lon="-3.55209">
        <ele>196</ele>
        <time>2025-02-25T12:48:34Z</time>
      </trkpt>
      <trkpt lat="48.1033" lon="-3.55209">
        <ele>196.2</ele>
        <time>2025-02-25T12:48:35Z</time>
      </trkpt>
      <trkpt lat="48.10331" lon="-3.5521">
        <ele>196.3</ele>
        <time>2025-02-25T12:48:36Z</time>
      </trkpt>
      <trkpt lat="48.10332" lon="-3.55211">
        <ele>196.5</ele>
        <time>2025-02-25T12:48:37Z</time>
      </trkpt>
      <trkpt lat="48.10333" lon="-3.5521">
        <ele>196.5</ele>
        <time>2025-02-25T12:48:38Z</time>
      </trkpt>
      <trkpt lat="48.10334" lon="-3.55211">
        <ele>196.6</ele>
        <time>2025-02-25T12:48:39Z</time>
      </trkpt>
      <trkpt lat="48.10335" lon="-3.55211">
        <ele>196.6</ele>
        <time>2025-02-25T12:48:40Z</time>
      </trkpt>
      <trkpt lat="48.10337" lon="-3.55212">
        <ele>196.7</ele>
        <time>2025-02-25T12:48:41Z</time>
      </trkpt>
      <trkpt lat="48.10338" lon="-3.55212">
        <ele>196.8</ele>
        <time>2025-02-25T12:48:42Z</time>
      </trkpt>
      <trkpt lat="48.10339" lon="-3.55212">
        <ele>196.8</ele>
        <time>2025-02-25T12:48:43Z</time>
      </trkpt>
      <trkpt lat="48.1034" lon="-3.55212">
        <ele>196.8</ele>
        <time>2025-02-25T12:48:44Z</time>
      </trkpt>
      <trkpt lat="48.10342" lon="-3.55214">
        <ele>196.9</ele>
        <time>2025-02-25T12:48:45Z</time>
      </trkpt>
      <trkpt lat="48.10342" lon="-3.55215">
        <ele>196.9</ele>
        <time>2025-02-25T12:48:46Z</time>
      </trkpt>
      <trkpt lat="48.10343" lon="-3.55216">
        <ele>196.9</ele>
        <time>2025-02-25T12:48:47Z</time>
      </trkpt>
      <trkpt lat="48.10343" lon="-3.55217">
        <ele>196.9</ele>
        <time>2025-02-25T12:48:48Z</time>
      </trkpt>
      <trkpt lat="48.10345" lon="-3.55216">
        <ele>197</ele>
        <time>2025-02-25T12:48:49Z</time>
      </trkpt>
      <trkpt lat="48.10345" lon="-3.55217">
        <ele>197</ele>
        <time>2025-02-25T12:48:50Z</time>
      </trkpt>
      <trkpt lat="48.10346" lon="-3.55217">
        <ele>197</ele>
        <time>2025-02-25T12:48:51Z</time>
      </trkpt>
      <trkpt lat="48.10347" lon="-3.55217">
        <ele>197</ele>
        <time>2025-02-25T12:48:52Z</time>
      </trkpt>
      <trkpt lat="48.10347" lon="-3.55217">
        <ele>197</ele>
        <time>2025-02-25T12:48:53Z</time>
      </trkpt>
      <trkpt lat="48.10347" lon="-3.55218">
        <ele>197</ele>
        <time>2025-02-25T12:48:54Z</time>
      </trkpt>
      <trkpt lat="48.10347" lon="-3.55219">
        <ele>197</ele>
        <time>2025-02-25T12:48:55Z</time>
      </trkpt>
      <trkpt lat="48.10347" lon="-3.5522">
        <ele>197</ele>
        <time>2025-02-25T12:48:56Z</time>
      </trkpt>
      <trkpt lat="48.10348" lon="-3.5522">
        <ele>197</ele>
        <time>2025-02-25T12:48:57Z</time>
      </trkpt>
      <trkpt lat="48.10349" lon="-3.5522">
        <ele>197</ele>
        <time>2025-02-25T12:48:58Z</time>
      </trkpt>
      <trkpt lat="48.1035" lon="-3.5522">
        <ele>197</ele>
        <time>2025-02-25T12:48:59Z</time>
      </trkpt>
      <trkpt lat="48.10351" lon="-3.5522">
        <ele>197</ele>
        <time>2025-02-25T12:49:00Z</time>
      </trkpt>
      <trkpt lat="48.10352" lon="-3.5522">
        <ele>197</ele>
        <time>2025-02-25T12:49:01Z</time>
      </trkpt>
      <trkpt lat="48.10353" lon="-3.55221">
        <ele>197</ele>
        <time>2025-02-25T12:49:02Z</time>
      </trkpt>
      <trkpt lat="48.10354" lon="-3.55221">
        <ele>197</ele>
        <time>2025-02-25T12:49:03Z</time>
      </trkpt>
      <trkpt lat="48.10355" lon="-3.55222">
        <ele>197</ele>
        <time>2025-02-25T12:49:04Z</time>
      </trkpt>
      <trkpt lat="48.10356" lon="-3.55222">
        <ele>197</ele>
        <time>2025-02-25T12:49:05Z</time>
      </trkpt>
      <trkpt lat="48.10358" lon="-3.55221">
        <ele>197</ele>
        <time>2025-02-25T12:49:06Z</time>
      </trkpt>
      <trkpt lat="48.10359" lon="-3.55221">
        <ele>197</ele>
        <time>2025-02-25T12:49:07Z</time>
      </trkpt>
      <trkpt lat="48.1036" lon="-3.5522">
        <ele>197.1</ele>
        <time>2025-02-25T12:49:08Z</time>
      </trkpt>
      <trkpt lat="48.10362" lon="-3.55221">
        <ele>197.1</ele>
        <time>2025-02-25T12:49:09Z</time>
      </trkpt>
      <trkpt lat="48.10363" lon="-3.55222">
        <ele>197.1</ele>
        <time>2025-02-25T12:49:10Z</time>
      </trkpt>
      <trkpt lat="48.10364" lon="-3.55223">
        <ele>197.1</ele>
        <time>2025-02-25T12:49:11Z</time>
      </trkpt>
      <trkpt lat="48.10365" lon="-3.55223">
        <ele>197.1</ele>
        <time>2025-02-25T12:49:12Z</time>
      </trkpt>
      <trkpt lat="48.10366" lon="-3.55224">
        <ele>197.1</ele>
        <time>2025-02-25T12:49:13Z</time>
      </trkpt>
      <trkpt lat="48.10367" lon="-3.55224">
        <ele>197.1</ele>
        <time>2025-02-25T12:49:14Z</time>
      </trkpt>
      <trkpt lat="48.10366" lon="-3.55223">
        <ele>197.1</ele>
        <time>2025-02-25T12:49:15Z</time>
      </trkpt>
      <trkpt lat="48.10365" lon="-3.55223">
        <ele>197.1</ele>
        <time>2025-02-25T12:49:16Z</time>
      </trkpt>
      <trkpt lat="48.10364" lon="-3.55223">
        <ele>197.1</ele>
        <time>2025-02-25T12:49:17Z</time>
      </trkpt>
      <trkpt lat="48.10364" lon="-3.55223">
        <ele>197.1</ele>
        <time>2025-02-25T12:49:18Z</time>
      </trkpt>
      <trkpt lat="48.10364" lon="-3.55223">
        <ele>197.1</ele>
        <time>2025-02-25T12:49:19Z</time>
      </trkpt>
      <trkpt lat="48.10365" lon="-3.55223">
        <ele>197.1</ele>
        <time>2025-02-25T12:49:20Z</time>
      </trkpt>
      <trkpt lat="48.10366" lon="-3.55224">
        <ele>197.1</ele>
        <time>2025-02-25T12:49:21Z</time>
      </trkpt>
      <trkpt lat="48.10368" lon="-3.55224">
        <ele>197.2</ele>
        <time>2025-02-25T12:49:22Z</time>
      </trkpt>
      <trkpt lat="48.10369" lon="-3.55225">
        <ele>197.2</ele>
        <time>2025-02-25T12:49:23Z</time>
      </trkpt>
      <trkpt lat="48.1037" lon="-3.55225">
        <ele>197.2</ele>
        <time>2025-02-25T12:49:24Z</time>
      </trkpt>
      <trkpt lat="48.10371" lon="-3.55226">
        <ele>197.2</ele>
        <time>2025-02-25T12:49:25Z</time>
      </trkpt>
      <trkpt lat="48.10373" lon="-3.55227">
        <ele>197.2</ele>
        <time>2025-02-25T12:49:26Z</time>
      </trkpt>
      <trkpt lat="48.10374" lon="-3.55228">
        <ele>197.2</ele>
        <time>2025-02-25T12:49:27Z</time>
      </trkpt>
      <trkpt lat="48.10375" lon="-3.55228">
        <ele>197.2</ele>
        <time>2025-02-25T12:49:28Z</time>
      </trkpt>
      <trkpt lat="48.10377" lon="-3.55229">
        <ele>197.2</ele>
        <time>2025-02-25T12:49:29Z</time>
      </trkpt>
      <trkpt lat="48.10378" lon="-3.55229">
        <ele>197.2</ele>
        <time>2025-02-25T12:49:30Z</time>
      </trkpt>
      <trkpt lat="48.10379" lon="-3.5523">
        <ele>197.2</ele>
        <time>2025-02-25T12:49:31Z</time>
      </trkpt>
      <trkpt lat="48.1038" lon="-3.55231">
        <ele>197.1</ele>
        <time>2025-02-25T12:49:32Z</time>
      </trkpt>
      <trkpt lat="48.10382" lon="-3.55231">
        <ele>197.2</ele>
        <time>2025-02-25T12:49:33Z</time>
      </trkpt>
      <trkpt lat="48.10383" lon="-3.55231">
        <ele>197.2</ele>
        <time>2025-02-25T12:49:34Z</time>
      </trkpt>
      <trkpt lat="48.10385" lon="-3.55232">
        <ele>197.2</ele>
        <time>2025-02-25T12:49:35Z</time>
      </trkpt>
      <trkpt lat="48.10387" lon="-3.55232">
        <ele>197.3</ele>
        <time>2025-02-25T12:49:36Z</time>
      </trkpt>
      <trkpt lat="48.10388" lon="-3.55233">
        <ele>197.2</ele>
        <time>2025-02-25T12:49:37Z</time>
      </trkpt>
      <trkpt lat="48.1039" lon="-3.55233">
        <ele>197.2</ele>
        <time>2025-02-25T12:49:38Z</time>
      </trkpt>
      <trkpt lat="48.10392" lon="-3.55234">
        <ele>197.2</ele>
        <time>2025-02-25T12:49:39Z</time>
      </trkpt>
      <trkpt lat="48.10394" lon="-3.55234">
        <ele>197.2</ele>
        <time>2025-02-25T12:49:40Z</time>
      </trkpt>
      <trkpt lat="48.10396" lon="-3.55234">
        <ele>197.2</ele>
        <time>2025-02-25T12:49:41Z</time>
      </trkpt>
      <trkpt lat="48.10397" lon="-3.55235">
        <ele>197.1</ele>
        <time>2025-02-25T12:49:42Z</time>
      </trkpt>
      <trkpt lat="48.10398" lon="-3.55236">
        <ele>197</ele>
        <time>2025-02-25T12:49:43Z</time>
      </trkpt>
      <trkpt lat="48.10399" lon="-3.55236">
        <ele>197</ele>
        <time>2025-02-25T12:49:44Z</time>
      </trkpt>
      <trkpt lat="48.104" lon="-3.55237">
        <ele>196.9</ele>
        <time>2025-02-25T12:49:45Z</time>
      </trkpt>
      <trkpt lat="48.10401" lon="-3.55238">
        <ele>196.9</ele>
        <time>2025-02-25T12:49:46Z</time>
      </trkpt>
      <trkpt lat="48.10403" lon="-3.55238">
        <ele>196.9</ele>
        <time>2025-02-25T12:49:47Z</time>
      </trkpt>
      <trkpt lat="48.10405" lon="-3.55239">
        <ele>196.8</ele>
        <time>2025-02-25T12:49:48Z</time>
      </trkpt>
      <trkpt lat="48.10406" lon="-3.55239">
        <ele>196.8</ele>
        <time>2025-02-25T12:49:49Z</time>
      </trkpt>
      <trkpt lat="48.10408" lon="-3.55239">
        <ele>196.8</ele>
        <time>2025-02-25T12:49:50Z</time>
      </trkpt>
      <trkpt lat="48.1041" lon="-3.55239">
        <ele>196.8</ele>
        <time>2025-02-25T12:49:51Z</time>
      </trkpt>
      <trkpt lat="48.10411" lon="-3.55239">
        <ele>196.8</ele>
        <time>2025-02-25T12:49:52Z</time>
      </trkpt>
      <trkpt lat="48.10412" lon="-3.5524">
        <ele>196.7</ele>
        <time>2025-02-25T12:49:53Z</time>
      </trkpt>
      <trkpt lat="48.10412" lon="-3.5524">
        <ele>196.7</ele>
        <time>2025-02-25T12:49:54Z</time>
      </trkpt>
      <trkpt lat="48.10413" lon="-3.5524">
        <ele>196.7</ele>
        <time>2025-02-25T12:49:55Z</time>
      </trkpt>
      <trkpt lat="48.10414" lon="-3.5524">
        <ele>196.7</ele>
        <time>2025-02-25T12:49:56Z</time>
      </trkpt>
      <trkpt lat="48.10415" lon="-3.55241">
        <ele>196.6</ele>
        <time>2025-02-25T12:49:57Z</time>
      </trkpt>
      <trkpt lat="48.10416" lon="-3.55241">
        <ele>196.6</ele>
        <time>2025-02-25T12:49:58Z</time>
      </trkpt>
      <trkpt lat="48.10418" lon="-3.55241">
        <ele>196.6</ele>
        <time>2025-02-25T12:49:59Z</time>
      </trkpt>
      <trkpt lat="48.10419" lon="-3.55241">
        <ele>196.6</ele>
        <time>2025-02-25T12:50:00Z</time>
      </trkpt>
      <trkpt lat="48.1042" lon="-3.55242">
        <ele>196.5</ele>
        <time>2025-02-25T12:50:01Z</time>
      </trkpt>
      <trkpt lat="48.10422" lon="-3.55243">
        <ele>196.3</ele>
        <time>2025-02-25T12:50:02Z</time>
      </trkpt>
      <trkpt lat="48.10422" lon="-3.55243">
        <ele>196.3</ele>
        <time>2025-02-25T12:50:03Z</time>
      </trkpt>
      <trkpt lat="48.10423" lon="-3.55243">
        <ele>196.3</ele>
        <time>2025-02-25T12:50:04Z</time>
      </trkpt>
      <trkpt lat="48.10424" lon="-3.55244">
        <ele>196.2</ele>
        <time>2025-02-25T12:50:05Z</time>
      </trkpt>
      <trkpt lat="48.10425" lon="-3.55244">
        <ele>196.1</ele>
        <time>2025-02-25T12:50:06Z</time>
      </trkpt>
      <trkpt lat="48.10426" lon="-3.55244">
        <ele>196.1</ele>
        <time>2025-02-25T12:50:07Z</time>
      </trkpt>
      <trkpt lat="48.10428" lon="-3.55245">
        <ele>196</ele>
        <time>2025-02-25T12:50:08Z</time>
      </trkpt>
      <trkpt lat="48.10429" lon="-3.55245">
        <ele>195.9</ele>
        <time>2025-02-25T12:50:09Z</time>
      </trkpt>
      <trkpt lat="48.10431" lon="-3.55245">
        <ele>195.8</ele>
        <time>2025-02-25T12:50:10Z</time>
      </trkpt>
      <trkpt lat="48.10432" lon="-3.55245">
        <ele>195.8</ele>
        <time>2025-02-25T12:50:11Z</time>
      </trkpt>
      <trkpt lat="48.10433" lon="-3.55245">
        <ele>195.8</ele>
        <time>2025-02-25T12:50:12Z</time>
      </trkpt>
      <trkpt lat="48.10433" lon="-3.55245">
        <ele>195.8</ele>
        <time>2025-02-25T12:50:13Z</time>
      </trkpt>
      <trkpt lat="48.10435" lon="-3.55245">
        <ele>195.7</ele>
        <time>2025-02-25T12:50:14Z</time>
      </trkpt>
      <trkpt lat="48.10436" lon="-3.55245">
        <ele>195.7</ele>
        <time>2025-02-25T12:50:15Z</time>
      </trkpt>
      <trkpt lat="48.10437" lon="-3.55245">
        <ele>195.6</ele>
        <time>2025-02-25T12:50:16Z</time>
      </trkpt>
      <trkpt lat="48.10438" lon="-3.55245">
        <ele>195.6</ele>
        <time>2025-02-25T12:50:17Z</time>
      </trkpt>
      <trkpt lat="48.1044" lon="-3.55245">
        <ele>195.5</ele>
        <time>2025-02-25T12:50:18Z</time>
      </trkpt>
      <trkpt lat="48.10441" lon="-3.55245">
        <ele>195.5</ele>
        <time>2025-02-25T12:50:19Z</time>
      </trkpt>
      <trkpt lat="48.10442" lon="-3.55245">
        <ele>195.4</ele>
        <time>2025-02-25T12:50:20Z</time>
      </trkpt>
      <trkpt lat="48.10442" lon="-3.55246">
        <ele>195.4</ele>
        <time>2025-02-25T12:50:21Z</time>
      </trkpt>
      <trkpt lat="48.10443" lon="-3.55246">
        <ele>195.3</ele>
        <time>2025-02-25T12:50:22Z</time>
      </trkpt>
      <trkpt lat="48.10444" lon="-3.55247">
        <ele>195.2</ele>
        <time>2025-02-25T12:50:23Z</time>
      </trkpt>
      <trkpt lat="48.10445" lon="-3.55248">
        <ele>195.1</ele>
        <time>2025-02-25T12:50:24Z</time>
      </trkpt>
      <trkpt lat="48.10446" lon="-3.55249">
        <ele>195</ele>
        <time>2025-02-25T12:50:25Z</time>
      </trkpt>
      <trkpt lat="48.10447" lon="-3.55251">
        <ele>194.9</ele>
        <time>2025-02-25T12:50:26Z</time>
      </trkpt>
      <trkpt lat="48.10448" lon="-3.55253">
        <ele>194.8</ele>
        <time>2025-02-25T12:50:27Z</time>
      </trkpt>
      <trkpt lat="48.10449" lon="-3.55254">
        <ele>194.7</ele>
        <time>2025-02-25T12:50:28Z</time>
      </trkpt>
      <trkpt lat="48.10449" lon="-3.55256">
        <ele>194.6</ele>
        <time>2025-02-25T12:50:29Z</time>
      </trkpt>
      <trkpt lat="48.10449" lon="-3.55258">
        <ele>194.5</ele>
        <time>2025-02-25T12:50:30Z</time>
      </trkpt>
      <trkpt lat="48.1045" lon="-3.55259">
        <ele>194.4</ele>
        <time>2025-02-25T12:50:31Z</time>
      </trkpt>
      <trkpt lat="48.10451" lon="-3.5526">
        <ele>194.3</ele>
        <time>2025-02-25T12:50:32Z</time>
      </trkpt>
      <trkpt lat="48.10451" lon="-3.55261">
        <ele>194.3</ele>
        <time>2025-02-25T12:50:33Z</time>
      </trkpt>
      <trkpt lat="48.10452" lon="-3.55262">
        <ele>194.2</ele>
        <time>2025-02-25T12:50:34Z</time>
      </trkpt>
      <trkpt lat="48.10453" lon="-3.55264">
        <ele>194</ele>
        <time>2025-02-25T12:50:35Z</time>
      </trkpt>
      <trkpt lat="48.10453" lon="-3.55265">
        <ele>194</ele>
        <time>2025-02-25T12:50:36Z</time>
      </trkpt>
      <trkpt lat="48.10454" lon="-3.55266">
        <ele>193.9</ele>
        <time>2025-02-25T12:50:37Z</time>
      </trkpt>
      <trkpt lat="48.10455" lon="-3.55267">
        <ele>193.8</ele>
        <time>2025-02-25T12:50:38Z</time>
      </trkpt>
      <trkpt lat="48.10456" lon="-3.55268">
        <ele>193.7</ele>
        <time>2025-02-25T12:50:39Z</time>
      </trkpt>
      <trkpt lat="48.10458" lon="-3.55269">
        <ele>193.5</ele>
        <time>2025-02-25T12:50:40Z</time>
      </trkpt>
      <trkpt lat="48.10459" lon="-3.5527">
        <ele>193.4</ele>
        <time>2025-02-25T12:50:41Z</time>
      </trkpt>
      <trkpt lat="48.1046" lon="-3.5527">
        <ele>193.3</ele>
        <time>2025-02-25T12:50:42Z</time>
      </trkpt>
      <trkpt lat="48.10462" lon="-3.55271">
        <ele>193.1</ele>
        <time>2025-02-25T12:50:43Z</time>
      </trkpt>
      <trkpt lat="48.10463" lon="-3.55272">
        <ele>193</ele>
        <time>2025-02-25T12:50:44Z</time>
      </trkpt>
      <trkpt lat="48.10464" lon="-3.55272">
        <ele>192.9</ele>
        <time>2025-02-25T12:50:45Z</time>
      </trkpt>
      <trkpt lat="48.10465" lon="-3.55273">
        <ele>192.8</ele>
        <time>2025-02-25T12:50:46Z</time>
      </trkpt>
      <trkpt lat="48.10467" lon="-3.55274">
        <ele>192.6</ele>
        <time>2025-02-25T12:50:47Z</time>
      </trkpt>
      <trkpt lat="48.10468" lon="-3.55275">
        <ele>192.5</ele>
        <time>2025-02-25T12:50:48Z</time>
      </trkpt>
      <trkpt lat="48.10469" lon="-3.55275">
        <ele>192.4</ele>
        <time>2025-02-25T12:50:49Z</time>
      </trkpt>
      <trkpt lat="48.10469" lon="-3.55275">
        <ele>192.4</ele>
        <time>2025-02-25T12:50:50Z</time>
      </trkpt>
      <trkpt lat="48.10471" lon="-3.55276">
        <ele>192.2</ele>
        <time>2025-02-25T12:50:51Z</time>
      </trkpt>
      <trkpt lat="48.10472" lon="-3.55276">
        <ele>192.1</ele>
        <time>2025-02-25T12:50:52Z</time>
      </trkpt>
      <trkpt lat="48.10473" lon="-3.55278">
        <ele>192</ele>
        <time>2025-02-25T12:50:53Z</time>
      </trkpt>
      <trkpt lat="48.10474" lon="-3.55279">
        <ele>191.9</ele>
        <time>2025-02-25T12:50:54Z</time>
      </trkpt>
      <trkpt lat="48.10475" lon="-3.55279">
        <ele>191.9</ele>
        <time>2025-02-25T12:50:55Z</time>
      </trkpt>
      <trkpt lat="48.10476" lon="-3.55279">
        <ele>191.8</ele>
        <time>2025-02-25T12:50:56Z</time>
      </trkpt>
      <trkpt lat="48.10478" lon="-3.55279">
        <ele>191.7</ele>
        <time>2025-02-25T12:50:57Z</time>
      </trkpt>
      <trkpt lat="48.10478" lon="-3.5528">
        <ele>191.7</ele>
        <time>2025-02-25T12:50:58Z</time>
      </trkpt>
      <trkpt lat="48.10479" lon="-3.55281">
        <ele>191.6</ele>
        <time>2025-02-25T12:50:59Z</time>
      </trkpt>
      <trkpt lat="48.10479" lon="-3.55282">
        <ele>191.6</ele>
        <time>2025-02-25T12:51:00Z</time>
      </trkpt>
      <trkpt lat="48.1048" lon="-3.55283">
        <ele>191.5</ele>
        <time>2025-02-25T12:51:01Z</time>
      </trkpt>
      <trkpt lat="48.10481" lon="-3.55284">
        <ele>191.4</ele>
        <time>2025-02-25T12:51:02Z</time>
      </trkpt>
      <trkpt lat="48.10482" lon="-3.55285">
        <ele>191.3</ele>
        <time>2025-02-25T12:51:03Z</time>
      </trkpt>
      <trkpt lat="48.10483" lon="-3.55287">
        <ele>191.2</ele>
        <time>2025-02-25T12:51:04Z</time>
      </trkpt>
      <trkpt lat="48.10485" lon="-3.55288">
        <ele>191</ele>
        <time>2025-02-25T12:51:05Z</time>
      </trkpt>
      <trkpt lat="48.10486" lon="-3.55289">
        <ele>190.9</ele>
        <time>2025-02-25T12:51:06Z</time>
      </trkpt>
      <trkpt lat="48.10487" lon="-3.5529">
        <ele>190.8</ele>
        <time>2025-02-25T12:51:07Z</time>
      </trkpt>
      <trkpt lat="48.10488" lon="-3.5529">
        <ele>190.7</ele>
        <time>2025-02-25T12:51:08Z</time>
      </trkpt>
      <trkpt lat="48.1049" lon="-3.5529">
        <ele>190.6</ele>
        <time>2025-02-25T12:51:09Z</time>
      </trkpt>
      <trkpt lat="48.1049" lon="-3.55291">
        <ele>190.6</ele>
        <time>2025-02-25T12:51:10Z</time>
      </trkpt>
      <trkpt lat="48.10491" lon="-3.55292">
        <ele>190.5</ele>
        <time>2025-02-25T12:51:11Z</time>
      </trkpt>
      <trkpt lat="48.10492" lon="-3.55293">
        <ele>190.3</ele>
        <time>2025-02-25T12:51:12Z</time>
      </trkpt>
      <trkpt lat="48.10493" lon="-3.55294">
        <ele>190.2</ele>
        <time>2025-02-25T12:51:13Z</time>
      </trkpt>
      <trkpt lat="48.10494" lon="-3.55294">
        <ele>190.2</ele>
        <time>2025-02-25T12:51:14Z</time>
      </trkpt>
      <trkpt lat="48.10495" lon="-3.55295">
        <ele>190.1</ele>
        <time>2025-02-25T12:51:15Z</time>
      </trkpt>
      <trkpt lat="48.10496" lon="-3.55296">
        <ele>189.9</ele>
        <time>2025-02-25T12:51:16Z</time>
      </trkpt>
      <trkpt lat="48.10496" lon="-3.55297">
        <ele>189.9</ele>
        <time>2025-02-25T12:51:17Z</time>
      </trkpt>
      <trkpt lat="48.10498" lon="-3.55298">
        <ele>189.7</ele>
        <time>2025-02-25T12:51:18Z</time>
      </trkpt>
      <trkpt lat="48.10499" lon="-3.55299">
        <ele>189.5</ele>
        <time>2025-02-25T12:51:19Z</time>
      </trkpt>
      <trkpt lat="48.105" lon="-3.55301">
        <ele>189.3</ele>
        <time>2025-02-25T12:51:20Z</time>
      </trkpt>
      <trkpt lat="48.10501" lon="-3.55302">
        <ele>189.2</ele>
        <time>2025-02-25T12:51:21Z</time>
      </trkpt>
      <trkpt lat="48.10501" lon="-3.55304">
        <ele>189.1</ele>
        <time>2025-02-25T12:51:22Z</time>
      </trkpt>
      <trkpt lat="48.10502" lon="-3.55305">
        <ele>189</ele>
        <time>2025-02-25T12:51:23Z</time>
      </trkpt>
      <trkpt lat="48.10503" lon="-3.55306">
        <ele>188.9</ele>
        <time>2025-02-25T12:51:24Z</time>
      </trkpt>
      <trkpt lat="48.10504" lon="-3.55306">
        <ele>188.8</ele>
        <time>2025-02-25T12:51:25Z</time>
      </trkpt>
      <trkpt lat="48.10505" lon="-3.55306">
        <ele>188.8</ele>
        <time>2025-02-25T12:51:26Z</time>
      </trkpt>
      <trkpt lat="48.10506" lon="-3.55306">
        <ele>188.8</ele>
        <time>2025-02-25T12:51:27Z</time>
      </trkpt>
      <trkpt lat="48.10507" lon="-3.55307">
        <ele>188.7</ele>
        <time>2025-02-25T12:51:28Z</time>
      </trkpt>
      <trkpt lat="48.10508" lon="-3.55309">
        <ele>188.6</ele>
        <time>2025-02-25T12:51:29Z</time>
      </trkpt>
      <trkpt lat="48.10509" lon="-3.5531">
        <ele>188.5</ele>
        <time>2025-02-25T12:51:30Z</time>
      </trkpt>
      <trkpt lat="48.10511" lon="-3.55311">
        <ele>188.3</ele>
        <time>2025-02-25T12:51:31Z</time>
      </trkpt>
      <trkpt lat="48.10512" lon="-3.55312">
        <ele>188.2</ele>
        <time>2025-02-25T12:51:32Z</time>
      </trkpt>
      <trkpt lat="48.10513" lon="-3.55312">
        <ele>188.2</ele>
        <time>2025-02-25T12:51:33Z</time>
      </trkpt>
      <trkpt lat="48.10514" lon="-3.55313">
        <ele>188.1</ele>
        <time>2025-02-25T12:51:34Z</time>
      </trkpt>
      <trkpt lat="48.10515" lon="-3.55315">
        <ele>187.9</ele>
        <time>2025-02-25T12:51:35Z</time>
      </trkpt>
      <trkpt lat="48.10516" lon="-3.55316">
        <ele>187.8</ele>
        <time>2025-02-25T12:51:36Z</time>
      </trkpt>
      <trkpt lat="48.10517" lon="-3.55317">
        <ele>187.7</ele>
        <time>2025-02-25T12:51:37Z</time>
      </trkpt>
      <trkpt lat="48.10518" lon="-3.55318">
        <ele>187.6</ele>
        <time>2025-02-25T12:51:38Z</time>
      </trkpt>
      <trkpt lat="48.10519" lon="-3.55319">
        <ele>187.5</ele>
        <time>2025-02-25T12:51:39Z</time>
      </trkpt>
      <trkpt lat="48.10521" lon="-3.5532">
        <ele>187.3</ele>
        <time>2025-02-25T12:51:40Z</time>
      </trkpt>
      <trkpt lat="48.10521" lon="-3.55322">
        <ele>187.2</ele>
        <time>2025-02-25T12:51:41Z</time>
      </trkpt>
      <trkpt lat="48.10523" lon="-3.55323">
        <ele>187</ele>
        <time>2025-02-25T12:51:42Z</time>
      </trkpt>
      <trkpt lat="48.10524" lon="-3.55323">
        <ele>187</ele>
        <time>2025-02-25T12:51:43Z</time>
      </trkpt>
      <trkpt lat="48.10525" lon="-3.55324">
        <ele>186.8</ele>
        <time>2025-02-25T12:51:44Z</time>
      </trkpt>
      <trkpt lat="48.10526" lon="-3.55324">
        <ele>186.8</ele>
        <time>2025-02-25T12:51:45Z</time>
      </trkpt>
      <trkpt lat="48.10527" lon="-3.55325">
        <ele>186.6</ele>
        <time>2025-02-25T12:51:46Z</time>
      </trkpt>
      <trkpt lat="48.10528" lon="-3.55326">
        <ele>186.5</ele>
        <time>2025-02-25T12:51:47Z</time>
      </trkpt>
      <trkpt lat="48.10529" lon="-3.55326">
        <ele>186.6</ele>
        <time>2025-02-25T12:51:48Z</time>
      </trkpt>
      <trkpt lat="48.1053" lon="-3.55326">
        <ele>186.6</ele>
        <time>2025-02-25T12:51:49Z</time>
      </trkpt>
      <trkpt lat="48.10531" lon="-3.55327">
        <ele>186.5</ele>
        <time>2025-02-25T12:51:50Z</time>
      </trkpt>
      <trkpt lat="48.10532" lon="-3.55328">
        <ele>186.5</ele>
        <time>2025-02-25T12:51:51Z</time>
      </trkpt>
      <trkpt lat="48.10533" lon="-3.55329">
        <ele>186.5</ele>
        <time>2025-02-25T12:51:52Z</time>
      </trkpt>
      <trkpt lat="48.10535" lon="-3.55329">
        <ele>186.5</ele>
        <time>2025-02-25T12:51:53Z</time>
      </trkpt>
      <trkpt lat="48.10536" lon="-3.5533">
        <ele>186.5</ele>
        <time>2025-02-25T12:51:54Z</time>
      </trkpt>
      <trkpt lat="48.10537" lon="-3.55332">
        <ele>186.4</ele>
        <time>2025-02-25T12:51:55Z</time>
      </trkpt>
      <trkpt lat="48.10538" lon="-3.55333">
        <ele>186.4</ele>
        <time>2025-02-25T12:51:56Z</time>
      </trkpt>
      <trkpt lat="48.10539" lon="-3.55334">
        <ele>186.4</ele>
        <time>2025-02-25T12:51:57Z</time>
      </trkpt>
      <trkpt lat="48.1054" lon="-3.55335">
        <ele>186.4</ele>
        <time>2025-02-25T12:51:58Z</time>
      </trkpt>
      <trkpt lat="48.10541" lon="-3.55335">
        <ele>186.4</ele>
        <time>2025-02-25T12:51:59Z</time>
      </trkpt>
      <trkpt lat="48.10542" lon="-3.55336">
        <ele>186.4</ele>
        <time>2025-02-25T12:52:00Z</time>
      </trkpt>
      <trkpt lat="48.10543" lon="-3.55336">
        <ele>186.4</ele>
        <time>2025-02-25T12:52:01Z</time>
      </trkpt>
      <trkpt lat="48.10544" lon="-3.55338">
        <ele>186.3</ele>
        <time>2025-02-25T12:52:02Z</time>
      </trkpt>
      <trkpt lat="48.10545" lon="-3.55339">
        <ele>186.3</ele>
        <time>2025-02-25T12:52:03Z</time>
      </trkpt>
      <trkpt lat="48.10546" lon="-3.5534">
        <ele>186.3</ele>
        <time>2025-02-25T12:52:04Z</time>
      </trkpt>
      <trkpt lat="48.10547" lon="-3.55341">
        <ele>186.2</ele>
        <time>2025-02-25T12:52:05Z</time>
      </trkpt>
      <trkpt lat="48.10548" lon="-3.55342">
        <ele>186.2</ele>
        <time>2025-02-25T12:52:06Z</time>
      </trkpt>
      <trkpt lat="48.10549" lon="-3.55344">
        <ele>186.1</ele>
        <time>2025-02-25T12:52:07Z</time>
      </trkpt>
      <trkpt lat="48.10549" lon="-3.55345">
        <ele>186</ele>
        <time>2025-02-25T12:52:08Z</time>
      </trkpt>
      <trkpt lat="48.1055" lon="-3.55346">
        <ele>186</ele>
        <time>2025-02-25T12:52:09Z</time>
      </trkpt>
      <trkpt lat="48.10551" lon="-3.55347">
        <ele>185.9</ele>
        <time>2025-02-25T12:52:10Z</time>
      </trkpt>
      <trkpt lat="48.10552" lon="-3.55349">
        <ele>185.8</ele>
        <time>2025-02-25T12:52:11Z</time>
      </trkpt>
      <trkpt lat="48.10553" lon="-3.5535">
        <ele>185.8</ele>
        <time>2025-02-25T12:52:12Z</time>
      </trkpt>
      <trkpt lat="48.10554" lon="-3.55351">
        <ele>185.7</ele>
        <time>2025-02-25T12:52:13Z</time>
      </trkpt>
      <trkpt lat="48.10555" lon="-3.55352">
        <ele>185.6</ele>
        <time>2025-02-25T12:52:14Z</time>
      </trkpt>
      <trkpt lat="48.10556" lon="-3.55354">
        <ele>185.5</ele>
        <time>2025-02-25T12:52:15Z</time>
      </trkpt>
      <trkpt lat="48.10558" lon="-3.55354">
        <ele>185.5</ele>
        <time>2025-02-25T12:52:16Z</time>
      </trkpt>
      <trkpt lat="48.10559" lon="-3.55354">
        <ele>185.5</ele>
        <time>2025-02-25T12:52:17Z</time>
      </trkpt>
      <trkpt lat="48.1056" lon="-3.55355">
        <ele>185.4</ele>
        <time>2025-02-25T12:52:18Z</time>
      </trkpt>
      <trkpt lat="48.10561" lon="-3.55355">
        <ele>185.4</ele>
        <time>2025-02-25T12:52:19Z</time>
      </trkpt>
      <trkpt lat="48.10562" lon="-3.55356">
        <ele>185.4</ele>
        <time>2025-02-25T12:52:20Z</time>
      </trkpt>
      <trkpt lat="48.10563" lon="-3.55356">
        <ele>185.4</ele>
        <time>2025-02-25T12:52:21Z</time>
      </trkpt>
      <trkpt lat="48.10564" lon="-3.55357">
        <ele>185.3</ele>
        <time>2025-02-25T12:52:22Z</time>
      </trkpt>
      <trkpt lat="48.10565" lon="-3.55358">
        <ele>185.2</ele>
        <time>2025-02-25T12:52:23Z</time>
      </trkpt>
      <trkpt lat="48.10566" lon="-3.55358">
        <ele>185.2</ele>
        <time>2025-02-25T12:52:24Z</time>
      </trkpt>
      <trkpt lat="48.10567" lon="-3.55358">
        <ele>185.2</ele>
        <time>2025-02-25T12:52:25Z</time>
      </trkpt>
      <trkpt lat="48.10568" lon="-3.55359">
        <ele>185.2</ele>
        <time>2025-02-25T12:52:26Z</time>
      </trkpt>
      <trkpt lat="48.1057" lon="-3.55359">
        <ele>185.2</ele>
        <time>2025-02-25T12:52:27Z</time>
      </trkpt>
      <trkpt lat="48.10571" lon="-3.55361">
        <ele>185</ele>
        <time>2025-02-25T12:52:28Z</time>
      </trkpt>
      <trkpt lat="48.10572" lon="-3.55362">
        <ele>185</ele>
        <time>2025-02-25T12:52:29Z</time>
      </trkpt>
      <trkpt lat="48.10573" lon="-3.55363">
        <ele>184.9</ele>
        <time>2025-02-25T12:52:30Z</time>
      </trkpt>
      <trkpt lat="48.10574" lon="-3.55364">
        <ele>184.9</ele>
        <time>2025-02-25T12:52:31Z</time>
      </trkpt>
      <trkpt lat="48.10575" lon="-3.55366">
        <ele>184.8</ele>
        <time>2025-02-25T12:52:32Z</time>
      </trkpt>
      <trkpt lat="48.10576" lon="-3.55367">
        <ele>184.7</ele>
        <time>2025-02-25T12:52:33Z</time>
      </trkpt>
      <trkpt lat="48.10577" lon="-3.55367">
        <ele>184.7</ele>
        <time>2025-02-25T12:52:34Z</time>
      </trkpt>
      <trkpt lat="48.10578" lon="-3.55367">
        <ele>184.7</ele>
        <time>2025-02-25T12:52:35Z</time>
      </trkpt>
      <trkpt lat="48.1058" lon="-3.55367">
        <ele>184.8</ele>
        <time>2025-02-25T12:52:36Z</time>
      </trkpt>
      <trkpt lat="48.10581" lon="-3.55368">
        <ele>184.7</ele>
        <time>2025-02-25T12:52:37Z</time>
      </trkpt>
      <trkpt lat="48.10582" lon="-3.55369">
        <ele>184.7</ele>
        <time>2025-02-25T12:52:38Z</time>
      </trkpt>
      <trkpt lat="48.10584" lon="-3.55369">
        <ele>184.7</ele>
        <time>2025-02-25T12:52:39Z</time>
      </trkpt>
      <trkpt lat="48.10585" lon="-3.5537">
        <ele>184.7</ele>
        <time>2025-02-25T12:52:40Z</time>
      </trkpt>
      <trkpt lat="48.10586" lon="-3.55371">
        <ele>184.6</ele>
        <time>2025-02-25T12:52:41Z</time>
      </trkpt>
      <trkpt lat="48.10587" lon="-3.55372">
        <ele>184.6</ele>
        <time>2025-02-25T12:52:42Z</time>
      </trkpt>
      <trkpt lat="48.10588" lon="-3.55373">
        <ele>184.5</ele>
        <time>2025-02-25T12:52:43Z</time>
      </trkpt>
      <trkpt lat="48.10589" lon="-3.55373">
        <ele>184.5</ele>
        <time>2025-02-25T12:52:44Z</time>
      </trkpt>
      <trkpt lat="48.1059" lon="-3.55374">
        <ele>184.4</ele>
        <time>2025-02-25T12:52:45Z</time>
      </trkpt>
      <trkpt lat="48.10591" lon="-3.55374">
        <ele>184.4</ele>
        <time>2025-02-25T12:52:46Z</time>
      </trkpt>
      <trkpt lat="48.10593" lon="-3.55375">
        <ele>184.3</ele>
        <time>2025-02-25T12:52:47Z</time>
      </trkpt>
      <trkpt lat="48.10594" lon="-3.55375">
        <ele>184.3</ele>
        <time>2025-02-25T12:52:48Z</time>
      </trkpt>
      <trkpt lat="48.10596" lon="-3.55375">
        <ele>184.3</ele>
        <time>2025-02-25T12:52:49Z</time>
      </trkpt>
      <trkpt lat="48.10597" lon="-3.55375">
        <ele>184.3</ele>
        <time>2025-02-25T12:52:50Z</time>
      </trkpt>
      <trkpt lat="48.10598" lon="-3.55376">
        <ele>184.2</ele>
        <time>2025-02-25T12:52:51Z</time>
      </trkpt>
      <trkpt lat="48.106" lon="-3.55376">
        <ele>184.1</ele>
        <time>2025-02-25T12:52:52Z</time>
      </trkpt>
      <trkpt lat="48.10601" lon="-3.55377">
        <ele>184.1</ele>
        <time>2025-02-25T12:52:53Z</time>
      </trkpt>
      <trkpt lat="48.10604" lon="-3.55377">
        <ele>184</ele>
        <time>2025-02-25T12:52:54Z</time>
      </trkpt>
      <trkpt lat="48.10606" lon="-3.55379">
        <ele>183.8</ele>
        <time>2025-02-25T12:52:55Z</time>
      </trkpt>
      <trkpt lat="48.10607" lon="-3.5538">
        <ele>183.7</ele>
        <time>2025-02-25T12:52:56Z</time>
      </trkpt>
      <trkpt lat="48.10609" lon="-3.5538">
        <ele>183.7</ele>
        <time>2025-02-25T12:52:57Z</time>
      </trkpt>
      <trkpt lat="48.1061" lon="-3.5538">
        <ele>183.7</ele>
        <time>2025-02-25T12:52:58Z</time>
      </trkpt>
      <trkpt lat="48.10611" lon="-3.55381">
        <ele>183.6</ele>
        <time>2025-02-25T12:52:59Z</time>
      </trkpt>
      <trkpt lat="48.10612" lon="-3.55381">
        <ele>183.5</ele>
        <time>2025-02-25T12:53:00Z</time>
      </trkpt>
      <trkpt lat="48.10613" lon="-3.55382">
        <ele>183.4</ele>
        <time>2025-02-25T12:53:01Z</time>
      </trkpt>
      <trkpt lat="48.10614" lon="-3.55382">
        <ele>183.4</ele>
        <time>2025-02-25T12:53:02Z</time>
      </trkpt>
      <trkpt lat="48.10615" lon="-3.55382">
        <ele>183.4</ele>
        <time>2025-02-25T12:53:03Z</time>
      </trkpt>
      <trkpt lat="48.10616" lon="-3.55384">
        <ele>183.2</ele>
        <time>2025-02-25T12:53:04Z</time>
      </trkpt>
      <trkpt lat="48.10617" lon="-3.55384">
        <ele>183.1</ele>
        <time>2025-02-25T12:53:05Z</time>
      </trkpt>
      <trkpt lat="48.10618" lon="-3.55384">
        <ele>183.1</ele>
        <time>2025-02-25T12:53:06Z</time>
      </trkpt>
      <trkpt lat="48.10619" lon="-3.55385">
        <ele>183</ele>
        <time>2025-02-25T12:53:07Z</time>
      </trkpt>
      <trkpt lat="48.1062" lon="-3.55385">
        <ele>183</ele>
        <time>2025-02-25T12:53:08Z</time>
      </trkpt>
      <trkpt lat="48.10621" lon="-3.55385">
        <ele>182.9</ele>
        <time>2025-02-25T12:53:09Z</time>
      </trkpt>
      <trkpt lat="48.10622" lon="-3.55386">
        <ele>182.8</ele>
        <time>2025-02-25T12:53:10Z</time>
      </trkpt>
      <trkpt lat="48.10622" lon="-3.55387">
        <ele>182.7</ele>
        <time>2025-02-25T12:53:11Z</time>
      </trkpt>
      <trkpt lat="48.10623" lon="-3.55387">
        <ele>182.7</ele>
        <time>2025-02-25T12:53:12Z</time>
      </trkpt>
      <trkpt lat="48.10624" lon="-3.55387">
        <ele>182.7</ele>
        <time>2025-02-25T12:53:13Z</time>
      </trkpt>
      <trkpt lat="48.10625" lon="-3.55387">
        <ele>182.6</ele>
        <time>2025-02-25T12:53:14Z</time>
      </trkpt>
      <trkpt lat="48.10626" lon="-3.55388">
        <ele>182.5</ele>
        <time>2025-02-25T12:53:15Z</time>
      </trkpt>
      <trkpt lat="48.10626" lon="-3.55389">
        <ele>182.5</ele>
        <time>2025-02-25T12:53:16Z</time>
      </trkpt>
      <trkpt lat="48.10627" lon="-3.55389">
        <ele>182.4</ele>
        <time>2025-02-25T12:53:17Z</time>
      </trkpt>
      <trkpt lat="48.10628" lon="-3.55389">
        <ele>182.4</ele>
        <time>2025-02-25T12:53:18Z</time>
      </trkpt>
      <trkpt lat="48.10628" lon="-3.5539">
        <ele>182.3</ele>
        <time>2025-02-25T12:53:19Z</time>
      </trkpt>
      <trkpt lat="48.1063" lon="-3.5539">
        <ele>182.3</ele>
        <time>2025-02-25T12:53:20Z</time>
      </trkpt>
      <trkpt lat="48.10631" lon="-3.55391">
        <ele>182.2</ele>
        <time>2025-02-25T12:53:21Z</time>
      </trkpt>
      <trkpt lat="48.10632" lon="-3.55391">
        <ele>182.1</ele>
        <time>2025-02-25T12:53:22Z</time>
      </trkpt>
      <trkpt lat="48.10632" lon="-3.55391">
        <ele>182.1</ele>
        <time>2025-02-25T12:53:23Z</time>
      </trkpt>
      <trkpt lat="48.10634" lon="-3.55391">
        <ele>182</ele>
        <time>2025-02-25T12:53:24Z</time>
      </trkpt>
      <trkpt lat="48.10635" lon="-3.55392">
        <ele>181.9</ele>
        <time>2025-02-25T12:53:25Z</time>
      </trkpt>
      <trkpt lat="48.10636" lon="-3.55393">
        <ele>181.8</ele>
        <time>2025-02-25T12:53:26Z</time>
      </trkpt>
      <trkpt lat="48.10637" lon="-3.55393">
        <ele>181.8</ele>
        <time>2025-02-25T12:53:27Z</time>
      </trkpt>
      <trkpt lat="48.10638" lon="-3.55393">
        <ele>181.7</ele>
        <time>2025-02-25T12:53:28Z</time>
      </trkpt>
      <trkpt lat="48.10639" lon="-3.55394">
        <ele>181.6</ele>
        <time>2025-02-25T12:53:29Z</time>
      </trkpt>
      <trkpt lat="48.1064" lon="-3.55394">
        <ele>181.6</ele>
        <time>2025-02-25T12:53:30Z</time>
      </trkpt>
      <trkpt lat="48.10641" lon="-3.55394">
        <ele>181.5</ele>
        <time>2025-02-25T12:53:31Z</time>
      </trkpt>
      <trkpt lat="48.10642" lon="-3.55395">
        <ele>181.3</ele>
        <time>2025-02-25T12:53:32Z</time>
      </trkpt>
      <trkpt lat="48.10643" lon="-3.55396">
        <ele>181.2</ele>
        <time>2025-02-25T12:53:33Z</time>
      </trkpt>
      <trkpt lat="48.10644" lon="-3.55396">
        <ele>181.1</ele>
        <time>2025-02-25T12:53:34Z</time>
      </trkpt>
      <trkpt lat="48.10645" lon="-3.55395">
        <ele>181.1</ele>
        <time>2025-02-25T12:53:35Z</time>
      </trkpt>
      <trkpt lat="48.10646" lon="-3.55396">
        <ele>181</ele>
        <time>2025-02-25T12:53:36Z</time>
      </trkpt>
      <trkpt lat="48.10647" lon="-3.55397">
        <ele>180.8</ele>
        <time>2025-02-25T12:53:37Z</time>
      </trkpt>
      <trkpt lat="48.10648" lon="-3.55396">
        <ele>180.8</ele>
        <time>2025-02-25T12:53:38Z</time>
      </trkpt>
      <trkpt lat="48.10649" lon="-3.55396">
        <ele>180.8</ele>
        <time>2025-02-25T12:53:39Z</time>
      </trkpt>
      <trkpt lat="48.1065" lon="-3.55396">
        <ele>180.7</ele>
        <time>2025-02-25T12:53:40Z</time>
      </trkpt>
      <trkpt lat="48.1065" lon="-3.55397">
        <ele>180.6</ele>
        <time>2025-02-25T12:53:41Z</time>
      </trkpt>
      <trkpt lat="48.10651" lon="-3.55398">
        <ele>180.5</ele>
        <time>2025-02-25T12:53:42Z</time>
      </trkpt>
      <trkpt lat="48.10653" lon="-3.55398">
        <ele>180.3</ele>
        <time>2025-02-25T12:53:43Z</time>
      </trkpt>
      <trkpt lat="48.10654" lon="-3.55399">
        <ele>180.2</ele>
        <time>2025-02-25T12:53:44Z</time>
      </trkpt>
      <trkpt lat="48.10655" lon="-3.55399">
        <ele>180.1</ele>
        <time>2025-02-25T12:53:45Z</time>
      </trkpt>
      <trkpt lat="48.10656" lon="-3.554">
        <ele>180</ele>
        <time>2025-02-25T12:53:46Z</time>
      </trkpt>
      <trkpt lat="48.10657" lon="-3.554">
        <ele>179.9</ele>
        <time>2025-02-25T12:53:47Z</time>
      </trkpt>
      <trkpt lat="48.10658" lon="-3.554">
        <ele>179.8</ele>
        <time>2025-02-25T12:53:48Z</time>
      </trkpt>
      <trkpt lat="48.10659" lon="-3.554">
        <ele>179.8</ele>
        <time>2025-02-25T12:53:49Z</time>
      </trkpt>
      <trkpt lat="48.1066" lon="-3.55401">
        <ele>179.6</ele>
        <time>2025-02-25T12:53:50Z</time>
      </trkpt>
      <trkpt lat="48.10661" lon="-3.55401">
        <ele>179.5</ele>
        <time>2025-02-25T12:53:51Z</time>
      </trkpt>
      <trkpt lat="48.10662" lon="-3.55403">
        <ele>179.3</ele>
        <time>2025-02-25T12:53:52Z</time>
      </trkpt>
      <trkpt lat="48.10663" lon="-3.55403">
        <ele>179.2</ele>
        <time>2025-02-25T12:53:53Z</time>
      </trkpt>
      <trkpt lat="48.10664" lon="-3.55404">
        <ele>179.1</ele>
        <time>2025-02-25T12:53:54Z</time>
      </trkpt>
      <trkpt lat="48.10664" lon="-3.55404">
        <ele>179.1</ele>
        <time>2025-02-25T12:53:55Z</time>
      </trkpt>
      <trkpt lat="48.10665" lon="-3.55405">
        <ele>179</ele>
        <time>2025-02-25T12:53:56Z</time>
      </trkpt>
      <trkpt lat="48.10666" lon="-3.55405">
        <ele>178.9</ele>
        <time>2025-02-25T12:53:57Z</time>
      </trkpt>
      <trkpt lat="48.10667" lon="-3.55405">
        <ele>178.8</ele>
        <time>2025-02-25T12:53:58Z</time>
      </trkpt>
      <trkpt lat="48.10668" lon="-3.55405">
        <ele>178.8</ele>
        <time>2025-02-25T12:53:59Z</time>
      </trkpt>
      <trkpt lat="48.10669" lon="-3.55406">
        <ele>178.7</ele>
        <time>2025-02-25T12:54:00Z</time>
      </trkpt>
      <trkpt lat="48.1067" lon="-3.55407">
        <ele>178.5</ele>
        <time>2025-02-25T12:54:01Z</time>
      </trkpt>
      <trkpt lat="48.10671" lon="-3.55407">
        <ele>178.5</ele>
        <time>2025-02-25T12:54:02Z</time>
      </trkpt>
      <trkpt lat="48.10673" lon="-3.55407">
        <ele>178.4</ele>
        <time>2025-02-25T12:54:03Z</time>
      </trkpt>
      <trkpt lat="48.10674" lon="-3.55407">
        <ele>178.3</ele>
        <time>2025-02-25T12:54:04Z</time>
      </trkpt>
      <trkpt lat="48.10675" lon="-3.55407">
        <ele>178.3</ele>
        <time>2025-02-25T12:54:05Z</time>
      </trkpt>
      <trkpt lat="48.10676" lon="-3.55407">
        <ele>178.2</ele>
        <time>2025-02-25T12:54:06Z</time>
      </trkpt>
      <trkpt lat="48.10678" lon="-3.55407">
        <ele>178.1</ele>
        <time>2025-02-25T12:54:07Z</time>
      </trkpt>
      <trkpt lat="48.10679" lon="-3.55407">
        <ele>178.1</ele>
        <time>2025-02-25T12:54:08Z</time>
      </trkpt>
      <trkpt lat="48.1068" lon="-3.55406">
        <ele>178.1</ele>
        <time>2025-02-25T12:54:09Z</time>
      </trkpt>
      <trkpt lat="48.10681" lon="-3.55406">
        <ele>178.1</ele>
        <time>2025-02-25T12:54:10Z</time>
      </trkpt>
      <trkpt lat="48.10683" lon="-3.55407">
        <ele>177.9</ele>
        <time>2025-02-25T12:54:11Z</time>
      </trkpt>
      <trkpt lat="48.10684" lon="-3.55408">
        <ele>177.8</ele>
        <time>2025-02-25T12:54:12Z</time>
      </trkpt>
      <trkpt lat="48.10685" lon="-3.55409">
        <ele>177.7</ele>
        <time>2025-02-25T12:54:13Z</time>
      </trkpt>
      <trkpt lat="48.10685" lon="-3.55409">
        <ele>177.7</ele>
        <time>2025-02-25T12:54:14Z</time>
      </trkpt>
      <trkpt lat="48.10686" lon="-3.5541">
        <ele>177.6</ele>
        <time>2025-02-25T12:54:15Z</time>
      </trkpt>
      <trkpt lat="48.10687" lon="-3.55411">
        <ele>177.5</ele>
        <time>2025-02-25T12:54:16Z</time>
      </trkpt>
      <trkpt lat="48.10688" lon="-3.55412">
        <ele>177.4</ele>
        <time>2025-02-25T12:54:17Z</time>
      </trkpt>
      <trkpt lat="48.10689" lon="-3.55412">
        <ele>177.4</ele>
        <time>2025-02-25T12:54:18Z</time>
      </trkpt>
      <trkpt lat="48.1069" lon="-3.55413">
        <ele>177.3</ele>
        <time>2025-02-25T12:54:19Z</time>
      </trkpt>
      <trkpt lat="48.10692" lon="-3.55413">
        <ele>177.2</ele>
        <time>2025-02-25T12:54:20Z</time>
      </trkpt>
      <trkpt lat="48.10693" lon="-3.55413">
        <ele>177.2</ele>
        <time>2025-02-25T12:54:21Z</time>
      </trkpt>
      <trkpt lat="48.10694" lon="-3.55414">
        <ele>177.1</ele>
        <time>2025-02-25T12:54:22Z</time>
      </trkpt>
      <trkpt lat="48.10695" lon="-3.55414">
        <ele>177.1</ele>
        <time>2025-02-25T12:54:23Z</time>
      </trkpt>
      <trkpt lat="48.10696" lon="-3.55415">
        <ele>177</ele>
        <time>2025-02-25T12:54:24Z</time>
      </trkpt>
      <trkpt lat="48.10696" lon="-3.55416">
        <ele>177</ele>
        <time>2025-02-25T12:54:25Z</time>
      </trkpt>
      <trkpt lat="48.10697" lon="-3.55417">
        <ele>176.9</ele>
        <time>2025-02-25T12:54:26Z</time>
      </trkpt>
      <trkpt lat="48.10697" lon="-3.55418">
        <ele>176.9</ele>
        <time>2025-02-25T12:54:27Z</time>
      </trkpt>
      <trkpt lat="48.10698" lon="-3.55418">
        <ele>176.8</ele>
        <time>2025-02-25T12:54:28Z</time>
      </trkpt>
      <trkpt lat="48.10699" lon="-3.55419">
        <ele>176.8</ele>
        <time>2025-02-25T12:54:29Z</time>
      </trkpt>
      <trkpt lat="48.107" lon="-3.55419">
        <ele>176.7</ele>
        <time>2025-02-25T12:54:30Z</time>
      </trkpt>
      <trkpt lat="48.10701" lon="-3.55419">
        <ele>176.7</ele>
        <time>2025-02-25T12:54:31Z</time>
      </trkpt>
      <trkpt lat="48.10701" lon="-3.55419">
        <ele>176.7</ele>
        <time>2025-02-25T12:54:32Z</time>
      </trkpt>
      <trkpt lat="48.10702" lon="-3.55419">
        <ele>176.7</ele>
        <time>2025-02-25T12:54:33Z</time>
      </trkpt>
      <trkpt lat="48.10703" lon="-3.5542">
        <ele>176.6</ele>
        <time>2025-02-25T12:54:34Z</time>
      </trkpt>
      <trkpt lat="48.10704" lon="-3.55421">
        <ele>176.6</ele>
        <time>2025-02-25T12:54:35Z</time>
      </trkpt>
      <trkpt lat="48.10705" lon="-3.55422">
        <ele>176.5</ele>
        <time>2025-02-25T12:54:36Z</time>
      </trkpt>
      <trkpt lat="48.10706" lon="-3.55422">
        <ele>176.5</ele>
        <time>2025-02-25T12:54:37Z</time>
      </trkpt>
      <trkpt lat="48.10707" lon="-3.55422">
        <ele>176.4</ele>
        <time>2025-02-25T12:54:38Z</time>
      </trkpt>
      <trkpt lat="48.10707" lon="-3.55423">
        <ele>176.4</ele>
        <time>2025-02-25T12:54:39Z</time>
      </trkpt>
      <trkpt lat="48.10708" lon="-3.55422">
        <ele>176.4</ele>
        <time>2025-02-25T12:54:40Z</time>
      </trkpt>
      <trkpt lat="48.10709" lon="-3.55423">
        <ele>176.4</ele>
        <time>2025-02-25T12:54:41Z</time>
      </trkpt>
      <trkpt lat="48.1071" lon="-3.55424">
        <ele>176.3</ele>
        <time>2025-02-25T12:54:42Z</time>
      </trkpt>
      <trkpt lat="48.10711" lon="-3.55424">
        <ele>176.3</ele>
        <time>2025-02-25T12:54:43Z</time>
      </trkpt>
      <trkpt lat="48.10712" lon="-3.55424">
        <ele>176.3</ele>
        <time>2025-02-25T12:54:44Z</time>
      </trkpt>
      <trkpt lat="48.10713" lon="-3.55425">
        <ele>176.2</ele>
        <time>2025-02-25T12:54:45Z</time>
      </trkpt>
      <trkpt lat="48.10714" lon="-3.55425">
        <ele>176.2</ele>
        <time>2025-02-25T12:54:46Z</time>
      </trkpt>
      <trkpt lat="48.10715" lon="-3.55425">
        <ele>176.2</ele>
        <time>2025-02-25T12:54:47Z</time>
      </trkpt>
      <trkpt lat="48.10716" lon="-3.55425">
        <ele>176.2</ele>
        <time>2025-02-25T12:54:48Z</time>
      </trkpt>
      <trkpt lat="48.10716" lon="-3.55426">
        <ele>176.1</ele>
        <time>2025-02-25T12:54:49Z</time>
      </trkpt>
      <trkpt lat="48.10717" lon="-3.55427">
        <ele>176.1</ele>
        <time>2025-02-25T12:54:50Z</time>
      </trkpt>
      <trkpt lat="48.10718" lon="-3.55428">
        <ele>176.1</ele>
        <time>2025-02-25T12:54:51Z</time>
      </trkpt>
      <trkpt lat="48.10719" lon="-3.55429">
        <ele>176.1</ele>
        <time>2025-02-25T12:54:52Z</time>
      </trkpt>
      <trkpt lat="48.10719" lon="-3.5543">
        <ele>176.1</ele>
        <time>2025-02-25T12:54:53Z</time>
      </trkpt>
      <trkpt lat="48.1072" lon="-3.55431">
        <ele>176</ele>
        <time>2025-02-25T12:54:54Z</time>
      </trkpt>
      <trkpt lat="48.10721" lon="-3.55431">
        <ele>176</ele>
        <time>2025-02-25T12:54:55Z</time>
      </trkpt>
      <trkpt lat="48.10722" lon="-3.55432">
        <ele>176</ele>
        <time>2025-02-25T12:54:56Z</time>
      </trkpt>
      <trkpt lat="48.10722" lon="-3.55434">
        <ele>176</ele>
        <time>2025-02-25T12:54:57Z</time>
      </trkpt>
      <trkpt lat="48.10723" lon="-3.55435">
        <ele>176.1</ele>
        <time>2025-02-25T12:54:58Z</time>
      </trkpt>
      <trkpt lat="48.10724" lon="-3.55436">
        <ele>176.2</ele>
        <time>2025-02-25T12:54:59Z</time>
      </trkpt>
      <trkpt lat="48.10724" lon="-3.55437">
        <ele>176.2</ele>
        <time>2025-02-25T12:55:00Z</time>
      </trkpt>
      <trkpt lat="48.10725" lon="-3.55438">
        <ele>176.3</ele>
        <time>2025-02-25T12:55:01Z</time>
      </trkpt>
      <trkpt lat="48.10726" lon="-3.5544">
        <ele>176.4</ele>
        <time>2025-02-25T12:55:02Z</time>
      </trkpt>
      <trkpt lat="48.10727" lon="-3.55441">
        <ele>176.5</ele>
        <time>2025-02-25T12:55:03Z</time>
      </trkpt>
      <trkpt lat="48.10727" lon="-3.55442">
        <ele>176.5</ele>
        <time>2025-02-25T12:55:04Z</time>
      </trkpt>
      <trkpt lat="48.10728" lon="-3.55444">
        <ele>176.6</ele>
        <time>2025-02-25T12:55:05Z</time>
      </trkpt>
      <trkpt lat="48.10729" lon="-3.55444">
        <ele>176.7</ele>
        <time>2025-02-25T12:55:06Z</time>
      </trkpt>
      <trkpt lat="48.1073" lon="-3.55445">
        <ele>176.9</ele>
        <time>2025-02-25T12:55:07Z</time>
      </trkpt>
      <trkpt lat="48.10731" lon="-3.55446">
        <ele>177</ele>
        <time>2025-02-25T12:55:08Z</time>
      </trkpt>
      <trkpt lat="48.10732" lon="-3.55447">
        <ele>177.1</ele>
        <time>2025-02-25T12:55:09Z</time>
      </trkpt>
      <trkpt lat="48.10732" lon="-3.55448">
        <ele>177.2</ele>
        <time>2025-02-25T12:55:10Z</time>
      </trkpt>
      <trkpt lat="48.10733" lon="-3.55449">
        <ele>177.3</ele>
        <time>2025-02-25T12:55:11Z</time>
      </trkpt>
      <trkpt lat="48.10734" lon="-3.5545">
        <ele>177.5</ele>
        <time>2025-02-25T12:55:12Z</time>
      </trkpt>
      <trkpt lat="48.10735" lon="-3.55451">
        <ele>177.6</ele>
        <time>2025-02-25T12:55:13Z</time>
      </trkpt>
      <trkpt lat="48.10736" lon="-3.55452">
        <ele>177.8</ele>
        <time>2025-02-25T12:55:14Z</time>
      </trkpt>
      <trkpt lat="48.10737" lon="-3.55452">
        <ele>177.9</ele>
        <time>2025-02-25T12:55:15Z</time>
      </trkpt>
      <trkpt lat="48.10738" lon="-3.55453">
        <ele>178</ele>
        <time>2025-02-25T12:55:16Z</time>
      </trkpt>
      <trkpt lat="48.10739" lon="-3.55454">
        <ele>178.2</ele>
        <time>2025-02-25T12:55:17Z</time>
      </trkpt>
      <trkpt lat="48.1074" lon="-3.55455">
        <ele>178.3</ele>
        <time>2025-02-25T12:55:18Z</time>
      </trkpt>
      <trkpt lat="48.10741" lon="-3.55456">
        <ele>178.4</ele>
        <time>2025-02-25T12:55:19Z</time>
      </trkpt>
      <trkpt lat="48.10742" lon="-3.55455">
        <ele>178.5</ele>
        <time>2025-02-25T12:55:20Z</time>
      </trkpt>
      <trkpt lat="48.10743" lon="-3.55456">
        <ele>178.7</ele>
        <time>2025-02-25T12:55:21Z</time>
      </trkpt>
      <trkpt lat="48.10743" lon="-3.55457">
        <ele>178.7</ele>
        <time>2025-02-25T12:55:22Z</time>
      </trkpt>
      <trkpt lat="48.10744" lon="-3.55458">
        <ele>178.8</ele>
        <time>2025-02-25T12:55:23Z</time>
      </trkpt>
      <trkpt lat="48.10745" lon="-3.55458">
        <ele>178.9</ele>
        <time>2025-02-25T12:55:24Z</time>
      </trkpt>
      <trkpt lat="48.10745" lon="-3.55459">
        <ele>179</ele>
        <time>2025-02-25T12:55:25Z</time>
      </trkpt>
      <trkpt lat="48.10746" lon="-3.5546">
        <ele>179.1</ele>
        <time>2025-02-25T12:55:26Z</time>
      </trkpt>
      <trkpt lat="48.10747" lon="-3.5546">
        <ele>179.2</ele>
        <time>2025-02-25T12:55:27Z</time>
      </trkpt>
      <trkpt lat="48.10747" lon="-3.55461">
        <ele>179.3</ele>
        <time>2025-02-25T12:55:28Z</time>
      </trkpt>
      <trkpt lat="48.10748" lon="-3.55462">
        <ele>179.4</ele>
        <time>2025-02-25T12:55:29Z</time>
      </trkpt>
      <trkpt lat="48.10748" lon="-3.55462">
        <ele>179.4</ele>
        <time>2025-02-25T12:55:30Z</time>
      </trkpt>
      <trkpt lat="48.10748" lon="-3.55464">
        <ele>179.5</ele>
        <time>2025-02-25T12:55:31Z</time>
      </trkpt>
      <trkpt lat="48.10749" lon="-3.55465">
        <ele>179.6</ele>
        <time>2025-02-25T12:55:32Z</time>
      </trkpt>
      <trkpt lat="48.1075" lon="-3.55465">
        <ele>179.7</ele>
        <time>2025-02-25T12:55:33Z</time>
      </trkpt>
      <trkpt lat="48.10751" lon="-3.55466">
        <ele>179.8</ele>
        <time>2025-02-25T12:55:34Z</time>
      </trkpt>
      <trkpt lat="48.10752" lon="-3.55467">
        <ele>180</ele>
        <time>2025-02-25T12:55:35Z</time>
      </trkpt>
      <trkpt lat="48.10753" lon="-3.55467">
        <ele>180</ele>
        <time>2025-02-25T12:55:36Z</time>
      </trkpt>
      <trkpt lat="48.10754" lon="-3.55467">
        <ele>180.1</ele>
        <time>2025-02-25T12:55:37Z</time>
      </trkpt>
      <trkpt lat="48.10755" lon="-3.55468">
        <ele>180.2</ele>
        <time>2025-02-25T12:55:38Z</time>
      </trkpt>
      <trkpt lat="48.10756" lon="-3.55469">
        <ele>180.3</ele>
        <time>2025-02-25T12:55:39Z</time>
      </trkpt>
      <trkpt lat="48.10756" lon="-3.5547">
        <ele>180.4</ele>
        <time>2025-02-25T12:55:40Z</time>
      </trkpt>
      <trkpt lat="48.10757" lon="-3.55471">
        <ele>180.5</ele>
        <time>2025-02-25T12:55:41Z</time>
      </trkpt>
      <trkpt lat="48.10758" lon="-3.55473">
        <ele>180.6</ele>
        <time>2025-02-25T12:55:42Z</time>
      </trkpt>
      <trkpt lat="48.10759" lon="-3.55473">
        <ele>180.7</ele>
        <time>2025-02-25T12:55:43Z</time>
      </trkpt>
      <trkpt lat="48.10759" lon="-3.55475">
        <ele>180.7</ele>
        <time>2025-02-25T12:55:44Z</time>
      </trkpt>
      <trkpt lat="48.1076" lon="-3.55476">
        <ele>180.9</ele>
        <time>2025-02-25T12:55:45Z</time>
      </trkpt>
      <trkpt lat="48.10761" lon="-3.55476">
        <ele>180.9</ele>
        <time>2025-02-25T12:55:46Z</time>
      </trkpt>
      <trkpt lat="48.10761" lon="-3.55477">
        <ele>181</ele>
        <time>2025-02-25T12:55:47Z</time>
      </trkpt>
      <trkpt lat="48.10762" lon="-3.55478">
        <ele>181.1</ele>
        <time>2025-02-25T12:55:48Z</time>
      </trkpt>
      <trkpt lat="48.10763" lon="-3.55479">
        <ele>181.2</ele>
        <time>2025-02-25T12:55:49Z</time>
      </trkpt>
      <trkpt lat="48.10764" lon="-3.5548">
        <ele>181.3</ele>
        <time>2025-02-25T12:55:50Z</time>
      </trkpt>
      <trkpt lat="48.10765" lon="-3.55481">
        <ele>181.4</ele>
        <time>2025-02-25T12:55:51Z</time>
      </trkpt>
      <trkpt lat="48.10765" lon="-3.55481">
        <ele>181.4</ele>
        <time>2025-02-25T12:55:52Z</time>
      </trkpt>
      <trkpt lat="48.10766" lon="-3.55481">
        <ele>181.5</ele>
        <time>2025-02-25T12:55:53Z</time>
      </trkpt>
      <trkpt lat="48.10767" lon="-3.55483">
        <ele>181.6</ele>
        <time>2025-02-25T12:55:54Z</time>
      </trkpt>
      <trkpt lat="48.10768" lon="-3.55483">
        <ele>181.7</ele>
        <time>2025-02-25T12:55:55Z</time>
      </trkpt>
      <trkpt lat="48.10768" lon="-3.55484">
        <ele>181.7</ele>
        <time>2025-02-25T12:55:56Z</time>
      </trkpt>
      <trkpt lat="48.10769" lon="-3.55484">
        <ele>181.8</ele>
        <time>2025-02-25T12:55:57Z</time>
      </trkpt>
      <trkpt lat="48.1077" lon="-3.55486">
        <ele>181.9</ele>
        <time>2025-02-25T12:55:58Z</time>
      </trkpt>
      <trkpt lat="48.1077" lon="-3.55487">
        <ele>182</ele>
        <time>2025-02-25T12:55:59Z</time>
      </trkpt>
      <trkpt lat="48.10771" lon="-3.55488">
        <ele>182.1</ele>
        <time>2025-02-25T12:56:00Z</time>
      </trkpt>
      <trkpt lat="48.10772" lon="-3.55489">
        <ele>182.2</ele>
        <time>2025-02-25T12:56:01Z</time>
      </trkpt>
      <trkpt lat="48.10772" lon="-3.5549">
        <ele>182.2</ele>
        <time>2025-02-25T12:56:02Z</time>
      </trkpt>
      <trkpt lat="48.10773" lon="-3.5549">
        <ele>182.3</ele>
        <time>2025-02-25T12:56:03Z</time>
      </trkpt>
      <trkpt lat="48.10774" lon="-3.55492">
        <ele>182.4</ele>
        <time>2025-02-25T12:56:04Z</time>
      </trkpt>
      <trkpt lat="48.10775" lon="-3.55493">
        <ele>182.5</ele>
        <time>2025-02-25T12:56:05Z</time>
      </trkpt>
      <trkpt lat="48.10776" lon="-3.55494">
        <ele>182.7</ele>
        <time>2025-02-25T12:56:06Z</time>
      </trkpt>
      <trkpt lat="48.10776" lon="-3.55495">
        <ele>182.7</ele>
        <time>2025-02-25T12:56:07Z</time>
      </trkpt>
      <trkpt lat="48.10777" lon="-3.55496">
        <ele>182.8</ele>
        <time>2025-02-25T12:56:08Z</time>
      </trkpt>
      <trkpt lat="48.10778" lon="-3.55497">
        <ele>182.9</ele>
        <time>2025-02-25T12:56:09Z</time>
      </trkpt>
      <trkpt lat="48.10779" lon="-3.55498">
        <ele>183</ele>
        <time>2025-02-25T12:56:10Z</time>
      </trkpt>
      <trkpt lat="48.1078" lon="-3.55498">
        <ele>183.1</ele>
        <time>2025-02-25T12:56:11Z</time>
      </trkpt>
      <trkpt lat="48.1078" lon="-3.555">
        <ele>183.2</ele>
        <time>2025-02-25T12:56:12Z</time>
      </trkpt>
      <trkpt lat="48.10781" lon="-3.555">
        <ele>183.2</ele>
        <time>2025-02-25T12:56:13Z</time>
      </trkpt>
      <trkpt lat="48.10781" lon="-3.55501">
        <ele>183.3</ele>
        <time>2025-02-25T12:56:14Z</time>
      </trkpt>
      <trkpt lat="48.10782" lon="-3.55502">
        <ele>183.4</ele>
        <time>2025-02-25T12:56:15Z</time>
      </trkpt>
      <trkpt lat="48.10782" lon="-3.55504">
        <ele>183.4</ele>
        <time>2025-02-25T12:56:16Z</time>
      </trkpt>
      <trkpt lat="48.10783" lon="-3.55505">
        <ele>183.6</ele>
        <time>2025-02-25T12:56:17Z</time>
      </trkpt>
      <trkpt lat="48.10784" lon="-3.55506">
        <ele>183.7</ele>
        <time>2025-02-25T12:56:18Z</time>
      </trkpt>
      <trkpt lat="48.10784" lon="-3.55506">
        <ele>183.7</ele>
        <time>2025-02-25T12:56:19Z</time>
      </trkpt>
      <trkpt lat="48.10785" lon="-3.55507">
        <ele>183.8</ele>
        <time>2025-02-25T12:56:20Z</time>
      </trkpt>
      <trkpt lat="48.10786" lon="-3.55509">
        <ele>183.9</ele>
        <time>2025-02-25T12:56:21Z</time>
      </trkpt>
      <trkpt lat="48.10787" lon="-3.55509">
        <ele>184</ele>
        <time>2025-02-25T12:56:22Z</time>
      </trkpt>
      <trkpt lat="48.10788" lon="-3.55511">
        <ele>184.1</ele>
        <time>2025-02-25T12:56:23Z</time>
      </trkpt>
      <trkpt lat="48.10788" lon="-3.55512">
        <ele>184.2</ele>
        <time>2025-02-25T12:56:24Z</time>
      </trkpt>
      <trkpt lat="48.10789" lon="-3.55513">
        <ele>184.3</ele>
        <time>2025-02-25T12:56:25Z</time>
      </trkpt>
      <trkpt lat="48.1079" lon="-3.55514">
        <ele>184.4</ele>
        <time>2025-02-25T12:56:26Z</time>
      </trkpt>
      <trkpt lat="48.10791" lon="-3.55515">
        <ele>184.5</ele>
        <time>2025-02-25T12:56:27Z</time>
      </trkpt>
      <trkpt lat="48.10792" lon="-3.55516">
        <ele>184.6</ele>
        <time>2025-02-25T12:56:28Z</time>
      </trkpt>
      <trkpt lat="48.10793" lon="-3.55517">
        <ele>184.7</ele>
        <time>2025-02-25T12:56:29Z</time>
      </trkpt>
      <trkpt lat="48.10793" lon="-3.55518">
        <ele>184.7</ele>
        <time>2025-02-25T12:56:30Z</time>
      </trkpt>
      <trkpt lat="48.10794" lon="-3.55519">
        <ele>184.9</ele>
        <time>2025-02-25T12:56:31Z</time>
      </trkpt>
      <trkpt lat="48.10795" lon="-3.55521">
        <ele>185</ele>
        <time>2025-02-25T12:56:32Z</time>
      </trkpt>
      <trkpt lat="48.10795" lon="-3.55521">
        <ele>185</ele>
        <time>2025-02-25T12:56:33Z</time>
      </trkpt>
      <trkpt lat="48.10797" lon="-3.55521">
        <ele>185.1</ele>
        <time>2025-02-25T12:56:34Z</time>
      </trkpt>
      <trkpt lat="48.10798" lon="-3.55522">
        <ele>185.2</ele>
        <time>2025-02-25T12:56:35Z</time>
      </trkpt>
      <trkpt lat="48.10799" lon="-3.55524">
        <ele>185.4</ele>
        <time>2025-02-25T12:56:36Z</time>
      </trkpt>
      <trkpt lat="48.108" lon="-3.55525">
        <ele>185.5</ele>
        <time>2025-02-25T12:56:37Z</time>
      </trkpt>
      <trkpt lat="48.10801" lon="-3.55525">
        <ele>185.6</ele>
        <time>2025-02-25T12:56:38Z</time>
      </trkpt>
      <trkpt lat="48.10802" lon="-3.55526">
        <ele>185.7</ele>
        <time>2025-02-25T12:56:39Z</time>
      </trkpt>
      <trkpt lat="48.10803" lon="-3.55526">
        <ele>185.8</ele>
        <time>2025-02-25T12:56:40Z</time>
      </trkpt>
      <trkpt lat="48.10803" lon="-3.55527">
        <ele>185.8</ele>
        <time>2025-02-25T12:56:41Z</time>
      </trkpt>
      <trkpt lat="48.10804" lon="-3.55528">
        <ele>185.9</ele>
        <time>2025-02-25T12:56:42Z</time>
      </trkpt>
      <trkpt lat="48.10805" lon="-3.55529">
        <ele>186</ele>
        <time>2025-02-25T12:56:43Z</time>
      </trkpt>
      <trkpt lat="48.10805" lon="-3.5553">
        <ele>186</ele>
        <time>2025-02-25T12:56:44Z</time>
      </trkpt>
      <trkpt lat="48.10807" lon="-3.5553">
        <ele>186.1</ele>
        <time>2025-02-25T12:56:45Z</time>
      </trkpt>
      <trkpt lat="48.10808" lon="-3.5553">
        <ele>186.2</ele>
        <time>2025-02-25T12:56:46Z</time>
      </trkpt>
      <trkpt lat="48.10809" lon="-3.5553">
        <ele>186.2</ele>
        <time>2025-02-25T12:56:47Z</time>
      </trkpt>
      <trkpt lat="48.1081" lon="-3.55531">
        <ele>186.3</ele>
        <time>2025-02-25T12:56:48Z</time>
      </trkpt>
      <trkpt lat="48.1081" lon="-3.55533">
        <ele>186.3</ele>
        <time>2025-02-25T12:56:49Z</time>
      </trkpt>
      <trkpt lat="48.10811" lon="-3.55535">
        <ele>186.4</ele>
        <time>2025-02-25T12:56:50Z</time>
      </trkpt>
      <trkpt lat="48.10812" lon="-3.55535">
        <ele>186.5</ele>
        <time>2025-02-25T12:56:51Z</time>
      </trkpt>
      <trkpt lat="48.10814" lon="-3.55536">
        <ele>186.6</ele>
        <time>2025-02-25T12:56:52Z</time>
      </trkpt>
      <trkpt lat="48.10815" lon="-3.55536">
        <ele>186.7</ele>
        <time>2025-02-25T12:56:53Z</time>
      </trkpt>
      <trkpt lat="48.10816" lon="-3.55536">
        <ele>186.8</ele>
        <time>2025-02-25T12:56:54Z</time>
      </trkpt>
      <trkpt lat="48.10817" lon="-3.55538">
        <ele>186.8</ele>
        <time>2025-02-25T12:56:55Z</time>
      </trkpt>
      <trkpt lat="48.10818" lon="-3.55539">
        <ele>186.9</ele>
        <time>2025-02-25T12:56:56Z</time>
      </trkpt>
      <trkpt lat="48.10819" lon="-3.55539">
        <ele>187</ele>
        <time>2025-02-25T12:56:57Z</time>
      </trkpt>
      <trkpt lat="48.1082" lon="-3.5554">
        <ele>187</ele>
        <time>2025-02-25T12:56:58Z</time>
      </trkpt>
      <trkpt lat="48.1082" lon="-3.55541">
        <ele>187</ele>
        <time>2025-02-25T12:56:59Z</time>
      </trkpt>
      <trkpt lat="48.10821" lon="-3.55541">
        <ele>187.1</ele>
        <time>2025-02-25T12:57:00Z</time>
      </trkpt>
      <trkpt lat="48.10822" lon="-3.55542">
        <ele>187.2</ele>
        <time>2025-02-25T12:57:01Z</time>
      </trkpt>
      <trkpt lat="48.10823" lon="-3.55543">
        <ele>187.3</ele>
        <time>2025-02-25T12:57:02Z</time>
      </trkpt>
      <trkpt lat="48.10824" lon="-3.55543">
        <ele>187.3</ele>
        <time>2025-02-25T12:57:03Z</time>
      </trkpt>
      <trkpt lat="48.10825" lon="-3.55545">
        <ele>187.4</ele>
        <time>2025-02-25T12:57:04Z</time>
      </trkpt>
      <trkpt lat="48.10826" lon="-3.55546">
        <ele>187.5</ele>
        <time>2025-02-25T12:57:05Z</time>
      </trkpt>
      <trkpt lat="48.10827" lon="-3.55547">
        <ele>187.5</ele>
        <time>2025-02-25T12:57:06Z</time>
      </trkpt>
      <trkpt lat="48.10828" lon="-3.55548">
        <ele>187.6</ele>
        <time>2025-02-25T12:57:07Z</time>
      </trkpt>
      <trkpt lat="48.10829" lon="-3.55548">
        <ele>187.7</ele>
        <time>2025-02-25T12:57:08Z</time>
      </trkpt>
      <trkpt lat="48.1083" lon="-3.55549">
        <ele>187.8</ele>
        <time>2025-02-25T12:57:09Z</time>
      </trkpt>
      <trkpt lat="48.10832" lon="-3.55551">
        <ele>187.9</ele>
        <time>2025-02-25T12:57:10Z</time>
      </trkpt>
      <trkpt lat="48.10833" lon="-3.55551">
        <ele>188</ele>
        <time>2025-02-25T12:57:11Z</time>
      </trkpt>
      <trkpt lat="48.10833" lon="-3.55552">
        <ele>188</ele>
        <time>2025-02-25T12:57:12Z</time>
      </trkpt>
      <trkpt lat="48.10834" lon="-3.55553">
        <ele>188</ele>
        <time>2025-02-25T12:57:13Z</time>
      </trkpt>
      <trkpt lat="48.10835" lon="-3.55553">
        <ele>188.1</ele>
        <time>2025-02-25T12:57:14Z</time>
      </trkpt>
      <trkpt lat="48.10836" lon="-3.55553">
        <ele>188.1</ele>
        <time>2025-02-25T12:57:15Z</time>
      </trkpt>
      <trkpt lat="48.10837" lon="-3.55554">
        <ele>188.1</ele>
        <time>2025-02-25T12:57:16Z</time>
      </trkpt>
      <trkpt lat="48.10838" lon="-3.55555">
        <ele>188.2</ele>
        <time>2025-02-25T12:57:17Z</time>
      </trkpt>
      <trkpt lat="48.10839" lon="-3.55555">
        <ele>188.2</ele>
        <time>2025-02-25T12:57:18Z</time>
      </trkpt>
      <trkpt lat="48.1084" lon="-3.55556">
        <ele>188.2</ele>
        <time>2025-02-25T12:57:19Z</time>
      </trkpt>
      <trkpt lat="48.1084" lon="-3.55556">
        <ele>188.2</ele>
        <time>2025-02-25T12:57:20Z</time>
      </trkpt>
      <trkpt lat="48.10841" lon="-3.55556">
        <ele>188.3</ele>
        <time>2025-02-25T12:57:21Z</time>
      </trkpt>
      <trkpt lat="48.10842" lon="-3.55556">
        <ele>188.3</ele>
        <time>2025-02-25T12:57:22Z</time>
      </trkpt>
      <trkpt lat="48.10843" lon="-3.55556">
        <ele>188.3</ele>
        <time>2025-02-25T12:57:23Z</time>
      </trkpt>
      <trkpt lat="48.10844" lon="-3.55557">
        <ele>188.4</ele>
        <time>2025-02-25T12:57:24Z</time>
      </trkpt>
      <trkpt lat="48.10845" lon="-3.55557">
        <ele>188.4</ele>
        <time>2025-02-25T12:57:25Z</time>
      </trkpt>
      <trkpt lat="48.10846" lon="-3.55558">
        <ele>188.5</ele>
        <time>2025-02-25T12:57:26Z</time>
      </trkpt>
      <trkpt lat="48.10846" lon="-3.55559">
        <ele>188.5</ele>
        <time>2025-02-25T12:57:27Z</time>
      </trkpt>
      <trkpt lat="48.10847" lon="-3.5556">
        <ele>188.5</ele>
        <time>2025-02-25T12:57:28Z</time>
      </trkpt>
      <trkpt lat="48.10848" lon="-3.5556">
        <ele>188.5</ele>
        <time>2025-02-25T12:57:29Z</time>
      </trkpt>
      <trkpt lat="48.10849" lon="-3.55561">
        <ele>188.6</ele>
        <time>2025-02-25T12:57:30Z</time>
      </trkpt>
      <trkpt lat="48.1085" lon="-3.55561">
        <ele>188.6</ele>
        <time>2025-02-25T12:57:31Z</time>
      </trkpt>
      <trkpt lat="48.10851" lon="-3.55562">
        <ele>188.6</ele>
        <time>2025-02-25T12:57:32Z</time>
      </trkpt>
      <trkpt lat="48.10852" lon="-3.55562">
        <ele>188.7</ele>
        <time>2025-02-25T12:57:33Z</time>
      </trkpt>
      <trkpt lat="48.10853" lon="-3.55562">
        <ele>188.7</ele>
        <time>2025-02-25T12:57:34Z</time>
      </trkpt>
      <trkpt lat="48.10854" lon="-3.55562">
        <ele>188.7</ele>
        <time>2025-02-25T12:57:35Z</time>
      </trkpt>
      <trkpt lat="48.10855" lon="-3.55564">
        <ele>188.8</ele>
        <time>2025-02-25T12:57:36Z</time>
      </trkpt>
      <trkpt lat="48.10856" lon="-3.55565">
        <ele>188.8</ele>
        <time>2025-02-25T12:57:37Z</time>
      </trkpt>
      <trkpt lat="48.10857" lon="-3.55566">
        <ele>188.9</ele>
        <time>2025-02-25T12:57:38Z</time>
      </trkpt>
      <trkpt lat="48.10858" lon="-3.55566">
        <ele>188.9</ele>
        <time>2025-02-25T12:57:39Z</time>
      </trkpt>
      <trkpt lat="48.10859" lon="-3.55566">
        <ele>188.9</ele>
        <time>2025-02-25T12:57:40Z</time>
      </trkpt>
      <trkpt lat="48.1086" lon="-3.55567">
        <ele>189</ele>
        <time>2025-02-25T12:57:41Z</time>
      </trkpt>
      <trkpt lat="48.10862" lon="-3.55568">
        <ele>189</ele>
        <time>2025-02-25T12:57:42Z</time>
      </trkpt>
      <trkpt lat="48.10863" lon="-3.55568">
        <ele>189.1</ele>
        <time>2025-02-25T12:57:43Z</time>
      </trkpt>
      <trkpt lat="48.10864" lon="-3.55569">
        <ele>189.1</ele>
        <time>2025-02-25T12:57:44Z</time>
      </trkpt>
      <trkpt lat="48.10865" lon="-3.55571">
        <ele>189.1</ele>
        <time>2025-02-25T12:57:45Z</time>
      </trkpt>
      <trkpt lat="48.10866" lon="-3.55571">
        <ele>189.2</ele>
        <time>2025-02-25T12:57:46Z</time>
      </trkpt>
      <trkpt lat="48.10867" lon="-3.55572">
        <ele>189.2</ele>
        <time>2025-02-25T12:57:47Z</time>
      </trkpt>
      <trkpt lat="48.10868" lon="-3.55573">
        <ele>189.2</ele>
        <time>2025-02-25T12:57:48Z</time>
      </trkpt>
      <trkpt lat="48.10869" lon="-3.55573">
        <ele>189.3</ele>
        <time>2025-02-25T12:57:49Z</time>
      </trkpt>
      <trkpt lat="48.1087" lon="-3.55574">
        <ele>189.3</ele>
        <time>2025-02-25T12:57:50Z</time>
      </trkpt>
      <trkpt lat="48.10872" lon="-3.55575">
        <ele>189.4</ele>
        <time>2025-02-25T12:57:51Z</time>
      </trkpt>
      <trkpt lat="48.10873" lon="-3.55576">
        <ele>189.4</ele>
        <time>2025-02-25T12:57:52Z</time>
      </trkpt>
      <trkpt lat="48.10874" lon="-3.55576">
        <ele>189.5</ele>
        <time>2025-02-25T12:57:53Z</time>
      </trkpt>
      <trkpt lat="48.10875" lon="-3.55577">
        <ele>189.5</ele>
        <time>2025-02-25T12:57:54Z</time>
      </trkpt>
      <trkpt lat="48.10876" lon="-3.55577">
        <ele>189.5</ele>
        <time>2025-02-25T12:57:55Z</time>
      </trkpt>
      <trkpt lat="48.10878" lon="-3.55578">
        <ele>189.6</ele>
        <time>2025-02-25T12:57:56Z</time>
      </trkpt>
      <trkpt lat="48.10879" lon="-3.55578">
        <ele>189.6</ele>
        <time>2025-02-25T12:57:57Z</time>
      </trkpt>
      <trkpt lat="48.1088" lon="-3.55579">
        <ele>189.7</ele>
        <time>2025-02-25T12:57:58Z</time>
      </trkpt>
      <trkpt lat="48.10881" lon="-3.5558">
        <ele>189.7</ele>
        <time>2025-02-25T12:57:59Z</time>
      </trkpt>
      <trkpt lat="48.10881" lon="-3.5558">
        <ele>189.7</ele>
        <time>2025-02-25T12:58:00Z</time>
      </trkpt>
      <trkpt lat="48.10883" lon="-3.55581">
        <ele>189.8</ele>
        <time>2025-02-25T12:58:01Z</time>
      </trkpt>
      <trkpt lat="48.10884" lon="-3.55581">
        <ele>189.8</ele>
        <time>2025-02-25T12:58:02Z</time>
      </trkpt>
      <trkpt lat="48.10885" lon="-3.55581">
        <ele>189.9</ele>
        <time>2025-02-25T12:58:03Z</time>
      </trkpt>
      <trkpt lat="48.10885" lon="-3.55582">
        <ele>189.9</ele>
        <time>2025-02-25T12:58:04Z</time>
      </trkpt>
      <trkpt lat="48.10887" lon="-3.55582">
        <ele>189.9</ele>
        <time>2025-02-25T12:58:05Z</time>
      </trkpt>
      <trkpt lat="48.10889" lon="-3.55583">
        <ele>190</ele>
        <time>2025-02-25T12:58:06Z</time>
      </trkpt>
      <trkpt lat="48.1089" lon="-3.55583">
        <ele>190</ele>
        <time>2025-02-25T12:58:07Z</time>
      </trkpt>
      <trkpt lat="48.10891" lon="-3.55584">
        <ele>190.1</ele>
        <time>2025-02-25T12:58:08Z</time>
      </trkpt>
      <trkpt lat="48.10892" lon="-3.55584">
        <ele>190.1</ele>
        <time>2025-02-25T12:58:09Z</time>
      </trkpt>
      <trkpt lat="48.10893" lon="-3.55585">
        <ele>190.1</ele>
        <time>2025-02-25T12:58:10Z</time>
      </trkpt>
      <trkpt lat="48.10894" lon="-3.55585">
        <ele>190.2</ele>
        <time>2025-02-25T12:58:11Z</time>
      </trkpt>
      <trkpt lat="48.10895" lon="-3.55586">
        <ele>190.2</ele>
        <time>2025-02-25T12:58:12Z</time>
      </trkpt>
      <trkpt lat="48.10896" lon="-3.55587">
        <ele>190.3</ele>
        <time>2025-02-25T12:58:13Z</time>
      </trkpt>
      <trkpt lat="48.10897" lon="-3.55588">
        <ele>190.3</ele>
        <time>2025-02-25T12:58:14Z</time>
      </trkpt>
      <trkpt lat="48.10898" lon="-3.55589">
        <ele>190.3</ele>
        <time>2025-02-25T12:58:15Z</time>
      </trkpt>
      <trkpt lat="48.109" lon="-3.55589">
        <ele>190.4</ele>
        <time>2025-02-25T12:58:16Z</time>
      </trkpt>
      <trkpt lat="48.10901" lon="-3.5559">
        <ele>190.4</ele>
        <time>2025-02-25T12:58:17Z</time>
      </trkpt>
      <trkpt lat="48.10902" lon="-3.55591">
        <ele>190.5</ele>
        <time>2025-02-25T12:58:18Z</time>
      </trkpt>
      <trkpt lat="48.10903" lon="-3.55592">
        <ele>190.5</ele>
        <time>2025-02-25T12:58:19Z</time>
      </trkpt>
      <trkpt lat="48.10904" lon="-3.55593">
        <ele>190.5</ele>
        <time>2025-02-25T12:58:20Z</time>
      </trkpt>
      <trkpt lat="48.10905" lon="-3.55595">
        <ele>190.6</ele>
        <time>2025-02-25T12:58:21Z</time>
      </trkpt>
      <trkpt lat="48.10906" lon="-3.55596">
        <ele>190.6</ele>
        <time>2025-02-25T12:58:22Z</time>
      </trkpt>
      <trkpt lat="48.10906" lon="-3.55598">
        <ele>190.6</ele>
        <time>2025-02-25T12:58:23Z</time>
      </trkpt>
      <trkpt lat="48.10908" lon="-3.55599">
        <ele>190.7</ele>
        <time>2025-02-25T12:58:24Z</time>
      </trkpt>
      <trkpt lat="48.10909" lon="-3.55599">
        <ele>190.7</ele>
        <time>2025-02-25T12:58:25Z</time>
      </trkpt>
      <trkpt lat="48.1091" lon="-3.55599">
        <ele>190.8</ele>
        <time>2025-02-25T12:58:26Z</time>
      </trkpt>
      <trkpt lat="48.10911" lon="-3.556">
        <ele>190.8</ele>
        <time>2025-02-25T12:58:27Z</time>
      </trkpt>
      <trkpt lat="48.10912" lon="-3.556">
        <ele>190.8</ele>
        <time>2025-02-25T12:58:28Z</time>
      </trkpt>
      <trkpt lat="48.10913" lon="-3.556">
        <ele>190.9</ele>
        <time>2025-02-25T12:58:29Z</time>
      </trkpt>
      <trkpt lat="48.10914" lon="-3.55602">
        <ele>190.9</ele>
        <time>2025-02-25T12:58:30Z</time>
      </trkpt>
      <trkpt lat="48.10915" lon="-3.55603">
        <ele>190.9</ele>
        <time>2025-02-25T12:58:31Z</time>
      </trkpt>
      <trkpt lat="48.10916" lon="-3.55604">
        <ele>191</ele>
        <time>2025-02-25T12:58:32Z</time>
      </trkpt>
      <trkpt lat="48.10917" lon="-3.55604">
        <ele>191</ele>
        <time>2025-02-25T12:58:33Z</time>
      </trkpt>
      <trkpt lat="48.10918" lon="-3.55604">
        <ele>191</ele>
        <time>2025-02-25T12:58:34Z</time>
      </trkpt>
      <trkpt lat="48.10919" lon="-3.55605">
        <ele>191</ele>
        <time>2025-02-25T12:58:35Z</time>
      </trkpt>
      <trkpt lat="48.1092" lon="-3.55606">
        <ele>191</ele>
        <time>2025-02-25T12:58:36Z</time>
      </trkpt>
      <trkpt lat="48.10921" lon="-3.55607">
        <ele>191</ele>
        <time>2025-02-25T12:58:37Z</time>
      </trkpt>
      <trkpt lat="48.10922" lon="-3.55608">
        <ele>191</ele>
        <time>2025-02-25T12:58:38Z</time>
      </trkpt>
      <trkpt lat="48.10923" lon="-3.55609">
        <ele>191</ele>
        <time>2025-02-25T12:58:39Z</time>
      </trkpt>
      <trkpt lat="48.10924" lon="-3.55609">
        <ele>191</ele>
        <time>2025-02-25T12:58:40Z</time>
      </trkpt>
      <trkpt lat="48.10925" lon="-3.5561">
        <ele>191</ele>
        <time>2025-02-25T12:58:41Z</time>
      </trkpt>
      <trkpt lat="48.10926" lon="-3.55611">
        <ele>191</ele>
        <time>2025-02-25T12:58:42Z</time>
      </trkpt>
      <trkpt lat="48.10927" lon="-3.55612">
        <ele>191</ele>
        <time>2025-02-25T12:58:43Z</time>
      </trkpt>
      <trkpt lat="48.10928" lon="-3.55613">
        <ele>190.9</ele>
        <time>2025-02-25T12:58:44Z</time>
      </trkpt>
      <trkpt lat="48.10929" lon="-3.55614">
        <ele>190.9</ele>
        <time>2025-02-25T12:58:45Z</time>
      </trkpt>
      <trkpt lat="48.1093" lon="-3.55615">
        <ele>190.9</ele>
        <time>2025-02-25T12:58:46Z</time>
      </trkpt>
      <trkpt lat="48.10931" lon="-3.55615">
        <ele>190.9</ele>
        <time>2025-02-25T12:58:47Z</time>
      </trkpt>
      <trkpt lat="48.10933" lon="-3.55615">
        <ele>190.9</ele>
        <time>2025-02-25T12:58:48Z</time>
      </trkpt>
      <trkpt lat="48.10934" lon="-3.55616">
        <ele>190.8</ele>
        <time>2025-02-25T12:58:49Z</time>
      </trkpt>
      <trkpt lat="48.10934" lon="-3.55617">
        <ele>190.8</ele>
        <time>2025-02-25T12:58:50Z</time>
      </trkpt>
      <trkpt lat="48.10935" lon="-3.55617">
        <ele>190.8</ele>
        <time>2025-02-25T12:58:51Z</time>
      </trkpt>
      <trkpt lat="48.10935" lon="-3.55617">
        <ele>190.8</ele>
        <time>2025-02-25T12:58:52Z</time>
      </trkpt>
      <trkpt lat="48.10936" lon="-3.55618">
        <ele>190.8</ele>
        <time>2025-02-25T12:58:53Z</time>
      </trkpt>
      <trkpt lat="48.10937" lon="-3.55617">
        <ele>190.8</ele>
        <time>2025-02-25T12:58:54Z</time>
      </trkpt>
      <trkpt lat="48.10938" lon="-3.55616">
        <ele>190.8</ele>
        <time>2025-02-25T12:58:55Z</time>
      </trkpt>
      <trkpt lat="48.10939" lon="-3.55616">
        <ele>190.8</ele>
        <time>2025-02-25T12:58:56Z</time>
      </trkpt>
      <trkpt lat="48.1094" lon="-3.55617">
        <ele>190.8</ele>
        <time>2025-02-25T12:58:57Z</time>
      </trkpt>
      <trkpt lat="48.10941" lon="-3.55617">
        <ele>190.8</ele>
        <time>2025-02-25T12:58:58Z</time>
      </trkpt>
      <trkpt lat="48.10943" lon="-3.55617">
        <ele>190.8</ele>
        <time>2025-02-25T12:58:59Z</time>
      </trkpt>
      <trkpt lat="48.10944" lon="-3.55617">
        <ele>190.8</ele>
        <time>2025-02-25T12:59:00Z</time>
      </trkpt>
      <trkpt lat="48.10945" lon="-3.55617">
        <ele>190.8</ele>
        <time>2025-02-25T12:59:01Z</time>
      </trkpt>
      <trkpt lat="48.10946" lon="-3.55617">
        <ele>190.8</ele>
        <time>2025-02-25T12:59:02Z</time>
      </trkpt>
      <trkpt lat="48.10946" lon="-3.55618">
        <ele>190.8</ele>
        <time>2025-02-25T12:59:03Z</time>
      </trkpt>
      <trkpt lat="48.10948" lon="-3.55618">
        <ele>190.9</ele>
        <time>2025-02-25T12:59:04Z</time>
      </trkpt>
      <trkpt lat="48.10949" lon="-3.55619">
        <ele>190.9</ele>
        <time>2025-02-25T12:59:05Z</time>
      </trkpt>
      <trkpt lat="48.1095" lon="-3.55619">
        <ele>190.9</ele>
        <time>2025-02-25T12:59:06Z</time>
      </trkpt>
      <trkpt lat="48.10951" lon="-3.55621">
        <ele>190.9</ele>
        <time>2025-02-25T12:59:07Z</time>
      </trkpt>
      <trkpt lat="48.10952" lon="-3.55622">
        <ele>190.9</ele>
        <time>2025-02-25T12:59:08Z</time>
      </trkpt>
      <trkpt lat="48.10953" lon="-3.55622">
        <ele>190.9</ele>
        <time>2025-02-25T12:59:09Z</time>
      </trkpt>
      <trkpt lat="48.10953" lon="-3.55623">
        <ele>190.9</ele>
        <time>2025-02-25T12:59:10Z</time>
      </trkpt>
      <trkpt lat="48.10955" lon="-3.55623">
        <ele>191</ele>
        <time>2025-02-25T12:59:11Z</time>
      </trkpt>
      <trkpt lat="48.10956" lon="-3.55624">
        <ele>191</ele>
        <time>2025-02-25T12:59:12Z</time>
      </trkpt>
      <trkpt lat="48.10957" lon="-3.55625">
        <ele>191</ele>
        <time>2025-02-25T12:59:13Z</time>
      </trkpt>
      <trkpt lat="48.10958" lon="-3.55626">
        <ele>191</ele>
        <time>2025-02-25T12:59:14Z</time>
      </trkpt>
      <trkpt lat="48.10959" lon="-3.55627">
        <ele>191</ele>
        <time>2025-02-25T12:59:15Z</time>
      </trkpt>
      <trkpt lat="48.1096" lon="-3.55627">
        <ele>191</ele>
        <time>2025-02-25T12:59:16Z</time>
      </trkpt>
      <trkpt lat="48.10961" lon="-3.55627">
        <ele>191</ele>
        <time>2025-02-25T12:59:17Z</time>
      </trkpt>
      <trkpt lat="48.10962" lon="-3.55628">
        <ele>191</ele>
        <time>2025-02-25T12:59:18Z</time>
      </trkpt>
      <trkpt lat="48.10963" lon="-3.55628">
        <ele>191.1</ele>
        <time>2025-02-25T12:59:19Z</time>
      </trkpt>
      <trkpt lat="48.10964" lon="-3.55629">
        <ele>191.1</ele>
        <time>2025-02-25T12:59:20Z</time>
      </trkpt>
      <trkpt lat="48.10966" lon="-3.5563">
        <ele>191.1</ele>
        <time>2025-02-25T12:59:21Z</time>
      </trkpt>
      <trkpt lat="48.10967" lon="-3.5563">
        <ele>191.1</ele>
        <time>2025-02-25T12:59:22Z</time>
      </trkpt>
      <trkpt lat="48.10968" lon="-3.5563">
        <ele>191.2</ele>
        <time>2025-02-25T12:59:23Z</time>
      </trkpt>
      <trkpt lat="48.10969" lon="-3.55631">
        <ele>191.2</ele>
        <time>2025-02-25T12:59:24Z</time>
      </trkpt>
      <trkpt lat="48.1097" lon="-3.55631">
        <ele>191.2</ele>
        <time>2025-02-25T12:59:25Z</time>
      </trkpt>
      <trkpt lat="48.10971" lon="-3.55632">
        <ele>191.2</ele>
        <time>2025-02-25T12:59:26Z</time>
      </trkpt>
      <trkpt lat="48.10971" lon="-3.55632">
        <ele>191.2</ele>
        <time>2025-02-25T12:59:27Z</time>
      </trkpt>
      <trkpt lat="48.10973" lon="-3.55632">
        <ele>191.3</ele>
        <time>2025-02-25T12:59:28Z</time>
      </trkpt>
      <trkpt lat="48.10974" lon="-3.55632">
        <ele>191.3</ele>
        <time>2025-02-25T12:59:29Z</time>
      </trkpt>
      <trkpt lat="48.10975" lon="-3.55632">
        <ele>191.3</ele>
        <time>2025-02-25T12:59:30Z</time>
      </trkpt>
      <trkpt lat="48.10976" lon="-3.55633">
        <ele>191.2</ele>
        <time>2025-02-25T12:59:31Z</time>
      </trkpt>
      <trkpt lat="48.10977" lon="-3.55633">
        <ele>191.2</ele>
        <time>2025-02-25T12:59:32Z</time>
      </trkpt>
      <trkpt lat="48.10977" lon="-3.55634">
        <ele>191.2</ele>
        <time>2025-02-25T12:59:33Z</time>
      </trkpt>
      <trkpt lat="48.10979" lon="-3.55634">
        <ele>191.2</ele>
        <time>2025-02-25T12:59:34Z</time>
      </trkpt>
      <trkpt lat="48.1098" lon="-3.55636">
        <ele>191.1</ele>
        <time>2025-02-25T12:59:35Z</time>
      </trkpt>
      <trkpt lat="48.10981" lon="-3.55636">
        <ele>191.1</ele>
        <time>2025-02-25T12:59:36Z</time>
      </trkpt>
      <trkpt lat="48.10982" lon="-3.55636">
        <ele>191.1</ele>
        <time>2025-02-25T12:59:37Z</time>
      </trkpt>
      <trkpt lat="48.10983" lon="-3.55636">
        <ele>191.1</ele>
        <time>2025-02-25T12:59:38Z</time>
      </trkpt>
      <trkpt lat="48.10984" lon="-3.55637">
        <ele>191.1</ele>
        <time>2025-02-25T12:59:39Z</time>
      </trkpt>
      <trkpt lat="48.10985" lon="-3.55638">
        <ele>191</ele>
        <time>2025-02-25T12:59:40Z</time>
      </trkpt>
      <trkpt lat="48.10986" lon="-3.55639">
        <ele>191</ele>
        <time>2025-02-25T12:59:41Z</time>
      </trkpt>
      <trkpt lat="48.10986" lon="-3.5564">
        <ele>191</ele>
        <time>2025-02-25T12:59:42Z</time>
      </trkpt>
      <trkpt lat="48.10987" lon="-3.55641">
        <ele>190.9</ele>
        <time>2025-02-25T12:59:43Z</time>
      </trkpt>
      <trkpt lat="48.10988" lon="-3.55642">
        <ele>190.9</ele>
        <time>2025-02-25T12:59:44Z</time>
      </trkpt>
      <trkpt lat="48.10989" lon="-3.55642">
        <ele>190.9</ele>
        <time>2025-02-25T12:59:45Z</time>
      </trkpt>
      <trkpt lat="48.1099" lon="-3.55643">
        <ele>190.9</ele>
        <time>2025-02-25T12:59:46Z</time>
      </trkpt>
      <trkpt lat="48.10991" lon="-3.55643">
        <ele>190.9</ele>
        <time>2025-02-25T12:59:47Z</time>
      </trkpt>
      <trkpt lat="48.10992" lon="-3.55644">
        <ele>190.8</ele>
        <time>2025-02-25T12:59:48Z</time>
      </trkpt>
      <trkpt lat="48.10992" lon="-3.55644">
        <ele>190.8</ele>
        <time>2025-02-25T12:59:49Z</time>
      </trkpt>
      <trkpt lat="48.10993" lon="-3.55645">
        <ele>190.8</ele>
        <time>2025-02-25T12:59:50Z</time>
      </trkpt>
      <trkpt lat="48.10992" lon="-3.55645">
        <ele>190.8</ele>
        <time>2025-02-25T12:59:51Z</time>
      </trkpt>
      <trkpt lat="48.10993" lon="-3.55645">
        <ele>190.8</ele>
        <time>2025-02-25T12:59:52Z</time>
      </trkpt>
      <trkpt lat="48.10993" lon="-3.55646">
        <ele>190.7</ele>
        <time>2025-02-25T12:59:53Z</time>
      </trkpt>
      <trkpt lat="48.10994" lon="-3.55645">
        <ele>190.8</ele>
        <time>2025-02-25T12:59:54Z</time>
      </trkpt>
      <trkpt lat="48.10995" lon="-3.55647">
        <ele>190.7</ele>
        <time>2025-02-25T12:59:55Z</time>
      </trkpt>
      <trkpt lat="48.10994" lon="-3.55647">
        <ele>190.7</ele>
        <time>2025-02-25T12:59:56Z</time>
      </trkpt>
      <trkpt lat="48.10993" lon="-3.55647">
        <ele>190.7</ele>
        <time>2025-02-25T12:59:57Z</time>
      </trkpt>
      <trkpt lat="48.10993" lon="-3.55648">
        <ele>190.7</ele>
        <time>2025-02-25T12:59:58Z</time>
      </trkpt>
      <trkpt lat="48.10993" lon="-3.55648">
        <ele>190.7</ele>
        <time>2025-02-25T12:59:59Z</time>
      </trkpt>
      <trkpt lat="48.10994" lon="-3.55647">
        <ele>190.7</ele>
        <time>2025-02-25T13:00:00Z</time>
      </trkpt>
      <trkpt lat="48.10995" lon="-3.55647">
        <ele>190.7</ele>
        <time>2025-02-25T13:00:01Z</time>
      </trkpt>
      <trkpt lat="48.10995" lon="-3.55647">
        <ele>190.7</ele>
        <time>2025-02-25T13:00:02Z</time>
      </trkpt>
      <trkpt lat="48.10996" lon="-3.55647">
        <ele>190.7</ele>
        <time>2025-02-25T13:00:03Z</time>
      </trkpt>
      <trkpt lat="48.10996" lon="-3.55647">
        <ele>190.7</ele>
        <time>2025-02-25T13:00:04Z</time>
      </trkpt>
      <trkpt lat="48.10996" lon="-3.55648">
        <ele>190.7</ele>
        <time>2025-02-25T13:00:05Z</time>
      </trkpt>
      <trkpt lat="48.10997" lon="-3.55648">
        <ele>190.7</ele>
        <time>2025-02-25T13:00:06Z</time>
      </trkpt>
      <trkpt lat="48.10997" lon="-3.55648">
        <ele>190.7</ele>
        <time>2025-02-25T13:00:07Z</time>
      </trkpt>
      <trkpt lat="48.10998" lon="-3.55648">
        <ele>190.7</ele>
        <time>2025-02-25T13:00:08Z</time>
      </trkpt>
      <trkpt lat="48.10999" lon="-3.55649">
        <ele>190.6</ele>
        <time>2025-02-25T13:00:09Z</time>
      </trkpt>
      <trkpt lat="48.11" lon="-3.55649">
        <ele>190.6</ele>
        <time>2025-02-25T13:00:10Z</time>
      </trkpt>
      <trkpt lat="48.11002" lon="-3.55649">
        <ele>190.7</ele>
        <time>2025-02-25T13:00:11Z</time>
      </trkpt>
      <trkpt lat="48.11003" lon="-3.55649">
        <ele>190.7</ele>
        <time>2025-02-25T13:00:12Z</time>
      </trkpt>
      <trkpt lat="48.11004" lon="-3.5565">
        <ele>190.7</ele>
        <time>2025-02-25T13:00:13Z</time>
      </trkpt>
      <trkpt lat="48.11005" lon="-3.5565">
        <ele>190.7</ele>
        <time>2025-02-25T13:00:14Z</time>
      </trkpt>
      <trkpt lat="48.11005" lon="-3.55651">
        <ele>190.7</ele>
        <time>2025-02-25T13:00:15Z</time>
      </trkpt>
      <trkpt lat="48.11006" lon="-3.55652">
        <ele>190.6</ele>
        <time>2025-02-25T13:00:16Z</time>
      </trkpt>
      <trkpt lat="48.11007" lon="-3.55653">
        <ele>190.6</ele>
        <time>2025-02-25T13:00:17Z</time>
      </trkpt>
      <trkpt lat="48.11008" lon="-3.55654">
        <ele>190.6</ele>
        <time>2025-02-25T13:00:18Z</time>
      </trkpt>
      <trkpt lat="48.11009" lon="-3.55654">
        <ele>190.6</ele>
        <time>2025-02-25T13:00:19Z</time>
      </trkpt>
      <trkpt lat="48.1101" lon="-3.55655">
        <ele>190.6</ele>
        <time>2025-02-25T13:00:20Z</time>
      </trkpt>
      <trkpt lat="48.11011" lon="-3.55655">
        <ele>190.6</ele>
        <time>2025-02-25T13:00:21Z</time>
      </trkpt>
      <trkpt lat="48.11012" lon="-3.55656">
        <ele>190.5</ele>
        <time>2025-02-25T13:00:22Z</time>
      </trkpt>
      <trkpt lat="48.11012" lon="-3.55657">
        <ele>190.5</ele>
        <time>2025-02-25T13:00:23Z</time>
      </trkpt>
      <trkpt lat="48.11013" lon="-3.55658">
        <ele>190.5</ele>
        <time>2025-02-25T13:00:24Z</time>
      </trkpt>
      <trkpt lat="48.11014" lon="-3.55658">
        <ele>190.5</ele>
        <time>2025-02-25T13:00:25Z</time>
      </trkpt>
      <trkpt lat="48.11015" lon="-3.55658">
        <ele>190.5</ele>
        <time>2025-02-25T13:00:26Z</time>
      </trkpt>
      <trkpt lat="48.11016" lon="-3.55658">
        <ele>190.5</ele>
        <time>2025-02-25T13:00:27Z</time>
      </trkpt>
      <trkpt lat="48.11017" lon="-3.55659">
        <ele>190.4</ele>
        <time>2025-02-25T13:00:28Z</time>
      </trkpt>
      <trkpt lat="48.11018" lon="-3.55659">
        <ele>190.5</ele>
        <time>2025-02-25T13:00:29Z</time>
      </trkpt>
      <trkpt lat="48.11019" lon="-3.5566">
        <ele>190.4</ele>
        <time>2025-02-25T13:00:30Z</time>
      </trkpt>
      <trkpt lat="48.11019" lon="-3.55661">
        <ele>190.3</ele>
        <time>2025-02-25T13:00:31Z</time>
      </trkpt>
      <trkpt lat="48.1102" lon="-3.55662">
        <ele>190.3</ele>
        <time>2025-02-25T13:00:32Z</time>
      </trkpt>
      <trkpt lat="48.11021" lon="-3.55663">
        <ele>190.2</ele>
        <time>2025-02-25T13:00:33Z</time>
      </trkpt>
      <trkpt lat="48.11021" lon="-3.55663">
        <ele>190.2</ele>
        <time>2025-02-25T13:00:34Z</time>
      </trkpt>
      <trkpt lat="48.11022" lon="-3.55664">
        <ele>190.2</ele>
        <time>2025-02-25T13:00:35Z</time>
      </trkpt>
      <trkpt lat="48.11023" lon="-3.55665">
        <ele>190.1</ele>
        <time>2025-02-25T13:00:36Z</time>
      </trkpt>
      <trkpt lat="48.11024" lon="-3.55665">
        <ele>190.1</ele>
        <time>2025-02-25T13:00:37Z</time>
      </trkpt>
      <trkpt lat="48.11024" lon="-3.55666">
        <ele>190</ele>
        <time>2025-02-25T13:00:38Z</time>
      </trkpt>
      <trkpt lat="48.11025" lon="-3.55666">
        <ele>190</ele>
        <time>2025-02-25T13:00:39Z</time>
      </trkpt>
      <trkpt lat="48.11026" lon="-3.55667">
        <ele>190</ele>
        <time>2025-02-25T13:00:40Z</time>
      </trkpt>
      <trkpt lat="48.11027" lon="-3.55667">
        <ele>190</ele>
        <time>2025-02-25T13:00:41Z</time>
      </trkpt>
      <trkpt lat="48.11028" lon="-3.55668">
        <ele>190.1</ele>
        <time>2025-02-25T13:00:42Z</time>
      </trkpt>
      <trkpt lat="48.11029" lon="-3.55668">
        <ele>190.1</ele>
        <time>2025-02-25T13:00:43Z</time>
      </trkpt>
      <trkpt lat="48.1103" lon="-3.55669">
        <ele>190.2</ele>
        <time>2025-02-25T13:00:44Z</time>
      </trkpt>
      <trkpt lat="48.11031" lon="-3.5567">
        <ele>190.3</ele>
        <time>2025-02-25T13:00:45Z</time>
      </trkpt>
      <trkpt lat="48.11031" lon="-3.5567">
        <ele>190.3</ele>
        <time>2025-02-25T13:00:46Z</time>
      </trkpt>
      <trkpt lat="48.11032" lon="-3.55671">
        <ele>190.4</ele>
        <time>2025-02-25T13:00:47Z</time>
      </trkpt>
      <trkpt lat="48.11033" lon="-3.5567">
        <ele>190.5</ele>
        <time>2025-02-25T13:00:48Z</time>
      </trkpt>
      <trkpt lat="48.11034" lon="-3.5567">
        <ele>190.5</ele>
        <time>2025-02-25T13:00:49Z</time>
      </trkpt>
      <trkpt lat="48.11034" lon="-3.5567">
        <ele>190.5</ele>
        <time>2025-02-25T13:00:50Z</time>
      </trkpt>
      <trkpt lat="48.11034" lon="-3.5567">
        <ele>190.5</ele>
        <time>2025-02-25T13:00:51Z</time>
      </trkpt>
      <trkpt lat="48.11034" lon="-3.5567">
        <ele>190.5</ele>
        <time>2025-02-25T13:00:52Z</time>
      </trkpt>
      <trkpt lat="48.11034" lon="-3.5567">
        <ele>190.5</ele>
        <time>2025-02-25T13:00:53Z</time>
      </trkpt>
      <trkpt lat="48.11034" lon="-3.5567">
        <ele>190.5</ele>
        <time>2025-02-25T13:00:54Z</time>
      </trkpt>
      <trkpt lat="48.11034" lon="-3.5567">
        <ele>190.5</ele>
        <time>2025-02-25T13:00:55Z</time>
      </trkpt>
      <trkpt lat="48.11034" lon="-3.5567">
        <ele>190.5</ele>
        <time>2025-02-25T13:00:56Z</time>
      </trkpt>
      <trkpt lat="48.11034" lon="-3.5567">
        <ele>190.5</ele>
        <time>2025-02-25T13:00:57Z</time>
      </trkpt>
      <trkpt lat="48.11034" lon="-3.5567">
        <ele>190.5</ele>
        <time>2025-02-25T13:00:58Z</time>
      </trkpt>
      <trkpt lat="48.11034" lon="-3.5567">
        <ele>190.5</ele>
        <time>2025-02-25T13:00:59Z</time>
      </trkpt>
      <trkpt lat="48.11034" lon="-3.5567">
        <ele>190.5</ele>
        <time>2025-02-25T13:01:00Z</time>
      </trkpt>
      <trkpt lat="48.11034" lon="-3.5567">
        <ele>190.5</ele>
        <time>2025-02-25T13:01:01Z</time>
      </trkpt>
      <trkpt lat="48.11034" lon="-3.5567">
        <ele>190.5</ele>
        <time>2025-02-25T13:01:02Z</time>
      </trkpt>
      <trkpt lat="48.11034" lon="-3.5567">
        <ele>190.5</ele>
        <time>2025-02-25T13:01:03Z</time>
      </trkpt>
      <trkpt lat="48.11034" lon="-3.55671">
        <ele>190.6</ele>
        <time>2025-02-25T13:01:04Z</time>
      </trkpt>
      <trkpt lat="48.11035" lon="-3.55672">
        <ele>190.7</ele>
        <time>2025-02-25T13:01:05Z</time>
      </trkpt>
      <trkpt lat="48.11035" lon="-3.55672">
        <ele>190.7</ele>
        <time>2025-02-25T13:01:06Z</time>
      </trkpt>
      <trkpt lat="48.11036" lon="-3.55673">
        <ele>190.8</ele>
        <time>2025-02-25T13:01:07Z</time>
      </trkpt>
      <trkpt lat="48.11037" lon="-3.55674">
        <ele>190.8</ele>
        <time>2025-02-25T13:01:08Z</time>
      </trkpt>
      <trkpt lat="48.11038" lon="-3.55675">
        <ele>190.9</ele>
        <time>2025-02-25T13:01:09Z</time>
      </trkpt>
      <trkpt lat="48.11039" lon="-3.55675">
        <ele>191</ele>
        <time>2025-02-25T13:01:10Z</time>
      </trkpt>
      <trkpt lat="48.1104" lon="-3.55676">
        <ele>191.1</ele>
        <time>2025-02-25T13:01:11Z</time>
      </trkpt>
      <trkpt lat="48.1104" lon="-3.55676">
        <ele>191.1</ele>
        <time>2025-02-25T13:01:12Z</time>
      </trkpt>
      <trkpt lat="48.1104" lon="-3.55676">
        <ele>191.1</ele>
        <time>2025-02-25T13:01:13Z</time>
      </trkpt>
      <trkpt lat="48.1104" lon="-3.55676">
        <ele>191.1</ele>
        <time>2025-02-25T13:01:14Z</time>
      </trkpt>
      <trkpt lat="48.1104" lon="-3.55676">
        <ele>191.1</ele>
        <time>2025-02-25T13:01:15Z</time>
      </trkpt>
      <trkpt lat="48.1104" lon="-3.55676">
        <ele>191.1</ele>
        <time>2025-02-25T13:01:16Z</time>
      </trkpt>
      <trkpt lat="48.1104" lon="-3.55676">
        <ele>191.1</ele>
        <time>2025-02-25T13:01:17Z</time>
      </trkpt>
      <trkpt lat="48.1104" lon="-3.55676">
        <ele>191.1</ele>
        <time>2025-02-25T13:01:18Z</time>
      </trkpt>
      <trkpt lat="48.1104" lon="-3.55676">
        <ele>191.1</ele>
        <time>2025-02-25T13:01:19Z</time>
      </trkpt>
      <trkpt lat="48.1104" lon="-3.55676">
        <ele>191.1</ele>
        <time>2025-02-25T13:01:20Z</time>
      </trkpt>
      <trkpt lat="48.1104" lon="-3.55676">
        <ele>191.1</ele>
        <time>2025-02-25T13:01:21Z</time>
      </trkpt>
      <trkpt lat="48.1104" lon="-3.55677">
        <ele>191.1</ele>
        <time>2025-02-25T13:01:22Z</time>
      </trkpt>
      <trkpt lat="48.1104" lon="-3.55677">
        <ele>191.1</ele>
        <time>2025-02-25T13:01:23Z</time>
      </trkpt>
      <trkpt lat="48.11041" lon="-3.55678">
        <ele>191.2</ele>
        <time>2025-02-25T13:01:24Z</time>
      </trkpt>
      <trkpt lat="48.11042" lon="-3.55679">
        <ele>191.2</ele>
        <time>2025-02-25T13:01:25Z</time>
      </trkpt>
      <trkpt lat="48.11043" lon="-3.5568">
        <ele>191.3</ele>
        <time>2025-02-25T13:01:26Z</time>
      </trkpt>
      <trkpt lat="48.11044" lon="-3.55681">
        <ele>191.4</ele>
        <time>2025-02-25T13:01:27Z</time>
      </trkpt>
      <trkpt lat="48.11045" lon="-3.55682">
        <ele>191.4</ele>
        <time>2025-02-25T13:01:28Z</time>
      </trkpt>
      <trkpt lat="48.11045" lon="-3.55683">
        <ele>191.5</ele>
        <time>2025-02-25T13:01:29Z</time>
      </trkpt>
      <trkpt lat="48.11046" lon="-3.55684">
        <ele>191.5</ele>
        <time>2025-02-25T13:01:30Z</time>
      </trkpt>
      <trkpt lat="48.11047" lon="-3.55684">
        <ele>191.6</ele>
        <time>2025-02-25T13:01:31Z</time>
      </trkpt>
      <trkpt lat="48.11048" lon="-3.55685">
        <ele>191.6</ele>
        <time>2025-02-25T13:01:32Z</time>
      </trkpt>
      <trkpt lat="48.11049" lon="-3.55686">
        <ele>191.7</ele>
        <time>2025-02-25T13:01:33Z</time>
      </trkpt>
      <trkpt lat="48.1105" lon="-3.55687">
        <ele>191.7</ele>
        <time>2025-02-25T13:01:34Z</time>
      </trkpt>
      <trkpt lat="48.11051" lon="-3.55687">
        <ele>191.8</ele>
        <time>2025-02-25T13:01:35Z</time>
      </trkpt>
      <trkpt lat="48.11051" lon="-3.55687">
        <ele>191.8</ele>
        <time>2025-02-25T13:01:36Z</time>
      </trkpt>
      <trkpt lat="48.11052" lon="-3.55687">
        <ele>191.8</ele>
        <time>2025-02-25T13:01:37Z</time>
      </trkpt>
      <trkpt lat="48.11053" lon="-3.55687">
        <ele>191.9</ele>
        <time>2025-02-25T13:01:38Z</time>
      </trkpt>
      <trkpt lat="48.11054" lon="-3.55688">
        <ele>191.9</ele>
        <time>2025-02-25T13:01:39Z</time>
      </trkpt>
      <trkpt lat="48.11055" lon="-3.55689">
        <ele>192</ele>
        <time>2025-02-25T13:01:40Z</time>
      </trkpt>
      <trkpt lat="48.11056" lon="-3.5569">
        <ele>192</ele>
        <time>2025-02-25T13:01:41Z</time>
      </trkpt>
      <trkpt lat="48.11057" lon="-3.55691">
        <ele>192.1</ele>
        <time>2025-02-25T13:01:42Z</time>
      </trkpt>
      <trkpt lat="48.11058" lon="-3.55692">
        <ele>192.1</ele>
        <time>2025-02-25T13:01:43Z</time>
      </trkpt>
      <trkpt lat="48.11059" lon="-3.55693">
        <ele>192.1</ele>
        <time>2025-02-25T13:01:44Z</time>
      </trkpt>
      <trkpt lat="48.1106" lon="-3.55694">
        <ele>192.2</ele>
        <time>2025-02-25T13:01:45Z</time>
      </trkpt>
      <trkpt lat="48.11061" lon="-3.55695">
        <ele>192.2</ele>
        <time>2025-02-25T13:01:46Z</time>
      </trkpt>
      <trkpt lat="48.11062" lon="-3.55696">
        <ele>192.2</ele>
        <time>2025-02-25T13:01:47Z</time>
      </trkpt>
      <trkpt lat="48.11063" lon="-3.55697">
        <ele>192.3</ele>
        <time>2025-02-25T13:01:48Z</time>
      </trkpt>
      <trkpt lat="48.11064" lon="-3.55697">
        <ele>192.3</ele>
        <time>2025-02-25T13:01:49Z</time>
      </trkpt>
      <trkpt lat="48.11065" lon="-3.55698">
        <ele>192.4</ele>
        <time>2025-02-25T13:01:50Z</time>
      </trkpt>
      <trkpt lat="48.11067" lon="-3.55699">
        <ele>192.5</ele>
        <time>2025-02-25T13:01:51Z</time>
      </trkpt>
      <trkpt lat="48.11068" lon="-3.55699">
        <ele>192.5</ele>
        <time>2025-02-25T13:01:52Z</time>
      </trkpt>
      <trkpt lat="48.11068" lon="-3.557">
        <ele>192.5</ele>
        <time>2025-02-25T13:01:53Z</time>
      </trkpt>
      <trkpt lat="48.11069" lon="-3.55701">
        <ele>192.6</ele>
        <time>2025-02-25T13:01:54Z</time>
      </trkpt>
      <trkpt lat="48.1107" lon="-3.55702">
        <ele>192.7</ele>
        <time>2025-02-25T13:01:55Z</time>
      </trkpt>
      <trkpt lat="48.11071" lon="-3.55703">
        <ele>192.7</ele>
        <time>2025-02-25T13:01:56Z</time>
      </trkpt>
      <trkpt lat="48.11073" lon="-3.55704">
        <ele>192.8</ele>
        <time>2025-02-25T13:01:57Z</time>
      </trkpt>
      <trkpt lat="48.11074" lon="-3.55705">
        <ele>192.9</ele>
        <time>2025-02-25T13:01:58Z</time>
      </trkpt>
      <trkpt lat="48.11075" lon="-3.55706">
        <ele>193</ele>
        <time>2025-02-25T13:01:59Z</time>
      </trkpt>
      <trkpt lat="48.11076" lon="-3.55707">
        <ele>193.1</ele>
        <time>2025-02-25T13:02:00Z</time>
      </trkpt>
      <trkpt lat="48.11077" lon="-3.55708">
        <ele>193.1</ele>
        <time>2025-02-25T13:02:01Z</time>
      </trkpt>
      <trkpt lat="48.11078" lon="-3.55709">
        <ele>193.2</ele>
        <time>2025-02-25T13:02:02Z</time>
      </trkpt>
      <trkpt lat="48.1108" lon="-3.5571">
        <ele>193.4</ele>
        <time>2025-02-25T13:02:03Z</time>
      </trkpt>
      <trkpt lat="48.11081" lon="-3.55711">
        <ele>193.5</ele>
        <time>2025-02-25T13:02:04Z</time>
      </trkpt>
      <trkpt lat="48.11083" lon="-3.55711">
        <ele>193.6</ele>
        <time>2025-02-25T13:02:05Z</time>
      </trkpt>
      <trkpt lat="48.11084" lon="-3.55713">
        <ele>193.7</ele>
        <time>2025-02-25T13:02:06Z</time>
      </trkpt>
      <trkpt lat="48.11085" lon="-3.55714">
        <ele>193.8</ele>
        <time>2025-02-25T13:02:07Z</time>
      </trkpt>
      <trkpt lat="48.11086" lon="-3.55715">
        <ele>193.8</ele>
        <time>2025-02-25T13:02:08Z</time>
      </trkpt>
      <trkpt lat="48.11087" lon="-3.55716">
        <ele>193.9</ele>
        <time>2025-02-25T13:02:09Z</time>
      </trkpt>
      <trkpt lat="48.11088" lon="-3.55717">
        <ele>194</ele>
        <time>2025-02-25T13:02:10Z</time>
      </trkpt>
      <trkpt lat="48.1109" lon="-3.55719">
        <ele>194.1</ele>
        <time>2025-02-25T13:02:11Z</time>
      </trkpt>
      <trkpt lat="48.11091" lon="-3.5572">
        <ele>194.2</ele>
        <time>2025-02-25T13:02:12Z</time>
      </trkpt>
      <trkpt lat="48.11092" lon="-3.55721">
        <ele>194.3</ele>
        <time>2025-02-25T13:02:13Z</time>
      </trkpt>
      <trkpt lat="48.11093" lon="-3.55722">
        <ele>194.3</ele>
        <time>2025-02-25T13:02:14Z</time>
      </trkpt>
      <trkpt lat="48.11094" lon="-3.55724">
        <ele>194.4</ele>
        <time>2025-02-25T13:02:15Z</time>
      </trkpt>
      <trkpt lat="48.11095" lon="-3.55724">
        <ele>194.4</ele>
        <time>2025-02-25T13:02:16Z</time>
      </trkpt>
      <trkpt lat="48.11096" lon="-3.55725">
        <ele>194.5</ele>
        <time>2025-02-25T13:02:17Z</time>
      </trkpt>
      <trkpt lat="48.11098" lon="-3.55725">
        <ele>194.5</ele>
        <time>2025-02-25T13:02:18Z</time>
      </trkpt>
      <trkpt lat="48.11098" lon="-3.55726">
        <ele>194.5</ele>
        <time>2025-02-25T13:02:19Z</time>
      </trkpt>
      <trkpt lat="48.11099" lon="-3.55727">
        <ele>194.6</ele>
        <time>2025-02-25T13:02:20Z</time>
      </trkpt>
      <trkpt lat="48.111" lon="-3.55727">
        <ele>194.6</ele>
        <time>2025-02-25T13:02:21Z</time>
      </trkpt>
      <trkpt lat="48.11101" lon="-3.55728">
        <ele>194.6</ele>
        <time>2025-02-25T13:02:22Z</time>
      </trkpt>
      <trkpt lat="48.11102" lon="-3.55729">
        <ele>194.7</ele>
        <time>2025-02-25T13:02:23Z</time>
      </trkpt>
      <trkpt lat="48.11103" lon="-3.5573">
        <ele>194.7</ele>
        <time>2025-02-25T13:02:24Z</time>
      </trkpt>
      <trkpt lat="48.11104" lon="-3.5573">
        <ele>194.7</ele>
        <time>2025-02-25T13:02:25Z</time>
      </trkpt>
      <trkpt lat="48.11105" lon="-3.55732">
        <ele>194.8</ele>
        <time>2025-02-25T13:02:26Z</time>
      </trkpt>
      <trkpt lat="48.11106" lon="-3.55733">
        <ele>194.8</ele>
        <time>2025-02-25T13:02:27Z</time>
      </trkpt>
      <trkpt lat="48.11107" lon="-3.55734">
        <ele>194.9</ele>
        <time>2025-02-25T13:02:28Z</time>
      </trkpt>
      <trkpt lat="48.11108" lon="-3.55735">
        <ele>194.9</ele>
        <time>2025-02-25T13:02:29Z</time>
      </trkpt>
      <trkpt lat="48.11109" lon="-3.55735">
        <ele>194.9</ele>
        <time>2025-02-25T13:02:30Z</time>
      </trkpt>
      <trkpt lat="48.1111" lon="-3.55736">
        <ele>195</ele>
        <time>2025-02-25T13:02:31Z</time>
      </trkpt>
      <trkpt lat="48.11111" lon="-3.55737">
        <ele>195</ele>
        <time>2025-02-25T13:02:32Z</time>
      </trkpt>
      <trkpt lat="48.11112" lon="-3.55737">
        <ele>195</ele>
        <time>2025-02-25T13:02:33Z</time>
      </trkpt>
      <trkpt lat="48.11113" lon="-3.55737">
        <ele>195.1</ele>
        <time>2025-02-25T13:02:34Z</time>
      </trkpt>
      <trkpt lat="48.11115" lon="-3.55738">
        <ele>195.1</ele>
        <time>2025-02-25T13:02:35Z</time>
      </trkpt>
      <trkpt lat="48.11116" lon="-3.55739">
        <ele>195.2</ele>
        <time>2025-02-25T13:02:36Z</time>
      </trkpt>
      <trkpt lat="48.11117" lon="-3.5574">
        <ele>195.2</ele>
        <time>2025-02-25T13:02:37Z</time>
      </trkpt>
      <trkpt lat="48.11118" lon="-3.5574">
        <ele>195.2</ele>
        <time>2025-02-25T13:02:38Z</time>
      </trkpt>
      <trkpt lat="48.11119" lon="-3.5574">
        <ele>195.3</ele>
        <time>2025-02-25T13:02:39Z</time>
      </trkpt>
      <trkpt lat="48.1112" lon="-3.55741">
        <ele>195.3</ele>
        <time>2025-02-25T13:02:40Z</time>
      </trkpt>
      <trkpt lat="48.11121" lon="-3.55742">
        <ele>195.4</ele>
        <time>2025-02-25T13:02:41Z</time>
      </trkpt>
      <trkpt lat="48.11122" lon="-3.55742">
        <ele>195.4</ele>
        <time>2025-02-25T13:02:42Z</time>
      </trkpt>
      <trkpt lat="48.11123" lon="-3.55743">
        <ele>195.4</ele>
        <time>2025-02-25T13:02:43Z</time>
      </trkpt>
      <trkpt lat="48.11124" lon="-3.55744">
        <ele>195.5</ele>
        <time>2025-02-25T13:02:44Z</time>
      </trkpt>
      <trkpt lat="48.11124" lon="-3.55746">
        <ele>195.5</ele>
        <time>2025-02-25T13:02:45Z</time>
      </trkpt>
      <trkpt lat="48.11125" lon="-3.55747">
        <ele>195.5</ele>
        <time>2025-02-25T13:02:46Z</time>
      </trkpt>
      <trkpt lat="48.11126" lon="-3.55748">
        <ele>195.5</ele>
        <time>2025-02-25T13:02:47Z</time>
      </trkpt>
      <trkpt lat="48.11128" lon="-3.55749">
        <ele>195.6</ele>
        <time>2025-02-25T13:02:48Z</time>
      </trkpt>
      <trkpt lat="48.11129" lon="-3.5575">
        <ele>195.6</ele>
        <time>2025-02-25T13:02:49Z</time>
      </trkpt>
      <trkpt lat="48.1113" lon="-3.55751">
        <ele>195.7</ele>
        <time>2025-02-25T13:02:50Z</time>
      </trkpt>
      <trkpt lat="48.1113" lon="-3.55752">
        <ele>195.7</ele>
        <time>2025-02-25T13:02:51Z</time>
      </trkpt>
      <trkpt lat="48.11131" lon="-3.55754">
        <ele>195.8</ele>
        <time>2025-02-25T13:02:52Z</time>
      </trkpt>
      <trkpt lat="48.11132" lon="-3.55755">
        <ele>195.8</ele>
        <time>2025-02-25T13:02:53Z</time>
      </trkpt>
      <trkpt lat="48.11133" lon="-3.55756">
        <ele>195.8</ele>
        <time>2025-02-25T13:02:54Z</time>
      </trkpt>
      <trkpt lat="48.11134" lon="-3.55757">
        <ele>195.9</ele>
        <time>2025-02-25T13:02:55Z</time>
      </trkpt>
      <trkpt lat="48.11135" lon="-3.55758">
        <ele>195.9</ele>
        <time>2025-02-25T13:02:56Z</time>
      </trkpt>
      <trkpt lat="48.11136" lon="-3.55759">
        <ele>195.9</ele>
        <time>2025-02-25T13:02:57Z</time>
      </trkpt>
      <trkpt lat="48.11136" lon="-3.5576">
        <ele>195.9</ele>
        <time>2025-02-25T13:02:58Z</time>
      </trkpt>
      <trkpt lat="48.11137" lon="-3.55761">
        <ele>196</ele>
        <time>2025-02-25T13:02:59Z</time>
      </trkpt>
      <trkpt lat="48.11139" lon="-3.55761">
        <ele>196</ele>
        <time>2025-02-25T13:03:00Z</time>
      </trkpt>
      <trkpt lat="48.1114" lon="-3.55762">
        <ele>196.1</ele>
        <time>2025-02-25T13:03:01Z</time>
      </trkpt>
      <trkpt lat="48.11141" lon="-3.55763">
        <ele>196.2</ele>
        <time>2025-02-25T13:03:02Z</time>
      </trkpt>
      <trkpt lat="48.11142" lon="-3.55763">
        <ele>196.3</ele>
        <time>2025-02-25T13:03:03Z</time>
      </trkpt>
      <trkpt lat="48.11143" lon="-3.55764">
        <ele>196.4</ele>
        <time>2025-02-25T13:03:04Z</time>
      </trkpt>
      <trkpt lat="48.11144" lon="-3.55765">
        <ele>196.5</ele>
        <time>2025-02-25T13:03:05Z</time>
      </trkpt>
      <trkpt lat="48.11144" lon="-3.55766">
        <ele>196.5</ele>
        <time>2025-02-25T13:03:06Z</time>
      </trkpt>
      <trkpt lat="48.11145" lon="-3.55767">
        <ele>196.6</ele>
        <time>2025-02-25T13:03:07Z</time>
      </trkpt>
      <trkpt lat="48.11146" lon="-3.55768">
        <ele>196.7</ele>
        <time>2025-02-25T13:03:08Z</time>
      </trkpt>
      <trkpt lat="48.11147" lon="-3.55769">
        <ele>196.8</ele>
        <time>2025-02-25T13:03:09Z</time>
      </trkpt>
      <trkpt lat="48.11148" lon="-3.5577">
        <ele>196.9</ele>
        <time>2025-02-25T13:03:10Z</time>
      </trkpt>
      <trkpt lat="48.11148" lon="-3.55771">
        <ele>196.9</ele>
        <time>2025-02-25T13:03:11Z</time>
      </trkpt>
      <trkpt lat="48.11149" lon="-3.55771">
        <ele>197</ele>
        <time>2025-02-25T13:03:12Z</time>
      </trkpt>
      <trkpt lat="48.1115" lon="-3.55772">
        <ele>197.1</ele>
        <time>2025-02-25T13:03:13Z</time>
      </trkpt>
      <trkpt lat="48.11151" lon="-3.55772">
        <ele>197.2</ele>
        <time>2025-02-25T13:03:14Z</time>
      </trkpt>
      <trkpt lat="48.11153" lon="-3.55773">
        <ele>197.4</ele>
        <time>2025-02-25T13:03:15Z</time>
      </trkpt>
      <trkpt lat="48.11154" lon="-3.55773">
        <ele>197.5</ele>
        <time>2025-02-25T13:03:16Z</time>
      </trkpt>
      <trkpt lat="48.11155" lon="-3.55773">
        <ele>197.6</ele>
        <time>2025-02-25T13:03:17Z</time>
      </trkpt>
      <trkpt lat="48.11157" lon="-3.55772">
        <ele>197.8</ele>
        <time>2025-02-25T13:03:18Z</time>
      </trkpt>
      <trkpt lat="48.11158" lon="-3.55772">
        <ele>197.9</ele>
        <time>2025-02-25T13:03:19Z</time>
      </trkpt>
      <trkpt lat="48.11159" lon="-3.55771">
        <ele>198</ele>
        <time>2025-02-25T13:03:20Z</time>
      </trkpt>
      <trkpt lat="48.1116" lon="-3.55771">
        <ele>198.1</ele>
        <time>2025-02-25T13:03:21Z</time>
      </trkpt>
      <trkpt lat="48.11161" lon="-3.5577">
        <ele>198.2</ele>
        <time>2025-02-25T13:03:22Z</time>
      </trkpt>
      <trkpt lat="48.11162" lon="-3.5577">
        <ele>198.3</ele>
        <time>2025-02-25T13:03:23Z</time>
      </trkpt>
      <trkpt lat="48.11163" lon="-3.55769">
        <ele>198.3</ele>
        <time>2025-02-25T13:03:24Z</time>
      </trkpt>
      <trkpt lat="48.11164" lon="-3.55769">
        <ele>198.4</ele>
        <time>2025-02-25T13:03:25Z</time>
      </trkpt>
      <trkpt lat="48.11165" lon="-3.55769">
        <ele>198.5</ele>
        <time>2025-02-25T13:03:26Z</time>
      </trkpt>
      <trkpt lat="48.11166" lon="-3.55768">
        <ele>198.6</ele>
        <time>2025-02-25T13:03:27Z</time>
      </trkpt>
      <trkpt lat="48.11167" lon="-3.55768">
        <ele>198.7</ele>
        <time>2025-02-25T13:03:28Z</time>
      </trkpt>
      <trkpt lat="48.11168" lon="-3.55767">
        <ele>198.6</ele>
        <time>2025-02-25T13:03:29Z</time>
      </trkpt>
      <trkpt lat="48.11169" lon="-3.55767">
        <ele>198.6</ele>
        <time>2025-02-25T13:03:30Z</time>
      </trkpt>
      <trkpt lat="48.1117" lon="-3.55767">
        <ele>198.7</ele>
        <time>2025-02-25T13:03:31Z</time>
      </trkpt>
      <trkpt lat="48.11171" lon="-3.55767">
        <ele>198.7</ele>
        <time>2025-02-25T13:03:32Z</time>
      </trkpt>
      <trkpt lat="48.11172" lon="-3.55766">
        <ele>198.7</ele>
        <time>2025-02-25T13:03:33Z</time>
      </trkpt>
      <trkpt lat="48.11173" lon="-3.55766">
        <ele>198.7</ele>
        <time>2025-02-25T13:03:34Z</time>
      </trkpt>
      <trkpt lat="48.11174" lon="-3.55765">
        <ele>198.7</ele>
        <time>2025-02-25T13:03:35Z</time>
      </trkpt>
      <trkpt lat="48.11175" lon="-3.55765">
        <ele>198.7</ele>
        <time>2025-02-25T13:03:36Z</time>
      </trkpt>
      <trkpt lat="48.11176" lon="-3.55764">
        <ele>198.7</ele>
        <time>2025-02-25T13:03:37Z</time>
      </trkpt>
      <trkpt lat="48.11177" lon="-3.55764">
        <ele>198.7</ele>
        <time>2025-02-25T13:03:38Z</time>
      </trkpt>
      <trkpt lat="48.11178" lon="-3.55764">
        <ele>198.7</ele>
        <time>2025-02-25T13:03:39Z</time>
      </trkpt>
      <trkpt lat="48.11179" lon="-3.55764">
        <ele>198.7</ele>
        <time>2025-02-25T13:03:40Z</time>
      </trkpt>
      <trkpt lat="48.1118" lon="-3.55763">
        <ele>198.7</ele>
        <time>2025-02-25T13:03:41Z</time>
      </trkpt>
      <trkpt lat="48.11181" lon="-3.55763">
        <ele>198.7</ele>
        <time>2025-02-25T13:03:42Z</time>
      </trkpt>
      <trkpt lat="48.11182" lon="-3.55763">
        <ele>198.8</ele>
        <time>2025-02-25T13:03:43Z</time>
      </trkpt>
      <trkpt lat="48.11183" lon="-3.55763">
        <ele>198.8</ele>
        <time>2025-02-25T13:03:44Z</time>
      </trkpt>
      <trkpt lat="48.11185" lon="-3.55763">
        <ele>198.8</ele>
        <time>2025-02-25T13:03:45Z</time>
      </trkpt>
      <trkpt lat="48.11186" lon="-3.55762">
        <ele>198.8</ele>
        <time>2025-02-25T13:03:46Z</time>
      </trkpt>
      <trkpt lat="48.11187" lon="-3.55762">
        <ele>198.8</ele>
        <time>2025-02-25T13:03:47Z</time>
      </trkpt>
      <trkpt lat="48.11188" lon="-3.55762">
        <ele>198.9</ele>
        <time>2025-02-25T13:03:48Z</time>
      </trkpt>
      <trkpt lat="48.11189" lon="-3.55762">
        <ele>198.9</ele>
        <time>2025-02-25T13:03:49Z</time>
      </trkpt>
      <trkpt lat="48.1119" lon="-3.55761">
        <ele>198.9</ele>
        <time>2025-02-25T13:03:50Z</time>
      </trkpt>
      <trkpt lat="48.11191" lon="-3.55761">
        <ele>198.9</ele>
        <time>2025-02-25T13:03:51Z</time>
      </trkpt>
      <trkpt lat="48.11193" lon="-3.55761">
        <ele>199</ele>
        <time>2025-02-25T13:03:52Z</time>
      </trkpt>
      <trkpt lat="48.11194" lon="-3.55761">
        <ele>199</ele>
        <time>2025-02-25T13:03:53Z</time>
      </trkpt>
      <trkpt lat="48.11195" lon="-3.5576">
        <ele>199</ele>
        <time>2025-02-25T13:03:54Z</time>
      </trkpt>
      <trkpt lat="48.11196" lon="-3.5576">
        <ele>199</ele>
        <time>2025-02-25T13:03:55Z</time>
      </trkpt>
      <trkpt lat="48.11197" lon="-3.55759">
        <ele>199</ele>
        <time>2025-02-25T13:03:56Z</time>
      </trkpt>
      <trkpt lat="48.11198" lon="-3.55759">
        <ele>199</ele>
        <time>2025-02-25T13:03:57Z</time>
      </trkpt>
      <trkpt lat="48.11199" lon="-3.55759">
        <ele>199.1</ele>
        <time>2025-02-25T13:03:58Z</time>
      </trkpt>
      <trkpt lat="48.112" lon="-3.55758">
        <ele>199.1</ele>
        <time>2025-02-25T13:03:59Z</time>
      </trkpt>
      <trkpt lat="48.11201" lon="-3.55758">
        <ele>199.1</ele>
        <time>2025-02-25T13:04:00Z</time>
      </trkpt>
      <trkpt lat="48.11202" lon="-3.55758">
        <ele>199.1</ele>
        <time>2025-02-25T13:04:01Z</time>
      </trkpt>
      <trkpt lat="48.11203" lon="-3.55757">
        <ele>199.1</ele>
        <time>2025-02-25T13:04:02Z</time>
      </trkpt>
      <trkpt lat="48.11205" lon="-3.55757">
        <ele>199.1</ele>
        <time>2025-02-25T13:04:03Z</time>
      </trkpt>
      <trkpt lat="48.11206" lon="-3.55756">
        <ele>199.1</ele>
        <time>2025-02-25T13:04:04Z</time>
      </trkpt>
      <trkpt lat="48.11207" lon="-3.55756">
        <ele>199.1</ele>
        <time>2025-02-25T13:04:05Z</time>
      </trkpt>
      <trkpt lat="48.11208" lon="-3.55756">
        <ele>199.1</ele>
        <time>2025-02-25T13:04:06Z</time>
      </trkpt>
      <trkpt lat="48.11209" lon="-3.55755">
        <ele>199.1</ele>
        <time>2025-02-25T13:04:07Z</time>
      </trkpt>
      <trkpt lat="48.11211" lon="-3.55755">
        <ele>199.1</ele>
        <time>2025-02-25T13:04:08Z</time>
      </trkpt>
      <trkpt lat="48.11212" lon="-3.55755">
        <ele>199.1</ele>
        <time>2025-02-25T13:04:09Z</time>
      </trkpt>
      <trkpt lat="48.11213" lon="-3.55756">
        <ele>199.1</ele>
        <time>2025-02-25T13:04:10Z</time>
      </trkpt>
      <trkpt lat="48.11214" lon="-3.55757">
        <ele>199.2</ele>
        <time>2025-02-25T13:04:11Z</time>
      </trkpt>
      <trkpt lat="48.11215" lon="-3.55756">
        <ele>199.2</ele>
        <time>2025-02-25T13:04:12Z</time>
      </trkpt>
      <trkpt lat="48.11216" lon="-3.55755">
        <ele>199.1</ele>
        <time>2025-02-25T13:04:13Z</time>
      </trkpt>
      <trkpt lat="48.11217" lon="-3.55754">
        <ele>199.1</ele>
        <time>2025-02-25T13:04:14Z</time>
      </trkpt>
      <trkpt lat="48.11219" lon="-3.55754">
        <ele>199.1</ele>
        <time>2025-02-25T13:04:15Z</time>
      </trkpt>
      <trkpt lat="48.1122" lon="-3.55753">
        <ele>199.1</ele>
        <time>2025-02-25T13:04:16Z</time>
      </trkpt>
      <trkpt lat="48.11221" lon="-3.55753">
        <ele>199.1</ele>
        <time>2025-02-25T13:04:17Z</time>
      </trkpt>
      <trkpt lat="48.11222" lon="-3.55752">
        <ele>199.1</ele>
        <time>2025-02-25T13:04:18Z</time>
      </trkpt>
      <trkpt lat="48.11223" lon="-3.55752">
        <ele>199.1</ele>
        <time>2025-02-25T13:04:19Z</time>
      </trkpt>
      <trkpt lat="48.11224" lon="-3.55752">
        <ele>199.1</ele>
        <time>2025-02-25T13:04:20Z</time>
      </trkpt>
      <trkpt lat="48.11225" lon="-3.55751">
        <ele>199</ele>
        <time>2025-02-25T13:04:21Z</time>
      </trkpt>
      <trkpt lat="48.11226" lon="-3.55751">
        <ele>199</ele>
        <time>2025-02-25T13:04:22Z</time>
      </trkpt>
      <trkpt lat="48.11227" lon="-3.5575">
        <ele>199</ele>
        <time>2025-02-25T13:04:23Z</time>
      </trkpt>
      <trkpt lat="48.11228" lon="-3.5575">
        <ele>199</ele>
        <time>2025-02-25T13:04:24Z</time>
      </trkpt>
      <trkpt lat="48.11229" lon="-3.5575">
        <ele>199</ele>
        <time>2025-02-25T13:04:25Z</time>
      </trkpt>
      <trkpt lat="48.1123" lon="-3.5575">
        <ele>199</ele>
        <time>2025-02-25T13:04:26Z</time>
      </trkpt>
      <trkpt lat="48.11231" lon="-3.5575">
        <ele>199</ele>
        <time>2025-02-25T13:04:27Z</time>
      </trkpt>
      <trkpt lat="48.11232" lon="-3.55749">
        <ele>199</ele>
        <time>2025-02-25T13:04:28Z</time>
      </trkpt>
      <trkpt lat="48.11233" lon="-3.55749">
        <ele>199</ele>
        <time>2025-02-25T13:04:29Z</time>
      </trkpt>
      <trkpt lat="48.11235" lon="-3.5575">
        <ele>199</ele>
        <time>2025-02-25T13:04:30Z</time>
      </trkpt>
      <trkpt lat="48.11236" lon="-3.5575">
        <ele>199</ele>
        <time>2025-02-25T13:04:31Z</time>
      </trkpt>
      <trkpt lat="48.11237" lon="-3.5575">
        <ele>199</ele>
        <time>2025-02-25T13:04:32Z</time>
      </trkpt>
      <trkpt lat="48.11239" lon="-3.5575">
        <ele>199</ele>
        <time>2025-02-25T13:04:33Z</time>
      </trkpt>
      <trkpt lat="48.1124" lon="-3.55749">
        <ele>199</ele>
        <time>2025-02-25T13:04:34Z</time>
      </trkpt>
      <trkpt lat="48.11241" lon="-3.55749">
        <ele>199</ele>
        <time>2025-02-25T13:04:35Z</time>
      </trkpt>
      <trkpt lat="48.11242" lon="-3.55748">
        <ele>199.1</ele>
        <time>2025-02-25T13:04:36Z</time>
      </trkpt>
      <trkpt lat="48.11243" lon="-3.55747">
        <ele>199.1</ele>
        <time>2025-02-25T13:04:37Z</time>
      </trkpt>
      <trkpt lat="48.11244" lon="-3.55747">
        <ele>199.1</ele>
        <time>2025-02-25T13:04:38Z</time>
      </trkpt>
      <trkpt lat="48.11245" lon="-3.55746">
        <ele>199.1</ele>
        <time>2025-02-25T13:04:39Z</time>
      </trkpt>
      <trkpt lat="48.11246" lon="-3.55746">
        <ele>199.1</ele>
        <time>2025-02-25T13:04:40Z</time>
      </trkpt>
      <trkpt lat="48.11247" lon="-3.55745">
        <ele>199.2</ele>
        <time>2025-02-25T13:04:41Z</time>
      </trkpt>
      <trkpt lat="48.11248" lon="-3.55745">
        <ele>199.2</ele>
        <time>2025-02-25T13:04:42Z</time>
      </trkpt>
      <trkpt lat="48.11249" lon="-3.55745">
        <ele>199.2</ele>
        <time>2025-02-25T13:04:43Z</time>
      </trkpt>
      <trkpt lat="48.1125" lon="-3.55745">
        <ele>199.2</ele>
        <time>2025-02-25T13:04:44Z</time>
      </trkpt>
      <trkpt lat="48.11251" lon="-3.55745">
        <ele>199.2</ele>
        <time>2025-02-25T13:04:45Z</time>
      </trkpt>
      <trkpt lat="48.11253" lon="-3.55745">
        <ele>199.2</ele>
        <time>2025-02-25T13:04:46Z</time>
      </trkpt>
      <trkpt lat="48.11254" lon="-3.55745">
        <ele>199.2</ele>
        <time>2025-02-25T13:04:47Z</time>
      </trkpt>
      <trkpt lat="48.11255" lon="-3.55745">
        <ele>199.1</ele>
        <time>2025-02-25T13:04:48Z</time>
      </trkpt>
      <trkpt lat="48.11256" lon="-3.55744">
        <ele>199.2</ele>
        <time>2025-02-25T13:04:49Z</time>
      </trkpt>
      <trkpt lat="48.11257" lon="-3.55744">
        <ele>199.2</ele>
        <time>2025-02-25T13:04:50Z</time>
      </trkpt>
      <trkpt lat="48.11258" lon="-3.55744">
        <ele>199.2</ele>
        <time>2025-02-25T13:04:51Z</time>
      </trkpt>
      <trkpt lat="48.11259" lon="-3.55743">
        <ele>199.2</ele>
        <time>2025-02-25T13:04:52Z</time>
      </trkpt>
      <trkpt lat="48.1126" lon="-3.55743">
        <ele>199.2</ele>
        <time>2025-02-25T13:04:53Z</time>
      </trkpt>
      <trkpt lat="48.11262" lon="-3.55743">
        <ele>199.1</ele>
        <time>2025-02-25T13:04:54Z</time>
      </trkpt>
      <trkpt lat="48.11263" lon="-3.55743">
        <ele>199.1</ele>
        <time>2025-02-25T13:04:55Z</time>
      </trkpt>
      <trkpt lat="48.11264" lon="-3.55743">
        <ele>199.1</ele>
        <time>2025-02-25T13:04:56Z</time>
      </trkpt>
      <trkpt lat="48.11265" lon="-3.55742">
        <ele>199.1</ele>
        <time>2025-02-25T13:04:57Z</time>
      </trkpt>
      <trkpt lat="48.11266" lon="-3.55742">
        <ele>199.1</ele>
        <time>2025-02-25T13:04:58Z</time>
      </trkpt>
      <trkpt lat="48.11268" lon="-3.55741">
        <ele>199.1</ele>
        <time>2025-02-25T13:04:59Z</time>
      </trkpt>
      <trkpt lat="48.11269" lon="-3.55741">
        <ele>199.1</ele>
        <time>2025-02-25T13:05:00Z</time>
      </trkpt>
      <trkpt lat="48.1127" lon="-3.55741">
        <ele>199.1</ele>
        <time>2025-02-25T13:05:01Z</time>
      </trkpt>
      <trkpt lat="48.11271" lon="-3.5574">
        <ele>199.1</ele>
        <time>2025-02-25T13:05:02Z</time>
      </trkpt>
      <trkpt lat="48.11272" lon="-3.5574">
        <ele>199.1</ele>
        <time>2025-02-25T13:05:03Z</time>
      </trkpt>
      <trkpt lat="48.11273" lon="-3.5574">
        <ele>199.1</ele>
        <time>2025-02-25T13:05:04Z</time>
      </trkpt>
      <trkpt lat="48.11274" lon="-3.55739">
        <ele>199.1</ele>
        <time>2025-02-25T13:05:05Z</time>
      </trkpt>
      <trkpt lat="48.11275" lon="-3.55739">
        <ele>199</ele>
        <time>2025-02-25T13:05:06Z</time>
      </trkpt>
      <trkpt lat="48.11276" lon="-3.55739">
        <ele>199</ele>
        <time>2025-02-25T13:05:07Z</time>
      </trkpt>
      <trkpt lat="48.11278" lon="-3.5574">
        <ele>199</ele>
        <time>2025-02-25T13:05:08Z</time>
      </trkpt>
      <trkpt lat="48.11279" lon="-3.55739">
        <ele>199</ele>
        <time>2025-02-25T13:05:09Z</time>
      </trkpt>
      <trkpt lat="48.1128" lon="-3.55739">
        <ele>198.9</ele>
        <time>2025-02-25T13:05:10Z</time>
      </trkpt>
      <trkpt lat="48.11281" lon="-3.55738">
        <ele>198.9</ele>
        <time>2025-02-25T13:05:11Z</time>
      </trkpt>
      <trkpt lat="48.11283" lon="-3.55737">
        <ele>198.8</ele>
        <time>2025-02-25T13:05:12Z</time>
      </trkpt>
      <trkpt lat="48.11284" lon="-3.55736">
        <ele>198.8</ele>
        <time>2025-02-25T13:05:13Z</time>
      </trkpt>
      <trkpt lat="48.11285" lon="-3.55736">
        <ele>198.7</ele>
        <time>2025-02-25T13:05:14Z</time>
      </trkpt>
      <trkpt lat="48.11286" lon="-3.55735">
        <ele>198.7</ele>
        <time>2025-02-25T13:05:15Z</time>
      </trkpt>
      <trkpt lat="48.11287" lon="-3.55735">
        <ele>198.7</ele>
        <time>2025-02-25T13:05:16Z</time>
      </trkpt>
      <trkpt lat="48.11288" lon="-3.55734">
        <ele>198.6</ele>
        <time>2025-02-25T13:05:17Z</time>
      </trkpt>
      <trkpt lat="48.1129" lon="-3.55733">
        <ele>198.6</ele>
        <time>2025-02-25T13:05:18Z</time>
      </trkpt>
      <trkpt lat="48.11291" lon="-3.55733">
        <ele>198.5</ele>
        <time>2025-02-25T13:05:19Z</time>
      </trkpt>
      <trkpt lat="48.11292" lon="-3.55733">
        <ele>198.5</ele>
        <time>2025-02-25T13:05:20Z</time>
      </trkpt>
      <trkpt lat="48.11293" lon="-3.55732">
        <ele>198.5</ele>
        <time>2025-02-25T13:05:21Z</time>
      </trkpt>
      <trkpt lat="48.11295" lon="-3.55731">
        <ele>198.4</ele>
        <time>2025-02-25T13:05:22Z</time>
      </trkpt>
      <trkpt lat="48.11296" lon="-3.55731">
        <ele>198.3</ele>
        <time>2025-02-25T13:05:23Z</time>
      </trkpt>
      <trkpt lat="48.11297" lon="-3.55731">
        <ele>198.3</ele>
        <time>2025-02-25T13:05:24Z</time>
      </trkpt>
      <trkpt lat="48.11299" lon="-3.55731">
        <ele>198.2</ele>
        <time>2025-02-25T13:05:25Z</time>
      </trkpt>
      <trkpt lat="48.113" lon="-3.55731">
        <ele>198.2</ele>
        <time>2025-02-25T13:05:26Z</time>
      </trkpt>
      <trkpt lat="48.11301" lon="-3.55731">
        <ele>198.2</ele>
        <time>2025-02-25T13:05:27Z</time>
      </trkpt>
      <trkpt lat="48.11303" lon="-3.5573">
        <ele>198.1</ele>
        <time>2025-02-25T13:05:28Z</time>
      </trkpt>
      <trkpt lat="48.11304" lon="-3.55729">
        <ele>198.1</ele>
        <time>2025-02-25T13:05:29Z</time>
      </trkpt>
      <trkpt lat="48.11305" lon="-3.5573">
        <ele>198</ele>
        <time>2025-02-25T13:05:30Z</time>
      </trkpt>
      <trkpt lat="48.11307" lon="-3.55729">
        <ele>197.9</ele>
        <time>2025-02-25T13:05:31Z</time>
      </trkpt>
      <trkpt lat="48.11308" lon="-3.55728">
        <ele>197.9</ele>
        <time>2025-02-25T13:05:32Z</time>
      </trkpt>
      <trkpt lat="48.11309" lon="-3.55728">
        <ele>197.9</ele>
        <time>2025-02-25T13:05:33Z</time>
      </trkpt>
      <trkpt lat="48.11311" lon="-3.55728">
        <ele>197.8</ele>
        <time>2025-02-25T13:05:34Z</time>
      </trkpt>
      <trkpt lat="48.11312" lon="-3.55728">
        <ele>197.8</ele>
        <time>2025-02-25T13:05:35Z</time>
      </trkpt>
      <trkpt lat="48.11313" lon="-3.55727">
        <ele>197.7</ele>
        <time>2025-02-25T13:05:36Z</time>
      </trkpt>
      <trkpt lat="48.11315" lon="-3.55727">
        <ele>197.7</ele>
        <time>2025-02-25T13:05:37Z</time>
      </trkpt>
      <trkpt lat="48.11316" lon="-3.55727">
        <ele>197.6</ele>
        <time>2025-02-25T13:05:38Z</time>
      </trkpt>
      <trkpt lat="48.11317" lon="-3.55726">
        <ele>197.6</ele>
        <time>2025-02-25T13:05:39Z</time>
      </trkpt>
      <trkpt lat="48.11319" lon="-3.55725">
        <ele>197.5</ele>
        <time>2025-02-25T13:05:40Z</time>
      </trkpt>
      <trkpt lat="48.1132" lon="-3.55725">
        <ele>197.5</ele>
        <time>2025-02-25T13:05:41Z</time>
      </trkpt>
      <trkpt lat="48.11321" lon="-3.55725">
        <ele>197.4</ele>
        <time>2025-02-25T13:05:42Z</time>
      </trkpt>
      <trkpt lat="48.11322" lon="-3.55725">
        <ele>197.4</ele>
        <time>2025-02-25T13:05:43Z</time>
      </trkpt>
      <trkpt lat="48.11323" lon="-3.55725">
        <ele>197.4</ele>
        <time>2025-02-25T13:05:44Z</time>
      </trkpt>
      <trkpt lat="48.11324" lon="-3.55724">
        <ele>197.3</ele>
        <time>2025-02-25T13:05:45Z</time>
      </trkpt>
      <trkpt lat="48.11326" lon="-3.55724">
        <ele>197.3</ele>
        <time>2025-02-25T13:05:46Z</time>
      </trkpt>
      <trkpt lat="48.11327" lon="-3.55723">
        <ele>197.2</ele>
        <time>2025-02-25T13:05:47Z</time>
      </trkpt>
      <trkpt lat="48.11328" lon="-3.55722">
        <ele>197.2</ele>
        <time>2025-02-25T13:05:48Z</time>
      </trkpt>
      <trkpt lat="48.11329" lon="-3.55722">
        <ele>197.2</ele>
        <time>2025-02-25T13:05:49Z</time>
      </trkpt>
      <trkpt lat="48.11331" lon="-3.55723">
        <ele>197.1</ele>
        <time>2025-02-25T13:05:50Z</time>
      </trkpt>
      <trkpt lat="48.11332" lon="-3.55722">
        <ele>197.1</ele>
        <time>2025-02-25T13:05:51Z</time>
      </trkpt>
      <trkpt lat="48.11333" lon="-3.55721">
        <ele>197.1</ele>
        <time>2025-02-25T13:05:52Z</time>
      </trkpt>
      <trkpt lat="48.11334" lon="-3.55721">
        <ele>197</ele>
        <time>2025-02-25T13:05:53Z</time>
      </trkpt>
      <trkpt lat="48.11335" lon="-3.5572">
        <ele>197</ele>
        <time>2025-02-25T13:05:54Z</time>
      </trkpt>
      <trkpt lat="48.11336" lon="-3.5572">
        <ele>197</ele>
        <time>2025-02-25T13:05:55Z</time>
      </trkpt>
      <trkpt lat="48.11337" lon="-3.5572">
        <ele>196.9</ele>
        <time>2025-02-25T13:05:56Z</time>
      </trkpt>
      <trkpt lat="48.11338" lon="-3.55719">
        <ele>196.9</ele>
        <time>2025-02-25T13:05:57Z</time>
      </trkpt>
      <trkpt lat="48.1134" lon="-3.55718">
        <ele>196.9</ele>
        <time>2025-02-25T13:05:58Z</time>
      </trkpt>
      <trkpt lat="48.11341" lon="-3.55718">
        <ele>196.9</ele>
        <time>2025-02-25T13:05:59Z</time>
      </trkpt>
      <trkpt lat="48.11342" lon="-3.55718">
        <ele>196.8</ele>
        <time>2025-02-25T13:06:00Z</time>
      </trkpt>
      <trkpt lat="48.11343" lon="-3.55719">
        <ele>196.8</ele>
        <time>2025-02-25T13:06:01Z</time>
      </trkpt>
      <trkpt lat="48.11345" lon="-3.55719">
        <ele>196.7</ele>
        <time>2025-02-25T13:06:02Z</time>
      </trkpt>
      <trkpt lat="48.11346" lon="-3.55719">
        <ele>196.7</ele>
        <time>2025-02-25T13:06:03Z</time>
      </trkpt>
      <trkpt lat="48.11347" lon="-3.55718">
        <ele>196.7</ele>
        <time>2025-02-25T13:06:04Z</time>
      </trkpt>
      <trkpt lat="48.11348" lon="-3.55718">
        <ele>196.6</ele>
        <time>2025-02-25T13:06:05Z</time>
      </trkpt>
      <trkpt lat="48.11349" lon="-3.55718">
        <ele>196.6</ele>
        <time>2025-02-25T13:06:06Z</time>
      </trkpt>
      <trkpt lat="48.11351" lon="-3.55717">
        <ele>196.6</ele>
        <time>2025-02-25T13:06:07Z</time>
      </trkpt>
      <trkpt lat="48.11352" lon="-3.55717">
        <ele>196.5</ele>
        <time>2025-02-25T13:06:08Z</time>
      </trkpt>
      <trkpt lat="48.11353" lon="-3.55716">
        <ele>196.5</ele>
        <time>2025-02-25T13:06:09Z</time>
      </trkpt>
      <trkpt lat="48.11354" lon="-3.55715">
        <ele>196.5</ele>
        <time>2025-02-25T13:06:10Z</time>
      </trkpt>
      <trkpt lat="48.11356" lon="-3.55715">
        <ele>196.4</ele>
        <time>2025-02-25T13:06:11Z</time>
      </trkpt>
      <trkpt lat="48.11357" lon="-3.55714">
        <ele>196.4</ele>
        <time>2025-02-25T13:06:12Z</time>
      </trkpt>
      <trkpt lat="48.11358" lon="-3.55714">
        <ele>196.4</ele>
        <time>2025-02-25T13:06:13Z</time>
      </trkpt>
      <trkpt lat="48.11359" lon="-3.55714">
        <ele>196.4</ele>
        <time>2025-02-25T13:06:14Z</time>
      </trkpt>
      <trkpt lat="48.1136" lon="-3.55713">
        <ele>196.4</ele>
        <time>2025-02-25T13:06:15Z</time>
      </trkpt>
      <trkpt lat="48.11361" lon="-3.55713">
        <ele>196.3</ele>
        <time>2025-02-25T13:06:16Z</time>
      </trkpt>
      <trkpt lat="48.11362" lon="-3.55713">
        <ele>196.3</ele>
        <time>2025-02-25T13:06:17Z</time>
      </trkpt>
      <trkpt lat="48.11364" lon="-3.55712">
        <ele>196.3</ele>
        <time>2025-02-25T13:06:18Z</time>
      </trkpt>
      <trkpt lat="48.11365" lon="-3.55712">
        <ele>196.2</ele>
        <time>2025-02-25T13:06:19Z</time>
      </trkpt>
      <trkpt lat="48.11366" lon="-3.55711">
        <ele>196.2</ele>
        <time>2025-02-25T13:06:20Z</time>
      </trkpt>
      <trkpt lat="48.11367" lon="-3.55711">
        <ele>196.2</ele>
        <time>2025-02-25T13:06:21Z</time>
      </trkpt>
      <trkpt lat="48.11369" lon="-3.5571">
        <ele>196.2</ele>
        <time>2025-02-25T13:06:22Z</time>
      </trkpt>
      <trkpt lat="48.1137" lon="-3.5571">
        <ele>196.1</ele>
        <time>2025-02-25T13:06:23Z</time>
      </trkpt>
      <trkpt lat="48.11371" lon="-3.5571">
        <ele>196.1</ele>
        <time>2025-02-25T13:06:24Z</time>
      </trkpt>
      <trkpt lat="48.11372" lon="-3.5571">
        <ele>196</ele>
        <time>2025-02-25T13:06:25Z</time>
      </trkpt>
      <trkpt lat="48.11373" lon="-3.5571">
        <ele>196</ele>
        <time>2025-02-25T13:06:26Z</time>
      </trkpt>
      <trkpt lat="48.11374" lon="-3.5571">
        <ele>196</ele>
        <time>2025-02-25T13:06:27Z</time>
      </trkpt>
      <trkpt lat="48.11375" lon="-3.55709">
        <ele>196</ele>
        <time>2025-02-25T13:06:28Z</time>
      </trkpt>
      <trkpt lat="48.11377" lon="-3.55709">
        <ele>195.9</ele>
        <time>2025-02-25T13:06:29Z</time>
      </trkpt>
      <trkpt lat="48.11378" lon="-3.55708">
        <ele>195.9</ele>
        <time>2025-02-25T13:06:30Z</time>
      </trkpt>
      <trkpt lat="48.11379" lon="-3.55708">
        <ele>195.9</ele>
        <time>2025-02-25T13:06:31Z</time>
      </trkpt>
      <trkpt lat="48.1138" lon="-3.55708">
        <ele>195.8</ele>
        <time>2025-02-25T13:06:32Z</time>
      </trkpt>
      <trkpt lat="48.11381" lon="-3.55708">
        <ele>195.8</ele>
        <time>2025-02-25T13:06:33Z</time>
      </trkpt>
      <trkpt lat="48.11382" lon="-3.55707">
        <ele>195.8</ele>
        <time>2025-02-25T13:06:34Z</time>
      </trkpt>
      <trkpt lat="48.11383" lon="-3.55707">
        <ele>195.8</ele>
        <time>2025-02-25T13:06:35Z</time>
      </trkpt>
      <trkpt lat="48.11385" lon="-3.55707">
        <ele>195.7</ele>
        <time>2025-02-25T13:06:36Z</time>
      </trkpt>
      <trkpt lat="48.11386" lon="-3.55707">
        <ele>195.7</ele>
        <time>2025-02-25T13:06:37Z</time>
      </trkpt>
      <trkpt lat="48.11387" lon="-3.55706">
        <ele>195.7</ele>
        <time>2025-02-25T13:06:38Z</time>
      </trkpt>
      <trkpt lat="48.11388" lon="-3.55705">
        <ele>195.7</ele>
        <time>2025-02-25T13:06:39Z</time>
      </trkpt>
      <trkpt lat="48.1139" lon="-3.55705">
        <ele>195.6</ele>
        <time>2025-02-25T13:06:40Z</time>
      </trkpt>
      <trkpt lat="48.11391" lon="-3.55705">
        <ele>195.6</ele>
        <time>2025-02-25T13:06:41Z</time>
      </trkpt>
      <trkpt lat="48.11392" lon="-3.55705">
        <ele>195.6</ele>
        <time>2025-02-25T13:06:42Z</time>
      </trkpt>
      <trkpt lat="48.11393" lon="-3.55705">
        <ele>195.6</ele>
        <time>2025-02-25T13:06:43Z</time>
      </trkpt>
      <trkpt lat="48.11394" lon="-3.55705">
        <ele>195.6</ele>
        <time>2025-02-25T13:06:44Z</time>
      </trkpt>
      <trkpt lat="48.11395" lon="-3.55705">
        <ele>195.6</ele>
        <time>2025-02-25T13:06:45Z</time>
      </trkpt>
      <trkpt lat="48.11397" lon="-3.55705">
        <ele>195.6</ele>
        <time>2025-02-25T13:06:46Z</time>
      </trkpt>
      <trkpt lat="48.11398" lon="-3.55704">
        <ele>195.7</ele>
        <time>2025-02-25T13:06:47Z</time>
      </trkpt>
      <trkpt lat="48.11399" lon="-3.55704">
        <ele>195.7</ele>
        <time>2025-02-25T13:06:48Z</time>
      </trkpt>
      <trkpt lat="48.114" lon="-3.55704">
        <ele>195.7</ele>
        <time>2025-02-25T13:06:49Z</time>
      </trkpt>
      <trkpt lat="48.11401" lon="-3.55703">
        <ele>195.7</ele>
        <time>2025-02-25T13:06:50Z</time>
      </trkpt>
      <trkpt lat="48.11402" lon="-3.55703">
        <ele>195.7</ele>
        <time>2025-02-25T13:06:51Z</time>
      </trkpt>
      <trkpt lat="48.11403" lon="-3.55703">
        <ele>195.7</ele>
        <time>2025-02-25T13:06:52Z</time>
      </trkpt>
      <trkpt lat="48.11404" lon="-3.55702">
        <ele>195.7</ele>
        <time>2025-02-25T13:06:53Z</time>
      </trkpt>
      <trkpt lat="48.11406" lon="-3.55702">
        <ele>195.7</ele>
        <time>2025-02-25T13:06:54Z</time>
      </trkpt>
      <trkpt lat="48.11407" lon="-3.55701">
        <ele>195.8</ele>
        <time>2025-02-25T13:06:55Z</time>
      </trkpt>
      <trkpt lat="48.11408" lon="-3.55701">
        <ele>195.8</ele>
        <time>2025-02-25T13:06:56Z</time>
      </trkpt>
      <trkpt lat="48.11409" lon="-3.557">
        <ele>195.8</ele>
        <time>2025-02-25T13:06:57Z</time>
      </trkpt>
      <trkpt lat="48.1141" lon="-3.55701">
        <ele>195.8</ele>
        <time>2025-02-25T13:06:58Z</time>
      </trkpt>
      <trkpt lat="48.11411" lon="-3.557">
        <ele>195.8</ele>
        <time>2025-02-25T13:06:59Z</time>
      </trkpt>
      <trkpt lat="48.11413" lon="-3.557">
        <ele>195.8</ele>
        <time>2025-02-25T13:07:00Z</time>
      </trkpt>
      <trkpt lat="48.11414" lon="-3.557">
        <ele>195.8</ele>
        <time>2025-02-25T13:07:01Z</time>
      </trkpt>
      <trkpt lat="48.11415" lon="-3.557">
        <ele>195.8</ele>
        <time>2025-02-25T13:07:02Z</time>
      </trkpt>
      <trkpt lat="48.11416" lon="-3.55699">
        <ele>195.8</ele>
        <time>2025-02-25T13:07:03Z</time>
      </trkpt>
      <trkpt lat="48.11418" lon="-3.55699">
        <ele>195.8</ele>
        <time>2025-02-25T13:07:04Z</time>
      </trkpt>
      <trkpt lat="48.11419" lon="-3.55698">
        <ele>195.9</ele>
        <time>2025-02-25T13:07:05Z</time>
      </trkpt>
      <trkpt lat="48.1142" lon="-3.55698">
        <ele>195.9</ele>
        <time>2025-02-25T13:07:06Z</time>
      </trkpt>
      <trkpt lat="48.11421" lon="-3.55698">
        <ele>195.9</ele>
        <time>2025-02-25T13:07:07Z</time>
      </trkpt>
      <trkpt lat="48.11422" lon="-3.55697">
        <ele>195.9</ele>
        <time>2025-02-25T13:07:08Z</time>
      </trkpt>
      <trkpt lat="48.11423" lon="-3.55697">
        <ele>195.9</ele>
        <time>2025-02-25T13:07:09Z</time>
      </trkpt>
      <trkpt lat="48.11424" lon="-3.55696">
        <ele>195.9</ele>
        <time>2025-02-25T13:07:10Z</time>
      </trkpt>
      <trkpt lat="48.11425" lon="-3.55696">
        <ele>195.9</ele>
        <time>2025-02-25T13:07:11Z</time>
      </trkpt>
      <trkpt lat="48.11427" lon="-3.55696">
        <ele>195.9</ele>
        <time>2025-02-25T13:07:12Z</time>
      </trkpt>
      <trkpt lat="48.11428" lon="-3.55696">
        <ele>195.9</ele>
        <time>2025-02-25T13:07:13Z</time>
      </trkpt>
      <trkpt lat="48.11429" lon="-3.55695">
        <ele>196</ele>
        <time>2025-02-25T13:07:14Z</time>
      </trkpt>
      <trkpt lat="48.11431" lon="-3.55695">
        <ele>196</ele>
        <time>2025-02-25T13:07:15Z</time>
      </trkpt>
      <trkpt lat="48.11432" lon="-3.55695">
        <ele>196</ele>
        <time>2025-02-25T13:07:16Z</time>
      </trkpt>
      <trkpt lat="48.11433" lon="-3.55694">
        <ele>196</ele>
        <time>2025-02-25T13:07:17Z</time>
      </trkpt>
      <trkpt lat="48.11434" lon="-3.55694">
        <ele>196</ele>
        <time>2025-02-25T13:07:18Z</time>
      </trkpt>
      <trkpt lat="48.11435" lon="-3.55694">
        <ele>196</ele>
        <time>2025-02-25T13:07:19Z</time>
      </trkpt>
      <trkpt lat="48.11436" lon="-3.55694">
        <ele>196</ele>
        <time>2025-02-25T13:07:20Z</time>
      </trkpt>
      <trkpt lat="48.11437" lon="-3.55693">
        <ele>196.1</ele>
        <time>2025-02-25T13:07:21Z</time>
      </trkpt>
      <trkpt lat="48.11439" lon="-3.55693">
        <ele>196.1</ele>
        <time>2025-02-25T13:07:22Z</time>
      </trkpt>
      <trkpt lat="48.1144" lon="-3.55693">
        <ele>196.1</ele>
        <time>2025-02-25T13:07:23Z</time>
      </trkpt>
      <trkpt lat="48.11441" lon="-3.55692">
        <ele>196.2</ele>
        <time>2025-02-25T13:07:24Z</time>
      </trkpt>
      <trkpt lat="48.11442" lon="-3.55692">
        <ele>196.2</ele>
        <time>2025-02-25T13:07:25Z</time>
      </trkpt>
      <trkpt lat="48.11443" lon="-3.55692">
        <ele>196.2</ele>
        <time>2025-02-25T13:07:26Z</time>
      </trkpt>
      <trkpt lat="48.11445" lon="-3.55691">
        <ele>196.3</ele>
        <time>2025-02-25T13:07:27Z</time>
      </trkpt>
      <trkpt lat="48.11446" lon="-3.55691">
        <ele>196.3</ele>
        <time>2025-02-25T13:07:28Z</time>
      </trkpt>
      <trkpt lat="48.11447" lon="-3.55691">
        <ele>196.3</ele>
        <time>2025-02-25T13:07:29Z</time>
      </trkpt>
      <trkpt lat="48.11448" lon="-3.55691">
        <ele>196.4</ele>
        <time>2025-02-25T13:07:30Z</time>
      </trkpt>
      <trkpt lat="48.11449" lon="-3.55691">
        <ele>196.4</ele>
        <time>2025-02-25T13:07:31Z</time>
      </trkpt>
      <trkpt lat="48.1145" lon="-3.55691">
        <ele>196.4</ele>
        <time>2025-02-25T13:07:32Z</time>
      </trkpt>
      <trkpt lat="48.11452" lon="-3.55691">
        <ele>196.5</ele>
        <time>2025-02-25T13:07:33Z</time>
      </trkpt>
      <trkpt lat="48.11453" lon="-3.5569">
        <ele>196.6</ele>
        <time>2025-02-25T13:07:34Z</time>
      </trkpt>
      <trkpt lat="48.11454" lon="-3.5569">
        <ele>196.6</ele>
        <time>2025-02-25T13:07:35Z</time>
      </trkpt>
      <trkpt lat="48.11455" lon="-3.5569">
        <ele>196.6</ele>
        <time>2025-02-25T13:07:36Z</time>
      </trkpt>
      <trkpt lat="48.11456" lon="-3.5569">
        <ele>196.7</ele>
        <time>2025-02-25T13:07:37Z</time>
      </trkpt>
      <trkpt lat="48.11457" lon="-3.5569">
        <ele>196.7</ele>
        <time>2025-02-25T13:07:38Z</time>
      </trkpt>
      <trkpt lat="48.11458" lon="-3.5569">
        <ele>196.7</ele>
        <time>2025-02-25T13:07:39Z</time>
      </trkpt>
      <trkpt lat="48.11459" lon="-3.55689">
        <ele>196.8</ele>
        <time>2025-02-25T13:07:40Z</time>
      </trkpt>
      <trkpt lat="48.11461" lon="-3.55688">
        <ele>196.9</ele>
        <time>2025-02-25T13:07:41Z</time>
      </trkpt>
      <trkpt lat="48.11462" lon="-3.55688">
        <ele>196.9</ele>
        <time>2025-02-25T13:07:42Z</time>
      </trkpt>
      <trkpt lat="48.11463" lon="-3.55687">
        <ele>197</ele>
        <time>2025-02-25T13:07:43Z</time>
      </trkpt>
      <trkpt lat="48.11464" lon="-3.55687">
        <ele>197.1</ele>
        <time>2025-02-25T13:07:44Z</time>
      </trkpt>
      <trkpt lat="48.11465" lon="-3.55687">
        <ele>197.1</ele>
        <time>2025-02-25T13:07:45Z</time>
      </trkpt>
      <trkpt lat="48.11466" lon="-3.55687">
        <ele>197.1</ele>
        <time>2025-02-25T13:07:46Z</time>
      </trkpt>
      <trkpt lat="48.11467" lon="-3.55687">
        <ele>197.1</ele>
        <time>2025-02-25T13:07:47Z</time>
      </trkpt>
      <trkpt lat="48.11468" lon="-3.55686">
        <ele>197.2</ele>
        <time>2025-02-25T13:07:48Z</time>
      </trkpt>
      <trkpt lat="48.11469" lon="-3.55685">
        <ele>197.3</ele>
        <time>2025-02-25T13:07:49Z</time>
      </trkpt>
      <trkpt lat="48.1147" lon="-3.55684">
        <ele>197.3</ele>
        <time>2025-02-25T13:07:50Z</time>
      </trkpt>
      <trkpt lat="48.11471" lon="-3.55683">
        <ele>197.4</ele>
        <time>2025-02-25T13:07:51Z</time>
      </trkpt>
      <trkpt lat="48.11473" lon="-3.55682">
        <ele>197.4</ele>
        <time>2025-02-25T13:07:52Z</time>
      </trkpt>
      <trkpt lat="48.11473" lon="-3.55682">
        <ele>197.4</ele>
        <time>2025-02-25T13:07:53Z</time>
      </trkpt>
      <trkpt lat="48.11474" lon="-3.55681">
        <ele>197.5</ele>
        <time>2025-02-25T13:07:54Z</time>
      </trkpt>
      <trkpt lat="48.11476" lon="-3.5568">
        <ele>197.5</ele>
        <time>2025-02-25T13:07:55Z</time>
      </trkpt>
      <trkpt lat="48.11477" lon="-3.55679">
        <ele>197.5</ele>
        <time>2025-02-25T13:07:56Z</time>
      </trkpt>
      <trkpt lat="48.11477" lon="-3.55678">
        <ele>197.5</ele>
        <time>2025-02-25T13:07:57Z</time>
      </trkpt>
      <trkpt lat="48.11479" lon="-3.55677">
        <ele>197.5</ele>
        <time>2025-02-25T13:07:58Z</time>
      </trkpt>
      <trkpt lat="48.1148" lon="-3.55677">
        <ele>197.5</ele>
        <time>2025-02-25T13:07:59Z</time>
      </trkpt>
      <trkpt lat="48.11481" lon="-3.55676">
        <ele>197.6</ele>
        <time>2025-02-25T13:08:00Z</time>
      </trkpt>
      <trkpt lat="48.11482" lon="-3.55675">
        <ele>197.6</ele>
        <time>2025-02-25T13:08:01Z</time>
      </trkpt>
      <trkpt lat="48.11483" lon="-3.55675">
        <ele>197.6</ele>
        <time>2025-02-25T13:08:02Z</time>
      </trkpt>
      <trkpt lat="48.11485" lon="-3.55675">
        <ele>197.6</ele>
        <time>2025-02-25T13:08:03Z</time>
      </trkpt>
      <trkpt lat="48.11486" lon="-3.55674">
        <ele>197.6</ele>
        <time>2025-02-25T13:08:04Z</time>
      </trkpt>
      <trkpt lat="48.11487" lon="-3.55674">
        <ele>197.6</ele>
        <time>2025-02-25T13:08:05Z</time>
      </trkpt>
      <trkpt lat="48.11489" lon="-3.55674">
        <ele>197.6</ele>
        <time>2025-02-25T13:08:06Z</time>
      </trkpt>
      <trkpt lat="48.1149" lon="-3.55674">
        <ele>197.6</ele>
        <time>2025-02-25T13:08:07Z</time>
      </trkpt>
      <trkpt lat="48.11491" lon="-3.55674">
        <ele>197.6</ele>
        <time>2025-02-25T13:08:08Z</time>
      </trkpt>
      <trkpt lat="48.11492" lon="-3.55673">
        <ele>197.6</ele>
        <time>2025-02-25T13:08:09Z</time>
      </trkpt>
      <trkpt lat="48.11493" lon="-3.55672">
        <ele>197.7</ele>
        <time>2025-02-25T13:08:10Z</time>
      </trkpt>
      <trkpt lat="48.11494" lon="-3.55671">
        <ele>197.7</ele>
        <time>2025-02-25T13:08:11Z</time>
      </trkpt>
      <trkpt lat="48.11495" lon="-3.55669">
        <ele>197.8</ele>
        <time>2025-02-25T13:08:12Z</time>
      </trkpt>
      <trkpt lat="48.11496" lon="-3.55669">
        <ele>197.8</ele>
        <time>2025-02-25T13:08:13Z</time>
      </trkpt>
      <trkpt lat="48.11497" lon="-3.55667">
        <ele>198</ele>
        <time>2025-02-25T13:08:14Z</time>
      </trkpt>
      <trkpt lat="48.11498" lon="-3.55666">
        <ele>198</ele>
        <time>2025-02-25T13:08:15Z</time>
      </trkpt>
      <trkpt lat="48.11499" lon="-3.55666">
        <ele>198</ele>
        <time>2025-02-25T13:08:16Z</time>
      </trkpt>
      <trkpt lat="48.115" lon="-3.55665">
        <ele>198.1</ele>
        <time>2025-02-25T13:08:17Z</time>
      </trkpt>
      <trkpt lat="48.11501" lon="-3.55664">
        <ele>198.1</ele>
        <time>2025-02-25T13:08:18Z</time>
      </trkpt>
      <trkpt lat="48.11502" lon="-3.55663">
        <ele>198.1</ele>
        <time>2025-02-25T13:08:19Z</time>
      </trkpt>
      <trkpt lat="48.11503" lon="-3.55662">
        <ele>198.1</ele>
        <time>2025-02-25T13:08:20Z</time>
      </trkpt>
      <trkpt lat="48.11504" lon="-3.55661">
        <ele>198.1</ele>
        <time>2025-02-25T13:08:21Z</time>
      </trkpt>
      <trkpt lat="48.11505" lon="-3.55661">
        <ele>198</ele>
        <time>2025-02-25T13:08:22Z</time>
      </trkpt>
      <trkpt lat="48.11505" lon="-3.55659">
        <ele>198.1</ele>
        <time>2025-02-25T13:08:23Z</time>
      </trkpt>
      <trkpt lat="48.11506" lon="-3.55658">
        <ele>198.1</ele>
        <time>2025-02-25T13:08:24Z</time>
      </trkpt>
      <trkpt lat="48.11507" lon="-3.55657">
        <ele>198.1</ele>
        <time>2025-02-25T13:08:25Z</time>
      </trkpt>
      <trkpt lat="48.11507" lon="-3.55656">
        <ele>198.1</ele>
        <time>2025-02-25T13:08:26Z</time>
      </trkpt>
      <trkpt lat="48.11508" lon="-3.55655">
        <ele>198.1</ele>
        <time>2025-02-25T13:08:27Z</time>
      </trkpt>
      <trkpt lat="48.11509" lon="-3.55654">
        <ele>198.1</ele>
        <time>2025-02-25T13:08:28Z</time>
      </trkpt>
      <trkpt lat="48.1151" lon="-3.55653">
        <ele>198.1</ele>
        <time>2025-02-25T13:08:29Z</time>
      </trkpt>
      <trkpt lat="48.1151" lon="-3.55652">
        <ele>198.2</ele>
        <time>2025-02-25T13:08:30Z</time>
      </trkpt>
      <trkpt lat="48.11511" lon="-3.55651">
        <ele>198.2</ele>
        <time>2025-02-25T13:08:31Z</time>
      </trkpt>
      <trkpt lat="48.11513" lon="-3.55651">
        <ele>198.1</ele>
        <time>2025-02-25T13:08:32Z</time>
      </trkpt>
      <trkpt lat="48.11514" lon="-3.55651">
        <ele>198.1</ele>
        <time>2025-02-25T13:08:33Z</time>
      </trkpt>
      <trkpt lat="48.11515" lon="-3.5565">
        <ele>198.1</ele>
        <time>2025-02-25T13:08:34Z</time>
      </trkpt>
      <trkpt lat="48.11516" lon="-3.55648">
        <ele>198.1</ele>
        <time>2025-02-25T13:08:35Z</time>
      </trkpt>
      <trkpt lat="48.11517" lon="-3.55647">
        <ele>198.1</ele>
        <time>2025-02-25T13:08:36Z</time>
      </trkpt>
      <trkpt lat="48.11518" lon="-3.55646">
        <ele>198.1</ele>
        <time>2025-02-25T13:08:37Z</time>
      </trkpt>
      <trkpt lat="48.11518" lon="-3.55645">
        <ele>198.1</ele>
        <time>2025-02-25T13:08:38Z</time>
      </trkpt>
      <trkpt lat="48.11519" lon="-3.55643">
        <ele>198.2</ele>
        <time>2025-02-25T13:08:39Z</time>
      </trkpt>
      <trkpt lat="48.11519" lon="-3.55642">
        <ele>198.2</ele>
        <time>2025-02-25T13:08:40Z</time>
      </trkpt>
      <trkpt lat="48.1152" lon="-3.55641">
        <ele>198.2</ele>
        <time>2025-02-25T13:08:41Z</time>
      </trkpt>
      <trkpt lat="48.11521" lon="-3.5564">
        <ele>198.2</ele>
        <time>2025-02-25T13:08:42Z</time>
      </trkpt>
      <trkpt lat="48.11522" lon="-3.55638">
        <ele>198.2</ele>
        <time>2025-02-25T13:08:43Z</time>
      </trkpt>
      <trkpt lat="48.11523" lon="-3.55638">
        <ele>198.2</ele>
        <time>2025-02-25T13:08:44Z</time>
      </trkpt>
      <trkpt lat="48.11523" lon="-3.55636">
        <ele>198.3</ele>
        <time>2025-02-25T13:08:45Z</time>
      </trkpt>
      <trkpt lat="48.11524" lon="-3.55635">
        <ele>198.3</ele>
        <time>2025-02-25T13:08:46Z</time>
      </trkpt>
      <trkpt lat="48.11525" lon="-3.55634">
        <ele>198.3</ele>
        <time>2025-02-25T13:08:47Z</time>
      </trkpt>
      <trkpt lat="48.11526" lon="-3.55633">
        <ele>198.3</ele>
        <time>2025-02-25T13:08:48Z</time>
      </trkpt>
      <trkpt lat="48.11526" lon="-3.55632">
        <ele>198.3</ele>
        <time>2025-02-25T13:08:49Z</time>
      </trkpt>
      <trkpt lat="48.11527" lon="-3.5563">
        <ele>198.3</ele>
        <time>2025-02-25T13:08:50Z</time>
      </trkpt>
      <trkpt lat="48.11529" lon="-3.55629">
        <ele>198.3</ele>
        <time>2025-02-25T13:08:51Z</time>
      </trkpt>
      <trkpt lat="48.1153" lon="-3.55628">
        <ele>198.3</ele>
        <time>2025-02-25T13:08:52Z</time>
      </trkpt>
      <trkpt lat="48.1153" lon="-3.55627">
        <ele>198.3</ele>
        <time>2025-02-25T13:08:53Z</time>
      </trkpt>
      <trkpt lat="48.11531" lon="-3.55626">
        <ele>198.3</ele>
        <time>2025-02-25T13:08:54Z</time>
      </trkpt>
      <trkpt lat="48.11532" lon="-3.55625">
        <ele>198.3</ele>
        <time>2025-02-25T13:08:55Z</time>
      </trkpt>
      <trkpt lat="48.11533" lon="-3.55624">
        <ele>198.2</ele>
        <time>2025-02-25T13:08:56Z</time>
      </trkpt>
      <trkpt lat="48.11533" lon="-3.55622">
        <ele>198.3</ele>
        <time>2025-02-25T13:08:57Z</time>
      </trkpt>
      <trkpt lat="48.11534" lon="-3.55621">
        <ele>198.3</ele>
        <time>2025-02-25T13:08:58Z</time>
      </trkpt>
      <trkpt lat="48.11535" lon="-3.5562">
        <ele>198.2</ele>
        <time>2025-02-25T13:08:59Z</time>
      </trkpt>
      <trkpt lat="48.11535" lon="-3.55618">
        <ele>198.3</ele>
        <time>2025-02-25T13:09:00Z</time>
      </trkpt>
      <trkpt lat="48.11536" lon="-3.55617">
        <ele>198.3</ele>
        <time>2025-02-25T13:09:01Z</time>
      </trkpt>
      <trkpt lat="48.11537" lon="-3.55615">
        <ele>198.2</ele>
        <time>2025-02-25T13:09:02Z</time>
      </trkpt>
      <trkpt lat="48.11538" lon="-3.55614">
        <ele>198.2</ele>
        <time>2025-02-25T13:09:03Z</time>
      </trkpt>
      <trkpt lat="48.11538" lon="-3.55613">
        <ele>198.2</ele>
        <time>2025-02-25T13:09:04Z</time>
      </trkpt>
      <trkpt lat="48.11539" lon="-3.55612">
        <ele>198.2</ele>
        <time>2025-02-25T13:09:05Z</time>
      </trkpt>
      <trkpt lat="48.1154" lon="-3.5561">
        <ele>198.1</ele>
        <time>2025-02-25T13:09:06Z</time>
      </trkpt>
      <trkpt lat="48.11541" lon="-3.55609">
        <ele>198</ele>
        <time>2025-02-25T13:09:07Z</time>
      </trkpt>
      <trkpt lat="48.11542" lon="-3.55608">
        <ele>198</ele>
        <time>2025-02-25T13:09:08Z</time>
      </trkpt>
      <trkpt lat="48.11542" lon="-3.55606">
        <ele>198</ele>
        <time>2025-02-25T13:09:09Z</time>
      </trkpt>
      <trkpt lat="48.11543" lon="-3.55605">
        <ele>197.9</ele>
        <time>2025-02-25T13:09:10Z</time>
      </trkpt>
      <trkpt lat="48.11544" lon="-3.55604">
        <ele>197.8</ele>
        <time>2025-02-25T13:09:11Z</time>
      </trkpt>
      <trkpt lat="48.11545" lon="-3.55602">
        <ele>197.8</ele>
        <time>2025-02-25T13:09:12Z</time>
      </trkpt>
      <trkpt lat="48.11545" lon="-3.556">
        <ele>197.8</ele>
        <time>2025-02-25T13:09:13Z</time>
      </trkpt>
      <trkpt lat="48.11546" lon="-3.55599">
        <ele>197.7</ele>
        <time>2025-02-25T13:09:14Z</time>
      </trkpt>
      <trkpt lat="48.11547" lon="-3.55598">
        <ele>197.6</ele>
        <time>2025-02-25T13:09:15Z</time>
      </trkpt>
      <trkpt lat="48.11547" lon="-3.55596">
        <ele>197.6</ele>
        <time>2025-02-25T13:09:16Z</time>
      </trkpt>
      <trkpt lat="48.11548" lon="-3.55595">
        <ele>197.5</ele>
        <time>2025-02-25T13:09:17Z</time>
      </trkpt>
      <trkpt lat="48.11549" lon="-3.55594">
        <ele>197.5</ele>
        <time>2025-02-25T13:09:18Z</time>
      </trkpt>
      <trkpt lat="48.11549" lon="-3.55593">
        <ele>197.5</ele>
        <time>2025-02-25T13:09:19Z</time>
      </trkpt>
      <trkpt lat="48.11549" lon="-3.55591">
        <ele>197.5</ele>
        <time>2025-02-25T13:09:20Z</time>
      </trkpt>
      <trkpt lat="48.1155" lon="-3.5559">
        <ele>197.4</ele>
        <time>2025-02-25T13:09:21Z</time>
      </trkpt>
      <trkpt lat="48.11551" lon="-3.55589">
        <ele>197.3</ele>
        <time>2025-02-25T13:09:22Z</time>
      </trkpt>
      <trkpt lat="48.11552" lon="-3.55588">
        <ele>197.3</ele>
        <time>2025-02-25T13:09:23Z</time>
      </trkpt>
      <trkpt lat="48.11552" lon="-3.55587">
        <ele>197.3</ele>
        <time>2025-02-25T13:09:24Z</time>
      </trkpt>
      <trkpt lat="48.11552" lon="-3.55587">
        <ele>197.3</ele>
        <time>2025-02-25T13:09:25Z</time>
      </trkpt>
      <trkpt lat="48.11552" lon="-3.55587">
        <ele>197.3</ele>
        <time>2025-02-25T13:09:26Z</time>
      </trkpt>
      <trkpt lat="48.11552" lon="-3.55587">
        <ele>197.3</ele>
        <time>2025-02-25T13:09:27Z</time>
      </trkpt>
      <trkpt lat="48.11552" lon="-3.55588">
        <ele>197.3</ele>
        <time>2025-02-25T13:09:28Z</time>
      </trkpt>
      <trkpt lat="48.11552" lon="-3.55588">
        <ele>197.3</ele>
        <time>2025-02-25T13:09:29Z</time>
      </trkpt>
      <trkpt lat="48.11552" lon="-3.55588">
        <ele>197.3</ele>
        <time>2025-02-25T13:09:30Z</time>
      </trkpt>
      <trkpt lat="48.11552" lon="-3.55588">
        <ele>197.3</ele>
        <time>2025-02-25T13:09:31Z</time>
      </trkpt>
      <trkpt lat="48.11552" lon="-3.55588">
        <ele>197.3</ele>
        <time>2025-02-25T13:09:32Z</time>
      </trkpt>
      <trkpt lat="48.11551" lon="-3.55588">
        <ele>197.3</ele>
        <time>2025-02-25T13:09:33Z</time>
      </trkpt>
      <trkpt lat="48.11551" lon="-3.55588">
        <ele>197.3</ele>
        <time>2025-02-25T13:09:34Z</time>
      </trkpt>
      <trkpt lat="48.11551" lon="-3.55588">
        <ele>197.3</ele>
        <time>2025-02-25T13:09:35Z</time>
      </trkpt>
      <trkpt lat="48.11551" lon="-3.55588">
        <ele>197.3</ele>
        <time>2025-02-25T13:09:36Z</time>
      </trkpt>
      <trkpt lat="48.11551" lon="-3.55588">
        <ele>197.3</ele>
        <time>2025-02-25T13:09:37Z</time>
      </trkpt>
      <trkpt lat="48.11552" lon="-3.55588">
        <ele>197.3</ele>
        <time>2025-02-25T13:09:38Z</time>
      </trkpt>
      <trkpt lat="48.11552" lon="-3.55589">
        <ele>197.3</ele>
        <time>2025-02-25T13:09:39Z</time>
      </trkpt>
      <trkpt lat="48.11551" lon="-3.55589">
        <ele>197.3</ele>
        <time>2025-02-25T13:09:40Z</time>
      </trkpt>
      <trkpt lat="48.11551" lon="-3.5559">
        <ele>197.3</ele>
        <time>2025-02-25T13:09:41Z</time>
      </trkpt>
      <trkpt lat="48.1155" lon="-3.55591">
        <ele>197.4</ele>
        <time>2025-02-25T13:09:42Z</time>
      </trkpt>
      <trkpt lat="48.1155" lon="-3.55593">
        <ele>197.4</ele>
        <time>2025-02-25T13:09:43Z</time>
      </trkpt>
      <trkpt lat="48.11549" lon="-3.55594">
        <ele>197.5</ele>
        <time>2025-02-25T13:09:44Z</time>
      </trkpt>
      <trkpt lat="48.11548" lon="-3.55595">
        <ele>197.5</ele>
        <time>2025-02-25T13:09:45Z</time>
      </trkpt>
      <trkpt lat="48.11548" lon="-3.55596">
        <ele>197.5</ele>
        <time>2025-02-25T13:09:46Z</time>
      </trkpt>
      <trkpt lat="48.11547" lon="-3.55598">
        <ele>197.6</ele>
        <time>2025-02-25T13:09:47Z</time>
      </trkpt>
      <trkpt lat="48.11547" lon="-3.55599">
        <ele>197.6</ele>
        <time>2025-02-25T13:09:48Z</time>
      </trkpt>
      <trkpt lat="48.11546" lon="-3.556">
        <ele>197.7</ele>
        <time>2025-02-25T13:09:49Z</time>
      </trkpt>
      <trkpt lat="48.11545" lon="-3.55601">
        <ele>197.8</ele>
        <time>2025-02-25T13:09:50Z</time>
      </trkpt>
      <trkpt lat="48.11544" lon="-3.55603">
        <ele>197.8</ele>
        <time>2025-02-25T13:09:51Z</time>
      </trkpt>
      <trkpt lat="48.11543" lon="-3.55604">
        <ele>197.9</ele>
        <time>2025-02-25T13:09:52Z</time>
      </trkpt>
      <trkpt lat="48.11542" lon="-3.55605">
        <ele>198</ele>
        <time>2025-02-25T13:09:53Z</time>
      </trkpt>
      <trkpt lat="48.11541" lon="-3.55607">
        <ele>198</ele>
        <time>2025-02-25T13:09:54Z</time>
      </trkpt>
      <trkpt lat="48.1154" lon="-3.55608">
        <ele>198.1</ele>
        <time>2025-02-25T13:09:55Z</time>
      </trkpt>
      <trkpt lat="48.11539" lon="-3.55609">
        <ele>198.2</ele>
        <time>2025-02-25T13:09:56Z</time>
      </trkpt>
      <trkpt lat="48.11538" lon="-3.55612">
        <ele>198.2</ele>
        <time>2025-02-25T13:09:57Z</time>
      </trkpt>
      <trkpt lat="48.11538" lon="-3.55613">
        <ele>198.2</ele>
        <time>2025-02-25T13:09:58Z</time>
      </trkpt>
      <trkpt lat="48.11537" lon="-3.55614">
        <ele>198.3</ele>
        <time>2025-02-25T13:09:59Z</time>
      </trkpt>
      <trkpt lat="48.11536" lon="-3.55615">
        <ele>198.3</ele>
        <time>2025-02-25T13:10:00Z</time>
      </trkpt>
      <trkpt lat="48.11535" lon="-3.55616">
        <ele>198.3</ele>
        <time>2025-02-25T13:10:01Z</time>
      </trkpt>
      <trkpt lat="48.11534" lon="-3.55618">
        <ele>198.4</ele>
        <time>2025-02-25T13:10:02Z</time>
      </trkpt>
      <trkpt lat="48.11533" lon="-3.55619">
        <ele>198.4</ele>
        <time>2025-02-25T13:10:03Z</time>
      </trkpt>
      <trkpt lat="48.11532" lon="-3.5562">
        <ele>198.4</ele>
        <time>2025-02-25T13:10:04Z</time>
      </trkpt>
      <trkpt lat="48.11532" lon="-3.55621">
        <ele>198.4</ele>
        <time>2025-02-25T13:10:05Z</time>
      </trkpt>
      <trkpt lat="48.11531" lon="-3.55622">
        <ele>198.4</ele>
        <time>2025-02-25T13:10:06Z</time>
      </trkpt>
      <trkpt lat="48.1153" lon="-3.55624">
        <ele>198.4</ele>
        <time>2025-02-25T13:10:07Z</time>
      </trkpt>
      <trkpt lat="48.1153" lon="-3.55625">
        <ele>198.4</ele>
        <time>2025-02-25T13:10:08Z</time>
      </trkpt>
      <trkpt lat="48.1153" lon="-3.55626">
        <ele>198.3</ele>
        <time>2025-02-25T13:10:09Z</time>
      </trkpt>
      <trkpt lat="48.1153" lon="-3.55627">
        <ele>198.3</ele>
        <time>2025-02-25T13:10:10Z</time>
      </trkpt>
      <trkpt lat="48.1153" lon="-3.55629">
        <ele>198.2</ele>
        <time>2025-02-25T13:10:11Z</time>
      </trkpt>
      <trkpt lat="48.1153" lon="-3.55631">
        <ele>198.2</ele>
        <time>2025-02-25T13:10:12Z</time>
      </trkpt>
      <trkpt lat="48.11528" lon="-3.55632">
        <ele>198.2</ele>
        <time>2025-02-25T13:10:13Z</time>
      </trkpt>
      <trkpt lat="48.11528" lon="-3.55633">
        <ele>198.2</ele>
        <time>2025-02-25T13:10:14Z</time>
      </trkpt>
      <trkpt lat="48.11527" lon="-3.55634">
        <ele>198.2</ele>
        <time>2025-02-25T13:10:15Z</time>
      </trkpt>
      <trkpt lat="48.11526" lon="-3.55635">
        <ele>198.2</ele>
        <time>2025-02-25T13:10:16Z</time>
      </trkpt>
      <trkpt lat="48.11525" lon="-3.55636">
        <ele>198.2</ele>
        <time>2025-02-25T13:10:17Z</time>
      </trkpt>
      <trkpt lat="48.11524" lon="-3.55637">
        <ele>198.2</ele>
        <time>2025-02-25T13:10:18Z</time>
      </trkpt>
      <trkpt lat="48.11524" lon="-3.55639">
        <ele>198.1</ele>
        <time>2025-02-25T13:10:19Z</time>
      </trkpt>
      <trkpt lat="48.11523" lon="-3.5564">
        <ele>198.1</ele>
        <time>2025-02-25T13:10:20Z</time>
      </trkpt>
      <trkpt lat="48.11521" lon="-3.55642">
        <ele>198.1</ele>
        <time>2025-02-25T13:10:21Z</time>
      </trkpt>
      <trkpt lat="48.11521" lon="-3.55644">
        <ele>198.1</ele>
        <time>2025-02-25T13:10:22Z</time>
      </trkpt>
      <trkpt lat="48.1152" lon="-3.55645">
        <ele>198.1</ele>
        <time>2025-02-25T13:10:23Z</time>
      </trkpt>
      <trkpt lat="48.11519" lon="-3.55648">
        <ele>198</ele>
        <time>2025-02-25T13:10:24Z</time>
      </trkpt>
      <trkpt lat="48.11518" lon="-3.55649">
        <ele>198</ele>
        <time>2025-02-25T13:10:25Z</time>
      </trkpt>
      <trkpt lat="48.11517" lon="-3.55651">
        <ele>198</ele>
        <time>2025-02-25T13:10:26Z</time>
      </trkpt>
      <trkpt lat="48.11516" lon="-3.55651">
        <ele>198</ele>
        <time>2025-02-25T13:10:27Z</time>
      </trkpt>
      <trkpt lat="48.11515" lon="-3.55653">
        <ele>198</ele>
        <time>2025-02-25T13:10:28Z</time>
      </trkpt>
      <trkpt lat="48.11515" lon="-3.55654">
        <ele>197.9</ele>
        <time>2025-02-25T13:10:29Z</time>
      </trkpt>
      <trkpt lat="48.11514" lon="-3.55656">
        <ele>197.9</ele>
        <time>2025-02-25T13:10:30Z</time>
      </trkpt>
      <trkpt lat="48.11513" lon="-3.55657">
        <ele>197.9</ele>
        <time>2025-02-25T13:10:31Z</time>
      </trkpt>
      <trkpt lat="48.11512" lon="-3.55658">
        <ele>197.9</ele>
        <time>2025-02-25T13:10:32Z</time>
      </trkpt>
      <trkpt lat="48.11511" lon="-3.5566">
        <ele>197.8</ele>
        <time>2025-02-25T13:10:33Z</time>
      </trkpt>
      <trkpt lat="48.1151" lon="-3.5566">
        <ele>197.9</ele>
        <time>2025-02-25T13:10:34Z</time>
      </trkpt>
      <trkpt lat="48.11509" lon="-3.55661">
        <ele>197.9</ele>
        <time>2025-02-25T13:10:35Z</time>
      </trkpt>
      <trkpt lat="48.11508" lon="-3.55663">
        <ele>197.8</ele>
        <time>2025-02-25T13:10:36Z</time>
      </trkpt>
      <trkpt lat="48.11507" lon="-3.55664">
        <ele>197.8</ele>
        <time>2025-02-25T13:10:37Z</time>
      </trkpt>
      <trkpt lat="48.11506" lon="-3.55665">
        <ele>197.8</ele>
        <time>2025-02-25T13:10:38Z</time>
      </trkpt>
      <trkpt lat="48.11505" lon="-3.55666">
        <ele>197.8</ele>
        <time>2025-02-25T13:10:39Z</time>
      </trkpt>
      <trkpt lat="48.11504" lon="-3.55666">
        <ele>197.9</ele>
        <time>2025-02-25T13:10:40Z</time>
      </trkpt>
      <trkpt lat="48.11503" lon="-3.55668">
        <ele>197.8</ele>
        <time>2025-02-25T13:10:41Z</time>
      </trkpt>
      <trkpt lat="48.11502" lon="-3.55668">
        <ele>197.8</ele>
        <time>2025-02-25T13:10:42Z</time>
      </trkpt>
      <trkpt lat="48.11501" lon="-3.55669">
        <ele>197.8</ele>
        <time>2025-02-25T13:10:43Z</time>
      </trkpt>
      <trkpt lat="48.11499" lon="-3.55669">
        <ele>197.8</ele>
        <time>2025-02-25T13:10:44Z</time>
      </trkpt>
      <trkpt lat="48.11498" lon="-3.55669">
        <ele>197.8</ele>
        <time>2025-02-25T13:10:45Z</time>
      </trkpt>
      <trkpt lat="48.11497" lon="-3.55669">
        <ele>197.8</ele>
        <time>2025-02-25T13:10:46Z</time>
      </trkpt>
      <trkpt lat="48.11496" lon="-3.55669">
        <ele>197.8</ele>
        <time>2025-02-25T13:10:47Z</time>
      </trkpt>
      <trkpt lat="48.11495" lon="-3.5567">
        <ele>197.8</ele>
        <time>2025-02-25T13:10:48Z</time>
      </trkpt>
      <trkpt lat="48.11494" lon="-3.55671">
        <ele>197.7</ele>
        <time>2025-02-25T13:10:49Z</time>
      </trkpt>
      <trkpt lat="48.11493" lon="-3.55671">
        <ele>197.7</ele>
        <time>2025-02-25T13:10:50Z</time>
      </trkpt>
      <trkpt lat="48.11492" lon="-3.55671">
        <ele>197.7</ele>
        <time>2025-02-25T13:10:51Z</time>
      </trkpt>
      <trkpt lat="48.1149" lon="-3.55672">
        <ele>197.7</ele>
        <time>2025-02-25T13:10:52Z</time>
      </trkpt>
      <trkpt lat="48.11489" lon="-3.55673">
        <ele>197.6</ele>
        <time>2025-02-25T13:10:53Z</time>
      </trkpt>
      <trkpt lat="48.11488" lon="-3.55674">
        <ele>197.6</ele>
        <time>2025-02-25T13:10:54Z</time>
      </trkpt>
      <trkpt lat="48.11487" lon="-3.55675">
        <ele>197.5</ele>
        <time>2025-02-25T13:10:55Z</time>
      </trkpt>
      <trkpt lat="48.11487" lon="-3.55677">
        <ele>197.4</ele>
        <time>2025-02-25T13:10:56Z</time>
      </trkpt>
      <trkpt lat="48.11486" lon="-3.55677">
        <ele>197.4</ele>
        <time>2025-02-25T13:10:57Z</time>
      </trkpt>
      <trkpt lat="48.11484" lon="-3.55678">
        <ele>197.4</ele>
        <time>2025-02-25T13:10:58Z</time>
      </trkpt>
      <trkpt lat="48.11483" lon="-3.55677">
        <ele>197.5</ele>
        <time>2025-02-25T13:10:59Z</time>
      </trkpt>
      <trkpt lat="48.11482" lon="-3.55677">
        <ele>197.5</ele>
        <time>2025-02-25T13:11:00Z</time>
      </trkpt>
      <trkpt lat="48.11481" lon="-3.55678">
        <ele>197.5</ele>
        <time>2025-02-25T13:11:01Z</time>
      </trkpt>
      <trkpt lat="48.1148" lon="-3.55678">
        <ele>197.5</ele>
        <time>2025-02-25T13:11:02Z</time>
      </trkpt>
      <trkpt lat="48.11479" lon="-3.55679">
        <ele>197.4</ele>
        <time>2025-02-25T13:11:03Z</time>
      </trkpt>
      <trkpt lat="48.11478" lon="-3.5568">
        <ele>197.4</ele>
        <time>2025-02-25T13:11:04Z</time>
      </trkpt>
      <trkpt lat="48.11477" lon="-3.5568">
        <ele>197.4</ele>
        <time>2025-02-25T13:11:05Z</time>
      </trkpt>
      <trkpt lat="48.11475" lon="-3.55682">
        <ele>197.4</ele>
        <time>2025-02-25T13:11:06Z</time>
      </trkpt>
      <trkpt lat="48.11474" lon="-3.55682">
        <ele>197.4</ele>
        <time>2025-02-25T13:11:07Z</time>
      </trkpt>
      <trkpt lat="48.11473" lon="-3.55683">
        <ele>197.4</ele>
        <time>2025-02-25T13:11:08Z</time>
      </trkpt>
      <trkpt lat="48.11472" lon="-3.55684">
        <ele>197.4</ele>
        <time>2025-02-25T13:11:09Z</time>
      </trkpt>
      <trkpt lat="48.11471" lon="-3.55684">
        <ele>197.3</ele>
        <time>2025-02-25T13:11:10Z</time>
      </trkpt>
      <trkpt lat="48.1147" lon="-3.55685">
        <ele>197.3</ele>
        <time>2025-02-25T13:11:11Z</time>
      </trkpt>
      <trkpt lat="48.11468" lon="-3.55686">
        <ele>197.2</ele>
        <time>2025-02-25T13:11:12Z</time>
      </trkpt>
      <trkpt lat="48.11467" lon="-3.55687">
        <ele>197.1</ele>
        <time>2025-02-25T13:11:13Z</time>
      </trkpt>
      <trkpt lat="48.11466" lon="-3.55687">
        <ele>197.1</ele>
        <time>2025-02-25T13:11:14Z</time>
      </trkpt>
      <trkpt lat="48.11465" lon="-3.55688">
        <ele>197</ele>
        <time>2025-02-25T13:11:15Z</time>
      </trkpt>
      <trkpt lat="48.11464" lon="-3.55689">
        <ele>197</ele>
        <time>2025-02-25T13:11:16Z</time>
      </trkpt>
      <trkpt lat="48.11463" lon="-3.5569">
        <ele>196.9</ele>
        <time>2025-02-25T13:11:17Z</time>
      </trkpt>
      <trkpt lat="48.11462" lon="-3.5569">
        <ele>196.9</ele>
        <time>2025-02-25T13:11:18Z</time>
      </trkpt>
      <trkpt lat="48.11461" lon="-3.55689">
        <ele>196.9</ele>
        <time>2025-02-25T13:11:19Z</time>
      </trkpt>
      <trkpt lat="48.1146" lon="-3.5569">
        <ele>196.8</ele>
        <time>2025-02-25T13:11:20Z</time>
      </trkpt>
      <trkpt lat="48.11459" lon="-3.5569">
        <ele>196.8</ele>
        <time>2025-02-25T13:11:21Z</time>
      </trkpt>
      <trkpt lat="48.11457" lon="-3.5569">
        <ele>196.7</ele>
        <time>2025-02-25T13:11:22Z</time>
      </trkpt>
      <trkpt lat="48.11456" lon="-3.55691">
        <ele>196.6</ele>
        <time>2025-02-25T13:11:23Z</time>
      </trkpt>
      <trkpt lat="48.11455" lon="-3.55691">
        <ele>196.6</ele>
        <time>2025-02-25T13:11:24Z</time>
      </trkpt>
      <trkpt lat="48.11454" lon="-3.55691">
        <ele>196.5</ele>
        <time>2025-02-25T13:11:25Z</time>
      </trkpt>
      <trkpt lat="48.11453" lon="-3.55692">
        <ele>196.5</ele>
        <time>2025-02-25T13:11:26Z</time>
      </trkpt>
      <trkpt lat="48.11451" lon="-3.55692">
        <ele>196.4</ele>
        <time>2025-02-25T13:11:27Z</time>
      </trkpt>
      <trkpt lat="48.1145" lon="-3.55693">
        <ele>196.3</ele>
        <time>2025-02-25T13:11:28Z</time>
      </trkpt>
      <trkpt lat="48.1145" lon="-3.55694">
        <ele>196.2</ele>
        <time>2025-02-25T13:11:29Z</time>
      </trkpt>
      <trkpt lat="48.11449" lon="-3.55694">
        <ele>196.2</ele>
        <time>2025-02-25T13:11:30Z</time>
      </trkpt>
      <trkpt lat="48.11447" lon="-3.55694">
        <ele>196.1</ele>
        <time>2025-02-25T13:11:31Z</time>
      </trkpt>
      <trkpt lat="48.11446" lon="-3.55695">
        <ele>196</ele>
        <time>2025-02-25T13:11:32Z</time>
      </trkpt>
      <trkpt lat="48.11446" lon="-3.55696">
        <ele>196</ele>
        <time>2025-02-25T13:11:33Z</time>
      </trkpt>
      <trkpt lat="48.11444" lon="-3.55696">
        <ele>195.9</ele>
        <time>2025-02-25T13:11:34Z</time>
      </trkpt>
      <trkpt lat="48.11443" lon="-3.55696">
        <ele>195.9</ele>
        <time>2025-02-25T13:11:35Z</time>
      </trkpt>
      <trkpt lat="48.11442" lon="-3.55696">
        <ele>195.9</ele>
        <time>2025-02-25T13:11:36Z</time>
      </trkpt>
      <trkpt lat="48.11441" lon="-3.55697">
        <ele>195.9</ele>
        <time>2025-02-25T13:11:37Z</time>
      </trkpt>
      <trkpt lat="48.1144" lon="-3.55697">
        <ele>195.9</ele>
        <time>2025-02-25T13:11:38Z</time>
      </trkpt>
      <trkpt lat="48.11438" lon="-3.55697">
        <ele>195.9</ele>
        <time>2025-02-25T13:11:39Z</time>
      </trkpt>
      <trkpt lat="48.11437" lon="-3.55697">
        <ele>195.9</ele>
        <time>2025-02-25T13:11:40Z</time>
      </trkpt>
      <trkpt lat="48.11436" lon="-3.55697">
        <ele>195.9</ele>
        <time>2025-02-25T13:11:41Z</time>
      </trkpt>
      <trkpt lat="48.11435" lon="-3.55698">
        <ele>195.9</ele>
        <time>2025-02-25T13:11:42Z</time>
      </trkpt>
      <trkpt lat="48.11434" lon="-3.55698">
        <ele>195.9</ele>
        <time>2025-02-25T13:11:43Z</time>
      </trkpt>
      <trkpt lat="48.11433" lon="-3.55698">
        <ele>195.9</ele>
        <time>2025-02-25T13:11:44Z</time>
      </trkpt>
      <trkpt lat="48.11432" lon="-3.55698">
        <ele>195.9</ele>
        <time>2025-02-25T13:11:45Z</time>
      </trkpt>
      <trkpt lat="48.1143" lon="-3.55698">
        <ele>195.9</ele>
        <time>2025-02-25T13:11:46Z</time>
      </trkpt>
      <trkpt lat="48.11429" lon="-3.55697">
        <ele>195.9</ele>
        <time>2025-02-25T13:11:47Z</time>
      </trkpt>
      <trkpt lat="48.11428" lon="-3.55697">
        <ele>195.9</ele>
        <time>2025-02-25T13:11:48Z</time>
      </trkpt>
      <trkpt lat="48.11427" lon="-3.55696">
        <ele>195.9</ele>
        <time>2025-02-25T13:11:49Z</time>
      </trkpt>
      <trkpt lat="48.11426" lon="-3.55696">
        <ele>195.9</ele>
        <time>2025-02-25T13:11:50Z</time>
      </trkpt>
      <trkpt lat="48.11425" lon="-3.55696">
        <ele>195.9</ele>
        <time>2025-02-25T13:11:51Z</time>
      </trkpt>
      <trkpt lat="48.11424" lon="-3.55696">
        <ele>195.9</ele>
        <time>2025-02-25T13:11:52Z</time>
      </trkpt>
      <trkpt lat="48.11423" lon="-3.55695">
        <ele>196</ele>
        <time>2025-02-25T13:11:53Z</time>
      </trkpt>
      <trkpt lat="48.11424" lon="-3.55695">
        <ele>196</ele>
        <time>2025-02-25T13:11:54Z</time>
      </trkpt>
      <trkpt lat="48.11424" lon="-3.55695">
        <ele>196</ele>
        <time>2025-02-25T13:11:55Z</time>
      </trkpt>
      <trkpt lat="48.11424" lon="-3.55695">
        <ele>196</ele>
        <time>2025-02-25T13:11:56Z</time>
      </trkpt>
      <trkpt lat="48.11423" lon="-3.55696">
        <ele>195.9</ele>
        <time>2025-02-25T13:11:57Z</time>
      </trkpt>
      <trkpt lat="48.11422" lon="-3.55697">
        <ele>195.9</ele>
        <time>2025-02-25T13:11:58Z</time>
      </trkpt>
      <trkpt lat="48.11422" lon="-3.55698">
        <ele>195.9</ele>
        <time>2025-02-25T13:11:59Z</time>
      </trkpt>
      <trkpt lat="48.11421" lon="-3.55699">
        <ele>195.8</ele>
        <time>2025-02-25T13:12:00Z</time>
      </trkpt>
      <trkpt lat="48.1142" lon="-3.557">
        <ele>195.8</ele>
        <time>2025-02-25T13:12:01Z</time>
      </trkpt>
      <trkpt lat="48.11419" lon="-3.55701">
        <ele>195.8</ele>
        <time>2025-02-25T13:12:02Z</time>
      </trkpt>
      <trkpt lat="48.11418" lon="-3.55702">
        <ele>195.7</ele>
        <time>2025-02-25T13:12:03Z</time>
      </trkpt>
      <trkpt lat="48.11417" lon="-3.55702">
        <ele>195.7</ele>
        <time>2025-02-25T13:12:04Z</time>
      </trkpt>
      <trkpt lat="48.11416" lon="-3.55703">
        <ele>195.7</ele>
        <time>2025-02-25T13:12:05Z</time>
      </trkpt>
      <trkpt lat="48.11414" lon="-3.55704">
        <ele>195.7</ele>
        <time>2025-02-25T13:12:06Z</time>
      </trkpt>
      <trkpt lat="48.11413" lon="-3.55703">
        <ele>195.7</ele>
        <time>2025-02-25T13:12:07Z</time>
      </trkpt>
      <trkpt lat="48.11412" lon="-3.55704">
        <ele>195.7</ele>
        <time>2025-02-25T13:12:08Z</time>
      </trkpt>
      <trkpt lat="48.11411" lon="-3.55705">
        <ele>195.6</ele>
        <time>2025-02-25T13:12:09Z</time>
      </trkpt>
      <trkpt lat="48.1141" lon="-3.55705">
        <ele>195.6</ele>
        <time>2025-02-25T13:12:10Z</time>
      </trkpt>
      <trkpt lat="48.11409" lon="-3.55705">
        <ele>195.6</ele>
        <time>2025-02-25T13:12:11Z</time>
      </trkpt>
      <trkpt lat="48.11407" lon="-3.55705">
        <ele>195.6</ele>
        <time>2025-02-25T13:12:12Z</time>
      </trkpt>
      <trkpt lat="48.11406" lon="-3.55705">
        <ele>195.6</ele>
        <time>2025-02-25T13:12:13Z</time>
      </trkpt>
      <trkpt lat="48.11405" lon="-3.55706">
        <ele>195.6</ele>
        <time>2025-02-25T13:12:14Z</time>
      </trkpt>
      <trkpt lat="48.11404" lon="-3.55706">
        <ele>195.6</ele>
        <time>2025-02-25T13:12:15Z</time>
      </trkpt>
      <trkpt lat="48.11402" lon="-3.55707">
        <ele>195.5</ele>
        <time>2025-02-25T13:12:16Z</time>
      </trkpt>
      <trkpt lat="48.11401" lon="-3.55707">
        <ele>195.5</ele>
        <time>2025-02-25T13:12:17Z</time>
      </trkpt>
      <trkpt lat="48.114" lon="-3.55708">
        <ele>195.5</ele>
        <time>2025-02-25T13:12:18Z</time>
      </trkpt>
      <trkpt lat="48.11399" lon="-3.55709">
        <ele>195.5</ele>
        <time>2025-02-25T13:12:19Z</time>
      </trkpt>
      <trkpt lat="48.11397" lon="-3.5571">
        <ele>195.4</ele>
        <time>2025-02-25T13:12:20Z</time>
      </trkpt>
      <trkpt lat="48.11396" lon="-3.5571">
        <ele>195.4</ele>
        <time>2025-02-25T13:12:21Z</time>
      </trkpt>
      <trkpt lat="48.11395" lon="-3.55711">
        <ele>195.4</ele>
        <time>2025-02-25T13:12:22Z</time>
      </trkpt>
      <trkpt lat="48.11394" lon="-3.55711">
        <ele>195.4</ele>
        <time>2025-02-25T13:12:23Z</time>
      </trkpt>
      <trkpt lat="48.11392" lon="-3.55711">
        <ele>195.4</ele>
        <time>2025-02-25T13:12:24Z</time>
      </trkpt>
      <trkpt lat="48.11391" lon="-3.55712">
        <ele>195.4</ele>
        <time>2025-02-25T13:12:25Z</time>
      </trkpt>
      <trkpt lat="48.1139" lon="-3.55713">
        <ele>195.3</ele>
        <time>2025-02-25T13:12:26Z</time>
      </trkpt>
      <trkpt lat="48.11389" lon="-3.55713">
        <ele>195.3</ele>
        <time>2025-02-25T13:12:27Z</time>
      </trkpt>
      <trkpt lat="48.11388" lon="-3.55713">
        <ele>195.4</ele>
        <time>2025-02-25T13:12:28Z</time>
      </trkpt>
      <trkpt lat="48.11386" lon="-3.55713">
        <ele>195.4</ele>
        <time>2025-02-25T13:12:29Z</time>
      </trkpt>
      <trkpt lat="48.11385" lon="-3.55713">
        <ele>195.5</ele>
        <time>2025-02-25T13:12:30Z</time>
      </trkpt>
      <trkpt lat="48.11384" lon="-3.55713">
        <ele>195.5</ele>
        <time>2025-02-25T13:12:31Z</time>
      </trkpt>
      <trkpt lat="48.11383" lon="-3.55714">
        <ele>195.5</ele>
        <time>2025-02-25T13:12:32Z</time>
      </trkpt>
      <trkpt lat="48.11381" lon="-3.55715">
        <ele>195.5</ele>
        <time>2025-02-25T13:12:33Z</time>
      </trkpt>
      <trkpt lat="48.1138" lon="-3.55715">
        <ele>195.6</ele>
        <time>2025-02-25T13:12:34Z</time>
      </trkpt>
      <trkpt lat="48.11379" lon="-3.55715">
        <ele>195.6</ele>
        <time>2025-02-25T13:12:35Z</time>
      </trkpt>
      <trkpt lat="48.11378" lon="-3.55716">
        <ele>195.6</ele>
        <time>2025-02-25T13:12:36Z</time>
      </trkpt>
      <trkpt lat="48.11377" lon="-3.55716">
        <ele>195.7</ele>
        <time>2025-02-25T13:12:37Z</time>
      </trkpt>
      <trkpt lat="48.11375" lon="-3.55716">
        <ele>195.7</ele>
        <time>2025-02-25T13:12:38Z</time>
      </trkpt>
      <trkpt lat="48.11374" lon="-3.55716">
        <ele>195.8</ele>
        <time>2025-02-25T13:12:39Z</time>
      </trkpt>
      <trkpt lat="48.11373" lon="-3.55718">
        <ele>195.7</ele>
        <time>2025-02-25T13:12:40Z</time>
      </trkpt>
      <trkpt lat="48.11372" lon="-3.55718">
        <ele>195.8</ele>
        <time>2025-02-25T13:12:41Z</time>
      </trkpt>
      <trkpt lat="48.11371" lon="-3.55718">
        <ele>195.8</ele>
        <time>2025-02-25T13:12:42Z</time>
      </trkpt>
      <trkpt lat="48.11369" lon="-3.55719">
        <ele>195.8</ele>
        <time>2025-02-25T13:12:43Z</time>
      </trkpt>
      <trkpt lat="48.11368" lon="-3.55718">
        <ele>195.9</ele>
        <time>2025-02-25T13:12:44Z</time>
      </trkpt>
      <trkpt lat="48.11367" lon="-3.55717">
        <ele>196</ele>
        <time>2025-02-25T13:12:45Z</time>
      </trkpt>
      <trkpt lat="48.11366" lon="-3.55718">
        <ele>196</ele>
        <time>2025-02-25T13:12:46Z</time>
      </trkpt>
      <trkpt lat="48.11365" lon="-3.55718">
        <ele>196</ele>
        <time>2025-02-25T13:12:47Z</time>
      </trkpt>
      <trkpt lat="48.11364" lon="-3.55719">
        <ele>196</ele>
        <time>2025-02-25T13:12:48Z</time>
      </trkpt>
      <trkpt lat="48.11363" lon="-3.55719">
        <ele>196</ele>
        <time>2025-02-25T13:12:49Z</time>
      </trkpt>
      <trkpt lat="48.11361" lon="-3.55719">
        <ele>196.1</ele>
        <time>2025-02-25T13:12:50Z</time>
      </trkpt>
      <trkpt lat="48.1136" lon="-3.55719">
        <ele>196.2</ele>
        <time>2025-02-25T13:12:51Z</time>
      </trkpt>
      <trkpt lat="48.11359" lon="-3.55718">
        <ele>196.2</ele>
        <time>2025-02-25T13:12:52Z</time>
      </trkpt>
      <trkpt lat="48.11358" lon="-3.55719">
        <ele>196.2</ele>
        <time>2025-02-25T13:12:53Z</time>
      </trkpt>
      <trkpt lat="48.11357" lon="-3.5572">
        <ele>196.2</ele>
        <time>2025-02-25T13:12:54Z</time>
      </trkpt>
      <trkpt lat="48.11356" lon="-3.5572">
        <ele>196.3</ele>
        <time>2025-02-25T13:12:55Z</time>
      </trkpt>
      <trkpt lat="48.11355" lon="-3.5572">
        <ele>196.3</ele>
        <time>2025-02-25T13:12:56Z</time>
      </trkpt>
      <trkpt lat="48.11354" lon="-3.5572">
        <ele>196.3</ele>
        <time>2025-02-25T13:12:57Z</time>
      </trkpt>
      <trkpt lat="48.11353" lon="-3.55721">
        <ele>196.3</ele>
        <time>2025-02-25T13:12:58Z</time>
      </trkpt>
      <trkpt lat="48.11352" lon="-3.55722">
        <ele>196.3</ele>
        <time>2025-02-25T13:12:59Z</time>
      </trkpt>
      <trkpt lat="48.11351" lon="-3.55722">
        <ele>196.4</ele>
        <time>2025-02-25T13:13:00Z</time>
      </trkpt>
      <trkpt lat="48.11349" lon="-3.55721">
        <ele>196.5</ele>
        <time>2025-02-25T13:13:01Z</time>
      </trkpt>
      <trkpt lat="48.11348" lon="-3.55722">
        <ele>196.5</ele>
        <time>2025-02-25T13:13:02Z</time>
      </trkpt>
      <trkpt lat="48.11347" lon="-3.55723">
        <ele>196.5</ele>
        <time>2025-02-25T13:13:03Z</time>
      </trkpt>
      <trkpt lat="48.11346" lon="-3.55723">
        <ele>196.5</ele>
        <time>2025-02-25T13:13:04Z</time>
      </trkpt>
      <trkpt lat="48.11345" lon="-3.55723">
        <ele>196.6</ele>
        <time>2025-02-25T13:13:05Z</time>
      </trkpt>
      <trkpt lat="48.11344" lon="-3.55723">
        <ele>196.6</ele>
        <time>2025-02-25T13:13:06Z</time>
      </trkpt>
      <trkpt lat="48.11343" lon="-3.55724">
        <ele>196.6</ele>
        <time>2025-02-25T13:13:07Z</time>
      </trkpt>
      <trkpt lat="48.11342" lon="-3.55724">
        <ele>196.7</ele>
        <time>2025-02-25T13:13:08Z</time>
      </trkpt>
      <trkpt lat="48.11341" lon="-3.55725">
        <ele>196.7</ele>
        <time>2025-02-25T13:13:09Z</time>
      </trkpt>
      <trkpt lat="48.1134" lon="-3.55726">
        <ele>196.7</ele>
        <time>2025-02-25T13:13:10Z</time>
      </trkpt>
      <trkpt lat="48.11338" lon="-3.55726">
        <ele>196.8</ele>
        <time>2025-02-25T13:13:11Z</time>
      </trkpt>
      <trkpt lat="48.11337" lon="-3.55726">
        <ele>196.9</ele>
        <time>2025-02-25T13:13:12Z</time>
      </trkpt>
      <trkpt lat="48.11336" lon="-3.55726">
        <ele>196.9</ele>
        <time>2025-02-25T13:13:13Z</time>
      </trkpt>
      <trkpt lat="48.11335" lon="-3.55726">
        <ele>196.9</ele>
        <time>2025-02-25T13:13:14Z</time>
      </trkpt>
      <trkpt lat="48.11334" lon="-3.55726">
        <ele>197</ele>
        <time>2025-02-25T13:13:15Z</time>
      </trkpt>
      <trkpt lat="48.11333" lon="-3.55727">
        <ele>197</ele>
        <time>2025-02-25T13:13:16Z</time>
      </trkpt>
      <trkpt lat="48.11332" lon="-3.55727">
        <ele>197</ele>
        <time>2025-02-25T13:13:17Z</time>
      </trkpt>
      <trkpt lat="48.11331" lon="-3.55727">
        <ele>197.1</ele>
        <time>2025-02-25T13:13:18Z</time>
      </trkpt>
      <trkpt lat="48.1133" lon="-3.55727">
        <ele>197.1</ele>
        <time>2025-02-25T13:13:19Z</time>
      </trkpt>
      <trkpt lat="48.11329" lon="-3.55727">
        <ele>197.2</ele>
        <time>2025-02-25T13:13:20Z</time>
      </trkpt>
      <trkpt lat="48.11328" lon="-3.55727">
        <ele>197.2</ele>
        <time>2025-02-25T13:13:21Z</time>
      </trkpt>
      <trkpt lat="48.11327" lon="-3.55727">
        <ele>197.2</ele>
        <time>2025-02-25T13:13:22Z</time>
      </trkpt>
      <trkpt lat="48.11326" lon="-3.55728">
        <ele>197.3</ele>
        <time>2025-02-25T13:13:23Z</time>
      </trkpt>
      <trkpt lat="48.11325" lon="-3.55729">
        <ele>197.3</ele>
        <time>2025-02-25T13:13:24Z</time>
      </trkpt>
      <trkpt lat="48.11324" lon="-3.55729">
        <ele>197.3</ele>
        <time>2025-02-25T13:13:25Z</time>
      </trkpt>
      <trkpt lat="48.11323" lon="-3.55729">
        <ele>197.4</ele>
        <time>2025-02-25T13:13:26Z</time>
      </trkpt>
      <trkpt lat="48.11322" lon="-3.55729">
        <ele>197.4</ele>
        <time>2025-02-25T13:13:27Z</time>
      </trkpt>
      <trkpt lat="48.11321" lon="-3.55729">
        <ele>197.4</ele>
        <time>2025-02-25T13:13:28Z</time>
      </trkpt>
      <trkpt lat="48.11319" lon="-3.55729">
        <ele>197.5</ele>
        <time>2025-02-25T13:13:29Z</time>
      </trkpt>
      <trkpt lat="48.11318" lon="-3.5573">
        <ele>197.6</ele>
        <time>2025-02-25T13:13:30Z</time>
      </trkpt>
      <trkpt lat="48.11317" lon="-3.5573">
        <ele>197.6</ele>
        <time>2025-02-25T13:13:31Z</time>
      </trkpt>
      <trkpt lat="48.11315" lon="-3.5573">
        <ele>197.7</ele>
        <time>2025-02-25T13:13:32Z</time>
      </trkpt>
      <trkpt lat="48.11314" lon="-3.55731">
        <ele>197.7</ele>
        <time>2025-02-25T13:13:33Z</time>
      </trkpt>
      <trkpt lat="48.11313" lon="-3.55731">
        <ele>197.7</ele>
        <time>2025-02-25T13:13:34Z</time>
      </trkpt>
      <trkpt lat="48.11312" lon="-3.55731">
        <ele>197.8</ele>
        <time>2025-02-25T13:13:35Z</time>
      </trkpt>
      <trkpt lat="48.11311" lon="-3.55732">
        <ele>197.8</ele>
        <time>2025-02-25T13:13:36Z</time>
      </trkpt>
      <trkpt lat="48.1131" lon="-3.55733">
        <ele>197.8</ele>
        <time>2025-02-25T13:13:37Z</time>
      </trkpt>
      <trkpt lat="48.11309" lon="-3.55733">
        <ele>197.9</ele>
        <time>2025-02-25T13:13:38Z</time>
      </trkpt>
      <trkpt lat="48.11308" lon="-3.55733">
        <ele>197.9</ele>
        <time>2025-02-25T13:13:39Z</time>
      </trkpt>
      <trkpt lat="48.11307" lon="-3.55733">
        <ele>197.9</ele>
        <time>2025-02-25T13:13:40Z</time>
      </trkpt>
      <trkpt lat="48.11305" lon="-3.55733">
        <ele>198</ele>
        <time>2025-02-25T13:13:41Z</time>
      </trkpt>
      <trkpt lat="48.11304" lon="-3.55734">
        <ele>198.1</ele>
        <time>2025-02-25T13:13:42Z</time>
      </trkpt>
      <trkpt lat="48.11303" lon="-3.55735">
        <ele>198.1</ele>
        <time>2025-02-25T13:13:43Z</time>
      </trkpt>
      <trkpt lat="48.11302" lon="-3.55734">
        <ele>198.1</ele>
        <time>2025-02-25T13:13:44Z</time>
      </trkpt>
      <trkpt lat="48.11301" lon="-3.55734">
        <ele>198.2</ele>
        <time>2025-02-25T13:13:45Z</time>
      </trkpt>
      <trkpt lat="48.11299" lon="-3.55734">
        <ele>198.2</ele>
        <time>2025-02-25T13:13:46Z</time>
      </trkpt>
      <trkpt lat="48.11298" lon="-3.55734">
        <ele>198.3</ele>
        <time>2025-02-25T13:13:47Z</time>
      </trkpt>
      <trkpt lat="48.11297" lon="-3.55734">
        <ele>198.3</ele>
        <time>2025-02-25T13:13:48Z</time>
      </trkpt>
      <trkpt lat="48.11296" lon="-3.55735">
        <ele>198.3</ele>
        <time>2025-02-25T13:13:49Z</time>
      </trkpt>
      <trkpt lat="48.11295" lon="-3.55736">
        <ele>198.4</ele>
        <time>2025-02-25T13:13:50Z</time>
      </trkpt>
      <trkpt lat="48.11294" lon="-3.55736">
        <ele>198.4</ele>
        <time>2025-02-25T13:13:51Z</time>
      </trkpt>
      <trkpt lat="48.11293" lon="-3.55736">
        <ele>198.5</ele>
        <time>2025-02-25T13:13:52Z</time>
      </trkpt>
      <trkpt lat="48.11292" lon="-3.55736">
        <ele>198.5</ele>
        <time>2025-02-25T13:13:53Z</time>
      </trkpt>
      <trkpt lat="48.11291" lon="-3.55734">
        <ele>198.5</ele>
        <time>2025-02-25T13:13:54Z</time>
      </trkpt>
      <trkpt lat="48.11291" lon="-3.55733">
        <ele>198.5</ele>
        <time>2025-02-25T13:13:55Z</time>
      </trkpt>
      <trkpt lat="48.11289" lon="-3.55733">
        <ele>198.6</ele>
        <time>2025-02-25T13:13:56Z</time>
      </trkpt>
      <trkpt lat="48.11289" lon="-3.5573">
        <ele>198.6</ele>
        <time>2025-02-25T13:13:57Z</time>
      </trkpt>
      <trkpt lat="48.11289" lon="-3.5573">
        <ele>198.6</ele>
        <time>2025-02-25T13:13:58Z</time>
      </trkpt>
      <trkpt lat="48.11289" lon="-3.55729">
        <ele>198.6</ele>
        <time>2025-02-25T13:13:59Z</time>
      </trkpt>
      <trkpt lat="48.11289" lon="-3.55727">
        <ele>198.6</ele>
        <time>2025-02-25T13:14:00Z</time>
      </trkpt>
      <trkpt lat="48.11288" lon="-3.55726">
        <ele>198.6</ele>
        <time>2025-02-25T13:14:01Z</time>
      </trkpt>
      <trkpt lat="48.11288" lon="-3.55724">
        <ele>198.6</ele>
        <time>2025-02-25T13:14:02Z</time>
      </trkpt>
      <trkpt lat="48.11288" lon="-3.55722">
        <ele>198.6</ele>
        <time>2025-02-25T13:14:03Z</time>
      </trkpt>
      <trkpt lat="48.11288" lon="-3.55721">
        <ele>198.7</ele>
        <time>2025-02-25T13:14:04Z</time>
      </trkpt>
      <trkpt lat="48.11288" lon="-3.55719">
        <ele>198.7</ele>
        <time>2025-02-25T13:14:05Z</time>
      </trkpt>
      <trkpt lat="48.11288" lon="-3.55718">
        <ele>198.8</ele>
        <time>2025-02-25T13:14:06Z</time>
      </trkpt>
      <trkpt lat="48.11287" lon="-3.55717">
        <ele>198.9</ele>
        <time>2025-02-25T13:14:07Z</time>
      </trkpt>
      <trkpt lat="48.11287" lon="-3.55715">
        <ele>198.9</ele>
        <time>2025-02-25T13:14:08Z</time>
      </trkpt>
      <trkpt lat="48.11287" lon="-3.55714">
        <ele>199</ele>
        <time>2025-02-25T13:14:09Z</time>
      </trkpt>
      <trkpt lat="48.11287" lon="-3.55712">
        <ele>199</ele>
        <time>2025-02-25T13:14:10Z</time>
      </trkpt>
      <trkpt lat="48.11287" lon="-3.55711">
        <ele>199.1</ele>
        <time>2025-02-25T13:14:11Z</time>
      </trkpt>
      <trkpt lat="48.11287" lon="-3.55709">
        <ele>199.1</ele>
        <time>2025-02-25T13:14:12Z</time>
      </trkpt>
      <trkpt lat="48.11287" lon="-3.55708">
        <ele>199.2</ele>
        <time>2025-02-25T13:14:13Z</time>
      </trkpt>
      <trkpt lat="48.11287" lon="-3.55707">
        <ele>199.2</ele>
        <time>2025-02-25T13:14:14Z</time>
      </trkpt>
      <trkpt lat="48.11288" lon="-3.55705">
        <ele>199.3</ele>
        <time>2025-02-25T13:14:15Z</time>
      </trkpt>
      <trkpt lat="48.11289" lon="-3.55704">
        <ele>199.3</ele>
        <time>2025-02-25T13:14:16Z</time>
      </trkpt>
      <trkpt lat="48.11289" lon="-3.55703">
        <ele>199.3</ele>
        <time>2025-02-25T13:14:17Z</time>
      </trkpt>
      <trkpt lat="48.1129" lon="-3.55703">
        <ele>199.3</ele>
        <time>2025-02-25T13:14:18Z</time>
      </trkpt>
      <trkpt lat="48.1129" lon="-3.55701">
        <ele>199.3</ele>
        <time>2025-02-25T13:14:19Z</time>
      </trkpt>
      <trkpt lat="48.11291" lon="-3.557">
        <ele>199.3</ele>
        <time>2025-02-25T13:14:20Z</time>
      </trkpt>
      <trkpt lat="48.11291" lon="-3.557">
        <ele>199.3</ele>
        <time>2025-02-25T13:14:21Z</time>
      </trkpt>
      <trkpt lat="48.11291" lon="-3.55698">
        <ele>199.4</ele>
        <time>2025-02-25T13:14:22Z</time>
      </trkpt>
      <trkpt lat="48.11291" lon="-3.55698">
        <ele>199.4</ele>
        <time>2025-02-25T13:14:23Z</time>
      </trkpt>
      <trkpt lat="48.11291" lon="-3.55699">
        <ele>199.4</ele>
        <time>2025-02-25T13:14:24Z</time>
      </trkpt>
      <trkpt lat="48.11291" lon="-3.55699">
        <ele>199.4</ele>
        <time>2025-02-25T13:14:25Z</time>
      </trkpt>
      <trkpt lat="48.11291" lon="-3.55699">
        <ele>199.4</ele>
        <time>2025-02-25T13:14:26Z</time>
      </trkpt>
      <trkpt lat="48.11291" lon="-3.55699">
        <ele>199.4</ele>
        <time>2025-02-25T13:14:27Z</time>
      </trkpt>
      <trkpt lat="48.11291" lon="-3.55699">
        <ele>199.4</ele>
        <time>2025-02-25T13:14:28Z</time>
      </trkpt>
      <trkpt lat="48.11291" lon="-3.55699">
        <ele>199.4</ele>
        <time>2025-02-25T13:14:29Z</time>
      </trkpt>
      <trkpt lat="48.11291" lon="-3.55695">
        <ele>199.5</ele>
        <time>2025-02-25T13:14:30Z</time>
      </trkpt>
      <trkpt lat="48.1129" lon="-3.55691">
        <ele>199.7</ele>
        <time>2025-02-25T13:14:31Z</time>
      </trkpt>
      <trkpt lat="48.11291" lon="-3.55689">
        <ele>199.7</ele>
        <time>2025-02-25T13:14:32Z</time>
      </trkpt>
      <trkpt lat="48.11292" lon="-3.55688">
        <ele>199.7</ele>
        <time>2025-02-25T13:14:33Z</time>
      </trkpt>
      <trkpt lat="48.11293" lon="-3.55688">
        <ele>199.7</ele>
        <time>2025-02-25T13:14:34Z</time>
      </trkpt>
      <trkpt lat="48.11294" lon="-3.55687">
        <ele>199.7</ele>
        <time>2025-02-25T13:14:35Z</time>
      </trkpt>
      <trkpt lat="48.11294" lon="-3.55686">
        <ele>199.7</ele>
        <time>2025-02-25T13:14:36Z</time>
      </trkpt>
      <trkpt lat="48.11294" lon="-3.55686">
        <ele>199.7</ele>
        <time>2025-02-25T13:14:37Z</time>
      </trkpt>
      <trkpt lat="48.11294" lon="-3.55685">
        <ele>199.8</ele>
        <time>2025-02-25T13:14:38Z</time>
      </trkpt>
      <trkpt lat="48.11294" lon="-3.55684">
        <ele>199.8</ele>
        <time>2025-02-25T13:14:39Z</time>
      </trkpt>
      <trkpt lat="48.11294" lon="-3.55683">
        <ele>199.8</ele>
        <time>2025-02-25T13:14:40Z</time>
      </trkpt>
      <trkpt lat="48.11294" lon="-3.55682">
        <ele>199.9</ele>
        <time>2025-02-25T13:14:41Z</time>
      </trkpt>
      <trkpt lat="48.11294" lon="-3.55681">
        <ele>199.9</ele>
        <time>2025-02-25T13:14:42Z</time>
      </trkpt>
      <trkpt lat="48.11294" lon="-3.5568">
        <ele>199.9</ele>
        <time>2025-02-25T13:14:43Z</time>
      </trkpt>
      <trkpt lat="48.11295" lon="-3.55678">
        <ele>200</ele>
        <time>2025-02-25T13:14:44Z</time>
      </trkpt>
      <trkpt lat="48.11295" lon="-3.55678">
        <ele>200</ele>
        <time>2025-02-25T13:14:45Z</time>
      </trkpt>
      <trkpt lat="48.11295" lon="-3.55677">
        <ele>200</ele>
        <time>2025-02-25T13:14:46Z</time>
      </trkpt>
      <trkpt lat="48.11295" lon="-3.55676">
        <ele>200</ele>
        <time>2025-02-25T13:14:47Z</time>
      </trkpt>
      <trkpt lat="48.11296" lon="-3.55675">
        <ele>200</ele>
        <time>2025-02-25T13:14:48Z</time>
      </trkpt>
      <trkpt lat="48.11296" lon="-3.55674">
        <ele>200.1</ele>
        <time>2025-02-25T13:14:49Z</time>
      </trkpt>
      <trkpt lat="48.11296" lon="-3.55673">
        <ele>200.1</ele>
        <time>2025-02-25T13:14:50Z</time>
      </trkpt>
      <trkpt lat="48.11296" lon="-3.55673">
        <ele>200.1</ele>
        <time>2025-02-25T13:14:51Z</time>
      </trkpt>
      <trkpt lat="48.11297" lon="-3.55672">
        <ele>200.1</ele>
        <time>2025-02-25T13:14:52Z</time>
      </trkpt>
      <trkpt lat="48.11297" lon="-3.55671">
        <ele>200.2</ele>
        <time>2025-02-25T13:14:53Z</time>
      </trkpt>
      <trkpt lat="48.11297" lon="-3.5567">
        <ele>200.2</ele>
        <time>2025-02-25T13:14:54Z</time>
      </trkpt>
      <trkpt lat="48.11297" lon="-3.55669">
        <ele>200.2</ele>
        <time>2025-02-25T13:14:55Z</time>
      </trkpt>
      <trkpt lat="48.11297" lon="-3.55668">
        <ele>200.3</ele>
        <time>2025-02-25T13:14:56Z</time>
      </trkpt>
      <trkpt lat="48.11297" lon="-3.55666">
        <ele>200.3</ele>
        <time>2025-02-25T13:14:57Z</time>
      </trkpt>
      <trkpt lat="48.11297" lon="-3.55665">
        <ele>200.4</ele>
        <time>2025-02-25T13:14:58Z</time>
      </trkpt>
      <trkpt lat="48.11297" lon="-3.55665">
        <ele>200.4</ele>
        <time>2025-02-25T13:14:59Z</time>
      </trkpt>
      <trkpt lat="48.11297" lon="-3.55662">
        <ele>200.5</ele>
        <time>2025-02-25T13:15:00Z</time>
      </trkpt>
      <trkpt lat="48.11298" lon="-3.5566">
        <ele>200.5</ele>
        <time>2025-02-25T13:15:01Z</time>
      </trkpt>
      <trkpt lat="48.11297" lon="-3.55659">
        <ele>200.6</ele>
        <time>2025-02-25T13:15:02Z</time>
      </trkpt>
      <trkpt lat="48.11298" lon="-3.55659">
        <ele>200.5</ele>
        <time>2025-02-25T13:15:03Z</time>
      </trkpt>
      <trkpt lat="48.11298" lon="-3.55658">
        <ele>200.6</ele>
        <time>2025-02-25T13:15:04Z</time>
      </trkpt>
      <trkpt lat="48.11299" lon="-3.55658">
        <ele>200.5</ele>
        <time>2025-02-25T13:15:05Z</time>
      </trkpt>
      <trkpt lat="48.11299" lon="-3.55657">
        <ele>200.6</ele>
        <time>2025-02-25T13:15:06Z</time>
      </trkpt>
      <trkpt lat="48.11299" lon="-3.55656">
        <ele>200.6</ele>
        <time>2025-02-25T13:15:07Z</time>
      </trkpt>
      <trkpt lat="48.11299" lon="-3.55655">
        <ele>200.7</ele>
        <time>2025-02-25T13:15:08Z</time>
      </trkpt>
      <trkpt lat="48.11299" lon="-3.55654">
        <ele>200.7</ele>
        <time>2025-02-25T13:15:09Z</time>
      </trkpt>
      <trkpt lat="48.11299" lon="-3.55653">
        <ele>200.7</ele>
        <time>2025-02-25T13:15:10Z</time>
      </trkpt>
      <trkpt lat="48.113" lon="-3.55652">
        <ele>200.7</ele>
        <time>2025-02-25T13:15:11Z</time>
      </trkpt>
      <trkpt lat="48.113" lon="-3.55651">
        <ele>200.8</ele>
        <time>2025-02-25T13:15:12Z</time>
      </trkpt>
      <trkpt lat="48.11299" lon="-3.5565">
        <ele>200.8</ele>
        <time>2025-02-25T13:15:13Z</time>
      </trkpt>
      <trkpt lat="48.113" lon="-3.55649">
        <ele>200.8</ele>
        <time>2025-02-25T13:15:14Z</time>
      </trkpt>
      <trkpt lat="48.113" lon="-3.55648">
        <ele>200.9</ele>
        <time>2025-02-25T13:15:15Z</time>
      </trkpt>
      <trkpt lat="48.11301" lon="-3.55647">
        <ele>200.9</ele>
        <time>2025-02-25T13:15:16Z</time>
      </trkpt>
      <trkpt lat="48.11301" lon="-3.55648">
        <ele>200.8</ele>
        <time>2025-02-25T13:15:17Z</time>
      </trkpt>
      <trkpt lat="48.11301" lon="-3.55649">
        <ele>200.8</ele>
        <time>2025-02-25T13:15:18Z</time>
      </trkpt>
      <trkpt lat="48.11301" lon="-3.55649">
        <ele>200.8</ele>
        <time>2025-02-25T13:15:19Z</time>
      </trkpt>
      <trkpt lat="48.11301" lon="-3.55649">
        <ele>200.8</ele>
        <time>2025-02-25T13:15:20Z</time>
      </trkpt>
      <trkpt lat="48.11301" lon="-3.55648">
        <ele>200.8</ele>
        <time>2025-02-25T13:15:21Z</time>
      </trkpt>
      <trkpt lat="48.11301" lon="-3.55648">
        <ele>200.8</ele>
        <time>2025-02-25T13:15:22Z</time>
      </trkpt>
      <trkpt lat="48.11301" lon="-3.55648">
        <ele>200.8</ele>
        <time>2025-02-25T13:15:23Z</time>
      </trkpt>
      <trkpt lat="48.11302" lon="-3.55648">
        <ele>200.8</ele>
        <time>2025-02-25T13:15:24Z</time>
      </trkpt>
      <trkpt lat="48.11302" lon="-3.55646">
        <ele>200.9</ele>
        <time>2025-02-25T13:15:25Z</time>
      </trkpt>
      <trkpt lat="48.11302" lon="-3.55644">
        <ele>200.9</ele>
        <time>2025-02-25T13:15:26Z</time>
      </trkpt>
      <trkpt lat="48.11303" lon="-3.55643">
        <ele>200.9</ele>
        <time>2025-02-25T13:15:27Z</time>
      </trkpt>
      <trkpt lat="48.11305" lon="-3.55645">
        <ele>200.8</ele>
        <time>2025-02-25T13:15:28Z</time>
      </trkpt>
      <trkpt lat="48.11306" lon="-3.55646">
        <ele>200.7</ele>
        <time>2025-02-25T13:15:29Z</time>
      </trkpt>
      <trkpt lat="48.11307" lon="-3.55645">
        <ele>200.7</ele>
        <time>2025-02-25T13:15:30Z</time>
      </trkpt>
      <trkpt lat="48.11308" lon="-3.55646">
        <ele>200.7</ele>
        <time>2025-02-25T13:15:31Z</time>
      </trkpt>
      <trkpt lat="48.11308" lon="-3.55647">
        <ele>200.6</ele>
        <time>2025-02-25T13:15:32Z</time>
      </trkpt>
      <trkpt lat="48.11308" lon="-3.55648">
        <ele>200.6</ele>
        <time>2025-02-25T13:15:33Z</time>
      </trkpt>
      <trkpt lat="48.11308" lon="-3.55648">
        <ele>200.6</ele>
        <time>2025-02-25T13:15:34Z</time>
      </trkpt>
      <trkpt lat="48.11308" lon="-3.55649">
        <ele>200.5</ele>
        <time>2025-02-25T13:15:35Z</time>
      </trkpt>
      <trkpt lat="48.11308" lon="-3.5565">
        <ele>200.5</ele>
        <time>2025-02-25T13:15:36Z</time>
      </trkpt>
      <trkpt lat="48.11309" lon="-3.5565">
        <ele>200.5</ele>
        <time>2025-02-25T13:15:37Z</time>
      </trkpt>
      <trkpt lat="48.11309" lon="-3.55648">
        <ele>200.5</ele>
        <time>2025-02-25T13:15:38Z</time>
      </trkpt>
      <trkpt lat="48.11309" lon="-3.55648">
        <ele>200.5</ele>
        <time>2025-02-25T13:15:39Z</time>
      </trkpt>
      <trkpt lat="48.1131" lon="-3.55647">
        <ele>200.5</ele>
        <time>2025-02-25T13:15:40Z</time>
      </trkpt>
      <trkpt lat="48.11311" lon="-3.55646">
        <ele>200.5</ele>
        <time>2025-02-25T13:15:41Z</time>
      </trkpt>
      <trkpt lat="48.11311" lon="-3.55646">
        <ele>200.5</ele>
        <time>2025-02-25T13:15:42Z</time>
      </trkpt>
      <trkpt lat="48.11311" lon="-3.55646">
        <ele>200.5</ele>
        <time>2025-02-25T13:15:43Z</time>
      </trkpt>
      <trkpt lat="48.11312" lon="-3.55644">
        <ele>200.6</ele>
        <time>2025-02-25T13:15:44Z</time>
      </trkpt>
      <trkpt lat="48.11313" lon="-3.55644">
        <ele>200.5</ele>
        <time>2025-02-25T13:15:45Z</time>
      </trkpt>
      <trkpt lat="48.11313" lon="-3.55644">
        <ele>200.5</ele>
        <time>2025-02-25T13:15:46Z</time>
      </trkpt>
      <trkpt lat="48.11314" lon="-3.55643">
        <ele>200.5</ele>
        <time>2025-02-25T13:15:47Z</time>
      </trkpt>
      <trkpt lat="48.11314" lon="-3.55642">
        <ele>200.6</ele>
        <time>2025-02-25T13:15:48Z</time>
      </trkpt>
      <trkpt lat="48.11314" lon="-3.5564">
        <ele>200.7</ele>
        <time>2025-02-25T13:15:49Z</time>
      </trkpt>
      <trkpt lat="48.11314" lon="-3.55639">
        <ele>200.7</ele>
        <time>2025-02-25T13:15:50Z</time>
      </trkpt>
      <trkpt lat="48.11315" lon="-3.55639">
        <ele>200.7</ele>
        <time>2025-02-25T13:15:51Z</time>
      </trkpt>
      <trkpt lat="48.11315" lon="-3.55638">
        <ele>200.7</ele>
        <time>2025-02-25T13:15:52Z</time>
      </trkpt>
      <trkpt lat="48.11315" lon="-3.55636">
        <ele>200.9</ele>
        <time>2025-02-25T13:15:53Z</time>
      </trkpt>
      <trkpt lat="48.11315" lon="-3.55635">
        <ele>201</ele>
        <time>2025-02-25T13:15:54Z</time>
      </trkpt>
      <trkpt lat="48.11315" lon="-3.55633">
        <ele>201.2</ele>
        <time>2025-02-25T13:15:55Z</time>
      </trkpt>
      <trkpt lat="48.11315" lon="-3.55632">
        <ele>201.2</ele>
        <time>2025-02-25T13:15:56Z</time>
      </trkpt>
      <trkpt lat="48.11315" lon="-3.55632">
        <ele>201.2</ele>
        <time>2025-02-25T13:15:57Z</time>
      </trkpt>
      <trkpt lat="48.11315" lon="-3.55629">
        <ele>201.5</ele>
        <time>2025-02-25T13:15:58Z</time>
      </trkpt>
      <trkpt lat="48.11316" lon="-3.55627">
        <ele>201.6</ele>
        <time>2025-02-25T13:15:59Z</time>
      </trkpt>
      <trkpt lat="48.11316" lon="-3.55625">
        <ele>201.8</ele>
        <time>2025-02-25T13:16:00Z</time>
      </trkpt>
      <trkpt lat="48.11316" lon="-3.55623">
        <ele>202</ele>
        <time>2025-02-25T13:16:01Z</time>
      </trkpt>
      <trkpt lat="48.11316" lon="-3.55622">
        <ele>202.1</ele>
        <time>2025-02-25T13:16:02Z</time>
      </trkpt>
      <trkpt lat="48.11316" lon="-3.55619">
        <ele>202.3</ele>
        <time>2025-02-25T13:16:03Z</time>
      </trkpt>
      <trkpt lat="48.11316" lon="-3.55618">
        <ele>202.4</ele>
        <time>2025-02-25T13:16:04Z</time>
      </trkpt>
      <trkpt lat="48.11316" lon="-3.55618">
        <ele>202.4</ele>
        <time>2025-02-25T13:16:05Z</time>
      </trkpt>
      <trkpt lat="48.11316" lon="-3.55617">
        <ele>202.5</ele>
        <time>2025-02-25T13:16:06Z</time>
      </trkpt>
      <trkpt lat="48.11316" lon="-3.55616">
        <ele>202.6</ele>
        <time>2025-02-25T13:16:07Z</time>
      </trkpt>
      <trkpt lat="48.11316" lon="-3.55614">
        <ele>202.8</ele>
        <time>2025-02-25T13:16:08Z</time>
      </trkpt>
      <trkpt lat="48.11316" lon="-3.55613">
        <ele>202.8</ele>
        <time>2025-02-25T13:16:09Z</time>
      </trkpt>
      <trkpt lat="48.11317" lon="-3.55611">
        <ele>203</ele>
        <time>2025-02-25T13:16:10Z</time>
      </trkpt>
      <trkpt lat="48.11317" lon="-3.55609">
        <ele>203.2</ele>
        <time>2025-02-25T13:16:11Z</time>
      </trkpt>
      <trkpt lat="48.11317" lon="-3.55608">
        <ele>203.3</ele>
        <time>2025-02-25T13:16:12Z</time>
      </trkpt>
      <trkpt lat="48.11316" lon="-3.55608">
        <ele>203.3</ele>
        <time>2025-02-25T13:16:13Z</time>
      </trkpt>
      <trkpt lat="48.11316" lon="-3.55606">
        <ele>203.4</ele>
        <time>2025-02-25T13:16:14Z</time>
      </trkpt>
      <trkpt lat="48.11316" lon="-3.55604">
        <ele>203.6</ele>
        <time>2025-02-25T13:16:15Z</time>
      </trkpt>
      <trkpt lat="48.11316" lon="-3.55602">
        <ele>203.8</ele>
        <time>2025-02-25T13:16:16Z</time>
      </trkpt>
      <trkpt lat="48.11316" lon="-3.556">
        <ele>204</ele>
        <time>2025-02-25T13:16:17Z</time>
      </trkpt>
      <trkpt lat="48.11315" lon="-3.55599">
        <ele>204</ele>
        <time>2025-02-25T13:16:18Z</time>
      </trkpt>
      <trkpt lat="48.11315" lon="-3.55597">
        <ele>204.2</ele>
        <time>2025-02-25T13:16:19Z</time>
      </trkpt>
      <trkpt lat="48.11315" lon="-3.55594">
        <ele>204.4</ele>
        <time>2025-02-25T13:16:20Z</time>
      </trkpt>
      <trkpt lat="48.11315" lon="-3.55591">
        <ele>204.7</ele>
        <time>2025-02-25T13:16:21Z</time>
      </trkpt>
      <trkpt lat="48.11315" lon="-3.55589">
        <ele>204.9</ele>
        <time>2025-02-25T13:16:22Z</time>
      </trkpt>
      <trkpt lat="48.11315" lon="-3.55587">
        <ele>205</ele>
        <time>2025-02-25T13:16:23Z</time>
      </trkpt>
      <trkpt lat="48.11315" lon="-3.55585">
        <ele>205.2</ele>
        <time>2025-02-25T13:16:24Z</time>
      </trkpt>
      <trkpt lat="48.11315" lon="-3.55583">
        <ele>205.4</ele>
        <time>2025-02-25T13:16:25Z</time>
      </trkpt>
      <trkpt lat="48.11315" lon="-3.55581">
        <ele>205.6</ele>
        <time>2025-02-25T13:16:26Z</time>
      </trkpt>
      <trkpt lat="48.11314" lon="-3.55579">
        <ele>205.8</ele>
        <time>2025-02-25T13:16:27Z</time>
      </trkpt>
      <trkpt lat="48.11314" lon="-3.55577">
        <ele>206</ele>
        <time>2025-02-25T13:16:28Z</time>
      </trkpt>
      <trkpt lat="48.11314" lon="-3.55574">
        <ele>206.3</ele>
        <time>2025-02-25T13:16:29Z</time>
      </trkpt>
      <trkpt lat="48.11313" lon="-3.55571">
        <ele>206.6</ele>
        <time>2025-02-25T13:16:30Z</time>
      </trkpt>
      <trkpt lat="48.11313" lon="-3.55569">
        <ele>206.8</ele>
        <time>2025-02-25T13:16:31Z</time>
      </trkpt>
      <trkpt lat="48.11312" lon="-3.55566">
        <ele>207.1</ele>
        <time>2025-02-25T13:16:32Z</time>
      </trkpt>
      <trkpt lat="48.11312" lon="-3.55564">
        <ele>207.3</ele>
        <time>2025-02-25T13:16:33Z</time>
      </trkpt>
      <trkpt lat="48.11312" lon="-3.55562">
        <ele>207.5</ele>
        <time>2025-02-25T13:16:34Z</time>
      </trkpt>
      <trkpt lat="48.11311" lon="-3.55561">
        <ele>207.6</ele>
        <time>2025-02-25T13:16:35Z</time>
      </trkpt>
      <trkpt lat="48.11311" lon="-3.55559">
        <ele>207.8</ele>
        <time>2025-02-25T13:16:36Z</time>
      </trkpt>
      <trkpt lat="48.1131" lon="-3.55557">
        <ele>208</ele>
        <time>2025-02-25T13:16:37Z</time>
      </trkpt>
      <trkpt lat="48.11309" lon="-3.55554">
        <ele>208.2</ele>
        <time>2025-02-25T13:16:38Z</time>
      </trkpt>
      <trkpt lat="48.11311" lon="-3.55553">
        <ele>208.4</ele>
        <time>2025-02-25T13:16:39Z</time>
      </trkpt>
      <trkpt lat="48.1131" lon="-3.55552">
        <ele>208.4</ele>
        <time>2025-02-25T13:16:40Z</time>
      </trkpt>
      <trkpt lat="48.1131" lon="-3.55551">
        <ele>208.5</ele>
        <time>2025-02-25T13:16:41Z</time>
      </trkpt>
      <trkpt lat="48.1131" lon="-3.55549">
        <ele>208.7</ele>
        <time>2025-02-25T13:16:42Z</time>
      </trkpt>
      <trkpt lat="48.11309" lon="-3.55547">
        <ele>208.8</ele>
        <time>2025-02-25T13:16:43Z</time>
      </trkpt>
      <trkpt lat="48.11308" lon="-3.55545">
        <ele>208.9</ele>
        <time>2025-02-25T13:16:44Z</time>
      </trkpt>
      <trkpt lat="48.11308" lon="-3.55544">
        <ele>209</ele>
        <time>2025-02-25T13:16:45Z</time>
      </trkpt>
      <trkpt lat="48.11308" lon="-3.55542">
        <ele>209.1</ele>
        <time>2025-02-25T13:16:46Z</time>
      </trkpt>
      <trkpt lat="48.11307" lon="-3.55541">
        <ele>209.1</ele>
        <time>2025-02-25T13:16:47Z</time>
      </trkpt>
      <trkpt lat="48.11307" lon="-3.55539">
        <ele>209.3</ele>
        <time>2025-02-25T13:16:48Z</time>
      </trkpt>
      <trkpt lat="48.11306" lon="-3.55538">
        <ele>209.3</ele>
        <time>2025-02-25T13:16:49Z</time>
      </trkpt>
      <trkpt lat="48.11305" lon="-3.55536">
        <ele>209.4</ele>
        <time>2025-02-25T13:16:50Z</time>
      </trkpt>
      <trkpt lat="48.11305" lon="-3.55534">
        <ele>209.5</ele>
        <time>2025-02-25T13:16:51Z</time>
      </trkpt>
      <trkpt lat="48.11304" lon="-3.55532">
        <ele>209.6</ele>
        <time>2025-02-25T13:16:52Z</time>
      </trkpt>
      <trkpt lat="48.11304" lon="-3.5553">
        <ele>209.8</ele>
        <time>2025-02-25T13:16:53Z</time>
      </trkpt>
      <trkpt lat="48.11303" lon="-3.55528">
        <ele>209.9</ele>
        <time>2025-02-25T13:16:54Z</time>
      </trkpt>
      <trkpt lat="48.11303" lon="-3.55527">
        <ele>210</ele>
        <time>2025-02-25T13:16:55Z</time>
      </trkpt>
      <trkpt lat="48.11303" lon="-3.55526">
        <ele>210.1</ele>
        <time>2025-02-25T13:16:56Z</time>
      </trkpt>
      <trkpt lat="48.11302" lon="-3.55524">
        <ele>210.3</ele>
        <time>2025-02-25T13:16:57Z</time>
      </trkpt>
      <trkpt lat="48.11302" lon="-3.55522">
        <ele>210.5</ele>
        <time>2025-02-25T13:16:58Z</time>
      </trkpt>
      <trkpt lat="48.11302" lon="-3.55521">
        <ele>210.6</ele>
        <time>2025-02-25T13:16:59Z</time>
      </trkpt>
      <trkpt lat="48.11302" lon="-3.55519">
        <ele>210.8</ele>
        <time>2025-02-25T13:17:00Z</time>
      </trkpt>
      <trkpt lat="48.11301" lon="-3.55518">
        <ele>210.8</ele>
        <time>2025-02-25T13:17:01Z</time>
      </trkpt>
      <trkpt lat="48.11302" lon="-3.55516">
        <ele>211.1</ele>
        <time>2025-02-25T13:17:02Z</time>
      </trkpt>
      <trkpt lat="48.11301" lon="-3.55514">
        <ele>211.2</ele>
        <time>2025-02-25T13:17:03Z</time>
      </trkpt>
      <trkpt lat="48.11301" lon="-3.55513">
        <ele>211.3</ele>
        <time>2025-02-25T13:17:04Z</time>
      </trkpt>
      <trkpt lat="48.11301" lon="-3.55512">
        <ele>211.4</ele>
        <time>2025-02-25T13:17:05Z</time>
      </trkpt>
      <trkpt lat="48.11301" lon="-3.55511">
        <ele>211.5</ele>
        <time>2025-02-25T13:17:06Z</time>
      </trkpt>
      <trkpt lat="48.11302" lon="-3.5551">
        <ele>211.7</ele>
        <time>2025-02-25T13:17:07Z</time>
      </trkpt>
      <trkpt lat="48.11302" lon="-3.55509">
        <ele>211.8</ele>
        <time>2025-02-25T13:17:08Z</time>
      </trkpt>
      <trkpt lat="48.11302" lon="-3.55508">
        <ele>211.9</ele>
        <time>2025-02-25T13:17:09Z</time>
      </trkpt>
      <trkpt lat="48.11302" lon="-3.55506">
        <ele>212.1</ele>
        <time>2025-02-25T13:17:10Z</time>
      </trkpt>
      <trkpt lat="48.11301" lon="-3.55505">
        <ele>212.2</ele>
        <time>2025-02-25T13:17:11Z</time>
      </trkpt>
      <trkpt lat="48.11301" lon="-3.55503">
        <ele>212.4</ele>
        <time>2025-02-25T13:17:12Z</time>
      </trkpt>
      <trkpt lat="48.11302" lon="-3.55502">
        <ele>212.5</ele>
        <time>2025-02-25T13:17:13Z</time>
      </trkpt>
      <trkpt lat="48.11301" lon="-3.555">
        <ele>212.7</ele>
        <time>2025-02-25T13:17:14Z</time>
      </trkpt>
      <trkpt lat="48.11301" lon="-3.55499">
        <ele>212.7</ele>
        <time>2025-02-25T13:17:15Z</time>
      </trkpt>
      <trkpt lat="48.11301" lon="-3.55498">
        <ele>212.7</ele>
        <time>2025-02-25T13:17:16Z</time>
      </trkpt>
      <trkpt lat="48.11301" lon="-3.55497">
        <ele>212.8</ele>
        <time>2025-02-25T13:17:17Z</time>
      </trkpt>
      <trkpt lat="48.11301" lon="-3.55495">
        <ele>212.9</ele>
        <time>2025-02-25T13:17:18Z</time>
      </trkpt>
      <trkpt lat="48.11301" lon="-3.55494">
        <ele>212.9</ele>
        <time>2025-02-25T13:17:19Z</time>
      </trkpt>
      <trkpt lat="48.11301" lon="-3.55493">
        <ele>212.9</ele>
        <time>2025-02-25T13:17:20Z</time>
      </trkpt>
      <trkpt lat="48.11301" lon="-3.55492">
        <ele>213</ele>
        <time>2025-02-25T13:17:21Z</time>
      </trkpt>
      <trkpt lat="48.11301" lon="-3.55491">
        <ele>213</ele>
        <time>2025-02-25T13:17:22Z</time>
      </trkpt>
      <trkpt lat="48.11302" lon="-3.55489">
        <ele>213.1</ele>
        <time>2025-02-25T13:17:23Z</time>
      </trkpt>
      <trkpt lat="48.11302" lon="-3.55488">
        <ele>213.2</ele>
        <time>2025-02-25T13:17:24Z</time>
      </trkpt>
      <trkpt lat="48.11302" lon="-3.55487">
        <ele>213.2</ele>
        <time>2025-02-25T13:17:25Z</time>
      </trkpt>
      <trkpt lat="48.11302" lon="-3.55486">
        <ele>213.2</ele>
        <time>2025-02-25T13:17:26Z</time>
      </trkpt>
      <trkpt lat="48.11301" lon="-3.55484">
        <ele>213.2</ele>
        <time>2025-02-25T13:17:27Z</time>
      </trkpt>
      <trkpt lat="48.11301" lon="-3.55483">
        <ele>213.3</ele>
        <time>2025-02-25T13:17:28Z</time>
      </trkpt>
      <trkpt lat="48.11301" lon="-3.55481">
        <ele>213.4</ele>
        <time>2025-02-25T13:17:29Z</time>
      </trkpt>
      <trkpt lat="48.11301" lon="-3.5548">
        <ele>213.4</ele>
        <time>2025-02-25T13:17:30Z</time>
      </trkpt>
      <trkpt lat="48.11301" lon="-3.55478">
        <ele>213.5</ele>
        <time>2025-02-25T13:17:31Z</time>
      </trkpt>
      <trkpt lat="48.11301" lon="-3.55476">
        <ele>213.5</ele>
        <time>2025-02-25T13:17:32Z</time>
      </trkpt>
      <trkpt lat="48.113" lon="-3.55475">
        <ele>213.5</ele>
        <time>2025-02-25T13:17:33Z</time>
      </trkpt>
      <trkpt lat="48.113" lon="-3.55473">
        <ele>213.6</ele>
        <time>2025-02-25T13:17:34Z</time>
      </trkpt>
      <trkpt lat="48.113" lon="-3.55474">
        <ele>213.5</ele>
        <time>2025-02-25T13:17:35Z</time>
      </trkpt>
      <trkpt lat="48.113" lon="-3.55473">
        <ele>213.6</ele>
        <time>2025-02-25T13:17:36Z</time>
      </trkpt>
      <trkpt lat="48.113" lon="-3.55471">
        <ele>213.6</ele>
        <time>2025-02-25T13:17:37Z</time>
      </trkpt>
      <trkpt lat="48.113" lon="-3.5547">
        <ele>213.7</ele>
        <time>2025-02-25T13:17:38Z</time>
      </trkpt>
      <trkpt lat="48.113" lon="-3.55468">
        <ele>213.8</ele>
        <time>2025-02-25T13:17:39Z</time>
      </trkpt>
      <trkpt lat="48.113" lon="-3.55467">
        <ele>213.8</ele>
        <time>2025-02-25T13:17:40Z</time>
      </trkpt>
      <trkpt lat="48.113" lon="-3.55465">
        <ele>213.9</ele>
        <time>2025-02-25T13:17:41Z</time>
      </trkpt>
      <trkpt lat="48.11301" lon="-3.55464">
        <ele>214</ele>
        <time>2025-02-25T13:17:42Z</time>
      </trkpt>
      <trkpt lat="48.11301" lon="-3.55463">
        <ele>214</ele>
        <time>2025-02-25T13:17:43Z</time>
      </trkpt>
      <trkpt lat="48.11301" lon="-3.55461">
        <ele>214.1</ele>
        <time>2025-02-25T13:17:44Z</time>
      </trkpt>
      <trkpt lat="48.11301" lon="-3.5546">
        <ele>214.1</ele>
        <time>2025-02-25T13:17:45Z</time>
      </trkpt>
      <trkpt lat="48.11302" lon="-3.55459">
        <ele>214.2</ele>
        <time>2025-02-25T13:17:46Z</time>
      </trkpt>
      <trkpt lat="48.11303" lon="-3.55458">
        <ele>214.3</ele>
        <time>2025-02-25T13:17:47Z</time>
      </trkpt>
      <trkpt lat="48.11303" lon="-3.55457">
        <ele>214.4</ele>
        <time>2025-02-25T13:17:48Z</time>
      </trkpt>
      <trkpt lat="48.11304" lon="-3.55456">
        <ele>214.5</ele>
        <time>2025-02-25T13:17:49Z</time>
      </trkpt>
      <trkpt lat="48.11304" lon="-3.55455">
        <ele>214.5</ele>
        <time>2025-02-25T13:17:50Z</time>
      </trkpt>
      <trkpt lat="48.11304" lon="-3.55454">
        <ele>214.5</ele>
        <time>2025-02-25T13:17:51Z</time>
      </trkpt>
      <trkpt lat="48.11305" lon="-3.55453">
        <ele>214.7</ele>
        <time>2025-02-25T13:17:52Z</time>
      </trkpt>
      <trkpt lat="48.11305" lon="-3.55451">
        <ele>214.7</ele>
        <time>2025-02-25T13:17:53Z</time>
      </trkpt>
      <trkpt lat="48.11305" lon="-3.55449">
        <ele>214.8</ele>
        <time>2025-02-25T13:17:54Z</time>
      </trkpt>
      <trkpt lat="48.11305" lon="-3.55448">
        <ele>214.8</ele>
        <time>2025-02-25T13:17:55Z</time>
      </trkpt>
      <trkpt lat="48.11306" lon="-3.55446">
        <ele>215</ele>
        <time>2025-02-25T13:17:56Z</time>
      </trkpt>
      <trkpt lat="48.11306" lon="-3.55445">
        <ele>215</ele>
        <time>2025-02-25T13:17:57Z</time>
      </trkpt>
      <trkpt lat="48.11306" lon="-3.55444">
        <ele>215</ele>
        <time>2025-02-25T13:17:58Z</time>
      </trkpt>
      <trkpt lat="48.11307" lon="-3.55442">
        <ele>215.1</ele>
        <time>2025-02-25T13:17:59Z</time>
      </trkpt>
      <trkpt lat="48.11307" lon="-3.55441">
        <ele>215.1</ele>
        <time>2025-02-25T13:18:00Z</time>
      </trkpt>
      <trkpt lat="48.11307" lon="-3.5544">
        <ele>215.1</ele>
        <time>2025-02-25T13:18:01Z</time>
      </trkpt>
      <trkpt lat="48.11307" lon="-3.55439">
        <ele>215.1</ele>
        <time>2025-02-25T13:18:02Z</time>
      </trkpt>
      <trkpt lat="48.11307" lon="-3.55437">
        <ele>215.1</ele>
        <time>2025-02-25T13:18:03Z</time>
      </trkpt>
      <trkpt lat="48.11307" lon="-3.55436">
        <ele>215.1</ele>
        <time>2025-02-25T13:18:04Z</time>
      </trkpt>
      <trkpt lat="48.11307" lon="-3.55434">
        <ele>215.1</ele>
        <time>2025-02-25T13:18:05Z</time>
      </trkpt>
      <trkpt lat="48.11307" lon="-3.55432">
        <ele>215.1</ele>
        <time>2025-02-25T13:18:06Z</time>
      </trkpt>
      <trkpt lat="48.11307" lon="-3.55431">
        <ele>215.1</ele>
        <time>2025-02-25T13:18:07Z</time>
      </trkpt>
      <trkpt lat="48.11307" lon="-3.55429">
        <ele>215.1</ele>
        <time>2025-02-25T13:18:08Z</time>
      </trkpt>
      <trkpt lat="48.11308" lon="-3.55427">
        <ele>215.2</ele>
        <time>2025-02-25T13:18:09Z</time>
      </trkpt>
      <trkpt lat="48.11308" lon="-3.55426">
        <ele>215.2</ele>
        <time>2025-02-25T13:18:10Z</time>
      </trkpt>
      <trkpt lat="48.11308" lon="-3.55424">
        <ele>215.2</ele>
        <time>2025-02-25T13:18:11Z</time>
      </trkpt>
      <trkpt lat="48.11308" lon="-3.55422">
        <ele>215.2</ele>
        <time>2025-02-25T13:18:12Z</time>
      </trkpt>
      <trkpt lat="48.11308" lon="-3.55421">
        <ele>215.2</ele>
        <time>2025-02-25T13:18:13Z</time>
      </trkpt>
      <trkpt lat="48.11308" lon="-3.55419">
        <ele>215.2</ele>
        <time>2025-02-25T13:18:14Z</time>
      </trkpt>
      <trkpt lat="48.11309" lon="-3.55417">
        <ele>215.2</ele>
        <time>2025-02-25T13:18:15Z</time>
      </trkpt>
      <trkpt lat="48.11309" lon="-3.55415">
        <ele>215.2</ele>
        <time>2025-02-25T13:18:16Z</time>
      </trkpt>
      <trkpt lat="48.11309" lon="-3.55414">
        <ele>215.2</ele>
        <time>2025-02-25T13:18:17Z</time>
      </trkpt>
      <trkpt lat="48.11309" lon="-3.55412">
        <ele>215.2</ele>
        <time>2025-02-25T13:18:18Z</time>
      </trkpt>
      <trkpt lat="48.11308" lon="-3.5541">
        <ele>215.2</ele>
        <time>2025-02-25T13:18:19Z</time>
      </trkpt>
      <trkpt lat="48.11308" lon="-3.55408">
        <ele>215.2</ele>
        <time>2025-02-25T13:18:20Z</time>
      </trkpt>
      <trkpt lat="48.11308" lon="-3.55407">
        <ele>215.2</ele>
        <time>2025-02-25T13:18:21Z</time>
      </trkpt>
      <trkpt lat="48.11308" lon="-3.55405">
        <ele>215.2</ele>
        <time>2025-02-25T13:18:22Z</time>
      </trkpt>
      <trkpt lat="48.11309" lon="-3.55404">
        <ele>215.2</ele>
        <time>2025-02-25T13:18:23Z</time>
      </trkpt>
      <trkpt lat="48.11309" lon="-3.55402">
        <ele>215.2</ele>
        <time>2025-02-25T13:18:24Z</time>
      </trkpt>
      <trkpt lat="48.11308" lon="-3.55401">
        <ele>215.2</ele>
        <time>2025-02-25T13:18:25Z</time>
      </trkpt>
      <trkpt lat="48.11309" lon="-3.55399">
        <ele>215.2</ele>
        <time>2025-02-25T13:18:26Z</time>
      </trkpt>
      <trkpt lat="48.11309" lon="-3.55398">
        <ele>215.2</ele>
        <time>2025-02-25T13:18:27Z</time>
      </trkpt>
      <trkpt lat="48.1131" lon="-3.55396">
        <ele>215.3</ele>
        <time>2025-02-25T13:18:28Z</time>
      </trkpt>
      <trkpt lat="48.1131" lon="-3.55395">
        <ele>215.3</ele>
        <time>2025-02-25T13:18:29Z</time>
      </trkpt>
      <trkpt lat="48.1131" lon="-3.55393">
        <ele>215.3</ele>
        <time>2025-02-25T13:18:30Z</time>
      </trkpt>
      <trkpt lat="48.11311" lon="-3.55392">
        <ele>215.4</ele>
        <time>2025-02-25T13:18:31Z</time>
      </trkpt>
      <trkpt lat="48.11312" lon="-3.55392">
        <ele>215.5</ele>
        <time>2025-02-25T13:18:32Z</time>
      </trkpt>
      <trkpt lat="48.11312" lon="-3.55391">
        <ele>215.5</ele>
        <time>2025-02-25T13:18:33Z</time>
      </trkpt>
      <trkpt lat="48.11313" lon="-3.5539">
        <ele>215.5</ele>
        <time>2025-02-25T13:18:34Z</time>
      </trkpt>
      <trkpt lat="48.11313" lon="-3.55389">
        <ele>215.5</ele>
        <time>2025-02-25T13:18:35Z</time>
      </trkpt>
      <trkpt lat="48.11314" lon="-3.55388">
        <ele>215.6</ele>
        <time>2025-02-25T13:18:36Z</time>
      </trkpt>
      <trkpt lat="48.11314" lon="-3.55387">
        <ele>215.6</ele>
        <time>2025-02-25T13:18:37Z</time>
      </trkpt>
      <trkpt lat="48.11315" lon="-3.55386">
        <ele>215.6</ele>
        <time>2025-02-25T13:18:38Z</time>
      </trkpt>
      <trkpt lat="48.11315" lon="-3.55384">
        <ele>215.6</ele>
        <time>2025-02-25T13:18:39Z</time>
      </trkpt>
      <trkpt lat="48.11315" lon="-3.55383">
        <ele>215.6</ele>
        <time>2025-02-25T13:18:40Z</time>
      </trkpt>
      <trkpt lat="48.11316" lon="-3.55382">
        <ele>215.7</ele>
        <time>2025-02-25T13:18:41Z</time>
      </trkpt>
      <trkpt lat="48.11316" lon="-3.55381">
        <ele>215.6</ele>
        <time>2025-02-25T13:18:42Z</time>
      </trkpt>
      <trkpt lat="48.11317" lon="-3.5538">
        <ele>215.7</ele>
        <time>2025-02-25T13:18:43Z</time>
      </trkpt>
      <trkpt lat="48.11317" lon="-3.55378">
        <ele>215.7</ele>
        <time>2025-02-25T13:18:44Z</time>
      </trkpt>
      <trkpt lat="48.11317" lon="-3.55376">
        <ele>215.6</ele>
        <time>2025-02-25T13:18:45Z</time>
      </trkpt>
      <trkpt lat="48.11318" lon="-3.55375">
        <ele>215.7</ele>
        <time>2025-02-25T13:18:46Z</time>
      </trkpt>
      <trkpt lat="48.11318" lon="-3.55374">
        <ele>215.7</ele>
        <time>2025-02-25T13:18:47Z</time>
      </trkpt>
      <trkpt lat="48.11319" lon="-3.55373">
        <ele>215.7</ele>
        <time>2025-02-25T13:18:48Z</time>
      </trkpt>
      <trkpt lat="48.1132" lon="-3.55372">
        <ele>215.7</ele>
        <time>2025-02-25T13:18:49Z</time>
      </trkpt>
      <trkpt lat="48.1132" lon="-3.55371">
        <ele>215.7</ele>
        <time>2025-02-25T13:18:50Z</time>
      </trkpt>
      <trkpt lat="48.11321" lon="-3.5537">
        <ele>215.7</ele>
        <time>2025-02-25T13:18:51Z</time>
      </trkpt>
      <trkpt lat="48.11322" lon="-3.55369">
        <ele>215.8</ele>
        <time>2025-02-25T13:18:52Z</time>
      </trkpt>
      <trkpt lat="48.11322" lon="-3.55368">
        <ele>215.7</ele>
        <time>2025-02-25T13:18:53Z</time>
      </trkpt>
      <trkpt lat="48.11322" lon="-3.55366">
        <ele>215.7</ele>
        <time>2025-02-25T13:18:54Z</time>
      </trkpt>
      <trkpt lat="48.11322" lon="-3.55364">
        <ele>215.7</ele>
        <time>2025-02-25T13:18:55Z</time>
      </trkpt>
      <trkpt lat="48.11322" lon="-3.55362">
        <ele>215.6</ele>
        <time>2025-02-25T13:18:56Z</time>
      </trkpt>
      <trkpt lat="48.11322" lon="-3.55361">
        <ele>215.6</ele>
        <time>2025-02-25T13:18:57Z</time>
      </trkpt>
      <trkpt lat="48.11323" lon="-3.5536">
        <ele>215.6</ele>
        <time>2025-02-25T13:18:58Z</time>
      </trkpt>
      <trkpt lat="48.11324" lon="-3.55358">
        <ele>215.7</ele>
        <time>2025-02-25T13:18:59Z</time>
      </trkpt>
      <trkpt lat="48.11324" lon="-3.55357">
        <ele>215.7</ele>
        <time>2025-02-25T13:19:00Z</time>
      </trkpt>
      <trkpt lat="48.11325" lon="-3.55355">
        <ele>215.7</ele>
        <time>2025-02-25T13:19:01Z</time>
      </trkpt>
      <trkpt lat="48.11325" lon="-3.55353">
        <ele>215.7</ele>
        <time>2025-02-25T13:19:02Z</time>
      </trkpt>
      <trkpt lat="48.11325" lon="-3.55351">
        <ele>215.7</ele>
        <time>2025-02-25T13:19:03Z</time>
      </trkpt>
      <trkpt lat="48.11325" lon="-3.55349">
        <ele>215.7</ele>
        <time>2025-02-25T13:19:04Z</time>
      </trkpt>
      <trkpt lat="48.11325" lon="-3.55348">
        <ele>215.7</ele>
        <time>2025-02-25T13:19:05Z</time>
      </trkpt>
      <trkpt lat="48.11325" lon="-3.55346">
        <ele>215.7</ele>
        <time>2025-02-25T13:19:06Z</time>
      </trkpt>
      <trkpt lat="48.11326" lon="-3.55345">
        <ele>215.7</ele>
        <time>2025-02-25T13:19:07Z</time>
      </trkpt>
      <trkpt lat="48.11326" lon="-3.55344">
        <ele>215.7</ele>
        <time>2025-02-25T13:19:08Z</time>
      </trkpt>
      <trkpt lat="48.11326" lon="-3.55343">
        <ele>215.7</ele>
        <time>2025-02-25T13:19:09Z</time>
      </trkpt>
      <trkpt lat="48.11326" lon="-3.55341">
        <ele>215.7</ele>
        <time>2025-02-25T13:19:10Z</time>
      </trkpt>
      <trkpt lat="48.11326" lon="-3.5534">
        <ele>215.7</ele>
        <time>2025-02-25T13:19:11Z</time>
      </trkpt>
      <trkpt lat="48.11326" lon="-3.55338">
        <ele>215.7</ele>
        <time>2025-02-25T13:19:12Z</time>
      </trkpt>
      <trkpt lat="48.11327" lon="-3.55337">
        <ele>215.8</ele>
        <time>2025-02-25T13:19:13Z</time>
      </trkpt>
      <trkpt lat="48.11327" lon="-3.55336">
        <ele>215.8</ele>
        <time>2025-02-25T13:19:14Z</time>
      </trkpt>
      <trkpt lat="48.11327" lon="-3.55334">
        <ele>215.8</ele>
        <time>2025-02-25T13:19:15Z</time>
      </trkpt>
      <trkpt lat="48.11327" lon="-3.55332">
        <ele>215.7</ele>
        <time>2025-02-25T13:19:16Z</time>
      </trkpt>
      <trkpt lat="48.11327" lon="-3.55331">
        <ele>215.7</ele>
        <time>2025-02-25T13:19:17Z</time>
      </trkpt>
      <trkpt lat="48.11328" lon="-3.5533">
        <ele>215.7</ele>
        <time>2025-02-25T13:19:18Z</time>
      </trkpt>
      <trkpt lat="48.11328" lon="-3.55329">
        <ele>215.7</ele>
        <time>2025-02-25T13:19:19Z</time>
      </trkpt>
      <trkpt lat="48.11328" lon="-3.55327">
        <ele>215.6</ele>
        <time>2025-02-25T13:19:20Z</time>
      </trkpt>
      <trkpt lat="48.11328" lon="-3.55326">
        <ele>215.6</ele>
        <time>2025-02-25T13:19:21Z</time>
      </trkpt>
      <trkpt lat="48.11328" lon="-3.55324">
        <ele>215.5</ele>
        <time>2025-02-25T13:19:22Z</time>
      </trkpt>
      <trkpt lat="48.11328" lon="-3.55323">
        <ele>215.5</ele>
        <time>2025-02-25T13:19:23Z</time>
      </trkpt>
      <trkpt lat="48.11328" lon="-3.55322">
        <ele>215.5</ele>
        <time>2025-02-25T13:19:24Z</time>
      </trkpt>
      <trkpt lat="48.11328" lon="-3.5532">
        <ele>215.4</ele>
        <time>2025-02-25T13:19:25Z</time>
      </trkpt>
      <trkpt lat="48.11329" lon="-3.5532">
        <ele>215.4</ele>
        <time>2025-02-25T13:19:26Z</time>
      </trkpt>
      <trkpt lat="48.11329" lon="-3.55318">
        <ele>215.4</ele>
        <time>2025-02-25T13:19:27Z</time>
      </trkpt>
      <trkpt lat="48.11328" lon="-3.55317">
        <ele>215.3</ele>
        <time>2025-02-25T13:19:28Z</time>
      </trkpt>
      <trkpt lat="48.11329" lon="-3.55315">
        <ele>215.3</ele>
        <time>2025-02-25T13:19:29Z</time>
      </trkpt>
      <trkpt lat="48.11329" lon="-3.55313">
        <ele>215.2</ele>
        <time>2025-02-25T13:19:30Z</time>
      </trkpt>
      <trkpt lat="48.11329" lon="-3.55312">
        <ele>215.2</ele>
        <time>2025-02-25T13:19:31Z</time>
      </trkpt>
      <trkpt lat="48.11329" lon="-3.5531">
        <ele>215.1</ele>
        <time>2025-02-25T13:19:32Z</time>
      </trkpt>
      <trkpt lat="48.11329" lon="-3.55309">
        <ele>215.1</ele>
        <time>2025-02-25T13:19:33Z</time>
      </trkpt>
      <trkpt lat="48.11329" lon="-3.55307">
        <ele>215</ele>
        <time>2025-02-25T13:19:34Z</time>
      </trkpt>
      <trkpt lat="48.1133" lon="-3.55306">
        <ele>215</ele>
        <time>2025-02-25T13:19:35Z</time>
      </trkpt>
      <trkpt lat="48.11331" lon="-3.55305">
        <ele>215</ele>
        <time>2025-02-25T13:19:36Z</time>
      </trkpt>
      <trkpt lat="48.11331" lon="-3.55303">
        <ele>214.9</ele>
        <time>2025-02-25T13:19:37Z</time>
      </trkpt>
      <trkpt lat="48.11331" lon="-3.55302">
        <ele>214.9</ele>
        <time>2025-02-25T13:19:38Z</time>
      </trkpt>
      <trkpt lat="48.11331" lon="-3.553">
        <ele>214.8</ele>
        <time>2025-02-25T13:19:39Z</time>
      </trkpt>
      <trkpt lat="48.11331" lon="-3.55299">
        <ele>214.8</ele>
        <time>2025-02-25T13:19:40Z</time>
      </trkpt>
      <trkpt lat="48.11331" lon="-3.55297">
        <ele>214.7</ele>
        <time>2025-02-25T13:19:41Z</time>
      </trkpt>
      <trkpt lat="48.11332" lon="-3.55296">
        <ele>214.7</ele>
        <time>2025-02-25T13:19:42Z</time>
      </trkpt>
      <trkpt lat="48.11332" lon="-3.55295">
        <ele>214.6</ele>
        <time>2025-02-25T13:19:43Z</time>
      </trkpt>
      <trkpt lat="48.11333" lon="-3.55293">
        <ele>214.5</ele>
        <time>2025-02-25T13:19:44Z</time>
      </trkpt>
      <trkpt lat="48.11333" lon="-3.55292">
        <ele>214.5</ele>
        <time>2025-02-25T13:19:45Z</time>
      </trkpt>
      <trkpt lat="48.11333" lon="-3.5529">
        <ele>214.4</ele>
        <time>2025-02-25T13:19:46Z</time>
      </trkpt>
      <trkpt lat="48.11333" lon="-3.55289">
        <ele>214.4</ele>
        <time>2025-02-25T13:19:47Z</time>
      </trkpt>
      <trkpt lat="48.11332" lon="-3.55287">
        <ele>214.3</ele>
        <time>2025-02-25T13:19:48Z</time>
      </trkpt>
      <trkpt lat="48.11332" lon="-3.55286">
        <ele>214.3</ele>
        <time>2025-02-25T13:19:49Z</time>
      </trkpt>
      <trkpt lat="48.11332" lon="-3.55284">
        <ele>214.2</ele>
        <time>2025-02-25T13:19:50Z</time>
      </trkpt>
      <trkpt lat="48.11332" lon="-3.55283">
        <ele>214.2</ele>
        <time>2025-02-25T13:19:51Z</time>
      </trkpt>
      <trkpt lat="48.11332" lon="-3.55281">
        <ele>214.1</ele>
        <time>2025-02-25T13:19:52Z</time>
      </trkpt>
      <trkpt lat="48.11331" lon="-3.5528">
        <ele>214.1</ele>
        <time>2025-02-25T13:19:53Z</time>
      </trkpt>
      <trkpt lat="48.11331" lon="-3.55278">
        <ele>214</ele>
        <time>2025-02-25T13:19:54Z</time>
      </trkpt>
      <trkpt lat="48.11331" lon="-3.55276">
        <ele>213.9</ele>
        <time>2025-02-25T13:19:55Z</time>
      </trkpt>
      <trkpt lat="48.1133" lon="-3.55275">
        <ele>213.9</ele>
        <time>2025-02-25T13:19:56Z</time>
      </trkpt>
      <trkpt lat="48.1133" lon="-3.55274">
        <ele>213.9</ele>
        <time>2025-02-25T13:19:57Z</time>
      </trkpt>
      <trkpt lat="48.11329" lon="-3.55273">
        <ele>213.8</ele>
        <time>2025-02-25T13:19:58Z</time>
      </trkpt>
      <trkpt lat="48.11329" lon="-3.55272">
        <ele>213.8</ele>
        <time>2025-02-25T13:19:59Z</time>
      </trkpt>
      <trkpt lat="48.11328" lon="-3.5527">
        <ele>213.7</ele>
        <time>2025-02-25T13:20:00Z</time>
      </trkpt>
      <trkpt lat="48.11328" lon="-3.55268">
        <ele>213.6</ele>
        <time>2025-02-25T13:20:01Z</time>
      </trkpt>
      <trkpt lat="48.11327" lon="-3.55267">
        <ele>213.6</ele>
        <time>2025-02-25T13:20:02Z</time>
      </trkpt>
      <trkpt lat="48.11326" lon="-3.55265">
        <ele>213.5</ele>
        <time>2025-02-25T13:20:03Z</time>
      </trkpt>
      <trkpt lat="48.11325" lon="-3.55264">
        <ele>213.5</ele>
        <time>2025-02-25T13:20:04Z</time>
      </trkpt>
      <trkpt lat="48.11325" lon="-3.55263">
        <ele>213.5</ele>
        <time>2025-02-25T13:20:05Z</time>
      </trkpt>
      <trkpt lat="48.11325" lon="-3.55262">
        <ele>213.4</ele>
        <time>2025-02-25T13:20:06Z</time>
      </trkpt>
      <trkpt lat="48.11324" lon="-3.55261">
        <ele>213.4</ele>
        <time>2025-02-25T13:20:07Z</time>
      </trkpt>
      <trkpt lat="48.11323" lon="-3.5526">
        <ele>213.4</ele>
        <time>2025-02-25T13:20:08Z</time>
      </trkpt>
      <trkpt lat="48.11323" lon="-3.55259">
        <ele>213.3</ele>
        <time>2025-02-25T13:20:09Z</time>
      </trkpt>
      <trkpt lat="48.11322" lon="-3.55257">
        <ele>213.3</ele>
        <time>2025-02-25T13:20:10Z</time>
      </trkpt>
      <trkpt lat="48.11322" lon="-3.55256">
        <ele>213.2</ele>
        <time>2025-02-25T13:20:11Z</time>
      </trkpt>
      <trkpt lat="48.11321" lon="-3.55255">
        <ele>213.2</ele>
        <time>2025-02-25T13:20:12Z</time>
      </trkpt>
      <trkpt lat="48.1132" lon="-3.55254">
        <ele>213.1</ele>
        <time>2025-02-25T13:20:13Z</time>
      </trkpt>
      <trkpt lat="48.1132" lon="-3.55253">
        <ele>213.1</ele>
        <time>2025-02-25T13:20:14Z</time>
      </trkpt>
      <trkpt lat="48.11319" lon="-3.55252">
        <ele>213.1</ele>
        <time>2025-02-25T13:20:15Z</time>
      </trkpt>
      <trkpt lat="48.11319" lon="-3.55251">
        <ele>213</ele>
        <time>2025-02-25T13:20:16Z</time>
      </trkpt>
      <trkpt lat="48.11319" lon="-3.5525">
        <ele>213</ele>
        <time>2025-02-25T13:20:17Z</time>
      </trkpt>
      <trkpt lat="48.11318" lon="-3.55249">
        <ele>213</ele>
        <time>2025-02-25T13:20:18Z</time>
      </trkpt>
      <trkpt lat="48.11317" lon="-3.55249">
        <ele>213</ele>
        <time>2025-02-25T13:20:19Z</time>
      </trkpt>
      <trkpt lat="48.11316" lon="-3.55248">
        <ele>212.9</ele>
        <time>2025-02-25T13:20:20Z</time>
      </trkpt>
      <trkpt lat="48.11316" lon="-3.55247">
        <ele>212.9</ele>
        <time>2025-02-25T13:20:21Z</time>
      </trkpt>
      <trkpt lat="48.11316" lon="-3.55246">
        <ele>212.9</ele>
        <time>2025-02-25T13:20:22Z</time>
      </trkpt>
      <trkpt lat="48.11316" lon="-3.55245">
        <ele>212.8</ele>
        <time>2025-02-25T13:20:23Z</time>
      </trkpt>
      <trkpt lat="48.11315" lon="-3.55244">
        <ele>212.8</ele>
        <time>2025-02-25T13:20:24Z</time>
      </trkpt>
      <trkpt lat="48.11315" lon="-3.55243">
        <ele>212.7</ele>
        <time>2025-02-25T13:20:25Z</time>
      </trkpt>
      <trkpt lat="48.11315" lon="-3.55242">
        <ele>212.7</ele>
        <time>2025-02-25T13:20:26Z</time>
      </trkpt>
      <trkpt lat="48.11314" lon="-3.55241">
        <ele>212.7</ele>
        <time>2025-02-25T13:20:27Z</time>
      </trkpt>
      <trkpt lat="48.11314" lon="-3.5524">
        <ele>212.6</ele>
        <time>2025-02-25T13:20:28Z</time>
      </trkpt>
      <trkpt lat="48.11314" lon="-3.55239">
        <ele>212.6</ele>
        <time>2025-02-25T13:20:29Z</time>
      </trkpt>
      <trkpt lat="48.11313" lon="-3.55238">
        <ele>212.6</ele>
        <time>2025-02-25T13:20:30Z</time>
      </trkpt>
      <trkpt lat="48.11313" lon="-3.55238">
        <ele>212.6</ele>
        <time>2025-02-25T13:20:31Z</time>
      </trkpt>
      <trkpt lat="48.11313" lon="-3.55236">
        <ele>212.5</ele>
        <time>2025-02-25T13:20:32Z</time>
      </trkpt>
      <trkpt lat="48.11312" lon="-3.55235">
        <ele>212.5</ele>
        <time>2025-02-25T13:20:33Z</time>
      </trkpt>
      <trkpt lat="48.11311" lon="-3.55234">
        <ele>212.4</ele>
        <time>2025-02-25T13:20:34Z</time>
      </trkpt>
      <trkpt lat="48.11311" lon="-3.55233">
        <ele>212.4</ele>
        <time>2025-02-25T13:20:35Z</time>
      </trkpt>
      <trkpt lat="48.11311" lon="-3.55231">
        <ele>212.3</ele>
        <time>2025-02-25T13:20:36Z</time>
      </trkpt>
      <trkpt lat="48.11311" lon="-3.5523">
        <ele>212.3</ele>
        <time>2025-02-25T13:20:37Z</time>
      </trkpt>
      <trkpt lat="48.11311" lon="-3.55229">
        <ele>212.2</ele>
        <time>2025-02-25T13:20:38Z</time>
      </trkpt>
      <trkpt lat="48.1131" lon="-3.55228">
        <ele>212.2</ele>
        <time>2025-02-25T13:20:39Z</time>
      </trkpt>
      <trkpt lat="48.1131" lon="-3.55226">
        <ele>212.1</ele>
        <time>2025-02-25T13:20:40Z</time>
      </trkpt>
      <trkpt lat="48.1131" lon="-3.55225">
        <ele>212.1</ele>
        <time>2025-02-25T13:20:41Z</time>
      </trkpt>
      <trkpt lat="48.11309" lon="-3.55223">
        <ele>212</ele>
        <time>2025-02-25T13:20:42Z</time>
      </trkpt>
      <trkpt lat="48.11309" lon="-3.55222">
        <ele>212</ele>
        <time>2025-02-25T13:20:43Z</time>
      </trkpt>
      <trkpt lat="48.11309" lon="-3.5522">
        <ele>211.8</ele>
        <time>2025-02-25T13:20:44Z</time>
      </trkpt>
      <trkpt lat="48.11309" lon="-3.55219">
        <ele>211.8</ele>
        <time>2025-02-25T13:20:45Z</time>
      </trkpt>
      <trkpt lat="48.11308" lon="-3.55218">
        <ele>211.7</ele>
        <time>2025-02-25T13:20:46Z</time>
      </trkpt>
      <trkpt lat="48.11308" lon="-3.55216">
        <ele>211.5</ele>
        <time>2025-02-25T13:20:47Z</time>
      </trkpt>
      <trkpt lat="48.11308" lon="-3.55215">
        <ele>211.5</ele>
        <time>2025-02-25T13:20:48Z</time>
      </trkpt>
      <trkpt lat="48.11308" lon="-3.55213">
        <ele>211.3</ele>
        <time>2025-02-25T13:20:49Z</time>
      </trkpt>
      <trkpt lat="48.11307" lon="-3.55212">
        <ele>211.2</ele>
        <time>2025-02-25T13:20:50Z</time>
      </trkpt>
      <trkpt lat="48.11306" lon="-3.5521">
        <ele>211.1</ele>
        <time>2025-02-25T13:20:51Z</time>
      </trkpt>
      <trkpt lat="48.11306" lon="-3.55209">
        <ele>211</ele>
        <time>2025-02-25T13:20:52Z</time>
      </trkpt>
      <trkpt lat="48.11305" lon="-3.55208">
        <ele>211</ele>
        <time>2025-02-25T13:20:53Z</time>
      </trkpt>
      <trkpt lat="48.11304" lon="-3.55207">
        <ele>210.9</ele>
        <time>2025-02-25T13:20:54Z</time>
      </trkpt>
      <trkpt lat="48.11304" lon="-3.55206">
        <ele>210.8</ele>
        <time>2025-02-25T13:20:55Z</time>
      </trkpt>
      <trkpt lat="48.11304" lon="-3.55204">
        <ele>210.7</ele>
        <time>2025-02-25T13:20:56Z</time>
      </trkpt>
      <trkpt lat="48.11303" lon="-3.55203">
        <ele>210.6</ele>
        <time>2025-02-25T13:20:57Z</time>
      </trkpt>
      <trkpt lat="48.11303" lon="-3.55202">
        <ele>210.5</ele>
        <time>2025-02-25T13:20:58Z</time>
      </trkpt>
      <trkpt lat="48.11303" lon="-3.552">
        <ele>210.4</ele>
        <time>2025-02-25T13:20:59Z</time>
      </trkpt>
      <trkpt lat="48.11302" lon="-3.55199">
        <ele>210.3</ele>
        <time>2025-02-25T13:21:00Z</time>
      </trkpt>
      <trkpt lat="48.11302" lon="-3.55197">
        <ele>210.2</ele>
        <time>2025-02-25T13:21:01Z</time>
      </trkpt>
      <trkpt lat="48.11302" lon="-3.55196">
        <ele>210.1</ele>
        <time>2025-02-25T13:21:02Z</time>
      </trkpt>
      <trkpt lat="48.11301" lon="-3.55195">
        <ele>210</ele>
        <time>2025-02-25T13:21:03Z</time>
      </trkpt>
      <trkpt lat="48.113" lon="-3.55194">
        <ele>210</ele>
        <time>2025-02-25T13:21:04Z</time>
      </trkpt>
      <trkpt lat="48.11299" lon="-3.55193">
        <ele>209.8</ele>
        <time>2025-02-25T13:21:05Z</time>
      </trkpt>
      <trkpt lat="48.11299" lon="-3.55192">
        <ele>209.7</ele>
        <time>2025-02-25T13:21:06Z</time>
      </trkpt>
      <trkpt lat="48.11298" lon="-3.5519">
        <ele>209.5</ele>
        <time>2025-02-25T13:21:07Z</time>
      </trkpt>
      <trkpt lat="48.11297" lon="-3.55189">
        <ele>209.4</ele>
        <time>2025-02-25T13:21:08Z</time>
      </trkpt>
      <trkpt lat="48.11296" lon="-3.55188">
        <ele>209.3</ele>
        <time>2025-02-25T13:21:09Z</time>
      </trkpt>
      <trkpt lat="48.11296" lon="-3.55187">
        <ele>209.2</ele>
        <time>2025-02-25T13:21:10Z</time>
      </trkpt>
      <trkpt lat="48.11295" lon="-3.55186">
        <ele>209.1</ele>
        <time>2025-02-25T13:21:11Z</time>
      </trkpt>
      <trkpt lat="48.11295" lon="-3.55185">
        <ele>209</ele>
        <time>2025-02-25T13:21:12Z</time>
      </trkpt>
      <trkpt lat="48.11294" lon="-3.55184">
        <ele>208.9</ele>
        <time>2025-02-25T13:21:13Z</time>
      </trkpt>
      <trkpt lat="48.11293" lon="-3.55183">
        <ele>208.8</ele>
        <time>2025-02-25T13:21:14Z</time>
      </trkpt>
      <trkpt lat="48.11292" lon="-3.55181">
        <ele>208.5</ele>
        <time>2025-02-25T13:21:15Z</time>
      </trkpt>
      <trkpt lat="48.11291" lon="-3.5518">
        <ele>208.4</ele>
        <time>2025-02-25T13:21:16Z</time>
      </trkpt>
      <trkpt lat="48.1129" lon="-3.55179">
        <ele>208.3</ele>
        <time>2025-02-25T13:21:17Z</time>
      </trkpt>
      <trkpt lat="48.11289" lon="-3.55179">
        <ele>208.3</ele>
        <time>2025-02-25T13:21:18Z</time>
      </trkpt>
      <trkpt lat="48.11288" lon="-3.55178">
        <ele>208.2</ele>
        <time>2025-02-25T13:21:19Z</time>
      </trkpt>
      <trkpt lat="48.11287" lon="-3.55177">
        <ele>208.1</ele>
        <time>2025-02-25T13:21:20Z</time>
      </trkpt>
      <trkpt lat="48.11287" lon="-3.55176">
        <ele>208</ele>
        <time>2025-02-25T13:21:21Z</time>
      </trkpt>
      <trkpt lat="48.11286" lon="-3.55175">
        <ele>207.9</ele>
        <time>2025-02-25T13:21:22Z</time>
      </trkpt>
      <trkpt lat="48.11285" lon="-3.55174">
        <ele>207.8</ele>
        <time>2025-02-25T13:21:23Z</time>
      </trkpt>
      <trkpt lat="48.11285" lon="-3.55172">
        <ele>207.6</ele>
        <time>2025-02-25T13:21:24Z</time>
      </trkpt>
      <trkpt lat="48.11283" lon="-3.55171">
        <ele>207.5</ele>
        <time>2025-02-25T13:21:25Z</time>
      </trkpt>
      <trkpt lat="48.11282" lon="-3.5517">
        <ele>207.4</ele>
        <time>2025-02-25T13:21:26Z</time>
      </trkpt>
      <trkpt lat="48.11282" lon="-3.5517">
        <ele>207.4</ele>
        <time>2025-02-25T13:21:27Z</time>
      </trkpt>
      <trkpt lat="48.11281" lon="-3.55169">
        <ele>207.3</ele>
        <time>2025-02-25T13:21:28Z</time>
      </trkpt>
      <trkpt lat="48.1128" lon="-3.55168">
        <ele>207.1</ele>
        <time>2025-02-25T13:21:29Z</time>
      </trkpt>
      <trkpt lat="48.11279" lon="-3.55166">
        <ele>206.9</ele>
        <time>2025-02-25T13:21:30Z</time>
      </trkpt>
      <trkpt lat="48.11278" lon="-3.55165">
        <ele>206.8</ele>
        <time>2025-02-25T13:21:31Z</time>
      </trkpt>
      <trkpt lat="48.11278" lon="-3.55164">
        <ele>206.7</ele>
        <time>2025-02-25T13:21:32Z</time>
      </trkpt>
      <trkpt lat="48.11276" lon="-3.55164">
        <ele>206.7</ele>
        <time>2025-02-25T13:21:33Z</time>
      </trkpt>
      <trkpt lat="48.11275" lon="-3.55165">
        <ele>206.8</ele>
        <time>2025-02-25T13:21:34Z</time>
      </trkpt>
      <trkpt lat="48.11274" lon="-3.55164">
        <ele>206.7</ele>
        <time>2025-02-25T13:21:35Z</time>
      </trkpt>
      <trkpt lat="48.11273" lon="-3.55163">
        <ele>206.6</ele>
        <time>2025-02-25T13:21:36Z</time>
      </trkpt>
      <trkpt lat="48.11272" lon="-3.55163">
        <ele>206.6</ele>
        <time>2025-02-25T13:21:37Z</time>
      </trkpt>
      <trkpt lat="48.11271" lon="-3.55162">
        <ele>206.5</ele>
        <time>2025-02-25T13:21:38Z</time>
      </trkpt>
      <trkpt lat="48.11271" lon="-3.55162">
        <ele>206.5</ele>
        <time>2025-02-25T13:21:39Z</time>
      </trkpt>
      <trkpt lat="48.1127" lon="-3.55162">
        <ele>206.5</ele>
        <time>2025-02-25T13:21:40Z</time>
      </trkpt>
      <trkpt lat="48.11269" lon="-3.55162">
        <ele>206.5</ele>
        <time>2025-02-25T13:21:41Z</time>
      </trkpt>
      <trkpt lat="48.11268" lon="-3.55161">
        <ele>206.4</ele>
        <time>2025-02-25T13:21:42Z</time>
      </trkpt>
      <trkpt lat="48.11267" lon="-3.5516">
        <ele>206.3</ele>
        <time>2025-02-25T13:21:43Z</time>
      </trkpt>
      <trkpt lat="48.11266" lon="-3.5516">
        <ele>206.3</ele>
        <time>2025-02-25T13:21:44Z</time>
      </trkpt>
      <trkpt lat="48.11265" lon="-3.55159">
        <ele>206.2</ele>
        <time>2025-02-25T13:21:45Z</time>
      </trkpt>
      <trkpt lat="48.11264" lon="-3.5516">
        <ele>206.3</ele>
        <time>2025-02-25T13:21:46Z</time>
      </trkpt>
      <trkpt lat="48.11263" lon="-3.55159">
        <ele>206.2</ele>
        <time>2025-02-25T13:21:47Z</time>
      </trkpt>
      <trkpt lat="48.11262" lon="-3.55159">
        <ele>206.2</ele>
        <time>2025-02-25T13:21:48Z</time>
      </trkpt>
      <trkpt lat="48.11261" lon="-3.55159">
        <ele>206.2</ele>
        <time>2025-02-25T13:21:49Z</time>
      </trkpt>
      <trkpt lat="48.1126" lon="-3.55157">
        <ele>206</ele>
        <time>2025-02-25T13:21:50Z</time>
      </trkpt>
      <trkpt lat="48.1126" lon="-3.55157">
        <ele>206</ele>
        <time>2025-02-25T13:21:51Z</time>
      </trkpt>
      <trkpt lat="48.11259" lon="-3.55156">
        <ele>205.8</ele>
        <time>2025-02-25T13:21:52Z</time>
      </trkpt>
      <trkpt lat="48.11258" lon="-3.55155">
        <ele>205.7</ele>
        <time>2025-02-25T13:21:53Z</time>
      </trkpt>
      <trkpt lat="48.11257" lon="-3.55155">
        <ele>205.7</ele>
        <time>2025-02-25T13:21:54Z</time>
      </trkpt>
      <trkpt lat="48.11256" lon="-3.55155">
        <ele>205.7</ele>
        <time>2025-02-25T13:21:55Z</time>
      </trkpt>
      <trkpt lat="48.11255" lon="-3.55154">
        <ele>205.6</ele>
        <time>2025-02-25T13:21:56Z</time>
      </trkpt>
      <trkpt lat="48.11254" lon="-3.55154">
        <ele>205.6</ele>
        <time>2025-02-25T13:21:57Z</time>
      </trkpt>
      <trkpt lat="48.11253" lon="-3.55154">
        <ele>205.6</ele>
        <time>2025-02-25T13:21:58Z</time>
      </trkpt>
      <trkpt lat="48.11252" lon="-3.55154">
        <ele>205.6</ele>
        <time>2025-02-25T13:21:59Z</time>
      </trkpt>
      <trkpt lat="48.11251" lon="-3.55154">
        <ele>205.6</ele>
        <time>2025-02-25T13:22:00Z</time>
      </trkpt>
      <trkpt lat="48.1125" lon="-3.55153">
        <ele>205.5</ele>
        <time>2025-02-25T13:22:01Z</time>
      </trkpt>
      <trkpt lat="48.11249" lon="-3.55152">
        <ele>205.4</ele>
        <time>2025-02-25T13:22:02Z</time>
      </trkpt>
      <trkpt lat="48.11248" lon="-3.55151">
        <ele>205.3</ele>
        <time>2025-02-25T13:22:03Z</time>
      </trkpt>
      <trkpt lat="48.11247" lon="-3.5515">
        <ele>205.2</ele>
        <time>2025-02-25T13:22:04Z</time>
      </trkpt>
      <trkpt lat="48.11246" lon="-3.55149">
        <ele>205.1</ele>
        <time>2025-02-25T13:22:05Z</time>
      </trkpt>
      <trkpt lat="48.11245" lon="-3.55149">
        <ele>205.1</ele>
        <time>2025-02-25T13:22:06Z</time>
      </trkpt>
      <trkpt lat="48.11244" lon="-3.55148">
        <ele>205</ele>
        <time>2025-02-25T13:22:07Z</time>
      </trkpt>
      <trkpt lat="48.11243" lon="-3.55147">
        <ele>204.9</ele>
        <time>2025-02-25T13:22:08Z</time>
      </trkpt>
      <trkpt lat="48.11242" lon="-3.55146">
        <ele>204.8</ele>
        <time>2025-02-25T13:22:09Z</time>
      </trkpt>
      <trkpt lat="48.11242" lon="-3.55145">
        <ele>204.7</ele>
        <time>2025-02-25T13:22:10Z</time>
      </trkpt>
      <trkpt lat="48.11241" lon="-3.55144">
        <ele>204.6</ele>
        <time>2025-02-25T13:22:11Z</time>
      </trkpt>
      <trkpt lat="48.1124" lon="-3.55144">
        <ele>204.6</ele>
        <time>2025-02-25T13:22:12Z</time>
      </trkpt>
      <trkpt lat="48.11239" lon="-3.55144">
        <ele>204.6</ele>
        <time>2025-02-25T13:22:13Z</time>
      </trkpt>
      <trkpt lat="48.11238" lon="-3.55143">
        <ele>204.4</ele>
        <time>2025-02-25T13:22:14Z</time>
      </trkpt>
      <trkpt lat="48.11238" lon="-3.55142">
        <ele>204.3</ele>
        <time>2025-02-25T13:22:15Z</time>
      </trkpt>
      <trkpt lat="48.11237" lon="-3.55141">
        <ele>204.2</ele>
        <time>2025-02-25T13:22:16Z</time>
      </trkpt>
      <trkpt lat="48.11236" lon="-3.55141">
        <ele>204.2</ele>
        <time>2025-02-25T13:22:17Z</time>
      </trkpt>
      <trkpt lat="48.11236" lon="-3.5514">
        <ele>204.1</ele>
        <time>2025-02-25T13:22:18Z</time>
      </trkpt>
      <trkpt lat="48.11235" lon="-3.55139">
        <ele>204</ele>
        <time>2025-02-25T13:22:19Z</time>
      </trkpt>
      <trkpt lat="48.11234" lon="-3.55138">
        <ele>203.9</ele>
        <time>2025-02-25T13:22:20Z</time>
      </trkpt>
      <trkpt lat="48.11234" lon="-3.55137">
        <ele>203.8</ele>
        <time>2025-02-25T13:22:21Z</time>
      </trkpt>
      <trkpt lat="48.11233" lon="-3.55135">
        <ele>203.7</ele>
        <time>2025-02-25T13:22:22Z</time>
      </trkpt>
      <trkpt lat="48.11232" lon="-3.55135">
        <ele>203.7</ele>
        <time>2025-02-25T13:22:23Z</time>
      </trkpt>
      <trkpt lat="48.11232" lon="-3.55134">
        <ele>203.6</ele>
        <time>2025-02-25T13:22:24Z</time>
      </trkpt>
      <trkpt lat="48.11231" lon="-3.55133">
        <ele>203.5</ele>
        <time>2025-02-25T13:22:25Z</time>
      </trkpt>
      <trkpt lat="48.1123" lon="-3.55132">
        <ele>203.4</ele>
        <time>2025-02-25T13:22:26Z</time>
      </trkpt>
      <trkpt lat="48.11229" lon="-3.55131">
        <ele>203.4</ele>
        <time>2025-02-25T13:22:27Z</time>
      </trkpt>
      <trkpt lat="48.11229" lon="-3.55131">
        <ele>203.4</ele>
        <time>2025-02-25T13:22:28Z</time>
      </trkpt>
      <trkpt lat="48.11228" lon="-3.5513">
        <ele>203.3</ele>
        <time>2025-02-25T13:22:29Z</time>
      </trkpt>
      <trkpt lat="48.11227" lon="-3.55129">
        <ele>203.2</ele>
        <time>2025-02-25T13:22:30Z</time>
      </trkpt>
      <trkpt lat="48.11227" lon="-3.55127">
        <ele>203.1</ele>
        <time>2025-02-25T13:22:31Z</time>
      </trkpt>
      <trkpt lat="48.11226" lon="-3.55126">
        <ele>203</ele>
        <time>2025-02-25T13:22:32Z</time>
      </trkpt>
      <trkpt lat="48.11225" lon="-3.55125">
        <ele>202.9</ele>
        <time>2025-02-25T13:22:33Z</time>
      </trkpt>
      <trkpt lat="48.11224" lon="-3.55124">
        <ele>202.9</ele>
        <time>2025-02-25T13:22:34Z</time>
      </trkpt>
      <trkpt lat="48.11223" lon="-3.55123">
        <ele>202.8</ele>
        <time>2025-02-25T13:22:35Z</time>
      </trkpt>
      <trkpt lat="48.11223" lon="-3.55122">
        <ele>202.8</ele>
        <time>2025-02-25T13:22:36Z</time>
      </trkpt>
      <trkpt lat="48.11222" lon="-3.55121">
        <ele>202.7</ele>
        <time>2025-02-25T13:22:37Z</time>
      </trkpt>
      <trkpt lat="48.11221" lon="-3.5512">
        <ele>202.7</ele>
        <time>2025-02-25T13:22:38Z</time>
      </trkpt>
      <trkpt lat="48.1122" lon="-3.55119">
        <ele>202.6</ele>
        <time>2025-02-25T13:22:39Z</time>
      </trkpt>
      <trkpt lat="48.11218" lon="-3.55118">
        <ele>202.6</ele>
        <time>2025-02-25T13:22:40Z</time>
      </trkpt>
      <trkpt lat="48.11217" lon="-3.55116">
        <ele>202.5</ele>
        <time>2025-02-25T13:22:41Z</time>
      </trkpt>
      <trkpt lat="48.11216" lon="-3.55115">
        <ele>202.5</ele>
        <time>2025-02-25T13:22:42Z</time>
      </trkpt>
      <trkpt lat="48.11215" lon="-3.55114">
        <ele>202.4</ele>
        <time>2025-02-25T13:22:43Z</time>
      </trkpt>
      <trkpt lat="48.11214" lon="-3.55113">
        <ele>202.4</ele>
        <time>2025-02-25T13:22:44Z</time>
      </trkpt>
      <trkpt lat="48.11213" lon="-3.55113">
        <ele>202.4</ele>
        <time>2025-02-25T13:22:45Z</time>
      </trkpt>
      <trkpt lat="48.11212" lon="-3.55112">
        <ele>202.4</ele>
        <time>2025-02-25T13:22:46Z</time>
      </trkpt>
      <trkpt lat="48.11211" lon="-3.55111">
        <ele>202.4</ele>
        <time>2025-02-25T13:22:47Z</time>
      </trkpt>
      <trkpt lat="48.11211" lon="-3.5511">
        <ele>202.3</ele>
        <time>2025-02-25T13:22:48Z</time>
      </trkpt>
      <trkpt lat="48.1121" lon="-3.55109">
        <ele>202.2</ele>
        <time>2025-02-25T13:22:49Z</time>
      </trkpt>
      <trkpt lat="48.11209" lon="-3.55108">
        <ele>202.1</ele>
        <time>2025-02-25T13:22:50Z</time>
      </trkpt>
      <trkpt lat="48.11208" lon="-3.55107">
        <ele>202.1</ele>
        <time>2025-02-25T13:22:51Z</time>
      </trkpt>
      <trkpt lat="48.11207" lon="-3.55107">
        <ele>202.1</ele>
        <time>2025-02-25T13:22:52Z</time>
      </trkpt>
      <trkpt lat="48.11207" lon="-3.55106">
        <ele>202</ele>
        <time>2025-02-25T13:22:53Z</time>
      </trkpt>
      <trkpt lat="48.11206" lon="-3.55105">
        <ele>202</ele>
        <time>2025-02-25T13:22:54Z</time>
      </trkpt>
      <trkpt lat="48.11205" lon="-3.55104">
        <ele>201.9</ele>
        <time>2025-02-25T13:22:55Z</time>
      </trkpt>
      <trkpt lat="48.11204" lon="-3.55103">
        <ele>201.9</ele>
        <time>2025-02-25T13:22:56Z</time>
      </trkpt>
      <trkpt lat="48.11204" lon="-3.55103">
        <ele>201.9</ele>
        <time>2025-02-25T13:22:57Z</time>
      </trkpt>
      <trkpt lat="48.11203" lon="-3.55101">
        <ele>201.7</ele>
        <time>2025-02-25T13:22:58Z</time>
      </trkpt>
      <trkpt lat="48.11202" lon="-3.551">
        <ele>201.7</ele>
        <time>2025-02-25T13:22:59Z</time>
      </trkpt>
      <trkpt lat="48.11201" lon="-3.55099">
        <ele>201.7</ele>
        <time>2025-02-25T13:23:00Z</time>
      </trkpt>
      <trkpt lat="48.11201" lon="-3.55098">
        <ele>201.6</ele>
        <time>2025-02-25T13:23:01Z</time>
      </trkpt>
      <trkpt lat="48.112" lon="-3.55096">
        <ele>201.5</ele>
        <time>2025-02-25T13:23:02Z</time>
      </trkpt>
      <trkpt lat="48.11199" lon="-3.55096">
        <ele>201.6</ele>
        <time>2025-02-25T13:23:03Z</time>
      </trkpt>
      <trkpt lat="48.11199" lon="-3.55094">
        <ele>201.4</ele>
        <time>2025-02-25T13:23:04Z</time>
      </trkpt>
      <trkpt lat="48.11198" lon="-3.55093">
        <ele>201.4</ele>
        <time>2025-02-25T13:23:05Z</time>
      </trkpt>
      <trkpt lat="48.11198" lon="-3.55092">
        <ele>201.3</ele>
        <time>2025-02-25T13:23:06Z</time>
      </trkpt>
      <trkpt lat="48.11197" lon="-3.5509">
        <ele>201.2</ele>
        <time>2025-02-25T13:23:07Z</time>
      </trkpt>
      <trkpt lat="48.11197" lon="-3.55089">
        <ele>201.2</ele>
        <time>2025-02-25T13:23:08Z</time>
      </trkpt>
      <trkpt lat="48.11196" lon="-3.55088">
        <ele>201.2</ele>
        <time>2025-02-25T13:23:09Z</time>
      </trkpt>
      <trkpt lat="48.11195" lon="-3.55088">
        <ele>201.3</ele>
        <time>2025-02-25T13:23:10Z</time>
      </trkpt>
      <trkpt lat="48.11194" lon="-3.55086">
        <ele>201.2</ele>
        <time>2025-02-25T13:23:11Z</time>
      </trkpt>
      <trkpt lat="48.11194" lon="-3.55086">
        <ele>201.2</ele>
        <time>2025-02-25T13:23:12Z</time>
      </trkpt>
      <trkpt lat="48.11194" lon="-3.55085">
        <ele>201.1</ele>
        <time>2025-02-25T13:23:13Z</time>
      </trkpt>
      <trkpt lat="48.11193" lon="-3.55084">
        <ele>201</ele>
        <time>2025-02-25T13:23:14Z</time>
      </trkpt>
      <trkpt lat="48.11193" lon="-3.55082">
        <ele>200.9</ele>
        <time>2025-02-25T13:23:15Z</time>
      </trkpt>
      <trkpt lat="48.11192" lon="-3.55081">
        <ele>200.8</ele>
        <time>2025-02-25T13:23:16Z</time>
      </trkpt>
      <trkpt lat="48.11192" lon="-3.5508">
        <ele>200.7</ele>
        <time>2025-02-25T13:23:17Z</time>
      </trkpt>
      <trkpt lat="48.11191" lon="-3.55079">
        <ele>200.6</ele>
        <time>2025-02-25T13:23:18Z</time>
      </trkpt>
      <trkpt lat="48.1119" lon="-3.55078">
        <ele>200.5</ele>
        <time>2025-02-25T13:23:19Z</time>
      </trkpt>
      <trkpt lat="48.1119" lon="-3.55076">
        <ele>200.3</ele>
        <time>2025-02-25T13:23:20Z</time>
      </trkpt>
      <trkpt lat="48.11189" lon="-3.55075">
        <ele>200.2</ele>
        <time>2025-02-25T13:23:21Z</time>
      </trkpt>
      <trkpt lat="48.11188" lon="-3.55074">
        <ele>200.1</ele>
        <time>2025-02-25T13:23:22Z</time>
      </trkpt>
      <trkpt lat="48.11188" lon="-3.55073">
        <ele>200</ele>
        <time>2025-02-25T13:23:23Z</time>
      </trkpt>
      <trkpt lat="48.11187" lon="-3.55071">
        <ele>199.8</ele>
        <time>2025-02-25T13:23:24Z</time>
      </trkpt>
      <trkpt lat="48.11187" lon="-3.5507">
        <ele>199.7</ele>
        <time>2025-02-25T13:23:25Z</time>
      </trkpt>
      <trkpt lat="48.11186" lon="-3.55069">
        <ele>199.6</ele>
        <time>2025-02-25T13:23:26Z</time>
      </trkpt>
      <trkpt lat="48.11185" lon="-3.55068">
        <ele>199.5</ele>
        <time>2025-02-25T13:23:27Z</time>
      </trkpt>
      <trkpt lat="48.11185" lon="-3.55067">
        <ele>199.4</ele>
        <time>2025-02-25T13:23:28Z</time>
      </trkpt>
      <trkpt lat="48.11184" lon="-3.55065">
        <ele>199.3</ele>
        <time>2025-02-25T13:23:29Z</time>
      </trkpt>
      <trkpt lat="48.11183" lon="-3.55064">
        <ele>199.2</ele>
        <time>2025-02-25T13:23:30Z</time>
      </trkpt>
      <trkpt lat="48.11182" lon="-3.55064">
        <ele>199.2</ele>
        <time>2025-02-25T13:23:31Z</time>
      </trkpt>
      <trkpt lat="48.11181" lon="-3.55063">
        <ele>199.2</ele>
        <time>2025-02-25T13:23:32Z</time>
      </trkpt>
      <trkpt lat="48.1118" lon="-3.55061">
        <ele>199</ele>
        <time>2025-02-25T13:23:33Z</time>
      </trkpt>
      <trkpt lat="48.11179" lon="-3.55061">
        <ele>199</ele>
        <time>2025-02-25T13:23:34Z</time>
      </trkpt>
      <trkpt lat="48.11179" lon="-3.55059">
        <ele>198.9</ele>
        <time>2025-02-25T13:23:35Z</time>
      </trkpt>
      <trkpt lat="48.11178" lon="-3.55058">
        <ele>198.8</ele>
        <time>2025-02-25T13:23:36Z</time>
      </trkpt>
      <trkpt lat="48.11177" lon="-3.55056">
        <ele>198.7</ele>
        <time>2025-02-25T13:23:37Z</time>
      </trkpt>
      <trkpt lat="48.11177" lon="-3.55055">
        <ele>198.5</ele>
        <time>2025-02-25T13:23:38Z</time>
      </trkpt>
      <trkpt lat="48.11176" lon="-3.55053">
        <ele>198.3</ele>
        <time>2025-02-25T13:23:39Z</time>
      </trkpt>
      <trkpt lat="48.11175" lon="-3.55052">
        <ele>198.1</ele>
        <time>2025-02-25T13:23:40Z</time>
      </trkpt>
      <trkpt lat="48.11174" lon="-3.55051">
        <ele>198</ele>
        <time>2025-02-25T13:23:41Z</time>
      </trkpt>
      <trkpt lat="48.11173" lon="-3.5505">
        <ele>197.9</ele>
        <time>2025-02-25T13:23:42Z</time>
      </trkpt>
      <trkpt lat="48.11173" lon="-3.55048">
        <ele>197.6</ele>
        <time>2025-02-25T13:23:43Z</time>
      </trkpt>
      <trkpt lat="48.11172" lon="-3.55048">
        <ele>197.7</ele>
        <time>2025-02-25T13:23:44Z</time>
      </trkpt>
      <trkpt lat="48.1117" lon="-3.55047">
        <ele>197.6</ele>
        <time>2025-02-25T13:23:45Z</time>
      </trkpt>
      <trkpt lat="48.1117" lon="-3.55046">
        <ele>197.5</ele>
        <time>2025-02-25T13:23:46Z</time>
      </trkpt>
      <trkpt lat="48.11169" lon="-3.55045">
        <ele>197.4</ele>
        <time>2025-02-25T13:23:47Z</time>
      </trkpt>
      <trkpt lat="48.11168" lon="-3.55044">
        <ele>197.3</ele>
        <time>2025-02-25T13:23:48Z</time>
      </trkpt>
      <trkpt lat="48.11168" lon="-3.55043">
        <ele>197.1</ele>
        <time>2025-02-25T13:23:49Z</time>
      </trkpt>
      <trkpt lat="48.11167" lon="-3.55042">
        <ele>197</ele>
        <time>2025-02-25T13:23:50Z</time>
      </trkpt>
      <trkpt lat="48.11166" lon="-3.55041">
        <ele>196.9</ele>
        <time>2025-02-25T13:23:51Z</time>
      </trkpt>
      <trkpt lat="48.11165" lon="-3.5504">
        <ele>196.9</ele>
        <time>2025-02-25T13:23:52Z</time>
      </trkpt>
      <trkpt lat="48.11165" lon="-3.55039">
        <ele>196.7</ele>
        <time>2025-02-25T13:23:53Z</time>
      </trkpt>
      <trkpt lat="48.11164" lon="-3.55038">
        <ele>196.6</ele>
        <time>2025-02-25T13:23:54Z</time>
      </trkpt>
      <trkpt lat="48.11163" lon="-3.55037">
        <ele>196.5</ele>
        <time>2025-02-25T13:23:55Z</time>
      </trkpt>
      <trkpt lat="48.11162" lon="-3.55036">
        <ele>196.5</ele>
        <time>2025-02-25T13:23:56Z</time>
      </trkpt>
      <trkpt lat="48.11161" lon="-3.55035">
        <ele>196.4</ele>
        <time>2025-02-25T13:23:57Z</time>
      </trkpt>
      <trkpt lat="48.1116" lon="-3.55034">
        <ele>196.3</ele>
        <time>2025-02-25T13:23:58Z</time>
      </trkpt>
      <trkpt lat="48.11159" lon="-3.55032">
        <ele>196.1</ele>
        <time>2025-02-25T13:23:59Z</time>
      </trkpt>
      <trkpt lat="48.11158" lon="-3.55031">
        <ele>196.1</ele>
        <time>2025-02-25T13:24:00Z</time>
      </trkpt>
      <trkpt lat="48.11157" lon="-3.5503">
        <ele>196</ele>
        <time>2025-02-25T13:24:01Z</time>
      </trkpt>
      <trkpt lat="48.11156" lon="-3.55029">
        <ele>195.9</ele>
        <time>2025-02-25T13:24:02Z</time>
      </trkpt>
      <trkpt lat="48.11155" lon="-3.55028">
        <ele>195.9</ele>
        <time>2025-02-25T13:24:03Z</time>
      </trkpt>
      <trkpt lat="48.11155" lon="-3.55027">
        <ele>195.8</ele>
        <time>2025-02-25T13:24:04Z</time>
      </trkpt>
      <trkpt lat="48.11155" lon="-3.55025">
        <ele>195.6</ele>
        <time>2025-02-25T13:24:05Z</time>
      </trkpt>
      <trkpt lat="48.11155" lon="-3.55024">
        <ele>195.6</ele>
        <time>2025-02-25T13:24:06Z</time>
      </trkpt>
      <trkpt lat="48.11156" lon="-3.55022">
        <ele>195.4</ele>
        <time>2025-02-25T13:24:07Z</time>
      </trkpt>
      <trkpt lat="48.11156" lon="-3.5502">
        <ele>195.2</ele>
        <time>2025-02-25T13:24:08Z</time>
      </trkpt>
      <trkpt lat="48.11157" lon="-3.5502">
        <ele>195.1</ele>
        <time>2025-02-25T13:24:09Z</time>
      </trkpt>
      <trkpt lat="48.11157" lon="-3.55021">
        <ele>195.2</ele>
        <time>2025-02-25T13:24:10Z</time>
      </trkpt>
      <trkpt lat="48.11159" lon="-3.55021">
        <ele>195.1</ele>
        <time>2025-02-25T13:24:11Z</time>
      </trkpt>
      <trkpt lat="48.1116" lon="-3.55022">
        <ele>195.1</ele>
        <time>2025-02-25T13:24:12Z</time>
      </trkpt>
      <trkpt lat="48.1116" lon="-3.55022">
        <ele>195.1</ele>
        <time>2025-02-25T13:24:13Z</time>
      </trkpt>
      <trkpt lat="48.11161" lon="-3.55023">
        <ele>195.1</ele>
        <time>2025-02-25T13:24:14Z</time>
      </trkpt>
      <trkpt lat="48.11162" lon="-3.55023">
        <ele>195</ele>
        <time>2025-02-25T13:24:15Z</time>
      </trkpt>
      <trkpt lat="48.11162" lon="-3.55024">
        <ele>195.1</ele>
        <time>2025-02-25T13:24:16Z</time>
      </trkpt>
      <trkpt lat="48.11162" lon="-3.55024">
        <ele>195.1</ele>
        <time>2025-02-25T13:24:17Z</time>
      </trkpt>
      <trkpt lat="48.11162" lon="-3.55024">
        <ele>195.1</ele>
        <time>2025-02-25T13:24:18Z</time>
      </trkpt>
      <trkpt lat="48.11161" lon="-3.55024">
        <ele>195.1</ele>
        <time>2025-02-25T13:24:19Z</time>
      </trkpt>
      <trkpt lat="48.11162" lon="-3.55024">
        <ele>195.1</ele>
        <time>2025-02-25T13:24:20Z</time>
      </trkpt>
      <trkpt lat="48.11162" lon="-3.55023">
        <ele>195</ele>
        <time>2025-02-25T13:24:21Z</time>
      </trkpt>
      <trkpt lat="48.11162" lon="-3.55022">
        <ele>194.9</ele>
        <time>2025-02-25T13:24:22Z</time>
      </trkpt>
      <trkpt lat="48.11163" lon="-3.55023">
        <ele>194.9</ele>
        <time>2025-02-25T13:24:23Z</time>
      </trkpt>
      <trkpt lat="48.11163" lon="-3.55023">
        <ele>194.9</ele>
        <time>2025-02-25T13:24:24Z</time>
      </trkpt>
      <trkpt lat="48.11164" lon="-3.55022">
        <ele>194.8</ele>
        <time>2025-02-25T13:24:25Z</time>
      </trkpt>
      <trkpt lat="48.11165" lon="-3.5502">
        <ele>194.6</ele>
        <time>2025-02-25T13:24:26Z</time>
      </trkpt>
      <trkpt lat="48.11166" lon="-3.55019">
        <ele>194.4</ele>
        <time>2025-02-25T13:24:27Z</time>
      </trkpt>
      <trkpt lat="48.11166" lon="-3.55018">
        <ele>194.3</ele>
        <time>2025-02-25T13:24:28Z</time>
      </trkpt>
      <trkpt lat="48.11167" lon="-3.55018">
        <ele>194.3</ele>
        <time>2025-02-25T13:24:29Z</time>
      </trkpt>
      <trkpt lat="48.11168" lon="-3.55017">
        <ele>194.1</ele>
        <time>2025-02-25T13:24:30Z</time>
      </trkpt>
      <trkpt lat="48.11169" lon="-3.55016">
        <ele>193.9</ele>
        <time>2025-02-25T13:24:31Z</time>
      </trkpt>
      <trkpt lat="48.11169" lon="-3.55015">
        <ele>193.9</ele>
        <time>2025-02-25T13:24:32Z</time>
      </trkpt>
      <trkpt lat="48.1117" lon="-3.55014">
        <ele>193.7</ele>
        <time>2025-02-25T13:24:33Z</time>
      </trkpt>
      <trkpt lat="48.11171" lon="-3.55013">
        <ele>193.5</ele>
        <time>2025-02-25T13:24:34Z</time>
      </trkpt>
      <trkpt lat="48.11172" lon="-3.55012">
        <ele>193.4</ele>
        <time>2025-02-25T13:24:35Z</time>
      </trkpt>
      <trkpt lat="48.11172" lon="-3.55011">
        <ele>193.3</ele>
        <time>2025-02-25T13:24:36Z</time>
      </trkpt>
      <trkpt lat="48.11173" lon="-3.5501">
        <ele>193.1</ele>
        <time>2025-02-25T13:24:37Z</time>
      </trkpt>
      <trkpt lat="48.11174" lon="-3.5501">
        <ele>193</ele>
        <time>2025-02-25T13:24:38Z</time>
      </trkpt>
      <trkpt lat="48.11175" lon="-3.5501">
        <ele>192.9</ele>
        <time>2025-02-25T13:24:39Z</time>
      </trkpt>
      <trkpt lat="48.11176" lon="-3.55009">
        <ele>192.7</ele>
        <time>2025-02-25T13:24:40Z</time>
      </trkpt>
      <trkpt lat="48.11176" lon="-3.5501">
        <ele>192.8</ele>
        <time>2025-02-25T13:24:41Z</time>
      </trkpt>
      <trkpt lat="48.11177" lon="-3.55009">
        <ele>192.7</ele>
        <time>2025-02-25T13:24:42Z</time>
      </trkpt>
      <trkpt lat="48.11178" lon="-3.55009">
        <ele>192.6</ele>
        <time>2025-02-25T13:24:43Z</time>
      </trkpt>
      <trkpt lat="48.11179" lon="-3.55008">
        <ele>192.4</ele>
        <time>2025-02-25T13:24:44Z</time>
      </trkpt>
      <trkpt lat="48.1118" lon="-3.55007">
        <ele>192.2</ele>
        <time>2025-02-25T13:24:45Z</time>
      </trkpt>
      <trkpt lat="48.11181" lon="-3.55006">
        <ele>192</ele>
        <time>2025-02-25T13:24:46Z</time>
      </trkpt>
      <trkpt lat="48.11182" lon="-3.55006">
        <ele>191.9</ele>
        <time>2025-02-25T13:24:47Z</time>
      </trkpt>
      <trkpt lat="48.11183" lon="-3.55006">
        <ele>191.8</ele>
        <time>2025-02-25T13:24:48Z</time>
      </trkpt>
      <trkpt lat="48.11184" lon="-3.55006">
        <ele>191.7</ele>
        <time>2025-02-25T13:24:49Z</time>
      </trkpt>
      <trkpt lat="48.11185" lon="-3.55005">
        <ele>191.5</ele>
        <time>2025-02-25T13:24:50Z</time>
      </trkpt>
      <trkpt lat="48.11186" lon="-3.55005">
        <ele>191.4</ele>
        <time>2025-02-25T13:24:51Z</time>
      </trkpt>
      <trkpt lat="48.11187" lon="-3.55004">
        <ele>191.2</ele>
        <time>2025-02-25T13:24:52Z</time>
      </trkpt>
      <trkpt lat="48.11188" lon="-3.55003">
        <ele>191</ele>
        <time>2025-02-25T13:24:53Z</time>
      </trkpt>
      <trkpt lat="48.11189" lon="-3.55003">
        <ele>190.9</ele>
        <time>2025-02-25T13:24:54Z</time>
      </trkpt>
      <trkpt lat="48.1119" lon="-3.55002">
        <ele>190.7</ele>
        <time>2025-02-25T13:24:55Z</time>
      </trkpt>
      <trkpt lat="48.11191" lon="-3.55001">
        <ele>190.5</ele>
        <time>2025-02-25T13:24:56Z</time>
      </trkpt>
      <trkpt lat="48.11192" lon="-3.55001">
        <ele>190.4</ele>
        <time>2025-02-25T13:24:57Z</time>
      </trkpt>
      <trkpt lat="48.11193" lon="-3.55">
        <ele>190.2</ele>
        <time>2025-02-25T13:24:58Z</time>
      </trkpt>
      <trkpt lat="48.11194" lon="-3.54999">
        <ele>189.9</ele>
        <time>2025-02-25T13:24:59Z</time>
      </trkpt>
      <trkpt lat="48.11195" lon="-3.54999">
        <ele>189.8</ele>
        <time>2025-02-25T13:25:00Z</time>
      </trkpt>
      <trkpt lat="48.11196" lon="-3.54998">
        <ele>189.7</ele>
        <time>2025-02-25T13:25:01Z</time>
      </trkpt>
      <trkpt lat="48.11197" lon="-3.54998">
        <ele>189.6</ele>
        <time>2025-02-25T13:25:02Z</time>
      </trkpt>
      <trkpt lat="48.11198" lon="-3.54997">
        <ele>189.5</ele>
        <time>2025-02-25T13:25:03Z</time>
      </trkpt>
      <trkpt lat="48.11199" lon="-3.54997">
        <ele>189.4</ele>
        <time>2025-02-25T13:25:04Z</time>
      </trkpt>
      <trkpt lat="48.112" lon="-3.54996">
        <ele>189.3</ele>
        <time>2025-02-25T13:25:05Z</time>
      </trkpt>
      <trkpt lat="48.11201" lon="-3.54997">
        <ele>189.4</ele>
        <time>2025-02-25T13:25:06Z</time>
      </trkpt>
      <trkpt lat="48.11202" lon="-3.54997">
        <ele>189.4</ele>
        <time>2025-02-25T13:25:07Z</time>
      </trkpt>
      <trkpt lat="48.11203" lon="-3.54996">
        <ele>189.2</ele>
        <time>2025-02-25T13:25:08Z</time>
      </trkpt>
      <trkpt lat="48.11204" lon="-3.54994">
        <ele>188.9</ele>
        <time>2025-02-25T13:25:09Z</time>
      </trkpt>
      <trkpt lat="48.11205" lon="-3.54994">
        <ele>188.9</ele>
        <time>2025-02-25T13:25:10Z</time>
      </trkpt>
      <trkpt lat="48.11206" lon="-3.54993">
        <ele>188.8</ele>
        <time>2025-02-25T13:25:11Z</time>
      </trkpt>
      <trkpt lat="48.11207" lon="-3.54992">
        <ele>188.7</ele>
        <time>2025-02-25T13:25:12Z</time>
      </trkpt>
      <trkpt lat="48.11208" lon="-3.54991">
        <ele>188.5</ele>
        <time>2025-02-25T13:25:13Z</time>
      </trkpt>
      <trkpt lat="48.11209" lon="-3.5499">
        <ele>188.4</ele>
        <time>2025-02-25T13:25:14Z</time>
      </trkpt>
      <trkpt lat="48.1121" lon="-3.5499">
        <ele>188.4</ele>
        <time>2025-02-25T13:25:15Z</time>
      </trkpt>
      <trkpt lat="48.11211" lon="-3.5499">
        <ele>188.4</ele>
        <time>2025-02-25T13:25:16Z</time>
      </trkpt>
      <trkpt lat="48.11212" lon="-3.5499">
        <ele>188.4</ele>
        <time>2025-02-25T13:25:17Z</time>
      </trkpt>
      <trkpt lat="48.11212" lon="-3.5499">
        <ele>188.4</ele>
        <time>2025-02-25T13:25:18Z</time>
      </trkpt>
      <trkpt lat="48.11213" lon="-3.54989">
        <ele>188.3</ele>
        <time>2025-02-25T13:25:19Z</time>
      </trkpt>
      <trkpt lat="48.11214" lon="-3.54988">
        <ele>188.2</ele>
        <time>2025-02-25T13:25:20Z</time>
      </trkpt>
      <trkpt lat="48.11215" lon="-3.54988">
        <ele>188.2</ele>
        <time>2025-02-25T13:25:21Z</time>
      </trkpt>
      <trkpt lat="48.11216" lon="-3.54987">
        <ele>188.1</ele>
        <time>2025-02-25T13:25:22Z</time>
      </trkpt>
      <trkpt lat="48.11216" lon="-3.54987">
        <ele>188.1</ele>
        <time>2025-02-25T13:25:23Z</time>
      </trkpt>
      <trkpt lat="48.11217" lon="-3.54985">
        <ele>187.9</ele>
        <time>2025-02-25T13:25:24Z</time>
      </trkpt>
      <trkpt lat="48.11217" lon="-3.54985">
        <ele>187.9</ele>
        <time>2025-02-25T13:25:25Z</time>
      </trkpt>
      <trkpt lat="48.11217" lon="-3.54983">
        <ele>187.7</ele>
        <time>2025-02-25T13:25:26Z</time>
      </trkpt>
      <trkpt lat="48.11218" lon="-3.54982">
        <ele>187.7</ele>
        <time>2025-02-25T13:25:27Z</time>
      </trkpt>
      <trkpt lat="48.11218" lon="-3.5498">
        <ele>187.5</ele>
        <time>2025-02-25T13:25:28Z</time>
      </trkpt>
      <trkpt lat="48.11218" lon="-3.54979">
        <ele>187.4</ele>
        <time>2025-02-25T13:25:29Z</time>
      </trkpt>
      <trkpt lat="48.11218" lon="-3.54978">
        <ele>187.3</ele>
        <time>2025-02-25T13:25:30Z</time>
      </trkpt>
      <trkpt lat="48.11217" lon="-3.54976">
        <ele>187.1</ele>
        <time>2025-02-25T13:25:31Z</time>
      </trkpt>
      <trkpt lat="48.11216" lon="-3.54975">
        <ele>187</ele>
        <time>2025-02-25T13:25:32Z</time>
      </trkpt>
      <trkpt lat="48.11216" lon="-3.54973">
        <ele>186.8</ele>
        <time>2025-02-25T13:25:33Z</time>
      </trkpt>
      <trkpt lat="48.11215" lon="-3.54972">
        <ele>186.7</ele>
        <time>2025-02-25T13:25:34Z</time>
      </trkpt>
      <trkpt lat="48.11214" lon="-3.54971">
        <ele>186.6</ele>
        <time>2025-02-25T13:25:35Z</time>
      </trkpt>
      <trkpt lat="48.11214" lon="-3.5497">
        <ele>186.6</ele>
        <time>2025-02-25T13:25:36Z</time>
      </trkpt>
      <trkpt lat="48.11213" lon="-3.54969">
        <ele>186.5</ele>
        <time>2025-02-25T13:25:37Z</time>
      </trkpt>
      <trkpt lat="48.11212" lon="-3.54969">
        <ele>186.5</ele>
        <time>2025-02-25T13:25:38Z</time>
      </trkpt>
      <trkpt lat="48.1121" lon="-3.54968">
        <ele>186.3</ele>
        <time>2025-02-25T13:25:39Z</time>
      </trkpt>
      <trkpt lat="48.11209" lon="-3.54968">
        <ele>186.3</ele>
        <time>2025-02-25T13:25:40Z</time>
      </trkpt>
      <trkpt lat="48.11208" lon="-3.54967">
        <ele>186.2</ele>
        <time>2025-02-25T13:25:41Z</time>
      </trkpt>
      <trkpt lat="48.11207" lon="-3.54967">
        <ele>186.2</ele>
        <time>2025-02-25T13:25:42Z</time>
      </trkpt>
      <trkpt lat="48.11206" lon="-3.54966">
        <ele>186.1</ele>
        <time>2025-02-25T13:25:43Z</time>
      </trkpt>
      <trkpt lat="48.11205" lon="-3.54966">
        <ele>186</ele>
        <time>2025-02-25T13:25:44Z</time>
      </trkpt>
      <trkpt lat="48.11204" lon="-3.54966">
        <ele>186</ele>
        <time>2025-02-25T13:25:45Z</time>
      </trkpt>
      <trkpt lat="48.11203" lon="-3.54966">
        <ele>185.9</ele>
        <time>2025-02-25T13:25:46Z</time>
      </trkpt>
      <trkpt lat="48.11202" lon="-3.54965">
        <ele>185.8</ele>
        <time>2025-02-25T13:25:47Z</time>
      </trkpt>
      <trkpt lat="48.11201" lon="-3.54965">
        <ele>185.8</ele>
        <time>2025-02-25T13:25:48Z</time>
      </trkpt>
      <trkpt lat="48.112" lon="-3.54965">
        <ele>185.7</ele>
        <time>2025-02-25T13:25:49Z</time>
      </trkpt>
      <trkpt lat="48.11199" lon="-3.54965">
        <ele>185.7</ele>
        <time>2025-02-25T13:25:50Z</time>
      </trkpt>
      <trkpt lat="48.11198" lon="-3.54965">
        <ele>185.6</ele>
        <time>2025-02-25T13:25:51Z</time>
      </trkpt>
      <trkpt lat="48.11196" lon="-3.54964">
        <ele>185.5</ele>
        <time>2025-02-25T13:25:52Z</time>
      </trkpt>
      <trkpt lat="48.11195" lon="-3.54963">
        <ele>185.4</ele>
        <time>2025-02-25T13:25:53Z</time>
      </trkpt>
      <trkpt lat="48.11194" lon="-3.54963">
        <ele>185.4</ele>
        <time>2025-02-25T13:25:54Z</time>
      </trkpt>
      <trkpt lat="48.11193" lon="-3.54962">
        <ele>185.4</ele>
        <time>2025-02-25T13:25:55Z</time>
      </trkpt>
      <trkpt lat="48.11192" lon="-3.54962">
        <ele>185.4</ele>
        <time>2025-02-25T13:25:56Z</time>
      </trkpt>
      <trkpt lat="48.11191" lon="-3.54961">
        <ele>185.4</ele>
        <time>2025-02-25T13:25:57Z</time>
      </trkpt>
      <trkpt lat="48.1119" lon="-3.54961">
        <ele>185.5</ele>
        <time>2025-02-25T13:25:58Z</time>
      </trkpt>
      <trkpt lat="48.1119" lon="-3.5496">
        <ele>185.4</ele>
        <time>2025-02-25T13:25:59Z</time>
      </trkpt>
      <trkpt lat="48.11189" lon="-3.5496">
        <ele>185.4</ele>
        <time>2025-02-25T13:26:00Z</time>
      </trkpt>
      <trkpt lat="48.11188" lon="-3.54959">
        <ele>185.4</ele>
        <time>2025-02-25T13:26:01Z</time>
      </trkpt>
      <trkpt lat="48.11187" lon="-3.54958">
        <ele>185.4</ele>
        <time>2025-02-25T13:26:02Z</time>
      </trkpt>
      <trkpt lat="48.11186" lon="-3.54958">
        <ele>185.4</ele>
        <time>2025-02-25T13:26:03Z</time>
      </trkpt>
      <trkpt lat="48.11184" lon="-3.54957">
        <ele>185.4</ele>
        <time>2025-02-25T13:26:04Z</time>
      </trkpt>
      <trkpt lat="48.11183" lon="-3.54957">
        <ele>185.5</ele>
        <time>2025-02-25T13:26:05Z</time>
      </trkpt>
      <trkpt lat="48.11183" lon="-3.54956">
        <ele>185.3</ele>
        <time>2025-02-25T13:26:06Z</time>
      </trkpt>
      <trkpt lat="48.11181" lon="-3.54955">
        <ele>185.3</ele>
        <time>2025-02-25T13:26:07Z</time>
      </trkpt>
      <trkpt lat="48.1118" lon="-3.54954">
        <ele>185.2</ele>
        <time>2025-02-25T13:26:08Z</time>
      </trkpt>
      <trkpt lat="48.11179" lon="-3.54954">
        <ele>185.3</ele>
        <time>2025-02-25T13:26:09Z</time>
      </trkpt>
      <trkpt lat="48.11178" lon="-3.54954">
        <ele>185.3</ele>
        <time>2025-02-25T13:26:10Z</time>
      </trkpt>
      <trkpt lat="48.11177" lon="-3.54953">
        <ele>185.2</ele>
        <time>2025-02-25T13:26:11Z</time>
      </trkpt>
      <trkpt lat="48.11177" lon="-3.54951">
        <ele>184.9</ele>
        <time>2025-02-25T13:26:12Z</time>
      </trkpt>
      <trkpt lat="48.11176" lon="-3.5495">
        <ele>184.8</ele>
        <time>2025-02-25T13:26:13Z</time>
      </trkpt>
      <trkpt lat="48.11175" lon="-3.54949">
        <ele>184.7</ele>
        <time>2025-02-25T13:26:14Z</time>
      </trkpt>
      <trkpt lat="48.11174" lon="-3.54948">
        <ele>184.5</ele>
        <time>2025-02-25T13:26:15Z</time>
      </trkpt>
      <trkpt lat="48.11174" lon="-3.54947">
        <ele>184.4</ele>
        <time>2025-02-25T13:26:16Z</time>
      </trkpt>
      <trkpt lat="48.11173" lon="-3.54946">
        <ele>184.2</ele>
        <time>2025-02-25T13:26:17Z</time>
      </trkpt>
      <trkpt lat="48.11172" lon="-3.54945">
        <ele>184.1</ele>
        <time>2025-02-25T13:26:18Z</time>
      </trkpt>
      <trkpt lat="48.11172" lon="-3.54944">
        <ele>183.9</ele>
        <time>2025-02-25T13:26:19Z</time>
      </trkpt>
      <trkpt lat="48.11171" lon="-3.54943">
        <ele>183.8</ele>
        <time>2025-02-25T13:26:20Z</time>
      </trkpt>
      <trkpt lat="48.1117" lon="-3.54943">
        <ele>183.8</ele>
        <time>2025-02-25T13:26:21Z</time>
      </trkpt>
      <trkpt lat="48.11169" lon="-3.54942">
        <ele>183.7</ele>
        <time>2025-02-25T13:26:22Z</time>
      </trkpt>
      <trkpt lat="48.11168" lon="-3.5494">
        <ele>183.4</ele>
        <time>2025-02-25T13:26:23Z</time>
      </trkpt>
      <trkpt lat="48.11168" lon="-3.54939">
        <ele>183.2</ele>
        <time>2025-02-25T13:26:24Z</time>
      </trkpt>
      <trkpt lat="48.11166" lon="-3.54938">
        <ele>183.2</ele>
        <time>2025-02-25T13:26:25Z</time>
      </trkpt>
      <trkpt lat="48.11166" lon="-3.54937">
        <ele>183</ele>
        <time>2025-02-25T13:26:26Z</time>
      </trkpt>
      <trkpt lat="48.11164" lon="-3.54937">
        <ele>183.3</ele>
        <time>2025-02-25T13:26:27Z</time>
      </trkpt>
      <trkpt lat="48.11164" lon="-3.54936">
        <ele>183.1</ele>
        <time>2025-02-25T13:26:28Z</time>
      </trkpt>
      <trkpt lat="48.11163" lon="-3.54935">
        <ele>183.1</ele>
        <time>2025-02-25T13:26:29Z</time>
      </trkpt>
      <trkpt lat="48.11162" lon="-3.54934">
        <ele>183</ele>
        <time>2025-02-25T13:26:30Z</time>
      </trkpt>
      <trkpt lat="48.11161" lon="-3.54933">
        <ele>183</ele>
        <time>2025-02-25T13:26:31Z</time>
      </trkpt>
      <trkpt lat="48.11161" lon="-3.54931">
        <ele>182.7</ele>
        <time>2025-02-25T13:26:32Z</time>
      </trkpt>
      <trkpt lat="48.11159" lon="-3.54931">
        <ele>182.9</ele>
        <time>2025-02-25T13:26:33Z</time>
      </trkpt>
      <trkpt lat="48.11159" lon="-3.5493">
        <ele>182.7</ele>
        <time>2025-02-25T13:26:34Z</time>
      </trkpt>
      <trkpt lat="48.11158" lon="-3.54929">
        <ele>182.7</ele>
        <time>2025-02-25T13:26:35Z</time>
      </trkpt>
      <trkpt lat="48.11157" lon="-3.54928">
        <ele>182.6</ele>
        <time>2025-02-25T13:26:36Z</time>
      </trkpt>
      <trkpt lat="48.11156" lon="-3.54928">
        <ele>182.7</ele>
        <time>2025-02-25T13:26:37Z</time>
      </trkpt>
      <trkpt lat="48.11155" lon="-3.54927">
        <ele>182.6</ele>
        <time>2025-02-25T13:26:38Z</time>
      </trkpt>
      <trkpt lat="48.11154" lon="-3.54926">
        <ele>182.6</ele>
        <time>2025-02-25T13:26:39Z</time>
      </trkpt>
      <trkpt lat="48.11153" lon="-3.54925">
        <ele>182.5</ele>
        <time>2025-02-25T13:26:40Z</time>
      </trkpt>
      <trkpt lat="48.11152" lon="-3.54924">
        <ele>182.4</ele>
        <time>2025-02-25T13:26:41Z</time>
      </trkpt>
      <trkpt lat="48.11151" lon="-3.54924">
        <ele>182.5</ele>
        <time>2025-02-25T13:26:42Z</time>
      </trkpt>
      <trkpt lat="48.1115" lon="-3.54922">
        <ele>182.2</ele>
        <time>2025-02-25T13:26:43Z</time>
      </trkpt>
      <trkpt lat="48.11149" lon="-3.54921">
        <ele>182.1</ele>
        <time>2025-02-25T13:26:44Z</time>
      </trkpt>
      <trkpt lat="48.11149" lon="-3.5492">
        <ele>181.9</ele>
        <time>2025-02-25T13:26:45Z</time>
      </trkpt>
      <trkpt lat="48.11149" lon="-3.54918">
        <ele>181.5</ele>
        <time>2025-02-25T13:26:46Z</time>
      </trkpt>
      <trkpt lat="48.11148" lon="-3.54917">
        <ele>181.4</ele>
        <time>2025-02-25T13:26:47Z</time>
      </trkpt>
      <trkpt lat="48.11147" lon="-3.54916">
        <ele>181.3</ele>
        <time>2025-02-25T13:26:48Z</time>
      </trkpt>
      <trkpt lat="48.11146" lon="-3.54915">
        <ele>181.3</ele>
        <time>2025-02-25T13:26:49Z</time>
      </trkpt>
      <trkpt lat="48.11145" lon="-3.54915">
        <ele>181.3</ele>
        <time>2025-02-25T13:26:50Z</time>
      </trkpt>
      <trkpt lat="48.11144" lon="-3.54915">
        <ele>181.4</ele>
        <time>2025-02-25T13:26:51Z</time>
      </trkpt>
      <trkpt lat="48.11143" lon="-3.54914">
        <ele>181.3</ele>
        <time>2025-02-25T13:26:52Z</time>
      </trkpt>
      <trkpt lat="48.11142" lon="-3.54913">
        <ele>181.3</ele>
        <time>2025-02-25T13:26:53Z</time>
      </trkpt>
      <trkpt lat="48.11142" lon="-3.54911">
        <ele>181</ele>
        <time>2025-02-25T13:26:54Z</time>
      </trkpt>
      <trkpt lat="48.11141" lon="-3.5491">
        <ele>180.9</ele>
        <time>2025-02-25T13:26:55Z</time>
      </trkpt>
      <trkpt lat="48.1114" lon="-3.54909">
        <ele>180.8</ele>
        <time>2025-02-25T13:26:56Z</time>
      </trkpt>
      <trkpt lat="48.11139" lon="-3.54908">
        <ele>180.7</ele>
        <time>2025-02-25T13:26:57Z</time>
      </trkpt>
      <trkpt lat="48.11138" lon="-3.54907">
        <ele>180.8</ele>
        <time>2025-02-25T13:26:58Z</time>
      </trkpt>
      <trkpt lat="48.11136" lon="-3.54907">
        <ele>181.2</ele>
        <time>2025-02-25T13:26:59Z</time>
      </trkpt>
      <trkpt lat="48.11135" lon="-3.54906">
        <ele>181.2</ele>
        <time>2025-02-25T13:27:00Z</time>
      </trkpt>
      <trkpt lat="48.11134" lon="-3.54906">
        <ele>181.4</ele>
        <time>2025-02-25T13:27:01Z</time>
      </trkpt>
      <trkpt lat="48.11133" lon="-3.54904">
        <ele>181.3</ele>
        <time>2025-02-25T13:27:02Z</time>
      </trkpt>
      <trkpt lat="48.11132" lon="-3.54903">
        <ele>181.3</ele>
        <time>2025-02-25T13:27:03Z</time>
      </trkpt>
      <trkpt lat="48.11131" lon="-3.54901">
        <ele>181.1</ele>
        <time>2025-02-25T13:27:04Z</time>
      </trkpt>
      <trkpt lat="48.1113" lon="-3.549">
        <ele>181.1</ele>
        <time>2025-02-25T13:27:05Z</time>
      </trkpt>
      <trkpt lat="48.11129" lon="-3.54899">
        <ele>181.1</ele>
        <time>2025-02-25T13:27:06Z</time>
      </trkpt>
      <trkpt lat="48.11129" lon="-3.54898">
        <ele>181</ele>
        <time>2025-02-25T13:27:07Z</time>
      </trkpt>
      <trkpt lat="48.11128" lon="-3.54897">
        <ele>181</ele>
        <time>2025-02-25T13:27:08Z</time>
      </trkpt>
      <trkpt lat="48.11126" lon="-3.54896">
        <ele>181.1</ele>
        <time>2025-02-25T13:27:09Z</time>
      </trkpt>
      <trkpt lat="48.11125" lon="-3.54896">
        <ele>181.3</ele>
        <time>2025-02-25T13:27:10Z</time>
      </trkpt>
      <trkpt lat="48.11124" lon="-3.54895">
        <ele>181.3</ele>
        <time>2025-02-25T13:27:11Z</time>
      </trkpt>
      <trkpt lat="48.11124" lon="-3.54894">
        <ele>181.1</ele>
        <time>2025-02-25T13:27:12Z</time>
      </trkpt>
      <trkpt lat="48.11123" lon="-3.54893">
        <ele>181</ele>
        <time>2025-02-25T13:27:13Z</time>
      </trkpt>
      <trkpt lat="48.11122" lon="-3.54892">
        <ele>181</ele>
        <time>2025-02-25T13:27:14Z</time>
      </trkpt>
      <trkpt lat="48.11122" lon="-3.54891">
        <ele>180.8</ele>
        <time>2025-02-25T13:27:15Z</time>
      </trkpt>
      <trkpt lat="48.11121" lon="-3.54891">
        <ele>181</ele>
        <time>2025-02-25T13:27:16Z</time>
      </trkpt>
      <trkpt lat="48.1112" lon="-3.5489">
        <ele>180.9</ele>
        <time>2025-02-25T13:27:17Z</time>
      </trkpt>
      <trkpt lat="48.1112" lon="-3.54888">
        <ele>180.6</ele>
        <time>2025-02-25T13:27:18Z</time>
      </trkpt>
      <trkpt lat="48.11119" lon="-3.54887">
        <ele>180.6</ele>
        <time>2025-02-25T13:27:19Z</time>
      </trkpt>
      <trkpt lat="48.11118" lon="-3.54886">
        <ele>180.5</ele>
        <time>2025-02-25T13:27:20Z</time>
      </trkpt>
      <trkpt lat="48.11118" lon="-3.54884">
        <ele>180.2</ele>
        <time>2025-02-25T13:27:21Z</time>
      </trkpt>
      <trkpt lat="48.11117" lon="-3.54882">
        <ele>180</ele>
        <time>2025-02-25T13:27:22Z</time>
      </trkpt>
      <trkpt lat="48.11116" lon="-3.54881">
        <ele>180</ele>
        <time>2025-02-25T13:27:23Z</time>
      </trkpt>
      <trkpt lat="48.11115" lon="-3.54881">
        <ele>180.1</ele>
        <time>2025-02-25T13:27:24Z</time>
      </trkpt>
      <trkpt lat="48.11114" lon="-3.5488">
        <ele>180.1</ele>
        <time>2025-02-25T13:27:25Z</time>
      </trkpt>
      <trkpt lat="48.11114" lon="-3.54879">
        <ele>179.9</ele>
        <time>2025-02-25T13:27:26Z</time>
      </trkpt>
      <trkpt lat="48.11112" lon="-3.54878">
        <ele>179.9</ele>
        <time>2025-02-25T13:27:27Z</time>
      </trkpt>
      <trkpt lat="48.11111" lon="-3.54878">
        <ele>180.1</ele>
        <time>2025-02-25T13:27:28Z</time>
      </trkpt>
      <trkpt lat="48.1111" lon="-3.54877">
        <ele>180.1</ele>
        <time>2025-02-25T13:27:29Z</time>
      </trkpt>
      <trkpt lat="48.1111" lon="-3.54875">
        <ele>179.7</ele>
        <time>2025-02-25T13:27:30Z</time>
      </trkpt>
      <trkpt lat="48.11109" lon="-3.54874">
        <ele>179.7</ele>
        <time>2025-02-25T13:27:31Z</time>
      </trkpt>
      <trkpt lat="48.11108" lon="-3.54873">
        <ele>179.8</ele>
        <time>2025-02-25T13:27:32Z</time>
      </trkpt>
      <trkpt lat="48.11108" lon="-3.54872">
        <ele>179.6</ele>
        <time>2025-02-25T13:27:33Z</time>
      </trkpt>
      <trkpt lat="48.11107" lon="-3.54871">
        <ele>179.6</ele>
        <time>2025-02-25T13:27:34Z</time>
      </trkpt>
      <trkpt lat="48.11106" lon="-3.5487">
        <ele>179.6</ele>
        <time>2025-02-25T13:27:35Z</time>
      </trkpt>
      <trkpt lat="48.11106" lon="-3.54869">
        <ele>179.5</ele>
        <time>2025-02-25T13:27:36Z</time>
      </trkpt>
      <trkpt lat="48.11105" lon="-3.54868">
        <ele>179.5</ele>
        <time>2025-02-25T13:27:37Z</time>
      </trkpt>
      <trkpt lat="48.11104" lon="-3.54867">
        <ele>179.5</ele>
        <time>2025-02-25T13:27:38Z</time>
      </trkpt>
      <trkpt lat="48.11103" lon="-3.54867">
        <ele>179.8</ele>
        <time>2025-02-25T13:27:39Z</time>
      </trkpt>
      <trkpt lat="48.11102" lon="-3.54867">
        <ele>180</ele>
        <time>2025-02-25T13:27:40Z</time>
      </trkpt>
      <trkpt lat="48.11102" lon="-3.54865">
        <ele>179.6</ele>
        <time>2025-02-25T13:27:41Z</time>
      </trkpt>
      <trkpt lat="48.11102" lon="-3.54863">
        <ele>179.3</ele>
        <time>2025-02-25T13:27:42Z</time>
      </trkpt>
      <trkpt lat="48.11101" lon="-3.54862">
        <ele>179.3</ele>
        <time>2025-02-25T13:27:43Z</time>
      </trkpt>
      <trkpt lat="48.11101" lon="-3.54861">
        <ele>179.2</ele>
        <time>2025-02-25T13:27:44Z</time>
      </trkpt>
      <trkpt lat="48.11101" lon="-3.54861">
        <ele>179.2</ele>
        <time>2025-02-25T13:27:45Z</time>
      </trkpt>
      <trkpt lat="48.111" lon="-3.5486">
        <ele>179.3</ele>
        <time>2025-02-25T13:27:46Z</time>
      </trkpt>
      <trkpt lat="48.111" lon="-3.5486">
        <ele>179.3</ele>
        <time>2025-02-25T13:27:47Z</time>
      </trkpt>
      <trkpt lat="48.111" lon="-3.54858">
        <ele>179</ele>
        <time>2025-02-25T13:27:48Z</time>
      </trkpt>
      <trkpt lat="48.111" lon="-3.54856">
        <ele>178.8</ele>
        <time>2025-02-25T13:27:49Z</time>
      </trkpt>
      <trkpt lat="48.111" lon="-3.54855">
        <ele>178.7</ele>
        <time>2025-02-25T13:27:50Z</time>
      </trkpt>
      <trkpt lat="48.11099" lon="-3.54854">
        <ele>178.8</ele>
        <time>2025-02-25T13:27:51Z</time>
      </trkpt>
      <trkpt lat="48.11099" lon="-3.54853">
        <ele>178.7</ele>
        <time>2025-02-25T13:27:52Z</time>
      </trkpt>
      <trkpt lat="48.11098" lon="-3.54851">
        <ele>178.6</ele>
        <time>2025-02-25T13:27:53Z</time>
      </trkpt>
      <trkpt lat="48.11098" lon="-3.5485">
        <ele>178.5</ele>
        <time>2025-02-25T13:27:54Z</time>
      </trkpt>
      <trkpt lat="48.11098" lon="-3.54849">
        <ele>178.3</ele>
        <time>2025-02-25T13:27:55Z</time>
      </trkpt>
      <trkpt lat="48.11097" lon="-3.54848">
        <ele>178.4</ele>
        <time>2025-02-25T13:27:56Z</time>
      </trkpt>
      <trkpt lat="48.11096" lon="-3.54847">
        <ele>178.4</ele>
        <time>2025-02-25T13:27:57Z</time>
      </trkpt>
      <trkpt lat="48.11095" lon="-3.54846">
        <ele>178.4</ele>
        <time>2025-02-25T13:27:58Z</time>
      </trkpt>
      <trkpt lat="48.11094" lon="-3.54845">
        <ele>178.5</ele>
        <time>2025-02-25T13:27:59Z</time>
      </trkpt>
      <trkpt lat="48.11094" lon="-3.54843">
        <ele>178.2</ele>
        <time>2025-02-25T13:28:00Z</time>
      </trkpt>
      <trkpt lat="48.11093" lon="-3.54842">
        <ele>178.2</ele>
        <time>2025-02-25T13:28:01Z</time>
      </trkpt>
      <trkpt lat="48.11092" lon="-3.54841">
        <ele>178.2</ele>
        <time>2025-02-25T13:28:02Z</time>
      </trkpt>
      <trkpt lat="48.11091" lon="-3.54841">
        <ele>178.3</ele>
        <time>2025-02-25T13:28:03Z</time>
      </trkpt>
      <trkpt lat="48.1109" lon="-3.54839">
        <ele>178.2</ele>
        <time>2025-02-25T13:28:04Z</time>
      </trkpt>
      <trkpt lat="48.1109" lon="-3.54838">
        <ele>178</ele>
        <time>2025-02-25T13:28:05Z</time>
      </trkpt>
      <trkpt lat="48.11089" lon="-3.54837">
        <ele>178</ele>
        <time>2025-02-25T13:28:06Z</time>
      </trkpt>
      <trkpt lat="48.11089" lon="-3.54835">
        <ele>177.7</ele>
        <time>2025-02-25T13:28:07Z</time>
      </trkpt>
      <trkpt lat="48.11088" lon="-3.54834">
        <ele>177.6</ele>
        <time>2025-02-25T13:28:08Z</time>
      </trkpt>
      <trkpt lat="48.11088" lon="-3.54833">
        <ele>177.5</ele>
        <time>2025-02-25T13:28:09Z</time>
      </trkpt>
      <trkpt lat="48.11087" lon="-3.54832">
        <ele>177.5</ele>
        <time>2025-02-25T13:28:10Z</time>
      </trkpt>
      <trkpt lat="48.11086" lon="-3.54832">
        <ele>177.6</ele>
        <time>2025-02-25T13:28:11Z</time>
      </trkpt>
      <trkpt lat="48.11086" lon="-3.54831">
        <ele>177.6</ele>
        <time>2025-02-25T13:28:12Z</time>
      </trkpt>
      <trkpt lat="48.11085" lon="-3.5483">
        <ele>177.6</ele>
        <time>2025-02-25T13:28:13Z</time>
      </trkpt>
      <trkpt lat="48.11084" lon="-3.54829">
        <ele>177.6</ele>
        <time>2025-02-25T13:28:14Z</time>
      </trkpt>
      <trkpt lat="48.11083" lon="-3.54827">
        <ele>177.6</ele>
        <time>2025-02-25T13:28:15Z</time>
      </trkpt>
      <trkpt lat="48.11083" lon="-3.54826">
        <ele>177.5</ele>
        <time>2025-02-25T13:28:16Z</time>
      </trkpt>
      <trkpt lat="48.11082" lon="-3.54825">
        <ele>177.6</ele>
        <time>2025-02-25T13:28:17Z</time>
      </trkpt>
      <trkpt lat="48.11081" lon="-3.54823">
        <ele>177.5</ele>
        <time>2025-02-25T13:28:18Z</time>
      </trkpt>
      <trkpt lat="48.11081" lon="-3.54822">
        <ele>177.5</ele>
        <time>2025-02-25T13:28:19Z</time>
      </trkpt>
      <trkpt lat="48.1108" lon="-3.54821">
        <ele>177.5</ele>
        <time>2025-02-25T13:28:20Z</time>
      </trkpt>
      <trkpt lat="48.1108" lon="-3.54819">
        <ele>177.3</ele>
        <time>2025-02-25T13:28:21Z</time>
      </trkpt>
      <trkpt lat="48.11079" lon="-3.54818">
        <ele>177.3</ele>
        <time>2025-02-25T13:28:22Z</time>
      </trkpt>
      <trkpt lat="48.11078" lon="-3.54818">
        <ele>177.5</ele>
        <time>2025-02-25T13:28:23Z</time>
      </trkpt>
      <trkpt lat="48.11078" lon="-3.54816">
        <ele>177.3</ele>
        <time>2025-02-25T13:28:24Z</time>
      </trkpt>
      <trkpt lat="48.11077" lon="-3.54815">
        <ele>177.3</ele>
        <time>2025-02-25T13:28:25Z</time>
      </trkpt>
      <trkpt lat="48.11076" lon="-3.54814">
        <ele>177.3</ele>
        <time>2025-02-25T13:28:26Z</time>
      </trkpt>
      <trkpt lat="48.11075" lon="-3.54814">
        <ele>177.4</ele>
        <time>2025-02-25T13:28:27Z</time>
      </trkpt>
      <trkpt lat="48.11075" lon="-3.54813">
        <ele>177.3</ele>
        <time>2025-02-25T13:28:28Z</time>
      </trkpt>
      <trkpt lat="48.11074" lon="-3.54812">
        <ele>177.3</ele>
        <time>2025-02-25T13:28:29Z</time>
      </trkpt>
      <trkpt lat="48.11073" lon="-3.54812">
        <ele>177.4</ele>
        <time>2025-02-25T13:28:30Z</time>
      </trkpt>
      <trkpt lat="48.11072" lon="-3.54812">
        <ele>177.5</ele>
        <time>2025-02-25T13:28:31Z</time>
      </trkpt>
      <trkpt lat="48.11072" lon="-3.54811">
        <ele>177.4</ele>
        <time>2025-02-25T13:28:32Z</time>
      </trkpt>
      <trkpt lat="48.11071" lon="-3.54811">
        <ele>177.5</ele>
        <time>2025-02-25T13:28:33Z</time>
      </trkpt>
      <trkpt lat="48.1107" lon="-3.5481">
        <ele>177.4</ele>
        <time>2025-02-25T13:28:34Z</time>
      </trkpt>
      <trkpt lat="48.11069" lon="-3.5481">
        <ele>177.5</ele>
        <time>2025-02-25T13:28:35Z</time>
      </trkpt>
      <trkpt lat="48.11068" lon="-3.5481">
        <ele>177.6</ele>
        <time>2025-02-25T13:28:36Z</time>
      </trkpt>
      <trkpt lat="48.11068" lon="-3.54809">
        <ele>177.5</ele>
        <time>2025-02-25T13:28:37Z</time>
      </trkpt>
      <trkpt lat="48.11067" lon="-3.54809">
        <ele>177.6</ele>
        <time>2025-02-25T13:28:38Z</time>
      </trkpt>
      <trkpt lat="48.11067" lon="-3.54808">
        <ele>177.5</ele>
        <time>2025-02-25T13:28:39Z</time>
      </trkpt>
      <trkpt lat="48.11066" lon="-3.54808">
        <ele>177.5</ele>
        <time>2025-02-25T13:28:40Z</time>
      </trkpt>
      <trkpt lat="48.11066" lon="-3.54808">
        <ele>177.5</ele>
        <time>2025-02-25T13:28:41Z</time>
      </trkpt>
      <trkpt lat="48.11065" lon="-3.54808">
        <ele>177.6</ele>
        <time>2025-02-25T13:28:42Z</time>
      </trkpt>
      <trkpt lat="48.11065" lon="-3.54809">
        <ele>177.7</ele>
        <time>2025-02-25T13:28:43Z</time>
      </trkpt>
      <trkpt lat="48.11065" lon="-3.54809">
        <ele>177.7</ele>
        <time>2025-02-25T13:28:44Z</time>
      </trkpt>
      <trkpt lat="48.11065" lon="-3.54809">
        <ele>177.7</ele>
        <time>2025-02-25T13:28:45Z</time>
      </trkpt>
      <trkpt lat="48.11065" lon="-3.54809">
        <ele>177.7</ele>
        <time>2025-02-25T13:28:46Z</time>
      </trkpt>
      <trkpt lat="48.11065" lon="-3.54809">
        <ele>177.7</ele>
        <time>2025-02-25T13:28:47Z</time>
      </trkpt>
      <trkpt lat="48.11065" lon="-3.54809">
        <ele>177.7</ele>
        <time>2025-02-25T13:28:48Z</time>
      </trkpt>
      <trkpt lat="48.11065" lon="-3.54809">
        <ele>177.7</ele>
        <time>2025-02-25T13:28:49Z</time>
      </trkpt>
      <trkpt lat="48.11065" lon="-3.54809">
        <ele>177.7</ele>
        <time>2025-02-25T13:28:50Z</time>
      </trkpt>
      <trkpt lat="48.11065" lon="-3.54809">
        <ele>177.7</ele>
        <time>2025-02-25T13:28:51Z</time>
      </trkpt>
      <trkpt lat="48.11066" lon="-3.54809">
        <ele>177.7</ele>
        <time>2025-02-25T13:28:52Z</time>
      </trkpt>
      <trkpt lat="48.11066" lon="-3.54808">
        <ele>177.5</ele>
        <time>2025-02-25T13:28:53Z</time>
      </trkpt>
      <trkpt lat="48.11065" lon="-3.54808">
        <ele>177.6</ele>
        <time>2025-02-25T13:28:54Z</time>
      </trkpt>
      <trkpt lat="48.11065" lon="-3.54808">
        <ele>177.6</ele>
        <time>2025-02-25T13:28:55Z</time>
      </trkpt>
      <trkpt lat="48.11065" lon="-3.54808">
        <ele>177.6</ele>
        <time>2025-02-25T13:28:56Z</time>
      </trkpt>
      <trkpt lat="48.11065" lon="-3.54808">
        <ele>177.6</ele>
        <time>2025-02-25T13:28:57Z</time>
      </trkpt>
      <trkpt lat="48.11065" lon="-3.54808">
        <ele>177.6</ele>
        <time>2025-02-25T13:28:58Z</time>
      </trkpt>
      <trkpt lat="48.11065" lon="-3.54808">
        <ele>177.6</ele>
        <time>2025-02-25T13:28:59Z</time>
      </trkpt>
      <trkpt lat="48.11064" lon="-3.54809">
        <ele>177.8</ele>
        <time>2025-02-25T13:29:00Z</time>
      </trkpt>
      <trkpt lat="48.11064" lon="-3.54809">
        <ele>177.8</ele>
        <time>2025-02-25T13:29:01Z</time>
      </trkpt>
      <trkpt lat="48.11065" lon="-3.54809">
        <ele>177.7</ele>
        <time>2025-02-25T13:29:02Z</time>
      </trkpt>
      <trkpt lat="48.11065" lon="-3.54809">
        <ele>177.7</ele>
        <time>2025-02-25T13:29:03Z</time>
      </trkpt>
      <trkpt lat="48.11065" lon="-3.54809">
        <ele>177.7</ele>
        <time>2025-02-25T13:29:04Z</time>
      </trkpt>
      <trkpt lat="48.11065" lon="-3.54809">
        <ele>177.7</ele>
        <time>2025-02-25T13:29:05Z</time>
      </trkpt>
      <trkpt lat="48.11065" lon="-3.54809">
        <ele>177.7</ele>
        <time>2025-02-25T13:29:06Z</time>
      </trkpt>
      <trkpt lat="48.11065" lon="-3.54808">
        <ele>177.6</ele>
        <time>2025-02-25T13:29:07Z</time>
      </trkpt>
      <trkpt lat="48.11065" lon="-3.54808">
        <ele>177.6</ele>
        <time>2025-02-25T13:29:08Z</time>
      </trkpt>
      <trkpt lat="48.11064" lon="-3.54807">
        <ele>177.6</ele>
        <time>2025-02-25T13:29:09Z</time>
      </trkpt>
      <trkpt lat="48.11063" lon="-3.54806">
        <ele>177.5</ele>
        <time>2025-02-25T13:29:10Z</time>
      </trkpt>
      <trkpt lat="48.11063" lon="-3.54805">
        <ele>177.4</ele>
        <time>2025-02-25T13:29:11Z</time>
      </trkpt>
      <trkpt lat="48.11062" lon="-3.54805">
        <ele>177.5</ele>
        <time>2025-02-25T13:29:12Z</time>
      </trkpt>
      <trkpt lat="48.11062" lon="-3.54804">
        <ele>177.4</ele>
        <time>2025-02-25T13:29:13Z</time>
      </trkpt>
      <trkpt lat="48.1106" lon="-3.54803">
        <ele>177.4</ele>
        <time>2025-02-25T13:29:14Z</time>
      </trkpt>
      <trkpt lat="48.11059" lon="-3.54803">
        <ele>177.5</ele>
        <time>2025-02-25T13:29:15Z</time>
      </trkpt>
      <trkpt lat="48.11058" lon="-3.54803">
        <ele>177.6</ele>
        <time>2025-02-25T13:29:16Z</time>
      </trkpt>
      <trkpt lat="48.11057" lon="-3.54802">
        <ele>177.5</ele>
        <time>2025-02-25T13:29:17Z</time>
      </trkpt>
      <trkpt lat="48.11056" lon="-3.54803">
        <ele>177.7</ele>
        <time>2025-02-25T13:29:18Z</time>
      </trkpt>
      <trkpt lat="48.11056" lon="-3.54803">
        <ele>177.7</ele>
        <time>2025-02-25T13:29:19Z</time>
      </trkpt>
      <trkpt lat="48.11056" lon="-3.54802">
        <ele>177.6</ele>
        <time>2025-02-25T13:29:20Z</time>
      </trkpt>
      <trkpt lat="48.11056" lon="-3.54802">
        <ele>177.6</ele>
        <time>2025-02-25T13:29:21Z</time>
      </trkpt>
      <trkpt lat="48.11055" lon="-3.54802">
        <ele>177.7</ele>
        <time>2025-02-25T13:29:22Z</time>
      </trkpt>
      <trkpt lat="48.11054" lon="-3.54801">
        <ele>177.6</ele>
        <time>2025-02-25T13:29:23Z</time>
      </trkpt>
      <trkpt lat="48.11053" lon="-3.54801">
        <ele>177.7</ele>
        <time>2025-02-25T13:29:24Z</time>
      </trkpt>
      <trkpt lat="48.11052" lon="-3.548">
        <ele>177.7</ele>
        <time>2025-02-25T13:29:25Z</time>
      </trkpt>
      <trkpt lat="48.11051" lon="-3.548">
        <ele>177.7</ele>
        <time>2025-02-25T13:29:26Z</time>
      </trkpt>
      <trkpt lat="48.1105" lon="-3.54799">
        <ele>177.7</ele>
        <time>2025-02-25T13:29:27Z</time>
      </trkpt>
      <trkpt lat="48.11049" lon="-3.54798">
        <ele>177.7</ele>
        <time>2025-02-25T13:29:28Z</time>
      </trkpt>
      <trkpt lat="48.11048" lon="-3.54798">
        <ele>177.7</ele>
        <time>2025-02-25T13:29:29Z</time>
      </trkpt>
      <trkpt lat="48.11047" lon="-3.54797">
        <ele>177.7</ele>
        <time>2025-02-25T13:29:30Z</time>
      </trkpt>
      <trkpt lat="48.11046" lon="-3.54797">
        <ele>177.8</ele>
        <time>2025-02-25T13:29:31Z</time>
      </trkpt>
      <trkpt lat="48.11045" lon="-3.54797">
        <ele>177.8</ele>
        <time>2025-02-25T13:29:32Z</time>
      </trkpt>
      <trkpt lat="48.11044" lon="-3.54797">
        <ele>177.9</ele>
        <time>2025-02-25T13:29:33Z</time>
      </trkpt>
      <trkpt lat="48.11043" lon="-3.54797">
        <ele>178</ele>
        <time>2025-02-25T13:29:34Z</time>
      </trkpt>
      <trkpt lat="48.11043" lon="-3.54796">
        <ele>177.9</ele>
        <time>2025-02-25T13:29:35Z</time>
      </trkpt>
      <trkpt lat="48.11042" lon="-3.54795">
        <ele>177.8</ele>
        <time>2025-02-25T13:29:36Z</time>
      </trkpt>
      <trkpt lat="48.11041" lon="-3.54794">
        <ele>177.8</ele>
        <time>2025-02-25T13:29:37Z</time>
      </trkpt>
      <trkpt lat="48.11041" lon="-3.54793">
        <ele>177.7</ele>
        <time>2025-02-25T13:29:38Z</time>
      </trkpt>
      <trkpt lat="48.1104" lon="-3.54792">
        <ele>177.7</ele>
        <time>2025-02-25T13:29:39Z</time>
      </trkpt>
      <trkpt lat="48.11039" lon="-3.54792">
        <ele>177.7</ele>
        <time>2025-02-25T13:29:40Z</time>
      </trkpt>
      <trkpt lat="48.11039" lon="-3.5479">
        <ele>177.5</ele>
        <time>2025-02-25T13:29:41Z</time>
      </trkpt>
      <trkpt lat="48.11039" lon="-3.54789">
        <ele>177.4</ele>
        <time>2025-02-25T13:29:42Z</time>
      </trkpt>
      <trkpt lat="48.11039" lon="-3.54788">
        <ele>177.3</ele>
        <time>2025-02-25T13:29:43Z</time>
      </trkpt>
      <trkpt lat="48.11039" lon="-3.54787">
        <ele>177.2</ele>
        <time>2025-02-25T13:29:44Z</time>
      </trkpt>
      <trkpt lat="48.11038" lon="-3.54786">
        <ele>177.2</ele>
        <time>2025-02-25T13:29:45Z</time>
      </trkpt>
      <trkpt lat="48.11037" lon="-3.54786">
        <ele>177.2</ele>
        <time>2025-02-25T13:29:46Z</time>
      </trkpt>
      <trkpt lat="48.11036" lon="-3.54786">
        <ele>177.3</ele>
        <time>2025-02-25T13:29:47Z</time>
      </trkpt>
      <trkpt lat="48.11035" lon="-3.54787">
        <ele>177.5</ele>
        <time>2025-02-25T13:29:48Z</time>
      </trkpt>
      <trkpt lat="48.11034" lon="-3.54787">
        <ele>177.5</ele>
        <time>2025-02-25T13:29:49Z</time>
      </trkpt>
      <trkpt lat="48.11033" lon="-3.54786">
        <ele>177.5</ele>
        <time>2025-02-25T13:29:50Z</time>
      </trkpt>
      <trkpt lat="48.11032" lon="-3.54785">
        <ele>177.5</ele>
        <time>2025-02-25T13:29:51Z</time>
      </trkpt>
      <trkpt lat="48.11032" lon="-3.54784">
        <ele>177.4</ele>
        <time>2025-02-25T13:29:52Z</time>
      </trkpt>
      <trkpt lat="48.11031" lon="-3.54783">
        <ele>177.3</ele>
        <time>2025-02-25T13:29:53Z</time>
      </trkpt>
      <trkpt lat="48.1103" lon="-3.54783">
        <ele>177.4</ele>
        <time>2025-02-25T13:29:54Z</time>
      </trkpt>
      <trkpt lat="48.11029" lon="-3.54781">
        <ele>177.3</ele>
        <time>2025-02-25T13:29:55Z</time>
      </trkpt>
      <trkpt lat="48.11029" lon="-3.54779">
        <ele>177</ele>
        <time>2025-02-25T13:29:56Z</time>
      </trkpt>
      <trkpt lat="48.11028" lon="-3.54779">
        <ele>177.1</ele>
        <time>2025-02-25T13:29:57Z</time>
      </trkpt>
      <trkpt lat="48.11026" lon="-3.54779">
        <ele>177.2</ele>
        <time>2025-02-25T13:29:58Z</time>
      </trkpt>
      <trkpt lat="48.11025" lon="-3.54779">
        <ele>177.2</ele>
        <time>2025-02-25T13:29:59Z</time>
      </trkpt>
      <trkpt lat="48.11024" lon="-3.54779">
        <ele>177.3</ele>
        <time>2025-02-25T13:30:00Z</time>
      </trkpt>
      <trkpt lat="48.11023" lon="-3.54779">
        <ele>177.3</ele>
        <time>2025-02-25T13:30:01Z</time>
      </trkpt>
      <trkpt lat="48.11022" lon="-3.54778">
        <ele>177.2</ele>
        <time>2025-02-25T13:30:02Z</time>
      </trkpt>
      <trkpt lat="48.11021" lon="-3.54777">
        <ele>177.2</ele>
        <time>2025-02-25T13:30:03Z</time>
      </trkpt>
      <trkpt lat="48.11021" lon="-3.54776">
        <ele>177.1</ele>
        <time>2025-02-25T13:30:04Z</time>
      </trkpt>
      <trkpt lat="48.1102" lon="-3.54774">
        <ele>176.9</ele>
        <time>2025-02-25T13:30:05Z</time>
      </trkpt>
      <trkpt lat="48.1102" lon="-3.54772">
        <ele>176.7</ele>
        <time>2025-02-25T13:30:06Z</time>
      </trkpt>
      <trkpt lat="48.11019" lon="-3.54771">
        <ele>176.6</ele>
        <time>2025-02-25T13:30:07Z</time>
      </trkpt>
      <trkpt lat="48.11018" lon="-3.5477">
        <ele>176.5</ele>
        <time>2025-02-25T13:30:08Z</time>
      </trkpt>
      <trkpt lat="48.11017" lon="-3.54769">
        <ele>176.4</ele>
        <time>2025-02-25T13:30:09Z</time>
      </trkpt>
      <trkpt lat="48.11016" lon="-3.54769">
        <ele>176.5</ele>
        <time>2025-02-25T13:30:10Z</time>
      </trkpt>
      <trkpt lat="48.11016" lon="-3.54768">
        <ele>176.4</ele>
        <time>2025-02-25T13:30:11Z</time>
      </trkpt>
      <trkpt lat="48.11015" lon="-3.54767">
        <ele>176.3</ele>
        <time>2025-02-25T13:30:12Z</time>
      </trkpt>
      <trkpt lat="48.11015" lon="-3.54766">
        <ele>176.2</ele>
        <time>2025-02-25T13:30:13Z</time>
      </trkpt>
      <trkpt lat="48.11015" lon="-3.54764">
        <ele>176</ele>
        <time>2025-02-25T13:30:14Z</time>
      </trkpt>
      <trkpt lat="48.11014" lon="-3.54763">
        <ele>175.9</ele>
        <time>2025-02-25T13:30:15Z</time>
      </trkpt>
      <trkpt lat="48.11013" lon="-3.54763">
        <ele>175.9</ele>
        <time>2025-02-25T13:30:16Z</time>
      </trkpt>
      <trkpt lat="48.11012" lon="-3.54763">
        <ele>176</ele>
        <time>2025-02-25T13:30:17Z</time>
      </trkpt>
      <trkpt lat="48.11011" lon="-3.54763">
        <ele>176</ele>
        <time>2025-02-25T13:30:18Z</time>
      </trkpt>
      <trkpt lat="48.11009" lon="-3.54763">
        <ele>176.1</ele>
        <time>2025-02-25T13:30:19Z</time>
      </trkpt>
      <trkpt lat="48.11008" lon="-3.54765">
        <ele>176.3</ele>
        <time>2025-02-25T13:30:20Z</time>
      </trkpt>
      <trkpt lat="48.11008" lon="-3.54766">
        <ele>176.4</ele>
        <time>2025-02-25T13:30:21Z</time>
      </trkpt>
      <trkpt lat="48.11007" lon="-3.54768">
        <ele>176.7</ele>
        <time>2025-02-25T13:30:22Z</time>
      </trkpt>
      <trkpt lat="48.11006" lon="-3.54769">
        <ele>176.8</ele>
        <time>2025-02-25T13:30:23Z</time>
      </trkpt>
      <trkpt lat="48.11006" lon="-3.5477">
        <ele>176.9</ele>
        <time>2025-02-25T13:30:24Z</time>
      </trkpt>
      <trkpt lat="48.11004" lon="-3.54771">
        <ele>177.1</ele>
        <time>2025-02-25T13:30:25Z</time>
      </trkpt>
      <trkpt lat="48.11003" lon="-3.54771">
        <ele>177.2</ele>
        <time>2025-02-25T13:30:26Z</time>
      </trkpt>
      <trkpt lat="48.11002" lon="-3.5477">
        <ele>177.1</ele>
        <time>2025-02-25T13:30:27Z</time>
      </trkpt>
      <trkpt lat="48.11001" lon="-3.5477">
        <ele>177.1</ele>
        <time>2025-02-25T13:30:28Z</time>
      </trkpt>
      <trkpt lat="48.11" lon="-3.5477">
        <ele>177.2</ele>
        <time>2025-02-25T13:30:29Z</time>
      </trkpt>
      <trkpt lat="48.10999" lon="-3.54768">
        <ele>176.9</ele>
        <time>2025-02-25T13:30:30Z</time>
      </trkpt>
      <trkpt lat="48.10998" lon="-3.54767">
        <ele>176.7</ele>
        <time>2025-02-25T13:30:31Z</time>
      </trkpt>
      <trkpt lat="48.10997" lon="-3.54766">
        <ele>176.6</ele>
        <time>2025-02-25T13:30:32Z</time>
      </trkpt>
      <trkpt lat="48.10996" lon="-3.54764">
        <ele>176.3</ele>
        <time>2025-02-25T13:30:33Z</time>
      </trkpt>
      <trkpt lat="48.10996" lon="-3.54763">
        <ele>176.2</ele>
        <time>2025-02-25T13:30:34Z</time>
      </trkpt>
      <trkpt lat="48.10995" lon="-3.54763">
        <ele>176.1</ele>
        <time>2025-02-25T13:30:35Z</time>
      </trkpt>
      <trkpt lat="48.10994" lon="-3.54763">
        <ele>176.1</ele>
        <time>2025-02-25T13:30:36Z</time>
      </trkpt>
      <trkpt lat="48.10993" lon="-3.54764">
        <ele>176.1</ele>
        <time>2025-02-25T13:30:37Z</time>
      </trkpt>
      <trkpt lat="48.10991" lon="-3.54765">
        <ele>176.1</ele>
        <time>2025-02-25T13:30:38Z</time>
      </trkpt>
      <trkpt lat="48.1099" lon="-3.54765">
        <ele>176.1</ele>
        <time>2025-02-25T13:30:39Z</time>
      </trkpt>
      <trkpt lat="48.10989" lon="-3.54765">
        <ele>176</ele>
        <time>2025-02-25T13:30:40Z</time>
      </trkpt>
      <trkpt lat="48.10988" lon="-3.54765">
        <ele>176</ele>
        <time>2025-02-25T13:30:41Z</time>
      </trkpt>
      <trkpt lat="48.10987" lon="-3.54765">
        <ele>175.9</ele>
        <time>2025-02-25T13:30:42Z</time>
      </trkpt>
      <trkpt lat="48.10986" lon="-3.54765">
        <ele>175.8</ele>
        <time>2025-02-25T13:30:43Z</time>
      </trkpt>
      <trkpt lat="48.10984" lon="-3.54765">
        <ele>175.7</ele>
        <time>2025-02-25T13:30:44Z</time>
      </trkpt>
      <trkpt lat="48.10983" lon="-3.54764">
        <ele>175.6</ele>
        <time>2025-02-25T13:30:45Z</time>
      </trkpt>
      <trkpt lat="48.10982" lon="-3.54764">
        <ele>175.5</ele>
        <time>2025-02-25T13:30:46Z</time>
      </trkpt>
      <trkpt lat="48.10981" lon="-3.54764">
        <ele>175.5</ele>
        <time>2025-02-25T13:30:47Z</time>
      </trkpt>
      <trkpt lat="48.1098" lon="-3.54764">
        <ele>175.4</ele>
        <time>2025-02-25T13:30:48Z</time>
      </trkpt>
      <trkpt lat="48.10979" lon="-3.54763">
        <ele>175.3</ele>
        <time>2025-02-25T13:30:49Z</time>
      </trkpt>
      <trkpt lat="48.10978" lon="-3.54763">
        <ele>175.2</ele>
        <time>2025-02-25T13:30:50Z</time>
      </trkpt>
      <trkpt lat="48.10976" lon="-3.54764">
        <ele>175.2</ele>
        <time>2025-02-25T13:30:51Z</time>
      </trkpt>
      <trkpt lat="48.10974" lon="-3.54764">
        <ele>175.1</ele>
        <time>2025-02-25T13:30:52Z</time>
      </trkpt>
      <trkpt lat="48.10973" lon="-3.54764">
        <ele>175.1</ele>
        <time>2025-02-25T13:30:53Z</time>
      </trkpt>
      <trkpt lat="48.10971" lon="-3.54764">
        <ele>174.9</ele>
        <time>2025-02-25T13:30:54Z</time>
      </trkpt>
      <trkpt lat="48.1097" lon="-3.54763">
        <ele>174.8</ele>
        <time>2025-02-25T13:30:55Z</time>
      </trkpt>
      <trkpt lat="48.10969" lon="-3.54764">
        <ele>174.8</ele>
        <time>2025-02-25T13:30:56Z</time>
      </trkpt>
      <trkpt lat="48.10969" lon="-3.54765">
        <ele>174.8</ele>
        <time>2025-02-25T13:30:57Z</time>
      </trkpt>
      <trkpt lat="48.10967" lon="-3.54764">
        <ele>174.6</ele>
        <time>2025-02-25T13:30:58Z</time>
      </trkpt>
      <trkpt lat="48.10966" lon="-3.54765">
        <ele>174.6</ele>
        <time>2025-02-25T13:30:59Z</time>
      </trkpt>
      <trkpt lat="48.10965" lon="-3.54765">
        <ele>174.6</ele>
        <time>2025-02-25T13:31:00Z</time>
      </trkpt>
      <trkpt lat="48.10964" lon="-3.54765">
        <ele>174.5</ele>
        <time>2025-02-25T13:31:01Z</time>
      </trkpt>
      <trkpt lat="48.10963" lon="-3.54765">
        <ele>174.4</ele>
        <time>2025-02-25T13:31:02Z</time>
      </trkpt>
      <trkpt lat="48.10962" lon="-3.54765">
        <ele>174.3</ele>
        <time>2025-02-25T13:31:03Z</time>
      </trkpt>
      <trkpt lat="48.10961" lon="-3.54765">
        <ele>174.3</ele>
        <time>2025-02-25T13:31:04Z</time>
      </trkpt>
      <trkpt lat="48.1096" lon="-3.54765">
        <ele>174.2</ele>
        <time>2025-02-25T13:31:05Z</time>
      </trkpt>
      <trkpt lat="48.1096" lon="-3.54765">
        <ele>174.2</ele>
        <time>2025-02-25T13:31:06Z</time>
      </trkpt>
      <trkpt lat="48.10959" lon="-3.54764">
        <ele>174.1</ele>
        <time>2025-02-25T13:31:07Z</time>
      </trkpt>
      <trkpt lat="48.10959" lon="-3.54763">
        <ele>174</ele>
        <time>2025-02-25T13:31:08Z</time>
      </trkpt>
      <trkpt lat="48.10959" lon="-3.54761">
        <ele>173.8</ele>
        <time>2025-02-25T13:31:09Z</time>
      </trkpt>
      <trkpt lat="48.10958" lon="-3.5476">
        <ele>173.7</ele>
        <time>2025-02-25T13:31:10Z</time>
      </trkpt>
      <trkpt lat="48.10958" lon="-3.54759">
        <ele>173.6</ele>
        <time>2025-02-25T13:31:11Z</time>
      </trkpt>
      <trkpt lat="48.10957" lon="-3.5476">
        <ele>173.6</ele>
        <time>2025-02-25T13:31:12Z</time>
      </trkpt>
      <trkpt lat="48.10956" lon="-3.5476">
        <ele>173.6</ele>
        <time>2025-02-25T13:31:13Z</time>
      </trkpt>
      <trkpt lat="48.10955" lon="-3.54761">
        <ele>173.6</ele>
        <time>2025-02-25T13:31:14Z</time>
      </trkpt>
      <trkpt lat="48.10954" lon="-3.54761">
        <ele>173.5</ele>
        <time>2025-02-25T13:31:15Z</time>
      </trkpt>
      <trkpt lat="48.10953" lon="-3.54761">
        <ele>173.4</ele>
        <time>2025-02-25T13:31:16Z</time>
      </trkpt>
      <trkpt lat="48.10952" lon="-3.54761">
        <ele>173.3</ele>
        <time>2025-02-25T13:31:17Z</time>
      </trkpt>
      <trkpt lat="48.10951" lon="-3.5476">
        <ele>173.2</ele>
        <time>2025-02-25T13:31:18Z</time>
      </trkpt>
      <trkpt lat="48.1095" lon="-3.5476">
        <ele>173.1</ele>
        <time>2025-02-25T13:31:19Z</time>
      </trkpt>
      <trkpt lat="48.10948" lon="-3.5476">
        <ele>173</ele>
        <time>2025-02-25T13:31:20Z</time>
      </trkpt>
      <trkpt lat="48.10947" lon="-3.5476">
        <ele>172.9</ele>
        <time>2025-02-25T13:31:21Z</time>
      </trkpt>
      <trkpt lat="48.10946" lon="-3.5476">
        <ele>172.8</ele>
        <time>2025-02-25T13:31:22Z</time>
      </trkpt>
      <trkpt lat="48.10945" lon="-3.54759">
        <ele>172.7</ele>
        <time>2025-02-25T13:31:23Z</time>
      </trkpt>
      <trkpt lat="48.10944" lon="-3.54759">
        <ele>172.6</ele>
        <time>2025-02-25T13:31:24Z</time>
      </trkpt>
      <trkpt lat="48.10943" lon="-3.54759">
        <ele>172.5</ele>
        <time>2025-02-25T13:31:25Z</time>
      </trkpt>
      <trkpt lat="48.10942" lon="-3.54758">
        <ele>172.3</ele>
        <time>2025-02-25T13:31:26Z</time>
      </trkpt>
      <trkpt lat="48.10942" lon="-3.54758">
        <ele>172.3</ele>
        <time>2025-02-25T13:31:27Z</time>
      </trkpt>
      <trkpt lat="48.1094" lon="-3.54758">
        <ele>172.2</ele>
        <time>2025-02-25T13:31:28Z</time>
      </trkpt>
      <trkpt lat="48.1094" lon="-3.54758">
        <ele>172.2</ele>
        <time>2025-02-25T13:31:29Z</time>
      </trkpt>
      <trkpt lat="48.10939" lon="-3.54758">
        <ele>172.1</ele>
        <time>2025-02-25T13:31:30Z</time>
      </trkpt>
      <trkpt lat="48.10937" lon="-3.54758">
        <ele>171.9</ele>
        <time>2025-02-25T13:31:31Z</time>
      </trkpt>
      <trkpt lat="48.10936" lon="-3.54758">
        <ele>171.8</ele>
        <time>2025-02-25T13:31:32Z</time>
      </trkpt>
      <trkpt lat="48.10935" lon="-3.54758">
        <ele>171.7</ele>
        <time>2025-02-25T13:31:33Z</time>
      </trkpt>
      <trkpt lat="48.10934" lon="-3.54757">
        <ele>171.6</ele>
        <time>2025-02-25T13:31:34Z</time>
      </trkpt>
      <trkpt lat="48.10933" lon="-3.54757">
        <ele>171.5</ele>
        <time>2025-02-25T13:31:35Z</time>
      </trkpt>
      <trkpt lat="48.10932" lon="-3.54755">
        <ele>171.3</ele>
        <time>2025-02-25T13:31:36Z</time>
      </trkpt>
      <trkpt lat="48.10931" lon="-3.54754">
        <ele>171.2</ele>
        <time>2025-02-25T13:31:37Z</time>
      </trkpt>
      <trkpt lat="48.1093" lon="-3.54753">
        <ele>171.1</ele>
        <time>2025-02-25T13:31:38Z</time>
      </trkpt>
      <trkpt lat="48.10929" lon="-3.54751">
        <ele>170.9</ele>
        <time>2025-02-25T13:31:39Z</time>
      </trkpt>
      <trkpt lat="48.10929" lon="-3.54749">
        <ele>170.9</ele>
        <time>2025-02-25T13:31:40Z</time>
      </trkpt>
      <trkpt lat="48.10928" lon="-3.54748">
        <ele>170.8</ele>
        <time>2025-02-25T13:31:41Z</time>
      </trkpt>
      <trkpt lat="48.10928" lon="-3.54747">
        <ele>170.8</ele>
        <time>2025-02-25T13:31:42Z</time>
      </trkpt>
      <trkpt lat="48.10928" lon="-3.54745">
        <ele>170.8</ele>
        <time>2025-02-25T13:31:43Z</time>
      </trkpt>
      <trkpt lat="48.10929" lon="-3.54744">
        <ele>170.9</ele>
        <time>2025-02-25T13:31:44Z</time>
      </trkpt>
      <trkpt lat="48.1093" lon="-3.54743">
        <ele>171</ele>
        <time>2025-02-25T13:31:45Z</time>
      </trkpt>
      <trkpt lat="48.1093" lon="-3.54741">
        <ele>171</ele>
        <time>2025-02-25T13:31:46Z</time>
      </trkpt>
      <trkpt lat="48.10931" lon="-3.5474">
        <ele>171</ele>
        <time>2025-02-25T13:31:47Z</time>
      </trkpt>
      <trkpt lat="48.10932" lon="-3.54739">
        <ele>171.1</ele>
        <time>2025-02-25T13:31:48Z</time>
      </trkpt>
      <trkpt lat="48.10932" lon="-3.54738">
        <ele>171.1</ele>
        <time>2025-02-25T13:31:49Z</time>
      </trkpt>
      <trkpt lat="48.10933" lon="-3.54736">
        <ele>171.2</ele>
        <time>2025-02-25T13:31:50Z</time>
      </trkpt>
      <trkpt lat="48.10933" lon="-3.54735">
        <ele>171.2</ele>
        <time>2025-02-25T13:31:51Z</time>
      </trkpt>
      <trkpt lat="48.10932" lon="-3.54733">
        <ele>171.1</ele>
        <time>2025-02-25T13:31:52Z</time>
      </trkpt>
      <trkpt lat="48.10932" lon="-3.54732">
        <ele>171.1</ele>
        <time>2025-02-25T13:31:53Z</time>
      </trkpt>
      <trkpt lat="48.10932" lon="-3.54731">
        <ele>171.1</ele>
        <time>2025-02-25T13:31:54Z</time>
      </trkpt>
      <trkpt lat="48.10932" lon="-3.5473">
        <ele>171.1</ele>
        <time>2025-02-25T13:31:55Z</time>
      </trkpt>
      <trkpt lat="48.10931" lon="-3.54729">
        <ele>171</ele>
        <time>2025-02-25T13:31:56Z</time>
      </trkpt>
      <trkpt lat="48.10932" lon="-3.54727">
        <ele>171.1</ele>
        <time>2025-02-25T13:31:57Z</time>
      </trkpt>
      <trkpt lat="48.10932" lon="-3.54726">
        <ele>171.1</ele>
        <time>2025-02-25T13:31:58Z</time>
      </trkpt>
      <trkpt lat="48.10932" lon="-3.54725">
        <ele>171.1</ele>
        <time>2025-02-25T13:31:59Z</time>
      </trkpt>
      <trkpt lat="48.10933" lon="-3.54723">
        <ele>171.2</ele>
        <time>2025-02-25T13:32:00Z</time>
      </trkpt>
      <trkpt lat="48.10933" lon="-3.54724">
        <ele>171.2</ele>
        <time>2025-02-25T13:32:01Z</time>
      </trkpt>
      <trkpt lat="48.10933" lon="-3.54723">
        <ele>171.2</ele>
        <time>2025-02-25T13:32:02Z</time>
      </trkpt>
      <trkpt lat="48.10934" lon="-3.54723">
        <ele>171.2</ele>
        <time>2025-02-25T13:32:03Z</time>
      </trkpt>
      <trkpt lat="48.10934" lon="-3.54722">
        <ele>171.3</ele>
        <time>2025-02-25T13:32:04Z</time>
      </trkpt>
      <trkpt lat="48.10934" lon="-3.54721">
        <ele>171.3</ele>
        <time>2025-02-25T13:32:05Z</time>
      </trkpt>
      <trkpt lat="48.10934" lon="-3.54721">
        <ele>171.3</ele>
        <time>2025-02-25T13:32:06Z</time>
      </trkpt>
      <trkpt lat="48.10934" lon="-3.5472">
        <ele>171.3</ele>
        <time>2025-02-25T13:32:07Z</time>
      </trkpt>
      <trkpt lat="48.10934" lon="-3.5472">
        <ele>171.3</ele>
        <time>2025-02-25T13:32:08Z</time>
      </trkpt>
      <trkpt lat="48.10932" lon="-3.54719">
        <ele>171.2</ele>
        <time>2025-02-25T13:32:09Z</time>
      </trkpt>
      <trkpt lat="48.10932" lon="-3.54715">
        <ele>171.2</ele>
        <time>2025-02-25T13:32:10Z</time>
      </trkpt>
      <trkpt lat="48.10933" lon="-3.54714">
        <ele>171.3</ele>
        <time>2025-02-25T13:32:11Z</time>
      </trkpt>
      <trkpt lat="48.10934" lon="-3.54715">
        <ele>171.3</ele>
        <time>2025-02-25T13:32:12Z</time>
      </trkpt>
      <trkpt lat="48.10935" lon="-3.54715">
        <ele>171.4</ele>
        <time>2025-02-25T13:32:13Z</time>
      </trkpt>
      <trkpt lat="48.10935" lon="-3.54715">
        <ele>171.4</ele>
        <time>2025-02-25T13:32:14Z</time>
      </trkpt>
      <trkpt lat="48.10935" lon="-3.54715">
        <ele>171.4</ele>
        <time>2025-02-25T13:32:15Z</time>
      </trkpt>
      <trkpt lat="48.10935" lon="-3.54714">
        <ele>171.4</ele>
        <time>2025-02-25T13:32:16Z</time>
      </trkpt>
      <trkpt lat="48.10935" lon="-3.54714">
        <ele>171.4</ele>
        <time>2025-02-25T13:32:17Z</time>
      </trkpt>
      <trkpt lat="48.10937" lon="-3.54713">
        <ele>171.6</ele>
        <time>2025-02-25T13:32:18Z</time>
      </trkpt>
      <trkpt lat="48.10938" lon="-3.54714">
        <ele>171.6</ele>
        <time>2025-02-25T13:32:19Z</time>
      </trkpt>
      <trkpt lat="48.10938" lon="-3.54714">
        <ele>171.6</ele>
        <time>2025-02-25T13:32:20Z</time>
      </trkpt>
      <trkpt lat="48.10939" lon="-3.54713">
        <ele>171.7</ele>
        <time>2025-02-25T13:32:21Z</time>
      </trkpt>
      <trkpt lat="48.10939" lon="-3.54711">
        <ele>171.7</ele>
        <time>2025-02-25T13:32:22Z</time>
      </trkpt>
      <trkpt lat="48.10939" lon="-3.54711">
        <ele>171.7</ele>
        <time>2025-02-25T13:32:23Z</time>
      </trkpt>
      <trkpt lat="48.10939" lon="-3.5471">
        <ele>171.7</ele>
        <time>2025-02-25T13:32:24Z</time>
      </trkpt>
      <trkpt lat="48.1094" lon="-3.54709">
        <ele>171.8</ele>
        <time>2025-02-25T13:32:25Z</time>
      </trkpt>
      <trkpt lat="48.1094" lon="-3.54711">
        <ele>171.7</ele>
        <time>2025-02-25T13:32:26Z</time>
      </trkpt>
      <trkpt lat="48.1094" lon="-3.5471">
        <ele>171.8</ele>
        <time>2025-02-25T13:32:27Z</time>
      </trkpt>
      <trkpt lat="48.10941" lon="-3.5471">
        <ele>171.8</ele>
        <time>2025-02-25T13:32:28Z</time>
      </trkpt>
      <trkpt lat="48.10941" lon="-3.54708">
        <ele>171.8</ele>
        <time>2025-02-25T13:32:29Z</time>
      </trkpt>
      <trkpt lat="48.10942" lon="-3.54707">
        <ele>171.9</ele>
        <time>2025-02-25T13:32:30Z</time>
      </trkpt>
      <trkpt lat="48.10942" lon="-3.54705">
        <ele>171.9</ele>
        <time>2025-02-25T13:32:31Z</time>
      </trkpt>
      <trkpt lat="48.10942" lon="-3.54704">
        <ele>171.9</ele>
        <time>2025-02-25T13:32:32Z</time>
      </trkpt>
      <trkpt lat="48.10942" lon="-3.54702">
        <ele>171.9</ele>
        <time>2025-02-25T13:32:33Z</time>
      </trkpt>
      <trkpt lat="48.10942" lon="-3.54701">
        <ele>171.9</ele>
        <time>2025-02-25T13:32:34Z</time>
      </trkpt>
      <trkpt lat="48.10943" lon="-3.547">
        <ele>171.9</ele>
        <time>2025-02-25T13:32:35Z</time>
      </trkpt>
      <trkpt lat="48.10944" lon="-3.54699">
        <ele>172</ele>
        <time>2025-02-25T13:32:36Z</time>
      </trkpt>
      <trkpt lat="48.10944" lon="-3.54698">
        <ele>172</ele>
        <time>2025-02-25T13:32:37Z</time>
      </trkpt>
      <trkpt lat="48.10943" lon="-3.54701">
        <ele>171.9</ele>
        <time>2025-02-25T13:32:38Z</time>
      </trkpt>
      <trkpt lat="48.10942" lon="-3.54704">
        <ele>171.9</ele>
        <time>2025-02-25T13:32:39Z</time>
      </trkpt>
      <trkpt lat="48.10942" lon="-3.54704">
        <ele>171.9</ele>
        <time>2025-02-25T13:32:40Z</time>
      </trkpt>
      <trkpt lat="48.10942" lon="-3.54703">
        <ele>171.9</ele>
        <time>2025-02-25T13:32:41Z</time>
      </trkpt>
      <trkpt lat="48.10943" lon="-3.54702">
        <ele>171.9</ele>
        <time>2025-02-25T13:32:42Z</time>
      </trkpt>
      <trkpt lat="48.10945" lon="-3.54702">
        <ele>172</ele>
        <time>2025-02-25T13:32:43Z</time>
      </trkpt>
      <trkpt lat="48.10946" lon="-3.547">
        <ele>172</ele>
        <time>2025-02-25T13:32:44Z</time>
      </trkpt>
      <trkpt lat="48.10947" lon="-3.54699">
        <ele>172</ele>
        <time>2025-02-25T13:32:45Z</time>
      </trkpt>
      <trkpt lat="48.10948" lon="-3.54697">
        <ele>172</ele>
        <time>2025-02-25T13:32:46Z</time>
      </trkpt>
      <trkpt lat="48.10949" lon="-3.54695">
        <ele>172</ele>
        <time>2025-02-25T13:32:47Z</time>
      </trkpt>
      <trkpt lat="48.10949" lon="-3.54694">
        <ele>172</ele>
        <time>2025-02-25T13:32:48Z</time>
      </trkpt>
      <trkpt lat="48.1095" lon="-3.54692">
        <ele>172</ele>
        <time>2025-02-25T13:32:49Z</time>
      </trkpt>
      <trkpt lat="48.10951" lon="-3.54691">
        <ele>172</ele>
        <time>2025-02-25T13:32:50Z</time>
      </trkpt>
      <trkpt lat="48.10951" lon="-3.54689">
        <ele>172</ele>
        <time>2025-02-25T13:32:51Z</time>
      </trkpt>
      <trkpt lat="48.10952" lon="-3.54687">
        <ele>172</ele>
        <time>2025-02-25T13:32:52Z</time>
      </trkpt>
      <trkpt lat="48.10952" lon="-3.54686">
        <ele>172</ele>
        <time>2025-02-25T13:32:53Z</time>
      </trkpt>
      <trkpt lat="48.10954" lon="-3.54685">
        <ele>172</ele>
        <time>2025-02-25T13:32:54Z</time>
      </trkpt>
      <trkpt lat="48.10954" lon="-3.54684">
        <ele>172</ele>
        <time>2025-02-25T13:32:55Z</time>
      </trkpt>
      <trkpt lat="48.10955" lon="-3.54683">
        <ele>172</ele>
        <time>2025-02-25T13:32:56Z</time>
      </trkpt>
      <trkpt lat="48.10956" lon="-3.54681">
        <ele>172</ele>
        <time>2025-02-25T13:32:57Z</time>
      </trkpt>
      <trkpt lat="48.10957" lon="-3.54679">
        <ele>172</ele>
        <time>2025-02-25T13:32:58Z</time>
      </trkpt>
      <trkpt lat="48.10959" lon="-3.54678">
        <ele>172</ele>
        <time>2025-02-25T13:32:59Z</time>
      </trkpt>
      <trkpt lat="48.1096" lon="-3.54677">
        <ele>172</ele>
        <time>2025-02-25T13:33:00Z</time>
      </trkpt>
      <trkpt lat="48.10961" lon="-3.54675">
        <ele>172</ele>
        <time>2025-02-25T13:33:01Z</time>
      </trkpt>
      <trkpt lat="48.10961" lon="-3.54674">
        <ele>172</ele>
        <time>2025-02-25T13:33:02Z</time>
      </trkpt>
      <trkpt lat="48.10962" lon="-3.54673">
        <ele>172</ele>
        <time>2025-02-25T13:33:03Z</time>
      </trkpt>
      <trkpt lat="48.10962" lon="-3.54671">
        <ele>172</ele>
        <time>2025-02-25T13:33:04Z</time>
      </trkpt>
      <trkpt lat="48.10963" lon="-3.5467">
        <ele>172</ele>
        <time>2025-02-25T13:33:05Z</time>
      </trkpt>
      <trkpt lat="48.10963" lon="-3.54668">
        <ele>172</ele>
        <time>2025-02-25T13:33:06Z</time>
      </trkpt>
      <trkpt lat="48.10964" lon="-3.54668">
        <ele>172</ele>
        <time>2025-02-25T13:33:07Z</time>
      </trkpt>
      <trkpt lat="48.10965" lon="-3.54667">
        <ele>172</ele>
        <time>2025-02-25T13:33:08Z</time>
      </trkpt>
      <trkpt lat="48.10966" lon="-3.54666">
        <ele>172</ele>
        <time>2025-02-25T13:33:09Z</time>
      </trkpt>
      <trkpt lat="48.10967" lon="-3.54665">
        <ele>172</ele>
        <time>2025-02-25T13:33:10Z</time>
      </trkpt>
      <trkpt lat="48.10968" lon="-3.54664">
        <ele>171.9</ele>
        <time>2025-02-25T13:33:11Z</time>
      </trkpt>
      <trkpt lat="48.10969" lon="-3.54664">
        <ele>171.9</ele>
        <time>2025-02-25T13:33:12Z</time>
      </trkpt>
      <trkpt lat="48.1097" lon="-3.54663">
        <ele>171.9</ele>
        <time>2025-02-25T13:33:13Z</time>
      </trkpt>
      <trkpt lat="48.10971" lon="-3.54661">
        <ele>171.8</ele>
        <time>2025-02-25T13:33:14Z</time>
      </trkpt>
      <trkpt lat="48.10971" lon="-3.54659">
        <ele>171.7</ele>
        <time>2025-02-25T13:33:15Z</time>
      </trkpt>
      <trkpt lat="48.10972" lon="-3.54657">
        <ele>171.7</ele>
        <time>2025-02-25T13:33:16Z</time>
      </trkpt>
      <trkpt lat="48.10974" lon="-3.54657">
        <ele>171.6</ele>
        <time>2025-02-25T13:33:17Z</time>
      </trkpt>
      <trkpt lat="48.10975" lon="-3.54656">
        <ele>171.5</ele>
        <time>2025-02-25T13:33:18Z</time>
      </trkpt>
      <trkpt lat="48.10976" lon="-3.54655">
        <ele>171.4</ele>
        <time>2025-02-25T13:33:19Z</time>
      </trkpt>
      <trkpt lat="48.10977" lon="-3.54654">
        <ele>171.4</ele>
        <time>2025-02-25T13:33:20Z</time>
      </trkpt>
      <trkpt lat="48.10978" lon="-3.54653">
        <ele>171.3</ele>
        <time>2025-02-25T13:33:21Z</time>
      </trkpt>
      <trkpt lat="48.10979" lon="-3.54652">
        <ele>171.2</ele>
        <time>2025-02-25T13:33:22Z</time>
      </trkpt>
      <trkpt lat="48.1098" lon="-3.54652">
        <ele>171.2</ele>
        <time>2025-02-25T13:33:23Z</time>
      </trkpt>
      <trkpt lat="48.10981" lon="-3.5465">
        <ele>171.1</ele>
        <time>2025-02-25T13:33:24Z</time>
      </trkpt>
      <trkpt lat="48.10981" lon="-3.54649">
        <ele>171</ele>
        <time>2025-02-25T13:33:25Z</time>
      </trkpt>
      <trkpt lat="48.10982" lon="-3.54649">
        <ele>171</ele>
        <time>2025-02-25T13:33:26Z</time>
      </trkpt>
      <trkpt lat="48.10982" lon="-3.54648">
        <ele>171</ele>
        <time>2025-02-25T13:33:27Z</time>
      </trkpt>
      <trkpt lat="48.10982" lon="-3.54647">
        <ele>170.9</ele>
        <time>2025-02-25T13:33:28Z</time>
      </trkpt>
      <trkpt lat="48.10983" lon="-3.54646">
        <ele>170.9</ele>
        <time>2025-02-25T13:33:29Z</time>
      </trkpt>
      <trkpt lat="48.10983" lon="-3.54644">
        <ele>170.8</ele>
        <time>2025-02-25T13:33:30Z</time>
      </trkpt>
      <trkpt lat="48.10983" lon="-3.54643">
        <ele>170.8</ele>
        <time>2025-02-25T13:33:31Z</time>
      </trkpt>
      <trkpt lat="48.10984" lon="-3.54642">
        <ele>170.7</ele>
        <time>2025-02-25T13:33:32Z</time>
      </trkpt>
      <trkpt lat="48.10984" lon="-3.54641">
        <ele>170.7</ele>
        <time>2025-02-25T13:33:33Z</time>
      </trkpt>
      <trkpt lat="48.10983" lon="-3.54639">
        <ele>170.6</ele>
        <time>2025-02-25T13:33:34Z</time>
      </trkpt>
      <trkpt lat="48.10982" lon="-3.5464">
        <ele>170.7</ele>
        <time>2025-02-25T13:33:35Z</time>
      </trkpt>
      <trkpt lat="48.10983" lon="-3.54638">
        <ele>170.6</ele>
        <time>2025-02-25T13:33:36Z</time>
      </trkpt>
      <trkpt lat="48.10982" lon="-3.54637">
        <ele>170.6</ele>
        <time>2025-02-25T13:33:37Z</time>
      </trkpt>
      <trkpt lat="48.10982" lon="-3.54638">
        <ele>170.6</ele>
        <time>2025-02-25T13:33:38Z</time>
      </trkpt>
      <trkpt lat="48.10982" lon="-3.54637">
        <ele>170.6</ele>
        <time>2025-02-25T13:33:39Z</time>
      </trkpt>
      <trkpt lat="48.10981" lon="-3.54636">
        <ele>170.6</ele>
        <time>2025-02-25T13:33:40Z</time>
      </trkpt>
      <trkpt lat="48.1098" lon="-3.54635">
        <ele>170.6</ele>
        <time>2025-02-25T13:33:41Z</time>
      </trkpt>
      <trkpt lat="48.1098" lon="-3.54634">
        <ele>170.5</ele>
        <time>2025-02-25T13:33:42Z</time>
      </trkpt>
      <trkpt lat="48.1098" lon="-3.54632">
        <ele>170.5</ele>
        <time>2025-02-25T13:33:43Z</time>
      </trkpt>
      <trkpt lat="48.1098" lon="-3.54631">
        <ele>170.4</ele>
        <time>2025-02-25T13:33:44Z</time>
      </trkpt>
      <trkpt lat="48.1098" lon="-3.5463">
        <ele>170.4</ele>
        <time>2025-02-25T13:33:45Z</time>
      </trkpt>
      <trkpt lat="48.1098" lon="-3.54629">
        <ele>170.4</ele>
        <time>2025-02-25T13:33:46Z</time>
      </trkpt>
      <trkpt lat="48.10979" lon="-3.54628">
        <ele>170.4</ele>
        <time>2025-02-25T13:33:47Z</time>
      </trkpt>
      <trkpt lat="48.10979" lon="-3.54627">
        <ele>170.3</ele>
        <time>2025-02-25T13:33:48Z</time>
      </trkpt>
      <trkpt lat="48.10978" lon="-3.54627">
        <ele>170.4</ele>
        <time>2025-02-25T13:33:49Z</time>
      </trkpt>
      <trkpt lat="48.10978" lon="-3.54626">
        <ele>170.3</ele>
        <time>2025-02-25T13:33:50Z</time>
      </trkpt>
      <trkpt lat="48.10978" lon="-3.54625">
        <ele>170.3</ele>
        <time>2025-02-25T13:33:51Z</time>
      </trkpt>
      <trkpt lat="48.10978" lon="-3.54624">
        <ele>170.3</ele>
        <time>2025-02-25T13:33:52Z</time>
      </trkpt>
      <trkpt lat="48.10978" lon="-3.54623">
        <ele>170.2</ele>
        <time>2025-02-25T13:33:53Z</time>
      </trkpt>
      <trkpt lat="48.10978" lon="-3.54621">
        <ele>170.1</ele>
        <time>2025-02-25T13:33:54Z</time>
      </trkpt>
      <trkpt lat="48.10977" lon="-3.5462">
        <ele>170.1</ele>
        <time>2025-02-25T13:33:55Z</time>
      </trkpt>
      <trkpt lat="48.10977" lon="-3.54619">
        <ele>170.1</ele>
        <time>2025-02-25T13:33:56Z</time>
      </trkpt>
      <trkpt lat="48.10977" lon="-3.54618">
        <ele>170.1</ele>
        <time>2025-02-25T13:33:57Z</time>
      </trkpt>
      <trkpt lat="48.10977" lon="-3.54616">
        <ele>170</ele>
        <time>2025-02-25T13:33:58Z</time>
      </trkpt>
      <trkpt lat="48.10977" lon="-3.54615">
        <ele>170</ele>
        <time>2025-02-25T13:33:59Z</time>
      </trkpt>
      <trkpt lat="48.10978" lon="-3.54614">
        <ele>169.9</ele>
        <time>2025-02-25T13:34:00Z</time>
      </trkpt>
      <trkpt lat="48.10977" lon="-3.54612">
        <ele>169.9</ele>
        <time>2025-02-25T13:34:01Z</time>
      </trkpt>
      <trkpt lat="48.10977" lon="-3.54611">
        <ele>169.8</ele>
        <time>2025-02-25T13:34:02Z</time>
      </trkpt>
      <trkpt lat="48.10977" lon="-3.5461">
        <ele>169.8</ele>
        <time>2025-02-25T13:34:03Z</time>
      </trkpt>
      <trkpt lat="48.10976" lon="-3.54609">
        <ele>169.8</ele>
        <time>2025-02-25T13:34:04Z</time>
      </trkpt>
      <trkpt lat="48.10976" lon="-3.54608">
        <ele>169.8</ele>
        <time>2025-02-25T13:34:05Z</time>
      </trkpt>
      <trkpt lat="48.10975" lon="-3.54607">
        <ele>169.8</ele>
        <time>2025-02-25T13:34:06Z</time>
      </trkpt>
      <trkpt lat="48.10975" lon="-3.54606">
        <ele>169.7</ele>
        <time>2025-02-25T13:34:07Z</time>
      </trkpt>
      <trkpt lat="48.10974" lon="-3.54605">
        <ele>169.7</ele>
        <time>2025-02-25T13:34:08Z</time>
      </trkpt>
      <trkpt lat="48.10974" lon="-3.54603">
        <ele>169.6</ele>
        <time>2025-02-25T13:34:09Z</time>
      </trkpt>
      <trkpt lat="48.10974" lon="-3.54602">
        <ele>169.6</ele>
        <time>2025-02-25T13:34:10Z</time>
      </trkpt>
      <trkpt lat="48.10974" lon="-3.54601">
        <ele>169.6</ele>
        <time>2025-02-25T13:34:11Z</time>
      </trkpt>
      <trkpt lat="48.10974" lon="-3.54599">
        <ele>169.5</ele>
        <time>2025-02-25T13:34:12Z</time>
      </trkpt>
      <trkpt lat="48.10973" lon="-3.54598">
        <ele>169.5</ele>
        <time>2025-02-25T13:34:13Z</time>
      </trkpt>
      <trkpt lat="48.10972" lon="-3.54597">
        <ele>169.5</ele>
        <time>2025-02-25T13:34:14Z</time>
      </trkpt>
      <trkpt lat="48.10973" lon="-3.54595">
        <ele>169.4</ele>
        <time>2025-02-25T13:34:15Z</time>
      </trkpt>
      <trkpt lat="48.10973" lon="-3.54594">
        <ele>169.4</ele>
        <time>2025-02-25T13:34:16Z</time>
      </trkpt>
      <trkpt lat="48.10973" lon="-3.54593">
        <ele>169.3</ele>
        <time>2025-02-25T13:34:17Z</time>
      </trkpt>
      <trkpt lat="48.10974" lon="-3.54591">
        <ele>169.2</ele>
        <time>2025-02-25T13:34:18Z</time>
      </trkpt>
      <trkpt lat="48.10975" lon="-3.5459">
        <ele>169.1</ele>
        <time>2025-02-25T13:34:19Z</time>
      </trkpt>
      <trkpt lat="48.10976" lon="-3.54589">
        <ele>169.1</ele>
        <time>2025-02-25T13:34:20Z</time>
      </trkpt>
      <trkpt lat="48.10977" lon="-3.54589">
        <ele>169</ele>
        <time>2025-02-25T13:34:21Z</time>
      </trkpt>
      <trkpt lat="48.10978" lon="-3.54589">
        <ele>169</ele>
        <time>2025-02-25T13:34:22Z</time>
      </trkpt>
      <trkpt lat="48.10979" lon="-3.54588">
        <ele>168.9</ele>
        <time>2025-02-25T13:34:23Z</time>
      </trkpt>
      <trkpt lat="48.1098" lon="-3.54587">
        <ele>168.9</ele>
        <time>2025-02-25T13:34:24Z</time>
      </trkpt>
      <trkpt lat="48.1098" lon="-3.54587">
        <ele>168.9</ele>
        <time>2025-02-25T13:34:25Z</time>
      </trkpt>
      <trkpt lat="48.10982" lon="-3.54587">
        <ele>168.8</ele>
        <time>2025-02-25T13:34:26Z</time>
      </trkpt>
      <trkpt lat="48.10984" lon="-3.54586">
        <ele>168.7</ele>
        <time>2025-02-25T13:34:27Z</time>
      </trkpt>
      <trkpt lat="48.10986" lon="-3.54586">
        <ele>168.6</ele>
        <time>2025-02-25T13:34:28Z</time>
      </trkpt>
      <trkpt lat="48.10987" lon="-3.54586">
        <ele>168.6</ele>
        <time>2025-02-25T13:34:29Z</time>
      </trkpt>
      <trkpt lat="48.10989" lon="-3.54585">
        <ele>168.5</ele>
        <time>2025-02-25T13:34:30Z</time>
      </trkpt>
      <trkpt lat="48.1099" lon="-3.54585">
        <ele>168.4</ele>
        <time>2025-02-25T13:34:31Z</time>
      </trkpt>
      <trkpt lat="48.10991" lon="-3.54585">
        <ele>168.4</ele>
        <time>2025-02-25T13:34:32Z</time>
      </trkpt>
      <trkpt lat="48.10992" lon="-3.54583">
        <ele>168.3</ele>
        <time>2025-02-25T13:34:33Z</time>
      </trkpt>
      <trkpt lat="48.10993" lon="-3.54582">
        <ele>168.2</ele>
        <time>2025-02-25T13:34:34Z</time>
      </trkpt>
      <trkpt lat="48.10994" lon="-3.54582">
        <ele>168.2</ele>
        <time>2025-02-25T13:34:35Z</time>
      </trkpt>
      <trkpt lat="48.10994" lon="-3.5458">
        <ele>168.1</ele>
        <time>2025-02-25T13:34:36Z</time>
      </trkpt>
      <trkpt lat="48.10995" lon="-3.54579">
        <ele>168</ele>
        <time>2025-02-25T13:34:37Z</time>
      </trkpt>
      <trkpt lat="48.10996" lon="-3.54579">
        <ele>168</ele>
        <time>2025-02-25T13:34:38Z</time>
      </trkpt>
      <trkpt lat="48.10997" lon="-3.54579">
        <ele>168</ele>
        <time>2025-02-25T13:34:39Z</time>
      </trkpt>
      <trkpt lat="48.10998" lon="-3.54578">
        <ele>167.9</ele>
        <time>2025-02-25T13:34:40Z</time>
      </trkpt>
      <trkpt lat="48.10998" lon="-3.54577">
        <ele>167.8</ele>
        <time>2025-02-25T13:34:41Z</time>
      </trkpt>
      <trkpt lat="48.10998" lon="-3.54576">
        <ele>167.8</ele>
        <time>2025-02-25T13:34:42Z</time>
      </trkpt>
      <trkpt lat="48.10999" lon="-3.54575">
        <ele>167.7</ele>
        <time>2025-02-25T13:34:43Z</time>
      </trkpt>
      <trkpt lat="48.11" lon="-3.54574">
        <ele>167.7</ele>
        <time>2025-02-25T13:34:44Z</time>
      </trkpt>
      <trkpt lat="48.11001" lon="-3.54573">
        <ele>167.6</ele>
        <time>2025-02-25T13:34:45Z</time>
      </trkpt>
      <trkpt lat="48.11002" lon="-3.54573">
        <ele>167.6</ele>
        <time>2025-02-25T13:34:46Z</time>
      </trkpt>
      <trkpt lat="48.11002" lon="-3.54571">
        <ele>167.5</ele>
        <time>2025-02-25T13:34:47Z</time>
      </trkpt>
      <trkpt lat="48.11003" lon="-3.5457">
        <ele>167.5</ele>
        <time>2025-02-25T13:34:48Z</time>
      </trkpt>
      <trkpt lat="48.11003" lon="-3.54568">
        <ele>167.4</ele>
        <time>2025-02-25T13:34:49Z</time>
      </trkpt>
      <trkpt lat="48.11004" lon="-3.54567">
        <ele>167.4</ele>
        <time>2025-02-25T13:34:50Z</time>
      </trkpt>
      <trkpt lat="48.11004" lon="-3.54566">
        <ele>167.3</ele>
        <time>2025-02-25T13:34:51Z</time>
      </trkpt>
      <trkpt lat="48.11004" lon="-3.54564">
        <ele>167.3</ele>
        <time>2025-02-25T13:34:52Z</time>
      </trkpt>
      <trkpt lat="48.11005" lon="-3.54563">
        <ele>167.2</ele>
        <time>2025-02-25T13:34:53Z</time>
      </trkpt>
      <trkpt lat="48.11005" lon="-3.54562">
        <ele>167.2</ele>
        <time>2025-02-25T13:34:54Z</time>
      </trkpt>
      <trkpt lat="48.11005" lon="-3.54561">
        <ele>167.2</ele>
        <time>2025-02-25T13:34:55Z</time>
      </trkpt>
      <trkpt lat="48.11005" lon="-3.54561">
        <ele>167.2</ele>
        <time>2025-02-25T13:34:56Z</time>
      </trkpt>
      <trkpt lat="48.11006" lon="-3.5456">
        <ele>167.1</ele>
        <time>2025-02-25T13:34:57Z</time>
      </trkpt>
      <trkpt lat="48.11006" lon="-3.5456">
        <ele>167.1</ele>
        <time>2025-02-25T13:34:58Z</time>
      </trkpt>
      <trkpt lat="48.11006" lon="-3.5456">
        <ele>167.1</ele>
        <time>2025-02-25T13:34:59Z</time>
      </trkpt>
      <trkpt lat="48.11006" lon="-3.5456">
        <ele>167.1</ele>
        <time>2025-02-25T13:35:00Z</time>
      </trkpt>
      <trkpt lat="48.11007" lon="-3.5456">
        <ele>167.1</ele>
        <time>2025-02-25T13:35:01Z</time>
      </trkpt>
      <trkpt lat="48.11007" lon="-3.5456">
        <ele>167.1</ele>
        <time>2025-02-25T13:35:02Z</time>
      </trkpt>
      <trkpt lat="48.11008" lon="-3.54558">
        <ele>167.1</ele>
        <time>2025-02-25T13:35:03Z</time>
      </trkpt>
      <trkpt lat="48.11009" lon="-3.54558">
        <ele>167.1</ele>
        <time>2025-02-25T13:35:04Z</time>
      </trkpt>
      <trkpt lat="48.11009" lon="-3.54556">
        <ele>167</ele>
        <time>2025-02-25T13:35:05Z</time>
      </trkpt>
      <trkpt lat="48.11009" lon="-3.54556">
        <ele>167</ele>
        <time>2025-02-25T13:35:06Z</time>
      </trkpt>
      <trkpt lat="48.1101" lon="-3.54555">
        <ele>167</ele>
        <time>2025-02-25T13:35:07Z</time>
      </trkpt>
      <trkpt lat="48.1101" lon="-3.54553">
        <ele>167</ele>
        <time>2025-02-25T13:35:08Z</time>
      </trkpt>
      <trkpt lat="48.11011" lon="-3.54552">
        <ele>166.9</ele>
        <time>2025-02-25T13:35:09Z</time>
      </trkpt>
      <trkpt lat="48.11011" lon="-3.54552">
        <ele>166.9</ele>
        <time>2025-02-25T13:35:10Z</time>
      </trkpt>
      <trkpt lat="48.11011" lon="-3.5455">
        <ele>166.9</ele>
        <time>2025-02-25T13:35:11Z</time>
      </trkpt>
      <trkpt lat="48.11012" lon="-3.54549">
        <ele>166.9</ele>
        <time>2025-02-25T13:35:12Z</time>
      </trkpt>
      <trkpt lat="48.11013" lon="-3.54549">
        <ele>166.9</ele>
        <time>2025-02-25T13:35:13Z</time>
      </trkpt>
      <trkpt lat="48.11013" lon="-3.54548">
        <ele>166.9</ele>
        <time>2025-02-25T13:35:14Z</time>
      </trkpt>
      <trkpt lat="48.11014" lon="-3.54547">
        <ele>166.8</ele>
        <time>2025-02-25T13:35:15Z</time>
      </trkpt>
      <trkpt lat="48.11015" lon="-3.54545">
        <ele>166.8</ele>
        <time>2025-02-25T13:35:16Z</time>
      </trkpt>
      <trkpt lat="48.11015" lon="-3.54544">
        <ele>166.8</ele>
        <time>2025-02-25T13:35:17Z</time>
      </trkpt>
      <trkpt lat="48.11016" lon="-3.54543">
        <ele>166.7</ele>
        <time>2025-02-25T13:35:18Z</time>
      </trkpt>
      <trkpt lat="48.11016" lon="-3.54541">
        <ele>166.7</ele>
        <time>2025-02-25T13:35:19Z</time>
      </trkpt>
      <trkpt lat="48.11017" lon="-3.5454">
        <ele>166.7</ele>
        <time>2025-02-25T13:35:20Z</time>
      </trkpt>
      <trkpt lat="48.11018" lon="-3.54538">
        <ele>166.6</ele>
        <time>2025-02-25T13:35:21Z</time>
      </trkpt>
      <trkpt lat="48.11019" lon="-3.54536">
        <ele>166.5</ele>
        <time>2025-02-25T13:35:22Z</time>
      </trkpt>
      <trkpt lat="48.1102" lon="-3.54535">
        <ele>166.5</ele>
        <time>2025-02-25T13:35:23Z</time>
      </trkpt>
      <trkpt lat="48.1102" lon="-3.54533">
        <ele>166.4</ele>
        <time>2025-02-25T13:35:24Z</time>
      </trkpt>
      <trkpt lat="48.11021" lon="-3.54532">
        <ele>166.4</ele>
        <time>2025-02-25T13:35:25Z</time>
      </trkpt>
      <trkpt lat="48.11022" lon="-3.54531">
        <ele>166.3</ele>
        <time>2025-02-25T13:35:26Z</time>
      </trkpt>
      <trkpt lat="48.11023" lon="-3.54531">
        <ele>166.3</ele>
        <time>2025-02-25T13:35:27Z</time>
      </trkpt>
      <trkpt lat="48.11024" lon="-3.54531">
        <ele>166.2</ele>
        <time>2025-02-25T13:35:28Z</time>
      </trkpt>
      <trkpt lat="48.11025" lon="-3.54531">
        <ele>166.2</ele>
        <time>2025-02-25T13:35:29Z</time>
      </trkpt>
      <trkpt lat="48.11026" lon="-3.5453">
        <ele>166.1</ele>
        <time>2025-02-25T13:35:30Z</time>
      </trkpt>
      <trkpt lat="48.11026" lon="-3.54529">
        <ele>166.1</ele>
        <time>2025-02-25T13:35:31Z</time>
      </trkpt>
      <trkpt lat="48.11027" lon="-3.54528">
        <ele>166</ele>
        <time>2025-02-25T13:35:32Z</time>
      </trkpt>
      <trkpt lat="48.11028" lon="-3.54528">
        <ele>166</ele>
        <time>2025-02-25T13:35:33Z</time>
      </trkpt>
      <trkpt lat="48.11029" lon="-3.54528">
        <ele>166</ele>
        <time>2025-02-25T13:35:34Z</time>
      </trkpt>
      <trkpt lat="48.1103" lon="-3.54527">
        <ele>166</ele>
        <time>2025-02-25T13:35:35Z</time>
      </trkpt>
      <trkpt lat="48.11031" lon="-3.54526">
        <ele>166</ele>
        <time>2025-02-25T13:35:36Z</time>
      </trkpt>
      <trkpt lat="48.11032" lon="-3.54526">
        <ele>166</ele>
        <time>2025-02-25T13:35:37Z</time>
      </trkpt>
      <trkpt lat="48.11032" lon="-3.54525">
        <ele>166</ele>
        <time>2025-02-25T13:35:38Z</time>
      </trkpt>
      <trkpt lat="48.11033" lon="-3.54524">
        <ele>166</ele>
        <time>2025-02-25T13:35:39Z</time>
      </trkpt>
      <trkpt lat="48.11033" lon="-3.54522">
        <ele>166</ele>
        <time>2025-02-25T13:35:40Z</time>
      </trkpt>
      <trkpt lat="48.11034" lon="-3.54521">
        <ele>166</ele>
        <time>2025-02-25T13:35:41Z</time>
      </trkpt>
      <trkpt lat="48.11035" lon="-3.54521">
        <ele>166</ele>
        <time>2025-02-25T13:35:42Z</time>
      </trkpt>
      <trkpt lat="48.11035" lon="-3.54521">
        <ele>166</ele>
        <time>2025-02-25T13:35:43Z</time>
      </trkpt>
      <trkpt lat="48.11036" lon="-3.5452">
        <ele>166</ele>
        <time>2025-02-25T13:35:44Z</time>
      </trkpt>
      <trkpt lat="48.11037" lon="-3.54519">
        <ele>166</ele>
        <time>2025-02-25T13:35:45Z</time>
      </trkpt>
      <trkpt lat="48.11037" lon="-3.54518">
        <ele>166</ele>
        <time>2025-02-25T13:35:46Z</time>
      </trkpt>
      <trkpt lat="48.11038" lon="-3.54517">
        <ele>166</ele>
        <time>2025-02-25T13:35:47Z</time>
      </trkpt>
      <trkpt lat="48.11039" lon="-3.54517">
        <ele>166</ele>
        <time>2025-02-25T13:35:48Z</time>
      </trkpt>
      <trkpt lat="48.1104" lon="-3.54516">
        <ele>166</ele>
        <time>2025-02-25T13:35:49Z</time>
      </trkpt>
      <trkpt lat="48.1104" lon="-3.54515">
        <ele>166</ele>
        <time>2025-02-25T13:35:50Z</time>
      </trkpt>
      <trkpt lat="48.11041" lon="-3.54514">
        <ele>166</ele>
        <time>2025-02-25T13:35:51Z</time>
      </trkpt>
      <trkpt lat="48.11042" lon="-3.54513">
        <ele>166</ele>
        <time>2025-02-25T13:35:52Z</time>
      </trkpt>
      <trkpt lat="48.11042" lon="-3.54513">
        <ele>166</ele>
        <time>2025-02-25T13:35:53Z</time>
      </trkpt>
      <trkpt lat="48.11043" lon="-3.54511">
        <ele>166</ele>
        <time>2025-02-25T13:35:54Z</time>
      </trkpt>
      <trkpt lat="48.11044" lon="-3.54509">
        <ele>166</ele>
        <time>2025-02-25T13:35:55Z</time>
      </trkpt>
      <trkpt lat="48.11043" lon="-3.54508">
        <ele>166</ele>
        <time>2025-02-25T13:35:56Z</time>
      </trkpt>
      <trkpt lat="48.11043" lon="-3.54508">
        <ele>166</ele>
        <time>2025-02-25T13:35:57Z</time>
      </trkpt>
      <trkpt lat="48.11043" lon="-3.54508">
        <ele>166</ele>
        <time>2025-02-25T13:35:58Z</time>
      </trkpt>
      <trkpt lat="48.11043" lon="-3.54508">
        <ele>166</ele>
        <time>2025-02-25T13:35:59Z</time>
      </trkpt>
      <trkpt lat="48.11042" lon="-3.54507">
        <ele>166</ele>
        <time>2025-02-25T13:36:00Z</time>
      </trkpt>
      <trkpt lat="48.11042" lon="-3.54505">
        <ele>166</ele>
        <time>2025-02-25T13:36:01Z</time>
      </trkpt>
      <trkpt lat="48.11043" lon="-3.54502">
        <ele>166</ele>
        <time>2025-02-25T13:36:02Z</time>
      </trkpt>
      <trkpt lat="48.11044" lon="-3.545">
        <ele>166</ele>
        <time>2025-02-25T13:36:03Z</time>
      </trkpt>
      <trkpt lat="48.11044" lon="-3.54499">
        <ele>166</ele>
        <time>2025-02-25T13:36:04Z</time>
      </trkpt>
      <trkpt lat="48.11045" lon="-3.54498">
        <ele>166</ele>
        <time>2025-02-25T13:36:05Z</time>
      </trkpt>
      <trkpt lat="48.11045" lon="-3.54497">
        <ele>166</ele>
        <time>2025-02-25T13:36:06Z</time>
      </trkpt>
      <trkpt lat="48.11046" lon="-3.54496">
        <ele>166</ele>
        <time>2025-02-25T13:36:07Z</time>
      </trkpt>
      <trkpt lat="48.11047" lon="-3.54496">
        <ele>166</ele>
        <time>2025-02-25T13:36:08Z</time>
      </trkpt>
      <trkpt lat="48.11047" lon="-3.54495">
        <ele>166</ele>
        <time>2025-02-25T13:36:09Z</time>
      </trkpt>
      <trkpt lat="48.11047" lon="-3.54494">
        <ele>166</ele>
        <time>2025-02-25T13:36:10Z</time>
      </trkpt>
      <trkpt lat="48.11048" lon="-3.54493">
        <ele>166</ele>
        <time>2025-02-25T13:36:11Z</time>
      </trkpt>
      <trkpt lat="48.11048" lon="-3.54493">
        <ele>166</ele>
        <time>2025-02-25T13:36:12Z</time>
      </trkpt>
      <trkpt lat="48.11049" lon="-3.54493">
        <ele>166</ele>
        <time>2025-02-25T13:36:13Z</time>
      </trkpt>
      <trkpt lat="48.11049" lon="-3.54493">
        <ele>166</ele>
        <time>2025-02-25T13:36:14Z</time>
      </trkpt>
      <trkpt lat="48.11049" lon="-3.54493">
        <ele>166</ele>
        <time>2025-02-25T13:36:15Z</time>
      </trkpt>
      <trkpt lat="48.11049" lon="-3.54493">
        <ele>166</ele>
        <time>2025-02-25T13:36:16Z</time>
      </trkpt>
      <trkpt lat="48.11048" lon="-3.54493">
        <ele>166</ele>
        <time>2025-02-25T13:36:17Z</time>
      </trkpt>
      <trkpt lat="48.11047" lon="-3.54492">
        <ele>166</ele>
        <time>2025-02-25T13:36:18Z</time>
      </trkpt>
      <trkpt lat="48.11047" lon="-3.54491">
        <ele>166</ele>
        <time>2025-02-25T13:36:19Z</time>
      </trkpt>
      <trkpt lat="48.11046" lon="-3.5449">
        <ele>166</ele>
        <time>2025-02-25T13:36:20Z</time>
      </trkpt>
      <trkpt lat="48.11046" lon="-3.54489">
        <ele>166</ele>
        <time>2025-02-25T13:36:21Z</time>
      </trkpt>
      <trkpt lat="48.11046" lon="-3.5449">
        <ele>166</ele>
        <time>2025-02-25T13:36:22Z</time>
      </trkpt>
      <trkpt lat="48.11046" lon="-3.5449">
        <ele>166</ele>
        <time>2025-02-25T13:36:23Z</time>
      </trkpt>
      <trkpt lat="48.11046" lon="-3.5449">
        <ele>166</ele>
        <time>2025-02-25T13:36:24Z</time>
      </trkpt>
      <trkpt lat="48.11046" lon="-3.5449">
        <ele>166</ele>
        <time>2025-02-25T13:36:25Z</time>
      </trkpt>
      <trkpt lat="48.11046" lon="-3.5449">
        <ele>166</ele>
        <time>2025-02-25T13:36:26Z</time>
      </trkpt>
      <trkpt lat="48.11046" lon="-3.5449">
        <ele>166</ele>
        <time>2025-02-25T13:36:27Z</time>
      </trkpt>
      <trkpt lat="48.11046" lon="-3.5449">
        <ele>166</ele>
        <time>2025-02-25T13:36:28Z</time>
      </trkpt>
      <trkpt lat="48.11046" lon="-3.54489">
        <ele>166</ele>
        <time>2025-02-25T13:36:29Z</time>
      </trkpt>
      <trkpt lat="48.11046" lon="-3.54488">
        <ele>166</ele>
        <time>2025-02-25T13:36:30Z</time>
      </trkpt>
      <trkpt lat="48.11047" lon="-3.54488">
        <ele>166</ele>
        <time>2025-02-25T13:36:31Z</time>
      </trkpt>
      <trkpt lat="48.11047" lon="-3.54488">
        <ele>166</ele>
        <time>2025-02-25T13:36:32Z</time>
      </trkpt>
      <trkpt lat="48.11047" lon="-3.54489">
        <ele>166</ele>
        <time>2025-02-25T13:36:33Z</time>
      </trkpt>
      <trkpt lat="48.11047" lon="-3.54489">
        <ele>166</ele>
        <time>2025-02-25T13:36:34Z</time>
      </trkpt>
      <trkpt lat="48.11047" lon="-3.54489">
        <ele>166</ele>
        <time>2025-02-25T13:36:35Z</time>
      </trkpt>
      <trkpt lat="48.11046" lon="-3.54488">
        <ele>166</ele>
        <time>2025-02-25T13:36:36Z</time>
      </trkpt>
      <trkpt lat="48.11046" lon="-3.54488">
        <ele>166</ele>
        <time>2025-02-25T13:36:37Z</time>
      </trkpt>
      <trkpt lat="48.11046" lon="-3.54488">
        <ele>166</ele>
        <time>2025-02-25T13:36:38Z</time>
      </trkpt>
      <trkpt lat="48.11046" lon="-3.54488">
        <ele>166</ele>
        <time>2025-02-25T13:36:39Z</time>
      </trkpt>
      <trkpt lat="48.11046" lon="-3.54488">
        <ele>166</ele>
        <time>2025-02-25T13:36:40Z</time>
      </trkpt>
      <trkpt lat="48.11046" lon="-3.54488">
        <ele>166</ele>
        <time>2025-02-25T13:36:41Z</time>
      </trkpt>
      <trkpt lat="48.11046" lon="-3.54488">
        <ele>166</ele>
        <time>2025-02-25T13:36:42Z</time>
      </trkpt>
      <trkpt lat="48.11046" lon="-3.54488">
        <ele>166</ele>
        <time>2025-02-25T13:36:43Z</time>
      </trkpt>
      <trkpt lat="48.11046" lon="-3.54488">
        <ele>166</ele>
        <time>2025-02-25T13:36:44Z</time>
      </trkpt>
      <trkpt lat="48.11047" lon="-3.54488">
        <ele>166</ele>
        <time>2025-02-25T13:36:45Z</time>
      </trkpt>
      <trkpt lat="48.11047" lon="-3.54488">
        <ele>166</ele>
        <time>2025-02-25T13:36:46Z</time>
      </trkpt>
      <trkpt lat="48.11047" lon="-3.54488">
        <ele>166</ele>
        <time>2025-02-25T13:36:47Z</time>
      </trkpt>
      <trkpt lat="48.11047" lon="-3.54488">
        <ele>166</ele>
        <time>2025-02-25T13:36:48Z</time>
      </trkpt>
      <trkpt lat="48.11047" lon="-3.54489">
        <ele>166</ele>
        <time>2025-02-25T13:36:49Z</time>
      </trkpt>
      <trkpt lat="48.11047" lon="-3.54489">
        <ele>166</ele>
        <time>2025-02-25T13:36:50Z</time>
      </trkpt>
      <trkpt lat="48.11047" lon="-3.54489">
        <ele>166</ele>
        <time>2025-02-25T13:36:51Z</time>
      </trkpt>
      <trkpt lat="48.11047" lon="-3.5449">
        <ele>166</ele>
        <time>2025-02-25T13:36:52Z</time>
      </trkpt>
      <trkpt lat="48.11047" lon="-3.5449">
        <ele>166</ele>
        <time>2025-02-25T13:36:53Z</time>
      </trkpt>
      <trkpt lat="48.11047" lon="-3.5449">
        <ele>166</ele>
        <time>2025-02-25T13:36:54Z</time>
      </trkpt>
      <trkpt lat="48.11047" lon="-3.5449">
        <ele>166</ele>
        <time>2025-02-25T13:36:55Z</time>
      </trkpt>
      <trkpt lat="48.11047" lon="-3.5449">
        <ele>166</ele>
        <time>2025-02-25T13:36:56Z</time>
      </trkpt>
      <trkpt lat="48.11047" lon="-3.5449">
        <ele>166</ele>
        <time>2025-02-25T13:36:57Z</time>
      </trkpt>
      <trkpt lat="48.11048" lon="-3.5449">
        <ele>166</ele>
        <time>2025-02-25T13:36:58Z</time>
      </trkpt>
      <trkpt lat="48.11048" lon="-3.5449">
        <ele>166</ele>
        <time>2025-02-25T13:36:59Z</time>
      </trkpt>
      <trkpt lat="48.11048" lon="-3.5449">
        <ele>166</ele>
        <time>2025-02-25T13:37:00Z</time>
      </trkpt>
      <trkpt lat="48.11048" lon="-3.5449">
        <ele>166</ele>
        <time>2025-02-25T13:37:01Z</time>
      </trkpt>
      <trkpt lat="48.11048" lon="-3.5449">
        <ele>166</ele>
        <time>2025-02-25T13:37:02Z</time>
      </trkpt>
      <trkpt lat="48.11048" lon="-3.5449">
        <ele>166</ele>
        <time>2025-02-25T13:37:03Z</time>
      </trkpt>
      <trkpt lat="48.11048" lon="-3.5449">
        <ele>166</ele>
        <time>2025-02-25T13:37:04Z</time>
      </trkpt>
      <trkpt lat="48.11048" lon="-3.5449">
        <ele>166</ele>
        <time>2025-02-25T13:37:05Z</time>
      </trkpt>
      <trkpt lat="48.11048" lon="-3.5449">
        <ele>166</ele>
        <time>2025-02-25T13:37:06Z</time>
      </trkpt>
      <trkpt lat="48.11048" lon="-3.5449">
        <ele>166</ele>
        <time>2025-02-25T13:37:07Z</time>
      </trkpt>
      <trkpt lat="48.11048" lon="-3.5449">
        <ele>166</ele>
        <time>2025-02-25T13:37:08Z</time>
      </trkpt>
      <trkpt lat="48.11048" lon="-3.5449">
        <ele>166</ele>
        <time>2025-02-25T13:37:09Z</time>
      </trkpt>
      <trkpt lat="48.11048" lon="-3.5449">
        <ele>166</ele>
        <time>2025-02-25T13:37:10Z</time>
      </trkpt>
      <trkpt lat="48.11048" lon="-3.5449">
        <ele>166</ele>
        <time>2025-02-25T13:37:11Z</time>
      </trkpt>
      <trkpt lat="48.11048" lon="-3.5449">
        <ele>166</ele>
        <time>2025-02-25T13:37:12Z</time>
      </trkpt>
      <trkpt lat="48.11048" lon="-3.5449">
        <ele>166</ele>
        <time>2025-02-25T13:37:13Z</time>
      </trkpt>
      <trkpt lat="48.11048" lon="-3.5449">
        <ele>166</ele>
        <time>2025-02-25T13:37:14Z</time>
      </trkpt>
      <trkpt lat="48.11048" lon="-3.5449">
        <ele>166</ele>
        <time>2025-02-25T13:37:15Z</time>
      </trkpt>
      <trkpt lat="48.11048" lon="-3.54491">
        <ele>166</ele>
        <time>2025-02-25T13:37:16Z</time>
      </trkpt>
      <trkpt lat="48.11049" lon="-3.54491">
        <ele>166</ele>
        <time>2025-02-25T13:37:17Z</time>
      </trkpt>
      <trkpt lat="48.11049" lon="-3.54491">
        <ele>166</ele>
        <time>2025-02-25T13:37:18Z</time>
      </trkpt>
      <trkpt lat="48.11048" lon="-3.54491">
        <ele>166</ele>
        <time>2025-02-25T13:37:19Z</time>
      </trkpt>
      <trkpt lat="48.11048" lon="-3.54491">
        <ele>166</ele>
        <time>2025-02-25T13:37:20Z</time>
      </trkpt>
      <trkpt lat="48.11048" lon="-3.5449">
        <ele>166</ele>
        <time>2025-02-25T13:37:21Z</time>
      </trkpt>
      <trkpt lat="48.11048" lon="-3.5449">
        <ele>166</ele>
        <time>2025-02-25T13:37:22Z</time>
      </trkpt>
      <trkpt lat="48.11048" lon="-3.5449">
        <ele>166</ele>
        <time>2025-02-25T13:37:23Z</time>
      </trkpt>
      <trkpt lat="48.11047" lon="-3.5449">
        <ele>166</ele>
        <time>2025-02-25T13:37:24Z</time>
      </trkpt>
      <trkpt lat="48.11047" lon="-3.5449">
        <ele>166</ele>
        <time>2025-02-25T13:37:25Z</time>
      </trkpt>
      <trkpt lat="48.11046" lon="-3.54489">
        <ele>166</ele>
        <time>2025-02-25T13:37:26Z</time>
      </trkpt>
      <trkpt lat="48.11046" lon="-3.54489">
        <ele>166</ele>
        <time>2025-02-25T13:37:27Z</time>
      </trkpt>
      <trkpt lat="48.11046" lon="-3.54488">
        <ele>166</ele>
        <time>2025-02-25T13:37:28Z</time>
      </trkpt>
      <trkpt lat="48.11046" lon="-3.54485">
        <ele>166</ele>
        <time>2025-02-25T13:37:29Z</time>
      </trkpt>
      <trkpt lat="48.11047" lon="-3.54483">
        <ele>166</ele>
        <time>2025-02-25T13:37:30Z</time>
      </trkpt>
      <trkpt lat="48.11048" lon="-3.54482">
        <ele>166</ele>
        <time>2025-02-25T13:37:31Z</time>
      </trkpt>
      <trkpt lat="48.11049" lon="-3.54481">
        <ele>166</ele>
        <time>2025-02-25T13:37:32Z</time>
      </trkpt>
      <trkpt lat="48.1105" lon="-3.5448">
        <ele>166</ele>
        <time>2025-02-25T13:37:33Z</time>
      </trkpt>
      <trkpt lat="48.11051" lon="-3.54479">
        <ele>166</ele>
        <time>2025-02-25T13:37:34Z</time>
      </trkpt>
      <trkpt lat="48.11052" lon="-3.54479">
        <ele>166</ele>
        <time>2025-02-25T13:37:35Z</time>
      </trkpt>
      <trkpt lat="48.11053" lon="-3.54479">
        <ele>166</ele>
        <time>2025-02-25T13:37:36Z</time>
      </trkpt>
      <trkpt lat="48.11054" lon="-3.54479">
        <ele>166</ele>
        <time>2025-02-25T13:37:37Z</time>
      </trkpt>
      <trkpt lat="48.11055" lon="-3.54478">
        <ele>166</ele>
        <time>2025-02-25T13:37:38Z</time>
      </trkpt>
      <trkpt lat="48.11056" lon="-3.54477">
        <ele>166</ele>
        <time>2025-02-25T13:37:39Z</time>
      </trkpt>
      <trkpt lat="48.11056" lon="-3.54476">
        <ele>166</ele>
        <time>2025-02-25T13:37:40Z</time>
      </trkpt>
      <trkpt lat="48.11057" lon="-3.54475">
        <ele>166</ele>
        <time>2025-02-25T13:37:41Z</time>
      </trkpt>
      <trkpt lat="48.11057" lon="-3.54474">
        <ele>166</ele>
        <time>2025-02-25T13:37:42Z</time>
      </trkpt>
      <trkpt lat="48.11058" lon="-3.54473">
        <ele>166.1</ele>
        <time>2025-02-25T13:37:43Z</time>
      </trkpt>
      <trkpt lat="48.11058" lon="-3.54472">
        <ele>166.1</ele>
        <time>2025-02-25T13:37:44Z</time>
      </trkpt>
      <trkpt lat="48.11059" lon="-3.54471">
        <ele>166.1</ele>
        <time>2025-02-25T13:37:45Z</time>
      </trkpt>
      <trkpt lat="48.1106" lon="-3.54471">
        <ele>166.2</ele>
        <time>2025-02-25T13:37:46Z</time>
      </trkpt>
      <trkpt lat="48.1106" lon="-3.5447">
        <ele>166.1</ele>
        <time>2025-02-25T13:37:47Z</time>
      </trkpt>
      <trkpt lat="48.11061" lon="-3.54469">
        <ele>166.2</ele>
        <time>2025-02-25T13:37:48Z</time>
      </trkpt>
      <trkpt lat="48.11061" lon="-3.54468">
        <ele>166.2</ele>
        <time>2025-02-25T13:37:49Z</time>
      </trkpt>
      <trkpt lat="48.11062" lon="-3.54468">
        <ele>166.2</ele>
        <time>2025-02-25T13:37:50Z</time>
      </trkpt>
      <trkpt lat="48.11063" lon="-3.54467">
        <ele>166.2</ele>
        <time>2025-02-25T13:37:51Z</time>
      </trkpt>
      <trkpt lat="48.11063" lon="-3.54467">
        <ele>166.2</ele>
        <time>2025-02-25T13:37:52Z</time>
      </trkpt>
      <trkpt lat="48.11064" lon="-3.54467">
        <ele>166.2</ele>
        <time>2025-02-25T13:37:53Z</time>
      </trkpt>
      <trkpt lat="48.11065" lon="-3.54466">
        <ele>166.3</ele>
        <time>2025-02-25T13:37:54Z</time>
      </trkpt>
      <trkpt lat="48.11066" lon="-3.54466">
        <ele>166.3</ele>
        <time>2025-02-25T13:37:55Z</time>
      </trkpt>
      <trkpt lat="48.11067" lon="-3.54465">
        <ele>166.3</ele>
        <time>2025-02-25T13:37:56Z</time>
      </trkpt>
      <trkpt lat="48.11067" lon="-3.54464">
        <ele>166.3</ele>
        <time>2025-02-25T13:37:57Z</time>
      </trkpt>
      <trkpt lat="48.11068" lon="-3.54463">
        <ele>166.3</ele>
        <time>2025-02-25T13:37:58Z</time>
      </trkpt>
      <trkpt lat="48.11069" lon="-3.54462">
        <ele>166.3</ele>
        <time>2025-02-25T13:37:59Z</time>
      </trkpt>
      <trkpt lat="48.1107" lon="-3.54462">
        <ele>166.3</ele>
        <time>2025-02-25T13:38:00Z</time>
      </trkpt>
      <trkpt lat="48.1107" lon="-3.54462">
        <ele>166.3</ele>
        <time>2025-02-25T13:38:01Z</time>
      </trkpt>
      <trkpt lat="48.11071" lon="-3.54461">
        <ele>166.3</ele>
        <time>2025-02-25T13:38:02Z</time>
      </trkpt>
      <trkpt lat="48.11072" lon="-3.54461">
        <ele>166.4</ele>
        <time>2025-02-25T13:38:03Z</time>
      </trkpt>
      <trkpt lat="48.11073" lon="-3.5446">
        <ele>166.4</ele>
        <time>2025-02-25T13:38:04Z</time>
      </trkpt>
      <trkpt lat="48.11073" lon="-3.54459">
        <ele>166.3</ele>
        <time>2025-02-25T13:38:05Z</time>
      </trkpt>
      <trkpt lat="48.11074" lon="-3.54458">
        <ele>166.3</ele>
        <time>2025-02-25T13:38:06Z</time>
      </trkpt>
      <trkpt lat="48.11075" lon="-3.54458">
        <ele>166.3</ele>
        <time>2025-02-25T13:38:07Z</time>
      </trkpt>
      <trkpt lat="48.11076" lon="-3.54457">
        <ele>166.3</ele>
        <time>2025-02-25T13:38:08Z</time>
      </trkpt>
      <trkpt lat="48.11077" lon="-3.54457">
        <ele>166.3</ele>
        <time>2025-02-25T13:38:09Z</time>
      </trkpt>
      <trkpt lat="48.11078" lon="-3.54456">
        <ele>166.3</ele>
        <time>2025-02-25T13:38:10Z</time>
      </trkpt>
      <trkpt lat="48.11079" lon="-3.54456">
        <ele>166.4</ele>
        <time>2025-02-25T13:38:11Z</time>
      </trkpt>
      <trkpt lat="48.1108" lon="-3.54455">
        <ele>166.3</ele>
        <time>2025-02-25T13:38:12Z</time>
      </trkpt>
      <trkpt lat="48.1108" lon="-3.54455">
        <ele>166.3</ele>
        <time>2025-02-25T13:38:13Z</time>
      </trkpt>
      <trkpt lat="48.11081" lon="-3.54454">
        <ele>166.3</ele>
        <time>2025-02-25T13:38:14Z</time>
      </trkpt>
      <trkpt lat="48.11082" lon="-3.54454">
        <ele>166.3</ele>
        <time>2025-02-25T13:38:15Z</time>
      </trkpt>
      <trkpt lat="48.11084" lon="-3.54452">
        <ele>166.3</ele>
        <time>2025-02-25T13:38:16Z</time>
      </trkpt>
      <trkpt lat="48.11084" lon="-3.54451">
        <ele>166.3</ele>
        <time>2025-02-25T13:38:17Z</time>
      </trkpt>
      <trkpt lat="48.11085" lon="-3.54451">
        <ele>166.3</ele>
        <time>2025-02-25T13:38:18Z</time>
      </trkpt>
      <trkpt lat="48.11086" lon="-3.5445">
        <ele>166.3</ele>
        <time>2025-02-25T13:38:19Z</time>
      </trkpt>
      <trkpt lat="48.11087" lon="-3.54449">
        <ele>166.3</ele>
        <time>2025-02-25T13:38:20Z</time>
      </trkpt>
      <trkpt lat="48.11088" lon="-3.54448">
        <ele>166.3</ele>
        <time>2025-02-25T13:38:21Z</time>
      </trkpt>
      <trkpt lat="48.11088" lon="-3.54447">
        <ele>166.2</ele>
        <time>2025-02-25T13:38:22Z</time>
      </trkpt>
      <trkpt lat="48.11089" lon="-3.54446">
        <ele>166.2</ele>
        <time>2025-02-25T13:38:23Z</time>
      </trkpt>
      <trkpt lat="48.1109" lon="-3.54445">
        <ele>166.3</ele>
        <time>2025-02-25T13:38:24Z</time>
      </trkpt>
      <trkpt lat="48.1109" lon="-3.54444">
        <ele>166.2</ele>
        <time>2025-02-25T13:38:25Z</time>
      </trkpt>
      <trkpt lat="48.11092" lon="-3.54444">
        <ele>166.3</ele>
        <time>2025-02-25T13:38:26Z</time>
      </trkpt>
      <trkpt lat="48.11092" lon="-3.54444">
        <ele>166.3</ele>
        <time>2025-02-25T13:38:27Z</time>
      </trkpt>
      <trkpt lat="48.11093" lon="-3.54444">
        <ele>166.3</ele>
        <time>2025-02-25T13:38:28Z</time>
      </trkpt>
      <trkpt lat="48.11093" lon="-3.54444">
        <ele>166.3</ele>
        <time>2025-02-25T13:38:29Z</time>
      </trkpt>
      <trkpt lat="48.11094" lon="-3.54444">
        <ele>166.4</ele>
        <time>2025-02-25T13:38:30Z</time>
      </trkpt>
      <trkpt lat="48.11095" lon="-3.54443">
        <ele>166.4</ele>
        <time>2025-02-25T13:38:31Z</time>
      </trkpt>
      <trkpt lat="48.11095" lon="-3.54442">
        <ele>166.4</ele>
        <time>2025-02-25T13:38:32Z</time>
      </trkpt>
      <trkpt lat="48.11097" lon="-3.54441">
        <ele>166.4</ele>
        <time>2025-02-25T13:38:33Z</time>
      </trkpt>
      <trkpt lat="48.11097" lon="-3.54441">
        <ele>166.4</ele>
        <time>2025-02-25T13:38:34Z</time>
      </trkpt>
      <trkpt lat="48.11098" lon="-3.54441">
        <ele>166.5</ele>
        <time>2025-02-25T13:38:35Z</time>
      </trkpt>
      <trkpt lat="48.11098" lon="-3.54442">
        <ele>166.5</ele>
        <time>2025-02-25T13:38:36Z</time>
      </trkpt>
      <trkpt lat="48.11098" lon="-3.54442">
        <ele>166.5</ele>
        <time>2025-02-25T13:38:37Z</time>
      </trkpt>
      <trkpt lat="48.11098" lon="-3.54442">
        <ele>166.5</ele>
        <time>2025-02-25T13:38:38Z</time>
      </trkpt>
      <trkpt lat="48.11098" lon="-3.54442">
        <ele>166.5</ele>
        <time>2025-02-25T13:38:39Z</time>
      </trkpt>
      <trkpt lat="48.11098" lon="-3.54441">
        <ele>166.5</ele>
        <time>2025-02-25T13:38:40Z</time>
      </trkpt>
      <trkpt lat="48.11098" lon="-3.54441">
        <ele>166.5</ele>
        <time>2025-02-25T13:38:41Z</time>
      </trkpt>
      <trkpt lat="48.11098" lon="-3.54441">
        <ele>166.5</ele>
        <time>2025-02-25T13:38:42Z</time>
      </trkpt>
      <trkpt lat="48.11098" lon="-3.54441">
        <ele>166.5</ele>
        <time>2025-02-25T13:38:43Z</time>
      </trkpt>
      <trkpt lat="48.11098" lon="-3.54441">
        <ele>166.5</ele>
        <time>2025-02-25T13:38:44Z</time>
      </trkpt>
      <trkpt lat="48.11099" lon="-3.54441">
        <ele>166.5</ele>
        <time>2025-02-25T13:38:45Z</time>
      </trkpt>
      <trkpt lat="48.111" lon="-3.54442">
        <ele>166.5</ele>
        <time>2025-02-25T13:38:46Z</time>
      </trkpt>
      <trkpt lat="48.111" lon="-3.54443">
        <ele>166.6</ele>
        <time>2025-02-25T13:38:47Z</time>
      </trkpt>
      <trkpt lat="48.111" lon="-3.54443">
        <ele>166.6</ele>
        <time>2025-02-25T13:38:48Z</time>
      </trkpt>
      <trkpt lat="48.11099" lon="-3.54443">
        <ele>166.5</ele>
        <time>2025-02-25T13:38:49Z</time>
      </trkpt>
      <trkpt lat="48.111" lon="-3.54444">
        <ele>166.6</ele>
        <time>2025-02-25T13:38:50Z</time>
      </trkpt>
      <trkpt lat="48.11101" lon="-3.54445">
        <ele>166.6</ele>
        <time>2025-02-25T13:38:51Z</time>
      </trkpt>
      <trkpt lat="48.11101" lon="-3.54445">
        <ele>166.6</ele>
        <time>2025-02-25T13:38:52Z</time>
      </trkpt>
      <trkpt lat="48.11101" lon="-3.54445">
        <ele>166.6</ele>
        <time>2025-02-25T13:38:53Z</time>
      </trkpt>
      <trkpt lat="48.11101" lon="-3.54446">
        <ele>166.7</ele>
        <time>2025-02-25T13:38:54Z</time>
      </trkpt>
      <trkpt lat="48.11102" lon="-3.54446">
        <ele>166.7</ele>
        <time>2025-02-25T13:38:55Z</time>
      </trkpt>
      <trkpt lat="48.11102" lon="-3.54445">
        <ele>166.7</ele>
        <time>2025-02-25T13:38:56Z</time>
      </trkpt>
      <trkpt lat="48.11103" lon="-3.54444">
        <ele>166.7</ele>
        <time>2025-02-25T13:38:57Z</time>
      </trkpt>
      <trkpt lat="48.11104" lon="-3.54443">
        <ele>166.7</ele>
        <time>2025-02-25T13:38:58Z</time>
      </trkpt>
      <trkpt lat="48.11104" lon="-3.54441">
        <ele>166.7</ele>
        <time>2025-02-25T13:38:59Z</time>
      </trkpt>
      <trkpt lat="48.11104" lon="-3.5444">
        <ele>166.6</ele>
        <time>2025-02-25T13:39:00Z</time>
      </trkpt>
      <trkpt lat="48.11105" lon="-3.5444">
        <ele>166.7</ele>
        <time>2025-02-25T13:39:01Z</time>
      </trkpt>
      <trkpt lat="48.11106" lon="-3.54439">
        <ele>166.7</ele>
        <time>2025-02-25T13:39:02Z</time>
      </trkpt>
      <trkpt lat="48.11106" lon="-3.54438">
        <ele>166.6</ele>
        <time>2025-02-25T13:39:03Z</time>
      </trkpt>
      <trkpt lat="48.11107" lon="-3.54438">
        <ele>166.7</ele>
        <time>2025-02-25T13:39:04Z</time>
      </trkpt>
      <trkpt lat="48.11108" lon="-3.54437">
        <ele>166.7</ele>
        <time>2025-02-25T13:39:05Z</time>
      </trkpt>
      <trkpt lat="48.11108" lon="-3.54436">
        <ele>166.6</ele>
        <time>2025-02-25T13:39:06Z</time>
      </trkpt>
      <trkpt lat="48.11108" lon="-3.54434">
        <ele>166.6</ele>
        <time>2025-02-25T13:39:07Z</time>
      </trkpt>
      <trkpt lat="48.11108" lon="-3.54433">
        <ele>166.5</ele>
        <time>2025-02-25T13:39:08Z</time>
      </trkpt>
      <trkpt lat="48.11108" lon="-3.54431">
        <ele>166.5</ele>
        <time>2025-02-25T13:39:09Z</time>
      </trkpt>
      <trkpt lat="48.11109" lon="-3.5443">
        <ele>166.4</ele>
        <time>2025-02-25T13:39:10Z</time>
      </trkpt>
      <trkpt lat="48.11109" lon="-3.54429">
        <ele>166.4</ele>
        <time>2025-02-25T13:39:11Z</time>
      </trkpt>
      <trkpt lat="48.11109" lon="-3.54427">
        <ele>166.3</ele>
        <time>2025-02-25T13:39:12Z</time>
      </trkpt>
      <trkpt lat="48.1111" lon="-3.54426">
        <ele>166.3</ele>
        <time>2025-02-25T13:39:13Z</time>
      </trkpt>
      <trkpt lat="48.1111" lon="-3.54425">
        <ele>166.3</ele>
        <time>2025-02-25T13:39:14Z</time>
      </trkpt>
      <trkpt lat="48.11111" lon="-3.54424">
        <ele>166.3</ele>
        <time>2025-02-25T13:39:15Z</time>
      </trkpt>
      <trkpt lat="48.11112" lon="-3.54424">
        <ele>166.3</ele>
        <time>2025-02-25T13:39:16Z</time>
      </trkpt>
      <trkpt lat="48.11113" lon="-3.54425">
        <ele>166.3</ele>
        <time>2025-02-25T13:39:17Z</time>
      </trkpt>
      <trkpt lat="48.11114" lon="-3.54424">
        <ele>166.2</ele>
        <time>2025-02-25T13:39:18Z</time>
      </trkpt>
      <trkpt lat="48.11114" lon="-3.54424">
        <ele>166.2</ele>
        <time>2025-02-25T13:39:19Z</time>
      </trkpt>
      <trkpt lat="48.11115" lon="-3.54423">
        <ele>166.2</ele>
        <time>2025-02-25T13:39:20Z</time>
      </trkpt>
      <trkpt lat="48.11116" lon="-3.54423">
        <ele>166.2</ele>
        <time>2025-02-25T13:39:21Z</time>
      </trkpt>
      <trkpt lat="48.11117" lon="-3.54423">
        <ele>166.2</ele>
        <time>2025-02-25T13:39:22Z</time>
      </trkpt>
      <trkpt lat="48.11117" lon="-3.54422">
        <ele>166.2</ele>
        <time>2025-02-25T13:39:23Z</time>
      </trkpt>
      <trkpt lat="48.11118" lon="-3.5442">
        <ele>166.1</ele>
        <time>2025-02-25T13:39:24Z</time>
      </trkpt>
      <trkpt lat="48.11119" lon="-3.54419">
        <ele>166.1</ele>
        <time>2025-02-25T13:39:25Z</time>
      </trkpt>
      <trkpt lat="48.11119" lon="-3.54419">
        <ele>166.1</ele>
        <time>2025-02-25T13:39:26Z</time>
      </trkpt>
      <trkpt lat="48.1112" lon="-3.54418">
        <ele>166</ele>
        <time>2025-02-25T13:39:27Z</time>
      </trkpt>
      <trkpt lat="48.1112" lon="-3.54417">
        <ele>166</ele>
        <time>2025-02-25T13:39:28Z</time>
      </trkpt>
      <trkpt lat="48.1112" lon="-3.54415">
        <ele>165.9</ele>
        <time>2025-02-25T13:39:29Z</time>
      </trkpt>
      <trkpt lat="48.1112" lon="-3.54413">
        <ele>165.9</ele>
        <time>2025-02-25T13:39:30Z</time>
      </trkpt>
      <trkpt lat="48.1112" lon="-3.54411">
        <ele>165.8</ele>
        <time>2025-02-25T13:39:31Z</time>
      </trkpt>
      <trkpt lat="48.1112" lon="-3.5441">
        <ele>165.8</ele>
        <time>2025-02-25T13:39:32Z</time>
      </trkpt>
      <trkpt lat="48.11121" lon="-3.54409">
        <ele>165.7</ele>
        <time>2025-02-25T13:39:33Z</time>
      </trkpt>
      <trkpt lat="48.11122" lon="-3.54408">
        <ele>165.7</ele>
        <time>2025-02-25T13:39:34Z</time>
      </trkpt>
      <trkpt lat="48.11123" lon="-3.54408">
        <ele>165.7</ele>
        <time>2025-02-25T13:39:35Z</time>
      </trkpt>
      <trkpt lat="48.11124" lon="-3.54408">
        <ele>165.7</ele>
        <time>2025-02-25T13:39:36Z</time>
      </trkpt>
      <trkpt lat="48.11126" lon="-3.54408">
        <ele>165.7</ele>
        <time>2025-02-25T13:39:37Z</time>
      </trkpt>
      <trkpt lat="48.11127" lon="-3.54405">
        <ele>165.6</ele>
        <time>2025-02-25T13:39:38Z</time>
      </trkpt>
      <trkpt lat="48.11127" lon="-3.54403">
        <ele>165.5</ele>
        <time>2025-02-25T13:39:39Z</time>
      </trkpt>
      <trkpt lat="48.11128" lon="-3.54402">
        <ele>165.5</ele>
        <time>2025-02-25T13:39:40Z</time>
      </trkpt>
      <trkpt lat="48.11129" lon="-3.54401">
        <ele>165.4</ele>
        <time>2025-02-25T13:39:41Z</time>
      </trkpt>
      <trkpt lat="48.1113" lon="-3.544">
        <ele>165.4</ele>
        <time>2025-02-25T13:39:42Z</time>
      </trkpt>
      <trkpt lat="48.11131" lon="-3.544">
        <ele>165.4</ele>
        <time>2025-02-25T13:39:43Z</time>
      </trkpt>
      <trkpt lat="48.11131" lon="-3.54399">
        <ele>165.4</ele>
        <time>2025-02-25T13:39:44Z</time>
      </trkpt>
      <trkpt lat="48.11132" lon="-3.54397">
        <ele>165.3</ele>
        <time>2025-02-25T13:39:45Z</time>
      </trkpt>
      <trkpt lat="48.11132" lon="-3.54396">
        <ele>165.3</ele>
        <time>2025-02-25T13:39:46Z</time>
      </trkpt>
      <trkpt lat="48.11132" lon="-3.54395">
        <ele>165.2</ele>
        <time>2025-02-25T13:39:47Z</time>
      </trkpt>
      <trkpt lat="48.11133" lon="-3.54394">
        <ele>165.2</ele>
        <time>2025-02-25T13:39:48Z</time>
      </trkpt>
      <trkpt lat="48.11134" lon="-3.54393">
        <ele>165.1</ele>
        <time>2025-02-25T13:39:49Z</time>
      </trkpt>
      <trkpt lat="48.11134" lon="-3.54391">
        <ele>165.1</ele>
        <time>2025-02-25T13:39:50Z</time>
      </trkpt>
      <trkpt lat="48.11134" lon="-3.5439">
        <ele>165</ele>
        <time>2025-02-25T13:39:51Z</time>
      </trkpt>
      <trkpt lat="48.11135" lon="-3.54388">
        <ele>165</ele>
        <time>2025-02-25T13:39:52Z</time>
      </trkpt>
      <trkpt lat="48.11135" lon="-3.54387">
        <ele>164.9</ele>
        <time>2025-02-25T13:39:53Z</time>
      </trkpt>
      <trkpt lat="48.11136" lon="-3.54386">
        <ele>164.9</ele>
        <time>2025-02-25T13:39:54Z</time>
      </trkpt>
      <trkpt lat="48.11136" lon="-3.54384">
        <ele>164.8</ele>
        <time>2025-02-25T13:39:55Z</time>
      </trkpt>
      <trkpt lat="48.11137" lon="-3.54383">
        <ele>164.8</ele>
        <time>2025-02-25T13:39:56Z</time>
      </trkpt>
      <trkpt lat="48.11138" lon="-3.54381">
        <ele>164.7</ele>
        <time>2025-02-25T13:39:57Z</time>
      </trkpt>
      <trkpt lat="48.11138" lon="-3.5438">
        <ele>164.7</ele>
        <time>2025-02-25T13:39:58Z</time>
      </trkpt>
      <trkpt lat="48.11139" lon="-3.54379">
        <ele>164.6</ele>
        <time>2025-02-25T13:39:59Z</time>
      </trkpt>
      <trkpt lat="48.1114" lon="-3.54377">
        <ele>164.5</ele>
        <time>2025-02-25T13:40:00Z</time>
      </trkpt>
      <trkpt lat="48.11141" lon="-3.54376">
        <ele>164.5</ele>
        <time>2025-02-25T13:40:01Z</time>
      </trkpt>
      <trkpt lat="48.11141" lon="-3.54374">
        <ele>164.4</ele>
        <time>2025-02-25T13:40:02Z</time>
      </trkpt>
      <trkpt lat="48.11141" lon="-3.54373">
        <ele>164.4</ele>
        <time>2025-02-25T13:40:03Z</time>
      </trkpt>
      <trkpt lat="48.11142" lon="-3.54372">
        <ele>164.3</ele>
        <time>2025-02-25T13:40:04Z</time>
      </trkpt>
      <trkpt lat="48.11142" lon="-3.5437">
        <ele>164.2</ele>
        <time>2025-02-25T13:40:05Z</time>
      </trkpt>
      <trkpt lat="48.11143" lon="-3.54369">
        <ele>164.1</ele>
        <time>2025-02-25T13:40:06Z</time>
      </trkpt>
      <trkpt lat="48.11143" lon="-3.54368">
        <ele>164.1</ele>
        <time>2025-02-25T13:40:07Z</time>
      </trkpt>
      <trkpt lat="48.11144" lon="-3.54367">
        <ele>164</ele>
        <time>2025-02-25T13:40:08Z</time>
      </trkpt>
      <trkpt lat="48.11144" lon="-3.54366">
        <ele>164</ele>
        <time>2025-02-25T13:40:09Z</time>
      </trkpt>
      <trkpt lat="48.11144" lon="-3.54364">
        <ele>163.9</ele>
        <time>2025-02-25T13:40:10Z</time>
      </trkpt>
      <trkpt lat="48.11144" lon="-3.54362">
        <ele>163.8</ele>
        <time>2025-02-25T13:40:11Z</time>
      </trkpt>
      <trkpt lat="48.11143" lon="-3.54361">
        <ele>163.8</ele>
        <time>2025-02-25T13:40:12Z</time>
      </trkpt>
      <trkpt lat="48.11143" lon="-3.54359">
        <ele>163.8</ele>
        <time>2025-02-25T13:40:13Z</time>
      </trkpt>
      <trkpt lat="48.11144" lon="-3.54358">
        <ele>163.7</ele>
        <time>2025-02-25T13:40:14Z</time>
      </trkpt>
      <trkpt lat="48.11144" lon="-3.54356">
        <ele>163.6</ele>
        <time>2025-02-25T13:40:15Z</time>
      </trkpt>
      <trkpt lat="48.11144" lon="-3.54355">
        <ele>163.6</ele>
        <time>2025-02-25T13:40:16Z</time>
      </trkpt>
      <trkpt lat="48.11144" lon="-3.54353">
        <ele>163.5</ele>
        <time>2025-02-25T13:40:17Z</time>
      </trkpt>
      <trkpt lat="48.11145" lon="-3.54352">
        <ele>163.5</ele>
        <time>2025-02-25T13:40:18Z</time>
      </trkpt>
      <trkpt lat="48.11145" lon="-3.5435">
        <ele>163.4</ele>
        <time>2025-02-25T13:40:19Z</time>
      </trkpt>
      <trkpt lat="48.11145" lon="-3.54348">
        <ele>163.3</ele>
        <time>2025-02-25T13:40:20Z</time>
      </trkpt>
      <trkpt lat="48.11145" lon="-3.54347">
        <ele>163.3</ele>
        <time>2025-02-25T13:40:21Z</time>
      </trkpt>
      <trkpt lat="48.11145" lon="-3.54345">
        <ele>163.2</ele>
        <time>2025-02-25T13:40:22Z</time>
      </trkpt>
      <trkpt lat="48.11145" lon="-3.54343">
        <ele>163.1</ele>
        <time>2025-02-25T13:40:23Z</time>
      </trkpt>
      <trkpt lat="48.11145" lon="-3.54342">
        <ele>163.1</ele>
        <time>2025-02-25T13:40:24Z</time>
      </trkpt>
      <trkpt lat="48.11145" lon="-3.5434">
        <ele>163</ele>
        <time>2025-02-25T13:40:25Z</time>
      </trkpt>
      <trkpt lat="48.11146" lon="-3.54339">
        <ele>162.9</ele>
        <time>2025-02-25T13:40:26Z</time>
      </trkpt>
      <trkpt lat="48.11146" lon="-3.54338">
        <ele>162.9</ele>
        <time>2025-02-25T13:40:27Z</time>
      </trkpt>
      <trkpt lat="48.11146" lon="-3.54336">
        <ele>162.8</ele>
        <time>2025-02-25T13:40:28Z</time>
      </trkpt>
      <trkpt lat="48.11146" lon="-3.54334">
        <ele>162.8</ele>
        <time>2025-02-25T13:40:29Z</time>
      </trkpt>
      <trkpt lat="48.11147" lon="-3.54333">
        <ele>162.7</ele>
        <time>2025-02-25T13:40:30Z</time>
      </trkpt>
      <trkpt lat="48.11147" lon="-3.54332">
        <ele>162.7</ele>
        <time>2025-02-25T13:40:31Z</time>
      </trkpt>
      <trkpt lat="48.11147" lon="-3.5433">
        <ele>162.6</ele>
        <time>2025-02-25T13:40:32Z</time>
      </trkpt>
      <trkpt lat="48.11148" lon="-3.54329">
        <ele>162.6</ele>
        <time>2025-02-25T13:40:33Z</time>
      </trkpt>
      <trkpt lat="48.11149" lon="-3.54327">
        <ele>162.5</ele>
        <time>2025-02-25T13:40:34Z</time>
      </trkpt>
      <trkpt lat="48.11149" lon="-3.54326">
        <ele>162.5</ele>
        <time>2025-02-25T13:40:35Z</time>
      </trkpt>
      <trkpt lat="48.1115" lon="-3.54325">
        <ele>162.4</ele>
        <time>2025-02-25T13:40:36Z</time>
      </trkpt>
      <trkpt lat="48.11151" lon="-3.54323">
        <ele>162.4</ele>
        <time>2025-02-25T13:40:37Z</time>
      </trkpt>
      <trkpt lat="48.11151" lon="-3.54322">
        <ele>162.3</ele>
        <time>2025-02-25T13:40:38Z</time>
      </trkpt>
      <trkpt lat="48.11152" lon="-3.54321">
        <ele>162.3</ele>
        <time>2025-02-25T13:40:39Z</time>
      </trkpt>
      <trkpt lat="48.11152" lon="-3.54319">
        <ele>162.3</ele>
        <time>2025-02-25T13:40:40Z</time>
      </trkpt>
      <trkpt lat="48.11152" lon="-3.54318">
        <ele>162.2</ele>
        <time>2025-02-25T13:40:41Z</time>
      </trkpt>
      <trkpt lat="48.11153" lon="-3.54316">
        <ele>162.2</ele>
        <time>2025-02-25T13:40:42Z</time>
      </trkpt>
      <trkpt lat="48.11154" lon="-3.54315">
        <ele>162.2</ele>
        <time>2025-02-25T13:40:43Z</time>
      </trkpt>
      <trkpt lat="48.11153" lon="-3.54313">
        <ele>162.1</ele>
        <time>2025-02-25T13:40:44Z</time>
      </trkpt>
      <trkpt lat="48.11153" lon="-3.54312">
        <ele>162.1</ele>
        <time>2025-02-25T13:40:45Z</time>
      </trkpt>
      <trkpt lat="48.11153" lon="-3.54311">
        <ele>162.1</ele>
        <time>2025-02-25T13:40:46Z</time>
      </trkpt>
      <trkpt lat="48.11153" lon="-3.5431">
        <ele>162.1</ele>
        <time>2025-02-25T13:40:47Z</time>
      </trkpt>
      <trkpt lat="48.11154" lon="-3.54309">
        <ele>162.1</ele>
        <time>2025-02-25T13:40:48Z</time>
      </trkpt>
      <trkpt lat="48.11155" lon="-3.54308">
        <ele>162</ele>
        <time>2025-02-25T13:40:49Z</time>
      </trkpt>
      <trkpt lat="48.11156" lon="-3.54307">
        <ele>162</ele>
        <time>2025-02-25T13:40:50Z</time>
      </trkpt>
      <trkpt lat="48.11157" lon="-3.54306">
        <ele>162</ele>
        <time>2025-02-25T13:40:51Z</time>
      </trkpt>
      <trkpt lat="48.11157" lon="-3.54304">
        <ele>162</ele>
        <time>2025-02-25T13:40:52Z</time>
      </trkpt>
      <trkpt lat="48.11157" lon="-3.54303">
        <ele>162</ele>
        <time>2025-02-25T13:40:53Z</time>
      </trkpt>
      <trkpt lat="48.11159" lon="-3.54303">
        <ele>162</ele>
        <time>2025-02-25T13:40:54Z</time>
      </trkpt>
      <trkpt lat="48.1116" lon="-3.54302">
        <ele>162</ele>
        <time>2025-02-25T13:40:55Z</time>
      </trkpt>
      <trkpt lat="48.1116" lon="-3.54301">
        <ele>162</ele>
        <time>2025-02-25T13:40:56Z</time>
      </trkpt>
      <trkpt lat="48.11161" lon="-3.543">
        <ele>162</ele>
        <time>2025-02-25T13:40:57Z</time>
      </trkpt>
      <trkpt lat="48.11161" lon="-3.54299">
        <ele>162</ele>
        <time>2025-02-25T13:40:58Z</time>
      </trkpt>
      <trkpt lat="48.11162" lon="-3.54298">
        <ele>162</ele>
        <time>2025-02-25T13:40:59Z</time>
      </trkpt>
      <trkpt lat="48.11162" lon="-3.54298">
        <ele>162</ele>
        <time>2025-02-25T13:41:00Z</time>
      </trkpt>
      <trkpt lat="48.11162" lon="-3.54298">
        <ele>162</ele>
        <time>2025-02-25T13:41:01Z</time>
      </trkpt>
      <trkpt lat="48.11163" lon="-3.54298">
        <ele>162</ele>
        <time>2025-02-25T13:41:02Z</time>
      </trkpt>
      <trkpt lat="48.11164" lon="-3.54297">
        <ele>162</ele>
        <time>2025-02-25T13:41:03Z</time>
      </trkpt>
      <trkpt lat="48.11164" lon="-3.54296">
        <ele>162</ele>
        <time>2025-02-25T13:41:04Z</time>
      </trkpt>
      <trkpt lat="48.11165" lon="-3.54295">
        <ele>162</ele>
        <time>2025-02-25T13:41:05Z</time>
      </trkpt>
      <trkpt lat="48.11166" lon="-3.54295">
        <ele>162</ele>
        <time>2025-02-25T13:41:06Z</time>
      </trkpt>
      <trkpt lat="48.11167" lon="-3.54294">
        <ele>162</ele>
        <time>2025-02-25T13:41:07Z</time>
      </trkpt>
      <trkpt lat="48.11168" lon="-3.54293">
        <ele>162</ele>
        <time>2025-02-25T13:41:08Z</time>
      </trkpt>
      <trkpt lat="48.11169" lon="-3.54292">
        <ele>162</ele>
        <time>2025-02-25T13:41:09Z</time>
      </trkpt>
      <trkpt lat="48.1117" lon="-3.5429">
        <ele>162.1</ele>
        <time>2025-02-25T13:41:10Z</time>
      </trkpt>
      <trkpt lat="48.1117" lon="-3.54288">
        <ele>162.1</ele>
        <time>2025-02-25T13:41:11Z</time>
      </trkpt>
      <trkpt lat="48.1117" lon="-3.54287">
        <ele>162.1</ele>
        <time>2025-02-25T13:41:12Z</time>
      </trkpt>
      <trkpt lat="48.1117" lon="-3.54286">
        <ele>162.1</ele>
        <time>2025-02-25T13:41:13Z</time>
      </trkpt>
      <trkpt lat="48.11169" lon="-3.54285">
        <ele>162.1</ele>
        <time>2025-02-25T13:41:14Z</time>
      </trkpt>
      <trkpt lat="48.11169" lon="-3.54284">
        <ele>162.1</ele>
        <time>2025-02-25T13:41:15Z</time>
      </trkpt>
      <trkpt lat="48.11168" lon="-3.54283">
        <ele>162</ele>
        <time>2025-02-25T13:41:16Z</time>
      </trkpt>
      <trkpt lat="48.11168" lon="-3.54282">
        <ele>162</ele>
        <time>2025-02-25T13:41:17Z</time>
      </trkpt>
      <trkpt lat="48.11167" lon="-3.54281">
        <ele>162</ele>
        <time>2025-02-25T13:41:18Z</time>
      </trkpt>
      <trkpt lat="48.11165" lon="-3.54281">
        <ele>161.9</ele>
        <time>2025-02-25T13:41:19Z</time>
      </trkpt>
      <trkpt lat="48.11164" lon="-3.54281">
        <ele>161.9</ele>
        <time>2025-02-25T13:41:20Z</time>
      </trkpt>
      <trkpt lat="48.11163" lon="-3.54281">
        <ele>161.9</ele>
        <time>2025-02-25T13:41:21Z</time>
      </trkpt>
      <trkpt lat="48.11162" lon="-3.5428">
        <ele>161.8</ele>
        <time>2025-02-25T13:41:22Z</time>
      </trkpt>
      <trkpt lat="48.1116" lon="-3.5428">
        <ele>161.8</ele>
        <time>2025-02-25T13:41:23Z</time>
      </trkpt>
      <trkpt lat="48.11159" lon="-3.54281">
        <ele>161.8</ele>
        <time>2025-02-25T13:41:24Z</time>
      </trkpt>
      <trkpt lat="48.11158" lon="-3.54281">
        <ele>161.7</ele>
        <time>2025-02-25T13:41:25Z</time>
      </trkpt>
      <trkpt lat="48.11157" lon="-3.54281">
        <ele>161.7</ele>
        <time>2025-02-25T13:41:26Z</time>
      </trkpt>
      <trkpt lat="48.11156" lon="-3.5428">
        <ele>161.6</ele>
        <time>2025-02-25T13:41:27Z</time>
      </trkpt>
      <trkpt lat="48.11155" lon="-3.54279">
        <ele>161.6</ele>
        <time>2025-02-25T13:41:28Z</time>
      </trkpt>
      <trkpt lat="48.11154" lon="-3.54279">
        <ele>161.6</ele>
        <time>2025-02-25T13:41:29Z</time>
      </trkpt>
      <trkpt lat="48.11153" lon="-3.54279">
        <ele>161.5</ele>
        <time>2025-02-25T13:41:30Z</time>
      </trkpt>
      <trkpt lat="48.11152" lon="-3.54279">
        <ele>161.5</ele>
        <time>2025-02-25T13:41:31Z</time>
      </trkpt>
      <trkpt lat="48.11151" lon="-3.54279">
        <ele>161.5</ele>
        <time>2025-02-25T13:41:32Z</time>
      </trkpt>
      <trkpt lat="48.1115" lon="-3.54279">
        <ele>161.4</ele>
        <time>2025-02-25T13:41:33Z</time>
      </trkpt>
      <trkpt lat="48.11149" lon="-3.54278">
        <ele>161.4</ele>
        <time>2025-02-25T13:41:34Z</time>
      </trkpt>
      <trkpt lat="48.11148" lon="-3.54279">
        <ele>161.4</ele>
        <time>2025-02-25T13:41:35Z</time>
      </trkpt>
      <trkpt lat="48.11147" lon="-3.5428">
        <ele>161.3</ele>
        <time>2025-02-25T13:41:36Z</time>
      </trkpt>
      <trkpt lat="48.11146" lon="-3.54281">
        <ele>161.3</ele>
        <time>2025-02-25T13:41:37Z</time>
      </trkpt>
      <trkpt lat="48.11145" lon="-3.54281">
        <ele>161.3</ele>
        <time>2025-02-25T13:41:38Z</time>
      </trkpt>
      <trkpt lat="48.11144" lon="-3.54281">
        <ele>161.3</ele>
        <time>2025-02-25T13:41:39Z</time>
      </trkpt>
      <trkpt lat="48.11143" lon="-3.54282">
        <ele>161.3</ele>
        <time>2025-02-25T13:41:40Z</time>
      </trkpt>
      <trkpt lat="48.11141" lon="-3.54282">
        <ele>161.2</ele>
        <time>2025-02-25T13:41:41Z</time>
      </trkpt>
      <trkpt lat="48.1114" lon="-3.54282">
        <ele>161.2</ele>
        <time>2025-02-25T13:41:42Z</time>
      </trkpt>
      <trkpt lat="48.11138" lon="-3.54283">
        <ele>161.2</ele>
        <time>2025-02-25T13:41:43Z</time>
      </trkpt>
      <trkpt lat="48.11137" lon="-3.54283">
        <ele>161.1</ele>
        <time>2025-02-25T13:41:44Z</time>
      </trkpt>
      <trkpt lat="48.11136" lon="-3.54283">
        <ele>161.1</ele>
        <time>2025-02-25T13:41:45Z</time>
      </trkpt>
      <trkpt lat="48.11134" lon="-3.54283">
        <ele>161</ele>
        <time>2025-02-25T13:41:46Z</time>
      </trkpt>
      <trkpt lat="48.11133" lon="-3.54283">
        <ele>161</ele>
        <time>2025-02-25T13:41:47Z</time>
      </trkpt>
      <trkpt lat="48.11132" lon="-3.54283">
        <ele>161</ele>
        <time>2025-02-25T13:41:48Z</time>
      </trkpt>
      <trkpt lat="48.1113" lon="-3.54283">
        <ele>160.9</ele>
        <time>2025-02-25T13:41:49Z</time>
      </trkpt>
      <trkpt lat="48.11129" lon="-3.54283">
        <ele>160.9</ele>
        <time>2025-02-25T13:41:50Z</time>
      </trkpt>
      <trkpt lat="48.11128" lon="-3.54284">
        <ele>160.9</ele>
        <time>2025-02-25T13:41:51Z</time>
      </trkpt>
      <trkpt lat="48.11127" lon="-3.54285">
        <ele>160.9</ele>
        <time>2025-02-25T13:41:52Z</time>
      </trkpt>
      <trkpt lat="48.11126" lon="-3.54286">
        <ele>161</ele>
        <time>2025-02-25T13:41:53Z</time>
      </trkpt>
      <trkpt lat="48.11124" lon="-3.54286">
        <ele>160.9</ele>
        <time>2025-02-25T13:41:54Z</time>
      </trkpt>
      <trkpt lat="48.11123" lon="-3.54287">
        <ele>160.9</ele>
        <time>2025-02-25T13:41:55Z</time>
      </trkpt>
      <trkpt lat="48.11122" lon="-3.54287">
        <ele>160.9</ele>
        <time>2025-02-25T13:41:56Z</time>
      </trkpt>
      <trkpt lat="48.1112" lon="-3.54287">
        <ele>160.9</ele>
        <time>2025-02-25T13:41:57Z</time>
      </trkpt>
      <trkpt lat="48.11119" lon="-3.54286">
        <ele>160.8</ele>
        <time>2025-02-25T13:41:58Z</time>
      </trkpt>
      <trkpt lat="48.11118" lon="-3.54286">
        <ele>160.8</ele>
        <time>2025-02-25T13:41:59Z</time>
      </trkpt>
      <trkpt lat="48.11117" lon="-3.54286">
        <ele>160.7</ele>
        <time>2025-02-25T13:42:00Z</time>
      </trkpt>
      <trkpt lat="48.11115" lon="-3.54287">
        <ele>160.8</ele>
        <time>2025-02-25T13:42:01Z</time>
      </trkpt>
      <trkpt lat="48.11114" lon="-3.54287">
        <ele>160.7</ele>
        <time>2025-02-25T13:42:02Z</time>
      </trkpt>
      <trkpt lat="48.11113" lon="-3.54288">
        <ele>160.8</ele>
        <time>2025-02-25T13:42:03Z</time>
      </trkpt>
      <trkpt lat="48.11112" lon="-3.54289">
        <ele>160.8</ele>
        <time>2025-02-25T13:42:04Z</time>
      </trkpt>
      <trkpt lat="48.11111" lon="-3.54289">
        <ele>160.8</ele>
        <time>2025-02-25T13:42:05Z</time>
      </trkpt>
      <trkpt lat="48.1111" lon="-3.54289">
        <ele>160.8</ele>
        <time>2025-02-25T13:42:06Z</time>
      </trkpt>
      <trkpt lat="48.11108" lon="-3.54289">
        <ele>160.9</ele>
        <time>2025-02-25T13:42:07Z</time>
      </trkpt>
      <trkpt lat="48.11107" lon="-3.54289">
        <ele>161</ele>
        <time>2025-02-25T13:42:08Z</time>
      </trkpt>
      <trkpt lat="48.11106" lon="-3.5429">
        <ele>161.1</ele>
        <time>2025-02-25T13:42:09Z</time>
      </trkpt>
      <trkpt lat="48.11106" lon="-3.5429">
        <ele>161.1</ele>
        <time>2025-02-25T13:42:10Z</time>
      </trkpt>
      <trkpt lat="48.11105" lon="-3.5429">
        <ele>161.1</ele>
        <time>2025-02-25T13:42:11Z</time>
      </trkpt>
      <trkpt lat="48.11104" lon="-3.5429">
        <ele>161.1</ele>
        <time>2025-02-25T13:42:12Z</time>
      </trkpt>
      <trkpt lat="48.11103" lon="-3.5429">
        <ele>161.2</ele>
        <time>2025-02-25T13:42:13Z</time>
      </trkpt>
      <trkpt lat="48.11102" lon="-3.5429">
        <ele>161.2</ele>
        <time>2025-02-25T13:42:14Z</time>
      </trkpt>
      <trkpt lat="48.11101" lon="-3.5429">
        <ele>161.2</ele>
        <time>2025-02-25T13:42:15Z</time>
      </trkpt>
      <trkpt lat="48.111" lon="-3.5429">
        <ele>161.3</ele>
        <time>2025-02-25T13:42:16Z</time>
      </trkpt>
      <trkpt lat="48.11099" lon="-3.5429">
        <ele>161.3</ele>
        <time>2025-02-25T13:42:17Z</time>
      </trkpt>
      <trkpt lat="48.11098" lon="-3.5429">
        <ele>161.4</ele>
        <time>2025-02-25T13:42:18Z</time>
      </trkpt>
      <trkpt lat="48.11097" lon="-3.5429">
        <ele>161.4</ele>
        <time>2025-02-25T13:42:19Z</time>
      </trkpt>
      <trkpt lat="48.11096" lon="-3.5429">
        <ele>161.4</ele>
        <time>2025-02-25T13:42:20Z</time>
      </trkpt>
      <trkpt lat="48.11095" lon="-3.5429">
        <ele>161.5</ele>
        <time>2025-02-25T13:42:21Z</time>
      </trkpt>
      <trkpt lat="48.11093" lon="-3.5429">
        <ele>161.5</ele>
        <time>2025-02-25T13:42:22Z</time>
      </trkpt>
      <trkpt lat="48.11092" lon="-3.5429">
        <ele>161.6</ele>
        <time>2025-02-25T13:42:23Z</time>
      </trkpt>
      <trkpt lat="48.11091" lon="-3.54291">
        <ele>161.7</ele>
        <time>2025-02-25T13:42:24Z</time>
      </trkpt>
      <trkpt lat="48.1109" lon="-3.54291">
        <ele>161.7</ele>
        <time>2025-02-25T13:42:25Z</time>
      </trkpt>
      <trkpt lat="48.11089" lon="-3.54291">
        <ele>161.7</ele>
        <time>2025-02-25T13:42:26Z</time>
      </trkpt>
      <trkpt lat="48.11088" lon="-3.54291">
        <ele>161.8</ele>
        <time>2025-02-25T13:42:27Z</time>
      </trkpt>
      <trkpt lat="48.11087" lon="-3.54291">
        <ele>161.8</ele>
        <time>2025-02-25T13:42:28Z</time>
      </trkpt>
      <trkpt lat="48.11086" lon="-3.54291">
        <ele>161.9</ele>
        <time>2025-02-25T13:42:29Z</time>
      </trkpt>
      <trkpt lat="48.11085" lon="-3.54292">
        <ele>162</ele>
        <time>2025-02-25T13:42:30Z</time>
      </trkpt>
      <trkpt lat="48.11084" lon="-3.54292">
        <ele>162</ele>
        <time>2025-02-25T13:42:31Z</time>
      </trkpt>
      <trkpt lat="48.11083" lon="-3.54291">
        <ele>162</ele>
        <time>2025-02-25T13:42:32Z</time>
      </trkpt>
      <trkpt lat="48.11081" lon="-3.54291">
        <ele>162</ele>
        <time>2025-02-25T13:42:33Z</time>
      </trkpt>
      <trkpt lat="48.1108" lon="-3.5429">
        <ele>161.9</ele>
        <time>2025-02-25T13:42:34Z</time>
      </trkpt>
      <trkpt lat="48.11079" lon="-3.5429">
        <ele>162</ele>
        <time>2025-02-25T13:42:35Z</time>
      </trkpt>
      <trkpt lat="48.11078" lon="-3.5429">
        <ele>162</ele>
        <time>2025-02-25T13:42:36Z</time>
      </trkpt>
      <trkpt lat="48.11077" lon="-3.54291">
        <ele>162.1</ele>
        <time>2025-02-25T13:42:37Z</time>
      </trkpt>
      <trkpt lat="48.11076" lon="-3.54291">
        <ele>162.1</ele>
        <time>2025-02-25T13:42:38Z</time>
      </trkpt>
      <trkpt lat="48.11075" lon="-3.5429">
        <ele>162</ele>
        <time>2025-02-25T13:42:39Z</time>
      </trkpt>
      <trkpt lat="48.11073" lon="-3.5429">
        <ele>162.1</ele>
        <time>2025-02-25T13:42:40Z</time>
      </trkpt>
      <trkpt lat="48.11072" lon="-3.5429">
        <ele>162.1</ele>
        <time>2025-02-25T13:42:41Z</time>
      </trkpt>
      <trkpt lat="48.11071" lon="-3.5429">
        <ele>162.1</ele>
        <time>2025-02-25T13:42:42Z</time>
      </trkpt>
      <trkpt lat="48.1107" lon="-3.5429">
        <ele>162.1</ele>
        <time>2025-02-25T13:42:43Z</time>
      </trkpt>
      <trkpt lat="48.11068" lon="-3.54291">
        <ele>162.2</ele>
        <time>2025-02-25T13:42:44Z</time>
      </trkpt>
      <trkpt lat="48.11067" lon="-3.54291">
        <ele>162.3</ele>
        <time>2025-02-25T13:42:45Z</time>
      </trkpt>
      <trkpt lat="48.11066" lon="-3.54291">
        <ele>162.3</ele>
        <time>2025-02-25T13:42:46Z</time>
      </trkpt>
      <trkpt lat="48.11065" lon="-3.54291">
        <ele>162.3</ele>
        <time>2025-02-25T13:42:47Z</time>
      </trkpt>
      <trkpt lat="48.11064" lon="-3.54291">
        <ele>162.3</ele>
        <time>2025-02-25T13:42:48Z</time>
      </trkpt>
      <trkpt lat="48.11062" lon="-3.54291">
        <ele>162.4</ele>
        <time>2025-02-25T13:42:49Z</time>
      </trkpt>
      <trkpt lat="48.11061" lon="-3.54291">
        <ele>162.4</ele>
        <time>2025-02-25T13:42:50Z</time>
      </trkpt>
      <trkpt lat="48.1106" lon="-3.54291">
        <ele>162.4</ele>
        <time>2025-02-25T13:42:51Z</time>
      </trkpt>
      <trkpt lat="48.11059" lon="-3.54292">
        <ele>162.5</ele>
        <time>2025-02-25T13:42:52Z</time>
      </trkpt>
      <trkpt lat="48.11058" lon="-3.54292">
        <ele>162.5</ele>
        <time>2025-02-25T13:42:53Z</time>
      </trkpt>
      <trkpt lat="48.11057" lon="-3.54292">
        <ele>162.5</ele>
        <time>2025-02-25T13:42:54Z</time>
      </trkpt>
      <trkpt lat="48.11056" lon="-3.54292">
        <ele>162.5</ele>
        <time>2025-02-25T13:42:55Z</time>
      </trkpt>
      <trkpt lat="48.11054" lon="-3.54292">
        <ele>162.5</ele>
        <time>2025-02-25T13:42:56Z</time>
      </trkpt>
      <trkpt lat="48.11053" lon="-3.54292">
        <ele>162.5</ele>
        <time>2025-02-25T13:42:57Z</time>
      </trkpt>
      <trkpt lat="48.11052" lon="-3.54293">
        <ele>162.5</ele>
        <time>2025-02-25T13:42:58Z</time>
      </trkpt>
      <trkpt lat="48.11051" lon="-3.54293">
        <ele>162.5</ele>
        <time>2025-02-25T13:42:59Z</time>
      </trkpt>
      <trkpt lat="48.1105" lon="-3.54294">
        <ele>162.6</ele>
        <time>2025-02-25T13:43:00Z</time>
      </trkpt>
      <trkpt lat="48.11049" lon="-3.54294">
        <ele>162.6</ele>
        <time>2025-02-25T13:43:01Z</time>
      </trkpt>
      <trkpt lat="48.11047" lon="-3.54294">
        <ele>162.6</ele>
        <time>2025-02-25T13:43:02Z</time>
      </trkpt>
      <trkpt lat="48.11046" lon="-3.54294">
        <ele>162.6</ele>
        <time>2025-02-25T13:43:03Z</time>
      </trkpt>
      <trkpt lat="48.11045" lon="-3.54294">
        <ele>162.6</ele>
        <time>2025-02-25T13:43:04Z</time>
      </trkpt>
      <trkpt lat="48.11044" lon="-3.54294">
        <ele>162.6</ele>
        <time>2025-02-25T13:43:05Z</time>
      </trkpt>
      <trkpt lat="48.11043" lon="-3.54295">
        <ele>162.6</ele>
        <time>2025-02-25T13:43:06Z</time>
      </trkpt>
      <trkpt lat="48.11042" lon="-3.54295">
        <ele>162.6</ele>
        <time>2025-02-25T13:43:07Z</time>
      </trkpt>
      <trkpt lat="48.11041" lon="-3.54295">
        <ele>162.6</ele>
        <time>2025-02-25T13:43:08Z</time>
      </trkpt>
      <trkpt lat="48.11039" lon="-3.54295">
        <ele>162.6</ele>
        <time>2025-02-25T13:43:09Z</time>
      </trkpt>
      <trkpt lat="48.11038" lon="-3.54295">
        <ele>162.6</ele>
        <time>2025-02-25T13:43:10Z</time>
      </trkpt>
      <trkpt lat="48.11037" lon="-3.54295">
        <ele>162.6</ele>
        <time>2025-02-25T13:43:11Z</time>
      </trkpt>
      <trkpt lat="48.11036" lon="-3.54296">
        <ele>162.7</ele>
        <time>2025-02-25T13:43:12Z</time>
      </trkpt>
      <trkpt lat="48.11035" lon="-3.54297">
        <ele>162.7</ele>
        <time>2025-02-25T13:43:13Z</time>
      </trkpt>
      <trkpt lat="48.11034" lon="-3.54297">
        <ele>162.7</ele>
        <time>2025-02-25T13:43:14Z</time>
      </trkpt>
      <trkpt lat="48.11032" lon="-3.54297">
        <ele>162.7</ele>
        <time>2025-02-25T13:43:15Z</time>
      </trkpt>
      <trkpt lat="48.11031" lon="-3.54297">
        <ele>162.7</ele>
        <time>2025-02-25T13:43:16Z</time>
      </trkpt>
      <trkpt lat="48.1103" lon="-3.54297">
        <ele>162.7</ele>
        <time>2025-02-25T13:43:17Z</time>
      </trkpt>
      <trkpt lat="48.11028" lon="-3.54297">
        <ele>162.7</ele>
        <time>2025-02-25T13:43:18Z</time>
      </trkpt>
      <trkpt lat="48.11027" lon="-3.54297">
        <ele>162.7</ele>
        <time>2025-02-25T13:43:19Z</time>
      </trkpt>
      <trkpt lat="48.11026" lon="-3.54298">
        <ele>162.7</ele>
        <time>2025-02-25T13:43:20Z</time>
      </trkpt>
      <trkpt lat="48.11025" lon="-3.54299">
        <ele>162.8</ele>
        <time>2025-02-25T13:43:21Z</time>
      </trkpt>
      <trkpt lat="48.11024" lon="-3.54299">
        <ele>162.8</ele>
        <time>2025-02-25T13:43:22Z</time>
      </trkpt>
      <trkpt lat="48.11022" lon="-3.54299">
        <ele>162.8</ele>
        <time>2025-02-25T13:43:23Z</time>
      </trkpt>
      <trkpt lat="48.11021" lon="-3.54299">
        <ele>162.8</ele>
        <time>2025-02-25T13:43:24Z</time>
      </trkpt>
      <trkpt lat="48.1102" lon="-3.54299">
        <ele>162.8</ele>
        <time>2025-02-25T13:43:25Z</time>
      </trkpt>
      <trkpt lat="48.11019" lon="-3.54299">
        <ele>162.8</ele>
        <time>2025-02-25T13:43:26Z</time>
      </trkpt>
      <trkpt lat="48.11017" lon="-3.543">
        <ele>162.9</ele>
        <time>2025-02-25T13:43:27Z</time>
      </trkpt>
      <trkpt lat="48.11016" lon="-3.543">
        <ele>162.9</ele>
        <time>2025-02-25T13:43:28Z</time>
      </trkpt>
      <trkpt lat="48.11015" lon="-3.54301">
        <ele>162.9</ele>
        <time>2025-02-25T13:43:29Z</time>
      </trkpt>
      <trkpt lat="48.11014" lon="-3.54301">
        <ele>162.9</ele>
        <time>2025-02-25T13:43:30Z</time>
      </trkpt>
      <trkpt lat="48.11012" lon="-3.54301">
        <ele>162.9</ele>
        <time>2025-02-25T13:43:31Z</time>
      </trkpt>
      <trkpt lat="48.11011" lon="-3.543">
        <ele>162.9</ele>
        <time>2025-02-25T13:43:32Z</time>
      </trkpt>
      <trkpt lat="48.1101" lon="-3.543">
        <ele>162.9</ele>
        <time>2025-02-25T13:43:33Z</time>
      </trkpt>
      <trkpt lat="48.11009" lon="-3.54301">
        <ele>162.9</ele>
        <time>2025-02-25T13:43:34Z</time>
      </trkpt>
      <trkpt lat="48.11008" lon="-3.543">
        <ele>162.9</ele>
        <time>2025-02-25T13:43:35Z</time>
      </trkpt>
      <trkpt lat="48.11007" lon="-3.54301">
        <ele>163</ele>
        <time>2025-02-25T13:43:36Z</time>
      </trkpt>
      <trkpt lat="48.11005" lon="-3.54301">
        <ele>163</ele>
        <time>2025-02-25T13:43:37Z</time>
      </trkpt>
      <trkpt lat="48.11004" lon="-3.54301">
        <ele>163</ele>
        <time>2025-02-25T13:43:38Z</time>
      </trkpt>
      <trkpt lat="48.11003" lon="-3.54301">
        <ele>163</ele>
        <time>2025-02-25T13:43:39Z</time>
      </trkpt>
      <trkpt lat="48.11002" lon="-3.543">
        <ele>163</ele>
        <time>2025-02-25T13:43:40Z</time>
      </trkpt>
      <trkpt lat="48.11001" lon="-3.54301">
        <ele>163</ele>
        <time>2025-02-25T13:43:41Z</time>
      </trkpt>
      <trkpt lat="48.11" lon="-3.54301">
        <ele>163</ele>
        <time>2025-02-25T13:43:42Z</time>
      </trkpt>
      <trkpt lat="48.10999" lon="-3.54302">
        <ele>163.1</ele>
        <time>2025-02-25T13:43:43Z</time>
      </trkpt>
      <trkpt lat="48.10998" lon="-3.54301">
        <ele>163.1</ele>
        <time>2025-02-25T13:43:44Z</time>
      </trkpt>
      <trkpt lat="48.10997" lon="-3.54301">
        <ele>163.2</ele>
        <time>2025-02-25T13:43:45Z</time>
      </trkpt>
      <trkpt lat="48.10996" lon="-3.54301">
        <ele>163.3</ele>
        <time>2025-02-25T13:43:46Z</time>
      </trkpt>
      <trkpt lat="48.10995" lon="-3.54301">
        <ele>163.4</ele>
        <time>2025-02-25T13:43:47Z</time>
      </trkpt>
      <trkpt lat="48.10994" lon="-3.543">
        <ele>163.4</ele>
        <time>2025-02-25T13:43:48Z</time>
      </trkpt>
      <trkpt lat="48.10993" lon="-3.543">
        <ele>163.5</ele>
        <time>2025-02-25T13:43:49Z</time>
      </trkpt>
      <trkpt lat="48.10991" lon="-3.54301">
        <ele>163.6</ele>
        <time>2025-02-25T13:43:50Z</time>
      </trkpt>
      <trkpt lat="48.1099" lon="-3.54301">
        <ele>163.7</ele>
        <time>2025-02-25T13:43:51Z</time>
      </trkpt>
      <trkpt lat="48.10989" lon="-3.54301">
        <ele>163.8</ele>
        <time>2025-02-25T13:43:52Z</time>
      </trkpt>
      <trkpt lat="48.10988" lon="-3.54301">
        <ele>163.9</ele>
        <time>2025-02-25T13:43:53Z</time>
      </trkpt>
      <trkpt lat="48.10987" lon="-3.54301">
        <ele>163.9</ele>
        <time>2025-02-25T13:43:54Z</time>
      </trkpt>
      <trkpt lat="48.10986" lon="-3.54301">
        <ele>164</ele>
        <time>2025-02-25T13:43:55Z</time>
      </trkpt>
      <trkpt lat="48.10985" lon="-3.54301">
        <ele>164.1</ele>
        <time>2025-02-25T13:43:56Z</time>
      </trkpt>
      <trkpt lat="48.10984" lon="-3.54302">
        <ele>164.2</ele>
        <time>2025-02-25T13:43:57Z</time>
      </trkpt>
      <trkpt lat="48.10983" lon="-3.54302">
        <ele>164.2</ele>
        <time>2025-02-25T13:43:58Z</time>
      </trkpt>
      <trkpt lat="48.10982" lon="-3.54302">
        <ele>164.3</ele>
        <time>2025-02-25T13:43:59Z</time>
      </trkpt>
      <trkpt lat="48.1098" lon="-3.54302">
        <ele>164.4</ele>
        <time>2025-02-25T13:44:00Z</time>
      </trkpt>
      <trkpt lat="48.10979" lon="-3.54302">
        <ele>164.5</ele>
        <time>2025-02-25T13:44:01Z</time>
      </trkpt>
      <trkpt lat="48.10978" lon="-3.54302">
        <ele>164.6</ele>
        <time>2025-02-25T13:44:02Z</time>
      </trkpt>
      <trkpt lat="48.10977" lon="-3.54302">
        <ele>164.7</ele>
        <time>2025-02-25T13:44:03Z</time>
      </trkpt>
      <trkpt lat="48.10976" lon="-3.54302">
        <ele>164.7</ele>
        <time>2025-02-25T13:44:04Z</time>
      </trkpt>
      <trkpt lat="48.10975" lon="-3.54303">
        <ele>164.8</ele>
        <time>2025-02-25T13:44:05Z</time>
      </trkpt>
      <trkpt lat="48.10974" lon="-3.54303">
        <ele>164.9</ele>
        <time>2025-02-25T13:44:06Z</time>
      </trkpt>
      <trkpt lat="48.10972" lon="-3.54303">
        <ele>165</ele>
        <time>2025-02-25T13:44:07Z</time>
      </trkpt>
      <trkpt lat="48.10971" lon="-3.54303">
        <ele>165</ele>
        <time>2025-02-25T13:44:08Z</time>
      </trkpt>
      <trkpt lat="48.1097" lon="-3.54303">
        <ele>165.1</ele>
        <time>2025-02-25T13:44:09Z</time>
      </trkpt>
      <trkpt lat="48.10969" lon="-3.54303">
        <ele>165.1</ele>
        <time>2025-02-25T13:44:10Z</time>
      </trkpt>
      <trkpt lat="48.10968" lon="-3.54304">
        <ele>165.2</ele>
        <time>2025-02-25T13:44:11Z</time>
      </trkpt>
      <trkpt lat="48.10966" lon="-3.54305">
        <ele>165.2</ele>
        <time>2025-02-25T13:44:12Z</time>
      </trkpt>
      <trkpt lat="48.10965" lon="-3.54305">
        <ele>165.3</ele>
        <time>2025-02-25T13:44:13Z</time>
      </trkpt>
      <trkpt lat="48.10964" lon="-3.54305">
        <ele>165.3</ele>
        <time>2025-02-25T13:44:14Z</time>
      </trkpt>
      <trkpt lat="48.10963" lon="-3.54305">
        <ele>165.3</ele>
        <time>2025-02-25T13:44:15Z</time>
      </trkpt>
      <trkpt lat="48.10962" lon="-3.54305">
        <ele>165.4</ele>
        <time>2025-02-25T13:44:16Z</time>
      </trkpt>
      <trkpt lat="48.1096" lon="-3.54305">
        <ele>165.4</ele>
        <time>2025-02-25T13:44:17Z</time>
      </trkpt>
      <trkpt lat="48.10959" lon="-3.54306">
        <ele>165.5</ele>
        <time>2025-02-25T13:44:18Z</time>
      </trkpt>
      <trkpt lat="48.10958" lon="-3.54307">
        <ele>165.6</ele>
        <time>2025-02-25T13:44:19Z</time>
      </trkpt>
      <trkpt lat="48.10957" lon="-3.54307">
        <ele>165.6</ele>
        <time>2025-02-25T13:44:20Z</time>
      </trkpt>
      <trkpt lat="48.10956" lon="-3.54307">
        <ele>165.6</ele>
        <time>2025-02-25T13:44:21Z</time>
      </trkpt>
      <trkpt lat="48.10954" lon="-3.54307">
        <ele>165.7</ele>
        <time>2025-02-25T13:44:22Z</time>
      </trkpt>
      <trkpt lat="48.10953" lon="-3.54307">
        <ele>165.7</ele>
        <time>2025-02-25T13:44:23Z</time>
      </trkpt>
      <trkpt lat="48.10952" lon="-3.54307">
        <ele>165.8</ele>
        <time>2025-02-25T13:44:24Z</time>
      </trkpt>
      <trkpt lat="48.10951" lon="-3.54307">
        <ele>165.8</ele>
        <time>2025-02-25T13:44:25Z</time>
      </trkpt>
      <trkpt lat="48.1095" lon="-3.54308">
        <ele>165.9</ele>
        <time>2025-02-25T13:44:26Z</time>
      </trkpt>
      <trkpt lat="48.10948" lon="-3.54309">
        <ele>166</ele>
        <time>2025-02-25T13:44:27Z</time>
      </trkpt>
      <trkpt lat="48.10947" lon="-3.54309">
        <ele>166</ele>
        <time>2025-02-25T13:44:28Z</time>
      </trkpt>
      <trkpt lat="48.10946" lon="-3.54309">
        <ele>166.1</ele>
        <time>2025-02-25T13:44:29Z</time>
      </trkpt>
      <trkpt lat="48.10945" lon="-3.54309">
        <ele>166.1</ele>
        <time>2025-02-25T13:44:30Z</time>
      </trkpt>
      <trkpt lat="48.10944" lon="-3.54309">
        <ele>166.1</ele>
        <time>2025-02-25T13:44:31Z</time>
      </trkpt>
      <trkpt lat="48.10943" lon="-3.5431">
        <ele>166.2</ele>
        <time>2025-02-25T13:44:32Z</time>
      </trkpt>
      <trkpt lat="48.10941" lon="-3.54311">
        <ele>166.3</ele>
        <time>2025-02-25T13:44:33Z</time>
      </trkpt>
      <trkpt lat="48.1094" lon="-3.54311">
        <ele>166.4</ele>
        <time>2025-02-25T13:44:34Z</time>
      </trkpt>
      <trkpt lat="48.10939" lon="-3.54311">
        <ele>166.4</ele>
        <time>2025-02-25T13:44:35Z</time>
      </trkpt>
      <trkpt lat="48.10938" lon="-3.54311">
        <ele>166.4</ele>
        <time>2025-02-25T13:44:36Z</time>
      </trkpt>
      <trkpt lat="48.10937" lon="-3.54311">
        <ele>166.5</ele>
        <time>2025-02-25T13:44:37Z</time>
      </trkpt>
      <trkpt lat="48.10936" lon="-3.54311">
        <ele>166.5</ele>
        <time>2025-02-25T13:44:38Z</time>
      </trkpt>
      <trkpt lat="48.10934" lon="-3.54311">
        <ele>166.6</ele>
        <time>2025-02-25T13:44:39Z</time>
      </trkpt>
      <trkpt lat="48.10934" lon="-3.54312">
        <ele>166.6</ele>
        <time>2025-02-25T13:44:40Z</time>
      </trkpt>
      <trkpt lat="48.10933" lon="-3.54312">
        <ele>166.6</ele>
        <time>2025-02-25T13:44:41Z</time>
      </trkpt>
      <trkpt lat="48.10932" lon="-3.54313">
        <ele>166.7</ele>
        <time>2025-02-25T13:44:42Z</time>
      </trkpt>
      <trkpt lat="48.10931" lon="-3.54313">
        <ele>166.8</ele>
        <time>2025-02-25T13:44:43Z</time>
      </trkpt>
      <trkpt lat="48.1093" lon="-3.54313">
        <ele>166.8</ele>
        <time>2025-02-25T13:44:44Z</time>
      </trkpt>
      <trkpt lat="48.10929" lon="-3.54312">
        <ele>166.8</ele>
        <time>2025-02-25T13:44:45Z</time>
      </trkpt>
      <trkpt lat="48.10927" lon="-3.54312">
        <ele>166.9</ele>
        <time>2025-02-25T13:44:46Z</time>
      </trkpt>
      <trkpt lat="48.10926" lon="-3.54313">
        <ele>166.9</ele>
        <time>2025-02-25T13:44:47Z</time>
      </trkpt>
      <trkpt lat="48.10925" lon="-3.54313">
        <ele>167</ele>
        <time>2025-02-25T13:44:48Z</time>
      </trkpt>
      <trkpt lat="48.10924" lon="-3.54313">
        <ele>167</ele>
        <time>2025-02-25T13:44:49Z</time>
      </trkpt>
      <trkpt lat="48.10923" lon="-3.54313">
        <ele>167</ele>
        <time>2025-02-25T13:44:50Z</time>
      </trkpt>
      <trkpt lat="48.10921" lon="-3.54313">
        <ele>167.1</ele>
        <time>2025-02-25T13:44:51Z</time>
      </trkpt>
      <trkpt lat="48.1092" lon="-3.54313">
        <ele>167.1</ele>
        <time>2025-02-25T13:44:52Z</time>
      </trkpt>
      <trkpt lat="48.10919" lon="-3.54313">
        <ele>167.2</ele>
        <time>2025-02-25T13:44:53Z</time>
      </trkpt>
      <trkpt lat="48.10918" lon="-3.54314">
        <ele>167.3</ele>
        <time>2025-02-25T13:44:54Z</time>
      </trkpt>
      <trkpt lat="48.10917" lon="-3.54313">
        <ele>167.3</ele>
        <time>2025-02-25T13:44:55Z</time>
      </trkpt>
      <trkpt lat="48.10916" lon="-3.54313">
        <ele>167.3</ele>
        <time>2025-02-25T13:44:56Z</time>
      </trkpt>
      <trkpt lat="48.10915" lon="-3.54312">
        <ele>167.3</ele>
        <time>2025-02-25T13:44:57Z</time>
      </trkpt>
      <trkpt lat="48.10914" lon="-3.54312">
        <ele>167.3</ele>
        <time>2025-02-25T13:44:58Z</time>
      </trkpt>
      <trkpt lat="48.10913" lon="-3.54311">
        <ele>167.3</ele>
        <time>2025-02-25T13:44:59Z</time>
      </trkpt>
      <trkpt lat="48.10912" lon="-3.5431">
        <ele>167.3</ele>
        <time>2025-02-25T13:45:00Z</time>
      </trkpt>
      <trkpt lat="48.10911" lon="-3.54309">
        <ele>167.3</ele>
        <time>2025-02-25T13:45:01Z</time>
      </trkpt>
      <trkpt lat="48.1091" lon="-3.54307">
        <ele>167.3</ele>
        <time>2025-02-25T13:45:02Z</time>
      </trkpt>
      <trkpt lat="48.1091" lon="-3.54305">
        <ele>167.2</ele>
        <time>2025-02-25T13:45:03Z</time>
      </trkpt>
      <trkpt lat="48.1091" lon="-3.54304">
        <ele>167.2</ele>
        <time>2025-02-25T13:45:04Z</time>
      </trkpt>
      <trkpt lat="48.10909" lon="-3.54302">
        <ele>167.3</ele>
        <time>2025-02-25T13:45:05Z</time>
      </trkpt>
      <trkpt lat="48.1091" lon="-3.543">
        <ele>167.2</ele>
        <time>2025-02-25T13:45:06Z</time>
      </trkpt>
      <trkpt lat="48.10909" lon="-3.54299">
        <ele>167.3</ele>
        <time>2025-02-25T13:45:07Z</time>
      </trkpt>
      <trkpt lat="48.10909" lon="-3.54297">
        <ele>167.3</ele>
        <time>2025-02-25T13:45:08Z</time>
      </trkpt>
      <trkpt lat="48.1091" lon="-3.54296">
        <ele>167.2</ele>
        <time>2025-02-25T13:45:09Z</time>
      </trkpt>
      <trkpt lat="48.10909" lon="-3.54295">
        <ele>167.3</ele>
        <time>2025-02-25T13:45:10Z</time>
      </trkpt>
      <trkpt lat="48.10909" lon="-3.54293">
        <ele>167.3</ele>
        <time>2025-02-25T13:45:11Z</time>
      </trkpt>
      <trkpt lat="48.10909" lon="-3.54292">
        <ele>167.3</ele>
        <time>2025-02-25T13:45:12Z</time>
      </trkpt>
      <trkpt lat="48.10909" lon="-3.5429">
        <ele>167.3</ele>
        <time>2025-02-25T13:45:13Z</time>
      </trkpt>
      <trkpt lat="48.10909" lon="-3.54288">
        <ele>167.3</ele>
        <time>2025-02-25T13:45:14Z</time>
      </trkpt>
      <trkpt lat="48.10908" lon="-3.54287">
        <ele>167.3</ele>
        <time>2025-02-25T13:45:15Z</time>
      </trkpt>
      <trkpt lat="48.10908" lon="-3.54285">
        <ele>167.3</ele>
        <time>2025-02-25T13:45:16Z</time>
      </trkpt>
      <trkpt lat="48.10908" lon="-3.54284">
        <ele>167.3</ele>
        <time>2025-02-25T13:45:17Z</time>
      </trkpt>
      <trkpt lat="48.10907" lon="-3.54282">
        <ele>167.3</ele>
        <time>2025-02-25T13:45:18Z</time>
      </trkpt>
      <trkpt lat="48.10907" lon="-3.54281">
        <ele>167.3</ele>
        <time>2025-02-25T13:45:19Z</time>
      </trkpt>
      <trkpt lat="48.10906" lon="-3.5428">
        <ele>167.4</ele>
        <time>2025-02-25T13:45:20Z</time>
      </trkpt>
      <trkpt lat="48.10906" lon="-3.54279">
        <ele>167.4</ele>
        <time>2025-02-25T13:45:21Z</time>
      </trkpt>
      <trkpt lat="48.10906" lon="-3.54277">
        <ele>167.4</ele>
        <time>2025-02-25T13:45:22Z</time>
      </trkpt>
      <trkpt lat="48.10906" lon="-3.54276">
        <ele>167.3</ele>
        <time>2025-02-25T13:45:23Z</time>
      </trkpt>
      <trkpt lat="48.10905" lon="-3.54275">
        <ele>167.3</ele>
        <time>2025-02-25T13:45:24Z</time>
      </trkpt>
      <trkpt lat="48.10905" lon="-3.54274">
        <ele>167.3</ele>
        <time>2025-02-25T13:45:25Z</time>
      </trkpt>
      <trkpt lat="48.10905" lon="-3.54273">
        <ele>167.2</ele>
        <time>2025-02-25T13:45:26Z</time>
      </trkpt>
      <trkpt lat="48.10904" lon="-3.54272">
        <ele>167.2</ele>
        <time>2025-02-25T13:45:27Z</time>
      </trkpt>
      <trkpt lat="48.10904" lon="-3.54271">
        <ele>167.2</ele>
        <time>2025-02-25T13:45:28Z</time>
      </trkpt>
      <trkpt lat="48.10904" lon="-3.5427">
        <ele>167.2</ele>
        <time>2025-02-25T13:45:29Z</time>
      </trkpt>
      <trkpt lat="48.10904" lon="-3.54268">
        <ele>167.1</ele>
        <time>2025-02-25T13:45:30Z</time>
      </trkpt>
      <trkpt lat="48.10904" lon="-3.54267">
        <ele>167.1</ele>
        <time>2025-02-25T13:45:31Z</time>
      </trkpt>
      <trkpt lat="48.10905" lon="-3.54266">
        <ele>167</ele>
        <time>2025-02-25T13:45:32Z</time>
      </trkpt>
      <trkpt lat="48.10906" lon="-3.54265">
        <ele>166.9</ele>
        <time>2025-02-25T13:45:33Z</time>
      </trkpt>
      <trkpt lat="48.10906" lon="-3.54265">
        <ele>166.9</ele>
        <time>2025-02-25T13:45:34Z</time>
      </trkpt>
      <trkpt lat="48.10906" lon="-3.54265">
        <ele>166.9</ele>
        <time>2025-02-25T13:45:35Z</time>
      </trkpt>
      <trkpt lat="48.10906" lon="-3.54265">
        <ele>166.9</ele>
        <time>2025-02-25T13:45:36Z</time>
      </trkpt>
      <trkpt lat="48.10906" lon="-3.54265">
        <ele>166.9</ele>
        <time>2025-02-25T13:45:37Z</time>
      </trkpt>
      <trkpt lat="48.10906" lon="-3.54265">
        <ele>166.9</ele>
        <time>2025-02-25T13:45:38Z</time>
      </trkpt>
      <trkpt lat="48.10906" lon="-3.54264">
        <ele>166.9</ele>
        <time>2025-02-25T13:45:39Z</time>
      </trkpt>
      <trkpt lat="48.10906" lon="-3.54264">
        <ele>166.9</ele>
        <time>2025-02-25T13:45:40Z</time>
      </trkpt>
      <trkpt lat="48.10906" lon="-3.54264">
        <ele>166.9</ele>
        <time>2025-02-25T13:45:41Z</time>
      </trkpt>
      <trkpt lat="48.10906" lon="-3.54264">
        <ele>166.9</ele>
        <time>2025-02-25T13:45:42Z</time>
      </trkpt>
      <trkpt lat="48.10907" lon="-3.54264">
        <ele>166.9</ele>
        <time>2025-02-25T13:45:43Z</time>
      </trkpt>
      <trkpt lat="48.10908" lon="-3.54264">
        <ele>166.8</ele>
        <time>2025-02-25T13:45:44Z</time>
      </trkpt>
      <trkpt lat="48.10908" lon="-3.54264">
        <ele>166.8</ele>
        <time>2025-02-25T13:45:45Z</time>
      </trkpt>
      <trkpt lat="48.10908" lon="-3.54264">
        <ele>166.8</ele>
        <time>2025-02-25T13:45:46Z</time>
      </trkpt>
      <trkpt lat="48.10908" lon="-3.54264">
        <ele>166.8</ele>
        <time>2025-02-25T13:45:47Z</time>
      </trkpt>
      <trkpt lat="48.10908" lon="-3.54264">
        <ele>166.8</ele>
        <time>2025-02-25T13:45:48Z</time>
      </trkpt>
      <trkpt lat="48.10908" lon="-3.54264">
        <ele>166.8</ele>
        <time>2025-02-25T13:45:49Z</time>
      </trkpt>
      <trkpt lat="48.10908" lon="-3.54264">
        <ele>166.8</ele>
        <time>2025-02-25T13:45:50Z</time>
      </trkpt>
      <trkpt lat="48.10908" lon="-3.54264">
        <ele>166.8</ele>
        <time>2025-02-25T13:45:51Z</time>
      </trkpt>
      <trkpt lat="48.10908" lon="-3.54264">
        <ele>166.8</ele>
        <time>2025-02-25T13:45:52Z</time>
      </trkpt>
      <trkpt lat="48.10908" lon="-3.54264">
        <ele>166.8</ele>
        <time>2025-02-25T13:45:53Z</time>
      </trkpt>
      <trkpt lat="48.10908" lon="-3.54263">
        <ele>166.8</ele>
        <time>2025-02-25T13:45:54Z</time>
      </trkpt>
      <trkpt lat="48.10908" lon="-3.54263">
        <ele>166.8</ele>
        <time>2025-02-25T13:45:55Z</time>
      </trkpt>
      <trkpt lat="48.10908" lon="-3.54263">
        <ele>166.8</ele>
        <time>2025-02-25T13:45:56Z</time>
      </trkpt>
      <trkpt lat="48.10908" lon="-3.54263">
        <ele>166.8</ele>
        <time>2025-02-25T13:45:57Z</time>
      </trkpt>
      <trkpt lat="48.10908" lon="-3.54263">
        <ele>166.8</ele>
        <time>2025-02-25T13:45:58Z</time>
      </trkpt>
      <trkpt lat="48.10908" lon="-3.54263">
        <ele>166.8</ele>
        <time>2025-02-25T13:45:59Z</time>
      </trkpt>
      <trkpt lat="48.10908" lon="-3.54263">
        <ele>166.8</ele>
        <time>2025-02-25T13:46:00Z</time>
      </trkpt>
      <trkpt lat="48.10907" lon="-3.54262">
        <ele>166.8</ele>
        <time>2025-02-25T13:46:01Z</time>
      </trkpt>
      <trkpt lat="48.10907" lon="-3.54259">
        <ele>166.7</ele>
        <time>2025-02-25T13:46:02Z</time>
      </trkpt>
      <trkpt lat="48.10907" lon="-3.54257">
        <ele>166.6</ele>
        <time>2025-02-25T13:46:03Z</time>
      </trkpt>
      <trkpt lat="48.10907" lon="-3.54256">
        <ele>166.6</ele>
        <time>2025-02-25T13:46:04Z</time>
      </trkpt>
      <trkpt lat="48.10906" lon="-3.54255">
        <ele>166.6</ele>
        <time>2025-02-25T13:46:05Z</time>
      </trkpt>
      <trkpt lat="48.10906" lon="-3.54254">
        <ele>166.5</ele>
        <time>2025-02-25T13:46:06Z</time>
      </trkpt>
      <trkpt lat="48.10906" lon="-3.54253">
        <ele>166.5</ele>
        <time>2025-02-25T13:46:07Z</time>
      </trkpt>
      <trkpt lat="48.10905" lon="-3.54252">
        <ele>166.5</ele>
        <time>2025-02-25T13:46:08Z</time>
      </trkpt>
      <trkpt lat="48.10905" lon="-3.54251">
        <ele>166.5</ele>
        <time>2025-02-25T13:46:09Z</time>
      </trkpt>
      <trkpt lat="48.10905" lon="-3.54249">
        <ele>166.4</ele>
        <time>2025-02-25T13:46:10Z</time>
      </trkpt>
      <trkpt lat="48.10905" lon="-3.54248">
        <ele>166.4</ele>
        <time>2025-02-25T13:46:11Z</time>
      </trkpt>
      <trkpt lat="48.10904" lon="-3.54247">
        <ele>166.4</ele>
        <time>2025-02-25T13:46:12Z</time>
      </trkpt>
      <trkpt lat="48.10903" lon="-3.54246">
        <ele>166.4</ele>
        <time>2025-02-25T13:46:13Z</time>
      </trkpt>
      <trkpt lat="48.10903" lon="-3.54244">
        <ele>166.4</ele>
        <time>2025-02-25T13:46:14Z</time>
      </trkpt>
      <trkpt lat="48.10903" lon="-3.54242">
        <ele>166.4</ele>
        <time>2025-02-25T13:46:15Z</time>
      </trkpt>
      <trkpt lat="48.10902" lon="-3.54241">
        <ele>166.4</ele>
        <time>2025-02-25T13:46:16Z</time>
      </trkpt>
      <trkpt lat="48.10902" lon="-3.54239">
        <ele>166.3</ele>
        <time>2025-02-25T13:46:17Z</time>
      </trkpt>
      <trkpt lat="48.10902" lon="-3.54238">
        <ele>166.3</ele>
        <time>2025-02-25T13:46:18Z</time>
      </trkpt>
      <trkpt lat="48.10901" lon="-3.54236">
        <ele>166.3</ele>
        <time>2025-02-25T13:46:19Z</time>
      </trkpt>
      <trkpt lat="48.10901" lon="-3.54235">
        <ele>166.3</ele>
        <time>2025-02-25T13:46:20Z</time>
      </trkpt>
      <trkpt lat="48.109" lon="-3.54234">
        <ele>166.3</ele>
        <time>2025-02-25T13:46:21Z</time>
      </trkpt>
      <trkpt lat="48.10899" lon="-3.54232">
        <ele>166.2</ele>
        <time>2025-02-25T13:46:22Z</time>
      </trkpt>
      <trkpt lat="48.10899" lon="-3.54231">
        <ele>166.2</ele>
        <time>2025-02-25T13:46:23Z</time>
      </trkpt>
      <trkpt lat="48.10899" lon="-3.54229">
        <ele>166.2</ele>
        <time>2025-02-25T13:46:24Z</time>
      </trkpt>
      <trkpt lat="48.10898" lon="-3.54228">
        <ele>166.1</ele>
        <time>2025-02-25T13:46:25Z</time>
      </trkpt>
      <trkpt lat="48.10898" lon="-3.54227">
        <ele>166.1</ele>
        <time>2025-02-25T13:46:26Z</time>
      </trkpt>
      <trkpt lat="48.10897" lon="-3.54225">
        <ele>166.1</ele>
        <time>2025-02-25T13:46:27Z</time>
      </trkpt>
      <trkpt lat="48.10896" lon="-3.54224">
        <ele>166</ele>
        <time>2025-02-25T13:46:28Z</time>
      </trkpt>
      <trkpt lat="48.10896" lon="-3.54223">
        <ele>166</ele>
        <time>2025-02-25T13:46:29Z</time>
      </trkpt>
      <trkpt lat="48.10895" lon="-3.54221">
        <ele>166</ele>
        <time>2025-02-25T13:46:30Z</time>
      </trkpt>
      <trkpt lat="48.10895" lon="-3.54219">
        <ele>166</ele>
        <time>2025-02-25T13:46:31Z</time>
      </trkpt>
      <trkpt lat="48.10894" lon="-3.54218">
        <ele>166</ele>
        <time>2025-02-25T13:46:32Z</time>
      </trkpt>
      <trkpt lat="48.10894" lon="-3.54216">
        <ele>166</ele>
        <time>2025-02-25T13:46:33Z</time>
      </trkpt>
      <trkpt lat="48.10894" lon="-3.54214">
        <ele>165.9</ele>
        <time>2025-02-25T13:46:34Z</time>
      </trkpt>
      <trkpt lat="48.10894" lon="-3.54212">
        <ele>165.9</ele>
        <time>2025-02-25T13:46:35Z</time>
      </trkpt>
      <trkpt lat="48.10893" lon="-3.5421">
        <ele>165.9</ele>
        <time>2025-02-25T13:46:36Z</time>
      </trkpt>
      <trkpt lat="48.10893" lon="-3.54208">
        <ele>165.9</ele>
        <time>2025-02-25T13:46:37Z</time>
      </trkpt>
      <trkpt lat="48.10892" lon="-3.54207">
        <ele>165.9</ele>
        <time>2025-02-25T13:46:38Z</time>
      </trkpt>
      <trkpt lat="48.10891" lon="-3.54205">
        <ele>166</ele>
        <time>2025-02-25T13:46:39Z</time>
      </trkpt>
      <trkpt lat="48.10891" lon="-3.54203">
        <ele>165.9</ele>
        <time>2025-02-25T13:46:40Z</time>
      </trkpt>
      <trkpt lat="48.1089" lon="-3.54201">
        <ele>166</ele>
        <time>2025-02-25T13:46:41Z</time>
      </trkpt>
      <trkpt lat="48.1089" lon="-3.542">
        <ele>166</ele>
        <time>2025-02-25T13:46:42Z</time>
      </trkpt>
      <trkpt lat="48.1089" lon="-3.54198">
        <ele>166</ele>
        <time>2025-02-25T13:46:43Z</time>
      </trkpt>
      <trkpt lat="48.10889" lon="-3.54196">
        <ele>166</ele>
        <time>2025-02-25T13:46:44Z</time>
      </trkpt>
      <trkpt lat="48.10889" lon="-3.54195">
        <ele>166</ele>
        <time>2025-02-25T13:46:45Z</time>
      </trkpt>
      <trkpt lat="48.10888" lon="-3.54193">
        <ele>165.9</ele>
        <time>2025-02-25T13:46:46Z</time>
      </trkpt>
      <trkpt lat="48.10888" lon="-3.54192">
        <ele>165.9</ele>
        <time>2025-02-25T13:46:47Z</time>
      </trkpt>
      <trkpt lat="48.10888" lon="-3.5419">
        <ele>165.8</ele>
        <time>2025-02-25T13:46:48Z</time>
      </trkpt>
      <trkpt lat="48.10888" lon="-3.54188">
        <ele>165.8</ele>
        <time>2025-02-25T13:46:49Z</time>
      </trkpt>
      <trkpt lat="48.10888" lon="-3.54186">
        <ele>165.7</ele>
        <time>2025-02-25T13:46:50Z</time>
      </trkpt>
      <trkpt lat="48.10888" lon="-3.54185">
        <ele>165.7</ele>
        <time>2025-02-25T13:46:51Z</time>
      </trkpt>
      <trkpt lat="48.10887" lon="-3.54183">
        <ele>165.6</ele>
        <time>2025-02-25T13:46:52Z</time>
      </trkpt>
      <trkpt lat="48.10887" lon="-3.54182">
        <ele>165.6</ele>
        <time>2025-02-25T13:46:53Z</time>
      </trkpt>
      <trkpt lat="48.10887" lon="-3.5418">
        <ele>165.5</ele>
        <time>2025-02-25T13:46:54Z</time>
      </trkpt>
      <trkpt lat="48.10886" lon="-3.54179">
        <ele>165.5</ele>
        <time>2025-02-25T13:46:55Z</time>
      </trkpt>
      <trkpt lat="48.10886" lon="-3.54177">
        <ele>165.4</ele>
        <time>2025-02-25T13:46:56Z</time>
      </trkpt>
      <trkpt lat="48.10886" lon="-3.54175">
        <ele>165.4</ele>
        <time>2025-02-25T13:46:57Z</time>
      </trkpt>
      <trkpt lat="48.10885" lon="-3.54174">
        <ele>165.4</ele>
        <time>2025-02-25T13:46:58Z</time>
      </trkpt>
      <trkpt lat="48.10885" lon="-3.54172">
        <ele>165.3</ele>
        <time>2025-02-25T13:46:59Z</time>
      </trkpt>
      <trkpt lat="48.10885" lon="-3.5417">
        <ele>165.2</ele>
        <time>2025-02-25T13:47:00Z</time>
      </trkpt>
      <trkpt lat="48.10885" lon="-3.54169">
        <ele>165.2</ele>
        <time>2025-02-25T13:47:01Z</time>
      </trkpt>
      <trkpt lat="48.10884" lon="-3.54167">
        <ele>165.2</ele>
        <time>2025-02-25T13:47:02Z</time>
      </trkpt>
      <trkpt lat="48.10884" lon="-3.54165">
        <ele>165.1</ele>
        <time>2025-02-25T13:47:03Z</time>
      </trkpt>
      <trkpt lat="48.10884" lon="-3.54163">
        <ele>165</ele>
        <time>2025-02-25T13:47:04Z</time>
      </trkpt>
      <trkpt lat="48.10883" lon="-3.54161">
        <ele>165</ele>
        <time>2025-02-25T13:47:05Z</time>
      </trkpt>
      <trkpt lat="48.10882" lon="-3.54159">
        <ele>165</ele>
        <time>2025-02-25T13:47:06Z</time>
      </trkpt>
      <trkpt lat="48.10882" lon="-3.54157">
        <ele>164.9</ele>
        <time>2025-02-25T13:47:07Z</time>
      </trkpt>
      <trkpt lat="48.10882" lon="-3.54155">
        <ele>164.8</ele>
        <time>2025-02-25T13:47:08Z</time>
      </trkpt>
      <trkpt lat="48.10882" lon="-3.54153">
        <ele>164.8</ele>
        <time>2025-02-25T13:47:09Z</time>
      </trkpt>
      <trkpt lat="48.10882" lon="-3.54151">
        <ele>164.7</ele>
        <time>2025-02-25T13:47:10Z</time>
      </trkpt>
      <trkpt lat="48.10882" lon="-3.5415">
        <ele>164.6</ele>
        <time>2025-02-25T13:47:11Z</time>
      </trkpt>
      <trkpt lat="48.10882" lon="-3.54148">
        <ele>164.6</ele>
        <time>2025-02-25T13:47:12Z</time>
      </trkpt>
      <trkpt lat="48.10882" lon="-3.54146">
        <ele>164.5</ele>
        <time>2025-02-25T13:47:13Z</time>
      </trkpt>
      <trkpt lat="48.10881" lon="-3.54144">
        <ele>164.5</ele>
        <time>2025-02-25T13:47:14Z</time>
      </trkpt>
      <trkpt lat="48.10881" lon="-3.54143">
        <ele>164.4</ele>
        <time>2025-02-25T13:47:15Z</time>
      </trkpt>
      <trkpt lat="48.1088" lon="-3.54141">
        <ele>164.4</ele>
        <time>2025-02-25T13:47:16Z</time>
      </trkpt>
      <trkpt lat="48.10879" lon="-3.5414">
        <ele>164.4</ele>
        <time>2025-02-25T13:47:17Z</time>
      </trkpt>
      <trkpt lat="48.10879" lon="-3.54139">
        <ele>164.4</ele>
        <time>2025-02-25T13:47:18Z</time>
      </trkpt>
      <trkpt lat="48.10879" lon="-3.54138">
        <ele>164.3</ele>
        <time>2025-02-25T13:47:19Z</time>
      </trkpt>
      <trkpt lat="48.10878" lon="-3.54136">
        <ele>164.3</ele>
        <time>2025-02-25T13:47:20Z</time>
      </trkpt>
      <trkpt lat="48.10877" lon="-3.54135">
        <ele>164.3</ele>
        <time>2025-02-25T13:47:21Z</time>
      </trkpt>
      <trkpt lat="48.10877" lon="-3.54135">
        <ele>164.3</ele>
        <time>2025-02-25T13:47:22Z</time>
      </trkpt>
      <trkpt lat="48.10877" lon="-3.54135">
        <ele>164.3</ele>
        <time>2025-02-25T13:47:23Z</time>
      </trkpt>
      <trkpt lat="48.10877" lon="-3.54135">
        <ele>164.3</ele>
        <time>2025-02-25T13:47:24Z</time>
      </trkpt>
      <trkpt lat="48.10877" lon="-3.54133">
        <ele>164.2</ele>
        <time>2025-02-25T13:47:25Z</time>
      </trkpt>
      <trkpt lat="48.10877" lon="-3.54131">
        <ele>164.1</ele>
        <time>2025-02-25T13:47:26Z</time>
      </trkpt>
      <trkpt lat="48.10878" lon="-3.5413">
        <ele>164.1</ele>
        <time>2025-02-25T13:47:27Z</time>
      </trkpt>
      <trkpt lat="48.10879" lon="-3.54129">
        <ele>164</ele>
        <time>2025-02-25T13:47:28Z</time>
      </trkpt>
      <trkpt lat="48.10879" lon="-3.54127">
        <ele>163.9</ele>
        <time>2025-02-25T13:47:29Z</time>
      </trkpt>
      <trkpt lat="48.1088" lon="-3.54126">
        <ele>163.9</ele>
        <time>2025-02-25T13:47:30Z</time>
      </trkpt>
      <trkpt lat="48.10882" lon="-3.54126">
        <ele>163.8</ele>
        <time>2025-02-25T13:47:31Z</time>
      </trkpt>
      <trkpt lat="48.10883" lon="-3.54127">
        <ele>163.8</ele>
        <time>2025-02-25T13:47:32Z</time>
      </trkpt>
      <trkpt lat="48.10884" lon="-3.54126">
        <ele>163.7</ele>
        <time>2025-02-25T13:47:33Z</time>
      </trkpt>
      <trkpt lat="48.10885" lon="-3.54126">
        <ele>163.7</ele>
        <time>2025-02-25T13:47:34Z</time>
      </trkpt>
      <trkpt lat="48.10886" lon="-3.54125">
        <ele>163.6</ele>
        <time>2025-02-25T13:47:35Z</time>
      </trkpt>
      <trkpt lat="48.10886" lon="-3.54124">
        <ele>163.6</ele>
        <time>2025-02-25T13:47:36Z</time>
      </trkpt>
      <trkpt lat="48.10887" lon="-3.54122">
        <ele>163.5</ele>
        <time>2025-02-25T13:47:37Z</time>
      </trkpt>
      <trkpt lat="48.10886" lon="-3.54121">
        <ele>163.5</ele>
        <time>2025-02-25T13:47:38Z</time>
      </trkpt>
      <trkpt lat="48.10887" lon="-3.54119">
        <ele>163.4</ele>
        <time>2025-02-25T13:47:39Z</time>
      </trkpt>
      <trkpt lat="48.10886" lon="-3.54118">
        <ele>163.4</ele>
        <time>2025-02-25T13:47:40Z</time>
      </trkpt>
      <trkpt lat="48.10886" lon="-3.54116">
        <ele>163.3</ele>
        <time>2025-02-25T13:47:41Z</time>
      </trkpt>
      <trkpt lat="48.10885" lon="-3.54115">
        <ele>163.3</ele>
        <time>2025-02-25T13:47:42Z</time>
      </trkpt>
      <trkpt lat="48.10885" lon="-3.54114">
        <ele>163.2</ele>
        <time>2025-02-25T13:47:43Z</time>
      </trkpt>
      <trkpt lat="48.10884" lon="-3.54113">
        <ele>163.2</ele>
        <time>2025-02-25T13:47:44Z</time>
      </trkpt>
      <trkpt lat="48.10883" lon="-3.54112">
        <ele>163.2</ele>
        <time>2025-02-25T13:47:45Z</time>
      </trkpt>
      <trkpt lat="48.10882" lon="-3.5411">
        <ele>163.2</ele>
        <time>2025-02-25T13:47:46Z</time>
      </trkpt>
      <trkpt lat="48.10881" lon="-3.54109">
        <ele>163.2</ele>
        <time>2025-02-25T13:47:47Z</time>
      </trkpt>
      <trkpt lat="48.10881" lon="-3.54108">
        <ele>163.1</ele>
        <time>2025-02-25T13:47:48Z</time>
      </trkpt>
      <trkpt lat="48.1088" lon="-3.54106">
        <ele>163</ele>
        <time>2025-02-25T13:47:49Z</time>
      </trkpt>
      <trkpt lat="48.1088" lon="-3.54105">
        <ele>163</ele>
        <time>2025-02-25T13:47:50Z</time>
      </trkpt>
      <trkpt lat="48.10879" lon="-3.54105">
        <ele>163</ele>
        <time>2025-02-25T13:47:51Z</time>
      </trkpt>
      <trkpt lat="48.10879" lon="-3.54105">
        <ele>163</ele>
        <time>2025-02-25T13:47:52Z</time>
      </trkpt>
      <trkpt lat="48.10879" lon="-3.54106">
        <ele>163.1</ele>
        <time>2025-02-25T13:47:53Z</time>
      </trkpt>
      <trkpt lat="48.10879" lon="-3.54106">
        <ele>163.1</ele>
        <time>2025-02-25T13:47:54Z</time>
      </trkpt>
      <trkpt lat="48.10879" lon="-3.54106">
        <ele>163.1</ele>
        <time>2025-02-25T13:47:55Z</time>
      </trkpt>
      <trkpt lat="48.10879" lon="-3.54106">
        <ele>163.1</ele>
        <time>2025-02-25T13:47:56Z</time>
      </trkpt>
      <trkpt lat="48.10879" lon="-3.54106">
        <ele>163.1</ele>
        <time>2025-02-25T13:47:57Z</time>
      </trkpt>
      <trkpt lat="48.10879" lon="-3.54106">
        <ele>163.1</ele>
        <time>2025-02-25T13:47:58Z</time>
      </trkpt>
      <trkpt lat="48.10879" lon="-3.54106">
        <ele>163.1</ele>
        <time>2025-02-25T13:47:59Z</time>
      </trkpt>
      <trkpt lat="48.10879" lon="-3.54106">
        <ele>163.1</ele>
        <time>2025-02-25T13:48:00Z</time>
      </trkpt>
      <trkpt lat="48.10879" lon="-3.54106">
        <ele>163.1</ele>
        <time>2025-02-25T13:48:01Z</time>
      </trkpt>
      <trkpt lat="48.10879" lon="-3.54108">
        <ele>163.2</ele>
        <time>2025-02-25T13:48:02Z</time>
      </trkpt>
      <trkpt lat="48.10879" lon="-3.54109">
        <ele>163.2</ele>
        <time>2025-02-25T13:48:03Z</time>
      </trkpt>
      <trkpt lat="48.10879" lon="-3.5411">
        <ele>163.3</ele>
        <time>2025-02-25T13:48:04Z</time>
      </trkpt>
      <trkpt lat="48.10879" lon="-3.5411">
        <ele>163.3</ele>
        <time>2025-02-25T13:48:05Z</time>
      </trkpt>
      <trkpt lat="48.10879" lon="-3.5411">
        <ele>163.3</ele>
        <time>2025-02-25T13:48:06Z</time>
      </trkpt>
      <trkpt lat="48.10878" lon="-3.5411">
        <ele>163.3</ele>
        <time>2025-02-25T13:48:07Z</time>
      </trkpt>
      <trkpt lat="48.10878" lon="-3.5411">
        <ele>163.3</ele>
        <time>2025-02-25T13:48:08Z</time>
      </trkpt>
      <trkpt lat="48.10878" lon="-3.5411">
        <ele>163.3</ele>
        <time>2025-02-25T13:48:09Z</time>
      </trkpt>
      <trkpt lat="48.10877" lon="-3.54109">
        <ele>163.3</ele>
        <time>2025-02-25T13:48:10Z</time>
      </trkpt>
      <trkpt lat="48.10876" lon="-3.54108">
        <ele>163.3</ele>
        <time>2025-02-25T13:48:11Z</time>
      </trkpt>
      <trkpt lat="48.10876" lon="-3.54108">
        <ele>163.3</ele>
        <time>2025-02-25T13:48:12Z</time>
      </trkpt>
      <trkpt lat="48.10875" lon="-3.5411">
        <ele>163.4</ele>
        <time>2025-02-25T13:48:13Z</time>
      </trkpt>
      <trkpt lat="48.10875" lon="-3.5411">
        <ele>163.4</ele>
        <time>2025-02-25T13:48:14Z</time>
      </trkpt>
      <trkpt lat="48.10875" lon="-3.54109">
        <ele>163.4</ele>
        <time>2025-02-25T13:48:15Z</time>
      </trkpt>
      <trkpt lat="48.10875" lon="-3.54109">
        <ele>163.4</ele>
        <time>2025-02-25T13:48:16Z</time>
      </trkpt>
      <trkpt lat="48.10875" lon="-3.54109">
        <ele>163.4</ele>
        <time>2025-02-25T13:48:17Z</time>
      </trkpt>
      <trkpt lat="48.10874" lon="-3.54108">
        <ele>163.4</ele>
        <time>2025-02-25T13:48:18Z</time>
      </trkpt>
      <trkpt lat="48.10874" lon="-3.54108">
        <ele>163.4</ele>
        <time>2025-02-25T13:48:19Z</time>
      </trkpt>
      <trkpt lat="48.10874" lon="-3.54108">
        <ele>163.4</ele>
        <time>2025-02-25T13:48:20Z</time>
      </trkpt>
      <trkpt lat="48.10874" lon="-3.54108">
        <ele>163.4</ele>
        <time>2025-02-25T13:48:21Z</time>
      </trkpt>
      <trkpt lat="48.10875" lon="-3.54108">
        <ele>163.3</ele>
        <time>2025-02-25T13:48:22Z</time>
      </trkpt>
      <trkpt lat="48.10875" lon="-3.54108">
        <ele>163.3</ele>
        <time>2025-02-25T13:48:23Z</time>
      </trkpt>
      <trkpt lat="48.10875" lon="-3.54108">
        <ele>163.3</ele>
        <time>2025-02-25T13:48:24Z</time>
      </trkpt>
      <trkpt lat="48.10875" lon="-3.54108">
        <ele>163.3</ele>
        <time>2025-02-25T13:48:25Z</time>
      </trkpt>
      <trkpt lat="48.10875" lon="-3.54108">
        <ele>163.3</ele>
        <time>2025-02-25T13:48:26Z</time>
      </trkpt>
      <trkpt lat="48.10875" lon="-3.54108">
        <ele>163.3</ele>
        <time>2025-02-25T13:48:27Z</time>
      </trkpt>
      <trkpt lat="48.10875" lon="-3.54108">
        <ele>163.3</ele>
        <time>2025-02-25T13:48:28Z</time>
      </trkpt>
      <trkpt lat="48.10875" lon="-3.54108">
        <ele>163.3</ele>
        <time>2025-02-25T13:48:29Z</time>
      </trkpt>
      <trkpt lat="48.10875" lon="-3.54108">
        <ele>163.3</ele>
        <time>2025-02-25T13:48:30Z</time>
      </trkpt>
      <trkpt lat="48.10875" lon="-3.54108">
        <ele>163.3</ele>
        <time>2025-02-25T13:48:31Z</time>
      </trkpt>
      <trkpt lat="48.10875" lon="-3.54108">
        <ele>163.3</ele>
        <time>2025-02-25T13:48:32Z</time>
      </trkpt>
      <trkpt lat="48.10875" lon="-3.54108">
        <ele>163.3</ele>
        <time>2025-02-25T13:48:33Z</time>
      </trkpt>
      <trkpt lat="48.10875" lon="-3.54108">
        <ele>163.3</ele>
        <time>2025-02-25T13:48:34Z</time>
      </trkpt>
      <trkpt lat="48.10875" lon="-3.54108">
        <ele>163.3</ele>
        <time>2025-02-25T13:48:35Z</time>
      </trkpt>
      <trkpt lat="48.10875" lon="-3.54108">
        <ele>163.3</ele>
        <time>2025-02-25T13:48:36Z</time>
      </trkpt>
      <trkpt lat="48.10875" lon="-3.54108">
        <ele>163.3</ele>
        <time>2025-02-25T13:48:37Z</time>
      </trkpt>
      <trkpt lat="48.10875" lon="-3.54108">
        <ele>163.3</ele>
        <time>2025-02-25T13:48:38Z</time>
      </trkpt>
      <trkpt lat="48.10875" lon="-3.54108">
        <ele>163.3</ele>
        <time>2025-02-25T13:48:39Z</time>
      </trkpt>
      <trkpt lat="48.10875" lon="-3.54108">
        <ele>163.3</ele>
        <time>2025-02-25T13:48:40Z</time>
      </trkpt>
      <trkpt lat="48.10875" lon="-3.54108">
        <ele>163.3</ele>
        <time>2025-02-25T13:48:41Z</time>
      </trkpt>
      <trkpt lat="48.10875" lon="-3.54108">
        <ele>163.3</ele>
        <time>2025-02-25T13:48:42Z</time>
      </trkpt>
      <trkpt lat="48.10875" lon="-3.54108">
        <ele>163.3</ele>
        <time>2025-02-25T13:48:43Z</time>
      </trkpt>
      <trkpt lat="48.10875" lon="-3.54108">
        <ele>163.3</ele>
        <time>2025-02-25T13:48:44Z</time>
      </trkpt>
      <trkpt lat="48.10875" lon="-3.54108">
        <ele>163.3</ele>
        <time>2025-02-25T13:48:45Z</time>
      </trkpt>
      <trkpt lat="48.10875" lon="-3.54108">
        <ele>163.3</ele>
        <time>2025-02-25T13:48:46Z</time>
      </trkpt>
      <trkpt lat="48.10875" lon="-3.54108">
        <ele>163.3</ele>
        <time>2025-02-25T13:48:47Z</time>
      </trkpt>
      <trkpt lat="48.10875" lon="-3.54108">
        <ele>163.3</ele>
        <time>2025-02-25T13:48:48Z</time>
      </trkpt>
      <trkpt lat="48.10875" lon="-3.54108">
        <ele>163.3</ele>
        <time>2025-02-25T13:48:49Z</time>
      </trkpt>
      <trkpt lat="48.10875" lon="-3.54108">
        <ele>163.3</ele>
        <time>2025-02-25T13:48:50Z</time>
      </trkpt>
      <trkpt lat="48.10875" lon="-3.54108">
        <ele>163.3</ele>
        <time>2025-02-25T13:48:51Z</time>
      </trkpt>
      <trkpt lat="48.10875" lon="-3.54108">
        <ele>163.3</ele>
        <time>2025-02-25T13:48:52Z</time>
      </trkpt>
      <trkpt lat="48.10875" lon="-3.54108">
        <ele>163.3</ele>
        <time>2025-02-25T13:48:53Z</time>
      </trkpt>
      <trkpt lat="48.10875" lon="-3.54108">
        <ele>163.3</ele>
        <time>2025-02-25T13:48:54Z</time>
      </trkpt>
      <trkpt lat="48.10875" lon="-3.54108">
        <ele>163.3</ele>
        <time>2025-02-25T13:48:55Z</time>
      </trkpt>
      <trkpt lat="48.10875" lon="-3.54108">
        <ele>163.3</ele>
        <time>2025-02-25T13:48:56Z</time>
      </trkpt>
      <trkpt lat="48.10875" lon="-3.54108">
        <ele>163.3</ele>
        <time>2025-02-25T13:48:57Z</time>
      </trkpt>
      <trkpt lat="48.10875" lon="-3.54108">
        <ele>163.3</ele>
        <time>2025-02-25T13:48:58Z</time>
      </trkpt>
      <trkpt lat="48.10875" lon="-3.54108">
        <ele>163.3</ele>
        <time>2025-02-25T13:48:59Z</time>
      </trkpt>
      <trkpt lat="48.10875" lon="-3.54108">
        <ele>163.3</ele>
        <time>2025-02-25T13:49:00Z</time>
      </trkpt>
      <trkpt lat="48.10875" lon="-3.54108">
        <ele>163.3</ele>
        <time>2025-02-25T13:49:01Z</time>
      </trkpt>
      <trkpt lat="48.10875" lon="-3.54108">
        <ele>163.3</ele>
        <time>2025-02-25T13:49:02Z</time>
      </trkpt>
      <trkpt lat="48.10875" lon="-3.54108">
        <ele>163.3</ele>
        <time>2025-02-25T13:49:03Z</time>
      </trkpt>
      <trkpt lat="48.10876" lon="-3.54108">
        <ele>163.3</ele>
        <time>2025-02-25T13:49:04Z</time>
      </trkpt>
      <trkpt lat="48.10876" lon="-3.54108">
        <ele>163.3</ele>
        <time>2025-02-25T13:49:05Z</time>
      </trkpt>
      <trkpt lat="48.10876" lon="-3.54108">
        <ele>163.3</ele>
        <time>2025-02-25T13:49:06Z</time>
      </trkpt>
      <trkpt lat="48.10876" lon="-3.54108">
        <ele>163.3</ele>
        <time>2025-02-25T13:49:07Z</time>
      </trkpt>
      <trkpt lat="48.10876" lon="-3.54108">
        <ele>163.3</ele>
        <time>2025-02-25T13:49:08Z</time>
      </trkpt>
      <trkpt lat="48.10876" lon="-3.54108">
        <ele>163.3</ele>
        <time>2025-02-25T13:49:09Z</time>
      </trkpt>
      <trkpt lat="48.10876" lon="-3.54108">
        <ele>163.3</ele>
        <time>2025-02-25T13:49:10Z</time>
      </trkpt>
      <trkpt lat="48.10876" lon="-3.54108">
        <ele>163.3</ele>
        <time>2025-02-25T13:49:11Z</time>
      </trkpt>
      <trkpt lat="48.10876" lon="-3.54108">
        <ele>163.3</ele>
        <time>2025-02-25T13:49:12Z</time>
      </trkpt>
      <trkpt lat="48.10876" lon="-3.54108">
        <ele>163.3</ele>
        <time>2025-02-25T13:49:13Z</time>
      </trkpt>
      <trkpt lat="48.10876" lon="-3.54108">
        <ele>163.3</ele>
        <time>2025-02-25T13:49:14Z</time>
      </trkpt>
      <trkpt lat="48.10876" lon="-3.54108">
        <ele>163.3</ele>
        <time>2025-02-25T13:49:15Z</time>
      </trkpt>
      <trkpt lat="48.10876" lon="-3.54108">
        <ele>163.3</ele>
        <time>2025-02-25T13:49:16Z</time>
      </trkpt>
      <trkpt lat="48.10876" lon="-3.54108">
        <ele>163.3</ele>
        <time>2025-02-25T13:49:17Z</time>
      </trkpt>
      <trkpt lat="48.10877" lon="-3.54107">
        <ele>163.2</ele>
        <time>2025-02-25T13:49:18Z</time>
      </trkpt>
      <trkpt lat="48.10877" lon="-3.54106">
        <ele>163.1</ele>
        <time>2025-02-25T13:49:19Z</time>
      </trkpt>
      <trkpt lat="48.10877" lon="-3.54105">
        <ele>163.1</ele>
        <time>2025-02-25T13:49:20Z</time>
      </trkpt>
      <trkpt lat="48.10876" lon="-3.54103">
        <ele>163</ele>
        <time>2025-02-25T13:49:21Z</time>
      </trkpt>
      <trkpt lat="48.10876" lon="-3.54101">
        <ele>162.9</ele>
        <time>2025-02-25T13:49:22Z</time>
      </trkpt>
      <trkpt lat="48.10876" lon="-3.541">
        <ele>162.8</ele>
        <time>2025-02-25T13:49:23Z</time>
      </trkpt>
      <trkpt lat="48.10876" lon="-3.54098">
        <ele>162.7</ele>
        <time>2025-02-25T13:49:24Z</time>
      </trkpt>
      <trkpt lat="48.10877" lon="-3.54097">
        <ele>162.6</ele>
        <time>2025-02-25T13:49:25Z</time>
      </trkpt>
      <trkpt lat="48.10877" lon="-3.54096">
        <ele>162.6</ele>
        <time>2025-02-25T13:49:26Z</time>
      </trkpt>
      <trkpt lat="48.10877" lon="-3.54094">
        <ele>162.5</ele>
        <time>2025-02-25T13:49:27Z</time>
      </trkpt>
      <trkpt lat="48.10876" lon="-3.54092">
        <ele>162.4</ele>
        <time>2025-02-25T13:49:28Z</time>
      </trkpt>
      <trkpt lat="48.10876" lon="-3.5409">
        <ele>162.3</ele>
        <time>2025-02-25T13:49:29Z</time>
      </trkpt>
      <trkpt lat="48.10875" lon="-3.54088">
        <ele>162.3</ele>
        <time>2025-02-25T13:49:30Z</time>
      </trkpt>
      <trkpt lat="48.10874" lon="-3.54087">
        <ele>162.3</ele>
        <time>2025-02-25T13:49:31Z</time>
      </trkpt>
      <trkpt lat="48.10874" lon="-3.54085">
        <ele>162.2</ele>
        <time>2025-02-25T13:49:32Z</time>
      </trkpt>
      <trkpt lat="48.10873" lon="-3.54083">
        <ele>162.1</ele>
        <time>2025-02-25T13:49:33Z</time>
      </trkpt>
      <trkpt lat="48.10873" lon="-3.54081">
        <ele>162.1</ele>
        <time>2025-02-25T13:49:34Z</time>
      </trkpt>
      <trkpt lat="48.10873" lon="-3.5408">
        <ele>162</ele>
        <time>2025-02-25T13:49:35Z</time>
      </trkpt>
      <trkpt lat="48.10872" lon="-3.54078">
        <ele>162</ele>
        <time>2025-02-25T13:49:36Z</time>
      </trkpt>
      <trkpt lat="48.10871" lon="-3.54076">
        <ele>162</ele>
        <time>2025-02-25T13:49:37Z</time>
      </trkpt>
      <trkpt lat="48.1087" lon="-3.54074">
        <ele>162</ele>
        <time>2025-02-25T13:49:38Z</time>
      </trkpt>
      <trkpt lat="48.1087" lon="-3.54072">
        <ele>162</ele>
        <time>2025-02-25T13:49:39Z</time>
      </trkpt>
      <trkpt lat="48.1087" lon="-3.54071">
        <ele>161.9</ele>
        <time>2025-02-25T13:49:40Z</time>
      </trkpt>
      <trkpt lat="48.10871" lon="-3.54069">
        <ele>161.8</ele>
        <time>2025-02-25T13:49:41Z</time>
      </trkpt>
      <trkpt lat="48.10871" lon="-3.54068">
        <ele>161.7</ele>
        <time>2025-02-25T13:49:42Z</time>
      </trkpt>
      <trkpt lat="48.10871" lon="-3.54067">
        <ele>161.7</ele>
        <time>2025-02-25T13:49:43Z</time>
      </trkpt>
      <trkpt lat="48.10871" lon="-3.54066">
        <ele>161.7</ele>
        <time>2025-02-25T13:49:44Z</time>
      </trkpt>
      <trkpt lat="48.10871" lon="-3.54065">
        <ele>161.6</ele>
        <time>2025-02-25T13:49:45Z</time>
      </trkpt>
      <trkpt lat="48.10869" lon="-3.54064">
        <ele>161.7</ele>
        <time>2025-02-25T13:49:46Z</time>
      </trkpt>
      <trkpt lat="48.10869" lon="-3.54063">
        <ele>161.7</ele>
        <time>2025-02-25T13:49:47Z</time>
      </trkpt>
      <trkpt lat="48.10868" lon="-3.54063">
        <ele>161.8</ele>
        <time>2025-02-25T13:49:48Z</time>
      </trkpt>
      <trkpt lat="48.10867" lon="-3.54063">
        <ele>161.8</ele>
        <time>2025-02-25T13:49:49Z</time>
      </trkpt>
      <trkpt lat="48.10866" lon="-3.54064">
        <ele>162</ele>
        <time>2025-02-25T13:49:50Z</time>
      </trkpt>
      <trkpt lat="48.10865" lon="-3.54066">
        <ele>162.1</ele>
        <time>2025-02-25T13:49:51Z</time>
      </trkpt>
      <trkpt lat="48.10864" lon="-3.54068">
        <ele>162.2</ele>
        <time>2025-02-25T13:49:52Z</time>
      </trkpt>
      <trkpt lat="48.10864" lon="-3.54069">
        <ele>162.3</ele>
        <time>2025-02-25T13:49:53Z</time>
      </trkpt>
      <trkpt lat="48.10863" lon="-3.54069">
        <ele>162.3</ele>
        <time>2025-02-25T13:49:54Z</time>
      </trkpt>
      <trkpt lat="48.10862" lon="-3.5407">
        <ele>162.5</ele>
        <time>2025-02-25T13:49:55Z</time>
      </trkpt>
      <trkpt lat="48.10861" lon="-3.54071">
        <ele>162.6</ele>
        <time>2025-02-25T13:49:56Z</time>
      </trkpt>
      <trkpt lat="48.1086" lon="-3.54071">
        <ele>162.6</ele>
        <time>2025-02-25T13:49:57Z</time>
      </trkpt>
      <trkpt lat="48.1086" lon="-3.54071">
        <ele>162.6</ele>
        <time>2025-02-25T13:49:58Z</time>
      </trkpt>
      <trkpt lat="48.10859" lon="-3.54071">
        <ele>162.7</ele>
        <time>2025-02-25T13:49:59Z</time>
      </trkpt>
      <trkpt lat="48.10858" lon="-3.5407">
        <ele>162.7</ele>
        <time>2025-02-25T13:50:00Z</time>
      </trkpt>
      <trkpt lat="48.10858" lon="-3.54069">
        <ele>162.7</ele>
        <time>2025-02-25T13:50:01Z</time>
      </trkpt>
      <trkpt lat="48.10858" lon="-3.54069">
        <ele>162.7</ele>
        <time>2025-02-25T13:50:02Z</time>
      </trkpt>
      <trkpt lat="48.10859" lon="-3.5407">
        <ele>162.7</ele>
        <time>2025-02-25T13:50:03Z</time>
      </trkpt>
      <trkpt lat="48.10859" lon="-3.5407">
        <ele>162.7</ele>
        <time>2025-02-25T13:50:04Z</time>
      </trkpt>
      <trkpt lat="48.10859" lon="-3.5407">
        <ele>162.7</ele>
        <time>2025-02-25T13:50:05Z</time>
      </trkpt>
      <trkpt lat="48.10859" lon="-3.54071">
        <ele>162.7</ele>
        <time>2025-02-25T13:50:06Z</time>
      </trkpt>
      <trkpt lat="48.10857" lon="-3.54071">
        <ele>162.9</ele>
        <time>2025-02-25T13:50:07Z</time>
      </trkpt>
      <trkpt lat="48.10856" lon="-3.54071">
        <ele>162.9</ele>
        <time>2025-02-25T13:50:08Z</time>
      </trkpt>
      <trkpt lat="48.10856" lon="-3.5407">
        <ele>162.9</ele>
        <time>2025-02-25T13:50:09Z</time>
      </trkpt>
      <trkpt lat="48.10855" lon="-3.5407">
        <ele>163</ele>
        <time>2025-02-25T13:50:10Z</time>
      </trkpt>
      <trkpt lat="48.10854" lon="-3.5407">
        <ele>163</ele>
        <time>2025-02-25T13:50:11Z</time>
      </trkpt>
      <trkpt lat="48.10854" lon="-3.54069">
        <ele>163</ele>
        <time>2025-02-25T13:50:12Z</time>
      </trkpt>
      <trkpt lat="48.10853" lon="-3.54069">
        <ele>163.1</ele>
        <time>2025-02-25T13:50:13Z</time>
      </trkpt>
      <trkpt lat="48.10853" lon="-3.54068">
        <ele>163</ele>
        <time>2025-02-25T13:50:14Z</time>
      </trkpt>
      <trkpt lat="48.10852" lon="-3.54068">
        <ele>163.1</ele>
        <time>2025-02-25T13:50:15Z</time>
      </trkpt>
      <trkpt lat="48.10851" lon="-3.54067">
        <ele>163.1</ele>
        <time>2025-02-25T13:50:16Z</time>
      </trkpt>
      <trkpt lat="48.10851" lon="-3.54066">
        <ele>163.1</ele>
        <time>2025-02-25T13:50:17Z</time>
      </trkpt>
      <trkpt lat="48.1085" lon="-3.54065">
        <ele>163.1</ele>
        <time>2025-02-25T13:50:18Z</time>
      </trkpt>
      <trkpt lat="48.1085" lon="-3.54064">
        <ele>163.1</ele>
        <time>2025-02-25T13:50:19Z</time>
      </trkpt>
      <trkpt lat="48.1085" lon="-3.54064">
        <ele>163.1</ele>
        <time>2025-02-25T13:50:20Z</time>
      </trkpt>
      <trkpt lat="48.10849" lon="-3.54064">
        <ele>163.2</ele>
        <time>2025-02-25T13:50:21Z</time>
      </trkpt>
      <trkpt lat="48.10849" lon="-3.54062">
        <ele>163.1</ele>
        <time>2025-02-25T13:50:22Z</time>
      </trkpt>
      <trkpt lat="48.10848" lon="-3.54061">
        <ele>163.1</ele>
        <time>2025-02-25T13:50:23Z</time>
      </trkpt>
      <trkpt lat="48.10848" lon="-3.5406">
        <ele>163.1</ele>
        <time>2025-02-25T13:50:24Z</time>
      </trkpt>
      <trkpt lat="48.10848" lon="-3.54059">
        <ele>163.1</ele>
        <time>2025-02-25T13:50:25Z</time>
      </trkpt>
      <trkpt lat="48.10847" lon="-3.54058">
        <ele>163.1</ele>
        <time>2025-02-25T13:50:26Z</time>
      </trkpt>
      <trkpt lat="48.10847" lon="-3.54058">
        <ele>163.1</ele>
        <time>2025-02-25T13:50:27Z</time>
      </trkpt>
      <trkpt lat="48.10846" lon="-3.54056">
        <ele>163.1</ele>
        <time>2025-02-25T13:50:28Z</time>
      </trkpt>
      <trkpt lat="48.10846" lon="-3.54056">
        <ele>163.1</ele>
        <time>2025-02-25T13:50:29Z</time>
      </trkpt>
      <trkpt lat="48.10845" lon="-3.54055">
        <ele>163.1</ele>
        <time>2025-02-25T13:50:30Z</time>
      </trkpt>
      <trkpt lat="48.10845" lon="-3.54054">
        <ele>163.1</ele>
        <time>2025-02-25T13:50:31Z</time>
      </trkpt>
      <trkpt lat="48.10844" lon="-3.54053">
        <ele>163.1</ele>
        <time>2025-02-25T13:50:32Z</time>
      </trkpt>
      <trkpt lat="48.10844" lon="-3.54052">
        <ele>163.1</ele>
        <time>2025-02-25T13:50:33Z</time>
      </trkpt>
      <trkpt lat="48.10843" lon="-3.54051">
        <ele>163.1</ele>
        <time>2025-02-25T13:50:34Z</time>
      </trkpt>
      <trkpt lat="48.10843" lon="-3.5405">
        <ele>163.1</ele>
        <time>2025-02-25T13:50:35Z</time>
      </trkpt>
      <trkpt lat="48.10842" lon="-3.54049">
        <ele>163.1</ele>
        <time>2025-02-25T13:50:36Z</time>
      </trkpt>
      <trkpt lat="48.10841" lon="-3.54047">
        <ele>163.1</ele>
        <time>2025-02-25T13:50:37Z</time>
      </trkpt>
      <trkpt lat="48.10839" lon="-3.54045">
        <ele>163.2</ele>
        <time>2025-02-25T13:50:38Z</time>
      </trkpt>
      <trkpt lat="48.10839" lon="-3.54044">
        <ele>163.2</ele>
        <time>2025-02-25T13:50:39Z</time>
      </trkpt>
      <trkpt lat="48.10839" lon="-3.54043">
        <ele>163.1</ele>
        <time>2025-02-25T13:50:40Z</time>
      </trkpt>
      <trkpt lat="48.10839" lon="-3.54041">
        <ele>163.1</ele>
        <time>2025-02-25T13:50:41Z</time>
      </trkpt>
      <trkpt lat="48.10838" lon="-3.5404">
        <ele>163.1</ele>
        <time>2025-02-25T13:50:42Z</time>
      </trkpt>
      <trkpt lat="48.10838" lon="-3.54039">
        <ele>163.1</ele>
        <time>2025-02-25T13:50:43Z</time>
      </trkpt>
      <trkpt lat="48.10837" lon="-3.54037">
        <ele>163.1</ele>
        <time>2025-02-25T13:50:44Z</time>
      </trkpt>
      <trkpt lat="48.10836" lon="-3.54037">
        <ele>163.1</ele>
        <time>2025-02-25T13:50:45Z</time>
      </trkpt>
      <trkpt lat="48.10836" lon="-3.54036">
        <ele>163.1</ele>
        <time>2025-02-25T13:50:46Z</time>
      </trkpt>
      <trkpt lat="48.10835" lon="-3.54034">
        <ele>163.1</ele>
        <time>2025-02-25T13:50:47Z</time>
      </trkpt>
      <trkpt lat="48.10834" lon="-3.54032">
        <ele>163.1</ele>
        <time>2025-02-25T13:50:48Z</time>
      </trkpt>
      <trkpt lat="48.10834" lon="-3.5403">
        <ele>163</ele>
        <time>2025-02-25T13:50:49Z</time>
      </trkpt>
      <trkpt lat="48.10833" lon="-3.5403">
        <ele>163.1</ele>
        <time>2025-02-25T13:50:50Z</time>
      </trkpt>
      <trkpt lat="48.10832" lon="-3.54029">
        <ele>163.2</ele>
        <time>2025-02-25T13:50:51Z</time>
      </trkpt>
      <trkpt lat="48.10831" lon="-3.54028">
        <ele>163.3</ele>
        <time>2025-02-25T13:50:52Z</time>
      </trkpt>
      <trkpt lat="48.1083" lon="-3.54028">
        <ele>163.4</ele>
        <time>2025-02-25T13:50:53Z</time>
      </trkpt>
      <trkpt lat="48.10829" lon="-3.54027">
        <ele>163.5</ele>
        <time>2025-02-25T13:50:54Z</time>
      </trkpt>
      <trkpt lat="48.10829" lon="-3.54026">
        <ele>163.5</ele>
        <time>2025-02-25T13:50:55Z</time>
      </trkpt>
      <trkpt lat="48.10829" lon="-3.54024">
        <ele>163.5</ele>
        <time>2025-02-25T13:50:56Z</time>
      </trkpt>
      <trkpt lat="48.10829" lon="-3.54023">
        <ele>163.5</ele>
        <time>2025-02-25T13:50:57Z</time>
      </trkpt>
      <trkpt lat="48.10829" lon="-3.54022">
        <ele>163.5</ele>
        <time>2025-02-25T13:50:58Z</time>
      </trkpt>
      <trkpt lat="48.10828" lon="-3.54022">
        <ele>163.6</ele>
        <time>2025-02-25T13:50:59Z</time>
      </trkpt>
      <trkpt lat="48.10828" lon="-3.5402">
        <ele>163.6</ele>
        <time>2025-02-25T13:51:00Z</time>
      </trkpt>
      <trkpt lat="48.10827" lon="-3.54019">
        <ele>163.7</ele>
        <time>2025-02-25T13:51:01Z</time>
      </trkpt>
      <trkpt lat="48.10827" lon="-3.54018">
        <ele>163.7</ele>
        <time>2025-02-25T13:51:02Z</time>
      </trkpt>
      <trkpt lat="48.10827" lon="-3.54017">
        <ele>163.7</ele>
        <time>2025-02-25T13:51:03Z</time>
      </trkpt>
      <trkpt lat="48.10826" lon="-3.54016">
        <ele>163.8</ele>
        <time>2025-02-25T13:51:04Z</time>
      </trkpt>
      <trkpt lat="48.10827" lon="-3.54015">
        <ele>163.7</ele>
        <time>2025-02-25T13:51:05Z</time>
      </trkpt>
      <trkpt lat="48.10827" lon="-3.54014">
        <ele>163.7</ele>
        <time>2025-02-25T13:51:06Z</time>
      </trkpt>
      <trkpt lat="48.10826" lon="-3.54013">
        <ele>163.8</ele>
        <time>2025-02-25T13:51:07Z</time>
      </trkpt>
      <trkpt lat="48.10825" lon="-3.54012">
        <ele>163.9</ele>
        <time>2025-02-25T13:51:08Z</time>
      </trkpt>
      <trkpt lat="48.10825" lon="-3.54011">
        <ele>163.9</ele>
        <time>2025-02-25T13:51:09Z</time>
      </trkpt>
      <trkpt lat="48.10826" lon="-3.5401">
        <ele>163.8</ele>
        <time>2025-02-25T13:51:10Z</time>
      </trkpt>
      <trkpt lat="48.10826" lon="-3.54009">
        <ele>163.8</ele>
        <time>2025-02-25T13:51:11Z</time>
      </trkpt>
      <trkpt lat="48.10825" lon="-3.54008">
        <ele>163.9</ele>
        <time>2025-02-25T13:51:12Z</time>
      </trkpt>
      <trkpt lat="48.10825" lon="-3.54007">
        <ele>163.9</ele>
        <time>2025-02-25T13:51:13Z</time>
      </trkpt>
      <trkpt lat="48.10825" lon="-3.54006">
        <ele>163.9</ele>
        <time>2025-02-25T13:51:14Z</time>
      </trkpt>
      <trkpt lat="48.10824" lon="-3.54005">
        <ele>164</ele>
        <time>2025-02-25T13:51:15Z</time>
      </trkpt>
      <trkpt lat="48.10824" lon="-3.54004">
        <ele>164</ele>
        <time>2025-02-25T13:51:16Z</time>
      </trkpt>
      <trkpt lat="48.10824" lon="-3.54003">
        <ele>164</ele>
        <time>2025-02-25T13:51:17Z</time>
      </trkpt>
      <trkpt lat="48.10824" lon="-3.54002">
        <ele>164</ele>
        <time>2025-02-25T13:51:18Z</time>
      </trkpt>
      <trkpt lat="48.10824" lon="-3.54001">
        <ele>164</ele>
        <time>2025-02-25T13:51:19Z</time>
      </trkpt>
      <trkpt lat="48.10824" lon="-3.54">
        <ele>164</ele>
        <time>2025-02-25T13:51:20Z</time>
      </trkpt>
      <trkpt lat="48.10823" lon="-3.53999">
        <ele>164.1</ele>
        <time>2025-02-25T13:51:21Z</time>
      </trkpt>
      <trkpt lat="48.10824" lon="-3.53997">
        <ele>164</ele>
        <time>2025-02-25T13:51:22Z</time>
      </trkpt>
      <trkpt lat="48.10823" lon="-3.53996">
        <ele>164.1</ele>
        <time>2025-02-25T13:51:23Z</time>
      </trkpt>
      <trkpt lat="48.10823" lon="-3.53995">
        <ele>164.1</ele>
        <time>2025-02-25T13:51:24Z</time>
      </trkpt>
      <trkpt lat="48.10823" lon="-3.53993">
        <ele>164.1</ele>
        <time>2025-02-25T13:51:25Z</time>
      </trkpt>
      <trkpt lat="48.10822" lon="-3.53991">
        <ele>164.2</ele>
        <time>2025-02-25T13:51:26Z</time>
      </trkpt>
      <trkpt lat="48.10822" lon="-3.5399">
        <ele>164.2</ele>
        <time>2025-02-25T13:51:27Z</time>
      </trkpt>
      <trkpt lat="48.10822" lon="-3.53989">
        <ele>164.2</ele>
        <time>2025-02-25T13:51:28Z</time>
      </trkpt>
      <trkpt lat="48.10822" lon="-3.53987">
        <ele>164.2</ele>
        <time>2025-02-25T13:51:29Z</time>
      </trkpt>
      <trkpt lat="48.10822" lon="-3.53986">
        <ele>164.2</ele>
        <time>2025-02-25T13:51:30Z</time>
      </trkpt>
      <trkpt lat="48.10823" lon="-3.53985">
        <ele>164.1</ele>
        <time>2025-02-25T13:51:31Z</time>
      </trkpt>
      <trkpt lat="48.10823" lon="-3.53987">
        <ele>164.1</ele>
        <time>2025-02-25T13:51:32Z</time>
      </trkpt>
      <trkpt lat="48.10823" lon="-3.53986">
        <ele>164.1</ele>
        <time>2025-02-25T13:51:33Z</time>
      </trkpt>
      <trkpt lat="48.10823" lon="-3.53986">
        <ele>164.1</ele>
        <time>2025-02-25T13:51:34Z</time>
      </trkpt>
      <trkpt lat="48.10823" lon="-3.53986">
        <ele>164.1</ele>
        <time>2025-02-25T13:51:35Z</time>
      </trkpt>
      <trkpt lat="48.10824" lon="-3.53986">
        <ele>164</ele>
        <time>2025-02-25T13:51:36Z</time>
      </trkpt>
      <trkpt lat="48.10824" lon="-3.53986">
        <ele>164</ele>
        <time>2025-02-25T13:51:37Z</time>
      </trkpt>
      <trkpt lat="48.10825" lon="-3.53986">
        <ele>163.9</ele>
        <time>2025-02-25T13:51:38Z</time>
      </trkpt>
      <trkpt lat="48.10825" lon="-3.53987">
        <ele>163.9</ele>
        <time>2025-02-25T13:51:39Z</time>
      </trkpt>
      <trkpt lat="48.10824" lon="-3.53987">
        <ele>164</ele>
        <time>2025-02-25T13:51:40Z</time>
      </trkpt>
      <trkpt lat="48.10824" lon="-3.53987">
        <ele>164</ele>
        <time>2025-02-25T13:51:41Z</time>
      </trkpt>
      <trkpt lat="48.10824" lon="-3.53987">
        <ele>164</ele>
        <time>2025-02-25T13:51:42Z</time>
      </trkpt>
      <trkpt lat="48.10825" lon="-3.53987">
        <ele>163.9</ele>
        <time>2025-02-25T13:51:43Z</time>
      </trkpt>
      <trkpt lat="48.10825" lon="-3.53987">
        <ele>163.9</ele>
        <time>2025-02-25T13:51:44Z</time>
      </trkpt>
      <trkpt lat="48.10825" lon="-3.53987">
        <ele>163.9</ele>
        <time>2025-02-25T13:51:45Z</time>
      </trkpt>
      <trkpt lat="48.10825" lon="-3.53986">
        <ele>163.9</ele>
        <time>2025-02-25T13:51:46Z</time>
      </trkpt>
      <trkpt lat="48.10825" lon="-3.53986">
        <ele>163.9</ele>
        <time>2025-02-25T13:51:47Z</time>
      </trkpt>
      <trkpt lat="48.10825" lon="-3.53986">
        <ele>163.9</ele>
        <time>2025-02-25T13:51:48Z</time>
      </trkpt>
      <trkpt lat="48.10825" lon="-3.53986">
        <ele>163.9</ele>
        <time>2025-02-25T13:51:49Z</time>
      </trkpt>
      <trkpt lat="48.10824" lon="-3.53984">
        <ele>164</ele>
        <time>2025-02-25T13:51:50Z</time>
      </trkpt>
      <trkpt lat="48.10823" lon="-3.53982">
        <ele>164.1</ele>
        <time>2025-02-25T13:51:51Z</time>
      </trkpt>
      <trkpt lat="48.10823" lon="-3.53981">
        <ele>164.1</ele>
        <time>2025-02-25T13:51:52Z</time>
      </trkpt>
      <trkpt lat="48.10823" lon="-3.5398">
        <ele>164.1</ele>
        <time>2025-02-25T13:51:53Z</time>
      </trkpt>
      <trkpt lat="48.10822" lon="-3.53978">
        <ele>164.2</ele>
        <time>2025-02-25T13:51:54Z</time>
      </trkpt>
      <trkpt lat="48.10822" lon="-3.53977">
        <ele>164.2</ele>
        <time>2025-02-25T13:51:55Z</time>
      </trkpt>
      <trkpt lat="48.10821" lon="-3.53976">
        <ele>164.3</ele>
        <time>2025-02-25T13:51:56Z</time>
      </trkpt>
      <trkpt lat="48.10821" lon="-3.53975">
        <ele>164.3</ele>
        <time>2025-02-25T13:51:57Z</time>
      </trkpt>
      <trkpt lat="48.1082" lon="-3.53974">
        <ele>164.4</ele>
        <time>2025-02-25T13:51:58Z</time>
      </trkpt>
      <trkpt lat="48.10819" lon="-3.53973">
        <ele>164.5</ele>
        <time>2025-02-25T13:51:59Z</time>
      </trkpt>
      <trkpt lat="48.10819" lon="-3.53972">
        <ele>164.6</ele>
        <time>2025-02-25T13:52:00Z</time>
      </trkpt>
      <trkpt lat="48.10818" lon="-3.53972">
        <ele>164.7</ele>
        <time>2025-02-25T13:52:01Z</time>
      </trkpt>
      <trkpt lat="48.10817" lon="-3.53971">
        <ele>164.8</ele>
        <time>2025-02-25T13:52:02Z</time>
      </trkpt>
      <trkpt lat="48.10817" lon="-3.53971">
        <ele>164.8</ele>
        <time>2025-02-25T13:52:03Z</time>
      </trkpt>
      <trkpt lat="48.10816" lon="-3.5397">
        <ele>164.9</ele>
        <time>2025-02-25T13:52:04Z</time>
      </trkpt>
      <trkpt lat="48.10815" lon="-3.53969">
        <ele>165.1</ele>
        <time>2025-02-25T13:52:05Z</time>
      </trkpt>
      <trkpt lat="48.10814" lon="-3.53967">
        <ele>165.2</ele>
        <time>2025-02-25T13:52:06Z</time>
      </trkpt>
      <trkpt lat="48.10814" lon="-3.53967">
        <ele>165.2</ele>
        <time>2025-02-25T13:52:07Z</time>
      </trkpt>
      <trkpt lat="48.10813" lon="-3.53967">
        <ele>165.3</ele>
        <time>2025-02-25T13:52:08Z</time>
      </trkpt>
      <trkpt lat="48.10812" lon="-3.53967">
        <ele>165.4</ele>
        <time>2025-02-25T13:52:09Z</time>
      </trkpt>
      <trkpt lat="48.10811" lon="-3.53966">
        <ele>165.6</ele>
        <time>2025-02-25T13:52:10Z</time>
      </trkpt>
      <trkpt lat="48.10811" lon="-3.53965">
        <ele>165.6</ele>
        <time>2025-02-25T13:52:11Z</time>
      </trkpt>
      <trkpt lat="48.10811" lon="-3.53965">
        <ele>165.6</ele>
        <time>2025-02-25T13:52:12Z</time>
      </trkpt>
      <trkpt lat="48.1081" lon="-3.53964">
        <ele>165.8</ele>
        <time>2025-02-25T13:52:13Z</time>
      </trkpt>
      <trkpt lat="48.1081" lon="-3.53964">
        <ele>165.8</ele>
        <time>2025-02-25T13:52:14Z</time>
      </trkpt>
      <trkpt lat="48.1081" lon="-3.53963">
        <ele>165.8</ele>
        <time>2025-02-25T13:52:15Z</time>
      </trkpt>
      <trkpt lat="48.10809" lon="-3.53962">
        <ele>166</ele>
        <time>2025-02-25T13:52:16Z</time>
      </trkpt>
      <trkpt lat="48.10809" lon="-3.53961">
        <ele>166</ele>
        <time>2025-02-25T13:52:17Z</time>
      </trkpt>
      <trkpt lat="48.10808" lon="-3.5396">
        <ele>166.1</ele>
        <time>2025-02-25T13:52:18Z</time>
      </trkpt>
      <trkpt lat="48.10807" lon="-3.5396">
        <ele>166.3</ele>
        <time>2025-02-25T13:52:19Z</time>
      </trkpt>
      <trkpt lat="48.10807" lon="-3.53958">
        <ele>166.3</ele>
        <time>2025-02-25T13:52:20Z</time>
      </trkpt>
      <trkpt lat="48.10806" lon="-3.53957">
        <ele>166.5</ele>
        <time>2025-02-25T13:52:21Z</time>
      </trkpt>
      <trkpt lat="48.10805" lon="-3.53956">
        <ele>166.6</ele>
        <time>2025-02-25T13:52:22Z</time>
      </trkpt>
      <trkpt lat="48.10805" lon="-3.53955">
        <ele>166.7</ele>
        <time>2025-02-25T13:52:23Z</time>
      </trkpt>
      <trkpt lat="48.10804" lon="-3.53954">
        <ele>166.8</ele>
        <time>2025-02-25T13:52:24Z</time>
      </trkpt>
      <trkpt lat="48.10804" lon="-3.53953">
        <ele>166.8</ele>
        <time>2025-02-25T13:52:25Z</time>
      </trkpt>
      <trkpt lat="48.10804" lon="-3.53952">
        <ele>166.9</ele>
        <time>2025-02-25T13:52:26Z</time>
      </trkpt>
      <trkpt lat="48.10803" lon="-3.53951">
        <ele>167</ele>
        <time>2025-02-25T13:52:27Z</time>
      </trkpt>
      <trkpt lat="48.10803" lon="-3.53951">
        <ele>167</ele>
        <time>2025-02-25T13:52:28Z</time>
      </trkpt>
      <trkpt lat="48.10802" lon="-3.53949">
        <ele>167.1</ele>
        <time>2025-02-25T13:52:29Z</time>
      </trkpt>
      <trkpt lat="48.10802" lon="-3.53949">
        <ele>167.1</ele>
        <time>2025-02-25T13:52:30Z</time>
      </trkpt>
      <trkpt lat="48.10801" lon="-3.53948">
        <ele>167.2</ele>
        <time>2025-02-25T13:52:31Z</time>
      </trkpt>
      <trkpt lat="48.10801" lon="-3.53947">
        <ele>167.3</ele>
        <time>2025-02-25T13:52:32Z</time>
      </trkpt>
      <trkpt lat="48.108" lon="-3.53946">
        <ele>167.4</ele>
        <time>2025-02-25T13:52:33Z</time>
      </trkpt>
      <trkpt lat="48.108" lon="-3.53945">
        <ele>167.4</ele>
        <time>2025-02-25T13:52:34Z</time>
      </trkpt>
      <trkpt lat="48.108" lon="-3.53944">
        <ele>167.4</ele>
        <time>2025-02-25T13:52:35Z</time>
      </trkpt>
      <trkpt lat="48.10799" lon="-3.53943">
        <ele>167.5</ele>
        <time>2025-02-25T13:52:36Z</time>
      </trkpt>
      <trkpt lat="48.10799" lon="-3.53942">
        <ele>167.5</ele>
        <time>2025-02-25T13:52:37Z</time>
      </trkpt>
      <trkpt lat="48.10799" lon="-3.53941">
        <ele>167.5</ele>
        <time>2025-02-25T13:52:38Z</time>
      </trkpt>
      <trkpt lat="48.10798" lon="-3.5394">
        <ele>167.5</ele>
        <time>2025-02-25T13:52:39Z</time>
      </trkpt>
      <trkpt lat="48.10797" lon="-3.53939">
        <ele>167.6</ele>
        <time>2025-02-25T13:52:40Z</time>
      </trkpt>
      <trkpt lat="48.10796" lon="-3.53938">
        <ele>167.7</ele>
        <time>2025-02-25T13:52:41Z</time>
      </trkpt>
      <trkpt lat="48.10795" lon="-3.53937">
        <ele>167.8</ele>
        <time>2025-02-25T13:52:42Z</time>
      </trkpt>
      <trkpt lat="48.10794" lon="-3.53937">
        <ele>167.8</ele>
        <time>2025-02-25T13:52:43Z</time>
      </trkpt>
      <trkpt lat="48.10794" lon="-3.53936">
        <ele>167.8</ele>
        <time>2025-02-25T13:52:44Z</time>
      </trkpt>
      <trkpt lat="48.10793" lon="-3.53936">
        <ele>167.9</ele>
        <time>2025-02-25T13:52:45Z</time>
      </trkpt>
      <trkpt lat="48.10792" lon="-3.53935">
        <ele>168</ele>
        <time>2025-02-25T13:52:46Z</time>
      </trkpt>
      <trkpt lat="48.10792" lon="-3.53934">
        <ele>168</ele>
        <time>2025-02-25T13:52:47Z</time>
      </trkpt>
      <trkpt lat="48.10791" lon="-3.53933">
        <ele>168</ele>
        <time>2025-02-25T13:52:48Z</time>
      </trkpt>
      <trkpt lat="48.10791" lon="-3.53932">
        <ele>168</ele>
        <time>2025-02-25T13:52:49Z</time>
      </trkpt>
      <trkpt lat="48.1079" lon="-3.53932">
        <ele>168.1</ele>
        <time>2025-02-25T13:52:50Z</time>
      </trkpt>
      <trkpt lat="48.10789" lon="-3.5393">
        <ele>168.2</ele>
        <time>2025-02-25T13:52:51Z</time>
      </trkpt>
      <trkpt lat="48.10789" lon="-3.53929">
        <ele>168.2</ele>
        <time>2025-02-25T13:52:52Z</time>
      </trkpt>
      <trkpt lat="48.10788" lon="-3.53928">
        <ele>168.3</ele>
        <time>2025-02-25T13:52:53Z</time>
      </trkpt>
      <trkpt lat="48.10787" lon="-3.53927">
        <ele>168.3</ele>
        <time>2025-02-25T13:52:54Z</time>
      </trkpt>
      <trkpt lat="48.10786" lon="-3.53927">
        <ele>168.4</ele>
        <time>2025-02-25T13:52:55Z</time>
      </trkpt>
      <trkpt lat="48.10785" lon="-3.53927">
        <ele>168.5</ele>
        <time>2025-02-25T13:52:56Z</time>
      </trkpt>
      <trkpt lat="48.10785" lon="-3.53926">
        <ele>168.5</ele>
        <time>2025-02-25T13:52:57Z</time>
      </trkpt>
      <trkpt lat="48.10784" lon="-3.53924">
        <ele>168.6</ele>
        <time>2025-02-25T13:52:58Z</time>
      </trkpt>
      <trkpt lat="48.10784" lon="-3.53923">
        <ele>168.6</ele>
        <time>2025-02-25T13:52:59Z</time>
      </trkpt>
      <trkpt lat="48.10783" lon="-3.53923">
        <ele>168.6</ele>
        <time>2025-02-25T13:53:00Z</time>
      </trkpt>
      <trkpt lat="48.10782" lon="-3.53922">
        <ele>168.7</ele>
        <time>2025-02-25T13:53:01Z</time>
      </trkpt>
      <trkpt lat="48.10781" lon="-3.53922">
        <ele>168.8</ele>
        <time>2025-02-25T13:53:02Z</time>
      </trkpt>
      <trkpt lat="48.10781" lon="-3.53921">
        <ele>168.8</ele>
        <time>2025-02-25T13:53:03Z</time>
      </trkpt>
      <trkpt lat="48.1078" lon="-3.53922">
        <ele>168.8</ele>
        <time>2025-02-25T13:53:04Z</time>
      </trkpt>
      <trkpt lat="48.10779" lon="-3.53922">
        <ele>168.9</ele>
        <time>2025-02-25T13:53:05Z</time>
      </trkpt>
      <trkpt lat="48.10778" lon="-3.53923">
        <ele>169</ele>
        <time>2025-02-25T13:53:06Z</time>
      </trkpt>
      <trkpt lat="48.10778" lon="-3.53923">
        <ele>169</ele>
        <time>2025-02-25T13:53:07Z</time>
      </trkpt>
      <trkpt lat="48.10777" lon="-3.53924">
        <ele>169.1</ele>
        <time>2025-02-25T13:53:08Z</time>
      </trkpt>
      <trkpt lat="48.10776" lon="-3.53926">
        <ele>169.1</ele>
        <time>2025-02-25T13:53:09Z</time>
      </trkpt>
      <trkpt lat="48.10775" lon="-3.53928">
        <ele>169.2</ele>
        <time>2025-02-25T13:53:10Z</time>
      </trkpt>
      <trkpt lat="48.10773" lon="-3.53929">
        <ele>169.3</ele>
        <time>2025-02-25T13:53:11Z</time>
      </trkpt>
      <trkpt lat="48.10771" lon="-3.5393">
        <ele>169.5</ele>
        <time>2025-02-25T13:53:12Z</time>
      </trkpt>
      <trkpt lat="48.1077" lon="-3.53931">
        <ele>169.6</ele>
        <time>2025-02-25T13:53:13Z</time>
      </trkpt>
      <trkpt lat="48.10768" lon="-3.53932">
        <ele>169.7</ele>
        <time>2025-02-25T13:53:14Z</time>
      </trkpt>
      <trkpt lat="48.10767" lon="-3.53933">
        <ele>169.8</ele>
        <time>2025-02-25T13:53:15Z</time>
      </trkpt>
      <trkpt lat="48.10766" lon="-3.53933">
        <ele>169.8</ele>
        <time>2025-02-25T13:53:16Z</time>
      </trkpt>
      <trkpt lat="48.10766" lon="-3.53934">
        <ele>169.8</ele>
        <time>2025-02-25T13:53:17Z</time>
      </trkpt>
      <trkpt lat="48.10765" lon="-3.53935">
        <ele>169.9</ele>
        <time>2025-02-25T13:53:18Z</time>
      </trkpt>
      <trkpt lat="48.10764" lon="-3.53936">
        <ele>170</ele>
        <time>2025-02-25T13:53:19Z</time>
      </trkpt>
      <trkpt lat="48.10763" lon="-3.53937">
        <ele>170.1</ele>
        <time>2025-02-25T13:53:20Z</time>
      </trkpt>
      <trkpt lat="48.10762" lon="-3.53939">
        <ele>170.1</ele>
        <time>2025-02-25T13:53:21Z</time>
      </trkpt>
      <trkpt lat="48.10762" lon="-3.5394">
        <ele>170.1</ele>
        <time>2025-02-25T13:53:22Z</time>
      </trkpt>
      <trkpt lat="48.10761" lon="-3.53941">
        <ele>170.2</ele>
        <time>2025-02-25T13:53:23Z</time>
      </trkpt>
      <trkpt lat="48.10759" lon="-3.53942">
        <ele>170.4</ele>
        <time>2025-02-25T13:53:24Z</time>
      </trkpt>
      <trkpt lat="48.10758" lon="-3.53942">
        <ele>170.4</ele>
        <time>2025-02-25T13:53:25Z</time>
      </trkpt>
      <trkpt lat="48.10757" lon="-3.53942">
        <ele>170.5</ele>
        <time>2025-02-25T13:53:26Z</time>
      </trkpt>
      <trkpt lat="48.10757" lon="-3.53942">
        <ele>170.5</ele>
        <time>2025-02-25T13:53:27Z</time>
      </trkpt>
      <trkpt lat="48.10756" lon="-3.53943">
        <ele>170.6</ele>
        <time>2025-02-25T13:53:28Z</time>
      </trkpt>
      <trkpt lat="48.10755" lon="-3.53942">
        <ele>170.6</ele>
        <time>2025-02-25T13:53:29Z</time>
      </trkpt>
      <trkpt lat="48.10755" lon="-3.53943">
        <ele>170.6</ele>
        <time>2025-02-25T13:53:30Z</time>
      </trkpt>
      <trkpt lat="48.10754" lon="-3.53943">
        <ele>170.7</ele>
        <time>2025-02-25T13:53:31Z</time>
      </trkpt>
      <trkpt lat="48.10753" lon="-3.53943">
        <ele>170.8</ele>
        <time>2025-02-25T13:53:32Z</time>
      </trkpt>
      <trkpt lat="48.10752" lon="-3.53944">
        <ele>170.9</ele>
        <time>2025-02-25T13:53:33Z</time>
      </trkpt>
      <trkpt lat="48.10751" lon="-3.53943">
        <ele>170.9</ele>
        <time>2025-02-25T13:53:34Z</time>
      </trkpt>
      <trkpt lat="48.10751" lon="-3.53942">
        <ele>170.9</ele>
        <time>2025-02-25T13:53:35Z</time>
      </trkpt>
      <trkpt lat="48.1075" lon="-3.53941">
        <ele>171</ele>
        <time>2025-02-25T13:53:36Z</time>
      </trkpt>
      <trkpt lat="48.10749" lon="-3.53939">
        <ele>171</ele>
        <time>2025-02-25T13:53:37Z</time>
      </trkpt>
      <trkpt lat="48.10748" lon="-3.53939">
        <ele>171</ele>
        <time>2025-02-25T13:53:38Z</time>
      </trkpt>
      <trkpt lat="48.10748" lon="-3.53937">
        <ele>171</ele>
        <time>2025-02-25T13:53:39Z</time>
      </trkpt>
      <trkpt lat="48.10748" lon="-3.53936">
        <ele>171</ele>
        <time>2025-02-25T13:53:40Z</time>
      </trkpt>
      <trkpt lat="48.10747" lon="-3.53935">
        <ele>171</ele>
        <time>2025-02-25T13:53:41Z</time>
      </trkpt>
      <trkpt lat="48.10747" lon="-3.53934">
        <ele>171</ele>
        <time>2025-02-25T13:53:42Z</time>
      </trkpt>
      <trkpt lat="48.10747" lon="-3.53932">
        <ele>171</ele>
        <time>2025-02-25T13:53:43Z</time>
      </trkpt>
      <trkpt lat="48.10746" lon="-3.53931">
        <ele>171</ele>
        <time>2025-02-25T13:53:44Z</time>
      </trkpt>
      <trkpt lat="48.10746" lon="-3.5393">
        <ele>171</ele>
        <time>2025-02-25T13:53:45Z</time>
      </trkpt>
      <trkpt lat="48.10745" lon="-3.53929">
        <ele>171</ele>
        <time>2025-02-25T13:53:46Z</time>
      </trkpt>
      <trkpt lat="48.10744" lon="-3.53927">
        <ele>171</ele>
        <time>2025-02-25T13:53:47Z</time>
      </trkpt>
      <trkpt lat="48.10744" lon="-3.53927">
        <ele>171</ele>
        <time>2025-02-25T13:53:48Z</time>
      </trkpt>
      <trkpt lat="48.10743" lon="-3.53926">
        <ele>171</ele>
        <time>2025-02-25T13:53:49Z</time>
      </trkpt>
      <trkpt lat="48.10742" lon="-3.53925">
        <ele>171</ele>
        <time>2025-02-25T13:53:50Z</time>
      </trkpt>
      <trkpt lat="48.10742" lon="-3.53924">
        <ele>171</ele>
        <time>2025-02-25T13:53:51Z</time>
      </trkpt>
      <trkpt lat="48.10741" lon="-3.53923">
        <ele>171</ele>
        <time>2025-02-25T13:53:52Z</time>
      </trkpt>
      <trkpt lat="48.10741" lon="-3.53921">
        <ele>171</ele>
        <time>2025-02-25T13:53:53Z</time>
      </trkpt>
      <trkpt lat="48.10741" lon="-3.5392">
        <ele>171</ele>
        <time>2025-02-25T13:53:54Z</time>
      </trkpt>
      <trkpt lat="48.10741" lon="-3.53919">
        <ele>171</ele>
        <time>2025-02-25T13:53:55Z</time>
      </trkpt>
      <trkpt lat="48.10741" lon="-3.53917">
        <ele>171</ele>
        <time>2025-02-25T13:53:56Z</time>
      </trkpt>
      <trkpt lat="48.10741" lon="-3.53915">
        <ele>171</ele>
        <time>2025-02-25T13:53:57Z</time>
      </trkpt>
      <trkpt lat="48.1074" lon="-3.53914">
        <ele>171</ele>
        <time>2025-02-25T13:53:58Z</time>
      </trkpt>
      <trkpt lat="48.1074" lon="-3.53913">
        <ele>171</ele>
        <time>2025-02-25T13:53:59Z</time>
      </trkpt>
      <trkpt lat="48.1074" lon="-3.53911">
        <ele>171.1</ele>
        <time>2025-02-25T13:54:00Z</time>
      </trkpt>
      <trkpt lat="48.10739" lon="-3.5391">
        <ele>171.1</ele>
        <time>2025-02-25T13:54:01Z</time>
      </trkpt>
      <trkpt lat="48.10739" lon="-3.53911">
        <ele>171.1</ele>
        <time>2025-02-25T13:54:02Z</time>
      </trkpt>
      <trkpt lat="48.10738" lon="-3.5391">
        <ele>171.1</ele>
        <time>2025-02-25T13:54:03Z</time>
      </trkpt>
      <trkpt lat="48.10737" lon="-3.5391">
        <ele>171.1</ele>
        <time>2025-02-25T13:54:04Z</time>
      </trkpt>
      <trkpt lat="48.10736" lon="-3.53909">
        <ele>171.1</ele>
        <time>2025-02-25T13:54:05Z</time>
      </trkpt>
      <trkpt lat="48.10736" lon="-3.53908">
        <ele>171.2</ele>
        <time>2025-02-25T13:54:06Z</time>
      </trkpt>
      <trkpt lat="48.10735" lon="-3.53907">
        <ele>171.2</ele>
        <time>2025-02-25T13:54:07Z</time>
      </trkpt>
      <trkpt lat="48.10735" lon="-3.53906">
        <ele>171.2</ele>
        <time>2025-02-25T13:54:08Z</time>
      </trkpt>
      <trkpt lat="48.10734" lon="-3.53905">
        <ele>171.2</ele>
        <time>2025-02-25T13:54:09Z</time>
      </trkpt>
      <trkpt lat="48.10734" lon="-3.53905">
        <ele>171.2</ele>
        <time>2025-02-25T13:54:10Z</time>
      </trkpt>
      <trkpt lat="48.10733" lon="-3.53905">
        <ele>171.3</ele>
        <time>2025-02-25T13:54:11Z</time>
      </trkpt>
      <trkpt lat="48.10733" lon="-3.53904">
        <ele>171.3</ele>
        <time>2025-02-25T13:54:12Z</time>
      </trkpt>
      <trkpt lat="48.10732" lon="-3.53903">
        <ele>171.3</ele>
        <time>2025-02-25T13:54:13Z</time>
      </trkpt>
      <trkpt lat="48.10732" lon="-3.53903">
        <ele>171.3</ele>
        <time>2025-02-25T13:54:14Z</time>
      </trkpt>
      <trkpt lat="48.10732" lon="-3.53903">
        <ele>171.3</ele>
        <time>2025-02-25T13:54:15Z</time>
      </trkpt>
      <trkpt lat="48.10732" lon="-3.53902">
        <ele>171.3</ele>
        <time>2025-02-25T13:54:16Z</time>
      </trkpt>
      <trkpt lat="48.10731" lon="-3.53901">
        <ele>171.4</ele>
        <time>2025-02-25T13:54:17Z</time>
      </trkpt>
      <trkpt lat="48.10731" lon="-3.53901">
        <ele>171.4</ele>
        <time>2025-02-25T13:54:18Z</time>
      </trkpt>
      <trkpt lat="48.1073" lon="-3.539">
        <ele>171.4</ele>
        <time>2025-02-25T13:54:19Z</time>
      </trkpt>
      <trkpt lat="48.1073" lon="-3.539">
        <ele>171.4</ele>
        <time>2025-02-25T13:54:20Z</time>
      </trkpt>
      <trkpt lat="48.10729" lon="-3.53899">
        <ele>171.5</ele>
        <time>2025-02-25T13:54:21Z</time>
      </trkpt>
      <trkpt lat="48.10729" lon="-3.53897">
        <ele>171.5</ele>
        <time>2025-02-25T13:54:22Z</time>
      </trkpt>
      <trkpt lat="48.10729" lon="-3.53896">
        <ele>171.6</ele>
        <time>2025-02-25T13:54:23Z</time>
      </trkpt>
      <trkpt lat="48.10728" lon="-3.53895">
        <ele>171.6</ele>
        <time>2025-02-25T13:54:24Z</time>
      </trkpt>
      <trkpt lat="48.10728" lon="-3.53894">
        <ele>171.6</ele>
        <time>2025-02-25T13:54:25Z</time>
      </trkpt>
      <trkpt lat="48.10728" lon="-3.53893">
        <ele>171.7</ele>
        <time>2025-02-25T13:54:26Z</time>
      </trkpt>
      <trkpt lat="48.10728" lon="-3.53892">
        <ele>171.7</ele>
        <time>2025-02-25T13:54:27Z</time>
      </trkpt>
      <trkpt lat="48.10726" lon="-3.5389">
        <ele>171.8</ele>
        <time>2025-02-25T13:54:28Z</time>
      </trkpt>
      <trkpt lat="48.10726" lon="-3.53888">
        <ele>171.8</ele>
        <time>2025-02-25T13:54:29Z</time>
      </trkpt>
      <trkpt lat="48.10725" lon="-3.53887">
        <ele>171.8</ele>
        <time>2025-02-25T13:54:30Z</time>
      </trkpt>
      <trkpt lat="48.10725" lon="-3.53886">
        <ele>171.8</ele>
        <time>2025-02-25T13:54:31Z</time>
      </trkpt>
      <trkpt lat="48.10724" lon="-3.53884">
        <ele>171.8</ele>
        <time>2025-02-25T13:54:32Z</time>
      </trkpt>
      <trkpt lat="48.10723" lon="-3.53882">
        <ele>171.7</ele>
        <time>2025-02-25T13:54:33Z</time>
      </trkpt>
      <trkpt lat="48.10723" lon="-3.5388">
        <ele>171.7</ele>
        <time>2025-02-25T13:54:34Z</time>
      </trkpt>
      <trkpt lat="48.10722" lon="-3.53879">
        <ele>171.6</ele>
        <time>2025-02-25T13:54:35Z</time>
      </trkpt>
      <trkpt lat="48.10721" lon="-3.53877">
        <ele>171.6</ele>
        <time>2025-02-25T13:54:36Z</time>
      </trkpt>
      <trkpt lat="48.10721" lon="-3.53875">
        <ele>171.5</ele>
        <time>2025-02-25T13:54:37Z</time>
      </trkpt>
      <trkpt lat="48.1072" lon="-3.53874">
        <ele>171.5</ele>
        <time>2025-02-25T13:54:38Z</time>
      </trkpt>
      <trkpt lat="48.1072" lon="-3.53873">
        <ele>171.5</ele>
        <time>2025-02-25T13:54:39Z</time>
      </trkpt>
      <trkpt lat="48.10719" lon="-3.53871">
        <ele>171.4</ele>
        <time>2025-02-25T13:54:40Z</time>
      </trkpt>
      <trkpt lat="48.1072" lon="-3.5387">
        <ele>171.4</ele>
        <time>2025-02-25T13:54:41Z</time>
      </trkpt>
      <trkpt lat="48.10719" lon="-3.53868">
        <ele>171.3</ele>
        <time>2025-02-25T13:54:42Z</time>
      </trkpt>
      <trkpt lat="48.10719" lon="-3.53866">
        <ele>171.3</ele>
        <time>2025-02-25T13:54:43Z</time>
      </trkpt>
      <trkpt lat="48.10719" lon="-3.53865">
        <ele>171.2</ele>
        <time>2025-02-25T13:54:44Z</time>
      </trkpt>
      <trkpt lat="48.10719" lon="-3.53863">
        <ele>171.2</ele>
        <time>2025-02-25T13:54:45Z</time>
      </trkpt>
      <trkpt lat="48.10718" lon="-3.53861">
        <ele>171.2</ele>
        <time>2025-02-25T13:54:46Z</time>
      </trkpt>
      <trkpt lat="48.10717" lon="-3.5386">
        <ele>171.2</ele>
        <time>2025-02-25T13:54:47Z</time>
      </trkpt>
      <trkpt lat="48.10716" lon="-3.53858">
        <ele>171.2</ele>
        <time>2025-02-25T13:54:48Z</time>
      </trkpt>
      <trkpt lat="48.10715" lon="-3.53856">
        <ele>171.2</ele>
        <time>2025-02-25T13:54:49Z</time>
      </trkpt>
      <trkpt lat="48.10715" lon="-3.53855">
        <ele>171.2</ele>
        <time>2025-02-25T13:54:50Z</time>
      </trkpt>
      <trkpt lat="48.10715" lon="-3.53854">
        <ele>171.2</ele>
        <time>2025-02-25T13:54:51Z</time>
      </trkpt>
      <trkpt lat="48.10714" lon="-3.53853">
        <ele>171.2</ele>
        <time>2025-02-25T13:54:52Z</time>
      </trkpt>
      <trkpt lat="48.10714" lon="-3.53852">
        <ele>171.2</ele>
        <time>2025-02-25T13:54:53Z</time>
      </trkpt>
      <trkpt lat="48.10713" lon="-3.53851">
        <ele>171.2</ele>
        <time>2025-02-25T13:54:54Z</time>
      </trkpt>
      <trkpt lat="48.10712" lon="-3.53851">
        <ele>171.2</ele>
        <time>2025-02-25T13:54:55Z</time>
      </trkpt>
      <trkpt lat="48.10711" lon="-3.5385">
        <ele>171.2</ele>
        <time>2025-02-25T13:54:56Z</time>
      </trkpt>
      <trkpt lat="48.1071" lon="-3.5385">
        <ele>171.3</ele>
        <time>2025-02-25T13:54:57Z</time>
      </trkpt>
      <trkpt lat="48.10709" lon="-3.5385">
        <ele>171.3</ele>
        <time>2025-02-25T13:54:58Z</time>
      </trkpt>
      <trkpt lat="48.10708" lon="-3.53849">
        <ele>171.3</ele>
        <time>2025-02-25T13:54:59Z</time>
      </trkpt>
      <trkpt lat="48.10707" lon="-3.53848">
        <ele>171.3</ele>
        <time>2025-02-25T13:55:00Z</time>
      </trkpt>
      <trkpt lat="48.10706" lon="-3.53848">
        <ele>171.3</ele>
        <time>2025-02-25T13:55:01Z</time>
      </trkpt>
      <trkpt lat="48.10705" lon="-3.53848">
        <ele>171.3</ele>
        <time>2025-02-25T13:55:02Z</time>
      </trkpt>
      <trkpt lat="48.10704" lon="-3.53848">
        <ele>171.3</ele>
        <time>2025-02-25T13:55:03Z</time>
      </trkpt>
      <trkpt lat="48.10703" lon="-3.53848">
        <ele>171.4</ele>
        <time>2025-02-25T13:55:04Z</time>
      </trkpt>
      <trkpt lat="48.10702" lon="-3.53848">
        <ele>171.4</ele>
        <time>2025-02-25T13:55:05Z</time>
      </trkpt>
      <trkpt lat="48.10701" lon="-3.53848">
        <ele>171.4</ele>
        <time>2025-02-25T13:55:06Z</time>
      </trkpt>
      <trkpt lat="48.107" lon="-3.53846">
        <ele>171.4</ele>
        <time>2025-02-25T13:55:07Z</time>
      </trkpt>
      <trkpt lat="48.10699" lon="-3.53846">
        <ele>171.4</ele>
        <time>2025-02-25T13:55:08Z</time>
      </trkpt>
      <trkpt lat="48.10697" lon="-3.53845">
        <ele>171.4</ele>
        <time>2025-02-25T13:55:09Z</time>
      </trkpt>
      <trkpt lat="48.10696" lon="-3.53844">
        <ele>171.4</ele>
        <time>2025-02-25T13:55:10Z</time>
      </trkpt>
      <trkpt lat="48.10695" lon="-3.53843">
        <ele>171.3</ele>
        <time>2025-02-25T13:55:11Z</time>
      </trkpt>
      <trkpt lat="48.10694" lon="-3.53843">
        <ele>171.4</ele>
        <time>2025-02-25T13:55:12Z</time>
      </trkpt>
      <trkpt lat="48.10693" lon="-3.53842">
        <ele>171.4</ele>
        <time>2025-02-25T13:55:13Z</time>
      </trkpt>
      <trkpt lat="48.10692" lon="-3.53842">
        <ele>171.4</ele>
        <time>2025-02-25T13:55:14Z</time>
      </trkpt>
      <trkpt lat="48.10691" lon="-3.53841">
        <ele>171.4</ele>
        <time>2025-02-25T13:55:15Z</time>
      </trkpt>
      <trkpt lat="48.1069" lon="-3.5384">
        <ele>171.4</ele>
        <time>2025-02-25T13:55:16Z</time>
      </trkpt>
      <trkpt lat="48.1069" lon="-3.53839">
        <ele>171.4</ele>
        <time>2025-02-25T13:55:17Z</time>
      </trkpt>
      <trkpt lat="48.10688" lon="-3.53839">
        <ele>171.4</ele>
        <time>2025-02-25T13:55:18Z</time>
      </trkpt>
      <trkpt lat="48.10687" lon="-3.53838">
        <ele>171.4</ele>
        <time>2025-02-25T13:55:19Z</time>
      </trkpt>
      <trkpt lat="48.10687" lon="-3.53838">
        <ele>171.4</ele>
        <time>2025-02-25T13:55:20Z</time>
      </trkpt>
      <trkpt lat="48.10686" lon="-3.53837">
        <ele>171.4</ele>
        <time>2025-02-25T13:55:21Z</time>
      </trkpt>
      <trkpt lat="48.10685" lon="-3.53836">
        <ele>171.4</ele>
        <time>2025-02-25T13:55:22Z</time>
      </trkpt>
      <trkpt lat="48.10684" lon="-3.53835">
        <ele>171.4</ele>
        <time>2025-02-25T13:55:23Z</time>
      </trkpt>
      <trkpt lat="48.10683" lon="-3.53835">
        <ele>171.5</ele>
        <time>2025-02-25T13:55:24Z</time>
      </trkpt>
      <trkpt lat="48.10682" lon="-3.53834">
        <ele>171.5</ele>
        <time>2025-02-25T13:55:25Z</time>
      </trkpt>
      <trkpt lat="48.10681" lon="-3.53834">
        <ele>171.5</ele>
        <time>2025-02-25T13:55:26Z</time>
      </trkpt>
      <trkpt lat="48.1068" lon="-3.53833">
        <ele>171.5</ele>
        <time>2025-02-25T13:55:27Z</time>
      </trkpt>
      <trkpt lat="48.1068" lon="-3.53832">
        <ele>171.4</ele>
        <time>2025-02-25T13:55:28Z</time>
      </trkpt>
      <trkpt lat="48.10679" lon="-3.53831">
        <ele>171.4</ele>
        <time>2025-02-25T13:55:29Z</time>
      </trkpt>
      <trkpt lat="48.10678" lon="-3.5383">
        <ele>171.4</ele>
        <time>2025-02-25T13:55:30Z</time>
      </trkpt>
      <trkpt lat="48.10676" lon="-3.5383">
        <ele>171.4</ele>
        <time>2025-02-25T13:55:31Z</time>
      </trkpt>
      <trkpt lat="48.10675" lon="-3.53828">
        <ele>171.3</ele>
        <time>2025-02-25T13:55:32Z</time>
      </trkpt>
      <trkpt lat="48.10675" lon="-3.53828">
        <ele>171.3</ele>
        <time>2025-02-25T13:55:33Z</time>
      </trkpt>
      <trkpt lat="48.10674" lon="-3.53827">
        <ele>171.3</ele>
        <time>2025-02-25T13:55:34Z</time>
      </trkpt>
      <trkpt lat="48.10673" lon="-3.53826">
        <ele>171.2</ele>
        <time>2025-02-25T13:55:35Z</time>
      </trkpt>
      <trkpt lat="48.10672" lon="-3.53826">
        <ele>171.3</ele>
        <time>2025-02-25T13:55:36Z</time>
      </trkpt>
      <trkpt lat="48.10671" lon="-3.53825">
        <ele>171.2</ele>
        <time>2025-02-25T13:55:37Z</time>
      </trkpt>
      <trkpt lat="48.1067" lon="-3.53824">
        <ele>171.2</ele>
        <time>2025-02-25T13:55:38Z</time>
      </trkpt>
      <trkpt lat="48.10669" lon="-3.53824">
        <ele>171.2</ele>
        <time>2025-02-25T13:55:39Z</time>
      </trkpt>
      <trkpt lat="48.10668" lon="-3.53823">
        <ele>171.2</ele>
        <time>2025-02-25T13:55:40Z</time>
      </trkpt>
      <trkpt lat="48.10667" lon="-3.53823">
        <ele>171.2</ele>
        <time>2025-02-25T13:55:41Z</time>
      </trkpt>
      <trkpt lat="48.10666" lon="-3.53821">
        <ele>171.1</ele>
        <time>2025-02-25T13:55:42Z</time>
      </trkpt>
      <trkpt lat="48.10665" lon="-3.5382">
        <ele>171</ele>
        <time>2025-02-25T13:55:43Z</time>
      </trkpt>
      <trkpt lat="48.10664" lon="-3.5382">
        <ele>171</ele>
        <time>2025-02-25T13:55:44Z</time>
      </trkpt>
      <trkpt lat="48.10663" lon="-3.53819">
        <ele>171</ele>
        <time>2025-02-25T13:55:45Z</time>
      </trkpt>
      <trkpt lat="48.10662" lon="-3.53818">
        <ele>170.9</ele>
        <time>2025-02-25T13:55:46Z</time>
      </trkpt>
      <trkpt lat="48.10661" lon="-3.53817">
        <ele>170.8</ele>
        <time>2025-02-25T13:55:47Z</time>
      </trkpt>
      <trkpt lat="48.1066" lon="-3.53816">
        <ele>170.8</ele>
        <time>2025-02-25T13:55:48Z</time>
      </trkpt>
      <trkpt lat="48.10659" lon="-3.53815">
        <ele>170.7</ele>
        <time>2025-02-25T13:55:49Z</time>
      </trkpt>
      <trkpt lat="48.10658" lon="-3.53814">
        <ele>170.6</ele>
        <time>2025-02-25T13:55:50Z</time>
      </trkpt>
      <trkpt lat="48.10658" lon="-3.53813">
        <ele>170.5</ele>
        <time>2025-02-25T13:55:51Z</time>
      </trkpt>
      <trkpt lat="48.10657" lon="-3.53813">
        <ele>170.5</ele>
        <time>2025-02-25T13:55:52Z</time>
      </trkpt>
      <trkpt lat="48.10656" lon="-3.53812">
        <ele>170.5</ele>
        <time>2025-02-25T13:55:53Z</time>
      </trkpt>
      <trkpt lat="48.10656" lon="-3.53812">
        <ele>170.5</ele>
        <time>2025-02-25T13:55:54Z</time>
      </trkpt>
      <trkpt lat="48.10655" lon="-3.53811">
        <ele>170.4</ele>
        <time>2025-02-25T13:55:55Z</time>
      </trkpt>
      <trkpt lat="48.10654" lon="-3.5381">
        <ele>170.3</ele>
        <time>2025-02-25T13:55:56Z</time>
      </trkpt>
      <trkpt lat="48.10653" lon="-3.53809">
        <ele>170.2</ele>
        <time>2025-02-25T13:55:57Z</time>
      </trkpt>
      <trkpt lat="48.10653" lon="-3.53808">
        <ele>170.2</ele>
        <time>2025-02-25T13:55:58Z</time>
      </trkpt>
      <trkpt lat="48.10652" lon="-3.53807">
        <ele>170.1</ele>
        <time>2025-02-25T13:55:59Z</time>
      </trkpt>
      <trkpt lat="48.10651" lon="-3.53807">
        <ele>170.1</ele>
        <time>2025-02-25T13:56:00Z</time>
      </trkpt>
      <trkpt lat="48.1065" lon="-3.53805">
        <ele>169.9</ele>
        <time>2025-02-25T13:56:01Z</time>
      </trkpt>
      <trkpt lat="48.10649" lon="-3.53805">
        <ele>169.9</ele>
        <time>2025-02-25T13:56:02Z</time>
      </trkpt>
      <trkpt lat="48.10648" lon="-3.53804">
        <ele>169.7</ele>
        <time>2025-02-25T13:56:03Z</time>
      </trkpt>
      <trkpt lat="48.10647" lon="-3.53802">
        <ele>169.3</ele>
        <time>2025-02-25T13:56:04Z</time>
      </trkpt>
      <trkpt lat="48.10646" lon="-3.53801">
        <ele>169.1</ele>
        <time>2025-02-25T13:56:05Z</time>
      </trkpt>
      <trkpt lat="48.10645" lon="-3.538">
        <ele>168.9</ele>
        <time>2025-02-25T13:56:06Z</time>
      </trkpt>
      <trkpt lat="48.10645" lon="-3.53799">
        <ele>168.7</ele>
        <time>2025-02-25T13:56:07Z</time>
      </trkpt>
      <trkpt lat="48.10644" lon="-3.53798">
        <ele>168.5</ele>
        <time>2025-02-25T13:56:08Z</time>
      </trkpt>
      <trkpt lat="48.10643" lon="-3.53797">
        <ele>168.2</ele>
        <time>2025-02-25T13:56:09Z</time>
      </trkpt>
      <trkpt lat="48.10642" lon="-3.53796">
        <ele>168</ele>
        <time>2025-02-25T13:56:10Z</time>
      </trkpt>
      <trkpt lat="48.10641" lon="-3.53795">
        <ele>167.8</ele>
        <time>2025-02-25T13:56:11Z</time>
      </trkpt>
      <trkpt lat="48.1064" lon="-3.53795">
        <ele>167.8</ele>
        <time>2025-02-25T13:56:12Z</time>
      </trkpt>
      <trkpt lat="48.10639" lon="-3.53795">
        <ele>167.7</ele>
        <time>2025-02-25T13:56:13Z</time>
      </trkpt>
      <trkpt lat="48.10638" lon="-3.53794">
        <ele>167.4</ele>
        <time>2025-02-25T13:56:14Z</time>
      </trkpt>
      <trkpt lat="48.10638" lon="-3.53793">
        <ele>167.2</ele>
        <time>2025-02-25T13:56:15Z</time>
      </trkpt>
      <trkpt lat="48.10637" lon="-3.53792">
        <ele>166.9</ele>
        <time>2025-02-25T13:56:16Z</time>
      </trkpt>
      <trkpt lat="48.10637" lon="-3.53791">
        <ele>166.7</ele>
        <time>2025-02-25T13:56:17Z</time>
      </trkpt>
      <trkpt lat="48.10636" lon="-3.5379">
        <ele>166.4</ele>
        <time>2025-02-25T13:56:18Z</time>
      </trkpt>
      <trkpt lat="48.10635" lon="-3.5379">
        <ele>166.3</ele>
        <time>2025-02-25T13:56:19Z</time>
      </trkpt>
      <trkpt lat="48.10634" lon="-3.53789">
        <ele>166</ele>
        <time>2025-02-25T13:56:20Z</time>
      </trkpt>
      <trkpt lat="48.10633" lon="-3.53788">
        <ele>165.7</ele>
        <time>2025-02-25T13:56:21Z</time>
      </trkpt>
      <trkpt lat="48.10632" lon="-3.53786">
        <ele>165.2</ele>
        <time>2025-02-25T13:56:22Z</time>
      </trkpt>
      <trkpt lat="48.10631" lon="-3.53786">
        <ele>165.1</ele>
        <time>2025-02-25T13:56:23Z</time>
      </trkpt>
      <trkpt lat="48.1063" lon="-3.53785">
        <ele>164.8</ele>
        <time>2025-02-25T13:56:24Z</time>
      </trkpt>
      <trkpt lat="48.10629" lon="-3.53784">
        <ele>164.6</ele>
        <time>2025-02-25T13:56:25Z</time>
      </trkpt>
      <trkpt lat="48.10629" lon="-3.53782">
        <ele>164.1</ele>
        <time>2025-02-25T13:56:26Z</time>
      </trkpt>
      <trkpt lat="48.10628" lon="-3.53782">
        <ele>164.1</ele>
        <time>2025-02-25T13:56:27Z</time>
      </trkpt>
      <trkpt lat="48.10627" lon="-3.53781">
        <ele>163.8</ele>
        <time>2025-02-25T13:56:28Z</time>
      </trkpt>
      <trkpt lat="48.10626" lon="-3.53781">
        <ele>163.7</ele>
        <time>2025-02-25T13:56:29Z</time>
      </trkpt>
      <trkpt lat="48.10626" lon="-3.5378">
        <ele>163.5</ele>
        <time>2025-02-25T13:56:30Z</time>
      </trkpt>
      <trkpt lat="48.10625" lon="-3.53779">
        <ele>163.2</ele>
        <time>2025-02-25T13:56:31Z</time>
      </trkpt>
      <trkpt lat="48.10625" lon="-3.53777">
        <ele>162.9</ele>
        <time>2025-02-25T13:56:32Z</time>
      </trkpt>
      <trkpt lat="48.10624" lon="-3.53776">
        <ele>162.7</ele>
        <time>2025-02-25T13:56:33Z</time>
      </trkpt>
      <trkpt lat="48.10623" lon="-3.53776">
        <ele>162.7</ele>
        <time>2025-02-25T13:56:34Z</time>
      </trkpt>
      <trkpt lat="48.10622" lon="-3.53776">
        <ele>162.6</ele>
        <time>2025-02-25T13:56:35Z</time>
      </trkpt>
      <trkpt lat="48.10621" lon="-3.53775">
        <ele>162.4</ele>
        <time>2025-02-25T13:56:36Z</time>
      </trkpt>
      <trkpt lat="48.1062" lon="-3.53774">
        <ele>162.2</ele>
        <time>2025-02-25T13:56:37Z</time>
      </trkpt>
      <trkpt lat="48.10619" lon="-3.53774">
        <ele>162.1</ele>
        <time>2025-02-25T13:56:38Z</time>
      </trkpt>
      <trkpt lat="48.10618" lon="-3.53773">
        <ele>161.9</ele>
        <time>2025-02-25T13:56:39Z</time>
      </trkpt>
      <trkpt lat="48.10617" lon="-3.53772">
        <ele>161.7</ele>
        <time>2025-02-25T13:56:40Z</time>
      </trkpt>
      <trkpt lat="48.10616" lon="-3.53772">
        <ele>161.6</ele>
        <time>2025-02-25T13:56:41Z</time>
      </trkpt>
      <trkpt lat="48.10615" lon="-3.53771">
        <ele>161.4</ele>
        <time>2025-02-25T13:56:42Z</time>
      </trkpt>
      <trkpt lat="48.10614" lon="-3.53769">
        <ele>161</ele>
        <time>2025-02-25T13:56:43Z</time>
      </trkpt>
      <trkpt lat="48.10613" lon="-3.53768">
        <ele>160.8</ele>
        <time>2025-02-25T13:56:44Z</time>
      </trkpt>
      <trkpt lat="48.10613" lon="-3.53767">
        <ele>160.6</ele>
        <time>2025-02-25T13:56:45Z</time>
      </trkpt>
      <trkpt lat="48.10612" lon="-3.53766">
        <ele>160.4</ele>
        <time>2025-02-25T13:56:46Z</time>
      </trkpt>
      <trkpt lat="48.10611" lon="-3.53765">
        <ele>160.1</ele>
        <time>2025-02-25T13:56:47Z</time>
      </trkpt>
      <trkpt lat="48.1061" lon="-3.53764">
        <ele>159.8</ele>
        <time>2025-02-25T13:56:48Z</time>
      </trkpt>
      <trkpt lat="48.10609" lon="-3.53763">
        <ele>159.5</ele>
        <time>2025-02-25T13:56:49Z</time>
      </trkpt>
      <trkpt lat="48.10609" lon="-3.53762">
        <ele>159.4</ele>
        <time>2025-02-25T13:56:50Z</time>
      </trkpt>
      <trkpt lat="48.10608" lon="-3.5376">
        <ele>158.9</ele>
        <time>2025-02-25T13:56:51Z</time>
      </trkpt>
      <trkpt lat="48.10606" lon="-3.53759">
        <ele>158.4</ele>
        <time>2025-02-25T13:56:52Z</time>
      </trkpt>
      <trkpt lat="48.10605" lon="-3.53758">
        <ele>158.1</ele>
        <time>2025-02-25T13:56:53Z</time>
      </trkpt>
      <trkpt lat="48.10604" lon="-3.53758">
        <ele>157.9</ele>
        <time>2025-02-25T13:56:54Z</time>
      </trkpt>
      <trkpt lat="48.10603" lon="-3.53757">
        <ele>157.6</ele>
        <time>2025-02-25T13:56:55Z</time>
      </trkpt>
      <trkpt lat="48.10602" lon="-3.53756">
        <ele>157.3</ele>
        <time>2025-02-25T13:56:56Z</time>
      </trkpt>
      <trkpt lat="48.10602" lon="-3.53755">
        <ele>157.1</ele>
        <time>2025-02-25T13:56:57Z</time>
      </trkpt>
      <trkpt lat="48.10602" lon="-3.53754">
        <ele>157</ele>
        <time>2025-02-25T13:56:58Z</time>
      </trkpt>
      <trkpt lat="48.10601" lon="-3.53752">
        <ele>156.5</ele>
        <time>2025-02-25T13:56:59Z</time>
      </trkpt>
      <trkpt lat="48.10601" lon="-3.53752">
        <ele>156.5</ele>
        <time>2025-02-25T13:57:00Z</time>
      </trkpt>
      <trkpt lat="48.106" lon="-3.53753">
        <ele>156.5</ele>
        <time>2025-02-25T13:57:01Z</time>
      </trkpt>
      <trkpt lat="48.106" lon="-3.53753">
        <ele>156.5</ele>
        <time>2025-02-25T13:57:02Z</time>
      </trkpt>
      <trkpt lat="48.10599" lon="-3.53752">
        <ele>156.1</ele>
        <time>2025-02-25T13:57:03Z</time>
      </trkpt>
      <trkpt lat="48.10598" lon="-3.53752">
        <ele>156</ele>
        <time>2025-02-25T13:57:04Z</time>
      </trkpt>
      <trkpt lat="48.10598" lon="-3.53752">
        <ele>156</ele>
        <time>2025-02-25T13:57:05Z</time>
      </trkpt>
      <trkpt lat="48.10597" lon="-3.53751">
        <ele>155.6</ele>
        <time>2025-02-25T13:57:06Z</time>
      </trkpt>
      <trkpt lat="48.10597" lon="-3.5375">
        <ele>155.5</ele>
        <time>2025-02-25T13:57:07Z</time>
      </trkpt>
      <trkpt lat="48.10596" lon="-3.53749">
        <ele>155.3</ele>
        <time>2025-02-25T13:57:08Z</time>
      </trkpt>
      <trkpt lat="48.10595" lon="-3.53749">
        <ele>155.1</ele>
        <time>2025-02-25T13:57:09Z</time>
      </trkpt>
      <trkpt lat="48.10594" lon="-3.53748">
        <ele>154.9</ele>
        <time>2025-02-25T13:57:10Z</time>
      </trkpt>
      <trkpt lat="48.10593" lon="-3.53748">
        <ele>154.7</ele>
        <time>2025-02-25T13:57:11Z</time>
      </trkpt>
      <trkpt lat="48.10593" lon="-3.53749">
        <ele>154.7</ele>
        <time>2025-02-25T13:57:12Z</time>
      </trkpt>
      <trkpt lat="48.10594" lon="-3.53748">
        <ele>154.9</ele>
        <time>2025-02-25T13:57:13Z</time>
      </trkpt>
      <trkpt lat="48.10593" lon="-3.53746">
        <ele>154.7</ele>
        <time>2025-02-25T13:57:14Z</time>
      </trkpt>
      <trkpt lat="48.10592" lon="-3.53746">
        <ele>154.5</ele>
        <time>2025-02-25T13:57:15Z</time>
      </trkpt>
      <trkpt lat="48.10592" lon="-3.53745">
        <ele>154.5</ele>
        <time>2025-02-25T13:57:16Z</time>
      </trkpt>
      <trkpt lat="48.10591" lon="-3.53745">
        <ele>154.3</ele>
        <time>2025-02-25T13:57:17Z</time>
      </trkpt>
      <trkpt lat="48.10591" lon="-3.53744">
        <ele>154.3</ele>
        <time>2025-02-25T13:57:18Z</time>
      </trkpt>
      <trkpt lat="48.10591" lon="-3.53744">
        <ele>154.3</ele>
        <time>2025-02-25T13:57:19Z</time>
      </trkpt>
      <trkpt lat="48.1059" lon="-3.53744">
        <ele>154.1</ele>
        <time>2025-02-25T13:57:20Z</time>
      </trkpt>
      <trkpt lat="48.1059" lon="-3.53742">
        <ele>154.1</ele>
        <time>2025-02-25T13:57:21Z</time>
      </trkpt>
      <trkpt lat="48.10589" lon="-3.53741">
        <ele>154</ele>
        <time>2025-02-25T13:57:22Z</time>
      </trkpt>
      <trkpt lat="48.10589" lon="-3.5374">
        <ele>153.9</ele>
        <time>2025-02-25T13:57:23Z</time>
      </trkpt>
      <trkpt lat="48.10588" lon="-3.53739">
        <ele>153.8</ele>
        <time>2025-02-25T13:57:24Z</time>
      </trkpt>
      <trkpt lat="48.10588" lon="-3.53738">
        <ele>153.8</ele>
        <time>2025-02-25T13:57:25Z</time>
      </trkpt>
      <trkpt lat="48.10588" lon="-3.53737">
        <ele>153.8</ele>
        <time>2025-02-25T13:57:26Z</time>
      </trkpt>
      <trkpt lat="48.10587" lon="-3.53735">
        <ele>153.6</ele>
        <time>2025-02-25T13:57:27Z</time>
      </trkpt>
      <trkpt lat="48.10587" lon="-3.53734">
        <ele>153.6</ele>
        <time>2025-02-25T13:57:28Z</time>
      </trkpt>
      <trkpt lat="48.10586" lon="-3.53734">
        <ele>153.4</ele>
        <time>2025-02-25T13:57:29Z</time>
      </trkpt>
      <trkpt lat="48.10585" lon="-3.53733">
        <ele>153.3</ele>
        <time>2025-02-25T13:57:30Z</time>
      </trkpt>
      <trkpt lat="48.10585" lon="-3.53732">
        <ele>153.3</ele>
        <time>2025-02-25T13:57:31Z</time>
      </trkpt>
      <trkpt lat="48.10584" lon="-3.53731">
        <ele>153.1</ele>
        <time>2025-02-25T13:57:32Z</time>
      </trkpt>
      <trkpt lat="48.10584" lon="-3.5373">
        <ele>153.1</ele>
        <time>2025-02-25T13:57:33Z</time>
      </trkpt>
      <trkpt lat="48.10584" lon="-3.53729">
        <ele>153.1</ele>
        <time>2025-02-25T13:57:34Z</time>
      </trkpt>
      <trkpt lat="48.10584" lon="-3.53728">
        <ele>153.1</ele>
        <time>2025-02-25T13:57:35Z</time>
      </trkpt>
      <trkpt lat="48.10584" lon="-3.53727">
        <ele>153.1</ele>
        <time>2025-02-25T13:57:36Z</time>
      </trkpt>
      <trkpt lat="48.10583" lon="-3.53726">
        <ele>153</ele>
        <time>2025-02-25T13:57:37Z</time>
      </trkpt>
      <trkpt lat="48.10583" lon="-3.53725">
        <ele>153</ele>
        <time>2025-02-25T13:57:38Z</time>
      </trkpt>
      <trkpt lat="48.10582" lon="-3.53725">
        <ele>152.8</ele>
        <time>2025-02-25T13:57:39Z</time>
      </trkpt>
      <trkpt lat="48.10581" lon="-3.53725">
        <ele>152.7</ele>
        <time>2025-02-25T13:57:40Z</time>
      </trkpt>
      <trkpt lat="48.1058" lon="-3.53725">
        <ele>152.5</ele>
        <time>2025-02-25T13:57:41Z</time>
      </trkpt>
      <trkpt lat="48.10579" lon="-3.53725">
        <ele>152.4</ele>
        <time>2025-02-25T13:57:42Z</time>
      </trkpt>
      <trkpt lat="48.10578" lon="-3.53724">
        <ele>152.2</ele>
        <time>2025-02-25T13:57:43Z</time>
      </trkpt>
      <trkpt lat="48.10578" lon="-3.53723">
        <ele>152.2</ele>
        <time>2025-02-25T13:57:44Z</time>
      </trkpt>
      <trkpt lat="48.10578" lon="-3.53722">
        <ele>152.2</ele>
        <time>2025-02-25T13:57:45Z</time>
      </trkpt>
      <trkpt lat="48.10577" lon="-3.53722">
        <ele>152.1</ele>
        <time>2025-02-25T13:57:46Z</time>
      </trkpt>
      <trkpt lat="48.10577" lon="-3.53721">
        <ele>152.2</ele>
        <time>2025-02-25T13:57:47Z</time>
      </trkpt>
      <trkpt lat="48.10576" lon="-3.53721">
        <ele>152</ele>
        <time>2025-02-25T13:57:48Z</time>
      </trkpt>
      <trkpt lat="48.10575" lon="-3.53721">
        <ele>151.9</ele>
        <time>2025-02-25T13:57:49Z</time>
      </trkpt>
      <trkpt lat="48.10576" lon="-3.53721">
        <ele>152</ele>
        <time>2025-02-25T13:57:50Z</time>
      </trkpt>
      <trkpt lat="48.10575" lon="-3.53722">
        <ele>151.8</ele>
        <time>2025-02-25T13:57:51Z</time>
      </trkpt>
      <trkpt lat="48.10575" lon="-3.53721">
        <ele>151.9</ele>
        <time>2025-02-25T13:57:52Z</time>
      </trkpt>
      <trkpt lat="48.10575" lon="-3.53721">
        <ele>151.9</ele>
        <time>2025-02-25T13:57:53Z</time>
      </trkpt>
      <trkpt lat="48.10574" lon="-3.5372">
        <ele>151.8</ele>
        <time>2025-02-25T13:57:54Z</time>
      </trkpt>
      <trkpt lat="48.10574" lon="-3.53719">
        <ele>151.9</ele>
        <time>2025-02-25T13:57:55Z</time>
      </trkpt>
      <trkpt lat="48.10574" lon="-3.53718">
        <ele>152</ele>
        <time>2025-02-25T13:57:56Z</time>
      </trkpt>
      <trkpt lat="48.10573" lon="-3.53719">
        <ele>151.7</ele>
        <time>2025-02-25T13:57:57Z</time>
      </trkpt>
      <trkpt lat="48.10571" lon="-3.53718">
        <ele>151.5</ele>
        <time>2025-02-25T13:57:58Z</time>
      </trkpt>
      <trkpt lat="48.10571" lon="-3.53717">
        <ele>151.6</ele>
        <time>2025-02-25T13:57:59Z</time>
      </trkpt>
      <trkpt lat="48.10571" lon="-3.53717">
        <ele>151.6</ele>
        <time>2025-02-25T13:58:00Z</time>
      </trkpt>
      <trkpt lat="48.1057" lon="-3.53716">
        <ele>151.5</ele>
        <time>2025-02-25T13:58:01Z</time>
      </trkpt>
      <trkpt lat="48.10569" lon="-3.53716">
        <ele>151.4</ele>
        <time>2025-02-25T13:58:02Z</time>
      </trkpt>
      <trkpt lat="48.10568" lon="-3.53716">
        <ele>151.2</ele>
        <time>2025-02-25T13:58:03Z</time>
      </trkpt>
      <trkpt lat="48.10568" lon="-3.53716">
        <ele>151.2</ele>
        <time>2025-02-25T13:58:04Z</time>
      </trkpt>
      <trkpt lat="48.10567" lon="-3.53716">
        <ele>151.1</ele>
        <time>2025-02-25T13:58:05Z</time>
      </trkpt>
      <trkpt lat="48.10566" lon="-3.53715">
        <ele>151</ele>
        <time>2025-02-25T13:58:06Z</time>
      </trkpt>
      <trkpt lat="48.10565" lon="-3.53714">
        <ele>151</ele>
        <time>2025-02-25T13:58:07Z</time>
      </trkpt>
      <trkpt lat="48.10564" lon="-3.53713">
        <ele>150.9</ele>
        <time>2025-02-25T13:58:08Z</time>
      </trkpt>
      <trkpt lat="48.10563" lon="-3.53712">
        <ele>150.8</ele>
        <time>2025-02-25T13:58:09Z</time>
      </trkpt>
      <trkpt lat="48.10562" lon="-3.53712">
        <ele>150.7</ele>
        <time>2025-02-25T13:58:10Z</time>
      </trkpt>
      <trkpt lat="48.10562" lon="-3.53711">
        <ele>150.7</ele>
        <time>2025-02-25T13:58:11Z</time>
      </trkpt>
      <trkpt lat="48.10561" lon="-3.5371">
        <ele>150.7</ele>
        <time>2025-02-25T13:58:12Z</time>
      </trkpt>
      <trkpt lat="48.1056" lon="-3.5371">
        <ele>150.5</ele>
        <time>2025-02-25T13:58:13Z</time>
      </trkpt>
      <trkpt lat="48.1056" lon="-3.5371">
        <ele>150.5</ele>
        <time>2025-02-25T13:58:14Z</time>
      </trkpt>
      <trkpt lat="48.1056" lon="-3.5371">
        <ele>150.5</ele>
        <time>2025-02-25T13:58:15Z</time>
      </trkpt>
      <trkpt lat="48.10559" lon="-3.53709">
        <ele>150.4</ele>
        <time>2025-02-25T13:58:16Z</time>
      </trkpt>
      <trkpt lat="48.10558" lon="-3.53709">
        <ele>150.3</ele>
        <time>2025-02-25T13:58:17Z</time>
      </trkpt>
      <trkpt lat="48.10558" lon="-3.53709">
        <ele>150.3</ele>
        <time>2025-02-25T13:58:18Z</time>
      </trkpt>
      <trkpt lat="48.10557" lon="-3.5371">
        <ele>150.1</ele>
        <time>2025-02-25T13:58:19Z</time>
      </trkpt>
      <trkpt lat="48.10556" lon="-3.53709">
        <ele>150</ele>
        <time>2025-02-25T13:58:20Z</time>
      </trkpt>
      <trkpt lat="48.10555" lon="-3.5371">
        <ele>149.8</ele>
        <time>2025-02-25T13:58:21Z</time>
      </trkpt>
      <trkpt lat="48.10554" lon="-3.5371">
        <ele>149.8</ele>
        <time>2025-02-25T13:58:22Z</time>
      </trkpt>
      <trkpt lat="48.10553" lon="-3.5371">
        <ele>149.7</ele>
        <time>2025-02-25T13:58:23Z</time>
      </trkpt>
      <trkpt lat="48.10553" lon="-3.5371">
        <ele>149.7</ele>
        <time>2025-02-25T13:58:24Z</time>
      </trkpt>
      <trkpt lat="48.10552" lon="-3.5371">
        <ele>149.6</ele>
        <time>2025-02-25T13:58:25Z</time>
      </trkpt>
      <trkpt lat="48.10551" lon="-3.5371">
        <ele>149.6</ele>
        <time>2025-02-25T13:58:26Z</time>
      </trkpt>
      <trkpt lat="48.1055" lon="-3.53711">
        <ele>149.4</ele>
        <time>2025-02-25T13:58:27Z</time>
      </trkpt>
      <trkpt lat="48.10549" lon="-3.53711">
        <ele>149.3</ele>
        <time>2025-02-25T13:58:28Z</time>
      </trkpt>
      <trkpt lat="48.10547" lon="-3.53711">
        <ele>149.2</ele>
        <time>2025-02-25T13:58:29Z</time>
      </trkpt>
      <trkpt lat="48.10546" lon="-3.53711">
        <ele>149.1</ele>
        <time>2025-02-25T13:58:30Z</time>
      </trkpt>
      <trkpt lat="48.10545" lon="-3.53712">
        <ele>149</ele>
        <time>2025-02-25T13:58:31Z</time>
      </trkpt>
      <trkpt lat="48.10544" lon="-3.53713">
        <ele>148.8</ele>
        <time>2025-02-25T13:58:32Z</time>
      </trkpt>
      <trkpt lat="48.10543" lon="-3.53714">
        <ele>148.7</ele>
        <time>2025-02-25T13:58:33Z</time>
      </trkpt>
      <trkpt lat="48.10542" lon="-3.53714">
        <ele>148.6</ele>
        <time>2025-02-25T13:58:34Z</time>
      </trkpt>
      <trkpt lat="48.10541" lon="-3.53714">
        <ele>148.5</ele>
        <time>2025-02-25T13:58:35Z</time>
      </trkpt>
      <trkpt lat="48.1054" lon="-3.53715">
        <ele>148.4</ele>
        <time>2025-02-25T13:58:36Z</time>
      </trkpt>
      <trkpt lat="48.10539" lon="-3.53715">
        <ele>148.3</ele>
        <time>2025-02-25T13:58:37Z</time>
      </trkpt>
      <trkpt lat="48.10538" lon="-3.53715">
        <ele>148.3</ele>
        <time>2025-02-25T13:58:38Z</time>
      </trkpt>
      <trkpt lat="48.10537" lon="-3.53715">
        <ele>148.2</ele>
        <time>2025-02-25T13:58:39Z</time>
      </trkpt>
      <trkpt lat="48.10536" lon="-3.53716">
        <ele>148</ele>
        <time>2025-02-25T13:58:40Z</time>
      </trkpt>
      <trkpt lat="48.10535" lon="-3.53716">
        <ele>148</ele>
        <time>2025-02-25T13:58:41Z</time>
      </trkpt>
      <trkpt lat="48.10534" lon="-3.53716">
        <ele>147.9</ele>
        <time>2025-02-25T13:58:42Z</time>
      </trkpt>
      <trkpt lat="48.10534" lon="-3.53716">
        <ele>147.9</ele>
        <time>2025-02-25T13:58:43Z</time>
      </trkpt>
      <trkpt lat="48.10533" lon="-3.53716">
        <ele>147.8</ele>
        <time>2025-02-25T13:58:44Z</time>
      </trkpt>
      <trkpt lat="48.10532" lon="-3.53717">
        <ele>147.7</ele>
        <time>2025-02-25T13:58:45Z</time>
      </trkpt>
      <trkpt lat="48.10531" lon="-3.53717">
        <ele>147.6</ele>
        <time>2025-02-25T13:58:46Z</time>
      </trkpt>
      <trkpt lat="48.1053" lon="-3.53717">
        <ele>147.5</ele>
        <time>2025-02-25T13:58:47Z</time>
      </trkpt>
      <trkpt lat="48.10529" lon="-3.53717">
        <ele>147.5</ele>
        <time>2025-02-25T13:58:48Z</time>
      </trkpt>
      <trkpt lat="48.10528" lon="-3.53718">
        <ele>147.3</ele>
        <time>2025-02-25T13:58:49Z</time>
      </trkpt>
      <trkpt lat="48.10527" lon="-3.53718">
        <ele>147.2</ele>
        <time>2025-02-25T13:58:50Z</time>
      </trkpt>
      <trkpt lat="48.10526" lon="-3.53718">
        <ele>147.2</ele>
        <time>2025-02-25T13:58:51Z</time>
      </trkpt>
      <trkpt lat="48.10525" lon="-3.53719">
        <ele>147</ele>
        <time>2025-02-25T13:58:52Z</time>
      </trkpt>
      <trkpt lat="48.10524" lon="-3.53719">
        <ele>147</ele>
        <time>2025-02-25T13:58:53Z</time>
      </trkpt>
      <trkpt lat="48.10523" lon="-3.53719">
        <ele>146.9</ele>
        <time>2025-02-25T13:58:54Z</time>
      </trkpt>
      <trkpt lat="48.10523" lon="-3.5372">
        <ele>146.8</ele>
        <time>2025-02-25T13:58:55Z</time>
      </trkpt>
      <trkpt lat="48.10522" lon="-3.53719">
        <ele>146.8</ele>
        <time>2025-02-25T13:58:56Z</time>
      </trkpt>
      <trkpt lat="48.10521" lon="-3.5372">
        <ele>146.7</ele>
        <time>2025-02-25T13:58:57Z</time>
      </trkpt>
      <trkpt lat="48.1052" lon="-3.5372">
        <ele>146.6</ele>
        <time>2025-02-25T13:58:58Z</time>
      </trkpt>
      <trkpt lat="48.10519" lon="-3.53721">
        <ele>146.5</ele>
        <time>2025-02-25T13:58:59Z</time>
      </trkpt>
      <trkpt lat="48.10518" lon="-3.53722">
        <ele>146.3</ele>
        <time>2025-02-25T13:59:00Z</time>
      </trkpt>
      <trkpt lat="48.10517" lon="-3.53722">
        <ele>146.2</ele>
        <time>2025-02-25T13:59:01Z</time>
      </trkpt>
      <trkpt lat="48.10516" lon="-3.53722">
        <ele>146.2</ele>
        <time>2025-02-25T13:59:02Z</time>
      </trkpt>
      <trkpt lat="48.10515" lon="-3.53722">
        <ele>146.1</ele>
        <time>2025-02-25T13:59:03Z</time>
      </trkpt>
      <trkpt lat="48.10513" lon="-3.53722">
        <ele>146</ele>
        <time>2025-02-25T13:59:04Z</time>
      </trkpt>
      <trkpt lat="48.10512" lon="-3.53722">
        <ele>145.9</ele>
        <time>2025-02-25T13:59:05Z</time>
      </trkpt>
      <trkpt lat="48.10512" lon="-3.53724">
        <ele>145.8</ele>
        <time>2025-02-25T13:59:06Z</time>
      </trkpt>
      <trkpt lat="48.10511" lon="-3.53724">
        <ele>145.7</ele>
        <time>2025-02-25T13:59:07Z</time>
      </trkpt>
      <trkpt lat="48.1051" lon="-3.53725">
        <ele>145.6</ele>
        <time>2025-02-25T13:59:08Z</time>
      </trkpt>
      <trkpt lat="48.10509" lon="-3.53725">
        <ele>145.5</ele>
        <time>2025-02-25T13:59:09Z</time>
      </trkpt>
      <trkpt lat="48.10508" lon="-3.53725">
        <ele>145.5</ele>
        <time>2025-02-25T13:59:10Z</time>
      </trkpt>
      <trkpt lat="48.10506" lon="-3.53724">
        <ele>145.4</ele>
        <time>2025-02-25T13:59:11Z</time>
      </trkpt>
      <trkpt lat="48.10505" lon="-3.53725">
        <ele>145.3</ele>
        <time>2025-02-25T13:59:12Z</time>
      </trkpt>
      <trkpt lat="48.10504" lon="-3.53724">
        <ele>145.2</ele>
        <time>2025-02-25T13:59:13Z</time>
      </trkpt>
      <trkpt lat="48.10503" lon="-3.53723">
        <ele>145.2</ele>
        <time>2025-02-25T13:59:14Z</time>
      </trkpt>
      <trkpt lat="48.10502" lon="-3.53723">
        <ele>145.1</ele>
        <time>2025-02-25T13:59:15Z</time>
      </trkpt>
      <trkpt lat="48.10502" lon="-3.53723">
        <ele>145.1</ele>
        <time>2025-02-25T13:59:16Z</time>
      </trkpt>
      <trkpt lat="48.10501" lon="-3.53723">
        <ele>145</ele>
        <time>2025-02-25T13:59:17Z</time>
      </trkpt>
      <trkpt lat="48.105" lon="-3.53724">
        <ele>144.9</ele>
        <time>2025-02-25T13:59:18Z</time>
      </trkpt>
      <trkpt lat="48.105" lon="-3.53724">
        <ele>144.9</ele>
        <time>2025-02-25T13:59:19Z</time>
      </trkpt>
      <trkpt lat="48.10499" lon="-3.53725">
        <ele>144.8</ele>
        <time>2025-02-25T13:59:20Z</time>
      </trkpt>
      <trkpt lat="48.10499" lon="-3.53725">
        <ele>144.8</ele>
        <time>2025-02-25T13:59:21Z</time>
      </trkpt>
      <trkpt lat="48.10498" lon="-3.53725">
        <ele>144.7</ele>
        <time>2025-02-25T13:59:22Z</time>
      </trkpt>
      <trkpt lat="48.10497" lon="-3.53726">
        <ele>144.6</ele>
        <time>2025-02-25T13:59:23Z</time>
      </trkpt>
      <trkpt lat="48.10497" lon="-3.53726">
        <ele>144.6</ele>
        <time>2025-02-25T13:59:24Z</time>
      </trkpt>
      <trkpt lat="48.10496" lon="-3.53726">
        <ele>144.6</ele>
        <time>2025-02-25T13:59:25Z</time>
      </trkpt>
      <trkpt lat="48.10496" lon="-3.53727">
        <ele>144.5</ele>
        <time>2025-02-25T13:59:26Z</time>
      </trkpt>
      <trkpt lat="48.10496" lon="-3.53727">
        <ele>144.5</ele>
        <time>2025-02-25T13:59:27Z</time>
      </trkpt>
      <trkpt lat="48.10496" lon="-3.53726">
        <ele>144.6</ele>
        <time>2025-02-25T13:59:28Z</time>
      </trkpt>
      <trkpt lat="48.10496" lon="-3.53727">
        <ele>144.5</ele>
        <time>2025-02-25T13:59:29Z</time>
      </trkpt>
      <trkpt lat="48.10496" lon="-3.53727">
        <ele>144.5</ele>
        <time>2025-02-25T13:59:30Z</time>
      </trkpt>
      <trkpt lat="48.10496" lon="-3.53728">
        <ele>144.5</ele>
        <time>2025-02-25T13:59:31Z</time>
      </trkpt>
      <trkpt lat="48.10496" lon="-3.53728">
        <ele>144.5</ele>
        <time>2025-02-25T13:59:32Z</time>
      </trkpt>
      <trkpt lat="48.10496" lon="-3.53728">
        <ele>144.5</ele>
        <time>2025-02-25T13:59:33Z</time>
      </trkpt>
      <trkpt lat="48.10496" lon="-3.53728">
        <ele>144.5</ele>
        <time>2025-02-25T13:59:34Z</time>
      </trkpt>
      <trkpt lat="48.10496" lon="-3.53728">
        <ele>144.5</ele>
        <time>2025-02-25T13:59:35Z</time>
      </trkpt>
      <trkpt lat="48.10496" lon="-3.53728">
        <ele>144.5</ele>
        <time>2025-02-25T13:59:36Z</time>
      </trkpt>
      <trkpt lat="48.10496" lon="-3.53728">
        <ele>144.5</ele>
        <time>2025-02-25T13:59:37Z</time>
      </trkpt>
      <trkpt lat="48.10496" lon="-3.53728">
        <ele>144.5</ele>
        <time>2025-02-25T13:59:38Z</time>
      </trkpt>
      <trkpt lat="48.10496" lon="-3.53728">
        <ele>144.5</ele>
        <time>2025-02-25T13:59:39Z</time>
      </trkpt>
      <trkpt lat="48.10496" lon="-3.53728">
        <ele>144.5</ele>
        <time>2025-02-25T13:59:40Z</time>
      </trkpt>
      <trkpt lat="48.10496" lon="-3.53728">
        <ele>144.5</ele>
        <time>2025-02-25T13:59:41Z</time>
      </trkpt>
      <trkpt lat="48.10496" lon="-3.53728">
        <ele>144.5</ele>
        <time>2025-02-25T13:59:42Z</time>
      </trkpt>
      <trkpt lat="48.10495" lon="-3.53728">
        <ele>144.4</ele>
        <time>2025-02-25T13:59:43Z</time>
      </trkpt>
      <trkpt lat="48.10495" lon="-3.53728">
        <ele>144.4</ele>
        <time>2025-02-25T13:59:44Z</time>
      </trkpt>
      <trkpt lat="48.10495" lon="-3.53729">
        <ele>144.4</ele>
        <time>2025-02-25T13:59:45Z</time>
      </trkpt>
      <trkpt lat="48.10495" lon="-3.5373">
        <ele>144.3</ele>
        <time>2025-02-25T13:59:46Z</time>
      </trkpt>
      <trkpt lat="48.10494" lon="-3.5373">
        <ele>144.2</ele>
        <time>2025-02-25T13:59:47Z</time>
      </trkpt>
      <trkpt lat="48.10493" lon="-3.53732">
        <ele>144.1</ele>
        <time>2025-02-25T13:59:48Z</time>
      </trkpt>
      <trkpt lat="48.10492" lon="-3.53732">
        <ele>144</ele>
        <time>2025-02-25T13:59:49Z</time>
      </trkpt>
      <trkpt lat="48.10491" lon="-3.53732">
        <ele>143.9</ele>
        <time>2025-02-25T13:59:50Z</time>
      </trkpt>
      <trkpt lat="48.1049" lon="-3.53732">
        <ele>143.8</ele>
        <time>2025-02-25T13:59:51Z</time>
      </trkpt>
      <trkpt lat="48.1049" lon="-3.53732">
        <ele>143.8</ele>
        <time>2025-02-25T13:59:52Z</time>
      </trkpt>
      <trkpt lat="48.10489" lon="-3.53731">
        <ele>143.8</ele>
        <time>2025-02-25T13:59:53Z</time>
      </trkpt>
      <trkpt lat="48.10489" lon="-3.53731">
        <ele>143.8</ele>
        <time>2025-02-25T13:59:54Z</time>
      </trkpt>
      <trkpt lat="48.10488" lon="-3.53732">
        <ele>143.6</ele>
        <time>2025-02-25T13:59:55Z</time>
      </trkpt>
      <trkpt lat="48.10487" lon="-3.53733">
        <ele>143.5</ele>
        <time>2025-02-25T13:59:56Z</time>
      </trkpt>
      <trkpt lat="48.10487" lon="-3.53733">
        <ele>143.5</ele>
        <time>2025-02-25T13:59:57Z</time>
      </trkpt>
      <trkpt lat="48.10486" lon="-3.53734">
        <ele>143.4</ele>
        <time>2025-02-25T13:59:58Z</time>
      </trkpt>
      <trkpt lat="48.10485" lon="-3.53734">
        <ele>143.3</ele>
        <time>2025-02-25T13:59:59Z</time>
      </trkpt>
      <trkpt lat="48.10484" lon="-3.53734">
        <ele>143.2</ele>
        <time>2025-02-25T14:00:00Z</time>
      </trkpt>
      <trkpt lat="48.10483" lon="-3.53732">
        <ele>143.2</ele>
        <time>2025-02-25T14:00:01Z</time>
      </trkpt>
      <trkpt lat="48.10483" lon="-3.5373">
        <ele>143.3</ele>
        <time>2025-02-25T14:00:02Z</time>
      </trkpt>
      <trkpt lat="48.10483" lon="-3.53728">
        <ele>143.4</ele>
        <time>2025-02-25T14:00:03Z</time>
      </trkpt>
      <trkpt lat="48.10482" lon="-3.53728">
        <ele>143.4</ele>
        <time>2025-02-25T14:00:04Z</time>
      </trkpt>
      <trkpt lat="48.10484" lon="-3.5373">
        <ele>143.4</ele>
        <time>2025-02-25T14:00:05Z</time>
      </trkpt>
      <trkpt lat="48.10484" lon="-3.53731">
        <ele>143.3</ele>
        <time>2025-02-25T14:00:06Z</time>
      </trkpt>
      <trkpt lat="48.10484" lon="-3.53731">
        <ele>143.3</ele>
        <time>2025-02-25T14:00:07Z</time>
      </trkpt>
      <trkpt lat="48.10484" lon="-3.53731">
        <ele>143.3</ele>
        <time>2025-02-25T14:00:08Z</time>
      </trkpt>
      <trkpt lat="48.10484" lon="-3.53731">
        <ele>143.3</ele>
        <time>2025-02-25T14:00:09Z</time>
      </trkpt>
      <trkpt lat="48.10484" lon="-3.53731">
        <ele>143.3</ele>
        <time>2025-02-25T14:00:10Z</time>
      </trkpt>
      <trkpt lat="48.10484" lon="-3.53732">
        <ele>143.3</ele>
        <time>2025-02-25T14:00:11Z</time>
      </trkpt>
      <trkpt lat="48.10483" lon="-3.53733">
        <ele>143.2</ele>
        <time>2025-02-25T14:00:12Z</time>
      </trkpt>
      <trkpt lat="48.10482" lon="-3.53733">
        <ele>143.1</ele>
        <time>2025-02-25T14:00:13Z</time>
      </trkpt>
      <trkpt lat="48.10482" lon="-3.53733">
        <ele>143.1</ele>
        <time>2025-02-25T14:00:14Z</time>
      </trkpt>
      <trkpt lat="48.10481" lon="-3.53732">
        <ele>143</ele>
        <time>2025-02-25T14:00:15Z</time>
      </trkpt>
      <trkpt lat="48.10481" lon="-3.53732">
        <ele>143</ele>
        <time>2025-02-25T14:00:16Z</time>
      </trkpt>
      <trkpt lat="48.10481" lon="-3.53732">
        <ele>143</ele>
        <time>2025-02-25T14:00:17Z</time>
      </trkpt>
      <trkpt lat="48.10481" lon="-3.53733">
        <ele>143</ele>
        <time>2025-02-25T14:00:18Z</time>
      </trkpt>
      <trkpt lat="48.1048" lon="-3.53733">
        <ele>142.9</ele>
        <time>2025-02-25T14:00:19Z</time>
      </trkpt>
      <trkpt lat="48.1048" lon="-3.53734">
        <ele>142.8</ele>
        <time>2025-02-25T14:00:20Z</time>
      </trkpt>
      <trkpt lat="48.1048" lon="-3.53734">
        <ele>142.8</ele>
        <time>2025-02-25T14:00:21Z</time>
      </trkpt>
      <trkpt lat="48.10479" lon="-3.53736">
        <ele>142.6</ele>
        <time>2025-02-25T14:00:22Z</time>
      </trkpt>
      <trkpt lat="48.10478" lon="-3.53736">
        <ele>142.5</ele>
        <time>2025-02-25T14:00:23Z</time>
      </trkpt>
      <trkpt lat="48.10478" lon="-3.53736">
        <ele>142.5</ele>
        <time>2025-02-25T14:00:24Z</time>
      </trkpt>
      <trkpt lat="48.10478" lon="-3.53736">
        <ele>142.5</ele>
        <time>2025-02-25T14:00:25Z</time>
      </trkpt>
      <trkpt lat="48.10478" lon="-3.53736">
        <ele>142.5</ele>
        <time>2025-02-25T14:00:26Z</time>
      </trkpt>
      <trkpt lat="48.10477" lon="-3.53736">
        <ele>142.4</ele>
        <time>2025-02-25T14:00:27Z</time>
      </trkpt>
      <trkpt lat="48.10477" lon="-3.53736">
        <ele>142.4</ele>
        <time>2025-02-25T14:00:28Z</time>
      </trkpt>
      <trkpt lat="48.10476" lon="-3.53735">
        <ele>142.4</ele>
        <time>2025-02-25T14:00:29Z</time>
      </trkpt>
      <trkpt lat="48.10476" lon="-3.53734">
        <ele>142.5</ele>
        <time>2025-02-25T14:00:30Z</time>
      </trkpt>
      <trkpt lat="48.10475" lon="-3.53734">
        <ele>142.4</ele>
        <time>2025-02-25T14:00:31Z</time>
      </trkpt>
      <trkpt lat="48.10474" lon="-3.53734">
        <ele>142.3</ele>
        <time>2025-02-25T14:00:32Z</time>
      </trkpt>
      <trkpt lat="48.10474" lon="-3.53735">
        <ele>142.2</ele>
        <time>2025-02-25T14:00:33Z</time>
      </trkpt>
      <trkpt lat="48.10473" lon="-3.53736">
        <ele>142.1</ele>
        <time>2025-02-25T14:00:34Z</time>
      </trkpt>
      <trkpt lat="48.10473" lon="-3.53737">
        <ele>142</ele>
        <time>2025-02-25T14:00:35Z</time>
      </trkpt>
      <trkpt lat="48.10473" lon="-3.53737">
        <ele>142</ele>
        <time>2025-02-25T14:00:36Z</time>
      </trkpt>
      <trkpt lat="48.10472" lon="-3.53737">
        <ele>141.9</ele>
        <time>2025-02-25T14:00:37Z</time>
      </trkpt>
      <trkpt lat="48.10471" lon="-3.53737">
        <ele>141.8</ele>
        <time>2025-02-25T14:00:38Z</time>
      </trkpt>
      <trkpt lat="48.1047" lon="-3.53737">
        <ele>141.7</ele>
        <time>2025-02-25T14:00:39Z</time>
      </trkpt>
      <trkpt lat="48.1047" lon="-3.53738">
        <ele>141.6</ele>
        <time>2025-02-25T14:00:40Z</time>
      </trkpt>
      <trkpt lat="48.1047" lon="-3.53739">
        <ele>141.6</ele>
        <time>2025-02-25T14:00:41Z</time>
      </trkpt>
      <trkpt lat="48.1047" lon="-3.53739">
        <ele>141.6</ele>
        <time>2025-02-25T14:00:42Z</time>
      </trkpt>
      <trkpt lat="48.1047" lon="-3.53739">
        <ele>141.6</ele>
        <time>2025-02-25T14:00:43Z</time>
      </trkpt>
      <trkpt lat="48.1047" lon="-3.53739">
        <ele>141.6</ele>
        <time>2025-02-25T14:00:44Z</time>
      </trkpt>
      <trkpt lat="48.1047" lon="-3.53739">
        <ele>141.6</ele>
        <time>2025-02-25T14:00:45Z</time>
      </trkpt>
      <trkpt lat="48.1047" lon="-3.53739">
        <ele>141.6</ele>
        <time>2025-02-25T14:00:46Z</time>
      </trkpt>
      <trkpt lat="48.1047" lon="-3.53739">
        <ele>141.6</ele>
        <time>2025-02-25T14:00:47Z</time>
      </trkpt>
      <trkpt lat="48.10469" lon="-3.5374">
        <ele>141.4</ele>
        <time>2025-02-25T14:00:48Z</time>
      </trkpt>
      <trkpt lat="48.10469" lon="-3.5374">
        <ele>141.4</ele>
        <time>2025-02-25T14:00:49Z</time>
      </trkpt>
      <trkpt lat="48.10469" lon="-3.53741">
        <ele>141.3</ele>
        <time>2025-02-25T14:00:50Z</time>
      </trkpt>
      <trkpt lat="48.10469" lon="-3.53741">
        <ele>141.3</ele>
        <time>2025-02-25T14:00:51Z</time>
      </trkpt>
      <trkpt lat="48.10469" lon="-3.53741">
        <ele>141.3</ele>
        <time>2025-02-25T14:00:52Z</time>
      </trkpt>
      <trkpt lat="48.10468" lon="-3.53741">
        <ele>141.2</ele>
        <time>2025-02-25T14:00:53Z</time>
      </trkpt>
      <trkpt lat="48.10468" lon="-3.53741">
        <ele>141.2</ele>
        <time>2025-02-25T14:00:54Z</time>
      </trkpt>
      <trkpt lat="48.10467" lon="-3.53741">
        <ele>141.1</ele>
        <time>2025-02-25T14:00:55Z</time>
      </trkpt>
      <trkpt lat="48.10467" lon="-3.53741">
        <ele>141.1</ele>
        <time>2025-02-25T14:00:56Z</time>
      </trkpt>
      <trkpt lat="48.10468" lon="-3.53741">
        <ele>141.2</ele>
        <time>2025-02-25T14:00:57Z</time>
      </trkpt>
      <trkpt lat="48.10469" lon="-3.53739">
        <ele>141.4</ele>
        <time>2025-02-25T14:00:58Z</time>
      </trkpt>
      <trkpt lat="48.10469" lon="-3.53738">
        <ele>141.5</ele>
        <time>2025-02-25T14:00:59Z</time>
      </trkpt>
      <trkpt lat="48.10469" lon="-3.53738">
        <ele>141.5</ele>
        <time>2025-02-25T14:01:00Z</time>
      </trkpt>
      <trkpt lat="48.1047" lon="-3.53737">
        <ele>141.7</ele>
        <time>2025-02-25T14:01:01Z</time>
      </trkpt>
      <trkpt lat="48.10471" lon="-3.53736">
        <ele>141.9</ele>
        <time>2025-02-25T14:01:02Z</time>
      </trkpt>
      <trkpt lat="48.10474" lon="-3.53734">
        <ele>142.3</ele>
        <time>2025-02-25T14:01:03Z</time>
      </trkpt>
      <trkpt lat="48.10474" lon="-3.53734">
        <ele>142.3</ele>
        <time>2025-02-25T14:01:04Z</time>
      </trkpt>
      <trkpt lat="48.10474" lon="-3.53734">
        <ele>142.3</ele>
        <time>2025-02-25T14:01:05Z</time>
      </trkpt>
      <trkpt lat="48.10473" lon="-3.53732">
        <ele>142.4</ele>
        <time>2025-02-25T14:01:06Z</time>
      </trkpt>
      <trkpt lat="48.10471" lon="-3.53731">
        <ele>142.2</ele>
        <time>2025-02-25T14:01:07Z</time>
      </trkpt>
      <trkpt lat="48.10471" lon="-3.53732">
        <ele>142.2</ele>
        <time>2025-02-25T14:01:08Z</time>
      </trkpt>
      <trkpt lat="48.10471" lon="-3.53734">
        <ele>142</ele>
        <time>2025-02-25T14:01:09Z</time>
      </trkpt>
      <trkpt lat="48.10471" lon="-3.53735">
        <ele>141.9</ele>
        <time>2025-02-25T14:01:10Z</time>
      </trkpt>
      <trkpt lat="48.10471" lon="-3.53735">
        <ele>141.9</ele>
        <time>2025-02-25T14:01:11Z</time>
      </trkpt>
      <trkpt lat="48.10471" lon="-3.53736">
        <ele>141.9</ele>
        <time>2025-02-25T14:01:12Z</time>
      </trkpt>
      <trkpt lat="48.10471" lon="-3.53736">
        <ele>141.9</ele>
        <time>2025-02-25T14:01:13Z</time>
      </trkpt>
      <trkpt lat="48.10471" lon="-3.53736">
        <ele>141.9</ele>
        <time>2025-02-25T14:01:14Z</time>
      </trkpt>
      <trkpt lat="48.10471" lon="-3.53736">
        <ele>141.9</ele>
        <time>2025-02-25T14:01:15Z</time>
      </trkpt>
      <trkpt lat="48.10471" lon="-3.53736">
        <ele>141.9</ele>
        <time>2025-02-25T14:01:16Z</time>
      </trkpt>
      <trkpt lat="48.10471" lon="-3.53736">
        <ele>141.9</ele>
        <time>2025-02-25T14:01:17Z</time>
      </trkpt>
      <trkpt lat="48.10471" lon="-3.53736">
        <ele>141.9</ele>
        <time>2025-02-25T14:01:18Z</time>
      </trkpt>
      <trkpt lat="48.10471" lon="-3.53736">
        <ele>141.9</ele>
        <time>2025-02-25T14:01:19Z</time>
      </trkpt>
      <trkpt lat="48.10471" lon="-3.53736">
        <ele>141.9</ele>
        <time>2025-02-25T14:01:20Z</time>
      </trkpt>
      <trkpt lat="48.10471" lon="-3.53736">
        <ele>141.9</ele>
        <time>2025-02-25T14:01:21Z</time>
      </trkpt>
      <trkpt lat="48.10471" lon="-3.53736">
        <ele>141.9</ele>
        <time>2025-02-25T14:01:22Z</time>
      </trkpt>
      <trkpt lat="48.10471" lon="-3.53736">
        <ele>141.9</ele>
        <time>2025-02-25T14:01:23Z</time>
      </trkpt>
      <trkpt lat="48.10471" lon="-3.53736">
        <ele>141.9</ele>
        <time>2025-02-25T14:01:24Z</time>
      </trkpt>
      <trkpt lat="48.10471" lon="-3.53736">
        <ele>141.9</ele>
        <time>2025-02-25T14:01:25Z</time>
      </trkpt>
      <trkpt lat="48.10471" lon="-3.53736">
        <ele>141.9</ele>
        <time>2025-02-25T14:01:26Z</time>
      </trkpt>
      <trkpt lat="48.10471" lon="-3.53736">
        <ele>141.9</ele>
        <time>2025-02-25T14:01:27Z</time>
      </trkpt>
      <trkpt lat="48.10471" lon="-3.53736">
        <ele>141.9</ele>
        <time>2025-02-25T14:01:28Z</time>
      </trkpt>
      <trkpt lat="48.10471" lon="-3.53736">
        <ele>141.9</ele>
        <time>2025-02-25T14:01:29Z</time>
      </trkpt>
      <trkpt lat="48.10471" lon="-3.53736">
        <ele>141.9</ele>
        <time>2025-02-25T14:01:30Z</time>
      </trkpt>
      <trkpt lat="48.10471" lon="-3.53736">
        <ele>141.9</ele>
        <time>2025-02-25T14:01:31Z</time>
      </trkpt>
      <trkpt lat="48.10471" lon="-3.53736">
        <ele>141.9</ele>
        <time>2025-02-25T14:01:32Z</time>
      </trkpt>
      <trkpt lat="48.10471" lon="-3.53736">
        <ele>141.9</ele>
        <time>2025-02-25T14:01:33Z</time>
      </trkpt>
      <trkpt lat="48.10471" lon="-3.53736">
        <ele>141.9</ele>
        <time>2025-02-25T14:01:34Z</time>
      </trkpt>
      <trkpt lat="48.10471" lon="-3.53736">
        <ele>141.9</ele>
        <time>2025-02-25T14:01:35Z</time>
      </trkpt>
      <trkpt lat="48.10471" lon="-3.53736">
        <ele>141.9</ele>
        <time>2025-02-25T14:01:36Z</time>
      </trkpt>
      <trkpt lat="48.10471" lon="-3.53736">
        <ele>141.9</ele>
        <time>2025-02-25T14:01:37Z</time>
      </trkpt>
      <trkpt lat="48.10471" lon="-3.53736">
        <ele>141.9</ele>
        <time>2025-02-25T14:01:38Z</time>
      </trkpt>
      <trkpt lat="48.10471" lon="-3.53736">
        <ele>141.9</ele>
        <time>2025-02-25T14:01:39Z</time>
      </trkpt>
      <trkpt lat="48.10471" lon="-3.53736">
        <ele>141.9</ele>
        <time>2025-02-25T14:01:40Z</time>
      </trkpt>
      <trkpt lat="48.10471" lon="-3.53736">
        <ele>141.9</ele>
        <time>2025-02-25T14:01:41Z</time>
      </trkpt>
      <trkpt lat="48.10471" lon="-3.53736">
        <ele>141.9</ele>
        <time>2025-02-25T14:01:42Z</time>
      </trkpt>
      <trkpt lat="48.10471" lon="-3.53736">
        <ele>141.9</ele>
        <time>2025-02-25T14:01:43Z</time>
      </trkpt>
      <trkpt lat="48.10471" lon="-3.53736">
        <ele>141.9</ele>
        <time>2025-02-25T14:01:44Z</time>
      </trkpt>
      <trkpt lat="48.10471" lon="-3.53736">
        <ele>141.9</ele>
        <time>2025-02-25T14:01:45Z</time>
      </trkpt>
      <trkpt lat="48.10471" lon="-3.53736">
        <ele>141.9</ele>
        <time>2025-02-25T14:01:46Z</time>
      </trkpt>
      <trkpt lat="48.10471" lon="-3.53736">
        <ele>141.9</ele>
        <time>2025-02-25T14:01:47Z</time>
      </trkpt>
      <trkpt lat="48.10471" lon="-3.53736">
        <ele>141.9</ele>
        <time>2025-02-25T14:01:48Z</time>
      </trkpt>
      <trkpt lat="48.10471" lon="-3.53736">
        <ele>141.9</ele>
        <time>2025-02-25T14:01:49Z</time>
      </trkpt>
      <trkpt lat="48.10471" lon="-3.53736">
        <ele>141.9</ele>
        <time>2025-02-25T14:01:50Z</time>
      </trkpt>
      <trkpt lat="48.10471" lon="-3.53736">
        <ele>141.9</ele>
        <time>2025-02-25T14:01:51Z</time>
      </trkpt>
      <trkpt lat="48.10471" lon="-3.53736">
        <ele>141.9</ele>
        <time>2025-02-25T14:01:52Z</time>
      </trkpt>
      <trkpt lat="48.10471" lon="-3.53736">
        <ele>141.9</ele>
        <time>2025-02-25T14:01:53Z</time>
      </trkpt>
      <trkpt lat="48.10471" lon="-3.53736">
        <ele>141.9</ele>
        <time>2025-02-25T14:01:54Z</time>
      </trkpt>
      <trkpt lat="48.10471" lon="-3.53736">
        <ele>141.9</ele>
        <time>2025-02-25T14:01:55Z</time>
      </trkpt>
      <trkpt lat="48.10471" lon="-3.53736">
        <ele>141.9</ele>
        <time>2025-02-25T14:01:56Z</time>
      </trkpt>
      <trkpt lat="48.10471" lon="-3.53736">
        <ele>141.9</ele>
        <time>2025-02-25T14:01:57Z</time>
      </trkpt>
      <trkpt lat="48.10471" lon="-3.53736">
        <ele>141.9</ele>
        <time>2025-02-25T14:01:58Z</time>
      </trkpt>
      <trkpt lat="48.10471" lon="-3.53736">
        <ele>141.9</ele>
        <time>2025-02-25T14:01:59Z</time>
      </trkpt>
      <trkpt lat="48.10471" lon="-3.53736">
        <ele>141.9</ele>
        <time>2025-02-25T14:02:00Z</time>
      </trkpt>
      <trkpt lat="48.1047" lon="-3.53736">
        <ele>141.8</ele>
        <time>2025-02-25T14:02:01Z</time>
      </trkpt>
      <trkpt lat="48.1047" lon="-3.53736">
        <ele>141.8</ele>
        <time>2025-02-25T14:02:02Z</time>
      </trkpt>
      <trkpt lat="48.1047" lon="-3.53737">
        <ele>141.7</ele>
        <time>2025-02-25T14:02:03Z</time>
      </trkpt>
      <trkpt lat="48.1047" lon="-3.53736">
        <ele>141.8</ele>
        <time>2025-02-25T14:02:04Z</time>
      </trkpt>
      <trkpt lat="48.1047" lon="-3.53736">
        <ele>141.8</ele>
        <time>2025-02-25T14:02:05Z</time>
      </trkpt>
      <trkpt lat="48.10469" lon="-3.53736">
        <ele>141.7</ele>
        <time>2025-02-25T14:02:06Z</time>
      </trkpt>
      <trkpt lat="48.10469" lon="-3.53737">
        <ele>141.6</ele>
        <time>2025-02-25T14:02:07Z</time>
      </trkpt>
      <trkpt lat="48.10468" lon="-3.53738">
        <ele>141.4</ele>
        <time>2025-02-25T14:02:08Z</time>
      </trkpt>
      <trkpt lat="48.10468" lon="-3.53738">
        <ele>141.4</ele>
        <time>2025-02-25T14:02:09Z</time>
      </trkpt>
      <trkpt lat="48.10468" lon="-3.53738">
        <ele>141.4</ele>
        <time>2025-02-25T14:02:10Z</time>
      </trkpt>
      <trkpt lat="48.10468" lon="-3.53739">
        <ele>141.3</ele>
        <time>2025-02-25T14:02:11Z</time>
      </trkpt>
      <trkpt lat="48.10468" lon="-3.53739">
        <ele>141.3</ele>
        <time>2025-02-25T14:02:12Z</time>
      </trkpt>
      <trkpt lat="48.10467" lon="-3.53738">
        <ele>141.3</ele>
        <time>2025-02-25T14:02:13Z</time>
      </trkpt>
      <trkpt lat="48.10468" lon="-3.53738">
        <ele>141.4</ele>
        <time>2025-02-25T14:02:14Z</time>
      </trkpt>
      <trkpt lat="48.10468" lon="-3.53739">
        <ele>141.3</ele>
        <time>2025-02-25T14:02:15Z</time>
      </trkpt>
      <trkpt lat="48.10468" lon="-3.5374">
        <ele>141.3</ele>
        <time>2025-02-25T14:02:16Z</time>
      </trkpt>
      <trkpt lat="48.10468" lon="-3.5374">
        <ele>141.3</ele>
        <time>2025-02-25T14:02:17Z</time>
      </trkpt>
      <trkpt lat="48.10468" lon="-3.5374">
        <ele>141.3</ele>
        <time>2025-02-25T14:02:18Z</time>
      </trkpt>
      <trkpt lat="48.10468" lon="-3.5374">
        <ele>141.3</ele>
        <time>2025-02-25T14:02:19Z</time>
      </trkpt>
      <trkpt lat="48.10468" lon="-3.5374">
        <ele>141.3</ele>
        <time>2025-02-25T14:02:20Z</time>
      </trkpt>
      <trkpt lat="48.10468" lon="-3.5374">
        <ele>141.3</ele>
        <time>2025-02-25T14:02:21Z</time>
      </trkpt>
      <trkpt lat="48.10469" lon="-3.53742">
        <ele>141.2</ele>
        <time>2025-02-25T14:02:22Z</time>
      </trkpt>
      <trkpt lat="48.10469" lon="-3.53743">
        <ele>141.2</ele>
        <time>2025-02-25T14:02:23Z</time>
      </trkpt>
      <trkpt lat="48.10469" lon="-3.53745">
        <ele>141</ele>
        <time>2025-02-25T14:02:24Z</time>
      </trkpt>
      <trkpt lat="48.10469" lon="-3.53746">
        <ele>140.9</ele>
        <time>2025-02-25T14:02:25Z</time>
      </trkpt>
      <trkpt lat="48.10468" lon="-3.53746">
        <ele>140.8</ele>
        <time>2025-02-25T14:02:26Z</time>
      </trkpt>
      <trkpt lat="48.10467" lon="-3.53746">
        <ele>140.7</ele>
        <time>2025-02-25T14:02:27Z</time>
      </trkpt>
      <trkpt lat="48.10466" lon="-3.53746">
        <ele>140.6</ele>
        <time>2025-02-25T14:02:28Z</time>
      </trkpt>
      <trkpt lat="48.10465" lon="-3.53746">
        <ele>140.5</ele>
        <time>2025-02-25T14:02:29Z</time>
      </trkpt>
      <trkpt lat="48.10464" lon="-3.53746">
        <ele>140.4</ele>
        <time>2025-02-25T14:02:30Z</time>
      </trkpt>
      <trkpt lat="48.10463" lon="-3.53747">
        <ele>140.2</ele>
        <time>2025-02-25T14:02:31Z</time>
      </trkpt>
      <trkpt lat="48.10462" lon="-3.53747">
        <ele>140.1</ele>
        <time>2025-02-25T14:02:32Z</time>
      </trkpt>
      <trkpt lat="48.1046" lon="-3.53747">
        <ele>139.9</ele>
        <time>2025-02-25T14:02:33Z</time>
      </trkpt>
      <trkpt lat="48.10459" lon="-3.53745">
        <ele>139.9</ele>
        <time>2025-02-25T14:02:34Z</time>
      </trkpt>
      <trkpt lat="48.10458" lon="-3.53745">
        <ele>139.8</ele>
        <time>2025-02-25T14:02:35Z</time>
      </trkpt>
      <trkpt lat="48.10457" lon="-3.53745">
        <ele>139.7</ele>
        <time>2025-02-25T14:02:36Z</time>
      </trkpt>
      <trkpt lat="48.10456" lon="-3.53744">
        <ele>139.7</ele>
        <time>2025-02-25T14:02:37Z</time>
      </trkpt>
      <trkpt lat="48.10455" lon="-3.53744">
        <ele>139.6</ele>
        <time>2025-02-25T14:02:38Z</time>
      </trkpt>
      <trkpt lat="48.10454" lon="-3.53745">
        <ele>139.4</ele>
        <time>2025-02-25T14:02:39Z</time>
      </trkpt>
      <trkpt lat="48.10454" lon="-3.53746">
        <ele>139.3</ele>
        <time>2025-02-25T14:02:40Z</time>
      </trkpt>
      <trkpt lat="48.10453" lon="-3.53746">
        <ele>139.2</ele>
        <time>2025-02-25T14:02:41Z</time>
      </trkpt>
      <trkpt lat="48.10452" lon="-3.53746">
        <ele>139.1</ele>
        <time>2025-02-25T14:02:42Z</time>
      </trkpt>
      <trkpt lat="48.10451" lon="-3.53747">
        <ele>138.9</ele>
        <time>2025-02-25T14:02:43Z</time>
      </trkpt>
      <trkpt lat="48.10451" lon="-3.53748">
        <ele>138.9</ele>
        <time>2025-02-25T14:02:44Z</time>
      </trkpt>
      <trkpt lat="48.1045" lon="-3.53749">
        <ele>138.7</ele>
        <time>2025-02-25T14:02:45Z</time>
      </trkpt>
      <trkpt lat="48.10449" lon="-3.53749">
        <ele>138.6</ele>
        <time>2025-02-25T14:02:46Z</time>
      </trkpt>
      <trkpt lat="48.10448" lon="-3.53749">
        <ele>138.5</ele>
        <time>2025-02-25T14:02:47Z</time>
      </trkpt>
      <trkpt lat="48.10448" lon="-3.53749">
        <ele>138.5</ele>
        <time>2025-02-25T14:02:48Z</time>
      </trkpt>
      <trkpt lat="48.10447" lon="-3.53749">
        <ele>138.3</ele>
        <time>2025-02-25T14:02:49Z</time>
      </trkpt>
      <trkpt lat="48.10446" lon="-3.53749">
        <ele>138.2</ele>
        <time>2025-02-25T14:02:50Z</time>
      </trkpt>
      <trkpt lat="48.10446" lon="-3.5375">
        <ele>138.2</ele>
        <time>2025-02-25T14:02:51Z</time>
      </trkpt>
      <trkpt lat="48.10446" lon="-3.53751">
        <ele>138.1</ele>
        <time>2025-02-25T14:02:52Z</time>
      </trkpt>
      <trkpt lat="48.10446" lon="-3.53752">
        <ele>138</ele>
        <time>2025-02-25T14:02:53Z</time>
      </trkpt>
      <trkpt lat="48.10446" lon="-3.53753">
        <ele>138</ele>
        <time>2025-02-25T14:02:54Z</time>
      </trkpt>
      <trkpt lat="48.10445" lon="-3.53753">
        <ele>137.8</ele>
        <time>2025-02-25T14:02:55Z</time>
      </trkpt>
      <trkpt lat="48.10446" lon="-3.53753">
        <ele>138</ele>
        <time>2025-02-25T14:02:56Z</time>
      </trkpt>
      <trkpt lat="48.10446" lon="-3.53753">
        <ele>138</ele>
        <time>2025-02-25T14:02:57Z</time>
      </trkpt>
      <trkpt lat="48.10446" lon="-3.53754">
        <ele>137.9</ele>
        <time>2025-02-25T14:02:58Z</time>
      </trkpt>
      <trkpt lat="48.10446" lon="-3.53754">
        <ele>137.9</ele>
        <time>2025-02-25T14:02:59Z</time>
      </trkpt>
      <trkpt lat="48.10445" lon="-3.53755">
        <ele>137.7</ele>
        <time>2025-02-25T14:03:00Z</time>
      </trkpt>
      <trkpt lat="48.10445" lon="-3.53755">
        <ele>137.7</ele>
        <time>2025-02-25T14:03:01Z</time>
      </trkpt>
      <trkpt lat="48.10444" lon="-3.53755">
        <ele>137.6</ele>
        <time>2025-02-25T14:03:02Z</time>
      </trkpt>
      <trkpt lat="48.10444" lon="-3.53756">
        <ele>137.5</ele>
        <time>2025-02-25T14:03:03Z</time>
      </trkpt>
      <trkpt lat="48.10444" lon="-3.53757">
        <ele>137.4</ele>
        <time>2025-02-25T14:03:04Z</time>
      </trkpt>
      <trkpt lat="48.10445" lon="-3.53756">
        <ele>137.6</ele>
        <time>2025-02-25T14:03:05Z</time>
      </trkpt>
      <trkpt lat="48.10445" lon="-3.53757">
        <ele>137.6</ele>
        <time>2025-02-25T14:03:06Z</time>
      </trkpt>
      <trkpt lat="48.10445" lon="-3.53757">
        <ele>137.6</ele>
        <time>2025-02-25T14:03:07Z</time>
      </trkpt>
      <trkpt lat="48.10444" lon="-3.53756">
        <ele>137.5</ele>
        <time>2025-02-25T14:03:08Z</time>
      </trkpt>
      <trkpt lat="48.10444" lon="-3.53755">
        <ele>137.6</ele>
        <time>2025-02-25T14:03:09Z</time>
      </trkpt>
      <trkpt lat="48.10444" lon="-3.53755">
        <ele>137.6</ele>
        <time>2025-02-25T14:03:10Z</time>
      </trkpt>
      <trkpt lat="48.10443" lon="-3.53754">
        <ele>137.4</ele>
        <time>2025-02-25T14:03:11Z</time>
      </trkpt>
      <trkpt lat="48.10443" lon="-3.53755">
        <ele>137.4</ele>
        <time>2025-02-25T14:03:12Z</time>
      </trkpt>
      <trkpt lat="48.10442" lon="-3.53756">
        <ele>137.1</ele>
        <time>2025-02-25T14:03:13Z</time>
      </trkpt>
      <trkpt lat="48.10442" lon="-3.53755">
        <ele>137.2</ele>
        <time>2025-02-25T14:03:14Z</time>
      </trkpt>
      <trkpt lat="48.10442" lon="-3.53755">
        <ele>137.2</ele>
        <time>2025-02-25T14:03:15Z</time>
      </trkpt>
      <trkpt lat="48.10442" lon="-3.53756">
        <ele>137.1</ele>
        <time>2025-02-25T14:03:16Z</time>
      </trkpt>
      <trkpt lat="48.10441" lon="-3.53755">
        <ele>137</ele>
        <time>2025-02-25T14:03:17Z</time>
      </trkpt>
      <trkpt lat="48.10441" lon="-3.53754">
        <ele>137</ele>
        <time>2025-02-25T14:03:18Z</time>
      </trkpt>
      <trkpt lat="48.1044" lon="-3.53754">
        <ele>136.8</ele>
        <time>2025-02-25T14:03:19Z</time>
      </trkpt>
      <trkpt lat="48.1044" lon="-3.53754">
        <ele>136.8</ele>
        <time>2025-02-25T14:03:20Z</time>
      </trkpt>
      <trkpt lat="48.1044" lon="-3.53754">
        <ele>136.8</ele>
        <time>2025-02-25T14:03:21Z</time>
      </trkpt>
      <trkpt lat="48.1044" lon="-3.53754">
        <ele>136.8</ele>
        <time>2025-02-25T14:03:22Z</time>
      </trkpt>
      <trkpt lat="48.1044" lon="-3.53754">
        <ele>136.8</ele>
        <time>2025-02-25T14:03:23Z</time>
      </trkpt>
      <trkpt lat="48.10439" lon="-3.53755">
        <ele>136.6</ele>
        <time>2025-02-25T14:03:24Z</time>
      </trkpt>
      <trkpt lat="48.10439" lon="-3.53756">
        <ele>136.6</ele>
        <time>2025-02-25T14:03:25Z</time>
      </trkpt>
      <trkpt lat="48.10439" lon="-3.53757">
        <ele>136.5</ele>
        <time>2025-02-25T14:03:26Z</time>
      </trkpt>
      <trkpt lat="48.10439" lon="-3.53758">
        <ele>136.5</ele>
        <time>2025-02-25T14:03:27Z</time>
      </trkpt>
      <trkpt lat="48.10438" lon="-3.53758">
        <ele>136.3</ele>
        <time>2025-02-25T14:03:28Z</time>
      </trkpt>
      <trkpt lat="48.10438" lon="-3.5376">
        <ele>136.2</ele>
        <time>2025-02-25T14:03:29Z</time>
      </trkpt>
      <trkpt lat="48.10437" lon="-3.5376">
        <ele>136.1</ele>
        <time>2025-02-25T14:03:30Z</time>
      </trkpt>
      <trkpt lat="48.10437" lon="-3.5376">
        <ele>136.1</ele>
        <time>2025-02-25T14:03:31Z</time>
      </trkpt>
      <trkpt lat="48.10436" lon="-3.53762">
        <ele>135.8</ele>
        <time>2025-02-25T14:03:32Z</time>
      </trkpt>
      <trkpt lat="48.10437" lon="-3.53762">
        <ele>136</ele>
        <time>2025-02-25T14:03:33Z</time>
      </trkpt>
      <trkpt lat="48.10438" lon="-3.53763">
        <ele>136.1</ele>
        <time>2025-02-25T14:03:34Z</time>
      </trkpt>
      <trkpt lat="48.10438" lon="-3.53764">
        <ele>136.1</ele>
        <time>2025-02-25T14:03:35Z</time>
      </trkpt>
      <trkpt lat="48.10437" lon="-3.53765">
        <ele>135.9</ele>
        <time>2025-02-25T14:03:36Z</time>
      </trkpt>
      <trkpt lat="48.10436" lon="-3.53766">
        <ele>135.7</ele>
        <time>2025-02-25T14:03:37Z</time>
      </trkpt>
      <trkpt lat="48.10435" lon="-3.53768">
        <ele>135.5</ele>
        <time>2025-02-25T14:03:38Z</time>
      </trkpt>
      <trkpt lat="48.10435" lon="-3.53769">
        <ele>135.5</ele>
        <time>2025-02-25T14:03:39Z</time>
      </trkpt>
      <trkpt lat="48.10434" lon="-3.5377">
        <ele>135.4</ele>
        <time>2025-02-25T14:03:40Z</time>
      </trkpt>
      <trkpt lat="48.10434" lon="-3.53771">
        <ele>135.4</ele>
        <time>2025-02-25T14:03:41Z</time>
      </trkpt>
      <trkpt lat="48.10434" lon="-3.53772">
        <ele>135.4</ele>
        <time>2025-02-25T14:03:42Z</time>
      </trkpt>
      <trkpt lat="48.10434" lon="-3.53773">
        <ele>135.3</ele>
        <time>2025-02-25T14:03:43Z</time>
      </trkpt>
      <trkpt lat="48.10435" lon="-3.53773">
        <ele>135.4</ele>
        <time>2025-02-25T14:03:44Z</time>
      </trkpt>
      <trkpt lat="48.10436" lon="-3.53773">
        <ele>135.5</ele>
        <time>2025-02-25T14:03:45Z</time>
      </trkpt>
      <trkpt lat="48.10436" lon="-3.53774">
        <ele>135.5</ele>
        <time>2025-02-25T14:03:46Z</time>
      </trkpt>
      <trkpt lat="48.10436" lon="-3.53775">
        <ele>135.5</ele>
        <time>2025-02-25T14:03:47Z</time>
      </trkpt>
      <trkpt lat="48.10435" lon="-3.53776">
        <ele>135.4</ele>
        <time>2025-02-25T14:03:48Z</time>
      </trkpt>
      <trkpt lat="48.10434" lon="-3.53776">
        <ele>135.3</ele>
        <time>2025-02-25T14:03:49Z</time>
      </trkpt>
      <trkpt lat="48.10433" lon="-3.53777">
        <ele>135.2</ele>
        <time>2025-02-25T14:03:50Z</time>
      </trkpt>
      <trkpt lat="48.10433" lon="-3.53778">
        <ele>135.2</ele>
        <time>2025-02-25T14:03:51Z</time>
      </trkpt>
      <trkpt lat="48.10432" lon="-3.5378">
        <ele>135.2</ele>
        <time>2025-02-25T14:03:52Z</time>
      </trkpt>
      <trkpt lat="48.10432" lon="-3.53781">
        <ele>135.2</ele>
        <time>2025-02-25T14:03:53Z</time>
      </trkpt>
      <trkpt lat="48.10432" lon="-3.53782">
        <ele>135.2</ele>
        <time>2025-02-25T14:03:54Z</time>
      </trkpt>
      <trkpt lat="48.10431" lon="-3.53784">
        <ele>135.2</ele>
        <time>2025-02-25T14:03:55Z</time>
      </trkpt>
      <trkpt lat="48.1043" lon="-3.53785">
        <ele>135.2</ele>
        <time>2025-02-25T14:03:56Z</time>
      </trkpt>
      <trkpt lat="48.10429" lon="-3.53785">
        <ele>135.2</ele>
        <time>2025-02-25T14:03:57Z</time>
      </trkpt>
      <trkpt lat="48.10429" lon="-3.53785">
        <ele>135.2</ele>
        <time>2025-02-25T14:03:58Z</time>
      </trkpt>
      <trkpt lat="48.10428" lon="-3.53784">
        <ele>135.1</ele>
        <time>2025-02-25T14:03:59Z</time>
      </trkpt>
      <trkpt lat="48.10428" lon="-3.53782">
        <ele>135</ele>
        <time>2025-02-25T14:04:00Z</time>
      </trkpt>
      <trkpt lat="48.10428" lon="-3.53781">
        <ele>135</ele>
        <time>2025-02-25T14:04:01Z</time>
      </trkpt>
      <trkpt lat="48.10429" lon="-3.5378">
        <ele>135</ele>
        <time>2025-02-25T14:04:02Z</time>
      </trkpt>
      <trkpt lat="48.10429" lon="-3.5378">
        <ele>135</ele>
        <time>2025-02-25T14:04:03Z</time>
      </trkpt>
      <trkpt lat="48.10429" lon="-3.53779">
        <ele>134.9</ele>
        <time>2025-02-25T14:04:04Z</time>
      </trkpt>
      <trkpt lat="48.10429" lon="-3.53778">
        <ele>134.9</ele>
        <time>2025-02-25T14:04:05Z</time>
      </trkpt>
      <trkpt lat="48.10428" lon="-3.53777">
        <ele>134.8</ele>
        <time>2025-02-25T14:04:06Z</time>
      </trkpt>
      <trkpt lat="48.10428" lon="-3.53777">
        <ele>134.8</ele>
        <time>2025-02-25T14:04:07Z</time>
      </trkpt>
      <trkpt lat="48.10428" lon="-3.53776">
        <ele>134.8</ele>
        <time>2025-02-25T14:04:08Z</time>
      </trkpt>
      <trkpt lat="48.10428" lon="-3.53775">
        <ele>134.8</ele>
        <time>2025-02-25T14:04:09Z</time>
      </trkpt>
      <trkpt lat="48.10427" lon="-3.53774">
        <ele>134.7</ele>
        <time>2025-02-25T14:04:10Z</time>
      </trkpt>
      <trkpt lat="48.10427" lon="-3.53774">
        <ele>134.7</ele>
        <time>2025-02-25T14:04:11Z</time>
      </trkpt>
      <trkpt lat="48.10426" lon="-3.53775">
        <ele>134.6</ele>
        <time>2025-02-25T14:04:12Z</time>
      </trkpt>
      <trkpt lat="48.10425" lon="-3.53777">
        <ele>134.6</ele>
        <time>2025-02-25T14:04:13Z</time>
      </trkpt>
      <trkpt lat="48.10424" lon="-3.53778">
        <ele>134.5</ele>
        <time>2025-02-25T14:04:14Z</time>
      </trkpt>
      <trkpt lat="48.10422" lon="-3.5378">
        <ele>134.5</ele>
        <time>2025-02-25T14:04:15Z</time>
      </trkpt>
      <trkpt lat="48.10421" lon="-3.5378">
        <ele>134.4</ele>
        <time>2025-02-25T14:04:16Z</time>
      </trkpt>
      <trkpt lat="48.10419" lon="-3.53781">
        <ele>134.4</ele>
        <time>2025-02-25T14:04:17Z</time>
      </trkpt>
      <trkpt lat="48.10418" lon="-3.53782">
        <ele>134.4</ele>
        <time>2025-02-25T14:04:18Z</time>
      </trkpt>
      <trkpt lat="48.10418" lon="-3.53784">
        <ele>134.5</ele>
        <time>2025-02-25T14:04:19Z</time>
      </trkpt>
      <trkpt lat="48.10417" lon="-3.53785">
        <ele>134.5</ele>
        <time>2025-02-25T14:04:20Z</time>
      </trkpt>
      <trkpt lat="48.10415" lon="-3.53786">
        <ele>134.8</ele>
        <time>2025-02-25T14:04:21Z</time>
      </trkpt>
      <trkpt lat="48.10414" lon="-3.53786">
        <ele>134.9</ele>
        <time>2025-02-25T14:04:22Z</time>
      </trkpt>
      <trkpt lat="48.10412" lon="-3.53785">
        <ele>135.1</ele>
        <time>2025-02-25T14:04:23Z</time>
      </trkpt>
      <trkpt lat="48.10411" lon="-3.53784">
        <ele>135.1</ele>
        <time>2025-02-25T14:04:24Z</time>
      </trkpt>
      <trkpt lat="48.10409" lon="-3.53785">
        <ele>135.4</ele>
        <time>2025-02-25T14:04:25Z</time>
      </trkpt>
      <trkpt lat="48.10408" lon="-3.53787">
        <ele>135.8</ele>
        <time>2025-02-25T14:04:26Z</time>
      </trkpt>
      <trkpt lat="48.1041" lon="-3.53786">
        <ele>135.4</ele>
        <time>2025-02-25T14:04:27Z</time>
      </trkpt>
      <trkpt lat="48.10411" lon="-3.53785">
        <ele>135.2</ele>
        <time>2025-02-25T14:04:28Z</time>
      </trkpt>
      <trkpt lat="48.10411" lon="-3.53784">
        <ele>135.1</ele>
        <time>2025-02-25T14:04:29Z</time>
      </trkpt>
      <trkpt lat="48.10412" lon="-3.53784">
        <ele>135</ele>
        <time>2025-02-25T14:04:30Z</time>
      </trkpt>
      <trkpt lat="48.10411" lon="-3.53784">
        <ele>135.1</ele>
        <time>2025-02-25T14:04:31Z</time>
      </trkpt>
      <trkpt lat="48.1041" lon="-3.53785">
        <ele>135.3</ele>
        <time>2025-02-25T14:04:32Z</time>
      </trkpt>
      <trkpt lat="48.10409" lon="-3.53786">
        <ele>135.6</ele>
        <time>2025-02-25T14:04:33Z</time>
      </trkpt>
      <trkpt lat="48.10409" lon="-3.53786">
        <ele>135.6</ele>
        <time>2025-02-25T14:04:34Z</time>
      </trkpt>
      <trkpt lat="48.10408" lon="-3.53787">
        <ele>135.8</ele>
        <time>2025-02-25T14:04:35Z</time>
      </trkpt>
      <trkpt lat="48.10408" lon="-3.53788">
        <ele>135.9</ele>
        <time>2025-02-25T14:04:36Z</time>
      </trkpt>
      <trkpt lat="48.10407" lon="-3.53789">
        <ele>136.2</ele>
        <time>2025-02-25T14:04:37Z</time>
      </trkpt>
      <trkpt lat="48.10406" lon="-3.5379">
        <ele>136.5</ele>
        <time>2025-02-25T14:04:38Z</time>
      </trkpt>
      <trkpt lat="48.10406" lon="-3.53791">
        <ele>136.6</ele>
        <time>2025-02-25T14:04:39Z</time>
      </trkpt>
      <trkpt lat="48.10405" lon="-3.53792">
        <ele>136.9</ele>
        <time>2025-02-25T14:04:40Z</time>
      </trkpt>
      <trkpt lat="48.10404" lon="-3.53792">
        <ele>137.1</ele>
        <time>2025-02-25T14:04:41Z</time>
      </trkpt>
      <trkpt lat="48.10403" lon="-3.53791">
        <ele>137.1</ele>
        <time>2025-02-25T14:04:42Z</time>
      </trkpt>
      <trkpt lat="48.10403" lon="-3.53792">
        <ele>137.3</ele>
        <time>2025-02-25T14:04:43Z</time>
      </trkpt>
      <trkpt lat="48.10402" lon="-3.53793">
        <ele>137.6</ele>
        <time>2025-02-25T14:04:44Z</time>
      </trkpt>
      <trkpt lat="48.10402" lon="-3.53793">
        <ele>137.6</ele>
        <time>2025-02-25T14:04:45Z</time>
      </trkpt>
      <trkpt lat="48.10401" lon="-3.53793">
        <ele>137.8</ele>
        <time>2025-02-25T14:04:46Z</time>
      </trkpt>
      <trkpt lat="48.10401" lon="-3.53793">
        <ele>137.8</ele>
        <time>2025-02-25T14:04:47Z</time>
      </trkpt>
      <trkpt lat="48.104" lon="-3.53794">
        <ele>138.1</ele>
        <time>2025-02-25T14:04:48Z</time>
      </trkpt>
      <trkpt lat="48.10399" lon="-3.53794">
        <ele>138.3</ele>
        <time>2025-02-25T14:04:49Z</time>
      </trkpt>
      <trkpt lat="48.10399" lon="-3.53795">
        <ele>138.5</ele>
        <time>2025-02-25T14:04:50Z</time>
      </trkpt>
      <trkpt lat="48.10398" lon="-3.53794">
        <ele>138.5</ele>
        <time>2025-02-25T14:04:51Z</time>
      </trkpt>
      <trkpt lat="48.10397" lon="-3.53794">
        <ele>138.7</ele>
        <time>2025-02-25T14:04:52Z</time>
      </trkpt>
      <trkpt lat="48.10396" lon="-3.53794">
        <ele>138.8</ele>
        <time>2025-02-25T14:04:53Z</time>
      </trkpt>
      <trkpt lat="48.10395" lon="-3.53794">
        <ele>139</ele>
        <time>2025-02-25T14:04:54Z</time>
      </trkpt>
      <trkpt lat="48.10394" lon="-3.53793">
        <ele>139</ele>
        <time>2025-02-25T14:04:55Z</time>
      </trkpt>
      <trkpt lat="48.10393" lon="-3.53793">
        <ele>139.1</ele>
        <time>2025-02-25T14:04:56Z</time>
      </trkpt>
      <trkpt lat="48.10393" lon="-3.53792">
        <ele>138.9</ele>
        <time>2025-02-25T14:04:57Z</time>
      </trkpt>
      <trkpt lat="48.10392" lon="-3.5379">
        <ele>138.6</ele>
        <time>2025-02-25T14:04:58Z</time>
      </trkpt>
      <trkpt lat="48.10392" lon="-3.53789">
        <ele>138.4</ele>
        <time>2025-02-25T14:04:59Z</time>
      </trkpt>
      <trkpt lat="48.10391" lon="-3.53788">
        <ele>138.3</ele>
        <time>2025-02-25T14:05:00Z</time>
      </trkpt>
      <trkpt lat="48.10391" lon="-3.53786">
        <ele>137.8</ele>
        <time>2025-02-25T14:05:01Z</time>
      </trkpt>
      <trkpt lat="48.10391" lon="-3.53784">
        <ele>137.3</ele>
        <time>2025-02-25T14:05:02Z</time>
      </trkpt>
      <trkpt lat="48.10391" lon="-3.53782">
        <ele>136.9</ele>
        <time>2025-02-25T14:05:03Z</time>
      </trkpt>
      <trkpt lat="48.1039" lon="-3.53781">
        <ele>136.7</ele>
        <time>2025-02-25T14:05:04Z</time>
      </trkpt>
      <trkpt lat="48.10389" lon="-3.53779">
        <ele>136.3</ele>
        <time>2025-02-25T14:05:05Z</time>
      </trkpt>
      <trkpt lat="48.10389" lon="-3.53776">
        <ele>135.7</ele>
        <time>2025-02-25T14:05:06Z</time>
      </trkpt>
      <trkpt lat="48.10388" lon="-3.53773">
        <ele>135.4</ele>
        <time>2025-02-25T14:05:07Z</time>
      </trkpt>
      <trkpt lat="48.10387" lon="-3.53771">
        <ele>135.1</ele>
        <time>2025-02-25T14:05:08Z</time>
      </trkpt>
      <trkpt lat="48.10386" lon="-3.53769">
        <ele>134.9</ele>
        <time>2025-02-25T14:05:09Z</time>
      </trkpt>
      <trkpt lat="48.10386" lon="-3.53766">
        <ele>134.4</ele>
        <time>2025-02-25T14:05:10Z</time>
      </trkpt>
      <trkpt lat="48.10385" lon="-3.53765">
        <ele>134.3</ele>
        <time>2025-02-25T14:05:11Z</time>
      </trkpt>
      <trkpt lat="48.10384" lon="-3.53763">
        <ele>134</ele>
        <time>2025-02-25T14:05:12Z</time>
      </trkpt>
      <trkpt lat="48.10384" lon="-3.53761">
        <ele>133.7</ele>
        <time>2025-02-25T14:05:13Z</time>
      </trkpt>
      <trkpt lat="48.10384" lon="-3.5376">
        <ele>133.6</ele>
        <time>2025-02-25T14:05:14Z</time>
      </trkpt>
      <trkpt lat="48.10383" lon="-3.53759">
        <ele>133.4</ele>
        <time>2025-02-25T14:05:15Z</time>
      </trkpt>
      <trkpt lat="48.10383" lon="-3.53758">
        <ele>133.3</ele>
        <time>2025-02-25T14:05:16Z</time>
      </trkpt>
      <trkpt lat="48.10383" lon="-3.53757">
        <ele>133.1</ele>
        <time>2025-02-25T14:05:17Z</time>
      </trkpt>
      <trkpt lat="48.10382" lon="-3.53756">
        <ele>133</ele>
        <time>2025-02-25T14:05:18Z</time>
      </trkpt>
      <trkpt lat="48.10382" lon="-3.53755">
        <ele>132.8</ele>
        <time>2025-02-25T14:05:19Z</time>
      </trkpt>
      <trkpt lat="48.10381" lon="-3.53753">
        <ele>132.5</ele>
        <time>2025-02-25T14:05:20Z</time>
      </trkpt>
      <trkpt lat="48.1038" lon="-3.53752">
        <ele>132.3</ele>
        <time>2025-02-25T14:05:21Z</time>
      </trkpt>
      <trkpt lat="48.10379" lon="-3.5375">
        <ele>132</ele>
        <time>2025-02-25T14:05:22Z</time>
      </trkpt>
      <trkpt lat="48.10379" lon="-3.53749">
        <ele>132</ele>
        <time>2025-02-25T14:05:23Z</time>
      </trkpt>
      <trkpt lat="48.10378" lon="-3.53747">
        <ele>132</ele>
        <time>2025-02-25T14:05:24Z</time>
      </trkpt>
      <trkpt lat="48.10377" lon="-3.53745">
        <ele>131.9</ele>
        <time>2025-02-25T14:05:25Z</time>
      </trkpt>
      <trkpt lat="48.10377" lon="-3.53744">
        <ele>131.9</ele>
        <time>2025-02-25T14:05:26Z</time>
      </trkpt>
      <trkpt lat="48.10376" lon="-3.53744">
        <ele>131.9</ele>
        <time>2025-02-25T14:05:27Z</time>
      </trkpt>
      <trkpt lat="48.10376" lon="-3.53743">
        <ele>131.9</ele>
        <time>2025-02-25T14:05:28Z</time>
      </trkpt>
      <trkpt lat="48.10375" lon="-3.53742">
        <ele>131.9</ele>
        <time>2025-02-25T14:05:29Z</time>
      </trkpt>
      <trkpt lat="48.10375" lon="-3.5374">
        <ele>131.8</ele>
        <time>2025-02-25T14:05:30Z</time>
      </trkpt>
      <trkpt lat="48.10375" lon="-3.53739">
        <ele>131.8</ele>
        <time>2025-02-25T14:05:31Z</time>
      </trkpt>
      <trkpt lat="48.10374" lon="-3.53737">
        <ele>131.7</ele>
        <time>2025-02-25T14:05:32Z</time>
      </trkpt>
      <trkpt lat="48.10373" lon="-3.53736">
        <ele>131.7</ele>
        <time>2025-02-25T14:05:33Z</time>
      </trkpt>
      <trkpt lat="48.10372" lon="-3.53734">
        <ele>131.6</ele>
        <time>2025-02-25T14:05:34Z</time>
      </trkpt>
      <trkpt lat="48.10371" lon="-3.53733">
        <ele>131.6</ele>
        <time>2025-02-25T14:05:35Z</time>
      </trkpt>
      <trkpt lat="48.1037" lon="-3.53731">
        <ele>131.5</ele>
        <time>2025-02-25T14:05:36Z</time>
      </trkpt>
      <trkpt lat="48.10369" lon="-3.5373">
        <ele>131.5</ele>
        <time>2025-02-25T14:05:37Z</time>
      </trkpt>
      <trkpt lat="48.10369" lon="-3.53729">
        <ele>131.5</ele>
        <time>2025-02-25T14:05:38Z</time>
      </trkpt>
      <trkpt lat="48.10368" lon="-3.53727">
        <ele>131.4</ele>
        <time>2025-02-25T14:05:39Z</time>
      </trkpt>
      <trkpt lat="48.10367" lon="-3.53726">
        <ele>131.3</ele>
        <time>2025-02-25T14:05:40Z</time>
      </trkpt>
      <trkpt lat="48.10366" lon="-3.53726">
        <ele>131.3</ele>
        <time>2025-02-25T14:05:41Z</time>
      </trkpt>
      <trkpt lat="48.10365" lon="-3.53725">
        <ele>131.2</ele>
        <time>2025-02-25T14:05:42Z</time>
      </trkpt>
      <trkpt lat="48.10364" lon="-3.53724">
        <ele>131.2</ele>
        <time>2025-02-25T14:05:43Z</time>
      </trkpt>
      <trkpt lat="48.10363" lon="-3.53723">
        <ele>131.1</ele>
        <time>2025-02-25T14:05:44Z</time>
      </trkpt>
      <trkpt lat="48.10362" lon="-3.53722">
        <ele>131.1</ele>
        <time>2025-02-25T14:05:45Z</time>
      </trkpt>
      <trkpt lat="48.10362" lon="-3.5372">
        <ele>131.3</ele>
        <time>2025-02-25T14:05:46Z</time>
      </trkpt>
      <trkpt lat="48.1036" lon="-3.5372">
        <ele>131.2</ele>
        <time>2025-02-25T14:05:47Z</time>
      </trkpt>
      <trkpt lat="48.10358" lon="-3.5372">
        <ele>131.2</ele>
        <time>2025-02-25T14:05:48Z</time>
      </trkpt>
      <trkpt lat="48.10357" lon="-3.53719">
        <ele>131.3</ele>
        <time>2025-02-25T14:05:49Z</time>
      </trkpt>
      <trkpt lat="48.10356" lon="-3.53719">
        <ele>131.3</ele>
        <time>2025-02-25T14:05:50Z</time>
      </trkpt>
      <trkpt lat="48.10355" lon="-3.53718">
        <ele>131.4</ele>
        <time>2025-02-25T14:05:51Z</time>
      </trkpt>
      <trkpt lat="48.10354" lon="-3.53718">
        <ele>131.4</ele>
        <time>2025-02-25T14:05:52Z</time>
      </trkpt>
      <trkpt lat="48.10353" lon="-3.53717">
        <ele>131.5</ele>
        <time>2025-02-25T14:05:53Z</time>
      </trkpt>
      <trkpt lat="48.10351" lon="-3.53717">
        <ele>131.5</ele>
        <time>2025-02-25T14:05:54Z</time>
      </trkpt>
      <trkpt lat="48.1035" lon="-3.53718">
        <ele>131.4</ele>
        <time>2025-02-25T14:05:55Z</time>
      </trkpt>
      <trkpt lat="48.10349" lon="-3.53718">
        <ele>131.4</ele>
        <time>2025-02-25T14:05:56Z</time>
      </trkpt>
      <trkpt lat="48.10348" lon="-3.53718">
        <ele>131.4</ele>
        <time>2025-02-25T14:05:57Z</time>
      </trkpt>
      <trkpt lat="48.10347" lon="-3.53717">
        <ele>131.5</ele>
        <time>2025-02-25T14:05:58Z</time>
      </trkpt>
      <trkpt lat="48.10345" lon="-3.53717">
        <ele>131.5</ele>
        <time>2025-02-25T14:05:59Z</time>
      </trkpt>
      <trkpt lat="48.10344" lon="-3.53717">
        <ele>131.4</ele>
        <time>2025-02-25T14:06:00Z</time>
      </trkpt>
      <trkpt lat="48.10343" lon="-3.53717">
        <ele>131.4</ele>
        <time>2025-02-25T14:06:01Z</time>
      </trkpt>
      <trkpt lat="48.10341" lon="-3.53717">
        <ele>131.4</ele>
        <time>2025-02-25T14:06:02Z</time>
      </trkpt>
      <trkpt lat="48.1034" lon="-3.53717">
        <ele>131.4</ele>
        <time>2025-02-25T14:06:03Z</time>
      </trkpt>
      <trkpt lat="48.10338" lon="-3.53717">
        <ele>131.4</ele>
        <time>2025-02-25T14:06:04Z</time>
      </trkpt>
      <trkpt lat="48.10337" lon="-3.53718">
        <ele>131.3</ele>
        <time>2025-02-25T14:06:05Z</time>
      </trkpt>
      <trkpt lat="48.10335" lon="-3.53717">
        <ele>131.4</ele>
        <time>2025-02-25T14:06:06Z</time>
      </trkpt>
      <trkpt lat="48.10334" lon="-3.53717">
        <ele>131.4</ele>
        <time>2025-02-25T14:06:07Z</time>
      </trkpt>
      <trkpt lat="48.10332" lon="-3.53716">
        <ele>131.4</ele>
        <time>2025-02-25T14:06:08Z</time>
      </trkpt>
      <trkpt lat="48.10331" lon="-3.53717">
        <ele>131.3</ele>
        <time>2025-02-25T14:06:09Z</time>
      </trkpt>
      <trkpt lat="48.1033" lon="-3.53717">
        <ele>131.2</ele>
        <time>2025-02-25T14:06:10Z</time>
      </trkpt>
      <trkpt lat="48.10329" lon="-3.53717">
        <ele>131.2</ele>
        <time>2025-02-25T14:06:11Z</time>
      </trkpt>
      <trkpt lat="48.10328" lon="-3.53716">
        <ele>131.2</ele>
        <time>2025-02-25T14:06:12Z</time>
      </trkpt>
      <trkpt lat="48.10327" lon="-3.53716">
        <ele>131.2</ele>
        <time>2025-02-25T14:06:13Z</time>
      </trkpt>
      <trkpt lat="48.10325" lon="-3.53716">
        <ele>131.1</ele>
        <time>2025-02-25T14:06:14Z</time>
      </trkpt>
      <trkpt lat="48.10324" lon="-3.53716">
        <ele>131</ele>
        <time>2025-02-25T14:06:15Z</time>
      </trkpt>
      <trkpt lat="48.10323" lon="-3.53716">
        <ele>131</ele>
        <time>2025-02-25T14:06:16Z</time>
      </trkpt>
      <trkpt lat="48.10322" lon="-3.53716">
        <ele>130.9</ele>
        <time>2025-02-25T14:06:17Z</time>
      </trkpt>
      <trkpt lat="48.10321" lon="-3.53715">
        <ele>131</ele>
        <time>2025-02-25T14:06:18Z</time>
      </trkpt>
      <trkpt lat="48.1032" lon="-3.53715">
        <ele>130.9</ele>
        <time>2025-02-25T14:06:19Z</time>
      </trkpt>
      <trkpt lat="48.10319" lon="-3.53716">
        <ele>130.8</ele>
        <time>2025-02-25T14:06:20Z</time>
      </trkpt>
      <trkpt lat="48.10318" lon="-3.53717">
        <ele>130.7</ele>
        <time>2025-02-25T14:06:21Z</time>
      </trkpt>
      <trkpt lat="48.10317" lon="-3.53719">
        <ele>130.6</ele>
        <time>2025-02-25T14:06:22Z</time>
      </trkpt>
      <trkpt lat="48.10316" lon="-3.53719">
        <ele>130.5</ele>
        <time>2025-02-25T14:06:23Z</time>
      </trkpt>
      <trkpt lat="48.10315" lon="-3.53719">
        <ele>130.5</ele>
        <time>2025-02-25T14:06:24Z</time>
      </trkpt>
      <trkpt lat="48.10314" lon="-3.53719">
        <ele>130.5</ele>
        <time>2025-02-25T14:06:25Z</time>
      </trkpt>
      <trkpt lat="48.10313" lon="-3.53719">
        <ele>130.4</ele>
        <time>2025-02-25T14:06:26Z</time>
      </trkpt>
      <trkpt lat="48.10312" lon="-3.53719">
        <ele>130.4</ele>
        <time>2025-02-25T14:06:27Z</time>
      </trkpt>
      <trkpt lat="48.1031" lon="-3.53718">
        <ele>130.3</ele>
        <time>2025-02-25T14:06:28Z</time>
      </trkpt>
      <trkpt lat="48.10309" lon="-3.53717">
        <ele>130.3</ele>
        <time>2025-02-25T14:06:29Z</time>
      </trkpt>
      <trkpt lat="48.10308" lon="-3.53718">
        <ele>130.3</ele>
        <time>2025-02-25T14:06:30Z</time>
      </trkpt>
      <trkpt lat="48.10307" lon="-3.53718">
        <ele>130.2</ele>
        <time>2025-02-25T14:06:31Z</time>
      </trkpt>
      <trkpt lat="48.10306" lon="-3.53718">
        <ele>130.2</ele>
        <time>2025-02-25T14:06:32Z</time>
      </trkpt>
      <trkpt lat="48.10305" lon="-3.53719">
        <ele>130.1</ele>
        <time>2025-02-25T14:06:33Z</time>
      </trkpt>
      <trkpt lat="48.10304" lon="-3.53719">
        <ele>130.2</ele>
        <time>2025-02-25T14:06:34Z</time>
      </trkpt>
      <trkpt lat="48.10303" lon="-3.53719">
        <ele>130.2</ele>
        <time>2025-02-25T14:06:35Z</time>
      </trkpt>
      <trkpt lat="48.10302" lon="-3.53719">
        <ele>130.2</ele>
        <time>2025-02-25T14:06:36Z</time>
      </trkpt>
      <trkpt lat="48.10301" lon="-3.53719">
        <ele>130.2</ele>
        <time>2025-02-25T14:06:37Z</time>
      </trkpt>
      <trkpt lat="48.10301" lon="-3.53719">
        <ele>130.2</ele>
        <time>2025-02-25T14:06:38Z</time>
      </trkpt>
      <trkpt lat="48.103" lon="-3.53721">
        <ele>130.2</ele>
        <time>2025-02-25T14:06:39Z</time>
      </trkpt>
      <trkpt lat="48.10299" lon="-3.53722">
        <ele>130.2</ele>
        <time>2025-02-25T14:06:40Z</time>
      </trkpt>
      <trkpt lat="48.10299" lon="-3.53722">
        <ele>130.2</ele>
        <time>2025-02-25T14:06:41Z</time>
      </trkpt>
      <trkpt lat="48.103" lon="-3.53722">
        <ele>130.2</ele>
        <time>2025-02-25T14:06:42Z</time>
      </trkpt>
      <trkpt lat="48.10298" lon="-3.53721">
        <ele>130.3</ele>
        <time>2025-02-25T14:06:43Z</time>
      </trkpt>
      <trkpt lat="48.10297" lon="-3.5372">
        <ele>130.3</ele>
        <time>2025-02-25T14:06:44Z</time>
      </trkpt>
      <trkpt lat="48.10297" lon="-3.53719">
        <ele>130.3</ele>
        <time>2025-02-25T14:06:45Z</time>
      </trkpt>
      <trkpt lat="48.10296" lon="-3.53718">
        <ele>130.3</ele>
        <time>2025-02-25T14:06:46Z</time>
      </trkpt>
      <trkpt lat="48.10295" lon="-3.53718">
        <ele>130.4</ele>
        <time>2025-02-25T14:06:47Z</time>
      </trkpt>
      <trkpt lat="48.10294" lon="-3.53717">
        <ele>130.4</ele>
        <time>2025-02-25T14:06:48Z</time>
      </trkpt>
      <trkpt lat="48.10293" lon="-3.53717">
        <ele>130.4</ele>
        <time>2025-02-25T14:06:49Z</time>
      </trkpt>
      <trkpt lat="48.10292" lon="-3.53716">
        <ele>130.4</ele>
        <time>2025-02-25T14:06:50Z</time>
      </trkpt>
      <trkpt lat="48.10291" lon="-3.53715">
        <ele>130.4</ele>
        <time>2025-02-25T14:06:51Z</time>
      </trkpt>
      <trkpt lat="48.1029" lon="-3.53714">
        <ele>130.4</ele>
        <time>2025-02-25T14:06:52Z</time>
      </trkpt>
      <trkpt lat="48.1029" lon="-3.53715">
        <ele>130.4</ele>
        <time>2025-02-25T14:06:53Z</time>
      </trkpt>
      <trkpt lat="48.10288" lon="-3.53714">
        <ele>130.4</ele>
        <time>2025-02-25T14:06:54Z</time>
      </trkpt>
      <trkpt lat="48.10287" lon="-3.53714">
        <ele>130.4</ele>
        <time>2025-02-25T14:06:55Z</time>
      </trkpt>
      <trkpt lat="48.10286" lon="-3.53713">
        <ele>130.3</ele>
        <time>2025-02-25T14:06:56Z</time>
      </trkpt>
      <trkpt lat="48.10286" lon="-3.53712">
        <ele>130.3</ele>
        <time>2025-02-25T14:06:57Z</time>
      </trkpt>
      <trkpt lat="48.10285" lon="-3.53712">
        <ele>130.3</ele>
        <time>2025-02-25T14:06:58Z</time>
      </trkpt>
      <trkpt lat="48.10283" lon="-3.53713">
        <ele>130.3</ele>
        <time>2025-02-25T14:06:59Z</time>
      </trkpt>
      <trkpt lat="48.10282" lon="-3.53712">
        <ele>130.3</ele>
        <time>2025-02-25T14:07:00Z</time>
      </trkpt>
      <trkpt lat="48.10281" lon="-3.53712">
        <ele>130.3</ele>
        <time>2025-02-25T14:07:01Z</time>
      </trkpt>
      <trkpt lat="48.1028" lon="-3.53711">
        <ele>130.2</ele>
        <time>2025-02-25T14:07:02Z</time>
      </trkpt>
      <trkpt lat="48.10279" lon="-3.53711">
        <ele>130.2</ele>
        <time>2025-02-25T14:07:03Z</time>
      </trkpt>
      <trkpt lat="48.10278" lon="-3.53712">
        <ele>130.3</ele>
        <time>2025-02-25T14:07:04Z</time>
      </trkpt>
      <trkpt lat="48.10277" lon="-3.53712">
        <ele>130.3</ele>
        <time>2025-02-25T14:07:05Z</time>
      </trkpt>
      <trkpt lat="48.10276" lon="-3.53711">
        <ele>130.2</ele>
        <time>2025-02-25T14:07:06Z</time>
      </trkpt>
      <trkpt lat="48.10275" lon="-3.5371">
        <ele>130.1</ele>
        <time>2025-02-25T14:07:07Z</time>
      </trkpt>
      <trkpt lat="48.10274" lon="-3.53709">
        <ele>130.1</ele>
        <time>2025-02-25T14:07:08Z</time>
      </trkpt>
      <trkpt lat="48.10273" lon="-3.53708">
        <ele>130</ele>
        <time>2025-02-25T14:07:09Z</time>
      </trkpt>
      <trkpt lat="48.10272" lon="-3.53707">
        <ele>129.9</ele>
        <time>2025-02-25T14:07:10Z</time>
      </trkpt>
      <trkpt lat="48.10271" lon="-3.53707">
        <ele>129.9</ele>
        <time>2025-02-25T14:07:11Z</time>
      </trkpt>
      <trkpt lat="48.1027" lon="-3.53707">
        <ele>129.9</ele>
        <time>2025-02-25T14:07:12Z</time>
      </trkpt>
      <trkpt lat="48.10269" lon="-3.53708">
        <ele>130</ele>
        <time>2025-02-25T14:07:13Z</time>
      </trkpt>
      <trkpt lat="48.10268" lon="-3.53707">
        <ele>129.9</ele>
        <time>2025-02-25T14:07:14Z</time>
      </trkpt>
      <trkpt lat="48.10267" lon="-3.53707">
        <ele>129.9</ele>
        <time>2025-02-25T14:07:15Z</time>
      </trkpt>
      <trkpt lat="48.10266" lon="-3.53707">
        <ele>129.9</ele>
        <time>2025-02-25T14:07:16Z</time>
      </trkpt>
      <trkpt lat="48.10265" lon="-3.53707">
        <ele>129.9</ele>
        <time>2025-02-25T14:07:17Z</time>
      </trkpt>
      <trkpt lat="48.10264" lon="-3.53706">
        <ele>129.7</ele>
        <time>2025-02-25T14:07:18Z</time>
      </trkpt>
      <trkpt lat="48.10264" lon="-3.53704">
        <ele>129.5</ele>
        <time>2025-02-25T14:07:19Z</time>
      </trkpt>
      <trkpt lat="48.10263" lon="-3.53704">
        <ele>129.5</ele>
        <time>2025-02-25T14:07:20Z</time>
      </trkpt>
      <trkpt lat="48.10262" lon="-3.53703">
        <ele>129.4</ele>
        <time>2025-02-25T14:07:21Z</time>
      </trkpt>
      <trkpt lat="48.10261" lon="-3.53702">
        <ele>129.3</ele>
        <time>2025-02-25T14:07:22Z</time>
      </trkpt>
      <trkpt lat="48.10259" lon="-3.53702">
        <ele>129.2</ele>
        <time>2025-02-25T14:07:23Z</time>
      </trkpt>
      <trkpt lat="48.10258" lon="-3.53701">
        <ele>129.1</ele>
        <time>2025-02-25T14:07:24Z</time>
      </trkpt>
      <trkpt lat="48.10257" lon="-3.537">
        <ele>129</ele>
        <time>2025-02-25T14:07:25Z</time>
      </trkpt>
      <trkpt lat="48.10256" lon="-3.537">
        <ele>128.9</ele>
        <time>2025-02-25T14:07:26Z</time>
      </trkpt>
      <trkpt lat="48.10256" lon="-3.537">
        <ele>128.9</ele>
        <time>2025-02-25T14:07:27Z</time>
      </trkpt>
      <trkpt lat="48.10255" lon="-3.537">
        <ele>128.9</ele>
        <time>2025-02-25T14:07:28Z</time>
      </trkpt>
      <trkpt lat="48.10254" lon="-3.537">
        <ele>128.9</ele>
        <time>2025-02-25T14:07:29Z</time>
      </trkpt>
      <trkpt lat="48.10253" lon="-3.53699">
        <ele>128.7</ele>
        <time>2025-02-25T14:07:30Z</time>
      </trkpt>
      <trkpt lat="48.10252" lon="-3.53698">
        <ele>128.6</ele>
        <time>2025-02-25T14:07:31Z</time>
      </trkpt>
      <trkpt lat="48.10251" lon="-3.53697">
        <ele>128.4</ele>
        <time>2025-02-25T14:07:32Z</time>
      </trkpt>
      <trkpt lat="48.1025" lon="-3.53697">
        <ele>128.4</ele>
        <time>2025-02-25T14:07:33Z</time>
      </trkpt>
      <trkpt lat="48.10249" lon="-3.53696">
        <ele>128.2</ele>
        <time>2025-02-25T14:07:34Z</time>
      </trkpt>
      <trkpt lat="48.10248" lon="-3.53696">
        <ele>128.2</ele>
        <time>2025-02-25T14:07:35Z</time>
      </trkpt>
      <trkpt lat="48.10247" lon="-3.53696">
        <ele>128.2</ele>
        <time>2025-02-25T14:07:36Z</time>
      </trkpt>
      <trkpt lat="48.10246" lon="-3.53696">
        <ele>128.2</ele>
        <time>2025-02-25T14:07:37Z</time>
      </trkpt>
      <trkpt lat="48.10245" lon="-3.53695">
        <ele>128.1</ele>
        <time>2025-02-25T14:07:38Z</time>
      </trkpt>
      <trkpt lat="48.10244" lon="-3.53693">
        <ele>128</ele>
        <time>2025-02-25T14:07:39Z</time>
      </trkpt>
      <trkpt lat="48.10243" lon="-3.53692">
        <ele>128</ele>
        <time>2025-02-25T14:07:40Z</time>
      </trkpt>
      <trkpt lat="48.10242" lon="-3.53692">
        <ele>128</ele>
        <time>2025-02-25T14:07:41Z</time>
      </trkpt>
      <trkpt lat="48.10241" lon="-3.53693">
        <ele>128</ele>
        <time>2025-02-25T14:07:42Z</time>
      </trkpt>
      <trkpt lat="48.1024" lon="-3.53692">
        <ele>128</ele>
        <time>2025-02-25T14:07:43Z</time>
      </trkpt>
      <trkpt lat="48.10238" lon="-3.53693">
        <ele>128</ele>
        <time>2025-02-25T14:07:44Z</time>
      </trkpt>
      <trkpt lat="48.10237" lon="-3.53692">
        <ele>128</ele>
        <time>2025-02-25T14:07:45Z</time>
      </trkpt>
      <trkpt lat="48.10236" lon="-3.53692">
        <ele>128</ele>
        <time>2025-02-25T14:07:46Z</time>
      </trkpt>
      <trkpt lat="48.10235" lon="-3.53691">
        <ele>127.9</ele>
        <time>2025-02-25T14:07:47Z</time>
      </trkpt>
      <trkpt lat="48.10234" lon="-3.53691">
        <ele>127.9</ele>
        <time>2025-02-25T14:07:48Z</time>
      </trkpt>
      <trkpt lat="48.10233" lon="-3.5369">
        <ele>127.9</ele>
        <time>2025-02-25T14:07:49Z</time>
      </trkpt>
      <trkpt lat="48.10232" lon="-3.5369">
        <ele>127.9</ele>
        <time>2025-02-25T14:07:50Z</time>
      </trkpt>
      <trkpt lat="48.10231" lon="-3.53689">
        <ele>127.9</ele>
        <time>2025-02-25T14:07:51Z</time>
      </trkpt>
      <trkpt lat="48.1023" lon="-3.53687">
        <ele>127.8</ele>
        <time>2025-02-25T14:07:52Z</time>
      </trkpt>
      <trkpt lat="48.10228" lon="-3.53686">
        <ele>127.8</ele>
        <time>2025-02-25T14:07:53Z</time>
      </trkpt>
      <trkpt lat="48.10226" lon="-3.53686">
        <ele>127.7</ele>
        <time>2025-02-25T14:07:54Z</time>
      </trkpt>
      <trkpt lat="48.10225" lon="-3.53686">
        <ele>127.7</ele>
        <time>2025-02-25T14:07:55Z</time>
      </trkpt>
      <trkpt lat="48.10223" lon="-3.53686">
        <ele>127.7</ele>
        <time>2025-02-25T14:07:56Z</time>
      </trkpt>
      <trkpt lat="48.10222" lon="-3.53686">
        <ele>127.7</ele>
        <time>2025-02-25T14:07:57Z</time>
      </trkpt>
      <trkpt lat="48.10221" lon="-3.53686">
        <ele>127.7</ele>
        <time>2025-02-25T14:07:58Z</time>
      </trkpt>
      <trkpt lat="48.1022" lon="-3.53686">
        <ele>127.6</ele>
        <time>2025-02-25T14:07:59Z</time>
      </trkpt>
      <trkpt lat="48.10219" lon="-3.53686">
        <ele>127.6</ele>
        <time>2025-02-25T14:08:00Z</time>
      </trkpt>
      <trkpt lat="48.10218" lon="-3.53686">
        <ele>127.5</ele>
        <time>2025-02-25T14:08:01Z</time>
      </trkpt>
      <trkpt lat="48.10217" lon="-3.53686">
        <ele>127.5</ele>
        <time>2025-02-25T14:08:02Z</time>
      </trkpt>
      <trkpt lat="48.10216" lon="-3.53686">
        <ele>127.5</ele>
        <time>2025-02-25T14:08:03Z</time>
      </trkpt>
      <trkpt lat="48.10215" lon="-3.53686">
        <ele>127.4</ele>
        <time>2025-02-25T14:08:04Z</time>
      </trkpt>
      <trkpt lat="48.10214" lon="-3.53686">
        <ele>127.4</ele>
        <time>2025-02-25T14:08:05Z</time>
      </trkpt>
      <trkpt lat="48.10213" lon="-3.53687">
        <ele>127.4</ele>
        <time>2025-02-25T14:08:06Z</time>
      </trkpt>
      <trkpt lat="48.10212" lon="-3.53687">
        <ele>127.4</ele>
        <time>2025-02-25T14:08:07Z</time>
      </trkpt>
      <trkpt lat="48.10211" lon="-3.53687">
        <ele>127.3</ele>
        <time>2025-02-25T14:08:08Z</time>
      </trkpt>
      <trkpt lat="48.1021" lon="-3.53687">
        <ele>127.3</ele>
        <time>2025-02-25T14:08:09Z</time>
      </trkpt>
      <trkpt lat="48.10209" lon="-3.53686">
        <ele>127.2</ele>
        <time>2025-02-25T14:08:10Z</time>
      </trkpt>
      <trkpt lat="48.10207" lon="-3.53686">
        <ele>127.1</ele>
        <time>2025-02-25T14:08:11Z</time>
      </trkpt>
      <trkpt lat="48.10206" lon="-3.53687">
        <ele>127.1</ele>
        <time>2025-02-25T14:08:12Z</time>
      </trkpt>
      <trkpt lat="48.10205" lon="-3.53687">
        <ele>127.1</ele>
        <time>2025-02-25T14:08:13Z</time>
      </trkpt>
      <trkpt lat="48.10204" lon="-3.53688">
        <ele>127.1</ele>
        <time>2025-02-25T14:08:14Z</time>
      </trkpt>
      <trkpt lat="48.10203" lon="-3.53688">
        <ele>127.1</ele>
        <time>2025-02-25T14:08:15Z</time>
      </trkpt>
      <trkpt lat="48.10201" lon="-3.53688">
        <ele>127</ele>
        <time>2025-02-25T14:08:16Z</time>
      </trkpt>
      <trkpt lat="48.102" lon="-3.53688">
        <ele>127</ele>
        <time>2025-02-25T14:08:17Z</time>
      </trkpt>
      <trkpt lat="48.102" lon="-3.53688">
        <ele>127</ele>
        <time>2025-02-25T14:08:18Z</time>
      </trkpt>
      <trkpt lat="48.10198" lon="-3.53688">
        <ele>126.9</ele>
        <time>2025-02-25T14:08:19Z</time>
      </trkpt>
      <trkpt lat="48.10197" lon="-3.53689">
        <ele>126.9</ele>
        <time>2025-02-25T14:08:20Z</time>
      </trkpt>
      <trkpt lat="48.10197" lon="-3.53689">
        <ele>126.9</ele>
        <time>2025-02-25T14:08:21Z</time>
      </trkpt>
      <trkpt lat="48.10195" lon="-3.53688">
        <ele>126.8</ele>
        <time>2025-02-25T14:08:22Z</time>
      </trkpt>
      <trkpt lat="48.10194" lon="-3.53689">
        <ele>126.8</ele>
        <time>2025-02-25T14:08:23Z</time>
      </trkpt>
      <trkpt lat="48.10193" lon="-3.53689">
        <ele>126.8</ele>
        <time>2025-02-25T14:08:24Z</time>
      </trkpt>
      <trkpt lat="48.10193" lon="-3.5369">
        <ele>126.8</ele>
        <time>2025-02-25T14:08:25Z</time>
      </trkpt>
      <trkpt lat="48.10192" lon="-3.5369">
        <ele>126.8</ele>
        <time>2025-02-25T14:08:26Z</time>
      </trkpt>
      <trkpt lat="48.10191" lon="-3.53691">
        <ele>126.8</ele>
        <time>2025-02-25T14:08:27Z</time>
      </trkpt>
      <trkpt lat="48.1019" lon="-3.53691">
        <ele>126.7</ele>
        <time>2025-02-25T14:08:28Z</time>
      </trkpt>
      <trkpt lat="48.10189" lon="-3.53692">
        <ele>126.7</ele>
        <time>2025-02-25T14:08:29Z</time>
      </trkpt>
      <trkpt lat="48.10189" lon="-3.53694">
        <ele>126.8</ele>
        <time>2025-02-25T14:08:30Z</time>
      </trkpt>
      <trkpt lat="48.10188" lon="-3.53695">
        <ele>126.8</ele>
        <time>2025-02-25T14:08:31Z</time>
      </trkpt>
      <trkpt lat="48.10188" lon="-3.53696">
        <ele>126.9</ele>
        <time>2025-02-25T14:08:32Z</time>
      </trkpt>
      <trkpt lat="48.10187" lon="-3.53696">
        <ele>126.9</ele>
        <time>2025-02-25T14:08:33Z</time>
      </trkpt>
      <trkpt lat="48.10186" lon="-3.53697">
        <ele>126.9</ele>
        <time>2025-02-25T14:08:34Z</time>
      </trkpt>
      <trkpt lat="48.10185" lon="-3.53697">
        <ele>126.9</ele>
        <time>2025-02-25T14:08:35Z</time>
      </trkpt>
      <trkpt lat="48.10184" lon="-3.53697">
        <ele>126.9</ele>
        <time>2025-02-25T14:08:36Z</time>
      </trkpt>
      <trkpt lat="48.10183" lon="-3.53698">
        <ele>126.9</ele>
        <time>2025-02-25T14:08:37Z</time>
      </trkpt>
      <trkpt lat="48.10182" lon="-3.53699">
        <ele>127</ele>
        <time>2025-02-25T14:08:38Z</time>
      </trkpt>
      <trkpt lat="48.10182" lon="-3.53699">
        <ele>127</ele>
        <time>2025-02-25T14:08:39Z</time>
      </trkpt>
      <trkpt lat="48.10181" lon="-3.537">
        <ele>127</ele>
        <time>2025-02-25T14:08:40Z</time>
      </trkpt>
      <trkpt lat="48.10181" lon="-3.53701">
        <ele>127.1</ele>
        <time>2025-02-25T14:08:41Z</time>
      </trkpt>
      <trkpt lat="48.10181" lon="-3.53701">
        <ele>127.1</ele>
        <time>2025-02-25T14:08:42Z</time>
      </trkpt>
      <trkpt lat="48.10182" lon="-3.537">
        <ele>127.1</ele>
        <time>2025-02-25T14:08:43Z</time>
      </trkpt>
      <trkpt lat="48.10184" lon="-3.53702">
        <ele>127.3</ele>
        <time>2025-02-25T14:08:44Z</time>
      </trkpt>
      <trkpt lat="48.10183" lon="-3.53706">
        <ele>127.7</ele>
        <time>2025-02-25T14:08:45Z</time>
      </trkpt>
      <trkpt lat="48.10182" lon="-3.53707">
        <ele>127.7</ele>
        <time>2025-02-25T14:08:46Z</time>
      </trkpt>
      <trkpt lat="48.10183" lon="-3.53708">
        <ele>127.9</ele>
        <time>2025-02-25T14:08:47Z</time>
      </trkpt>
      <trkpt lat="48.10182" lon="-3.53709">
        <ele>127.9</ele>
        <time>2025-02-25T14:08:48Z</time>
      </trkpt>
      <trkpt lat="48.10181" lon="-3.5371">
        <ele>127.9</ele>
        <time>2025-02-25T14:08:49Z</time>
      </trkpt>
      <trkpt lat="48.1018" lon="-3.53711">
        <ele>128</ele>
        <time>2025-02-25T14:08:50Z</time>
      </trkpt>
      <trkpt lat="48.1018" lon="-3.53713">
        <ele>128.1</ele>
        <time>2025-02-25T14:08:51Z</time>
      </trkpt>
      <trkpt lat="48.1018" lon="-3.53715">
        <ele>128.3</ele>
        <time>2025-02-25T14:08:52Z</time>
      </trkpt>
      <trkpt lat="48.10179" lon="-3.53717">
        <ele>128.4</ele>
        <time>2025-02-25T14:08:53Z</time>
      </trkpt>
      <trkpt lat="48.10179" lon="-3.53718">
        <ele>128.5</ele>
        <time>2025-02-25T14:08:54Z</time>
      </trkpt>
      <trkpt lat="48.10179" lon="-3.53719">
        <ele>128.6</ele>
        <time>2025-02-25T14:08:55Z</time>
      </trkpt>
      <trkpt lat="48.10178" lon="-3.5372">
        <ele>128.6</ele>
        <time>2025-02-25T14:08:56Z</time>
      </trkpt>
      <trkpt lat="48.10179" lon="-3.53722">
        <ele>128.9</ele>
        <time>2025-02-25T14:08:57Z</time>
      </trkpt>
      <trkpt lat="48.10178" lon="-3.53724">
        <ele>129</ele>
        <time>2025-02-25T14:08:58Z</time>
      </trkpt>
      <trkpt lat="48.10178" lon="-3.53725">
        <ele>129.2</ele>
        <time>2025-02-25T14:08:59Z</time>
      </trkpt>
      <trkpt lat="48.10178" lon="-3.53726">
        <ele>129.3</ele>
        <time>2025-02-25T14:09:00Z</time>
      </trkpt>
      <trkpt lat="48.10178" lon="-3.53728">
        <ele>129.6</ele>
        <time>2025-02-25T14:09:01Z</time>
      </trkpt>
      <trkpt lat="48.10178" lon="-3.5373">
        <ele>129.8</ele>
        <time>2025-02-25T14:09:02Z</time>
      </trkpt>
      <trkpt lat="48.10179" lon="-3.53731">
        <ele>130</ele>
        <time>2025-02-25T14:09:03Z</time>
      </trkpt>
      <trkpt lat="48.10179" lon="-3.53731">
        <ele>130</ele>
        <time>2025-02-25T14:09:04Z</time>
      </trkpt>
      <trkpt lat="48.10179" lon="-3.53732">
        <ele>130.1</ele>
        <time>2025-02-25T14:09:05Z</time>
      </trkpt>
      <trkpt lat="48.1018" lon="-3.53733">
        <ele>130.3</ele>
        <time>2025-02-25T14:09:06Z</time>
      </trkpt>
      <trkpt lat="48.10181" lon="-3.53734">
        <ele>130.5</ele>
        <time>2025-02-25T14:09:07Z</time>
      </trkpt>
      <trkpt lat="48.10181" lon="-3.53735">
        <ele>130.6</ele>
        <time>2025-02-25T14:09:08Z</time>
      </trkpt>
      <trkpt lat="48.10182" lon="-3.53736">
        <ele>130.8</ele>
        <time>2025-02-25T14:09:09Z</time>
      </trkpt>
      <trkpt lat="48.10182" lon="-3.53737">
        <ele>130.9</ele>
        <time>2025-02-25T14:09:10Z</time>
      </trkpt>
      <trkpt lat="48.10182" lon="-3.53739">
        <ele>131.2</ele>
        <time>2025-02-25T14:09:11Z</time>
      </trkpt>
      <trkpt lat="48.10183" lon="-3.5374">
        <ele>131.4</ele>
        <time>2025-02-25T14:09:12Z</time>
      </trkpt>
      <trkpt lat="48.10183" lon="-3.53741">
        <ele>131.5</ele>
        <time>2025-02-25T14:09:13Z</time>
      </trkpt>
      <trkpt lat="48.10183" lon="-3.53743">
        <ele>131.7</ele>
        <time>2025-02-25T14:09:14Z</time>
      </trkpt>
      <trkpt lat="48.10183" lon="-3.53744">
        <ele>131.9</ele>
        <time>2025-02-25T14:09:15Z</time>
      </trkpt>
      <trkpt lat="48.10183" lon="-3.53745">
        <ele>132</ele>
        <time>2025-02-25T14:09:16Z</time>
      </trkpt>
      <trkpt lat="48.10182" lon="-3.53746">
        <ele>132.1</ele>
        <time>2025-02-25T14:09:17Z</time>
      </trkpt>
      <trkpt lat="48.10182" lon="-3.53747">
        <ele>132.2</ele>
        <time>2025-02-25T14:09:18Z</time>
      </trkpt>
      <trkpt lat="48.10183" lon="-3.53748">
        <ele>132.3</ele>
        <time>2025-02-25T14:09:19Z</time>
      </trkpt>
      <trkpt lat="48.10183" lon="-3.5375">
        <ele>132.6</ele>
        <time>2025-02-25T14:09:20Z</time>
      </trkpt>
      <trkpt lat="48.10182" lon="-3.53751">
        <ele>132.6</ele>
        <time>2025-02-25T14:09:21Z</time>
      </trkpt>
      <trkpt lat="48.10182" lon="-3.53752">
        <ele>132.7</ele>
        <time>2025-02-25T14:09:22Z</time>
      </trkpt>
      <trkpt lat="48.10182" lon="-3.53753">
        <ele>132.8</ele>
        <time>2025-02-25T14:09:23Z</time>
      </trkpt>
      <trkpt lat="48.10183" lon="-3.53754">
        <ele>133</ele>
        <time>2025-02-25T14:09:24Z</time>
      </trkpt>
      <trkpt lat="48.10183" lon="-3.53755">
        <ele>133.1</ele>
        <time>2025-02-25T14:09:25Z</time>
      </trkpt>
      <trkpt lat="48.10183" lon="-3.53756">
        <ele>133.1</ele>
        <time>2025-02-25T14:09:26Z</time>
      </trkpt>
      <trkpt lat="48.10183" lon="-3.53758">
        <ele>133.3</ele>
        <time>2025-02-25T14:09:27Z</time>
      </trkpt>
      <trkpt lat="48.10183" lon="-3.53759">
        <ele>133.4</ele>
        <time>2025-02-25T14:09:28Z</time>
      </trkpt>
      <trkpt lat="48.10183" lon="-3.5376">
        <ele>133.5</ele>
        <time>2025-02-25T14:09:29Z</time>
      </trkpt>
      <trkpt lat="48.10184" lon="-3.53761">
        <ele>133.7</ele>
        <time>2025-02-25T14:09:30Z</time>
      </trkpt>
      <trkpt lat="48.10184" lon="-3.53763">
        <ele>133.9</ele>
        <time>2025-02-25T14:09:31Z</time>
      </trkpt>
      <trkpt lat="48.10183" lon="-3.53764">
        <ele>133.9</ele>
        <time>2025-02-25T14:09:32Z</time>
      </trkpt>
      <trkpt lat="48.10182" lon="-3.53766">
        <ele>134</ele>
        <time>2025-02-25T14:09:33Z</time>
      </trkpt>
      <trkpt lat="48.10182" lon="-3.53767">
        <ele>134.1</ele>
        <time>2025-02-25T14:09:34Z</time>
      </trkpt>
      <trkpt lat="48.10182" lon="-3.53768">
        <ele>134.2</ele>
        <time>2025-02-25T14:09:35Z</time>
      </trkpt>
      <trkpt lat="48.10182" lon="-3.53769">
        <ele>134.3</ele>
        <time>2025-02-25T14:09:36Z</time>
      </trkpt>
      <trkpt lat="48.10182" lon="-3.5377">
        <ele>134.4</ele>
        <time>2025-02-25T14:09:37Z</time>
      </trkpt>
      <trkpt lat="48.10181" lon="-3.53771">
        <ele>134.4</ele>
        <time>2025-02-25T14:09:38Z</time>
      </trkpt>
      <trkpt lat="48.10181" lon="-3.53772">
        <ele>134.5</ele>
        <time>2025-02-25T14:09:39Z</time>
      </trkpt>
      <trkpt lat="48.10181" lon="-3.53773">
        <ele>134.6</ele>
        <time>2025-02-25T14:09:40Z</time>
      </trkpt>
      <trkpt lat="48.1018" lon="-3.53774">
        <ele>134.6</ele>
        <time>2025-02-25T14:09:41Z</time>
      </trkpt>
      <trkpt lat="48.1018" lon="-3.53775">
        <ele>134.7</ele>
        <time>2025-02-25T14:09:42Z</time>
      </trkpt>
      <trkpt lat="48.10179" lon="-3.53776">
        <ele>134.7</ele>
        <time>2025-02-25T14:09:43Z</time>
      </trkpt>
      <trkpt lat="48.10179" lon="-3.53777">
        <ele>134.8</ele>
        <time>2025-02-25T14:09:44Z</time>
      </trkpt>
      <trkpt lat="48.10179" lon="-3.53778">
        <ele>134.9</ele>
        <time>2025-02-25T14:09:45Z</time>
      </trkpt>
      <trkpt lat="48.10178" lon="-3.53779">
        <ele>134.9</ele>
        <time>2025-02-25T14:09:46Z</time>
      </trkpt>
      <trkpt lat="48.10178" lon="-3.5378">
        <ele>135.1</ele>
        <time>2025-02-25T14:09:47Z</time>
      </trkpt>
      <trkpt lat="48.10178" lon="-3.53781">
        <ele>135.2</ele>
        <time>2025-02-25T14:09:48Z</time>
      </trkpt>
      <trkpt lat="48.10178" lon="-3.53782">
        <ele>135.3</ele>
        <time>2025-02-25T14:09:49Z</time>
      </trkpt>
      <trkpt lat="48.10178" lon="-3.53783">
        <ele>135.4</ele>
        <time>2025-02-25T14:09:50Z</time>
      </trkpt>
      <trkpt lat="48.10178" lon="-3.53784">
        <ele>135.5</ele>
        <time>2025-02-25T14:09:51Z</time>
      </trkpt>
      <trkpt lat="48.10178" lon="-3.53785">
        <ele>135.6</ele>
        <time>2025-02-25T14:09:52Z</time>
      </trkpt>
      <trkpt lat="48.10178" lon="-3.53786">
        <ele>135.7</ele>
        <time>2025-02-25T14:09:53Z</time>
      </trkpt>
      <trkpt lat="48.10177" lon="-3.53787">
        <ele>135.7</ele>
        <time>2025-02-25T14:09:54Z</time>
      </trkpt>
      <trkpt lat="48.10176" lon="-3.53788">
        <ele>135.8</ele>
        <time>2025-02-25T14:09:55Z</time>
      </trkpt>
      <trkpt lat="48.10176" lon="-3.53787">
        <ele>135.7</ele>
        <time>2025-02-25T14:09:56Z</time>
      </trkpt>
      <trkpt lat="48.10175" lon="-3.53788">
        <ele>135.7</ele>
        <time>2025-02-25T14:09:57Z</time>
      </trkpt>
      <trkpt lat="48.10175" lon="-3.53789">
        <ele>135.8</ele>
        <time>2025-02-25T14:09:58Z</time>
      </trkpt>
      <trkpt lat="48.10175" lon="-3.53791">
        <ele>136</ele>
        <time>2025-02-25T14:09:59Z</time>
      </trkpt>
      <trkpt lat="48.10176" lon="-3.53793">
        <ele>136.3</ele>
        <time>2025-02-25T14:10:00Z</time>
      </trkpt>
      <trkpt lat="48.10178" lon="-3.53793">
        <ele>136.5</ele>
        <time>2025-02-25T14:10:01Z</time>
      </trkpt>
      <trkpt lat="48.10179" lon="-3.53794">
        <ele>136.6</ele>
        <time>2025-02-25T14:10:02Z</time>
      </trkpt>
      <trkpt lat="48.10175" lon="-3.53795">
        <ele>136.5</ele>
        <time>2025-02-25T14:10:03Z</time>
      </trkpt>
      <trkpt lat="48.10172" lon="-3.53796">
        <ele>136.4</ele>
        <time>2025-02-25T14:10:04Z</time>
      </trkpt>
      <trkpt lat="48.10171" lon="-3.53797">
        <ele>136.4</ele>
        <time>2025-02-25T14:10:05Z</time>
      </trkpt>
      <trkpt lat="48.1017" lon="-3.53797">
        <ele>136.3</ele>
        <time>2025-02-25T14:10:06Z</time>
      </trkpt>
      <trkpt lat="48.10169" lon="-3.53797">
        <ele>136.2</ele>
        <time>2025-02-25T14:10:07Z</time>
      </trkpt>
      <trkpt lat="48.10169" lon="-3.53798">
        <ele>136.4</ele>
        <time>2025-02-25T14:10:08Z</time>
      </trkpt>
      <trkpt lat="48.10168" lon="-3.53799">
        <ele>136.4</ele>
        <time>2025-02-25T14:10:09Z</time>
      </trkpt>
      <trkpt lat="48.10167" lon="-3.53799">
        <ele>136.3</ele>
        <time>2025-02-25T14:10:10Z</time>
      </trkpt>
      <trkpt lat="48.10167" lon="-3.538">
        <ele>136.4</ele>
        <time>2025-02-25T14:10:11Z</time>
      </trkpt>
      <trkpt lat="48.10166" lon="-3.53801">
        <ele>136.7</ele>
        <time>2025-02-25T14:10:12Z</time>
      </trkpt>
      <trkpt lat="48.10167" lon="-3.53802">
        <ele>136.6</ele>
        <time>2025-02-25T14:10:13Z</time>
      </trkpt>
      <trkpt lat="48.10166" lon="-3.53803">
        <ele>136.9</ele>
        <time>2025-02-25T14:10:14Z</time>
      </trkpt>
      <trkpt lat="48.10167" lon="-3.53804">
        <ele>136.9</ele>
        <time>2025-02-25T14:10:15Z</time>
      </trkpt>
      <trkpt lat="48.10165" lon="-3.53806">
        <ele>137.5</ele>
        <time>2025-02-25T14:10:16Z</time>
      </trkpt>
      <trkpt lat="48.10165" lon="-3.53807">
        <ele>137.6</ele>
        <time>2025-02-25T14:10:17Z</time>
      </trkpt>
      <trkpt lat="48.10164" lon="-3.53807">
        <ele>137.9</ele>
        <time>2025-02-25T14:10:18Z</time>
      </trkpt>
      <trkpt lat="48.10164" lon="-3.53805">
        <ele>137.7</ele>
        <time>2025-02-25T14:10:19Z</time>
      </trkpt>
      <trkpt lat="48.10163" lon="-3.53806">
        <ele>138.1</ele>
        <time>2025-02-25T14:10:20Z</time>
      </trkpt>
      <trkpt lat="48.10163" lon="-3.53807">
        <ele>138.1</ele>
        <time>2025-02-25T14:10:21Z</time>
      </trkpt>
      <trkpt lat="48.10163" lon="-3.53808">
        <ele>138.2</ele>
        <time>2025-02-25T14:10:22Z</time>
      </trkpt>
      <trkpt lat="48.10163" lon="-3.53808">
        <ele>138.2</ele>
        <time>2025-02-25T14:10:23Z</time>
      </trkpt>
      <trkpt lat="48.10162" lon="-3.53809">
        <ele>138.6</ele>
        <time>2025-02-25T14:10:24Z</time>
      </trkpt>
      <trkpt lat="48.10162" lon="-3.53811">
        <ele>138.7</ele>
        <time>2025-02-25T14:10:25Z</time>
      </trkpt>
      <trkpt lat="48.10162" lon="-3.53812">
        <ele>138.7</ele>
        <time>2025-02-25T14:10:26Z</time>
      </trkpt>
      <trkpt lat="48.10161" lon="-3.53813">
        <ele>139.1</ele>
        <time>2025-02-25T14:10:27Z</time>
      </trkpt>
      <trkpt lat="48.10161" lon="-3.53815">
        <ele>139.2</ele>
        <time>2025-02-25T14:10:28Z</time>
      </trkpt>
      <trkpt lat="48.10161" lon="-3.53815">
        <ele>139.2</ele>
        <time>2025-02-25T14:10:29Z</time>
      </trkpt>
      <trkpt lat="48.1016" lon="-3.53815">
        <ele>139.4</ele>
        <time>2025-02-25T14:10:30Z</time>
      </trkpt>
      <trkpt lat="48.10159" lon="-3.53816">
        <ele>139.8</ele>
        <time>2025-02-25T14:10:31Z</time>
      </trkpt>
      <trkpt lat="48.10159" lon="-3.53817">
        <ele>139.8</ele>
        <time>2025-02-25T14:10:32Z</time>
      </trkpt>
      <trkpt lat="48.10159" lon="-3.53819">
        <ele>139.9</ele>
        <time>2025-02-25T14:10:33Z</time>
      </trkpt>
      <trkpt lat="48.1016" lon="-3.5382">
        <ele>139.7</ele>
        <time>2025-02-25T14:10:34Z</time>
      </trkpt>
      <trkpt lat="48.10159" lon="-3.53822">
        <ele>140.1</ele>
        <time>2025-02-25T14:10:35Z</time>
      </trkpt>
      <trkpt lat="48.10159" lon="-3.53824">
        <ele>140.2</ele>
        <time>2025-02-25T14:10:36Z</time>
      </trkpt>
      <trkpt lat="48.10159" lon="-3.53825">
        <ele>140.2</ele>
        <time>2025-02-25T14:10:37Z</time>
      </trkpt>
      <trkpt lat="48.10158" lon="-3.53826">
        <ele>140.5</ele>
        <time>2025-02-25T14:10:38Z</time>
      </trkpt>
      <trkpt lat="48.10158" lon="-3.53826">
        <ele>140.5</ele>
        <time>2025-02-25T14:10:39Z</time>
      </trkpt>
      <trkpt lat="48.10158" lon="-3.53828">
        <ele>140.6</ele>
        <time>2025-02-25T14:10:40Z</time>
      </trkpt>
      <trkpt lat="48.10158" lon="-3.5383">
        <ele>140.7</ele>
        <time>2025-02-25T14:10:41Z</time>
      </trkpt>
      <trkpt lat="48.10158" lon="-3.53832">
        <ele>140.8</ele>
        <time>2025-02-25T14:10:42Z</time>
      </trkpt>
      <trkpt lat="48.10158" lon="-3.53833">
        <ele>140.9</ele>
        <time>2025-02-25T14:10:43Z</time>
      </trkpt>
      <trkpt lat="48.10158" lon="-3.53834">
        <ele>140.9</ele>
        <time>2025-02-25T14:10:44Z</time>
      </trkpt>
      <trkpt lat="48.10158" lon="-3.53836">
        <ele>141</ele>
        <time>2025-02-25T14:10:45Z</time>
      </trkpt>
      <trkpt lat="48.10158" lon="-3.53838">
        <ele>141.1</ele>
        <time>2025-02-25T14:10:46Z</time>
      </trkpt>
      <trkpt lat="48.10158" lon="-3.5384">
        <ele>141.1</ele>
        <time>2025-02-25T14:10:47Z</time>
      </trkpt>
      <trkpt lat="48.10157" lon="-3.53842">
        <ele>141.4</ele>
        <time>2025-02-25T14:10:48Z</time>
      </trkpt>
      <trkpt lat="48.10157" lon="-3.53843">
        <ele>141.4</ele>
        <time>2025-02-25T14:10:49Z</time>
      </trkpt>
      <trkpt lat="48.10157" lon="-3.53845">
        <ele>141.5</ele>
        <time>2025-02-25T14:10:50Z</time>
      </trkpt>
      <trkpt lat="48.10157" lon="-3.53847">
        <ele>141.6</ele>
        <time>2025-02-25T14:10:51Z</time>
      </trkpt>
      <trkpt lat="48.10156" lon="-3.53849">
        <ele>141.8</ele>
        <time>2025-02-25T14:10:52Z</time>
      </trkpt>
      <trkpt lat="48.10155" lon="-3.53851">
        <ele>142</ele>
        <time>2025-02-25T14:10:53Z</time>
      </trkpt>
      <trkpt lat="48.10156" lon="-3.53852">
        <ele>141.9</ele>
        <time>2025-02-25T14:10:54Z</time>
      </trkpt>
      <trkpt lat="48.10157" lon="-3.53854">
        <ele>141.8</ele>
        <time>2025-02-25T14:10:55Z</time>
      </trkpt>
      <trkpt lat="48.10157" lon="-3.53855">
        <ele>141.8</ele>
        <time>2025-02-25T14:10:56Z</time>
      </trkpt>
      <trkpt lat="48.10157" lon="-3.53856">
        <ele>141.9</ele>
        <time>2025-02-25T14:10:57Z</time>
      </trkpt>
      <trkpt lat="48.10158" lon="-3.53857">
        <ele>141.8</ele>
        <time>2025-02-25T14:10:58Z</time>
      </trkpt>
      <trkpt lat="48.10158" lon="-3.53859">
        <ele>141.9</ele>
        <time>2025-02-25T14:10:59Z</time>
      </trkpt>
      <trkpt lat="48.10158" lon="-3.5386">
        <ele>141.9</ele>
        <time>2025-02-25T14:11:00Z</time>
      </trkpt>
      <trkpt lat="48.10157" lon="-3.53861">
        <ele>142</ele>
        <time>2025-02-25T14:11:01Z</time>
      </trkpt>
      <trkpt lat="48.10157" lon="-3.53863">
        <ele>142.2</ele>
        <time>2025-02-25T14:11:02Z</time>
      </trkpt>
      <trkpt lat="48.10157" lon="-3.53865">
        <ele>142.3</ele>
        <time>2025-02-25T14:11:03Z</time>
      </trkpt>
      <trkpt lat="48.10157" lon="-3.53866">
        <ele>142.3</ele>
        <time>2025-02-25T14:11:04Z</time>
      </trkpt>
      <trkpt lat="48.10157" lon="-3.53868">
        <ele>142.4</ele>
        <time>2025-02-25T14:11:05Z</time>
      </trkpt>
      <trkpt lat="48.10157" lon="-3.53871">
        <ele>142.6</ele>
        <time>2025-02-25T14:11:06Z</time>
      </trkpt>
      <trkpt lat="48.10157" lon="-3.53874">
        <ele>142.8</ele>
        <time>2025-02-25T14:11:07Z</time>
      </trkpt>
      <trkpt lat="48.10156" lon="-3.53875">
        <ele>142.9</ele>
        <time>2025-02-25T14:11:08Z</time>
      </trkpt>
      <trkpt lat="48.10157" lon="-3.53877">
        <ele>143</ele>
        <time>2025-02-25T14:11:09Z</time>
      </trkpt>
      <trkpt lat="48.10156" lon="-3.53879">
        <ele>143.1</ele>
        <time>2025-02-25T14:11:10Z</time>
      </trkpt>
      <trkpt lat="48.10155" lon="-3.53881">
        <ele>143.2</ele>
        <time>2025-02-25T14:11:11Z</time>
      </trkpt>
      <trkpt lat="48.10155" lon="-3.53882">
        <ele>143.3</ele>
        <time>2025-02-25T14:11:12Z</time>
      </trkpt>
      <trkpt lat="48.10155" lon="-3.53882">
        <ele>143.3</ele>
        <time>2025-02-25T14:11:13Z</time>
      </trkpt>
      <trkpt lat="48.10155" lon="-3.53883">
        <ele>143.3</ele>
        <time>2025-02-25T14:11:14Z</time>
      </trkpt>
      <trkpt lat="48.10154" lon="-3.53884">
        <ele>143.3</ele>
        <time>2025-02-25T14:11:15Z</time>
      </trkpt>
      <trkpt lat="48.10154" lon="-3.53885">
        <ele>143.4</ele>
        <time>2025-02-25T14:11:16Z</time>
      </trkpt>
      <trkpt lat="48.10154" lon="-3.53886">
        <ele>143.4</ele>
        <time>2025-02-25T14:11:17Z</time>
      </trkpt>
      <trkpt lat="48.10154" lon="-3.53887">
        <ele>143.5</ele>
        <time>2025-02-25T14:11:18Z</time>
      </trkpt>
      <trkpt lat="48.10155" lon="-3.53888">
        <ele>143.5</ele>
        <time>2025-02-25T14:11:19Z</time>
      </trkpt>
      <trkpt lat="48.10155" lon="-3.53889">
        <ele>143.6</ele>
        <time>2025-02-25T14:11:20Z</time>
      </trkpt>
      <trkpt lat="48.10154" lon="-3.5389">
        <ele>143.6</ele>
        <time>2025-02-25T14:11:21Z</time>
      </trkpt>
      <trkpt lat="48.10154" lon="-3.5389">
        <ele>143.6</ele>
        <time>2025-02-25T14:11:22Z</time>
      </trkpt>
      <trkpt lat="48.10154" lon="-3.53892">
        <ele>143.8</ele>
        <time>2025-02-25T14:11:23Z</time>
      </trkpt>
      <trkpt lat="48.10153" lon="-3.53893">
        <ele>143.8</ele>
        <time>2025-02-25T14:11:24Z</time>
      </trkpt>
      <trkpt lat="48.10153" lon="-3.53894">
        <ele>143.9</ele>
        <time>2025-02-25T14:11:25Z</time>
      </trkpt>
      <trkpt lat="48.10153" lon="-3.53895">
        <ele>143.9</ele>
        <time>2025-02-25T14:11:26Z</time>
      </trkpt>
      <trkpt lat="48.10153" lon="-3.53897">
        <ele>144.1</ele>
        <time>2025-02-25T14:11:27Z</time>
      </trkpt>
      <trkpt lat="48.10152" lon="-3.539">
        <ele>144.3</ele>
        <time>2025-02-25T14:11:28Z</time>
      </trkpt>
      <trkpt lat="48.10152" lon="-3.53901">
        <ele>144.3</ele>
        <time>2025-02-25T14:11:29Z</time>
      </trkpt>
      <trkpt lat="48.10152" lon="-3.53902">
        <ele>144.4</ele>
        <time>2025-02-25T14:11:30Z</time>
      </trkpt>
      <trkpt lat="48.10152" lon="-3.53904">
        <ele>144.6</ele>
        <time>2025-02-25T14:11:31Z</time>
      </trkpt>
      <trkpt lat="48.10152" lon="-3.53905">
        <ele>144.6</ele>
        <time>2025-02-25T14:11:32Z</time>
      </trkpt>
      <trkpt lat="48.10152" lon="-3.53907">
        <ele>144.8</ele>
        <time>2025-02-25T14:11:33Z</time>
      </trkpt>
      <trkpt lat="48.10151" lon="-3.53909">
        <ele>144.9</ele>
        <time>2025-02-25T14:11:34Z</time>
      </trkpt>
      <trkpt lat="48.10152" lon="-3.53911">
        <ele>145.1</ele>
        <time>2025-02-25T14:11:35Z</time>
      </trkpt>
      <trkpt lat="48.10152" lon="-3.53913">
        <ele>145.2</ele>
        <time>2025-02-25T14:11:36Z</time>
      </trkpt>
      <trkpt lat="48.10151" lon="-3.53915">
        <ele>145.3</ele>
        <time>2025-02-25T14:11:37Z</time>
      </trkpt>
      <trkpt lat="48.10151" lon="-3.53917">
        <ele>145.5</ele>
        <time>2025-02-25T14:11:38Z</time>
      </trkpt>
      <trkpt lat="48.10151" lon="-3.5392">
        <ele>145.7</ele>
        <time>2025-02-25T14:11:39Z</time>
      </trkpt>
      <trkpt lat="48.10151" lon="-3.53922">
        <ele>145.8</ele>
        <time>2025-02-25T14:11:40Z</time>
      </trkpt>
      <trkpt lat="48.10151" lon="-3.53924">
        <ele>145.9</ele>
        <time>2025-02-25T14:11:41Z</time>
      </trkpt>
      <trkpt lat="48.1015" lon="-3.53926">
        <ele>146</ele>
        <time>2025-02-25T14:11:42Z</time>
      </trkpt>
      <trkpt lat="48.1015" lon="-3.53927">
        <ele>146.1</ele>
        <time>2025-02-25T14:11:43Z</time>
      </trkpt>
      <trkpt lat="48.1015" lon="-3.53929">
        <ele>146.2</ele>
        <time>2025-02-25T14:11:44Z</time>
      </trkpt>
      <trkpt lat="48.10151" lon="-3.5393">
        <ele>146.3</ele>
        <time>2025-02-25T14:11:45Z</time>
      </trkpt>
      <trkpt lat="48.10151" lon="-3.53931">
        <ele>146.4</ele>
        <time>2025-02-25T14:11:46Z</time>
      </trkpt>
      <trkpt lat="48.10151" lon="-3.53932">
        <ele>146.5</ele>
        <time>2025-02-25T14:11:47Z</time>
      </trkpt>
      <trkpt lat="48.10151" lon="-3.53933">
        <ele>146.5</ele>
        <time>2025-02-25T14:11:48Z</time>
      </trkpt>
      <trkpt lat="48.10152" lon="-3.53935">
        <ele>146.8</ele>
        <time>2025-02-25T14:11:49Z</time>
      </trkpt>
      <trkpt lat="48.10151" lon="-3.53936">
        <ele>146.7</ele>
        <time>2025-02-25T14:11:50Z</time>
      </trkpt>
      <trkpt lat="48.10151" lon="-3.53935">
        <ele>146.7</ele>
        <time>2025-02-25T14:11:51Z</time>
      </trkpt>
      <trkpt lat="48.1015" lon="-3.53937">
        <ele>146.7</ele>
        <time>2025-02-25T14:11:52Z</time>
      </trkpt>
      <trkpt lat="48.10149" lon="-3.53938">
        <ele>146.7</ele>
        <time>2025-02-25T14:11:53Z</time>
      </trkpt>
      <trkpt lat="48.10148" lon="-3.53939">
        <ele>146.7</ele>
        <time>2025-02-25T14:11:54Z</time>
      </trkpt>
      <trkpt lat="48.10148" lon="-3.53941">
        <ele>146.8</ele>
        <time>2025-02-25T14:11:55Z</time>
      </trkpt>
      <trkpt lat="48.10148" lon="-3.53939">
        <ele>146.7</ele>
        <time>2025-02-25T14:11:56Z</time>
      </trkpt>
      <trkpt lat="48.10149" lon="-3.53938">
        <ele>146.7</ele>
        <time>2025-02-25T14:11:57Z</time>
      </trkpt>
      <trkpt lat="48.10149" lon="-3.53938">
        <ele>146.7</ele>
        <time>2025-02-25T14:11:58Z</time>
      </trkpt>
      <trkpt lat="48.10148" lon="-3.53938">
        <ele>146.6</ele>
        <time>2025-02-25T14:11:59Z</time>
      </trkpt>
      <trkpt lat="48.10148" lon="-3.53938">
        <ele>146.6</ele>
        <time>2025-02-25T14:12:00Z</time>
      </trkpt>
      <trkpt lat="48.10148" lon="-3.53938">
        <ele>146.6</ele>
        <time>2025-02-25T14:12:01Z</time>
      </trkpt>
      <trkpt lat="48.10148" lon="-3.53942">
        <ele>146.8</ele>
        <time>2025-02-25T14:12:02Z</time>
      </trkpt>
      <trkpt lat="48.10146" lon="-3.53943">
        <ele>146.7</ele>
        <time>2025-02-25T14:12:03Z</time>
      </trkpt>
      <trkpt lat="48.10146" lon="-3.53943">
        <ele>146.7</ele>
        <time>2025-02-25T14:12:04Z</time>
      </trkpt>
      <trkpt lat="48.10145" lon="-3.53944">
        <ele>146.6</ele>
        <time>2025-02-25T14:12:05Z</time>
      </trkpt>
      <trkpt lat="48.10145" lon="-3.53945">
        <ele>146.7</ele>
        <time>2025-02-25T14:12:06Z</time>
      </trkpt>
      <trkpt lat="48.10146" lon="-3.53946">
        <ele>146.9</ele>
        <time>2025-02-25T14:12:07Z</time>
      </trkpt>
      <trkpt lat="48.10146" lon="-3.53947">
        <ele>146.9</ele>
        <time>2025-02-25T14:12:08Z</time>
      </trkpt>
      <trkpt lat="48.10146" lon="-3.53948">
        <ele>147</ele>
        <time>2025-02-25T14:12:09Z</time>
      </trkpt>
      <trkpt lat="48.10146" lon="-3.5395">
        <ele>147.1</ele>
        <time>2025-02-25T14:12:10Z</time>
      </trkpt>
      <trkpt lat="48.10145" lon="-3.53951">
        <ele>147.1</ele>
        <time>2025-02-25T14:12:11Z</time>
      </trkpt>
      <trkpt lat="48.10145" lon="-3.53951">
        <ele>147.1</ele>
        <time>2025-02-25T14:12:12Z</time>
      </trkpt>
      <trkpt lat="48.10145" lon="-3.53952">
        <ele>147.1</ele>
        <time>2025-02-25T14:12:13Z</time>
      </trkpt>
      <trkpt lat="48.10144" lon="-3.53953">
        <ele>147.1</ele>
        <time>2025-02-25T14:12:14Z</time>
      </trkpt>
      <trkpt lat="48.10144" lon="-3.53954">
        <ele>147.2</ele>
        <time>2025-02-25T14:12:15Z</time>
      </trkpt>
      <trkpt lat="48.10144" lon="-3.53956">
        <ele>147.3</ele>
        <time>2025-02-25T14:12:16Z</time>
      </trkpt>
      <trkpt lat="48.10143" lon="-3.53957">
        <ele>147.3</ele>
        <time>2025-02-25T14:12:17Z</time>
      </trkpt>
      <trkpt lat="48.10143" lon="-3.53958">
        <ele>147.3</ele>
        <time>2025-02-25T14:12:18Z</time>
      </trkpt>
      <trkpt lat="48.10142" lon="-3.53959">
        <ele>147.3</ele>
        <time>2025-02-25T14:12:19Z</time>
      </trkpt>
      <trkpt lat="48.10141" lon="-3.5396">
        <ele>147.3</ele>
        <time>2025-02-25T14:12:20Z</time>
      </trkpt>
      <trkpt lat="48.1014" lon="-3.5396">
        <ele>147.2</ele>
        <time>2025-02-25T14:12:21Z</time>
      </trkpt>
      <trkpt lat="48.1014" lon="-3.53962">
        <ele>147.4</ele>
        <time>2025-02-25T14:12:22Z</time>
      </trkpt>
      <trkpt lat="48.1014" lon="-3.53963">
        <ele>147.4</ele>
        <time>2025-02-25T14:12:23Z</time>
      </trkpt>
      <trkpt lat="48.1014" lon="-3.53964">
        <ele>147.5</ele>
        <time>2025-02-25T14:12:24Z</time>
      </trkpt>
      <trkpt lat="48.10139" lon="-3.53964">
        <ele>147.4</ele>
        <time>2025-02-25T14:12:25Z</time>
      </trkpt>
      <trkpt lat="48.10139" lon="-3.53965">
        <ele>147.5</ele>
        <time>2025-02-25T14:12:26Z</time>
      </trkpt>
      <trkpt lat="48.10139" lon="-3.53966">
        <ele>147.6</ele>
        <time>2025-02-25T14:12:27Z</time>
      </trkpt>
      <trkpt lat="48.10139" lon="-3.53967">
        <ele>147.6</ele>
        <time>2025-02-25T14:12:28Z</time>
      </trkpt>
      <trkpt lat="48.1014" lon="-3.53968">
        <ele>147.8</ele>
        <time>2025-02-25T14:12:29Z</time>
      </trkpt>
      <trkpt lat="48.1014" lon="-3.53969">
        <ele>147.9</ele>
        <time>2025-02-25T14:12:30Z</time>
      </trkpt>
      <trkpt lat="48.10142" lon="-3.53966">
        <ele>147.8</ele>
        <time>2025-02-25T14:12:31Z</time>
      </trkpt>
      <trkpt lat="48.10141" lon="-3.53969">
        <ele>147.9</ele>
        <time>2025-02-25T14:12:32Z</time>
      </trkpt>
      <trkpt lat="48.1014" lon="-3.53969">
        <ele>147.9</ele>
        <time>2025-02-25T14:12:33Z</time>
      </trkpt>
      <trkpt lat="48.1014" lon="-3.53969">
        <ele>147.9</ele>
        <time>2025-02-25T14:12:34Z</time>
      </trkpt>
      <trkpt lat="48.1014" lon="-3.53969">
        <ele>147.9</ele>
        <time>2025-02-25T14:12:35Z</time>
      </trkpt>
      <trkpt lat="48.1014" lon="-3.5397">
        <ele>147.9</ele>
        <time>2025-02-25T14:12:36Z</time>
      </trkpt>
      <trkpt lat="48.1014" lon="-3.53971">
        <ele>148</ele>
        <time>2025-02-25T14:12:37Z</time>
      </trkpt>
      <trkpt lat="48.1014" lon="-3.53972">
        <ele>148.1</ele>
        <time>2025-02-25T14:12:38Z</time>
      </trkpt>
      <trkpt lat="48.10139" lon="-3.53974">
        <ele>148.1</ele>
        <time>2025-02-25T14:12:39Z</time>
      </trkpt>
      <trkpt lat="48.1014" lon="-3.53976">
        <ele>148.3</ele>
        <time>2025-02-25T14:12:40Z</time>
      </trkpt>
      <trkpt lat="48.1014" lon="-3.53975">
        <ele>148.3</ele>
        <time>2025-02-25T14:12:41Z</time>
      </trkpt>
      <trkpt lat="48.1014" lon="-3.53976">
        <ele>148.3</ele>
        <time>2025-02-25T14:12:42Z</time>
      </trkpt>
      <trkpt lat="48.1014" lon="-3.53976">
        <ele>148.3</ele>
        <time>2025-02-25T14:12:43Z</time>
      </trkpt>
      <trkpt lat="48.10141" lon="-3.53976">
        <ele>148.4</ele>
        <time>2025-02-25T14:12:44Z</time>
      </trkpt>
      <trkpt lat="48.10142" lon="-3.53976">
        <ele>148.5</ele>
        <time>2025-02-25T14:12:45Z</time>
      </trkpt>
      <trkpt lat="48.10144" lon="-3.53976">
        <ele>148.6</ele>
        <time>2025-02-25T14:12:46Z</time>
      </trkpt>
      <trkpt lat="48.10145" lon="-3.53976">
        <ele>148.7</ele>
        <time>2025-02-25T14:12:47Z</time>
      </trkpt>
      <trkpt lat="48.10145" lon="-3.53977">
        <ele>148.7</ele>
        <time>2025-02-25T14:12:48Z</time>
      </trkpt>
      <trkpt lat="48.10146" lon="-3.53978">
        <ele>148.8</ele>
        <time>2025-02-25T14:12:49Z</time>
      </trkpt>
      <trkpt lat="48.10147" lon="-3.53979">
        <ele>148.9</ele>
        <time>2025-02-25T14:12:50Z</time>
      </trkpt>
      <trkpt lat="48.10148" lon="-3.53981">
        <ele>149.1</ele>
        <time>2025-02-25T14:12:51Z</time>
      </trkpt>
      <trkpt lat="48.10148" lon="-3.53983">
        <ele>149.2</ele>
        <time>2025-02-25T14:12:52Z</time>
      </trkpt>
      <trkpt lat="48.10148" lon="-3.53984">
        <ele>149.2</ele>
        <time>2025-02-25T14:12:53Z</time>
      </trkpt>
      <trkpt lat="48.10148" lon="-3.53985">
        <ele>149.3</ele>
        <time>2025-02-25T14:12:54Z</time>
      </trkpt>
      <trkpt lat="48.10149" lon="-3.53986">
        <ele>149.4</ele>
        <time>2025-02-25T14:12:55Z</time>
      </trkpt>
      <trkpt lat="48.10148" lon="-3.53987">
        <ele>149.4</ele>
        <time>2025-02-25T14:12:56Z</time>
      </trkpt>
      <trkpt lat="48.10149" lon="-3.53988">
        <ele>149.5</ele>
        <time>2025-02-25T14:12:57Z</time>
      </trkpt>
      <trkpt lat="48.10149" lon="-3.5399">
        <ele>149.5</ele>
        <time>2025-02-25T14:12:58Z</time>
      </trkpt>
      <trkpt lat="48.10149" lon="-3.5399">
        <ele>149.5</ele>
        <time>2025-02-25T14:12:59Z</time>
      </trkpt>
      <trkpt lat="48.10149" lon="-3.53992">
        <ele>149.6</ele>
        <time>2025-02-25T14:13:00Z</time>
      </trkpt>
      <trkpt lat="48.10149" lon="-3.53993">
        <ele>149.7</ele>
        <time>2025-02-25T14:13:01Z</time>
      </trkpt>
      <trkpt lat="48.10148" lon="-3.53995">
        <ele>149.8</ele>
        <time>2025-02-25T14:13:02Z</time>
      </trkpt>
      <trkpt lat="48.10148" lon="-3.53996">
        <ele>149.8</ele>
        <time>2025-02-25T14:13:03Z</time>
      </trkpt>
      <trkpt lat="48.10147" lon="-3.53997">
        <ele>149.8</ele>
        <time>2025-02-25T14:13:04Z</time>
      </trkpt>
      <trkpt lat="48.10147" lon="-3.53998">
        <ele>149.9</ele>
        <time>2025-02-25T14:13:05Z</time>
      </trkpt>
      <trkpt lat="48.10147" lon="-3.53999">
        <ele>149.9</ele>
        <time>2025-02-25T14:13:06Z</time>
      </trkpt>
      <trkpt lat="48.10147" lon="-3.54001">
        <ele>150.1</ele>
        <time>2025-02-25T14:13:07Z</time>
      </trkpt>
      <trkpt lat="48.10147" lon="-3.54002">
        <ele>150.2</ele>
        <time>2025-02-25T14:13:08Z</time>
      </trkpt>
      <trkpt lat="48.10147" lon="-3.54003">
        <ele>150.3</ele>
        <time>2025-02-25T14:13:09Z</time>
      </trkpt>
      <trkpt lat="48.10147" lon="-3.54005">
        <ele>150.5</ele>
        <time>2025-02-25T14:13:10Z</time>
      </trkpt>
      <trkpt lat="48.10147" lon="-3.54004">
        <ele>150.4</ele>
        <time>2025-02-25T14:13:11Z</time>
      </trkpt>
      <trkpt lat="48.10148" lon="-3.54008">
        <ele>150.8</ele>
        <time>2025-02-25T14:13:12Z</time>
      </trkpt>
      <trkpt lat="48.10149" lon="-3.5401">
        <ele>150.9</ele>
        <time>2025-02-25T14:13:13Z</time>
      </trkpt>
      <trkpt lat="48.10149" lon="-3.54012">
        <ele>151.1</ele>
        <time>2025-02-25T14:13:14Z</time>
      </trkpt>
      <trkpt lat="48.10147" lon="-3.54014">
        <ele>151.4</ele>
        <time>2025-02-25T14:13:15Z</time>
      </trkpt>
      <trkpt lat="48.10147" lon="-3.54014">
        <ele>151.4</ele>
        <time>2025-02-25T14:13:16Z</time>
      </trkpt>
      <trkpt lat="48.10147" lon="-3.54016">
        <ele>151.6</ele>
        <time>2025-02-25T14:13:17Z</time>
      </trkpt>
      <trkpt lat="48.10148" lon="-3.54016">
        <ele>151.5</ele>
        <time>2025-02-25T14:13:18Z</time>
      </trkpt>
      <trkpt lat="48.10148" lon="-3.54015">
        <ele>151.5</ele>
        <time>2025-02-25T14:13:19Z</time>
      </trkpt>
      <trkpt lat="48.10149" lon="-3.54015">
        <ele>151.4</ele>
        <time>2025-02-25T14:13:20Z</time>
      </trkpt>
      <trkpt lat="48.10148" lon="-3.54011">
        <ele>151.1</ele>
        <time>2025-02-25T14:13:21Z</time>
      </trkpt>
      <trkpt lat="48.10149" lon="-3.54011">
        <ele>151</ele>
        <time>2025-02-25T14:13:22Z</time>
      </trkpt>
      <trkpt lat="48.1015" lon="-3.5401">
        <ele>150.9</ele>
        <time>2025-02-25T14:13:23Z</time>
      </trkpt>
      <trkpt lat="48.10151" lon="-3.5401">
        <ele>150.8</ele>
        <time>2025-02-25T14:13:24Z</time>
      </trkpt>
      <trkpt lat="48.10151" lon="-3.5401">
        <ele>150.8</ele>
        <time>2025-02-25T14:13:25Z</time>
      </trkpt>
      <trkpt lat="48.10151" lon="-3.54011">
        <ele>150.9</ele>
        <time>2025-02-25T14:13:26Z</time>
      </trkpt>
      <trkpt lat="48.10151" lon="-3.54012">
        <ele>151</ele>
        <time>2025-02-25T14:13:27Z</time>
      </trkpt>
      <trkpt lat="48.10151" lon="-3.54014">
        <ele>151.1</ele>
        <time>2025-02-25T14:13:28Z</time>
      </trkpt>
      <trkpt lat="48.10151" lon="-3.54015">
        <ele>151.2</ele>
        <time>2025-02-25T14:13:29Z</time>
      </trkpt>
      <trkpt lat="48.10151" lon="-3.54016">
        <ele>151.3</ele>
        <time>2025-02-25T14:13:30Z</time>
      </trkpt>
      <trkpt lat="48.10151" lon="-3.54015">
        <ele>151.2</ele>
        <time>2025-02-25T14:13:31Z</time>
      </trkpt>
      <trkpt lat="48.1015" lon="-3.54014">
        <ele>151.2</ele>
        <time>2025-02-25T14:13:32Z</time>
      </trkpt>
      <trkpt lat="48.10151" lon="-3.54018">
        <ele>151.5</ele>
        <time>2025-02-25T14:13:33Z</time>
      </trkpt>
      <trkpt lat="48.10151" lon="-3.54018">
        <ele>151.5</ele>
        <time>2025-02-25T14:13:34Z</time>
      </trkpt>
      <trkpt lat="48.10152" lon="-3.54019">
        <ele>151.4</ele>
        <time>2025-02-25T14:13:35Z</time>
      </trkpt>
      <trkpt lat="48.10152" lon="-3.54019">
        <ele>151.4</ele>
        <time>2025-02-25T14:13:36Z</time>
      </trkpt>
      <trkpt lat="48.10151" lon="-3.54018">
        <ele>151.5</ele>
        <time>2025-02-25T14:13:37Z</time>
      </trkpt>
      <trkpt lat="48.1015" lon="-3.54018">
        <ele>151.6</ele>
        <time>2025-02-25T14:13:38Z</time>
      </trkpt>
      <trkpt lat="48.1015" lon="-3.5402">
        <ele>151.7</ele>
        <time>2025-02-25T14:13:39Z</time>
      </trkpt>
      <trkpt lat="48.10151" lon="-3.54021">
        <ele>151.7</ele>
        <time>2025-02-25T14:13:40Z</time>
      </trkpt>
      <trkpt lat="48.10151" lon="-3.5402">
        <ele>151.6</ele>
        <time>2025-02-25T14:13:41Z</time>
      </trkpt>
      <trkpt lat="48.10151" lon="-3.54019">
        <ele>151.5</ele>
        <time>2025-02-25T14:13:42Z</time>
      </trkpt>
      <trkpt lat="48.10152" lon="-3.5402">
        <ele>151.5</ele>
        <time>2025-02-25T14:13:43Z</time>
      </trkpt>
      <trkpt lat="48.10152" lon="-3.54021">
        <ele>151.6</ele>
        <time>2025-02-25T14:13:44Z</time>
      </trkpt>
      <trkpt lat="48.10152" lon="-3.54023">
        <ele>151.7</ele>
        <time>2025-02-25T14:13:45Z</time>
      </trkpt>
      <trkpt lat="48.10152" lon="-3.54024">
        <ele>151.8</ele>
        <time>2025-02-25T14:13:46Z</time>
      </trkpt>
      <trkpt lat="48.10151" lon="-3.54025">
        <ele>152</ele>
        <time>2025-02-25T14:13:47Z</time>
      </trkpt>
      <trkpt lat="48.10151" lon="-3.54026">
        <ele>152.1</ele>
        <time>2025-02-25T14:13:48Z</time>
      </trkpt>
      <trkpt lat="48.10151" lon="-3.54027">
        <ele>152.2</ele>
        <time>2025-02-25T14:13:49Z</time>
      </trkpt>
      <trkpt lat="48.10151" lon="-3.54028">
        <ele>152.3</ele>
        <time>2025-02-25T14:13:50Z</time>
      </trkpt>
      <trkpt lat="48.10151" lon="-3.54029">
        <ele>152.3</ele>
        <time>2025-02-25T14:13:51Z</time>
      </trkpt>
      <trkpt lat="48.1015" lon="-3.54029">
        <ele>152.5</ele>
        <time>2025-02-25T14:13:52Z</time>
      </trkpt>
      <trkpt lat="48.1015" lon="-3.5403">
        <ele>152.6</ele>
        <time>2025-02-25T14:13:53Z</time>
      </trkpt>
      <trkpt lat="48.1015" lon="-3.5403">
        <ele>152.6</ele>
        <time>2025-02-25T14:13:54Z</time>
      </trkpt>
      <trkpt lat="48.10151" lon="-3.5403">
        <ele>152.4</ele>
        <time>2025-02-25T14:13:55Z</time>
      </trkpt>
      <trkpt lat="48.10151" lon="-3.54031">
        <ele>152.5</ele>
        <time>2025-02-25T14:13:56Z</time>
      </trkpt>
      <trkpt lat="48.10151" lon="-3.54032">
        <ele>152.6</ele>
        <time>2025-02-25T14:13:57Z</time>
      </trkpt>
      <trkpt lat="48.10151" lon="-3.54033">
        <ele>152.7</ele>
        <time>2025-02-25T14:13:58Z</time>
      </trkpt>
      <trkpt lat="48.10151" lon="-3.54033">
        <ele>152.7</ele>
        <time>2025-02-25T14:13:59Z</time>
      </trkpt>
      <trkpt lat="48.1015" lon="-3.54034">
        <ele>152.9</ele>
        <time>2025-02-25T14:14:00Z</time>
      </trkpt>
      <trkpt lat="48.10151" lon="-3.54036">
        <ele>152.9</ele>
        <time>2025-02-25T14:14:01Z</time>
      </trkpt>
      <trkpt lat="48.10151" lon="-3.54038">
        <ele>153</ele>
        <time>2025-02-25T14:14:02Z</time>
      </trkpt>
      <trkpt lat="48.10151" lon="-3.54039">
        <ele>153.1</ele>
        <time>2025-02-25T14:14:03Z</time>
      </trkpt>
      <trkpt lat="48.10151" lon="-3.54041">
        <ele>153.3</ele>
        <time>2025-02-25T14:14:04Z</time>
      </trkpt>
      <trkpt lat="48.10151" lon="-3.54041">
        <ele>153.3</ele>
        <time>2025-02-25T14:14:05Z</time>
      </trkpt>
      <trkpt lat="48.10151" lon="-3.54042">
        <ele>153.3</ele>
        <time>2025-02-25T14:14:06Z</time>
      </trkpt>
      <trkpt lat="48.10151" lon="-3.54043">
        <ele>153.4</ele>
        <time>2025-02-25T14:14:07Z</time>
      </trkpt>
      <trkpt lat="48.10151" lon="-3.54043">
        <ele>153.4</ele>
        <time>2025-02-25T14:14:08Z</time>
      </trkpt>
      <trkpt lat="48.10151" lon="-3.54044">
        <ele>153.5</ele>
        <time>2025-02-25T14:14:09Z</time>
      </trkpt>
      <trkpt lat="48.10151" lon="-3.54045">
        <ele>153.6</ele>
        <time>2025-02-25T14:14:10Z</time>
      </trkpt>
      <trkpt lat="48.10151" lon="-3.54046">
        <ele>153.7</ele>
        <time>2025-02-25T14:14:11Z</time>
      </trkpt>
      <trkpt lat="48.10151" lon="-3.54047">
        <ele>153.7</ele>
        <time>2025-02-25T14:14:12Z</time>
      </trkpt>
      <trkpt lat="48.10151" lon="-3.54048">
        <ele>153.8</ele>
        <time>2025-02-25T14:14:13Z</time>
      </trkpt>
      <trkpt lat="48.10151" lon="-3.54049">
        <ele>153.9</ele>
        <time>2025-02-25T14:14:14Z</time>
      </trkpt>
      <trkpt lat="48.10151" lon="-3.54049">
        <ele>153.9</ele>
        <time>2025-02-25T14:14:15Z</time>
      </trkpt>
      <trkpt lat="48.10151" lon="-3.5405">
        <ele>154</ele>
        <time>2025-02-25T14:14:16Z</time>
      </trkpt>
      <trkpt lat="48.10151" lon="-3.5405">
        <ele>154</ele>
        <time>2025-02-25T14:14:17Z</time>
      </trkpt>
      <trkpt lat="48.10151" lon="-3.54051">
        <ele>154</ele>
        <time>2025-02-25T14:14:18Z</time>
      </trkpt>
      <trkpt lat="48.10152" lon="-3.54052">
        <ele>153.9</ele>
        <time>2025-02-25T14:14:19Z</time>
      </trkpt>
      <trkpt lat="48.10152" lon="-3.54053">
        <ele>154</ele>
        <time>2025-02-25T14:14:20Z</time>
      </trkpt>
      <trkpt lat="48.10152" lon="-3.54054">
        <ele>154.1</ele>
        <time>2025-02-25T14:14:21Z</time>
      </trkpt>
      <trkpt lat="48.10152" lon="-3.54054">
        <ele>154.1</ele>
        <time>2025-02-25T14:14:22Z</time>
      </trkpt>
      <trkpt lat="48.10152" lon="-3.54055">
        <ele>154.1</ele>
        <time>2025-02-25T14:14:23Z</time>
      </trkpt>
      <trkpt lat="48.10151" lon="-3.54057">
        <ele>154.5</ele>
        <time>2025-02-25T14:14:24Z</time>
      </trkpt>
      <trkpt lat="48.10152" lon="-3.54058">
        <ele>154.4</ele>
        <time>2025-02-25T14:14:25Z</time>
      </trkpt>
      <trkpt lat="48.10151" lon="-3.5406">
        <ele>154.9</ele>
        <time>2025-02-25T14:14:26Z</time>
      </trkpt>
      <trkpt lat="48.10151" lon="-3.54061">
        <ele>155</ele>
        <time>2025-02-25T14:14:27Z</time>
      </trkpt>
      <trkpt lat="48.10151" lon="-3.54063">
        <ele>155.2</ele>
        <time>2025-02-25T14:14:28Z</time>
      </trkpt>
      <trkpt lat="48.10151" lon="-3.54064">
        <ele>155.3</ele>
        <time>2025-02-25T14:14:29Z</time>
      </trkpt>
      <trkpt lat="48.10151" lon="-3.54065">
        <ele>155.4</ele>
        <time>2025-02-25T14:14:30Z</time>
      </trkpt>
      <trkpt lat="48.10152" lon="-3.54067">
        <ele>155.4</ele>
        <time>2025-02-25T14:14:31Z</time>
      </trkpt>
      <trkpt lat="48.10153" lon="-3.54067">
        <ele>155.2</ele>
        <time>2025-02-25T14:14:32Z</time>
      </trkpt>
      <trkpt lat="48.10153" lon="-3.54069">
        <ele>155.4</ele>
        <time>2025-02-25T14:14:33Z</time>
      </trkpt>
      <trkpt lat="48.10153" lon="-3.5407">
        <ele>155.5</ele>
        <time>2025-02-25T14:14:34Z</time>
      </trkpt>
      <trkpt lat="48.10153" lon="-3.54072">
        <ele>155.7</ele>
        <time>2025-02-25T14:14:35Z</time>
      </trkpt>
      <trkpt lat="48.10153" lon="-3.54073">
        <ele>155.8</ele>
        <time>2025-02-25T14:14:36Z</time>
      </trkpt>
      <trkpt lat="48.10153" lon="-3.54075">
        <ele>156.1</ele>
        <time>2025-02-25T14:14:37Z</time>
      </trkpt>
      <trkpt lat="48.10152" lon="-3.54077">
        <ele>156.5</ele>
        <time>2025-02-25T14:14:38Z</time>
      </trkpt>
      <trkpt lat="48.10152" lon="-3.54078">
        <ele>156.6</ele>
        <time>2025-02-25T14:14:39Z</time>
      </trkpt>
      <trkpt lat="48.10152" lon="-3.5408">
        <ele>156.8</ele>
        <time>2025-02-25T14:14:40Z</time>
      </trkpt>
      <trkpt lat="48.10152" lon="-3.54083">
        <ele>157.1</ele>
        <time>2025-02-25T14:14:41Z</time>
      </trkpt>
      <trkpt lat="48.10152" lon="-3.54084">
        <ele>157.2</ele>
        <time>2025-02-25T14:14:42Z</time>
      </trkpt>
      <trkpt lat="48.10152" lon="-3.54086">
        <ele>157.4</ele>
        <time>2025-02-25T14:14:43Z</time>
      </trkpt>
      <trkpt lat="48.10153" lon="-3.54087">
        <ele>157.3</ele>
        <time>2025-02-25T14:14:44Z</time>
      </trkpt>
      <trkpt lat="48.10153" lon="-3.54089">
        <ele>157.5</ele>
        <time>2025-02-25T14:14:45Z</time>
      </trkpt>
      <trkpt lat="48.10153" lon="-3.5409">
        <ele>157.6</ele>
        <time>2025-02-25T14:14:46Z</time>
      </trkpt>
      <trkpt lat="48.10153" lon="-3.54091">
        <ele>157.6</ele>
        <time>2025-02-25T14:14:47Z</time>
      </trkpt>
      <trkpt lat="48.10153" lon="-3.54092">
        <ele>157.7</ele>
        <time>2025-02-25T14:14:48Z</time>
      </trkpt>
      <trkpt lat="48.10153" lon="-3.54093">
        <ele>157.8</ele>
        <time>2025-02-25T14:14:49Z</time>
      </trkpt>
      <trkpt lat="48.10153" lon="-3.54095">
        <ele>158</ele>
        <time>2025-02-25T14:14:50Z</time>
      </trkpt>
      <trkpt lat="48.10153" lon="-3.54095">
        <ele>158</ele>
        <time>2025-02-25T14:14:51Z</time>
      </trkpt>
      <trkpt lat="48.10153" lon="-3.54097">
        <ele>158.2</ele>
        <time>2025-02-25T14:14:52Z</time>
      </trkpt>
      <trkpt lat="48.10152" lon="-3.54098">
        <ele>158.5</ele>
        <time>2025-02-25T14:14:53Z</time>
      </trkpt>
      <trkpt lat="48.10152" lon="-3.54099">
        <ele>158.6</ele>
        <time>2025-02-25T14:14:54Z</time>
      </trkpt>
      <trkpt lat="48.10152" lon="-3.54099">
        <ele>158.6</ele>
        <time>2025-02-25T14:14:55Z</time>
      </trkpt>
      <trkpt lat="48.10152" lon="-3.541">
        <ele>158.7</ele>
        <time>2025-02-25T14:14:56Z</time>
      </trkpt>
      <trkpt lat="48.10152" lon="-3.541">
        <ele>158.7</ele>
        <time>2025-02-25T14:14:57Z</time>
      </trkpt>
      <trkpt lat="48.10152" lon="-3.54101">
        <ele>158.8</ele>
        <time>2025-02-25T14:14:58Z</time>
      </trkpt>
      <trkpt lat="48.10152" lon="-3.54103">
        <ele>159</ele>
        <time>2025-02-25T14:14:59Z</time>
      </trkpt>
      <trkpt lat="48.10152" lon="-3.54103">
        <ele>159</ele>
        <time>2025-02-25T14:15:00Z</time>
      </trkpt>
      <trkpt lat="48.10152" lon="-3.54105">
        <ele>159.1</ele>
        <time>2025-02-25T14:15:01Z</time>
      </trkpt>
      <trkpt lat="48.10153" lon="-3.54106">
        <ele>159</ele>
        <time>2025-02-25T14:15:02Z</time>
      </trkpt>
      <trkpt lat="48.10153" lon="-3.54107">
        <ele>159.1</ele>
        <time>2025-02-25T14:15:03Z</time>
      </trkpt>
      <trkpt lat="48.10153" lon="-3.54108">
        <ele>159.2</ele>
        <time>2025-02-25T14:15:04Z</time>
      </trkpt>
      <trkpt lat="48.10153" lon="-3.54109">
        <ele>159.3</ele>
        <time>2025-02-25T14:15:05Z</time>
      </trkpt>
      <trkpt lat="48.10153" lon="-3.5411">
        <ele>159.3</ele>
        <time>2025-02-25T14:15:06Z</time>
      </trkpt>
      <trkpt lat="48.10154" lon="-3.54111">
        <ele>159.2</ele>
        <time>2025-02-25T14:15:07Z</time>
      </trkpt>
      <trkpt lat="48.10154" lon="-3.54112">
        <ele>159.3</ele>
        <time>2025-02-25T14:15:08Z</time>
      </trkpt>
      <trkpt lat="48.10154" lon="-3.54113">
        <ele>159.4</ele>
        <time>2025-02-25T14:15:09Z</time>
      </trkpt>
      <trkpt lat="48.10155" lon="-3.54114">
        <ele>159.3</ele>
        <time>2025-02-25T14:15:10Z</time>
      </trkpt>
      <trkpt lat="48.10155" lon="-3.54114">
        <ele>159.3</ele>
        <time>2025-02-25T14:15:11Z</time>
      </trkpt>
      <trkpt lat="48.10156" lon="-3.54116">
        <ele>159.2</ele>
        <time>2025-02-25T14:15:12Z</time>
      </trkpt>
      <trkpt lat="48.10157" lon="-3.54117">
        <ele>159.1</ele>
        <time>2025-02-25T14:15:13Z</time>
      </trkpt>
      <trkpt lat="48.10157" lon="-3.54119">
        <ele>159.3</ele>
        <time>2025-02-25T14:15:14Z</time>
      </trkpt>
      <trkpt lat="48.10157" lon="-3.54121">
        <ele>159.5</ele>
        <time>2025-02-25T14:15:15Z</time>
      </trkpt>
      <trkpt lat="48.10157" lon="-3.54122">
        <ele>159.6</ele>
        <time>2025-02-25T14:15:16Z</time>
      </trkpt>
      <trkpt lat="48.10158" lon="-3.5412">
        <ele>159.1</ele>
        <time>2025-02-25T14:15:17Z</time>
      </trkpt>
      <trkpt lat="48.1016" lon="-3.5412">
        <ele>158.6</ele>
        <time>2025-02-25T14:15:18Z</time>
      </trkpt>
      <trkpt lat="48.10161" lon="-3.54121">
        <ele>158.5</ele>
        <time>2025-02-25T14:15:19Z</time>
      </trkpt>
      <trkpt lat="48.10162" lon="-3.54122">
        <ele>158.4</ele>
        <time>2025-02-25T14:15:20Z</time>
      </trkpt>
      <trkpt lat="48.10162" lon="-3.54122">
        <ele>158.4</ele>
        <time>2025-02-25T14:15:21Z</time>
      </trkpt>
      <trkpt lat="48.10162" lon="-3.54124">
        <ele>158.6</ele>
        <time>2025-02-25T14:15:22Z</time>
      </trkpt>
      <trkpt lat="48.10163" lon="-3.54125">
        <ele>158.4</ele>
        <time>2025-02-25T14:15:23Z</time>
      </trkpt>
      <trkpt lat="48.10163" lon="-3.54126">
        <ele>158.5</ele>
        <time>2025-02-25T14:15:24Z</time>
      </trkpt>
      <trkpt lat="48.10163" lon="-3.54127">
        <ele>158.6</ele>
        <time>2025-02-25T14:15:25Z</time>
      </trkpt>
      <trkpt lat="48.10163" lon="-3.54128">
        <ele>158.7</ele>
        <time>2025-02-25T14:15:26Z</time>
      </trkpt>
      <trkpt lat="48.10163" lon="-3.54129">
        <ele>158.9</ele>
        <time>2025-02-25T14:15:27Z</time>
      </trkpt>
      <trkpt lat="48.10163" lon="-3.5413">
        <ele>159</ele>
        <time>2025-02-25T14:15:28Z</time>
      </trkpt>
      <trkpt lat="48.10163" lon="-3.54131">
        <ele>159.1</ele>
        <time>2025-02-25T14:15:29Z</time>
      </trkpt>
      <trkpt lat="48.10164" lon="-3.54132">
        <ele>158.9</ele>
        <time>2025-02-25T14:15:30Z</time>
      </trkpt>
      <trkpt lat="48.10165" lon="-3.54133">
        <ele>158.8</ele>
        <time>2025-02-25T14:15:31Z</time>
      </trkpt>
      <trkpt lat="48.10165" lon="-3.54134">
        <ele>158.9</ele>
        <time>2025-02-25T14:15:32Z</time>
      </trkpt>
      <trkpt lat="48.10165" lon="-3.54134">
        <ele>158.9</ele>
        <time>2025-02-25T14:15:33Z</time>
      </trkpt>
      <trkpt lat="48.10165" lon="-3.54136">
        <ele>159.1</ele>
        <time>2025-02-25T14:15:34Z</time>
      </trkpt>
      <trkpt lat="48.10166" lon="-3.54138">
        <ele>159.1</ele>
        <time>2025-02-25T14:15:35Z</time>
      </trkpt>
      <trkpt lat="48.10166" lon="-3.54138">
        <ele>159.1</ele>
        <time>2025-02-25T14:15:36Z</time>
      </trkpt>
      <trkpt lat="48.10165" lon="-3.54139">
        <ele>159.4</ele>
        <time>2025-02-25T14:15:37Z</time>
      </trkpt>
      <trkpt lat="48.10166" lon="-3.5414">
        <ele>159.3</ele>
        <time>2025-02-25T14:15:38Z</time>
      </trkpt>
      <trkpt lat="48.10166" lon="-3.54141">
        <ele>159.4</ele>
        <time>2025-02-25T14:15:39Z</time>
      </trkpt>
      <trkpt lat="48.10166" lon="-3.54142">
        <ele>159.5</ele>
        <time>2025-02-25T14:15:40Z</time>
      </trkpt>
      <trkpt lat="48.10166" lon="-3.54143">
        <ele>159.6</ele>
        <time>2025-02-25T14:15:41Z</time>
      </trkpt>
      <trkpt lat="48.10166" lon="-3.54144">
        <ele>159.7</ele>
        <time>2025-02-25T14:15:42Z</time>
      </trkpt>
      <trkpt lat="48.10167" lon="-3.54145">
        <ele>159.6</ele>
        <time>2025-02-25T14:15:43Z</time>
      </trkpt>
      <trkpt lat="48.10167" lon="-3.54146">
        <ele>159.7</ele>
        <time>2025-02-25T14:15:44Z</time>
      </trkpt>
      <trkpt lat="48.10167" lon="-3.54147">
        <ele>159.8</ele>
        <time>2025-02-25T14:15:45Z</time>
      </trkpt>
      <trkpt lat="48.10167" lon="-3.54148">
        <ele>160</ele>
        <time>2025-02-25T14:15:46Z</time>
      </trkpt>
      <trkpt lat="48.10167" lon="-3.54148">
        <ele>160</ele>
        <time>2025-02-25T14:15:47Z</time>
      </trkpt>
      <trkpt lat="48.10167" lon="-3.54149">
        <ele>160.1</ele>
        <time>2025-02-25T14:15:48Z</time>
      </trkpt>
      <trkpt lat="48.10168" lon="-3.5415">
        <ele>160.1</ele>
        <time>2025-02-25T14:15:49Z</time>
      </trkpt>
      <trkpt lat="48.10168" lon="-3.54151">
        <ele>160.2</ele>
        <time>2025-02-25T14:15:50Z</time>
      </trkpt>
      <trkpt lat="48.10169" lon="-3.54152">
        <ele>160.2</ele>
        <time>2025-02-25T14:15:51Z</time>
      </trkpt>
      <trkpt lat="48.10168" lon="-3.5415">
        <ele>160.1</ele>
        <time>2025-02-25T14:15:52Z</time>
      </trkpt>
      <trkpt lat="48.10167" lon="-3.54149">
        <ele>160.1</ele>
        <time>2025-02-25T14:15:53Z</time>
      </trkpt>
      <trkpt lat="48.10167" lon="-3.54149">
        <ele>160.1</ele>
        <time>2025-02-25T14:15:54Z</time>
      </trkpt>
      <trkpt lat="48.10167" lon="-3.54149">
        <ele>160.1</ele>
        <time>2025-02-25T14:15:55Z</time>
      </trkpt>
      <trkpt lat="48.10167" lon="-3.5415">
        <ele>160.2</ele>
        <time>2025-02-25T14:15:56Z</time>
      </trkpt>
      <trkpt lat="48.10168" lon="-3.54151">
        <ele>160.2</ele>
        <time>2025-02-25T14:15:57Z</time>
      </trkpt>
      <trkpt lat="48.10169" lon="-3.54151">
        <ele>160.1</ele>
        <time>2025-02-25T14:15:58Z</time>
      </trkpt>
      <trkpt lat="48.10169" lon="-3.54152">
        <ele>160.2</ele>
        <time>2025-02-25T14:15:59Z</time>
      </trkpt>
      <trkpt lat="48.10169" lon="-3.54152">
        <ele>160.2</ele>
        <time>2025-02-25T14:16:00Z</time>
      </trkpt>
      <trkpt lat="48.10169" lon="-3.54153">
        <ele>160.3</ele>
        <time>2025-02-25T14:16:01Z</time>
      </trkpt>
      <trkpt lat="48.10168" lon="-3.54154">
        <ele>160.5</ele>
        <time>2025-02-25T14:16:02Z</time>
      </trkpt>
      <trkpt lat="48.10168" lon="-3.54154">
        <ele>160.5</ele>
        <time>2025-02-25T14:16:03Z</time>
      </trkpt>
      <trkpt lat="48.10168" lon="-3.54155">
        <ele>160.6</ele>
        <time>2025-02-25T14:16:04Z</time>
      </trkpt>
      <trkpt lat="48.10169" lon="-3.54157">
        <ele>160.7</ele>
        <time>2025-02-25T14:16:05Z</time>
      </trkpt>
      <trkpt lat="48.10167" lon="-3.54158">
        <ele>161</ele>
        <time>2025-02-25T14:16:06Z</time>
      </trkpt>
      <trkpt lat="48.10166" lon="-3.54159">
        <ele>161.3</ele>
        <time>2025-02-25T14:16:07Z</time>
      </trkpt>
      <trkpt lat="48.10166" lon="-3.5416">
        <ele>161.4</ele>
        <time>2025-02-25T14:16:08Z</time>
      </trkpt>
      <trkpt lat="48.10166" lon="-3.54161">
        <ele>161.5</ele>
        <time>2025-02-25T14:16:09Z</time>
      </trkpt>
      <trkpt lat="48.10166" lon="-3.54162">
        <ele>161.6</ele>
        <time>2025-02-25T14:16:10Z</time>
      </trkpt>
      <trkpt lat="48.10166" lon="-3.54163">
        <ele>161.8</ele>
        <time>2025-02-25T14:16:11Z</time>
      </trkpt>
      <trkpt lat="48.10166" lon="-3.54165">
        <ele>162</ele>
        <time>2025-02-25T14:16:12Z</time>
      </trkpt>
      <trkpt lat="48.10166" lon="-3.54166">
        <ele>162.1</ele>
        <time>2025-02-25T14:16:13Z</time>
      </trkpt>
      <trkpt lat="48.10166" lon="-3.54168">
        <ele>162.3</ele>
        <time>2025-02-25T14:16:14Z</time>
      </trkpt>
      <trkpt lat="48.10166" lon="-3.54169">
        <ele>162.4</ele>
        <time>2025-02-25T14:16:15Z</time>
      </trkpt>
      <trkpt lat="48.10168" lon="-3.5417">
        <ele>162.2</ele>
        <time>2025-02-25T14:16:16Z</time>
      </trkpt>
      <trkpt lat="48.10169" lon="-3.5417">
        <ele>162.1</ele>
        <time>2025-02-25T14:16:17Z</time>
      </trkpt>
      <trkpt lat="48.1017" lon="-3.54171">
        <ele>162.1</ele>
        <time>2025-02-25T14:16:18Z</time>
      </trkpt>
      <trkpt lat="48.1017" lon="-3.54173">
        <ele>162.3</ele>
        <time>2025-02-25T14:16:19Z</time>
      </trkpt>
      <trkpt lat="48.10171" lon="-3.54174">
        <ele>162.3</ele>
        <time>2025-02-25T14:16:20Z</time>
      </trkpt>
      <trkpt lat="48.10171" lon="-3.54176">
        <ele>162.5</ele>
        <time>2025-02-25T14:16:21Z</time>
      </trkpt>
      <trkpt lat="48.10171" lon="-3.54177">
        <ele>162.6</ele>
        <time>2025-02-25T14:16:22Z</time>
      </trkpt>
      <trkpt lat="48.10171" lon="-3.54179">
        <ele>162.8</ele>
        <time>2025-02-25T14:16:23Z</time>
      </trkpt>
      <trkpt lat="48.1017" lon="-3.54177">
        <ele>162.7</ele>
        <time>2025-02-25T14:16:24Z</time>
      </trkpt>
      <trkpt lat="48.1017" lon="-3.54177">
        <ele>162.7</ele>
        <time>2025-02-25T14:16:25Z</time>
      </trkpt>
      <trkpt lat="48.1017" lon="-3.54179">
        <ele>162.9</ele>
        <time>2025-02-25T14:16:26Z</time>
      </trkpt>
      <trkpt lat="48.10171" lon="-3.5418">
        <ele>162.9</ele>
        <time>2025-02-25T14:16:27Z</time>
      </trkpt>
      <trkpt lat="48.10172" lon="-3.54182">
        <ele>163</ele>
        <time>2025-02-25T14:16:28Z</time>
      </trkpt>
      <trkpt lat="48.10172" lon="-3.54183">
        <ele>163.1</ele>
        <time>2025-02-25T14:16:29Z</time>
      </trkpt>
      <trkpt lat="48.10173" lon="-3.54184">
        <ele>163</ele>
        <time>2025-02-25T14:16:30Z</time>
      </trkpt>
      <trkpt lat="48.10174" lon="-3.54185">
        <ele>163</ele>
        <time>2025-02-25T14:16:31Z</time>
      </trkpt>
      <trkpt lat="48.10174" lon="-3.54187">
        <ele>163.2</ele>
        <time>2025-02-25T14:16:32Z</time>
      </trkpt>
      <trkpt lat="48.10173" lon="-3.54187">
        <ele>163.3</ele>
        <time>2025-02-25T14:16:33Z</time>
      </trkpt>
      <trkpt lat="48.10173" lon="-3.54189">
        <ele>163.5</ele>
        <time>2025-02-25T14:16:34Z</time>
      </trkpt>
      <trkpt lat="48.10173" lon="-3.5419">
        <ele>163.6</ele>
        <time>2025-02-25T14:16:35Z</time>
      </trkpt>
      <trkpt lat="48.10173" lon="-3.54191">
        <ele>163.7</ele>
        <time>2025-02-25T14:16:36Z</time>
      </trkpt>
      <trkpt lat="48.10173" lon="-3.54192">
        <ele>163.8</ele>
        <time>2025-02-25T14:16:37Z</time>
      </trkpt>
      <trkpt lat="48.10174" lon="-3.54193">
        <ele>163.8</ele>
        <time>2025-02-25T14:16:38Z</time>
      </trkpt>
      <trkpt lat="48.10174" lon="-3.54195">
        <ele>164</ele>
        <time>2025-02-25T14:16:39Z</time>
      </trkpt>
      <trkpt lat="48.10175" lon="-3.54197">
        <ele>164</ele>
        <time>2025-02-25T14:16:40Z</time>
      </trkpt>
      <trkpt lat="48.10175" lon="-3.54199">
        <ele>164.2</ele>
        <time>2025-02-25T14:16:41Z</time>
      </trkpt>
      <trkpt lat="48.10175" lon="-3.54201">
        <ele>164.4</ele>
        <time>2025-02-25T14:16:42Z</time>
      </trkpt>
      <trkpt lat="48.10176" lon="-3.54202">
        <ele>164.4</ele>
        <time>2025-02-25T14:16:43Z</time>
      </trkpt>
      <trkpt lat="48.10177" lon="-3.54204">
        <ele>164.4</ele>
        <time>2025-02-25T14:16:44Z</time>
      </trkpt>
      <trkpt lat="48.10177" lon="-3.54202">
        <ele>164.2</ele>
        <time>2025-02-25T14:16:45Z</time>
      </trkpt>
      <trkpt lat="48.10179" lon="-3.54203">
        <ele>164</ele>
        <time>2025-02-25T14:16:46Z</time>
      </trkpt>
      <trkpt lat="48.10178" lon="-3.542">
        <ele>163.9</ele>
        <time>2025-02-25T14:16:47Z</time>
      </trkpt>
      <trkpt lat="48.10178" lon="-3.54199">
        <ele>163.8</ele>
        <time>2025-02-25T14:16:48Z</time>
      </trkpt>
      <trkpt lat="48.10177" lon="-3.54199">
        <ele>163.9</ele>
        <time>2025-02-25T14:16:49Z</time>
      </trkpt>
      <trkpt lat="48.10177" lon="-3.54199">
        <ele>163.9</ele>
        <time>2025-02-25T14:16:50Z</time>
      </trkpt>
      <trkpt lat="48.10177" lon="-3.54199">
        <ele>163.9</ele>
        <time>2025-02-25T14:16:51Z</time>
      </trkpt>
      <trkpt lat="48.10177" lon="-3.54199">
        <ele>163.9</ele>
        <time>2025-02-25T14:16:52Z</time>
      </trkpt>
      <trkpt lat="48.10177" lon="-3.542">
        <ele>164</ele>
        <time>2025-02-25T14:16:53Z</time>
      </trkpt>
      <trkpt lat="48.10177" lon="-3.542">
        <ele>164</ele>
        <time>2025-02-25T14:16:54Z</time>
      </trkpt>
      <trkpt lat="48.10177" lon="-3.54201">
        <ele>164.1</ele>
        <time>2025-02-25T14:16:55Z</time>
      </trkpt>
      <trkpt lat="48.10177" lon="-3.54201">
        <ele>164.1</ele>
        <time>2025-02-25T14:16:56Z</time>
      </trkpt>
      <trkpt lat="48.10177" lon="-3.54201">
        <ele>164.1</ele>
        <time>2025-02-25T14:16:57Z</time>
      </trkpt>
      <trkpt lat="48.10177" lon="-3.54201">
        <ele>164.1</ele>
        <time>2025-02-25T14:16:58Z</time>
      </trkpt>
      <trkpt lat="48.10177" lon="-3.54203">
        <ele>164.3</ele>
        <time>2025-02-25T14:16:59Z</time>
      </trkpt>
      <trkpt lat="48.10177" lon="-3.54203">
        <ele>164.3</ele>
        <time>2025-02-25T14:17:00Z</time>
      </trkpt>
      <trkpt lat="48.10176" lon="-3.54203">
        <ele>164.5</ele>
        <time>2025-02-25T14:17:01Z</time>
      </trkpt>
      <trkpt lat="48.10176" lon="-3.54205">
        <ele>164.7</ele>
        <time>2025-02-25T14:17:02Z</time>
      </trkpt>
      <trkpt lat="48.10178" lon="-3.54206">
        <ele>164.4</ele>
        <time>2025-02-25T14:17:03Z</time>
      </trkpt>
      <trkpt lat="48.10178" lon="-3.54206">
        <ele>164.4</ele>
        <time>2025-02-25T14:17:04Z</time>
      </trkpt>
      <trkpt lat="48.10178" lon="-3.54206">
        <ele>164.4</ele>
        <time>2025-02-25T14:17:05Z</time>
      </trkpt>
      <trkpt lat="48.10178" lon="-3.54206">
        <ele>164.4</ele>
        <time>2025-02-25T14:17:06Z</time>
      </trkpt>
      <trkpt lat="48.10178" lon="-3.54206">
        <ele>164.4</ele>
        <time>2025-02-25T14:17:07Z</time>
      </trkpt>
      <trkpt lat="48.10178" lon="-3.54206">
        <ele>164.4</ele>
        <time>2025-02-25T14:17:08Z</time>
      </trkpt>
      <trkpt lat="48.10177" lon="-3.54207">
        <ele>164.7</ele>
        <time>2025-02-25T14:17:09Z</time>
      </trkpt>
      <trkpt lat="48.10177" lon="-3.54208">
        <ele>164.8</ele>
        <time>2025-02-25T14:17:10Z</time>
      </trkpt>
      <trkpt lat="48.10177" lon="-3.54208">
        <ele>164.8</ele>
        <time>2025-02-25T14:17:11Z</time>
      </trkpt>
      <trkpt lat="48.10177" lon="-3.54208">
        <ele>164.8</ele>
        <time>2025-02-25T14:17:12Z</time>
      </trkpt>
      <trkpt lat="48.10178" lon="-3.54208">
        <ele>164.6</ele>
        <time>2025-02-25T14:17:13Z</time>
      </trkpt>
      <trkpt lat="48.10177" lon="-3.54209">
        <ele>164.9</ele>
        <time>2025-02-25T14:17:14Z</time>
      </trkpt>
      <trkpt lat="48.10177" lon="-3.54209">
        <ele>164.9</ele>
        <time>2025-02-25T14:17:15Z</time>
      </trkpt>
      <trkpt lat="48.10177" lon="-3.5421">
        <ele>165</ele>
        <time>2025-02-25T14:17:16Z</time>
      </trkpt>
      <trkpt lat="48.10178" lon="-3.54211">
        <ele>164.9</ele>
        <time>2025-02-25T14:17:17Z</time>
      </trkpt>
      <trkpt lat="48.10178" lon="-3.54212">
        <ele>165</ele>
        <time>2025-02-25T14:17:18Z</time>
      </trkpt>
      <trkpt lat="48.10178" lon="-3.54213">
        <ele>165.1</ele>
        <time>2025-02-25T14:17:19Z</time>
      </trkpt>
      <trkpt lat="48.10179" lon="-3.54215">
        <ele>165.1</ele>
        <time>2025-02-25T14:17:20Z</time>
      </trkpt>
      <trkpt lat="48.10179" lon="-3.54216">
        <ele>165.2</ele>
        <time>2025-02-25T14:17:21Z</time>
      </trkpt>
      <trkpt lat="48.10179" lon="-3.54218">
        <ele>165.4</ele>
        <time>2025-02-25T14:17:22Z</time>
      </trkpt>
      <trkpt lat="48.1018" lon="-3.54219">
        <ele>165.3</ele>
        <time>2025-02-25T14:17:23Z</time>
      </trkpt>
      <trkpt lat="48.10181" lon="-3.5422">
        <ele>165.2</ele>
        <time>2025-02-25T14:17:24Z</time>
      </trkpt>
      <trkpt lat="48.10181" lon="-3.5422">
        <ele>165.2</ele>
        <time>2025-02-25T14:17:25Z</time>
      </trkpt>
      <trkpt lat="48.10182" lon="-3.54222">
        <ele>165.2</ele>
        <time>2025-02-25T14:17:26Z</time>
      </trkpt>
      <trkpt lat="48.10182" lon="-3.54223">
        <ele>165.3</ele>
        <time>2025-02-25T14:17:27Z</time>
      </trkpt>
      <trkpt lat="48.10181" lon="-3.54225">
        <ele>165.7</ele>
        <time>2025-02-25T14:17:28Z</time>
      </trkpt>
      <trkpt lat="48.10181" lon="-3.54227">
        <ele>165.9</ele>
        <time>2025-02-25T14:17:29Z</time>
      </trkpt>
      <trkpt lat="48.10181" lon="-3.54228">
        <ele>165.9</ele>
        <time>2025-02-25T14:17:30Z</time>
      </trkpt>
      <trkpt lat="48.10181" lon="-3.5423">
        <ele>166.1</ele>
        <time>2025-02-25T14:17:31Z</time>
      </trkpt>
      <trkpt lat="48.10182" lon="-3.5423">
        <ele>166</ele>
        <time>2025-02-25T14:17:32Z</time>
      </trkpt>
      <trkpt lat="48.10181" lon="-3.5423">
        <ele>166.1</ele>
        <time>2025-02-25T14:17:33Z</time>
      </trkpt>
      <trkpt lat="48.10181" lon="-3.54232">
        <ele>166.3</ele>
        <time>2025-02-25T14:17:34Z</time>
      </trkpt>
      <trkpt lat="48.10182" lon="-3.54233">
        <ele>166.2</ele>
        <time>2025-02-25T14:17:35Z</time>
      </trkpt>
      <trkpt lat="48.10183" lon="-3.54234">
        <ele>166.2</ele>
        <time>2025-02-25T14:17:36Z</time>
      </trkpt>
      <trkpt lat="48.10183" lon="-3.54235">
        <ele>166.3</ele>
        <time>2025-02-25T14:17:37Z</time>
      </trkpt>
      <trkpt lat="48.10184" lon="-3.54236">
        <ele>166.2</ele>
        <time>2025-02-25T14:17:38Z</time>
      </trkpt>
      <trkpt lat="48.10185" lon="-3.54237">
        <ele>166.1</ele>
        <time>2025-02-25T14:17:39Z</time>
      </trkpt>
      <trkpt lat="48.10185" lon="-3.54238">
        <ele>166.2</ele>
        <time>2025-02-25T14:17:40Z</time>
      </trkpt>
      <trkpt lat="48.10186" lon="-3.54238">
        <ele>166.1</ele>
        <time>2025-02-25T14:17:41Z</time>
      </trkpt>
      <trkpt lat="48.10186" lon="-3.54239">
        <ele>166.1</ele>
        <time>2025-02-25T14:17:42Z</time>
      </trkpt>
      <trkpt lat="48.10186" lon="-3.54241">
        <ele>166.3</ele>
        <time>2025-02-25T14:17:43Z</time>
      </trkpt>
      <trkpt lat="48.10186" lon="-3.54242">
        <ele>166.4</ele>
        <time>2025-02-25T14:17:44Z</time>
      </trkpt>
      <trkpt lat="48.10187" lon="-3.54243">
        <ele>166.4</ele>
        <time>2025-02-25T14:17:45Z</time>
      </trkpt>
      <trkpt lat="48.10188" lon="-3.54244">
        <ele>166.3</ele>
        <time>2025-02-25T14:17:46Z</time>
      </trkpt>
      <trkpt lat="48.10188" lon="-3.54245">
        <ele>166.4</ele>
        <time>2025-02-25T14:17:47Z</time>
      </trkpt>
      <trkpt lat="48.10189" lon="-3.54246">
        <ele>166.4</ele>
        <time>2025-02-25T14:17:48Z</time>
      </trkpt>
      <trkpt lat="48.10189" lon="-3.54247">
        <ele>166.5</ele>
        <time>2025-02-25T14:17:49Z</time>
      </trkpt>
      <trkpt lat="48.1019" lon="-3.54248">
        <ele>166.4</ele>
        <time>2025-02-25T14:17:50Z</time>
      </trkpt>
      <trkpt lat="48.1019" lon="-3.54249">
        <ele>166.5</ele>
        <time>2025-02-25T14:17:51Z</time>
      </trkpt>
      <trkpt lat="48.10191" lon="-3.54251">
        <ele>166.6</ele>
        <time>2025-02-25T14:17:52Z</time>
      </trkpt>
      <trkpt lat="48.10192" lon="-3.54253">
        <ele>166.6</ele>
        <time>2025-02-25T14:17:53Z</time>
      </trkpt>
      <trkpt lat="48.10193" lon="-3.54255">
        <ele>166.6</ele>
        <time>2025-02-25T14:17:54Z</time>
      </trkpt>
      <trkpt lat="48.10194" lon="-3.54256">
        <ele>166.5</ele>
        <time>2025-02-25T14:17:55Z</time>
      </trkpt>
      <trkpt lat="48.10195" lon="-3.54257">
        <ele>166.4</ele>
        <time>2025-02-25T14:17:56Z</time>
      </trkpt>
      <trkpt lat="48.10196" lon="-3.54257">
        <ele>166.3</ele>
        <time>2025-02-25T14:17:57Z</time>
      </trkpt>
      <trkpt lat="48.10197" lon="-3.54258">
        <ele>166.3</ele>
        <time>2025-02-25T14:17:58Z</time>
      </trkpt>
      <trkpt lat="48.10198" lon="-3.54259">
        <ele>166.3</ele>
        <time>2025-02-25T14:17:59Z</time>
      </trkpt>
      <trkpt lat="48.10199" lon="-3.54259">
        <ele>166.2</ele>
        <time>2025-02-25T14:18:00Z</time>
      </trkpt>
      <trkpt lat="48.102" lon="-3.54261">
        <ele>166.2</ele>
        <time>2025-02-25T14:18:01Z</time>
      </trkpt>
      <trkpt lat="48.10201" lon="-3.54262">
        <ele>166.2</ele>
        <time>2025-02-25T14:18:02Z</time>
      </trkpt>
      <trkpt lat="48.10201" lon="-3.54263">
        <ele>166.2</ele>
        <time>2025-02-25T14:18:03Z</time>
      </trkpt>
      <trkpt lat="48.10201" lon="-3.54265">
        <ele>166.4</ele>
        <time>2025-02-25T14:18:04Z</time>
      </trkpt>
      <trkpt lat="48.10202" lon="-3.54266">
        <ele>166.3</ele>
        <time>2025-02-25T14:18:05Z</time>
      </trkpt>
      <trkpt lat="48.10202" lon="-3.54267">
        <ele>166.4</ele>
        <time>2025-02-25T14:18:06Z</time>
      </trkpt>
      <trkpt lat="48.10202" lon="-3.54269">
        <ele>166.6</ele>
        <time>2025-02-25T14:18:07Z</time>
      </trkpt>
      <trkpt lat="48.10202" lon="-3.5427">
        <ele>166.6</ele>
        <time>2025-02-25T14:18:08Z</time>
      </trkpt>
      <trkpt lat="48.10203" lon="-3.54272">
        <ele>166.7</ele>
        <time>2025-02-25T14:18:09Z</time>
      </trkpt>
      <trkpt lat="48.10204" lon="-3.54274">
        <ele>166.7</ele>
        <time>2025-02-25T14:18:10Z</time>
      </trkpt>
      <trkpt lat="48.10204" lon="-3.54275">
        <ele>166.8</ele>
        <time>2025-02-25T14:18:11Z</time>
      </trkpt>
      <trkpt lat="48.10205" lon="-3.54275">
        <ele>166.7</ele>
        <time>2025-02-25T14:18:12Z</time>
      </trkpt>
      <trkpt lat="48.10206" lon="-3.54277">
        <ele>166.7</ele>
        <time>2025-02-25T14:18:13Z</time>
      </trkpt>
      <trkpt lat="48.10206" lon="-3.54278">
        <ele>166.8</ele>
        <time>2025-02-25T14:18:14Z</time>
      </trkpt>
      <trkpt lat="48.10206" lon="-3.5428">
        <ele>167</ele>
        <time>2025-02-25T14:18:15Z</time>
      </trkpt>
      <trkpt lat="48.10207" lon="-3.54281">
        <ele>166.9</ele>
        <time>2025-02-25T14:18:16Z</time>
      </trkpt>
      <trkpt lat="48.10207" lon="-3.54282">
        <ele>167</ele>
        <time>2025-02-25T14:18:17Z</time>
      </trkpt>
      <trkpt lat="48.10208" lon="-3.54283">
        <ele>167</ele>
        <time>2025-02-25T14:18:18Z</time>
      </trkpt>
      <trkpt lat="48.10209" lon="-3.54284">
        <ele>167</ele>
        <time>2025-02-25T14:18:19Z</time>
      </trkpt>
      <trkpt lat="48.10209" lon="-3.54286">
        <ele>167.2</ele>
        <time>2025-02-25T14:18:20Z</time>
      </trkpt>
      <trkpt lat="48.10209" lon="-3.54288">
        <ele>167.3</ele>
        <time>2025-02-25T14:18:21Z</time>
      </trkpt>
      <trkpt lat="48.1021" lon="-3.54289">
        <ele>167.3</ele>
        <time>2025-02-25T14:18:22Z</time>
      </trkpt>
      <trkpt lat="48.1021" lon="-3.5429">
        <ele>167.4</ele>
        <time>2025-02-25T14:18:23Z</time>
      </trkpt>
      <trkpt lat="48.10209" lon="-3.54292">
        <ele>167.7</ele>
        <time>2025-02-25T14:18:24Z</time>
      </trkpt>
      <trkpt lat="48.10209" lon="-3.54294">
        <ele>167.9</ele>
        <time>2025-02-25T14:18:25Z</time>
      </trkpt>
      <trkpt lat="48.1021" lon="-3.54296">
        <ele>167.9</ele>
        <time>2025-02-25T14:18:26Z</time>
      </trkpt>
      <trkpt lat="48.1021" lon="-3.54297">
        <ele>168</ele>
        <time>2025-02-25T14:18:27Z</time>
      </trkpt>
      <trkpt lat="48.10211" lon="-3.54298">
        <ele>168</ele>
        <time>2025-02-25T14:18:28Z</time>
      </trkpt>
      <trkpt lat="48.10211" lon="-3.54299">
        <ele>168</ele>
        <time>2025-02-25T14:18:29Z</time>
      </trkpt>
      <trkpt lat="48.10211" lon="-3.543">
        <ele>168.1</ele>
        <time>2025-02-25T14:18:30Z</time>
      </trkpt>
      <trkpt lat="48.10211" lon="-3.54302">
        <ele>168.3</ele>
        <time>2025-02-25T14:18:31Z</time>
      </trkpt>
      <trkpt lat="48.10212" lon="-3.54303">
        <ele>168.3</ele>
        <time>2025-02-25T14:18:32Z</time>
      </trkpt>
      <trkpt lat="48.10212" lon="-3.54304">
        <ele>168.3</ele>
        <time>2025-02-25T14:18:33Z</time>
      </trkpt>
      <trkpt lat="48.10212" lon="-3.54306">
        <ele>168.5</ele>
        <time>2025-02-25T14:18:34Z</time>
      </trkpt>
      <trkpt lat="48.10212" lon="-3.54307">
        <ele>168.6</ele>
        <time>2025-02-25T14:18:35Z</time>
      </trkpt>
      <trkpt lat="48.10213" lon="-3.54308">
        <ele>168.6</ele>
        <time>2025-02-25T14:18:36Z</time>
      </trkpt>
      <trkpt lat="48.10213" lon="-3.5431">
        <ele>168.8</ele>
        <time>2025-02-25T14:18:37Z</time>
      </trkpt>
      <trkpt lat="48.10213" lon="-3.54311">
        <ele>168.9</ele>
        <time>2025-02-25T14:18:38Z</time>
      </trkpt>
      <trkpt lat="48.10214" lon="-3.54312">
        <ele>168.8</ele>
        <time>2025-02-25T14:18:39Z</time>
      </trkpt>
      <trkpt lat="48.10214" lon="-3.54313">
        <ele>168.9</ele>
        <time>2025-02-25T14:18:40Z</time>
      </trkpt>
      <trkpt lat="48.10215" lon="-3.54314">
        <ele>168.8</ele>
        <time>2025-02-25T14:18:41Z</time>
      </trkpt>
      <trkpt lat="48.10215" lon="-3.54315">
        <ele>168.9</ele>
        <time>2025-02-25T14:18:42Z</time>
      </trkpt>
      <trkpt lat="48.10216" lon="-3.54317">
        <ele>168.9</ele>
        <time>2025-02-25T14:18:43Z</time>
      </trkpt>
      <trkpt lat="48.10217" lon="-3.54318">
        <ele>168.8</ele>
        <time>2025-02-25T14:18:44Z</time>
      </trkpt>
      <trkpt lat="48.10218" lon="-3.5432">
        <ele>168.8</ele>
        <time>2025-02-25T14:18:45Z</time>
      </trkpt>
      <trkpt lat="48.10219" lon="-3.54321">
        <ele>168.7</ele>
        <time>2025-02-25T14:18:46Z</time>
      </trkpt>
      <trkpt lat="48.10219" lon="-3.54322">
        <ele>168.8</ele>
        <time>2025-02-25T14:18:47Z</time>
      </trkpt>
      <trkpt lat="48.10219" lon="-3.54322">
        <ele>168.8</ele>
        <time>2025-02-25T14:18:48Z</time>
      </trkpt>
      <trkpt lat="48.10219" lon="-3.54323">
        <ele>168.9</ele>
        <time>2025-02-25T14:18:49Z</time>
      </trkpt>
      <trkpt lat="48.10219" lon="-3.54324">
        <ele>168.9</ele>
        <time>2025-02-25T14:18:50Z</time>
      </trkpt>
      <trkpt lat="48.10219" lon="-3.54325">
        <ele>169</ele>
        <time>2025-02-25T14:18:51Z</time>
      </trkpt>
      <trkpt lat="48.1022" lon="-3.54326">
        <ele>168.9</ele>
        <time>2025-02-25T14:18:52Z</time>
      </trkpt>
      <trkpt lat="48.1022" lon="-3.54327">
        <ele>169</ele>
        <time>2025-02-25T14:18:53Z</time>
      </trkpt>
      <trkpt lat="48.10221" lon="-3.54328">
        <ele>168.9</ele>
        <time>2025-02-25T14:18:54Z</time>
      </trkpt>
      <trkpt lat="48.10222" lon="-3.5433">
        <ele>168.8</ele>
        <time>2025-02-25T14:18:55Z</time>
      </trkpt>
      <trkpt lat="48.10222" lon="-3.54331">
        <ele>168.9</ele>
        <time>2025-02-25T14:18:56Z</time>
      </trkpt>
      <trkpt lat="48.10222" lon="-3.5433">
        <ele>168.8</ele>
        <time>2025-02-25T14:18:57Z</time>
      </trkpt>
      <trkpt lat="48.10222" lon="-3.54334">
        <ele>169.1</ele>
        <time>2025-02-25T14:18:58Z</time>
      </trkpt>
      <trkpt lat="48.10223" lon="-3.54337">
        <ele>169.3</ele>
        <time>2025-02-25T14:18:59Z</time>
      </trkpt>
      <trkpt lat="48.10224" lon="-3.54338">
        <ele>169.4</ele>
        <time>2025-02-25T14:19:00Z</time>
      </trkpt>
      <trkpt lat="48.10225" lon="-3.54339">
        <ele>169.4</ele>
        <time>2025-02-25T14:19:01Z</time>
      </trkpt>
      <trkpt lat="48.10226" lon="-3.5434">
        <ele>169.4</ele>
        <time>2025-02-25T14:19:02Z</time>
      </trkpt>
      <trkpt lat="48.10226" lon="-3.54341">
        <ele>169.5</ele>
        <time>2025-02-25T14:19:03Z</time>
      </trkpt>
      <trkpt lat="48.10227" lon="-3.54342">
        <ele>169.5</ele>
        <time>2025-02-25T14:19:04Z</time>
      </trkpt>
      <trkpt lat="48.10228" lon="-3.54343">
        <ele>169.6</ele>
        <time>2025-02-25T14:19:05Z</time>
      </trkpt>
      <trkpt lat="48.10229" lon="-3.54344">
        <ele>169.6</ele>
        <time>2025-02-25T14:19:06Z</time>
      </trkpt>
      <trkpt lat="48.10229" lon="-3.54346">
        <ele>169.8</ele>
        <time>2025-02-25T14:19:07Z</time>
      </trkpt>
      <trkpt lat="48.1023" lon="-3.54348">
        <ele>169.9</ele>
        <time>2025-02-25T14:19:08Z</time>
      </trkpt>
      <trkpt lat="48.10231" lon="-3.5435">
        <ele>170</ele>
        <time>2025-02-25T14:19:09Z</time>
      </trkpt>
      <trkpt lat="48.10232" lon="-3.54351">
        <ele>170</ele>
        <time>2025-02-25T14:19:10Z</time>
      </trkpt>
      <trkpt lat="48.10233" lon="-3.54352">
        <ele>170</ele>
        <time>2025-02-25T14:19:11Z</time>
      </trkpt>
      <trkpt lat="48.10234" lon="-3.54352">
        <ele>169.9</ele>
        <time>2025-02-25T14:19:12Z</time>
      </trkpt>
      <trkpt lat="48.10234" lon="-3.54353">
        <ele>170</ele>
        <time>2025-02-25T14:19:13Z</time>
      </trkpt>
      <trkpt lat="48.10236" lon="-3.54355">
        <ele>170</ele>
        <time>2025-02-25T14:19:14Z</time>
      </trkpt>
      <trkpt lat="48.10237" lon="-3.54355">
        <ele>169.9</ele>
        <time>2025-02-25T14:19:15Z</time>
      </trkpt>
      <trkpt lat="48.10237" lon="-3.54357">
        <ele>170</ele>
        <time>2025-02-25T14:19:16Z</time>
      </trkpt>
      <trkpt lat="48.10237" lon="-3.54357">
        <ele>170</ele>
        <time>2025-02-25T14:19:17Z</time>
      </trkpt>
      <trkpt lat="48.10237" lon="-3.54359">
        <ele>170.2</ele>
        <time>2025-02-25T14:19:18Z</time>
      </trkpt>
      <trkpt lat="48.10238" lon="-3.54359">
        <ele>170.1</ele>
        <time>2025-02-25T14:19:19Z</time>
      </trkpt>
      <trkpt lat="48.10238" lon="-3.54361">
        <ele>170.3</ele>
        <time>2025-02-25T14:19:20Z</time>
      </trkpt>
      <trkpt lat="48.10238" lon="-3.54361">
        <ele>170.3</ele>
        <time>2025-02-25T14:19:21Z</time>
      </trkpt>
      <trkpt lat="48.10239" lon="-3.54363">
        <ele>170.5</ele>
        <time>2025-02-25T14:19:22Z</time>
      </trkpt>
      <trkpt lat="48.10239" lon="-3.54363">
        <ele>170.5</ele>
        <time>2025-02-25T14:19:23Z</time>
      </trkpt>
      <trkpt lat="48.10239" lon="-3.54364">
        <ele>170.6</ele>
        <time>2025-02-25T14:19:24Z</time>
      </trkpt>
      <trkpt lat="48.1024" lon="-3.54365">
        <ele>170.6</ele>
        <time>2025-02-25T14:19:25Z</time>
      </trkpt>
      <trkpt lat="48.10241" lon="-3.54365">
        <ele>170.5</ele>
        <time>2025-02-25T14:19:26Z</time>
      </trkpt>
      <trkpt lat="48.10242" lon="-3.54366">
        <ele>170.6</ele>
        <time>2025-02-25T14:19:27Z</time>
      </trkpt>
      <trkpt lat="48.10242" lon="-3.54367">
        <ele>170.7</ele>
        <time>2025-02-25T14:19:28Z</time>
      </trkpt>
      <trkpt lat="48.10242" lon="-3.54368">
        <ele>170.9</ele>
        <time>2025-02-25T14:19:29Z</time>
      </trkpt>
      <trkpt lat="48.10242" lon="-3.54369">
        <ele>171</ele>
        <time>2025-02-25T14:19:30Z</time>
      </trkpt>
      <trkpt lat="48.10243" lon="-3.5437">
        <ele>171</ele>
        <time>2025-02-25T14:19:31Z</time>
      </trkpt>
      <trkpt lat="48.10243" lon="-3.54371">
        <ele>171.2</ele>
        <time>2025-02-25T14:19:32Z</time>
      </trkpt>
      <trkpt lat="48.10244" lon="-3.54372">
        <ele>171.2</ele>
        <time>2025-02-25T14:19:33Z</time>
      </trkpt>
      <trkpt lat="48.10244" lon="-3.54373">
        <ele>171.4</ele>
        <time>2025-02-25T14:19:34Z</time>
      </trkpt>
      <trkpt lat="48.10244" lon="-3.54373">
        <ele>171.4</ele>
        <time>2025-02-25T14:19:35Z</time>
      </trkpt>
      <trkpt lat="48.10244" lon="-3.54374">
        <ele>171.5</ele>
        <time>2025-02-25T14:19:36Z</time>
      </trkpt>
      <trkpt lat="48.10245" lon="-3.54376">
        <ele>171.7</ele>
        <time>2025-02-25T14:19:37Z</time>
      </trkpt>
      <trkpt lat="48.10245" lon="-3.54377">
        <ele>171.8</ele>
        <time>2025-02-25T14:19:38Z</time>
      </trkpt>
      <trkpt lat="48.10245" lon="-3.54378">
        <ele>172</ele>
        <time>2025-02-25T14:19:39Z</time>
      </trkpt>
      <trkpt lat="48.10245" lon="-3.54379">
        <ele>172.1</ele>
        <time>2025-02-25T14:19:40Z</time>
      </trkpt>
      <trkpt lat="48.10245" lon="-3.54381">
        <ele>172.4</ele>
        <time>2025-02-25T14:19:41Z</time>
      </trkpt>
      <trkpt lat="48.10245" lon="-3.54382">
        <ele>172.5</ele>
        <time>2025-02-25T14:19:42Z</time>
      </trkpt>
      <trkpt lat="48.10245" lon="-3.54383">
        <ele>172.7</ele>
        <time>2025-02-25T14:19:43Z</time>
      </trkpt>
      <trkpt lat="48.10246" lon="-3.54384">
        <ele>172.7</ele>
        <time>2025-02-25T14:19:44Z</time>
      </trkpt>
      <trkpt lat="48.10246" lon="-3.54386">
        <ele>173</ele>
        <time>2025-02-25T14:19:45Z</time>
      </trkpt>
      <trkpt lat="48.10247" lon="-3.54387">
        <ele>173.1</ele>
        <time>2025-02-25T14:19:46Z</time>
      </trkpt>
      <trkpt lat="48.10247" lon="-3.54388">
        <ele>173.2</ele>
        <time>2025-02-25T14:19:47Z</time>
      </trkpt>
      <trkpt lat="48.10247" lon="-3.54389">
        <ele>173.3</ele>
        <time>2025-02-25T14:19:48Z</time>
      </trkpt>
      <trkpt lat="48.10247" lon="-3.54391">
        <ele>173.7</ele>
        <time>2025-02-25T14:19:49Z</time>
      </trkpt>
      <trkpt lat="48.10247" lon="-3.54392">
        <ele>173.9</ele>
        <time>2025-02-25T14:19:50Z</time>
      </trkpt>
      <trkpt lat="48.10248" lon="-3.54394">
        <ele>174.1</ele>
        <time>2025-02-25T14:19:51Z</time>
      </trkpt>
      <trkpt lat="48.10249" lon="-3.54396">
        <ele>174.4</ele>
        <time>2025-02-25T14:19:52Z</time>
      </trkpt>
      <trkpt lat="48.10248" lon="-3.54397">
        <ele>174.7</ele>
        <time>2025-02-25T14:19:53Z</time>
      </trkpt>
      <trkpt lat="48.10247" lon="-3.54398">
        <ele>174.9</ele>
        <time>2025-02-25T14:19:54Z</time>
      </trkpt>
      <trkpt lat="48.10247" lon="-3.54399">
        <ele>175.1</ele>
        <time>2025-02-25T14:19:55Z</time>
      </trkpt>
      <trkpt lat="48.10247" lon="-3.544">
        <ele>175.3</ele>
        <time>2025-02-25T14:19:56Z</time>
      </trkpt>
      <trkpt lat="48.10247" lon="-3.54402">
        <ele>175.6</ele>
        <time>2025-02-25T14:19:57Z</time>
      </trkpt>
      <trkpt lat="48.10247" lon="-3.54403">
        <ele>175.8</ele>
        <time>2025-02-25T14:19:58Z</time>
      </trkpt>
      <trkpt lat="48.10246" lon="-3.54404">
        <ele>176.1</ele>
        <time>2025-02-25T14:19:59Z</time>
      </trkpt>
      <trkpt lat="48.10246" lon="-3.54405">
        <ele>176.2</ele>
        <time>2025-02-25T14:20:00Z</time>
      </trkpt>
      <trkpt lat="48.10245" lon="-3.54405">
        <ele>176.3</ele>
        <time>2025-02-25T14:20:01Z</time>
      </trkpt>
      <trkpt lat="48.10244" lon="-3.54406">
        <ele>176.6</ele>
        <time>2025-02-25T14:20:02Z</time>
      </trkpt>
      <trkpt lat="48.10244" lon="-3.54407">
        <ele>176.8</ele>
        <time>2025-02-25T14:20:03Z</time>
      </trkpt>
      <trkpt lat="48.10244" lon="-3.54408">
        <ele>176.9</ele>
        <time>2025-02-25T14:20:04Z</time>
      </trkpt>
      <trkpt lat="48.10243" lon="-3.54409">
        <ele>177.2</ele>
        <time>2025-02-25T14:20:05Z</time>
      </trkpt>
      <trkpt lat="48.10243" lon="-3.54409">
        <ele>177.2</ele>
        <time>2025-02-25T14:20:06Z</time>
      </trkpt>
      <trkpt lat="48.10242" lon="-3.54409">
        <ele>177.3</ele>
        <time>2025-02-25T14:20:07Z</time>
      </trkpt>
      <trkpt lat="48.10241" lon="-3.5441">
        <ele>177.5</ele>
        <time>2025-02-25T14:20:08Z</time>
      </trkpt>
      <trkpt lat="48.10241" lon="-3.5441">
        <ele>177.5</ele>
        <time>2025-02-25T14:20:09Z</time>
      </trkpt>
      <trkpt lat="48.1024" lon="-3.54411">
        <ele>177.8</ele>
        <time>2025-02-25T14:20:10Z</time>
      </trkpt>
      <trkpt lat="48.1024" lon="-3.54411">
        <ele>177.8</ele>
        <time>2025-02-25T14:20:11Z</time>
      </trkpt>
      <trkpt lat="48.10239" lon="-3.54411">
        <ele>177.9</ele>
        <time>2025-02-25T14:20:12Z</time>
      </trkpt>
      <trkpt lat="48.10238" lon="-3.54411">
        <ele>177.9</ele>
        <time>2025-02-25T14:20:13Z</time>
      </trkpt>
      <trkpt lat="48.10237" lon="-3.54412">
        <ele>178.2</ele>
        <time>2025-02-25T14:20:14Z</time>
      </trkpt>
      <trkpt lat="48.10237" lon="-3.54412">
        <ele>178.2</ele>
        <time>2025-02-25T14:20:15Z</time>
      </trkpt>
      <trkpt lat="48.10237" lon="-3.54412">
        <ele>178.2</ele>
        <time>2025-02-25T14:20:16Z</time>
      </trkpt>
      <trkpt lat="48.10236" lon="-3.54412">
        <ele>178.3</ele>
        <time>2025-02-25T14:20:17Z</time>
      </trkpt>
      <trkpt lat="48.10236" lon="-3.54413">
        <ele>178.4</ele>
        <time>2025-02-25T14:20:18Z</time>
      </trkpt>
      <trkpt lat="48.10235" lon="-3.54413">
        <ele>178.5</ele>
        <time>2025-02-25T14:20:19Z</time>
      </trkpt>
      <trkpt lat="48.10235" lon="-3.54413">
        <ele>178.5</ele>
        <time>2025-02-25T14:20:20Z</time>
      </trkpt>
      <trkpt lat="48.10234" lon="-3.54413">
        <ele>178.6</ele>
        <time>2025-02-25T14:20:21Z</time>
      </trkpt>
      <trkpt lat="48.10233" lon="-3.54414">
        <ele>178.8</ele>
        <time>2025-02-25T14:20:22Z</time>
      </trkpt>
      <trkpt lat="48.10233" lon="-3.54415">
        <ele>179</ele>
        <time>2025-02-25T14:20:23Z</time>
      </trkpt>
      <trkpt lat="48.10233" lon="-3.54415">
        <ele>179</ele>
        <time>2025-02-25T14:20:24Z</time>
      </trkpt>
      <trkpt lat="48.10232" lon="-3.54415">
        <ele>179</ele>
        <time>2025-02-25T14:20:25Z</time>
      </trkpt>
      <trkpt lat="48.10232" lon="-3.54416">
        <ele>179.2</ele>
        <time>2025-02-25T14:20:26Z</time>
      </trkpt>
      <trkpt lat="48.10231" lon="-3.54416">
        <ele>179.3</ele>
        <time>2025-02-25T14:20:27Z</time>
      </trkpt>
      <trkpt lat="48.10231" lon="-3.54417">
        <ele>179.4</ele>
        <time>2025-02-25T14:20:28Z</time>
      </trkpt>
      <trkpt lat="48.1023" lon="-3.54418">
        <ele>179.6</ele>
        <time>2025-02-25T14:20:29Z</time>
      </trkpt>
      <trkpt lat="48.1023" lon="-3.54419">
        <ele>179.7</ele>
        <time>2025-02-25T14:20:30Z</time>
      </trkpt>
      <trkpt lat="48.10229" lon="-3.54419">
        <ele>179.7</ele>
        <time>2025-02-25T14:20:31Z</time>
      </trkpt>
      <trkpt lat="48.10228" lon="-3.54419">
        <ele>179.8</ele>
        <time>2025-02-25T14:20:32Z</time>
      </trkpt>
      <trkpt lat="48.10228" lon="-3.54419">
        <ele>179.8</ele>
        <time>2025-02-25T14:20:33Z</time>
      </trkpt>
      <trkpt lat="48.10227" lon="-3.5442">
        <ele>179.9</ele>
        <time>2025-02-25T14:20:34Z</time>
      </trkpt>
      <trkpt lat="48.10227" lon="-3.5442">
        <ele>179.9</ele>
        <time>2025-02-25T14:20:35Z</time>
      </trkpt>
      <trkpt lat="48.10226" lon="-3.54421">
        <ele>180.1</ele>
        <time>2025-02-25T14:20:36Z</time>
      </trkpt>
      <trkpt lat="48.10225" lon="-3.54422">
        <ele>180.2</ele>
        <time>2025-02-25T14:20:37Z</time>
      </trkpt>
      <trkpt lat="48.10225" lon="-3.54422">
        <ele>180.2</ele>
        <time>2025-02-25T14:20:38Z</time>
      </trkpt>
      <trkpt lat="48.10223" lon="-3.54423">
        <ele>180.4</ele>
        <time>2025-02-25T14:20:39Z</time>
      </trkpt>
      <trkpt lat="48.10222" lon="-3.54423">
        <ele>180.5</ele>
        <time>2025-02-25T14:20:40Z</time>
      </trkpt>
      <trkpt lat="48.10221" lon="-3.54424">
        <ele>180.5</ele>
        <time>2025-02-25T14:20:41Z</time>
      </trkpt>
      <trkpt lat="48.10219" lon="-3.54426">
        <ele>180.6</ele>
        <time>2025-02-25T14:20:42Z</time>
      </trkpt>
      <trkpt lat="48.10219" lon="-3.54427">
        <ele>180.7</ele>
        <time>2025-02-25T14:20:43Z</time>
      </trkpt>
      <trkpt lat="48.10218" lon="-3.54429">
        <ele>180.8</ele>
        <time>2025-02-25T14:20:44Z</time>
      </trkpt>
      <trkpt lat="48.10217" lon="-3.5443">
        <ele>180.9</ele>
        <time>2025-02-25T14:20:45Z</time>
      </trkpt>
      <trkpt lat="48.10216" lon="-3.5443">
        <ele>180.9</ele>
        <time>2025-02-25T14:20:46Z</time>
      </trkpt>
      <trkpt lat="48.10215" lon="-3.54431">
        <ele>180.9</ele>
        <time>2025-02-25T14:20:47Z</time>
      </trkpt>
      <trkpt lat="48.10214" lon="-3.54432">
        <ele>180.9</ele>
        <time>2025-02-25T14:20:48Z</time>
      </trkpt>
      <trkpt lat="48.10213" lon="-3.54433">
        <ele>181</ele>
        <time>2025-02-25T14:20:49Z</time>
      </trkpt>
      <trkpt lat="48.10212" lon="-3.54433">
        <ele>181</ele>
        <time>2025-02-25T14:20:50Z</time>
      </trkpt>
      <trkpt lat="48.10211" lon="-3.54434">
        <ele>181</ele>
        <time>2025-02-25T14:20:51Z</time>
      </trkpt>
      <trkpt lat="48.1021" lon="-3.54436">
        <ele>181.1</ele>
        <time>2025-02-25T14:20:52Z</time>
      </trkpt>
      <trkpt lat="48.10208" lon="-3.54435">
        <ele>181</ele>
        <time>2025-02-25T14:20:53Z</time>
      </trkpt>
      <trkpt lat="48.10208" lon="-3.54436">
        <ele>181</ele>
        <time>2025-02-25T14:20:54Z</time>
      </trkpt>
      <trkpt lat="48.10208" lon="-3.54436">
        <ele>181</ele>
        <time>2025-02-25T14:20:55Z</time>
      </trkpt>
      <trkpt lat="48.10207" lon="-3.54436">
        <ele>181</ele>
        <time>2025-02-25T14:20:56Z</time>
      </trkpt>
      <trkpt lat="48.10206" lon="-3.54436">
        <ele>181</ele>
        <time>2025-02-25T14:20:57Z</time>
      </trkpt>
      <trkpt lat="48.10206" lon="-3.54437">
        <ele>181</ele>
        <time>2025-02-25T14:20:58Z</time>
      </trkpt>
      <trkpt lat="48.10205" lon="-3.54439">
        <ele>181.1</ele>
        <time>2025-02-25T14:20:59Z</time>
      </trkpt>
      <trkpt lat="48.10204" lon="-3.5444">
        <ele>181.1</ele>
        <time>2025-02-25T14:21:00Z</time>
      </trkpt>
      <trkpt lat="48.10203" lon="-3.5444">
        <ele>181.1</ele>
        <time>2025-02-25T14:21:01Z</time>
      </trkpt>
      <trkpt lat="48.10203" lon="-3.54443">
        <ele>181.2</ele>
        <time>2025-02-25T14:21:02Z</time>
      </trkpt>
      <trkpt lat="48.10202" lon="-3.54444">
        <ele>181.3</ele>
        <time>2025-02-25T14:21:03Z</time>
      </trkpt>
      <trkpt lat="48.10202" lon="-3.54445">
        <ele>181.3</ele>
        <time>2025-02-25T14:21:04Z</time>
      </trkpt>
      <trkpt lat="48.10201" lon="-3.54446">
        <ele>181.2</ele>
        <time>2025-02-25T14:21:05Z</time>
      </trkpt>
      <trkpt lat="48.10201" lon="-3.54447">
        <ele>181.3</ele>
        <time>2025-02-25T14:21:06Z</time>
      </trkpt>
      <trkpt lat="48.102" lon="-3.54449">
        <ele>181.2</ele>
        <time>2025-02-25T14:21:07Z</time>
      </trkpt>
      <trkpt lat="48.10199" lon="-3.5445">
        <ele>181.2</ele>
        <time>2025-02-25T14:21:08Z</time>
      </trkpt>
      <trkpt lat="48.10198" lon="-3.54452">
        <ele>181.2</ele>
        <time>2025-02-25T14:21:09Z</time>
      </trkpt>
      <trkpt lat="48.10197" lon="-3.54453">
        <ele>181.1</ele>
        <time>2025-02-25T14:21:10Z</time>
      </trkpt>
      <trkpt lat="48.10196" lon="-3.54455">
        <ele>181.1</ele>
        <time>2025-02-25T14:21:11Z</time>
      </trkpt>
      <trkpt lat="48.10195" lon="-3.54456">
        <ele>181</ele>
        <time>2025-02-25T14:21:12Z</time>
      </trkpt>
      <trkpt lat="48.10194" lon="-3.54458">
        <ele>181</ele>
        <time>2025-02-25T14:21:13Z</time>
      </trkpt>
      <trkpt lat="48.10192" lon="-3.5446">
        <ele>181</ele>
        <time>2025-02-25T14:21:14Z</time>
      </trkpt>
      <trkpt lat="48.10192" lon="-3.54461">
        <ele>181</ele>
        <time>2025-02-25T14:21:15Z</time>
      </trkpt>
      <trkpt lat="48.10192" lon="-3.54463">
        <ele>181</ele>
        <time>2025-02-25T14:21:16Z</time>
      </trkpt>
      <trkpt lat="48.10191" lon="-3.54463">
        <ele>181</ele>
        <time>2025-02-25T14:21:17Z</time>
      </trkpt>
      <trkpt lat="48.1019" lon="-3.54462">
        <ele>181</ele>
        <time>2025-02-25T14:21:18Z</time>
      </trkpt>
      <trkpt lat="48.10191" lon="-3.54458">
        <ele>181</ele>
        <time>2025-02-25T14:21:19Z</time>
      </trkpt>
      <trkpt lat="48.10191" lon="-3.54456">
        <ele>181</ele>
        <time>2025-02-25T14:21:20Z</time>
      </trkpt>
      <trkpt lat="48.10192" lon="-3.54456">
        <ele>181</ele>
        <time>2025-02-25T14:21:21Z</time>
      </trkpt>
      <trkpt lat="48.10192" lon="-3.54456">
        <ele>181</ele>
        <time>2025-02-25T14:21:22Z</time>
      </trkpt>
      <trkpt lat="48.10192" lon="-3.54455">
        <ele>181</ele>
        <time>2025-02-25T14:21:23Z</time>
      </trkpt>
      <trkpt lat="48.10192" lon="-3.54455">
        <ele>181</ele>
        <time>2025-02-25T14:21:24Z</time>
      </trkpt>
      <trkpt lat="48.10192" lon="-3.54455">
        <ele>181</ele>
        <time>2025-02-25T14:21:25Z</time>
      </trkpt>
      <trkpt lat="48.10191" lon="-3.54455">
        <ele>181</ele>
        <time>2025-02-25T14:21:26Z</time>
      </trkpt>
      <trkpt lat="48.10191" lon="-3.5446">
        <ele>181</ele>
        <time>2025-02-25T14:21:27Z</time>
      </trkpt>
      <trkpt lat="48.1019" lon="-3.54463">
        <ele>181</ele>
        <time>2025-02-25T14:21:28Z</time>
      </trkpt>
      <trkpt lat="48.10188" lon="-3.54463">
        <ele>181</ele>
        <time>2025-02-25T14:21:29Z</time>
      </trkpt>
      <trkpt lat="48.10188" lon="-3.54463">
        <ele>181</ele>
        <time>2025-02-25T14:21:30Z</time>
      </trkpt>
      <trkpt lat="48.10187" lon="-3.54462">
        <ele>181</ele>
        <time>2025-02-25T14:21:31Z</time>
      </trkpt>
      <trkpt lat="48.10187" lon="-3.54461">
        <ele>181</ele>
        <time>2025-02-25T14:21:32Z</time>
      </trkpt>
      <trkpt lat="48.10187" lon="-3.5446">
        <ele>181</ele>
        <time>2025-02-25T14:21:33Z</time>
      </trkpt>
      <trkpt lat="48.10187" lon="-3.54459">
        <ele>181</ele>
        <time>2025-02-25T14:21:34Z</time>
      </trkpt>
      <trkpt lat="48.10188" lon="-3.54458">
        <ele>181</ele>
        <time>2025-02-25T14:21:35Z</time>
      </trkpt>
      <trkpt lat="48.10188" lon="-3.54458">
        <ele>181</ele>
        <time>2025-02-25T14:21:36Z</time>
      </trkpt>
      <trkpt lat="48.10188" lon="-3.54458">
        <ele>181</ele>
        <time>2025-02-25T14:21:37Z</time>
      </trkpt>
      <trkpt lat="48.10188" lon="-3.54458">
        <ele>181</ele>
        <time>2025-02-25T14:21:38Z</time>
      </trkpt>
      <trkpt lat="48.10188" lon="-3.54458">
        <ele>181</ele>
        <time>2025-02-25T14:21:39Z</time>
      </trkpt>
      <trkpt lat="48.10187" lon="-3.54458">
        <ele>181</ele>
        <time>2025-02-25T14:21:40Z</time>
      </trkpt>
      <trkpt lat="48.10187" lon="-3.54458">
        <ele>181</ele>
        <time>2025-02-25T14:21:41Z</time>
      </trkpt>
      <trkpt lat="48.10187" lon="-3.54459">
        <ele>181</ele>
        <time>2025-02-25T14:21:42Z</time>
      </trkpt>
      <trkpt lat="48.10188" lon="-3.54458">
        <ele>181</ele>
        <time>2025-02-25T14:21:43Z</time>
      </trkpt>
      <trkpt lat="48.10188" lon="-3.54457">
        <ele>181</ele>
        <time>2025-02-25T14:21:44Z</time>
      </trkpt>
      <trkpt lat="48.10189" lon="-3.54457">
        <ele>181</ele>
        <time>2025-02-25T14:21:45Z</time>
      </trkpt>
      <trkpt lat="48.10188" lon="-3.54457">
        <ele>181</ele>
        <time>2025-02-25T14:21:46Z</time>
      </trkpt>
      <trkpt lat="48.10188" lon="-3.54457">
        <ele>181</ele>
        <time>2025-02-25T14:21:47Z</time>
      </trkpt>
      <trkpt lat="48.10188" lon="-3.54457">
        <ele>181</ele>
        <time>2025-02-25T14:21:48Z</time>
      </trkpt>
      <trkpt lat="48.10189" lon="-3.54457">
        <ele>181</ele>
        <time>2025-02-25T14:21:49Z</time>
      </trkpt>
      <trkpt lat="48.10189" lon="-3.54457">
        <ele>181</ele>
        <time>2025-02-25T14:21:50Z</time>
      </trkpt>
      <trkpt lat="48.1019" lon="-3.54458">
        <ele>181</ele>
        <time>2025-02-25T14:21:51Z</time>
      </trkpt>
      <trkpt lat="48.10191" lon="-3.54457">
        <ele>181</ele>
        <time>2025-02-25T14:21:52Z</time>
      </trkpt>
      <trkpt lat="48.10192" lon="-3.54457">
        <ele>181</ele>
        <time>2025-02-25T14:21:53Z</time>
      </trkpt>
      <trkpt lat="48.10193" lon="-3.54457">
        <ele>181</ele>
        <time>2025-02-25T14:21:54Z</time>
      </trkpt>
      <trkpt lat="48.10194" lon="-3.54457">
        <ele>181</ele>
        <time>2025-02-25T14:21:55Z</time>
      </trkpt>
      <trkpt lat="48.10195" lon="-3.54457">
        <ele>181</ele>
        <time>2025-02-25T14:21:56Z</time>
      </trkpt>
      <trkpt lat="48.10196" lon="-3.54458">
        <ele>181.1</ele>
        <time>2025-02-25T14:21:57Z</time>
      </trkpt>
      <trkpt lat="48.10197" lon="-3.54459">
        <ele>181.1</ele>
        <time>2025-02-25T14:21:58Z</time>
      </trkpt>
      <trkpt lat="48.10198" lon="-3.5446">
        <ele>181.2</ele>
        <time>2025-02-25T14:21:59Z</time>
      </trkpt>
      <trkpt lat="48.10199" lon="-3.54461">
        <ele>181.3</ele>
        <time>2025-02-25T14:22:00Z</time>
      </trkpt>
      <trkpt lat="48.10199" lon="-3.54462">
        <ele>181.3</ele>
        <time>2025-02-25T14:22:01Z</time>
      </trkpt>
      <trkpt lat="48.102" lon="-3.54464">
        <ele>181.3</ele>
        <time>2025-02-25T14:22:02Z</time>
      </trkpt>
      <trkpt lat="48.102" lon="-3.54465">
        <ele>181.3</ele>
        <time>2025-02-25T14:22:03Z</time>
      </trkpt>
      <trkpt lat="48.10201" lon="-3.54466">
        <ele>181.4</ele>
        <time>2025-02-25T14:22:04Z</time>
      </trkpt>
      <trkpt lat="48.10201" lon="-3.54467">
        <ele>181.4</ele>
        <time>2025-02-25T14:22:05Z</time>
      </trkpt>
      <trkpt lat="48.10202" lon="-3.54468">
        <ele>181.5</ele>
        <time>2025-02-25T14:22:06Z</time>
      </trkpt>
      <trkpt lat="48.10202" lon="-3.54469">
        <ele>181.5</ele>
        <time>2025-02-25T14:22:07Z</time>
      </trkpt>
      <trkpt lat="48.10203" lon="-3.5447">
        <ele>181.6</ele>
        <time>2025-02-25T14:22:08Z</time>
      </trkpt>
      <trkpt lat="48.10203" lon="-3.54471">
        <ele>181.6</ele>
        <time>2025-02-25T14:22:09Z</time>
      </trkpt>
      <trkpt lat="48.10204" lon="-3.54472">
        <ele>181.7</ele>
        <time>2025-02-25T14:22:10Z</time>
      </trkpt>
      <trkpt lat="48.10205" lon="-3.54473">
        <ele>181.8</ele>
        <time>2025-02-25T14:22:11Z</time>
      </trkpt>
      <trkpt lat="48.10205" lon="-3.54474">
        <ele>181.8</ele>
        <time>2025-02-25T14:22:12Z</time>
      </trkpt>
      <trkpt lat="48.10206" lon="-3.54475">
        <ele>181.9</ele>
        <time>2025-02-25T14:22:13Z</time>
      </trkpt>
      <trkpt lat="48.10207" lon="-3.54476">
        <ele>182</ele>
        <time>2025-02-25T14:22:14Z</time>
      </trkpt>
      <trkpt lat="48.10207" lon="-3.54478">
        <ele>182</ele>
        <time>2025-02-25T14:22:15Z</time>
      </trkpt>
      <trkpt lat="48.10208" lon="-3.54479">
        <ele>182.1</ele>
        <time>2025-02-25T14:22:16Z</time>
      </trkpt>
      <trkpt lat="48.10208" lon="-3.5448">
        <ele>182.1</ele>
        <time>2025-02-25T14:22:17Z</time>
      </trkpt>
      <trkpt lat="48.10209" lon="-3.54481">
        <ele>182.2</ele>
        <time>2025-02-25T14:22:18Z</time>
      </trkpt>
      <trkpt lat="48.10209" lon="-3.54482">
        <ele>182.2</ele>
        <time>2025-02-25T14:22:19Z</time>
      </trkpt>
      <trkpt lat="48.1021" lon="-3.54483">
        <ele>182.3</ele>
        <time>2025-02-25T14:22:20Z</time>
      </trkpt>
      <trkpt lat="48.10211" lon="-3.54484">
        <ele>182.4</ele>
        <time>2025-02-25T14:22:21Z</time>
      </trkpt>
      <trkpt lat="48.10212" lon="-3.54485">
        <ele>182.4</ele>
        <time>2025-02-25T14:22:22Z</time>
      </trkpt>
      <trkpt lat="48.10212" lon="-3.54486">
        <ele>182.4</ele>
        <time>2025-02-25T14:22:23Z</time>
      </trkpt>
      <trkpt lat="48.10213" lon="-3.54487">
        <ele>182.5</ele>
        <time>2025-02-25T14:22:24Z</time>
      </trkpt>
      <trkpt lat="48.10213" lon="-3.54489">
        <ele>182.5</ele>
        <time>2025-02-25T14:22:25Z</time>
      </trkpt>
      <trkpt lat="48.10213" lon="-3.54491">
        <ele>182.6</ele>
        <time>2025-02-25T14:22:26Z</time>
      </trkpt>
      <trkpt lat="48.10213" lon="-3.54493">
        <ele>182.6</ele>
        <time>2025-02-25T14:22:27Z</time>
      </trkpt>
      <trkpt lat="48.10212" lon="-3.54494">
        <ele>182.6</ele>
        <time>2025-02-25T14:22:28Z</time>
      </trkpt>
      <trkpt lat="48.10212" lon="-3.54495">
        <ele>182.6</ele>
        <time>2025-02-25T14:22:29Z</time>
      </trkpt>
      <trkpt lat="48.10212" lon="-3.54497">
        <ele>182.6</ele>
        <time>2025-02-25T14:22:30Z</time>
      </trkpt>
      <trkpt lat="48.10212" lon="-3.54498">
        <ele>182.6</ele>
        <time>2025-02-25T14:22:31Z</time>
      </trkpt>
      <trkpt lat="48.10213" lon="-3.545">
        <ele>182.7</ele>
        <time>2025-02-25T14:22:32Z</time>
      </trkpt>
      <trkpt lat="48.10212" lon="-3.54502">
        <ele>182.7</ele>
        <time>2025-02-25T14:22:33Z</time>
      </trkpt>
      <trkpt lat="48.10213" lon="-3.54503">
        <ele>182.7</ele>
        <time>2025-02-25T14:22:34Z</time>
      </trkpt>
      <trkpt lat="48.10213" lon="-3.54505">
        <ele>182.7</ele>
        <time>2025-02-25T14:22:35Z</time>
      </trkpt>
      <trkpt lat="48.10214" lon="-3.54506">
        <ele>182.8</ele>
        <time>2025-02-25T14:22:36Z</time>
      </trkpt>
      <trkpt lat="48.10215" lon="-3.54507">
        <ele>182.8</ele>
        <time>2025-02-25T14:22:37Z</time>
      </trkpt>
      <trkpt lat="48.10216" lon="-3.54508">
        <ele>182.8</ele>
        <time>2025-02-25T14:22:38Z</time>
      </trkpt>
      <trkpt lat="48.10216" lon="-3.5451">
        <ele>182.9</ele>
        <time>2025-02-25T14:22:39Z</time>
      </trkpt>
      <trkpt lat="48.10217" lon="-3.54511">
        <ele>182.9</ele>
        <time>2025-02-25T14:22:40Z</time>
      </trkpt>
      <trkpt lat="48.10217" lon="-3.54513">
        <ele>182.9</ele>
        <time>2025-02-25T14:22:41Z</time>
      </trkpt>
      <trkpt lat="48.10217" lon="-3.54514">
        <ele>182.9</ele>
        <time>2025-02-25T14:22:42Z</time>
      </trkpt>
      <trkpt lat="48.10218" lon="-3.54515">
        <ele>182.9</ele>
        <time>2025-02-25T14:22:43Z</time>
      </trkpt>
      <trkpt lat="48.10218" lon="-3.54517">
        <ele>182.9</ele>
        <time>2025-02-25T14:22:44Z</time>
      </trkpt>
      <trkpt lat="48.10219" lon="-3.54518">
        <ele>183</ele>
        <time>2025-02-25T14:22:45Z</time>
      </trkpt>
      <trkpt lat="48.10219" lon="-3.54519">
        <ele>183</ele>
        <time>2025-02-25T14:22:46Z</time>
      </trkpt>
      <trkpt lat="48.1022" lon="-3.5452">
        <ele>183</ele>
        <time>2025-02-25T14:22:47Z</time>
      </trkpt>
      <trkpt lat="48.1022" lon="-3.54521">
        <ele>183</ele>
        <time>2025-02-25T14:22:48Z</time>
      </trkpt>
      <trkpt lat="48.10221" lon="-3.54521">
        <ele>183</ele>
        <time>2025-02-25T14:22:49Z</time>
      </trkpt>
      <trkpt lat="48.10222" lon="-3.54523">
        <ele>183</ele>
        <time>2025-02-25T14:22:50Z</time>
      </trkpt>
      <trkpt lat="48.10223" lon="-3.54524">
        <ele>183</ele>
        <time>2025-02-25T14:22:51Z</time>
      </trkpt>
      <trkpt lat="48.10223" lon="-3.54526">
        <ele>183</ele>
        <time>2025-02-25T14:22:52Z</time>
      </trkpt>
      <trkpt lat="48.10223" lon="-3.54527">
        <ele>183</ele>
        <time>2025-02-25T14:22:53Z</time>
      </trkpt>
      <trkpt lat="48.10223" lon="-3.54529">
        <ele>183</ele>
        <time>2025-02-25T14:22:54Z</time>
      </trkpt>
      <trkpt lat="48.10223" lon="-3.5453">
        <ele>183</ele>
        <time>2025-02-25T14:22:55Z</time>
      </trkpt>
      <trkpt lat="48.10223" lon="-3.54532">
        <ele>183</ele>
        <time>2025-02-25T14:22:56Z</time>
      </trkpt>
      <trkpt lat="48.10223" lon="-3.54533">
        <ele>183</ele>
        <time>2025-02-25T14:22:57Z</time>
      </trkpt>
      <trkpt lat="48.10224" lon="-3.54534">
        <ele>183.1</ele>
        <time>2025-02-25T14:22:58Z</time>
      </trkpt>
      <trkpt lat="48.10225" lon="-3.54536">
        <ele>183.1</ele>
        <time>2025-02-25T14:22:59Z</time>
      </trkpt>
      <trkpt lat="48.10225" lon="-3.54537">
        <ele>183.1</ele>
        <time>2025-02-25T14:23:00Z</time>
      </trkpt>
      <trkpt lat="48.10226" lon="-3.54538">
        <ele>183.1</ele>
        <time>2025-02-25T14:23:01Z</time>
      </trkpt>
      <trkpt lat="48.10227" lon="-3.54539">
        <ele>183.2</ele>
        <time>2025-02-25T14:23:02Z</time>
      </trkpt>
      <trkpt lat="48.10228" lon="-3.54541">
        <ele>183.2</ele>
        <time>2025-02-25T14:23:03Z</time>
      </trkpt>
      <trkpt lat="48.10228" lon="-3.54542">
        <ele>183.2</ele>
        <time>2025-02-25T14:23:04Z</time>
      </trkpt>
      <trkpt lat="48.10228" lon="-3.54544">
        <ele>183.2</ele>
        <time>2025-02-25T14:23:05Z</time>
      </trkpt>
      <trkpt lat="48.10229" lon="-3.54545">
        <ele>183.2</ele>
        <time>2025-02-25T14:23:06Z</time>
      </trkpt>
      <trkpt lat="48.1023" lon="-3.54546">
        <ele>183.3</ele>
        <time>2025-02-25T14:23:07Z</time>
      </trkpt>
      <trkpt lat="48.1023" lon="-3.54547">
        <ele>183.3</ele>
        <time>2025-02-25T14:23:08Z</time>
      </trkpt>
      <trkpt lat="48.10231" lon="-3.54549">
        <ele>183.3</ele>
        <time>2025-02-25T14:23:09Z</time>
      </trkpt>
      <trkpt lat="48.10231" lon="-3.5455">
        <ele>183.3</ele>
        <time>2025-02-25T14:23:10Z</time>
      </trkpt>
      <trkpt lat="48.10232" lon="-3.54552">
        <ele>183.4</ele>
        <time>2025-02-25T14:23:11Z</time>
      </trkpt>
      <trkpt lat="48.10232" lon="-3.54554">
        <ele>183.4</ele>
        <time>2025-02-25T14:23:12Z</time>
      </trkpt>
      <trkpt lat="48.10233" lon="-3.54555">
        <ele>183.4</ele>
        <time>2025-02-25T14:23:13Z</time>
      </trkpt>
      <trkpt lat="48.10234" lon="-3.54556">
        <ele>183.4</ele>
        <time>2025-02-25T14:23:14Z</time>
      </trkpt>
      <trkpt lat="48.10235" lon="-3.54558">
        <ele>183.5</ele>
        <time>2025-02-25T14:23:15Z</time>
      </trkpt>
      <trkpt lat="48.10235" lon="-3.54559">
        <ele>183.5</ele>
        <time>2025-02-25T14:23:16Z</time>
      </trkpt>
      <trkpt lat="48.10236" lon="-3.5456">
        <ele>183.5</ele>
        <time>2025-02-25T14:23:17Z</time>
      </trkpt>
      <trkpt lat="48.10237" lon="-3.54561">
        <ele>183.5</ele>
        <time>2025-02-25T14:23:18Z</time>
      </trkpt>
      <trkpt lat="48.10238" lon="-3.54562">
        <ele>183.6</ele>
        <time>2025-02-25T14:23:19Z</time>
      </trkpt>
      <trkpt lat="48.10239" lon="-3.54564">
        <ele>183.6</ele>
        <time>2025-02-25T14:23:20Z</time>
      </trkpt>
      <trkpt lat="48.1024" lon="-3.54566">
        <ele>183.6</ele>
        <time>2025-02-25T14:23:21Z</time>
      </trkpt>
      <trkpt lat="48.10241" lon="-3.54568">
        <ele>183.7</ele>
        <time>2025-02-25T14:23:22Z</time>
      </trkpt>
      <trkpt lat="48.10241" lon="-3.54569">
        <ele>183.7</ele>
        <time>2025-02-25T14:23:23Z</time>
      </trkpt>
      <trkpt lat="48.10242" lon="-3.54571">
        <ele>183.7</ele>
        <time>2025-02-25T14:23:24Z</time>
      </trkpt>
      <trkpt lat="48.10243" lon="-3.54572">
        <ele>183.7</ele>
        <time>2025-02-25T14:23:25Z</time>
      </trkpt>
      <trkpt lat="48.10243" lon="-3.54574">
        <ele>183.7</ele>
        <time>2025-02-25T14:23:26Z</time>
      </trkpt>
      <trkpt lat="48.10244" lon="-3.54575">
        <ele>183.8</ele>
        <time>2025-02-25T14:23:27Z</time>
      </trkpt>
      <trkpt lat="48.10245" lon="-3.54576">
        <ele>183.8</ele>
        <time>2025-02-25T14:23:28Z</time>
      </trkpt>
      <trkpt lat="48.10246" lon="-3.54578">
        <ele>183.9</ele>
        <time>2025-02-25T14:23:29Z</time>
      </trkpt>
      <trkpt lat="48.10246" lon="-3.54579">
        <ele>183.9</ele>
        <time>2025-02-25T14:23:30Z</time>
      </trkpt>
      <trkpt lat="48.10248" lon="-3.54581">
        <ele>183.9</ele>
        <time>2025-02-25T14:23:31Z</time>
      </trkpt>
      <trkpt lat="48.10249" lon="-3.54582">
        <ele>184</ele>
        <time>2025-02-25T14:23:32Z</time>
      </trkpt>
      <trkpt lat="48.10249" lon="-3.54583">
        <ele>184</ele>
        <time>2025-02-25T14:23:33Z</time>
      </trkpt>
      <trkpt lat="48.1025" lon="-3.54585">
        <ele>183.9</ele>
        <time>2025-02-25T14:23:34Z</time>
      </trkpt>
      <trkpt lat="48.10251" lon="-3.54586">
        <ele>183.9</ele>
        <time>2025-02-25T14:23:35Z</time>
      </trkpt>
      <trkpt lat="48.10252" lon="-3.54587">
        <ele>184</ele>
        <time>2025-02-25T14:23:36Z</time>
      </trkpt>
      <trkpt lat="48.10253" lon="-3.54589">
        <ele>183.9</ele>
        <time>2025-02-25T14:23:37Z</time>
      </trkpt>
      <trkpt lat="48.10253" lon="-3.5459">
        <ele>183.9</ele>
        <time>2025-02-25T14:23:38Z</time>
      </trkpt>
      <trkpt lat="48.10254" lon="-3.54592">
        <ele>183.9</ele>
        <time>2025-02-25T14:23:39Z</time>
      </trkpt>
      <trkpt lat="48.10255" lon="-3.54593">
        <ele>184</ele>
        <time>2025-02-25T14:23:40Z</time>
      </trkpt>
      <trkpt lat="48.10255" lon="-3.54595">
        <ele>183.9</ele>
        <time>2025-02-25T14:23:41Z</time>
      </trkpt>
      <trkpt lat="48.10255" lon="-3.54596">
        <ele>183.9</ele>
        <time>2025-02-25T14:23:42Z</time>
      </trkpt>
      <trkpt lat="48.10256" lon="-3.54598">
        <ele>183.9</ele>
        <time>2025-02-25T14:23:43Z</time>
      </trkpt>
      <trkpt lat="48.10257" lon="-3.54599">
        <ele>184</ele>
        <time>2025-02-25T14:23:44Z</time>
      </trkpt>
      <trkpt lat="48.10258" lon="-3.546">
        <ele>184</ele>
        <time>2025-02-25T14:23:45Z</time>
      </trkpt>
      <trkpt lat="48.10258" lon="-3.54602">
        <ele>184</ele>
        <time>2025-02-25T14:23:46Z</time>
      </trkpt>
      <trkpt lat="48.10259" lon="-3.54603">
        <ele>184.1</ele>
        <time>2025-02-25T14:23:47Z</time>
      </trkpt>
      <trkpt lat="48.10259" lon="-3.54604">
        <ele>184.1</ele>
        <time>2025-02-25T14:23:48Z</time>
      </trkpt>
      <trkpt lat="48.1026" lon="-3.54605">
        <ele>184.1</ele>
        <time>2025-02-25T14:23:49Z</time>
      </trkpt>
      <trkpt lat="48.1026" lon="-3.54606">
        <ele>184.1</ele>
        <time>2025-02-25T14:23:50Z</time>
      </trkpt>
      <trkpt lat="48.10261" lon="-3.54608">
        <ele>184.2</ele>
        <time>2025-02-25T14:23:51Z</time>
      </trkpt>
      <trkpt lat="48.10262" lon="-3.54609">
        <ele>184.3</ele>
        <time>2025-02-25T14:23:52Z</time>
      </trkpt>
      <trkpt lat="48.10262" lon="-3.5461">
        <ele>184.3</ele>
        <time>2025-02-25T14:23:53Z</time>
      </trkpt>
      <trkpt lat="48.10263" lon="-3.54611">
        <ele>184.4</ele>
        <time>2025-02-25T14:23:54Z</time>
      </trkpt>
      <trkpt lat="48.10263" lon="-3.54612">
        <ele>184.4</ele>
        <time>2025-02-25T14:23:55Z</time>
      </trkpt>
      <trkpt lat="48.10264" lon="-3.54614">
        <ele>184.4</ele>
        <time>2025-02-25T14:23:56Z</time>
      </trkpt>
      <trkpt lat="48.10265" lon="-3.54615">
        <ele>184.5</ele>
        <time>2025-02-25T14:23:57Z</time>
      </trkpt>
      <trkpt lat="48.10266" lon="-3.54616">
        <ele>184.6</ele>
        <time>2025-02-25T14:23:58Z</time>
      </trkpt>
      <trkpt lat="48.10267" lon="-3.54617">
        <ele>184.6</ele>
        <time>2025-02-25T14:23:59Z</time>
      </trkpt>
      <trkpt lat="48.10268" lon="-3.54619">
        <ele>184.7</ele>
        <time>2025-02-25T14:24:00Z</time>
      </trkpt>
      <trkpt lat="48.10269" lon="-3.5462">
        <ele>184.7</ele>
        <time>2025-02-25T14:24:01Z</time>
      </trkpt>
      <trkpt lat="48.10269" lon="-3.54622">
        <ele>184.7</ele>
        <time>2025-02-25T14:24:02Z</time>
      </trkpt>
      <trkpt lat="48.1027" lon="-3.54623">
        <ele>184.7</ele>
        <time>2025-02-25T14:24:03Z</time>
      </trkpt>
      <trkpt lat="48.10271" lon="-3.54624">
        <ele>184.8</ele>
        <time>2025-02-25T14:24:04Z</time>
      </trkpt>
      <trkpt lat="48.10272" lon="-3.54625">
        <ele>184.9</ele>
        <time>2025-02-25T14:24:05Z</time>
      </trkpt>
      <trkpt lat="48.10273" lon="-3.54627">
        <ele>184.9</ele>
        <time>2025-02-25T14:24:06Z</time>
      </trkpt>
      <trkpt lat="48.10273" lon="-3.54629">
        <ele>184.8</ele>
        <time>2025-02-25T14:24:07Z</time>
      </trkpt>
      <trkpt lat="48.10274" lon="-3.5463">
        <ele>184.9</ele>
        <time>2025-02-25T14:24:08Z</time>
      </trkpt>
      <trkpt lat="48.10275" lon="-3.54631">
        <ele>185</ele>
        <time>2025-02-25T14:24:09Z</time>
      </trkpt>
      <trkpt lat="48.10276" lon="-3.54633">
        <ele>185</ele>
        <time>2025-02-25T14:24:10Z</time>
      </trkpt>
      <trkpt lat="48.10277" lon="-3.54634">
        <ele>185.1</ele>
        <time>2025-02-25T14:24:11Z</time>
      </trkpt>
      <trkpt lat="48.10277" lon="-3.54635">
        <ele>185.1</ele>
        <time>2025-02-25T14:24:12Z</time>
      </trkpt>
      <trkpt lat="48.10278" lon="-3.54637">
        <ele>185.1</ele>
        <time>2025-02-25T14:24:13Z</time>
      </trkpt>
      <trkpt lat="48.10279" lon="-3.54638">
        <ele>185.1</ele>
        <time>2025-02-25T14:24:14Z</time>
      </trkpt>
      <trkpt lat="48.10279" lon="-3.54639">
        <ele>185</ele>
        <time>2025-02-25T14:24:15Z</time>
      </trkpt>
      <trkpt lat="48.10281" lon="-3.5464">
        <ele>185.1</ele>
        <time>2025-02-25T14:24:16Z</time>
      </trkpt>
      <trkpt lat="48.10281" lon="-3.54641">
        <ele>185</ele>
        <time>2025-02-25T14:24:17Z</time>
      </trkpt>
      <trkpt lat="48.10282" lon="-3.54643">
        <ele>185</ele>
        <time>2025-02-25T14:24:18Z</time>
      </trkpt>
      <trkpt lat="48.10282" lon="-3.54645">
        <ele>184.9</ele>
        <time>2025-02-25T14:24:19Z</time>
      </trkpt>
      <trkpt lat="48.10283" lon="-3.54646">
        <ele>184.9</ele>
        <time>2025-02-25T14:24:20Z</time>
      </trkpt>
      <trkpt lat="48.10284" lon="-3.54647">
        <ele>184.9</ele>
        <time>2025-02-25T14:24:21Z</time>
      </trkpt>
      <trkpt lat="48.10284" lon="-3.54649">
        <ele>184.9</ele>
        <time>2025-02-25T14:24:22Z</time>
      </trkpt>
      <trkpt lat="48.10285" lon="-3.5465">
        <ele>184.9</ele>
        <time>2025-02-25T14:24:23Z</time>
      </trkpt>
      <trkpt lat="48.10286" lon="-3.54652">
        <ele>184.8</ele>
        <time>2025-02-25T14:24:24Z</time>
      </trkpt>
      <trkpt lat="48.10287" lon="-3.54654">
        <ele>184.8</ele>
        <time>2025-02-25T14:24:25Z</time>
      </trkpt>
      <trkpt lat="48.10287" lon="-3.54656">
        <ele>184.7</ele>
        <time>2025-02-25T14:24:26Z</time>
      </trkpt>
      <trkpt lat="48.10287" lon="-3.54658">
        <ele>184.6</ele>
        <time>2025-02-25T14:24:27Z</time>
      </trkpt>
      <trkpt lat="48.10287" lon="-3.5466">
        <ele>184.6</ele>
        <time>2025-02-25T14:24:28Z</time>
      </trkpt>
      <trkpt lat="48.10287" lon="-3.54661">
        <ele>184.5</ele>
        <time>2025-02-25T14:24:29Z</time>
      </trkpt>
      <trkpt lat="48.10287" lon="-3.54663">
        <ele>184.5</ele>
        <time>2025-02-25T14:24:30Z</time>
      </trkpt>
      <trkpt lat="48.10287" lon="-3.54665">
        <ele>184.4</ele>
        <time>2025-02-25T14:24:31Z</time>
      </trkpt>
      <trkpt lat="48.10286" lon="-3.54667">
        <ele>184.3</ele>
        <time>2025-02-25T14:24:32Z</time>
      </trkpt>
      <trkpt lat="48.10286" lon="-3.54669">
        <ele>184.3</ele>
        <time>2025-02-25T14:24:33Z</time>
      </trkpt>
      <trkpt lat="48.10285" lon="-3.5467">
        <ele>184.3</ele>
        <time>2025-02-25T14:24:34Z</time>
      </trkpt>
      <trkpt lat="48.10282" lon="-3.54669">
        <ele>184.2</ele>
        <time>2025-02-25T14:24:35Z</time>
      </trkpt>
      <trkpt lat="48.10281" lon="-3.54668">
        <ele>184.1</ele>
        <time>2025-02-25T14:24:36Z</time>
      </trkpt>
      <trkpt lat="48.1028" lon="-3.54667">
        <ele>184.1</ele>
        <time>2025-02-25T14:24:37Z</time>
      </trkpt>
      <trkpt lat="48.10279" lon="-3.54667">
        <ele>184</ele>
        <time>2025-02-25T14:24:38Z</time>
      </trkpt>
      <trkpt lat="48.10278" lon="-3.54668">
        <ele>184</ele>
        <time>2025-02-25T14:24:39Z</time>
      </trkpt>
      <trkpt lat="48.10277" lon="-3.5467">
        <ele>183.9</ele>
        <time>2025-02-25T14:24:40Z</time>
      </trkpt>
      <trkpt lat="48.10278" lon="-3.54673">
        <ele>184</ele>
        <time>2025-02-25T14:24:41Z</time>
      </trkpt>
      <trkpt lat="48.10278" lon="-3.54675">
        <ele>184</ele>
        <time>2025-02-25T14:24:42Z</time>
      </trkpt>
      <trkpt lat="48.10277" lon="-3.54677">
        <ele>183.9</ele>
        <time>2025-02-25T14:24:43Z</time>
      </trkpt>
      <trkpt lat="48.10277" lon="-3.54679">
        <ele>183.9</ele>
        <time>2025-02-25T14:24:44Z</time>
      </trkpt>
      <trkpt lat="48.10277" lon="-3.54681">
        <ele>183.9</ele>
        <time>2025-02-25T14:24:45Z</time>
      </trkpt>
      <trkpt lat="48.10277" lon="-3.54684">
        <ele>183.9</ele>
        <time>2025-02-25T14:24:46Z</time>
      </trkpt>
      <trkpt lat="48.10277" lon="-3.54686">
        <ele>183.9</ele>
        <time>2025-02-25T14:24:47Z</time>
      </trkpt>
      <trkpt lat="48.10277" lon="-3.54688">
        <ele>183.9</ele>
        <time>2025-02-25T14:24:48Z</time>
      </trkpt>
      <trkpt lat="48.10276" lon="-3.5469">
        <ele>183.9</ele>
        <time>2025-02-25T14:24:49Z</time>
      </trkpt>
      <trkpt lat="48.10275" lon="-3.54692">
        <ele>183.8</ele>
        <time>2025-02-25T14:24:50Z</time>
      </trkpt>
      <trkpt lat="48.10274" lon="-3.54693">
        <ele>183.7</ele>
        <time>2025-02-25T14:24:51Z</time>
      </trkpt>
      <trkpt lat="48.10273" lon="-3.54695">
        <ele>183.7</ele>
        <time>2025-02-25T14:24:52Z</time>
      </trkpt>
      <trkpt lat="48.10273" lon="-3.54697">
        <ele>183.6</ele>
        <time>2025-02-25T14:24:53Z</time>
      </trkpt>
      <trkpt lat="48.10272" lon="-3.54699">
        <ele>183.5</ele>
        <time>2025-02-25T14:24:54Z</time>
      </trkpt>
      <trkpt lat="48.10271" lon="-3.54701">
        <ele>183.5</ele>
        <time>2025-02-25T14:24:55Z</time>
      </trkpt>
      <trkpt lat="48.1027" lon="-3.54702">
        <ele>183.4</ele>
        <time>2025-02-25T14:24:56Z</time>
      </trkpt>
      <trkpt lat="48.10269" lon="-3.54704">
        <ele>183.3</ele>
        <time>2025-02-25T14:24:57Z</time>
      </trkpt>
      <trkpt lat="48.10268" lon="-3.54706">
        <ele>183.1</ele>
        <time>2025-02-25T14:24:58Z</time>
      </trkpt>
      <trkpt lat="48.10267" lon="-3.54707">
        <ele>183</ele>
        <time>2025-02-25T14:24:59Z</time>
      </trkpt>
      <trkpt lat="48.10267" lon="-3.54709">
        <ele>183</ele>
        <time>2025-02-25T14:25:00Z</time>
      </trkpt>
      <trkpt lat="48.10265" lon="-3.5471">
        <ele>182.8</ele>
        <time>2025-02-25T14:25:01Z</time>
      </trkpt>
      <trkpt lat="48.10265" lon="-3.54712">
        <ele>182.8</ele>
        <time>2025-02-25T14:25:02Z</time>
      </trkpt>
      <trkpt lat="48.10264" lon="-3.54713">
        <ele>182.7</ele>
        <time>2025-02-25T14:25:03Z</time>
      </trkpt>
      <trkpt lat="48.10263" lon="-3.54714">
        <ele>182.6</ele>
        <time>2025-02-25T14:25:04Z</time>
      </trkpt>
      <trkpt lat="48.10262" lon="-3.54715">
        <ele>182.4</ele>
        <time>2025-02-25T14:25:05Z</time>
      </trkpt>
      <trkpt lat="48.10261" lon="-3.54716">
        <ele>182.3</ele>
        <time>2025-02-25T14:25:06Z</time>
      </trkpt>
      <trkpt lat="48.10261" lon="-3.54717">
        <ele>182.3</ele>
        <time>2025-02-25T14:25:07Z</time>
      </trkpt>
      <trkpt lat="48.1026" lon="-3.54717">
        <ele>182.2</ele>
        <time>2025-02-25T14:25:08Z</time>
      </trkpt>
      <trkpt lat="48.10259" lon="-3.54718">
        <ele>182.1</ele>
        <time>2025-02-25T14:25:09Z</time>
      </trkpt>
      <trkpt lat="48.10258" lon="-3.54718">
        <ele>182</ele>
        <time>2025-02-25T14:25:10Z</time>
      </trkpt>
      <trkpt lat="48.10257" lon="-3.54719">
        <ele>181.8</ele>
        <time>2025-02-25T14:25:11Z</time>
      </trkpt>
      <trkpt lat="48.10256" lon="-3.5472">
        <ele>181.7</ele>
        <time>2025-02-25T14:25:12Z</time>
      </trkpt>
      <trkpt lat="48.10256" lon="-3.54722">
        <ele>181.7</ele>
        <time>2025-02-25T14:25:13Z</time>
      </trkpt>
      <trkpt lat="48.10255" lon="-3.54724">
        <ele>181.5</ele>
        <time>2025-02-25T14:25:14Z</time>
      </trkpt>
      <trkpt lat="48.10254" lon="-3.54726">
        <ele>181.4</ele>
        <time>2025-02-25T14:25:15Z</time>
      </trkpt>
      <trkpt lat="48.10253" lon="-3.54726">
        <ele>181.3</ele>
        <time>2025-02-25T14:25:16Z</time>
      </trkpt>
      <trkpt lat="48.10252" lon="-3.54727">
        <ele>181.2</ele>
        <time>2025-02-25T14:25:17Z</time>
      </trkpt>
      <trkpt lat="48.10251" lon="-3.54728">
        <ele>181.1</ele>
        <time>2025-02-25T14:25:18Z</time>
      </trkpt>
      <trkpt lat="48.1025" lon="-3.54729">
        <ele>181</ele>
        <time>2025-02-25T14:25:19Z</time>
      </trkpt>
      <trkpt lat="48.10249" lon="-3.54729">
        <ele>180.9</ele>
        <time>2025-02-25T14:25:20Z</time>
      </trkpt>
      <trkpt lat="48.10248" lon="-3.5473">
        <ele>180.9</ele>
        <time>2025-02-25T14:25:21Z</time>
      </trkpt>
      <trkpt lat="48.10247" lon="-3.54731">
        <ele>180.8</ele>
        <time>2025-02-25T14:25:22Z</time>
      </trkpt>
      <trkpt lat="48.10246" lon="-3.54732">
        <ele>180.7</ele>
        <time>2025-02-25T14:25:23Z</time>
      </trkpt>
      <trkpt lat="48.10245" lon="-3.54733">
        <ele>180.6</ele>
        <time>2025-02-25T14:25:24Z</time>
      </trkpt>
      <trkpt lat="48.10244" lon="-3.54735">
        <ele>180.6</ele>
        <time>2025-02-25T14:25:25Z</time>
      </trkpt>
      <trkpt lat="48.10243" lon="-3.54736">
        <ele>180.5</ele>
        <time>2025-02-25T14:25:26Z</time>
      </trkpt>
      <trkpt lat="48.10242" lon="-3.54737">
        <ele>180.4</ele>
        <time>2025-02-25T14:25:27Z</time>
      </trkpt>
      <trkpt lat="48.10241" lon="-3.54737">
        <ele>180.4</ele>
        <time>2025-02-25T14:25:28Z</time>
      </trkpt>
      <trkpt lat="48.1024" lon="-3.54738">
        <ele>180.3</ele>
        <time>2025-02-25T14:25:29Z</time>
      </trkpt>
      <trkpt lat="48.10239" lon="-3.54738">
        <ele>180.2</ele>
        <time>2025-02-25T14:25:30Z</time>
      </trkpt>
      <trkpt lat="48.10238" lon="-3.54739">
        <ele>180.1</ele>
        <time>2025-02-25T14:25:31Z</time>
      </trkpt>
      <trkpt lat="48.10238" lon="-3.5474">
        <ele>180.1</ele>
        <time>2025-02-25T14:25:32Z</time>
      </trkpt>
      <trkpt lat="48.10237" lon="-3.54741">
        <ele>180.1</ele>
        <time>2025-02-25T14:25:33Z</time>
      </trkpt>
      <trkpt lat="48.10236" lon="-3.54742">
        <ele>180</ele>
        <time>2025-02-25T14:25:34Z</time>
      </trkpt>
      <trkpt lat="48.10235" lon="-3.54742">
        <ele>179.9</ele>
        <time>2025-02-25T14:25:35Z</time>
      </trkpt>
      <trkpt lat="48.10233" lon="-3.54743">
        <ele>179.8</ele>
        <time>2025-02-25T14:25:36Z</time>
      </trkpt>
      <trkpt lat="48.10232" lon="-3.54744">
        <ele>179.7</ele>
        <time>2025-02-25T14:25:37Z</time>
      </trkpt>
      <trkpt lat="48.10231" lon="-3.54745">
        <ele>179.6</ele>
        <time>2025-02-25T14:25:38Z</time>
      </trkpt>
      <trkpt lat="48.1023" lon="-3.54746">
        <ele>179.6</ele>
        <time>2025-02-25T14:25:39Z</time>
      </trkpt>
      <trkpt lat="48.10228" lon="-3.54746">
        <ele>179.4</ele>
        <time>2025-02-25T14:25:40Z</time>
      </trkpt>
      <trkpt lat="48.10227" lon="-3.54747">
        <ele>179.3</ele>
        <time>2025-02-25T14:25:41Z</time>
      </trkpt>
      <trkpt lat="48.10226" lon="-3.54749">
        <ele>179.3</ele>
        <time>2025-02-25T14:25:42Z</time>
      </trkpt>
      <trkpt lat="48.10225" lon="-3.5475">
        <ele>179.2</ele>
        <time>2025-02-25T14:25:43Z</time>
      </trkpt>
      <trkpt lat="48.10224" lon="-3.54751">
        <ele>179.2</ele>
        <time>2025-02-25T14:25:44Z</time>
      </trkpt>
      <trkpt lat="48.10223" lon="-3.54751">
        <ele>179.1</ele>
        <time>2025-02-25T14:25:45Z</time>
      </trkpt>
      <trkpt lat="48.10222" lon="-3.54751">
        <ele>179</ele>
        <time>2025-02-25T14:25:46Z</time>
      </trkpt>
      <trkpt lat="48.10221" lon="-3.54752">
        <ele>178.9</ele>
        <time>2025-02-25T14:25:47Z</time>
      </trkpt>
      <trkpt lat="48.1022" lon="-3.54754">
        <ele>178.9</ele>
        <time>2025-02-25T14:25:48Z</time>
      </trkpt>
      <trkpt lat="48.10219" lon="-3.54754">
        <ele>178.8</ele>
        <time>2025-02-25T14:25:49Z</time>
      </trkpt>
      <trkpt lat="48.10218" lon="-3.54755">
        <ele>178.8</ele>
        <time>2025-02-25T14:25:50Z</time>
      </trkpt>
      <trkpt lat="48.10217" lon="-3.54756">
        <ele>178.7</ele>
        <time>2025-02-25T14:25:51Z</time>
      </trkpt>
      <trkpt lat="48.10216" lon="-3.54756">
        <ele>178.6</ele>
        <time>2025-02-25T14:25:52Z</time>
      </trkpt>
      <trkpt lat="48.10215" lon="-3.54757">
        <ele>178.5</ele>
        <time>2025-02-25T14:25:53Z</time>
      </trkpt>
      <trkpt lat="48.10213" lon="-3.54757">
        <ele>178.3</ele>
        <time>2025-02-25T14:25:54Z</time>
      </trkpt>
      <trkpt lat="48.10212" lon="-3.54758">
        <ele>178.3</ele>
        <time>2025-02-25T14:25:55Z</time>
      </trkpt>
      <trkpt lat="48.10211" lon="-3.54759">
        <ele>178.2</ele>
        <time>2025-02-25T14:25:56Z</time>
      </trkpt>
      <trkpt lat="48.1021" lon="-3.5476">
        <ele>178.2</ele>
        <time>2025-02-25T14:25:57Z</time>
      </trkpt>
      <trkpt lat="48.10209" lon="-3.5476">
        <ele>178.1</ele>
        <time>2025-02-25T14:25:58Z</time>
      </trkpt>
      <trkpt lat="48.10208" lon="-3.5476">
        <ele>178</ele>
        <time>2025-02-25T14:25:59Z</time>
      </trkpt>
      <trkpt lat="48.10207" lon="-3.54762">
        <ele>178</ele>
        <time>2025-02-25T14:26:00Z</time>
      </trkpt>
      <trkpt lat="48.10206" lon="-3.54763">
        <ele>178</ele>
        <time>2025-02-25T14:26:01Z</time>
      </trkpt>
      <trkpt lat="48.10204" lon="-3.54763">
        <ele>177.8</ele>
        <time>2025-02-25T14:26:02Z</time>
      </trkpt>
      <trkpt lat="48.10203" lon="-3.54764">
        <ele>177.8</ele>
        <time>2025-02-25T14:26:03Z</time>
      </trkpt>
      <trkpt lat="48.10202" lon="-3.54765">
        <ele>177.7</ele>
        <time>2025-02-25T14:26:04Z</time>
      </trkpt>
      <trkpt lat="48.10201" lon="-3.54766">
        <ele>177.7</ele>
        <time>2025-02-25T14:26:05Z</time>
      </trkpt>
      <trkpt lat="48.10201" lon="-3.54767">
        <ele>177.8</ele>
        <time>2025-02-25T14:26:06Z</time>
      </trkpt>
      <trkpt lat="48.102" lon="-3.54768">
        <ele>177.8</ele>
        <time>2025-02-25T14:26:07Z</time>
      </trkpt>
      <trkpt lat="48.10199" lon="-3.5477">
        <ele>177.8</ele>
        <time>2025-02-25T14:26:08Z</time>
      </trkpt>
      <trkpt lat="48.10199" lon="-3.54772">
        <ele>177.9</ele>
        <time>2025-02-25T14:26:09Z</time>
      </trkpt>
      <trkpt lat="48.10198" lon="-3.54773">
        <ele>177.9</ele>
        <time>2025-02-25T14:26:10Z</time>
      </trkpt>
      <trkpt lat="48.10196" lon="-3.54773">
        <ele>177.8</ele>
        <time>2025-02-25T14:26:11Z</time>
      </trkpt>
      <trkpt lat="48.10195" lon="-3.54773">
        <ele>177.7</ele>
        <time>2025-02-25T14:26:12Z</time>
      </trkpt>
      <trkpt lat="48.10195" lon="-3.54774">
        <ele>177.8</ele>
        <time>2025-02-25T14:26:13Z</time>
      </trkpt>
      <trkpt lat="48.10193" lon="-3.54775">
        <ele>177.9</ele>
        <time>2025-02-25T14:26:14Z</time>
      </trkpt>
      <trkpt lat="48.10192" lon="-3.54776">
        <ele>178</ele>
        <time>2025-02-25T14:26:15Z</time>
      </trkpt>
      <trkpt lat="48.10191" lon="-3.54776">
        <ele>178.1</ele>
        <time>2025-02-25T14:26:16Z</time>
      </trkpt>
      <trkpt lat="48.10191" lon="-3.54777">
        <ele>178.2</ele>
        <time>2025-02-25T14:26:17Z</time>
      </trkpt>
      <trkpt lat="48.1019" lon="-3.54778">
        <ele>178.3</ele>
        <time>2025-02-25T14:26:18Z</time>
      </trkpt>
      <trkpt lat="48.10189" lon="-3.54778">
        <ele>178.4</ele>
        <time>2025-02-25T14:26:19Z</time>
      </trkpt>
      <trkpt lat="48.10188" lon="-3.54778">
        <ele>178.5</ele>
        <time>2025-02-25T14:26:20Z</time>
      </trkpt>
      <trkpt lat="48.10187" lon="-3.54777">
        <ele>178.5</ele>
        <time>2025-02-25T14:26:21Z</time>
      </trkpt>
      <trkpt lat="48.10186" lon="-3.54778">
        <ele>178.6</ele>
        <time>2025-02-25T14:26:22Z</time>
      </trkpt>
      <trkpt lat="48.10185" lon="-3.54778">
        <ele>178.7</ele>
        <time>2025-02-25T14:26:23Z</time>
      </trkpt>
      <trkpt lat="48.10184" lon="-3.54778">
        <ele>178.8</ele>
        <time>2025-02-25T14:26:24Z</time>
      </trkpt>
      <trkpt lat="48.10183" lon="-3.54779">
        <ele>178.9</ele>
        <time>2025-02-25T14:26:25Z</time>
      </trkpt>
      <trkpt lat="48.10182" lon="-3.54779">
        <ele>179</ele>
        <time>2025-02-25T14:26:26Z</time>
      </trkpt>
      <trkpt lat="48.10181" lon="-3.54779">
        <ele>179.1</ele>
        <time>2025-02-25T14:26:27Z</time>
      </trkpt>
      <trkpt lat="48.1018" lon="-3.54779">
        <ele>179.1</ele>
        <time>2025-02-25T14:26:28Z</time>
      </trkpt>
      <trkpt lat="48.10179" lon="-3.5478">
        <ele>179.3</ele>
        <time>2025-02-25T14:26:29Z</time>
      </trkpt>
      <trkpt lat="48.10179" lon="-3.54781">
        <ele>179.3</ele>
        <time>2025-02-25T14:26:30Z</time>
      </trkpt>
      <trkpt lat="48.10178" lon="-3.54782">
        <ele>179.5</ele>
        <time>2025-02-25T14:26:31Z</time>
      </trkpt>
      <trkpt lat="48.10177" lon="-3.54783">
        <ele>179.6</ele>
        <time>2025-02-25T14:26:32Z</time>
      </trkpt>
      <trkpt lat="48.10176" lon="-3.54784">
        <ele>179.8</ele>
        <time>2025-02-25T14:26:33Z</time>
      </trkpt>
      <trkpt lat="48.10175" lon="-3.54785">
        <ele>179.9</ele>
        <time>2025-02-25T14:26:34Z</time>
      </trkpt>
      <trkpt lat="48.10174" lon="-3.54786">
        <ele>180.1</ele>
        <time>2025-02-25T14:26:35Z</time>
      </trkpt>
      <trkpt lat="48.10173" lon="-3.54788">
        <ele>180.3</ele>
        <time>2025-02-25T14:26:36Z</time>
      </trkpt>
      <trkpt lat="48.10172" lon="-3.54789">
        <ele>180.4</ele>
        <time>2025-02-25T14:26:37Z</time>
      </trkpt>
      <trkpt lat="48.10171" lon="-3.54789">
        <ele>180.5</ele>
        <time>2025-02-25T14:26:38Z</time>
      </trkpt>
      <trkpt lat="48.1017" lon="-3.54789">
        <ele>180.6</ele>
        <time>2025-02-25T14:26:39Z</time>
      </trkpt>
      <trkpt lat="48.1017" lon="-3.54789">
        <ele>180.6</ele>
        <time>2025-02-25T14:26:40Z</time>
      </trkpt>
      <trkpt lat="48.10169" lon="-3.54789">
        <ele>180.6</ele>
        <time>2025-02-25T14:26:41Z</time>
      </trkpt>
      <trkpt lat="48.10168" lon="-3.5479">
        <ele>180.8</ele>
        <time>2025-02-25T14:26:42Z</time>
      </trkpt>
      <trkpt lat="48.10167" lon="-3.54791">
        <ele>180.9</ele>
        <time>2025-02-25T14:26:43Z</time>
      </trkpt>
      <trkpt lat="48.10166" lon="-3.5479">
        <ele>181</ele>
        <time>2025-02-25T14:26:44Z</time>
      </trkpt>
      <trkpt lat="48.10165" lon="-3.5479">
        <ele>181.1</ele>
        <time>2025-02-25T14:26:45Z</time>
      </trkpt>
      <trkpt lat="48.10164" lon="-3.5479">
        <ele>181.2</ele>
        <time>2025-02-25T14:26:46Z</time>
      </trkpt>
      <trkpt lat="48.10163" lon="-3.54789">
        <ele>181.2</ele>
        <time>2025-02-25T14:26:47Z</time>
      </trkpt>
      <trkpt lat="48.10162" lon="-3.54789">
        <ele>181.3</ele>
        <time>2025-02-25T14:26:48Z</time>
      </trkpt>
      <trkpt lat="48.10161" lon="-3.54788">
        <ele>181.3</ele>
        <time>2025-02-25T14:26:49Z</time>
      </trkpt>
      <trkpt lat="48.1016" lon="-3.54789">
        <ele>181.5</ele>
        <time>2025-02-25T14:26:50Z</time>
      </trkpt>
      <trkpt lat="48.10159" lon="-3.54789">
        <ele>181.6</ele>
        <time>2025-02-25T14:26:51Z</time>
      </trkpt>
      <trkpt lat="48.10159" lon="-3.5479">
        <ele>181.7</ele>
        <time>2025-02-25T14:26:52Z</time>
      </trkpt>
      <trkpt lat="48.10158" lon="-3.54792">
        <ele>182</ele>
        <time>2025-02-25T14:26:53Z</time>
      </trkpt>
      <trkpt lat="48.10158" lon="-3.54793">
        <ele>182</ele>
        <time>2025-02-25T14:26:54Z</time>
      </trkpt>
      <trkpt lat="48.10157" lon="-3.54794">
        <ele>182.2</ele>
        <time>2025-02-25T14:26:55Z</time>
      </trkpt>
      <trkpt lat="48.10156" lon="-3.54795">
        <ele>182.4</ele>
        <time>2025-02-25T14:26:56Z</time>
      </trkpt>
      <trkpt lat="48.10156" lon="-3.54796">
        <ele>182.5</ele>
        <time>2025-02-25T14:26:57Z</time>
      </trkpt>
      <trkpt lat="48.10156" lon="-3.54797">
        <ele>182.5</ele>
        <time>2025-02-25T14:26:58Z</time>
      </trkpt>
      <trkpt lat="48.10155" lon="-3.54799">
        <ele>182.8</ele>
        <time>2025-02-25T14:26:59Z</time>
      </trkpt>
      <trkpt lat="48.10154" lon="-3.548">
        <ele>183</ele>
        <time>2025-02-25T14:27:00Z</time>
      </trkpt>
      <trkpt lat="48.10153" lon="-3.548">
        <ele>183.1</ele>
        <time>2025-02-25T14:27:01Z</time>
      </trkpt>
      <trkpt lat="48.10153" lon="-3.54802">
        <ele>183.2</ele>
        <time>2025-02-25T14:27:02Z</time>
      </trkpt>
      <trkpt lat="48.10152" lon="-3.54802">
        <ele>183.3</ele>
        <time>2025-02-25T14:27:03Z</time>
      </trkpt>
      <trkpt lat="48.10151" lon="-3.54804">
        <ele>183.6</ele>
        <time>2025-02-25T14:27:04Z</time>
      </trkpt>
      <trkpt lat="48.10151" lon="-3.54805">
        <ele>183.7</ele>
        <time>2025-02-25T14:27:05Z</time>
      </trkpt>
      <trkpt lat="48.1015" lon="-3.54807">
        <ele>183.9</ele>
        <time>2025-02-25T14:27:06Z</time>
      </trkpt>
      <trkpt lat="48.10149" lon="-3.54808">
        <ele>184</ele>
        <time>2025-02-25T14:27:07Z</time>
      </trkpt>
      <trkpt lat="48.10147" lon="-3.54809">
        <ele>184.2</ele>
        <time>2025-02-25T14:27:08Z</time>
      </trkpt>
      <trkpt lat="48.10146" lon="-3.54809">
        <ele>184.4</ele>
        <time>2025-02-25T14:27:09Z</time>
      </trkpt>
      <trkpt lat="48.10145" lon="-3.5481">
        <ele>184.5</ele>
        <time>2025-02-25T14:27:10Z</time>
      </trkpt>
      <trkpt lat="48.10144" lon="-3.54811">
        <ele>184.6</ele>
        <time>2025-02-25T14:27:11Z</time>
      </trkpt>
      <trkpt lat="48.10144" lon="-3.54811">
        <ele>184.6</ele>
        <time>2025-02-25T14:27:12Z</time>
      </trkpt>
      <trkpt lat="48.10143" lon="-3.54811">
        <ele>184.8</ele>
        <time>2025-02-25T14:27:13Z</time>
      </trkpt>
      <trkpt lat="48.10142" lon="-3.54811">
        <ele>184.9</ele>
        <time>2025-02-25T14:27:14Z</time>
      </trkpt>
      <trkpt lat="48.10141" lon="-3.54812">
        <ele>185</ele>
        <time>2025-02-25T14:27:15Z</time>
      </trkpt>
      <trkpt lat="48.1014" lon="-3.54812">
        <ele>185.1</ele>
        <time>2025-02-25T14:27:16Z</time>
      </trkpt>
      <trkpt lat="48.10139" lon="-3.54812">
        <ele>185.2</ele>
        <time>2025-02-25T14:27:17Z</time>
      </trkpt>
      <trkpt lat="48.10139" lon="-3.54813">
        <ele>185.3</ele>
        <time>2025-02-25T14:27:18Z</time>
      </trkpt>
      <trkpt lat="48.10138" lon="-3.54814">
        <ele>185.4</ele>
        <time>2025-02-25T14:27:19Z</time>
      </trkpt>
      <trkpt lat="48.10137" lon="-3.54814">
        <ele>185.4</ele>
        <time>2025-02-25T14:27:20Z</time>
      </trkpt>
      <trkpt lat="48.10136" lon="-3.54815">
        <ele>185.5</ele>
        <time>2025-02-25T14:27:21Z</time>
      </trkpt>
      <trkpt lat="48.10135" lon="-3.54815">
        <ele>185.6</ele>
        <time>2025-02-25T14:27:22Z</time>
      </trkpt>
      <trkpt lat="48.10134" lon="-3.54816">
        <ele>185.7</ele>
        <time>2025-02-25T14:27:23Z</time>
      </trkpt>
      <trkpt lat="48.10133" lon="-3.54817">
        <ele>185.8</ele>
        <time>2025-02-25T14:27:24Z</time>
      </trkpt>
      <trkpt lat="48.10132" lon="-3.54818">
        <ele>185.9</ele>
        <time>2025-02-25T14:27:25Z</time>
      </trkpt>
      <trkpt lat="48.10131" lon="-3.54819">
        <ele>186.1</ele>
        <time>2025-02-25T14:27:26Z</time>
      </trkpt>
      <trkpt lat="48.1013" lon="-3.5482">
        <ele>186.2</ele>
        <time>2025-02-25T14:27:27Z</time>
      </trkpt>
      <trkpt lat="48.10129" lon="-3.54821">
        <ele>186.3</ele>
        <time>2025-02-25T14:27:28Z</time>
      </trkpt>
      <trkpt lat="48.10128" lon="-3.54823">
        <ele>186.4</ele>
        <time>2025-02-25T14:27:29Z</time>
      </trkpt>
      <trkpt lat="48.10128" lon="-3.54824">
        <ele>186.4</ele>
        <time>2025-02-25T14:27:30Z</time>
      </trkpt>
      <trkpt lat="48.10127" lon="-3.54825">
        <ele>186.6</ele>
        <time>2025-02-25T14:27:31Z</time>
      </trkpt>
      <trkpt lat="48.10126" lon="-3.54826">
        <ele>186.7</ele>
        <time>2025-02-25T14:27:32Z</time>
      </trkpt>
      <trkpt lat="48.10125" lon="-3.54825">
        <ele>186.7</ele>
        <time>2025-02-25T14:27:33Z</time>
      </trkpt>
      <trkpt lat="48.10124" lon="-3.54825">
        <ele>186.8</ele>
        <time>2025-02-25T14:27:34Z</time>
      </trkpt>
      <trkpt lat="48.10123" lon="-3.54825">
        <ele>186.8</ele>
        <time>2025-02-25T14:27:35Z</time>
      </trkpt>
      <trkpt lat="48.10122" lon="-3.54826">
        <ele>187</ele>
        <time>2025-02-25T14:27:36Z</time>
      </trkpt>
      <trkpt lat="48.10121" lon="-3.54827">
        <ele>187.1</ele>
        <time>2025-02-25T14:27:37Z</time>
      </trkpt>
      <trkpt lat="48.1012" lon="-3.54828">
        <ele>187.2</ele>
        <time>2025-02-25T14:27:38Z</time>
      </trkpt>
      <trkpt lat="48.10119" lon="-3.54828">
        <ele>187.2</ele>
        <time>2025-02-25T14:27:39Z</time>
      </trkpt>
      <trkpt lat="48.10118" lon="-3.54829">
        <ele>187.3</ele>
        <time>2025-02-25T14:27:40Z</time>
      </trkpt>
      <trkpt lat="48.10118" lon="-3.54829">
        <ele>187.3</ele>
        <time>2025-02-25T14:27:41Z</time>
      </trkpt>
      <trkpt lat="48.10117" lon="-3.54829">
        <ele>187.4</ele>
        <time>2025-02-25T14:27:42Z</time>
      </trkpt>
      <trkpt lat="48.10116" lon="-3.54831">
        <ele>187.6</ele>
        <time>2025-02-25T14:27:43Z</time>
      </trkpt>
      <trkpt lat="48.10115" lon="-3.54831">
        <ele>187.6</ele>
        <time>2025-02-25T14:27:44Z</time>
      </trkpt>
      <trkpt lat="48.10114" lon="-3.54832">
        <ele>187.7</ele>
        <time>2025-02-25T14:27:45Z</time>
      </trkpt>
      <trkpt lat="48.10114" lon="-3.54832">
        <ele>187.7</ele>
        <time>2025-02-25T14:27:46Z</time>
      </trkpt>
      <trkpt lat="48.10113" lon="-3.54833">
        <ele>187.9</ele>
        <time>2025-02-25T14:27:47Z</time>
      </trkpt>
      <trkpt lat="48.10112" lon="-3.54834">
        <ele>188</ele>
        <time>2025-02-25T14:27:48Z</time>
      </trkpt>
      <trkpt lat="48.10111" lon="-3.54834">
        <ele>188</ele>
        <time>2025-02-25T14:27:49Z</time>
      </trkpt>
      <trkpt lat="48.10111" lon="-3.54835">
        <ele>188.1</ele>
        <time>2025-02-25T14:27:50Z</time>
      </trkpt>
      <trkpt lat="48.1011" lon="-3.54836">
        <ele>188.1</ele>
        <time>2025-02-25T14:27:51Z</time>
      </trkpt>
      <trkpt lat="48.10108" lon="-3.54836">
        <ele>188.2</ele>
        <time>2025-02-25T14:27:52Z</time>
      </trkpt>
      <trkpt lat="48.10107" lon="-3.54837">
        <ele>188.3</ele>
        <time>2025-02-25T14:27:53Z</time>
      </trkpt>
      <trkpt lat="48.10106" lon="-3.54838">
        <ele>188.4</ele>
        <time>2025-02-25T14:27:54Z</time>
      </trkpt>
      <trkpt lat="48.10105" lon="-3.5484">
        <ele>188.5</ele>
        <time>2025-02-25T14:27:55Z</time>
      </trkpt>
      <trkpt lat="48.10104" lon="-3.5484">
        <ele>188.5</ele>
        <time>2025-02-25T14:27:56Z</time>
      </trkpt>
      <trkpt lat="48.10104" lon="-3.54839">
        <ele>188.5</ele>
        <time>2025-02-25T14:27:57Z</time>
      </trkpt>
      <trkpt lat="48.10103" lon="-3.54839">
        <ele>188.5</ele>
        <time>2025-02-25T14:27:58Z</time>
      </trkpt>
      <trkpt lat="48.10102" lon="-3.54838">
        <ele>188.5</ele>
        <time>2025-02-25T14:27:59Z</time>
      </trkpt>
      <trkpt lat="48.10101" lon="-3.54839">
        <ele>188.6</ele>
        <time>2025-02-25T14:28:00Z</time>
      </trkpt>
      <trkpt lat="48.101" lon="-3.5484">
        <ele>188.6</ele>
        <time>2025-02-25T14:28:01Z</time>
      </trkpt>
      <trkpt lat="48.10099" lon="-3.54841">
        <ele>188.7</ele>
        <time>2025-02-25T14:28:02Z</time>
      </trkpt>
      <trkpt lat="48.10098" lon="-3.54841">
        <ele>188.7</ele>
        <time>2025-02-25T14:28:03Z</time>
      </trkpt>
      <trkpt lat="48.10097" lon="-3.54842">
        <ele>188.8</ele>
        <time>2025-02-25T14:28:04Z</time>
      </trkpt>
      <trkpt lat="48.10096" lon="-3.54843">
        <ele>188.9</ele>
        <time>2025-02-25T14:28:05Z</time>
      </trkpt>
      <trkpt lat="48.10095" lon="-3.54844">
        <ele>189</ele>
        <time>2025-02-25T14:28:06Z</time>
      </trkpt>
      <trkpt lat="48.10094" lon="-3.54844">
        <ele>189</ele>
        <time>2025-02-25T14:28:07Z</time>
      </trkpt>
      <trkpt lat="48.10093" lon="-3.54845">
        <ele>189.1</ele>
        <time>2025-02-25T14:28:08Z</time>
      </trkpt>
      <trkpt lat="48.10092" lon="-3.54845">
        <ele>189.1</ele>
        <time>2025-02-25T14:28:09Z</time>
      </trkpt>
      <trkpt lat="48.10091" lon="-3.54846">
        <ele>189.2</ele>
        <time>2025-02-25T14:28:10Z</time>
      </trkpt>
      <trkpt lat="48.1009" lon="-3.54847">
        <ele>189.3</ele>
        <time>2025-02-25T14:28:11Z</time>
      </trkpt>
      <trkpt lat="48.10089" lon="-3.54847">
        <ele>189.3</ele>
        <time>2025-02-25T14:28:12Z</time>
      </trkpt>
      <trkpt lat="48.10088" lon="-3.54848">
        <ele>189.4</ele>
        <time>2025-02-25T14:28:13Z</time>
      </trkpt>
      <trkpt lat="48.10087" lon="-3.5485">
        <ele>189.5</ele>
        <time>2025-02-25T14:28:14Z</time>
      </trkpt>
      <trkpt lat="48.10086" lon="-3.5485">
        <ele>189.5</ele>
        <time>2025-02-25T14:28:15Z</time>
      </trkpt>
      <trkpt lat="48.10085" lon="-3.5485">
        <ele>189.5</ele>
        <time>2025-02-25T14:28:16Z</time>
      </trkpt>
      <trkpt lat="48.10084" lon="-3.5485">
        <ele>189.6</ele>
        <time>2025-02-25T14:28:17Z</time>
      </trkpt>
      <trkpt lat="48.10083" lon="-3.5485">
        <ele>189.6</ele>
        <time>2025-02-25T14:28:18Z</time>
      </trkpt>
      <trkpt lat="48.10082" lon="-3.54851">
        <ele>189.7</ele>
        <time>2025-02-25T14:28:19Z</time>
      </trkpt>
      <trkpt lat="48.10081" lon="-3.54852">
        <ele>189.7</ele>
        <time>2025-02-25T14:28:20Z</time>
      </trkpt>
      <trkpt lat="48.1008" lon="-3.54852">
        <ele>189.7</ele>
        <time>2025-02-25T14:28:21Z</time>
      </trkpt>
      <trkpt lat="48.10079" lon="-3.54852">
        <ele>189.7</ele>
        <time>2025-02-25T14:28:22Z</time>
      </trkpt>
      <trkpt lat="48.10078" lon="-3.54852">
        <ele>189.7</ele>
        <time>2025-02-25T14:28:23Z</time>
      </trkpt>
      <trkpt lat="48.10077" lon="-3.54853">
        <ele>189.8</ele>
        <time>2025-02-25T14:28:24Z</time>
      </trkpt>
      <trkpt lat="48.10076" lon="-3.54853">
        <ele>189.8</ele>
        <time>2025-02-25T14:28:25Z</time>
      </trkpt>
      <trkpt lat="48.10075" lon="-3.54854">
        <ele>189.8</ele>
        <time>2025-02-25T14:28:26Z</time>
      </trkpt>
      <trkpt lat="48.10074" lon="-3.54854">
        <ele>189.8</ele>
        <time>2025-02-25T14:28:27Z</time>
      </trkpt>
      <trkpt lat="48.10073" lon="-3.54855">
        <ele>189.9</ele>
        <time>2025-02-25T14:28:28Z</time>
      </trkpt>
      <trkpt lat="48.10072" lon="-3.54854">
        <ele>189.8</ele>
        <time>2025-02-25T14:28:29Z</time>
      </trkpt>
      <trkpt lat="48.10071" lon="-3.54853">
        <ele>189.8</ele>
        <time>2025-02-25T14:28:30Z</time>
      </trkpt>
      <trkpt lat="48.1007" lon="-3.54853">
        <ele>189.8</ele>
        <time>2025-02-25T14:28:31Z</time>
      </trkpt>
      <trkpt lat="48.10069" lon="-3.54853">
        <ele>189.9</ele>
        <time>2025-02-25T14:28:32Z</time>
      </trkpt>
      <trkpt lat="48.10068" lon="-3.54854">
        <ele>189.9</ele>
        <time>2025-02-25T14:28:33Z</time>
      </trkpt>
      <trkpt lat="48.10066" lon="-3.54854">
        <ele>189.9</ele>
        <time>2025-02-25T14:28:34Z</time>
      </trkpt>
      <trkpt lat="48.10065" lon="-3.54855">
        <ele>189.9</ele>
        <time>2025-02-25T14:28:35Z</time>
      </trkpt>
      <trkpt lat="48.10064" lon="-3.54855">
        <ele>189.9</ele>
        <time>2025-02-25T14:28:36Z</time>
      </trkpt>
      <trkpt lat="48.10063" lon="-3.54856">
        <ele>190</ele>
        <time>2025-02-25T14:28:37Z</time>
      </trkpt>
      <trkpt lat="48.10062" lon="-3.54857">
        <ele>190</ele>
        <time>2025-02-25T14:28:38Z</time>
      </trkpt>
      <trkpt lat="48.10061" lon="-3.54858">
        <ele>190</ele>
        <time>2025-02-25T14:28:39Z</time>
      </trkpt>
      <trkpt lat="48.1006" lon="-3.54859">
        <ele>190</ele>
        <time>2025-02-25T14:28:40Z</time>
      </trkpt>
      <trkpt lat="48.10059" lon="-3.54858">
        <ele>190</ele>
        <time>2025-02-25T14:28:41Z</time>
      </trkpt>
      <trkpt lat="48.10058" lon="-3.54858">
        <ele>190</ele>
        <time>2025-02-25T14:28:42Z</time>
      </trkpt>
      <trkpt lat="48.10057" lon="-3.5486">
        <ele>190</ele>
        <time>2025-02-25T14:28:43Z</time>
      </trkpt>
      <trkpt lat="48.10056" lon="-3.5486">
        <ele>190</ele>
        <time>2025-02-25T14:28:44Z</time>
      </trkpt>
      <trkpt lat="48.10055" lon="-3.5486">
        <ele>190</ele>
        <time>2025-02-25T14:28:45Z</time>
      </trkpt>
      <trkpt lat="48.10054" lon="-3.54861">
        <ele>190.1</ele>
        <time>2025-02-25T14:28:46Z</time>
      </trkpt>
      <trkpt lat="48.10053" lon="-3.54861">
        <ele>190.1</ele>
        <time>2025-02-25T14:28:47Z</time>
      </trkpt>
      <trkpt lat="48.10052" lon="-3.54862">
        <ele>190.1</ele>
        <time>2025-02-25T14:28:48Z</time>
      </trkpt>
      <trkpt lat="48.1005" lon="-3.54863">
        <ele>190.2</ele>
        <time>2025-02-25T14:28:49Z</time>
      </trkpt>
      <trkpt lat="48.10049" lon="-3.54863">
        <ele>190.2</ele>
        <time>2025-02-25T14:28:50Z</time>
      </trkpt>
      <trkpt lat="48.10048" lon="-3.54863">
        <ele>190.3</ele>
        <time>2025-02-25T14:28:51Z</time>
      </trkpt>
      <trkpt lat="48.10047" lon="-3.54862">
        <ele>190.3</ele>
        <time>2025-02-25T14:28:52Z</time>
      </trkpt>
      <trkpt lat="48.10045" lon="-3.54863">
        <ele>190.4</ele>
        <time>2025-02-25T14:28:53Z</time>
      </trkpt>
      <trkpt lat="48.10044" lon="-3.54864">
        <ele>190.4</ele>
        <time>2025-02-25T14:28:54Z</time>
      </trkpt>
      <trkpt lat="48.10044" lon="-3.54865">
        <ele>190.4</ele>
        <time>2025-02-25T14:28:55Z</time>
      </trkpt>
      <trkpt lat="48.10043" lon="-3.54865">
        <ele>190.5</ele>
        <time>2025-02-25T14:28:56Z</time>
      </trkpt>
      <trkpt lat="48.10042" lon="-3.54866">
        <ele>190.5</ele>
        <time>2025-02-25T14:28:57Z</time>
      </trkpt>
      <trkpt lat="48.10041" lon="-3.54866">
        <ele>190.5</ele>
        <time>2025-02-25T14:28:58Z</time>
      </trkpt>
      <trkpt lat="48.1004" lon="-3.54867">
        <ele>190.6</ele>
        <time>2025-02-25T14:28:59Z</time>
      </trkpt>
      <trkpt lat="48.10039" lon="-3.54867">
        <ele>190.6</ele>
        <time>2025-02-25T14:29:00Z</time>
      </trkpt>
      <trkpt lat="48.10037" lon="-3.54867">
        <ele>190.7</ele>
        <time>2025-02-25T14:29:01Z</time>
      </trkpt>
      <trkpt lat="48.10036" lon="-3.54867">
        <ele>190.7</ele>
        <time>2025-02-25T14:29:02Z</time>
      </trkpt>
      <trkpt lat="48.10035" lon="-3.54868">
        <ele>190.7</ele>
        <time>2025-02-25T14:29:03Z</time>
      </trkpt>
      <trkpt lat="48.10034" lon="-3.54869">
        <ele>190.8</ele>
        <time>2025-02-25T14:29:04Z</time>
      </trkpt>
      <trkpt lat="48.10033" lon="-3.54869">
        <ele>190.8</ele>
        <time>2025-02-25T14:29:05Z</time>
      </trkpt>
      <trkpt lat="48.10032" lon="-3.5487">
        <ele>190.8</ele>
        <time>2025-02-25T14:29:06Z</time>
      </trkpt>
      <trkpt lat="48.1003" lon="-3.5487">
        <ele>190.9</ele>
        <time>2025-02-25T14:29:07Z</time>
      </trkpt>
      <trkpt lat="48.10029" lon="-3.54871">
        <ele>191</ele>
        <time>2025-02-25T14:29:08Z</time>
      </trkpt>
      <trkpt lat="48.10028" lon="-3.54871">
        <ele>191</ele>
        <time>2025-02-25T14:29:09Z</time>
      </trkpt>
      <trkpt lat="48.10027" lon="-3.54871">
        <ele>191</ele>
        <time>2025-02-25T14:29:10Z</time>
      </trkpt>
      <trkpt lat="48.10026" lon="-3.54871">
        <ele>191</ele>
        <time>2025-02-25T14:29:11Z</time>
      </trkpt>
      <trkpt lat="48.10024" lon="-3.54872">
        <ele>191</ele>
        <time>2025-02-25T14:29:12Z</time>
      </trkpt>
      <trkpt lat="48.10023" lon="-3.54873">
        <ele>191</ele>
        <time>2025-02-25T14:29:13Z</time>
      </trkpt>
      <trkpt lat="48.10022" lon="-3.54874">
        <ele>191</ele>
        <time>2025-02-25T14:29:14Z</time>
      </trkpt>
      <trkpt lat="48.10021" lon="-3.54874">
        <ele>191</ele>
        <time>2025-02-25T14:29:15Z</time>
      </trkpt>
      <trkpt lat="48.10019" lon="-3.54874">
        <ele>191</ele>
        <time>2025-02-25T14:29:16Z</time>
      </trkpt>
      <trkpt lat="48.10018" lon="-3.54875">
        <ele>191</ele>
        <time>2025-02-25T14:29:17Z</time>
      </trkpt>
      <trkpt lat="48.10017" lon="-3.54875">
        <ele>191</ele>
        <time>2025-02-25T14:29:18Z</time>
      </trkpt>
      <trkpt lat="48.10016" lon="-3.54876">
        <ele>191</ele>
        <time>2025-02-25T14:29:19Z</time>
      </trkpt>
      <trkpt lat="48.10015" lon="-3.54876">
        <ele>191</ele>
        <time>2025-02-25T14:29:20Z</time>
      </trkpt>
      <trkpt lat="48.10013" lon="-3.54876">
        <ele>191</ele>
        <time>2025-02-25T14:29:21Z</time>
      </trkpt>
      <trkpt lat="48.10012" lon="-3.54877">
        <ele>191</ele>
        <time>2025-02-25T14:29:22Z</time>
      </trkpt>
      <trkpt lat="48.10011" lon="-3.54877">
        <ele>191</ele>
        <time>2025-02-25T14:29:23Z</time>
      </trkpt>
      <trkpt lat="48.1001" lon="-3.54878">
        <ele>191</ele>
        <time>2025-02-25T14:29:24Z</time>
      </trkpt>
      <trkpt lat="48.10008" lon="-3.54877">
        <ele>191</ele>
        <time>2025-02-25T14:29:25Z</time>
      </trkpt>
      <trkpt lat="48.10007" lon="-3.54879">
        <ele>191</ele>
        <time>2025-02-25T14:29:26Z</time>
      </trkpt>
      <trkpt lat="48.10006" lon="-3.54879">
        <ele>191</ele>
        <time>2025-02-25T14:29:27Z</time>
      </trkpt>
      <trkpt lat="48.10004" lon="-3.5488">
        <ele>191</ele>
        <time>2025-02-25T14:29:28Z</time>
      </trkpt>
      <trkpt lat="48.10003" lon="-3.5488">
        <ele>191</ele>
        <time>2025-02-25T14:29:29Z</time>
      </trkpt>
      <trkpt lat="48.10002" lon="-3.5488">
        <ele>191</ele>
        <time>2025-02-25T14:29:30Z</time>
      </trkpt>
      <trkpt lat="48.10001" lon="-3.54881">
        <ele>191</ele>
        <time>2025-02-25T14:29:31Z</time>
      </trkpt>
      <trkpt lat="48.1" lon="-3.54882">
        <ele>191</ele>
        <time>2025-02-25T14:29:32Z</time>
      </trkpt>
      <trkpt lat="48.09998" lon="-3.54882">
        <ele>191</ele>
        <time>2025-02-25T14:29:33Z</time>
      </trkpt>
      <trkpt lat="48.09997" lon="-3.54883">
        <ele>191</ele>
        <time>2025-02-25T14:29:34Z</time>
      </trkpt>
      <trkpt lat="48.09996" lon="-3.54882">
        <ele>191</ele>
        <time>2025-02-25T14:29:35Z</time>
      </trkpt>
      <trkpt lat="48.09995" lon="-3.54883">
        <ele>191</ele>
        <time>2025-02-25T14:29:36Z</time>
      </trkpt>
      <trkpt lat="48.09994" lon="-3.54883">
        <ele>191</ele>
        <time>2025-02-25T14:29:37Z</time>
      </trkpt>
      <trkpt lat="48.09992" lon="-3.54885">
        <ele>191</ele>
        <time>2025-02-25T14:29:38Z</time>
      </trkpt>
      <trkpt lat="48.09991" lon="-3.54885">
        <ele>191</ele>
        <time>2025-02-25T14:29:39Z</time>
      </trkpt>
      <trkpt lat="48.0999" lon="-3.54886">
        <ele>191</ele>
        <time>2025-02-25T14:29:40Z</time>
      </trkpt>
      <trkpt lat="48.09988" lon="-3.54886">
        <ele>191</ele>
        <time>2025-02-25T14:29:41Z</time>
      </trkpt>
      <trkpt lat="48.09987" lon="-3.54886">
        <ele>191</ele>
        <time>2025-02-25T14:29:42Z</time>
      </trkpt>
      <trkpt lat="48.09986" lon="-3.54886">
        <ele>191</ele>
        <time>2025-02-25T14:29:43Z</time>
      </trkpt>
      <trkpt lat="48.09985" lon="-3.54887">
        <ele>191</ele>
        <time>2025-02-25T14:29:44Z</time>
      </trkpt>
      <trkpt lat="48.09983" lon="-3.54888">
        <ele>191</ele>
        <time>2025-02-25T14:29:45Z</time>
      </trkpt>
      <trkpt lat="48.09982" lon="-3.54888">
        <ele>191</ele>
        <time>2025-02-25T14:29:46Z</time>
      </trkpt>
      <trkpt lat="48.09981" lon="-3.54889">
        <ele>191</ele>
        <time>2025-02-25T14:29:47Z</time>
      </trkpt>
      <trkpt lat="48.0998" lon="-3.5489">
        <ele>191</ele>
        <time>2025-02-25T14:29:48Z</time>
      </trkpt>
      <trkpt lat="48.09979" lon="-3.5489">
        <ele>191</ele>
        <time>2025-02-25T14:29:49Z</time>
      </trkpt>
      <trkpt lat="48.09977" lon="-3.5489">
        <ele>191</ele>
        <time>2025-02-25T14:29:50Z</time>
      </trkpt>
      <trkpt lat="48.09976" lon="-3.54891">
        <ele>191</ele>
        <time>2025-02-25T14:29:51Z</time>
      </trkpt>
      <trkpt lat="48.09975" lon="-3.54891">
        <ele>191</ele>
        <time>2025-02-25T14:29:52Z</time>
      </trkpt>
      <trkpt lat="48.09974" lon="-3.54892">
        <ele>191</ele>
        <time>2025-02-25T14:29:53Z</time>
      </trkpt>
      <trkpt lat="48.09973" lon="-3.54892">
        <ele>191</ele>
        <time>2025-02-25T14:29:54Z</time>
      </trkpt>
      <trkpt lat="48.09972" lon="-3.54891">
        <ele>191</ele>
        <time>2025-02-25T14:29:55Z</time>
      </trkpt>
      <trkpt lat="48.09971" lon="-3.54891">
        <ele>191</ele>
        <time>2025-02-25T14:29:56Z</time>
      </trkpt>
      <trkpt lat="48.0997" lon="-3.5489">
        <ele>191</ele>
        <time>2025-02-25T14:29:57Z</time>
      </trkpt>
      <trkpt lat="48.09968" lon="-3.5489">
        <ele>191</ele>
        <time>2025-02-25T14:29:58Z</time>
      </trkpt>
      <trkpt lat="48.09967" lon="-3.5489">
        <ele>191</ele>
        <time>2025-02-25T14:29:59Z</time>
      </trkpt>
      <trkpt lat="48.09966" lon="-3.54891">
        <ele>191</ele>
        <time>2025-02-25T14:30:00Z</time>
      </trkpt>
      <trkpt lat="48.09965" lon="-3.54891">
        <ele>191</ele>
        <time>2025-02-25T14:30:01Z</time>
      </trkpt>
      <trkpt lat="48.09964" lon="-3.54892">
        <ele>191</ele>
        <time>2025-02-25T14:30:02Z</time>
      </trkpt>
      <trkpt lat="48.09963" lon="-3.54892">
        <ele>191</ele>
        <time>2025-02-25T14:30:03Z</time>
      </trkpt>
      <trkpt lat="48.09962" lon="-3.54892">
        <ele>191</ele>
        <time>2025-02-25T14:30:04Z</time>
      </trkpt>
      <trkpt lat="48.09961" lon="-3.54893">
        <ele>190.9</ele>
        <time>2025-02-25T14:30:05Z</time>
      </trkpt>
      <trkpt lat="48.0996" lon="-3.54891">
        <ele>191</ele>
        <time>2025-02-25T14:30:06Z</time>
      </trkpt>
      <trkpt lat="48.09958" lon="-3.54892">
        <ele>190.9</ele>
        <time>2025-02-25T14:30:07Z</time>
      </trkpt>
      <trkpt lat="48.09957" lon="-3.54893">
        <ele>190.9</ele>
        <time>2025-02-25T14:30:08Z</time>
      </trkpt>
      <trkpt lat="48.09956" lon="-3.54893">
        <ele>190.9</ele>
        <time>2025-02-25T14:30:09Z</time>
      </trkpt>
      <trkpt lat="48.09955" lon="-3.54894">
        <ele>190.9</ele>
        <time>2025-02-25T14:30:10Z</time>
      </trkpt>
      <trkpt lat="48.09954" lon="-3.54894">
        <ele>190.9</ele>
        <time>2025-02-25T14:30:11Z</time>
      </trkpt>
      <trkpt lat="48.09953" lon="-3.54895">
        <ele>190.8</ele>
        <time>2025-02-25T14:30:12Z</time>
      </trkpt>
      <trkpt lat="48.09952" lon="-3.54895">
        <ele>190.8</ele>
        <time>2025-02-25T14:30:13Z</time>
      </trkpt>
      <trkpt lat="48.09951" lon="-3.54896">
        <ele>190.8</ele>
        <time>2025-02-25T14:30:14Z</time>
      </trkpt>
      <trkpt lat="48.0995" lon="-3.54897">
        <ele>190.8</ele>
        <time>2025-02-25T14:30:15Z</time>
      </trkpt>
      <trkpt lat="48.09949" lon="-3.54897">
        <ele>190.8</ele>
        <time>2025-02-25T14:30:16Z</time>
      </trkpt>
      <trkpt lat="48.09948" lon="-3.54898">
        <ele>190.7</ele>
        <time>2025-02-25T14:30:17Z</time>
      </trkpt>
      <trkpt lat="48.09947" lon="-3.54898">
        <ele>190.7</ele>
        <time>2025-02-25T14:30:18Z</time>
      </trkpt>
      <trkpt lat="48.09946" lon="-3.54899">
        <ele>190.7</ele>
        <time>2025-02-25T14:30:19Z</time>
      </trkpt>
      <trkpt lat="48.09945" lon="-3.54899">
        <ele>190.6</ele>
        <time>2025-02-25T14:30:20Z</time>
      </trkpt>
      <trkpt lat="48.09944" lon="-3.549">
        <ele>190.6</ele>
        <time>2025-02-25T14:30:21Z</time>
      </trkpt>
      <trkpt lat="48.09943" lon="-3.54901">
        <ele>190.5</ele>
        <time>2025-02-25T14:30:22Z</time>
      </trkpt>
      <trkpt lat="48.09942" lon="-3.54902">
        <ele>190.5</ele>
        <time>2025-02-25T14:30:23Z</time>
      </trkpt>
      <trkpt lat="48.0994" lon="-3.54902">
        <ele>190.4</ele>
        <time>2025-02-25T14:30:24Z</time>
      </trkpt>
      <trkpt lat="48.09939" lon="-3.54903">
        <ele>190.4</ele>
        <time>2025-02-25T14:30:25Z</time>
      </trkpt>
      <trkpt lat="48.09938" lon="-3.54903">
        <ele>190.4</ele>
        <time>2025-02-25T14:30:26Z</time>
      </trkpt>
      <trkpt lat="48.09937" lon="-3.54904">
        <ele>190.3</ele>
        <time>2025-02-25T14:30:27Z</time>
      </trkpt>
      <trkpt lat="48.09936" lon="-3.54906">
        <ele>190.3</ele>
        <time>2025-02-25T14:30:28Z</time>
      </trkpt>
      <trkpt lat="48.09935" lon="-3.54906">
        <ele>190.3</ele>
        <time>2025-02-25T14:30:29Z</time>
      </trkpt>
      <trkpt lat="48.09934" lon="-3.54905">
        <ele>190.3</ele>
        <time>2025-02-25T14:30:30Z</time>
      </trkpt>
      <trkpt lat="48.09932" lon="-3.54905">
        <ele>190.2</ele>
        <time>2025-02-25T14:30:31Z</time>
      </trkpt>
      <trkpt lat="48.09932" lon="-3.54906">
        <ele>190.2</ele>
        <time>2025-02-25T14:30:32Z</time>
      </trkpt>
      <trkpt lat="48.0993" lon="-3.54907">
        <ele>190.2</ele>
        <time>2025-02-25T14:30:33Z</time>
      </trkpt>
      <trkpt lat="48.09929" lon="-3.54907">
        <ele>190.2</ele>
        <time>2025-02-25T14:30:34Z</time>
      </trkpt>
      <trkpt lat="48.09928" lon="-3.54908">
        <ele>190.1</ele>
        <time>2025-02-25T14:30:35Z</time>
      </trkpt>
      <trkpt lat="48.09927" lon="-3.54908">
        <ele>190.1</ele>
        <time>2025-02-25T14:30:36Z</time>
      </trkpt>
      <trkpt lat="48.09926" lon="-3.54909">
        <ele>190.1</ele>
        <time>2025-02-25T14:30:37Z</time>
      </trkpt>
      <trkpt lat="48.09925" lon="-3.5491">
        <ele>190.1</ele>
        <time>2025-02-25T14:30:38Z</time>
      </trkpt>
      <trkpt lat="48.09924" lon="-3.54911">
        <ele>190.1</ele>
        <time>2025-02-25T14:30:39Z</time>
      </trkpt>
      <trkpt lat="48.09923" lon="-3.54912">
        <ele>190</ele>
        <time>2025-02-25T14:30:40Z</time>
      </trkpt>
      <trkpt lat="48.09921" lon="-3.54913">
        <ele>190</ele>
        <time>2025-02-25T14:30:41Z</time>
      </trkpt>
      <trkpt lat="48.0992" lon="-3.54914">
        <ele>190</ele>
        <time>2025-02-25T14:30:42Z</time>
      </trkpt>
      <trkpt lat="48.09919" lon="-3.54914">
        <ele>190</ele>
        <time>2025-02-25T14:30:43Z</time>
      </trkpt>
      <trkpt lat="48.09918" lon="-3.54915">
        <ele>190</ele>
        <time>2025-02-25T14:30:44Z</time>
      </trkpt>
      <trkpt lat="48.09917" lon="-3.54915">
        <ele>190</ele>
        <time>2025-02-25T14:30:45Z</time>
      </trkpt>
      <trkpt lat="48.09916" lon="-3.54916">
        <ele>190</ele>
        <time>2025-02-25T14:30:46Z</time>
      </trkpt>
      <trkpt lat="48.09915" lon="-3.54917">
        <ele>190</ele>
        <time>2025-02-25T14:30:47Z</time>
      </trkpt>
      <trkpt lat="48.09914" lon="-3.54918">
        <ele>190</ele>
        <time>2025-02-25T14:30:48Z</time>
      </trkpt>
      <trkpt lat="48.09913" lon="-3.54918">
        <ele>190</ele>
        <time>2025-02-25T14:30:49Z</time>
      </trkpt>
      <trkpt lat="48.09912" lon="-3.54918">
        <ele>190</ele>
        <time>2025-02-25T14:30:50Z</time>
      </trkpt>
      <trkpt lat="48.09911" lon="-3.54918">
        <ele>190</ele>
        <time>2025-02-25T14:30:51Z</time>
      </trkpt>
      <trkpt lat="48.0991" lon="-3.54919">
        <ele>190</ele>
        <time>2025-02-25T14:30:52Z</time>
      </trkpt>
      <trkpt lat="48.09909" lon="-3.54919">
        <ele>190</ele>
        <time>2025-02-25T14:30:53Z</time>
      </trkpt>
      <trkpt lat="48.09908" lon="-3.5492">
        <ele>190</ele>
        <time>2025-02-25T14:30:54Z</time>
      </trkpt>
      <trkpt lat="48.09907" lon="-3.54921">
        <ele>190</ele>
        <time>2025-02-25T14:30:55Z</time>
      </trkpt>
      <trkpt lat="48.09906" lon="-3.54921">
        <ele>190</ele>
        <time>2025-02-25T14:30:56Z</time>
      </trkpt>
      <trkpt lat="48.09905" lon="-3.54922">
        <ele>190</ele>
        <time>2025-02-25T14:30:57Z</time>
      </trkpt>
      <trkpt lat="48.09904" lon="-3.54923">
        <ele>190</ele>
        <time>2025-02-25T14:30:58Z</time>
      </trkpt>
      <trkpt lat="48.09903" lon="-3.54924">
        <ele>190</ele>
        <time>2025-02-25T14:30:59Z</time>
      </trkpt>
      <trkpt lat="48.09902" lon="-3.54924">
        <ele>190</ele>
        <time>2025-02-25T14:31:00Z</time>
      </trkpt>
      <trkpt lat="48.09901" lon="-3.54925">
        <ele>190</ele>
        <time>2025-02-25T14:31:01Z</time>
      </trkpt>
      <trkpt lat="48.099" lon="-3.54926">
        <ele>190</ele>
        <time>2025-02-25T14:31:02Z</time>
      </trkpt>
      <trkpt lat="48.09899" lon="-3.54927">
        <ele>190</ele>
        <time>2025-02-25T14:31:03Z</time>
      </trkpt>
      <trkpt lat="48.09898" lon="-3.54928">
        <ele>190</ele>
        <time>2025-02-25T14:31:04Z</time>
      </trkpt>
      <trkpt lat="48.09897" lon="-3.54928">
        <ele>190</ele>
        <time>2025-02-25T14:31:05Z</time>
      </trkpt>
      <trkpt lat="48.09896" lon="-3.54929">
        <ele>190</ele>
        <time>2025-02-25T14:31:06Z</time>
      </trkpt>
      <trkpt lat="48.09895" lon="-3.54929">
        <ele>190</ele>
        <time>2025-02-25T14:31:07Z</time>
      </trkpt>
      <trkpt lat="48.09894" lon="-3.5493">
        <ele>190</ele>
        <time>2025-02-25T14:31:08Z</time>
      </trkpt>
      <trkpt lat="48.09893" lon="-3.5493">
        <ele>190</ele>
        <time>2025-02-25T14:31:09Z</time>
      </trkpt>
      <trkpt lat="48.09891" lon="-3.5493">
        <ele>190</ele>
        <time>2025-02-25T14:31:10Z</time>
      </trkpt>
      <trkpt lat="48.0989" lon="-3.54931">
        <ele>190</ele>
        <time>2025-02-25T14:31:11Z</time>
      </trkpt>
      <trkpt lat="48.09889" lon="-3.54932">
        <ele>190</ele>
        <time>2025-02-25T14:31:12Z</time>
      </trkpt>
      <trkpt lat="48.09888" lon="-3.54932">
        <ele>190</ele>
        <time>2025-02-25T14:31:13Z</time>
      </trkpt>
      <trkpt lat="48.09887" lon="-3.54931">
        <ele>190</ele>
        <time>2025-02-25T14:31:14Z</time>
      </trkpt>
      <trkpt lat="48.09886" lon="-3.54929">
        <ele>190</ele>
        <time>2025-02-25T14:31:15Z</time>
      </trkpt>
      <trkpt lat="48.09885" lon="-3.54928">
        <ele>189.9</ele>
        <time>2025-02-25T14:31:16Z</time>
      </trkpt>
      <trkpt lat="48.09884" lon="-3.54928">
        <ele>189.9</ele>
        <time>2025-02-25T14:31:17Z</time>
      </trkpt>
      <trkpt lat="48.09883" lon="-3.54929">
        <ele>189.9</ele>
        <time>2025-02-25T14:31:18Z</time>
      </trkpt>
      <trkpt lat="48.09882" lon="-3.54929">
        <ele>189.9</ele>
        <time>2025-02-25T14:31:19Z</time>
      </trkpt>
      <trkpt lat="48.09881" lon="-3.54929">
        <ele>189.9</ele>
        <time>2025-02-25T14:31:20Z</time>
      </trkpt>
      <trkpt lat="48.0988" lon="-3.54929">
        <ele>189.9</ele>
        <time>2025-02-25T14:31:21Z</time>
      </trkpt>
      <trkpt lat="48.09879" lon="-3.54928">
        <ele>189.9</ele>
        <time>2025-02-25T14:31:22Z</time>
      </trkpt>
      <trkpt lat="48.09879" lon="-3.54928">
        <ele>189.9</ele>
        <time>2025-02-25T14:31:23Z</time>
      </trkpt>
      <trkpt lat="48.09879" lon="-3.54928">
        <ele>189.9</ele>
        <time>2025-02-25T14:31:24Z</time>
      </trkpt>
      <trkpt lat="48.09879" lon="-3.54928">
        <ele>189.9</ele>
        <time>2025-02-25T14:31:25Z</time>
      </trkpt>
      <trkpt lat="48.09879" lon="-3.54928">
        <ele>189.9</ele>
        <time>2025-02-25T14:31:26Z</time>
      </trkpt>
      <trkpt lat="48.09879" lon="-3.54928">
        <ele>189.9</ele>
        <time>2025-02-25T14:31:27Z</time>
      </trkpt>
      <trkpt lat="48.09879" lon="-3.54928">
        <ele>189.9</ele>
        <time>2025-02-25T14:31:28Z</time>
      </trkpt>
      <trkpt lat="48.09879" lon="-3.54928">
        <ele>189.9</ele>
        <time>2025-02-25T14:31:29Z</time>
      </trkpt>
      <trkpt lat="48.09879" lon="-3.54928">
        <ele>189.9</ele>
        <time>2025-02-25T14:31:30Z</time>
      </trkpt>
      <trkpt lat="48.09878" lon="-3.54928">
        <ele>189.8</ele>
        <time>2025-02-25T14:31:31Z</time>
      </trkpt>
      <trkpt lat="48.09878" lon="-3.54928">
        <ele>189.8</ele>
        <time>2025-02-25T14:31:32Z</time>
      </trkpt>
      <trkpt lat="48.09877" lon="-3.54927">
        <ele>189.8</ele>
        <time>2025-02-25T14:31:33Z</time>
      </trkpt>
      <trkpt lat="48.09876" lon="-3.54926">
        <ele>189.8</ele>
        <time>2025-02-25T14:31:34Z</time>
      </trkpt>
      <trkpt lat="48.09875" lon="-3.54924">
        <ele>189.9</ele>
        <time>2025-02-25T14:31:35Z</time>
      </trkpt>
      <trkpt lat="48.09875" lon="-3.54923">
        <ele>189.9</ele>
        <time>2025-02-25T14:31:36Z</time>
      </trkpt>
      <trkpt lat="48.09874" lon="-3.54923">
        <ele>189.9</ele>
        <time>2025-02-25T14:31:37Z</time>
      </trkpt>
      <trkpt lat="48.09873" lon="-3.54922">
        <ele>189.9</ele>
        <time>2025-02-25T14:31:38Z</time>
      </trkpt>
      <trkpt lat="48.09872" lon="-3.54922">
        <ele>189.9</ele>
        <time>2025-02-25T14:31:39Z</time>
      </trkpt>
      <trkpt lat="48.09871" lon="-3.54922">
        <ele>189.9</ele>
        <time>2025-02-25T14:31:40Z</time>
      </trkpt>
      <trkpt lat="48.09871" lon="-3.54922">
        <ele>189.9</ele>
        <time>2025-02-25T14:31:41Z</time>
      </trkpt>
      <trkpt lat="48.0987" lon="-3.54921">
        <ele>189.9</ele>
        <time>2025-02-25T14:31:42Z</time>
      </trkpt>
      <trkpt lat="48.09869" lon="-3.5492">
        <ele>189.9</ele>
        <time>2025-02-25T14:31:43Z</time>
      </trkpt>
      <trkpt lat="48.09869" lon="-3.54919">
        <ele>189.9</ele>
        <time>2025-02-25T14:31:44Z</time>
      </trkpt>
      <trkpt lat="48.09868" lon="-3.54918">
        <ele>190</ele>
        <time>2025-02-25T14:31:45Z</time>
      </trkpt>
      <trkpt lat="48.09867" lon="-3.54917">
        <ele>190</ele>
        <time>2025-02-25T14:31:46Z</time>
      </trkpt>
      <trkpt lat="48.09866" lon="-3.54917">
        <ele>190</ele>
        <time>2025-02-25T14:31:47Z</time>
      </trkpt>
      <trkpt lat="48.09865" lon="-3.54916">
        <ele>190</ele>
        <time>2025-02-25T14:31:48Z</time>
      </trkpt>
      <trkpt lat="48.09864" lon="-3.54916">
        <ele>190</ele>
        <time>2025-02-25T14:31:49Z</time>
      </trkpt>
      <trkpt lat="48.09863" lon="-3.54915">
        <ele>190</ele>
        <time>2025-02-25T14:31:50Z</time>
      </trkpt>
      <trkpt lat="48.09862" lon="-3.54915">
        <ele>190</ele>
        <time>2025-02-25T14:31:51Z</time>
      </trkpt>
      <trkpt lat="48.09861" lon="-3.54915">
        <ele>190</ele>
        <time>2025-02-25T14:31:52Z</time>
      </trkpt>
      <trkpt lat="48.0986" lon="-3.54914">
        <ele>190</ele>
        <time>2025-02-25T14:31:53Z</time>
      </trkpt>
      <trkpt lat="48.09859" lon="-3.54914">
        <ele>189.9</ele>
        <time>2025-02-25T14:31:54Z</time>
      </trkpt>
      <trkpt lat="48.09858" lon="-3.54914">
        <ele>189.9</ele>
        <time>2025-02-25T14:31:55Z</time>
      </trkpt>
      <trkpt lat="48.09857" lon="-3.54914">
        <ele>189.9</ele>
        <time>2025-02-25T14:31:56Z</time>
      </trkpt>
      <trkpt lat="48.09856" lon="-3.54914">
        <ele>189.8</ele>
        <time>2025-02-25T14:31:57Z</time>
      </trkpt>
      <trkpt lat="48.09855" lon="-3.54913">
        <ele>189.8</ele>
        <time>2025-02-25T14:31:58Z</time>
      </trkpt>
      <trkpt lat="48.09853" lon="-3.54913">
        <ele>189.7</ele>
        <time>2025-02-25T14:31:59Z</time>
      </trkpt>
      <trkpt lat="48.09852" lon="-3.54913">
        <ele>189.7</ele>
        <time>2025-02-25T14:32:00Z</time>
      </trkpt>
      <trkpt lat="48.09852" lon="-3.54912">
        <ele>189.7</ele>
        <time>2025-02-25T14:32:01Z</time>
      </trkpt>
      <trkpt lat="48.09851" lon="-3.54912">
        <ele>189.7</ele>
        <time>2025-02-25T14:32:02Z</time>
      </trkpt>
      <trkpt lat="48.0985" lon="-3.54911">
        <ele>189.7</ele>
        <time>2025-02-25T14:32:03Z</time>
      </trkpt>
      <trkpt lat="48.09849" lon="-3.54911">
        <ele>189.7</ele>
        <time>2025-02-25T14:32:04Z</time>
      </trkpt>
      <trkpt lat="48.09848" lon="-3.5491">
        <ele>189.6</ele>
        <time>2025-02-25T14:32:05Z</time>
      </trkpt>
      <trkpt lat="48.09847" lon="-3.5491">
        <ele>189.6</ele>
        <time>2025-02-25T14:32:06Z</time>
      </trkpt>
      <trkpt lat="48.09847" lon="-3.54909">
        <ele>189.6</ele>
        <time>2025-02-25T14:32:07Z</time>
      </trkpt>
      <trkpt lat="48.09846" lon="-3.54909">
        <ele>189.6</ele>
        <time>2025-02-25T14:32:08Z</time>
      </trkpt>
      <trkpt lat="48.09845" lon="-3.54908">
        <ele>189.6</ele>
        <time>2025-02-25T14:32:09Z</time>
      </trkpt>
      <trkpt lat="48.09844" lon="-3.54908">
        <ele>189.6</ele>
        <time>2025-02-25T14:32:10Z</time>
      </trkpt>
      <trkpt lat="48.09844" lon="-3.54908">
        <ele>189.6</ele>
        <time>2025-02-25T14:32:11Z</time>
      </trkpt>
      <trkpt lat="48.09843" lon="-3.54907">
        <ele>189.6</ele>
        <time>2025-02-25T14:32:12Z</time>
      </trkpt>
      <trkpt lat="48.09842" lon="-3.54907">
        <ele>189.6</ele>
        <time>2025-02-25T14:32:13Z</time>
      </trkpt>
      <trkpt lat="48.09841" lon="-3.54907">
        <ele>189.5</ele>
        <time>2025-02-25T14:32:14Z</time>
      </trkpt>
      <trkpt lat="48.0984" lon="-3.54906">
        <ele>189.5</ele>
        <time>2025-02-25T14:32:15Z</time>
      </trkpt>
      <trkpt lat="48.09839" lon="-3.54906">
        <ele>189.5</ele>
        <time>2025-02-25T14:32:16Z</time>
      </trkpt>
      <trkpt lat="48.09838" lon="-3.54906">
        <ele>189.5</ele>
        <time>2025-02-25T14:32:17Z</time>
      </trkpt>
      <trkpt lat="48.09837" lon="-3.54906">
        <ele>189.5</ele>
        <time>2025-02-25T14:32:18Z</time>
      </trkpt>
      <trkpt lat="48.09836" lon="-3.54906">
        <ele>189.4</ele>
        <time>2025-02-25T14:32:19Z</time>
      </trkpt>
      <trkpt lat="48.09835" lon="-3.54905">
        <ele>189.5</ele>
        <time>2025-02-25T14:32:20Z</time>
      </trkpt>
      <trkpt lat="48.09835" lon="-3.54904">
        <ele>189.5</ele>
        <time>2025-02-25T14:32:21Z</time>
      </trkpt>
      <trkpt lat="48.09834" lon="-3.54903">
        <ele>189.5</ele>
        <time>2025-02-25T14:32:22Z</time>
      </trkpt>
      <trkpt lat="48.09832" lon="-3.54903">
        <ele>189.4</ele>
        <time>2025-02-25T14:32:23Z</time>
      </trkpt>
      <trkpt lat="48.09831" lon="-3.54903">
        <ele>189.4</ele>
        <time>2025-02-25T14:32:24Z</time>
      </trkpt>
      <trkpt lat="48.0983" lon="-3.54903">
        <ele>189.4</ele>
        <time>2025-02-25T14:32:25Z</time>
      </trkpt>
      <trkpt lat="48.09829" lon="-3.54903">
        <ele>189.3</ele>
        <time>2025-02-25T14:32:26Z</time>
      </trkpt>
      <trkpt lat="48.09828" lon="-3.54903">
        <ele>189.3</ele>
        <time>2025-02-25T14:32:27Z</time>
      </trkpt>
      <trkpt lat="48.09827" lon="-3.54901">
        <ele>189.3</ele>
        <time>2025-02-25T14:32:28Z</time>
      </trkpt>
      <trkpt lat="48.09826" lon="-3.54901">
        <ele>189.3</ele>
        <time>2025-02-25T14:32:29Z</time>
      </trkpt>
      <trkpt lat="48.09825" lon="-3.549">
        <ele>189.3</ele>
        <time>2025-02-25T14:32:30Z</time>
      </trkpt>
      <trkpt lat="48.09824" lon="-3.54899">
        <ele>189.3</ele>
        <time>2025-02-25T14:32:31Z</time>
      </trkpt>
      <trkpt lat="48.09822" lon="-3.54899">
        <ele>189.2</ele>
        <time>2025-02-25T14:32:32Z</time>
      </trkpt>
      <trkpt lat="48.09821" lon="-3.54898">
        <ele>189.2</ele>
        <time>2025-02-25T14:32:33Z</time>
      </trkpt>
      <trkpt lat="48.0982" lon="-3.54898">
        <ele>189.2</ele>
        <time>2025-02-25T14:32:34Z</time>
      </trkpt>
      <trkpt lat="48.09819" lon="-3.54898">
        <ele>189.2</ele>
        <time>2025-02-25T14:32:35Z</time>
      </trkpt>
      <trkpt lat="48.09818" lon="-3.54897">
        <ele>189.2</ele>
        <time>2025-02-25T14:32:36Z</time>
      </trkpt>
      <trkpt lat="48.09817" lon="-3.54897">
        <ele>189.1</ele>
        <time>2025-02-25T14:32:37Z</time>
      </trkpt>
      <trkpt lat="48.09816" lon="-3.54896">
        <ele>189.1</ele>
        <time>2025-02-25T14:32:38Z</time>
      </trkpt>
      <trkpt lat="48.09815" lon="-3.54897">
        <ele>189</ele>
        <time>2025-02-25T14:32:39Z</time>
      </trkpt>
      <trkpt lat="48.09814" lon="-3.54896">
        <ele>189</ele>
        <time>2025-02-25T14:32:40Z</time>
      </trkpt>
      <trkpt lat="48.09813" lon="-3.54896">
        <ele>189</ele>
        <time>2025-02-25T14:32:41Z</time>
      </trkpt>
      <trkpt lat="48.09812" lon="-3.54895">
        <ele>189</ele>
        <time>2025-02-25T14:32:42Z</time>
      </trkpt>
      <trkpt lat="48.09811" lon="-3.54895">
        <ele>189</ele>
        <time>2025-02-25T14:32:43Z</time>
      </trkpt>
      <trkpt lat="48.0981" lon="-3.54894">
        <ele>189</ele>
        <time>2025-02-25T14:32:44Z</time>
      </trkpt>
      <trkpt lat="48.09809" lon="-3.54893">
        <ele>189</ele>
        <time>2025-02-25T14:32:45Z</time>
      </trkpt>
      <trkpt lat="48.09809" lon="-3.54892">
        <ele>189</ele>
        <time>2025-02-25T14:32:46Z</time>
      </trkpt>
      <trkpt lat="48.09808" lon="-3.54891">
        <ele>189</ele>
        <time>2025-02-25T14:32:47Z</time>
      </trkpt>
      <trkpt lat="48.09807" lon="-3.54891">
        <ele>189</ele>
        <time>2025-02-25T14:32:48Z</time>
      </trkpt>
      <trkpt lat="48.09806" lon="-3.5489">
        <ele>189</ele>
        <time>2025-02-25T14:32:49Z</time>
      </trkpt>
      <trkpt lat="48.09804" lon="-3.5489">
        <ele>188.9</ele>
        <time>2025-02-25T14:32:50Z</time>
      </trkpt>
      <trkpt lat="48.09803" lon="-3.5489">
        <ele>188.9</ele>
        <time>2025-02-25T14:32:51Z</time>
      </trkpt>
      <trkpt lat="48.09802" lon="-3.54889">
        <ele>188.9</ele>
        <time>2025-02-25T14:32:52Z</time>
      </trkpt>
      <trkpt lat="48.09801" lon="-3.54889">
        <ele>188.8</ele>
        <time>2025-02-25T14:32:53Z</time>
      </trkpt>
      <trkpt lat="48.098" lon="-3.54888">
        <ele>188.8</ele>
        <time>2025-02-25T14:32:54Z</time>
      </trkpt>
      <trkpt lat="48.09799" lon="-3.54887">
        <ele>188.8</ele>
        <time>2025-02-25T14:32:55Z</time>
      </trkpt>
      <trkpt lat="48.09798" lon="-3.54886">
        <ele>188.8</ele>
        <time>2025-02-25T14:32:56Z</time>
      </trkpt>
      <trkpt lat="48.09797" lon="-3.54886">
        <ele>188.7</ele>
        <time>2025-02-25T14:32:57Z</time>
      </trkpt>
      <trkpt lat="48.09796" lon="-3.54886">
        <ele>188.7</ele>
        <time>2025-02-25T14:32:58Z</time>
      </trkpt>
      <trkpt lat="48.09795" lon="-3.54885">
        <ele>188.7</ele>
        <time>2025-02-25T14:32:59Z</time>
      </trkpt>
      <trkpt lat="48.09794" lon="-3.54885">
        <ele>188.6</ele>
        <time>2025-02-25T14:33:00Z</time>
      </trkpt>
      <trkpt lat="48.09792" lon="-3.54884">
        <ele>188.6</ele>
        <time>2025-02-25T14:33:01Z</time>
      </trkpt>
      <trkpt lat="48.09791" lon="-3.54884">
        <ele>188.6</ele>
        <time>2025-02-25T14:33:02Z</time>
      </trkpt>
      <trkpt lat="48.0979" lon="-3.54883">
        <ele>188.6</ele>
        <time>2025-02-25T14:33:03Z</time>
      </trkpt>
      <trkpt lat="48.09789" lon="-3.54883">
        <ele>188.5</ele>
        <time>2025-02-25T14:33:04Z</time>
      </trkpt>
      <trkpt lat="48.09788" lon="-3.54882">
        <ele>188.5</ele>
        <time>2025-02-25T14:33:05Z</time>
      </trkpt>
      <trkpt lat="48.09787" lon="-3.54881">
        <ele>188.5</ele>
        <time>2025-02-25T14:33:06Z</time>
      </trkpt>
      <trkpt lat="48.09785" lon="-3.54881">
        <ele>188.5</ele>
        <time>2025-02-25T14:33:07Z</time>
      </trkpt>
      <trkpt lat="48.09784" lon="-3.5488">
        <ele>188.5</ele>
        <time>2025-02-25T14:33:08Z</time>
      </trkpt>
      <trkpt lat="48.09783" lon="-3.54879">
        <ele>188.5</ele>
        <time>2025-02-25T14:33:09Z</time>
      </trkpt>
      <trkpt lat="48.09782" lon="-3.54878">
        <ele>188.5</ele>
        <time>2025-02-25T14:33:10Z</time>
      </trkpt>
      <trkpt lat="48.09781" lon="-3.54878">
        <ele>188.5</ele>
        <time>2025-02-25T14:33:11Z</time>
      </trkpt>
      <trkpt lat="48.0978" lon="-3.54878">
        <ele>188.4</ele>
        <time>2025-02-25T14:33:12Z</time>
      </trkpt>
      <trkpt lat="48.09779" lon="-3.54878">
        <ele>188.4</ele>
        <time>2025-02-25T14:33:13Z</time>
      </trkpt>
      <trkpt lat="48.09777" lon="-3.54878">
        <ele>188.4</ele>
        <time>2025-02-25T14:33:14Z</time>
      </trkpt>
      <trkpt lat="48.09776" lon="-3.54877">
        <ele>188.4</ele>
        <time>2025-02-25T14:33:15Z</time>
      </trkpt>
      <trkpt lat="48.09775" lon="-3.54877">
        <ele>188.3</ele>
        <time>2025-02-25T14:33:16Z</time>
      </trkpt>
      <trkpt lat="48.09774" lon="-3.54876">
        <ele>188.3</ele>
        <time>2025-02-25T14:33:17Z</time>
      </trkpt>
      <trkpt lat="48.09773" lon="-3.54876">
        <ele>188.3</ele>
        <time>2025-02-25T14:33:18Z</time>
      </trkpt>
      <trkpt lat="48.09771" lon="-3.54875">
        <ele>188.3</ele>
        <time>2025-02-25T14:33:19Z</time>
      </trkpt>
      <trkpt lat="48.0977" lon="-3.54875">
        <ele>188.2</ele>
        <time>2025-02-25T14:33:20Z</time>
      </trkpt>
      <trkpt lat="48.09769" lon="-3.54874">
        <ele>188.2</ele>
        <time>2025-02-25T14:33:21Z</time>
      </trkpt>
      <trkpt lat="48.09768" lon="-3.54873">
        <ele>188.2</ele>
        <time>2025-02-25T14:33:22Z</time>
      </trkpt>
      <trkpt lat="48.09767" lon="-3.54873">
        <ele>188.2</ele>
        <time>2025-02-25T14:33:23Z</time>
      </trkpt>
      <trkpt lat="48.09765" lon="-3.54872">
        <ele>188.1</ele>
        <time>2025-02-25T14:33:24Z</time>
      </trkpt>
      <trkpt lat="48.09764" lon="-3.54871">
        <ele>188.1</ele>
        <time>2025-02-25T14:33:25Z</time>
      </trkpt>
      <trkpt lat="48.09763" lon="-3.54871">
        <ele>188.1</ele>
        <time>2025-02-25T14:33:26Z</time>
      </trkpt>
      <trkpt lat="48.09762" lon="-3.5487">
        <ele>188.1</ele>
        <time>2025-02-25T14:33:27Z</time>
      </trkpt>
      <trkpt lat="48.09761" lon="-3.5487">
        <ele>188.1</ele>
        <time>2025-02-25T14:33:28Z</time>
      </trkpt>
      <trkpt lat="48.0976" lon="-3.54869">
        <ele>188.1</ele>
        <time>2025-02-25T14:33:29Z</time>
      </trkpt>
      <trkpt lat="48.09758" lon="-3.54869">
        <ele>188</ele>
        <time>2025-02-25T14:33:30Z</time>
      </trkpt>
      <trkpt lat="48.09757" lon="-3.54868">
        <ele>188</ele>
        <time>2025-02-25T14:33:31Z</time>
      </trkpt>
      <trkpt lat="48.09756" lon="-3.54867">
        <ele>188</ele>
        <time>2025-02-25T14:33:32Z</time>
      </trkpt>
      <trkpt lat="48.09755" lon="-3.54866">
        <ele>188</ele>
        <time>2025-02-25T14:33:33Z</time>
      </trkpt>
      <trkpt lat="48.09754" lon="-3.54866">
        <ele>188</ele>
        <time>2025-02-25T14:33:34Z</time>
      </trkpt>
      <trkpt lat="48.09753" lon="-3.54866">
        <ele>187.9</ele>
        <time>2025-02-25T14:33:35Z</time>
      </trkpt>
      <trkpt lat="48.09752" lon="-3.54865">
        <ele>187.9</ele>
        <time>2025-02-25T14:33:36Z</time>
      </trkpt>
      <trkpt lat="48.09751" lon="-3.54865">
        <ele>187.9</ele>
        <time>2025-02-25T14:33:37Z</time>
      </trkpt>
      <trkpt lat="48.0975" lon="-3.54865">
        <ele>187.9</ele>
        <time>2025-02-25T14:33:38Z</time>
      </trkpt>
      <trkpt lat="48.09748" lon="-3.54864">
        <ele>187.8</ele>
        <time>2025-02-25T14:33:39Z</time>
      </trkpt>
      <trkpt lat="48.09747" lon="-3.54864">
        <ele>187.7</ele>
        <time>2025-02-25T14:33:40Z</time>
      </trkpt>
      <trkpt lat="48.09746" lon="-3.54864">
        <ele>187.6</ele>
        <time>2025-02-25T14:33:41Z</time>
      </trkpt>
      <trkpt lat="48.09745" lon="-3.54863">
        <ele>187.6</ele>
        <time>2025-02-25T14:33:42Z</time>
      </trkpt>
      <trkpt lat="48.09744" lon="-3.54862">
        <ele>187.5</ele>
        <time>2025-02-25T14:33:43Z</time>
      </trkpt>
      <trkpt lat="48.09743" lon="-3.54861">
        <ele>187.5</ele>
        <time>2025-02-25T14:33:44Z</time>
      </trkpt>
      <trkpt lat="48.09742" lon="-3.54861">
        <ele>187.4</ele>
        <time>2025-02-25T14:33:45Z</time>
      </trkpt>
      <trkpt lat="48.09741" lon="-3.54859">
        <ele>187.4</ele>
        <time>2025-02-25T14:33:46Z</time>
      </trkpt>
      <trkpt lat="48.0974" lon="-3.54859">
        <ele>187.3</ele>
        <time>2025-02-25T14:33:47Z</time>
      </trkpt>
      <trkpt lat="48.09738" lon="-3.54859">
        <ele>187.2</ele>
        <time>2025-02-25T14:33:48Z</time>
      </trkpt>
      <trkpt lat="48.09737" lon="-3.54858">
        <ele>187.1</ele>
        <time>2025-02-25T14:33:49Z</time>
      </trkpt>
      <trkpt lat="48.09736" lon="-3.54857">
        <ele>187.1</ele>
        <time>2025-02-25T14:33:50Z</time>
      </trkpt>
      <trkpt lat="48.09735" lon="-3.54857">
        <ele>187</ele>
        <time>2025-02-25T14:33:51Z</time>
      </trkpt>
      <trkpt lat="48.09734" lon="-3.54856">
        <ele>187</ele>
        <time>2025-02-25T14:33:52Z</time>
      </trkpt>
      <trkpt lat="48.09733" lon="-3.54856">
        <ele>186.9</ele>
        <time>2025-02-25T14:33:53Z</time>
      </trkpt>
      <trkpt lat="48.09732" lon="-3.54855">
        <ele>186.8</ele>
        <time>2025-02-25T14:33:54Z</time>
      </trkpt>
      <trkpt lat="48.09731" lon="-3.54854">
        <ele>186.8</ele>
        <time>2025-02-25T14:33:55Z</time>
      </trkpt>
      <trkpt lat="48.09729" lon="-3.54853">
        <ele>186.7</ele>
        <time>2025-02-25T14:33:56Z</time>
      </trkpt>
      <trkpt lat="48.09728" lon="-3.54853">
        <ele>186.6</ele>
        <time>2025-02-25T14:33:57Z</time>
      </trkpt>
      <trkpt lat="48.09727" lon="-3.54853">
        <ele>186.6</ele>
        <time>2025-02-25T14:33:58Z</time>
      </trkpt>
      <trkpt lat="48.09726" lon="-3.54852">
        <ele>186.6</ele>
        <time>2025-02-25T14:33:59Z</time>
      </trkpt>
      <trkpt lat="48.09725" lon="-3.54851">
        <ele>186.5</ele>
        <time>2025-02-25T14:34:00Z</time>
      </trkpt>
      <trkpt lat="48.09724" lon="-3.5485">
        <ele>186.5</ele>
        <time>2025-02-25T14:34:01Z</time>
      </trkpt>
      <trkpt lat="48.09723" lon="-3.54849">
        <ele>186.5</ele>
        <time>2025-02-25T14:34:02Z</time>
      </trkpt>
      <trkpt lat="48.09721" lon="-3.54848">
        <ele>186.4</ele>
        <time>2025-02-25T14:34:03Z</time>
      </trkpt>
      <trkpt lat="48.0972" lon="-3.54848">
        <ele>186.3</ele>
        <time>2025-02-25T14:34:04Z</time>
      </trkpt>
      <trkpt lat="48.09719" lon="-3.54848">
        <ele>186.3</ele>
        <time>2025-02-25T14:34:05Z</time>
      </trkpt>
      <trkpt lat="48.09718" lon="-3.54847">
        <ele>186.3</ele>
        <time>2025-02-25T14:34:06Z</time>
      </trkpt>
      <trkpt lat="48.09717" lon="-3.54847">
        <ele>186.2</ele>
        <time>2025-02-25T14:34:07Z</time>
      </trkpt>
      <trkpt lat="48.09716" lon="-3.54846">
        <ele>186.2</ele>
        <time>2025-02-25T14:34:08Z</time>
      </trkpt>
      <trkpt lat="48.09715" lon="-3.54846">
        <ele>186.2</ele>
        <time>2025-02-25T14:34:09Z</time>
      </trkpt>
      <trkpt lat="48.09713" lon="-3.54845">
        <ele>186.1</ele>
        <time>2025-02-25T14:34:10Z</time>
      </trkpt>
      <trkpt lat="48.09712" lon="-3.54845">
        <ele>186.1</ele>
        <time>2025-02-25T14:34:11Z</time>
      </trkpt>
      <trkpt lat="48.09711" lon="-3.54843">
        <ele>186.1</ele>
        <time>2025-02-25T14:34:12Z</time>
      </trkpt>
      <trkpt lat="48.0971" lon="-3.54843">
        <ele>186.1</ele>
        <time>2025-02-25T14:34:13Z</time>
      </trkpt>
      <trkpt lat="48.09709" lon="-3.54842">
        <ele>186.1</ele>
        <time>2025-02-25T14:34:14Z</time>
      </trkpt>
      <trkpt lat="48.09708" lon="-3.54841">
        <ele>186.1</ele>
        <time>2025-02-25T14:34:15Z</time>
      </trkpt>
      <trkpt lat="48.09706" lon="-3.54841">
        <ele>186</ele>
        <time>2025-02-25T14:34:16Z</time>
      </trkpt>
      <trkpt lat="48.09705" lon="-3.5484">
        <ele>186</ele>
        <time>2025-02-25T14:34:17Z</time>
      </trkpt>
      <trkpt lat="48.09704" lon="-3.5484">
        <ele>185.9</ele>
        <time>2025-02-25T14:34:18Z</time>
      </trkpt>
      <trkpt lat="48.09703" lon="-3.54839">
        <ele>186</ele>
        <time>2025-02-25T14:34:19Z</time>
      </trkpt>
      <trkpt lat="48.09702" lon="-3.54839">
        <ele>185.9</ele>
        <time>2025-02-25T14:34:20Z</time>
      </trkpt>
      <trkpt lat="48.09701" lon="-3.54838">
        <ele>185.9</ele>
        <time>2025-02-25T14:34:21Z</time>
      </trkpt>
      <trkpt lat="48.097" lon="-3.54838">
        <ele>185.9</ele>
        <time>2025-02-25T14:34:22Z</time>
      </trkpt>
      <trkpt lat="48.09699" lon="-3.54838">
        <ele>185.9</ele>
        <time>2025-02-25T14:34:23Z</time>
      </trkpt>
      <trkpt lat="48.09698" lon="-3.54837">
        <ele>185.9</ele>
        <time>2025-02-25T14:34:24Z</time>
      </trkpt>
      <trkpt lat="48.09697" lon="-3.54837">
        <ele>185.8</ele>
        <time>2025-02-25T14:34:25Z</time>
      </trkpt>
      <trkpt lat="48.09696" lon="-3.54837">
        <ele>185.8</ele>
        <time>2025-02-25T14:34:26Z</time>
      </trkpt>
      <trkpt lat="48.09695" lon="-3.54836">
        <ele>185.8</ele>
        <time>2025-02-25T14:34:27Z</time>
      </trkpt>
      <trkpt lat="48.09694" lon="-3.54836">
        <ele>185.8</ele>
        <time>2025-02-25T14:34:28Z</time>
      </trkpt>
      <trkpt lat="48.09693" lon="-3.54835">
        <ele>185.8</ele>
        <time>2025-02-25T14:34:29Z</time>
      </trkpt>
      <trkpt lat="48.09691" lon="-3.54834">
        <ele>185.8</ele>
        <time>2025-02-25T14:34:30Z</time>
      </trkpt>
      <trkpt lat="48.0969" lon="-3.54834">
        <ele>185.8</ele>
        <time>2025-02-25T14:34:31Z</time>
      </trkpt>
      <trkpt lat="48.09689" lon="-3.54833">
        <ele>185.8</ele>
        <time>2025-02-25T14:34:32Z</time>
      </trkpt>
      <trkpt lat="48.09688" lon="-3.54832">
        <ele>185.8</ele>
        <time>2025-02-25T14:34:33Z</time>
      </trkpt>
      <trkpt lat="48.09686" lon="-3.54832">
        <ele>185.7</ele>
        <time>2025-02-25T14:34:34Z</time>
      </trkpt>
      <trkpt lat="48.09685" lon="-3.54832">
        <ele>185.7</ele>
        <time>2025-02-25T14:34:35Z</time>
      </trkpt>
      <trkpt lat="48.09684" lon="-3.54831">
        <ele>185.7</ele>
        <time>2025-02-25T14:34:36Z</time>
      </trkpt>
      <trkpt lat="48.09683" lon="-3.5483">
        <ele>185.7</ele>
        <time>2025-02-25T14:34:37Z</time>
      </trkpt>
      <trkpt lat="48.09682" lon="-3.5483">
        <ele>185.7</ele>
        <time>2025-02-25T14:34:38Z</time>
      </trkpt>
      <trkpt lat="48.09681" lon="-3.54829">
        <ele>185.7</ele>
        <time>2025-02-25T14:34:39Z</time>
      </trkpt>
      <trkpt lat="48.0968" lon="-3.54829">
        <ele>185.6</ele>
        <time>2025-02-25T14:34:40Z</time>
      </trkpt>
      <trkpt lat="48.09679" lon="-3.54828">
        <ele>185.6</ele>
        <time>2025-02-25T14:34:41Z</time>
      </trkpt>
      <trkpt lat="48.09678" lon="-3.54828">
        <ele>185.6</ele>
        <time>2025-02-25T14:34:42Z</time>
      </trkpt>
      <trkpt lat="48.09677" lon="-3.54828">
        <ele>185.6</ele>
        <time>2025-02-25T14:34:43Z</time>
      </trkpt>
      <trkpt lat="48.09675" lon="-3.54827">
        <ele>185.5</ele>
        <time>2025-02-25T14:34:44Z</time>
      </trkpt>
      <trkpt lat="48.09674" lon="-3.54826">
        <ele>185.5</ele>
        <time>2025-02-25T14:34:45Z</time>
      </trkpt>
      <trkpt lat="48.09673" lon="-3.54826">
        <ele>185.5</ele>
        <time>2025-02-25T14:34:46Z</time>
      </trkpt>
      <trkpt lat="48.09672" lon="-3.54826">
        <ele>185.5</ele>
        <time>2025-02-25T14:34:47Z</time>
      </trkpt>
      <trkpt lat="48.09671" lon="-3.54825">
        <ele>185.5</ele>
        <time>2025-02-25T14:34:48Z</time>
      </trkpt>
      <trkpt lat="48.0967" lon="-3.54825">
        <ele>185.4</ele>
        <time>2025-02-25T14:34:49Z</time>
      </trkpt>
      <trkpt lat="48.09669" lon="-3.54824">
        <ele>185.4</ele>
        <time>2025-02-25T14:34:50Z</time>
      </trkpt>
      <trkpt lat="48.09668" lon="-3.54823">
        <ele>185.4</ele>
        <time>2025-02-25T14:34:51Z</time>
      </trkpt>
      <trkpt lat="48.09666" lon="-3.54823">
        <ele>185.3</ele>
        <time>2025-02-25T14:34:52Z</time>
      </trkpt>
      <trkpt lat="48.09665" lon="-3.54823">
        <ele>185.3</ele>
        <time>2025-02-25T14:34:53Z</time>
      </trkpt>
      <trkpt lat="48.09664" lon="-3.54822">
        <ele>185.3</ele>
        <time>2025-02-25T14:34:54Z</time>
      </trkpt>
      <trkpt lat="48.09663" lon="-3.54822">
        <ele>185.2</ele>
        <time>2025-02-25T14:34:55Z</time>
      </trkpt>
      <trkpt lat="48.09662" lon="-3.54821">
        <ele>185.2</ele>
        <time>2025-02-25T14:34:56Z</time>
      </trkpt>
      <trkpt lat="48.09661" lon="-3.54821">
        <ele>185.1</ele>
        <time>2025-02-25T14:34:57Z</time>
      </trkpt>
      <trkpt lat="48.0966" lon="-3.5482">
        <ele>185.1</ele>
        <time>2025-02-25T14:34:58Z</time>
      </trkpt>
      <trkpt lat="48.09659" lon="-3.5482">
        <ele>185.1</ele>
        <time>2025-02-25T14:34:59Z</time>
      </trkpt>
      <trkpt lat="48.09658" lon="-3.54819">
        <ele>185.1</ele>
        <time>2025-02-25T14:35:00Z</time>
      </trkpt>
      <trkpt lat="48.09657" lon="-3.54819">
        <ele>185</ele>
        <time>2025-02-25T14:35:01Z</time>
      </trkpt>
      <trkpt lat="48.09655" lon="-3.54818">
        <ele>184.9</ele>
        <time>2025-02-25T14:35:02Z</time>
      </trkpt>
      <trkpt lat="48.09654" lon="-3.54818">
        <ele>184.9</ele>
        <time>2025-02-25T14:35:03Z</time>
      </trkpt>
      <trkpt lat="48.09653" lon="-3.54818">
        <ele>184.8</ele>
        <time>2025-02-25T14:35:04Z</time>
      </trkpt>
      <trkpt lat="48.09652" lon="-3.54818">
        <ele>184.8</ele>
        <time>2025-02-25T14:35:05Z</time>
      </trkpt>
      <trkpt lat="48.09651" lon="-3.54817">
        <ele>184.8</ele>
        <time>2025-02-25T14:35:06Z</time>
      </trkpt>
      <trkpt lat="48.0965" lon="-3.54816">
        <ele>184.8</ele>
        <time>2025-02-25T14:35:07Z</time>
      </trkpt>
      <trkpt lat="48.09649" lon="-3.54816">
        <ele>184.7</ele>
        <time>2025-02-25T14:35:08Z</time>
      </trkpt>
      <trkpt lat="48.09648" lon="-3.54816">
        <ele>184.7</ele>
        <time>2025-02-25T14:35:09Z</time>
      </trkpt>
      <trkpt lat="48.09646" lon="-3.54815">
        <ele>184.7</ele>
        <time>2025-02-25T14:35:10Z</time>
      </trkpt>
      <trkpt lat="48.09645" lon="-3.54814">
        <ele>184.7</ele>
        <time>2025-02-25T14:35:11Z</time>
      </trkpt>
      <trkpt lat="48.09644" lon="-3.54814">
        <ele>184.6</ele>
        <time>2025-02-25T14:35:12Z</time>
      </trkpt>
      <trkpt lat="48.09643" lon="-3.54815">
        <ele>184.5</ele>
        <time>2025-02-25T14:35:13Z</time>
      </trkpt>
      <trkpt lat="48.09642" lon="-3.54815">
        <ele>184.5</ele>
        <time>2025-02-25T14:35:14Z</time>
      </trkpt>
      <trkpt lat="48.09641" lon="-3.54815">
        <ele>184.4</ele>
        <time>2025-02-25T14:35:15Z</time>
      </trkpt>
      <trkpt lat="48.0964" lon="-3.54814">
        <ele>184.4</ele>
        <time>2025-02-25T14:35:16Z</time>
      </trkpt>
      <trkpt lat="48.09639" lon="-3.54814">
        <ele>184.4</ele>
        <time>2025-02-25T14:35:17Z</time>
      </trkpt>
      <trkpt lat="48.09638" lon="-3.54814">
        <ele>184.4</ele>
        <time>2025-02-25T14:35:18Z</time>
      </trkpt>
      <trkpt lat="48.09637" lon="-3.54814">
        <ele>184.3</ele>
        <time>2025-02-25T14:35:19Z</time>
      </trkpt>
      <trkpt lat="48.09636" lon="-3.54813">
        <ele>184.4</ele>
        <time>2025-02-25T14:35:20Z</time>
      </trkpt>
      <trkpt lat="48.09635" lon="-3.54812">
        <ele>184.4</ele>
        <time>2025-02-25T14:35:21Z</time>
      </trkpt>
      <trkpt lat="48.09634" lon="-3.54812">
        <ele>184.4</ele>
        <time>2025-02-25T14:35:22Z</time>
      </trkpt>
      <trkpt lat="48.09633" lon="-3.54811">
        <ele>184.4</ele>
        <time>2025-02-25T14:35:23Z</time>
      </trkpt>
      <trkpt lat="48.09632" lon="-3.54811">
        <ele>184.4</ele>
        <time>2025-02-25T14:35:24Z</time>
      </trkpt>
      <trkpt lat="48.09631" lon="-3.54811">
        <ele>184.3</ele>
        <time>2025-02-25T14:35:25Z</time>
      </trkpt>
      <trkpt lat="48.0963" lon="-3.54811">
        <ele>184.3</ele>
        <time>2025-02-25T14:35:26Z</time>
      </trkpt>
      <trkpt lat="48.09629" lon="-3.54811">
        <ele>184.3</ele>
        <time>2025-02-25T14:35:27Z</time>
      </trkpt>
      <trkpt lat="48.09628" lon="-3.54811">
        <ele>184.2</ele>
        <time>2025-02-25T14:35:28Z</time>
      </trkpt>
      <trkpt lat="48.09626" lon="-3.54811">
        <ele>184.1</ele>
        <time>2025-02-25T14:35:29Z</time>
      </trkpt>
      <trkpt lat="48.09625" lon="-3.5481">
        <ele>184.2</ele>
        <time>2025-02-25T14:35:30Z</time>
      </trkpt>
      <trkpt lat="48.09624" lon="-3.5481">
        <ele>184.1</ele>
        <time>2025-02-25T14:35:31Z</time>
      </trkpt>
      <trkpt lat="48.09623" lon="-3.54809">
        <ele>184.2</ele>
        <time>2025-02-25T14:35:32Z</time>
      </trkpt>
      <trkpt lat="48.09622" lon="-3.54809">
        <ele>184.1</ele>
        <time>2025-02-25T14:35:33Z</time>
      </trkpt>
      <trkpt lat="48.09621" lon="-3.54809">
        <ele>184.1</ele>
        <time>2025-02-25T14:35:34Z</time>
      </trkpt>
      <trkpt lat="48.09619" lon="-3.54808">
        <ele>184.1</ele>
        <time>2025-02-25T14:35:35Z</time>
      </trkpt>
      <trkpt lat="48.09618" lon="-3.54808">
        <ele>184.1</ele>
        <time>2025-02-25T14:35:36Z</time>
      </trkpt>
      <trkpt lat="48.09617" lon="-3.54807">
        <ele>184.1</ele>
        <time>2025-02-25T14:35:37Z</time>
      </trkpt>
      <trkpt lat="48.09616" lon="-3.54807">
        <ele>184.1</ele>
        <time>2025-02-25T14:35:38Z</time>
      </trkpt>
      <trkpt lat="48.09615" lon="-3.54806">
        <ele>184.1</ele>
        <time>2025-02-25T14:35:39Z</time>
      </trkpt>
      <trkpt lat="48.09614" lon="-3.54805">
        <ele>184.1</ele>
        <time>2025-02-25T14:35:40Z</time>
      </trkpt>
      <trkpt lat="48.09612" lon="-3.54805">
        <ele>184.1</ele>
        <time>2025-02-25T14:35:41Z</time>
      </trkpt>
      <trkpt lat="48.09611" lon="-3.54804">
        <ele>184</ele>
        <time>2025-02-25T14:35:42Z</time>
      </trkpt>
      <trkpt lat="48.0961" lon="-3.54804">
        <ele>184</ele>
        <time>2025-02-25T14:35:43Z</time>
      </trkpt>
      <trkpt lat="48.09609" lon="-3.54804">
        <ele>183.9</ele>
        <time>2025-02-25T14:35:44Z</time>
      </trkpt>
      <trkpt lat="48.09607" lon="-3.54804">
        <ele>183.8</ele>
        <time>2025-02-25T14:35:45Z</time>
      </trkpt>
      <trkpt lat="48.09606" lon="-3.54804">
        <ele>183.7</ele>
        <time>2025-02-25T14:35:46Z</time>
      </trkpt>
      <trkpt lat="48.09605" lon="-3.54803">
        <ele>183.6</ele>
        <time>2025-02-25T14:35:47Z</time>
      </trkpt>
      <trkpt lat="48.09604" lon="-3.54803">
        <ele>183.6</ele>
        <time>2025-02-25T14:35:48Z</time>
      </trkpt>
      <trkpt lat="48.09603" lon="-3.54802">
        <ele>183.5</ele>
        <time>2025-02-25T14:35:49Z</time>
      </trkpt>
      <trkpt lat="48.09602" lon="-3.54802">
        <ele>183.4</ele>
        <time>2025-02-25T14:35:50Z</time>
      </trkpt>
      <trkpt lat="48.09601" lon="-3.54801">
        <ele>183.4</ele>
        <time>2025-02-25T14:35:51Z</time>
      </trkpt>
      <trkpt lat="48.096" lon="-3.54801">
        <ele>183.3</ele>
        <time>2025-02-25T14:35:52Z</time>
      </trkpt>
      <trkpt lat="48.09598" lon="-3.54801">
        <ele>183.1</ele>
        <time>2025-02-25T14:35:53Z</time>
      </trkpt>
      <trkpt lat="48.09598" lon="-3.54801">
        <ele>183.1</ele>
        <time>2025-02-25T14:35:54Z</time>
      </trkpt>
      <trkpt lat="48.09596" lon="-3.54801">
        <ele>183</ele>
        <time>2025-02-25T14:35:55Z</time>
      </trkpt>
      <trkpt lat="48.09595" lon="-3.548">
        <ele>182.9</ele>
        <time>2025-02-25T14:35:56Z</time>
      </trkpt>
      <trkpt lat="48.09594" lon="-3.548">
        <ele>182.8</ele>
        <time>2025-02-25T14:35:57Z</time>
      </trkpt>
      <trkpt lat="48.09593" lon="-3.54799">
        <ele>182.8</ele>
        <time>2025-02-25T14:35:58Z</time>
      </trkpt>
      <trkpt lat="48.09591" lon="-3.54799">
        <ele>182.6</ele>
        <time>2025-02-25T14:35:59Z</time>
      </trkpt>
      <trkpt lat="48.0959" lon="-3.54799">
        <ele>182.5</ele>
        <time>2025-02-25T14:36:00Z</time>
      </trkpt>
      <trkpt lat="48.09589" lon="-3.54799">
        <ele>182.5</ele>
        <time>2025-02-25T14:36:01Z</time>
      </trkpt>
      <trkpt lat="48.09588" lon="-3.54798">
        <ele>182.4</ele>
        <time>2025-02-25T14:36:02Z</time>
      </trkpt>
      <trkpt lat="48.09587" lon="-3.54798">
        <ele>182.3</ele>
        <time>2025-02-25T14:36:03Z</time>
      </trkpt>
      <trkpt lat="48.09586" lon="-3.54798">
        <ele>182.2</ele>
        <time>2025-02-25T14:36:04Z</time>
      </trkpt>
      <trkpt lat="48.09585" lon="-3.54797">
        <ele>182.1</ele>
        <time>2025-02-25T14:36:05Z</time>
      </trkpt>
      <trkpt lat="48.09584" lon="-3.54797">
        <ele>182.1</ele>
        <time>2025-02-25T14:36:06Z</time>
      </trkpt>
      <trkpt lat="48.09583" lon="-3.54797">
        <ele>182</ele>
        <time>2025-02-25T14:36:07Z</time>
      </trkpt>
      <trkpt lat="48.09582" lon="-3.54796">
        <ele>182</ele>
        <time>2025-02-25T14:36:08Z</time>
      </trkpt>
      <trkpt lat="48.09581" lon="-3.54795">
        <ele>181.9</ele>
        <time>2025-02-25T14:36:09Z</time>
      </trkpt>
      <trkpt lat="48.0958" lon="-3.54795">
        <ele>181.9</ele>
        <time>2025-02-25T14:36:10Z</time>
      </trkpt>
      <trkpt lat="48.09579" lon="-3.54795">
        <ele>181.9</ele>
        <time>2025-02-25T14:36:11Z</time>
      </trkpt>
      <trkpt lat="48.09578" lon="-3.54794">
        <ele>181.9</ele>
        <time>2025-02-25T14:36:12Z</time>
      </trkpt>
      <trkpt lat="48.09577" lon="-3.54793">
        <ele>181.9</ele>
        <time>2025-02-25T14:36:13Z</time>
      </trkpt>
      <trkpt lat="48.09576" lon="-3.54793">
        <ele>181.9</ele>
        <time>2025-02-25T14:36:14Z</time>
      </trkpt>
      <trkpt lat="48.09575" lon="-3.54793">
        <ele>181.8</ele>
        <time>2025-02-25T14:36:15Z</time>
      </trkpt>
      <trkpt lat="48.09574" lon="-3.54792">
        <ele>181.8</ele>
        <time>2025-02-25T14:36:16Z</time>
      </trkpt>
      <trkpt lat="48.09573" lon="-3.54792">
        <ele>181.8</ele>
        <time>2025-02-25T14:36:17Z</time>
      </trkpt>
      <trkpt lat="48.09572" lon="-3.54791">
        <ele>181.8</ele>
        <time>2025-02-25T14:36:18Z</time>
      </trkpt>
      <trkpt lat="48.0957" lon="-3.54792">
        <ele>181.8</ele>
        <time>2025-02-25T14:36:19Z</time>
      </trkpt>
      <trkpt lat="48.09569" lon="-3.54791">
        <ele>181.8</ele>
        <time>2025-02-25T14:36:20Z</time>
      </trkpt>
      <trkpt lat="48.09568" lon="-3.5479">
        <ele>181.8</ele>
        <time>2025-02-25T14:36:21Z</time>
      </trkpt>
      <trkpt lat="48.09567" lon="-3.5479">
        <ele>181.7</ele>
        <time>2025-02-25T14:36:22Z</time>
      </trkpt>
      <trkpt lat="48.09566" lon="-3.54789">
        <ele>181.7</ele>
        <time>2025-02-25T14:36:23Z</time>
      </trkpt>
      <trkpt lat="48.09565" lon="-3.54789">
        <ele>181.7</ele>
        <time>2025-02-25T14:36:24Z</time>
      </trkpt>
      <trkpt lat="48.09565" lon="-3.54788">
        <ele>181.8</ele>
        <time>2025-02-25T14:36:25Z</time>
      </trkpt>
      <trkpt lat="48.09563" lon="-3.54787">
        <ele>181.8</ele>
        <time>2025-02-25T14:36:26Z</time>
      </trkpt>
      <trkpt lat="48.09562" lon="-3.54787">
        <ele>181.7</ele>
        <time>2025-02-25T14:36:27Z</time>
      </trkpt>
      <trkpt lat="48.09561" lon="-3.54787">
        <ele>181.7</ele>
        <time>2025-02-25T14:36:28Z</time>
      </trkpt>
      <trkpt lat="48.0956" lon="-3.54786">
        <ele>181.8</ele>
        <time>2025-02-25T14:36:29Z</time>
      </trkpt>
      <trkpt lat="48.09559" lon="-3.54785">
        <ele>181.8</ele>
        <time>2025-02-25T14:36:30Z</time>
      </trkpt>
      <trkpt lat="48.09558" lon="-3.54785">
        <ele>181.8</ele>
        <time>2025-02-25T14:36:31Z</time>
      </trkpt>
      <trkpt lat="48.09557" lon="-3.54784">
        <ele>181.8</ele>
        <time>2025-02-25T14:36:32Z</time>
      </trkpt>
      <trkpt lat="48.09556" lon="-3.54784">
        <ele>181.8</ele>
        <time>2025-02-25T14:36:33Z</time>
      </trkpt>
      <trkpt lat="48.09555" lon="-3.54784">
        <ele>181.7</ele>
        <time>2025-02-25T14:36:34Z</time>
      </trkpt>
      <trkpt lat="48.09554" lon="-3.54783">
        <ele>181.7</ele>
        <time>2025-02-25T14:36:35Z</time>
      </trkpt>
      <trkpt lat="48.09553" lon="-3.54783">
        <ele>181.7</ele>
        <time>2025-02-25T14:36:36Z</time>
      </trkpt>
      <trkpt lat="48.09551" lon="-3.54782">
        <ele>181.6</ele>
        <time>2025-02-25T14:36:37Z</time>
      </trkpt>
      <trkpt lat="48.0955" lon="-3.54782">
        <ele>181.6</ele>
        <time>2025-02-25T14:36:38Z</time>
      </trkpt>
      <trkpt lat="48.0955" lon="-3.54782">
        <ele>181.6</ele>
        <time>2025-02-25T14:36:39Z</time>
      </trkpt>
      <trkpt lat="48.09549" lon="-3.54781">
        <ele>181.6</ele>
        <time>2025-02-25T14:36:40Z</time>
      </trkpt>
      <trkpt lat="48.09548" lon="-3.54781">
        <ele>181.5</ele>
        <time>2025-02-25T14:36:41Z</time>
      </trkpt>
      <trkpt lat="48.09547" lon="-3.54781">
        <ele>181.5</ele>
        <time>2025-02-25T14:36:42Z</time>
      </trkpt>
      <trkpt lat="48.09545" lon="-3.5478">
        <ele>181.5</ele>
        <time>2025-02-25T14:36:43Z</time>
      </trkpt>
      <trkpt lat="48.09544" lon="-3.5478">
        <ele>181.4</ele>
        <time>2025-02-25T14:36:44Z</time>
      </trkpt>
      <trkpt lat="48.09543" lon="-3.5478">
        <ele>181.4</ele>
        <time>2025-02-25T14:36:45Z</time>
      </trkpt>
      <trkpt lat="48.09542" lon="-3.5478">
        <ele>181.4</ele>
        <time>2025-02-25T14:36:46Z</time>
      </trkpt>
      <trkpt lat="48.09541" lon="-3.54779">
        <ele>181.4</ele>
        <time>2025-02-25T14:36:47Z</time>
      </trkpt>
      <trkpt lat="48.0954" lon="-3.54778">
        <ele>181.4</ele>
        <time>2025-02-25T14:36:48Z</time>
      </trkpt>
      <trkpt lat="48.09539" lon="-3.54778">
        <ele>181.4</ele>
        <time>2025-02-25T14:36:49Z</time>
      </trkpt>
      <trkpt lat="48.09537" lon="-3.54777">
        <ele>181.4</ele>
        <time>2025-02-25T14:36:50Z</time>
      </trkpt>
      <trkpt lat="48.09536" lon="-3.54777">
        <ele>181.3</ele>
        <time>2025-02-25T14:36:51Z</time>
      </trkpt>
      <trkpt lat="48.09535" lon="-3.54777">
        <ele>181.3</ele>
        <time>2025-02-25T14:36:52Z</time>
      </trkpt>
      <trkpt lat="48.09534" lon="-3.54776">
        <ele>181.3</ele>
        <time>2025-02-25T14:36:53Z</time>
      </trkpt>
      <trkpt lat="48.09533" lon="-3.54775">
        <ele>181.3</ele>
        <time>2025-02-25T14:36:54Z</time>
      </trkpt>
      <trkpt lat="48.09532" lon="-3.54775">
        <ele>181.3</ele>
        <time>2025-02-25T14:36:55Z</time>
      </trkpt>
      <trkpt lat="48.09531" lon="-3.54775">
        <ele>181.2</ele>
        <time>2025-02-25T14:36:56Z</time>
      </trkpt>
      <trkpt lat="48.09529" lon="-3.54774">
        <ele>181.2</ele>
        <time>2025-02-25T14:36:57Z</time>
      </trkpt>
      <trkpt lat="48.09528" lon="-3.54773">
        <ele>181.2</ele>
        <time>2025-02-25T14:36:58Z</time>
      </trkpt>
      <trkpt lat="48.09527" lon="-3.54773">
        <ele>181.1</ele>
        <time>2025-02-25T14:36:59Z</time>
      </trkpt>
      <trkpt lat="48.09526" lon="-3.54772">
        <ele>181</ele>
        <time>2025-02-25T14:37:00Z</time>
      </trkpt>
      <trkpt lat="48.09525" lon="-3.54771">
        <ele>180.9</ele>
        <time>2025-02-25T14:37:01Z</time>
      </trkpt>
      <trkpt lat="48.09524" lon="-3.54771">
        <ele>180.8</ele>
        <time>2025-02-25T14:37:02Z</time>
      </trkpt>
      <trkpt lat="48.09523" lon="-3.5477">
        <ele>180.8</ele>
        <time>2025-02-25T14:37:03Z</time>
      </trkpt>
      <trkpt lat="48.09521" lon="-3.54769">
        <ele>180.6</ele>
        <time>2025-02-25T14:37:04Z</time>
      </trkpt>
      <trkpt lat="48.0952" lon="-3.54768">
        <ele>180.5</ele>
        <time>2025-02-25T14:37:05Z</time>
      </trkpt>
      <trkpt lat="48.09519" lon="-3.54768">
        <ele>180.4</ele>
        <time>2025-02-25T14:37:06Z</time>
      </trkpt>
      <trkpt lat="48.09518" lon="-3.54768">
        <ele>180.3</ele>
        <time>2025-02-25T14:37:07Z</time>
      </trkpt>
      <trkpt lat="48.09516" lon="-3.54767">
        <ele>180.1</ele>
        <time>2025-02-25T14:37:08Z</time>
      </trkpt>
      <trkpt lat="48.09515" lon="-3.54766">
        <ele>180</ele>
        <time>2025-02-25T14:37:09Z</time>
      </trkpt>
      <trkpt lat="48.09514" lon="-3.54765">
        <ele>180</ele>
        <time>2025-02-25T14:37:10Z</time>
      </trkpt>
      <trkpt lat="48.09513" lon="-3.54764">
        <ele>179.9</ele>
        <time>2025-02-25T14:37:11Z</time>
      </trkpt>
      <trkpt lat="48.09512" lon="-3.54764">
        <ele>179.8</ele>
        <time>2025-02-25T14:37:12Z</time>
      </trkpt>
      <trkpt lat="48.09511" lon="-3.54762">
        <ele>179.8</ele>
        <time>2025-02-25T14:37:13Z</time>
      </trkpt>
      <trkpt lat="48.0951" lon="-3.54762">
        <ele>179.6</ele>
        <time>2025-02-25T14:37:14Z</time>
      </trkpt>
      <trkpt lat="48.09509" lon="-3.54762">
        <ele>179.5</ele>
        <time>2025-02-25T14:37:15Z</time>
      </trkpt>
      <trkpt lat="48.09508" lon="-3.54761">
        <ele>179.5</ele>
        <time>2025-02-25T14:37:16Z</time>
      </trkpt>
      <trkpt lat="48.09507" lon="-3.5476">
        <ele>179.4</ele>
        <time>2025-02-25T14:37:17Z</time>
      </trkpt>
      <trkpt lat="48.09506" lon="-3.54759">
        <ele>179.3</ele>
        <time>2025-02-25T14:37:18Z</time>
      </trkpt>
      <trkpt lat="48.09505" lon="-3.54758">
        <ele>179.3</ele>
        <time>2025-02-25T14:37:19Z</time>
      </trkpt>
      <trkpt lat="48.09504" lon="-3.54757">
        <ele>179.2</ele>
        <time>2025-02-25T14:37:20Z</time>
      </trkpt>
      <trkpt lat="48.09503" lon="-3.54756">
        <ele>179.1</ele>
        <time>2025-02-25T14:37:21Z</time>
      </trkpt>
      <trkpt lat="48.09502" lon="-3.54755">
        <ele>179</ele>
        <time>2025-02-25T14:37:22Z</time>
      </trkpt>
      <trkpt lat="48.09501" lon="-3.54754">
        <ele>179</ele>
        <time>2025-02-25T14:37:23Z</time>
      </trkpt>
      <trkpt lat="48.095" lon="-3.54753">
        <ele>178.9</ele>
        <time>2025-02-25T14:37:24Z</time>
      </trkpt>
      <trkpt lat="48.09499" lon="-3.54752">
        <ele>178.8</ele>
        <time>2025-02-25T14:37:25Z</time>
      </trkpt>
      <trkpt lat="48.09498" lon="-3.54751">
        <ele>178.8</ele>
        <time>2025-02-25T14:37:26Z</time>
      </trkpt>
      <trkpt lat="48.09496" lon="-3.5475">
        <ele>178.6</ele>
        <time>2025-02-25T14:37:27Z</time>
      </trkpt>
      <trkpt lat="48.09495" lon="-3.54749">
        <ele>178.5</ele>
        <time>2025-02-25T14:37:28Z</time>
      </trkpt>
      <trkpt lat="48.09493" lon="-3.54748">
        <ele>178.2</ele>
        <time>2025-02-25T14:37:29Z</time>
      </trkpt>
      <trkpt lat="48.09492" lon="-3.54747">
        <ele>178.1</ele>
        <time>2025-02-25T14:37:30Z</time>
      </trkpt>
      <trkpt lat="48.09491" lon="-3.54747">
        <ele>178</ele>
        <time>2025-02-25T14:37:31Z</time>
      </trkpt>
      <trkpt lat="48.0949" lon="-3.54746">
        <ele>177.9</ele>
        <time>2025-02-25T14:37:32Z</time>
      </trkpt>
      <trkpt lat="48.09488" lon="-3.54746">
        <ele>177.7</ele>
        <time>2025-02-25T14:37:33Z</time>
      </trkpt>
      <trkpt lat="48.09487" lon="-3.54746">
        <ele>177.6</ele>
        <time>2025-02-25T14:37:34Z</time>
      </trkpt>
      <trkpt lat="48.09486" lon="-3.54746">
        <ele>177.5</ele>
        <time>2025-02-25T14:37:35Z</time>
      </trkpt>
      <trkpt lat="48.09485" lon="-3.54746">
        <ele>177.4</ele>
        <time>2025-02-25T14:37:36Z</time>
      </trkpt>
      <trkpt lat="48.09484" lon="-3.54745">
        <ele>177.3</ele>
        <time>2025-02-25T14:37:37Z</time>
      </trkpt>
      <trkpt lat="48.09482" lon="-3.54745">
        <ele>177.1</ele>
        <time>2025-02-25T14:37:38Z</time>
      </trkpt>
      <trkpt lat="48.09481" lon="-3.54744">
        <ele>176.9</ele>
        <time>2025-02-25T14:37:39Z</time>
      </trkpt>
      <trkpt lat="48.0948" lon="-3.54744">
        <ele>176.8</ele>
        <time>2025-02-25T14:37:40Z</time>
      </trkpt>
      <trkpt lat="48.09479" lon="-3.54744">
        <ele>176.7</ele>
        <time>2025-02-25T14:37:41Z</time>
      </trkpt>
      <trkpt lat="48.09478" lon="-3.54744">
        <ele>176.6</ele>
        <time>2025-02-25T14:37:42Z</time>
      </trkpt>
      <trkpt lat="48.09477" lon="-3.54743">
        <ele>176.5</ele>
        <time>2025-02-25T14:37:43Z</time>
      </trkpt>
      <trkpt lat="48.09475" lon="-3.54743">
        <ele>176.3</ele>
        <time>2025-02-25T14:37:44Z</time>
      </trkpt>
      <trkpt lat="48.09474" lon="-3.54743">
        <ele>176.2</ele>
        <time>2025-02-25T14:37:45Z</time>
      </trkpt>
      <trkpt lat="48.09473" lon="-3.54743">
        <ele>176.1</ele>
        <time>2025-02-25T14:37:46Z</time>
      </trkpt>
      <trkpt lat="48.09472" lon="-3.54742">
        <ele>176</ele>
        <time>2025-02-25T14:37:47Z</time>
      </trkpt>
      <trkpt lat="48.09471" lon="-3.54742">
        <ele>175.9</ele>
        <time>2025-02-25T14:37:48Z</time>
      </trkpt>
      <trkpt lat="48.09469" lon="-3.54742">
        <ele>175.8</ele>
        <time>2025-02-25T14:37:49Z</time>
      </trkpt>
      <trkpt lat="48.09468" lon="-3.54742">
        <ele>175.7</ele>
        <time>2025-02-25T14:37:50Z</time>
      </trkpt>
      <trkpt lat="48.09467" lon="-3.54742">
        <ele>175.6</ele>
        <time>2025-02-25T14:37:51Z</time>
      </trkpt>
      <trkpt lat="48.09466" lon="-3.54742">
        <ele>175.6</ele>
        <time>2025-02-25T14:37:52Z</time>
      </trkpt>
      <trkpt lat="48.09465" lon="-3.54742">
        <ele>175.5</ele>
        <time>2025-02-25T14:37:53Z</time>
      </trkpt>
      <trkpt lat="48.09464" lon="-3.54741">
        <ele>175.4</ele>
        <time>2025-02-25T14:37:54Z</time>
      </trkpt>
      <trkpt lat="48.09463" lon="-3.54741">
        <ele>175.3</ele>
        <time>2025-02-25T14:37:55Z</time>
      </trkpt>
      <trkpt lat="48.09462" lon="-3.54741">
        <ele>175.3</ele>
        <time>2025-02-25T14:37:56Z</time>
      </trkpt>
      <trkpt lat="48.09461" lon="-3.54741">
        <ele>175.2</ele>
        <time>2025-02-25T14:37:57Z</time>
      </trkpt>
      <trkpt lat="48.09459" lon="-3.54741">
        <ele>175</ele>
        <time>2025-02-25T14:37:58Z</time>
      </trkpt>
      <trkpt lat="48.09458" lon="-3.54741">
        <ele>175</ele>
        <time>2025-02-25T14:37:59Z</time>
      </trkpt>
      <trkpt lat="48.09457" lon="-3.54741">
        <ele>174.9</ele>
        <time>2025-02-25T14:38:00Z</time>
      </trkpt>
      <trkpt lat="48.09456" lon="-3.5474">
        <ele>174.8</ele>
        <time>2025-02-25T14:38:01Z</time>
      </trkpt>
      <trkpt lat="48.09455" lon="-3.5474">
        <ele>174.8</ele>
        <time>2025-02-25T14:38:02Z</time>
      </trkpt>
      <trkpt lat="48.09454" lon="-3.5474">
        <ele>174.7</ele>
        <time>2025-02-25T14:38:03Z</time>
      </trkpt>
      <trkpt lat="48.09452" lon="-3.5474">
        <ele>174.5</ele>
        <time>2025-02-25T14:38:04Z</time>
      </trkpt>
      <trkpt lat="48.09451" lon="-3.54739">
        <ele>174.5</ele>
        <time>2025-02-25T14:38:05Z</time>
      </trkpt>
      <trkpt lat="48.0945" lon="-3.54739">
        <ele>174.4</ele>
        <time>2025-02-25T14:38:06Z</time>
      </trkpt>
      <trkpt lat="48.09449" lon="-3.54738">
        <ele>174.3</ele>
        <time>2025-02-25T14:38:07Z</time>
      </trkpt>
      <trkpt lat="48.09448" lon="-3.54738">
        <ele>174.3</ele>
        <time>2025-02-25T14:38:08Z</time>
      </trkpt>
      <trkpt lat="48.09447" lon="-3.54739">
        <ele>174.2</ele>
        <time>2025-02-25T14:38:09Z</time>
      </trkpt>
      <trkpt lat="48.09445" lon="-3.54739">
        <ele>174</ele>
        <time>2025-02-25T14:38:10Z</time>
      </trkpt>
      <trkpt lat="48.09444" lon="-3.54739">
        <ele>174</ele>
        <time>2025-02-25T14:38:11Z</time>
      </trkpt>
      <trkpt lat="48.09443" lon="-3.54739">
        <ele>173.9</ele>
        <time>2025-02-25T14:38:12Z</time>
      </trkpt>
      <trkpt lat="48.09442" lon="-3.54739">
        <ele>173.8</ele>
        <time>2025-02-25T14:38:13Z</time>
      </trkpt>
      <trkpt lat="48.09441" lon="-3.54738">
        <ele>173.8</ele>
        <time>2025-02-25T14:38:14Z</time>
      </trkpt>
      <trkpt lat="48.09439" lon="-3.54737">
        <ele>173.6</ele>
        <time>2025-02-25T14:38:15Z</time>
      </trkpt>
      <trkpt lat="48.09438" lon="-3.54737">
        <ele>173.5</ele>
        <time>2025-02-25T14:38:16Z</time>
      </trkpt>
      <trkpt lat="48.09437" lon="-3.54737">
        <ele>173.5</ele>
        <time>2025-02-25T14:38:17Z</time>
      </trkpt>
      <trkpt lat="48.09435" lon="-3.54737">
        <ele>173.3</ele>
        <time>2025-02-25T14:38:18Z</time>
      </trkpt>
      <trkpt lat="48.09434" lon="-3.54737">
        <ele>173.2</ele>
        <time>2025-02-25T14:38:19Z</time>
      </trkpt>
      <trkpt lat="48.09433" lon="-3.54736">
        <ele>173.2</ele>
        <time>2025-02-25T14:38:20Z</time>
      </trkpt>
      <trkpt lat="48.09432" lon="-3.54735">
        <ele>173.1</ele>
        <time>2025-02-25T14:38:21Z</time>
      </trkpt>
      <trkpt lat="48.0943" lon="-3.54735">
        <ele>173</ele>
        <time>2025-02-25T14:38:22Z</time>
      </trkpt>
      <trkpt lat="48.09429" lon="-3.54734">
        <ele>172.9</ele>
        <time>2025-02-25T14:38:23Z</time>
      </trkpt>
      <trkpt lat="48.09428" lon="-3.54735">
        <ele>172.8</ele>
        <time>2025-02-25T14:38:24Z</time>
      </trkpt>
      <trkpt lat="48.09427" lon="-3.54735">
        <ele>172.7</ele>
        <time>2025-02-25T14:38:25Z</time>
      </trkpt>
      <trkpt lat="48.09426" lon="-3.54735">
        <ele>172.7</ele>
        <time>2025-02-25T14:38:26Z</time>
      </trkpt>
      <trkpt lat="48.09425" lon="-3.54735">
        <ele>172.6</ele>
        <time>2025-02-25T14:38:27Z</time>
      </trkpt>
      <trkpt lat="48.09424" lon="-3.54734">
        <ele>172.5</ele>
        <time>2025-02-25T14:38:28Z</time>
      </trkpt>
      <trkpt lat="48.09422" lon="-3.54735">
        <ele>172.4</ele>
        <time>2025-02-25T14:38:29Z</time>
      </trkpt>
      <trkpt lat="48.09421" lon="-3.54734">
        <ele>172.3</ele>
        <time>2025-02-25T14:38:30Z</time>
      </trkpt>
      <trkpt lat="48.0942" lon="-3.54734">
        <ele>172.2</ele>
        <time>2025-02-25T14:38:31Z</time>
      </trkpt>
      <trkpt lat="48.09419" lon="-3.54733">
        <ele>172.2</ele>
        <time>2025-02-25T14:38:32Z</time>
      </trkpt>
      <trkpt lat="48.09418" lon="-3.54733">
        <ele>172.1</ele>
        <time>2025-02-25T14:38:33Z</time>
      </trkpt>
      <trkpt lat="48.09417" lon="-3.54733">
        <ele>172</ele>
        <time>2025-02-25T14:38:34Z</time>
      </trkpt>
      <trkpt lat="48.09416" lon="-3.54733">
        <ele>171.9</ele>
        <time>2025-02-25T14:38:35Z</time>
      </trkpt>
      <trkpt lat="48.09415" lon="-3.54733">
        <ele>171.8</ele>
        <time>2025-02-25T14:38:36Z</time>
      </trkpt>
      <trkpt lat="48.09414" lon="-3.54732">
        <ele>171.7</ele>
        <time>2025-02-25T14:38:37Z</time>
      </trkpt>
      <trkpt lat="48.09412" lon="-3.54732">
        <ele>171.5</ele>
        <time>2025-02-25T14:38:38Z</time>
      </trkpt>
      <trkpt lat="48.09411" lon="-3.54732">
        <ele>171.4</ele>
        <time>2025-02-25T14:38:39Z</time>
      </trkpt>
      <trkpt lat="48.0941" lon="-3.54732">
        <ele>171.3</ele>
        <time>2025-02-25T14:38:40Z</time>
      </trkpt>
      <trkpt lat="48.09409" lon="-3.54732">
        <ele>171.2</ele>
        <time>2025-02-25T14:38:41Z</time>
      </trkpt>
      <trkpt lat="48.09408" lon="-3.54731">
        <ele>171.1</ele>
        <time>2025-02-25T14:38:42Z</time>
      </trkpt>
      <trkpt lat="48.09407" lon="-3.54731">
        <ele>171</ele>
        <time>2025-02-25T14:38:43Z</time>
      </trkpt>
      <trkpt lat="48.09406" lon="-3.54731">
        <ele>170.8</ele>
        <time>2025-02-25T14:38:44Z</time>
      </trkpt>
      <trkpt lat="48.09404" lon="-3.54732">
        <ele>170.6</ele>
        <time>2025-02-25T14:38:45Z</time>
      </trkpt>
      <trkpt lat="48.09403" lon="-3.54732">
        <ele>170.5</ele>
        <time>2025-02-25T14:38:46Z</time>
      </trkpt>
      <trkpt lat="48.09402" lon="-3.54731">
        <ele>170.4</ele>
        <time>2025-02-25T14:38:47Z</time>
      </trkpt>
      <trkpt lat="48.09401" lon="-3.54732">
        <ele>170.3</ele>
        <time>2025-02-25T14:38:48Z</time>
      </trkpt>
      <trkpt lat="48.094" lon="-3.54732">
        <ele>170.2</ele>
        <time>2025-02-25T14:38:49Z</time>
      </trkpt>
      <trkpt lat="48.09399" lon="-3.54732">
        <ele>170.1</ele>
        <time>2025-02-25T14:38:50Z</time>
      </trkpt>
      <trkpt lat="48.09398" lon="-3.54731">
        <ele>170</ele>
        <time>2025-02-25T14:38:51Z</time>
      </trkpt>
      <trkpt lat="48.09396" lon="-3.5473">
        <ele>169.8</ele>
        <time>2025-02-25T14:38:52Z</time>
      </trkpt>
      <trkpt lat="48.09395" lon="-3.5473">
        <ele>169.7</ele>
        <time>2025-02-25T14:38:53Z</time>
      </trkpt>
      <trkpt lat="48.09394" lon="-3.54729">
        <ele>169.6</ele>
        <time>2025-02-25T14:38:54Z</time>
      </trkpt>
      <trkpt lat="48.09393" lon="-3.54729">
        <ele>169.4</ele>
        <time>2025-02-25T14:38:55Z</time>
      </trkpt>
      <trkpt lat="48.09392" lon="-3.54729">
        <ele>169.3</ele>
        <time>2025-02-25T14:38:56Z</time>
      </trkpt>
      <trkpt lat="48.09391" lon="-3.54728">
        <ele>169.2</ele>
        <time>2025-02-25T14:38:57Z</time>
      </trkpt>
      <trkpt lat="48.0939" lon="-3.54728">
        <ele>169.1</ele>
        <time>2025-02-25T14:38:58Z</time>
      </trkpt>
      <trkpt lat="48.09389" lon="-3.54728">
        <ele>169</ele>
        <time>2025-02-25T14:38:59Z</time>
      </trkpt>
      <trkpt lat="48.09388" lon="-3.54728">
        <ele>168.9</ele>
        <time>2025-02-25T14:39:00Z</time>
      </trkpt>
      <trkpt lat="48.09387" lon="-3.54728">
        <ele>168.8</ele>
        <time>2025-02-25T14:39:01Z</time>
      </trkpt>
      <trkpt lat="48.09386" lon="-3.54728">
        <ele>168.7</ele>
        <time>2025-02-25T14:39:02Z</time>
      </trkpt>
      <trkpt lat="48.09385" lon="-3.54728">
        <ele>168.6</ele>
        <time>2025-02-25T14:39:03Z</time>
      </trkpt>
      <trkpt lat="48.09384" lon="-3.54727">
        <ele>168.5</ele>
        <time>2025-02-25T14:39:04Z</time>
      </trkpt>
      <trkpt lat="48.09383" lon="-3.54727">
        <ele>168.4</ele>
        <time>2025-02-25T14:39:05Z</time>
      </trkpt>
      <trkpt lat="48.09382" lon="-3.54726">
        <ele>168.3</ele>
        <time>2025-02-25T14:39:06Z</time>
      </trkpt>
      <trkpt lat="48.09381" lon="-3.54726">
        <ele>168.1</ele>
        <time>2025-02-25T14:39:07Z</time>
      </trkpt>
      <trkpt lat="48.0938" lon="-3.54726">
        <ele>168</ele>
        <time>2025-02-25T14:39:08Z</time>
      </trkpt>
      <trkpt lat="48.09379" lon="-3.54725">
        <ele>167.9</ele>
        <time>2025-02-25T14:39:09Z</time>
      </trkpt>
      <trkpt lat="48.09378" lon="-3.54725">
        <ele>167.8</ele>
        <time>2025-02-25T14:39:10Z</time>
      </trkpt>
      <trkpt lat="48.09376" lon="-3.54725">
        <ele>167.6</ele>
        <time>2025-02-25T14:39:11Z</time>
      </trkpt>
      <trkpt lat="48.09375" lon="-3.54725">
        <ele>167.5</ele>
        <time>2025-02-25T14:39:12Z</time>
      </trkpt>
      <trkpt lat="48.09374" lon="-3.54724">
        <ele>167.4</ele>
        <time>2025-02-25T14:39:13Z</time>
      </trkpt>
      <trkpt lat="48.09373" lon="-3.54723">
        <ele>167.3</ele>
        <time>2025-02-25T14:39:14Z</time>
      </trkpt>
      <trkpt lat="48.09371" lon="-3.54723">
        <ele>167.1</ele>
        <time>2025-02-25T14:39:15Z</time>
      </trkpt>
      <trkpt lat="48.0937" lon="-3.54722">
        <ele>167</ele>
        <time>2025-02-25T14:39:16Z</time>
      </trkpt>
      <trkpt lat="48.09369" lon="-3.54722">
        <ele>166.8</ele>
        <time>2025-02-25T14:39:17Z</time>
      </trkpt>
      <trkpt lat="48.09368" lon="-3.54721">
        <ele>166.7</ele>
        <time>2025-02-25T14:39:18Z</time>
      </trkpt>
      <trkpt lat="48.09367" lon="-3.54721">
        <ele>166.6</ele>
        <time>2025-02-25T14:39:19Z</time>
      </trkpt>
      <trkpt lat="48.09366" lon="-3.5472">
        <ele>166.5</ele>
        <time>2025-02-25T14:39:20Z</time>
      </trkpt>
      <trkpt lat="48.09365" lon="-3.5472">
        <ele>166.4</ele>
        <time>2025-02-25T14:39:21Z</time>
      </trkpt>
      <trkpt lat="48.09363" lon="-3.5472">
        <ele>166.2</ele>
        <time>2025-02-25T14:39:22Z</time>
      </trkpt>
      <trkpt lat="48.09362" lon="-3.5472">
        <ele>166.1</ele>
        <time>2025-02-25T14:39:23Z</time>
      </trkpt>
      <trkpt lat="48.09361" lon="-3.54719">
        <ele>166</ele>
        <time>2025-02-25T14:39:24Z</time>
      </trkpt>
      <trkpt lat="48.0936" lon="-3.54719">
        <ele>165.9</ele>
        <time>2025-02-25T14:39:25Z</time>
      </trkpt>
      <trkpt lat="48.09359" lon="-3.54719">
        <ele>165.8</ele>
        <time>2025-02-25T14:39:26Z</time>
      </trkpt>
      <trkpt lat="48.09357" lon="-3.5472">
        <ele>165.6</ele>
        <time>2025-02-25T14:39:27Z</time>
      </trkpt>
      <trkpt lat="48.09356" lon="-3.5472">
        <ele>165.4</ele>
        <time>2025-02-25T14:39:28Z</time>
      </trkpt>
      <trkpt lat="48.09355" lon="-3.5472">
        <ele>165.3</ele>
        <time>2025-02-25T14:39:29Z</time>
      </trkpt>
      <trkpt lat="48.09354" lon="-3.5472">
        <ele>165.2</ele>
        <time>2025-02-25T14:39:30Z</time>
      </trkpt>
      <trkpt lat="48.09353" lon="-3.5472">
        <ele>165.1</ele>
        <time>2025-02-25T14:39:31Z</time>
      </trkpt>
      <trkpt lat="48.09351" lon="-3.5472">
        <ele>164.9</ele>
        <time>2025-02-25T14:39:32Z</time>
      </trkpt>
      <trkpt lat="48.0935" lon="-3.54721">
        <ele>164.8</ele>
        <time>2025-02-25T14:39:33Z</time>
      </trkpt>
      <trkpt lat="48.09349" lon="-3.54721">
        <ele>164.7</ele>
        <time>2025-02-25T14:39:34Z</time>
      </trkpt>
      <trkpt lat="48.09348" lon="-3.5472">
        <ele>164.6</ele>
        <time>2025-02-25T14:39:35Z</time>
      </trkpt>
      <trkpt lat="48.09347" lon="-3.5472">
        <ele>164.5</ele>
        <time>2025-02-25T14:39:36Z</time>
      </trkpt>
      <trkpt lat="48.09345" lon="-3.54721">
        <ele>164.3</ele>
        <time>2025-02-25T14:39:37Z</time>
      </trkpt>
      <trkpt lat="48.09344" lon="-3.5472">
        <ele>164.2</ele>
        <time>2025-02-25T14:39:38Z</time>
      </trkpt>
      <trkpt lat="48.09342" lon="-3.54721">
        <ele>163.9</ele>
        <time>2025-02-25T14:39:39Z</time>
      </trkpt>
      <trkpt lat="48.09341" lon="-3.5472">
        <ele>163.8</ele>
        <time>2025-02-25T14:39:40Z</time>
      </trkpt>
      <trkpt lat="48.0934" lon="-3.5472">
        <ele>163.7</ele>
        <time>2025-02-25T14:39:41Z</time>
      </trkpt>
      <trkpt lat="48.09339" lon="-3.54719">
        <ele>163.6</ele>
        <time>2025-02-25T14:39:42Z</time>
      </trkpt>
      <trkpt lat="48.09338" lon="-3.5472">
        <ele>163.5</ele>
        <time>2025-02-25T14:39:43Z</time>
      </trkpt>
      <trkpt lat="48.09337" lon="-3.5472">
        <ele>163.4</ele>
        <time>2025-02-25T14:39:44Z</time>
      </trkpt>
      <trkpt lat="48.09335" lon="-3.54721">
        <ele>163.2</ele>
        <time>2025-02-25T14:39:45Z</time>
      </trkpt>
      <trkpt lat="48.09334" lon="-3.54721">
        <ele>163.1</ele>
        <time>2025-02-25T14:39:46Z</time>
      </trkpt>
      <trkpt lat="48.09333" lon="-3.54721">
        <ele>163</ele>
        <time>2025-02-25T14:39:47Z</time>
      </trkpt>
      <trkpt lat="48.09332" lon="-3.54721">
        <ele>162.9</ele>
        <time>2025-02-25T14:39:48Z</time>
      </trkpt>
      <trkpt lat="48.09331" lon="-3.54721">
        <ele>162.8</ele>
        <time>2025-02-25T14:39:49Z</time>
      </trkpt>
      <trkpt lat="48.0933" lon="-3.54722">
        <ele>162.8</ele>
        <time>2025-02-25T14:39:50Z</time>
      </trkpt>
      <trkpt lat="48.09329" lon="-3.54722">
        <ele>162.7</ele>
        <time>2025-02-25T14:39:51Z</time>
      </trkpt>
      <trkpt lat="48.09328" lon="-3.54722">
        <ele>162.6</ele>
        <time>2025-02-25T14:39:52Z</time>
      </trkpt>
      <trkpt lat="48.09326" lon="-3.54722">
        <ele>162.5</ele>
        <time>2025-02-25T14:39:53Z</time>
      </trkpt>
      <trkpt lat="48.09325" lon="-3.54722">
        <ele>162.4</ele>
        <time>2025-02-25T14:39:54Z</time>
      </trkpt>
      <trkpt lat="48.09324" lon="-3.54722">
        <ele>162.3</ele>
        <time>2025-02-25T14:39:55Z</time>
      </trkpt>
      <trkpt lat="48.09323" lon="-3.54722">
        <ele>162.3</ele>
        <time>2025-02-25T14:39:56Z</time>
      </trkpt>
      <trkpt lat="48.09322" lon="-3.54723">
        <ele>162.2</ele>
        <time>2025-02-25T14:39:57Z</time>
      </trkpt>
      <trkpt lat="48.0932" lon="-3.54723">
        <ele>162</ele>
        <time>2025-02-25T14:39:58Z</time>
      </trkpt>
      <trkpt lat="48.09319" lon="-3.54722">
        <ele>162</ele>
        <time>2025-02-25T14:39:59Z</time>
      </trkpt>
      <trkpt lat="48.09318" lon="-3.54722">
        <ele>161.9</ele>
        <time>2025-02-25T14:40:00Z</time>
      </trkpt>
      <trkpt lat="48.09317" lon="-3.54721">
        <ele>161.8</ele>
        <time>2025-02-25T14:40:01Z</time>
      </trkpt>
      <trkpt lat="48.09316" lon="-3.54721">
        <ele>161.7</ele>
        <time>2025-02-25T14:40:02Z</time>
      </trkpt>
      <trkpt lat="48.09315" lon="-3.54721">
        <ele>161.7</ele>
        <time>2025-02-25T14:40:03Z</time>
      </trkpt>
      <trkpt lat="48.09314" lon="-3.54721">
        <ele>161.6</ele>
        <time>2025-02-25T14:40:04Z</time>
      </trkpt>
      <trkpt lat="48.09313" lon="-3.54721">
        <ele>161.5</ele>
        <time>2025-02-25T14:40:05Z</time>
      </trkpt>
      <trkpt lat="48.09312" lon="-3.54722">
        <ele>161.5</ele>
        <time>2025-02-25T14:40:06Z</time>
      </trkpt>
      <trkpt lat="48.09311" lon="-3.54722">
        <ele>161.4</ele>
        <time>2025-02-25T14:40:07Z</time>
      </trkpt>
      <trkpt lat="48.0931" lon="-3.54722">
        <ele>161.3</ele>
        <time>2025-02-25T14:40:08Z</time>
      </trkpt>
      <trkpt lat="48.09309" lon="-3.54722">
        <ele>161.2</ele>
        <time>2025-02-25T14:40:09Z</time>
      </trkpt>
      <trkpt lat="48.09308" lon="-3.54721">
        <ele>161.1</ele>
        <time>2025-02-25T14:40:10Z</time>
      </trkpt>
      <trkpt lat="48.09307" lon="-3.54721">
        <ele>161.1</ele>
        <time>2025-02-25T14:40:11Z</time>
      </trkpt>
      <trkpt lat="48.09305" lon="-3.54721">
        <ele>160.9</ele>
        <time>2025-02-25T14:40:12Z</time>
      </trkpt>
      <trkpt lat="48.09304" lon="-3.54721">
        <ele>160.8</ele>
        <time>2025-02-25T14:40:13Z</time>
      </trkpt>
      <trkpt lat="48.09303" lon="-3.54721">
        <ele>160.7</ele>
        <time>2025-02-25T14:40:14Z</time>
      </trkpt>
      <trkpt lat="48.09302" lon="-3.5472">
        <ele>160.5</ele>
        <time>2025-02-25T14:40:15Z</time>
      </trkpt>
      <trkpt lat="48.09301" lon="-3.5472">
        <ele>160.4</ele>
        <time>2025-02-25T14:40:16Z</time>
      </trkpt>
      <trkpt lat="48.093" lon="-3.54721">
        <ele>160.4</ele>
        <time>2025-02-25T14:40:17Z</time>
      </trkpt>
      <trkpt lat="48.09299" lon="-3.54721">
        <ele>160.2</ele>
        <time>2025-02-25T14:40:18Z</time>
      </trkpt>
      <trkpt lat="48.09298" lon="-3.54722">
        <ele>160.2</ele>
        <time>2025-02-25T14:40:19Z</time>
      </trkpt>
      <trkpt lat="48.09296" lon="-3.54722">
        <ele>160</ele>
        <time>2025-02-25T14:40:20Z</time>
      </trkpt>
      <trkpt lat="48.09295" lon="-3.54722">
        <ele>159.9</ele>
        <time>2025-02-25T14:40:21Z</time>
      </trkpt>
      <trkpt lat="48.09294" lon="-3.54722">
        <ele>159.7</ele>
        <time>2025-02-25T14:40:22Z</time>
      </trkpt>
      <trkpt lat="48.09293" lon="-3.54723">
        <ele>159.6</ele>
        <time>2025-02-25T14:40:23Z</time>
      </trkpt>
      <trkpt lat="48.09292" lon="-3.54723">
        <ele>159.5</ele>
        <time>2025-02-25T14:40:24Z</time>
      </trkpt>
      <trkpt lat="48.09291" lon="-3.54723">
        <ele>159.4</ele>
        <time>2025-02-25T14:40:25Z</time>
      </trkpt>
      <trkpt lat="48.0929" lon="-3.54723">
        <ele>159.3</ele>
        <time>2025-02-25T14:40:26Z</time>
      </trkpt>
      <trkpt lat="48.09288" lon="-3.54724">
        <ele>159.1</ele>
        <time>2025-02-25T14:40:27Z</time>
      </trkpt>
      <trkpt lat="48.09287" lon="-3.54724">
        <ele>159</ele>
        <time>2025-02-25T14:40:28Z</time>
      </trkpt>
      <trkpt lat="48.09286" lon="-3.54724">
        <ele>158.9</ele>
        <time>2025-02-25T14:40:29Z</time>
      </trkpt>
      <trkpt lat="48.09285" lon="-3.54724">
        <ele>158.8</ele>
        <time>2025-02-25T14:40:30Z</time>
      </trkpt>
      <trkpt lat="48.09284" lon="-3.54724">
        <ele>158.7</ele>
        <time>2025-02-25T14:40:31Z</time>
      </trkpt>
      <trkpt lat="48.09283" lon="-3.54724">
        <ele>158.6</ele>
        <time>2025-02-25T14:40:32Z</time>
      </trkpt>
      <trkpt lat="48.09282" lon="-3.54724">
        <ele>158.4</ele>
        <time>2025-02-25T14:40:33Z</time>
      </trkpt>
      <trkpt lat="48.09281" lon="-3.54723">
        <ele>158.3</ele>
        <time>2025-02-25T14:40:34Z</time>
      </trkpt>
      <trkpt lat="48.0928" lon="-3.54724">
        <ele>158.2</ele>
        <time>2025-02-25T14:40:35Z</time>
      </trkpt>
      <trkpt lat="48.09278" lon="-3.54723">
        <ele>158</ele>
        <time>2025-02-25T14:40:36Z</time>
      </trkpt>
      <trkpt lat="48.09277" lon="-3.54723">
        <ele>157.9</ele>
        <time>2025-02-25T14:40:37Z</time>
      </trkpt>
      <trkpt lat="48.09276" lon="-3.54722">
        <ele>157.9</ele>
        <time>2025-02-25T14:40:38Z</time>
      </trkpt>
      <trkpt lat="48.09275" lon="-3.54721">
        <ele>157.8</ele>
        <time>2025-02-25T14:40:39Z</time>
      </trkpt>
      <trkpt lat="48.09274" lon="-3.54719">
        <ele>157.6</ele>
        <time>2025-02-25T14:40:40Z</time>
      </trkpt>
      <trkpt lat="48.09273" lon="-3.54719">
        <ele>157.5</ele>
        <time>2025-02-25T14:40:41Z</time>
      </trkpt>
      <trkpt lat="48.09272" lon="-3.54719">
        <ele>157.5</ele>
        <time>2025-02-25T14:40:42Z</time>
      </trkpt>
      <trkpt lat="48.0927" lon="-3.5472">
        <ele>157.4</ele>
        <time>2025-02-25T14:40:43Z</time>
      </trkpt>
      <trkpt lat="48.09269" lon="-3.5472">
        <ele>157.3</ele>
        <time>2025-02-25T14:40:44Z</time>
      </trkpt>
      <trkpt lat="48.09268" lon="-3.54721">
        <ele>157.3</ele>
        <time>2025-02-25T14:40:45Z</time>
      </trkpt>
      <trkpt lat="48.09267" lon="-3.5472">
        <ele>157.1</ele>
        <time>2025-02-25T14:40:46Z</time>
      </trkpt>
      <trkpt lat="48.09266" lon="-3.54721">
        <ele>157.1</ele>
        <time>2025-02-25T14:40:47Z</time>
      </trkpt>
      <trkpt lat="48.09264" lon="-3.5472">
        <ele>156.9</ele>
        <time>2025-02-25T14:40:48Z</time>
      </trkpt>
      <trkpt lat="48.09263" lon="-3.5472">
        <ele>156.9</ele>
        <time>2025-02-25T14:40:49Z</time>
      </trkpt>
      <trkpt lat="48.09262" lon="-3.54719">
        <ele>156.7</ele>
        <time>2025-02-25T14:40:50Z</time>
      </trkpt>
      <trkpt lat="48.09261" lon="-3.54719">
        <ele>156.7</ele>
        <time>2025-02-25T14:40:51Z</time>
      </trkpt>
      <trkpt lat="48.0926" lon="-3.54719">
        <ele>156.6</ele>
        <time>2025-02-25T14:40:52Z</time>
      </trkpt>
      <trkpt lat="48.09258" lon="-3.54721">
        <ele>156.5</ele>
        <time>2025-02-25T14:40:53Z</time>
      </trkpt>
      <trkpt lat="48.09257" lon="-3.54722">
        <ele>156.5</ele>
        <time>2025-02-25T14:40:54Z</time>
      </trkpt>
      <trkpt lat="48.09256" lon="-3.54721">
        <ele>156.4</ele>
        <time>2025-02-25T14:40:55Z</time>
      </trkpt>
      <trkpt lat="48.09254" lon="-3.54721">
        <ele>156.2</ele>
        <time>2025-02-25T14:40:56Z</time>
      </trkpt>
      <trkpt lat="48.09253" lon="-3.54721">
        <ele>156.2</ele>
        <time>2025-02-25T14:40:57Z</time>
      </trkpt>
      <trkpt lat="48.09252" lon="-3.54722">
        <ele>156.1</ele>
        <time>2025-02-25T14:40:58Z</time>
      </trkpt>
      <trkpt lat="48.09251" lon="-3.54722">
        <ele>156.1</ele>
        <time>2025-02-25T14:40:59Z</time>
      </trkpt>
      <trkpt lat="48.0925" lon="-3.54722">
        <ele>156</ele>
        <time>2025-02-25T14:41:00Z</time>
      </trkpt>
      <trkpt lat="48.09249" lon="-3.54723">
        <ele>155.9</ele>
        <time>2025-02-25T14:41:01Z</time>
      </trkpt>
      <trkpt lat="48.09248" lon="-3.54723">
        <ele>155.9</ele>
        <time>2025-02-25T14:41:02Z</time>
      </trkpt>
      <trkpt lat="48.09246" lon="-3.54722">
        <ele>155.7</ele>
        <time>2025-02-25T14:41:03Z</time>
      </trkpt>
      <trkpt lat="48.09245" lon="-3.54723">
        <ele>155.6</ele>
        <time>2025-02-25T14:41:04Z</time>
      </trkpt>
      <trkpt lat="48.09244" lon="-3.54723">
        <ele>155.6</ele>
        <time>2025-02-25T14:41:05Z</time>
      </trkpt>
      <trkpt lat="48.09243" lon="-3.54723">
        <ele>155.5</ele>
        <time>2025-02-25T14:41:06Z</time>
      </trkpt>
      <trkpt lat="48.09241" lon="-3.54723">
        <ele>155.4</ele>
        <time>2025-02-25T14:41:07Z</time>
      </trkpt>
      <trkpt lat="48.0924" lon="-3.54723">
        <ele>155.3</ele>
        <time>2025-02-25T14:41:08Z</time>
      </trkpt>
      <trkpt lat="48.09239" lon="-3.54723">
        <ele>155.2</ele>
        <time>2025-02-25T14:41:09Z</time>
      </trkpt>
      <trkpt lat="48.09238" lon="-3.54723">
        <ele>155.1</ele>
        <time>2025-02-25T14:41:10Z</time>
      </trkpt>
      <trkpt lat="48.09237" lon="-3.54724">
        <ele>155.1</ele>
        <time>2025-02-25T14:41:11Z</time>
      </trkpt>
      <trkpt lat="48.09236" lon="-3.54724">
        <ele>155</ele>
        <time>2025-02-25T14:41:12Z</time>
      </trkpt>
      <trkpt lat="48.09235" lon="-3.54724">
        <ele>154.9</ele>
        <time>2025-02-25T14:41:13Z</time>
      </trkpt>
      <trkpt lat="48.09233" lon="-3.54724">
        <ele>154.8</ele>
        <time>2025-02-25T14:41:14Z</time>
      </trkpt>
      <trkpt lat="48.09232" lon="-3.54724">
        <ele>154.7</ele>
        <time>2025-02-25T14:41:15Z</time>
      </trkpt>
      <trkpt lat="48.09231" lon="-3.54724">
        <ele>154.6</ele>
        <time>2025-02-25T14:41:16Z</time>
      </trkpt>
      <trkpt lat="48.0923" lon="-3.54725">
        <ele>154.6</ele>
        <time>2025-02-25T14:41:17Z</time>
      </trkpt>
      <trkpt lat="48.09229" lon="-3.54725">
        <ele>154.5</ele>
        <time>2025-02-25T14:41:18Z</time>
      </trkpt>
      <trkpt lat="48.09228" lon="-3.54725">
        <ele>154.4</ele>
        <time>2025-02-25T14:41:19Z</time>
      </trkpt>
      <trkpt lat="48.09227" lon="-3.54725">
        <ele>154.3</ele>
        <time>2025-02-25T14:41:20Z</time>
      </trkpt>
      <trkpt lat="48.09226" lon="-3.54725">
        <ele>154.3</ele>
        <time>2025-02-25T14:41:21Z</time>
      </trkpt>
      <trkpt lat="48.09225" lon="-3.54724">
        <ele>154.2</ele>
        <time>2025-02-25T14:41:22Z</time>
      </trkpt>
      <trkpt lat="48.09224" lon="-3.54724">
        <ele>154.1</ele>
        <time>2025-02-25T14:41:23Z</time>
      </trkpt>
      <trkpt lat="48.09223" lon="-3.54724">
        <ele>154.1</ele>
        <time>2025-02-25T14:41:24Z</time>
      </trkpt>
      <trkpt lat="48.09222" lon="-3.54723">
        <ele>154</ele>
        <time>2025-02-25T14:41:25Z</time>
      </trkpt>
      <trkpt lat="48.09221" lon="-3.54723">
        <ele>154</ele>
        <time>2025-02-25T14:41:26Z</time>
      </trkpt>
      <trkpt lat="48.0922" lon="-3.54723">
        <ele>153.9</ele>
        <time>2025-02-25T14:41:27Z</time>
      </trkpt>
      <trkpt lat="48.09219" lon="-3.54724">
        <ele>153.9</ele>
        <time>2025-02-25T14:41:28Z</time>
      </trkpt>
      <trkpt lat="48.09218" lon="-3.54724">
        <ele>153.9</ele>
        <time>2025-02-25T14:41:29Z</time>
      </trkpt>
      <trkpt lat="48.09216" lon="-3.54724">
        <ele>153.8</ele>
        <time>2025-02-25T14:41:30Z</time>
      </trkpt>
      <trkpt lat="48.09215" lon="-3.54725">
        <ele>153.8</ele>
        <time>2025-02-25T14:41:31Z</time>
      </trkpt>
      <trkpt lat="48.09215" lon="-3.54725">
        <ele>153.8</ele>
        <time>2025-02-25T14:41:32Z</time>
      </trkpt>
      <trkpt lat="48.09214" lon="-3.54725">
        <ele>153.7</ele>
        <time>2025-02-25T14:41:33Z</time>
      </trkpt>
      <trkpt lat="48.09213" lon="-3.54725">
        <ele>153.7</ele>
        <time>2025-02-25T14:41:34Z</time>
      </trkpt>
      <trkpt lat="48.09212" lon="-3.54725">
        <ele>153.7</ele>
        <time>2025-02-25T14:41:35Z</time>
      </trkpt>
      <trkpt lat="48.09211" lon="-3.54726">
        <ele>153.7</ele>
        <time>2025-02-25T14:41:36Z</time>
      </trkpt>
      <trkpt lat="48.0921" lon="-3.54726">
        <ele>153.6</ele>
        <time>2025-02-25T14:41:37Z</time>
      </trkpt>
      <trkpt lat="48.09209" lon="-3.54725">
        <ele>153.6</ele>
        <time>2025-02-25T14:41:38Z</time>
      </trkpt>
      <trkpt lat="48.09208" lon="-3.54726">
        <ele>153.6</ele>
        <time>2025-02-25T14:41:39Z</time>
      </trkpt>
      <trkpt lat="48.09207" lon="-3.54725">
        <ele>153.5</ele>
        <time>2025-02-25T14:41:40Z</time>
      </trkpt>
      <trkpt lat="48.09206" lon="-3.54725">
        <ele>153.5</ele>
        <time>2025-02-25T14:41:41Z</time>
      </trkpt>
      <trkpt lat="48.09205" lon="-3.54724">
        <ele>153.4</ele>
        <time>2025-02-25T14:41:42Z</time>
      </trkpt>
      <trkpt lat="48.09205" lon="-3.54723">
        <ele>153.4</ele>
        <time>2025-02-25T14:41:43Z</time>
      </trkpt>
      <trkpt lat="48.09204" lon="-3.54722">
        <ele>153.3</ele>
        <time>2025-02-25T14:41:44Z</time>
      </trkpt>
      <trkpt lat="48.09203" lon="-3.54721">
        <ele>153.3</ele>
        <time>2025-02-25T14:41:45Z</time>
      </trkpt>
      <trkpt lat="48.09202" lon="-3.54722">
        <ele>153.3</ele>
        <time>2025-02-25T14:41:46Z</time>
      </trkpt>
      <trkpt lat="48.09201" lon="-3.54722">
        <ele>153.2</ele>
        <time>2025-02-25T14:41:47Z</time>
      </trkpt>
      <trkpt lat="48.092" lon="-3.54721">
        <ele>153.2</ele>
        <time>2025-02-25T14:41:48Z</time>
      </trkpt>
      <trkpt lat="48.09199" lon="-3.54721">
        <ele>153.1</ele>
        <time>2025-02-25T14:41:49Z</time>
      </trkpt>
      <trkpt lat="48.09198" lon="-3.54721">
        <ele>153.1</ele>
        <time>2025-02-25T14:41:50Z</time>
      </trkpt>
      <trkpt lat="48.09197" lon="-3.54721">
        <ele>153</ele>
        <time>2025-02-25T14:41:51Z</time>
      </trkpt>
      <trkpt lat="48.09196" lon="-3.54721">
        <ele>153</ele>
        <time>2025-02-25T14:41:52Z</time>
      </trkpt>
      <trkpt lat="48.09195" lon="-3.5472">
        <ele>152.9</ele>
        <time>2025-02-25T14:41:53Z</time>
      </trkpt>
      <trkpt lat="48.09194" lon="-3.54719">
        <ele>152.9</ele>
        <time>2025-02-25T14:41:54Z</time>
      </trkpt>
      <trkpt lat="48.09194" lon="-3.54719">
        <ele>152.9</ele>
        <time>2025-02-25T14:41:55Z</time>
      </trkpt>
      <trkpt lat="48.09193" lon="-3.54719">
        <ele>152.9</ele>
        <time>2025-02-25T14:41:56Z</time>
      </trkpt>
      <trkpt lat="48.09192" lon="-3.5472">
        <ele>152.9</ele>
        <time>2025-02-25T14:41:57Z</time>
      </trkpt>
      <trkpt lat="48.09191" lon="-3.54719">
        <ele>152.9</ele>
        <time>2025-02-25T14:41:58Z</time>
      </trkpt>
      <trkpt lat="48.0919" lon="-3.54719">
        <ele>152.9</ele>
        <time>2025-02-25T14:41:59Z</time>
      </trkpt>
      <trkpt lat="48.0919" lon="-3.54719">
        <ele>152.9</ele>
        <time>2025-02-25T14:42:00Z</time>
      </trkpt>
      <trkpt lat="48.09189" lon="-3.54719">
        <ele>152.9</ele>
        <time>2025-02-25T14:42:01Z</time>
      </trkpt>
      <trkpt lat="48.09188" lon="-3.54719">
        <ele>152.9</ele>
        <time>2025-02-25T14:42:02Z</time>
      </trkpt>
      <trkpt lat="48.09188" lon="-3.54719">
        <ele>152.9</ele>
        <time>2025-02-25T14:42:03Z</time>
      </trkpt>
      <trkpt lat="48.09187" lon="-3.54718">
        <ele>152.8</ele>
        <time>2025-02-25T14:42:04Z</time>
      </trkpt>
      <trkpt lat="48.09186" lon="-3.54718">
        <ele>152.8</ele>
        <time>2025-02-25T14:42:05Z</time>
      </trkpt>
      <trkpt lat="48.09185" lon="-3.54718">
        <ele>152.8</ele>
        <time>2025-02-25T14:42:06Z</time>
      </trkpt>
      <trkpt lat="48.09184" lon="-3.54718">
        <ele>152.8</ele>
        <time>2025-02-25T14:42:07Z</time>
      </trkpt>
      <trkpt lat="48.09184" lon="-3.54718">
        <ele>152.8</ele>
        <time>2025-02-25T14:42:08Z</time>
      </trkpt>
      <trkpt lat="48.09183" lon="-3.54717">
        <ele>152.7</ele>
        <time>2025-02-25T14:42:09Z</time>
      </trkpt>
      <trkpt lat="48.09182" lon="-3.54717">
        <ele>152.7</ele>
        <time>2025-02-25T14:42:10Z</time>
      </trkpt>
      <trkpt lat="48.09181" lon="-3.54717">
        <ele>152.7</ele>
        <time>2025-02-25T14:42:11Z</time>
      </trkpt>
      <trkpt lat="48.0918" lon="-3.54717">
        <ele>152.7</ele>
        <time>2025-02-25T14:42:12Z</time>
      </trkpt>
      <trkpt lat="48.09179" lon="-3.54717">
        <ele>152.7</ele>
        <time>2025-02-25T14:42:13Z</time>
      </trkpt>
      <trkpt lat="48.09178" lon="-3.54717">
        <ele>152.7</ele>
        <time>2025-02-25T14:42:14Z</time>
      </trkpt>
      <trkpt lat="48.09177" lon="-3.54717">
        <ele>152.7</ele>
        <time>2025-02-25T14:42:15Z</time>
      </trkpt>
      <trkpt lat="48.09176" lon="-3.54717">
        <ele>152.7</ele>
        <time>2025-02-25T14:42:16Z</time>
      </trkpt>
      <trkpt lat="48.09175" lon="-3.54716">
        <ele>152.6</ele>
        <time>2025-02-25T14:42:17Z</time>
      </trkpt>
      <trkpt lat="48.09174" lon="-3.54716">
        <ele>152.6</ele>
        <time>2025-02-25T14:42:18Z</time>
      </trkpt>
      <trkpt lat="48.09173" lon="-3.54716">
        <ele>152.6</ele>
        <time>2025-02-25T14:42:19Z</time>
      </trkpt>
      <trkpt lat="48.09172" lon="-3.54716">
        <ele>152.6</ele>
        <time>2025-02-25T14:42:20Z</time>
      </trkpt>
      <trkpt lat="48.09171" lon="-3.54715">
        <ele>152.5</ele>
        <time>2025-02-25T14:42:21Z</time>
      </trkpt>
      <trkpt lat="48.0917" lon="-3.54714">
        <ele>152.4</ele>
        <time>2025-02-25T14:42:22Z</time>
      </trkpt>
      <trkpt lat="48.09168" lon="-3.54714">
        <ele>152.4</ele>
        <time>2025-02-25T14:42:23Z</time>
      </trkpt>
      <trkpt lat="48.09167" lon="-3.54712">
        <ele>152.3</ele>
        <time>2025-02-25T14:42:24Z</time>
      </trkpt>
      <trkpt lat="48.09166" lon="-3.54711">
        <ele>152.2</ele>
        <time>2025-02-25T14:42:25Z</time>
      </trkpt>
      <trkpt lat="48.09165" lon="-3.5471">
        <ele>152.1</ele>
        <time>2025-02-25T14:42:26Z</time>
      </trkpt>
      <trkpt lat="48.09163" lon="-3.5471">
        <ele>152</ele>
        <time>2025-02-25T14:42:27Z</time>
      </trkpt>
      <trkpt lat="48.09162" lon="-3.5471">
        <ele>152</ele>
        <time>2025-02-25T14:42:28Z</time>
      </trkpt>
      <trkpt lat="48.09161" lon="-3.5471">
        <ele>151.9</ele>
        <time>2025-02-25T14:42:29Z</time>
      </trkpt>
      <trkpt lat="48.0916" lon="-3.5471">
        <ele>151.9</ele>
        <time>2025-02-25T14:42:30Z</time>
      </trkpt>
      <trkpt lat="48.09159" lon="-3.5471">
        <ele>151.8</ele>
        <time>2025-02-25T14:42:31Z</time>
      </trkpt>
      <trkpt lat="48.09158" lon="-3.5471">
        <ele>151.8</ele>
        <time>2025-02-25T14:42:32Z</time>
      </trkpt>
      <trkpt lat="48.09157" lon="-3.5471">
        <ele>151.8</ele>
        <time>2025-02-25T14:42:33Z</time>
      </trkpt>
      <trkpt lat="48.09156" lon="-3.54709">
        <ele>151.7</ele>
        <time>2025-02-25T14:42:34Z</time>
      </trkpt>
      <trkpt lat="48.09155" lon="-3.54709">
        <ele>151.6</ele>
        <time>2025-02-25T14:42:35Z</time>
      </trkpt>
      <trkpt lat="48.09154" lon="-3.54708">
        <ele>151.5</ele>
        <time>2025-02-25T14:42:36Z</time>
      </trkpt>
      <trkpt lat="48.09153" lon="-3.54708">
        <ele>151.5</ele>
        <time>2025-02-25T14:42:37Z</time>
      </trkpt>
      <trkpt lat="48.09152" lon="-3.54709">
        <ele>151.5</ele>
        <time>2025-02-25T14:42:38Z</time>
      </trkpt>
      <trkpt lat="48.09151" lon="-3.54709">
        <ele>151.5</ele>
        <time>2025-02-25T14:42:39Z</time>
      </trkpt>
      <trkpt lat="48.0915" lon="-3.54708">
        <ele>151.4</ele>
        <time>2025-02-25T14:42:40Z</time>
      </trkpt>
      <trkpt lat="48.09149" lon="-3.54708">
        <ele>151.3</ele>
        <time>2025-02-25T14:42:41Z</time>
      </trkpt>
      <trkpt lat="48.09148" lon="-3.54708">
        <ele>151.3</ele>
        <time>2025-02-25T14:42:42Z</time>
      </trkpt>
      <trkpt lat="48.09147" lon="-3.54709">
        <ele>151.3</ele>
        <time>2025-02-25T14:42:43Z</time>
      </trkpt>
      <trkpt lat="48.09146" lon="-3.54708">
        <ele>151.2</ele>
        <time>2025-02-25T14:42:44Z</time>
      </trkpt>
      <trkpt lat="48.09145" lon="-3.54708">
        <ele>151.2</ele>
        <time>2025-02-25T14:42:45Z</time>
      </trkpt>
      <trkpt lat="48.09144" lon="-3.54708">
        <ele>151.2</ele>
        <time>2025-02-25T14:42:46Z</time>
      </trkpt>
      <trkpt lat="48.09143" lon="-3.54707">
        <ele>151.1</ele>
        <time>2025-02-25T14:42:47Z</time>
      </trkpt>
      <trkpt lat="48.09142" lon="-3.54706">
        <ele>150.9</ele>
        <time>2025-02-25T14:42:48Z</time>
      </trkpt>
      <trkpt lat="48.09141" lon="-3.54706">
        <ele>150.9</ele>
        <time>2025-02-25T14:42:49Z</time>
      </trkpt>
      <trkpt lat="48.0914" lon="-3.54706">
        <ele>150.9</ele>
        <time>2025-02-25T14:42:50Z</time>
      </trkpt>
      <trkpt lat="48.09139" lon="-3.54706">
        <ele>150.8</ele>
        <time>2025-02-25T14:42:51Z</time>
      </trkpt>
      <trkpt lat="48.09138" lon="-3.54705">
        <ele>150.7</ele>
        <time>2025-02-25T14:42:52Z</time>
      </trkpt>
      <trkpt lat="48.09137" lon="-3.54703">
        <ele>150.6</ele>
        <time>2025-02-25T14:42:53Z</time>
      </trkpt>
      <trkpt lat="48.09136" lon="-3.54702">
        <ele>150.5</ele>
        <time>2025-02-25T14:42:54Z</time>
      </trkpt>
      <trkpt lat="48.09134" lon="-3.54702">
        <ele>150.5</ele>
        <time>2025-02-25T14:42:55Z</time>
      </trkpt>
      <trkpt lat="48.09133" lon="-3.54702">
        <ele>150.5</ele>
        <time>2025-02-25T14:42:56Z</time>
      </trkpt>
      <trkpt lat="48.09132" lon="-3.54702">
        <ele>150.5</ele>
        <time>2025-02-25T14:42:57Z</time>
      </trkpt>
      <trkpt lat="48.09131" lon="-3.54701">
        <ele>150.4</ele>
        <time>2025-02-25T14:42:58Z</time>
      </trkpt>
      <trkpt lat="48.0913" lon="-3.54701">
        <ele>150.4</ele>
        <time>2025-02-25T14:42:59Z</time>
      </trkpt>
      <trkpt lat="48.09129" lon="-3.54702">
        <ele>150.4</ele>
        <time>2025-02-25T14:43:00Z</time>
      </trkpt>
      <trkpt lat="48.09128" lon="-3.54702">
        <ele>150.4</ele>
        <time>2025-02-25T14:43:01Z</time>
      </trkpt>
      <trkpt lat="48.09127" lon="-3.54701">
        <ele>150.4</ele>
        <time>2025-02-25T14:43:02Z</time>
      </trkpt>
      <trkpt lat="48.09126" lon="-3.547">
        <ele>150.3</ele>
        <time>2025-02-25T14:43:03Z</time>
      </trkpt>
      <trkpt lat="48.09125" lon="-3.547">
        <ele>150.3</ele>
        <time>2025-02-25T14:43:04Z</time>
      </trkpt>
      <trkpt lat="48.09124" lon="-3.547">
        <ele>150.3</ele>
        <time>2025-02-25T14:43:05Z</time>
      </trkpt>
      <trkpt lat="48.09123" lon="-3.547">
        <ele>150.3</ele>
        <time>2025-02-25T14:43:06Z</time>
      </trkpt>
      <trkpt lat="48.09122" lon="-3.547">
        <ele>150.3</ele>
        <time>2025-02-25T14:43:07Z</time>
      </trkpt>
      <trkpt lat="48.09122" lon="-3.547">
        <ele>150.3</ele>
        <time>2025-02-25T14:43:08Z</time>
      </trkpt>
      <trkpt lat="48.09121" lon="-3.547">
        <ele>150.3</ele>
        <time>2025-02-25T14:43:09Z</time>
      </trkpt>
      <trkpt lat="48.0912" lon="-3.54699">
        <ele>150.2</ele>
        <time>2025-02-25T14:43:10Z</time>
      </trkpt>
      <trkpt lat="48.09119" lon="-3.54699">
        <ele>150.2</ele>
        <time>2025-02-25T14:43:11Z</time>
      </trkpt>
      <trkpt lat="48.09118" lon="-3.54699">
        <ele>150.2</ele>
        <time>2025-02-25T14:43:12Z</time>
      </trkpt>
      <trkpt lat="48.09117" lon="-3.54699">
        <ele>150.2</ele>
        <time>2025-02-25T14:43:13Z</time>
      </trkpt>
      <trkpt lat="48.09116" lon="-3.54699">
        <ele>150.2</ele>
        <time>2025-02-25T14:43:14Z</time>
      </trkpt>
      <trkpt lat="48.09115" lon="-3.54699">
        <ele>150.2</ele>
        <time>2025-02-25T14:43:15Z</time>
      </trkpt>
      <trkpt lat="48.09114" lon="-3.54699">
        <ele>150.2</ele>
        <time>2025-02-25T14:43:16Z</time>
      </trkpt>
      <trkpt lat="48.09113" lon="-3.547">
        <ele>150.2</ele>
        <time>2025-02-25T14:43:17Z</time>
      </trkpt>
      <trkpt lat="48.09112" lon="-3.54701">
        <ele>150.2</ele>
        <time>2025-02-25T14:43:18Z</time>
      </trkpt>
      <trkpt lat="48.09111" lon="-3.54701">
        <ele>150.2</ele>
        <time>2025-02-25T14:43:19Z</time>
      </trkpt>
      <trkpt lat="48.0911" lon="-3.54701">
        <ele>150.2</ele>
        <time>2025-02-25T14:43:20Z</time>
      </trkpt>
      <trkpt lat="48.0911" lon="-3.54701">
        <ele>150.2</ele>
        <time>2025-02-25T14:43:21Z</time>
      </trkpt>
      <trkpt lat="48.09109" lon="-3.547">
        <ele>150.2</ele>
        <time>2025-02-25T14:43:22Z</time>
      </trkpt>
      <trkpt lat="48.09108" lon="-3.54699">
        <ele>150.2</ele>
        <time>2025-02-25T14:43:23Z</time>
      </trkpt>
      <trkpt lat="48.09107" lon="-3.547">
        <ele>150.2</ele>
        <time>2025-02-25T14:43:24Z</time>
      </trkpt>
      <trkpt lat="48.09106" lon="-3.547">
        <ele>150.2</ele>
        <time>2025-02-25T14:43:25Z</time>
      </trkpt>
      <trkpt lat="48.09105" lon="-3.547">
        <ele>150.2</ele>
        <time>2025-02-25T14:43:26Z</time>
      </trkpt>
      <trkpt lat="48.09104" lon="-3.547">
        <ele>150.2</ele>
        <time>2025-02-25T14:43:27Z</time>
      </trkpt>
      <trkpt lat="48.09102" lon="-3.547">
        <ele>150.2</ele>
        <time>2025-02-25T14:43:28Z</time>
      </trkpt>
      <trkpt lat="48.09101" lon="-3.547">
        <ele>150.2</ele>
        <time>2025-02-25T14:43:29Z</time>
      </trkpt>
      <trkpt lat="48.091" lon="-3.54699">
        <ele>150.2</ele>
        <time>2025-02-25T14:43:30Z</time>
      </trkpt>
      <trkpt lat="48.091" lon="-3.54699">
        <ele>150.2</ele>
        <time>2025-02-25T14:43:31Z</time>
      </trkpt>
      <trkpt lat="48.09099" lon="-3.54699">
        <ele>150.2</ele>
        <time>2025-02-25T14:43:32Z</time>
      </trkpt>
      <trkpt lat="48.09098" lon="-3.54698">
        <ele>150.1</ele>
        <time>2025-02-25T14:43:33Z</time>
      </trkpt>
      <trkpt lat="48.09097" lon="-3.54698">
        <ele>150.1</ele>
        <time>2025-02-25T14:43:34Z</time>
      </trkpt>
      <trkpt lat="48.09096" lon="-3.54698">
        <ele>150.1</ele>
        <time>2025-02-25T14:43:35Z</time>
      </trkpt>
      <trkpt lat="48.09096" lon="-3.54697">
        <ele>150.1</ele>
        <time>2025-02-25T14:43:36Z</time>
      </trkpt>
      <trkpt lat="48.09095" lon="-3.54697">
        <ele>150.1</ele>
        <time>2025-02-25T14:43:37Z</time>
      </trkpt>
      <trkpt lat="48.09094" lon="-3.54696">
        <ele>150.1</ele>
        <time>2025-02-25T14:43:38Z</time>
      </trkpt>
      <trkpt lat="48.09092" lon="-3.54696">
        <ele>150.1</ele>
        <time>2025-02-25T14:43:39Z</time>
      </trkpt>
      <trkpt lat="48.09091" lon="-3.54696">
        <ele>150.1</ele>
        <time>2025-02-25T14:43:40Z</time>
      </trkpt>
      <trkpt lat="48.0909" lon="-3.54696">
        <ele>150.1</ele>
        <time>2025-02-25T14:43:41Z</time>
      </trkpt>
      <trkpt lat="48.09089" lon="-3.54696">
        <ele>150.1</ele>
        <time>2025-02-25T14:43:42Z</time>
      </trkpt>
      <trkpt lat="48.09088" lon="-3.54696">
        <ele>150.1</ele>
        <time>2025-02-25T14:43:43Z</time>
      </trkpt>
      <trkpt lat="48.09087" lon="-3.54697">
        <ele>150.1</ele>
        <time>2025-02-25T14:43:44Z</time>
      </trkpt>
      <trkpt lat="48.09086" lon="-3.54697">
        <ele>150.1</ele>
        <time>2025-02-25T14:43:45Z</time>
      </trkpt>
      <trkpt lat="48.09085" lon="-3.54697">
        <ele>150.1</ele>
        <time>2025-02-25T14:43:46Z</time>
      </trkpt>
      <trkpt lat="48.09084" lon="-3.54696">
        <ele>150.1</ele>
        <time>2025-02-25T14:43:47Z</time>
      </trkpt>
      <trkpt lat="48.09083" lon="-3.54696">
        <ele>150.1</ele>
        <time>2025-02-25T14:43:48Z</time>
      </trkpt>
      <trkpt lat="48.09082" lon="-3.54695">
        <ele>150</ele>
        <time>2025-02-25T14:43:49Z</time>
      </trkpt>
      <trkpt lat="48.09081" lon="-3.54695">
        <ele>150</ele>
        <time>2025-02-25T14:43:50Z</time>
      </trkpt>
      <trkpt lat="48.0908" lon="-3.54695">
        <ele>150</ele>
        <time>2025-02-25T14:43:51Z</time>
      </trkpt>
      <trkpt lat="48.09079" lon="-3.54695">
        <ele>150</ele>
        <time>2025-02-25T14:43:52Z</time>
      </trkpt>
      <trkpt lat="48.09078" lon="-3.54694">
        <ele>150</ele>
        <time>2025-02-25T14:43:53Z</time>
      </trkpt>
      <trkpt lat="48.09077" lon="-3.54694">
        <ele>150</ele>
        <time>2025-02-25T14:43:54Z</time>
      </trkpt>
      <trkpt lat="48.09076" lon="-3.54695">
        <ele>150</ele>
        <time>2025-02-25T14:43:55Z</time>
      </trkpt>
      <trkpt lat="48.09075" lon="-3.54695">
        <ele>150</ele>
        <time>2025-02-25T14:43:56Z</time>
      </trkpt>
      <trkpt lat="48.09073" lon="-3.54695">
        <ele>150</ele>
        <time>2025-02-25T14:43:57Z</time>
      </trkpt>
      <trkpt lat="48.09072" lon="-3.54695">
        <ele>150</ele>
        <time>2025-02-25T14:43:58Z</time>
      </trkpt>
      <trkpt lat="48.09071" lon="-3.54694">
        <ele>150</ele>
        <time>2025-02-25T14:43:59Z</time>
      </trkpt>
      <trkpt lat="48.0907" lon="-3.54694">
        <ele>150</ele>
        <time>2025-02-25T14:44:00Z</time>
      </trkpt>
      <trkpt lat="48.09069" lon="-3.54694">
        <ele>150</ele>
        <time>2025-02-25T14:44:01Z</time>
      </trkpt>
      <trkpt lat="48.09068" lon="-3.54694">
        <ele>150</ele>
        <time>2025-02-25T14:44:02Z</time>
      </trkpt>
      <trkpt lat="48.09068" lon="-3.54694">
        <ele>150</ele>
        <time>2025-02-25T14:44:03Z</time>
      </trkpt>
      <trkpt lat="48.09067" lon="-3.54694">
        <ele>150</ele>
        <time>2025-02-25T14:44:04Z</time>
      </trkpt>
      <trkpt lat="48.09066" lon="-3.54694">
        <ele>150</ele>
        <time>2025-02-25T14:44:05Z</time>
      </trkpt>
      <trkpt lat="48.09065" lon="-3.54695">
        <ele>150</ele>
        <time>2025-02-25T14:44:06Z</time>
      </trkpt>
      <trkpt lat="48.09064" lon="-3.54696">
        <ele>150</ele>
        <time>2025-02-25T14:44:07Z</time>
      </trkpt>
      <trkpt lat="48.09063" lon="-3.54696">
        <ele>150</ele>
        <time>2025-02-25T14:44:08Z</time>
      </trkpt>
      <trkpt lat="48.09061" lon="-3.54696">
        <ele>150</ele>
        <time>2025-02-25T14:44:09Z</time>
      </trkpt>
      <trkpt lat="48.0906" lon="-3.54696">
        <ele>150</ele>
        <time>2025-02-25T14:44:10Z</time>
      </trkpt>
      <trkpt lat="48.09059" lon="-3.54697">
        <ele>150</ele>
        <time>2025-02-25T14:44:11Z</time>
      </trkpt>
      <trkpt lat="48.09058" lon="-3.54697">
        <ele>150</ele>
        <time>2025-02-25T14:44:12Z</time>
      </trkpt>
      <trkpt lat="48.09057" lon="-3.54697">
        <ele>150</ele>
        <time>2025-02-25T14:44:13Z</time>
      </trkpt>
      <trkpt lat="48.09056" lon="-3.54697">
        <ele>150</ele>
        <time>2025-02-25T14:44:14Z</time>
      </trkpt>
      <trkpt lat="48.09055" lon="-3.54697">
        <ele>150</ele>
        <time>2025-02-25T14:44:15Z</time>
      </trkpt>
      <trkpt lat="48.09054" lon="-3.54697">
        <ele>149.9</ele>
        <time>2025-02-25T14:44:16Z</time>
      </trkpt>
      <trkpt lat="48.09053" lon="-3.54697">
        <ele>149.8</ele>
        <time>2025-02-25T14:44:17Z</time>
      </trkpt>
      <trkpt lat="48.09051" lon="-3.54698">
        <ele>149.7</ele>
        <time>2025-02-25T14:44:18Z</time>
      </trkpt>
      <trkpt lat="48.0905" lon="-3.54698">
        <ele>149.6</ele>
        <time>2025-02-25T14:44:19Z</time>
      </trkpt>
      <trkpt lat="48.09049" lon="-3.54698">
        <ele>149.6</ele>
        <time>2025-02-25T14:44:20Z</time>
      </trkpt>
      <trkpt lat="48.09048" lon="-3.54699">
        <ele>149.5</ele>
        <time>2025-02-25T14:44:21Z</time>
      </trkpt>
      <trkpt lat="48.09047" lon="-3.54699">
        <ele>149.4</ele>
        <time>2025-02-25T14:44:22Z</time>
      </trkpt>
      <trkpt lat="48.09045" lon="-3.54699">
        <ele>149.3</ele>
        <time>2025-02-25T14:44:23Z</time>
      </trkpt>
      <trkpt lat="48.09044" lon="-3.547">
        <ele>149.3</ele>
        <time>2025-02-25T14:44:24Z</time>
      </trkpt>
      <trkpt lat="48.09043" lon="-3.547">
        <ele>149.2</ele>
        <time>2025-02-25T14:44:25Z</time>
      </trkpt>
      <trkpt lat="48.09042" lon="-3.547">
        <ele>149.1</ele>
        <time>2025-02-25T14:44:26Z</time>
      </trkpt>
      <trkpt lat="48.09041" lon="-3.54701">
        <ele>149.1</ele>
        <time>2025-02-25T14:44:27Z</time>
      </trkpt>
      <trkpt lat="48.0904" lon="-3.54701">
        <ele>149</ele>
        <time>2025-02-25T14:44:28Z</time>
      </trkpt>
      <trkpt lat="48.09038" lon="-3.54701">
        <ele>148.9</ele>
        <time>2025-02-25T14:44:29Z</time>
      </trkpt>
      <trkpt lat="48.09037" lon="-3.54701">
        <ele>148.8</ele>
        <time>2025-02-25T14:44:30Z</time>
      </trkpt>
      <trkpt lat="48.09036" lon="-3.54702">
        <ele>148.8</ele>
        <time>2025-02-25T14:44:31Z</time>
      </trkpt>
      <trkpt lat="48.09035" lon="-3.54703">
        <ele>148.7</ele>
        <time>2025-02-25T14:44:32Z</time>
      </trkpt>
      <trkpt lat="48.09034" lon="-3.54703">
        <ele>148.7</ele>
        <time>2025-02-25T14:44:33Z</time>
      </trkpt>
      <trkpt lat="48.09033" lon="-3.54703">
        <ele>148.6</ele>
        <time>2025-02-25T14:44:34Z</time>
      </trkpt>
      <trkpt lat="48.09032" lon="-3.54703">
        <ele>148.6</ele>
        <time>2025-02-25T14:44:35Z</time>
      </trkpt>
      <trkpt lat="48.09031" lon="-3.54703">
        <ele>148.5</ele>
        <time>2025-02-25T14:44:36Z</time>
      </trkpt>
      <trkpt lat="48.0903" lon="-3.54703">
        <ele>148.4</ele>
        <time>2025-02-25T14:44:37Z</time>
      </trkpt>
      <trkpt lat="48.09028" lon="-3.54703">
        <ele>148.3</ele>
        <time>2025-02-25T14:44:38Z</time>
      </trkpt>
      <trkpt lat="48.09027" lon="-3.54703">
        <ele>148.2</ele>
        <time>2025-02-25T14:44:39Z</time>
      </trkpt>
      <trkpt lat="48.09026" lon="-3.54704">
        <ele>148.2</ele>
        <time>2025-02-25T14:44:40Z</time>
      </trkpt>
      <trkpt lat="48.09025" lon="-3.54704">
        <ele>148.1</ele>
        <time>2025-02-25T14:44:41Z</time>
      </trkpt>
      <trkpt lat="48.09024" lon="-3.54704">
        <ele>148</ele>
        <time>2025-02-25T14:44:42Z</time>
      </trkpt>
      <trkpt lat="48.09023" lon="-3.54705">
        <ele>148</ele>
        <time>2025-02-25T14:44:43Z</time>
      </trkpt>
      <trkpt lat="48.09022" lon="-3.54705">
        <ele>147.9</ele>
        <time>2025-02-25T14:44:44Z</time>
      </trkpt>
      <trkpt lat="48.09021" lon="-3.54705">
        <ele>147.8</ele>
        <time>2025-02-25T14:44:45Z</time>
      </trkpt>
      <trkpt lat="48.0902" lon="-3.54706">
        <ele>147.7</ele>
        <time>2025-02-25T14:44:46Z</time>
      </trkpt>
      <trkpt lat="48.09018" lon="-3.54706">
        <ele>147.6</ele>
        <time>2025-02-25T14:44:47Z</time>
      </trkpt>
      <trkpt lat="48.09017" lon="-3.54707">
        <ele>147.5</ele>
        <time>2025-02-25T14:44:48Z</time>
      </trkpt>
      <trkpt lat="48.09016" lon="-3.54708">
        <ele>147.4</ele>
        <time>2025-02-25T14:44:49Z</time>
      </trkpt>
      <trkpt lat="48.09015" lon="-3.54708">
        <ele>147.3</ele>
        <time>2025-02-25T14:44:50Z</time>
      </trkpt>
      <trkpt lat="48.09014" lon="-3.54708">
        <ele>147.3</ele>
        <time>2025-02-25T14:44:51Z</time>
      </trkpt>
      <trkpt lat="48.09013" lon="-3.54709">
        <ele>147.2</ele>
        <time>2025-02-25T14:44:52Z</time>
      </trkpt>
      <trkpt lat="48.09012" lon="-3.54709">
        <ele>147.1</ele>
        <time>2025-02-25T14:44:53Z</time>
      </trkpt>
      <trkpt lat="48.09011" lon="-3.5471">
        <ele>147</ele>
        <time>2025-02-25T14:44:54Z</time>
      </trkpt>
      <trkpt lat="48.0901" lon="-3.54711">
        <ele>146.9</ele>
        <time>2025-02-25T14:44:55Z</time>
      </trkpt>
      <trkpt lat="48.09009" lon="-3.54711">
        <ele>146.8</ele>
        <time>2025-02-25T14:44:56Z</time>
      </trkpt>
      <trkpt lat="48.09008" lon="-3.54711">
        <ele>146.7</ele>
        <time>2025-02-25T14:44:57Z</time>
      </trkpt>
      <trkpt lat="48.09007" lon="-3.54712">
        <ele>146.7</ele>
        <time>2025-02-25T14:44:58Z</time>
      </trkpt>
      <trkpt lat="48.09006" lon="-3.54712">
        <ele>146.6</ele>
        <time>2025-02-25T14:44:59Z</time>
      </trkpt>
      <trkpt lat="48.09004" lon="-3.54712">
        <ele>146.4</ele>
        <time>2025-02-25T14:45:00Z</time>
      </trkpt>
      <trkpt lat="48.09003" lon="-3.54711">
        <ele>146.3</ele>
        <time>2025-02-25T14:45:01Z</time>
      </trkpt>
      <trkpt lat="48.09002" lon="-3.54711">
        <ele>146.2</ele>
        <time>2025-02-25T14:45:02Z</time>
      </trkpt>
      <trkpt lat="48.09001" lon="-3.54711">
        <ele>146.1</ele>
        <time>2025-02-25T14:45:03Z</time>
      </trkpt>
      <trkpt lat="48.08999" lon="-3.54712">
        <ele>145.9</ele>
        <time>2025-02-25T14:45:04Z</time>
      </trkpt>
      <trkpt lat="48.08998" lon="-3.54712">
        <ele>145.9</ele>
        <time>2025-02-25T14:45:05Z</time>
      </trkpt>
      <trkpt lat="48.08997" lon="-3.54712">
        <ele>145.8</ele>
        <time>2025-02-25T14:45:06Z</time>
      </trkpt>
      <trkpt lat="48.08996" lon="-3.54712">
        <ele>145.7</ele>
        <time>2025-02-25T14:45:07Z</time>
      </trkpt>
      <trkpt lat="48.08995" lon="-3.54712">
        <ele>145.6</ele>
        <time>2025-02-25T14:45:08Z</time>
      </trkpt>
      <trkpt lat="48.08994" lon="-3.54712">
        <ele>145.6</ele>
        <time>2025-02-25T14:45:09Z</time>
      </trkpt>
      <trkpt lat="48.08993" lon="-3.54713">
        <ele>145.5</ele>
        <time>2025-02-25T14:45:10Z</time>
      </trkpt>
      <trkpt lat="48.08991" lon="-3.54712">
        <ele>145.4</ele>
        <time>2025-02-25T14:45:11Z</time>
      </trkpt>
      <trkpt lat="48.0899" lon="-3.54713">
        <ele>145.3</ele>
        <time>2025-02-25T14:45:12Z</time>
      </trkpt>
      <trkpt lat="48.08989" lon="-3.54713">
        <ele>145.2</ele>
        <time>2025-02-25T14:45:13Z</time>
      </trkpt>
      <trkpt lat="48.08988" lon="-3.54713">
        <ele>145.1</ele>
        <time>2025-02-25T14:45:14Z</time>
      </trkpt>
      <trkpt lat="48.08987" lon="-3.54712">
        <ele>145.1</ele>
        <time>2025-02-25T14:45:15Z</time>
      </trkpt>
      <trkpt lat="48.08986" lon="-3.54712">
        <ele>145</ele>
        <time>2025-02-25T14:45:16Z</time>
      </trkpt>
      <trkpt lat="48.08985" lon="-3.54713">
        <ele>144.9</ele>
        <time>2025-02-25T14:45:17Z</time>
      </trkpt>
      <trkpt lat="48.08984" lon="-3.54713">
        <ele>144.8</ele>
        <time>2025-02-25T14:45:18Z</time>
      </trkpt>
      <trkpt lat="48.08983" lon="-3.54713">
        <ele>144.8</ele>
        <time>2025-02-25T14:45:19Z</time>
      </trkpt>
      <trkpt lat="48.08982" lon="-3.54712">
        <ele>144.7</ele>
        <time>2025-02-25T14:45:20Z</time>
      </trkpt>
      <trkpt lat="48.08981" lon="-3.54713">
        <ele>144.6</ele>
        <time>2025-02-25T14:45:21Z</time>
      </trkpt>
      <trkpt lat="48.0898" lon="-3.54714">
        <ele>144.6</ele>
        <time>2025-02-25T14:45:22Z</time>
      </trkpt>
      <trkpt lat="48.08979" lon="-3.54714">
        <ele>144.5</ele>
        <time>2025-02-25T14:45:23Z</time>
      </trkpt>
      <trkpt lat="48.08978" lon="-3.54714">
        <ele>144.4</ele>
        <time>2025-02-25T14:45:24Z</time>
      </trkpt>
      <trkpt lat="48.08977" lon="-3.54714">
        <ele>144.3</ele>
        <time>2025-02-25T14:45:25Z</time>
      </trkpt>
      <trkpt lat="48.08975" lon="-3.54714">
        <ele>144.2</ele>
        <time>2025-02-25T14:45:26Z</time>
      </trkpt>
      <trkpt lat="48.08974" lon="-3.54714">
        <ele>144.1</ele>
        <time>2025-02-25T14:45:27Z</time>
      </trkpt>
      <trkpt lat="48.08973" lon="-3.54715">
        <ele>144.1</ele>
        <time>2025-02-25T14:45:28Z</time>
      </trkpt>
      <trkpt lat="48.08972" lon="-3.54715">
        <ele>144</ele>
        <time>2025-02-25T14:45:29Z</time>
      </trkpt>
      <trkpt lat="48.08971" lon="-3.54715">
        <ele>143.9</ele>
        <time>2025-02-25T14:45:30Z</time>
      </trkpt>
      <trkpt lat="48.0897" lon="-3.54715">
        <ele>143.8</ele>
        <time>2025-02-25T14:45:31Z</time>
      </trkpt>
      <trkpt lat="48.08969" lon="-3.54716">
        <ele>143.8</ele>
        <time>2025-02-25T14:45:32Z</time>
      </trkpt>
      <trkpt lat="48.08968" lon="-3.54716">
        <ele>143.7</ele>
        <time>2025-02-25T14:45:33Z</time>
      </trkpt>
      <trkpt lat="48.08967" lon="-3.54717">
        <ele>143.6</ele>
        <time>2025-02-25T14:45:34Z</time>
      </trkpt>
      <trkpt lat="48.08966" lon="-3.54718">
        <ele>143.6</ele>
        <time>2025-02-25T14:45:35Z</time>
      </trkpt>
      <trkpt lat="48.08964" lon="-3.54719">
        <ele>143.4</ele>
        <time>2025-02-25T14:45:36Z</time>
      </trkpt>
      <trkpt lat="48.08963" lon="-3.54719">
        <ele>143.3</ele>
        <time>2025-02-25T14:45:37Z</time>
      </trkpt>
      <trkpt lat="48.08962" lon="-3.5472">
        <ele>143.3</ele>
        <time>2025-02-25T14:45:38Z</time>
      </trkpt>
      <trkpt lat="48.08961" lon="-3.5472">
        <ele>143.2</ele>
        <time>2025-02-25T14:45:39Z</time>
      </trkpt>
      <trkpt lat="48.08959" lon="-3.5472">
        <ele>143</ele>
        <time>2025-02-25T14:45:40Z</time>
      </trkpt>
      <trkpt lat="48.08958" lon="-3.54721">
        <ele>143</ele>
        <time>2025-02-25T14:45:41Z</time>
      </trkpt>
      <trkpt lat="48.08957" lon="-3.54721">
        <ele>142.9</ele>
        <time>2025-02-25T14:45:42Z</time>
      </trkpt>
      <trkpt lat="48.08956" lon="-3.54722">
        <ele>142.8</ele>
        <time>2025-02-25T14:45:43Z</time>
      </trkpt>
      <trkpt lat="48.08955" lon="-3.54722">
        <ele>142.8</ele>
        <time>2025-02-25T14:45:44Z</time>
      </trkpt>
      <trkpt lat="48.08953" lon="-3.54723">
        <ele>142.6</ele>
        <time>2025-02-25T14:45:45Z</time>
      </trkpt>
      <trkpt lat="48.08952" lon="-3.54724">
        <ele>142.5</ele>
        <time>2025-02-25T14:45:46Z</time>
      </trkpt>
      <trkpt lat="48.08951" lon="-3.54724">
        <ele>142.5</ele>
        <time>2025-02-25T14:45:47Z</time>
      </trkpt>
      <trkpt lat="48.08949" lon="-3.54724">
        <ele>142.3</ele>
        <time>2025-02-25T14:45:48Z</time>
      </trkpt>
      <trkpt lat="48.08948" lon="-3.54725">
        <ele>142.3</ele>
        <time>2025-02-25T14:45:49Z</time>
      </trkpt>
      <trkpt lat="48.08947" lon="-3.54725">
        <ele>142.2</ele>
        <time>2025-02-25T14:45:50Z</time>
      </trkpt>
      <trkpt lat="48.08946" lon="-3.54725">
        <ele>142.1</ele>
        <time>2025-02-25T14:45:51Z</time>
      </trkpt>
      <trkpt lat="48.08945" lon="-3.54726">
        <ele>142</ele>
        <time>2025-02-25T14:45:52Z</time>
      </trkpt>
      <trkpt lat="48.08944" lon="-3.54727">
        <ele>141.9</ele>
        <time>2025-02-25T14:45:53Z</time>
      </trkpt>
      <trkpt lat="48.08943" lon="-3.54727">
        <ele>141.8</ele>
        <time>2025-02-25T14:45:54Z</time>
      </trkpt>
      <trkpt lat="48.08942" lon="-3.54728">
        <ele>141.7</ele>
        <time>2025-02-25T14:45:55Z</time>
      </trkpt>
      <trkpt lat="48.08941" lon="-3.54727">
        <ele>141.5</ele>
        <time>2025-02-25T14:45:56Z</time>
      </trkpt>
      <trkpt lat="48.0894" lon="-3.54728">
        <ele>141.4</ele>
        <time>2025-02-25T14:45:57Z</time>
      </trkpt>
      <trkpt lat="48.08939" lon="-3.54729">
        <ele>141.3</ele>
        <time>2025-02-25T14:45:58Z</time>
      </trkpt>
      <trkpt lat="48.08938" lon="-3.5473">
        <ele>141.2</ele>
        <time>2025-02-25T14:45:59Z</time>
      </trkpt>
      <trkpt lat="48.08937" lon="-3.5473">
        <ele>141.1</ele>
        <time>2025-02-25T14:46:00Z</time>
      </trkpt>
      <trkpt lat="48.08935" lon="-3.5473">
        <ele>140.8</ele>
        <time>2025-02-25T14:46:01Z</time>
      </trkpt>
      <trkpt lat="48.08934" lon="-3.5473">
        <ele>140.7</ele>
        <time>2025-02-25T14:46:02Z</time>
      </trkpt>
      <trkpt lat="48.08933" lon="-3.54731">
        <ele>140.6</ele>
        <time>2025-02-25T14:46:03Z</time>
      </trkpt>
      <trkpt lat="48.08932" lon="-3.54732">
        <ele>140.5</ele>
        <time>2025-02-25T14:46:04Z</time>
      </trkpt>
      <trkpt lat="48.08931" lon="-3.54732">
        <ele>140.4</ele>
        <time>2025-02-25T14:46:05Z</time>
      </trkpt>
      <trkpt lat="48.0893" lon="-3.54732">
        <ele>140.3</ele>
        <time>2025-02-25T14:46:06Z</time>
      </trkpt>
      <trkpt lat="48.08929" lon="-3.54733">
        <ele>140.2</ele>
        <time>2025-02-25T14:46:07Z</time>
      </trkpt>
      <trkpt lat="48.08928" lon="-3.54734">
        <ele>140.1</ele>
        <time>2025-02-25T14:46:08Z</time>
      </trkpt>
      <trkpt lat="48.08927" lon="-3.54735">
        <ele>140.1</ele>
        <time>2025-02-25T14:46:09Z</time>
      </trkpt>
      <trkpt lat="48.08926" lon="-3.54736">
        <ele>140</ele>
        <time>2025-02-25T14:46:10Z</time>
      </trkpt>
      <trkpt lat="48.08925" lon="-3.54736">
        <ele>139.9</ele>
        <time>2025-02-25T14:46:11Z</time>
      </trkpt>
      <trkpt lat="48.08924" lon="-3.54737">
        <ele>139.8</ele>
        <time>2025-02-25T14:46:12Z</time>
      </trkpt>
      <trkpt lat="48.08923" lon="-3.54738">
        <ele>139.8</ele>
        <time>2025-02-25T14:46:13Z</time>
      </trkpt>
      <trkpt lat="48.08921" lon="-3.54738">
        <ele>139.6</ele>
        <time>2025-02-25T14:46:14Z</time>
      </trkpt>
      <trkpt lat="48.0892" lon="-3.54739">
        <ele>139.5</ele>
        <time>2025-02-25T14:46:15Z</time>
      </trkpt>
      <trkpt lat="48.08919" lon="-3.54739">
        <ele>139.4</ele>
        <time>2025-02-25T14:46:16Z</time>
      </trkpt>
      <trkpt lat="48.08918" lon="-3.54739">
        <ele>139.3</ele>
        <time>2025-02-25T14:46:17Z</time>
      </trkpt>
      <trkpt lat="48.08917" lon="-3.5474">
        <ele>139.3</ele>
        <time>2025-02-25T14:46:18Z</time>
      </trkpt>
      <trkpt lat="48.08916" lon="-3.54741">
        <ele>139.3</ele>
        <time>2025-02-25T14:46:19Z</time>
      </trkpt>
      <trkpt lat="48.08915" lon="-3.54742">
        <ele>139.2</ele>
        <time>2025-02-25T14:46:20Z</time>
      </trkpt>
      <trkpt lat="48.08913" lon="-3.54742">
        <ele>139</ele>
        <time>2025-02-25T14:46:21Z</time>
      </trkpt>
      <trkpt lat="48.08912" lon="-3.54743">
        <ele>138.9</ele>
        <time>2025-02-25T14:46:22Z</time>
      </trkpt>
      <trkpt lat="48.08911" lon="-3.54744">
        <ele>138.9</ele>
        <time>2025-02-25T14:46:23Z</time>
      </trkpt>
      <trkpt lat="48.0891" lon="-3.54744">
        <ele>138.8</ele>
        <time>2025-02-25T14:46:24Z</time>
      </trkpt>
      <trkpt lat="48.08909" lon="-3.54745">
        <ele>138.8</ele>
        <time>2025-02-25T14:46:25Z</time>
      </trkpt>
      <trkpt lat="48.08908" lon="-3.54745">
        <ele>138.6</ele>
        <time>2025-02-25T14:46:26Z</time>
      </trkpt>
      <trkpt lat="48.08907" lon="-3.54746">
        <ele>138.6</ele>
        <time>2025-02-25T14:46:27Z</time>
      </trkpt>
      <trkpt lat="48.08906" lon="-3.54746">
        <ele>138.5</ele>
        <time>2025-02-25T14:46:28Z</time>
      </trkpt>
      <trkpt lat="48.08905" lon="-3.54747">
        <ele>138.5</ele>
        <time>2025-02-25T14:46:29Z</time>
      </trkpt>
      <trkpt lat="48.08904" lon="-3.54747">
        <ele>138.4</ele>
        <time>2025-02-25T14:46:30Z</time>
      </trkpt>
      <trkpt lat="48.08902" lon="-3.54747">
        <ele>138.1</ele>
        <time>2025-02-25T14:46:31Z</time>
      </trkpt>
      <trkpt lat="48.08901" lon="-3.54747">
        <ele>138</ele>
        <time>2025-02-25T14:46:32Z</time>
      </trkpt>
      <trkpt lat="48.089" lon="-3.54747">
        <ele>137.9</ele>
        <time>2025-02-25T14:46:33Z</time>
      </trkpt>
      <trkpt lat="48.08899" lon="-3.54747">
        <ele>137.8</ele>
        <time>2025-02-25T14:46:34Z</time>
      </trkpt>
      <trkpt lat="48.08898" lon="-3.54746">
        <ele>137.6</ele>
        <time>2025-02-25T14:46:35Z</time>
      </trkpt>
      <trkpt lat="48.08897" lon="-3.54747">
        <ele>137.6</ele>
        <time>2025-02-25T14:46:36Z</time>
      </trkpt>
      <trkpt lat="48.08896" lon="-3.54748">
        <ele>137.6</ele>
        <time>2025-02-25T14:46:37Z</time>
      </trkpt>
      <trkpt lat="48.08895" lon="-3.54748">
        <ele>137.5</ele>
        <time>2025-02-25T14:46:38Z</time>
      </trkpt>
      <trkpt lat="48.08894" lon="-3.54749">
        <ele>137.5</ele>
        <time>2025-02-25T14:46:39Z</time>
      </trkpt>
      <trkpt lat="48.08893" lon="-3.54749">
        <ele>137.3</ele>
        <time>2025-02-25T14:46:40Z</time>
      </trkpt>
      <trkpt lat="48.08891" lon="-3.54749">
        <ele>137.1</ele>
        <time>2025-02-25T14:46:41Z</time>
      </trkpt>
      <trkpt lat="48.0889" lon="-3.54749">
        <ele>137</ele>
        <time>2025-02-25T14:46:42Z</time>
      </trkpt>
      <trkpt lat="48.08889" lon="-3.5475">
        <ele>137</ele>
        <time>2025-02-25T14:46:43Z</time>
      </trkpt>
      <trkpt lat="48.08887" lon="-3.54751">
        <ele>136.9</ele>
        <time>2025-02-25T14:46:44Z</time>
      </trkpt>
      <trkpt lat="48.08886" lon="-3.54751">
        <ele>136.8</ele>
        <time>2025-02-25T14:46:45Z</time>
      </trkpt>
      <trkpt lat="48.08885" lon="-3.5475">
        <ele>136.7</ele>
        <time>2025-02-25T14:46:46Z</time>
      </trkpt>
      <trkpt lat="48.08884" lon="-3.5475">
        <ele>136.6</ele>
        <time>2025-02-25T14:46:47Z</time>
      </trkpt>
      <trkpt lat="48.08883" lon="-3.5475">
        <ele>136.6</ele>
        <time>2025-02-25T14:46:48Z</time>
      </trkpt>
      <trkpt lat="48.08882" lon="-3.5475">
        <ele>136.5</ele>
        <time>2025-02-25T14:46:49Z</time>
      </trkpt>
      <trkpt lat="48.08881" lon="-3.54749">
        <ele>136.3</ele>
        <time>2025-02-25T14:46:50Z</time>
      </trkpt>
      <trkpt lat="48.0888" lon="-3.5475">
        <ele>136.4</ele>
        <time>2025-02-25T14:46:51Z</time>
      </trkpt>
      <trkpt lat="48.08879" lon="-3.5475">
        <ele>136.3</ele>
        <time>2025-02-25T14:46:52Z</time>
      </trkpt>
      <trkpt lat="48.08877" lon="-3.54749">
        <ele>136</ele>
        <time>2025-02-25T14:46:53Z</time>
      </trkpt>
      <trkpt lat="48.08876" lon="-3.5475">
        <ele>136.1</ele>
        <time>2025-02-25T14:46:54Z</time>
      </trkpt>
      <trkpt lat="48.08875" lon="-3.5475">
        <ele>136</ele>
        <time>2025-02-25T14:46:55Z</time>
      </trkpt>
      <trkpt lat="48.08874" lon="-3.5475">
        <ele>135.9</ele>
        <time>2025-02-25T14:46:56Z</time>
      </trkpt>
      <trkpt lat="48.08872" lon="-3.54749">
        <ele>135.7</ele>
        <time>2025-02-25T14:46:57Z</time>
      </trkpt>
      <trkpt lat="48.08871" lon="-3.54749">
        <ele>135.6</ele>
        <time>2025-02-25T14:46:58Z</time>
      </trkpt>
      <trkpt lat="48.08871" lon="-3.54749">
        <ele>135.6</ele>
        <time>2025-02-25T14:46:59Z</time>
      </trkpt>
      <trkpt lat="48.0887" lon="-3.54748">
        <ele>135.4</ele>
        <time>2025-02-25T14:47:00Z</time>
      </trkpt>
      <trkpt lat="48.08869" lon="-3.54747">
        <ele>135.2</ele>
        <time>2025-02-25T14:47:01Z</time>
      </trkpt>
      <trkpt lat="48.08868" lon="-3.54747">
        <ele>135.2</ele>
        <time>2025-02-25T14:47:02Z</time>
      </trkpt>
      <trkpt lat="48.08867" lon="-3.54747">
        <ele>135.1</ele>
        <time>2025-02-25T14:47:03Z</time>
      </trkpt>
      <trkpt lat="48.08866" lon="-3.54748">
        <ele>135.1</ele>
        <time>2025-02-25T14:47:04Z</time>
      </trkpt>
      <trkpt lat="48.08865" lon="-3.54748">
        <ele>135.1</ele>
        <time>2025-02-25T14:47:05Z</time>
      </trkpt>
      <trkpt lat="48.08864" lon="-3.54748">
        <ele>135</ele>
        <time>2025-02-25T14:47:06Z</time>
      </trkpt>
      <trkpt lat="48.08863" lon="-3.54748">
        <ele>134.9</ele>
        <time>2025-02-25T14:47:07Z</time>
      </trkpt>
      <trkpt lat="48.08862" lon="-3.54748">
        <ele>134.8</ele>
        <time>2025-02-25T14:47:08Z</time>
      </trkpt>
      <trkpt lat="48.08861" lon="-3.54748">
        <ele>134.8</ele>
        <time>2025-02-25T14:47:09Z</time>
      </trkpt>
      <trkpt lat="48.0886" lon="-3.54748">
        <ele>134.7</ele>
        <time>2025-02-25T14:47:10Z</time>
      </trkpt>
      <trkpt lat="48.08859" lon="-3.54748">
        <ele>134.6</ele>
        <time>2025-02-25T14:47:11Z</time>
      </trkpt>
      <trkpt lat="48.08858" lon="-3.54747">
        <ele>134.3</ele>
        <time>2025-02-25T14:47:12Z</time>
      </trkpt>
      <trkpt lat="48.08857" lon="-3.54747">
        <ele>134.2</ele>
        <time>2025-02-25T14:47:13Z</time>
      </trkpt>
      <trkpt lat="48.08856" lon="-3.54747">
        <ele>134.1</ele>
        <time>2025-02-25T14:47:14Z</time>
      </trkpt>
      <trkpt lat="48.08854" lon="-3.54748">
        <ele>134</ele>
        <time>2025-02-25T14:47:15Z</time>
      </trkpt>
      <trkpt lat="48.08853" lon="-3.54747">
        <ele>133.8</ele>
        <time>2025-02-25T14:47:16Z</time>
      </trkpt>
      <trkpt lat="48.08852" lon="-3.54746">
        <ele>133.6</ele>
        <time>2025-02-25T14:47:17Z</time>
      </trkpt>
      <trkpt lat="48.0885" lon="-3.54746">
        <ele>133.4</ele>
        <time>2025-02-25T14:47:18Z</time>
      </trkpt>
      <trkpt lat="48.08849" lon="-3.54747">
        <ele>133.4</ele>
        <time>2025-02-25T14:47:19Z</time>
      </trkpt>
      <trkpt lat="48.08848" lon="-3.54748">
        <ele>133.4</ele>
        <time>2025-02-25T14:47:20Z</time>
      </trkpt>
      <trkpt lat="48.08847" lon="-3.54747">
        <ele>133.2</ele>
        <time>2025-02-25T14:47:21Z</time>
      </trkpt>
      <trkpt lat="48.08846" lon="-3.54747">
        <ele>133</ele>
        <time>2025-02-25T14:47:22Z</time>
      </trkpt>
      <trkpt lat="48.08845" lon="-3.54747">
        <ele>132.9</ele>
        <time>2025-02-25T14:47:23Z</time>
      </trkpt>
      <trkpt lat="48.08843" lon="-3.54747">
        <ele>132.7</ele>
        <time>2025-02-25T14:47:24Z</time>
      </trkpt>
      <trkpt lat="48.08842" lon="-3.54747">
        <ele>132.6</ele>
        <time>2025-02-25T14:47:25Z</time>
      </trkpt>
      <trkpt lat="48.08841" lon="-3.54747">
        <ele>132.5</ele>
        <time>2025-02-25T14:47:26Z</time>
      </trkpt>
      <trkpt lat="48.0884" lon="-3.54747">
        <ele>132.4</ele>
        <time>2025-02-25T14:47:27Z</time>
      </trkpt>
      <trkpt lat="48.08839" lon="-3.54746">
        <ele>132.2</ele>
        <time>2025-02-25T14:47:28Z</time>
      </trkpt>
      <trkpt lat="48.08838" lon="-3.54746">
        <ele>132.1</ele>
        <time>2025-02-25T14:47:29Z</time>
      </trkpt>
      <trkpt lat="48.08836" lon="-3.54746">
        <ele>131.9</ele>
        <time>2025-02-25T14:47:30Z</time>
      </trkpt>
      <trkpt lat="48.08835" lon="-3.54746">
        <ele>131.7</ele>
        <time>2025-02-25T14:47:31Z</time>
      </trkpt>
      <trkpt lat="48.08834" lon="-3.54747">
        <ele>131.7</ele>
        <time>2025-02-25T14:47:32Z</time>
      </trkpt>
      <trkpt lat="48.08833" lon="-3.54747">
        <ele>131.7</ele>
        <time>2025-02-25T14:47:33Z</time>
      </trkpt>
      <trkpt lat="48.08832" lon="-3.54746">
        <ele>131.5</ele>
        <time>2025-02-25T14:47:34Z</time>
      </trkpt>
      <trkpt lat="48.08831" lon="-3.54747">
        <ele>131.5</ele>
        <time>2025-02-25T14:47:35Z</time>
      </trkpt>
      <trkpt lat="48.0883" lon="-3.54747">
        <ele>131.4</ele>
        <time>2025-02-25T14:47:36Z</time>
      </trkpt>
      <trkpt lat="48.08829" lon="-3.54748">
        <ele>131.5</ele>
        <time>2025-02-25T14:47:37Z</time>
      </trkpt>
      <trkpt lat="48.08828" lon="-3.54747">
        <ele>131.3</ele>
        <time>2025-02-25T14:47:38Z</time>
      </trkpt>
      <trkpt lat="48.08827" lon="-3.54746">
        <ele>131.1</ele>
        <time>2025-02-25T14:47:39Z</time>
      </trkpt>
      <trkpt lat="48.08826" lon="-3.54747">
        <ele>131.1</ele>
        <time>2025-02-25T14:47:40Z</time>
      </trkpt>
      <trkpt lat="48.08825" lon="-3.54747">
        <ele>131.1</ele>
        <time>2025-02-25T14:47:41Z</time>
      </trkpt>
      <trkpt lat="48.08823" lon="-3.54746">
        <ele>130.8</ele>
        <time>2025-02-25T14:47:42Z</time>
      </trkpt>
      <trkpt lat="48.08822" lon="-3.54746">
        <ele>130.8</ele>
        <time>2025-02-25T14:47:43Z</time>
      </trkpt>
      <trkpt lat="48.08821" lon="-3.54746">
        <ele>130.7</ele>
        <time>2025-02-25T14:47:44Z</time>
      </trkpt>
      <trkpt lat="48.0882" lon="-3.54746">
        <ele>130.6</ele>
        <time>2025-02-25T14:47:45Z</time>
      </trkpt>
      <trkpt lat="48.08819" lon="-3.54746">
        <ele>130.5</ele>
        <time>2025-02-25T14:47:46Z</time>
      </trkpt>
      <trkpt lat="48.08818" lon="-3.54746">
        <ele>130.5</ele>
        <time>2025-02-25T14:47:47Z</time>
      </trkpt>
      <trkpt lat="48.08817" lon="-3.54746">
        <ele>130.4</ele>
        <time>2025-02-25T14:47:48Z</time>
      </trkpt>
      <trkpt lat="48.08816" lon="-3.54745">
        <ele>130.2</ele>
        <time>2025-02-25T14:47:49Z</time>
      </trkpt>
      <trkpt lat="48.08815" lon="-3.54746">
        <ele>130.2</ele>
        <time>2025-02-25T14:47:50Z</time>
      </trkpt>
      <trkpt lat="48.08813" lon="-3.54746">
        <ele>130.1</ele>
        <time>2025-02-25T14:47:51Z</time>
      </trkpt>
      <trkpt lat="48.08812" lon="-3.54745">
        <ele>129.9</ele>
        <time>2025-02-25T14:47:52Z</time>
      </trkpt>
      <trkpt lat="48.08811" lon="-3.54744">
        <ele>129.7</ele>
        <time>2025-02-25T14:47:53Z</time>
      </trkpt>
      <trkpt lat="48.08811" lon="-3.54744">
        <ele>129.7</ele>
        <time>2025-02-25T14:47:54Z</time>
      </trkpt>
      <trkpt lat="48.0881" lon="-3.54744">
        <ele>129.7</ele>
        <time>2025-02-25T14:47:55Z</time>
      </trkpt>
      <trkpt lat="48.08809" lon="-3.54744">
        <ele>129.6</ele>
        <time>2025-02-25T14:47:56Z</time>
      </trkpt>
      <trkpt lat="48.08808" lon="-3.54745">
        <ele>129.6</ele>
        <time>2025-02-25T14:47:57Z</time>
      </trkpt>
      <trkpt lat="48.08807" lon="-3.54744">
        <ele>129.5</ele>
        <time>2025-02-25T14:47:58Z</time>
      </trkpt>
      <trkpt lat="48.08806" lon="-3.54744">
        <ele>129.4</ele>
        <time>2025-02-25T14:47:59Z</time>
      </trkpt>
      <trkpt lat="48.08804" lon="-3.54744">
        <ele>129.3</ele>
        <time>2025-02-25T14:48:00Z</time>
      </trkpt>
      <trkpt lat="48.08803" lon="-3.54744">
        <ele>129.2</ele>
        <time>2025-02-25T14:48:01Z</time>
      </trkpt>
      <trkpt lat="48.08802" lon="-3.54744">
        <ele>129.2</ele>
        <time>2025-02-25T14:48:02Z</time>
      </trkpt>
      <trkpt lat="48.08801" lon="-3.54744">
        <ele>129.2</ele>
        <time>2025-02-25T14:48:03Z</time>
      </trkpt>
      <trkpt lat="48.08801" lon="-3.54743">
        <ele>129</ele>
        <time>2025-02-25T14:48:04Z</time>
      </trkpt>
      <trkpt lat="48.088" lon="-3.54743">
        <ele>129</ele>
        <time>2025-02-25T14:48:05Z</time>
      </trkpt>
      <trkpt lat="48.08799" lon="-3.54743">
        <ele>128.9</ele>
        <time>2025-02-25T14:48:06Z</time>
      </trkpt>
      <trkpt lat="48.08798" lon="-3.54743">
        <ele>128.9</ele>
        <time>2025-02-25T14:48:07Z</time>
      </trkpt>
      <trkpt lat="48.08797" lon="-3.54743">
        <ele>128.9</ele>
        <time>2025-02-25T14:48:08Z</time>
      </trkpt>
      <trkpt lat="48.08796" lon="-3.54742">
        <ele>128.7</ele>
        <time>2025-02-25T14:48:09Z</time>
      </trkpt>
      <trkpt lat="48.08795" lon="-3.54742">
        <ele>128.6</ele>
        <time>2025-02-25T14:48:10Z</time>
      </trkpt>
      <trkpt lat="48.08794" lon="-3.54742">
        <ele>128.6</ele>
        <time>2025-02-25T14:48:11Z</time>
      </trkpt>
      <trkpt lat="48.08793" lon="-3.54742">
        <ele>128.6</ele>
        <time>2025-02-25T14:48:12Z</time>
      </trkpt>
      <trkpt lat="48.08792" lon="-3.54741">
        <ele>128.4</ele>
        <time>2025-02-25T14:48:13Z</time>
      </trkpt>
      <trkpt lat="48.08791" lon="-3.54741">
        <ele>128.3</ele>
        <time>2025-02-25T14:48:14Z</time>
      </trkpt>
      <trkpt lat="48.0879" lon="-3.54741">
        <ele>128.3</ele>
        <time>2025-02-25T14:48:15Z</time>
      </trkpt>
      <trkpt lat="48.08789" lon="-3.54741">
        <ele>128.2</ele>
        <time>2025-02-25T14:48:16Z</time>
      </trkpt>
      <trkpt lat="48.08788" lon="-3.54741">
        <ele>128.2</ele>
        <time>2025-02-25T14:48:17Z</time>
      </trkpt>
      <trkpt lat="48.08787" lon="-3.54741">
        <ele>128.1</ele>
        <time>2025-02-25T14:48:18Z</time>
      </trkpt>
      <trkpt lat="48.08786" lon="-3.5474">
        <ele>128</ele>
        <time>2025-02-25T14:48:19Z</time>
      </trkpt>
      <trkpt lat="48.08785" lon="-3.54739">
        <ele>127.8</ele>
        <time>2025-02-25T14:48:20Z</time>
      </trkpt>
      <trkpt lat="48.08784" lon="-3.54739">
        <ele>127.7</ele>
        <time>2025-02-25T14:48:21Z</time>
      </trkpt>
      <trkpt lat="48.08783" lon="-3.54739">
        <ele>127.7</ele>
        <time>2025-02-25T14:48:22Z</time>
      </trkpt>
      <trkpt lat="48.08781" lon="-3.54739">
        <ele>127.6</ele>
        <time>2025-02-25T14:48:23Z</time>
      </trkpt>
      <trkpt lat="48.0878" lon="-3.54739">
        <ele>127.5</ele>
        <time>2025-02-25T14:48:24Z</time>
      </trkpt>
      <trkpt lat="48.08779" lon="-3.54738">
        <ele>127.3</ele>
        <time>2025-02-25T14:48:25Z</time>
      </trkpt>
      <trkpt lat="48.08778" lon="-3.54738">
        <ele>127.3</ele>
        <time>2025-02-25T14:48:26Z</time>
      </trkpt>
      <trkpt lat="48.08777" lon="-3.54738">
        <ele>127.2</ele>
        <time>2025-02-25T14:48:27Z</time>
      </trkpt>
      <trkpt lat="48.08776" lon="-3.54738">
        <ele>127.2</ele>
        <time>2025-02-25T14:48:28Z</time>
      </trkpt>
      <trkpt lat="48.08775" lon="-3.54738">
        <ele>127.1</ele>
        <time>2025-02-25T14:48:29Z</time>
      </trkpt>
      <trkpt lat="48.08774" lon="-3.54738">
        <ele>127.1</ele>
        <time>2025-02-25T14:48:30Z</time>
      </trkpt>
      <trkpt lat="48.08772" lon="-3.54738">
        <ele>126.9</ele>
        <time>2025-02-25T14:48:31Z</time>
      </trkpt>
      <trkpt lat="48.08771" lon="-3.54736">
        <ele>126.6</ele>
        <time>2025-02-25T14:48:32Z</time>
      </trkpt>
      <trkpt lat="48.0877" lon="-3.54735">
        <ele>126.4</ele>
        <time>2025-02-25T14:48:33Z</time>
      </trkpt>
      <trkpt lat="48.08769" lon="-3.54735">
        <ele>126.4</ele>
        <time>2025-02-25T14:48:34Z</time>
      </trkpt>
      <trkpt lat="48.08768" lon="-3.54734">
        <ele>126.2</ele>
        <time>2025-02-25T14:48:35Z</time>
      </trkpt>
      <trkpt lat="48.08767" lon="-3.54734">
        <ele>126.1</ele>
        <time>2025-02-25T14:48:36Z</time>
      </trkpt>
      <trkpt lat="48.08766" lon="-3.54735">
        <ele>126.2</ele>
        <time>2025-02-25T14:48:37Z</time>
      </trkpt>
      <trkpt lat="48.08764" lon="-3.54734">
        <ele>126</ele>
        <time>2025-02-25T14:48:38Z</time>
      </trkpt>
      <trkpt lat="48.08763" lon="-3.54734">
        <ele>125.9</ele>
        <time>2025-02-25T14:48:39Z</time>
      </trkpt>
      <trkpt lat="48.08762" lon="-3.54733">
        <ele>125.8</ele>
        <time>2025-02-25T14:48:40Z</time>
      </trkpt>
      <trkpt lat="48.08761" lon="-3.54732">
        <ele>125.6</ele>
        <time>2025-02-25T14:48:41Z</time>
      </trkpt>
      <trkpt lat="48.0876" lon="-3.54731">
        <ele>125.4</ele>
        <time>2025-02-25T14:48:42Z</time>
      </trkpt>
      <trkpt lat="48.08759" lon="-3.5473">
        <ele>125.3</ele>
        <time>2025-02-25T14:48:43Z</time>
      </trkpt>
      <trkpt lat="48.08758" lon="-3.5473">
        <ele>125.2</ele>
        <time>2025-02-25T14:48:44Z</time>
      </trkpt>
      <trkpt lat="48.08757" lon="-3.5473">
        <ele>125.2</ele>
        <time>2025-02-25T14:48:45Z</time>
      </trkpt>
      <trkpt lat="48.08757" lon="-3.54729">
        <ele>125</ele>
        <time>2025-02-25T14:48:46Z</time>
      </trkpt>
      <trkpt lat="48.08755" lon="-3.54728">
        <ele>124.8</ele>
        <time>2025-02-25T14:48:47Z</time>
      </trkpt>
      <trkpt lat="48.08754" lon="-3.54727">
        <ele>124.7</ele>
        <time>2025-02-25T14:48:48Z</time>
      </trkpt>
      <trkpt lat="48.08753" lon="-3.54727">
        <ele>124.6</ele>
        <time>2025-02-25T14:48:49Z</time>
      </trkpt>
      <trkpt lat="48.08752" lon="-3.54726">
        <ele>124.5</ele>
        <time>2025-02-25T14:48:50Z</time>
      </trkpt>
      <trkpt lat="48.08751" lon="-3.54725">
        <ele>124.3</ele>
        <time>2025-02-25T14:48:51Z</time>
      </trkpt>
      <trkpt lat="48.0875" lon="-3.54724">
        <ele>124.2</ele>
        <time>2025-02-25T14:48:52Z</time>
      </trkpt>
      <trkpt lat="48.08749" lon="-3.54722">
        <ele>124</ele>
        <time>2025-02-25T14:48:53Z</time>
      </trkpt>
      <trkpt lat="48.08748" lon="-3.54721">
        <ele>123.8</ele>
        <time>2025-02-25T14:48:54Z</time>
      </trkpt>
      <trkpt lat="48.08747" lon="-3.5472">
        <ele>123.7</ele>
        <time>2025-02-25T14:48:55Z</time>
      </trkpt>
      <trkpt lat="48.08747" lon="-3.54719">
        <ele>123.5</ele>
        <time>2025-02-25T14:48:56Z</time>
      </trkpt>
      <trkpt lat="48.08746" lon="-3.54719">
        <ele>123.6</ele>
        <time>2025-02-25T14:48:57Z</time>
      </trkpt>
      <trkpt lat="48.08745" lon="-3.54718">
        <ele>123.4</ele>
        <time>2025-02-25T14:48:58Z</time>
      </trkpt>
      <trkpt lat="48.08744" lon="-3.54718">
        <ele>123.4</ele>
        <time>2025-02-25T14:48:59Z</time>
      </trkpt>
      <trkpt lat="48.08743" lon="-3.54718">
        <ele>123.4</ele>
        <time>2025-02-25T14:49:00Z</time>
      </trkpt>
      <trkpt lat="48.08742" lon="-3.54716">
        <ele>123.2</ele>
        <time>2025-02-25T14:49:01Z</time>
      </trkpt>
      <trkpt lat="48.08741" lon="-3.54715">
        <ele>123</ele>
        <time>2025-02-25T14:49:02Z</time>
      </trkpt>
      <trkpt lat="48.0874" lon="-3.54714">
        <ele>122.9</ele>
        <time>2025-02-25T14:49:03Z</time>
      </trkpt>
      <trkpt lat="48.08739" lon="-3.54714">
        <ele>122.9</ele>
        <time>2025-02-25T14:49:04Z</time>
      </trkpt>
      <trkpt lat="48.08738" lon="-3.54713">
        <ele>122.8</ele>
        <time>2025-02-25T14:49:05Z</time>
      </trkpt>
      <trkpt lat="48.08737" lon="-3.54713">
        <ele>122.8</ele>
        <time>2025-02-25T14:49:06Z</time>
      </trkpt>
      <trkpt lat="48.08736" lon="-3.54713">
        <ele>122.8</ele>
        <time>2025-02-25T14:49:07Z</time>
      </trkpt>
      <trkpt lat="48.08735" lon="-3.54712">
        <ele>122.7</ele>
        <time>2025-02-25T14:49:08Z</time>
      </trkpt>
      <trkpt lat="48.08734" lon="-3.54711">
        <ele>122.6</ele>
        <time>2025-02-25T14:49:09Z</time>
      </trkpt>
      <trkpt lat="48.08733" lon="-3.5471">
        <ele>122.5</ele>
        <time>2025-02-25T14:49:10Z</time>
      </trkpt>
      <trkpt lat="48.08733" lon="-3.54709">
        <ele>122.4</ele>
        <time>2025-02-25T14:49:11Z</time>
      </trkpt>
      <trkpt lat="48.08732" lon="-3.54709">
        <ele>122.4</ele>
        <time>2025-02-25T14:49:12Z</time>
      </trkpt>
      <trkpt lat="48.08731" lon="-3.54708">
        <ele>122.3</ele>
        <time>2025-02-25T14:49:13Z</time>
      </trkpt>
      <trkpt lat="48.0873" lon="-3.54708">
        <ele>122.3</ele>
        <time>2025-02-25T14:49:14Z</time>
      </trkpt>
      <trkpt lat="48.08729" lon="-3.54708">
        <ele>122.3</ele>
        <time>2025-02-25T14:49:15Z</time>
      </trkpt>
      <trkpt lat="48.08728" lon="-3.54707">
        <ele>122.2</ele>
        <time>2025-02-25T14:49:16Z</time>
      </trkpt>
      <trkpt lat="48.08727" lon="-3.54706">
        <ele>122.1</ele>
        <time>2025-02-25T14:49:17Z</time>
      </trkpt>
      <trkpt lat="48.08726" lon="-3.54706">
        <ele>122.2</ele>
        <time>2025-02-25T14:49:18Z</time>
      </trkpt>
      <trkpt lat="48.08725" lon="-3.54705">
        <ele>122.1</ele>
        <time>2025-02-25T14:49:19Z</time>
      </trkpt>
      <trkpt lat="48.08725" lon="-3.54704">
        <ele>122</ele>
        <time>2025-02-25T14:49:20Z</time>
      </trkpt>
      <trkpt lat="48.08724" lon="-3.54704">
        <ele>122</ele>
        <time>2025-02-25T14:49:21Z</time>
      </trkpt>
      <trkpt lat="48.08723" lon="-3.54703">
        <ele>121.9</ele>
        <time>2025-02-25T14:49:22Z</time>
      </trkpt>
      <trkpt lat="48.08722" lon="-3.54702">
        <ele>121.8</ele>
        <time>2025-02-25T14:49:23Z</time>
      </trkpt>
      <trkpt lat="48.08721" lon="-3.54701">
        <ele>121.7</ele>
        <time>2025-02-25T14:49:24Z</time>
      </trkpt>
      <trkpt lat="48.0872" lon="-3.54701">
        <ele>121.6</ele>
        <time>2025-02-25T14:49:25Z</time>
      </trkpt>
      <trkpt lat="48.08719" lon="-3.547">
        <ele>121.5</ele>
        <time>2025-02-25T14:49:26Z</time>
      </trkpt>
      <trkpt lat="48.08718" lon="-3.547">
        <ele>121.4</ele>
        <time>2025-02-25T14:49:27Z</time>
      </trkpt>
      <trkpt lat="48.08717" lon="-3.54699">
        <ele>121.3</ele>
        <time>2025-02-25T14:49:28Z</time>
      </trkpt>
      <trkpt lat="48.08716" lon="-3.54698">
        <ele>121.1</ele>
        <time>2025-02-25T14:49:29Z</time>
      </trkpt>
      <trkpt lat="48.08715" lon="-3.54697">
        <ele>121</ele>
        <time>2025-02-25T14:49:30Z</time>
      </trkpt>
      <trkpt lat="48.08714" lon="-3.54697">
        <ele>121</ele>
        <time>2025-02-25T14:49:31Z</time>
      </trkpt>
      <trkpt lat="48.08713" lon="-3.54695">
        <ele>120.7</ele>
        <time>2025-02-25T14:49:32Z</time>
      </trkpt>
      <trkpt lat="48.08712" lon="-3.54695">
        <ele>120.7</ele>
        <time>2025-02-25T14:49:33Z</time>
      </trkpt>
      <trkpt lat="48.08711" lon="-3.54694">
        <ele>120.5</ele>
        <time>2025-02-25T14:49:34Z</time>
      </trkpt>
      <trkpt lat="48.0871" lon="-3.54693">
        <ele>120.4</ele>
        <time>2025-02-25T14:49:35Z</time>
      </trkpt>
      <trkpt lat="48.0871" lon="-3.54692">
        <ele>120.3</ele>
        <time>2025-02-25T14:49:36Z</time>
      </trkpt>
      <trkpt lat="48.08709" lon="-3.54691">
        <ele>120.1</ele>
        <time>2025-02-25T14:49:37Z</time>
      </trkpt>
      <trkpt lat="48.08707" lon="-3.5469">
        <ele>120</ele>
        <time>2025-02-25T14:49:38Z</time>
      </trkpt>
      <trkpt lat="48.08706" lon="-3.5469">
        <ele>120</ele>
        <time>2025-02-25T14:49:39Z</time>
      </trkpt>
      <trkpt lat="48.08705" lon="-3.5469">
        <ele>119.9</ele>
        <time>2025-02-25T14:49:40Z</time>
      </trkpt>
      <trkpt lat="48.08704" lon="-3.54689">
        <ele>119.8</ele>
        <time>2025-02-25T14:49:41Z</time>
      </trkpt>
      <trkpt lat="48.08703" lon="-3.54688">
        <ele>119.7</ele>
        <time>2025-02-25T14:49:42Z</time>
      </trkpt>
      <trkpt lat="48.08703" lon="-3.54687">
        <ele>119.6</ele>
        <time>2025-02-25T14:49:43Z</time>
      </trkpt>
      <trkpt lat="48.08701" lon="-3.54686">
        <ele>119.5</ele>
        <time>2025-02-25T14:49:44Z</time>
      </trkpt>
      <trkpt lat="48.087" lon="-3.54685">
        <ele>119.4</ele>
        <time>2025-02-25T14:49:45Z</time>
      </trkpt>
      <trkpt lat="48.08699" lon="-3.54684">
        <ele>119.3</ele>
        <time>2025-02-25T14:49:46Z</time>
      </trkpt>
      <trkpt lat="48.08698" lon="-3.54684">
        <ele>119.3</ele>
        <time>2025-02-25T14:49:47Z</time>
      </trkpt>
      <trkpt lat="48.08698" lon="-3.54683">
        <ele>119.2</ele>
        <time>2025-02-25T14:49:48Z</time>
      </trkpt>
      <trkpt lat="48.08697" lon="-3.54683">
        <ele>119.2</ele>
        <time>2025-02-25T14:49:49Z</time>
      </trkpt>
      <trkpt lat="48.08696" lon="-3.54682">
        <ele>119.1</ele>
        <time>2025-02-25T14:49:50Z</time>
      </trkpt>
      <trkpt lat="48.08694" lon="-3.54682">
        <ele>119.1</ele>
        <time>2025-02-25T14:49:51Z</time>
      </trkpt>
      <trkpt lat="48.08694" lon="-3.54681">
        <ele>119</ele>
        <time>2025-02-25T14:49:52Z</time>
      </trkpt>
      <trkpt lat="48.08693" lon="-3.5468">
        <ele>118.9</ele>
        <time>2025-02-25T14:49:53Z</time>
      </trkpt>
      <trkpt lat="48.08693" lon="-3.54678">
        <ele>118.8</ele>
        <time>2025-02-25T14:49:54Z</time>
      </trkpt>
      <trkpt lat="48.08692" lon="-3.54677">
        <ele>118.7</ele>
        <time>2025-02-25T14:49:55Z</time>
      </trkpt>
      <trkpt lat="48.08691" lon="-3.54676">
        <ele>118.5</ele>
        <time>2025-02-25T14:49:56Z</time>
      </trkpt>
      <trkpt lat="48.0869" lon="-3.54675">
        <ele>118.4</ele>
        <time>2025-02-25T14:49:57Z</time>
      </trkpt>
      <trkpt lat="48.08689" lon="-3.54674">
        <ele>118.3</ele>
        <time>2025-02-25T14:49:58Z</time>
      </trkpt>
      <trkpt lat="48.08688" lon="-3.54672">
        <ele>118.2</ele>
        <time>2025-02-25T14:49:59Z</time>
      </trkpt>
      <trkpt lat="48.08688" lon="-3.54671">
        <ele>118.1</ele>
        <time>2025-02-25T14:50:00Z</time>
      </trkpt>
      <trkpt lat="48.08687" lon="-3.5467">
        <ele>118</ele>
        <time>2025-02-25T14:50:01Z</time>
      </trkpt>
      <trkpt lat="48.08685" lon="-3.5467">
        <ele>117.9</ele>
        <time>2025-02-25T14:50:02Z</time>
      </trkpt>
      <trkpt lat="48.08684" lon="-3.5467">
        <ele>117.9</ele>
        <time>2025-02-25T14:50:03Z</time>
      </trkpt>
      <trkpt lat="48.08683" lon="-3.5467">
        <ele>117.8</ele>
        <time>2025-02-25T14:50:04Z</time>
      </trkpt>
      <trkpt lat="48.08683" lon="-3.54669">
        <ele>117.8</ele>
        <time>2025-02-25T14:50:05Z</time>
      </trkpt>
      <trkpt lat="48.08682" lon="-3.54668">
        <ele>117.6</ele>
        <time>2025-02-25T14:50:06Z</time>
      </trkpt>
      <trkpt lat="48.08681" lon="-3.54668">
        <ele>117.6</ele>
        <time>2025-02-25T14:50:07Z</time>
      </trkpt>
      <trkpt lat="48.0868" lon="-3.54667">
        <ele>117.5</ele>
        <time>2025-02-25T14:50:08Z</time>
      </trkpt>
      <trkpt lat="48.08679" lon="-3.54666">
        <ele>117.4</ele>
        <time>2025-02-25T14:50:09Z</time>
      </trkpt>
      <trkpt lat="48.08678" lon="-3.54665">
        <ele>117.3</ele>
        <time>2025-02-25T14:50:10Z</time>
      </trkpt>
      <trkpt lat="48.08677" lon="-3.54666">
        <ele>117.3</ele>
        <time>2025-02-25T14:50:11Z</time>
      </trkpt>
      <trkpt lat="48.08676" lon="-3.54667">
        <ele>117.4</ele>
        <time>2025-02-25T14:50:12Z</time>
      </trkpt>
      <trkpt lat="48.08675" lon="-3.54667">
        <ele>117.3</ele>
        <time>2025-02-25T14:50:13Z</time>
      </trkpt>
      <trkpt lat="48.08674" lon="-3.54668">
        <ele>117.4</ele>
        <time>2025-02-25T14:50:14Z</time>
      </trkpt>
      <trkpt lat="48.08673" lon="-3.54669">
        <ele>117.4</ele>
        <time>2025-02-25T14:50:15Z</time>
      </trkpt>
      <trkpt lat="48.08673" lon="-3.54669">
        <ele>117.4</ele>
        <time>2025-02-25T14:50:16Z</time>
      </trkpt>
      <trkpt lat="48.08672" lon="-3.5467">
        <ele>117.4</ele>
        <time>2025-02-25T14:50:17Z</time>
      </trkpt>
      <trkpt lat="48.08672" lon="-3.54672">
        <ele>117.6</ele>
        <time>2025-02-25T14:50:18Z</time>
      </trkpt>
      <trkpt lat="48.08671" lon="-3.54673">
        <ele>117.6</ele>
        <time>2025-02-25T14:50:19Z</time>
      </trkpt>
      <trkpt lat="48.08671" lon="-3.54674">
        <ele>117.7</ele>
        <time>2025-02-25T14:50:20Z</time>
      </trkpt>
      <trkpt lat="48.0867" lon="-3.54674">
        <ele>117.6</ele>
        <time>2025-02-25T14:50:21Z</time>
      </trkpt>
      <trkpt lat="48.08669" lon="-3.54675">
        <ele>117.7</ele>
        <time>2025-02-25T14:50:22Z</time>
      </trkpt>
      <trkpt lat="48.08669" lon="-3.54677">
        <ele>117.8</ele>
        <time>2025-02-25T14:50:23Z</time>
      </trkpt>
      <trkpt lat="48.08668" lon="-3.54679">
        <ele>117.9</ele>
        <time>2025-02-25T14:50:24Z</time>
      </trkpt>
      <trkpt lat="48.08668" lon="-3.5468">
        <ele>118</ele>
        <time>2025-02-25T14:50:25Z</time>
      </trkpt>
      <trkpt lat="48.08668" lon="-3.54681">
        <ele>118.1</ele>
        <time>2025-02-25T14:50:26Z</time>
      </trkpt>
      <trkpt lat="48.08668" lon="-3.54682">
        <ele>118.2</ele>
        <time>2025-02-25T14:50:27Z</time>
      </trkpt>
      <trkpt lat="48.08669" lon="-3.54682">
        <ele>118.2</ele>
        <time>2025-02-25T14:50:28Z</time>
      </trkpt>
      <trkpt lat="48.08669" lon="-3.54683">
        <ele>118.3</ele>
        <time>2025-02-25T14:50:29Z</time>
      </trkpt>
      <trkpt lat="48.08668" lon="-3.54684">
        <ele>118.3</ele>
        <time>2025-02-25T14:50:30Z</time>
      </trkpt>
      <trkpt lat="48.08668" lon="-3.54684">
        <ele>118.3</ele>
        <time>2025-02-25T14:50:31Z</time>
      </trkpt>
      <trkpt lat="48.08668" lon="-3.54684">
        <ele>118.3</ele>
        <time>2025-02-25T14:50:32Z</time>
      </trkpt>
      <trkpt lat="48.08668" lon="-3.54684">
        <ele>118.3</ele>
        <time>2025-02-25T14:50:33Z</time>
      </trkpt>
      <trkpt lat="48.08668" lon="-3.54684">
        <ele>118.3</ele>
        <time>2025-02-25T14:50:34Z</time>
      </trkpt>
      <trkpt lat="48.08669" lon="-3.54685">
        <ele>118.4</ele>
        <time>2025-02-25T14:50:35Z</time>
      </trkpt>
      <trkpt lat="48.08669" lon="-3.54685">
        <ele>118.4</ele>
        <time>2025-02-25T14:50:36Z</time>
      </trkpt>
      <trkpt lat="48.08668" lon="-3.54685">
        <ele>118.4</ele>
        <time>2025-02-25T14:50:37Z</time>
      </trkpt>
      <trkpt lat="48.08668" lon="-3.54685">
        <ele>118.4</ele>
        <time>2025-02-25T14:50:38Z</time>
      </trkpt>
      <trkpt lat="48.08668" lon="-3.54685">
        <ele>118.4</ele>
        <time>2025-02-25T14:50:39Z</time>
      </trkpt>
      <trkpt lat="48.08668" lon="-3.54685">
        <ele>118.4</ele>
        <time>2025-02-25T14:50:40Z</time>
      </trkpt>
      <trkpt lat="48.08668" lon="-3.54686">
        <ele>118.4</ele>
        <time>2025-02-25T14:50:41Z</time>
      </trkpt>
      <trkpt lat="48.08668" lon="-3.54687">
        <ele>118.5</ele>
        <time>2025-02-25T14:50:42Z</time>
      </trkpt>
      <trkpt lat="48.08667" lon="-3.54688">
        <ele>118.5</ele>
        <time>2025-02-25T14:50:43Z</time>
      </trkpt>
      <trkpt lat="48.08667" lon="-3.54689">
        <ele>118.6</ele>
        <time>2025-02-25T14:50:44Z</time>
      </trkpt>
      <trkpt lat="48.08667" lon="-3.54689">
        <ele>118.6</ele>
        <time>2025-02-25T14:50:45Z</time>
      </trkpt>
      <trkpt lat="48.08668" lon="-3.5469">
        <ele>118.7</ele>
        <time>2025-02-25T14:50:46Z</time>
      </trkpt>
      <trkpt lat="48.08668" lon="-3.5469">
        <ele>118.7</ele>
        <time>2025-02-25T14:50:47Z</time>
      </trkpt>
      <trkpt lat="48.08668" lon="-3.54691">
        <ele>118.8</ele>
        <time>2025-02-25T14:50:48Z</time>
      </trkpt>
      <trkpt lat="48.08668" lon="-3.54691">
        <ele>118.8</ele>
        <time>2025-02-25T14:50:49Z</time>
      </trkpt>
      <trkpt lat="48.08669" lon="-3.54691">
        <ele>118.8</ele>
        <time>2025-02-25T14:50:50Z</time>
      </trkpt>
      <trkpt lat="48.08669" lon="-3.54691">
        <ele>118.8</ele>
        <time>2025-02-25T14:50:51Z</time>
      </trkpt>
      <trkpt lat="48.08669" lon="-3.54692">
        <ele>118.9</ele>
        <time>2025-02-25T14:50:52Z</time>
      </trkpt>
      <trkpt lat="48.08668" lon="-3.54694">
        <ele>119</ele>
        <time>2025-02-25T14:50:53Z</time>
      </trkpt>
      <trkpt lat="48.08668" lon="-3.54695">
        <ele>119.1</ele>
        <time>2025-02-25T14:50:54Z</time>
      </trkpt>
      <trkpt lat="48.08668" lon="-3.54697">
        <ele>119.1</ele>
        <time>2025-02-25T14:50:55Z</time>
      </trkpt>
      <trkpt lat="48.08667" lon="-3.54698">
        <ele>119.1</ele>
        <time>2025-02-25T14:50:56Z</time>
      </trkpt>
      <trkpt lat="48.08667" lon="-3.54699">
        <ele>119.2</ele>
        <time>2025-02-25T14:50:57Z</time>
      </trkpt>
      <trkpt lat="48.08667" lon="-3.547">
        <ele>119.2</ele>
        <time>2025-02-25T14:50:58Z</time>
      </trkpt>
      <trkpt lat="48.08667" lon="-3.54701">
        <ele>119.3</ele>
        <time>2025-02-25T14:50:59Z</time>
      </trkpt>
      <trkpt lat="48.08666" lon="-3.54703">
        <ele>119.2</ele>
        <time>2025-02-25T14:51:00Z</time>
      </trkpt>
      <trkpt lat="48.08666" lon="-3.54704">
        <ele>119.2</ele>
        <time>2025-02-25T14:51:01Z</time>
      </trkpt>
      <trkpt lat="48.08666" lon="-3.54705">
        <ele>119.3</ele>
        <time>2025-02-25T14:51:02Z</time>
      </trkpt>
      <trkpt lat="48.08666" lon="-3.54707">
        <ele>119.4</ele>
        <time>2025-02-25T14:51:03Z</time>
      </trkpt>
      <trkpt lat="48.08667" lon="-3.54708">
        <ele>119.5</ele>
        <time>2025-02-25T14:51:04Z</time>
      </trkpt>
      <trkpt lat="48.08668" lon="-3.54704">
        <ele>119.4</ele>
        <time>2025-02-25T14:51:05Z</time>
      </trkpt>
      <trkpt lat="48.08669" lon="-3.54703">
        <ele>119.4</ele>
        <time>2025-02-25T14:51:06Z</time>
      </trkpt>
      <trkpt lat="48.08669" lon="-3.54703">
        <ele>119.4</ele>
        <time>2025-02-25T14:51:07Z</time>
      </trkpt>
      <trkpt lat="48.08669" lon="-3.54703">
        <ele>119.4</ele>
        <time>2025-02-25T14:51:08Z</time>
      </trkpt>
      <trkpt lat="48.08669" lon="-3.54705">
        <ele>119.5</ele>
        <time>2025-02-25T14:51:09Z</time>
      </trkpt>
      <trkpt lat="48.08667" lon="-3.54706">
        <ele>119.4</ele>
        <time>2025-02-25T14:51:10Z</time>
      </trkpt>
      <trkpt lat="48.08666" lon="-3.54709">
        <ele>119.4</ele>
        <time>2025-02-25T14:51:11Z</time>
      </trkpt>
      <trkpt lat="48.08665" lon="-3.54711">
        <ele>119.4</ele>
        <time>2025-02-25T14:51:12Z</time>
      </trkpt>
      <trkpt lat="48.08664" lon="-3.54713">
        <ele>119.3</ele>
        <time>2025-02-25T14:51:13Z</time>
      </trkpt>
      <trkpt lat="48.08664" lon="-3.54715">
        <ele>119.4</ele>
        <time>2025-02-25T14:51:14Z</time>
      </trkpt>
      <trkpt lat="48.08664" lon="-3.54717">
        <ele>119.4</ele>
        <time>2025-02-25T14:51:15Z</time>
      </trkpt>
      <trkpt lat="48.08664" lon="-3.54719">
        <ele>119.5</ele>
        <time>2025-02-25T14:51:16Z</time>
      </trkpt>
      <trkpt lat="48.08665" lon="-3.54721">
        <ele>119.7</ele>
        <time>2025-02-25T14:51:17Z</time>
      </trkpt>
      <trkpt lat="48.08664" lon="-3.54723">
        <ele>119.6</ele>
        <time>2025-02-25T14:51:18Z</time>
      </trkpt>
      <trkpt lat="48.08664" lon="-3.54724">
        <ele>119.7</ele>
        <time>2025-02-25T14:51:19Z</time>
      </trkpt>
      <trkpt lat="48.08664" lon="-3.54726">
        <ele>119.8</ele>
        <time>2025-02-25T14:51:20Z</time>
      </trkpt>
      <trkpt lat="48.08664" lon="-3.54728">
        <ele>119.8</ele>
        <time>2025-02-25T14:51:21Z</time>
      </trkpt>
      <trkpt lat="48.08664" lon="-3.54729">
        <ele>119.9</ele>
        <time>2025-02-25T14:51:22Z</time>
      </trkpt>
      <trkpt lat="48.08664" lon="-3.54731">
        <ele>119.9</ele>
        <time>2025-02-25T14:51:23Z</time>
      </trkpt>
      <trkpt lat="48.08665" lon="-3.54732">
        <ele>120.1</ele>
        <time>2025-02-25T14:51:24Z</time>
      </trkpt>
      <trkpt lat="48.08664" lon="-3.54734">
        <ele>120</ele>
        <time>2025-02-25T14:51:25Z</time>
      </trkpt>
      <trkpt lat="48.08665" lon="-3.54735">
        <ele>120.2</ele>
        <time>2025-02-25T14:51:26Z</time>
      </trkpt>
      <trkpt lat="48.08664" lon="-3.54737">
        <ele>120.1</ele>
        <time>2025-02-25T14:51:27Z</time>
      </trkpt>
      <trkpt lat="48.08664" lon="-3.54738">
        <ele>120.2</ele>
        <time>2025-02-25T14:51:28Z</time>
      </trkpt>
      <trkpt lat="48.08663" lon="-3.54739">
        <ele>120.1</ele>
        <time>2025-02-25T14:51:29Z</time>
      </trkpt>
      <trkpt lat="48.08662" lon="-3.54741">
        <ele>120</ele>
        <time>2025-02-25T14:51:30Z</time>
      </trkpt>
      <trkpt lat="48.08663" lon="-3.54743">
        <ele>120.2</ele>
        <time>2025-02-25T14:51:31Z</time>
      </trkpt>
      <trkpt lat="48.08663" lon="-3.54744">
        <ele>120.3</ele>
        <time>2025-02-25T14:51:32Z</time>
      </trkpt>
      <trkpt lat="48.08663" lon="-3.54746">
        <ele>120.3</ele>
        <time>2025-02-25T14:51:33Z</time>
      </trkpt>
      <trkpt lat="48.08663" lon="-3.54748">
        <ele>120.4</ele>
        <time>2025-02-25T14:51:34Z</time>
      </trkpt>
      <trkpt lat="48.08663" lon="-3.5475">
        <ele>120.5</ele>
        <time>2025-02-25T14:51:35Z</time>
      </trkpt>
      <trkpt lat="48.08663" lon="-3.54752">
        <ele>120.5</ele>
        <time>2025-02-25T14:51:36Z</time>
      </trkpt>
      <trkpt lat="48.08663" lon="-3.54754">
        <ele>120.5</ele>
        <time>2025-02-25T14:51:37Z</time>
      </trkpt>
      <trkpt lat="48.08664" lon="-3.54755">
        <ele>120.6</ele>
        <time>2025-02-25T14:51:38Z</time>
      </trkpt>
      <trkpt lat="48.08664" lon="-3.54757">
        <ele>120.6</ele>
        <time>2025-02-25T14:51:39Z</time>
      </trkpt>
      <trkpt lat="48.08665" lon="-3.54759">
        <ele>120.8</ele>
        <time>2025-02-25T14:51:40Z</time>
      </trkpt>
      <trkpt lat="48.08666" lon="-3.54761">
        <ele>120.9</ele>
        <time>2025-02-25T14:51:41Z</time>
      </trkpt>
      <trkpt lat="48.08666" lon="-3.54762">
        <ele>120.9</ele>
        <time>2025-02-25T14:51:42Z</time>
      </trkpt>
      <trkpt lat="48.08667" lon="-3.54764">
        <ele>121</ele>
        <time>2025-02-25T14:51:43Z</time>
      </trkpt>
      <trkpt lat="48.08667" lon="-3.54766">
        <ele>121</ele>
        <time>2025-02-25T14:51:44Z</time>
      </trkpt>
      <trkpt lat="48.08667" lon="-3.54769">
        <ele>121</ele>
        <time>2025-02-25T14:51:45Z</time>
      </trkpt>
      <trkpt lat="48.08667" lon="-3.54771">
        <ele>121</ele>
        <time>2025-02-25T14:51:46Z</time>
      </trkpt>
      <trkpt lat="48.08668" lon="-3.54773">
        <ele>121.1</ele>
        <time>2025-02-25T14:51:47Z</time>
      </trkpt>
      <trkpt lat="48.08668" lon="-3.54774">
        <ele>121.1</ele>
        <time>2025-02-25T14:51:48Z</time>
      </trkpt>
      <trkpt lat="48.08668" lon="-3.54776">
        <ele>121.1</ele>
        <time>2025-02-25T14:51:49Z</time>
      </trkpt>
      <trkpt lat="48.08668" lon="-3.54777">
        <ele>121.1</ele>
        <time>2025-02-25T14:51:50Z</time>
      </trkpt>
      <trkpt lat="48.08669" lon="-3.54778">
        <ele>121.3</ele>
        <time>2025-02-25T14:51:51Z</time>
      </trkpt>
      <trkpt lat="48.08669" lon="-3.54779">
        <ele>121.3</ele>
        <time>2025-02-25T14:51:52Z</time>
      </trkpt>
      <trkpt lat="48.08669" lon="-3.54781">
        <ele>121.3</ele>
        <time>2025-02-25T14:51:53Z</time>
      </trkpt>
      <trkpt lat="48.08671" lon="-3.54782">
        <ele>121.5</ele>
        <time>2025-02-25T14:51:54Z</time>
      </trkpt>
      <trkpt lat="48.08672" lon="-3.54784">
        <ele>121.6</ele>
        <time>2025-02-25T14:51:55Z</time>
      </trkpt>
      <trkpt lat="48.08672" lon="-3.54786">
        <ele>121.6</ele>
        <time>2025-02-25T14:51:56Z</time>
      </trkpt>
      <trkpt lat="48.08672" lon="-3.54787">
        <ele>121.6</ele>
        <time>2025-02-25T14:51:57Z</time>
      </trkpt>
      <trkpt lat="48.08673" lon="-3.54788">
        <ele>121.7</ele>
        <time>2025-02-25T14:51:58Z</time>
      </trkpt>
      <trkpt lat="48.08673" lon="-3.5479">
        <ele>121.7</ele>
        <time>2025-02-25T14:51:59Z</time>
      </trkpt>
      <trkpt lat="48.08673" lon="-3.54791">
        <ele>121.7</ele>
        <time>2025-02-25T14:52:00Z</time>
      </trkpt>
      <trkpt lat="48.08673" lon="-3.54793">
        <ele>121.7</ele>
        <time>2025-02-25T14:52:01Z</time>
      </trkpt>
      <trkpt lat="48.08674" lon="-3.54794">
        <ele>121.8</ele>
        <time>2025-02-25T14:52:02Z</time>
      </trkpt>
      <trkpt lat="48.08675" lon="-3.54796">
        <ele>121.9</ele>
        <time>2025-02-25T14:52:03Z</time>
      </trkpt>
      <trkpt lat="48.08675" lon="-3.54797">
        <ele>121.9</ele>
        <time>2025-02-25T14:52:04Z</time>
      </trkpt>
      <trkpt lat="48.08676" lon="-3.54798">
        <ele>122</ele>
        <time>2025-02-25T14:52:05Z</time>
      </trkpt>
      <trkpt lat="48.08677" lon="-3.548">
        <ele>122.1</ele>
        <time>2025-02-25T14:52:06Z</time>
      </trkpt>
      <trkpt lat="48.08678" lon="-3.54801">
        <ele>122.2</ele>
        <time>2025-02-25T14:52:07Z</time>
      </trkpt>
      <trkpt lat="48.08678" lon="-3.54803">
        <ele>122.2</ele>
        <time>2025-02-25T14:52:08Z</time>
      </trkpt>
      <trkpt lat="48.08678" lon="-3.54804">
        <ele>122.2</ele>
        <time>2025-02-25T14:52:09Z</time>
      </trkpt>
      <trkpt lat="48.08678" lon="-3.54806">
        <ele>122.2</ele>
        <time>2025-02-25T14:52:10Z</time>
      </trkpt>
      <trkpt lat="48.08679" lon="-3.54808">
        <ele>122.2</ele>
        <time>2025-02-25T14:52:11Z</time>
      </trkpt>
      <trkpt lat="48.0868" lon="-3.5481">
        <ele>122.2</ele>
        <time>2025-02-25T14:52:12Z</time>
      </trkpt>
      <trkpt lat="48.0868" lon="-3.54811">
        <ele>122.1</ele>
        <time>2025-02-25T14:52:13Z</time>
      </trkpt>
      <trkpt lat="48.0868" lon="-3.54813">
        <ele>122</ele>
        <time>2025-02-25T14:52:14Z</time>
      </trkpt>
      <trkpt lat="48.0868" lon="-3.54814">
        <ele>122</ele>
        <time>2025-02-25T14:52:15Z</time>
      </trkpt>
      <trkpt lat="48.0868" lon="-3.54815">
        <ele>121.9</ele>
        <time>2025-02-25T14:52:16Z</time>
      </trkpt>
      <trkpt lat="48.08681" lon="-3.54817">
        <ele>121.9</ele>
        <time>2025-02-25T14:52:17Z</time>
      </trkpt>
      <trkpt lat="48.08681" lon="-3.54818">
        <ele>121.9</ele>
        <time>2025-02-25T14:52:18Z</time>
      </trkpt>
      <trkpt lat="48.08681" lon="-3.5482">
        <ele>121.8</ele>
        <time>2025-02-25T14:52:19Z</time>
      </trkpt>
      <trkpt lat="48.08682" lon="-3.54822">
        <ele>121.8</ele>
        <time>2025-02-25T14:52:20Z</time>
      </trkpt>
      <trkpt lat="48.08683" lon="-3.54823">
        <ele>121.9</ele>
        <time>2025-02-25T14:52:21Z</time>
      </trkpt>
      <trkpt lat="48.08683" lon="-3.54824">
        <ele>121.8</ele>
        <time>2025-02-25T14:52:22Z</time>
      </trkpt>
      <trkpt lat="48.08684" lon="-3.54826">
        <ele>121.9</ele>
        <time>2025-02-25T14:52:23Z</time>
      </trkpt>
      <trkpt lat="48.08684" lon="-3.54828">
        <ele>121.8</ele>
        <time>2025-02-25T14:52:24Z</time>
      </trkpt>
      <trkpt lat="48.08685" lon="-3.54829">
        <ele>121.8</ele>
        <time>2025-02-25T14:52:25Z</time>
      </trkpt>
      <trkpt lat="48.08686" lon="-3.5483">
        <ele>121.9</ele>
        <time>2025-02-25T14:52:26Z</time>
      </trkpt>
      <trkpt lat="48.08686" lon="-3.54832">
        <ele>121.8</ele>
        <time>2025-02-25T14:52:27Z</time>
      </trkpt>
      <trkpt lat="48.08686" lon="-3.54834">
        <ele>121.7</ele>
        <time>2025-02-25T14:52:28Z</time>
      </trkpt>
      <trkpt lat="48.08686" lon="-3.54836">
        <ele>121.5</ele>
        <time>2025-02-25T14:52:29Z</time>
      </trkpt>
      <trkpt lat="48.08687" lon="-3.54837">
        <ele>121.6</ele>
        <time>2025-02-25T14:52:30Z</time>
      </trkpt>
      <trkpt lat="48.08688" lon="-3.54838">
        <ele>121.6</ele>
        <time>2025-02-25T14:52:31Z</time>
      </trkpt>
      <trkpt lat="48.08689" lon="-3.54839">
        <ele>121.6</ele>
        <time>2025-02-25T14:52:32Z</time>
      </trkpt>
      <trkpt lat="48.08689" lon="-3.54841">
        <ele>121.4</ele>
        <time>2025-02-25T14:52:33Z</time>
      </trkpt>
      <trkpt lat="48.08689" lon="-3.54842">
        <ele>121.3</ele>
        <time>2025-02-25T14:52:34Z</time>
      </trkpt>
      <trkpt lat="48.0869" lon="-3.54844">
        <ele>121.3</ele>
        <time>2025-02-25T14:52:35Z</time>
      </trkpt>
      <trkpt lat="48.0869" lon="-3.54845">
        <ele>121.2</ele>
        <time>2025-02-25T14:52:36Z</time>
      </trkpt>
      <trkpt lat="48.08691" lon="-3.54846">
        <ele>121.2</ele>
        <time>2025-02-25T14:52:37Z</time>
      </trkpt>
      <trkpt lat="48.08692" lon="-3.54847">
        <ele>121.2</ele>
        <time>2025-02-25T14:52:38Z</time>
      </trkpt>
      <trkpt lat="48.08692" lon="-3.54849">
        <ele>121</ele>
        <time>2025-02-25T14:52:39Z</time>
      </trkpt>
      <trkpt lat="48.08693" lon="-3.54851">
        <ele>120.9</ele>
        <time>2025-02-25T14:52:40Z</time>
      </trkpt>
      <trkpt lat="48.08693" lon="-3.54852">
        <ele>120.8</ele>
        <time>2025-02-25T14:52:41Z</time>
      </trkpt>
      <trkpt lat="48.08693" lon="-3.54854">
        <ele>120.6</ele>
        <time>2025-02-25T14:52:42Z</time>
      </trkpt>
      <trkpt lat="48.08694" lon="-3.54855">
        <ele>120.6</ele>
        <time>2025-02-25T14:52:43Z</time>
      </trkpt>
      <trkpt lat="48.08695" lon="-3.54857">
        <ele>120.5</ele>
        <time>2025-02-25T14:52:44Z</time>
      </trkpt>
      <trkpt lat="48.08695" lon="-3.54858">
        <ele>120.4</ele>
        <time>2025-02-25T14:52:45Z</time>
      </trkpt>
      <trkpt lat="48.08696" lon="-3.54859">
        <ele>120.4</ele>
        <time>2025-02-25T14:52:46Z</time>
      </trkpt>
      <trkpt lat="48.08697" lon="-3.5486">
        <ele>120.4</ele>
        <time>2025-02-25T14:52:47Z</time>
      </trkpt>
      <trkpt lat="48.08698" lon="-3.54862">
        <ele>120.3</ele>
        <time>2025-02-25T14:52:48Z</time>
      </trkpt>
      <trkpt lat="48.08699" lon="-3.54863">
        <ele>120.3</ele>
        <time>2025-02-25T14:52:49Z</time>
      </trkpt>
      <trkpt lat="48.08699" lon="-3.54865">
        <ele>120.1</ele>
        <time>2025-02-25T14:52:50Z</time>
      </trkpt>
      <trkpt lat="48.087" lon="-3.54866">
        <ele>120.1</ele>
        <time>2025-02-25T14:52:51Z</time>
      </trkpt>
      <trkpt lat="48.087" lon="-3.54867">
        <ele>120</ele>
        <time>2025-02-25T14:52:52Z</time>
      </trkpt>
      <trkpt lat="48.08701" lon="-3.54868">
        <ele>120</ele>
        <time>2025-02-25T14:52:53Z</time>
      </trkpt>
      <trkpt lat="48.08702" lon="-3.54869">
        <ele>120</ele>
        <time>2025-02-25T14:52:54Z</time>
      </trkpt>
      <trkpt lat="48.08702" lon="-3.54871">
        <ele>119.7</ele>
        <time>2025-02-25T14:52:55Z</time>
      </trkpt>
      <trkpt lat="48.08703" lon="-3.54872">
        <ele>119.7</ele>
        <time>2025-02-25T14:52:56Z</time>
      </trkpt>
      <trkpt lat="48.08703" lon="-3.54873">
        <ele>119.6</ele>
        <time>2025-02-25T14:52:57Z</time>
      </trkpt>
      <trkpt lat="48.08703" lon="-3.54875">
        <ele>119.4</ele>
        <time>2025-02-25T14:52:58Z</time>
      </trkpt>
      <trkpt lat="48.08704" lon="-3.54876">
        <ele>119.4</ele>
        <time>2025-02-25T14:52:59Z</time>
      </trkpt>
      <trkpt lat="48.08704" lon="-3.54877">
        <ele>119.3</ele>
        <time>2025-02-25T14:53:00Z</time>
      </trkpt>
      <trkpt lat="48.08705" lon="-3.54878">
        <ele>119.3</ele>
        <time>2025-02-25T14:53:01Z</time>
      </trkpt>
      <trkpt lat="48.08706" lon="-3.54879">
        <ele>119.3</ele>
        <time>2025-02-25T14:53:02Z</time>
      </trkpt>
      <trkpt lat="48.08706" lon="-3.5488">
        <ele>119.2</ele>
        <time>2025-02-25T14:53:03Z</time>
      </trkpt>
      <trkpt lat="48.08706" lon="-3.54882">
        <ele>119</ele>
        <time>2025-02-25T14:53:04Z</time>
      </trkpt>
      <trkpt lat="48.08707" lon="-3.54883">
        <ele>119</ele>
        <time>2025-02-25T14:53:05Z</time>
      </trkpt>
      <trkpt lat="48.08708" lon="-3.54884">
        <ele>119</ele>
        <time>2025-02-25T14:53:06Z</time>
      </trkpt>
      <trkpt lat="48.08708" lon="-3.54885">
        <ele>118.9</ele>
        <time>2025-02-25T14:53:07Z</time>
      </trkpt>
      <trkpt lat="48.08709" lon="-3.54887">
        <ele>118.8</ele>
        <time>2025-02-25T14:53:08Z</time>
      </trkpt>
      <trkpt lat="48.08709" lon="-3.54889">
        <ele>118.6</ele>
        <time>2025-02-25T14:53:09Z</time>
      </trkpt>
      <trkpt lat="48.0871" lon="-3.54889">
        <ele>118.7</ele>
        <time>2025-02-25T14:53:10Z</time>
      </trkpt>
      <trkpt lat="48.08711" lon="-3.5489">
        <ele>118.7</ele>
        <time>2025-02-25T14:53:11Z</time>
      </trkpt>
      <trkpt lat="48.08712" lon="-3.54891">
        <ele>118.7</ele>
        <time>2025-02-25T14:53:12Z</time>
      </trkpt>
      <trkpt lat="48.08712" lon="-3.54893">
        <ele>118.5</ele>
        <time>2025-02-25T14:53:13Z</time>
      </trkpt>
      <trkpt lat="48.08713" lon="-3.54894">
        <ele>118.5</ele>
        <time>2025-02-25T14:53:14Z</time>
      </trkpt>
      <trkpt lat="48.08713" lon="-3.54895">
        <ele>118.3</ele>
        <time>2025-02-25T14:53:15Z</time>
      </trkpt>
      <trkpt lat="48.08714" lon="-3.54896">
        <ele>118.3</ele>
        <time>2025-02-25T14:53:16Z</time>
      </trkpt>
      <trkpt lat="48.08715" lon="-3.54897">
        <ele>118.3</ele>
        <time>2025-02-25T14:53:17Z</time>
      </trkpt>
      <trkpt lat="48.08716" lon="-3.54898">
        <ele>118.3</ele>
        <time>2025-02-25T14:53:18Z</time>
      </trkpt>
      <trkpt lat="48.08716" lon="-3.549">
        <ele>118.1</ele>
        <time>2025-02-25T14:53:19Z</time>
      </trkpt>
      <trkpt lat="48.08717" lon="-3.54902">
        <ele>118</ele>
        <time>2025-02-25T14:53:20Z</time>
      </trkpt>
      <trkpt lat="48.08717" lon="-3.54903">
        <ele>117.9</ele>
        <time>2025-02-25T14:53:21Z</time>
      </trkpt>
      <trkpt lat="48.08718" lon="-3.54905">
        <ele>117.8</ele>
        <time>2025-02-25T14:53:22Z</time>
      </trkpt>
      <trkpt lat="48.08719" lon="-3.54906">
        <ele>117.8</ele>
        <time>2025-02-25T14:53:23Z</time>
      </trkpt>
      <trkpt lat="48.0872" lon="-3.54908">
        <ele>117.7</ele>
        <time>2025-02-25T14:53:24Z</time>
      </trkpt>
      <trkpt lat="48.08721" lon="-3.54909">
        <ele>117.7</ele>
        <time>2025-02-25T14:53:25Z</time>
      </trkpt>
      <trkpt lat="48.08721" lon="-3.5491">
        <ele>117.6</ele>
        <time>2025-02-25T14:53:26Z</time>
      </trkpt>
      <trkpt lat="48.08722" lon="-3.54912">
        <ele>117.5</ele>
        <time>2025-02-25T14:53:27Z</time>
      </trkpt>
      <trkpt lat="48.08722" lon="-3.54913">
        <ele>117.4</ele>
        <time>2025-02-25T14:53:28Z</time>
      </trkpt>
      <trkpt lat="48.08721" lon="-3.54915">
        <ele>117</ele>
        <time>2025-02-25T14:53:29Z</time>
      </trkpt>
      <trkpt lat="48.08723" lon="-3.54918">
        <ele>116.9</ele>
        <time>2025-02-25T14:53:30Z</time>
      </trkpt>
      <trkpt lat="48.08724" lon="-3.54919">
        <ele>116.9</ele>
        <time>2025-02-25T14:53:31Z</time>
      </trkpt>
      <trkpt lat="48.08724" lon="-3.5492">
        <ele>116.8</ele>
        <time>2025-02-25T14:53:32Z</time>
      </trkpt>
      <trkpt lat="48.08725" lon="-3.54921">
        <ele>116.8</ele>
        <time>2025-02-25T14:53:33Z</time>
      </trkpt>
      <trkpt lat="48.08726" lon="-3.54922">
        <ele>116.9</ele>
        <time>2025-02-25T14:53:34Z</time>
      </trkpt>
      <trkpt lat="48.08727" lon="-3.54923">
        <ele>116.9</ele>
        <time>2025-02-25T14:53:35Z</time>
      </trkpt>
      <trkpt lat="48.08728" lon="-3.54925">
        <ele>116.8</ele>
        <time>2025-02-25T14:53:36Z</time>
      </trkpt>
      <trkpt lat="48.08728" lon="-3.54926">
        <ele>116.7</ele>
        <time>2025-02-25T14:53:37Z</time>
      </trkpt>
      <trkpt lat="48.0873" lon="-3.54927">
        <ele>116.8</ele>
        <time>2025-02-25T14:53:38Z</time>
      </trkpt>
      <trkpt lat="48.0873" lon="-3.54928">
        <ele>116.7</ele>
        <time>2025-02-25T14:53:39Z</time>
      </trkpt>
      <trkpt lat="48.08731" lon="-3.5493">
        <ele>116.7</ele>
        <time>2025-02-25T14:53:40Z</time>
      </trkpt>
      <trkpt lat="48.08731" lon="-3.54931">
        <ele>116.6</ele>
        <time>2025-02-25T14:53:41Z</time>
      </trkpt>
      <trkpt lat="48.08731" lon="-3.54932">
        <ele>116.5</ele>
        <time>2025-02-25T14:53:42Z</time>
      </trkpt>
      <trkpt lat="48.08732" lon="-3.54934">
        <ele>116.4</ele>
        <time>2025-02-25T14:53:43Z</time>
      </trkpt>
      <trkpt lat="48.08732" lon="-3.54934">
        <ele>116.4</ele>
        <time>2025-02-25T14:53:44Z</time>
      </trkpt>
      <trkpt lat="48.08733" lon="-3.54935">
        <ele>116.4</ele>
        <time>2025-02-25T14:53:45Z</time>
      </trkpt>
      <trkpt lat="48.08734" lon="-3.54936">
        <ele>116.5</ele>
        <time>2025-02-25T14:53:46Z</time>
      </trkpt>
      <trkpt lat="48.08735" lon="-3.54937">
        <ele>116.5</ele>
        <time>2025-02-25T14:53:47Z</time>
      </trkpt>
      <trkpt lat="48.08736" lon="-3.54938">
        <ele>116.6</ele>
        <time>2025-02-25T14:53:48Z</time>
      </trkpt>
      <trkpt lat="48.08736" lon="-3.54939">
        <ele>116.5</ele>
        <time>2025-02-25T14:53:49Z</time>
      </trkpt>
      <trkpt lat="48.08737" lon="-3.5494">
        <ele>116.5</ele>
        <time>2025-02-25T14:53:50Z</time>
      </trkpt>
      <trkpt lat="48.08737" lon="-3.54942">
        <ele>116.3</ele>
        <time>2025-02-25T14:53:51Z</time>
      </trkpt>
      <trkpt lat="48.08737" lon="-3.54944">
        <ele>116.2</ele>
        <time>2025-02-25T14:53:52Z</time>
      </trkpt>
      <trkpt lat="48.08737" lon="-3.54946">
        <ele>116</ele>
        <time>2025-02-25T14:53:53Z</time>
      </trkpt>
      <trkpt lat="48.08738" lon="-3.54947">
        <ele>116</ele>
        <time>2025-02-25T14:53:54Z</time>
      </trkpt>
      <trkpt lat="48.08738" lon="-3.54949">
        <ele>115.9</ele>
        <time>2025-02-25T14:53:55Z</time>
      </trkpt>
      <trkpt lat="48.08738" lon="-3.54951">
        <ele>115.7</ele>
        <time>2025-02-25T14:53:56Z</time>
      </trkpt>
      <trkpt lat="48.08738" lon="-3.54952">
        <ele>115.6</ele>
        <time>2025-02-25T14:53:57Z</time>
      </trkpt>
      <trkpt lat="48.08738" lon="-3.54954">
        <ele>115.4</ele>
        <time>2025-02-25T14:53:58Z</time>
      </trkpt>
      <trkpt lat="48.08738" lon="-3.54956">
        <ele>115.2</ele>
        <time>2025-02-25T14:53:59Z</time>
      </trkpt>
      <trkpt lat="48.08738" lon="-3.54957">
        <ele>115.1</ele>
        <time>2025-02-25T14:54:00Z</time>
      </trkpt>
      <trkpt lat="48.08738" lon="-3.54959">
        <ele>114.9</ele>
        <time>2025-02-25T14:54:01Z</time>
      </trkpt>
      <trkpt lat="48.08738" lon="-3.54961">
        <ele>114.7</ele>
        <time>2025-02-25T14:54:02Z</time>
      </trkpt>
      <trkpt lat="48.08738" lon="-3.54963">
        <ele>114.6</ele>
        <time>2025-02-25T14:54:03Z</time>
      </trkpt>
      <trkpt lat="48.08738" lon="-3.54964">
        <ele>114.5</ele>
        <time>2025-02-25T14:54:04Z</time>
      </trkpt>
      <trkpt lat="48.08738" lon="-3.54966">
        <ele>114.3</ele>
        <time>2025-02-25T14:54:05Z</time>
      </trkpt>
      <trkpt lat="48.08738" lon="-3.54968">
        <ele>114.1</ele>
        <time>2025-02-25T14:54:06Z</time>
      </trkpt>
      <trkpt lat="48.08738" lon="-3.5497">
        <ele>113.9</ele>
        <time>2025-02-25T14:54:07Z</time>
      </trkpt>
      <trkpt lat="48.08738" lon="-3.54971">
        <ele>113.8</ele>
        <time>2025-02-25T14:54:08Z</time>
      </trkpt>
      <trkpt lat="48.08738" lon="-3.54973">
        <ele>113.6</ele>
        <time>2025-02-25T14:54:09Z</time>
      </trkpt>
      <trkpt lat="48.08737" lon="-3.54974">
        <ele>113.4</ele>
        <time>2025-02-25T14:54:10Z</time>
      </trkpt>
      <trkpt lat="48.08736" lon="-3.54976">
        <ele>113.1</ele>
        <time>2025-02-25T14:54:11Z</time>
      </trkpt>
      <trkpt lat="48.08735" lon="-3.54976">
        <ele>113</ele>
        <time>2025-02-25T14:54:12Z</time>
      </trkpt>
      <trkpt lat="48.08734" lon="-3.54976">
        <ele>112.9</ele>
        <time>2025-02-25T14:54:13Z</time>
      </trkpt>
      <trkpt lat="48.08733" lon="-3.54977">
        <ele>112.7</ele>
        <time>2025-02-25T14:54:14Z</time>
      </trkpt>
      <trkpt lat="48.08732" lon="-3.54977">
        <ele>112.6</ele>
        <time>2025-02-25T14:54:15Z</time>
      </trkpt>
      <trkpt lat="48.08731" lon="-3.54976">
        <ele>112.6</ele>
        <time>2025-02-25T14:54:16Z</time>
      </trkpt>
      <trkpt lat="48.0873" lon="-3.54976">
        <ele>112.5</ele>
        <time>2025-02-25T14:54:17Z</time>
      </trkpt>
      <trkpt lat="48.08729" lon="-3.54976">
        <ele>112.4</ele>
        <time>2025-02-25T14:54:18Z</time>
      </trkpt>
      <trkpt lat="48.08728" lon="-3.54974">
        <ele>112.4</ele>
        <time>2025-02-25T14:54:19Z</time>
      </trkpt>
      <trkpt lat="48.08727" lon="-3.54973">
        <ele>112.4</ele>
        <time>2025-02-25T14:54:20Z</time>
      </trkpt>
      <trkpt lat="48.08726" lon="-3.54973">
        <ele>112.3</ele>
        <time>2025-02-25T14:54:21Z</time>
      </trkpt>
      <trkpt lat="48.08725" lon="-3.54973">
        <ele>112.2</ele>
        <time>2025-02-25T14:54:22Z</time>
      </trkpt>
      <trkpt lat="48.08724" lon="-3.54973">
        <ele>112.1</ele>
        <time>2025-02-25T14:54:23Z</time>
      </trkpt>
      <trkpt lat="48.08723" lon="-3.54973">
        <ele>112</ele>
        <time>2025-02-25T14:54:24Z</time>
      </trkpt>
      <trkpt lat="48.08722" lon="-3.54972">
        <ele>112</ele>
        <time>2025-02-25T14:54:25Z</time>
      </trkpt>
      <trkpt lat="48.08721" lon="-3.54971">
        <ele>111.9</ele>
        <time>2025-02-25T14:54:26Z</time>
      </trkpt>
      <trkpt lat="48.0872" lon="-3.54972">
        <ele>111.7</ele>
        <time>2025-02-25T14:54:27Z</time>
      </trkpt>
      <trkpt lat="48.08718" lon="-3.54971">
        <ele>111.5</ele>
        <time>2025-02-25T14:54:28Z</time>
      </trkpt>
      <trkpt lat="48.08717" lon="-3.54971">
        <ele>111.3</ele>
        <time>2025-02-25T14:54:29Z</time>
      </trkpt>
      <trkpt lat="48.08716" lon="-3.54971">
        <ele>111.2</ele>
        <time>2025-02-25T14:54:30Z</time>
      </trkpt>
      <trkpt lat="48.08715" lon="-3.54971">
        <ele>111.1</ele>
        <time>2025-02-25T14:54:31Z</time>
      </trkpt>
      <trkpt lat="48.08714" lon="-3.54971">
        <ele>110.9</ele>
        <time>2025-02-25T14:54:32Z</time>
      </trkpt>
      <trkpt lat="48.08712" lon="-3.5497">
        <ele>110.7</ele>
        <time>2025-02-25T14:54:33Z</time>
      </trkpt>
      <trkpt lat="48.08711" lon="-3.5497">
        <ele>110.6</ele>
        <time>2025-02-25T14:54:34Z</time>
      </trkpt>
      <trkpt lat="48.0871" lon="-3.5497">
        <ele>110.4</ele>
        <time>2025-02-25T14:54:35Z</time>
      </trkpt>
      <trkpt lat="48.08709" lon="-3.5497">
        <ele>110.3</ele>
        <time>2025-02-25T14:54:36Z</time>
      </trkpt>
      <trkpt lat="48.08708" lon="-3.54969">
        <ele>110.2</ele>
        <time>2025-02-25T14:54:37Z</time>
      </trkpt>
      <trkpt lat="48.08707" lon="-3.54969">
        <ele>110.1</ele>
        <time>2025-02-25T14:54:38Z</time>
      </trkpt>
      <trkpt lat="48.08706" lon="-3.54968">
        <ele>110.1</ele>
        <time>2025-02-25T14:54:39Z</time>
      </trkpt>
      <trkpt lat="48.08705" lon="-3.54968">
        <ele>109.9</ele>
        <time>2025-02-25T14:54:40Z</time>
      </trkpt>
      <trkpt lat="48.08704" lon="-3.54965">
        <ele>110.1</ele>
        <time>2025-02-25T14:54:41Z</time>
      </trkpt>
      <trkpt lat="48.08703" lon="-3.54965">
        <ele>109.9</ele>
        <time>2025-02-25T14:54:42Z</time>
      </trkpt>
      <trkpt lat="48.08702" lon="-3.54964">
        <ele>109.9</ele>
        <time>2025-02-25T14:54:43Z</time>
      </trkpt>
      <trkpt lat="48.08701" lon="-3.54964">
        <ele>109.8</ele>
        <time>2025-02-25T14:54:44Z</time>
      </trkpt>
      <trkpt lat="48.087" lon="-3.54962">
        <ele>109.8</ele>
        <time>2025-02-25T14:54:45Z</time>
      </trkpt>
      <trkpt lat="48.08698" lon="-3.54962">
        <ele>109.6</ele>
        <time>2025-02-25T14:54:46Z</time>
      </trkpt>
      <trkpt lat="48.08697" lon="-3.54961">
        <ele>109.5</ele>
        <time>2025-02-25T14:54:47Z</time>
      </trkpt>
      <trkpt lat="48.08697" lon="-3.5496">
        <ele>109.6</ele>
        <time>2025-02-25T14:54:48Z</time>
      </trkpt>
      <trkpt lat="48.08696" lon="-3.54959">
        <ele>109.6</ele>
        <time>2025-02-25T14:54:49Z</time>
      </trkpt>
      <trkpt lat="48.08695" lon="-3.54959">
        <ele>109.5</ele>
        <time>2025-02-25T14:54:50Z</time>
      </trkpt>
      <trkpt lat="48.08694" lon="-3.54959">
        <ele>109.4</ele>
        <time>2025-02-25T14:54:51Z</time>
      </trkpt>
      <trkpt lat="48.08693" lon="-3.54957">
        <ele>109.4</ele>
        <time>2025-02-25T14:54:52Z</time>
      </trkpt>
      <trkpt lat="48.08692" lon="-3.54956">
        <ele>109.3</ele>
        <time>2025-02-25T14:54:53Z</time>
      </trkpt>
      <trkpt lat="48.08691" lon="-3.54954">
        <ele>109.4</ele>
        <time>2025-02-25T14:54:54Z</time>
      </trkpt>
      <trkpt lat="48.0869" lon="-3.54954">
        <ele>109.2</ele>
        <time>2025-02-25T14:54:55Z</time>
      </trkpt>
      <trkpt lat="48.08689" lon="-3.54953">
        <ele>109.2</ele>
        <time>2025-02-25T14:54:56Z</time>
      </trkpt>
      <trkpt lat="48.08688" lon="-3.54952">
        <ele>109.1</ele>
        <time>2025-02-25T14:54:57Z</time>
      </trkpt>
      <trkpt lat="48.08687" lon="-3.54952">
        <ele>108.9</ele>
        <time>2025-02-25T14:54:58Z</time>
      </trkpt>
      <trkpt lat="48.08686" lon="-3.5495">
        <ele>108.9</ele>
        <time>2025-02-25T14:54:59Z</time>
      </trkpt>
      <trkpt lat="48.08686" lon="-3.54949">
        <ele>109</ele>
        <time>2025-02-25T14:55:00Z</time>
      </trkpt>
      <trkpt lat="48.08685" lon="-3.54949">
        <ele>108.9</ele>
        <time>2025-02-25T14:55:01Z</time>
      </trkpt>
      <trkpt lat="48.08684" lon="-3.54948">
        <ele>108.8</ele>
        <time>2025-02-25T14:55:02Z</time>
      </trkpt>
      <trkpt lat="48.08683" lon="-3.54947">
        <ele>108.7</ele>
        <time>2025-02-25T14:55:03Z</time>
      </trkpt>
      <trkpt lat="48.08682" lon="-3.54947">
        <ele>108.5</ele>
        <time>2025-02-25T14:55:04Z</time>
      </trkpt>
      <trkpt lat="48.08681" lon="-3.54947">
        <ele>108.3</ele>
        <time>2025-02-25T14:55:05Z</time>
      </trkpt>
      <trkpt lat="48.0868" lon="-3.54947">
        <ele>108.2</ele>
        <time>2025-02-25T14:55:06Z</time>
      </trkpt>
      <trkpt lat="48.08679" lon="-3.54947">
        <ele>108</ele>
        <time>2025-02-25T14:55:07Z</time>
      </trkpt>
      <trkpt lat="48.08678" lon="-3.54948">
        <ele>107.7</ele>
        <time>2025-02-25T14:55:08Z</time>
      </trkpt>
      <trkpt lat="48.08677" lon="-3.54948">
        <ele>107.6</ele>
        <time>2025-02-25T14:55:09Z</time>
      </trkpt>
      <trkpt lat="48.08677" lon="-3.54948">
        <ele>107.6</ele>
        <time>2025-02-25T14:55:10Z</time>
      </trkpt>
      <trkpt lat="48.08676" lon="-3.54949">
        <ele>107.3</ele>
        <time>2025-02-25T14:55:11Z</time>
      </trkpt>
      <trkpt lat="48.08675" lon="-3.5495">
        <ele>107</ele>
        <time>2025-02-25T14:55:12Z</time>
      </trkpt>
      <trkpt lat="48.08674" lon="-3.5495">
        <ele>106.9</ele>
        <time>2025-02-25T14:55:13Z</time>
      </trkpt>
      <trkpt lat="48.08673" lon="-3.54951">
        <ele>106.6</ele>
        <time>2025-02-25T14:55:14Z</time>
      </trkpt>
      <trkpt lat="48.08672" lon="-3.54951">
        <ele>106.4</ele>
        <time>2025-02-25T14:55:15Z</time>
      </trkpt>
      <trkpt lat="48.08671" lon="-3.54952">
        <ele>106.2</ele>
        <time>2025-02-25T14:55:16Z</time>
      </trkpt>
      <trkpt lat="48.0867" lon="-3.54952">
        <ele>106</ele>
        <time>2025-02-25T14:55:17Z</time>
      </trkpt>
      <trkpt lat="48.08669" lon="-3.54953">
        <ele>105.8</ele>
        <time>2025-02-25T14:55:18Z</time>
      </trkpt>
      <trkpt lat="48.08668" lon="-3.54953">
        <ele>105.6</ele>
        <time>2025-02-25T14:55:19Z</time>
      </trkpt>
      <trkpt lat="48.08667" lon="-3.54954">
        <ele>105.4</ele>
        <time>2025-02-25T14:55:20Z</time>
      </trkpt>
      <trkpt lat="48.08666" lon="-3.54955">
        <ele>105.2</ele>
        <time>2025-02-25T14:55:21Z</time>
      </trkpt>
      <trkpt lat="48.08665" lon="-3.54955">
        <ele>105.1</ele>
        <time>2025-02-25T14:55:22Z</time>
      </trkpt>
      <trkpt lat="48.08663" lon="-3.54956">
        <ele>104.9</ele>
        <time>2025-02-25T14:55:23Z</time>
      </trkpt>
      <trkpt lat="48.08663" lon="-3.54957">
        <ele>104.8</ele>
        <time>2025-02-25T14:55:24Z</time>
      </trkpt>
      <trkpt lat="48.08662" lon="-3.54959">
        <ele>104.6</ele>
        <time>2025-02-25T14:55:25Z</time>
      </trkpt>
      <trkpt lat="48.08661" lon="-3.5496">
        <ele>104.5</ele>
        <time>2025-02-25T14:55:26Z</time>
      </trkpt>
      <trkpt lat="48.0866" lon="-3.54962">
        <ele>104.3</ele>
        <time>2025-02-25T14:55:27Z</time>
      </trkpt>
      <trkpt lat="48.08659" lon="-3.54963">
        <ele>104.2</ele>
        <time>2025-02-25T14:55:28Z</time>
      </trkpt>
      <trkpt lat="48.08659" lon="-3.54964">
        <ele>104.2</ele>
        <time>2025-02-25T14:55:29Z</time>
      </trkpt>
      <trkpt lat="48.08659" lon="-3.54966">
        <ele>104</ele>
        <time>2025-02-25T14:55:30Z</time>
      </trkpt>
      <trkpt lat="48.08659" lon="-3.54967">
        <ele>104</ele>
        <time>2025-02-25T14:55:31Z</time>
      </trkpt>
      <trkpt lat="48.0866" lon="-3.54969">
        <ele>103.9</ele>
        <time>2025-02-25T14:55:32Z</time>
      </trkpt>
      <trkpt lat="48.0866" lon="-3.54971">
        <ele>103.8</ele>
        <time>2025-02-25T14:55:33Z</time>
      </trkpt>
      <trkpt lat="48.08661" lon="-3.54972">
        <ele>103.8</ele>
        <time>2025-02-25T14:55:34Z</time>
      </trkpt>
      <trkpt lat="48.08661" lon="-3.54974">
        <ele>103.8</ele>
        <time>2025-02-25T14:55:35Z</time>
      </trkpt>
      <trkpt lat="48.08661" lon="-3.54975">
        <ele>103.8</ele>
        <time>2025-02-25T14:55:36Z</time>
      </trkpt>
      <trkpt lat="48.08662" lon="-3.54977">
        <ele>103.7</ele>
        <time>2025-02-25T14:55:37Z</time>
      </trkpt>
      <trkpt lat="48.08662" lon="-3.54979">
        <ele>103.7</ele>
        <time>2025-02-25T14:55:38Z</time>
      </trkpt>
      <trkpt lat="48.08663" lon="-3.5498">
        <ele>103.7</ele>
        <time>2025-02-25T14:55:39Z</time>
      </trkpt>
      <trkpt lat="48.08662" lon="-3.54982">
        <ele>103.7</ele>
        <time>2025-02-25T14:55:40Z</time>
      </trkpt>
      <trkpt lat="48.08663" lon="-3.54983">
        <ele>103.6</ele>
        <time>2025-02-25T14:55:41Z</time>
      </trkpt>
      <trkpt lat="48.08664" lon="-3.54985">
        <ele>103.6</ele>
        <time>2025-02-25T14:55:42Z</time>
      </trkpt>
      <trkpt lat="48.08664" lon="-3.54986">
        <ele>103.6</ele>
        <time>2025-02-25T14:55:43Z</time>
      </trkpt>
      <trkpt lat="48.08665" lon="-3.54987">
        <ele>103.5</ele>
        <time>2025-02-25T14:55:44Z</time>
      </trkpt>
      <trkpt lat="48.08665" lon="-3.54989">
        <ele>103.4</ele>
        <time>2025-02-25T14:55:45Z</time>
      </trkpt>
      <trkpt lat="48.08665" lon="-3.5499">
        <ele>103.4</ele>
        <time>2025-02-25T14:55:46Z</time>
      </trkpt>
      <trkpt lat="48.08665" lon="-3.54992">
        <ele>103.4</ele>
        <time>2025-02-25T14:55:47Z</time>
      </trkpt>
      <trkpt lat="48.08666" lon="-3.54994">
        <ele>103.2</ele>
        <time>2025-02-25T14:55:48Z</time>
      </trkpt>
      <trkpt lat="48.08667" lon="-3.54995">
        <ele>103.2</ele>
        <time>2025-02-25T14:55:49Z</time>
      </trkpt>
      <trkpt lat="48.08668" lon="-3.54996">
        <ele>103.3</ele>
        <time>2025-02-25T14:55:50Z</time>
      </trkpt>
      <trkpt lat="48.08668" lon="-3.54997">
        <ele>103.2</ele>
        <time>2025-02-25T14:55:51Z</time>
      </trkpt>
      <trkpt lat="48.08669" lon="-3.54998">
        <ele>103.3</ele>
        <time>2025-02-25T14:55:52Z</time>
      </trkpt>
      <trkpt lat="48.0867" lon="-3.54999">
        <ele>103.3</ele>
        <time>2025-02-25T14:55:53Z</time>
      </trkpt>
      <trkpt lat="48.08671" lon="-3.55">
        <ele>103.3</ele>
        <time>2025-02-25T14:55:54Z</time>
      </trkpt>
      <trkpt lat="48.08671" lon="-3.55001">
        <ele>103.4</ele>
        <time>2025-02-25T14:55:55Z</time>
      </trkpt>
      <trkpt lat="48.08672" lon="-3.55002">
        <ele>103.6</ele>
        <time>2025-02-25T14:55:56Z</time>
      </trkpt>
      <trkpt lat="48.08674" lon="-3.55003">
        <ele>103.8</ele>
        <time>2025-02-25T14:55:57Z</time>
      </trkpt>
      <trkpt lat="48.08675" lon="-3.55004">
        <ele>103.9</ele>
        <time>2025-02-25T14:55:58Z</time>
      </trkpt>
      <trkpt lat="48.08675" lon="-3.55005">
        <ele>104</ele>
        <time>2025-02-25T14:55:59Z</time>
      </trkpt>
      <trkpt lat="48.08676" lon="-3.55006">
        <ele>104.1</ele>
        <time>2025-02-25T14:56:00Z</time>
      </trkpt>
      <trkpt lat="48.08677" lon="-3.55007">
        <ele>104.2</ele>
        <time>2025-02-25T14:56:01Z</time>
      </trkpt>
      <trkpt lat="48.08678" lon="-3.55008">
        <ele>104.3</ele>
        <time>2025-02-25T14:56:02Z</time>
      </trkpt>
      <trkpt lat="48.08679" lon="-3.55009">
        <ele>104.4</ele>
        <time>2025-02-25T14:56:03Z</time>
      </trkpt>
      <trkpt lat="48.0868" lon="-3.55011">
        <ele>104.6</ele>
        <time>2025-02-25T14:56:04Z</time>
      </trkpt>
      <trkpt lat="48.08681" lon="-3.55012">
        <ele>104.7</ele>
        <time>2025-02-25T14:56:05Z</time>
      </trkpt>
      <trkpt lat="48.08682" lon="-3.55013">
        <ele>104.7</ele>
        <time>2025-02-25T14:56:06Z</time>
      </trkpt>
      <trkpt lat="48.08683" lon="-3.55014">
        <ele>104.8</ele>
        <time>2025-02-25T14:56:07Z</time>
      </trkpt>
      <trkpt lat="48.08684" lon="-3.55014">
        <ele>104.8</ele>
        <time>2025-02-25T14:56:08Z</time>
      </trkpt>
      <trkpt lat="48.08685" lon="-3.55014">
        <ele>104.8</ele>
        <time>2025-02-25T14:56:09Z</time>
      </trkpt>
      <trkpt lat="48.08685" lon="-3.55016">
        <ele>104.9</ele>
        <time>2025-02-25T14:56:10Z</time>
      </trkpt>
      <trkpt lat="48.08687" lon="-3.55016">
        <ele>104.9</ele>
        <time>2025-02-25T14:56:11Z</time>
      </trkpt>
      <trkpt lat="48.08688" lon="-3.55016">
        <ele>104.9</ele>
        <time>2025-02-25T14:56:12Z</time>
      </trkpt>
      <trkpt lat="48.08689" lon="-3.55017">
        <ele>105</ele>
        <time>2025-02-25T14:56:13Z</time>
      </trkpt>
      <trkpt lat="48.08689" lon="-3.55019">
        <ele>105</ele>
        <time>2025-02-25T14:56:14Z</time>
      </trkpt>
      <trkpt lat="48.08691" lon="-3.5502">
        <ele>105</ele>
        <time>2025-02-25T14:56:15Z</time>
      </trkpt>
      <trkpt lat="48.08692" lon="-3.5502">
        <ele>105</ele>
        <time>2025-02-25T14:56:16Z</time>
      </trkpt>
      <trkpt lat="48.08693" lon="-3.55021">
        <ele>105</ele>
        <time>2025-02-25T14:56:17Z</time>
      </trkpt>
      <trkpt lat="48.08694" lon="-3.55021">
        <ele>105</ele>
        <time>2025-02-25T14:56:18Z</time>
      </trkpt>
      <trkpt lat="48.08695" lon="-3.55022">
        <ele>105</ele>
        <time>2025-02-25T14:56:19Z</time>
      </trkpt>
      <trkpt lat="48.08696" lon="-3.55023">
        <ele>105.1</ele>
        <time>2025-02-25T14:56:20Z</time>
      </trkpt>
      <trkpt lat="48.08696" lon="-3.55025">
        <ele>105.1</ele>
        <time>2025-02-25T14:56:21Z</time>
      </trkpt>
      <trkpt lat="48.08696" lon="-3.55027">
        <ele>105.1</ele>
        <time>2025-02-25T14:56:22Z</time>
      </trkpt>
      <trkpt lat="48.08696" lon="-3.55029">
        <ele>105.2</ele>
        <time>2025-02-25T14:56:23Z</time>
      </trkpt>
      <trkpt lat="48.08696" lon="-3.55031">
        <ele>105.3</ele>
        <time>2025-02-25T14:56:24Z</time>
      </trkpt>
      <trkpt lat="48.08695" lon="-3.55032">
        <ele>105.3</ele>
        <time>2025-02-25T14:56:25Z</time>
      </trkpt>
      <trkpt lat="48.08694" lon="-3.55033">
        <ele>105.4</ele>
        <time>2025-02-25T14:56:26Z</time>
      </trkpt>
      <trkpt lat="48.08694" lon="-3.55035">
        <ele>105.5</ele>
        <time>2025-02-25T14:56:27Z</time>
      </trkpt>
      <trkpt lat="48.08694" lon="-3.55036">
        <ele>105.6</ele>
        <time>2025-02-25T14:56:28Z</time>
      </trkpt>
      <trkpt lat="48.08694" lon="-3.55037">
        <ele>105.7</ele>
        <time>2025-02-25T14:56:29Z</time>
      </trkpt>
      <trkpt lat="48.08694" lon="-3.55039">
        <ele>105.8</ele>
        <time>2025-02-25T14:56:30Z</time>
      </trkpt>
      <trkpt lat="48.08693" lon="-3.5504">
        <ele>105.9</ele>
        <time>2025-02-25T14:56:31Z</time>
      </trkpt>
      <trkpt lat="48.08692" lon="-3.55042">
        <ele>106.1</ele>
        <time>2025-02-25T14:56:32Z</time>
      </trkpt>
      <trkpt lat="48.08692" lon="-3.55043">
        <ele>106.2</ele>
        <time>2025-02-25T14:56:33Z</time>
      </trkpt>
      <trkpt lat="48.08692" lon="-3.55045">
        <ele>106.3</ele>
        <time>2025-02-25T14:56:34Z</time>
      </trkpt>
      <trkpt lat="48.08691" lon="-3.55046">
        <ele>106.4</ele>
        <time>2025-02-25T14:56:35Z</time>
      </trkpt>
      <trkpt lat="48.08691" lon="-3.55048">
        <ele>106.6</ele>
        <time>2025-02-25T14:56:36Z</time>
      </trkpt>
      <trkpt lat="48.0869" lon="-3.5505">
        <ele>106.8</ele>
        <time>2025-02-25T14:56:37Z</time>
      </trkpt>
      <trkpt lat="48.0869" lon="-3.55052">
        <ele>106.9</ele>
        <time>2025-02-25T14:56:38Z</time>
      </trkpt>
      <trkpt lat="48.08689" lon="-3.55054">
        <ele>107.1</ele>
        <time>2025-02-25T14:56:39Z</time>
      </trkpt>
      <trkpt lat="48.08688" lon="-3.55056">
        <ele>107.2</ele>
        <time>2025-02-25T14:56:40Z</time>
      </trkpt>
      <trkpt lat="48.08688" lon="-3.55058">
        <ele>107.3</ele>
        <time>2025-02-25T14:56:41Z</time>
      </trkpt>
      <trkpt lat="48.08687" lon="-3.55059">
        <ele>107.3</ele>
        <time>2025-02-25T14:56:42Z</time>
      </trkpt>
      <trkpt lat="48.08686" lon="-3.55061">
        <ele>107.4</ele>
        <time>2025-02-25T14:56:43Z</time>
      </trkpt>
      <trkpt lat="48.08686" lon="-3.55062">
        <ele>107.4</ele>
        <time>2025-02-25T14:56:44Z</time>
      </trkpt>
      <trkpt lat="48.08686" lon="-3.55063">
        <ele>107.4</ele>
        <time>2025-02-25T14:56:45Z</time>
      </trkpt>
      <trkpt lat="48.08686" lon="-3.55065">
        <ele>107.4</ele>
        <time>2025-02-25T14:56:46Z</time>
      </trkpt>
      <trkpt lat="48.08685" lon="-3.55066">
        <ele>107.5</ele>
        <time>2025-02-25T14:56:47Z</time>
      </trkpt>
      <trkpt lat="48.08685" lon="-3.55067">
        <ele>107.5</ele>
        <time>2025-02-25T14:56:48Z</time>
      </trkpt>
      <trkpt lat="48.08684" lon="-3.55069">
        <ele>107.6</ele>
        <time>2025-02-25T14:56:49Z</time>
      </trkpt>
      <trkpt lat="48.08684" lon="-3.55069">
        <ele>107.6</ele>
        <time>2025-02-25T14:56:50Z</time>
      </trkpt>
      <trkpt lat="48.08684" lon="-3.55069">
        <ele>107.6</ele>
        <time>2025-02-25T14:56:51Z</time>
      </trkpt>
      <trkpt lat="48.08683" lon="-3.5507">
        <ele>107.6</ele>
        <time>2025-02-25T14:56:52Z</time>
      </trkpt>
      <trkpt lat="48.08682" lon="-3.55072">
        <ele>107.7</ele>
        <time>2025-02-25T14:56:53Z</time>
      </trkpt>
      <trkpt lat="48.08682" lon="-3.55073">
        <ele>107.7</ele>
        <time>2025-02-25T14:56:54Z</time>
      </trkpt>
      <trkpt lat="48.08682" lon="-3.55073">
        <ele>107.7</ele>
        <time>2025-02-25T14:56:55Z</time>
      </trkpt>
      <trkpt lat="48.08682" lon="-3.55073">
        <ele>107.7</ele>
        <time>2025-02-25T14:56:56Z</time>
      </trkpt>
      <trkpt lat="48.08683" lon="-3.55073">
        <ele>107.7</ele>
        <time>2025-02-25T14:56:57Z</time>
      </trkpt>
      <trkpt lat="48.08683" lon="-3.55074">
        <ele>107.7</ele>
        <time>2025-02-25T14:56:58Z</time>
      </trkpt>
      <trkpt lat="48.08683" lon="-3.55073">
        <ele>107.7</ele>
        <time>2025-02-25T14:56:59Z</time>
      </trkpt>
      <trkpt lat="48.08682" lon="-3.55073">
        <ele>107.7</ele>
        <time>2025-02-25T14:57:00Z</time>
      </trkpt>
      <trkpt lat="48.08682" lon="-3.55073">
        <ele>107.7</ele>
        <time>2025-02-25T14:57:01Z</time>
      </trkpt>
      <trkpt lat="48.08681" lon="-3.55072">
        <ele>107.8</ele>
        <time>2025-02-25T14:57:02Z</time>
      </trkpt>
      <trkpt lat="48.08681" lon="-3.5507">
        <ele>107.7</ele>
        <time>2025-02-25T14:57:03Z</time>
      </trkpt>
      <trkpt lat="48.08681" lon="-3.55068">
        <ele>107.7</ele>
        <time>2025-02-25T14:57:04Z</time>
      </trkpt>
      <trkpt lat="48.0868" lon="-3.55066">
        <ele>107.7</ele>
        <time>2025-02-25T14:57:05Z</time>
      </trkpt>
      <trkpt lat="48.0868" lon="-3.55065">
        <ele>107.7</ele>
        <time>2025-02-25T14:57:06Z</time>
      </trkpt>
      <trkpt lat="48.08681" lon="-3.55064">
        <ele>107.6</ele>
        <time>2025-02-25T14:57:07Z</time>
      </trkpt>
      <trkpt lat="48.0868" lon="-3.55062">
        <ele>107.6</ele>
        <time>2025-02-25T14:57:08Z</time>
      </trkpt>
      <trkpt lat="48.0868" lon="-3.55062">
        <ele>107.6</ele>
        <time>2025-02-25T14:57:09Z</time>
      </trkpt>
      <trkpt lat="48.0868" lon="-3.55061">
        <ele>107.6</ele>
        <time>2025-02-25T14:57:10Z</time>
      </trkpt>
      <trkpt lat="48.08679" lon="-3.5506">
        <ele>107.6</ele>
        <time>2025-02-25T14:57:11Z</time>
      </trkpt>
      <trkpt lat="48.0868" lon="-3.5506">
        <ele>107.6</ele>
        <time>2025-02-25T14:57:12Z</time>
      </trkpt>
      <trkpt lat="48.08679" lon="-3.5506">
        <ele>107.6</ele>
        <time>2025-02-25T14:57:13Z</time>
      </trkpt>
      <trkpt lat="48.08678" lon="-3.55062">
        <ele>107.7</ele>
        <time>2025-02-25T14:57:14Z</time>
      </trkpt>
      <trkpt lat="48.08678" lon="-3.55063">
        <ele>107.8</ele>
        <time>2025-02-25T14:57:15Z</time>
      </trkpt>
      <trkpt lat="48.08678" lon="-3.55063">
        <ele>107.8</ele>
        <time>2025-02-25T14:57:16Z</time>
      </trkpt>
      <trkpt lat="48.08678" lon="-3.55063">
        <ele>107.8</ele>
        <time>2025-02-25T14:57:17Z</time>
      </trkpt>
      <trkpt lat="48.08678" lon="-3.55063">
        <ele>107.8</ele>
        <time>2025-02-25T14:57:18Z</time>
      </trkpt>
      <trkpt lat="48.08678" lon="-3.55063">
        <ele>107.8</ele>
        <time>2025-02-25T14:57:19Z</time>
      </trkpt>
      <trkpt lat="48.08678" lon="-3.55063">
        <ele>107.8</ele>
        <time>2025-02-25T14:57:20Z</time>
      </trkpt>
      <trkpt lat="48.08678" lon="-3.55063">
        <ele>107.8</ele>
        <time>2025-02-25T14:57:21Z</time>
      </trkpt>
      <trkpt lat="48.08678" lon="-3.55063">
        <ele>107.8</ele>
        <time>2025-02-25T14:57:22Z</time>
      </trkpt>
      <trkpt lat="48.08678" lon="-3.55062">
        <ele>107.7</ele>
        <time>2025-02-25T14:57:23Z</time>
      </trkpt>
      <trkpt lat="48.08677" lon="-3.55062">
        <ele>107.8</ele>
        <time>2025-02-25T14:57:24Z</time>
      </trkpt>
      <trkpt lat="48.08676" lon="-3.5506">
        <ele>107.8</ele>
        <time>2025-02-25T14:57:25Z</time>
      </trkpt>
      <trkpt lat="48.08676" lon="-3.5506">
        <ele>107.8</ele>
        <time>2025-02-25T14:57:26Z</time>
      </trkpt>
      <trkpt lat="48.08676" lon="-3.55059">
        <ele>107.7</ele>
        <time>2025-02-25T14:57:27Z</time>
      </trkpt>
      <trkpt lat="48.08676" lon="-3.55057">
        <ele>107.7</ele>
        <time>2025-02-25T14:57:28Z</time>
      </trkpt>
      <trkpt lat="48.08675" lon="-3.55057">
        <ele>107.7</ele>
        <time>2025-02-25T14:57:29Z</time>
      </trkpt>
      <trkpt lat="48.08674" lon="-3.55058">
        <ele>107.8</ele>
        <time>2025-02-25T14:57:30Z</time>
      </trkpt>
      <trkpt lat="48.08673" lon="-3.55059">
        <ele>107.9</ele>
        <time>2025-02-25T14:57:31Z</time>
      </trkpt>
      <trkpt lat="48.08673" lon="-3.5506">
        <ele>107.9</ele>
        <time>2025-02-25T14:57:32Z</time>
      </trkpt>
      <trkpt lat="48.08672" lon="-3.55061">
        <ele>108</ele>
        <time>2025-02-25T14:57:33Z</time>
      </trkpt>
      <trkpt lat="48.08671" lon="-3.55062">
        <ele>108</ele>
        <time>2025-02-25T14:57:34Z</time>
      </trkpt>
      <trkpt lat="48.0867" lon="-3.55062">
        <ele>108.1</ele>
        <time>2025-02-25T14:57:35Z</time>
      </trkpt>
      <trkpt lat="48.08669" lon="-3.55062">
        <ele>108.1</ele>
        <time>2025-02-25T14:57:36Z</time>
      </trkpt>
      <trkpt lat="48.08669" lon="-3.55061">
        <ele>108.1</ele>
        <time>2025-02-25T14:57:37Z</time>
      </trkpt>
      <trkpt lat="48.08667" lon="-3.5506">
        <ele>108.1</ele>
        <time>2025-02-25T14:57:38Z</time>
      </trkpt>
      <trkpt lat="48.08667" lon="-3.55059">
        <ele>108.1</ele>
        <time>2025-02-25T14:57:39Z</time>
      </trkpt>
      <trkpt lat="48.08666" lon="-3.55059">
        <ele>108.2</ele>
        <time>2025-02-25T14:57:40Z</time>
      </trkpt>
      <trkpt lat="48.08666" lon="-3.55058">
        <ele>108.1</ele>
        <time>2025-02-25T14:57:41Z</time>
      </trkpt>
      <trkpt lat="48.08665" lon="-3.55058">
        <ele>108.2</ele>
        <time>2025-02-25T14:57:42Z</time>
      </trkpt>
      <trkpt lat="48.08665" lon="-3.55057">
        <ele>108.2</ele>
        <time>2025-02-25T14:57:43Z</time>
      </trkpt>
      <trkpt lat="48.08665" lon="-3.55056">
        <ele>108.1</ele>
        <time>2025-02-25T14:57:44Z</time>
      </trkpt>
      <trkpt lat="48.08665" lon="-3.55056">
        <ele>108.1</ele>
        <time>2025-02-25T14:57:45Z</time>
      </trkpt>
      <trkpt lat="48.08666" lon="-3.55056">
        <ele>108.1</ele>
        <time>2025-02-25T14:57:46Z</time>
      </trkpt>
      <trkpt lat="48.08666" lon="-3.55056">
        <ele>108.1</ele>
        <time>2025-02-25T14:57:47Z</time>
      </trkpt>
      <trkpt lat="48.08666" lon="-3.55056">
        <ele>108.1</ele>
        <time>2025-02-25T14:57:48Z</time>
      </trkpt>
      <trkpt lat="48.08666" lon="-3.55057">
        <ele>108.1</ele>
        <time>2025-02-25T14:57:49Z</time>
      </trkpt>
      <trkpt lat="48.08666" lon="-3.5506">
        <ele>108.2</ele>
        <time>2025-02-25T14:57:50Z</time>
      </trkpt>
      <trkpt lat="48.08666" lon="-3.55061">
        <ele>108.2</ele>
        <time>2025-02-25T14:57:51Z</time>
      </trkpt>
      <trkpt lat="48.08666" lon="-3.55061">
        <ele>108.2</ele>
        <time>2025-02-25T14:57:52Z</time>
      </trkpt>
      <trkpt lat="48.08666" lon="-3.55061">
        <ele>108.2</ele>
        <time>2025-02-25T14:57:53Z</time>
      </trkpt>
      <trkpt lat="48.08666" lon="-3.55061">
        <ele>108.2</ele>
        <time>2025-02-25T14:57:54Z</time>
      </trkpt>
      <trkpt lat="48.08666" lon="-3.55061">
        <ele>108.2</ele>
        <time>2025-02-25T14:57:55Z</time>
      </trkpt>
      <trkpt lat="48.08665" lon="-3.55061">
        <ele>108.3</ele>
        <time>2025-02-25T14:57:56Z</time>
      </trkpt>
      <trkpt lat="48.08665" lon="-3.55062">
        <ele>108.4</ele>
        <time>2025-02-25T14:57:57Z</time>
      </trkpt>
      <trkpt lat="48.08664" lon="-3.55063">
        <ele>108.5</ele>
        <time>2025-02-25T14:57:58Z</time>
      </trkpt>
      <trkpt lat="48.08663" lon="-3.55063">
        <ele>108.6</ele>
        <time>2025-02-25T14:57:59Z</time>
      </trkpt>
      <trkpt lat="48.08663" lon="-3.55064">
        <ele>108.6</ele>
        <time>2025-02-25T14:58:00Z</time>
      </trkpt>
      <trkpt lat="48.08663" lon="-3.55065">
        <ele>108.6</ele>
        <time>2025-02-25T14:58:01Z</time>
      </trkpt>
      <trkpt lat="48.08662" lon="-3.55067">
        <ele>108.8</ele>
        <time>2025-02-25T14:58:02Z</time>
      </trkpt>
      <trkpt lat="48.08661" lon="-3.55069">
        <ele>109</ele>
        <time>2025-02-25T14:58:03Z</time>
      </trkpt>
      <trkpt lat="48.08661" lon="-3.5507">
        <ele>109</ele>
        <time>2025-02-25T14:58:04Z</time>
      </trkpt>
      <trkpt lat="48.0866" lon="-3.55071">
        <ele>109.2</ele>
        <time>2025-02-25T14:58:05Z</time>
      </trkpt>
      <trkpt lat="48.0866" lon="-3.55072">
        <ele>109.2</ele>
        <time>2025-02-25T14:58:06Z</time>
      </trkpt>
      <trkpt lat="48.08659" lon="-3.55073">
        <ele>109.4</ele>
        <time>2025-02-25T14:58:07Z</time>
      </trkpt>
      <trkpt lat="48.08658" lon="-3.55073">
        <ele>109.4</ele>
        <time>2025-02-25T14:58:08Z</time>
      </trkpt>
      <trkpt lat="48.08657" lon="-3.55074">
        <ele>109.6</ele>
        <time>2025-02-25T14:58:09Z</time>
      </trkpt>
      <trkpt lat="48.08656" lon="-3.55074">
        <ele>109.7</ele>
        <time>2025-02-25T14:58:10Z</time>
      </trkpt>
      <trkpt lat="48.08655" lon="-3.55074">
        <ele>109.8</ele>
        <time>2025-02-25T14:58:11Z</time>
      </trkpt>
      <trkpt lat="48.08654" lon="-3.55074">
        <ele>109.9</ele>
        <time>2025-02-25T14:58:12Z</time>
      </trkpt>
      <trkpt lat="48.08653" lon="-3.55075">
        <ele>110</ele>
        <time>2025-02-25T14:58:13Z</time>
      </trkpt>
      <trkpt lat="48.08653" lon="-3.55076">
        <ele>110.1</ele>
        <time>2025-02-25T14:58:14Z</time>
      </trkpt>
      <trkpt lat="48.08652" lon="-3.55076">
        <ele>110.2</ele>
        <time>2025-02-25T14:58:15Z</time>
      </trkpt>
      <trkpt lat="48.08651" lon="-3.55074">
        <ele>110.2</ele>
        <time>2025-02-25T14:58:16Z</time>
      </trkpt>
      <trkpt lat="48.0865" lon="-3.55071">
        <ele>110.1</ele>
        <time>2025-02-25T14:58:17Z</time>
      </trkpt>
      <trkpt lat="48.0865" lon="-3.55069">
        <ele>110</ele>
        <time>2025-02-25T14:58:18Z</time>
      </trkpt>
      <trkpt lat="48.08649" lon="-3.55067">
        <ele>109.9</ele>
        <time>2025-02-25T14:58:19Z</time>
      </trkpt>
      <trkpt lat="48.08648" lon="-3.55066">
        <ele>110</ele>
        <time>2025-02-25T14:58:20Z</time>
      </trkpt>
      <trkpt lat="48.08647" lon="-3.55065">
        <ele>110</ele>
        <time>2025-02-25T14:58:21Z</time>
      </trkpt>
      <trkpt lat="48.08646" lon="-3.55064">
        <ele>110</ele>
        <time>2025-02-25T14:58:22Z</time>
      </trkpt>
      <trkpt lat="48.08646" lon="-3.55063">
        <ele>110</ele>
        <time>2025-02-25T14:58:23Z</time>
      </trkpt>
      <trkpt lat="48.08645" lon="-3.55062">
        <ele>110</ele>
        <time>2025-02-25T14:58:24Z</time>
      </trkpt>
      <trkpt lat="48.08644" lon="-3.55063">
        <ele>110.1</ele>
        <time>2025-02-25T14:58:25Z</time>
      </trkpt>
      <trkpt lat="48.08643" lon="-3.55064">
        <ele>110.3</ele>
        <time>2025-02-25T14:58:26Z</time>
      </trkpt>
      <trkpt lat="48.08642" lon="-3.55064">
        <ele>110.3</ele>
        <time>2025-02-25T14:58:27Z</time>
      </trkpt>
      <trkpt lat="48.0864" lon="-3.55064">
        <ele>110.5</ele>
        <time>2025-02-25T14:58:28Z</time>
      </trkpt>
      <trkpt lat="48.0864" lon="-3.55065">
        <ele>110.6</ele>
        <time>2025-02-25T14:58:29Z</time>
      </trkpt>
      <trkpt lat="48.08639" lon="-3.55065">
        <ele>110.7</ele>
        <time>2025-02-25T14:58:30Z</time>
      </trkpt>
      <trkpt lat="48.08638" lon="-3.55064">
        <ele>110.6</ele>
        <time>2025-02-25T14:58:31Z</time>
      </trkpt>
      <trkpt lat="48.08637" lon="-3.55063">
        <ele>110.6</ele>
        <time>2025-02-25T14:58:32Z</time>
      </trkpt>
      <trkpt lat="48.08636" lon="-3.55062">
        <ele>110.6</ele>
        <time>2025-02-25T14:58:33Z</time>
      </trkpt>
      <trkpt lat="48.08635" lon="-3.55062">
        <ele>110.6</ele>
        <time>2025-02-25T14:58:34Z</time>
      </trkpt>
      <trkpt lat="48.08634" lon="-3.55061">
        <ele>110.6</ele>
        <time>2025-02-25T14:58:35Z</time>
      </trkpt>
      <trkpt lat="48.08633" lon="-3.55061">
        <ele>110.6</ele>
        <time>2025-02-25T14:58:36Z</time>
      </trkpt>
      <trkpt lat="48.08632" lon="-3.55062">
        <ele>110.7</ele>
        <time>2025-02-25T14:58:37Z</time>
      </trkpt>
      <trkpt lat="48.0863" lon="-3.55063">
        <ele>110.9</ele>
        <time>2025-02-25T14:58:38Z</time>
      </trkpt>
      <trkpt lat="48.08629" lon="-3.55065">
        <ele>111</ele>
        <time>2025-02-25T14:58:39Z</time>
      </trkpt>
      <trkpt lat="48.08628" lon="-3.55066">
        <ele>111.1</ele>
        <time>2025-02-25T14:58:40Z</time>
      </trkpt>
      <trkpt lat="48.08627" lon="-3.55067">
        <ele>111.3</ele>
        <time>2025-02-25T14:58:41Z</time>
      </trkpt>
      <trkpt lat="48.08626" lon="-3.55067">
        <ele>111.3</ele>
        <time>2025-02-25T14:58:42Z</time>
      </trkpt>
      <trkpt lat="48.08625" lon="-3.55067">
        <ele>111.3</ele>
        <time>2025-02-25T14:58:43Z</time>
      </trkpt>
      <trkpt lat="48.08624" lon="-3.55068">
        <ele>111.4</ele>
        <time>2025-02-25T14:58:44Z</time>
      </trkpt>
      <trkpt lat="48.08623" lon="-3.55068">
        <ele>111.5</ele>
        <time>2025-02-25T14:58:45Z</time>
      </trkpt>
      <trkpt lat="48.08622" lon="-3.55068">
        <ele>111.5</ele>
        <time>2025-02-25T14:58:46Z</time>
      </trkpt>
      <trkpt lat="48.08621" lon="-3.55069">
        <ele>111.6</ele>
        <time>2025-02-25T14:58:47Z</time>
      </trkpt>
      <trkpt lat="48.0862" lon="-3.55069">
        <ele>111.6</ele>
        <time>2025-02-25T14:58:48Z</time>
      </trkpt>
      <trkpt lat="48.08619" lon="-3.5507">
        <ele>111.8</ele>
        <time>2025-02-25T14:58:49Z</time>
      </trkpt>
      <trkpt lat="48.08618" lon="-3.55068">
        <ele>111.6</ele>
        <time>2025-02-25T14:58:50Z</time>
      </trkpt>
      <trkpt lat="48.08618" lon="-3.55066">
        <ele>111.5</ele>
        <time>2025-02-25T14:58:51Z</time>
      </trkpt>
      <trkpt lat="48.08617" lon="-3.55066">
        <ele>111.5</ele>
        <time>2025-02-25T14:58:52Z</time>
      </trkpt>
      <trkpt lat="48.08616" lon="-3.55066">
        <ele>111.6</ele>
        <time>2025-02-25T14:58:53Z</time>
      </trkpt>
      <trkpt lat="48.08615" lon="-3.55066">
        <ele>111.6</ele>
        <time>2025-02-25T14:58:54Z</time>
      </trkpt>
      <trkpt lat="48.08615" lon="-3.55066">
        <ele>111.6</ele>
        <time>2025-02-25T14:58:55Z</time>
      </trkpt>
      <trkpt lat="48.08614" lon="-3.55065">
        <ele>111.6</ele>
        <time>2025-02-25T14:58:56Z</time>
      </trkpt>
      <trkpt lat="48.08613" lon="-3.55064">
        <ele>111.5</ele>
        <time>2025-02-25T14:58:57Z</time>
      </trkpt>
      <trkpt lat="48.08612" lon="-3.55063">
        <ele>111.5</ele>
        <time>2025-02-25T14:58:58Z</time>
      </trkpt>
      <trkpt lat="48.08611" lon="-3.55063">
        <ele>111.5</ele>
        <time>2025-02-25T14:58:59Z</time>
      </trkpt>
      <trkpt lat="48.0861" lon="-3.55062">
        <ele>111.5</ele>
        <time>2025-02-25T14:59:00Z</time>
      </trkpt>
      <trkpt lat="48.08609" lon="-3.55063">
        <ele>111.6</ele>
        <time>2025-02-25T14:59:01Z</time>
      </trkpt>
      <trkpt lat="48.08608" lon="-3.55063">
        <ele>111.7</ele>
        <time>2025-02-25T14:59:02Z</time>
      </trkpt>
      <trkpt lat="48.08607" lon="-3.55063">
        <ele>111.7</ele>
        <time>2025-02-25T14:59:03Z</time>
      </trkpt>
      <trkpt lat="48.08606" lon="-3.55064">
        <ele>111.8</ele>
        <time>2025-02-25T14:59:04Z</time>
      </trkpt>
      <trkpt lat="48.08605" lon="-3.55064">
        <ele>111.9</ele>
        <time>2025-02-25T14:59:05Z</time>
      </trkpt>
      <trkpt lat="48.08605" lon="-3.55064">
        <ele>111.9</ele>
        <time>2025-02-25T14:59:06Z</time>
      </trkpt>
      <trkpt lat="48.08604" lon="-3.55064">
        <ele>111.9</ele>
        <time>2025-02-25T14:59:07Z</time>
      </trkpt>
      <trkpt lat="48.08603" lon="-3.55063">
        <ele>111.9</ele>
        <time>2025-02-25T14:59:08Z</time>
      </trkpt>
      <trkpt lat="48.08602" lon="-3.55062">
        <ele>111.9</ele>
        <time>2025-02-25T14:59:09Z</time>
      </trkpt>
      <trkpt lat="48.08601" lon="-3.55063">
        <ele>112</ele>
        <time>2025-02-25T14:59:10Z</time>
      </trkpt>
      <trkpt lat="48.086" lon="-3.55063">
        <ele>112</ele>
        <time>2025-02-25T14:59:11Z</time>
      </trkpt>
      <trkpt lat="48.086" lon="-3.55063">
        <ele>112</ele>
        <time>2025-02-25T14:59:12Z</time>
      </trkpt>
      <trkpt lat="48.08599" lon="-3.55062">
        <ele>112</ele>
        <time>2025-02-25T14:59:13Z</time>
      </trkpt>
      <trkpt lat="48.08598" lon="-3.55062">
        <ele>112</ele>
        <time>2025-02-25T14:59:14Z</time>
      </trkpt>
      <trkpt lat="48.08597" lon="-3.55062">
        <ele>112.1</ele>
        <time>2025-02-25T14:59:15Z</time>
      </trkpt>
      <trkpt lat="48.08597" lon="-3.55061">
        <ele>112</ele>
        <time>2025-02-25T14:59:16Z</time>
      </trkpt>
      <trkpt lat="48.08596" lon="-3.55061">
        <ele>112</ele>
        <time>2025-02-25T14:59:17Z</time>
      </trkpt>
      <trkpt lat="48.08596" lon="-3.55062">
        <ele>112.1</ele>
        <time>2025-02-25T14:59:18Z</time>
      </trkpt>
      <trkpt lat="48.08595" lon="-3.55062">
        <ele>112.2</ele>
        <time>2025-02-25T14:59:19Z</time>
      </trkpt>
      <trkpt lat="48.08594" lon="-3.55062">
        <ele>112.2</ele>
        <time>2025-02-25T14:59:20Z</time>
      </trkpt>
      <trkpt lat="48.08593" lon="-3.55062">
        <ele>112.3</ele>
        <time>2025-02-25T14:59:21Z</time>
      </trkpt>
      <trkpt lat="48.08592" lon="-3.55063">
        <ele>112.4</ele>
        <time>2025-02-25T14:59:22Z</time>
      </trkpt>
      <trkpt lat="48.08591" lon="-3.55063">
        <ele>112.5</ele>
        <time>2025-02-25T14:59:23Z</time>
      </trkpt>
      <trkpt lat="48.08591" lon="-3.55063">
        <ele>112.5</ele>
        <time>2025-02-25T14:59:24Z</time>
      </trkpt>
      <trkpt lat="48.0859" lon="-3.55063">
        <ele>112.5</ele>
        <time>2025-02-25T14:59:25Z</time>
      </trkpt>
      <trkpt lat="48.08589" lon="-3.55063">
        <ele>112.5</ele>
        <time>2025-02-25T14:59:26Z</time>
      </trkpt>
      <trkpt lat="48.08588" lon="-3.55064">
        <ele>112.7</ele>
        <time>2025-02-25T14:59:27Z</time>
      </trkpt>
      <trkpt lat="48.08587" lon="-3.55064">
        <ele>112.7</ele>
        <time>2025-02-25T14:59:28Z</time>
      </trkpt>
      <trkpt lat="48.08586" lon="-3.55064">
        <ele>112.8</ele>
        <time>2025-02-25T14:59:29Z</time>
      </trkpt>
      <trkpt lat="48.08585" lon="-3.55064">
        <ele>112.8</ele>
        <time>2025-02-25T14:59:30Z</time>
      </trkpt>
      <trkpt lat="48.08584" lon="-3.55064">
        <ele>112.9</ele>
        <time>2025-02-25T14:59:31Z</time>
      </trkpt>
      <trkpt lat="48.08583" lon="-3.55065">
        <ele>113</ele>
        <time>2025-02-25T14:59:32Z</time>
      </trkpt>
      <trkpt lat="48.08582" lon="-3.55065">
        <ele>113.1</ele>
        <time>2025-02-25T14:59:33Z</time>
      </trkpt>
      <trkpt lat="48.08581" lon="-3.55065">
        <ele>113.2</ele>
        <time>2025-02-25T14:59:34Z</time>
      </trkpt>
      <trkpt lat="48.0858" lon="-3.55065">
        <ele>113.2</ele>
        <time>2025-02-25T14:59:35Z</time>
      </trkpt>
      <trkpt lat="48.08579" lon="-3.55065">
        <ele>113.3</ele>
        <time>2025-02-25T14:59:36Z</time>
      </trkpt>
      <trkpt lat="48.08579" lon="-3.55064">
        <ele>113.2</ele>
        <time>2025-02-25T14:59:37Z</time>
      </trkpt>
      <trkpt lat="48.08578" lon="-3.55064">
        <ele>113.2</ele>
        <time>2025-02-25T14:59:38Z</time>
      </trkpt>
      <trkpt lat="48.08577" lon="-3.55064">
        <ele>113.3</ele>
        <time>2025-02-25T14:59:39Z</time>
      </trkpt>
      <trkpt lat="48.08576" lon="-3.55064">
        <ele>113.4</ele>
        <time>2025-02-25T14:59:40Z</time>
      </trkpt>
      <trkpt lat="48.08574" lon="-3.55064">
        <ele>113.5</ele>
        <time>2025-02-25T14:59:41Z</time>
      </trkpt>
      <trkpt lat="48.08573" lon="-3.55065">
        <ele>113.6</ele>
        <time>2025-02-25T14:59:42Z</time>
      </trkpt>
      <trkpt lat="48.08572" lon="-3.55065">
        <ele>113.7</ele>
        <time>2025-02-25T14:59:43Z</time>
      </trkpt>
      <trkpt lat="48.08571" lon="-3.55065">
        <ele>113.8</ele>
        <time>2025-02-25T14:59:44Z</time>
      </trkpt>
      <trkpt lat="48.0857" lon="-3.55065">
        <ele>113.8</ele>
        <time>2025-02-25T14:59:45Z</time>
      </trkpt>
      <trkpt lat="48.08569" lon="-3.55065">
        <ele>113.9</ele>
        <time>2025-02-25T14:59:46Z</time>
      </trkpt>
      <trkpt lat="48.08568" lon="-3.55065">
        <ele>113.9</ele>
        <time>2025-02-25T14:59:47Z</time>
      </trkpt>
      <trkpt lat="48.08567" lon="-3.55065">
        <ele>114</ele>
        <time>2025-02-25T14:59:48Z</time>
      </trkpt>
      <trkpt lat="48.08566" lon="-3.55065">
        <ele>114.1</ele>
        <time>2025-02-25T14:59:49Z</time>
      </trkpt>
      <trkpt lat="48.08566" lon="-3.55064">
        <ele>114</ele>
        <time>2025-02-25T14:59:50Z</time>
      </trkpt>
      <trkpt lat="48.08565" lon="-3.55063">
        <ele>113.9</ele>
        <time>2025-02-25T14:59:51Z</time>
      </trkpt>
      <trkpt lat="48.08564" lon="-3.55064">
        <ele>114.1</ele>
        <time>2025-02-25T14:59:52Z</time>
      </trkpt>
      <trkpt lat="48.08563" lon="-3.55064">
        <ele>114.2</ele>
        <time>2025-02-25T14:59:53Z</time>
      </trkpt>
      <trkpt lat="48.08562" lon="-3.55063">
        <ele>114.1</ele>
        <time>2025-02-25T14:59:54Z</time>
      </trkpt>
      <trkpt lat="48.08562" lon="-3.55064">
        <ele>114.2</ele>
        <time>2025-02-25T14:59:55Z</time>
      </trkpt>
      <trkpt lat="48.0856" lon="-3.55064">
        <ele>114.3</ele>
        <time>2025-02-25T14:59:56Z</time>
      </trkpt>
      <trkpt lat="48.0856" lon="-3.55064">
        <ele>114.3</ele>
        <time>2025-02-25T14:59:57Z</time>
      </trkpt>
      <trkpt lat="48.08559" lon="-3.55063">
        <ele>114.3</ele>
        <time>2025-02-25T14:59:58Z</time>
      </trkpt>
      <trkpt lat="48.08558" lon="-3.55064">
        <ele>114.5</ele>
        <time>2025-02-25T14:59:59Z</time>
      </trkpt>
      <trkpt lat="48.08557" lon="-3.55063">
        <ele>114.4</ele>
        <time>2025-02-25T15:00:00Z</time>
      </trkpt>
      <trkpt lat="48.08556" lon="-3.55063">
        <ele>114.5</ele>
        <time>2025-02-25T15:00:01Z</time>
      </trkpt>
      <trkpt lat="48.08555" lon="-3.55063">
        <ele>114.6</ele>
        <time>2025-02-25T15:00:02Z</time>
      </trkpt>
      <trkpt lat="48.08554" lon="-3.55063">
        <ele>114.7</ele>
        <time>2025-02-25T15:00:03Z</time>
      </trkpt>
      <trkpt lat="48.08553" lon="-3.55064">
        <ele>114.9</ele>
        <time>2025-02-25T15:00:04Z</time>
      </trkpt>
      <trkpt lat="48.08552" lon="-3.55064">
        <ele>115.1</ele>
        <time>2025-02-25T15:00:05Z</time>
      </trkpt>
      <trkpt lat="48.08551" lon="-3.55063">
        <ele>115.1</ele>
        <time>2025-02-25T15:00:06Z</time>
      </trkpt>
      <trkpt lat="48.0855" lon="-3.55064">
        <ele>115.3</ele>
        <time>2025-02-25T15:00:07Z</time>
      </trkpt>
      <trkpt lat="48.08549" lon="-3.55065">
        <ele>115.5</ele>
        <time>2025-02-25T15:00:08Z</time>
      </trkpt>
      <trkpt lat="48.08547" lon="-3.55067">
        <ele>115.9</ele>
        <time>2025-02-25T15:00:09Z</time>
      </trkpt>
      <trkpt lat="48.08546" lon="-3.55068">
        <ele>116.1</ele>
        <time>2025-02-25T15:00:10Z</time>
      </trkpt>
      <trkpt lat="48.08545" lon="-3.55068">
        <ele>116.2</ele>
        <time>2025-02-25T15:00:11Z</time>
      </trkpt>
      <trkpt lat="48.08544" lon="-3.55069">
        <ele>116.4</ele>
        <time>2025-02-25T15:00:12Z</time>
      </trkpt>
      <trkpt lat="48.08543" lon="-3.55068">
        <ele>116.5</ele>
        <time>2025-02-25T15:00:13Z</time>
      </trkpt>
      <trkpt lat="48.08542" lon="-3.55068">
        <ele>116.6</ele>
        <time>2025-02-25T15:00:14Z</time>
      </trkpt>
      <trkpt lat="48.08542" lon="-3.55067">
        <ele>116.6</ele>
        <time>2025-02-25T15:00:15Z</time>
      </trkpt>
      <trkpt lat="48.08541" lon="-3.55066">
        <ele>116.7</ele>
        <time>2025-02-25T15:00:16Z</time>
      </trkpt>
      <trkpt lat="48.0854" lon="-3.55067">
        <ele>116.8</ele>
        <time>2025-02-25T15:00:17Z</time>
      </trkpt>
      <trkpt lat="48.08539" lon="-3.55068">
        <ele>117</ele>
        <time>2025-02-25T15:00:18Z</time>
      </trkpt>
      <trkpt lat="48.08538" lon="-3.55069">
        <ele>117.2</ele>
        <time>2025-02-25T15:00:19Z</time>
      </trkpt>
      <trkpt lat="48.08537" lon="-3.5507">
        <ele>117.4</ele>
        <time>2025-02-25T15:00:20Z</time>
      </trkpt>
      <trkpt lat="48.08536" lon="-3.5507">
        <ele>117.5</ele>
        <time>2025-02-25T15:00:21Z</time>
      </trkpt>
      <trkpt lat="48.08535" lon="-3.5507">
        <ele>117.6</ele>
        <time>2025-02-25T15:00:22Z</time>
      </trkpt>
      <trkpt lat="48.08534" lon="-3.5507">
        <ele>117.7</ele>
        <time>2025-02-25T15:00:23Z</time>
      </trkpt>
      <trkpt lat="48.08533" lon="-3.5507">
        <ele>117.9</ele>
        <time>2025-02-25T15:00:24Z</time>
      </trkpt>
      <trkpt lat="48.08532" lon="-3.55071">
        <ele>118</ele>
        <time>2025-02-25T15:00:25Z</time>
      </trkpt>
      <trkpt lat="48.08531" lon="-3.55072">
        <ele>118.2</ele>
        <time>2025-02-25T15:00:26Z</time>
      </trkpt>
      <trkpt lat="48.0853" lon="-3.55072">
        <ele>118.3</ele>
        <time>2025-02-25T15:00:27Z</time>
      </trkpt>
      <trkpt lat="48.08529" lon="-3.55073">
        <ele>118.5</ele>
        <time>2025-02-25T15:00:28Z</time>
      </trkpt>
      <trkpt lat="48.08528" lon="-3.55073">
        <ele>118.6</ele>
        <time>2025-02-25T15:00:29Z</time>
      </trkpt>
      <trkpt lat="48.08527" lon="-3.55073">
        <ele>118.7</ele>
        <time>2025-02-25T15:00:30Z</time>
      </trkpt>
      <trkpt lat="48.08526" lon="-3.55074">
        <ele>118.9</ele>
        <time>2025-02-25T15:00:31Z</time>
      </trkpt>
      <trkpt lat="48.08525" lon="-3.55075">
        <ele>119.1</ele>
        <time>2025-02-25T15:00:32Z</time>
      </trkpt>
      <trkpt lat="48.08524" lon="-3.55076">
        <ele>119.3</ele>
        <time>2025-02-25T15:00:33Z</time>
      </trkpt>
      <trkpt lat="48.08523" lon="-3.55076">
        <ele>119.4</ele>
        <time>2025-02-25T15:00:34Z</time>
      </trkpt>
      <trkpt lat="48.08522" lon="-3.55077">
        <ele>119.5</ele>
        <time>2025-02-25T15:00:35Z</time>
      </trkpt>
      <trkpt lat="48.08521" lon="-3.55078">
        <ele>119.7</ele>
        <time>2025-02-25T15:00:36Z</time>
      </trkpt>
      <trkpt lat="48.0852" lon="-3.55078">
        <ele>119.8</ele>
        <time>2025-02-25T15:00:37Z</time>
      </trkpt>
      <trkpt lat="48.08519" lon="-3.55079">
        <ele>119.9</ele>
        <time>2025-02-25T15:00:38Z</time>
      </trkpt>
      <trkpt lat="48.08517" lon="-3.55078">
        <ele>120.2</ele>
        <time>2025-02-25T15:00:39Z</time>
      </trkpt>
      <trkpt lat="48.08517" lon="-3.55078">
        <ele>120.2</ele>
        <time>2025-02-25T15:00:40Z</time>
      </trkpt>
      <trkpt lat="48.08516" lon="-3.55078">
        <ele>120.3</ele>
        <time>2025-02-25T15:00:41Z</time>
      </trkpt>
      <trkpt lat="48.08515" lon="-3.55078">
        <ele>120.5</ele>
        <time>2025-02-25T15:00:42Z</time>
      </trkpt>
      <trkpt lat="48.08514" lon="-3.55078">
        <ele>120.6</ele>
        <time>2025-02-25T15:00:43Z</time>
      </trkpt>
      <trkpt lat="48.08513" lon="-3.55078">
        <ele>120.7</ele>
        <time>2025-02-25T15:00:44Z</time>
      </trkpt>
      <trkpt lat="48.08512" lon="-3.55079">
        <ele>120.8</ele>
        <time>2025-02-25T15:00:45Z</time>
      </trkpt>
      <trkpt lat="48.08511" lon="-3.55079">
        <ele>120.9</ele>
        <time>2025-02-25T15:00:46Z</time>
      </trkpt>
      <trkpt lat="48.0851" lon="-3.55079">
        <ele>121.1</ele>
        <time>2025-02-25T15:00:47Z</time>
      </trkpt>
      <trkpt lat="48.08509" lon="-3.5508">
        <ele>121.2</ele>
        <time>2025-02-25T15:00:48Z</time>
      </trkpt>
      <trkpt lat="48.08508" lon="-3.55081">
        <ele>121.2</ele>
        <time>2025-02-25T15:00:49Z</time>
      </trkpt>
      <trkpt lat="48.08507" lon="-3.55081">
        <ele>121.3</ele>
        <time>2025-02-25T15:00:50Z</time>
      </trkpt>
      <trkpt lat="48.08506" lon="-3.55081">
        <ele>121.5</ele>
        <time>2025-02-25T15:00:51Z</time>
      </trkpt>
      <trkpt lat="48.08505" lon="-3.55081">
        <ele>121.6</ele>
        <time>2025-02-25T15:00:52Z</time>
      </trkpt>
      <trkpt lat="48.08504" lon="-3.55082">
        <ele>121.6</ele>
        <time>2025-02-25T15:00:53Z</time>
      </trkpt>
      <trkpt lat="48.08503" lon="-3.55082">
        <ele>121.8</ele>
        <time>2025-02-25T15:00:54Z</time>
      </trkpt>
      <trkpt lat="48.08502" lon="-3.55083">
        <ele>121.8</ele>
        <time>2025-02-25T15:00:55Z</time>
      </trkpt>
      <trkpt lat="48.08501" lon="-3.55084">
        <ele>121.9</ele>
        <time>2025-02-25T15:00:56Z</time>
      </trkpt>
      <trkpt lat="48.08501" lon="-3.55085">
        <ele>122</ele>
        <time>2025-02-25T15:00:57Z</time>
      </trkpt>
      <trkpt lat="48.085" lon="-3.55086">
        <ele>122.1</ele>
        <time>2025-02-25T15:00:58Z</time>
      </trkpt>
      <trkpt lat="48.08499" lon="-3.55085">
        <ele>122.2</ele>
        <time>2025-02-25T15:00:59Z</time>
      </trkpt>
      <trkpt lat="48.08499" lon="-3.55084">
        <ele>122.2</ele>
        <time>2025-02-25T15:01:00Z</time>
      </trkpt>
      <trkpt lat="48.08499" lon="-3.55084">
        <ele>122.2</ele>
        <time>2025-02-25T15:01:01Z</time>
      </trkpt>
      <trkpt lat="48.08499" lon="-3.55083">
        <ele>122.2</ele>
        <time>2025-02-25T15:01:02Z</time>
      </trkpt>
      <trkpt lat="48.08499" lon="-3.55083">
        <ele>122.2</ele>
        <time>2025-02-25T15:01:03Z</time>
      </trkpt>
      <trkpt lat="48.08499" lon="-3.55083">
        <ele>122.2</ele>
        <time>2025-02-25T15:01:04Z</time>
      </trkpt>
      <trkpt lat="48.08499" lon="-3.55083">
        <ele>122.2</ele>
        <time>2025-02-25T15:01:05Z</time>
      </trkpt>
      <trkpt lat="48.08499" lon="-3.55083">
        <ele>122.2</ele>
        <time>2025-02-25T15:01:06Z</time>
      </trkpt>
      <trkpt lat="48.08499" lon="-3.55083">
        <ele>122.2</ele>
        <time>2025-02-25T15:01:07Z</time>
      </trkpt>
      <trkpt lat="48.08499" lon="-3.55083">
        <ele>122.2</ele>
        <time>2025-02-25T15:01:08Z</time>
      </trkpt>
      <trkpt lat="48.08499" lon="-3.55083">
        <ele>122.2</ele>
        <time>2025-02-25T15:01:09Z</time>
      </trkpt>
      <trkpt lat="48.08499" lon="-3.55084">
        <ele>122.2</ele>
        <time>2025-02-25T15:01:10Z</time>
      </trkpt>
      <trkpt lat="48.08499" lon="-3.55084">
        <ele>122.2</ele>
        <time>2025-02-25T15:01:11Z</time>
      </trkpt>
      <trkpt lat="48.08499" lon="-3.55084">
        <ele>122.2</ele>
        <time>2025-02-25T15:01:12Z</time>
      </trkpt>
      <trkpt lat="48.08499" lon="-3.55084">
        <ele>122.2</ele>
        <time>2025-02-25T15:01:13Z</time>
      </trkpt>
      <trkpt lat="48.08499" lon="-3.55084">
        <ele>122.2</ele>
        <time>2025-02-25T15:01:14Z</time>
      </trkpt>
      <trkpt lat="48.08499" lon="-3.55084">
        <ele>122.2</ele>
        <time>2025-02-25T15:01:15Z</time>
      </trkpt>
      <trkpt lat="48.08499" lon="-3.55084">
        <ele>122.2</ele>
        <time>2025-02-25T15:01:16Z</time>
      </trkpt>
      <trkpt lat="48.08499" lon="-3.55084">
        <ele>122.2</ele>
        <time>2025-02-25T15:01:17Z</time>
      </trkpt>
      <trkpt lat="48.08499" lon="-3.55084">
        <ele>122.2</ele>
        <time>2025-02-25T15:01:18Z</time>
      </trkpt>
      <trkpt lat="48.08499" lon="-3.55084">
        <ele>122.2</ele>
        <time>2025-02-25T15:01:19Z</time>
      </trkpt>
      <trkpt lat="48.08499" lon="-3.55084">
        <ele>122.2</ele>
        <time>2025-02-25T15:01:20Z</time>
      </trkpt>
      <trkpt lat="48.08499" lon="-3.55084">
        <ele>122.2</ele>
        <time>2025-02-25T15:01:21Z</time>
      </trkpt>
      <trkpt lat="48.08499" lon="-3.55084">
        <ele>122.2</ele>
        <time>2025-02-25T15:01:22Z</time>
      </trkpt>
      <trkpt lat="48.08499" lon="-3.55084">
        <ele>122.2</ele>
        <time>2025-02-25T15:01:23Z</time>
      </trkpt>
      <trkpt lat="48.08499" lon="-3.55084">
        <ele>122.2</ele>
        <time>2025-02-25T15:01:24Z</time>
      </trkpt>
      <trkpt lat="48.08499" lon="-3.55083">
        <ele>122.2</ele>
        <time>2025-02-25T15:01:25Z</time>
      </trkpt>
      <trkpt lat="48.08498" lon="-3.55083">
        <ele>122.3</ele>
        <time>2025-02-25T15:01:26Z</time>
      </trkpt>
      <trkpt lat="48.08498" lon="-3.55084">
        <ele>122.3</ele>
        <time>2025-02-25T15:01:27Z</time>
      </trkpt>
      <trkpt lat="48.08497" lon="-3.55084">
        <ele>122.5</ele>
        <time>2025-02-25T15:01:28Z</time>
      </trkpt>
      <trkpt lat="48.08496" lon="-3.55085">
        <ele>122.6</ele>
        <time>2025-02-25T15:01:29Z</time>
      </trkpt>
      <trkpt lat="48.08496" lon="-3.55086">
        <ele>122.6</ele>
        <time>2025-02-25T15:01:30Z</time>
      </trkpt>
      <trkpt lat="48.08495" lon="-3.55087">
        <ele>122.8</ele>
        <time>2025-02-25T15:01:31Z</time>
      </trkpt>
      <trkpt lat="48.08495" lon="-3.55088">
        <ele>122.8</ele>
        <time>2025-02-25T15:01:32Z</time>
      </trkpt>
      <trkpt lat="48.08494" lon="-3.55089">
        <ele>123</ele>
        <time>2025-02-25T15:01:33Z</time>
      </trkpt>
      <trkpt lat="48.08493" lon="-3.55091">
        <ele>123.1</ele>
        <time>2025-02-25T15:01:34Z</time>
      </trkpt>
      <trkpt lat="48.08492" lon="-3.55092">
        <ele>123.3</ele>
        <time>2025-02-25T15:01:35Z</time>
      </trkpt>
      <trkpt lat="48.08492" lon="-3.55092">
        <ele>123.3</ele>
        <time>2025-02-25T15:01:36Z</time>
      </trkpt>
      <trkpt lat="48.08491" lon="-3.55093">
        <ele>123.4</ele>
        <time>2025-02-25T15:01:37Z</time>
      </trkpt>
      <trkpt lat="48.0849" lon="-3.55094">
        <ele>123.5</ele>
        <time>2025-02-25T15:01:38Z</time>
      </trkpt>
      <trkpt lat="48.0849" lon="-3.55094">
        <ele>123.5</ele>
        <time>2025-02-25T15:01:39Z</time>
      </trkpt>
      <trkpt lat="48.08489" lon="-3.55095">
        <ele>123.7</ele>
        <time>2025-02-25T15:01:40Z</time>
      </trkpt>
      <trkpt lat="48.08488" lon="-3.55095">
        <ele>123.8</ele>
        <time>2025-02-25T15:01:41Z</time>
      </trkpt>
      <trkpt lat="48.08488" lon="-3.55095">
        <ele>123.8</ele>
        <time>2025-02-25T15:01:42Z</time>
      </trkpt>
      <trkpt lat="48.08487" lon="-3.55096">
        <ele>123.9</ele>
        <time>2025-02-25T15:01:43Z</time>
      </trkpt>
      <trkpt lat="48.08486" lon="-3.55097">
        <ele>124</ele>
        <time>2025-02-25T15:01:44Z</time>
      </trkpt>
      <trkpt lat="48.08486" lon="-3.55097">
        <ele>124</ele>
        <time>2025-02-25T15:01:45Z</time>
      </trkpt>
      <trkpt lat="48.08485" lon="-3.55097">
        <ele>124.1</ele>
        <time>2025-02-25T15:01:46Z</time>
      </trkpt>
      <trkpt lat="48.08484" lon="-3.55098">
        <ele>124.2</ele>
        <time>2025-02-25T15:01:47Z</time>
      </trkpt>
      <trkpt lat="48.08483" lon="-3.55099">
        <ele>124.3</ele>
        <time>2025-02-25T15:01:48Z</time>
      </trkpt>
      <trkpt lat="48.08483" lon="-3.55099">
        <ele>124.3</ele>
        <time>2025-02-25T15:01:49Z</time>
      </trkpt>
      <trkpt lat="48.08482" lon="-3.551">
        <ele>124.4</ele>
        <time>2025-02-25T15:01:50Z</time>
      </trkpt>
      <trkpt lat="48.08482" lon="-3.55101">
        <ele>124.4</ele>
        <time>2025-02-25T15:01:51Z</time>
      </trkpt>
      <trkpt lat="48.08481" lon="-3.55101">
        <ele>124.5</ele>
        <time>2025-02-25T15:01:52Z</time>
      </trkpt>
      <trkpt lat="48.0848" lon="-3.55101">
        <ele>124.6</ele>
        <time>2025-02-25T15:01:53Z</time>
      </trkpt>
      <trkpt lat="48.08479" lon="-3.55102">
        <ele>124.7</ele>
        <time>2025-02-25T15:01:54Z</time>
      </trkpt>
      <trkpt lat="48.08479" lon="-3.55103">
        <ele>124.7</ele>
        <time>2025-02-25T15:01:55Z</time>
      </trkpt>
      <trkpt lat="48.08478" lon="-3.55103">
        <ele>124.8</ele>
        <time>2025-02-25T15:01:56Z</time>
      </trkpt>
      <trkpt lat="48.08478" lon="-3.55104">
        <ele>124.7</ele>
        <time>2025-02-25T15:01:57Z</time>
      </trkpt>
      <trkpt lat="48.08477" lon="-3.55104">
        <ele>124.8</ele>
        <time>2025-02-25T15:01:58Z</time>
      </trkpt>
      <trkpt lat="48.08476" lon="-3.55105">
        <ele>124.9</ele>
        <time>2025-02-25T15:01:59Z</time>
      </trkpt>
      <trkpt lat="48.08475" lon="-3.55106">
        <ele>124.9</ele>
        <time>2025-02-25T15:02:00Z</time>
      </trkpt>
      <trkpt lat="48.08475" lon="-3.55107">
        <ele>124.9</ele>
        <time>2025-02-25T15:02:01Z</time>
      </trkpt>
      <trkpt lat="48.08474" lon="-3.55108">
        <ele>125</ele>
        <time>2025-02-25T15:02:02Z</time>
      </trkpt>
      <trkpt lat="48.08473" lon="-3.55109">
        <ele>125</ele>
        <time>2025-02-25T15:02:03Z</time>
      </trkpt>
      <trkpt lat="48.08473" lon="-3.55109">
        <ele>125</ele>
        <time>2025-02-25T15:02:04Z</time>
      </trkpt>
      <trkpt lat="48.08472" lon="-3.5511">
        <ele>125.1</ele>
        <time>2025-02-25T15:02:05Z</time>
      </trkpt>
      <trkpt lat="48.08471" lon="-3.55111">
        <ele>125.1</ele>
        <time>2025-02-25T15:02:06Z</time>
      </trkpt>
      <trkpt lat="48.0847" lon="-3.55112">
        <ele>125.3</ele>
        <time>2025-02-25T15:02:07Z</time>
      </trkpt>
      <trkpt lat="48.08469" lon="-3.55114">
        <ele>125.5</ele>
        <time>2025-02-25T15:02:08Z</time>
      </trkpt>
      <trkpt lat="48.08468" lon="-3.55114">
        <ele>125.6</ele>
        <time>2025-02-25T15:02:09Z</time>
      </trkpt>
      <trkpt lat="48.08467" lon="-3.55115">
        <ele>125.7</ele>
        <time>2025-02-25T15:02:10Z</time>
      </trkpt>
      <trkpt lat="48.08467" lon="-3.55116">
        <ele>125.7</ele>
        <time>2025-02-25T15:02:11Z</time>
      </trkpt>
      <trkpt lat="48.08466" lon="-3.55117">
        <ele>125.9</ele>
        <time>2025-02-25T15:02:12Z</time>
      </trkpt>
      <trkpt lat="48.08465" lon="-3.55118">
        <ele>126</ele>
        <time>2025-02-25T15:02:13Z</time>
      </trkpt>
      <trkpt lat="48.08465" lon="-3.55118">
        <ele>126</ele>
        <time>2025-02-25T15:02:14Z</time>
      </trkpt>
      <trkpt lat="48.08464" lon="-3.55119">
        <ele>126.2</ele>
        <time>2025-02-25T15:02:15Z</time>
      </trkpt>
      <trkpt lat="48.08463" lon="-3.5512">
        <ele>126.3</ele>
        <time>2025-02-25T15:02:16Z</time>
      </trkpt>
      <trkpt lat="48.08463" lon="-3.55121">
        <ele>126.4</ele>
        <time>2025-02-25T15:02:17Z</time>
      </trkpt>
      <trkpt lat="48.08462" lon="-3.55122">
        <ele>126.5</ele>
        <time>2025-02-25T15:02:18Z</time>
      </trkpt>
      <trkpt lat="48.08461" lon="-3.55122">
        <ele>126.6</ele>
        <time>2025-02-25T15:02:19Z</time>
      </trkpt>
      <trkpt lat="48.0846" lon="-3.55122">
        <ele>126.7</ele>
        <time>2025-02-25T15:02:20Z</time>
      </trkpt>
      <trkpt lat="48.0846" lon="-3.55123">
        <ele>126.7</ele>
        <time>2025-02-25T15:02:21Z</time>
      </trkpt>
      <trkpt lat="48.08459" lon="-3.55124">
        <ele>126.9</ele>
        <time>2025-02-25T15:02:22Z</time>
      </trkpt>
      <trkpt lat="48.08459" lon="-3.55125">
        <ele>126.9</ele>
        <time>2025-02-25T15:02:23Z</time>
      </trkpt>
      <trkpt lat="48.08458" lon="-3.55126">
        <ele>127.1</ele>
        <time>2025-02-25T15:02:24Z</time>
      </trkpt>
      <trkpt lat="48.08457" lon="-3.55127">
        <ele>127.2</ele>
        <time>2025-02-25T15:02:25Z</time>
      </trkpt>
      <trkpt lat="48.08457" lon="-3.55128">
        <ele>127.3</ele>
        <time>2025-02-25T15:02:26Z</time>
      </trkpt>
      <trkpt lat="48.08456" lon="-3.55128">
        <ele>127.4</ele>
        <time>2025-02-25T15:02:27Z</time>
      </trkpt>
      <trkpt lat="48.08456" lon="-3.55129">
        <ele>127.4</ele>
        <time>2025-02-25T15:02:28Z</time>
      </trkpt>
      <trkpt lat="48.08455" lon="-3.5513">
        <ele>127.5</ele>
        <time>2025-02-25T15:02:29Z</time>
      </trkpt>
      <trkpt lat="48.08454" lon="-3.5513">
        <ele>127.6</ele>
        <time>2025-02-25T15:02:30Z</time>
      </trkpt>
      <trkpt lat="48.08453" lon="-3.5513">
        <ele>127.8</ele>
        <time>2025-02-25T15:02:31Z</time>
      </trkpt>
      <trkpt lat="48.08452" lon="-3.55132">
        <ele>127.9</ele>
        <time>2025-02-25T15:02:32Z</time>
      </trkpt>
      <trkpt lat="48.08452" lon="-3.55133">
        <ele>128</ele>
        <time>2025-02-25T15:02:33Z</time>
      </trkpt>
      <trkpt lat="48.08451" lon="-3.55133">
        <ele>128.1</ele>
        <time>2025-02-25T15:02:34Z</time>
      </trkpt>
      <trkpt lat="48.0845" lon="-3.55134">
        <ele>128.2</ele>
        <time>2025-02-25T15:02:35Z</time>
      </trkpt>
      <trkpt lat="48.08449" lon="-3.55134">
        <ele>128.3</ele>
        <time>2025-02-25T15:02:36Z</time>
      </trkpt>
      <trkpt lat="48.08448" lon="-3.55135">
        <ele>128.5</ele>
        <time>2025-02-25T15:02:37Z</time>
      </trkpt>
      <trkpt lat="48.08448" lon="-3.55136">
        <ele>128.5</ele>
        <time>2025-02-25T15:02:38Z</time>
      </trkpt>
      <trkpt lat="48.08447" lon="-3.55136">
        <ele>128.6</ele>
        <time>2025-02-25T15:02:39Z</time>
      </trkpt>
      <trkpt lat="48.08446" lon="-3.55137">
        <ele>128.8</ele>
        <time>2025-02-25T15:02:40Z</time>
      </trkpt>
      <trkpt lat="48.08445" lon="-3.55138">
        <ele>128.9</ele>
        <time>2025-02-25T15:02:41Z</time>
      </trkpt>
      <trkpt lat="48.08444" lon="-3.55138">
        <ele>129</ele>
        <time>2025-02-25T15:02:42Z</time>
      </trkpt>
      <trkpt lat="48.08443" lon="-3.55139">
        <ele>129.2</ele>
        <time>2025-02-25T15:02:43Z</time>
      </trkpt>
      <trkpt lat="48.08443" lon="-3.5514">
        <ele>129.2</ele>
        <time>2025-02-25T15:02:44Z</time>
      </trkpt>
      <trkpt lat="48.08442" lon="-3.55141">
        <ele>129.3</ele>
        <time>2025-02-25T15:02:45Z</time>
      </trkpt>
      <trkpt lat="48.08441" lon="-3.55142">
        <ele>129.5</ele>
        <time>2025-02-25T15:02:46Z</time>
      </trkpt>
      <trkpt lat="48.0844" lon="-3.55142">
        <ele>129.6</ele>
        <time>2025-02-25T15:02:47Z</time>
      </trkpt>
      <trkpt lat="48.0844" lon="-3.55142">
        <ele>129.6</ele>
        <time>2025-02-25T15:02:48Z</time>
      </trkpt>
      <trkpt lat="48.08439" lon="-3.55143">
        <ele>129.7</ele>
        <time>2025-02-25T15:02:49Z</time>
      </trkpt>
      <trkpt lat="48.08438" lon="-3.55144">
        <ele>129.8</ele>
        <time>2025-02-25T15:02:50Z</time>
      </trkpt>
      <trkpt lat="48.08438" lon="-3.55144">
        <ele>129.8</ele>
        <time>2025-02-25T15:02:51Z</time>
      </trkpt>
      <trkpt lat="48.08437" lon="-3.55145">
        <ele>130</ele>
        <time>2025-02-25T15:02:52Z</time>
      </trkpt>
      <trkpt lat="48.08436" lon="-3.55145">
        <ele>130.1</ele>
        <time>2025-02-25T15:02:53Z</time>
      </trkpt>
      <trkpt lat="48.08435" lon="-3.55145">
        <ele>130.2</ele>
        <time>2025-02-25T15:02:54Z</time>
      </trkpt>
      <trkpt lat="48.08433" lon="-3.55145">
        <ele>130.4</ele>
        <time>2025-02-25T15:02:55Z</time>
      </trkpt>
      <trkpt lat="48.08433" lon="-3.55146">
        <ele>130.4</ele>
        <time>2025-02-25T15:02:56Z</time>
      </trkpt>
      <trkpt lat="48.08432" lon="-3.55147">
        <ele>130.5</ele>
        <time>2025-02-25T15:02:57Z</time>
      </trkpt>
      <trkpt lat="48.08431" lon="-3.55147">
        <ele>130.6</ele>
        <time>2025-02-25T15:02:58Z</time>
      </trkpt>
      <trkpt lat="48.0843" lon="-3.55148">
        <ele>130.7</ele>
        <time>2025-02-25T15:02:59Z</time>
      </trkpt>
      <trkpt lat="48.0843" lon="-3.55148">
        <ele>130.7</ele>
        <time>2025-02-25T15:03:00Z</time>
      </trkpt>
      <trkpt lat="48.08429" lon="-3.55149">
        <ele>130.8</ele>
        <time>2025-02-25T15:03:01Z</time>
      </trkpt>
      <trkpt lat="48.08428" lon="-3.55149">
        <ele>130.9</ele>
        <time>2025-02-25T15:03:02Z</time>
      </trkpt>
      <trkpt lat="48.08427" lon="-3.5515">
        <ele>131</ele>
        <time>2025-02-25T15:03:03Z</time>
      </trkpt>
      <trkpt lat="48.08426" lon="-3.55151">
        <ele>131.1</ele>
        <time>2025-02-25T15:03:04Z</time>
      </trkpt>
      <trkpt lat="48.08426" lon="-3.55151">
        <ele>131.1</ele>
        <time>2025-02-25T15:03:05Z</time>
      </trkpt>
      <trkpt lat="48.08425" lon="-3.55152">
        <ele>131.2</ele>
        <time>2025-02-25T15:03:06Z</time>
      </trkpt>
      <trkpt lat="48.08424" lon="-3.55153">
        <ele>131.3</ele>
        <time>2025-02-25T15:03:07Z</time>
      </trkpt>
      <trkpt lat="48.08423" lon="-3.55153">
        <ele>131.4</ele>
        <time>2025-02-25T15:03:08Z</time>
      </trkpt>
      <trkpt lat="48.08422" lon="-3.55153">
        <ele>131.5</ele>
        <time>2025-02-25T15:03:09Z</time>
      </trkpt>
      <trkpt lat="48.08421" lon="-3.55153">
        <ele>131.6</ele>
        <time>2025-02-25T15:03:10Z</time>
      </trkpt>
      <trkpt lat="48.0842" lon="-3.55154">
        <ele>131.7</ele>
        <time>2025-02-25T15:03:11Z</time>
      </trkpt>
      <trkpt lat="48.0842" lon="-3.55154">
        <ele>131.7</ele>
        <time>2025-02-25T15:03:12Z</time>
      </trkpt>
      <trkpt lat="48.08419" lon="-3.55155">
        <ele>131.8</ele>
        <time>2025-02-25T15:03:13Z</time>
      </trkpt>
      <trkpt lat="48.08418" lon="-3.55156">
        <ele>131.9</ele>
        <time>2025-02-25T15:03:14Z</time>
      </trkpt>
      <trkpt lat="48.08417" lon="-3.55157">
        <ele>132</ele>
        <time>2025-02-25T15:03:15Z</time>
      </trkpt>
      <trkpt lat="48.08417" lon="-3.55158">
        <ele>132</ele>
        <time>2025-02-25T15:03:16Z</time>
      </trkpt>
      <trkpt lat="48.08416" lon="-3.55158">
        <ele>132</ele>
        <time>2025-02-25T15:03:17Z</time>
      </trkpt>
      <trkpt lat="48.08415" lon="-3.55158">
        <ele>132.1</ele>
        <time>2025-02-25T15:03:18Z</time>
      </trkpt>
      <trkpt lat="48.08415" lon="-3.55158">
        <ele>132.1</ele>
        <time>2025-02-25T15:03:19Z</time>
      </trkpt>
      <trkpt lat="48.08414" lon="-3.55159">
        <ele>132.2</ele>
        <time>2025-02-25T15:03:20Z</time>
      </trkpt>
      <trkpt lat="48.08413" lon="-3.55159">
        <ele>132.3</ele>
        <time>2025-02-25T15:03:21Z</time>
      </trkpt>
      <trkpt lat="48.08412" lon="-3.55159">
        <ele>132.3</ele>
        <time>2025-02-25T15:03:22Z</time>
      </trkpt>
      <trkpt lat="48.08411" lon="-3.5516">
        <ele>132.4</ele>
        <time>2025-02-25T15:03:23Z</time>
      </trkpt>
      <trkpt lat="48.0841" lon="-3.5516">
        <ele>132.5</ele>
        <time>2025-02-25T15:03:24Z</time>
      </trkpt>
      <trkpt lat="48.08409" lon="-3.55161">
        <ele>132.6</ele>
        <time>2025-02-25T15:03:25Z</time>
      </trkpt>
      <trkpt lat="48.08408" lon="-3.55161">
        <ele>132.6</ele>
        <time>2025-02-25T15:03:26Z</time>
      </trkpt>
      <trkpt lat="48.08407" lon="-3.55162">
        <ele>132.7</ele>
        <time>2025-02-25T15:03:27Z</time>
      </trkpt>
      <trkpt lat="48.08406" lon="-3.55163">
        <ele>132.8</ele>
        <time>2025-02-25T15:03:28Z</time>
      </trkpt>
      <trkpt lat="48.08406" lon="-3.55163">
        <ele>132.8</ele>
        <time>2025-02-25T15:03:29Z</time>
      </trkpt>
      <trkpt lat="48.08405" lon="-3.55163">
        <ele>132.8</ele>
        <time>2025-02-25T15:03:30Z</time>
      </trkpt>
      <trkpt lat="48.08404" lon="-3.55163">
        <ele>132.9</ele>
        <time>2025-02-25T15:03:31Z</time>
      </trkpt>
      <trkpt lat="48.08403" lon="-3.55164">
        <ele>133</ele>
        <time>2025-02-25T15:03:32Z</time>
      </trkpt>
      <trkpt lat="48.08402" lon="-3.55164">
        <ele>133.1</ele>
        <time>2025-02-25T15:03:33Z</time>
      </trkpt>
      <trkpt lat="48.08401" lon="-3.55165">
        <ele>133.1</ele>
        <time>2025-02-25T15:03:34Z</time>
      </trkpt>
      <trkpt lat="48.084" lon="-3.55166">
        <ele>133.2</ele>
        <time>2025-02-25T15:03:35Z</time>
      </trkpt>
      <trkpt lat="48.08399" lon="-3.55166">
        <ele>133.3</ele>
        <time>2025-02-25T15:03:36Z</time>
      </trkpt>
      <trkpt lat="48.08398" lon="-3.55166">
        <ele>133.3</ele>
        <time>2025-02-25T15:03:37Z</time>
      </trkpt>
      <trkpt lat="48.08397" lon="-3.55165">
        <ele>133.4</ele>
        <time>2025-02-25T15:03:38Z</time>
      </trkpt>
      <trkpt lat="48.08396" lon="-3.55165">
        <ele>133.5</ele>
        <time>2025-02-25T15:03:39Z</time>
      </trkpt>
      <trkpt lat="48.08395" lon="-3.55166">
        <ele>133.6</ele>
        <time>2025-02-25T15:03:40Z</time>
      </trkpt>
      <trkpt lat="48.08394" lon="-3.55166">
        <ele>133.6</ele>
        <time>2025-02-25T15:03:41Z</time>
      </trkpt>
      <trkpt lat="48.08393" lon="-3.55166">
        <ele>133.7</ele>
        <time>2025-02-25T15:03:42Z</time>
      </trkpt>
      <trkpt lat="48.08392" lon="-3.55167">
        <ele>133.8</ele>
        <time>2025-02-25T15:03:43Z</time>
      </trkpt>
      <trkpt lat="48.08391" lon="-3.55167">
        <ele>133.9</ele>
        <time>2025-02-25T15:03:44Z</time>
      </trkpt>
      <trkpt lat="48.08391" lon="-3.55168">
        <ele>133.9</ele>
        <time>2025-02-25T15:03:45Z</time>
      </trkpt>
      <trkpt lat="48.0839" lon="-3.55169">
        <ele>134</ele>
        <time>2025-02-25T15:03:46Z</time>
      </trkpt>
      <trkpt lat="48.08389" lon="-3.55169">
        <ele>134.1</ele>
        <time>2025-02-25T15:03:47Z</time>
      </trkpt>
      <trkpt lat="48.08389" lon="-3.5517">
        <ele>134.1</ele>
        <time>2025-02-25T15:03:48Z</time>
      </trkpt>
      <trkpt lat="48.08388" lon="-3.55171">
        <ele>134.2</ele>
        <time>2025-02-25T15:03:49Z</time>
      </trkpt>
      <trkpt lat="48.08387" lon="-3.55171">
        <ele>134.2</ele>
        <time>2025-02-25T15:03:50Z</time>
      </trkpt>
      <trkpt lat="48.08387" lon="-3.5517">
        <ele>134.2</ele>
        <time>2025-02-25T15:03:51Z</time>
      </trkpt>
      <trkpt lat="48.08386" lon="-3.5517">
        <ele>134.2</ele>
        <time>2025-02-25T15:03:52Z</time>
      </trkpt>
      <trkpt lat="48.08385" lon="-3.5517">
        <ele>134.3</ele>
        <time>2025-02-25T15:03:53Z</time>
      </trkpt>
      <trkpt lat="48.08384" lon="-3.5517">
        <ele>134.3</ele>
        <time>2025-02-25T15:03:54Z</time>
      </trkpt>
      <trkpt lat="48.08383" lon="-3.5517">
        <ele>134.3</ele>
        <time>2025-02-25T15:03:55Z</time>
      </trkpt>
      <trkpt lat="48.08382" lon="-3.5517">
        <ele>134.4</ele>
        <time>2025-02-25T15:03:56Z</time>
      </trkpt>
      <trkpt lat="48.08381" lon="-3.55169">
        <ele>134.4</ele>
        <time>2025-02-25T15:03:57Z</time>
      </trkpt>
      <trkpt lat="48.08381" lon="-3.55168">
        <ele>134.3</ele>
        <time>2025-02-25T15:03:58Z</time>
      </trkpt>
      <trkpt lat="48.08379" lon="-3.55168">
        <ele>134.4</ele>
        <time>2025-02-25T15:03:59Z</time>
      </trkpt>
      <trkpt lat="48.08378" lon="-3.55168">
        <ele>134.4</ele>
        <time>2025-02-25T15:04:00Z</time>
      </trkpt>
      <trkpt lat="48.08377" lon="-3.55168">
        <ele>134.5</ele>
        <time>2025-02-25T15:04:01Z</time>
      </trkpt>
      <trkpt lat="48.08375" lon="-3.55168">
        <ele>134.5</ele>
        <time>2025-02-25T15:04:02Z</time>
      </trkpt>
      <trkpt lat="48.08374" lon="-3.55168">
        <ele>134.6</ele>
        <time>2025-02-25T15:04:03Z</time>
      </trkpt>
      <trkpt lat="48.08373" lon="-3.55168">
        <ele>134.6</ele>
        <time>2025-02-25T15:04:04Z</time>
      </trkpt>
      <trkpt lat="48.08372" lon="-3.55169">
        <ele>134.7</ele>
        <time>2025-02-25T15:04:05Z</time>
      </trkpt>
      <trkpt lat="48.08371" lon="-3.5517">
        <ele>134.8</ele>
        <time>2025-02-25T15:04:06Z</time>
      </trkpt>
      <trkpt lat="48.0837" lon="-3.55169">
        <ele>134.8</ele>
        <time>2025-02-25T15:04:07Z</time>
      </trkpt>
      <trkpt lat="48.08369" lon="-3.5517">
        <ele>134.8</ele>
        <time>2025-02-25T15:04:08Z</time>
      </trkpt>
      <trkpt lat="48.08368" lon="-3.55169">
        <ele>134.8</ele>
        <time>2025-02-25T15:04:09Z</time>
      </trkpt>
      <trkpt lat="48.08367" lon="-3.55169">
        <ele>134.9</ele>
        <time>2025-02-25T15:04:10Z</time>
      </trkpt>
      <trkpt lat="48.08366" lon="-3.55169">
        <ele>134.9</ele>
        <time>2025-02-25T15:04:11Z</time>
      </trkpt>
      <trkpt lat="48.08364" lon="-3.5517">
        <ele>135</ele>
        <time>2025-02-25T15:04:12Z</time>
      </trkpt>
      <trkpt lat="48.08363" lon="-3.55171">
        <ele>135.1</ele>
        <time>2025-02-25T15:04:13Z</time>
      </trkpt>
      <trkpt lat="48.08362" lon="-3.55171">
        <ele>135.1</ele>
        <time>2025-02-25T15:04:14Z</time>
      </trkpt>
      <trkpt lat="48.08361" lon="-3.55172">
        <ele>135.2</ele>
        <time>2025-02-25T15:04:15Z</time>
      </trkpt>
      <trkpt lat="48.08359" lon="-3.55172">
        <ele>135.3</ele>
        <time>2025-02-25T15:04:16Z</time>
      </trkpt>
      <trkpt lat="48.08357" lon="-3.55172">
        <ele>135.3</ele>
        <time>2025-02-25T15:04:17Z</time>
      </trkpt>
      <trkpt lat="48.08356" lon="-3.55172">
        <ele>135.3</ele>
        <time>2025-02-25T15:04:18Z</time>
      </trkpt>
      <trkpt lat="48.08355" lon="-3.55172">
        <ele>135.4</ele>
        <time>2025-02-25T15:04:19Z</time>
      </trkpt>
      <trkpt lat="48.08354" lon="-3.55173">
        <ele>135.4</ele>
        <time>2025-02-25T15:04:20Z</time>
      </trkpt>
      <trkpt lat="48.08353" lon="-3.55173">
        <ele>135.5</ele>
        <time>2025-02-25T15:04:21Z</time>
      </trkpt>
      <trkpt lat="48.08352" lon="-3.55173">
        <ele>135.5</ele>
        <time>2025-02-25T15:04:22Z</time>
      </trkpt>
      <trkpt lat="48.0835" lon="-3.55173">
        <ele>135.5</ele>
        <time>2025-02-25T15:04:23Z</time>
      </trkpt>
      <trkpt lat="48.08349" lon="-3.55173">
        <ele>135.6</ele>
        <time>2025-02-25T15:04:24Z</time>
      </trkpt>
      <trkpt lat="48.08348" lon="-3.55173">
        <ele>135.6</ele>
        <time>2025-02-25T15:04:25Z</time>
      </trkpt>
      <trkpt lat="48.08347" lon="-3.55173">
        <ele>135.6</ele>
        <time>2025-02-25T15:04:26Z</time>
      </trkpt>
      <trkpt lat="48.08346" lon="-3.55173">
        <ele>135.6</ele>
        <time>2025-02-25T15:04:27Z</time>
      </trkpt>
      <trkpt lat="48.08345" lon="-3.55175">
        <ele>135.7</ele>
        <time>2025-02-25T15:04:28Z</time>
      </trkpt>
      <trkpt lat="48.08343" lon="-3.55175">
        <ele>135.8</ele>
        <time>2025-02-25T15:04:29Z</time>
      </trkpt>
      <trkpt lat="48.08342" lon="-3.55174">
        <ele>135.8</ele>
        <time>2025-02-25T15:04:30Z</time>
      </trkpt>
      <trkpt lat="48.08341" lon="-3.55175">
        <ele>135.8</ele>
        <time>2025-02-25T15:04:31Z</time>
      </trkpt>
      <trkpt lat="48.0834" lon="-3.55175">
        <ele>135.8</ele>
        <time>2025-02-25T15:04:32Z</time>
      </trkpt>
      <trkpt lat="48.08339" lon="-3.55175">
        <ele>135.9</ele>
        <time>2025-02-25T15:04:33Z</time>
      </trkpt>
      <trkpt lat="48.08338" lon="-3.55175">
        <ele>135.9</ele>
        <time>2025-02-25T15:04:34Z</time>
      </trkpt>
      <trkpt lat="48.08337" lon="-3.55175">
        <ele>135.9</ele>
        <time>2025-02-25T15:04:35Z</time>
      </trkpt>
      <trkpt lat="48.08335" lon="-3.55175">
        <ele>136</ele>
        <time>2025-02-25T15:04:36Z</time>
      </trkpt>
      <trkpt lat="48.08334" lon="-3.55175">
        <ele>136</ele>
        <time>2025-02-25T15:04:37Z</time>
      </trkpt>
      <trkpt lat="48.08333" lon="-3.55175">
        <ele>136</ele>
        <time>2025-02-25T15:04:38Z</time>
      </trkpt>
      <trkpt lat="48.08332" lon="-3.55175">
        <ele>136</ele>
        <time>2025-02-25T15:04:39Z</time>
      </trkpt>
      <trkpt lat="48.0833" lon="-3.55175">
        <ele>135.9</ele>
        <time>2025-02-25T15:04:40Z</time>
      </trkpt>
      <trkpt lat="48.08329" lon="-3.55175">
        <ele>135.9</ele>
        <time>2025-02-25T15:04:41Z</time>
      </trkpt>
      <trkpt lat="48.08328" lon="-3.55176">
        <ele>135.9</ele>
        <time>2025-02-25T15:04:42Z</time>
      </trkpt>
      <trkpt lat="48.08327" lon="-3.55177">
        <ele>135.9</ele>
        <time>2025-02-25T15:04:43Z</time>
      </trkpt>
      <trkpt lat="48.08326" lon="-3.55178">
        <ele>135.8</ele>
        <time>2025-02-25T15:04:44Z</time>
      </trkpt>
      <trkpt lat="48.08325" lon="-3.55179">
        <ele>135.8</ele>
        <time>2025-02-25T15:04:45Z</time>
      </trkpt>
      <trkpt lat="48.08323" lon="-3.55179">
        <ele>135.8</ele>
        <time>2025-02-25T15:04:46Z</time>
      </trkpt>
      <trkpt lat="48.08322" lon="-3.55179">
        <ele>135.8</ele>
        <time>2025-02-25T15:04:47Z</time>
      </trkpt>
      <trkpt lat="48.08322" lon="-3.5518">
        <ele>135.8</ele>
        <time>2025-02-25T15:04:48Z</time>
      </trkpt>
      <trkpt lat="48.0832" lon="-3.5518">
        <ele>135.8</ele>
        <time>2025-02-25T15:04:49Z</time>
      </trkpt>
      <trkpt lat="48.08319" lon="-3.55179">
        <ele>135.7</ele>
        <time>2025-02-25T15:04:50Z</time>
      </trkpt>
      <trkpt lat="48.08318" lon="-3.55178">
        <ele>135.7</ele>
        <time>2025-02-25T15:04:51Z</time>
      </trkpt>
      <trkpt lat="48.08316" lon="-3.55178">
        <ele>135.6</ele>
        <time>2025-02-25T15:04:52Z</time>
      </trkpt>
      <trkpt lat="48.08315" lon="-3.55179">
        <ele>135.6</ele>
        <time>2025-02-25T15:04:53Z</time>
      </trkpt>
      <trkpt lat="48.08314" lon="-3.55179">
        <ele>135.6</ele>
        <time>2025-02-25T15:04:54Z</time>
      </trkpt>
      <trkpt lat="48.08313" lon="-3.5518">
        <ele>135.6</ele>
        <time>2025-02-25T15:04:55Z</time>
      </trkpt>
      <trkpt lat="48.08311" lon="-3.5518">
        <ele>135.6</ele>
        <time>2025-02-25T15:04:56Z</time>
      </trkpt>
      <trkpt lat="48.0831" lon="-3.55179">
        <ele>135.5</ele>
        <time>2025-02-25T15:04:57Z</time>
      </trkpt>
      <trkpt lat="48.08309" lon="-3.55178">
        <ele>135.5</ele>
        <time>2025-02-25T15:04:58Z</time>
      </trkpt>
      <trkpt lat="48.08307" lon="-3.55178">
        <ele>135.4</ele>
        <time>2025-02-25T15:04:59Z</time>
      </trkpt>
      <trkpt lat="48.08306" lon="-3.55179">
        <ele>135.5</ele>
        <time>2025-02-25T15:05:00Z</time>
      </trkpt>
      <trkpt lat="48.08305" lon="-3.55179">
        <ele>135.4</ele>
        <time>2025-02-25T15:05:01Z</time>
      </trkpt>
      <trkpt lat="48.08304" lon="-3.5518">
        <ele>135.4</ele>
        <time>2025-02-25T15:05:02Z</time>
      </trkpt>
      <trkpt lat="48.08303" lon="-3.55181">
        <ele>135.4</ele>
        <time>2025-02-25T15:05:03Z</time>
      </trkpt>
      <trkpt lat="48.08302" lon="-3.55182">
        <ele>135.4</ele>
        <time>2025-02-25T15:05:04Z</time>
      </trkpt>
      <trkpt lat="48.08301" lon="-3.55181">
        <ele>135.3</ele>
        <time>2025-02-25T15:05:05Z</time>
      </trkpt>
      <trkpt lat="48.083" lon="-3.5518">
        <ele>135.2</ele>
        <time>2025-02-25T15:05:06Z</time>
      </trkpt>
      <trkpt lat="48.08299" lon="-3.55179">
        <ele>135.1</ele>
        <time>2025-02-25T15:05:07Z</time>
      </trkpt>
      <trkpt lat="48.08298" lon="-3.55179">
        <ele>135.1</ele>
        <time>2025-02-25T15:05:08Z</time>
      </trkpt>
      <trkpt lat="48.08297" lon="-3.55179">
        <ele>135</ele>
        <time>2025-02-25T15:05:09Z</time>
      </trkpt>
      <trkpt lat="48.08296" lon="-3.55179">
        <ele>134.9</ele>
        <time>2025-02-25T15:05:10Z</time>
      </trkpt>
      <trkpt lat="48.08294" lon="-3.55179">
        <ele>134.8</ele>
        <time>2025-02-25T15:05:11Z</time>
      </trkpt>
      <trkpt lat="48.08293" lon="-3.55179">
        <ele>134.8</ele>
        <time>2025-02-25T15:05:12Z</time>
      </trkpt>
      <trkpt lat="48.08292" lon="-3.55179">
        <ele>134.7</ele>
        <time>2025-02-25T15:05:13Z</time>
      </trkpt>
      <trkpt lat="48.0829" lon="-3.55178">
        <ele>134.6</ele>
        <time>2025-02-25T15:05:14Z</time>
      </trkpt>
      <trkpt lat="48.08289" lon="-3.55177">
        <ele>134.6</ele>
        <time>2025-02-25T15:05:15Z</time>
      </trkpt>
      <trkpt lat="48.08288" lon="-3.55178">
        <ele>134.5</ele>
        <time>2025-02-25T15:05:16Z</time>
      </trkpt>
      <trkpt lat="48.08287" lon="-3.55177">
        <ele>134.5</ele>
        <time>2025-02-25T15:05:17Z</time>
      </trkpt>
      <trkpt lat="48.08285" lon="-3.55177">
        <ele>134.4</ele>
        <time>2025-02-25T15:05:18Z</time>
      </trkpt>
      <trkpt lat="48.08284" lon="-3.55177">
        <ele>134.3</ele>
        <time>2025-02-25T15:05:19Z</time>
      </trkpt>
      <trkpt lat="48.08283" lon="-3.55177">
        <ele>134.3</ele>
        <time>2025-02-25T15:05:20Z</time>
      </trkpt>
      <trkpt lat="48.08282" lon="-3.55178">
        <ele>134.2</ele>
        <time>2025-02-25T15:05:21Z</time>
      </trkpt>
      <trkpt lat="48.08281" lon="-3.55177">
        <ele>134.2</ele>
        <time>2025-02-25T15:05:22Z</time>
      </trkpt>
      <trkpt lat="48.0828" lon="-3.55177">
        <ele>134.1</ele>
        <time>2025-02-25T15:05:23Z</time>
      </trkpt>
      <trkpt lat="48.08278" lon="-3.55177">
        <ele>134</ele>
        <time>2025-02-25T15:05:24Z</time>
      </trkpt>
      <trkpt lat="48.08277" lon="-3.55177">
        <ele>133.9</ele>
        <time>2025-02-25T15:05:25Z</time>
      </trkpt>
      <trkpt lat="48.08276" lon="-3.55178">
        <ele>133.8</ele>
        <time>2025-02-25T15:05:26Z</time>
      </trkpt>
      <trkpt lat="48.08276" lon="-3.55179">
        <ele>133.8</ele>
        <time>2025-02-25T15:05:27Z</time>
      </trkpt>
      <trkpt lat="48.08275" lon="-3.5518">
        <ele>133.7</ele>
        <time>2025-02-25T15:05:28Z</time>
      </trkpt>
      <trkpt lat="48.08274" lon="-3.55181">
        <ele>133.7</ele>
        <time>2025-02-25T15:05:29Z</time>
      </trkpt>
      <trkpt lat="48.08274" lon="-3.55182">
        <ele>133.7</ele>
        <time>2025-02-25T15:05:30Z</time>
      </trkpt>
      <trkpt lat="48.08273" lon="-3.55184">
        <ele>133.6</ele>
        <time>2025-02-25T15:05:31Z</time>
      </trkpt>
      <trkpt lat="48.08273" lon="-3.55185">
        <ele>133.6</ele>
        <time>2025-02-25T15:05:32Z</time>
      </trkpt>
      <trkpt lat="48.08272" lon="-3.55186">
        <ele>133.5</ele>
        <time>2025-02-25T15:05:33Z</time>
      </trkpt>
      <trkpt lat="48.08272" lon="-3.55188">
        <ele>133.5</ele>
        <time>2025-02-25T15:05:34Z</time>
      </trkpt>
      <trkpt lat="48.08272" lon="-3.5519">
        <ele>133.6</ele>
        <time>2025-02-25T15:05:35Z</time>
      </trkpt>
      <trkpt lat="48.08272" lon="-3.55191">
        <ele>133.6</ele>
        <time>2025-02-25T15:05:36Z</time>
      </trkpt>
      <trkpt lat="48.08272" lon="-3.55194">
        <ele>133.6</ele>
        <time>2025-02-25T15:05:37Z</time>
      </trkpt>
      <trkpt lat="48.08272" lon="-3.55195">
        <ele>133.6</ele>
        <time>2025-02-25T15:05:38Z</time>
      </trkpt>
      <trkpt lat="48.08272" lon="-3.55197">
        <ele>133.6</ele>
        <time>2025-02-25T15:05:39Z</time>
      </trkpt>
      <trkpt lat="48.08272" lon="-3.55198">
        <ele>133.6</ele>
        <time>2025-02-25T15:05:40Z</time>
      </trkpt>
      <trkpt lat="48.08272" lon="-3.55199">
        <ele>133.6</ele>
        <time>2025-02-25T15:05:41Z</time>
      </trkpt>
      <trkpt lat="48.08272" lon="-3.552">
        <ele>133.6</ele>
        <time>2025-02-25T15:05:42Z</time>
      </trkpt>
      <trkpt lat="48.08272" lon="-3.55202">
        <ele>133.6</ele>
        <time>2025-02-25T15:05:43Z</time>
      </trkpt>
      <trkpt lat="48.08272" lon="-3.55203">
        <ele>133.6</ele>
        <time>2025-02-25T15:05:44Z</time>
      </trkpt>
      <trkpt lat="48.08272" lon="-3.55204">
        <ele>133.6</ele>
        <time>2025-02-25T15:05:45Z</time>
      </trkpt>
      <trkpt lat="48.08272" lon="-3.55205">
        <ele>133.6</ele>
        <time>2025-02-25T15:05:46Z</time>
      </trkpt>
      <trkpt lat="48.08272" lon="-3.55207">
        <ele>133.6</ele>
        <time>2025-02-25T15:05:47Z</time>
      </trkpt>
      <trkpt lat="48.08272" lon="-3.55208">
        <ele>133.6</ele>
        <time>2025-02-25T15:05:48Z</time>
      </trkpt>
      <trkpt lat="48.08272" lon="-3.5521">
        <ele>133.6</ele>
        <time>2025-02-25T15:05:49Z</time>
      </trkpt>
      <trkpt lat="48.08272" lon="-3.55211">
        <ele>133.6</ele>
        <time>2025-02-25T15:05:50Z</time>
      </trkpt>
      <trkpt lat="48.08272" lon="-3.55213">
        <ele>133.6</ele>
        <time>2025-02-25T15:05:51Z</time>
      </trkpt>
      <trkpt lat="48.08272" lon="-3.55214">
        <ele>133.6</ele>
        <time>2025-02-25T15:05:52Z</time>
      </trkpt>
      <trkpt lat="48.08272" lon="-3.55216">
        <ele>133.6</ele>
        <time>2025-02-25T15:05:53Z</time>
      </trkpt>
      <trkpt lat="48.08272" lon="-3.55217">
        <ele>133.6</ele>
        <time>2025-02-25T15:05:54Z</time>
      </trkpt>
      <trkpt lat="48.08272" lon="-3.55219">
        <ele>133.6</ele>
        <time>2025-02-25T15:05:55Z</time>
      </trkpt>
      <trkpt lat="48.08272" lon="-3.55221">
        <ele>133.6</ele>
        <time>2025-02-25T15:05:56Z</time>
      </trkpt>
      <trkpt lat="48.08272" lon="-3.55222">
        <ele>133.6</ele>
        <time>2025-02-25T15:05:57Z</time>
      </trkpt>
      <trkpt lat="48.08272" lon="-3.55224">
        <ele>133.6</ele>
        <time>2025-02-25T15:05:58Z</time>
      </trkpt>
      <trkpt lat="48.08272" lon="-3.55225">
        <ele>133.7</ele>
        <time>2025-02-25T15:05:59Z</time>
      </trkpt>
      <trkpt lat="48.08272" lon="-3.55227">
        <ele>133.8</ele>
        <time>2025-02-25T15:06:00Z</time>
      </trkpt>
      <trkpt lat="48.08272" lon="-3.55228">
        <ele>133.8</ele>
        <time>2025-02-25T15:06:01Z</time>
      </trkpt>
      <trkpt lat="48.08272" lon="-3.5523">
        <ele>133.9</ele>
        <time>2025-02-25T15:06:02Z</time>
      </trkpt>
      <trkpt lat="48.08272" lon="-3.55231">
        <ele>133.9</ele>
        <time>2025-02-25T15:06:03Z</time>
      </trkpt>
      <trkpt lat="48.08272" lon="-3.55233">
        <ele>134</ele>
        <time>2025-02-25T15:06:04Z</time>
      </trkpt>
      <trkpt lat="48.08272" lon="-3.55235">
        <ele>134</ele>
        <time>2025-02-25T15:06:05Z</time>
      </trkpt>
      <trkpt lat="48.08272" lon="-3.55236">
        <ele>134.1</ele>
        <time>2025-02-25T15:06:06Z</time>
      </trkpt>
      <trkpt lat="48.08272" lon="-3.55238">
        <ele>134.2</ele>
        <time>2025-02-25T15:06:07Z</time>
      </trkpt>
      <trkpt lat="48.08272" lon="-3.5524">
        <ele>134.2</ele>
        <time>2025-02-25T15:06:08Z</time>
      </trkpt>
      <trkpt lat="48.08272" lon="-3.55243">
        <ele>134.3</ele>
        <time>2025-02-25T15:06:09Z</time>
      </trkpt>
      <trkpt lat="48.08272" lon="-3.55246">
        <ele>134.4</ele>
        <time>2025-02-25T15:06:10Z</time>
      </trkpt>
      <trkpt lat="48.08272" lon="-3.55248">
        <ele>134.5</ele>
        <time>2025-02-25T15:06:11Z</time>
      </trkpt>
      <trkpt lat="48.08273" lon="-3.55251">
        <ele>134.7</ele>
        <time>2025-02-25T15:06:12Z</time>
      </trkpt>
      <trkpt lat="48.08273" lon="-3.55252">
        <ele>134.7</ele>
        <time>2025-02-25T15:06:13Z</time>
      </trkpt>
      <trkpt lat="48.08273" lon="-3.55254">
        <ele>134.7</ele>
        <time>2025-02-25T15:06:14Z</time>
      </trkpt>
      <trkpt lat="48.08273" lon="-3.55256">
        <ele>134.7</ele>
        <time>2025-02-25T15:06:15Z</time>
      </trkpt>
      <trkpt lat="48.08273" lon="-3.55258">
        <ele>134.7</ele>
        <time>2025-02-25T15:06:16Z</time>
      </trkpt>
      <trkpt lat="48.08273" lon="-3.55259">
        <ele>134.7</ele>
        <time>2025-02-25T15:06:17Z</time>
      </trkpt>
      <trkpt lat="48.08274" lon="-3.55261">
        <ele>134.7</ele>
        <time>2025-02-25T15:06:18Z</time>
      </trkpt>
      <trkpt lat="48.08274" lon="-3.55263">
        <ele>134.7</ele>
        <time>2025-02-25T15:06:19Z</time>
      </trkpt>
      <trkpt lat="48.08275" lon="-3.55265">
        <ele>134.8</ele>
        <time>2025-02-25T15:06:20Z</time>
      </trkpt>
      <trkpt lat="48.08275" lon="-3.55266">
        <ele>134.8</ele>
        <time>2025-02-25T15:06:21Z</time>
      </trkpt>
      <trkpt lat="48.08275" lon="-3.55268">
        <ele>134.8</ele>
        <time>2025-02-25T15:06:22Z</time>
      </trkpt>
      <trkpt lat="48.08275" lon="-3.5527">
        <ele>134.8</ele>
        <time>2025-02-25T15:06:23Z</time>
      </trkpt>
      <trkpt lat="48.08275" lon="-3.55272">
        <ele>134.8</ele>
        <time>2025-02-25T15:06:24Z</time>
      </trkpt>
      <trkpt lat="48.08276" lon="-3.55273">
        <ele>134.9</ele>
        <time>2025-02-25T15:06:25Z</time>
      </trkpt>
      <trkpt lat="48.08276" lon="-3.55274">
        <ele>134.9</ele>
        <time>2025-02-25T15:06:26Z</time>
      </trkpt>
      <trkpt lat="48.08277" lon="-3.55276">
        <ele>134.9</ele>
        <time>2025-02-25T15:06:27Z</time>
      </trkpt>
      <trkpt lat="48.08277" lon="-3.55277">
        <ele>134.9</ele>
        <time>2025-02-25T15:06:28Z</time>
      </trkpt>
      <trkpt lat="48.08277" lon="-3.55279">
        <ele>134.9</ele>
        <time>2025-02-25T15:06:29Z</time>
      </trkpt>
      <trkpt lat="48.08277" lon="-3.55281">
        <ele>134.9</ele>
        <time>2025-02-25T15:06:30Z</time>
      </trkpt>
      <trkpt lat="48.08278" lon="-3.55283">
        <ele>135</ele>
        <time>2025-02-25T15:06:31Z</time>
      </trkpt>
      <trkpt lat="48.08278" lon="-3.55284">
        <ele>135</ele>
        <time>2025-02-25T15:06:32Z</time>
      </trkpt>
      <trkpt lat="48.08279" lon="-3.55286">
        <ele>135</ele>
        <time>2025-02-25T15:06:33Z</time>
      </trkpt>
      <trkpt lat="48.08279" lon="-3.55288">
        <ele>135</ele>
        <time>2025-02-25T15:06:34Z</time>
      </trkpt>
      <trkpt lat="48.08279" lon="-3.55289">
        <ele>135</ele>
        <time>2025-02-25T15:06:35Z</time>
      </trkpt>
      <trkpt lat="48.08279" lon="-3.55291">
        <ele>135</ele>
        <time>2025-02-25T15:06:36Z</time>
      </trkpt>
      <trkpt lat="48.08279" lon="-3.55293">
        <ele>135</ele>
        <time>2025-02-25T15:06:37Z</time>
      </trkpt>
      <trkpt lat="48.0828" lon="-3.55294">
        <ele>135.1</ele>
        <time>2025-02-25T15:06:38Z</time>
      </trkpt>
      <trkpt lat="48.0828" lon="-3.55296">
        <ele>135.1</ele>
        <time>2025-02-25T15:06:39Z</time>
      </trkpt>
      <trkpt lat="48.08281" lon="-3.55297">
        <ele>135.1</ele>
        <time>2025-02-25T15:06:40Z</time>
      </trkpt>
      <trkpt lat="48.08281" lon="-3.55299">
        <ele>135.1</ele>
        <time>2025-02-25T15:06:41Z</time>
      </trkpt>
      <trkpt lat="48.08281" lon="-3.55301">
        <ele>135.1</ele>
        <time>2025-02-25T15:06:42Z</time>
      </trkpt>
      <trkpt lat="48.08282" lon="-3.55302">
        <ele>135.2</ele>
        <time>2025-02-25T15:06:43Z</time>
      </trkpt>
      <trkpt lat="48.08282" lon="-3.55304">
        <ele>135.2</ele>
        <time>2025-02-25T15:06:44Z</time>
      </trkpt>
      <trkpt lat="48.08282" lon="-3.55306">
        <ele>135.2</ele>
        <time>2025-02-25T15:06:45Z</time>
      </trkpt>
      <trkpt lat="48.08282" lon="-3.55307">
        <ele>135.2</ele>
        <time>2025-02-25T15:06:46Z</time>
      </trkpt>
      <trkpt lat="48.08282" lon="-3.55309">
        <ele>135.3</ele>
        <time>2025-02-25T15:06:47Z</time>
      </trkpt>
      <trkpt lat="48.08282" lon="-3.5531">
        <ele>135.3</ele>
        <time>2025-02-25T15:06:48Z</time>
      </trkpt>
      <trkpt lat="48.08283" lon="-3.55312">
        <ele>135.4</ele>
        <time>2025-02-25T15:06:49Z</time>
      </trkpt>
      <trkpt lat="48.08284" lon="-3.55314">
        <ele>135.5</ele>
        <time>2025-02-25T15:06:50Z</time>
      </trkpt>
      <trkpt lat="48.08284" lon="-3.55316">
        <ele>135.5</ele>
        <time>2025-02-25T15:06:51Z</time>
      </trkpt>
      <trkpt lat="48.08285" lon="-3.55318">
        <ele>135.6</ele>
        <time>2025-02-25T15:06:52Z</time>
      </trkpt>
      <trkpt lat="48.08285" lon="-3.5532">
        <ele>135.6</ele>
        <time>2025-02-25T15:06:53Z</time>
      </trkpt>
      <trkpt lat="48.08286" lon="-3.55321">
        <ele>135.7</ele>
        <time>2025-02-25T15:06:54Z</time>
      </trkpt>
      <trkpt lat="48.08287" lon="-3.55322">
        <ele>135.7</ele>
        <time>2025-02-25T15:06:55Z</time>
      </trkpt>
      <trkpt lat="48.08287" lon="-3.55324">
        <ele>135.8</ele>
        <time>2025-02-25T15:06:56Z</time>
      </trkpt>
      <trkpt lat="48.08287" lon="-3.55326">
        <ele>135.8</ele>
        <time>2025-02-25T15:06:57Z</time>
      </trkpt>
      <trkpt lat="48.08287" lon="-3.55327">
        <ele>135.8</ele>
        <time>2025-02-25T15:06:58Z</time>
      </trkpt>
      <trkpt lat="48.08288" lon="-3.55329">
        <ele>135.9</ele>
        <time>2025-02-25T15:06:59Z</time>
      </trkpt>
      <trkpt lat="48.08288" lon="-3.5533">
        <ele>135.9</ele>
        <time>2025-02-25T15:07:00Z</time>
      </trkpt>
      <trkpt lat="48.08288" lon="-3.55331">
        <ele>135.9</ele>
        <time>2025-02-25T15:07:01Z</time>
      </trkpt>
      <trkpt lat="48.08289" lon="-3.55333">
        <ele>136</ele>
        <time>2025-02-25T15:07:02Z</time>
      </trkpt>
      <trkpt lat="48.0829" lon="-3.55334">
        <ele>136</ele>
        <time>2025-02-25T15:07:03Z</time>
      </trkpt>
      <trkpt lat="48.0829" lon="-3.55336">
        <ele>136</ele>
        <time>2025-02-25T15:07:04Z</time>
      </trkpt>
      <trkpt lat="48.0829" lon="-3.55337">
        <ele>136</ele>
        <time>2025-02-25T15:07:05Z</time>
      </trkpt>
      <trkpt lat="48.08291" lon="-3.55338">
        <ele>136</ele>
        <time>2025-02-25T15:07:06Z</time>
      </trkpt>
      <trkpt lat="48.08292" lon="-3.5534">
        <ele>136</ele>
        <time>2025-02-25T15:07:07Z</time>
      </trkpt>
      <trkpt lat="48.08292" lon="-3.55342">
        <ele>136</ele>
        <time>2025-02-25T15:07:08Z</time>
      </trkpt>
      <trkpt lat="48.08292" lon="-3.55343">
        <ele>136</ele>
        <time>2025-02-25T15:07:09Z</time>
      </trkpt>
      <trkpt lat="48.08293" lon="-3.55345">
        <ele>136</ele>
        <time>2025-02-25T15:07:10Z</time>
      </trkpt>
      <trkpt lat="48.08293" lon="-3.55347">
        <ele>136</ele>
        <time>2025-02-25T15:07:11Z</time>
      </trkpt>
      <trkpt lat="48.08294" lon="-3.55348">
        <ele>136</ele>
        <time>2025-02-25T15:07:12Z</time>
      </trkpt>
      <trkpt lat="48.08294" lon="-3.5535">
        <ele>136</ele>
        <time>2025-02-25T15:07:13Z</time>
      </trkpt>
      <trkpt lat="48.08294" lon="-3.55352">
        <ele>136</ele>
        <time>2025-02-25T15:07:14Z</time>
      </trkpt>
      <trkpt lat="48.08295" lon="-3.55353">
        <ele>136</ele>
        <time>2025-02-25T15:07:15Z</time>
      </trkpt>
      <trkpt lat="48.08295" lon="-3.55355">
        <ele>136</ele>
        <time>2025-02-25T15:07:16Z</time>
      </trkpt>
      <trkpt lat="48.08295" lon="-3.55357">
        <ele>136</ele>
        <time>2025-02-25T15:07:17Z</time>
      </trkpt>
      <trkpt lat="48.08296" lon="-3.55358">
        <ele>136</ele>
        <time>2025-02-25T15:07:18Z</time>
      </trkpt>
      <trkpt lat="48.08297" lon="-3.5536">
        <ele>136</ele>
        <time>2025-02-25T15:07:19Z</time>
      </trkpt>
      <trkpt lat="48.08297" lon="-3.55362">
        <ele>136</ele>
        <time>2025-02-25T15:07:20Z</time>
      </trkpt>
      <trkpt lat="48.08297" lon="-3.55364">
        <ele>136</ele>
        <time>2025-02-25T15:07:21Z</time>
      </trkpt>
      <trkpt lat="48.08297" lon="-3.55365">
        <ele>136</ele>
        <time>2025-02-25T15:07:22Z</time>
      </trkpt>
      <trkpt lat="48.08298" lon="-3.55367">
        <ele>136.1</ele>
        <time>2025-02-25T15:07:23Z</time>
      </trkpt>
      <trkpt lat="48.08298" lon="-3.55369">
        <ele>136.1</ele>
        <time>2025-02-25T15:07:24Z</time>
      </trkpt>
      <trkpt lat="48.08298" lon="-3.55371">
        <ele>136.1</ele>
        <time>2025-02-25T15:07:25Z</time>
      </trkpt>
      <trkpt lat="48.08298" lon="-3.55373">
        <ele>136.1</ele>
        <time>2025-02-25T15:07:26Z</time>
      </trkpt>
      <trkpt lat="48.08298" lon="-3.55374">
        <ele>136.1</ele>
        <time>2025-02-25T15:07:27Z</time>
      </trkpt>
      <trkpt lat="48.08298" lon="-3.55376">
        <ele>136.1</ele>
        <time>2025-02-25T15:07:28Z</time>
      </trkpt>
      <trkpt lat="48.08299" lon="-3.55378">
        <ele>136.1</ele>
        <time>2025-02-25T15:07:29Z</time>
      </trkpt>
      <trkpt lat="48.08299" lon="-3.55379">
        <ele>136.2</ele>
        <time>2025-02-25T15:07:30Z</time>
      </trkpt>
      <trkpt lat="48.08299" lon="-3.55381">
        <ele>136.2</ele>
        <time>2025-02-25T15:07:31Z</time>
      </trkpt>
      <trkpt lat="48.08299" lon="-3.55382">
        <ele>136.2</ele>
        <time>2025-02-25T15:07:32Z</time>
      </trkpt>
      <trkpt lat="48.08299" lon="-3.55384">
        <ele>136.2</ele>
        <time>2025-02-25T15:07:33Z</time>
      </trkpt>
      <trkpt lat="48.083" lon="-3.55386">
        <ele>136.2</ele>
        <time>2025-02-25T15:07:34Z</time>
      </trkpt>
      <trkpt lat="48.083" lon="-3.55387">
        <ele>136.2</ele>
        <time>2025-02-25T15:07:35Z</time>
      </trkpt>
      <trkpt lat="48.08301" lon="-3.55388">
        <ele>136.2</ele>
        <time>2025-02-25T15:07:36Z</time>
      </trkpt>
      <trkpt lat="48.08302" lon="-3.5539">
        <ele>136.1</ele>
        <time>2025-02-25T15:07:37Z</time>
      </trkpt>
      <trkpt lat="48.08302" lon="-3.55392">
        <ele>136.1</ele>
        <time>2025-02-25T15:07:38Z</time>
      </trkpt>
      <trkpt lat="48.08302" lon="-3.55393">
        <ele>136.1</ele>
        <time>2025-02-25T15:07:39Z</time>
      </trkpt>
      <trkpt lat="48.08302" lon="-3.55395">
        <ele>136.1</ele>
        <time>2025-02-25T15:07:40Z</time>
      </trkpt>
      <trkpt lat="48.08302" lon="-3.55397">
        <ele>136.1</ele>
        <time>2025-02-25T15:07:41Z</time>
      </trkpt>
      <trkpt lat="48.08302" lon="-3.55398">
        <ele>136.1</ele>
        <time>2025-02-25T15:07:42Z</time>
      </trkpt>
      <trkpt lat="48.08304" lon="-3.55399">
        <ele>136.1</ele>
        <time>2025-02-25T15:07:43Z</time>
      </trkpt>
      <trkpt lat="48.08304" lon="-3.55401">
        <ele>136.1</ele>
        <time>2025-02-25T15:07:44Z</time>
      </trkpt>
      <trkpt lat="48.08305" lon="-3.55402">
        <ele>136</ele>
        <time>2025-02-25T15:07:45Z</time>
      </trkpt>
      <trkpt lat="48.08305" lon="-3.55404">
        <ele>136</ele>
        <time>2025-02-25T15:07:46Z</time>
      </trkpt>
      <trkpt lat="48.08305" lon="-3.55406">
        <ele>136</ele>
        <time>2025-02-25T15:07:47Z</time>
      </trkpt>
      <trkpt lat="48.08304" lon="-3.55408">
        <ele>136.1</ele>
        <time>2025-02-25T15:07:48Z</time>
      </trkpt>
      <trkpt lat="48.08304" lon="-3.5541">
        <ele>136.1</ele>
        <time>2025-02-25T15:07:49Z</time>
      </trkpt>
      <trkpt lat="48.08304" lon="-3.55411">
        <ele>136.1</ele>
        <time>2025-02-25T15:07:50Z</time>
      </trkpt>
      <trkpt lat="48.08304" lon="-3.55413">
        <ele>136.1</ele>
        <time>2025-02-25T15:07:51Z</time>
      </trkpt>
      <trkpt lat="48.08304" lon="-3.55414">
        <ele>136.1</ele>
        <time>2025-02-25T15:07:52Z</time>
      </trkpt>
      <trkpt lat="48.08304" lon="-3.55416">
        <ele>136.1</ele>
        <time>2025-02-25T15:07:53Z</time>
      </trkpt>
      <trkpt lat="48.08304" lon="-3.55417">
        <ele>136.1</ele>
        <time>2025-02-25T15:07:54Z</time>
      </trkpt>
      <trkpt lat="48.08304" lon="-3.55419">
        <ele>136.1</ele>
        <time>2025-02-25T15:07:55Z</time>
      </trkpt>
      <trkpt lat="48.08304" lon="-3.5542">
        <ele>136.1</ele>
        <time>2025-02-25T15:07:56Z</time>
      </trkpt>
      <trkpt lat="48.08304" lon="-3.55421">
        <ele>136.1</ele>
        <time>2025-02-25T15:07:57Z</time>
      </trkpt>
      <trkpt lat="48.08303" lon="-3.55423">
        <ele>136.1</ele>
        <time>2025-02-25T15:07:58Z</time>
      </trkpt>
      <trkpt lat="48.08304" lon="-3.55425">
        <ele>136.1</ele>
        <time>2025-02-25T15:07:59Z</time>
      </trkpt>
      <trkpt lat="48.08304" lon="-3.55426">
        <ele>136.1</ele>
        <time>2025-02-25T15:08:00Z</time>
      </trkpt>
      <trkpt lat="48.08304" lon="-3.55428">
        <ele>136.1</ele>
        <time>2025-02-25T15:08:01Z</time>
      </trkpt>
      <trkpt lat="48.08303" lon="-3.55429">
        <ele>136.1</ele>
        <time>2025-02-25T15:08:02Z</time>
      </trkpt>
      <trkpt lat="48.08304" lon="-3.55431">
        <ele>136.1</ele>
        <time>2025-02-25T15:08:03Z</time>
      </trkpt>
      <trkpt lat="48.08303" lon="-3.55433">
        <ele>136.1</ele>
        <time>2025-02-25T15:08:04Z</time>
      </trkpt>
      <trkpt lat="48.08303" lon="-3.55434">
        <ele>136.1</ele>
        <time>2025-02-25T15:08:05Z</time>
      </trkpt>
      <trkpt lat="48.08303" lon="-3.55436">
        <ele>136.1</ele>
        <time>2025-02-25T15:08:06Z</time>
      </trkpt>
      <trkpt lat="48.08303" lon="-3.55437">
        <ele>136.1</ele>
        <time>2025-02-25T15:08:07Z</time>
      </trkpt>
      <trkpt lat="48.08303" lon="-3.55439">
        <ele>136.1</ele>
        <time>2025-02-25T15:08:08Z</time>
      </trkpt>
      <trkpt lat="48.08304" lon="-3.5544">
        <ele>136.1</ele>
        <time>2025-02-25T15:08:09Z</time>
      </trkpt>
      <trkpt lat="48.08304" lon="-3.55441">
        <ele>136.1</ele>
        <time>2025-02-25T15:08:10Z</time>
      </trkpt>
      <trkpt lat="48.08304" lon="-3.55443">
        <ele>136.1</ele>
        <time>2025-02-25T15:08:11Z</time>
      </trkpt>
      <trkpt lat="48.08303" lon="-3.55445">
        <ele>136.1</ele>
        <time>2025-02-25T15:08:12Z</time>
      </trkpt>
      <trkpt lat="48.08302" lon="-3.55447">
        <ele>136</ele>
        <time>2025-02-25T15:08:13Z</time>
      </trkpt>
      <trkpt lat="48.08301" lon="-3.55448">
        <ele>136.1</ele>
        <time>2025-02-25T15:08:14Z</time>
      </trkpt>
      <trkpt lat="48.08301" lon="-3.5545">
        <ele>136</ele>
        <time>2025-02-25T15:08:15Z</time>
      </trkpt>
      <trkpt lat="48.08301" lon="-3.55452">
        <ele>135.9</ele>
        <time>2025-02-25T15:08:16Z</time>
      </trkpt>
      <trkpt lat="48.08301" lon="-3.55453">
        <ele>135.9</ele>
        <time>2025-02-25T15:08:17Z</time>
      </trkpt>
      <trkpt lat="48.08301" lon="-3.55455">
        <ele>135.8</ele>
        <time>2025-02-25T15:08:18Z</time>
      </trkpt>
      <trkpt lat="48.08302" lon="-3.55456">
        <ele>135.8</ele>
        <time>2025-02-25T15:08:19Z</time>
      </trkpt>
      <trkpt lat="48.08302" lon="-3.55458">
        <ele>135.7</ele>
        <time>2025-02-25T15:08:20Z</time>
      </trkpt>
      <trkpt lat="48.08301" lon="-3.5546">
        <ele>135.7</ele>
        <time>2025-02-25T15:08:21Z</time>
      </trkpt>
      <trkpt lat="48.08301" lon="-3.55461">
        <ele>135.7</ele>
        <time>2025-02-25T15:08:22Z</time>
      </trkpt>
      <trkpt lat="48.08301" lon="-3.55462">
        <ele>135.6</ele>
        <time>2025-02-25T15:08:23Z</time>
      </trkpt>
      <trkpt lat="48.08301" lon="-3.55464">
        <ele>135.6</ele>
        <time>2025-02-25T15:08:24Z</time>
      </trkpt>
      <trkpt lat="48.08303" lon="-3.55464">
        <ele>135.5</ele>
        <time>2025-02-25T15:08:25Z</time>
      </trkpt>
      <trkpt lat="48.08303" lon="-3.55466">
        <ele>135.4</ele>
        <time>2025-02-25T15:08:26Z</time>
      </trkpt>
      <trkpt lat="48.08302" lon="-3.55468">
        <ele>135.4</ele>
        <time>2025-02-25T15:08:27Z</time>
      </trkpt>
      <trkpt lat="48.08301" lon="-3.55469">
        <ele>135.4</ele>
        <time>2025-02-25T15:08:28Z</time>
      </trkpt>
      <trkpt lat="48.083" lon="-3.55471">
        <ele>135.4</ele>
        <time>2025-02-25T15:08:29Z</time>
      </trkpt>
      <trkpt lat="48.083" lon="-3.55472">
        <ele>135.4</ele>
        <time>2025-02-25T15:08:30Z</time>
      </trkpt>
      <trkpt lat="48.08299" lon="-3.55474">
        <ele>135.5</ele>
        <time>2025-02-25T15:08:31Z</time>
      </trkpt>
      <trkpt lat="48.08299" lon="-3.55475">
        <ele>135.5</ele>
        <time>2025-02-25T15:08:32Z</time>
      </trkpt>
      <trkpt lat="48.08299" lon="-3.55477">
        <ele>135.5</ele>
        <time>2025-02-25T15:08:33Z</time>
      </trkpt>
      <trkpt lat="48.083" lon="-3.55478">
        <ele>135.4</ele>
        <time>2025-02-25T15:08:34Z</time>
      </trkpt>
      <trkpt lat="48.083" lon="-3.5548">
        <ele>135.4</ele>
        <time>2025-02-25T15:08:35Z</time>
      </trkpt>
      <trkpt lat="48.08299" lon="-3.55481">
        <ele>135.5</ele>
        <time>2025-02-25T15:08:36Z</time>
      </trkpt>
      <trkpt lat="48.08299" lon="-3.55483">
        <ele>135.5</ele>
        <time>2025-02-25T15:08:37Z</time>
      </trkpt>
      <trkpt lat="48.08299" lon="-3.55484">
        <ele>135.5</ele>
        <time>2025-02-25T15:08:38Z</time>
      </trkpt>
      <trkpt lat="48.08299" lon="-3.55486">
        <ele>135.5</ele>
        <time>2025-02-25T15:08:39Z</time>
      </trkpt>
      <trkpt lat="48.08299" lon="-3.55487">
        <ele>135.5</ele>
        <time>2025-02-25T15:08:40Z</time>
      </trkpt>
      <trkpt lat="48.08299" lon="-3.55489">
        <ele>135.5</ele>
        <time>2025-02-25T15:08:41Z</time>
      </trkpt>
      <trkpt lat="48.08299" lon="-3.55491">
        <ele>135.5</ele>
        <time>2025-02-25T15:08:42Z</time>
      </trkpt>
      <trkpt lat="48.08299" lon="-3.55493">
        <ele>135.5</ele>
        <time>2025-02-25T15:08:43Z</time>
      </trkpt>
      <trkpt lat="48.08299" lon="-3.55494">
        <ele>135.5</ele>
        <time>2025-02-25T15:08:44Z</time>
      </trkpt>
      <trkpt lat="48.08298" lon="-3.55496">
        <ele>135.5</ele>
        <time>2025-02-25T15:08:45Z</time>
      </trkpt>
      <trkpt lat="48.08298" lon="-3.55498">
        <ele>135.5</ele>
        <time>2025-02-25T15:08:46Z</time>
      </trkpt>
      <trkpt lat="48.08298" lon="-3.55499">
        <ele>135.5</ele>
        <time>2025-02-25T15:08:47Z</time>
      </trkpt>
      <trkpt lat="48.08298" lon="-3.55501">
        <ele>135.5</ele>
        <time>2025-02-25T15:08:48Z</time>
      </trkpt>
      <trkpt lat="48.08298" lon="-3.55502">
        <ele>135.5</ele>
        <time>2025-02-25T15:08:49Z</time>
      </trkpt>
      <trkpt lat="48.08297" lon="-3.55504">
        <ele>135.5</ele>
        <time>2025-02-25T15:08:50Z</time>
      </trkpt>
      <trkpt lat="48.08297" lon="-3.55506">
        <ele>135.5</ele>
        <time>2025-02-25T15:08:51Z</time>
      </trkpt>
      <trkpt lat="48.08297" lon="-3.55507">
        <ele>135.4</ele>
        <time>2025-02-25T15:08:52Z</time>
      </trkpt>
      <trkpt lat="48.08296" lon="-3.55509">
        <ele>135.5</ele>
        <time>2025-02-25T15:08:53Z</time>
      </trkpt>
      <trkpt lat="48.08296" lon="-3.55511">
        <ele>135.4</ele>
        <time>2025-02-25T15:08:54Z</time>
      </trkpt>
      <trkpt lat="48.08296" lon="-3.55512">
        <ele>135.4</ele>
        <time>2025-02-25T15:08:55Z</time>
      </trkpt>
      <trkpt lat="48.08295" lon="-3.55514">
        <ele>135.4</ele>
        <time>2025-02-25T15:08:56Z</time>
      </trkpt>
      <trkpt lat="48.08295" lon="-3.55515">
        <ele>135.4</ele>
        <time>2025-02-25T15:08:57Z</time>
      </trkpt>
      <trkpt lat="48.08295" lon="-3.55517">
        <ele>135.4</ele>
        <time>2025-02-25T15:08:58Z</time>
      </trkpt>
      <trkpt lat="48.08295" lon="-3.55519">
        <ele>135.3</ele>
        <time>2025-02-25T15:08:59Z</time>
      </trkpt>
      <trkpt lat="48.08295" lon="-3.5552">
        <ele>135.3</ele>
        <time>2025-02-25T15:09:00Z</time>
      </trkpt>
      <trkpt lat="48.08294" lon="-3.55522">
        <ele>135.4</ele>
        <time>2025-02-25T15:09:01Z</time>
      </trkpt>
      <trkpt lat="48.08294" lon="-3.55524">
        <ele>135.3</ele>
        <time>2025-02-25T15:09:02Z</time>
      </trkpt>
      <trkpt lat="48.08295" lon="-3.55526">
        <ele>135.2</ele>
        <time>2025-02-25T15:09:03Z</time>
      </trkpt>
      <trkpt lat="48.08295" lon="-3.55527">
        <ele>135.2</ele>
        <time>2025-02-25T15:09:04Z</time>
      </trkpt>
      <trkpt lat="48.08295" lon="-3.55529">
        <ele>135.1</ele>
        <time>2025-02-25T15:09:05Z</time>
      </trkpt>
      <trkpt lat="48.08293" lon="-3.5553">
        <ele>135.4</ele>
        <time>2025-02-25T15:09:06Z</time>
      </trkpt>
      <trkpt lat="48.08294" lon="-3.55533">
        <ele>135.2</ele>
        <time>2025-02-25T15:09:07Z</time>
      </trkpt>
      <trkpt lat="48.08293" lon="-3.55534">
        <ele>135.4</ele>
        <time>2025-02-25T15:09:08Z</time>
      </trkpt>
      <trkpt lat="48.08294" lon="-3.55536">
        <ele>135.2</ele>
        <time>2025-02-25T15:09:09Z</time>
      </trkpt>
      <trkpt lat="48.08294" lon="-3.55537">
        <ele>135.2</ele>
        <time>2025-02-25T15:09:10Z</time>
      </trkpt>
      <trkpt lat="48.08293" lon="-3.55539">
        <ele>135.4</ele>
        <time>2025-02-25T15:09:11Z</time>
      </trkpt>
      <trkpt lat="48.08292" lon="-3.5554">
        <ele>135.5</ele>
        <time>2025-02-25T15:09:12Z</time>
      </trkpt>
      <trkpt lat="48.08292" lon="-3.55543">
        <ele>135.5</ele>
        <time>2025-02-25T15:09:13Z</time>
      </trkpt>
      <trkpt lat="48.08292" lon="-3.55544">
        <ele>135.5</ele>
        <time>2025-02-25T15:09:14Z</time>
      </trkpt>
      <trkpt lat="48.08292" lon="-3.55545">
        <ele>135.5</ele>
        <time>2025-02-25T15:09:15Z</time>
      </trkpt>
      <trkpt lat="48.08292" lon="-3.55546">
        <ele>135.5</ele>
        <time>2025-02-25T15:09:16Z</time>
      </trkpt>
      <trkpt lat="48.08292" lon="-3.55548">
        <ele>135.5</ele>
        <time>2025-02-25T15:09:17Z</time>
      </trkpt>
      <trkpt lat="48.08292" lon="-3.55549">
        <ele>135.5</ele>
        <time>2025-02-25T15:09:18Z</time>
      </trkpt>
      <trkpt lat="48.08292" lon="-3.55551">
        <ele>135.5</ele>
        <time>2025-02-25T15:09:19Z</time>
      </trkpt>
      <trkpt lat="48.08292" lon="-3.55553">
        <ele>135.5</ele>
        <time>2025-02-25T15:09:20Z</time>
      </trkpt>
      <trkpt lat="48.08292" lon="-3.55554">
        <ele>135.5</ele>
        <time>2025-02-25T15:09:21Z</time>
      </trkpt>
      <trkpt lat="48.08292" lon="-3.55556">
        <ele>135.5</ele>
        <time>2025-02-25T15:09:22Z</time>
      </trkpt>
      <trkpt lat="48.08291" lon="-3.55557">
        <ele>135.6</ele>
        <time>2025-02-25T15:09:23Z</time>
      </trkpt>
      <trkpt lat="48.08291" lon="-3.55559">
        <ele>135.6</ele>
        <time>2025-02-25T15:09:24Z</time>
      </trkpt>
      <trkpt lat="48.08291" lon="-3.5556">
        <ele>135.6</ele>
        <time>2025-02-25T15:09:25Z</time>
      </trkpt>
      <trkpt lat="48.08291" lon="-3.55562">
        <ele>135.7</ele>
        <time>2025-02-25T15:09:26Z</time>
      </trkpt>
      <trkpt lat="48.08292" lon="-3.55564">
        <ele>135.6</ele>
        <time>2025-02-25T15:09:27Z</time>
      </trkpt>
      <trkpt lat="48.08292" lon="-3.55565">
        <ele>135.6</ele>
        <time>2025-02-25T15:09:28Z</time>
      </trkpt>
      <trkpt lat="48.08292" lon="-3.55567">
        <ele>135.7</ele>
        <time>2025-02-25T15:09:29Z</time>
      </trkpt>
      <trkpt lat="48.08292" lon="-3.55568">
        <ele>135.7</ele>
        <time>2025-02-25T15:09:30Z</time>
      </trkpt>
      <trkpt lat="48.08292" lon="-3.5557">
        <ele>135.7</ele>
        <time>2025-02-25T15:09:31Z</time>
      </trkpt>
      <trkpt lat="48.08291" lon="-3.55571">
        <ele>135.8</ele>
        <time>2025-02-25T15:09:32Z</time>
      </trkpt>
      <trkpt lat="48.08292" lon="-3.55573">
        <ele>135.8</ele>
        <time>2025-02-25T15:09:33Z</time>
      </trkpt>
      <trkpt lat="48.08291" lon="-3.55575">
        <ele>135.9</ele>
        <time>2025-02-25T15:09:34Z</time>
      </trkpt>
      <trkpt lat="48.08291" lon="-3.55577">
        <ele>135.9</ele>
        <time>2025-02-25T15:09:35Z</time>
      </trkpt>
      <trkpt lat="48.08291" lon="-3.55579">
        <ele>136</ele>
        <time>2025-02-25T15:09:36Z</time>
      </trkpt>
      <trkpt lat="48.08291" lon="-3.55581">
        <ele>136</ele>
        <time>2025-02-25T15:09:37Z</time>
      </trkpt>
      <trkpt lat="48.08291" lon="-3.55582">
        <ele>136</ele>
        <time>2025-02-25T15:09:38Z</time>
      </trkpt>
      <trkpt lat="48.08292" lon="-3.55584">
        <ele>136</ele>
        <time>2025-02-25T15:09:39Z</time>
      </trkpt>
      <trkpt lat="48.08292" lon="-3.55585">
        <ele>136</ele>
        <time>2025-02-25T15:09:40Z</time>
      </trkpt>
      <trkpt lat="48.08292" lon="-3.55587">
        <ele>136</ele>
        <time>2025-02-25T15:09:41Z</time>
      </trkpt>
      <trkpt lat="48.08293" lon="-3.55588">
        <ele>135.9</ele>
        <time>2025-02-25T15:09:42Z</time>
      </trkpt>
      <trkpt lat="48.08293" lon="-3.55589">
        <ele>135.9</ele>
        <time>2025-02-25T15:09:43Z</time>
      </trkpt>
      <trkpt lat="48.08293" lon="-3.55591">
        <ele>135.9</ele>
        <time>2025-02-25T15:09:44Z</time>
      </trkpt>
      <trkpt lat="48.08294" lon="-3.55592">
        <ele>135.8</ele>
        <time>2025-02-25T15:09:45Z</time>
      </trkpt>
      <trkpt lat="48.08294" lon="-3.55593">
        <ele>135.8</ele>
        <time>2025-02-25T15:09:46Z</time>
      </trkpt>
      <trkpt lat="48.08295" lon="-3.55594">
        <ele>135.8</ele>
        <time>2025-02-25T15:09:47Z</time>
      </trkpt>
      <trkpt lat="48.08295" lon="-3.55596">
        <ele>135.8</ele>
        <time>2025-02-25T15:09:48Z</time>
      </trkpt>
      <trkpt lat="48.08295" lon="-3.55597">
        <ele>135.8</ele>
        <time>2025-02-25T15:09:49Z</time>
      </trkpt>
      <trkpt lat="48.08295" lon="-3.55599">
        <ele>135.8</ele>
        <time>2025-02-25T15:09:50Z</time>
      </trkpt>
      <trkpt lat="48.08296" lon="-3.556">
        <ele>135.7</ele>
        <time>2025-02-25T15:09:51Z</time>
      </trkpt>
      <trkpt lat="48.08296" lon="-3.55601">
        <ele>135.7</ele>
        <time>2025-02-25T15:09:52Z</time>
      </trkpt>
      <trkpt lat="48.08297" lon="-3.55603">
        <ele>135.6</ele>
        <time>2025-02-25T15:09:53Z</time>
      </trkpt>
      <trkpt lat="48.08297" lon="-3.55604">
        <ele>135.6</ele>
        <time>2025-02-25T15:09:54Z</time>
      </trkpt>
      <trkpt lat="48.08297" lon="-3.55606">
        <ele>135.6</ele>
        <time>2025-02-25T15:09:55Z</time>
      </trkpt>
      <trkpt lat="48.08298" lon="-3.55607">
        <ele>135.5</ele>
        <time>2025-02-25T15:09:56Z</time>
      </trkpt>
      <trkpt lat="48.08297" lon="-3.55609">
        <ele>135.6</ele>
        <time>2025-02-25T15:09:57Z</time>
      </trkpt>
      <trkpt lat="48.08298" lon="-3.55611">
        <ele>135.5</ele>
        <time>2025-02-25T15:09:58Z</time>
      </trkpt>
      <trkpt lat="48.08298" lon="-3.55612">
        <ele>135.5</ele>
        <time>2025-02-25T15:09:59Z</time>
      </trkpt>
      <trkpt lat="48.08298" lon="-3.55614">
        <ele>135.5</ele>
        <time>2025-02-25T15:10:00Z</time>
      </trkpt>
      <trkpt lat="48.08298" lon="-3.55615">
        <ele>135.5</ele>
        <time>2025-02-25T15:10:01Z</time>
      </trkpt>
      <trkpt lat="48.08299" lon="-3.55617">
        <ele>135.5</ele>
        <time>2025-02-25T15:10:02Z</time>
      </trkpt>
      <trkpt lat="48.08298" lon="-3.55618">
        <ele>135.5</ele>
        <time>2025-02-25T15:10:03Z</time>
      </trkpt>
      <trkpt lat="48.08298" lon="-3.5562">
        <ele>135.5</ele>
        <time>2025-02-25T15:10:04Z</time>
      </trkpt>
      <trkpt lat="48.08299" lon="-3.55621">
        <ele>135.5</ele>
        <time>2025-02-25T15:10:05Z</time>
      </trkpt>
      <trkpt lat="48.08299" lon="-3.55623">
        <ele>135.5</ele>
        <time>2025-02-25T15:10:06Z</time>
      </trkpt>
      <trkpt lat="48.08299" lon="-3.55624">
        <ele>135.5</ele>
        <time>2025-02-25T15:10:07Z</time>
      </trkpt>
      <trkpt lat="48.08298" lon="-3.55626">
        <ele>135.5</ele>
        <time>2025-02-25T15:10:08Z</time>
      </trkpt>
      <trkpt lat="48.08298" lon="-3.55627">
        <ele>135.5</ele>
        <time>2025-02-25T15:10:09Z</time>
      </trkpt>
      <trkpt lat="48.08297" lon="-3.55629">
        <ele>135.6</ele>
        <time>2025-02-25T15:10:10Z</time>
      </trkpt>
      <trkpt lat="48.08297" lon="-3.5563">
        <ele>135.6</ele>
        <time>2025-02-25T15:10:11Z</time>
      </trkpt>
      <trkpt lat="48.08297" lon="-3.55632">
        <ele>135.6</ele>
        <time>2025-02-25T15:10:12Z</time>
      </trkpt>
      <trkpt lat="48.08296" lon="-3.55634">
        <ele>135.7</ele>
        <time>2025-02-25T15:10:13Z</time>
      </trkpt>
      <trkpt lat="48.08295" lon="-3.55635">
        <ele>135.8</ele>
        <time>2025-02-25T15:10:14Z</time>
      </trkpt>
      <trkpt lat="48.08295" lon="-3.55637">
        <ele>135.8</ele>
        <time>2025-02-25T15:10:15Z</time>
      </trkpt>
      <trkpt lat="48.08294" lon="-3.55638">
        <ele>135.8</ele>
        <time>2025-02-25T15:10:16Z</time>
      </trkpt>
      <trkpt lat="48.08292" lon="-3.5564">
        <ele>136</ele>
        <time>2025-02-25T15:10:17Z</time>
      </trkpt>
      <trkpt lat="48.08292" lon="-3.55641">
        <ele>136.1</ele>
        <time>2025-02-25T15:10:18Z</time>
      </trkpt>
      <trkpt lat="48.08292" lon="-3.55642">
        <ele>136.1</ele>
        <time>2025-02-25T15:10:19Z</time>
      </trkpt>
      <trkpt lat="48.08292" lon="-3.55644">
        <ele>136.2</ele>
        <time>2025-02-25T15:10:20Z</time>
      </trkpt>
      <trkpt lat="48.08292" lon="-3.55646">
        <ele>136.2</ele>
        <time>2025-02-25T15:10:21Z</time>
      </trkpt>
      <trkpt lat="48.08291" lon="-3.55647">
        <ele>136.3</ele>
        <time>2025-02-25T15:10:22Z</time>
      </trkpt>
      <trkpt lat="48.08291" lon="-3.55648">
        <ele>136.4</ele>
        <time>2025-02-25T15:10:23Z</time>
      </trkpt>
      <trkpt lat="48.0829" lon="-3.5565">
        <ele>136.5</ele>
        <time>2025-02-25T15:10:24Z</time>
      </trkpt>
      <trkpt lat="48.0829" lon="-3.55651">
        <ele>136.6</ele>
        <time>2025-02-25T15:10:25Z</time>
      </trkpt>
      <trkpt lat="48.0829" lon="-3.55652">
        <ele>136.6</ele>
        <time>2025-02-25T15:10:26Z</time>
      </trkpt>
      <trkpt lat="48.08289" lon="-3.55653">
        <ele>136.7</ele>
        <time>2025-02-25T15:10:27Z</time>
      </trkpt>
      <trkpt lat="48.08289" lon="-3.55655">
        <ele>136.8</ele>
        <time>2025-02-25T15:10:28Z</time>
      </trkpt>
      <trkpt lat="48.08288" lon="-3.55656">
        <ele>136.9</ele>
        <time>2025-02-25T15:10:29Z</time>
      </trkpt>
      <trkpt lat="48.08288" lon="-3.55657">
        <ele>136.9</ele>
        <time>2025-02-25T15:10:30Z</time>
      </trkpt>
      <trkpt lat="48.08288" lon="-3.55658">
        <ele>137</ele>
        <time>2025-02-25T15:10:31Z</time>
      </trkpt>
      <trkpt lat="48.08289" lon="-3.5566">
        <ele>137</ele>
        <time>2025-02-25T15:10:32Z</time>
      </trkpt>
      <trkpt lat="48.08289" lon="-3.55661">
        <ele>137</ele>
        <time>2025-02-25T15:10:33Z</time>
      </trkpt>
      <trkpt lat="48.08288" lon="-3.55662">
        <ele>137.1</ele>
        <time>2025-02-25T15:10:34Z</time>
      </trkpt>
      <trkpt lat="48.08288" lon="-3.55663">
        <ele>137.1</ele>
        <time>2025-02-25T15:10:35Z</time>
      </trkpt>
      <trkpt lat="48.08288" lon="-3.55664">
        <ele>137.2</ele>
        <time>2025-02-25T15:10:36Z</time>
      </trkpt>
      <trkpt lat="48.08288" lon="-3.55665">
        <ele>137.2</ele>
        <time>2025-02-25T15:10:37Z</time>
      </trkpt>
      <trkpt lat="48.0829" lon="-3.55665">
        <ele>137.1</ele>
        <time>2025-02-25T15:10:38Z</time>
      </trkpt>
      <trkpt lat="48.08291" lon="-3.55665">
        <ele>137</ele>
        <time>2025-02-25T15:10:39Z</time>
      </trkpt>
      <trkpt lat="48.08291" lon="-3.55666">
        <ele>137</ele>
        <time>2025-02-25T15:10:40Z</time>
      </trkpt>
      <trkpt lat="48.08292" lon="-3.55666">
        <ele>137</ele>
        <time>2025-02-25T15:10:41Z</time>
      </trkpt>
      <trkpt lat="48.08292" lon="-3.55666">
        <ele>137</ele>
        <time>2025-02-25T15:10:42Z</time>
      </trkpt>
      <trkpt lat="48.08292" lon="-3.55667">
        <ele>137</ele>
        <time>2025-02-25T15:10:43Z</time>
      </trkpt>
      <trkpt lat="48.08293" lon="-3.55668">
        <ele>136.9</ele>
        <time>2025-02-25T15:10:44Z</time>
      </trkpt>
      <trkpt lat="48.08294" lon="-3.55669">
        <ele>136.9</ele>
        <time>2025-02-25T15:10:45Z</time>
      </trkpt>
      <trkpt lat="48.08294" lon="-3.5567">
        <ele>136.9</ele>
        <time>2025-02-25T15:10:46Z</time>
      </trkpt>
      <trkpt lat="48.08294" lon="-3.55672">
        <ele>136.9</ele>
        <time>2025-02-25T15:10:47Z</time>
      </trkpt>
      <trkpt lat="48.08295" lon="-3.55673">
        <ele>136.9</ele>
        <time>2025-02-25T15:10:48Z</time>
      </trkpt>
      <trkpt lat="48.08295" lon="-3.55675">
        <ele>136.9</ele>
        <time>2025-02-25T15:10:49Z</time>
      </trkpt>
      <trkpt lat="48.08295" lon="-3.55676">
        <ele>137</ele>
        <time>2025-02-25T15:10:50Z</time>
      </trkpt>
      <trkpt lat="48.08295" lon="-3.55677">
        <ele>137</ele>
        <time>2025-02-25T15:10:51Z</time>
      </trkpt>
      <trkpt lat="48.08296" lon="-3.55679">
        <ele>137</ele>
        <time>2025-02-25T15:10:52Z</time>
      </trkpt>
      <trkpt lat="48.08295" lon="-3.5568">
        <ele>137.1</ele>
        <time>2025-02-25T15:10:53Z</time>
      </trkpt>
      <trkpt lat="48.08295" lon="-3.55681">
        <ele>137.1</ele>
        <time>2025-02-25T15:10:54Z</time>
      </trkpt>
      <trkpt lat="48.08295" lon="-3.5568">
        <ele>137.1</ele>
        <time>2025-02-25T15:10:55Z</time>
      </trkpt>
      <trkpt lat="48.08296" lon="-3.5568">
        <ele>137</ele>
        <time>2025-02-25T15:10:56Z</time>
      </trkpt>
      <trkpt lat="48.08297" lon="-3.55681">
        <ele>137</ele>
        <time>2025-02-25T15:10:57Z</time>
      </trkpt>
      <trkpt lat="48.08298" lon="-3.55682">
        <ele>136.9</ele>
        <time>2025-02-25T15:10:58Z</time>
      </trkpt>
      <trkpt lat="48.08298" lon="-3.55684">
        <ele>137</ele>
        <time>2025-02-25T15:10:59Z</time>
      </trkpt>
      <trkpt lat="48.08299" lon="-3.55685">
        <ele>137</ele>
        <time>2025-02-25T15:11:00Z</time>
      </trkpt>
      <trkpt lat="48.08298" lon="-3.55687">
        <ele>137.1</ele>
        <time>2025-02-25T15:11:01Z</time>
      </trkpt>
      <trkpt lat="48.08298" lon="-3.55689">
        <ele>137.1</ele>
        <time>2025-02-25T15:11:02Z</time>
      </trkpt>
      <trkpt lat="48.08298" lon="-3.5569">
        <ele>137.2</ele>
        <time>2025-02-25T15:11:03Z</time>
      </trkpt>
      <trkpt lat="48.08298" lon="-3.55692">
        <ele>137.2</ele>
        <time>2025-02-25T15:11:04Z</time>
      </trkpt>
      <trkpt lat="48.08297" lon="-3.55693">
        <ele>137.3</ele>
        <time>2025-02-25T15:11:05Z</time>
      </trkpt>
      <trkpt lat="48.08297" lon="-3.55694">
        <ele>137.3</ele>
        <time>2025-02-25T15:11:06Z</time>
      </trkpt>
      <trkpt lat="48.08297" lon="-3.55695">
        <ele>137.3</ele>
        <time>2025-02-25T15:11:07Z</time>
      </trkpt>
      <trkpt lat="48.08297" lon="-3.55696">
        <ele>137.4</ele>
        <time>2025-02-25T15:11:08Z</time>
      </trkpt>
      <trkpt lat="48.08297" lon="-3.55697">
        <ele>137.4</ele>
        <time>2025-02-25T15:11:09Z</time>
      </trkpt>
      <trkpt lat="48.08298" lon="-3.55698">
        <ele>137.4</ele>
        <time>2025-02-25T15:11:10Z</time>
      </trkpt>
      <trkpt lat="48.08298" lon="-3.55699">
        <ele>137.5</ele>
        <time>2025-02-25T15:11:11Z</time>
      </trkpt>
      <trkpt lat="48.08299" lon="-3.557">
        <ele>137.5</ele>
        <time>2025-02-25T15:11:12Z</time>
      </trkpt>
      <trkpt lat="48.08299" lon="-3.55701">
        <ele>137.5</ele>
        <time>2025-02-25T15:11:13Z</time>
      </trkpt>
      <trkpt lat="48.08299" lon="-3.55703">
        <ele>137.6</ele>
        <time>2025-02-25T15:11:14Z</time>
      </trkpt>
      <trkpt lat="48.08299" lon="-3.55704">
        <ele>137.7</ele>
        <time>2025-02-25T15:11:15Z</time>
      </trkpt>
      <trkpt lat="48.08299" lon="-3.55705">
        <ele>137.7</ele>
        <time>2025-02-25T15:11:16Z</time>
      </trkpt>
      <trkpt lat="48.08299" lon="-3.55706">
        <ele>137.8</ele>
        <time>2025-02-25T15:11:17Z</time>
      </trkpt>
      <trkpt lat="48.083" lon="-3.55708">
        <ele>137.8</ele>
        <time>2025-02-25T15:11:18Z</time>
      </trkpt>
      <trkpt lat="48.083" lon="-3.55709">
        <ele>137.8</ele>
        <time>2025-02-25T15:11:19Z</time>
      </trkpt>
      <trkpt lat="48.083" lon="-3.5571">
        <ele>137.9</ele>
        <time>2025-02-25T15:11:20Z</time>
      </trkpt>
      <trkpt lat="48.083" lon="-3.55711">
        <ele>137.9</ele>
        <time>2025-02-25T15:11:21Z</time>
      </trkpt>
      <trkpt lat="48.08301" lon="-3.55712">
        <ele>137.9</ele>
        <time>2025-02-25T15:11:22Z</time>
      </trkpt>
      <trkpt lat="48.08301" lon="-3.55713">
        <ele>137.9</ele>
        <time>2025-02-25T15:11:23Z</time>
      </trkpt>
      <trkpt lat="48.08301" lon="-3.55714">
        <ele>138</ele>
        <time>2025-02-25T15:11:24Z</time>
      </trkpt>
      <trkpt lat="48.08301" lon="-3.55715">
        <ele>138</ele>
        <time>2025-02-25T15:11:25Z</time>
      </trkpt>
      <trkpt lat="48.08301" lon="-3.55717">
        <ele>138.1</ele>
        <time>2025-02-25T15:11:26Z</time>
      </trkpt>
      <trkpt lat="48.08301" lon="-3.55718">
        <ele>138.2</ele>
        <time>2025-02-25T15:11:27Z</time>
      </trkpt>
      <trkpt lat="48.08302" lon="-3.55719">
        <ele>138.1</ele>
        <time>2025-02-25T15:11:28Z</time>
      </trkpt>
      <trkpt lat="48.08302" lon="-3.5572">
        <ele>138.2</ele>
        <time>2025-02-25T15:11:29Z</time>
      </trkpt>
      <trkpt lat="48.08303" lon="-3.55721">
        <ele>138.1</ele>
        <time>2025-02-25T15:11:30Z</time>
      </trkpt>
      <trkpt lat="48.08303" lon="-3.55722">
        <ele>138.2</ele>
        <time>2025-02-25T15:11:31Z</time>
      </trkpt>
      <trkpt lat="48.08304" lon="-3.55723">
        <ele>138.1</ele>
        <time>2025-02-25T15:11:32Z</time>
      </trkpt>
      <trkpt lat="48.08304" lon="-3.55724">
        <ele>138.2</ele>
        <time>2025-02-25T15:11:33Z</time>
      </trkpt>
      <trkpt lat="48.08304" lon="-3.55725">
        <ele>138.2</ele>
        <time>2025-02-25T15:11:34Z</time>
      </trkpt>
      <trkpt lat="48.08304" lon="-3.55727">
        <ele>138.3</ele>
        <time>2025-02-25T15:11:35Z</time>
      </trkpt>
      <trkpt lat="48.08305" lon="-3.55728">
        <ele>138.2</ele>
        <time>2025-02-25T15:11:36Z</time>
      </trkpt>
      <trkpt lat="48.08305" lon="-3.55729">
        <ele>138.3</ele>
        <time>2025-02-25T15:11:37Z</time>
      </trkpt>
      <trkpt lat="48.08306" lon="-3.55729">
        <ele>138.2</ele>
        <time>2025-02-25T15:11:38Z</time>
      </trkpt>
      <trkpt lat="48.08307" lon="-3.55731">
        <ele>138.2</ele>
        <time>2025-02-25T15:11:39Z</time>
      </trkpt>
      <trkpt lat="48.08307" lon="-3.55731">
        <ele>138.2</ele>
        <time>2025-02-25T15:11:40Z</time>
      </trkpt>
      <trkpt lat="48.08307" lon="-3.55733">
        <ele>138.3</ele>
        <time>2025-02-25T15:11:41Z</time>
      </trkpt>
      <trkpt lat="48.08308" lon="-3.55734">
        <ele>138.3</ele>
        <time>2025-02-25T15:11:42Z</time>
      </trkpt>
      <trkpt lat="48.08309" lon="-3.55733">
        <ele>138.2</ele>
        <time>2025-02-25T15:11:43Z</time>
      </trkpt>
      <trkpt lat="48.0831" lon="-3.55733">
        <ele>138.1</ele>
        <time>2025-02-25T15:11:44Z</time>
      </trkpt>
      <trkpt lat="48.08311" lon="-3.55732">
        <ele>138</ele>
        <time>2025-02-25T15:11:45Z</time>
      </trkpt>
      <trkpt lat="48.08312" lon="-3.55733">
        <ele>138</ele>
        <time>2025-02-25T15:11:46Z</time>
      </trkpt>
      <trkpt lat="48.08313" lon="-3.55734">
        <ele>138</ele>
        <time>2025-02-25T15:11:47Z</time>
      </trkpt>
      <trkpt lat="48.08313" lon="-3.55734">
        <ele>138</ele>
        <time>2025-02-25T15:11:48Z</time>
      </trkpt>
      <trkpt lat="48.08314" lon="-3.55735">
        <ele>138</ele>
        <time>2025-02-25T15:11:49Z</time>
      </trkpt>
      <trkpt lat="48.08315" lon="-3.55735">
        <ele>137.9</ele>
        <time>2025-02-25T15:11:50Z</time>
      </trkpt>
      <trkpt lat="48.08316" lon="-3.55735">
        <ele>137.9</ele>
        <time>2025-02-25T15:11:51Z</time>
      </trkpt>
      <trkpt lat="48.08316" lon="-3.55735">
        <ele>137.9</ele>
        <time>2025-02-25T15:11:52Z</time>
      </trkpt>
      <trkpt lat="48.08317" lon="-3.55735">
        <ele>137.8</ele>
        <time>2025-02-25T15:11:53Z</time>
      </trkpt>
      <trkpt lat="48.08318" lon="-3.55734">
        <ele>137.7</ele>
        <time>2025-02-25T15:11:54Z</time>
      </trkpt>
      <trkpt lat="48.08319" lon="-3.55735">
        <ele>137.7</ele>
        <time>2025-02-25T15:11:55Z</time>
      </trkpt>
      <trkpt lat="48.08319" lon="-3.55735">
        <ele>137.7</ele>
        <time>2025-02-25T15:11:56Z</time>
      </trkpt>
      <trkpt lat="48.0832" lon="-3.55737">
        <ele>137.8</ele>
        <time>2025-02-25T15:11:57Z</time>
      </trkpt>
      <trkpt lat="48.08321" lon="-3.55737">
        <ele>137.7</ele>
        <time>2025-02-25T15:11:58Z</time>
      </trkpt>
      <trkpt lat="48.08322" lon="-3.55738">
        <ele>137.7</ele>
        <time>2025-02-25T15:11:59Z</time>
      </trkpt>
      <trkpt lat="48.08322" lon="-3.55739">
        <ele>137.8</ele>
        <time>2025-02-25T15:12:00Z</time>
      </trkpt>
      <trkpt lat="48.08323" lon="-3.5574">
        <ele>137.8</ele>
        <time>2025-02-25T15:12:01Z</time>
      </trkpt>
      <trkpt lat="48.08324" lon="-3.5574">
        <ele>137.7</ele>
        <time>2025-02-25T15:12:02Z</time>
      </trkpt>
      <trkpt lat="48.08326" lon="-3.5574">
        <ele>137.6</ele>
        <time>2025-02-25T15:12:03Z</time>
      </trkpt>
      <trkpt lat="48.08327" lon="-3.55741">
        <ele>137.7</ele>
        <time>2025-02-25T15:12:04Z</time>
      </trkpt>
      <trkpt lat="48.08327" lon="-3.55741">
        <ele>137.7</ele>
        <time>2025-02-25T15:12:05Z</time>
      </trkpt>
      <trkpt lat="48.08328" lon="-3.55742">
        <ele>137.7</ele>
        <time>2025-02-25T15:12:06Z</time>
      </trkpt>
      <trkpt lat="48.0833" lon="-3.55742">
        <ele>137.6</ele>
        <time>2025-02-25T15:12:07Z</time>
      </trkpt>
      <trkpt lat="48.08331" lon="-3.55741">
        <ele>137.5</ele>
        <time>2025-02-25T15:12:08Z</time>
      </trkpt>
      <trkpt lat="48.08332" lon="-3.55742">
        <ele>137.5</ele>
        <time>2025-02-25T15:12:09Z</time>
      </trkpt>
      <trkpt lat="48.08333" lon="-3.55742">
        <ele>137.4</ele>
        <time>2025-02-25T15:12:10Z</time>
      </trkpt>
      <trkpt lat="48.08334" lon="-3.55742">
        <ele>137.4</ele>
        <time>2025-02-25T15:12:11Z</time>
      </trkpt>
      <trkpt lat="48.08335" lon="-3.55742">
        <ele>137.4</ele>
        <time>2025-02-25T15:12:12Z</time>
      </trkpt>
      <trkpt lat="48.08336" lon="-3.55741">
        <ele>137.4</ele>
        <time>2025-02-25T15:12:13Z</time>
      </trkpt>
      <trkpt lat="48.08336" lon="-3.55741">
        <ele>137.4</ele>
        <time>2025-02-25T15:12:14Z</time>
      </trkpt>
      <trkpt lat="48.08337" lon="-3.55742">
        <ele>137.4</ele>
        <time>2025-02-25T15:12:15Z</time>
      </trkpt>
      <trkpt lat="48.08339" lon="-3.55741">
        <ele>137.4</ele>
        <time>2025-02-25T15:12:16Z</time>
      </trkpt>
      <trkpt lat="48.0834" lon="-3.55742">
        <ele>137.4</ele>
        <time>2025-02-25T15:12:17Z</time>
      </trkpt>
      <trkpt lat="48.08341" lon="-3.55743">
        <ele>137.5</ele>
        <time>2025-02-25T15:12:18Z</time>
      </trkpt>
      <trkpt lat="48.08341" lon="-3.55744">
        <ele>137.6</ele>
        <time>2025-02-25T15:12:19Z</time>
      </trkpt>
      <trkpt lat="48.08342" lon="-3.55744">
        <ele>137.6</ele>
        <time>2025-02-25T15:12:20Z</time>
      </trkpt>
      <trkpt lat="48.08343" lon="-3.55744">
        <ele>137.6</ele>
        <time>2025-02-25T15:12:21Z</time>
      </trkpt>
      <trkpt lat="48.08344" lon="-3.55744">
        <ele>137.6</ele>
        <time>2025-02-25T15:12:22Z</time>
      </trkpt>
      <trkpt lat="48.08345" lon="-3.55744">
        <ele>137.6</ele>
        <time>2025-02-25T15:12:23Z</time>
      </trkpt>
      <trkpt lat="48.08346" lon="-3.55743">
        <ele>137.5</ele>
        <time>2025-02-25T15:12:24Z</time>
      </trkpt>
      <trkpt lat="48.08346" lon="-3.55743">
        <ele>137.5</ele>
        <time>2025-02-25T15:12:25Z</time>
      </trkpt>
      <trkpt lat="48.08347" lon="-3.55743">
        <ele>137.5</ele>
        <time>2025-02-25T15:12:26Z</time>
      </trkpt>
      <trkpt lat="48.08347" lon="-3.55744">
        <ele>137.6</ele>
        <time>2025-02-25T15:12:27Z</time>
      </trkpt>
      <trkpt lat="48.08347" lon="-3.55743">
        <ele>137.5</ele>
        <time>2025-02-25T15:12:28Z</time>
      </trkpt>
      <trkpt lat="48.08347" lon="-3.55742">
        <ele>137.4</ele>
        <time>2025-02-25T15:12:29Z</time>
      </trkpt>
      <trkpt lat="48.08346" lon="-3.55742">
        <ele>137.4</ele>
        <time>2025-02-25T15:12:30Z</time>
      </trkpt>
      <trkpt lat="48.08347" lon="-3.55743">
        <ele>137.5</ele>
        <time>2025-02-25T15:12:31Z</time>
      </trkpt>
      <trkpt lat="48.08348" lon="-3.55743">
        <ele>137.5</ele>
        <time>2025-02-25T15:12:32Z</time>
      </trkpt>
      <trkpt lat="48.08349" lon="-3.55743">
        <ele>137.5</ele>
        <time>2025-02-25T15:12:33Z</time>
      </trkpt>
      <trkpt lat="48.08349" lon="-3.55743">
        <ele>137.5</ele>
        <time>2025-02-25T15:12:34Z</time>
      </trkpt>
      <trkpt lat="48.08349" lon="-3.55744">
        <ele>137.6</ele>
        <time>2025-02-25T15:12:35Z</time>
      </trkpt>
      <trkpt lat="48.0835" lon="-3.55745">
        <ele>137.6</ele>
        <time>2025-02-25T15:12:36Z</time>
      </trkpt>
      <trkpt lat="48.0835" lon="-3.55746">
        <ele>137.7</ele>
        <time>2025-02-25T15:12:37Z</time>
      </trkpt>
      <trkpt lat="48.08351" lon="-3.55746">
        <ele>137.7</ele>
        <time>2025-02-25T15:12:38Z</time>
      </trkpt>
      <trkpt lat="48.08351" lon="-3.55747">
        <ele>137.8</ele>
        <time>2025-02-25T15:12:39Z</time>
      </trkpt>
      <trkpt lat="48.08352" lon="-3.55747">
        <ele>137.8</ele>
        <time>2025-02-25T15:12:40Z</time>
      </trkpt>
      <trkpt lat="48.08352" lon="-3.55746">
        <ele>137.7</ele>
        <time>2025-02-25T15:12:41Z</time>
      </trkpt>
      <trkpt lat="48.08353" lon="-3.55747">
        <ele>137.8</ele>
        <time>2025-02-25T15:12:42Z</time>
      </trkpt>
      <trkpt lat="48.08353" lon="-3.55746">
        <ele>137.7</ele>
        <time>2025-02-25T15:12:43Z</time>
      </trkpt>
      <trkpt lat="48.08354" lon="-3.55746">
        <ele>137.7</ele>
        <time>2025-02-25T15:12:44Z</time>
      </trkpt>
      <trkpt lat="48.08355" lon="-3.55747">
        <ele>137.8</ele>
        <time>2025-02-25T15:12:45Z</time>
      </trkpt>
      <trkpt lat="48.08355" lon="-3.55747">
        <ele>137.8</ele>
        <time>2025-02-25T15:12:46Z</time>
      </trkpt>
      <trkpt lat="48.08355" lon="-3.55748">
        <ele>137.9</ele>
        <time>2025-02-25T15:12:47Z</time>
      </trkpt>
      <trkpt lat="48.08356" lon="-3.55748">
        <ele>137.9</ele>
        <time>2025-02-25T15:12:48Z</time>
      </trkpt>
      <trkpt lat="48.08356" lon="-3.55749">
        <ele>137.9</ele>
        <time>2025-02-25T15:12:49Z</time>
      </trkpt>
      <trkpt lat="48.08357" lon="-3.55748">
        <ele>137.9</ele>
        <time>2025-02-25T15:12:50Z</time>
      </trkpt>
      <trkpt lat="48.08357" lon="-3.55748">
        <ele>137.9</ele>
        <time>2025-02-25T15:12:51Z</time>
      </trkpt>
      <trkpt lat="48.08358" lon="-3.55748">
        <ele>137.9</ele>
        <time>2025-02-25T15:12:52Z</time>
      </trkpt>
      <trkpt lat="48.08358" lon="-3.55748">
        <ele>137.9</ele>
        <time>2025-02-25T15:12:53Z</time>
      </trkpt>
      <trkpt lat="48.08358" lon="-3.55749">
        <ele>137.9</ele>
        <time>2025-02-25T15:12:54Z</time>
      </trkpt>
      <trkpt lat="48.08359" lon="-3.55749">
        <ele>137.9</ele>
        <time>2025-02-25T15:12:55Z</time>
      </trkpt>
      <trkpt lat="48.0836" lon="-3.55749">
        <ele>137.9</ele>
        <time>2025-02-25T15:12:56Z</time>
      </trkpt>
      <trkpt lat="48.0836" lon="-3.5575">
        <ele>138</ele>
        <time>2025-02-25T15:12:57Z</time>
      </trkpt>
      <trkpt lat="48.0836" lon="-3.55751">
        <ele>138</ele>
        <time>2025-02-25T15:12:58Z</time>
      </trkpt>
      <trkpt lat="48.08361" lon="-3.55751">
        <ele>138</ele>
        <time>2025-02-25T15:12:59Z</time>
      </trkpt>
      <trkpt lat="48.08362" lon="-3.55751">
        <ele>138</ele>
        <time>2025-02-25T15:13:00Z</time>
      </trkpt>
      <trkpt lat="48.08363" lon="-3.55751">
        <ele>138</ele>
        <time>2025-02-25T15:13:01Z</time>
      </trkpt>
      <trkpt lat="48.08364" lon="-3.5575">
        <ele>137.9</ele>
        <time>2025-02-25T15:13:02Z</time>
      </trkpt>
      <trkpt lat="48.08364" lon="-3.5575">
        <ele>137.9</ele>
        <time>2025-02-25T15:13:03Z</time>
      </trkpt>
      <trkpt lat="48.08365" lon="-3.5575">
        <ele>137.9</ele>
        <time>2025-02-25T15:13:04Z</time>
      </trkpt>
      <trkpt lat="48.08366" lon="-3.55752">
        <ele>137.9</ele>
        <time>2025-02-25T15:13:05Z</time>
      </trkpt>
      <trkpt lat="48.08367" lon="-3.55752">
        <ele>137.9</ele>
        <time>2025-02-25T15:13:06Z</time>
      </trkpt>
      <trkpt lat="48.08367" lon="-3.55753">
        <ele>137.9</ele>
        <time>2025-02-25T15:13:07Z</time>
      </trkpt>
      <trkpt lat="48.08368" lon="-3.55754">
        <ele>137.9</ele>
        <time>2025-02-25T15:13:08Z</time>
      </trkpt>
      <trkpt lat="48.08368" lon="-3.55754">
        <ele>137.9</ele>
        <time>2025-02-25T15:13:09Z</time>
      </trkpt>
      <trkpt lat="48.08368" lon="-3.55754">
        <ele>137.9</ele>
        <time>2025-02-25T15:13:10Z</time>
      </trkpt>
      <trkpt lat="48.08368" lon="-3.55754">
        <ele>137.9</ele>
        <time>2025-02-25T15:13:11Z</time>
      </trkpt>
      <trkpt lat="48.08369" lon="-3.55754">
        <ele>137.9</ele>
        <time>2025-02-25T15:13:12Z</time>
      </trkpt>
      <trkpt lat="48.08369" lon="-3.55754">
        <ele>137.9</ele>
        <time>2025-02-25T15:13:13Z</time>
      </trkpt>
      <trkpt lat="48.08371" lon="-3.55754">
        <ele>137.8</ele>
        <time>2025-02-25T15:13:14Z</time>
      </trkpt>
      <trkpt lat="48.08371" lon="-3.55755">
        <ele>137.9</ele>
        <time>2025-02-25T15:13:15Z</time>
      </trkpt>
      <trkpt lat="48.08372" lon="-3.55756">
        <ele>137.9</ele>
        <time>2025-02-25T15:13:16Z</time>
      </trkpt>
      <trkpt lat="48.08372" lon="-3.55756">
        <ele>137.9</ele>
        <time>2025-02-25T15:13:17Z</time>
      </trkpt>
      <trkpt lat="48.08373" lon="-3.55756">
        <ele>137.9</ele>
        <time>2025-02-25T15:13:18Z</time>
      </trkpt>
      <trkpt lat="48.08373" lon="-3.55756">
        <ele>137.9</ele>
        <time>2025-02-25T15:13:19Z</time>
      </trkpt>
      <trkpt lat="48.08373" lon="-3.55756">
        <ele>137.9</ele>
        <time>2025-02-25T15:13:20Z</time>
      </trkpt>
      <trkpt lat="48.08373" lon="-3.55757">
        <ele>137.9</ele>
        <time>2025-02-25T15:13:21Z</time>
      </trkpt>
      <trkpt lat="48.08373" lon="-3.55757">
        <ele>137.9</ele>
        <time>2025-02-25T15:13:22Z</time>
      </trkpt>
      <trkpt lat="48.08373" lon="-3.55757">
        <ele>137.9</ele>
        <time>2025-02-25T15:13:23Z</time>
      </trkpt>
      <trkpt lat="48.08373" lon="-3.55757">
        <ele>137.9</ele>
        <time>2025-02-25T15:13:24Z</time>
      </trkpt>
      <trkpt lat="48.08373" lon="-3.55757">
        <ele>137.9</ele>
        <time>2025-02-25T15:13:25Z</time>
      </trkpt>
      <trkpt lat="48.08373" lon="-3.55757">
        <ele>137.9</ele>
        <time>2025-02-25T15:13:26Z</time>
      </trkpt>
      <trkpt lat="48.08373" lon="-3.55757">
        <ele>137.9</ele>
        <time>2025-02-25T15:13:27Z</time>
      </trkpt>
      <trkpt lat="48.08373" lon="-3.55757">
        <ele>137.9</ele>
        <time>2025-02-25T15:13:28Z</time>
      </trkpt>
      <trkpt lat="48.08373" lon="-3.55757">
        <ele>137.9</ele>
        <time>2025-02-25T15:13:29Z</time>
      </trkpt>
      <trkpt lat="48.08373" lon="-3.55757">
        <ele>137.9</ele>
        <time>2025-02-25T15:13:30Z</time>
      </trkpt>
      <trkpt lat="48.08373" lon="-3.55757">
        <ele>137.9</ele>
        <time>2025-02-25T15:13:31Z</time>
      </trkpt>
      <trkpt lat="48.08373" lon="-3.55757">
        <ele>137.9</ele>
        <time>2025-02-25T15:13:32Z</time>
      </trkpt>
      <trkpt lat="48.08373" lon="-3.55757">
        <ele>137.9</ele>
        <time>2025-02-25T15:13:33Z</time>
      </trkpt>
      <trkpt lat="48.08373" lon="-3.55757">
        <ele>137.9</ele>
        <time>2025-02-25T15:13:34Z</time>
      </trkpt>
      <trkpt lat="48.08373" lon="-3.55757">
        <ele>137.9</ele>
        <time>2025-02-25T15:13:35Z</time>
      </trkpt>
      <trkpt lat="48.08373" lon="-3.55757">
        <ele>137.9</ele>
        <time>2025-02-25T15:13:36Z</time>
      </trkpt>
      <trkpt lat="48.08373" lon="-3.55757">
        <ele>137.9</ele>
        <time>2025-02-25T15:13:37Z</time>
      </trkpt>
      <trkpt lat="48.08373" lon="-3.55756">
        <ele>137.9</ele>
        <time>2025-02-25T15:13:38Z</time>
      </trkpt>
      <trkpt lat="48.08373" lon="-3.55756">
        <ele>137.9</ele>
        <time>2025-02-25T15:13:39Z</time>
      </trkpt>
      <trkpt lat="48.08373" lon="-3.55756">
        <ele>137.9</ele>
        <time>2025-02-25T15:13:40Z</time>
      </trkpt>
      <trkpt lat="48.08373" lon="-3.55757">
        <ele>137.9</ele>
        <time>2025-02-25T15:13:41Z</time>
      </trkpt>
      <trkpt lat="48.08372" lon="-3.55757">
        <ele>138</ele>
        <time>2025-02-25T15:13:42Z</time>
      </trkpt>
      <trkpt lat="48.08372" lon="-3.55757">
        <ele>138</ele>
        <time>2025-02-25T15:13:43Z</time>
      </trkpt>
      <trkpt lat="48.08371" lon="-3.55757">
        <ele>138</ele>
        <time>2025-02-25T15:13:44Z</time>
      </trkpt>
      <trkpt lat="48.08371" lon="-3.55757">
        <ele>138</ele>
        <time>2025-02-25T15:13:45Z</time>
      </trkpt>
      <trkpt lat="48.08371" lon="-3.55756">
        <ele>137.9</ele>
        <time>2025-02-25T15:13:46Z</time>
      </trkpt>
      <trkpt lat="48.08371" lon="-3.55756">
        <ele>137.9</ele>
        <time>2025-02-25T15:13:47Z</time>
      </trkpt>
      <trkpt lat="48.08371" lon="-3.55756">
        <ele>137.9</ele>
        <time>2025-02-25T15:13:48Z</time>
      </trkpt>
      <trkpt lat="48.0837" lon="-3.55756">
        <ele>138</ele>
        <time>2025-02-25T15:13:49Z</time>
      </trkpt>
      <trkpt lat="48.0837" lon="-3.55757">
        <ele>138</ele>
        <time>2025-02-25T15:13:50Z</time>
      </trkpt>
      <trkpt lat="48.08368" lon="-3.55756">
        <ele>138</ele>
        <time>2025-02-25T15:13:51Z</time>
      </trkpt>
      <trkpt lat="48.08368" lon="-3.55756">
        <ele>138</ele>
        <time>2025-02-25T15:13:52Z</time>
      </trkpt>
      <trkpt lat="48.08367" lon="-3.55755">
        <ele>138</ele>
        <time>2025-02-25T15:13:53Z</time>
      </trkpt>
      <trkpt lat="48.08367" lon="-3.55755">
        <ele>138</ele>
        <time>2025-02-25T15:13:54Z</time>
      </trkpt>
      <trkpt lat="48.08367" lon="-3.55755">
        <ele>138</ele>
        <time>2025-02-25T15:13:55Z</time>
      </trkpt>
      <trkpt lat="48.08367" lon="-3.55755">
        <ele>138</ele>
        <time>2025-02-25T15:13:56Z</time>
      </trkpt>
      <trkpt lat="48.08367" lon="-3.55755">
        <ele>138</ele>
        <time>2025-02-25T15:13:57Z</time>
      </trkpt>
      <trkpt lat="48.08367" lon="-3.55755">
        <ele>138</ele>
        <time>2025-02-25T15:13:58Z</time>
      </trkpt>
      <trkpt lat="48.08367" lon="-3.55755">
        <ele>138</ele>
        <time>2025-02-25T15:13:59Z</time>
      </trkpt>
      <trkpt lat="48.08367" lon="-3.55755">
        <ele>138</ele>
        <time>2025-02-25T15:14:00Z</time>
      </trkpt>
      <trkpt lat="48.08367" lon="-3.55755">
        <ele>138</ele>
        <time>2025-02-25T15:14:01Z</time>
      </trkpt>
      <trkpt lat="48.08366" lon="-3.55755">
        <ele>138</ele>
        <time>2025-02-25T15:14:02Z</time>
      </trkpt>
      <trkpt lat="48.08366" lon="-3.55755">
        <ele>138</ele>
        <time>2025-02-25T15:14:03Z</time>
      </trkpt>
      <trkpt lat="48.08365" lon="-3.55755">
        <ele>138.1</ele>
        <time>2025-02-25T15:14:04Z</time>
      </trkpt>
      <trkpt lat="48.08365" lon="-3.55755">
        <ele>138.1</ele>
        <time>2025-02-25T15:14:05Z</time>
      </trkpt>
      <trkpt lat="48.08366" lon="-3.55755">
        <ele>138</ele>
        <time>2025-02-25T15:14:06Z</time>
      </trkpt>
      <trkpt lat="48.08366" lon="-3.55756">
        <ele>138.1</ele>
        <time>2025-02-25T15:14:07Z</time>
      </trkpt>
      <trkpt lat="48.08366" lon="-3.55756">
        <ele>138.1</ele>
        <time>2025-02-25T15:14:08Z</time>
      </trkpt>
      <trkpt lat="48.08366" lon="-3.55756">
        <ele>138.1</ele>
        <time>2025-02-25T15:14:09Z</time>
      </trkpt>
      <trkpt lat="48.08366" lon="-3.55756">
        <ele>138.1</ele>
        <time>2025-02-25T15:14:10Z</time>
      </trkpt>
      <trkpt lat="48.08366" lon="-3.55756">
        <ele>138.1</ele>
        <time>2025-02-25T15:14:11Z</time>
      </trkpt>
      <trkpt lat="48.08366" lon="-3.55756">
        <ele>138.1</ele>
        <time>2025-02-25T15:14:12Z</time>
      </trkpt>
      <trkpt lat="48.08366" lon="-3.55756">
        <ele>138.1</ele>
        <time>2025-02-25T15:14:13Z</time>
      </trkpt>
      <trkpt lat="48.08366" lon="-3.55756">
        <ele>138.1</ele>
        <time>2025-02-25T15:14:14Z</time>
      </trkpt>
      <trkpt lat="48.08366" lon="-3.55756">
        <ele>138.1</ele>
        <time>2025-02-25T15:14:15Z</time>
      </trkpt>
      <trkpt lat="48.08366" lon="-3.55756">
        <ele>138.1</ele>
        <time>2025-02-25T15:14:16Z</time>
      </trkpt>
      <trkpt lat="48.08366" lon="-3.55756">
        <ele>138.1</ele>
        <time>2025-02-25T15:14:17Z</time>
      </trkpt>
      <trkpt lat="48.08366" lon="-3.55756">
        <ele>138.1</ele>
        <time>2025-02-25T15:14:18Z</time>
      </trkpt>
      <trkpt lat="48.08366" lon="-3.55756">
        <ele>138.1</ele>
        <time>2025-02-25T15:14:19Z</time>
      </trkpt>
      <trkpt lat="48.08366" lon="-3.55756">
        <ele>138.1</ele>
        <time>2025-02-25T15:14:20Z</time>
      </trkpt>
      <trkpt lat="48.08366" lon="-3.55756">
        <ele>138.1</ele>
        <time>2025-02-25T15:14:21Z</time>
      </trkpt>
      <trkpt lat="48.08366" lon="-3.55755">
        <ele>138</ele>
        <time>2025-02-25T15:14:22Z</time>
      </trkpt>
      <trkpt lat="48.08365" lon="-3.55755">
        <ele>138.1</ele>
        <time>2025-02-25T15:14:23Z</time>
      </trkpt>
      <trkpt lat="48.08366" lon="-3.55755">
        <ele>138</ele>
        <time>2025-02-25T15:14:24Z</time>
      </trkpt>
      <trkpt lat="48.08367" lon="-3.55755">
        <ele>138</ele>
        <time>2025-02-25T15:14:25Z</time>
      </trkpt>
      <trkpt lat="48.08367" lon="-3.55755">
        <ele>138</ele>
        <time>2025-02-25T15:14:26Z</time>
      </trkpt>
      <trkpt lat="48.08368" lon="-3.55754">
        <ele>137.9</ele>
        <time>2025-02-25T15:14:27Z</time>
      </trkpt>
      <trkpt lat="48.08368" lon="-3.55753">
        <ele>137.9</ele>
        <time>2025-02-25T15:14:28Z</time>
      </trkpt>
      <trkpt lat="48.08368" lon="-3.55753">
        <ele>137.9</ele>
        <time>2025-02-25T15:14:29Z</time>
      </trkpt>
      <trkpt lat="48.08369" lon="-3.55753">
        <ele>137.9</ele>
        <time>2025-02-25T15:14:30Z</time>
      </trkpt>
      <trkpt lat="48.0837" lon="-3.55753">
        <ele>137.8</ele>
        <time>2025-02-25T15:14:31Z</time>
      </trkpt>
      <trkpt lat="48.08371" lon="-3.55753">
        <ele>137.8</ele>
        <time>2025-02-25T15:14:32Z</time>
      </trkpt>
      <trkpt lat="48.08373" lon="-3.55753">
        <ele>137.7</ele>
        <time>2025-02-25T15:14:33Z</time>
      </trkpt>
      <trkpt lat="48.08373" lon="-3.55754">
        <ele>137.8</ele>
        <time>2025-02-25T15:14:34Z</time>
      </trkpt>
      <trkpt lat="48.08374" lon="-3.55754">
        <ele>137.7</ele>
        <time>2025-02-25T15:14:35Z</time>
      </trkpt>
      <trkpt lat="48.08375" lon="-3.55754">
        <ele>137.7</ele>
        <time>2025-02-25T15:14:36Z</time>
      </trkpt>
      <trkpt lat="48.08376" lon="-3.55754">
        <ele>137.7</ele>
        <time>2025-02-25T15:14:37Z</time>
      </trkpt>
      <trkpt lat="48.08377" lon="-3.55755">
        <ele>137.7</ele>
        <time>2025-02-25T15:14:38Z</time>
      </trkpt>
      <trkpt lat="48.08378" lon="-3.55755">
        <ele>137.7</ele>
        <time>2025-02-25T15:14:39Z</time>
      </trkpt>
      <trkpt lat="48.0838" lon="-3.55755">
        <ele>137.6</ele>
        <time>2025-02-25T15:14:40Z</time>
      </trkpt>
      <trkpt lat="48.08381" lon="-3.55755">
        <ele>137.6</ele>
        <time>2025-02-25T15:14:41Z</time>
      </trkpt>
      <trkpt lat="48.08381" lon="-3.55756">
        <ele>137.7</ele>
        <time>2025-02-25T15:14:42Z</time>
      </trkpt>
      <trkpt lat="48.08382" lon="-3.55757">
        <ele>137.7</ele>
        <time>2025-02-25T15:14:43Z</time>
      </trkpt>
      <trkpt lat="48.08383" lon="-3.55758">
        <ele>137.7</ele>
        <time>2025-02-25T15:14:44Z</time>
      </trkpt>
      <trkpt lat="48.08384" lon="-3.55758">
        <ele>137.7</ele>
        <time>2025-02-25T15:14:45Z</time>
      </trkpt>
      <trkpt lat="48.08385" lon="-3.55759">
        <ele>137.7</ele>
        <time>2025-02-25T15:14:46Z</time>
      </trkpt>
      <trkpt lat="48.08385" lon="-3.5576">
        <ele>137.8</ele>
        <time>2025-02-25T15:14:47Z</time>
      </trkpt>
      <trkpt lat="48.08386" lon="-3.55762">
        <ele>137.9</ele>
        <time>2025-02-25T15:14:48Z</time>
      </trkpt>
      <trkpt lat="48.08386" lon="-3.55763">
        <ele>138</ele>
        <time>2025-02-25T15:14:49Z</time>
      </trkpt>
      <trkpt lat="48.08387" lon="-3.55764">
        <ele>138</ele>
        <time>2025-02-25T15:14:50Z</time>
      </trkpt>
      <trkpt lat="48.08388" lon="-3.55764">
        <ele>138</ele>
        <time>2025-02-25T15:14:51Z</time>
      </trkpt>
      <trkpt lat="48.08389" lon="-3.55766">
        <ele>138.2</ele>
        <time>2025-02-25T15:14:52Z</time>
      </trkpt>
      <trkpt lat="48.0839" lon="-3.55766">
        <ele>138.2</ele>
        <time>2025-02-25T15:14:53Z</time>
      </trkpt>
      <trkpt lat="48.0839" lon="-3.55766">
        <ele>138.2</ele>
        <time>2025-02-25T15:14:54Z</time>
      </trkpt>
      <trkpt lat="48.08391" lon="-3.55767">
        <ele>138.2</ele>
        <time>2025-02-25T15:14:55Z</time>
      </trkpt>
      <trkpt lat="48.08392" lon="-3.55768">
        <ele>138.3</ele>
        <time>2025-02-25T15:14:56Z</time>
      </trkpt>
      <trkpt lat="48.08393" lon="-3.55768">
        <ele>138.3</ele>
        <time>2025-02-25T15:14:57Z</time>
      </trkpt>
      <trkpt lat="48.08393" lon="-3.55769">
        <ele>138.4</ele>
        <time>2025-02-25T15:14:58Z</time>
      </trkpt>
      <trkpt lat="48.08394" lon="-3.5577">
        <ele>138.4</ele>
        <time>2025-02-25T15:14:59Z</time>
      </trkpt>
      <trkpt lat="48.08396" lon="-3.5577">
        <ele>138.4</ele>
        <time>2025-02-25T15:15:00Z</time>
      </trkpt>
      <trkpt lat="48.08397" lon="-3.5577">
        <ele>138.4</ele>
        <time>2025-02-25T15:15:01Z</time>
      </trkpt>
      <trkpt lat="48.08398" lon="-3.5577">
        <ele>138.4</ele>
        <time>2025-02-25T15:15:02Z</time>
      </trkpt>
      <trkpt lat="48.08399" lon="-3.55772">
        <ele>138.6</ele>
        <time>2025-02-25T15:15:03Z</time>
      </trkpt>
      <trkpt lat="48.084" lon="-3.55772">
        <ele>138.6</ele>
        <time>2025-02-25T15:15:04Z</time>
      </trkpt>
      <trkpt lat="48.08401" lon="-3.55773">
        <ele>138.7</ele>
        <time>2025-02-25T15:15:05Z</time>
      </trkpt>
      <trkpt lat="48.08402" lon="-3.55774">
        <ele>138.7</ele>
        <time>2025-02-25T15:15:06Z</time>
      </trkpt>
      <trkpt lat="48.08403" lon="-3.55775">
        <ele>138.8</ele>
        <time>2025-02-25T15:15:07Z</time>
      </trkpt>
      <trkpt lat="48.08404" lon="-3.55775">
        <ele>138.8</ele>
        <time>2025-02-25T15:15:08Z</time>
      </trkpt>
      <trkpt lat="48.08405" lon="-3.55775">
        <ele>138.8</ele>
        <time>2025-02-25T15:15:09Z</time>
      </trkpt>
      <trkpt lat="48.08406" lon="-3.55776">
        <ele>138.9</ele>
        <time>2025-02-25T15:15:10Z</time>
      </trkpt>
      <trkpt lat="48.08406" lon="-3.55776">
        <ele>138.9</ele>
        <time>2025-02-25T15:15:11Z</time>
      </trkpt>
      <trkpt lat="48.08407" lon="-3.55777">
        <ele>138.9</ele>
        <time>2025-02-25T15:15:12Z</time>
      </trkpt>
      <trkpt lat="48.08408" lon="-3.55777">
        <ele>138.9</ele>
        <time>2025-02-25T15:15:13Z</time>
      </trkpt>
      <trkpt lat="48.08409" lon="-3.55777">
        <ele>138.9</ele>
        <time>2025-02-25T15:15:14Z</time>
      </trkpt>
      <trkpt lat="48.0841" lon="-3.55777">
        <ele>138.9</ele>
        <time>2025-02-25T15:15:15Z</time>
      </trkpt>
      <trkpt lat="48.08411" lon="-3.55778">
        <ele>139</ele>
        <time>2025-02-25T15:15:16Z</time>
      </trkpt>
      <trkpt lat="48.08412" lon="-3.55778">
        <ele>139</ele>
        <time>2025-02-25T15:15:17Z</time>
      </trkpt>
      <trkpt lat="48.08412" lon="-3.55779">
        <ele>139</ele>
        <time>2025-02-25T15:15:18Z</time>
      </trkpt>
      <trkpt lat="48.08413" lon="-3.5578">
        <ele>139.1</ele>
        <time>2025-02-25T15:15:19Z</time>
      </trkpt>
      <trkpt lat="48.08414" lon="-3.55781">
        <ele>139.1</ele>
        <time>2025-02-25T15:15:20Z</time>
      </trkpt>
      <trkpt lat="48.08415" lon="-3.55782">
        <ele>139.2</ele>
        <time>2025-02-25T15:15:21Z</time>
      </trkpt>
      <trkpt lat="48.08416" lon="-3.55782">
        <ele>139.2</ele>
        <time>2025-02-25T15:15:22Z</time>
      </trkpt>
      <trkpt lat="48.08417" lon="-3.55781">
        <ele>139.1</ele>
        <time>2025-02-25T15:15:23Z</time>
      </trkpt>
      <trkpt lat="48.08417" lon="-3.55781">
        <ele>139.1</ele>
        <time>2025-02-25T15:15:24Z</time>
      </trkpt>
      <trkpt lat="48.08418" lon="-3.55781">
        <ele>139.1</ele>
        <time>2025-02-25T15:15:25Z</time>
      </trkpt>
      <trkpt lat="48.08419" lon="-3.55781">
        <ele>139.1</ele>
        <time>2025-02-25T15:15:26Z</time>
      </trkpt>
      <trkpt lat="48.0842" lon="-3.55781">
        <ele>139.1</ele>
        <time>2025-02-25T15:15:27Z</time>
      </trkpt>
      <trkpt lat="48.08421" lon="-3.55781">
        <ele>139.1</ele>
        <time>2025-02-25T15:15:28Z</time>
      </trkpt>
      <trkpt lat="48.08421" lon="-3.55781">
        <ele>139.1</ele>
        <time>2025-02-25T15:15:29Z</time>
      </trkpt>
      <trkpt lat="48.08422" lon="-3.55781">
        <ele>139.1</ele>
        <time>2025-02-25T15:15:30Z</time>
      </trkpt>
      <trkpt lat="48.08423" lon="-3.55782">
        <ele>139.2</ele>
        <time>2025-02-25T15:15:31Z</time>
      </trkpt>
      <trkpt lat="48.08424" lon="-3.55782">
        <ele>139.2</ele>
        <time>2025-02-25T15:15:32Z</time>
      </trkpt>
      <trkpt lat="48.08424" lon="-3.55783">
        <ele>139.2</ele>
        <time>2025-02-25T15:15:33Z</time>
      </trkpt>
      <trkpt lat="48.08425" lon="-3.55783">
        <ele>139.2</ele>
        <time>2025-02-25T15:15:34Z</time>
      </trkpt>
      <trkpt lat="48.08426" lon="-3.55784">
        <ele>139.3</ele>
        <time>2025-02-25T15:15:35Z</time>
      </trkpt>
      <trkpt lat="48.08427" lon="-3.55784">
        <ele>139.3</ele>
        <time>2025-02-25T15:15:36Z</time>
      </trkpt>
      <trkpt lat="48.08428" lon="-3.55785">
        <ele>139.4</ele>
        <time>2025-02-25T15:15:37Z</time>
      </trkpt>
      <trkpt lat="48.08429" lon="-3.55785">
        <ele>139.4</ele>
        <time>2025-02-25T15:15:38Z</time>
      </trkpt>
      <trkpt lat="48.0843" lon="-3.55785">
        <ele>139.4</ele>
        <time>2025-02-25T15:15:39Z</time>
      </trkpt>
      <trkpt lat="48.08431" lon="-3.55784">
        <ele>139.3</ele>
        <time>2025-02-25T15:15:40Z</time>
      </trkpt>
      <trkpt lat="48.08432" lon="-3.55784">
        <ele>139.3</ele>
        <time>2025-02-25T15:15:41Z</time>
      </trkpt>
      <trkpt lat="48.08433" lon="-3.55784">
        <ele>139.4</ele>
        <time>2025-02-25T15:15:42Z</time>
      </trkpt>
      <trkpt lat="48.08435" lon="-3.55784">
        <ele>139.4</ele>
        <time>2025-02-25T15:15:43Z</time>
      </trkpt>
      <trkpt lat="48.08435" lon="-3.55785">
        <ele>139.4</ele>
        <time>2025-02-25T15:15:44Z</time>
      </trkpt>
      <trkpt lat="48.08436" lon="-3.55786">
        <ele>139.5</ele>
        <time>2025-02-25T15:15:45Z</time>
      </trkpt>
      <trkpt lat="48.08437" lon="-3.55786">
        <ele>139.5</ele>
        <time>2025-02-25T15:15:46Z</time>
      </trkpt>
      <trkpt lat="48.08438" lon="-3.55786">
        <ele>139.5</ele>
        <time>2025-02-25T15:15:47Z</time>
      </trkpt>
      <trkpt lat="48.08439" lon="-3.55786">
        <ele>139.5</ele>
        <time>2025-02-25T15:15:48Z</time>
      </trkpt>
      <trkpt lat="48.0844" lon="-3.55787">
        <ele>139.6</ele>
        <time>2025-02-25T15:15:49Z</time>
      </trkpt>
      <trkpt lat="48.0844" lon="-3.55787">
        <ele>139.6</ele>
        <time>2025-02-25T15:15:50Z</time>
      </trkpt>
      <trkpt lat="48.08441" lon="-3.55788">
        <ele>139.7</ele>
        <time>2025-02-25T15:15:51Z</time>
      </trkpt>
      <trkpt lat="48.08442" lon="-3.55789">
        <ele>139.8</ele>
        <time>2025-02-25T15:15:52Z</time>
      </trkpt>
      <trkpt lat="48.08443" lon="-3.55789">
        <ele>139.8</ele>
        <time>2025-02-25T15:15:53Z</time>
      </trkpt>
      <trkpt lat="48.08444" lon="-3.5579">
        <ele>139.9</ele>
        <time>2025-02-25T15:15:54Z</time>
      </trkpt>
      <trkpt lat="48.08445" lon="-3.55789">
        <ele>139.8</ele>
        <time>2025-02-25T15:15:55Z</time>
      </trkpt>
      <trkpt lat="48.08446" lon="-3.55789">
        <ele>139.8</ele>
        <time>2025-02-25T15:15:56Z</time>
      </trkpt>
      <trkpt lat="48.08447" lon="-3.5579">
        <ele>139.8</ele>
        <time>2025-02-25T15:15:57Z</time>
      </trkpt>
      <trkpt lat="48.08448" lon="-3.55791">
        <ele>139.8</ele>
        <time>2025-02-25T15:15:58Z</time>
      </trkpt>
      <trkpt lat="48.08448" lon="-3.55792">
        <ele>139.9</ele>
        <time>2025-02-25T15:15:59Z</time>
      </trkpt>
      <trkpt lat="48.08449" lon="-3.55793">
        <ele>139.9</ele>
        <time>2025-02-25T15:16:00Z</time>
      </trkpt>
      <trkpt lat="48.08449" lon="-3.55793">
        <ele>139.9</ele>
        <time>2025-02-25T15:16:01Z</time>
      </trkpt>
      <trkpt lat="48.0845" lon="-3.55793">
        <ele>139.9</ele>
        <time>2025-02-25T15:16:02Z</time>
      </trkpt>
      <trkpt lat="48.08451" lon="-3.55794">
        <ele>139.9</ele>
        <time>2025-02-25T15:16:03Z</time>
      </trkpt>
      <trkpt lat="48.08452" lon="-3.55794">
        <ele>139.9</ele>
        <time>2025-02-25T15:16:04Z</time>
      </trkpt>
      <trkpt lat="48.08452" lon="-3.55794">
        <ele>139.9</ele>
        <time>2025-02-25T15:16:05Z</time>
      </trkpt>
      <trkpt lat="48.08453" lon="-3.55795">
        <ele>139.9</ele>
        <time>2025-02-25T15:16:06Z</time>
      </trkpt>
      <trkpt lat="48.08454" lon="-3.55795">
        <ele>139.9</ele>
        <time>2025-02-25T15:16:07Z</time>
      </trkpt>
      <trkpt lat="48.08455" lon="-3.55796">
        <ele>139.9</ele>
        <time>2025-02-25T15:16:08Z</time>
      </trkpt>
      <trkpt lat="48.08457" lon="-3.55796">
        <ele>139.9</ele>
        <time>2025-02-25T15:16:09Z</time>
      </trkpt>
      <trkpt lat="48.08458" lon="-3.55796">
        <ele>139.8</ele>
        <time>2025-02-25T15:16:10Z</time>
      </trkpt>
      <trkpt lat="48.08459" lon="-3.55795">
        <ele>139.7</ele>
        <time>2025-02-25T15:16:11Z</time>
      </trkpt>
      <trkpt lat="48.0846" lon="-3.55796">
        <ele>139.8</ele>
        <time>2025-02-25T15:16:12Z</time>
      </trkpt>
      <trkpt lat="48.08461" lon="-3.55796">
        <ele>139.7</ele>
        <time>2025-02-25T15:16:13Z</time>
      </trkpt>
      <trkpt lat="48.08462" lon="-3.55797">
        <ele>139.8</ele>
        <time>2025-02-25T15:16:14Z</time>
      </trkpt>
      <trkpt lat="48.08463" lon="-3.55798">
        <ele>139.8</ele>
        <time>2025-02-25T15:16:15Z</time>
      </trkpt>
      <trkpt lat="48.08464" lon="-3.55798">
        <ele>139.8</ele>
        <time>2025-02-25T15:16:16Z</time>
      </trkpt>
      <trkpt lat="48.08465" lon="-3.55799">
        <ele>139.8</ele>
        <time>2025-02-25T15:16:17Z</time>
      </trkpt>
      <trkpt lat="48.08466" lon="-3.55799">
        <ele>139.8</ele>
        <time>2025-02-25T15:16:18Z</time>
      </trkpt>
      <trkpt lat="48.08467" lon="-3.55799">
        <ele>139.7</ele>
        <time>2025-02-25T15:16:19Z</time>
      </trkpt>
      <trkpt lat="48.08468" lon="-3.55799">
        <ele>139.7</ele>
        <time>2025-02-25T15:16:20Z</time>
      </trkpt>
      <trkpt lat="48.08469" lon="-3.55799">
        <ele>139.6</ele>
        <time>2025-02-25T15:16:21Z</time>
      </trkpt>
      <trkpt lat="48.08469" lon="-3.558">
        <ele>139.7</ele>
        <time>2025-02-25T15:16:22Z</time>
      </trkpt>
      <trkpt lat="48.0847" lon="-3.558">
        <ele>139.7</ele>
        <time>2025-02-25T15:16:23Z</time>
      </trkpt>
      <trkpt lat="48.08471" lon="-3.558">
        <ele>139.6</ele>
        <time>2025-02-25T15:16:24Z</time>
      </trkpt>
      <trkpt lat="48.08472" lon="-3.558">
        <ele>139.6</ele>
        <time>2025-02-25T15:16:25Z</time>
      </trkpt>
      <trkpt lat="48.08473" lon="-3.55801">
        <ele>139.7</ele>
        <time>2025-02-25T15:16:26Z</time>
      </trkpt>
      <trkpt lat="48.08474" lon="-3.55801">
        <ele>139.7</ele>
        <time>2025-02-25T15:16:27Z</time>
      </trkpt>
      <trkpt lat="48.08475" lon="-3.55802">
        <ele>139.7</ele>
        <time>2025-02-25T15:16:28Z</time>
      </trkpt>
      <trkpt lat="48.08476" lon="-3.55801">
        <ele>139.7</ele>
        <time>2025-02-25T15:16:29Z</time>
      </trkpt>
      <trkpt lat="48.08477" lon="-3.55802">
        <ele>139.7</ele>
        <time>2025-02-25T15:16:30Z</time>
      </trkpt>
      <trkpt lat="48.08477" lon="-3.55802">
        <ele>139.7</ele>
        <time>2025-02-25T15:16:31Z</time>
      </trkpt>
      <trkpt lat="48.08478" lon="-3.55802">
        <ele>139.7</ele>
        <time>2025-02-25T15:16:32Z</time>
      </trkpt>
      <trkpt lat="48.08479" lon="-3.55803">
        <ele>139.8</ele>
        <time>2025-02-25T15:16:33Z</time>
      </trkpt>
      <trkpt lat="48.0848" lon="-3.55803">
        <ele>139.8</ele>
        <time>2025-02-25T15:16:34Z</time>
      </trkpt>
      <trkpt lat="48.08481" lon="-3.55804">
        <ele>139.9</ele>
        <time>2025-02-25T15:16:35Z</time>
      </trkpt>
      <trkpt lat="48.08481" lon="-3.55804">
        <ele>139.9</ele>
        <time>2025-02-25T15:16:36Z</time>
      </trkpt>
      <trkpt lat="48.08482" lon="-3.55805">
        <ele>140</ele>
        <time>2025-02-25T15:16:37Z</time>
      </trkpt>
      <trkpt lat="48.08483" lon="-3.55805">
        <ele>140</ele>
        <time>2025-02-25T15:16:38Z</time>
      </trkpt>
      <trkpt lat="48.08484" lon="-3.55805">
        <ele>140</ele>
        <time>2025-02-25T15:16:39Z</time>
      </trkpt>
      <trkpt lat="48.08485" lon="-3.55805">
        <ele>140</ele>
        <time>2025-02-25T15:16:40Z</time>
      </trkpt>
      <trkpt lat="48.08485" lon="-3.55806">
        <ele>140</ele>
        <time>2025-02-25T15:16:41Z</time>
      </trkpt>
      <trkpt lat="48.08486" lon="-3.55806">
        <ele>140</ele>
        <time>2025-02-25T15:16:42Z</time>
      </trkpt>
      <trkpt lat="48.08487" lon="-3.55806">
        <ele>140</ele>
        <time>2025-02-25T15:16:43Z</time>
      </trkpt>
      <trkpt lat="48.08488" lon="-3.55807">
        <ele>140.1</ele>
        <time>2025-02-25T15:16:44Z</time>
      </trkpt>
      <trkpt lat="48.08489" lon="-3.55807">
        <ele>140.1</ele>
        <time>2025-02-25T15:16:45Z</time>
      </trkpt>
      <trkpt lat="48.08489" lon="-3.55807">
        <ele>140.1</ele>
        <time>2025-02-25T15:16:46Z</time>
      </trkpt>
      <trkpt lat="48.0849" lon="-3.55807">
        <ele>140.1</ele>
        <time>2025-02-25T15:16:47Z</time>
      </trkpt>
      <trkpt lat="48.08491" lon="-3.55808">
        <ele>140.2</ele>
        <time>2025-02-25T15:16:48Z</time>
      </trkpt>
      <trkpt lat="48.08492" lon="-3.55808">
        <ele>140.2</ele>
        <time>2025-02-25T15:16:49Z</time>
      </trkpt>
      <trkpt lat="48.08493" lon="-3.55809">
        <ele>140.3</ele>
        <time>2025-02-25T15:16:50Z</time>
      </trkpt>
      <trkpt lat="48.08494" lon="-3.5581">
        <ele>140.4</ele>
        <time>2025-02-25T15:16:51Z</time>
      </trkpt>
      <trkpt lat="48.08495" lon="-3.5581">
        <ele>140.3</ele>
        <time>2025-02-25T15:16:52Z</time>
      </trkpt>
      <trkpt lat="48.08495" lon="-3.5581">
        <ele>140.3</ele>
        <time>2025-02-25T15:16:53Z</time>
      </trkpt>
      <trkpt lat="48.08496" lon="-3.5581">
        <ele>140.3</ele>
        <time>2025-02-25T15:16:54Z</time>
      </trkpt>
      <trkpt lat="48.08497" lon="-3.55812">
        <ele>140.5</ele>
        <time>2025-02-25T15:16:55Z</time>
      </trkpt>
      <trkpt lat="48.08498" lon="-3.55813">
        <ele>140.6</ele>
        <time>2025-02-25T15:16:56Z</time>
      </trkpt>
      <trkpt lat="48.08499" lon="-3.55813">
        <ele>140.5</ele>
        <time>2025-02-25T15:16:57Z</time>
      </trkpt>
      <trkpt lat="48.085" lon="-3.55813">
        <ele>140.5</ele>
        <time>2025-02-25T15:16:58Z</time>
      </trkpt>
      <trkpt lat="48.08501" lon="-3.55814">
        <ele>140.6</ele>
        <time>2025-02-25T15:16:59Z</time>
      </trkpt>
      <trkpt lat="48.08501" lon="-3.55815">
        <ele>140.6</ele>
        <time>2025-02-25T15:17:00Z</time>
      </trkpt>
      <trkpt lat="48.08502" lon="-3.55815">
        <ele>140.6</ele>
        <time>2025-02-25T15:17:01Z</time>
      </trkpt>
      <trkpt lat="48.08503" lon="-3.55814">
        <ele>140.5</ele>
        <time>2025-02-25T15:17:02Z</time>
      </trkpt>
      <trkpt lat="48.08505" lon="-3.55815">
        <ele>140.5</ele>
        <time>2025-02-25T15:17:03Z</time>
      </trkpt>
      <trkpt lat="48.08506" lon="-3.55815">
        <ele>140.5</ele>
        <time>2025-02-25T15:17:04Z</time>
      </trkpt>
      <trkpt lat="48.08507" lon="-3.55816">
        <ele>140.5</ele>
        <time>2025-02-25T15:17:05Z</time>
      </trkpt>
      <trkpt lat="48.08508" lon="-3.55816">
        <ele>140.5</ele>
        <time>2025-02-25T15:17:06Z</time>
      </trkpt>
      <trkpt lat="48.08509" lon="-3.55816">
        <ele>140.4</ele>
        <time>2025-02-25T15:17:07Z</time>
      </trkpt>
      <trkpt lat="48.08509" lon="-3.55817">
        <ele>140.5</ele>
        <time>2025-02-25T15:17:08Z</time>
      </trkpt>
      <trkpt lat="48.08511" lon="-3.55816">
        <ele>140.4</ele>
        <time>2025-02-25T15:17:09Z</time>
      </trkpt>
      <trkpt lat="48.08511" lon="-3.55816">
        <ele>140.4</ele>
        <time>2025-02-25T15:17:10Z</time>
      </trkpt>
      <trkpt lat="48.08512" lon="-3.55815">
        <ele>140.2</ele>
        <time>2025-02-25T15:17:11Z</time>
      </trkpt>
      <trkpt lat="48.08513" lon="-3.55816">
        <ele>140.3</ele>
        <time>2025-02-25T15:17:12Z</time>
      </trkpt>
      <trkpt lat="48.08514" lon="-3.55817">
        <ele>140.3</ele>
        <time>2025-02-25T15:17:13Z</time>
      </trkpt>
      <trkpt lat="48.08515" lon="-3.55817">
        <ele>140.3</ele>
        <time>2025-02-25T15:17:14Z</time>
      </trkpt>
      <trkpt lat="48.08516" lon="-3.55817">
        <ele>140.2</ele>
        <time>2025-02-25T15:17:15Z</time>
      </trkpt>
      <trkpt lat="48.08517" lon="-3.55818">
        <ele>140.3</ele>
        <time>2025-02-25T15:17:16Z</time>
      </trkpt>
      <trkpt lat="48.08518" lon="-3.55818">
        <ele>140.2</ele>
        <time>2025-02-25T15:17:17Z</time>
      </trkpt>
      <trkpt lat="48.08519" lon="-3.55819">
        <ele>140.3</ele>
        <time>2025-02-25T15:17:18Z</time>
      </trkpt>
      <trkpt lat="48.08519" lon="-3.5582">
        <ele>140.4</ele>
        <time>2025-02-25T15:17:19Z</time>
      </trkpt>
      <trkpt lat="48.0852" lon="-3.5582">
        <ele>140.3</ele>
        <time>2025-02-25T15:17:20Z</time>
      </trkpt>
      <trkpt lat="48.08521" lon="-3.55821">
        <ele>140.4</ele>
        <time>2025-02-25T15:17:21Z</time>
      </trkpt>
      <trkpt lat="48.08521" lon="-3.55821">
        <ele>140.4</ele>
        <time>2025-02-25T15:17:22Z</time>
      </trkpt>
      <trkpt lat="48.08522" lon="-3.55822">
        <ele>140.4</ele>
        <time>2025-02-25T15:17:23Z</time>
      </trkpt>
      <trkpt lat="48.08523" lon="-3.55823">
        <ele>140.4</ele>
        <time>2025-02-25T15:17:24Z</time>
      </trkpt>
      <trkpt lat="48.08523" lon="-3.55823">
        <ele>140.4</ele>
        <time>2025-02-25T15:17:25Z</time>
      </trkpt>
      <trkpt lat="48.08524" lon="-3.55823">
        <ele>140.4</ele>
        <time>2025-02-25T15:17:26Z</time>
      </trkpt>
      <trkpt lat="48.08525" lon="-3.55823">
        <ele>140.4</ele>
        <time>2025-02-25T15:17:27Z</time>
      </trkpt>
      <trkpt lat="48.08526" lon="-3.55823">
        <ele>140.3</ele>
        <time>2025-02-25T15:17:28Z</time>
      </trkpt>
      <trkpt lat="48.08527" lon="-3.55823">
        <ele>140.3</ele>
        <time>2025-02-25T15:17:29Z</time>
      </trkpt>
      <trkpt lat="48.08528" lon="-3.55823">
        <ele>140.3</ele>
        <time>2025-02-25T15:17:30Z</time>
      </trkpt>
      <trkpt lat="48.08529" lon="-3.55824">
        <ele>140.3</ele>
        <time>2025-02-25T15:17:31Z</time>
      </trkpt>
      <trkpt lat="48.0853" lon="-3.55824">
        <ele>140.3</ele>
        <time>2025-02-25T15:17:32Z</time>
      </trkpt>
      <trkpt lat="48.08531" lon="-3.55824">
        <ele>140.3</ele>
        <time>2025-02-25T15:17:33Z</time>
      </trkpt>
      <trkpt lat="48.08532" lon="-3.55824">
        <ele>140.3</ele>
        <time>2025-02-25T15:17:34Z</time>
      </trkpt>
      <trkpt lat="48.08533" lon="-3.55824">
        <ele>140.3</ele>
        <time>2025-02-25T15:17:35Z</time>
      </trkpt>
      <trkpt lat="48.08534" lon="-3.55823">
        <ele>140.3</ele>
        <time>2025-02-25T15:17:36Z</time>
      </trkpt>
      <trkpt lat="48.08534" lon="-3.55823">
        <ele>140.3</ele>
        <time>2025-02-25T15:17:37Z</time>
      </trkpt>
      <trkpt lat="48.08536" lon="-3.55824">
        <ele>140.3</ele>
        <time>2025-02-25T15:17:38Z</time>
      </trkpt>
      <trkpt lat="48.08536" lon="-3.55824">
        <ele>140.3</ele>
        <time>2025-02-25T15:17:39Z</time>
      </trkpt>
      <trkpt lat="48.08537" lon="-3.55825">
        <ele>140.4</ele>
        <time>2025-02-25T15:17:40Z</time>
      </trkpt>
      <trkpt lat="48.08538" lon="-3.55826">
        <ele>140.5</ele>
        <time>2025-02-25T15:17:41Z</time>
      </trkpt>
      <trkpt lat="48.08539" lon="-3.55826">
        <ele>140.5</ele>
        <time>2025-02-25T15:17:42Z</time>
      </trkpt>
      <trkpt lat="48.08539" lon="-3.55827">
        <ele>140.5</ele>
        <time>2025-02-25T15:17:43Z</time>
      </trkpt>
      <trkpt lat="48.0854" lon="-3.55828">
        <ele>140.6</ele>
        <time>2025-02-25T15:17:44Z</time>
      </trkpt>
      <trkpt lat="48.08541" lon="-3.55829">
        <ele>140.7</ele>
        <time>2025-02-25T15:17:45Z</time>
      </trkpt>
      <trkpt lat="48.08542" lon="-3.5583">
        <ele>140.8</ele>
        <time>2025-02-25T15:17:46Z</time>
      </trkpt>
      <trkpt lat="48.08543" lon="-3.5583">
        <ele>140.8</ele>
        <time>2025-02-25T15:17:47Z</time>
      </trkpt>
      <trkpt lat="48.08543" lon="-3.55832">
        <ele>140.9</ele>
        <time>2025-02-25T15:17:48Z</time>
      </trkpt>
      <trkpt lat="48.08544" lon="-3.55833">
        <ele>141</ele>
        <time>2025-02-25T15:17:49Z</time>
      </trkpt>
      <trkpt lat="48.08545" lon="-3.55833">
        <ele>141</ele>
        <time>2025-02-25T15:17:50Z</time>
      </trkpt>
      <trkpt lat="48.08545" lon="-3.55834">
        <ele>141.1</ele>
        <time>2025-02-25T15:17:51Z</time>
      </trkpt>
      <trkpt lat="48.08546" lon="-3.55835">
        <ele>141.1</ele>
        <time>2025-02-25T15:17:52Z</time>
      </trkpt>
      <trkpt lat="48.08547" lon="-3.55835">
        <ele>141.1</ele>
        <time>2025-02-25T15:17:53Z</time>
      </trkpt>
      <trkpt lat="48.08548" lon="-3.55836">
        <ele>141.2</ele>
        <time>2025-02-25T15:17:54Z</time>
      </trkpt>
      <trkpt lat="48.08549" lon="-3.55837">
        <ele>141.3</ele>
        <time>2025-02-25T15:17:55Z</time>
      </trkpt>
      <trkpt lat="48.0855" lon="-3.55839">
        <ele>141.4</ele>
        <time>2025-02-25T15:17:56Z</time>
      </trkpt>
      <trkpt lat="48.08551" lon="-3.5584">
        <ele>141.5</ele>
        <time>2025-02-25T15:17:57Z</time>
      </trkpt>
      <trkpt lat="48.08552" lon="-3.5584">
        <ele>141.5</ele>
        <time>2025-02-25T15:17:58Z</time>
      </trkpt>
      <trkpt lat="48.08553" lon="-3.55842">
        <ele>141.7</ele>
        <time>2025-02-25T15:17:59Z</time>
      </trkpt>
      <trkpt lat="48.08554" lon="-3.55842">
        <ele>141.6</ele>
        <time>2025-02-25T15:18:00Z</time>
      </trkpt>
      <trkpt lat="48.08555" lon="-3.55842">
        <ele>141.6</ele>
        <time>2025-02-25T15:18:01Z</time>
      </trkpt>
      <trkpt lat="48.08556" lon="-3.55843">
        <ele>141.7</ele>
        <time>2025-02-25T15:18:02Z</time>
      </trkpt>
      <trkpt lat="48.08557" lon="-3.55844">
        <ele>141.8</ele>
        <time>2025-02-25T15:18:03Z</time>
      </trkpt>
      <trkpt lat="48.08558" lon="-3.55844">
        <ele>141.8</ele>
        <time>2025-02-25T15:18:04Z</time>
      </trkpt>
      <trkpt lat="48.08559" lon="-3.55845">
        <ele>141.8</ele>
        <time>2025-02-25T15:18:05Z</time>
      </trkpt>
      <trkpt lat="48.08559" lon="-3.55846">
        <ele>141.9</ele>
        <time>2025-02-25T15:18:06Z</time>
      </trkpt>
      <trkpt lat="48.0856" lon="-3.55846">
        <ele>141.9</ele>
        <time>2025-02-25T15:18:07Z</time>
      </trkpt>
      <trkpt lat="48.08561" lon="-3.55847">
        <ele>142</ele>
        <time>2025-02-25T15:18:08Z</time>
      </trkpt>
      <trkpt lat="48.08561" lon="-3.55848">
        <ele>142.1</ele>
        <time>2025-02-25T15:18:09Z</time>
      </trkpt>
      <trkpt lat="48.08563" lon="-3.55848">
        <ele>142.1</ele>
        <time>2025-02-25T15:18:10Z</time>
      </trkpt>
      <trkpt lat="48.08563" lon="-3.55849">
        <ele>142.1</ele>
        <time>2025-02-25T15:18:11Z</time>
      </trkpt>
      <trkpt lat="48.08564" lon="-3.5585">
        <ele>142.2</ele>
        <time>2025-02-25T15:18:12Z</time>
      </trkpt>
      <trkpt lat="48.08565" lon="-3.55851">
        <ele>142.3</ele>
        <time>2025-02-25T15:18:13Z</time>
      </trkpt>
      <trkpt lat="48.08566" lon="-3.55852">
        <ele>142.3</ele>
        <time>2025-02-25T15:18:14Z</time>
      </trkpt>
      <trkpt lat="48.08567" lon="-3.55852">
        <ele>142.3</ele>
        <time>2025-02-25T15:18:15Z</time>
      </trkpt>
      <trkpt lat="48.08568" lon="-3.55854">
        <ele>142.5</ele>
        <time>2025-02-25T15:18:16Z</time>
      </trkpt>
      <trkpt lat="48.08568" lon="-3.55855">
        <ele>142.6</ele>
        <time>2025-02-25T15:18:17Z</time>
      </trkpt>
      <trkpt lat="48.08569" lon="-3.55855">
        <ele>142.6</ele>
        <time>2025-02-25T15:18:18Z</time>
      </trkpt>
      <trkpt lat="48.0857" lon="-3.55857">
        <ele>142.7</ele>
        <time>2025-02-25T15:18:19Z</time>
      </trkpt>
      <trkpt lat="48.08571" lon="-3.55857">
        <ele>142.7</ele>
        <time>2025-02-25T15:18:20Z</time>
      </trkpt>
      <trkpt lat="48.08572" lon="-3.55857">
        <ele>142.7</ele>
        <time>2025-02-25T15:18:21Z</time>
      </trkpt>
      <trkpt lat="48.08573" lon="-3.55858">
        <ele>142.8</ele>
        <time>2025-02-25T15:18:22Z</time>
      </trkpt>
      <trkpt lat="48.08574" lon="-3.55859">
        <ele>142.8</ele>
        <time>2025-02-25T15:18:23Z</time>
      </trkpt>
      <trkpt lat="48.08575" lon="-3.55859">
        <ele>142.8</ele>
        <time>2025-02-25T15:18:24Z</time>
      </trkpt>
      <trkpt lat="48.08576" lon="-3.5586">
        <ele>142.9</ele>
        <time>2025-02-25T15:18:25Z</time>
      </trkpt>
      <trkpt lat="48.08576" lon="-3.55862">
        <ele>143.1</ele>
        <time>2025-02-25T15:18:26Z</time>
      </trkpt>
      <trkpt lat="48.08577" lon="-3.55862">
        <ele>143.1</ele>
        <time>2025-02-25T15:18:27Z</time>
      </trkpt>
      <trkpt lat="48.08578" lon="-3.55864">
        <ele>143.2</ele>
        <time>2025-02-25T15:18:28Z</time>
      </trkpt>
      <trkpt lat="48.08579" lon="-3.55865">
        <ele>143.3</ele>
        <time>2025-02-25T15:18:29Z</time>
      </trkpt>
      <trkpt lat="48.08581" lon="-3.55865">
        <ele>143.3</ele>
        <time>2025-02-25T15:18:30Z</time>
      </trkpt>
      <trkpt lat="48.08582" lon="-3.55866">
        <ele>143.4</ele>
        <time>2025-02-25T15:18:31Z</time>
      </trkpt>
      <trkpt lat="48.08582" lon="-3.55866">
        <ele>143.4</ele>
        <time>2025-02-25T15:18:32Z</time>
      </trkpt>
      <trkpt lat="48.08583" lon="-3.55867">
        <ele>143.4</ele>
        <time>2025-02-25T15:18:33Z</time>
      </trkpt>
      <trkpt lat="48.08584" lon="-3.55868">
        <ele>143.5</ele>
        <time>2025-02-25T15:18:34Z</time>
      </trkpt>
      <trkpt lat="48.08585" lon="-3.55869">
        <ele>143.5</ele>
        <time>2025-02-25T15:18:35Z</time>
      </trkpt>
      <trkpt lat="48.08586" lon="-3.5587">
        <ele>143.5</ele>
        <time>2025-02-25T15:18:36Z</time>
      </trkpt>
      <trkpt lat="48.08587" lon="-3.5587">
        <ele>143.5</ele>
        <time>2025-02-25T15:18:37Z</time>
      </trkpt>
      <trkpt lat="48.08588" lon="-3.55871">
        <ele>143.5</ele>
        <time>2025-02-25T15:18:38Z</time>
      </trkpt>
      <trkpt lat="48.08589" lon="-3.55872">
        <ele>143.6</ele>
        <time>2025-02-25T15:18:39Z</time>
      </trkpt>
      <trkpt lat="48.0859" lon="-3.55874">
        <ele>143.7</ele>
        <time>2025-02-25T15:18:40Z</time>
      </trkpt>
      <trkpt lat="48.08591" lon="-3.55875">
        <ele>143.7</ele>
        <time>2025-02-25T15:18:41Z</time>
      </trkpt>
      <trkpt lat="48.08592" lon="-3.55876">
        <ele>143.8</ele>
        <time>2025-02-25T15:18:42Z</time>
      </trkpt>
      <trkpt lat="48.08593" lon="-3.55877">
        <ele>143.8</ele>
        <time>2025-02-25T15:18:43Z</time>
      </trkpt>
      <trkpt lat="48.08593" lon="-3.55879">
        <ele>143.9</ele>
        <time>2025-02-25T15:18:44Z</time>
      </trkpt>
      <trkpt lat="48.08595" lon="-3.55879">
        <ele>143.9</ele>
        <time>2025-02-25T15:18:45Z</time>
      </trkpt>
      <trkpt lat="48.08596" lon="-3.5588">
        <ele>143.9</ele>
        <time>2025-02-25T15:18:46Z</time>
      </trkpt>
      <trkpt lat="48.08596" lon="-3.55881">
        <ele>144</ele>
        <time>2025-02-25T15:18:47Z</time>
      </trkpt>
      <trkpt lat="48.08598" lon="-3.55881">
        <ele>143.9</ele>
        <time>2025-02-25T15:18:48Z</time>
      </trkpt>
      <trkpt lat="48.08599" lon="-3.55882">
        <ele>143.9</ele>
        <time>2025-02-25T15:18:49Z</time>
      </trkpt>
      <trkpt lat="48.086" lon="-3.55882">
        <ele>143.9</ele>
        <time>2025-02-25T15:18:50Z</time>
      </trkpt>
      <trkpt lat="48.08601" lon="-3.55883">
        <ele>143.9</ele>
        <time>2025-02-25T15:18:51Z</time>
      </trkpt>
      <trkpt lat="48.08602" lon="-3.55884">
        <ele>144</ele>
        <time>2025-02-25T15:18:52Z</time>
      </trkpt>
      <trkpt lat="48.08603" lon="-3.55885">
        <ele>144</ele>
        <time>2025-02-25T15:18:53Z</time>
      </trkpt>
      <trkpt lat="48.08605" lon="-3.55886">
        <ele>144</ele>
        <time>2025-02-25T15:18:54Z</time>
      </trkpt>
      <trkpt lat="48.08606" lon="-3.55886">
        <ele>144</ele>
        <time>2025-02-25T15:18:55Z</time>
      </trkpt>
      <trkpt lat="48.08607" lon="-3.55887">
        <ele>144</ele>
        <time>2025-02-25T15:18:56Z</time>
      </trkpt>
      <trkpt lat="48.08607" lon="-3.55889">
        <ele>144.2</ele>
        <time>2025-02-25T15:18:57Z</time>
      </trkpt>
      <trkpt lat="48.08609" lon="-3.55889">
        <ele>144.1</ele>
        <time>2025-02-25T15:18:58Z</time>
      </trkpt>
      <trkpt lat="48.0861" lon="-3.5589">
        <ele>144.1</ele>
        <time>2025-02-25T15:18:59Z</time>
      </trkpt>
      <trkpt lat="48.0861" lon="-3.55891">
        <ele>144.2</ele>
        <time>2025-02-25T15:19:00Z</time>
      </trkpt>
      <trkpt lat="48.08611" lon="-3.55892">
        <ele>144.2</ele>
        <time>2025-02-25T15:19:01Z</time>
      </trkpt>
      <trkpt lat="48.08612" lon="-3.55893">
        <ele>144.3</ele>
        <time>2025-02-25T15:19:02Z</time>
      </trkpt>
      <trkpt lat="48.08613" lon="-3.55894">
        <ele>144.3</ele>
        <time>2025-02-25T15:19:03Z</time>
      </trkpt>
      <trkpt lat="48.08613" lon="-3.55895">
        <ele>144.4</ele>
        <time>2025-02-25T15:19:04Z</time>
      </trkpt>
      <trkpt lat="48.08614" lon="-3.55896">
        <ele>144.4</ele>
        <time>2025-02-25T15:19:05Z</time>
      </trkpt>
      <trkpt lat="48.08615" lon="-3.55897">
        <ele>144.5</ele>
        <time>2025-02-25T15:19:06Z</time>
      </trkpt>
      <trkpt lat="48.08616" lon="-3.55897">
        <ele>144.5</ele>
        <time>2025-02-25T15:19:07Z</time>
      </trkpt>
      <trkpt lat="48.08617" lon="-3.55899">
        <ele>144.6</ele>
        <time>2025-02-25T15:19:08Z</time>
      </trkpt>
      <trkpt lat="48.08618" lon="-3.559">
        <ele>144.7</ele>
        <time>2025-02-25T15:19:09Z</time>
      </trkpt>
      <trkpt lat="48.08619" lon="-3.559">
        <ele>144.6</ele>
        <time>2025-02-25T15:19:10Z</time>
      </trkpt>
      <trkpt lat="48.0862" lon="-3.55902">
        <ele>144.8</ele>
        <time>2025-02-25T15:19:11Z</time>
      </trkpt>
      <trkpt lat="48.08621" lon="-3.55902">
        <ele>144.8</ele>
        <time>2025-02-25T15:19:12Z</time>
      </trkpt>
      <trkpt lat="48.08622" lon="-3.55902">
        <ele>144.7</ele>
        <time>2025-02-25T15:19:13Z</time>
      </trkpt>
      <trkpt lat="48.08623" lon="-3.55902">
        <ele>144.7</ele>
        <time>2025-02-25T15:19:14Z</time>
      </trkpt>
      <trkpt lat="48.08624" lon="-3.55903">
        <ele>144.8</ele>
        <time>2025-02-25T15:19:15Z</time>
      </trkpt>
      <trkpt lat="48.08625" lon="-3.55905">
        <ele>145</ele>
        <time>2025-02-25T15:19:16Z</time>
      </trkpt>
      <trkpt lat="48.08625" lon="-3.55906">
        <ele>145</ele>
        <time>2025-02-25T15:19:17Z</time>
      </trkpt>
      <trkpt lat="48.08626" lon="-3.55907">
        <ele>145.1</ele>
        <time>2025-02-25T15:19:18Z</time>
      </trkpt>
      <trkpt lat="48.08627" lon="-3.55907">
        <ele>145.1</ele>
        <time>2025-02-25T15:19:19Z</time>
      </trkpt>
      <trkpt lat="48.08628" lon="-3.55908">
        <ele>145.2</ele>
        <time>2025-02-25T15:19:20Z</time>
      </trkpt>
      <trkpt lat="48.08629" lon="-3.5591">
        <ele>145.4</ele>
        <time>2025-02-25T15:19:21Z</time>
      </trkpt>
      <trkpt lat="48.0863" lon="-3.5591">
        <ele>145.4</ele>
        <time>2025-02-25T15:19:22Z</time>
      </trkpt>
      <trkpt lat="48.08631" lon="-3.55911">
        <ele>145.4</ele>
        <time>2025-02-25T15:19:23Z</time>
      </trkpt>
      <trkpt lat="48.08631" lon="-3.55912">
        <ele>145.5</ele>
        <time>2025-02-25T15:19:24Z</time>
      </trkpt>
      <trkpt lat="48.08632" lon="-3.55914">
        <ele>145.7</ele>
        <time>2025-02-25T15:19:25Z</time>
      </trkpt>
      <trkpt lat="48.08633" lon="-3.55915">
        <ele>145.8</ele>
        <time>2025-02-25T15:19:26Z</time>
      </trkpt>
      <trkpt lat="48.08633" lon="-3.55916">
        <ele>145.9</ele>
        <time>2025-02-25T15:19:27Z</time>
      </trkpt>
      <trkpt lat="48.08634" lon="-3.55917">
        <ele>146</ele>
        <time>2025-02-25T15:19:28Z</time>
      </trkpt>
      <trkpt lat="48.08635" lon="-3.55918">
        <ele>146.1</ele>
        <time>2025-02-25T15:19:29Z</time>
      </trkpt>
      <trkpt lat="48.08635" lon="-3.55919">
        <ele>146.2</ele>
        <time>2025-02-25T15:19:30Z</time>
      </trkpt>
      <trkpt lat="48.08636" lon="-3.5592">
        <ele>146.3</ele>
        <time>2025-02-25T15:19:31Z</time>
      </trkpt>
      <trkpt lat="48.08636" lon="-3.55922">
        <ele>146.4</ele>
        <time>2025-02-25T15:19:32Z</time>
      </trkpt>
      <trkpt lat="48.08637" lon="-3.55922">
        <ele>146.4</ele>
        <time>2025-02-25T15:19:33Z</time>
      </trkpt>
      <trkpt lat="48.08638" lon="-3.55922">
        <ele>146.4</ele>
        <time>2025-02-25T15:19:34Z</time>
      </trkpt>
      <trkpt lat="48.08639" lon="-3.55923">
        <ele>146.4</ele>
        <time>2025-02-25T15:19:35Z</time>
      </trkpt>
      <trkpt lat="48.0864" lon="-3.55924">
        <ele>146.5</ele>
        <time>2025-02-25T15:19:36Z</time>
      </trkpt>
      <trkpt lat="48.08641" lon="-3.55925">
        <ele>146.5</ele>
        <time>2025-02-25T15:19:37Z</time>
      </trkpt>
      <trkpt lat="48.08642" lon="-3.55926">
        <ele>146.5</ele>
        <time>2025-02-25T15:19:38Z</time>
      </trkpt>
      <trkpt lat="48.08643" lon="-3.55927">
        <ele>146.5</ele>
        <time>2025-02-25T15:19:39Z</time>
      </trkpt>
      <trkpt lat="48.08644" lon="-3.55927">
        <ele>146.4</ele>
        <time>2025-02-25T15:19:40Z</time>
      </trkpt>
      <trkpt lat="48.08645" lon="-3.55929">
        <ele>146.5</ele>
        <time>2025-02-25T15:19:41Z</time>
      </trkpt>
      <trkpt lat="48.08646" lon="-3.5593">
        <ele>146.6</ele>
        <time>2025-02-25T15:19:42Z</time>
      </trkpt>
      <trkpt lat="48.08647" lon="-3.55932">
        <ele>146.7</ele>
        <time>2025-02-25T15:19:43Z</time>
      </trkpt>
      <trkpt lat="48.08647" lon="-3.55933">
        <ele>146.8</ele>
        <time>2025-02-25T15:19:44Z</time>
      </trkpt>
      <trkpt lat="48.08648" lon="-3.55934">
        <ele>146.8</ele>
        <time>2025-02-25T15:19:45Z</time>
      </trkpt>
      <trkpt lat="48.08649" lon="-3.55935">
        <ele>146.8</ele>
        <time>2025-02-25T15:19:46Z</time>
      </trkpt>
      <trkpt lat="48.0865" lon="-3.55936">
        <ele>146.9</ele>
        <time>2025-02-25T15:19:47Z</time>
      </trkpt>
      <trkpt lat="48.08651" lon="-3.55937">
        <ele>146.9</ele>
        <time>2025-02-25T15:19:48Z</time>
      </trkpt>
      <trkpt lat="48.08652" lon="-3.55937">
        <ele>146.9</ele>
        <time>2025-02-25T15:19:49Z</time>
      </trkpt>
      <trkpt lat="48.08652" lon="-3.55939">
        <ele>147</ele>
        <time>2025-02-25T15:19:50Z</time>
      </trkpt>
      <trkpt lat="48.08653" lon="-3.5594">
        <ele>147.1</ele>
        <time>2025-02-25T15:19:51Z</time>
      </trkpt>
      <trkpt lat="48.08654" lon="-3.55941">
        <ele>147.1</ele>
        <time>2025-02-25T15:19:52Z</time>
      </trkpt>
      <trkpt lat="48.08655" lon="-3.55941">
        <ele>147.1</ele>
        <time>2025-02-25T15:19:53Z</time>
      </trkpt>
      <trkpt lat="48.08656" lon="-3.55942">
        <ele>147.2</ele>
        <time>2025-02-25T15:19:54Z</time>
      </trkpt>
      <trkpt lat="48.08657" lon="-3.55943">
        <ele>147.2</ele>
        <time>2025-02-25T15:19:55Z</time>
      </trkpt>
      <trkpt lat="48.08658" lon="-3.55944">
        <ele>147.3</ele>
        <time>2025-02-25T15:19:56Z</time>
      </trkpt>
      <trkpt lat="48.08659" lon="-3.55945">
        <ele>147.3</ele>
        <time>2025-02-25T15:19:57Z</time>
      </trkpt>
      <trkpt lat="48.0866" lon="-3.55946">
        <ele>147.4</ele>
        <time>2025-02-25T15:19:58Z</time>
      </trkpt>
      <trkpt lat="48.08661" lon="-3.55947">
        <ele>147.5</ele>
        <time>2025-02-25T15:19:59Z</time>
      </trkpt>
      <trkpt lat="48.08662" lon="-3.55948">
        <ele>147.6</ele>
        <time>2025-02-25T15:20:00Z</time>
      </trkpt>
      <trkpt lat="48.08662" lon="-3.55948">
        <ele>147.6</ele>
        <time>2025-02-25T15:20:01Z</time>
      </trkpt>
      <trkpt lat="48.08663" lon="-3.55949">
        <ele>147.6</ele>
        <time>2025-02-25T15:20:02Z</time>
      </trkpt>
      <trkpt lat="48.08664" lon="-3.5595">
        <ele>147.7</ele>
        <time>2025-02-25T15:20:03Z</time>
      </trkpt>
      <trkpt lat="48.08665" lon="-3.5595">
        <ele>147.7</ele>
        <time>2025-02-25T15:20:04Z</time>
      </trkpt>
      <trkpt lat="48.08666" lon="-3.55952">
        <ele>147.8</ele>
        <time>2025-02-25T15:20:05Z</time>
      </trkpt>
      <trkpt lat="48.08666" lon="-3.55953">
        <ele>147.9</ele>
        <time>2025-02-25T15:20:06Z</time>
      </trkpt>
      <trkpt lat="48.08667" lon="-3.55954">
        <ele>148</ele>
        <time>2025-02-25T15:20:07Z</time>
      </trkpt>
      <trkpt lat="48.08668" lon="-3.55955">
        <ele>148.1</ele>
        <time>2025-02-25T15:20:08Z</time>
      </trkpt>
      <trkpt lat="48.08669" lon="-3.55956">
        <ele>148.1</ele>
        <time>2025-02-25T15:20:09Z</time>
      </trkpt>
      <trkpt lat="48.08669" lon="-3.55957">
        <ele>148.2</ele>
        <time>2025-02-25T15:20:10Z</time>
      </trkpt>
      <trkpt lat="48.0867" lon="-3.55958">
        <ele>148.3</ele>
        <time>2025-02-25T15:20:11Z</time>
      </trkpt>
      <trkpt lat="48.08671" lon="-3.55959">
        <ele>148.3</ele>
        <time>2025-02-25T15:20:12Z</time>
      </trkpt>
      <trkpt lat="48.08672" lon="-3.55959">
        <ele>148.3</ele>
        <time>2025-02-25T15:20:13Z</time>
      </trkpt>
      <trkpt lat="48.08673" lon="-3.5596">
        <ele>148.4</ele>
        <time>2025-02-25T15:20:14Z</time>
      </trkpt>
      <trkpt lat="48.08674" lon="-3.55961">
        <ele>148.4</ele>
        <time>2025-02-25T15:20:15Z</time>
      </trkpt>
      <trkpt lat="48.08675" lon="-3.55962">
        <ele>148.5</ele>
        <time>2025-02-25T15:20:16Z</time>
      </trkpt>
      <trkpt lat="48.08676" lon="-3.55963">
        <ele>148.6</ele>
        <time>2025-02-25T15:20:17Z</time>
      </trkpt>
      <trkpt lat="48.08677" lon="-3.55964">
        <ele>148.6</ele>
        <time>2025-02-25T15:20:18Z</time>
      </trkpt>
      <trkpt lat="48.08678" lon="-3.55965">
        <ele>148.7</ele>
        <time>2025-02-25T15:20:19Z</time>
      </trkpt>
      <trkpt lat="48.08679" lon="-3.55966">
        <ele>148.8</ele>
        <time>2025-02-25T15:20:20Z</time>
      </trkpt>
      <trkpt lat="48.0868" lon="-3.55967">
        <ele>148.9</ele>
        <time>2025-02-25T15:20:21Z</time>
      </trkpt>
      <trkpt lat="48.08681" lon="-3.55968">
        <ele>148.9</ele>
        <time>2025-02-25T15:20:22Z</time>
      </trkpt>
      <trkpt lat="48.08681" lon="-3.5597">
        <ele>149.2</ele>
        <time>2025-02-25T15:20:23Z</time>
      </trkpt>
      <trkpt lat="48.08682" lon="-3.55971">
        <ele>149.3</ele>
        <time>2025-02-25T15:20:24Z</time>
      </trkpt>
      <trkpt lat="48.08682" lon="-3.55972">
        <ele>149.4</ele>
        <time>2025-02-25T15:20:25Z</time>
      </trkpt>
      <trkpt lat="48.08683" lon="-3.55973">
        <ele>149.5</ele>
        <time>2025-02-25T15:20:26Z</time>
      </trkpt>
      <trkpt lat="48.08684" lon="-3.55975">
        <ele>149.7</ele>
        <time>2025-02-25T15:20:27Z</time>
      </trkpt>
      <trkpt lat="48.08684" lon="-3.55976">
        <ele>149.8</ele>
        <time>2025-02-25T15:20:28Z</time>
      </trkpt>
      <trkpt lat="48.08685" lon="-3.55976">
        <ele>149.7</ele>
        <time>2025-02-25T15:20:29Z</time>
      </trkpt>
      <trkpt lat="48.08686" lon="-3.55978">
        <ele>149.9</ele>
        <time>2025-02-25T15:20:30Z</time>
      </trkpt>
      <trkpt lat="48.08686" lon="-3.5598">
        <ele>150.1</ele>
        <time>2025-02-25T15:20:31Z</time>
      </trkpt>
      <trkpt lat="48.08687" lon="-3.55981">
        <ele>150.2</ele>
        <time>2025-02-25T15:20:32Z</time>
      </trkpt>
      <trkpt lat="48.08688" lon="-3.55982">
        <ele>150.3</ele>
        <time>2025-02-25T15:20:33Z</time>
      </trkpt>
      <trkpt lat="48.08688" lon="-3.55983">
        <ele>150.4</ele>
        <time>2025-02-25T15:20:34Z</time>
      </trkpt>
      <trkpt lat="48.08688" lon="-3.55985">
        <ele>150.6</ele>
        <time>2025-02-25T15:20:35Z</time>
      </trkpt>
      <trkpt lat="48.08688" lon="-3.55986">
        <ele>150.7</ele>
        <time>2025-02-25T15:20:36Z</time>
      </trkpt>
      <trkpt lat="48.0869" lon="-3.55988">
        <ele>150.9</ele>
        <time>2025-02-25T15:20:37Z</time>
      </trkpt>
      <trkpt lat="48.0869" lon="-3.5599">
        <ele>151.1</ele>
        <time>2025-02-25T15:20:38Z</time>
      </trkpt>
      <trkpt lat="48.08691" lon="-3.55991">
        <ele>151.2</ele>
        <time>2025-02-25T15:20:39Z</time>
      </trkpt>
      <trkpt lat="48.08692" lon="-3.55992">
        <ele>151.2</ele>
        <time>2025-02-25T15:20:40Z</time>
      </trkpt>
      <trkpt lat="48.08692" lon="-3.55994">
        <ele>151.4</ele>
        <time>2025-02-25T15:20:41Z</time>
      </trkpt>
      <trkpt lat="48.08693" lon="-3.55995">
        <ele>151.5</ele>
        <time>2025-02-25T15:20:42Z</time>
      </trkpt>
      <trkpt lat="48.08694" lon="-3.55996">
        <ele>151.6</ele>
        <time>2025-02-25T15:20:43Z</time>
      </trkpt>
      <trkpt lat="48.08695" lon="-3.55997">
        <ele>151.7</ele>
        <time>2025-02-25T15:20:44Z</time>
      </trkpt>
      <trkpt lat="48.08695" lon="-3.55998">
        <ele>151.8</ele>
        <time>2025-02-25T15:20:45Z</time>
      </trkpt>
      <trkpt lat="48.08696" lon="-3.55999">
        <ele>151.8</ele>
        <time>2025-02-25T15:20:46Z</time>
      </trkpt>
      <trkpt lat="48.08697" lon="-3.56">
        <ele>151.9</ele>
        <time>2025-02-25T15:20:47Z</time>
      </trkpt>
      <trkpt lat="48.08697" lon="-3.56002">
        <ele>152.1</ele>
        <time>2025-02-25T15:20:48Z</time>
      </trkpt>
      <trkpt lat="48.08697" lon="-3.56003">
        <ele>152.1</ele>
        <time>2025-02-25T15:20:49Z</time>
      </trkpt>
      <trkpt lat="48.08698" lon="-3.56005">
        <ele>152.3</ele>
        <time>2025-02-25T15:20:50Z</time>
      </trkpt>
      <trkpt lat="48.08698" lon="-3.56006">
        <ele>152.3</ele>
        <time>2025-02-25T15:20:51Z</time>
      </trkpt>
      <trkpt lat="48.08698" lon="-3.56008">
        <ele>152.5</ele>
        <time>2025-02-25T15:20:52Z</time>
      </trkpt>
      <trkpt lat="48.08699" lon="-3.56009">
        <ele>152.5</ele>
        <time>2025-02-25T15:20:53Z</time>
      </trkpt>
      <trkpt lat="48.087" lon="-3.5601">
        <ele>152.6</ele>
        <time>2025-02-25T15:20:54Z</time>
      </trkpt>
      <trkpt lat="48.08701" lon="-3.56011">
        <ele>152.6</ele>
        <time>2025-02-25T15:20:55Z</time>
      </trkpt>
      <trkpt lat="48.08701" lon="-3.56013">
        <ele>152.8</ele>
        <time>2025-02-25T15:20:56Z</time>
      </trkpt>
      <trkpt lat="48.08702" lon="-3.56015">
        <ele>153</ele>
        <time>2025-02-25T15:20:57Z</time>
      </trkpt>
      <trkpt lat="48.08702" lon="-3.56016">
        <ele>153</ele>
        <time>2025-02-25T15:20:58Z</time>
      </trkpt>
      <trkpt lat="48.08703" lon="-3.56017">
        <ele>153.1</ele>
        <time>2025-02-25T15:20:59Z</time>
      </trkpt>
      <trkpt lat="48.08703" lon="-3.56019">
        <ele>153.3</ele>
        <time>2025-02-25T15:21:00Z</time>
      </trkpt>
      <trkpt lat="48.08704" lon="-3.5602">
        <ele>153.3</ele>
        <time>2025-02-25T15:21:01Z</time>
      </trkpt>
      <trkpt lat="48.08704" lon="-3.56022">
        <ele>153.5</ele>
        <time>2025-02-25T15:21:02Z</time>
      </trkpt>
      <trkpt lat="48.08705" lon="-3.56024">
        <ele>153.7</ele>
        <time>2025-02-25T15:21:03Z</time>
      </trkpt>
      <trkpt lat="48.08706" lon="-3.56025">
        <ele>153.8</ele>
        <time>2025-02-25T15:21:04Z</time>
      </trkpt>
      <trkpt lat="48.08706" lon="-3.56027">
        <ele>153.9</ele>
        <time>2025-02-25T15:21:05Z</time>
      </trkpt>
      <trkpt lat="48.08707" lon="-3.56028">
        <ele>154</ele>
        <time>2025-02-25T15:21:06Z</time>
      </trkpt>
      <trkpt lat="48.08706" lon="-3.5603">
        <ele>154.1</ele>
        <time>2025-02-25T15:21:07Z</time>
      </trkpt>
      <trkpt lat="48.08707" lon="-3.56032">
        <ele>154.2</ele>
        <time>2025-02-25T15:21:08Z</time>
      </trkpt>
      <trkpt lat="48.08707" lon="-3.56034">
        <ele>154.2</ele>
        <time>2025-02-25T15:21:09Z</time>
      </trkpt>
      <trkpt lat="48.08707" lon="-3.56035">
        <ele>154.3</ele>
        <time>2025-02-25T15:21:10Z</time>
      </trkpt>
      <trkpt lat="48.08708" lon="-3.56037">
        <ele>154.3</ele>
        <time>2025-02-25T15:21:11Z</time>
      </trkpt>
      <trkpt lat="48.08709" lon="-3.56039">
        <ele>154.4</ele>
        <time>2025-02-25T15:21:12Z</time>
      </trkpt>
      <trkpt lat="48.08709" lon="-3.56041">
        <ele>154.5</ele>
        <time>2025-02-25T15:21:13Z</time>
      </trkpt>
      <trkpt lat="48.08709" lon="-3.56043">
        <ele>154.5</ele>
        <time>2025-02-25T15:21:14Z</time>
      </trkpt>
      <trkpt lat="48.0871" lon="-3.56044">
        <ele>154.6</ele>
        <time>2025-02-25T15:21:15Z</time>
      </trkpt>
      <trkpt lat="48.0871" lon="-3.56046">
        <ele>154.7</ele>
        <time>2025-02-25T15:21:16Z</time>
      </trkpt>
      <trkpt lat="48.08709" lon="-3.56048">
        <ele>154.7</ele>
        <time>2025-02-25T15:21:17Z</time>
      </trkpt>
      <trkpt lat="48.08709" lon="-3.5605">
        <ele>154.8</ele>
        <time>2025-02-25T15:21:18Z</time>
      </trkpt>
      <trkpt lat="48.0871" lon="-3.56051">
        <ele>154.8</ele>
        <time>2025-02-25T15:21:19Z</time>
      </trkpt>
      <trkpt lat="48.0871" lon="-3.56052">
        <ele>154.9</ele>
        <time>2025-02-25T15:21:20Z</time>
      </trkpt>
      <trkpt lat="48.0871" lon="-3.56054">
        <ele>154.9</ele>
        <time>2025-02-25T15:21:21Z</time>
      </trkpt>
      <trkpt lat="48.0871" lon="-3.56056">
        <ele>155</ele>
        <time>2025-02-25T15:21:22Z</time>
      </trkpt>
      <trkpt lat="48.0871" lon="-3.56057">
        <ele>155</ele>
        <time>2025-02-25T15:21:23Z</time>
      </trkpt>
      <trkpt lat="48.08711" lon="-3.56059">
        <ele>155</ele>
        <time>2025-02-25T15:21:24Z</time>
      </trkpt>
      <trkpt lat="48.08712" lon="-3.56061">
        <ele>155</ele>
        <time>2025-02-25T15:21:25Z</time>
      </trkpt>
      <trkpt lat="48.08713" lon="-3.56063">
        <ele>155</ele>
        <time>2025-02-25T15:21:26Z</time>
      </trkpt>
      <trkpt lat="48.08714" lon="-3.56065">
        <ele>155</ele>
        <time>2025-02-25T15:21:27Z</time>
      </trkpt>
      <trkpt lat="48.08714" lon="-3.56066">
        <ele>155</ele>
        <time>2025-02-25T15:21:28Z</time>
      </trkpt>
      <trkpt lat="48.08714" lon="-3.56067">
        <ele>155</ele>
        <time>2025-02-25T15:21:29Z</time>
      </trkpt>
      <trkpt lat="48.08715" lon="-3.56067">
        <ele>155</ele>
        <time>2025-02-25T15:21:30Z</time>
      </trkpt>
      <trkpt lat="48.08715" lon="-3.56067">
        <ele>155</ele>
        <time>2025-02-25T15:21:31Z</time>
      </trkpt>
      <trkpt lat="48.08715" lon="-3.56067">
        <ele>155</ele>
        <time>2025-02-25T15:21:32Z</time>
      </trkpt>
      <trkpt lat="48.08715" lon="-3.56068">
        <ele>155</ele>
        <time>2025-02-25T15:21:33Z</time>
      </trkpt>
      <trkpt lat="48.08716" lon="-3.56069">
        <ele>155</ele>
        <time>2025-02-25T15:21:34Z</time>
      </trkpt>
      <trkpt lat="48.08717" lon="-3.56071">
        <ele>155</ele>
        <time>2025-02-25T15:21:35Z</time>
      </trkpt>
      <trkpt lat="48.08718" lon="-3.56073">
        <ele>155</ele>
        <time>2025-02-25T15:21:36Z</time>
      </trkpt>
      <trkpt lat="48.08719" lon="-3.56075">
        <ele>155</ele>
        <time>2025-02-25T15:21:37Z</time>
      </trkpt>
      <trkpt lat="48.0872" lon="-3.56077">
        <ele>155</ele>
        <time>2025-02-25T15:21:38Z</time>
      </trkpt>
      <trkpt lat="48.0872" lon="-3.56079">
        <ele>155</ele>
        <time>2025-02-25T15:21:39Z</time>
      </trkpt>
      <trkpt lat="48.08721" lon="-3.56081">
        <ele>155</ele>
        <time>2025-02-25T15:21:40Z</time>
      </trkpt>
      <trkpt lat="48.08722" lon="-3.56082">
        <ele>155</ele>
        <time>2025-02-25T15:21:41Z</time>
      </trkpt>
      <trkpt lat="48.08723" lon="-3.56083">
        <ele>155</ele>
        <time>2025-02-25T15:21:42Z</time>
      </trkpt>
      <trkpt lat="48.08724" lon="-3.56083">
        <ele>155.1</ele>
        <time>2025-02-25T15:21:43Z</time>
      </trkpt>
      <trkpt lat="48.08724" lon="-3.56085">
        <ele>155</ele>
        <time>2025-02-25T15:21:44Z</time>
      </trkpt>
      <trkpt lat="48.08725" lon="-3.56086">
        <ele>155</ele>
        <time>2025-02-25T15:21:45Z</time>
      </trkpt>
      <trkpt lat="48.08725" lon="-3.56088">
        <ele>154.9</ele>
        <time>2025-02-25T15:21:46Z</time>
      </trkpt>
      <trkpt lat="48.08726" lon="-3.56089">
        <ele>155</ele>
        <time>2025-02-25T15:21:47Z</time>
      </trkpt>
      <trkpt lat="48.08727" lon="-3.5609">
        <ele>155</ele>
        <time>2025-02-25T15:21:48Z</time>
      </trkpt>
      <trkpt lat="48.08728" lon="-3.56092">
        <ele>155</ele>
        <time>2025-02-25T15:21:49Z</time>
      </trkpt>
      <trkpt lat="48.08729" lon="-3.56092">
        <ele>155</ele>
        <time>2025-02-25T15:21:50Z</time>
      </trkpt>
      <trkpt lat="48.0873" lon="-3.56093">
        <ele>155</ele>
        <time>2025-02-25T15:21:51Z</time>
      </trkpt>
      <trkpt lat="48.08732" lon="-3.56093">
        <ele>155.1</ele>
        <time>2025-02-25T15:21:52Z</time>
      </trkpt>
      <trkpt lat="48.08733" lon="-3.56093">
        <ele>155.2</ele>
        <time>2025-02-25T15:21:53Z</time>
      </trkpt>
      <trkpt lat="48.08734" lon="-3.56093">
        <ele>155.2</ele>
        <time>2025-02-25T15:21:54Z</time>
      </trkpt>
      <trkpt lat="48.08735" lon="-3.56094">
        <ele>155.3</ele>
        <time>2025-02-25T15:21:55Z</time>
      </trkpt>
      <trkpt lat="48.08736" lon="-3.56094">
        <ele>155.3</ele>
        <time>2025-02-25T15:21:56Z</time>
      </trkpt>
      <trkpt lat="48.08737" lon="-3.56095">
        <ele>155.3</ele>
        <time>2025-02-25T15:21:57Z</time>
      </trkpt>
      <trkpt lat="48.08738" lon="-3.56096">
        <ele>155.4</ele>
        <time>2025-02-25T15:21:58Z</time>
      </trkpt>
      <trkpt lat="48.08739" lon="-3.56096">
        <ele>155.4</ele>
        <time>2025-02-25T15:21:59Z</time>
      </trkpt>
      <trkpt lat="48.0874" lon="-3.56096">
        <ele>155.5</ele>
        <time>2025-02-25T15:22:00Z</time>
      </trkpt>
      <trkpt lat="48.08741" lon="-3.56096">
        <ele>155.5</ele>
        <time>2025-02-25T15:22:01Z</time>
      </trkpt>
      <trkpt lat="48.08742" lon="-3.56097">
        <ele>155.6</ele>
        <time>2025-02-25T15:22:02Z</time>
      </trkpt>
      <trkpt lat="48.08743" lon="-3.56098">
        <ele>155.6</ele>
        <time>2025-02-25T15:22:03Z</time>
      </trkpt>
      <trkpt lat="48.08744" lon="-3.56099">
        <ele>155.7</ele>
        <time>2025-02-25T15:22:04Z</time>
      </trkpt>
      <trkpt lat="48.08745" lon="-3.561">
        <ele>155.7</ele>
        <time>2025-02-25T15:22:05Z</time>
      </trkpt>
      <trkpt lat="48.08746" lon="-3.56101">
        <ele>155.8</ele>
        <time>2025-02-25T15:22:06Z</time>
      </trkpt>
      <trkpt lat="48.08747" lon="-3.56101">
        <ele>155.8</ele>
        <time>2025-02-25T15:22:07Z</time>
      </trkpt>
      <trkpt lat="48.08749" lon="-3.56101">
        <ele>155.9</ele>
        <time>2025-02-25T15:22:08Z</time>
      </trkpt>
      <trkpt lat="48.0875" lon="-3.56102">
        <ele>156</ele>
        <time>2025-02-25T15:22:09Z</time>
      </trkpt>
      <trkpt lat="48.08751" lon="-3.56103">
        <ele>156.1</ele>
        <time>2025-02-25T15:22:10Z</time>
      </trkpt>
      <trkpt lat="48.08752" lon="-3.56103">
        <ele>156.1</ele>
        <time>2025-02-25T15:22:11Z</time>
      </trkpt>
      <trkpt lat="48.08753" lon="-3.56104">
        <ele>156.2</ele>
        <time>2025-02-25T15:22:12Z</time>
      </trkpt>
      <trkpt lat="48.08754" lon="-3.56104">
        <ele>156.3</ele>
        <time>2025-02-25T15:22:13Z</time>
      </trkpt>
      <trkpt lat="48.08755" lon="-3.56105">
        <ele>156.3</ele>
        <time>2025-02-25T15:22:14Z</time>
      </trkpt>
      <trkpt lat="48.08756" lon="-3.56105">
        <ele>156.4</ele>
        <time>2025-02-25T15:22:15Z</time>
      </trkpt>
      <trkpt lat="48.08757" lon="-3.56106">
        <ele>156.5</ele>
        <time>2025-02-25T15:22:16Z</time>
      </trkpt>
      <trkpt lat="48.08758" lon="-3.56107">
        <ele>156.5</ele>
        <time>2025-02-25T15:22:17Z</time>
      </trkpt>
      <trkpt lat="48.08759" lon="-3.56107">
        <ele>156.6</ele>
        <time>2025-02-25T15:22:18Z</time>
      </trkpt>
      <trkpt lat="48.0876" lon="-3.56108">
        <ele>156.7</ele>
        <time>2025-02-25T15:22:19Z</time>
      </trkpt>
      <trkpt lat="48.08761" lon="-3.56108">
        <ele>156.7</ele>
        <time>2025-02-25T15:22:20Z</time>
      </trkpt>
      <trkpt lat="48.08762" lon="-3.56109">
        <ele>156.8</ele>
        <time>2025-02-25T15:22:21Z</time>
      </trkpt>
      <trkpt lat="48.08764" lon="-3.56109">
        <ele>157</ele>
        <time>2025-02-25T15:22:22Z</time>
      </trkpt>
      <trkpt lat="48.08765" lon="-3.5611">
        <ele>157.1</ele>
        <time>2025-02-25T15:22:23Z</time>
      </trkpt>
      <trkpt lat="48.08766" lon="-3.56111">
        <ele>157.1</ele>
        <time>2025-02-25T15:22:24Z</time>
      </trkpt>
      <trkpt lat="48.08767" lon="-3.56111">
        <ele>157.2</ele>
        <time>2025-02-25T15:22:25Z</time>
      </trkpt>
      <trkpt lat="48.08768" lon="-3.56112">
        <ele>157.2</ele>
        <time>2025-02-25T15:22:26Z</time>
      </trkpt>
      <trkpt lat="48.08769" lon="-3.56112">
        <ele>157.3</ele>
        <time>2025-02-25T15:22:27Z</time>
      </trkpt>
      <trkpt lat="48.0877" lon="-3.56113">
        <ele>157.3</ele>
        <time>2025-02-25T15:22:28Z</time>
      </trkpt>
      <trkpt lat="48.08772" lon="-3.56113">
        <ele>157.5</ele>
        <time>2025-02-25T15:22:29Z</time>
      </trkpt>
      <trkpt lat="48.08773" lon="-3.56114">
        <ele>157.5</ele>
        <time>2025-02-25T15:22:30Z</time>
      </trkpt>
      <trkpt lat="48.08774" lon="-3.56115">
        <ele>157.5</ele>
        <time>2025-02-25T15:22:31Z</time>
      </trkpt>
      <trkpt lat="48.08775" lon="-3.56115">
        <ele>157.5</ele>
        <time>2025-02-25T15:22:32Z</time>
      </trkpt>
      <trkpt lat="48.08777" lon="-3.56116">
        <ele>157.6</ele>
        <time>2025-02-25T15:22:33Z</time>
      </trkpt>
      <trkpt lat="48.08778" lon="-3.56116">
        <ele>157.7</ele>
        <time>2025-02-25T15:22:34Z</time>
      </trkpt>
      <trkpt lat="48.08779" lon="-3.56117">
        <ele>157.6</ele>
        <time>2025-02-25T15:22:35Z</time>
      </trkpt>
      <trkpt lat="48.0878" lon="-3.56117">
        <ele>157.7</ele>
        <time>2025-02-25T15:22:36Z</time>
      </trkpt>
      <trkpt lat="48.08781" lon="-3.56117">
        <ele>157.7</ele>
        <time>2025-02-25T15:22:37Z</time>
      </trkpt>
      <trkpt lat="48.08782" lon="-3.56117">
        <ele>157.7</ele>
        <time>2025-02-25T15:22:38Z</time>
      </trkpt>
      <trkpt lat="48.08784" lon="-3.56118">
        <ele>157.7</ele>
        <time>2025-02-25T15:22:39Z</time>
      </trkpt>
      <trkpt lat="48.08785" lon="-3.56118">
        <ele>157.8</ele>
        <time>2025-02-25T15:22:40Z</time>
      </trkpt>
      <trkpt lat="48.08786" lon="-3.56119">
        <ele>157.7</ele>
        <time>2025-02-25T15:22:41Z</time>
      </trkpt>
      <trkpt lat="48.08788" lon="-3.5612">
        <ele>157.7</ele>
        <time>2025-02-25T15:22:42Z</time>
      </trkpt>
      <trkpt lat="48.08788" lon="-3.5612">
        <ele>157.7</ele>
        <time>2025-02-25T15:22:43Z</time>
      </trkpt>
      <trkpt lat="48.0879" lon="-3.56121">
        <ele>157.7</ele>
        <time>2025-02-25T15:22:44Z</time>
      </trkpt>
      <trkpt lat="48.08791" lon="-3.56121">
        <ele>157.8</ele>
        <time>2025-02-25T15:22:45Z</time>
      </trkpt>
      <trkpt lat="48.08792" lon="-3.56122">
        <ele>157.7</ele>
        <time>2025-02-25T15:22:46Z</time>
      </trkpt>
      <trkpt lat="48.08793" lon="-3.56123">
        <ele>157.7</ele>
        <time>2025-02-25T15:22:47Z</time>
      </trkpt>
      <trkpt lat="48.08794" lon="-3.56123">
        <ele>157.7</ele>
        <time>2025-02-25T15:22:48Z</time>
      </trkpt>
      <trkpt lat="48.08795" lon="-3.56124">
        <ele>157.7</ele>
        <time>2025-02-25T15:22:49Z</time>
      </trkpt>
      <trkpt lat="48.08796" lon="-3.56124">
        <ele>157.7</ele>
        <time>2025-02-25T15:22:50Z</time>
      </trkpt>
      <trkpt lat="48.08797" lon="-3.56124">
        <ele>157.8</ele>
        <time>2025-02-25T15:22:51Z</time>
      </trkpt>
      <trkpt lat="48.08798" lon="-3.56125">
        <ele>157.7</ele>
        <time>2025-02-25T15:22:52Z</time>
      </trkpt>
      <trkpt lat="48.08799" lon="-3.56125">
        <ele>157.8</ele>
        <time>2025-02-25T15:22:53Z</time>
      </trkpt>
      <trkpt lat="48.088" lon="-3.56126">
        <ele>157.7</ele>
        <time>2025-02-25T15:22:54Z</time>
      </trkpt>
      <trkpt lat="48.08801" lon="-3.56126">
        <ele>157.8</ele>
        <time>2025-02-25T15:22:55Z</time>
      </trkpt>
      <trkpt lat="48.08802" lon="-3.56127">
        <ele>157.7</ele>
        <time>2025-02-25T15:22:56Z</time>
      </trkpt>
      <trkpt lat="48.08803" lon="-3.56127">
        <ele>157.8</ele>
        <time>2025-02-25T15:22:57Z</time>
      </trkpt>
      <trkpt lat="48.08804" lon="-3.56127">
        <ele>157.8</ele>
        <time>2025-02-25T15:22:58Z</time>
      </trkpt>
      <trkpt lat="48.08805" lon="-3.56128">
        <ele>157.8</ele>
        <time>2025-02-25T15:22:59Z</time>
      </trkpt>
      <trkpt lat="48.08806" lon="-3.56128">
        <ele>157.8</ele>
        <time>2025-02-25T15:23:00Z</time>
      </trkpt>
      <trkpt lat="48.08807" lon="-3.56128">
        <ele>157.9</ele>
        <time>2025-02-25T15:23:01Z</time>
      </trkpt>
      <trkpt lat="48.08808" lon="-3.56128">
        <ele>157.9</ele>
        <time>2025-02-25T15:23:02Z</time>
      </trkpt>
      <trkpt lat="48.08809" lon="-3.56129">
        <ele>157.9</ele>
        <time>2025-02-25T15:23:03Z</time>
      </trkpt>
      <trkpt lat="48.0881" lon="-3.56129">
        <ele>158</ele>
        <time>2025-02-25T15:23:04Z</time>
      </trkpt>
      <trkpt lat="48.08811" lon="-3.56129">
        <ele>158</ele>
        <time>2025-02-25T15:23:05Z</time>
      </trkpt>
      <trkpt lat="48.08812" lon="-3.5613">
        <ele>158</ele>
        <time>2025-02-25T15:23:06Z</time>
      </trkpt>
      <trkpt lat="48.08813" lon="-3.5613">
        <ele>158.1</ele>
        <time>2025-02-25T15:23:07Z</time>
      </trkpt>
      <trkpt lat="48.08814" lon="-3.56131">
        <ele>158.1</ele>
        <time>2025-02-25T15:23:08Z</time>
      </trkpt>
      <trkpt lat="48.08815" lon="-3.56131">
        <ele>158.2</ele>
        <time>2025-02-25T15:23:09Z</time>
      </trkpt>
      <trkpt lat="48.08816" lon="-3.56132">
        <ele>158.2</ele>
        <time>2025-02-25T15:23:10Z</time>
      </trkpt>
      <trkpt lat="48.08817" lon="-3.56132">
        <ele>158.2</ele>
        <time>2025-02-25T15:23:11Z</time>
      </trkpt>
      <trkpt lat="48.08818" lon="-3.56132">
        <ele>158.3</ele>
        <time>2025-02-25T15:23:12Z</time>
      </trkpt>
      <trkpt lat="48.08819" lon="-3.56133">
        <ele>158.3</ele>
        <time>2025-02-25T15:23:13Z</time>
      </trkpt>
      <trkpt lat="48.0882" lon="-3.56133">
        <ele>158.4</ele>
        <time>2025-02-25T15:23:14Z</time>
      </trkpt>
      <trkpt lat="48.08821" lon="-3.56134">
        <ele>158.4</ele>
        <time>2025-02-25T15:23:15Z</time>
      </trkpt>
      <trkpt lat="48.08822" lon="-3.56133">
        <ele>158.5</ele>
        <time>2025-02-25T15:23:16Z</time>
      </trkpt>
      <trkpt lat="48.08823" lon="-3.56134">
        <ele>158.5</ele>
        <time>2025-02-25T15:23:17Z</time>
      </trkpt>
      <trkpt lat="48.08825" lon="-3.56135">
        <ele>158.6</ele>
        <time>2025-02-25T15:23:18Z</time>
      </trkpt>
      <trkpt lat="48.08826" lon="-3.56135">
        <ele>158.6</ele>
        <time>2025-02-25T15:23:19Z</time>
      </trkpt>
      <trkpt lat="48.08827" lon="-3.56135">
        <ele>158.7</ele>
        <time>2025-02-25T15:23:20Z</time>
      </trkpt>
      <trkpt lat="48.08828" lon="-3.56135">
        <ele>158.8</ele>
        <time>2025-02-25T15:23:21Z</time>
      </trkpt>
      <trkpt lat="48.08829" lon="-3.56135">
        <ele>158.8</ele>
        <time>2025-02-25T15:23:22Z</time>
      </trkpt>
      <trkpt lat="48.0883" lon="-3.56135">
        <ele>158.9</ele>
        <time>2025-02-25T15:23:23Z</time>
      </trkpt>
      <trkpt lat="48.08831" lon="-3.56135">
        <ele>159</ele>
        <time>2025-02-25T15:23:24Z</time>
      </trkpt>
      <trkpt lat="48.08832" lon="-3.56136">
        <ele>159</ele>
        <time>2025-02-25T15:23:25Z</time>
      </trkpt>
      <trkpt lat="48.08833" lon="-3.56137">
        <ele>159</ele>
        <time>2025-02-25T15:23:26Z</time>
      </trkpt>
      <trkpt lat="48.08834" lon="-3.56138">
        <ele>159.1</ele>
        <time>2025-02-25T15:23:27Z</time>
      </trkpt>
      <trkpt lat="48.08835" lon="-3.56138">
        <ele>159.2</ele>
        <time>2025-02-25T15:23:28Z</time>
      </trkpt>
      <trkpt lat="48.08836" lon="-3.56138">
        <ele>159.2</ele>
        <time>2025-02-25T15:23:29Z</time>
      </trkpt>
      <trkpt lat="48.08837" lon="-3.56138">
        <ele>159.3</ele>
        <time>2025-02-25T15:23:30Z</time>
      </trkpt>
      <trkpt lat="48.08838" lon="-3.56138">
        <ele>159.4</ele>
        <time>2025-02-25T15:23:31Z</time>
      </trkpt>
      <trkpt lat="48.08839" lon="-3.56138">
        <ele>159.4</ele>
        <time>2025-02-25T15:23:32Z</time>
      </trkpt>
      <trkpt lat="48.08841" lon="-3.56139">
        <ele>159.5</ele>
        <time>2025-02-25T15:23:33Z</time>
      </trkpt>
      <trkpt lat="48.08842" lon="-3.56139">
        <ele>159.6</ele>
        <time>2025-02-25T15:23:34Z</time>
      </trkpt>
      <trkpt lat="48.08843" lon="-3.5614">
        <ele>159.6</ele>
        <time>2025-02-25T15:23:35Z</time>
      </trkpt>
      <trkpt lat="48.08844" lon="-3.5614">
        <ele>159.7</ele>
        <time>2025-02-25T15:23:36Z</time>
      </trkpt>
      <trkpt lat="48.08845" lon="-3.56141">
        <ele>159.7</ele>
        <time>2025-02-25T15:23:37Z</time>
      </trkpt>
      <trkpt lat="48.08847" lon="-3.5614">
        <ele>159.9</ele>
        <time>2025-02-25T15:23:38Z</time>
      </trkpt>
      <trkpt lat="48.08848" lon="-3.56141">
        <ele>159.9</ele>
        <time>2025-02-25T15:23:39Z</time>
      </trkpt>
      <trkpt lat="48.08849" lon="-3.56141">
        <ele>160</ele>
        <time>2025-02-25T15:23:40Z</time>
      </trkpt>
      <trkpt lat="48.0885" lon="-3.56142">
        <ele>160</ele>
        <time>2025-02-25T15:23:41Z</time>
      </trkpt>
      <trkpt lat="48.08851" lon="-3.56142">
        <ele>160</ele>
        <time>2025-02-25T15:23:42Z</time>
      </trkpt>
      <trkpt lat="48.08852" lon="-3.56142">
        <ele>160.1</ele>
        <time>2025-02-25T15:23:43Z</time>
      </trkpt>
      <trkpt lat="48.08852" lon="-3.56141">
        <ele>160.2</ele>
        <time>2025-02-25T15:23:44Z</time>
      </trkpt>
      <trkpt lat="48.08853" lon="-3.56141">
        <ele>160.3</ele>
        <time>2025-02-25T15:23:45Z</time>
      </trkpt>
      <trkpt lat="48.08854" lon="-3.56141">
        <ele>160.3</ele>
        <time>2025-02-25T15:23:46Z</time>
      </trkpt>
      <trkpt lat="48.08856" lon="-3.56142">
        <ele>160.4</ele>
        <time>2025-02-25T15:23:47Z</time>
      </trkpt>
      <trkpt lat="48.08857" lon="-3.56142">
        <ele>160.5</ele>
        <time>2025-02-25T15:23:48Z</time>
      </trkpt>
      <trkpt lat="48.08857" lon="-3.56143">
        <ele>160.4</ele>
        <time>2025-02-25T15:23:49Z</time>
      </trkpt>
      <trkpt lat="48.08858" lon="-3.56144">
        <ele>160.4</ele>
        <time>2025-02-25T15:23:50Z</time>
      </trkpt>
      <trkpt lat="48.08859" lon="-3.56145">
        <ele>160.4</ele>
        <time>2025-02-25T15:23:51Z</time>
      </trkpt>
      <trkpt lat="48.0886" lon="-3.56146">
        <ele>160.4</ele>
        <time>2025-02-25T15:23:52Z</time>
      </trkpt>
      <trkpt lat="48.0886" lon="-3.56147">
        <ele>160.3</ele>
        <time>2025-02-25T15:23:53Z</time>
      </trkpt>
      <trkpt lat="48.0886" lon="-3.56149">
        <ele>160.2</ele>
        <time>2025-02-25T15:23:54Z</time>
      </trkpt>
      <trkpt lat="48.0886" lon="-3.56151">
        <ele>160</ele>
        <time>2025-02-25T15:23:55Z</time>
      </trkpt>
      <trkpt lat="48.0886" lon="-3.56153">
        <ele>159.9</ele>
        <time>2025-02-25T15:23:56Z</time>
      </trkpt>
      <trkpt lat="48.08859" lon="-3.56155">
        <ele>159.7</ele>
        <time>2025-02-25T15:23:57Z</time>
      </trkpt>
      <trkpt lat="48.08858" lon="-3.56156">
        <ele>159.5</ele>
        <time>2025-02-25T15:23:58Z</time>
      </trkpt>
      <trkpt lat="48.08858" lon="-3.56158">
        <ele>159.4</ele>
        <time>2025-02-25T15:23:59Z</time>
      </trkpt>
      <trkpt lat="48.08857" lon="-3.56159">
        <ele>159.3</ele>
        <time>2025-02-25T15:24:00Z</time>
      </trkpt>
      <trkpt lat="48.08857" lon="-3.56161">
        <ele>159.1</ele>
        <time>2025-02-25T15:24:01Z</time>
      </trkpt>
      <trkpt lat="48.08856" lon="-3.56162">
        <ele>159</ele>
        <time>2025-02-25T15:24:02Z</time>
      </trkpt>
      <trkpt lat="48.08855" lon="-3.56164">
        <ele>158.8</ele>
        <time>2025-02-25T15:24:03Z</time>
      </trkpt>
      <trkpt lat="48.08854" lon="-3.56165">
        <ele>158.6</ele>
        <time>2025-02-25T15:24:04Z</time>
      </trkpt>
      <trkpt lat="48.08854" lon="-3.56166">
        <ele>158.5</ele>
        <time>2025-02-25T15:24:05Z</time>
      </trkpt>
      <trkpt lat="48.08853" lon="-3.56168">
        <ele>158.4</ele>
        <time>2025-02-25T15:24:06Z</time>
      </trkpt>
      <trkpt lat="48.08852" lon="-3.56169">
        <ele>158.3</ele>
        <time>2025-02-25T15:24:07Z</time>
      </trkpt>
      <trkpt lat="48.08851" lon="-3.56169">
        <ele>158.3</ele>
        <time>2025-02-25T15:24:08Z</time>
      </trkpt>
      <trkpt lat="48.0885" lon="-3.5617">
        <ele>158.2</ele>
        <time>2025-02-25T15:24:09Z</time>
      </trkpt>
      <trkpt lat="48.08849" lon="-3.56172">
        <ele>158.1</ele>
        <time>2025-02-25T15:24:10Z</time>
      </trkpt>
      <trkpt lat="48.08849" lon="-3.56173">
        <ele>158.1</ele>
        <time>2025-02-25T15:24:11Z</time>
      </trkpt>
      <trkpt lat="48.08848" lon="-3.56174">
        <ele>158.1</ele>
        <time>2025-02-25T15:24:12Z</time>
      </trkpt>
      <trkpt lat="48.08847" lon="-3.56175">
        <ele>158</ele>
        <time>2025-02-25T15:24:13Z</time>
      </trkpt>
      <trkpt lat="48.08846" lon="-3.56177">
        <ele>157.9</ele>
        <time>2025-02-25T15:24:14Z</time>
      </trkpt>
      <trkpt lat="48.08846" lon="-3.56178">
        <ele>157.9</ele>
        <time>2025-02-25T15:24:15Z</time>
      </trkpt>
      <trkpt lat="48.08845" lon="-3.56179">
        <ele>157.8</ele>
        <time>2025-02-25T15:24:16Z</time>
      </trkpt>
      <trkpt lat="48.08844" lon="-3.5618">
        <ele>157.8</ele>
        <time>2025-02-25T15:24:17Z</time>
      </trkpt>
      <trkpt lat="48.08843" lon="-3.56181">
        <ele>157.7</ele>
        <time>2025-02-25T15:24:18Z</time>
      </trkpt>
      <trkpt lat="48.08843" lon="-3.56183">
        <ele>157.7</ele>
        <time>2025-02-25T15:24:19Z</time>
      </trkpt>
      <trkpt lat="48.08842" lon="-3.56184">
        <ele>157.6</ele>
        <time>2025-02-25T15:24:20Z</time>
      </trkpt>
      <trkpt lat="48.08842" lon="-3.56185">
        <ele>157.6</ele>
        <time>2025-02-25T15:24:21Z</time>
      </trkpt>
      <trkpt lat="48.08841" lon="-3.56187">
        <ele>157.6</ele>
        <time>2025-02-25T15:24:22Z</time>
      </trkpt>
      <trkpt lat="48.08841" lon="-3.56188">
        <ele>157.6</ele>
        <time>2025-02-25T15:24:23Z</time>
      </trkpt>
      <trkpt lat="48.0884" lon="-3.56189">
        <ele>157.5</ele>
        <time>2025-02-25T15:24:24Z</time>
      </trkpt>
      <trkpt lat="48.0884" lon="-3.56191">
        <ele>157.5</ele>
        <time>2025-02-25T15:24:25Z</time>
      </trkpt>
      <trkpt lat="48.08839" lon="-3.56192">
        <ele>157.4</ele>
        <time>2025-02-25T15:24:26Z</time>
      </trkpt>
      <trkpt lat="48.08839" lon="-3.56194">
        <ele>157.4</ele>
        <time>2025-02-25T15:24:27Z</time>
      </trkpt>
      <trkpt lat="48.08838" lon="-3.56195">
        <ele>157.3</ele>
        <time>2025-02-25T15:24:28Z</time>
      </trkpt>
      <trkpt lat="48.08837" lon="-3.56197">
        <ele>157.1</ele>
        <time>2025-02-25T15:24:29Z</time>
      </trkpt>
      <trkpt lat="48.08837" lon="-3.56198">
        <ele>157</ele>
        <time>2025-02-25T15:24:30Z</time>
      </trkpt>
      <trkpt lat="48.08836" lon="-3.562">
        <ele>156.8</ele>
        <time>2025-02-25T15:24:31Z</time>
      </trkpt>
      <trkpt lat="48.08835" lon="-3.56201">
        <ele>156.6</ele>
        <time>2025-02-25T15:24:32Z</time>
      </trkpt>
      <trkpt lat="48.08834" lon="-3.56203">
        <ele>156.4</ele>
        <time>2025-02-25T15:24:33Z</time>
      </trkpt>
      <trkpt lat="48.08834" lon="-3.56205">
        <ele>156.3</ele>
        <time>2025-02-25T15:24:34Z</time>
      </trkpt>
      <trkpt lat="48.08833" lon="-3.56206">
        <ele>156.1</ele>
        <time>2025-02-25T15:24:35Z</time>
      </trkpt>
      <trkpt lat="48.08832" lon="-3.56207">
        <ele>156</ele>
        <time>2025-02-25T15:24:36Z</time>
      </trkpt>
      <trkpt lat="48.08831" lon="-3.56208">
        <ele>155.9</ele>
        <time>2025-02-25T15:24:37Z</time>
      </trkpt>
      <trkpt lat="48.08831" lon="-3.5621">
        <ele>155.7</ele>
        <time>2025-02-25T15:24:38Z</time>
      </trkpt>
      <trkpt lat="48.0883" lon="-3.56211">
        <ele>155.6</ele>
        <time>2025-02-25T15:24:39Z</time>
      </trkpt>
      <trkpt lat="48.08829" lon="-3.56212">
        <ele>155.4</ele>
        <time>2025-02-25T15:24:40Z</time>
      </trkpt>
      <trkpt lat="48.08828" lon="-3.56212">
        <ele>155.4</ele>
        <time>2025-02-25T15:24:41Z</time>
      </trkpt>
      <trkpt lat="48.08828" lon="-3.56213">
        <ele>155.3</ele>
        <time>2025-02-25T15:24:42Z</time>
      </trkpt>
      <trkpt lat="48.08827" lon="-3.56215">
        <ele>155.1</ele>
        <time>2025-02-25T15:24:43Z</time>
      </trkpt>
      <trkpt lat="48.08827" lon="-3.56217">
        <ele>154.9</ele>
        <time>2025-02-25T15:24:44Z</time>
      </trkpt>
      <trkpt lat="48.08826" lon="-3.56218">
        <ele>154.8</ele>
        <time>2025-02-25T15:24:45Z</time>
      </trkpt>
      <trkpt lat="48.08826" lon="-3.56221">
        <ele>154.6</ele>
        <time>2025-02-25T15:24:46Z</time>
      </trkpt>
      <trkpt lat="48.08826" lon="-3.56223">
        <ele>154.4</ele>
        <time>2025-02-25T15:24:47Z</time>
      </trkpt>
      <trkpt lat="48.08826" lon="-3.56224">
        <ele>154.4</ele>
        <time>2025-02-25T15:24:48Z</time>
      </trkpt>
      <trkpt lat="48.08825" lon="-3.56225">
        <ele>154.3</ele>
        <time>2025-02-25T15:24:49Z</time>
      </trkpt>
      <trkpt lat="48.08825" lon="-3.56227">
        <ele>154.2</ele>
        <time>2025-02-25T15:24:50Z</time>
      </trkpt>
      <trkpt lat="48.08825" lon="-3.56228">
        <ele>154.2</ele>
        <time>2025-02-25T15:24:51Z</time>
      </trkpt>
      <trkpt lat="48.08825" lon="-3.5623">
        <ele>154.1</ele>
        <time>2025-02-25T15:24:52Z</time>
      </trkpt>
      <trkpt lat="48.08824" lon="-3.56231">
        <ele>154</ele>
        <time>2025-02-25T15:24:53Z</time>
      </trkpt>
      <trkpt lat="48.08825" lon="-3.56233">
        <ele>154</ele>
        <time>2025-02-25T15:24:54Z</time>
      </trkpt>
      <trkpt lat="48.08824" lon="-3.56235">
        <ele>153.9</ele>
        <time>2025-02-25T15:24:55Z</time>
      </trkpt>
      <trkpt lat="48.08825" lon="-3.56237">
        <ele>153.9</ele>
        <time>2025-02-25T15:24:56Z</time>
      </trkpt>
      <trkpt lat="48.08825" lon="-3.56239">
        <ele>153.8</ele>
        <time>2025-02-25T15:24:57Z</time>
      </trkpt>
      <trkpt lat="48.08824" lon="-3.5624">
        <ele>153.7</ele>
        <time>2025-02-25T15:24:58Z</time>
      </trkpt>
      <trkpt lat="48.08823" lon="-3.5624">
        <ele>153.6</ele>
        <time>2025-02-25T15:24:59Z</time>
      </trkpt>
      <trkpt lat="48.08823" lon="-3.56241">
        <ele>153.6</ele>
        <time>2025-02-25T15:25:00Z</time>
      </trkpt>
      <trkpt lat="48.08823" lon="-3.56242">
        <ele>153.5</ele>
        <time>2025-02-25T15:25:01Z</time>
      </trkpt>
      <trkpt lat="48.08822" lon="-3.56243">
        <ele>153.4</ele>
        <time>2025-02-25T15:25:02Z</time>
      </trkpt>
      <trkpt lat="48.08822" lon="-3.56245">
        <ele>153.4</ele>
        <time>2025-02-25T15:25:03Z</time>
      </trkpt>
      <trkpt lat="48.08822" lon="-3.56246">
        <ele>153.3</ele>
        <time>2025-02-25T15:25:04Z</time>
      </trkpt>
      <trkpt lat="48.08822" lon="-3.56248">
        <ele>153.3</ele>
        <time>2025-02-25T15:25:05Z</time>
      </trkpt>
      <trkpt lat="48.08821" lon="-3.56249">
        <ele>153.1</ele>
        <time>2025-02-25T15:25:06Z</time>
      </trkpt>
      <trkpt lat="48.08821" lon="-3.56251">
        <ele>153</ele>
        <time>2025-02-25T15:25:07Z</time>
      </trkpt>
      <trkpt lat="48.08821" lon="-3.56252">
        <ele>153</ele>
        <time>2025-02-25T15:25:08Z</time>
      </trkpt>
      <trkpt lat="48.08821" lon="-3.56254">
        <ele>152.8</ele>
        <time>2025-02-25T15:25:09Z</time>
      </trkpt>
      <trkpt lat="48.0882" lon="-3.56255">
        <ele>152.7</ele>
        <time>2025-02-25T15:25:10Z</time>
      </trkpt>
      <trkpt lat="48.0882" lon="-3.56257">
        <ele>152.5</ele>
        <time>2025-02-25T15:25:11Z</time>
      </trkpt>
      <trkpt lat="48.0882" lon="-3.56258">
        <ele>152.5</ele>
        <time>2025-02-25T15:25:12Z</time>
      </trkpt>
      <trkpt lat="48.08819" lon="-3.5626">
        <ele>152.2</ele>
        <time>2025-02-25T15:25:13Z</time>
      </trkpt>
      <trkpt lat="48.08819" lon="-3.56261">
        <ele>152.2</ele>
        <time>2025-02-25T15:25:14Z</time>
      </trkpt>
      <trkpt lat="48.08819" lon="-3.56263">
        <ele>152</ele>
        <time>2025-02-25T15:25:15Z</time>
      </trkpt>
      <trkpt lat="48.08818" lon="-3.56265">
        <ele>151.8</ele>
        <time>2025-02-25T15:25:16Z</time>
      </trkpt>
      <trkpt lat="48.08818" lon="-3.56266">
        <ele>151.7</ele>
        <time>2025-02-25T15:25:17Z</time>
      </trkpt>
      <trkpt lat="48.08817" lon="-3.56268">
        <ele>151.5</ele>
        <time>2025-02-25T15:25:18Z</time>
      </trkpt>
      <trkpt lat="48.08817" lon="-3.5627">
        <ele>151.4</ele>
        <time>2025-02-25T15:25:19Z</time>
      </trkpt>
      <trkpt lat="48.08817" lon="-3.56271">
        <ele>151.3</ele>
        <time>2025-02-25T15:25:20Z</time>
      </trkpt>
      <trkpt lat="48.08816" lon="-3.56273">
        <ele>151.1</ele>
        <time>2025-02-25T15:25:21Z</time>
      </trkpt>
      <trkpt lat="48.08816" lon="-3.56274">
        <ele>151</ele>
        <time>2025-02-25T15:25:22Z</time>
      </trkpt>
      <trkpt lat="48.08815" lon="-3.56274">
        <ele>151</ele>
        <time>2025-02-25T15:25:23Z</time>
      </trkpt>
      <trkpt lat="48.08814" lon="-3.56275">
        <ele>150.8</ele>
        <time>2025-02-25T15:25:24Z</time>
      </trkpt>
      <trkpt lat="48.08814" lon="-3.56276">
        <ele>150.7</ele>
        <time>2025-02-25T15:25:25Z</time>
      </trkpt>
      <trkpt lat="48.08814" lon="-3.56278">
        <ele>150.6</ele>
        <time>2025-02-25T15:25:26Z</time>
      </trkpt>
      <trkpt lat="48.08814" lon="-3.56279">
        <ele>150.6</ele>
        <time>2025-02-25T15:25:27Z</time>
      </trkpt>
      <trkpt lat="48.08813" lon="-3.56281">
        <ele>150.4</ele>
        <time>2025-02-25T15:25:28Z</time>
      </trkpt>
      <trkpt lat="48.08813" lon="-3.56282">
        <ele>150.3</ele>
        <time>2025-02-25T15:25:29Z</time>
      </trkpt>
      <trkpt lat="48.08813" lon="-3.56283">
        <ele>150.3</ele>
        <time>2025-02-25T15:25:30Z</time>
      </trkpt>
      <trkpt lat="48.08812" lon="-3.56284">
        <ele>150.2</ele>
        <time>2025-02-25T15:25:31Z</time>
      </trkpt>
      <trkpt lat="48.08811" lon="-3.56285">
        <ele>150.1</ele>
        <time>2025-02-25T15:25:32Z</time>
      </trkpt>
      <trkpt lat="48.08811" lon="-3.56287">
        <ele>150</ele>
        <time>2025-02-25T15:25:33Z</time>
      </trkpt>
      <trkpt lat="48.0881" lon="-3.56288">
        <ele>149.9</ele>
        <time>2025-02-25T15:25:34Z</time>
      </trkpt>
      <trkpt lat="48.0881" lon="-3.5629">
        <ele>149.8</ele>
        <time>2025-02-25T15:25:35Z</time>
      </trkpt>
      <trkpt lat="48.0881" lon="-3.56292">
        <ele>149.7</ele>
        <time>2025-02-25T15:25:36Z</time>
      </trkpt>
      <trkpt lat="48.08811" lon="-3.56293">
        <ele>149.7</ele>
        <time>2025-02-25T15:25:37Z</time>
      </trkpt>
      <trkpt lat="48.08813" lon="-3.56294">
        <ele>149.8</ele>
        <time>2025-02-25T15:25:38Z</time>
      </trkpt>
      <trkpt lat="48.08813" lon="-3.56295">
        <ele>149.7</ele>
        <time>2025-02-25T15:25:39Z</time>
      </trkpt>
      <trkpt lat="48.08814" lon="-3.56296">
        <ele>149.8</ele>
        <time>2025-02-25T15:25:40Z</time>
      </trkpt>
      <trkpt lat="48.08815" lon="-3.56296">
        <ele>149.8</ele>
        <time>2025-02-25T15:25:41Z</time>
      </trkpt>
      <trkpt lat="48.08816" lon="-3.56296">
        <ele>149.8</ele>
        <time>2025-02-25T15:25:42Z</time>
      </trkpt>
      <trkpt lat="48.08817" lon="-3.56297">
        <ele>149.8</ele>
        <time>2025-02-25T15:25:43Z</time>
      </trkpt>
      <trkpt lat="48.08818" lon="-3.56298">
        <ele>149.8</ele>
        <time>2025-02-25T15:25:44Z</time>
      </trkpt>
      <trkpt lat="48.08819" lon="-3.56299">
        <ele>149.8</ele>
        <time>2025-02-25T15:25:45Z</time>
      </trkpt>
      <trkpt lat="48.08819" lon="-3.56301">
        <ele>149.7</ele>
        <time>2025-02-25T15:25:46Z</time>
      </trkpt>
      <trkpt lat="48.0882" lon="-3.56301">
        <ele>149.8</ele>
        <time>2025-02-25T15:25:47Z</time>
      </trkpt>
      <trkpt lat="48.08821" lon="-3.56302">
        <ele>149.8</ele>
        <time>2025-02-25T15:25:48Z</time>
      </trkpt>
      <trkpt lat="48.08822" lon="-3.56303">
        <ele>149.7</ele>
        <time>2025-02-25T15:25:49Z</time>
      </trkpt>
      <trkpt lat="48.08823" lon="-3.56304">
        <ele>149.7</ele>
        <time>2025-02-25T15:25:50Z</time>
      </trkpt>
      <trkpt lat="48.08824" lon="-3.56305">
        <ele>149.7</ele>
        <time>2025-02-25T15:25:51Z</time>
      </trkpt>
      <trkpt lat="48.08824" lon="-3.56306">
        <ele>149.6</ele>
        <time>2025-02-25T15:25:52Z</time>
      </trkpt>
      <trkpt lat="48.08826" lon="-3.56307">
        <ele>149.6</ele>
        <time>2025-02-25T15:25:53Z</time>
      </trkpt>
      <trkpt lat="48.08827" lon="-3.56307">
        <ele>149.6</ele>
        <time>2025-02-25T15:25:54Z</time>
      </trkpt>
      <trkpt lat="48.08827" lon="-3.56309">
        <ele>149.4</ele>
        <time>2025-02-25T15:25:55Z</time>
      </trkpt>
      <trkpt lat="48.08828" lon="-3.5631">
        <ele>149.4</ele>
        <time>2025-02-25T15:25:56Z</time>
      </trkpt>
      <trkpt lat="48.08829" lon="-3.5631">
        <ele>149.4</ele>
        <time>2025-02-25T15:25:57Z</time>
      </trkpt>
      <trkpt lat="48.0883" lon="-3.56311">
        <ele>149.3</ele>
        <time>2025-02-25T15:25:58Z</time>
      </trkpt>
      <trkpt lat="48.08831" lon="-3.56311">
        <ele>149.3</ele>
        <time>2025-02-25T15:25:59Z</time>
      </trkpt>
      <trkpt lat="48.08832" lon="-3.56311">
        <ele>149.4</ele>
        <time>2025-02-25T15:26:00Z</time>
      </trkpt>
      <trkpt lat="48.08833" lon="-3.56312">
        <ele>149.3</ele>
        <time>2025-02-25T15:26:01Z</time>
      </trkpt>
      <trkpt lat="48.08834" lon="-3.56314">
        <ele>149.1</ele>
        <time>2025-02-25T15:26:02Z</time>
      </trkpt>
      <trkpt lat="48.08836" lon="-3.56314">
        <ele>149.3</ele>
        <time>2025-02-25T15:26:03Z</time>
      </trkpt>
      <trkpt lat="48.08837" lon="-3.56314">
        <ele>149.3</ele>
        <time>2025-02-25T15:26:04Z</time>
      </trkpt>
      <trkpt lat="48.08838" lon="-3.56316">
        <ele>149.1</ele>
        <time>2025-02-25T15:26:05Z</time>
      </trkpt>
      <trkpt lat="48.08839" lon="-3.56317">
        <ele>149.1</ele>
        <time>2025-02-25T15:26:06Z</time>
      </trkpt>
      <trkpt lat="48.0884" lon="-3.56318">
        <ele>149</ele>
        <time>2025-02-25T15:26:07Z</time>
      </trkpt>
      <trkpt lat="48.0884" lon="-3.56319">
        <ele>148.9</ele>
        <time>2025-02-25T15:26:08Z</time>
      </trkpt>
      <trkpt lat="48.08841" lon="-3.56321">
        <ele>148.7</ele>
        <time>2025-02-25T15:26:09Z</time>
      </trkpt>
      <trkpt lat="48.08843" lon="-3.56322">
        <ele>148.7</ele>
        <time>2025-02-25T15:26:10Z</time>
      </trkpt>
      <trkpt lat="48.08844" lon="-3.56323">
        <ele>148.6</ele>
        <time>2025-02-25T15:26:11Z</time>
      </trkpt>
      <trkpt lat="48.08845" lon="-3.56324">
        <ele>148.6</ele>
        <time>2025-02-25T15:26:12Z</time>
      </trkpt>
      <trkpt lat="48.08846" lon="-3.56324">
        <ele>148.6</ele>
        <time>2025-02-25T15:26:13Z</time>
      </trkpt>
      <trkpt lat="48.08848" lon="-3.56325">
        <ele>148.6</ele>
        <time>2025-02-25T15:26:14Z</time>
      </trkpt>
      <trkpt lat="48.08849" lon="-3.56325">
        <ele>148.6</ele>
        <time>2025-02-25T15:26:15Z</time>
      </trkpt>
      <trkpt lat="48.0885" lon="-3.56327">
        <ele>148.4</ele>
        <time>2025-02-25T15:26:16Z</time>
      </trkpt>
      <trkpt lat="48.08851" lon="-3.56327">
        <ele>148.5</ele>
        <time>2025-02-25T15:26:17Z</time>
      </trkpt>
      <trkpt lat="48.08852" lon="-3.56327">
        <ele>148.5</ele>
        <time>2025-02-25T15:26:18Z</time>
      </trkpt>
      <trkpt lat="48.08853" lon="-3.56329">
        <ele>148.3</ele>
        <time>2025-02-25T15:26:19Z</time>
      </trkpt>
      <trkpt lat="48.08854" lon="-3.56329">
        <ele>148.3</ele>
        <time>2025-02-25T15:26:20Z</time>
      </trkpt>
      <trkpt lat="48.08855" lon="-3.5633">
        <ele>148.2</ele>
        <time>2025-02-25T15:26:21Z</time>
      </trkpt>
      <trkpt lat="48.08856" lon="-3.56332">
        <ele>148</ele>
        <time>2025-02-25T15:26:22Z</time>
      </trkpt>
      <trkpt lat="48.08856" lon="-3.56333">
        <ele>147.9</ele>
        <time>2025-02-25T15:26:23Z</time>
      </trkpt>
      <trkpt lat="48.08857" lon="-3.56335">
        <ele>147.6</ele>
        <time>2025-02-25T15:26:24Z</time>
      </trkpt>
      <trkpt lat="48.08858" lon="-3.56336">
        <ele>147.5</ele>
        <time>2025-02-25T15:26:25Z</time>
      </trkpt>
      <trkpt lat="48.08859" lon="-3.56337">
        <ele>147.4</ele>
        <time>2025-02-25T15:26:26Z</time>
      </trkpt>
      <trkpt lat="48.0886" lon="-3.56338">
        <ele>147.3</ele>
        <time>2025-02-25T15:26:27Z</time>
      </trkpt>
      <trkpt lat="48.08861" lon="-3.56339">
        <ele>147.2</ele>
        <time>2025-02-25T15:26:28Z</time>
      </trkpt>
      <trkpt lat="48.08861" lon="-3.56341">
        <ele>146.9</ele>
        <time>2025-02-25T15:26:29Z</time>
      </trkpt>
      <trkpt lat="48.08862" lon="-3.56342">
        <ele>146.9</ele>
        <time>2025-02-25T15:26:30Z</time>
      </trkpt>
      <trkpt lat="48.08862" lon="-3.56343">
        <ele>146.7</ele>
        <time>2025-02-25T15:26:31Z</time>
      </trkpt>
      <trkpt lat="48.08863" lon="-3.56344">
        <ele>146.7</ele>
        <time>2025-02-25T15:26:32Z</time>
      </trkpt>
      <trkpt lat="48.08863" lon="-3.56345">
        <ele>146.6</ele>
        <time>2025-02-25T15:26:33Z</time>
      </trkpt>
      <trkpt lat="48.08864" lon="-3.56346">
        <ele>146.5</ele>
        <time>2025-02-25T15:26:34Z</time>
      </trkpt>
      <trkpt lat="48.08864" lon="-3.56348">
        <ele>146.3</ele>
        <time>2025-02-25T15:26:35Z</time>
      </trkpt>
      <trkpt lat="48.08864" lon="-3.5635">
        <ele>146</ele>
        <time>2025-02-25T15:26:36Z</time>
      </trkpt>
      <trkpt lat="48.08864" lon="-3.56351">
        <ele>145.8</ele>
        <time>2025-02-25T15:26:37Z</time>
      </trkpt>
      <trkpt lat="48.08865" lon="-3.56352">
        <ele>145.8</ele>
        <time>2025-02-25T15:26:38Z</time>
      </trkpt>
      <trkpt lat="48.08865" lon="-3.56354">
        <ele>145.5</ele>
        <time>2025-02-25T15:26:39Z</time>
      </trkpt>
      <trkpt lat="48.08866" lon="-3.56355">
        <ele>145.5</ele>
        <time>2025-02-25T15:26:40Z</time>
      </trkpt>
      <trkpt lat="48.08866" lon="-3.56356">
        <ele>145.4</ele>
        <time>2025-02-25T15:26:41Z</time>
      </trkpt>
      <trkpt lat="48.08867" lon="-3.56356">
        <ele>145.5</ele>
        <time>2025-02-25T15:26:42Z</time>
      </trkpt>
      <trkpt lat="48.08867" lon="-3.56357">
        <ele>145.4</ele>
        <time>2025-02-25T15:26:43Z</time>
      </trkpt>
      <trkpt lat="48.08868" lon="-3.56357">
        <ele>145.5</ele>
        <time>2025-02-25T15:26:44Z</time>
      </trkpt>
      <trkpt lat="48.08868" lon="-3.56356">
        <ele>145.7</ele>
        <time>2025-02-25T15:26:45Z</time>
      </trkpt>
      <trkpt lat="48.08867" lon="-3.56356">
        <ele>145.5</ele>
        <time>2025-02-25T15:26:46Z</time>
      </trkpt>
      <trkpt lat="48.08867" lon="-3.56356">
        <ele>145.5</ele>
        <time>2025-02-25T15:26:47Z</time>
      </trkpt>
      <trkpt lat="48.08868" lon="-3.56356">
        <ele>145.7</ele>
        <time>2025-02-25T15:26:48Z</time>
      </trkpt>
      <trkpt lat="48.08868" lon="-3.56356">
        <ele>145.7</ele>
        <time>2025-02-25T15:26:49Z</time>
      </trkpt>
      <trkpt lat="48.08868" lon="-3.56355">
        <ele>145.8</ele>
        <time>2025-02-25T15:26:50Z</time>
      </trkpt>
      <trkpt lat="48.08868" lon="-3.56355">
        <ele>145.8</ele>
        <time>2025-02-25T15:26:51Z</time>
      </trkpt>
      <trkpt lat="48.08868" lon="-3.56355">
        <ele>145.8</ele>
        <time>2025-02-25T15:26:52Z</time>
      </trkpt>
      <trkpt lat="48.08868" lon="-3.56355">
        <ele>145.8</ele>
        <time>2025-02-25T15:26:53Z</time>
      </trkpt>
      <trkpt lat="48.08868" lon="-3.56355">
        <ele>145.8</ele>
        <time>2025-02-25T15:26:54Z</time>
      </trkpt>
      <trkpt lat="48.08868" lon="-3.56355">
        <ele>145.8</ele>
        <time>2025-02-25T15:26:55Z</time>
      </trkpt>
      <trkpt lat="48.08868" lon="-3.56355">
        <ele>145.8</ele>
        <time>2025-02-25T15:26:56Z</time>
      </trkpt>
      <trkpt lat="48.08868" lon="-3.56355">
        <ele>145.8</ele>
        <time>2025-02-25T15:26:57Z</time>
      </trkpt>
      <trkpt lat="48.08868" lon="-3.56355">
        <ele>145.8</ele>
        <time>2025-02-25T15:26:58Z</time>
      </trkpt>
      <trkpt lat="48.08868" lon="-3.56355">
        <ele>145.8</ele>
        <time>2025-02-25T15:26:59Z</time>
      </trkpt>
      <trkpt lat="48.08868" lon="-3.56355">
        <ele>145.8</ele>
        <time>2025-02-25T15:27:00Z</time>
      </trkpt>
      <trkpt lat="48.08868" lon="-3.56355">
        <ele>145.8</ele>
        <time>2025-02-25T15:27:01Z</time>
      </trkpt>
      <trkpt lat="48.08868" lon="-3.56355">
        <ele>145.8</ele>
        <time>2025-02-25T15:27:02Z</time>
      </trkpt>
      <trkpt lat="48.08868" lon="-3.56355">
        <ele>145.8</ele>
        <time>2025-02-25T15:27:03Z</time>
      </trkpt>
      <trkpt lat="48.08868" lon="-3.56355">
        <ele>145.8</ele>
        <time>2025-02-25T15:27:04Z</time>
      </trkpt>
      <trkpt lat="48.08868" lon="-3.56355">
        <ele>145.8</ele>
        <time>2025-02-25T15:27:05Z</time>
      </trkpt>
      <trkpt lat="48.08868" lon="-3.56355">
        <ele>145.8</ele>
        <time>2025-02-25T15:27:06Z</time>
      </trkpt>
      <trkpt lat="48.08868" lon="-3.56355">
        <ele>145.8</ele>
        <time>2025-02-25T15:27:07Z</time>
      </trkpt>
      <trkpt lat="48.08868" lon="-3.56355">
        <ele>145.8</ele>
        <time>2025-02-25T15:27:08Z</time>
      </trkpt>
      <trkpt lat="48.08868" lon="-3.56355">
        <ele>145.8</ele>
        <time>2025-02-25T15:27:09Z</time>
      </trkpt>
      <trkpt lat="48.08868" lon="-3.56355">
        <ele>145.8</ele>
        <time>2025-02-25T15:27:10Z</time>
      </trkpt>
      <trkpt lat="48.08868" lon="-3.56355">
        <ele>145.8</ele>
        <time>2025-02-25T15:27:11Z</time>
      </trkpt>
      <trkpt lat="48.08868" lon="-3.56355">
        <ele>145.8</ele>
        <time>2025-02-25T15:27:12Z</time>
      </trkpt>
      <trkpt lat="48.08867" lon="-3.56355">
        <ele>145.7</ele>
        <time>2025-02-25T15:27:13Z</time>
      </trkpt>
      <trkpt lat="48.08867" lon="-3.56355">
        <ele>145.7</ele>
        <time>2025-02-25T15:27:14Z</time>
      </trkpt>
      <trkpt lat="48.08867" lon="-3.56355">
        <ele>145.7</ele>
        <time>2025-02-25T15:27:15Z</time>
      </trkpt>
      <trkpt lat="48.08867" lon="-3.56355">
        <ele>145.7</ele>
        <time>2025-02-25T15:27:16Z</time>
      </trkpt>
      <trkpt lat="48.08867" lon="-3.56355">
        <ele>145.7</ele>
        <time>2025-02-25T15:27:17Z</time>
      </trkpt>
      <trkpt lat="48.08867" lon="-3.56355">
        <ele>145.7</ele>
        <time>2025-02-25T15:27:18Z</time>
      </trkpt>
      <trkpt lat="48.08867" lon="-3.56355">
        <ele>145.7</ele>
        <time>2025-02-25T15:27:19Z</time>
      </trkpt>
      <trkpt lat="48.08867" lon="-3.56355">
        <ele>145.7</ele>
        <time>2025-02-25T15:27:20Z</time>
      </trkpt>
      <trkpt lat="48.08867" lon="-3.56355">
        <ele>145.7</ele>
        <time>2025-02-25T15:27:21Z</time>
      </trkpt>
      <trkpt lat="48.08868" lon="-3.56354">
        <ele>146</ele>
        <time>2025-02-25T15:27:22Z</time>
      </trkpt>
      <trkpt lat="48.08868" lon="-3.56353">
        <ele>146.1</ele>
        <time>2025-02-25T15:27:23Z</time>
      </trkpt>
      <trkpt lat="48.08868" lon="-3.56353">
        <ele>146.1</ele>
        <time>2025-02-25T15:27:24Z</time>
      </trkpt>
      <trkpt lat="48.08868" lon="-3.56354">
        <ele>146</ele>
        <time>2025-02-25T15:27:25Z</time>
      </trkpt>
      <trkpt lat="48.08868" lon="-3.56355">
        <ele>145.8</ele>
        <time>2025-02-25T15:27:26Z</time>
      </trkpt>
      <trkpt lat="48.08868" lon="-3.56356">
        <ele>145.7</ele>
        <time>2025-02-25T15:27:27Z</time>
      </trkpt>
      <trkpt lat="48.08869" lon="-3.56358">
        <ele>145.6</ele>
        <time>2025-02-25T15:27:28Z</time>
      </trkpt>
      <trkpt lat="48.08869" lon="-3.56358">
        <ele>145.6</ele>
        <time>2025-02-25T15:27:29Z</time>
      </trkpt>
      <trkpt lat="48.0887" lon="-3.56357">
        <ele>145.8</ele>
        <time>2025-02-25T15:27:30Z</time>
      </trkpt>
      <trkpt lat="48.0887" lon="-3.56357">
        <ele>145.8</ele>
        <time>2025-02-25T15:27:31Z</time>
      </trkpt>
      <trkpt lat="48.08871" lon="-3.56358">
        <ele>145.8</ele>
        <time>2025-02-25T15:27:32Z</time>
      </trkpt>
      <trkpt lat="48.08871" lon="-3.56358">
        <ele>145.8</ele>
        <time>2025-02-25T15:27:33Z</time>
      </trkpt>
      <trkpt lat="48.08871" lon="-3.56359">
        <ele>145.7</ele>
        <time>2025-02-25T15:27:34Z</time>
      </trkpt>
      <trkpt lat="48.08873" lon="-3.56359">
        <ele>146</ele>
        <time>2025-02-25T15:27:35Z</time>
      </trkpt>
      <trkpt lat="48.08873" lon="-3.56359">
        <ele>146</ele>
        <time>2025-02-25T15:27:36Z</time>
      </trkpt>
      <trkpt lat="48.08874" lon="-3.56359">
        <ele>146.1</ele>
        <time>2025-02-25T15:27:37Z</time>
      </trkpt>
      <trkpt lat="48.08874" lon="-3.56359">
        <ele>146.1</ele>
        <time>2025-02-25T15:27:38Z</time>
      </trkpt>
      <trkpt lat="48.08872" lon="-3.56359">
        <ele>145.8</ele>
        <time>2025-02-25T15:27:39Z</time>
      </trkpt>
      <trkpt lat="48.08872" lon="-3.56359">
        <ele>145.8</ele>
        <time>2025-02-25T15:27:40Z</time>
      </trkpt>
      <trkpt lat="48.08871" lon="-3.5636">
        <ele>145.6</ele>
        <time>2025-02-25T15:27:41Z</time>
      </trkpt>
      <trkpt lat="48.08871" lon="-3.5636">
        <ele>145.6</ele>
        <time>2025-02-25T15:27:42Z</time>
      </trkpt>
      <trkpt lat="48.08872" lon="-3.5636">
        <ele>145.7</ele>
        <time>2025-02-25T15:27:43Z</time>
      </trkpt>
      <trkpt lat="48.08872" lon="-3.5636">
        <ele>145.7</ele>
        <time>2025-02-25T15:27:44Z</time>
      </trkpt>
      <trkpt lat="48.08872" lon="-3.5636">
        <ele>145.7</ele>
        <time>2025-02-25T15:27:45Z</time>
      </trkpt>
      <trkpt lat="48.08872" lon="-3.5636">
        <ele>145.7</ele>
        <time>2025-02-25T15:27:46Z</time>
      </trkpt>
      <trkpt lat="48.08872" lon="-3.5636">
        <ele>145.7</ele>
        <time>2025-02-25T15:27:47Z</time>
      </trkpt>
      <trkpt lat="48.08872" lon="-3.5636">
        <ele>145.7</ele>
        <time>2025-02-25T15:27:48Z</time>
      </trkpt>
      <trkpt lat="48.08872" lon="-3.5636">
        <ele>145.7</ele>
        <time>2025-02-25T15:27:49Z</time>
      </trkpt>
      <trkpt lat="48.08873" lon="-3.5636">
        <ele>145.9</ele>
        <time>2025-02-25T15:27:50Z</time>
      </trkpt>
      <trkpt lat="48.08872" lon="-3.5636">
        <ele>145.7</ele>
        <time>2025-02-25T15:27:51Z</time>
      </trkpt>
      <trkpt lat="48.08872" lon="-3.56361">
        <ele>145.6</ele>
        <time>2025-02-25T15:27:52Z</time>
      </trkpt>
      <trkpt lat="48.08872" lon="-3.56362">
        <ele>145.5</ele>
        <time>2025-02-25T15:27:53Z</time>
      </trkpt>
      <trkpt lat="48.08872" lon="-3.56363">
        <ele>145.5</ele>
        <time>2025-02-25T15:27:54Z</time>
      </trkpt>
      <trkpt lat="48.08872" lon="-3.56362">
        <ele>145.5</ele>
        <time>2025-02-25T15:27:55Z</time>
      </trkpt>
      <trkpt lat="48.08873" lon="-3.56362">
        <ele>145.7</ele>
        <time>2025-02-25T15:27:56Z</time>
      </trkpt>
      <trkpt lat="48.08874" lon="-3.56362">
        <ele>145.8</ele>
        <time>2025-02-25T15:27:57Z</time>
      </trkpt>
      <trkpt lat="48.08874" lon="-3.56362">
        <ele>145.8</ele>
        <time>2025-02-25T15:27:58Z</time>
      </trkpt>
      <trkpt lat="48.08874" lon="-3.56362">
        <ele>145.8</ele>
        <time>2025-02-25T15:27:59Z</time>
      </trkpt>
      <trkpt lat="48.08874" lon="-3.56362">
        <ele>145.8</ele>
        <time>2025-02-25T15:28:00Z</time>
      </trkpt>
      <trkpt lat="48.08874" lon="-3.56362">
        <ele>145.8</ele>
        <time>2025-02-25T15:28:01Z</time>
      </trkpt>
      <trkpt lat="48.08874" lon="-3.56362">
        <ele>145.8</ele>
        <time>2025-02-25T15:28:02Z</time>
      </trkpt>
      <trkpt lat="48.08874" lon="-3.56362">
        <ele>145.8</ele>
        <time>2025-02-25T15:28:03Z</time>
      </trkpt>
      <trkpt lat="48.08874" lon="-3.56362">
        <ele>145.8</ele>
        <time>2025-02-25T15:28:04Z</time>
      </trkpt>
      <trkpt lat="48.08874" lon="-3.56362">
        <ele>145.8</ele>
        <time>2025-02-25T15:28:05Z</time>
      </trkpt>
      <trkpt lat="48.08874" lon="-3.56362">
        <ele>145.8</ele>
        <time>2025-02-25T15:28:06Z</time>
      </trkpt>
      <trkpt lat="48.08874" lon="-3.56362">
        <ele>145.8</ele>
        <time>2025-02-25T15:28:07Z</time>
      </trkpt>
      <trkpt lat="48.08874" lon="-3.56362">
        <ele>145.8</ele>
        <time>2025-02-25T15:28:08Z</time>
      </trkpt>
      <trkpt lat="48.08874" lon="-3.56362">
        <ele>145.8</ele>
        <time>2025-02-25T15:28:09Z</time>
      </trkpt>
      <trkpt lat="48.08874" lon="-3.56362">
        <ele>145.8</ele>
        <time>2025-02-25T15:28:10Z</time>
      </trkpt>
      <trkpt lat="48.08874" lon="-3.56362">
        <ele>145.8</ele>
        <time>2025-02-25T15:28:11Z</time>
      </trkpt>
      <trkpt lat="48.08874" lon="-3.56362">
        <ele>145.8</ele>
        <time>2025-02-25T15:28:12Z</time>
      </trkpt>
      <trkpt lat="48.08874" lon="-3.56362">
        <ele>145.8</ele>
        <time>2025-02-25T15:28:13Z</time>
      </trkpt>
      <trkpt lat="48.08874" lon="-3.56362">
        <ele>145.8</ele>
        <time>2025-02-25T15:28:14Z</time>
      </trkpt>
      <trkpt lat="48.08874" lon="-3.56362">
        <ele>145.8</ele>
        <time>2025-02-25T15:28:15Z</time>
      </trkpt>
      <trkpt lat="48.08874" lon="-3.56362">
        <ele>145.8</ele>
        <time>2025-02-25T15:28:16Z</time>
      </trkpt>
      <trkpt lat="48.08874" lon="-3.56362">
        <ele>145.8</ele>
        <time>2025-02-25T15:28:17Z</time>
      </trkpt>
      <trkpt lat="48.08874" lon="-3.56362">
        <ele>145.8</ele>
        <time>2025-02-25T15:28:18Z</time>
      </trkpt>
      <trkpt lat="48.08874" lon="-3.56362">
        <ele>145.8</ele>
        <time>2025-02-25T15:28:19Z</time>
      </trkpt>
      <trkpt lat="48.08874" lon="-3.56362">
        <ele>145.8</ele>
        <time>2025-02-25T15:28:20Z</time>
      </trkpt>
      <trkpt lat="48.08874" lon="-3.56362">
        <ele>145.8</ele>
        <time>2025-02-25T15:28:21Z</time>
      </trkpt>
      <trkpt lat="48.08874" lon="-3.56362">
        <ele>145.8</ele>
        <time>2025-02-25T15:28:22Z</time>
      </trkpt>
      <trkpt lat="48.08874" lon="-3.56362">
        <ele>145.8</ele>
        <time>2025-02-25T15:28:23Z</time>
      </trkpt>
      <trkpt lat="48.08874" lon="-3.56362">
        <ele>145.8</ele>
        <time>2025-02-25T15:28:24Z</time>
      </trkpt>
      <trkpt lat="48.08874" lon="-3.56362">
        <ele>145.8</ele>
        <time>2025-02-25T15:28:25Z</time>
      </trkpt>
      <trkpt lat="48.08874" lon="-3.56362">
        <ele>145.8</ele>
        <time>2025-02-25T15:28:26Z</time>
      </trkpt>
      <trkpt lat="48.08874" lon="-3.56362">
        <ele>145.8</ele>
        <time>2025-02-25T15:28:27Z</time>
      </trkpt>
      <trkpt lat="48.08874" lon="-3.56362">
        <ele>145.8</ele>
        <time>2025-02-25T15:28:28Z</time>
      </trkpt>
      <trkpt lat="48.08874" lon="-3.56362">
        <ele>145.8</ele>
        <time>2025-02-25T15:28:29Z</time>
      </trkpt>
      <trkpt lat="48.08874" lon="-3.56362">
        <ele>145.8</ele>
        <time>2025-02-25T15:28:30Z</time>
      </trkpt>
      <trkpt lat="48.08874" lon="-3.56362">
        <ele>145.8</ele>
        <time>2025-02-25T15:28:31Z</time>
      </trkpt>
      <trkpt lat="48.08874" lon="-3.56362">
        <ele>145.8</ele>
        <time>2025-02-25T15:28:32Z</time>
      </trkpt>
      <trkpt lat="48.08874" lon="-3.56362">
        <ele>145.8</ele>
        <time>2025-02-25T15:28:33Z</time>
      </trkpt>
      <trkpt lat="48.08874" lon="-3.56362">
        <ele>145.8</ele>
        <time>2025-02-25T15:28:34Z</time>
      </trkpt>
      <trkpt lat="48.08874" lon="-3.56362">
        <ele>145.8</ele>
        <time>2025-02-25T15:28:35Z</time>
      </trkpt>
      <trkpt lat="48.08873" lon="-3.56361">
        <ele>145.7</ele>
        <time>2025-02-25T15:28:36Z</time>
      </trkpt>
      <trkpt lat="48.08873" lon="-3.56362">
        <ele>145.7</ele>
        <time>2025-02-25T15:28:37Z</time>
      </trkpt>
      <trkpt lat="48.08872" lon="-3.56362">
        <ele>145.5</ele>
        <time>2025-02-25T15:28:38Z</time>
      </trkpt>
      <trkpt lat="48.08872" lon="-3.56362">
        <ele>145.5</ele>
        <time>2025-02-25T15:28:39Z</time>
      </trkpt>
      <trkpt lat="48.08872" lon="-3.56362">
        <ele>145.5</ele>
        <time>2025-02-25T15:28:40Z</time>
      </trkpt>
      <trkpt lat="48.08872" lon="-3.56362">
        <ele>145.5</ele>
        <time>2025-02-25T15:28:41Z</time>
      </trkpt>
      <trkpt lat="48.08872" lon="-3.56362">
        <ele>145.5</ele>
        <time>2025-02-25T15:28:42Z</time>
      </trkpt>
      <trkpt lat="48.08872" lon="-3.56361">
        <ele>145.6</ele>
        <time>2025-02-25T15:28:43Z</time>
      </trkpt>
      <trkpt lat="48.08872" lon="-3.56361">
        <ele>145.6</ele>
        <time>2025-02-25T15:28:44Z</time>
      </trkpt>
      <trkpt lat="48.08872" lon="-3.56361">
        <ele>145.6</ele>
        <time>2025-02-25T15:28:45Z</time>
      </trkpt>
      <trkpt lat="48.08872" lon="-3.56361">
        <ele>145.6</ele>
        <time>2025-02-25T15:28:46Z</time>
      </trkpt>
      <trkpt lat="48.08873" lon="-3.56361">
        <ele>145.7</ele>
        <time>2025-02-25T15:28:47Z</time>
      </trkpt>
      <trkpt lat="48.08873" lon="-3.5636">
        <ele>145.9</ele>
        <time>2025-02-25T15:28:48Z</time>
      </trkpt>
      <trkpt lat="48.08873" lon="-3.5636">
        <ele>145.9</ele>
        <time>2025-02-25T15:28:49Z</time>
      </trkpt>
      <trkpt lat="48.08873" lon="-3.56359">
        <ele>146</ele>
        <time>2025-02-25T15:28:50Z</time>
      </trkpt>
      <trkpt lat="48.08873" lon="-3.56359">
        <ele>146</ele>
        <time>2025-02-25T15:28:51Z</time>
      </trkpt>
      <trkpt lat="48.08873" lon="-3.56359">
        <ele>146</ele>
        <time>2025-02-25T15:28:52Z</time>
      </trkpt>
      <trkpt lat="48.08873" lon="-3.56359">
        <ele>146</ele>
        <time>2025-02-25T15:28:53Z</time>
      </trkpt>
      <trkpt lat="48.08873" lon="-3.56359">
        <ele>146</ele>
        <time>2025-02-25T15:28:54Z</time>
      </trkpt>
      <trkpt lat="48.08873" lon="-3.56359">
        <ele>146</ele>
        <time>2025-02-25T15:28:55Z</time>
      </trkpt>
      <trkpt lat="48.08873" lon="-3.56359">
        <ele>146</ele>
        <time>2025-02-25T15:28:56Z</time>
      </trkpt>
      <trkpt lat="48.08873" lon="-3.56359">
        <ele>146</ele>
        <time>2025-02-25T15:28:57Z</time>
      </trkpt>
      <trkpt lat="48.08873" lon="-3.56359">
        <ele>146</ele>
        <time>2025-02-25T15:28:58Z</time>
      </trkpt>
      <trkpt lat="48.08873" lon="-3.56359">
        <ele>146</ele>
        <time>2025-02-25T15:28:59Z</time>
      </trkpt>
      <trkpt lat="48.08873" lon="-3.56359">
        <ele>146</ele>
        <time>2025-02-25T15:29:00Z</time>
      </trkpt>
      <trkpt lat="48.08873" lon="-3.56359">
        <ele>146</ele>
        <time>2025-02-25T15:29:01Z</time>
      </trkpt>
      <trkpt lat="48.08873" lon="-3.56359">
        <ele>146</ele>
        <time>2025-02-25T15:29:02Z</time>
      </trkpt>
      <trkpt lat="48.08873" lon="-3.56359">
        <ele>146</ele>
        <time>2025-02-25T15:29:03Z</time>
      </trkpt>
      <trkpt lat="48.08873" lon="-3.56359">
        <ele>146</ele>
        <time>2025-02-25T15:29:04Z</time>
      </trkpt>
      <trkpt lat="48.08873" lon="-3.56359">
        <ele>146</ele>
        <time>2025-02-25T15:29:05Z</time>
      </trkpt>
      <trkpt lat="48.08873" lon="-3.56359">
        <ele>146</ele>
        <time>2025-02-25T15:29:06Z</time>
      </trkpt>
      <trkpt lat="48.08873" lon="-3.56359">
        <ele>146</ele>
        <time>2025-02-25T15:29:07Z</time>
      </trkpt>
      <trkpt lat="48.08873" lon="-3.56358">
        <ele>146.1</ele>
        <time>2025-02-25T15:29:08Z</time>
      </trkpt>
      <trkpt lat="48.08873" lon="-3.56358">
        <ele>146.1</ele>
        <time>2025-02-25T15:29:09Z</time>
      </trkpt>
      <trkpt lat="48.08873" lon="-3.56358">
        <ele>146.1</ele>
        <time>2025-02-25T15:29:10Z</time>
      </trkpt>
      <trkpt lat="48.08873" lon="-3.56358">
        <ele>146.1</ele>
        <time>2025-02-25T15:29:11Z</time>
      </trkpt>
      <trkpt lat="48.08873" lon="-3.56358">
        <ele>146.1</ele>
        <time>2025-02-25T15:29:12Z</time>
      </trkpt>
      <trkpt lat="48.08873" lon="-3.56358">
        <ele>146.1</ele>
        <time>2025-02-25T15:29:13Z</time>
      </trkpt>
      <trkpt lat="48.08873" lon="-3.56358">
        <ele>146.1</ele>
        <time>2025-02-25T15:29:14Z</time>
      </trkpt>
      <trkpt lat="48.08873" lon="-3.56358">
        <ele>146.1</ele>
        <time>2025-02-25T15:29:15Z</time>
      </trkpt>
      <trkpt lat="48.08873" lon="-3.56358">
        <ele>146.1</ele>
        <time>2025-02-25T15:29:16Z</time>
      </trkpt>
      <trkpt lat="48.08873" lon="-3.56358">
        <ele>146.1</ele>
        <time>2025-02-25T15:29:17Z</time>
      </trkpt>
      <trkpt lat="48.08873" lon="-3.56358">
        <ele>146.1</ele>
        <time>2025-02-25T15:29:18Z</time>
      </trkpt>
      <trkpt lat="48.08873" lon="-3.56358">
        <ele>146.1</ele>
        <time>2025-02-25T15:29:19Z</time>
      </trkpt>
      <trkpt lat="48.08873" lon="-3.56358">
        <ele>146.1</ele>
        <time>2025-02-25T15:29:20Z</time>
      </trkpt>
      <trkpt lat="48.08873" lon="-3.56358">
        <ele>146.1</ele>
        <time>2025-02-25T15:29:21Z</time>
      </trkpt>
      <trkpt lat="48.08873" lon="-3.56358">
        <ele>146.1</ele>
        <time>2025-02-25T15:29:22Z</time>
      </trkpt>
      <trkpt lat="48.08873" lon="-3.56358">
        <ele>146.1</ele>
        <time>2025-02-25T15:29:23Z</time>
      </trkpt>
      <trkpt lat="48.08873" lon="-3.56358">
        <ele>146.1</ele>
        <time>2025-02-25T15:29:24Z</time>
      </trkpt>
      <trkpt lat="48.08873" lon="-3.56358">
        <ele>146.1</ele>
        <time>2025-02-25T15:29:25Z</time>
      </trkpt>
      <trkpt lat="48.08873" lon="-3.56358">
        <ele>146.1</ele>
        <time>2025-02-25T15:29:26Z</time>
      </trkpt>
      <trkpt lat="48.08873" lon="-3.56358">
        <ele>146.1</ele>
        <time>2025-02-25T15:29:27Z</time>
      </trkpt>
      <trkpt lat="48.08873" lon="-3.56358">
        <ele>146.1</ele>
        <time>2025-02-25T15:29:28Z</time>
      </trkpt>
      <trkpt lat="48.08873" lon="-3.56358">
        <ele>146.1</ele>
        <time>2025-02-25T15:29:29Z</time>
      </trkpt>
      <trkpt lat="48.08873" lon="-3.56358">
        <ele>146.1</ele>
        <time>2025-02-25T15:29:30Z</time>
      </trkpt>
      <trkpt lat="48.08873" lon="-3.56358">
        <ele>146.1</ele>
        <time>2025-02-25T15:29:31Z</time>
      </trkpt>
      <trkpt lat="48.08873" lon="-3.56358">
        <ele>146.1</ele>
        <time>2025-02-25T15:29:32Z</time>
      </trkpt>
      <trkpt lat="48.08873" lon="-3.56359">
        <ele>146</ele>
        <time>2025-02-25T15:29:33Z</time>
      </trkpt>
      <trkpt lat="48.08873" lon="-3.5636">
        <ele>145.9</ele>
        <time>2025-02-25T15:29:34Z</time>
      </trkpt>
      <trkpt lat="48.08873" lon="-3.56362">
        <ele>145.7</ele>
        <time>2025-02-25T15:29:35Z</time>
      </trkpt>
      <trkpt lat="48.08874" lon="-3.56363">
        <ele>145.8</ele>
        <time>2025-02-25T15:29:36Z</time>
      </trkpt>
      <trkpt lat="48.08875" lon="-3.56364">
        <ele>145.8</ele>
        <time>2025-02-25T15:29:37Z</time>
      </trkpt>
      <trkpt lat="48.08876" lon="-3.56365">
        <ele>145.9</ele>
        <time>2025-02-25T15:29:38Z</time>
      </trkpt>
      <trkpt lat="48.08877" lon="-3.56366">
        <ele>146</ele>
        <time>2025-02-25T15:29:39Z</time>
      </trkpt>
      <trkpt lat="48.08877" lon="-3.56367">
        <ele>145.9</ele>
        <time>2025-02-25T15:29:40Z</time>
      </trkpt>
      <trkpt lat="48.08878" lon="-3.56368">
        <ele>146</ele>
        <time>2025-02-25T15:29:41Z</time>
      </trkpt>
      <trkpt lat="48.08878" lon="-3.56369">
        <ele>145.9</ele>
        <time>2025-02-25T15:29:42Z</time>
      </trkpt>
      <trkpt lat="48.08879" lon="-3.5637">
        <ele>146</ele>
        <time>2025-02-25T15:29:43Z</time>
      </trkpt>
      <trkpt lat="48.08879" lon="-3.56371">
        <ele>145.9</ele>
        <time>2025-02-25T15:29:44Z</time>
      </trkpt>
      <trkpt lat="48.08879" lon="-3.56373">
        <ele>145.7</ele>
        <time>2025-02-25T15:29:45Z</time>
      </trkpt>
      <trkpt lat="48.08879" lon="-3.56374">
        <ele>145.7</ele>
        <time>2025-02-25T15:29:46Z</time>
      </trkpt>
      <trkpt lat="48.0888" lon="-3.56375">
        <ele>145.7</ele>
        <time>2025-02-25T15:29:47Z</time>
      </trkpt>
      <trkpt lat="48.08881" lon="-3.56375">
        <ele>145.8</ele>
        <time>2025-02-25T15:29:48Z</time>
      </trkpt>
      <trkpt lat="48.08881" lon="-3.56377">
        <ele>145.6</ele>
        <time>2025-02-25T15:29:49Z</time>
      </trkpt>
      <trkpt lat="48.08881" lon="-3.56378">
        <ele>145.6</ele>
        <time>2025-02-25T15:29:50Z</time>
      </trkpt>
      <trkpt lat="48.08881" lon="-3.56379">
        <ele>145.5</ele>
        <time>2025-02-25T15:29:51Z</time>
      </trkpt>
      <trkpt lat="48.08882" lon="-3.56379">
        <ele>145.6</ele>
        <time>2025-02-25T15:29:52Z</time>
      </trkpt>
      <trkpt lat="48.08882" lon="-3.5638">
        <ele>145.5</ele>
        <time>2025-02-25T15:29:53Z</time>
      </trkpt>
      <trkpt lat="48.08884" lon="-3.56381">
        <ele>145.5</ele>
        <time>2025-02-25T15:29:54Z</time>
      </trkpt>
      <trkpt lat="48.08884" lon="-3.56382">
        <ele>145.4</ele>
        <time>2025-02-25T15:29:55Z</time>
      </trkpt>
      <trkpt lat="48.08886" lon="-3.56382">
        <ele>145.6</ele>
        <time>2025-02-25T15:29:56Z</time>
      </trkpt>
      <trkpt lat="48.08886" lon="-3.56382">
        <ele>145.6</ele>
        <time>2025-02-25T15:29:57Z</time>
      </trkpt>
      <trkpt lat="48.08887" lon="-3.56384">
        <ele>145.4</ele>
        <time>2025-02-25T15:29:58Z</time>
      </trkpt>
      <trkpt lat="48.08887" lon="-3.56384">
        <ele>145.4</ele>
        <time>2025-02-25T15:29:59Z</time>
      </trkpt>
      <trkpt lat="48.08888" lon="-3.56385">
        <ele>145.4</ele>
        <time>2025-02-25T15:30:00Z</time>
      </trkpt>
      <trkpt lat="48.08888" lon="-3.56386">
        <ele>145.3</ele>
        <time>2025-02-25T15:30:01Z</time>
      </trkpt>
      <trkpt lat="48.08889" lon="-3.56386">
        <ele>145.3</ele>
        <time>2025-02-25T15:30:02Z</time>
      </trkpt>
      <trkpt lat="48.08891" lon="-3.56386">
        <ele>145.7</ele>
        <time>2025-02-25T15:30:03Z</time>
      </trkpt>
      <trkpt lat="48.08891" lon="-3.56387">
        <ele>145.6</ele>
        <time>2025-02-25T15:30:04Z</time>
      </trkpt>
      <trkpt lat="48.08892" lon="-3.56387">
        <ele>145.8</ele>
        <time>2025-02-25T15:30:05Z</time>
      </trkpt>
      <trkpt lat="48.08893" lon="-3.56388">
        <ele>145.8</ele>
        <time>2025-02-25T15:30:06Z</time>
      </trkpt>
      <trkpt lat="48.08894" lon="-3.56389">
        <ele>145.9</ele>
        <time>2025-02-25T15:30:07Z</time>
      </trkpt>
      <trkpt lat="48.08895" lon="-3.56389">
        <ele>146.1</ele>
        <time>2025-02-25T15:30:08Z</time>
      </trkpt>
      <trkpt lat="48.08896" lon="-3.56389">
        <ele>146.3</ele>
        <time>2025-02-25T15:30:09Z</time>
      </trkpt>
      <trkpt lat="48.08897" lon="-3.5639">
        <ele>146.4</ele>
        <time>2025-02-25T15:30:10Z</time>
      </trkpt>
      <trkpt lat="48.08898" lon="-3.56391">
        <ele>146.6</ele>
        <time>2025-02-25T15:30:11Z</time>
      </trkpt>
      <trkpt lat="48.08899" lon="-3.56391">
        <ele>146.8</ele>
        <time>2025-02-25T15:30:12Z</time>
      </trkpt>
      <trkpt lat="48.089" lon="-3.56392">
        <ele>146.9</ele>
        <time>2025-02-25T15:30:13Z</time>
      </trkpt>
      <trkpt lat="48.08901" lon="-3.56392">
        <ele>147.1</ele>
        <time>2025-02-25T15:30:14Z</time>
      </trkpt>
      <trkpt lat="48.08902" lon="-3.56393">
        <ele>147.2</ele>
        <time>2025-02-25T15:30:15Z</time>
      </trkpt>
      <trkpt lat="48.08903" lon="-3.56394">
        <ele>147.4</ele>
        <time>2025-02-25T15:30:16Z</time>
      </trkpt>
      <trkpt lat="48.08904" lon="-3.56394">
        <ele>147.5</ele>
        <time>2025-02-25T15:30:17Z</time>
      </trkpt>
      <trkpt lat="48.08905" lon="-3.56394">
        <ele>147.7</ele>
        <time>2025-02-25T15:30:18Z</time>
      </trkpt>
      <trkpt lat="48.08906" lon="-3.56395">
        <ele>147.8</ele>
        <time>2025-02-25T15:30:19Z</time>
      </trkpt>
      <trkpt lat="48.08907" lon="-3.56395">
        <ele>148</ele>
        <time>2025-02-25T15:30:20Z</time>
      </trkpt>
      <trkpt lat="48.08908" lon="-3.56396">
        <ele>148.1</ele>
        <time>2025-02-25T15:30:21Z</time>
      </trkpt>
      <trkpt lat="48.08909" lon="-3.56396">
        <ele>148.2</ele>
        <time>2025-02-25T15:30:22Z</time>
      </trkpt>
      <trkpt lat="48.0891" lon="-3.56396">
        <ele>148.4</ele>
        <time>2025-02-25T15:30:23Z</time>
      </trkpt>
      <trkpt lat="48.08911" lon="-3.56396">
        <ele>148.6</ele>
        <time>2025-02-25T15:30:24Z</time>
      </trkpt>
      <trkpt lat="48.08911" lon="-3.56397">
        <ele>148.5</ele>
        <time>2025-02-25T15:30:25Z</time>
      </trkpt>
      <trkpt lat="48.08912" lon="-3.56398">
        <ele>148.6</ele>
        <time>2025-02-25T15:30:26Z</time>
      </trkpt>
      <trkpt lat="48.08913" lon="-3.56398">
        <ele>148.8</ele>
        <time>2025-02-25T15:30:27Z</time>
      </trkpt>
      <trkpt lat="48.08914" lon="-3.56398">
        <ele>148.9</ele>
        <time>2025-02-25T15:30:28Z</time>
      </trkpt>
      <trkpt lat="48.08915" lon="-3.56399">
        <ele>149</ele>
        <time>2025-02-25T15:30:29Z</time>
      </trkpt>
      <trkpt lat="48.08916" lon="-3.564">
        <ele>149.1</ele>
        <time>2025-02-25T15:30:30Z</time>
      </trkpt>
      <trkpt lat="48.08917" lon="-3.56401">
        <ele>149.2</ele>
        <time>2025-02-25T15:30:31Z</time>
      </trkpt>
      <trkpt lat="48.08918" lon="-3.56401">
        <ele>149.3</ele>
        <time>2025-02-25T15:30:32Z</time>
      </trkpt>
      <trkpt lat="48.08919" lon="-3.56402">
        <ele>149.3</ele>
        <time>2025-02-25T15:30:33Z</time>
      </trkpt>
      <trkpt lat="48.0892" lon="-3.56403">
        <ele>149.3</ele>
        <time>2025-02-25T15:30:34Z</time>
      </trkpt>
      <trkpt lat="48.08921" lon="-3.56404">
        <ele>149.4</ele>
        <time>2025-02-25T15:30:35Z</time>
      </trkpt>
      <trkpt lat="48.08922" lon="-3.56404">
        <ele>149.5</ele>
        <time>2025-02-25T15:30:36Z</time>
      </trkpt>
      <trkpt lat="48.08923" lon="-3.56404">
        <ele>149.6</ele>
        <time>2025-02-25T15:30:37Z</time>
      </trkpt>
      <trkpt lat="48.08924" lon="-3.56406">
        <ele>149.6</ele>
        <time>2025-02-25T15:30:38Z</time>
      </trkpt>
      <trkpt lat="48.08925" lon="-3.56406">
        <ele>149.7</ele>
        <time>2025-02-25T15:30:39Z</time>
      </trkpt>
      <trkpt lat="48.08926" lon="-3.56407">
        <ele>149.7</ele>
        <time>2025-02-25T15:30:40Z</time>
      </trkpt>
      <trkpt lat="48.08927" lon="-3.56407">
        <ele>149.8</ele>
        <time>2025-02-25T15:30:41Z</time>
      </trkpt>
      <trkpt lat="48.08927" lon="-3.56408">
        <ele>149.7</ele>
        <time>2025-02-25T15:30:42Z</time>
      </trkpt>
      <trkpt lat="48.08928" lon="-3.56408">
        <ele>149.8</ele>
        <time>2025-02-25T15:30:43Z</time>
      </trkpt>
      <trkpt lat="48.08929" lon="-3.56409">
        <ele>149.9</ele>
        <time>2025-02-25T15:30:44Z</time>
      </trkpt>
      <trkpt lat="48.0893" lon="-3.56409">
        <ele>150</ele>
        <time>2025-02-25T15:30:45Z</time>
      </trkpt>
      <trkpt lat="48.08931" lon="-3.5641">
        <ele>150</ele>
        <time>2025-02-25T15:30:46Z</time>
      </trkpt>
      <trkpt lat="48.08932" lon="-3.5641">
        <ele>150.1</ele>
        <time>2025-02-25T15:30:47Z</time>
      </trkpt>
      <trkpt lat="48.08932" lon="-3.5641">
        <ele>150.1</ele>
        <time>2025-02-25T15:30:48Z</time>
      </trkpt>
      <trkpt lat="48.08933" lon="-3.5641">
        <ele>150.2</ele>
        <time>2025-02-25T15:30:49Z</time>
      </trkpt>
      <trkpt lat="48.08933" lon="-3.56412">
        <ele>150.1</ele>
        <time>2025-02-25T15:30:50Z</time>
      </trkpt>
      <trkpt lat="48.08934" lon="-3.56412">
        <ele>150.2</ele>
        <time>2025-02-25T15:30:51Z</time>
      </trkpt>
      <trkpt lat="48.08935" lon="-3.56412">
        <ele>150.3</ele>
        <time>2025-02-25T15:30:52Z</time>
      </trkpt>
      <trkpt lat="48.08936" lon="-3.56413">
        <ele>150.4</ele>
        <time>2025-02-25T15:30:53Z</time>
      </trkpt>
      <trkpt lat="48.08937" lon="-3.56414">
        <ele>150.4</ele>
        <time>2025-02-25T15:30:54Z</time>
      </trkpt>
      <trkpt lat="48.08938" lon="-3.56415">
        <ele>150.4</ele>
        <time>2025-02-25T15:30:55Z</time>
      </trkpt>
      <trkpt lat="48.08939" lon="-3.56415">
        <ele>150.5</ele>
        <time>2025-02-25T15:30:56Z</time>
      </trkpt>
      <trkpt lat="48.08939" lon="-3.56416">
        <ele>150.5</ele>
        <time>2025-02-25T15:30:57Z</time>
      </trkpt>
      <trkpt lat="48.0894" lon="-3.56416">
        <ele>150.6</ele>
        <time>2025-02-25T15:30:58Z</time>
      </trkpt>
      <trkpt lat="48.08941" lon="-3.56417">
        <ele>150.6</ele>
        <time>2025-02-25T15:30:59Z</time>
      </trkpt>
      <trkpt lat="48.08942" lon="-3.56417">
        <ele>150.7</ele>
        <time>2025-02-25T15:31:00Z</time>
      </trkpt>
      <trkpt lat="48.08942" lon="-3.56418">
        <ele>150.7</ele>
        <time>2025-02-25T15:31:01Z</time>
      </trkpt>
      <trkpt lat="48.08943" lon="-3.56419">
        <ele>150.8</ele>
        <time>2025-02-25T15:31:02Z</time>
      </trkpt>
      <trkpt lat="48.08944" lon="-3.5642">
        <ele>151</ele>
        <time>2025-02-25T15:31:03Z</time>
      </trkpt>
      <trkpt lat="48.08945" lon="-3.5642">
        <ele>151</ele>
        <time>2025-02-25T15:31:04Z</time>
      </trkpt>
      <trkpt lat="48.08946" lon="-3.5642">
        <ele>151.1</ele>
        <time>2025-02-25T15:31:05Z</time>
      </trkpt>
      <trkpt lat="48.08946" lon="-3.56421">
        <ele>151.1</ele>
        <time>2025-02-25T15:31:06Z</time>
      </trkpt>
      <trkpt lat="48.08947" lon="-3.56422">
        <ele>151.2</ele>
        <time>2025-02-25T15:31:07Z</time>
      </trkpt>
      <trkpt lat="48.08948" lon="-3.56422">
        <ele>151.3</ele>
        <time>2025-02-25T15:31:08Z</time>
      </trkpt>
      <trkpt lat="48.08949" lon="-3.56422">
        <ele>151.3</ele>
        <time>2025-02-25T15:31:09Z</time>
      </trkpt>
      <trkpt lat="48.0895" lon="-3.56423">
        <ele>151.4</ele>
        <time>2025-02-25T15:31:10Z</time>
      </trkpt>
      <trkpt lat="48.08951" lon="-3.56423">
        <ele>151.5</ele>
        <time>2025-02-25T15:31:11Z</time>
      </trkpt>
      <trkpt lat="48.08952" lon="-3.56424">
        <ele>151.5</ele>
        <time>2025-02-25T15:31:12Z</time>
      </trkpt>
      <trkpt lat="48.08953" lon="-3.56425">
        <ele>151.6</ele>
        <time>2025-02-25T15:31:13Z</time>
      </trkpt>
      <trkpt lat="48.08954" lon="-3.56425">
        <ele>151.7</ele>
        <time>2025-02-25T15:31:14Z</time>
      </trkpt>
      <trkpt lat="48.08955" lon="-3.56426">
        <ele>151.8</ele>
        <time>2025-02-25T15:31:15Z</time>
      </trkpt>
      <trkpt lat="48.08956" lon="-3.56426">
        <ele>151.8</ele>
        <time>2025-02-25T15:31:16Z</time>
      </trkpt>
      <trkpt lat="48.08956" lon="-3.56426">
        <ele>151.8</ele>
        <time>2025-02-25T15:31:17Z</time>
      </trkpt>
      <trkpt lat="48.08957" lon="-3.56426">
        <ele>151.9</ele>
        <time>2025-02-25T15:31:18Z</time>
      </trkpt>
      <trkpt lat="48.08958" lon="-3.56427">
        <ele>152</ele>
        <time>2025-02-25T15:31:19Z</time>
      </trkpt>
      <trkpt lat="48.08959" lon="-3.56427">
        <ele>152</ele>
        <time>2025-02-25T15:31:20Z</time>
      </trkpt>
      <trkpt lat="48.0896" lon="-3.56427">
        <ele>152.1</ele>
        <time>2025-02-25T15:31:21Z</time>
      </trkpt>
      <trkpt lat="48.08961" lon="-3.56426">
        <ele>152.2</ele>
        <time>2025-02-25T15:31:22Z</time>
      </trkpt>
      <trkpt lat="48.08962" lon="-3.56426">
        <ele>152.3</ele>
        <time>2025-02-25T15:31:23Z</time>
      </trkpt>
      <trkpt lat="48.08962" lon="-3.56426">
        <ele>152.3</ele>
        <time>2025-02-25T15:31:24Z</time>
      </trkpt>
      <trkpt lat="48.08963" lon="-3.56425">
        <ele>152.3</ele>
        <time>2025-02-25T15:31:25Z</time>
      </trkpt>
      <trkpt lat="48.08963" lon="-3.56423">
        <ele>152.3</ele>
        <time>2025-02-25T15:31:26Z</time>
      </trkpt>
      <trkpt lat="48.08963" lon="-3.56422">
        <ele>152.3</ele>
        <time>2025-02-25T15:31:27Z</time>
      </trkpt>
      <trkpt lat="48.08963" lon="-3.56421">
        <ele>152.3</ele>
        <time>2025-02-25T15:31:28Z</time>
      </trkpt>
      <trkpt lat="48.08964" lon="-3.5642">
        <ele>152.4</ele>
        <time>2025-02-25T15:31:29Z</time>
      </trkpt>
      <trkpt lat="48.08965" lon="-3.5642">
        <ele>152.5</ele>
        <time>2025-02-25T15:31:30Z</time>
      </trkpt>
      <trkpt lat="48.08966" lon="-3.5642">
        <ele>152.6</ele>
        <time>2025-02-25T15:31:31Z</time>
      </trkpt>
      <trkpt lat="48.08967" lon="-3.56418">
        <ele>152.6</ele>
        <time>2025-02-25T15:31:32Z</time>
      </trkpt>
      <trkpt lat="48.08966" lon="-3.56416">
        <ele>152.6</ele>
        <time>2025-02-25T15:31:33Z</time>
      </trkpt>
      <trkpt lat="48.08966" lon="-3.56415">
        <ele>152.6</ele>
        <time>2025-02-25T15:31:34Z</time>
      </trkpt>
      <trkpt lat="48.08965" lon="-3.56414">
        <ele>152.6</ele>
        <time>2025-02-25T15:31:35Z</time>
      </trkpt>
      <trkpt lat="48.08965" lon="-3.56413">
        <ele>152.6</ele>
        <time>2025-02-25T15:31:36Z</time>
      </trkpt>
      <trkpt lat="48.08965" lon="-3.56412">
        <ele>152.7</ele>
        <time>2025-02-25T15:31:37Z</time>
      </trkpt>
      <trkpt lat="48.08965" lon="-3.56411">
        <ele>152.7</ele>
        <time>2025-02-25T15:31:38Z</time>
      </trkpt>
      <trkpt lat="48.08965" lon="-3.56409">
        <ele>152.8</ele>
        <time>2025-02-25T15:31:39Z</time>
      </trkpt>
      <trkpt lat="48.08964" lon="-3.56408">
        <ele>152.8</ele>
        <time>2025-02-25T15:31:40Z</time>
      </trkpt>
      <trkpt lat="48.08964" lon="-3.56406">
        <ele>152.9</ele>
        <time>2025-02-25T15:31:41Z</time>
      </trkpt>
      <trkpt lat="48.08964" lon="-3.56405">
        <ele>153</ele>
        <time>2025-02-25T15:31:42Z</time>
      </trkpt>
      <trkpt lat="48.08963" lon="-3.56404">
        <ele>152.9</ele>
        <time>2025-02-25T15:31:43Z</time>
      </trkpt>
      <trkpt lat="48.08963" lon="-3.56403">
        <ele>153</ele>
        <time>2025-02-25T15:31:44Z</time>
      </trkpt>
      <trkpt lat="48.08963" lon="-3.56401">
        <ele>153.1</ele>
        <time>2025-02-25T15:31:45Z</time>
      </trkpt>
      <trkpt lat="48.08963" lon="-3.564">
        <ele>153.1</ele>
        <time>2025-02-25T15:31:46Z</time>
      </trkpt>
      <trkpt lat="48.08963" lon="-3.56398">
        <ele>153.2</ele>
        <time>2025-02-25T15:31:47Z</time>
      </trkpt>
      <trkpt lat="48.08963" lon="-3.56397">
        <ele>153.3</ele>
        <time>2025-02-25T15:31:48Z</time>
      </trkpt>
      <trkpt lat="48.08963" lon="-3.56395">
        <ele>153.4</ele>
        <time>2025-02-25T15:31:49Z</time>
      </trkpt>
      <trkpt lat="48.08962" lon="-3.56394">
        <ele>153.4</ele>
        <time>2025-02-25T15:31:50Z</time>
      </trkpt>
      <trkpt lat="48.08962" lon="-3.56392">
        <ele>153.5</ele>
        <time>2025-02-25T15:31:51Z</time>
      </trkpt>
      <trkpt lat="48.08961" lon="-3.56391">
        <ele>153.5</ele>
        <time>2025-02-25T15:31:52Z</time>
      </trkpt>
      <trkpt lat="48.08961" lon="-3.56389">
        <ele>153.6</ele>
        <time>2025-02-25T15:31:53Z</time>
      </trkpt>
      <trkpt lat="48.08961" lon="-3.56388">
        <ele>153.6</ele>
        <time>2025-02-25T15:31:54Z</time>
      </trkpt>
      <trkpt lat="48.08961" lon="-3.56387">
        <ele>153.7</ele>
        <time>2025-02-25T15:31:55Z</time>
      </trkpt>
      <trkpt lat="48.08961" lon="-3.56385">
        <ele>153.8</ele>
        <time>2025-02-25T15:31:56Z</time>
      </trkpt>
      <trkpt lat="48.08961" lon="-3.56384">
        <ele>153.9</ele>
        <time>2025-02-25T15:31:57Z</time>
      </trkpt>
      <trkpt lat="48.08961" lon="-3.56382">
        <ele>154</ele>
        <time>2025-02-25T15:31:58Z</time>
      </trkpt>
      <trkpt lat="48.08961" lon="-3.56381">
        <ele>154</ele>
        <time>2025-02-25T15:31:59Z</time>
      </trkpt>
      <trkpt lat="48.08962" lon="-3.56379">
        <ele>154.2</ele>
        <time>2025-02-25T15:32:00Z</time>
      </trkpt>
      <trkpt lat="48.08962" lon="-3.56378">
        <ele>154.3</ele>
        <time>2025-02-25T15:32:01Z</time>
      </trkpt>
      <trkpt lat="48.08962" lon="-3.56376">
        <ele>154.4</ele>
        <time>2025-02-25T15:32:02Z</time>
      </trkpt>
      <trkpt lat="48.08962" lon="-3.56375">
        <ele>154.4</ele>
        <time>2025-02-25T15:32:03Z</time>
      </trkpt>
      <trkpt lat="48.08962" lon="-3.56373">
        <ele>154.6</ele>
        <time>2025-02-25T15:32:04Z</time>
      </trkpt>
      <trkpt lat="48.08963" lon="-3.56372">
        <ele>154.7</ele>
        <time>2025-02-25T15:32:05Z</time>
      </trkpt>
      <trkpt lat="48.08963" lon="-3.56371">
        <ele>154.7</ele>
        <time>2025-02-25T15:32:06Z</time>
      </trkpt>
      <trkpt lat="48.08963" lon="-3.56369">
        <ele>154.9</ele>
        <time>2025-02-25T15:32:07Z</time>
      </trkpt>
      <trkpt lat="48.08964" lon="-3.56368">
        <ele>155</ele>
        <time>2025-02-25T15:32:08Z</time>
      </trkpt>
      <trkpt lat="48.08964" lon="-3.56366">
        <ele>155.1</ele>
        <time>2025-02-25T15:32:09Z</time>
      </trkpt>
      <trkpt lat="48.08964" lon="-3.56365">
        <ele>155.2</ele>
        <time>2025-02-25T15:32:10Z</time>
      </trkpt>
      <trkpt lat="48.08964" lon="-3.56364">
        <ele>155.2</ele>
        <time>2025-02-25T15:32:11Z</time>
      </trkpt>
      <trkpt lat="48.08964" lon="-3.56362">
        <ele>155.4</ele>
        <time>2025-02-25T15:32:12Z</time>
      </trkpt>
      <trkpt lat="48.08965" lon="-3.5636">
        <ele>155.5</ele>
        <time>2025-02-25T15:32:13Z</time>
      </trkpt>
      <trkpt lat="48.08964" lon="-3.56358">
        <ele>155.6</ele>
        <time>2025-02-25T15:32:14Z</time>
      </trkpt>
      <trkpt lat="48.08964" lon="-3.56357">
        <ele>155.6</ele>
        <time>2025-02-25T15:32:15Z</time>
      </trkpt>
      <trkpt lat="48.08965" lon="-3.56355">
        <ele>155.8</ele>
        <time>2025-02-25T15:32:16Z</time>
      </trkpt>
      <trkpt lat="48.08965" lon="-3.56353">
        <ele>155.8</ele>
        <time>2025-02-25T15:32:17Z</time>
      </trkpt>
      <trkpt lat="48.08965" lon="-3.56352">
        <ele>155.9</ele>
        <time>2025-02-25T15:32:18Z</time>
      </trkpt>
      <trkpt lat="48.08965" lon="-3.5635">
        <ele>156</ele>
        <time>2025-02-25T15:32:19Z</time>
      </trkpt>
      <trkpt lat="48.08965" lon="-3.56348">
        <ele>156.1</ele>
        <time>2025-02-25T15:32:20Z</time>
      </trkpt>
      <trkpt lat="48.08965" lon="-3.56347">
        <ele>156.1</ele>
        <time>2025-02-25T15:32:21Z</time>
      </trkpt>
      <trkpt lat="48.08966" lon="-3.56346">
        <ele>156.2</ele>
        <time>2025-02-25T15:32:22Z</time>
      </trkpt>
      <trkpt lat="48.08966" lon="-3.56344">
        <ele>156.3</ele>
        <time>2025-02-25T15:32:23Z</time>
      </trkpt>
      <trkpt lat="48.08966" lon="-3.56342">
        <ele>156.4</ele>
        <time>2025-02-25T15:32:24Z</time>
      </trkpt>
      <trkpt lat="48.08966" lon="-3.56341">
        <ele>156.4</ele>
        <time>2025-02-25T15:32:25Z</time>
      </trkpt>
      <trkpt lat="48.08967" lon="-3.5634">
        <ele>156.5</ele>
        <time>2025-02-25T15:32:26Z</time>
      </trkpt>
      <trkpt lat="48.08967" lon="-3.56339">
        <ele>156.6</ele>
        <time>2025-02-25T15:32:27Z</time>
      </trkpt>
      <trkpt lat="48.08967" lon="-3.56337">
        <ele>156.7</ele>
        <time>2025-02-25T15:32:28Z</time>
      </trkpt>
      <trkpt lat="48.08967" lon="-3.56336">
        <ele>156.7</ele>
        <time>2025-02-25T15:32:29Z</time>
      </trkpt>
      <trkpt lat="48.08967" lon="-3.56334">
        <ele>156.8</ele>
        <time>2025-02-25T15:32:30Z</time>
      </trkpt>
      <trkpt lat="48.08967" lon="-3.56332">
        <ele>156.9</ele>
        <time>2025-02-25T15:32:31Z</time>
      </trkpt>
      <trkpt lat="48.08967" lon="-3.56331">
        <ele>157</ele>
        <time>2025-02-25T15:32:32Z</time>
      </trkpt>
      <trkpt lat="48.08967" lon="-3.56329">
        <ele>157.1</ele>
        <time>2025-02-25T15:32:33Z</time>
      </trkpt>
      <trkpt lat="48.08967" lon="-3.56328">
        <ele>157.2</ele>
        <time>2025-02-25T15:32:34Z</time>
      </trkpt>
      <trkpt lat="48.08967" lon="-3.56326">
        <ele>157.3</ele>
        <time>2025-02-25T15:32:35Z</time>
      </trkpt>
      <trkpt lat="48.08968" lon="-3.56325">
        <ele>157.4</ele>
        <time>2025-02-25T15:32:36Z</time>
      </trkpt>
      <trkpt lat="48.08968" lon="-3.56323">
        <ele>157.6</ele>
        <time>2025-02-25T15:32:37Z</time>
      </trkpt>
      <trkpt lat="48.08968" lon="-3.56322">
        <ele>157.7</ele>
        <time>2025-02-25T15:32:38Z</time>
      </trkpt>
      <trkpt lat="48.08969" lon="-3.56321">
        <ele>157.8</ele>
        <time>2025-02-25T15:32:39Z</time>
      </trkpt>
      <trkpt lat="48.08969" lon="-3.5632">
        <ele>157.8</ele>
        <time>2025-02-25T15:32:40Z</time>
      </trkpt>
      <trkpt lat="48.08969" lon="-3.56318">
        <ele>158</ele>
        <time>2025-02-25T15:32:41Z</time>
      </trkpt>
      <trkpt lat="48.08969" lon="-3.56317">
        <ele>158.1</ele>
        <time>2025-02-25T15:32:42Z</time>
      </trkpt>
      <trkpt lat="48.08969" lon="-3.56315">
        <ele>158.2</ele>
        <time>2025-02-25T15:32:43Z</time>
      </trkpt>
      <trkpt lat="48.0897" lon="-3.56314">
        <ele>158.3</ele>
        <time>2025-02-25T15:32:44Z</time>
      </trkpt>
      <trkpt lat="48.0897" lon="-3.56312">
        <ele>158.5</ele>
        <time>2025-02-25T15:32:45Z</time>
      </trkpt>
      <trkpt lat="48.0897" lon="-3.56311">
        <ele>158.5</ele>
        <time>2025-02-25T15:32:46Z</time>
      </trkpt>
      <trkpt lat="48.08971" lon="-3.5631">
        <ele>158.6</ele>
        <time>2025-02-25T15:32:47Z</time>
      </trkpt>
      <trkpt lat="48.08971" lon="-3.56308">
        <ele>158.8</ele>
        <time>2025-02-25T15:32:48Z</time>
      </trkpt>
      <trkpt lat="48.08971" lon="-3.56307">
        <ele>158.9</ele>
        <time>2025-02-25T15:32:49Z</time>
      </trkpt>
      <trkpt lat="48.08971" lon="-3.56305">
        <ele>159</ele>
        <time>2025-02-25T15:32:50Z</time>
      </trkpt>
      <trkpt lat="48.08972" lon="-3.56304">
        <ele>159.1</ele>
        <time>2025-02-25T15:32:51Z</time>
      </trkpt>
      <trkpt lat="48.08972" lon="-3.56302">
        <ele>159.2</ele>
        <time>2025-02-25T15:32:52Z</time>
      </trkpt>
      <trkpt lat="48.08973" lon="-3.56301">
        <ele>159.4</ele>
        <time>2025-02-25T15:32:53Z</time>
      </trkpt>
      <trkpt lat="48.08973" lon="-3.563">
        <ele>159.4</ele>
        <time>2025-02-25T15:32:54Z</time>
      </trkpt>
      <trkpt lat="48.08973" lon="-3.56298">
        <ele>159.6</ele>
        <time>2025-02-25T15:32:55Z</time>
      </trkpt>
      <trkpt lat="48.08974" lon="-3.56296">
        <ele>159.8</ele>
        <time>2025-02-25T15:32:56Z</time>
      </trkpt>
      <trkpt lat="48.08974" lon="-3.56295">
        <ele>159.8</ele>
        <time>2025-02-25T15:32:57Z</time>
      </trkpt>
      <trkpt lat="48.08974" lon="-3.56293">
        <ele>160</ele>
        <time>2025-02-25T15:32:58Z</time>
      </trkpt>
      <trkpt lat="48.08974" lon="-3.56292">
        <ele>160</ele>
        <time>2025-02-25T15:32:59Z</time>
      </trkpt>
      <trkpt lat="48.08974" lon="-3.56291">
        <ele>160.1</ele>
        <time>2025-02-25T15:33:00Z</time>
      </trkpt>
      <trkpt lat="48.08975" lon="-3.56289">
        <ele>160.3</ele>
        <time>2025-02-25T15:33:01Z</time>
      </trkpt>
      <trkpt lat="48.08975" lon="-3.56288">
        <ele>160.4</ele>
        <time>2025-02-25T15:33:02Z</time>
      </trkpt>
      <trkpt lat="48.08976" lon="-3.56286">
        <ele>160.5</ele>
        <time>2025-02-25T15:33:03Z</time>
      </trkpt>
      <trkpt lat="48.08975" lon="-3.56285">
        <ele>160.6</ele>
        <time>2025-02-25T15:33:04Z</time>
      </trkpt>
      <trkpt lat="48.08976" lon="-3.56283">
        <ele>160.8</ele>
        <time>2025-02-25T15:33:05Z</time>
      </trkpt>
      <trkpt lat="48.08976" lon="-3.56281">
        <ele>160.9</ele>
        <time>2025-02-25T15:33:06Z</time>
      </trkpt>
      <trkpt lat="48.08976" lon="-3.56279">
        <ele>161</ele>
        <time>2025-02-25T15:33:07Z</time>
      </trkpt>
      <trkpt lat="48.08977" lon="-3.56278">
        <ele>161.2</ele>
        <time>2025-02-25T15:33:08Z</time>
      </trkpt>
      <trkpt lat="48.08977" lon="-3.56276">
        <ele>161.3</ele>
        <time>2025-02-25T15:33:09Z</time>
      </trkpt>
      <trkpt lat="48.08978" lon="-3.56274">
        <ele>161.5</ele>
        <time>2025-02-25T15:33:10Z</time>
      </trkpt>
      <trkpt lat="48.08978" lon="-3.56273">
        <ele>161.6</ele>
        <time>2025-02-25T15:33:11Z</time>
      </trkpt>
      <trkpt lat="48.08979" lon="-3.56271">
        <ele>161.7</ele>
        <time>2025-02-25T15:33:12Z</time>
      </trkpt>
      <trkpt lat="48.08979" lon="-3.56269">
        <ele>161.9</ele>
        <time>2025-02-25T15:33:13Z</time>
      </trkpt>
      <trkpt lat="48.08979" lon="-3.56268">
        <ele>161.9</ele>
        <time>2025-02-25T15:33:14Z</time>
      </trkpt>
      <trkpt lat="48.0898" lon="-3.56266">
        <ele>162.1</ele>
        <time>2025-02-25T15:33:15Z</time>
      </trkpt>
      <trkpt lat="48.08979" lon="-3.56264">
        <ele>162.2</ele>
        <time>2025-02-25T15:33:16Z</time>
      </trkpt>
      <trkpt lat="48.0898" lon="-3.56263">
        <ele>162.3</ele>
        <time>2025-02-25T15:33:17Z</time>
      </trkpt>
      <trkpt lat="48.08981" lon="-3.56261">
        <ele>162.5</ele>
        <time>2025-02-25T15:33:18Z</time>
      </trkpt>
      <trkpt lat="48.08981" lon="-3.5626">
        <ele>162.6</ele>
        <time>2025-02-25T15:33:19Z</time>
      </trkpt>
      <trkpt lat="48.08982" lon="-3.56259">
        <ele>162.7</ele>
        <time>2025-02-25T15:33:20Z</time>
      </trkpt>
      <trkpt lat="48.08982" lon="-3.56257">
        <ele>162.8</ele>
        <time>2025-02-25T15:33:21Z</time>
      </trkpt>
      <trkpt lat="48.08982" lon="-3.56256">
        <ele>162.9</ele>
        <time>2025-02-25T15:33:22Z</time>
      </trkpt>
      <trkpt lat="48.08982" lon="-3.56254">
        <ele>163.1</ele>
        <time>2025-02-25T15:33:23Z</time>
      </trkpt>
      <trkpt lat="48.08982" lon="-3.56253">
        <ele>163.1</ele>
        <time>2025-02-25T15:33:24Z</time>
      </trkpt>
      <trkpt lat="48.08983" lon="-3.56251">
        <ele>163.3</ele>
        <time>2025-02-25T15:33:25Z</time>
      </trkpt>
      <trkpt lat="48.08983" lon="-3.5625">
        <ele>163.4</ele>
        <time>2025-02-25T15:33:26Z</time>
      </trkpt>
      <trkpt lat="48.08983" lon="-3.56248">
        <ele>163.5</ele>
        <time>2025-02-25T15:33:27Z</time>
      </trkpt>
      <trkpt lat="48.08984" lon="-3.56246">
        <ele>163.7</ele>
        <time>2025-02-25T15:33:28Z</time>
      </trkpt>
      <trkpt lat="48.08984" lon="-3.56245">
        <ele>163.7</ele>
        <time>2025-02-25T15:33:29Z</time>
      </trkpt>
      <trkpt lat="48.08985" lon="-3.56244">
        <ele>163.8</ele>
        <time>2025-02-25T15:33:30Z</time>
      </trkpt>
      <trkpt lat="48.08985" lon="-3.56243">
        <ele>163.8</ele>
        <time>2025-02-25T15:33:31Z</time>
      </trkpt>
      <trkpt lat="48.08985" lon="-3.56241">
        <ele>164</ele>
        <time>2025-02-25T15:33:32Z</time>
      </trkpt>
      <trkpt lat="48.08985" lon="-3.5624">
        <ele>164</ele>
        <time>2025-02-25T15:33:33Z</time>
      </trkpt>
      <trkpt lat="48.08985" lon="-3.56238">
        <ele>164.1</ele>
        <time>2025-02-25T15:33:34Z</time>
      </trkpt>
      <trkpt lat="48.08985" lon="-3.56237">
        <ele>164.2</ele>
        <time>2025-02-25T15:33:35Z</time>
      </trkpt>
      <trkpt lat="48.08986" lon="-3.56236">
        <ele>164.3</ele>
        <time>2025-02-25T15:33:36Z</time>
      </trkpt>
      <trkpt lat="48.08987" lon="-3.56235">
        <ele>164.3</ele>
        <time>2025-02-25T15:33:37Z</time>
      </trkpt>
      <trkpt lat="48.08987" lon="-3.56234">
        <ele>164.4</ele>
        <time>2025-02-25T15:33:38Z</time>
      </trkpt>
      <trkpt lat="48.08987" lon="-3.56232">
        <ele>164.5</ele>
        <time>2025-02-25T15:33:39Z</time>
      </trkpt>
      <trkpt lat="48.08988" lon="-3.56231">
        <ele>164.5</ele>
        <time>2025-02-25T15:33:40Z</time>
      </trkpt>
      <trkpt lat="48.08989" lon="-3.5623">
        <ele>164.6</ele>
        <time>2025-02-25T15:33:41Z</time>
      </trkpt>
      <trkpt lat="48.08989" lon="-3.56228">
        <ele>164.7</ele>
        <time>2025-02-25T15:33:42Z</time>
      </trkpt>
      <trkpt lat="48.08989" lon="-3.56226">
        <ele>164.8</ele>
        <time>2025-02-25T15:33:43Z</time>
      </trkpt>
      <trkpt lat="48.08989" lon="-3.56225">
        <ele>164.9</ele>
        <time>2025-02-25T15:33:44Z</time>
      </trkpt>
      <trkpt lat="48.08989" lon="-3.56223">
        <ele>165</ele>
        <time>2025-02-25T15:33:45Z</time>
      </trkpt>
      <trkpt lat="48.08989" lon="-3.56221">
        <ele>165</ele>
        <time>2025-02-25T15:33:46Z</time>
      </trkpt>
      <trkpt lat="48.0899" lon="-3.5622">
        <ele>165.1</ele>
        <time>2025-02-25T15:33:47Z</time>
      </trkpt>
      <trkpt lat="48.0899" lon="-3.56218">
        <ele>165.1</ele>
        <time>2025-02-25T15:33:48Z</time>
      </trkpt>
      <trkpt lat="48.0899" lon="-3.56217">
        <ele>165.1</ele>
        <time>2025-02-25T15:33:49Z</time>
      </trkpt>
      <trkpt lat="48.0899" lon="-3.56216">
        <ele>165.1</ele>
        <time>2025-02-25T15:33:50Z</time>
      </trkpt>
      <trkpt lat="48.0899" lon="-3.56214">
        <ele>165.2</ele>
        <time>2025-02-25T15:33:51Z</time>
      </trkpt>
      <trkpt lat="48.08991" lon="-3.56213">
        <ele>165.2</ele>
        <time>2025-02-25T15:33:52Z</time>
      </trkpt>
      <trkpt lat="48.08991" lon="-3.56212">
        <ele>165.2</ele>
        <time>2025-02-25T15:33:53Z</time>
      </trkpt>
      <trkpt lat="48.08991" lon="-3.5621">
        <ele>165.3</ele>
        <time>2025-02-25T15:33:54Z</time>
      </trkpt>
      <trkpt lat="48.08991" lon="-3.56209">
        <ele>165.3</ele>
        <time>2025-02-25T15:33:55Z</time>
      </trkpt>
      <trkpt lat="48.08992" lon="-3.56208">
        <ele>165.4</ele>
        <time>2025-02-25T15:33:56Z</time>
      </trkpt>
      <trkpt lat="48.08992" lon="-3.56206">
        <ele>165.4</ele>
        <time>2025-02-25T15:33:57Z</time>
      </trkpt>
      <trkpt lat="48.08991" lon="-3.56205">
        <ele>165.4</ele>
        <time>2025-02-25T15:33:58Z</time>
      </trkpt>
      <trkpt lat="48.08992" lon="-3.56204">
        <ele>165.5</ele>
        <time>2025-02-25T15:33:59Z</time>
      </trkpt>
      <trkpt lat="48.08992" lon="-3.56203">
        <ele>165.5</ele>
        <time>2025-02-25T15:34:00Z</time>
      </trkpt>
      <trkpt lat="48.08993" lon="-3.56202">
        <ele>165.5</ele>
        <time>2025-02-25T15:34:01Z</time>
      </trkpt>
      <trkpt lat="48.08993" lon="-3.562">
        <ele>165.6</ele>
        <time>2025-02-25T15:34:02Z</time>
      </trkpt>
      <trkpt lat="48.08993" lon="-3.56199">
        <ele>165.6</ele>
        <time>2025-02-25T15:34:03Z</time>
      </trkpt>
      <trkpt lat="48.08993" lon="-3.56198">
        <ele>165.7</ele>
        <time>2025-02-25T15:34:04Z</time>
      </trkpt>
      <trkpt lat="48.08993" lon="-3.56197">
        <ele>165.7</ele>
        <time>2025-02-25T15:34:05Z</time>
      </trkpt>
      <trkpt lat="48.08994" lon="-3.56196">
        <ele>165.7</ele>
        <time>2025-02-25T15:34:06Z</time>
      </trkpt>
      <trkpt lat="48.08994" lon="-3.56195">
        <ele>165.8</ele>
        <time>2025-02-25T15:34:07Z</time>
      </trkpt>
      <trkpt lat="48.08994" lon="-3.56193">
        <ele>165.9</ele>
        <time>2025-02-25T15:34:08Z</time>
      </trkpt>
      <trkpt lat="48.08995" lon="-3.56192">
        <ele>166</ele>
        <time>2025-02-25T15:34:09Z</time>
      </trkpt>
      <trkpt lat="48.08995" lon="-3.56191">
        <ele>166.1</ele>
        <time>2025-02-25T15:34:10Z</time>
      </trkpt>
      <trkpt lat="48.08995" lon="-3.5619">
        <ele>166.2</ele>
        <time>2025-02-25T15:34:11Z</time>
      </trkpt>
      <trkpt lat="48.08995" lon="-3.56188">
        <ele>166.4</ele>
        <time>2025-02-25T15:34:12Z</time>
      </trkpt>
      <trkpt lat="48.08996" lon="-3.56187">
        <ele>166.5</ele>
        <time>2025-02-25T15:34:13Z</time>
      </trkpt>
      <trkpt lat="48.08996" lon="-3.56185">
        <ele>166.6</ele>
        <time>2025-02-25T15:34:14Z</time>
      </trkpt>
      <trkpt lat="48.08996" lon="-3.56184">
        <ele>166.7</ele>
        <time>2025-02-25T15:34:15Z</time>
      </trkpt>
      <trkpt lat="48.08996" lon="-3.56183">
        <ele>166.8</ele>
        <time>2025-02-25T15:34:16Z</time>
      </trkpt>
      <trkpt lat="48.08996" lon="-3.56181">
        <ele>167</ele>
        <time>2025-02-25T15:34:17Z</time>
      </trkpt>
      <trkpt lat="48.08996" lon="-3.56179">
        <ele>167.1</ele>
        <time>2025-02-25T15:34:18Z</time>
      </trkpt>
      <trkpt lat="48.08996" lon="-3.56178">
        <ele>167.2</ele>
        <time>2025-02-25T15:34:19Z</time>
      </trkpt>
      <trkpt lat="48.08997" lon="-3.56177">
        <ele>167.3</ele>
        <time>2025-02-25T15:34:20Z</time>
      </trkpt>
      <trkpt lat="48.08997" lon="-3.56176">
        <ele>167.4</ele>
        <time>2025-02-25T15:34:21Z</time>
      </trkpt>
      <trkpt lat="48.08997" lon="-3.56174">
        <ele>167.5</ele>
        <time>2025-02-25T15:34:22Z</time>
      </trkpt>
      <trkpt lat="48.08997" lon="-3.56173">
        <ele>167.6</ele>
        <time>2025-02-25T15:34:23Z</time>
      </trkpt>
      <trkpt lat="48.08997" lon="-3.56172">
        <ele>167.7</ele>
        <time>2025-02-25T15:34:24Z</time>
      </trkpt>
      <trkpt lat="48.08998" lon="-3.56172">
        <ele>167.7</ele>
        <time>2025-02-25T15:34:25Z</time>
      </trkpt>
      <trkpt lat="48.08999" lon="-3.5617">
        <ele>167.8</ele>
        <time>2025-02-25T15:34:26Z</time>
      </trkpt>
      <trkpt lat="48.09" lon="-3.56169">
        <ele>167.8</ele>
        <time>2025-02-25T15:34:27Z</time>
      </trkpt>
      <trkpt lat="48.09001" lon="-3.56169">
        <ele>167.8</ele>
        <time>2025-02-25T15:34:28Z</time>
      </trkpt>
      <trkpt lat="48.09001" lon="-3.56167">
        <ele>168</ele>
        <time>2025-02-25T15:34:29Z</time>
      </trkpt>
      <trkpt lat="48.09001" lon="-3.56166">
        <ele>168</ele>
        <time>2025-02-25T15:34:30Z</time>
      </trkpt>
      <trkpt lat="48.09001" lon="-3.56165">
        <ele>168.1</ele>
        <time>2025-02-25T15:34:31Z</time>
      </trkpt>
      <trkpt lat="48.09001" lon="-3.56163">
        <ele>168.1</ele>
        <time>2025-02-25T15:34:32Z</time>
      </trkpt>
      <trkpt lat="48.09001" lon="-3.56162">
        <ele>168.2</ele>
        <time>2025-02-25T15:34:33Z</time>
      </trkpt>
      <trkpt lat="48.09" lon="-3.56161">
        <ele>168.2</ele>
        <time>2025-02-25T15:34:34Z</time>
      </trkpt>
      <trkpt lat="48.09" lon="-3.56159">
        <ele>168.3</ele>
        <time>2025-02-25T15:34:35Z</time>
      </trkpt>
      <trkpt lat="48.09" lon="-3.56158">
        <ele>168.3</ele>
        <time>2025-02-25T15:34:36Z</time>
      </trkpt>
      <trkpt lat="48.09" lon="-3.56157">
        <ele>168.3</ele>
        <time>2025-02-25T15:34:37Z</time>
      </trkpt>
      <trkpt lat="48.09" lon="-3.56155">
        <ele>168.4</ele>
        <time>2025-02-25T15:34:38Z</time>
      </trkpt>
      <trkpt lat="48.09" lon="-3.56154">
        <ele>168.5</ele>
        <time>2025-02-25T15:34:39Z</time>
      </trkpt>
      <trkpt lat="48.09" lon="-3.56152">
        <ele>168.5</ele>
        <time>2025-02-25T15:34:40Z</time>
      </trkpt>
      <trkpt lat="48.08999" lon="-3.56151">
        <ele>168.6</ele>
        <time>2025-02-25T15:34:41Z</time>
      </trkpt>
      <trkpt lat="48.08999" lon="-3.56149">
        <ele>168.7</ele>
        <time>2025-02-25T15:34:42Z</time>
      </trkpt>
      <trkpt lat="48.08999" lon="-3.56148">
        <ele>168.7</ele>
        <time>2025-02-25T15:34:43Z</time>
      </trkpt>
      <trkpt lat="48.08999" lon="-3.56147">
        <ele>168.7</ele>
        <time>2025-02-25T15:34:44Z</time>
      </trkpt>
      <trkpt lat="48.08999" lon="-3.56145">
        <ele>168.8</ele>
        <time>2025-02-25T15:34:45Z</time>
      </trkpt>
      <trkpt lat="48.09" lon="-3.56144">
        <ele>168.8</ele>
        <time>2025-02-25T15:34:46Z</time>
      </trkpt>
      <trkpt lat="48.09" lon="-3.56142">
        <ele>168.9</ele>
        <time>2025-02-25T15:34:47Z</time>
      </trkpt>
      <trkpt lat="48.09" lon="-3.56141">
        <ele>168.9</ele>
        <time>2025-02-25T15:34:48Z</time>
      </trkpt>
      <trkpt lat="48.09" lon="-3.56139">
        <ele>169</ele>
        <time>2025-02-25T15:34:49Z</time>
      </trkpt>
      <trkpt lat="48.09001" lon="-3.56138">
        <ele>169</ele>
        <time>2025-02-25T15:34:50Z</time>
      </trkpt>
      <trkpt lat="48.09001" lon="-3.56137">
        <ele>169.1</ele>
        <time>2025-02-25T15:34:51Z</time>
      </trkpt>
      <trkpt lat="48.09001" lon="-3.56135">
        <ele>169.1</ele>
        <time>2025-02-25T15:34:52Z</time>
      </trkpt>
      <trkpt lat="48.09001" lon="-3.56134">
        <ele>169.2</ele>
        <time>2025-02-25T15:34:53Z</time>
      </trkpt>
      <trkpt lat="48.09" lon="-3.56133">
        <ele>169.2</ele>
        <time>2025-02-25T15:34:54Z</time>
      </trkpt>
      <trkpt lat="48.09" lon="-3.56131">
        <ele>169.3</ele>
        <time>2025-02-25T15:34:55Z</time>
      </trkpt>
      <trkpt lat="48.09" lon="-3.5613">
        <ele>169.3</ele>
        <time>2025-02-25T15:34:56Z</time>
      </trkpt>
      <trkpt lat="48.09" lon="-3.56128">
        <ele>169.4</ele>
        <time>2025-02-25T15:34:57Z</time>
      </trkpt>
      <trkpt lat="48.08999" lon="-3.56127">
        <ele>169.5</ele>
        <time>2025-02-25T15:34:58Z</time>
      </trkpt>
      <trkpt lat="48.08999" lon="-3.56126">
        <ele>169.5</ele>
        <time>2025-02-25T15:34:59Z</time>
      </trkpt>
      <trkpt lat="48.08999" lon="-3.56124">
        <ele>169.6</ele>
        <time>2025-02-25T15:35:00Z</time>
      </trkpt>
      <trkpt lat="48.08999" lon="-3.56123">
        <ele>169.6</ele>
        <time>2025-02-25T15:35:01Z</time>
      </trkpt>
      <trkpt lat="48.08998" lon="-3.56122">
        <ele>169.7</ele>
        <time>2025-02-25T15:35:02Z</time>
      </trkpt>
      <trkpt lat="48.08998" lon="-3.56121">
        <ele>169.7</ele>
        <time>2025-02-25T15:35:03Z</time>
      </trkpt>
      <trkpt lat="48.08998" lon="-3.56119">
        <ele>169.8</ele>
        <time>2025-02-25T15:35:04Z</time>
      </trkpt>
      <trkpt lat="48.08997" lon="-3.56118">
        <ele>169.9</ele>
        <time>2025-02-25T15:35:05Z</time>
      </trkpt>
      <trkpt lat="48.08997" lon="-3.56117">
        <ele>169.9</ele>
        <time>2025-02-25T15:35:06Z</time>
      </trkpt>
      <trkpt lat="48.08997" lon="-3.56116">
        <ele>169.9</ele>
        <time>2025-02-25T15:35:07Z</time>
      </trkpt>
      <trkpt lat="48.08997" lon="-3.56115">
        <ele>170</ele>
        <time>2025-02-25T15:35:08Z</time>
      </trkpt>
      <trkpt lat="48.08997" lon="-3.56114">
        <ele>170</ele>
        <time>2025-02-25T15:35:09Z</time>
      </trkpt>
      <trkpt lat="48.08997" lon="-3.56112">
        <ele>170.1</ele>
        <time>2025-02-25T15:35:10Z</time>
      </trkpt>
      <trkpt lat="48.08996" lon="-3.56111">
        <ele>170.1</ele>
        <time>2025-02-25T15:35:11Z</time>
      </trkpt>
      <trkpt lat="48.08996" lon="-3.56109">
        <ele>170.1</ele>
        <time>2025-02-25T15:35:12Z</time>
      </trkpt>
      <trkpt lat="48.08996" lon="-3.56108">
        <ele>170.1</ele>
        <time>2025-02-25T15:35:13Z</time>
      </trkpt>
      <trkpt lat="48.08995" lon="-3.56107">
        <ele>170.2</ele>
        <time>2025-02-25T15:35:14Z</time>
      </trkpt>
      <trkpt lat="48.08995" lon="-3.56106">
        <ele>170.1</ele>
        <time>2025-02-25T15:35:15Z</time>
      </trkpt>
      <trkpt lat="48.08994" lon="-3.56105">
        <ele>170.2</ele>
        <time>2025-02-25T15:35:16Z</time>
      </trkpt>
      <trkpt lat="48.08994" lon="-3.56104">
        <ele>170.2</ele>
        <time>2025-02-25T15:35:17Z</time>
      </trkpt>
      <trkpt lat="48.08993" lon="-3.56104">
        <ele>170.2</ele>
        <time>2025-02-25T15:35:18Z</time>
      </trkpt>
      <trkpt lat="48.08992" lon="-3.56103">
        <ele>170.2</ele>
        <time>2025-02-25T15:35:19Z</time>
      </trkpt>
      <trkpt lat="48.08991" lon="-3.56101">
        <ele>170.2</ele>
        <time>2025-02-25T15:35:20Z</time>
      </trkpt>
      <trkpt lat="48.08991" lon="-3.561">
        <ele>170.2</ele>
        <time>2025-02-25T15:35:21Z</time>
      </trkpt>
      <trkpt lat="48.08991" lon="-3.56099">
        <ele>170.2</ele>
        <time>2025-02-25T15:35:22Z</time>
      </trkpt>
      <trkpt lat="48.0899" lon="-3.56098">
        <ele>170.2</ele>
        <time>2025-02-25T15:35:23Z</time>
      </trkpt>
      <trkpt lat="48.0899" lon="-3.56097">
        <ele>170.2</ele>
        <time>2025-02-25T15:35:24Z</time>
      </trkpt>
      <trkpt lat="48.08989" lon="-3.56096">
        <ele>170.2</ele>
        <time>2025-02-25T15:35:25Z</time>
      </trkpt>
      <trkpt lat="48.08989" lon="-3.56094">
        <ele>170.2</ele>
        <time>2025-02-25T15:35:26Z</time>
      </trkpt>
      <trkpt lat="48.08988" lon="-3.56094">
        <ele>170.2</ele>
        <time>2025-02-25T15:35:27Z</time>
      </trkpt>
      <trkpt lat="48.08988" lon="-3.56093">
        <ele>170.2</ele>
        <time>2025-02-25T15:35:28Z</time>
      </trkpt>
      <trkpt lat="48.08987" lon="-3.56092">
        <ele>170.1</ele>
        <time>2025-02-25T15:35:29Z</time>
      </trkpt>
      <trkpt lat="48.08986" lon="-3.56092">
        <ele>170.2</ele>
        <time>2025-02-25T15:35:30Z</time>
      </trkpt>
      <trkpt lat="48.08986" lon="-3.56091">
        <ele>170.1</ele>
        <time>2025-02-25T15:35:31Z</time>
      </trkpt>
      <trkpt lat="48.08985" lon="-3.5609">
        <ele>170.1</ele>
        <time>2025-02-25T15:35:32Z</time>
      </trkpt>
      <trkpt lat="48.08984" lon="-3.56089">
        <ele>170.1</ele>
        <time>2025-02-25T15:35:33Z</time>
      </trkpt>
      <trkpt lat="48.08983" lon="-3.56089">
        <ele>170.1</ele>
        <time>2025-02-25T15:35:34Z</time>
      </trkpt>
      <trkpt lat="48.08982" lon="-3.56088">
        <ele>170.1</ele>
        <time>2025-02-25T15:35:35Z</time>
      </trkpt>
      <trkpt lat="48.08982" lon="-3.56087">
        <ele>170.1</ele>
        <time>2025-02-25T15:35:36Z</time>
      </trkpt>
      <trkpt lat="48.08981" lon="-3.56086">
        <ele>170.1</ele>
        <time>2025-02-25T15:35:37Z</time>
      </trkpt>
      <trkpt lat="48.0898" lon="-3.56085">
        <ele>170</ele>
        <time>2025-02-25T15:35:38Z</time>
      </trkpt>
      <trkpt lat="48.08979" lon="-3.56084">
        <ele>170</ele>
        <time>2025-02-25T15:35:39Z</time>
      </trkpt>
      <trkpt lat="48.08978" lon="-3.56084">
        <ele>170</ele>
        <time>2025-02-25T15:35:40Z</time>
      </trkpt>
      <trkpt lat="48.08977" lon="-3.56083">
        <ele>170</ele>
        <time>2025-02-25T15:35:41Z</time>
      </trkpt>
      <trkpt lat="48.08977" lon="-3.56082">
        <ele>170</ele>
        <time>2025-02-25T15:35:42Z</time>
      </trkpt>
      <trkpt lat="48.08976" lon="-3.56081">
        <ele>169.9</ele>
        <time>2025-02-25T15:35:43Z</time>
      </trkpt>
      <trkpt lat="48.08975" lon="-3.5608">
        <ele>169.9</ele>
        <time>2025-02-25T15:35:44Z</time>
      </trkpt>
      <trkpt lat="48.08974" lon="-3.56079">
        <ele>169.9</ele>
        <time>2025-02-25T15:35:45Z</time>
      </trkpt>
      <trkpt lat="48.08974" lon="-3.56077">
        <ele>169.8</ele>
        <time>2025-02-25T15:35:46Z</time>
      </trkpt>
      <trkpt lat="48.08973" lon="-3.56076">
        <ele>169.7</ele>
        <time>2025-02-25T15:35:47Z</time>
      </trkpt>
      <trkpt lat="48.08972" lon="-3.56075">
        <ele>169.7</ele>
        <time>2025-02-25T15:35:48Z</time>
      </trkpt>
      <trkpt lat="48.08971" lon="-3.56074">
        <ele>169.6</ele>
        <time>2025-02-25T15:35:49Z</time>
      </trkpt>
      <trkpt lat="48.0897" lon="-3.56074">
        <ele>169.6</ele>
        <time>2025-02-25T15:35:50Z</time>
      </trkpt>
      <trkpt lat="48.08969" lon="-3.56074">
        <ele>169.6</ele>
        <time>2025-02-25T15:35:51Z</time>
      </trkpt>
      <trkpt lat="48.08968" lon="-3.56074">
        <ele>169.6</ele>
        <time>2025-02-25T15:35:52Z</time>
      </trkpt>
      <trkpt lat="48.08967" lon="-3.56073">
        <ele>169.5</ele>
        <time>2025-02-25T15:35:53Z</time>
      </trkpt>
      <trkpt lat="48.08966" lon="-3.56072">
        <ele>169.5</ele>
        <time>2025-02-25T15:35:54Z</time>
      </trkpt>
      <trkpt lat="48.08966" lon="-3.56073">
        <ele>169.5</ele>
        <time>2025-02-25T15:35:55Z</time>
      </trkpt>
      <trkpt lat="48.08965" lon="-3.56072">
        <ele>169.4</ele>
        <time>2025-02-25T15:35:56Z</time>
      </trkpt>
      <trkpt lat="48.08964" lon="-3.56071">
        <ele>169.4</ele>
        <time>2025-02-25T15:35:57Z</time>
      </trkpt>
      <trkpt lat="48.08962" lon="-3.56072">
        <ele>169.4</ele>
        <time>2025-02-25T15:35:58Z</time>
      </trkpt>
      <trkpt lat="48.08961" lon="-3.56071">
        <ele>169.3</ele>
        <time>2025-02-25T15:35:59Z</time>
      </trkpt>
      <trkpt lat="48.08961" lon="-3.56071">
        <ele>169.3</ele>
        <time>2025-02-25T15:36:00Z</time>
      </trkpt>
      <trkpt lat="48.0896" lon="-3.56072">
        <ele>169.3</ele>
        <time>2025-02-25T15:36:01Z</time>
      </trkpt>
      <trkpt lat="48.08959" lon="-3.56072">
        <ele>169.3</ele>
        <time>2025-02-25T15:36:02Z</time>
      </trkpt>
      <trkpt lat="48.08958" lon="-3.56072">
        <ele>169.3</ele>
        <time>2025-02-25T15:36:03Z</time>
      </trkpt>
      <trkpt lat="48.08957" lon="-3.56072">
        <ele>169.3</ele>
        <time>2025-02-25T15:36:04Z</time>
      </trkpt>
      <trkpt lat="48.08956" lon="-3.56072">
        <ele>169.2</ele>
        <time>2025-02-25T15:36:05Z</time>
      </trkpt>
      <trkpt lat="48.08955" lon="-3.56072">
        <ele>169.2</ele>
        <time>2025-02-25T15:36:06Z</time>
      </trkpt>
      <trkpt lat="48.08953" lon="-3.56072">
        <ele>169.2</ele>
        <time>2025-02-25T15:36:07Z</time>
      </trkpt>
      <trkpt lat="48.08952" lon="-3.56072">
        <ele>169.2</ele>
        <time>2025-02-25T15:36:08Z</time>
      </trkpt>
      <trkpt lat="48.08951" lon="-3.56073">
        <ele>169.1</ele>
        <time>2025-02-25T15:36:09Z</time>
      </trkpt>
      <trkpt lat="48.0895" lon="-3.56073">
        <ele>169.1</ele>
        <time>2025-02-25T15:36:10Z</time>
      </trkpt>
      <trkpt lat="48.0895" lon="-3.56074">
        <ele>169.1</ele>
        <time>2025-02-25T15:36:11Z</time>
      </trkpt>
      <trkpt lat="48.08949" lon="-3.56076">
        <ele>169.1</ele>
        <time>2025-02-25T15:36:12Z</time>
      </trkpt>
      <trkpt lat="48.08949" lon="-3.56077">
        <ele>169.1</ele>
        <time>2025-02-25T15:36:13Z</time>
      </trkpt>
      <trkpt lat="48.08948" lon="-3.56078">
        <ele>169.1</ele>
        <time>2025-02-25T15:36:14Z</time>
      </trkpt>
      <trkpt lat="48.08947" lon="-3.56079">
        <ele>169.1</ele>
        <time>2025-02-25T15:36:15Z</time>
      </trkpt>
      <trkpt lat="48.08947" lon="-3.5608">
        <ele>169.1</ele>
        <time>2025-02-25T15:36:16Z</time>
      </trkpt>
      <trkpt lat="48.08946" lon="-3.56081">
        <ele>169.1</ele>
        <time>2025-02-25T15:36:17Z</time>
      </trkpt>
      <trkpt lat="48.08946" lon="-3.56082">
        <ele>169.1</ele>
        <time>2025-02-25T15:36:18Z</time>
      </trkpt>
      <trkpt lat="48.08945" lon="-3.56083">
        <ele>169</ele>
        <time>2025-02-25T15:36:19Z</time>
      </trkpt>
      <trkpt lat="48.08945" lon="-3.56084">
        <ele>169</ele>
        <time>2025-02-25T15:36:20Z</time>
      </trkpt>
      <trkpt lat="48.08944" lon="-3.56084">
        <ele>169</ele>
        <time>2025-02-25T15:36:21Z</time>
      </trkpt>
      <trkpt lat="48.08943" lon="-3.56085">
        <ele>168.9</ele>
        <time>2025-02-25T15:36:22Z</time>
      </trkpt>
      <trkpt lat="48.08944" lon="-3.56084">
        <ele>169</ele>
        <time>2025-02-25T15:36:23Z</time>
      </trkpt>
      <trkpt lat="48.08944" lon="-3.56084">
        <ele>169</ele>
        <time>2025-02-25T15:36:24Z</time>
      </trkpt>
      <trkpt lat="48.08944" lon="-3.56084">
        <ele>169</ele>
        <time>2025-02-25T15:36:25Z</time>
      </trkpt>
      <trkpt lat="48.08944" lon="-3.56084">
        <ele>169</ele>
        <time>2025-02-25T15:36:26Z</time>
      </trkpt>
      <trkpt lat="48.08944" lon="-3.56084">
        <ele>169</ele>
        <time>2025-02-25T15:36:27Z</time>
      </trkpt>
      <trkpt lat="48.08944" lon="-3.56084">
        <ele>169</ele>
        <time>2025-02-25T15:36:28Z</time>
      </trkpt>
      <trkpt lat="48.08944" lon="-3.56084">
        <ele>169</ele>
        <time>2025-02-25T15:36:29Z</time>
      </trkpt>
      <trkpt lat="48.08944" lon="-3.56084">
        <ele>169</ele>
        <time>2025-02-25T15:36:30Z</time>
      </trkpt>
      <trkpt lat="48.08944" lon="-3.56084">
        <ele>169</ele>
        <time>2025-02-25T15:36:31Z</time>
      </trkpt>
    </trkseg>
  </trk>
</gpx>